<?xml version="1.0" encoding="UTF-8"?>
<gpx version="1.1" creator="https://www.youtrack.es" xsi:schemaLocation="http://www.topografix.com/GPX/1/1 http://www.topografix.com/GPX/1/1/gpx.xsd http://www.garmin.com/xmlschemas/GpxExtensions/v3 http://www.garmin.com/xmlschemas/GpxExtensionsv3.xsd http://www.garmin.com/xmlschemas/TrackPointExtension/v1 http://www.garmin.com/xmlschemas/TrackPointExtensionv1.xsd" xmlns:gpxtpx="http://www.garmin.com/xmlschemas/TrackPointExtension/v1" xmlns:gpxx="http://www.garmin.com/xmlschemas/GpxExtensions/v3" xmlns:xsi="http://www.w3.org/2001/XMLSchema-instance">
  <metadata>
    <link href="https://www.youtrack.es">
      <text>YouTrack.es</text>
    </link>
    <time>2026-05-08T19:12:18Z</time>
  </metadata>
  <trk>
    <src>https://www.youtrack.es</src>
    <link href="https://www.youtrack.es/ruta/22438-pozoblanco-sagres-aracena-pozoblnaco">
      <text>YouTrack.es</text>
    </link>
    <trkseg>
      <trkpt lat="38.3798117749" lon="-4.8598052468">
        <ele>683.15</ele>
        <time>2021-05-28T04:47:34Z</time>
      </trkpt>
      <trkpt lat="38.3798113558" lon="-4.8597992957">
        <ele>683.15</ele>
        <time>2021-05-28T04:47:35Z</time>
      </trkpt>
      <trkpt lat="38.3798064105" lon="-4.8597610742">
        <ele>661.52</ele>
        <time>2021-05-28T04:47:41Z</time>
      </trkpt>
      <trkpt lat="38.3798349928" lon="-4.8597994633">
        <ele>660.56</ele>
        <time>2021-05-28T04:47:59Z</time>
      </trkpt>
      <trkpt lat="38.3798278682" lon="-4.8597999662">
        <ele>660.56</ele>
        <time>2021-05-28T04:48:06Z</time>
      </trkpt>
      <trkpt lat="38.3797780797" lon="-4.8600038979">
        <ele>661.04</ele>
        <time>2021-05-28T04:48:14Z</time>
      </trkpt>
      <trkpt lat="38.3797048219" lon="-4.8601171374">
        <ele>661.04</ele>
        <time>2021-05-28T04:48:19Z</time>
      </trkpt>
      <trkpt lat="38.3796339948" lon="-4.8601712845">
        <ele>660.56</ele>
        <time>2021-05-28T04:48:23Z</time>
      </trkpt>
      <trkpt lat="38.3796056639" lon="-4.8601805884">
        <ele>660.56</ele>
        <time>2021-05-28T04:48:38Z</time>
      </trkpt>
      <trkpt lat="38.3795483317" lon="-4.8602702748">
        <ele>661.52</ele>
        <time>2021-05-28T04:48:53Z</time>
      </trkpt>
      <trkpt lat="38.3795241080" lon="-4.8603343125">
        <ele>662.01</ele>
        <time>2021-05-28T04:48:54Z</time>
      </trkpt>
      <trkpt lat="38.3795065060" lon="-4.8604213167">
        <ele>662.01</ele>
        <time>2021-05-28T04:48:55Z</time>
      </trkpt>
      <trkpt lat="38.3793557994" lon="-4.8615561426">
        <ele>663.45</ele>
        <time>2021-05-28T04:49:04Z</time>
      </trkpt>
      <trkpt lat="38.3791823778" lon="-4.8628848419">
        <ele>664.89</ele>
        <time>2021-05-28T04:49:11Z</time>
      </trkpt>
      <trkpt lat="38.3790242951" lon="-4.8641644232">
        <ele>663.93</ele>
        <time>2021-05-28T04:49:17Z</time>
      </trkpt>
      <trkpt lat="38.3789731655" lon="-4.8645700235">
        <ele>662.49</ele>
        <time>2021-05-28T04:49:19Z</time>
      </trkpt>
      <trkpt lat="38.3788748458" lon="-4.8653988261">
        <ele>659.60</ele>
        <time>2021-05-28T04:49:24Z</time>
      </trkpt>
      <trkpt lat="38.3788710739" lon="-4.8656302504">
        <ele>658.64</ele>
        <time>2021-05-28T04:49:26Z</time>
      </trkpt>
      <trkpt lat="38.3788957167" lon="-4.8657217808">
        <ele>658.16</ele>
        <time>2021-05-28T04:49:27Z</time>
      </trkpt>
      <trkpt lat="38.3789341897" lon="-4.8658063542">
        <ele>658.16</ele>
        <time>2021-05-28T04:49:28Z</time>
      </trkpt>
      <trkpt lat="38.3789712377" lon="-4.8658911791">
        <ele>658.16</ele>
        <time>2021-05-28T04:49:29Z</time>
      </trkpt>
      <trkpt lat="38.3789941203" lon="-4.8659843020">
        <ele>657.68</ele>
        <time>2021-05-28T04:49:30Z</time>
      </trkpt>
      <trkpt lat="38.3789930306" lon="-4.8660862260">
        <ele>658.64</ele>
        <time>2021-05-28T04:49:31Z</time>
      </trkpt>
      <trkpt lat="38.3789626043" lon="-4.8661843780">
        <ele>658.64</ele>
        <time>2021-05-28T04:49:32Z</time>
      </trkpt>
      <trkpt lat="38.3789084572" lon="-4.8662668560">
        <ele>658.64</ele>
        <time>2021-05-28T04:49:33Z</time>
      </trkpt>
      <trkpt lat="38.3788494486" lon="-4.8663516808">
        <ele>658.64</ele>
        <time>2021-05-28T04:49:34Z</time>
      </trkpt>
      <trkpt lat="38.3788034320" lon="-4.8664489109">
        <ele>658.64</ele>
        <time>2021-05-28T04:49:35Z</time>
      </trkpt>
      <trkpt lat="38.3787730057" lon="-4.8665608093">
        <ele>659.12</ele>
        <time>2021-05-28T04:49:36Z</time>
      </trkpt>
      <trkpt lat="38.3787509613" lon="-4.8666894715">
        <ele>659.12</ele>
        <time>2021-05-28T04:49:37Z</time>
      </trkpt>
      <trkpt lat="38.3787372150" lon="-4.8668339755">
        <ele>659.12</ele>
        <time>2021-05-28T04:49:38Z</time>
      </trkpt>
      <trkpt lat="38.3787286654" lon="-4.8669908848">
        <ele>660.08</ele>
        <time>2021-05-28T04:49:39Z</time>
      </trkpt>
      <trkpt lat="38.3787788730" lon="-4.8686594702">
        <ele>658.64</ele>
        <time>2021-05-28T04:49:48Z</time>
      </trkpt>
      <trkpt lat="38.3788191900" lon="-4.8690738715">
        <ele>657.68</ele>
        <time>2021-05-28T04:49:50Z</time>
      </trkpt>
      <trkpt lat="38.3790054359" lon="-4.8704431392">
        <ele>653.83</ele>
        <time>2021-05-28T04:49:56Z</time>
      </trkpt>
      <trkpt lat="38.3790760115" lon="-4.8709114362">
        <ele>652.87</ele>
        <time>2021-05-28T04:49:58Z</time>
      </trkpt>
      <trkpt lat="38.3791802824" lon="-4.8716140911">
        <ele>649.51</ele>
        <time>2021-05-28T04:50:01Z</time>
      </trkpt>
      <trkpt lat="38.3792708907" lon="-4.8721936997">
        <ele>645.66</ele>
        <time>2021-05-28T04:50:04Z</time>
      </trkpt>
      <trkpt lat="38.3793315757" lon="-4.8725818656">
        <ele>641.34</ele>
        <time>2021-05-28T04:50:07Z</time>
      </trkpt>
      <trkpt lat="38.3793834597" lon="-4.8728716280">
        <ele>640.38</ele>
        <time>2021-05-28T04:50:10Z</time>
      </trkpt>
      <trkpt lat="38.3794246987" lon="-4.8730573710">
        <ele>638.93</ele>
        <time>2021-05-28T04:50:17Z</time>
      </trkpt>
      <trkpt lat="38.3794341702" lon="-4.8732069880">
        <ele>638.93</ele>
        <time>2021-05-28T04:50:34Z</time>
      </trkpt>
      <trkpt lat="38.3795368485" lon="-4.8739651311">
        <ele>641.34</ele>
        <time>2021-05-28T04:50:40Z</time>
      </trkpt>
      <trkpt lat="38.3797660097" lon="-4.8754796572">
        <ele>644.70</ele>
        <time>2021-05-28T04:50:47Z</time>
      </trkpt>
      <trkpt lat="38.3801915590" lon="-4.8782147560">
        <ele>640.38</ele>
        <time>2021-05-28T04:50:58Z</time>
      </trkpt>
      <trkpt lat="38.3805523999" lon="-4.8805428296">
        <ele>637.01</ele>
        <time>2021-05-28T04:51:08Z</time>
      </trkpt>
      <trkpt lat="38.3806934673" lon="-4.8814581335">
        <ele>633.17</ele>
        <time>2021-05-28T04:51:13Z</time>
      </trkpt>
      <trkpt lat="38.3807575889" lon="-4.8818400130">
        <ele>631.72</ele>
        <time>2021-05-28T04:51:16Z</time>
      </trkpt>
      <trkpt lat="38.3807901107" lon="-4.8819363210">
        <ele>629.80</ele>
        <time>2021-05-28T04:51:17Z</time>
      </trkpt>
      <trkpt lat="38.3808341995" lon="-4.8820125964">
        <ele>629.32</ele>
        <time>2021-05-28T04:51:18Z</time>
      </trkpt>
      <trkpt lat="38.3808867540" lon="-4.8820736166">
        <ele>628.84</ele>
        <time>2021-05-28T04:51:19Z</time>
      </trkpt>
      <trkpt lat="38.3809391409" lon="-4.8821336310">
        <ele>629.32</ele>
        <time>2021-05-28T04:51:20Z</time>
      </trkpt>
      <trkpt lat="38.3809803799" lon="-4.8822037876">
        <ele>628.36</ele>
        <time>2021-05-28T04:51:21Z</time>
      </trkpt>
      <trkpt lat="38.3810044359" lon="-4.8822860979">
        <ele>628.36</ele>
        <time>2021-05-28T04:51:22Z</time>
      </trkpt>
      <trkpt lat="38.3810069505" lon="-4.8823768739">
        <ele>628.36</ele>
        <time>2021-05-28T04:51:23Z</time>
      </trkpt>
      <trkpt lat="38.3809845708" lon="-4.8824640457">
        <ele>629.32</ele>
        <time>2021-05-28T04:51:24Z</time>
      </trkpt>
      <trkpt lat="38.3809336089" lon="-4.8825340346">
        <ele>628.36</ele>
        <time>2021-05-28T04:51:25Z</time>
      </trkpt>
      <trkpt lat="38.3808626980" lon="-4.8825771175">
        <ele>629.32</ele>
        <time>2021-05-28T04:51:26Z</time>
      </trkpt>
      <trkpt lat="38.3807818126" lon="-4.8825901933">
        <ele>628.84</ele>
        <time>2021-05-28T04:51:27Z</time>
      </trkpt>
      <trkpt lat="38.3807002567" lon="-4.8825855833">
        <ele>628.84</ele>
        <time>2021-05-28T04:51:28Z</time>
      </trkpt>
      <trkpt lat="38.3806230593" lon="-4.8825913668">
        <ele>628.84</ele>
        <time>2021-05-28T04:51:29Z</time>
      </trkpt>
      <trkpt lat="38.3805531543" lon="-4.8826266546">
        <ele>629.32</ele>
        <time>2021-05-28T04:51:30Z</time>
      </trkpt>
      <trkpt lat="38.3804940619" lon="-4.8826939613">
        <ele>628.84</ele>
        <time>2021-05-28T04:51:31Z</time>
      </trkpt>
      <trkpt lat="38.3804510627" lon="-4.8827924486">
        <ele>628.84</ele>
        <time>2021-05-28T04:51:32Z</time>
      </trkpt>
      <trkpt lat="38.3804237377" lon="-4.8829150759">
        <ele>629.32</ele>
        <time>2021-05-28T04:51:33Z</time>
      </trkpt>
      <trkpt lat="38.3804162778" lon="-4.8830511142">
        <ele>629.32</ele>
        <time>2021-05-28T04:51:34Z</time>
      </trkpt>
      <trkpt lat="38.3804327063" lon="-4.8831884097">
        <ele>628.84</ele>
        <time>2021-05-28T04:51:35Z</time>
      </trkpt>
      <trkpt lat="38.3804741967" lon="-4.8833236098">
        <ele>628.36</ele>
        <time>2021-05-28T04:51:36Z</time>
      </trkpt>
      <trkpt lat="38.3805347979" lon="-4.8834630009">
        <ele>629.32</ele>
        <time>2021-05-28T04:51:37Z</time>
      </trkpt>
      <trkpt lat="38.3806079719" lon="-4.8836137075">
        <ele>629.80</ele>
        <time>2021-05-28T04:51:38Z</time>
      </trkpt>
      <trkpt lat="38.3809848223" lon="-4.8845344596">
        <ele>629.32</ele>
        <time>2021-05-28T04:51:43Z</time>
      </trkpt>
      <trkpt lat="38.3814180829" lon="-4.8861841857">
        <ele>629.80</ele>
        <time>2021-05-28T04:51:50Z</time>
      </trkpt>
      <trkpt lat="38.3818618208" lon="-4.8889630381">
        <ele>630.28</ele>
        <time>2021-05-28T04:52:00Z</time>
      </trkpt>
      <trkpt lat="38.3821539301" lon="-4.8907181248">
        <ele>635.09</ele>
        <time>2021-05-28T04:52:06Z</time>
      </trkpt>
      <trkpt lat="38.3821973484" lon="-4.8910272494">
        <ele>634.13</ele>
        <time>2021-05-28T04:52:07Z</time>
      </trkpt>
      <trkpt lat="38.3829993289" lon="-4.8963289708">
        <ele>633.65</ele>
        <time>2021-05-28T04:52:24Z</time>
      </trkpt>
      <trkpt lat="38.3835731540" lon="-4.9000807945">
        <ele>631.72</ele>
        <time>2021-05-28T04:52:36Z</time>
      </trkpt>
      <trkpt lat="38.3842605539" lon="-4.9046103749">
        <ele>630.28</ele>
        <time>2021-05-28T04:52:50Z</time>
      </trkpt>
      <trkpt lat="38.3844684251" lon="-4.9059472885">
        <ele>628.36</ele>
        <time>2021-05-28T04:52:54Z</time>
      </trkpt>
      <trkpt lat="38.3846250828" lon="-4.9069638457">
        <ele>626.44</ele>
        <time>2021-05-28T04:52:57Z</time>
      </trkpt>
      <trkpt lat="38.3851496223" lon="-4.9103943910">
        <ele>623.55</ele>
        <time>2021-05-28T04:53:07Z</time>
      </trkpt>
      <trkpt lat="38.3863504976" lon="-4.9182268605">
        <ele>622.11</ele>
        <time>2021-05-28T04:53:30Z</time>
      </trkpt>
      <trkpt lat="38.3870190382" lon="-4.9226037227">
        <ele>622.59</ele>
        <time>2021-05-28T04:53:43Z</time>
      </trkpt>
      <trkpt lat="38.3876437414" lon="-4.9266725499">
        <ele>622.59</ele>
        <time>2021-05-28T04:53:55Z</time>
      </trkpt>
      <trkpt lat="38.3882139623" lon="-4.9304019939">
        <ele>625.96</ele>
        <time>2021-05-28T04:54:06Z</time>
      </trkpt>
      <trkpt lat="38.3888848498" lon="-4.9348459113">
        <ele>625.47</ele>
        <time>2021-05-28T04:54:19Z</time>
      </trkpt>
      <trkpt lat="38.3890396636" lon="-4.9358867761">
        <ele>624.03</ele>
        <time>2021-05-28T04:54:22Z</time>
      </trkpt>
      <trkpt lat="38.3896632772" lon="-4.9399947468">
        <ele>626.92</ele>
        <time>2021-05-28T04:54:34Z</time>
      </trkpt>
      <trkpt lat="38.3899321686" lon="-4.9420113489">
        <ele>630.28</ele>
        <time>2021-05-28T04:54:40Z</time>
      </trkpt>
      <trkpt lat="38.3899586555" lon="-4.9443505704">
        <ele>626.92</ele>
        <time>2021-05-28T04:54:47Z</time>
      </trkpt>
      <trkpt lat="38.3899571467" lon="-4.9449856672">
        <ele>626.44</ele>
        <time>2021-05-28T04:54:49Z</time>
      </trkpt>
      <trkpt lat="38.3899462502" lon="-4.9465389177">
        <ele>622.11</ele>
        <time>2021-05-28T04:54:54Z</time>
      </trkpt>
      <trkpt lat="38.3899448253" lon="-4.9468370620">
        <ele>622.11</ele>
        <time>2021-05-28T04:54:55Z</time>
      </trkpt>
      <trkpt lat="38.3899448253" lon="-4.9515061174">
        <ele>623.55</ele>
        <time>2021-05-28T04:55:11Z</time>
      </trkpt>
      <trkpt lat="38.3899392933" lon="-4.9523596466">
        <ele>624.99</ele>
        <time>2021-05-28T04:55:14Z</time>
      </trkpt>
      <trkpt lat="38.3899366949" lon="-4.9555650540">
        <ele>628.36</ele>
        <time>2021-05-28T04:55:25Z</time>
      </trkpt>
      <trkpt lat="38.3899479266" lon="-4.9602036830">
        <ele>629.80</ele>
        <time>2021-05-28T04:55:41Z</time>
      </trkpt>
      <trkpt lat="38.3899513632" lon="-4.9626791105">
        <ele>626.44</ele>
        <time>2021-05-28T04:55:51Z</time>
      </trkpt>
      <trkpt lat="38.3899478428" lon="-4.9634187296">
        <ele>623.07</ele>
        <time>2021-05-28T04:55:55Z</time>
      </trkpt>
      <trkpt lat="38.3899459988" lon="-4.9638372380">
        <ele>621.63</ele>
        <time>2021-05-28T04:55:58Z</time>
      </trkpt>
      <trkpt lat="38.3899490163" lon="-4.9642145075">
        <ele>620.19</ele>
        <time>2021-05-28T04:56:01Z</time>
      </trkpt>
      <trkpt lat="38.3899394609" lon="-4.9656322226">
        <ele>620.67</ele>
        <time>2021-05-28T04:56:10Z</time>
      </trkpt>
      <trkpt lat="38.3899328392" lon="-4.9672902469">
        <ele>617.30</ele>
        <time>2021-05-28T04:56:19Z</time>
      </trkpt>
      <trkpt lat="38.3899280615" lon="-4.9677924067">
        <ele>615.86</ele>
        <time>2021-05-28T04:56:22Z</time>
      </trkpt>
      <trkpt lat="38.3899277262" lon="-4.9683350511">
        <ele>613.46</ele>
        <time>2021-05-28T04:56:26Z</time>
      </trkpt>
      <trkpt lat="38.3900846355" lon="-4.9693956971">
        <ele>613.94</ele>
        <time>2021-05-28T04:56:33Z</time>
      </trkpt>
      <trkpt lat="38.3905523457" lon="-4.9720864557">
        <ele>614.90</ele>
        <time>2021-05-28T04:56:47Z</time>
      </trkpt>
      <trkpt lat="38.3907925710" lon="-4.9735192582">
        <ele>616.82</ele>
        <time>2021-05-28T04:56:53Z</time>
      </trkpt>
      <trkpt lat="38.3911636379" lon="-4.9756936077">
        <ele>614.90</ele>
        <time>2021-05-28T04:57:01Z</time>
      </trkpt>
      <trkpt lat="38.3919516206" lon="-4.9803297222">
        <ele>615.38</ele>
        <time>2021-05-28T04:57:17Z</time>
      </trkpt>
      <trkpt lat="38.3921608329" lon="-4.9815449305">
        <ele>616.34</ele>
        <time>2021-05-28T04:57:21Z</time>
      </trkpt>
      <trkpt lat="38.3925826941" lon="-4.9840053543">
        <ele>618.26</ele>
        <time>2021-05-28T04:57:29Z</time>
      </trkpt>
      <trkpt lat="38.3935620356" lon="-4.9898059666">
        <ele>616.34</ele>
        <time>2021-05-28T04:57:47Z</time>
      </trkpt>
      <trkpt lat="38.3938637003" lon="-4.9915974308">
        <ele>612.50</ele>
        <time>2021-05-28T04:57:53Z</time>
      </trkpt>
      <trkpt lat="38.3940484375" lon="-4.9926677998">
        <ele>607.69</ele>
        <time>2021-05-28T04:57:57Z</time>
      </trkpt>
      <trkpt lat="38.3940887544" lon="-4.9929046724">
        <ele>607.21</ele>
        <time>2021-05-28T04:57:58Z</time>
      </trkpt>
      <trkpt lat="38.3941622637" lon="-4.9933474045">
        <ele>604.33</ele>
        <time>2021-05-28T04:58:00Z</time>
      </trkpt>
      <trkpt lat="38.3942975476" lon="-4.9941377342">
        <ele>600.96</ele>
        <time>2021-05-28T04:58:04Z</time>
      </trkpt>
      <trkpt lat="38.3943305723" lon="-4.9943270814">
        <ele>600.96</ele>
        <time>2021-05-28T04:58:05Z</time>
      </trkpt>
      <trkpt lat="38.3944993000" lon="-4.9953722209">
        <ele>597.60</ele>
        <time>2021-05-28T04:58:11Z</time>
      </trkpt>
      <trkpt lat="38.3945772517" lon="-4.9958661664">
        <ele>595.19</ele>
        <time>2021-05-28T04:58:15Z</time>
      </trkpt>
      <trkpt lat="38.3947778307" lon="-4.9970009923">
        <ele>595.19</ele>
        <time>2021-05-28T04:58:23Z</time>
      </trkpt>
      <trkpt lat="38.3948725462" lon="-4.9974622484">
        <ele>595.67</ele>
        <time>2021-05-28T04:58:26Z</time>
      </trkpt>
      <trkpt lat="38.3949230891" lon="-4.9976121169">
        <ele>595.19</ele>
        <time>2021-05-28T04:58:27Z</time>
      </trkpt>
      <trkpt lat="38.3949883003" lon="-4.9977634102">
        <ele>595.19</ele>
        <time>2021-05-28T04:58:28Z</time>
      </trkpt>
      <trkpt lat="38.3954341337" lon="-4.9985939730">
        <ele>591.83</ele>
        <time>2021-05-28T04:58:35Z</time>
      </trkpt>
      <trkpt lat="38.3957639616" lon="-4.9991813768">
        <ele>593.27</ele>
        <time>2021-05-28T04:58:40Z</time>
      </trkpt>
      <trkpt lat="38.3964754175" lon="-5.0005218107">
        <ele>590.87</ele>
        <time>2021-05-28T04:58:49Z</time>
      </trkpt>
      <trkpt lat="38.3972928207" lon="-5.0020810962">
        <ele>588.95</ele>
        <time>2021-05-28T04:58:59Z</time>
      </trkpt>
      <trkpt lat="38.3976421785" lon="-5.0027352199">
        <ele>587.02</ele>
        <time>2021-05-28T04:59:04Z</time>
      </trkpt>
      <trkpt lat="38.3977895323" lon="-5.0030196179">
        <ele>583.66</ele>
        <time>2021-05-28T04:59:09Z</time>
      </trkpt>
      <trkpt lat="38.3978181146" lon="-5.0030590128">
        <ele>583.66</ele>
        <time>2021-05-28T04:59:19Z</time>
      </trkpt>
      <trkpt lat="38.3978186175" lon="-5.0030720048">
        <ele>584.14</ele>
        <time>2021-05-28T04:59:20Z</time>
      </trkpt>
      <trkpt lat="38.3978169411" lon="-5.0030985754">
        <ele>583.66</ele>
        <time>2021-05-28T04:59:21Z</time>
      </trkpt>
      <trkpt lat="38.3978065476" lon="-5.0031445082">
        <ele>583.66</ele>
        <time>2021-05-28T04:59:22Z</time>
      </trkpt>
      <trkpt lat="38.3977751154" lon="-5.0032046065">
        <ele>584.62</ele>
        <time>2021-05-28T04:59:23Z</time>
      </trkpt>
      <trkpt lat="38.3977145143" lon="-5.0032680575">
        <ele>584.14</ele>
        <time>2021-05-28T04:59:24Z</time>
      </trkpt>
      <trkpt lat="38.3976363949" lon="-5.0033277366">
        <ele>584.62</ele>
        <time>2021-05-28T04:59:25Z</time>
      </trkpt>
      <trkpt lat="38.3975441940" lon="-5.0033856556">
        <ele>585.58</ele>
        <time>2021-05-28T04:59:26Z</time>
      </trkpt>
      <trkpt lat="38.3974320441" lon="-5.0034501124">
        <ele>585.58</ele>
        <time>2021-05-28T04:59:27Z</time>
      </trkpt>
      <trkpt lat="38.3964163251" lon="-5.0040649250">
        <ele>587.50</ele>
        <time>2021-05-28T04:59:34Z</time>
      </trkpt>
      <trkpt lat="38.3955180366" lon="-5.0046064798">
        <ele>588.95</ele>
        <time>2021-05-28T04:59:39Z</time>
      </trkpt>
      <trkpt lat="38.3937349543" lon="-5.0057639368">
        <ele>591.35</ele>
        <time>2021-05-28T04:59:48Z</time>
      </trkpt>
      <trkpt lat="38.3930012863" lon="-5.0065557752">
        <ele>588.95</ele>
        <time>2021-05-28T04:59:52Z</time>
      </trkpt>
      <trkpt lat="38.3921316639" lon="-5.0074817240">
        <ele>589.43</ele>
        <time>2021-05-28T04:59:57Z</time>
      </trkpt>
      <trkpt lat="38.3919260558" lon="-5.0076113921">
        <ele>590.87</ele>
        <time>2021-05-28T04:59:58Z</time>
      </trkpt>
      <trkpt lat="38.3917079587" lon="-5.0077159144">
        <ele>591.35</ele>
        <time>2021-05-28T04:59:59Z</time>
      </trkpt>
      <trkpt lat="38.3914797194" lon="-5.0077942014">
        <ele>591.83</ele>
        <time>2021-05-28T05:00:00Z</time>
      </trkpt>
      <trkpt lat="38.3912462834" lon="-5.0078431517">
        <ele>591.83</ele>
        <time>2021-05-28T05:00:01Z</time>
      </trkpt>
      <trkpt lat="38.3910093270" lon="-5.0078616757">
        <ele>592.31</ele>
        <time>2021-05-28T05:00:02Z</time>
      </trkpt>
      <trkpt lat="38.3907701075" lon="-5.0078547187">
        <ele>593.27</ele>
        <time>2021-05-28T05:00:03Z</time>
      </trkpt>
      <trkpt lat="38.3905287087" lon="-5.0078258850">
        <ele>592.79</ele>
        <time>2021-05-28T05:00:04Z</time>
      </trkpt>
      <trkpt lat="38.3902856335" lon="-5.0077850651">
        <ele>593.27</ele>
        <time>2021-05-28T05:00:05Z</time>
      </trkpt>
      <trkpt lat="38.3896022569" lon="-5.0077430718">
        <ele>590.39</ele>
        <time>2021-05-28T05:00:08Z</time>
      </trkpt>
      <trkpt lat="38.3893913683" lon="-5.0077840593">
        <ele>589.43</ele>
        <time>2021-05-28T05:00:09Z</time>
      </trkpt>
      <trkpt lat="38.3891840838" lon="-5.0078534614">
        <ele>589.91</ele>
        <time>2021-05-28T05:00:10Z</time>
      </trkpt>
      <trkpt lat="38.3889751229" lon="-5.0079490151">
        <ele>590.39</ele>
        <time>2021-05-28T05:00:11Z</time>
      </trkpt>
      <trkpt lat="38.3887696825" lon="-5.0080727320">
        <ele>590.87</ele>
        <time>2021-05-28T05:00:12Z</time>
      </trkpt>
      <trkpt lat="38.3885676786" lon="-5.0082257017">
        <ele>591.83</ele>
        <time>2021-05-28T05:00:13Z</time>
      </trkpt>
      <trkpt lat="38.3883717097" lon="-5.0084039848">
        <ele>592.79</ele>
        <time>2021-05-28T05:00:14Z</time>
      </trkpt>
      <trkpt lat="38.3881801832" lon="-5.0086026359">
        <ele>595.19</ele>
        <time>2021-05-28T05:00:15Z</time>
      </trkpt>
      <trkpt lat="38.3875890914" lon="-5.0092499703">
        <ele>599.52</ele>
        <time>2021-05-28T05:00:18Z</time>
      </trkpt>
      <trkpt lat="38.3867791481" lon="-5.0101294834">
        <ele>602.88</ele>
        <time>2021-05-28T05:00:22Z</time>
      </trkpt>
      <trkpt lat="38.3863618132" lon="-5.0105819385">
        <ele>606.25</ele>
        <time>2021-05-28T05:00:24Z</time>
      </trkpt>
      <trkpt lat="38.3855050150" lon="-5.0115135871">
        <ele>609.61</ele>
        <time>2021-05-28T05:00:28Z</time>
      </trkpt>
      <trkpt lat="38.3848472871" lon="-5.0122284796">
        <ele>613.46</ele>
        <time>2021-05-28T05:00:31Z</time>
      </trkpt>
      <trkpt lat="38.3841807581" lon="-5.0129546877">
        <ele>616.82</ele>
        <time>2021-05-28T05:00:34Z</time>
      </trkpt>
      <trkpt lat="38.3835075237" lon="-5.0136861764">
        <ele>619.71</ele>
        <time>2021-05-28T05:00:37Z</time>
      </trkpt>
      <trkpt lat="38.3826057147" lon="-5.0146724749">
        <ele>622.59</ele>
        <time>2021-05-28T05:00:41Z</time>
      </trkpt>
      <trkpt lat="38.3821578696" lon="-5.0151599664">
        <ele>623.55</ele>
        <time>2021-05-28T05:00:43Z</time>
      </trkpt>
      <trkpt lat="38.3810636122" lon="-5.0163496099">
        <ele>626.92</ele>
        <time>2021-05-28T05:00:48Z</time>
      </trkpt>
      <trkpt lat="38.3806359675" lon="-5.0168255344">
        <ele>629.80</ele>
        <time>2021-05-28T05:00:50Z</time>
      </trkpt>
      <trkpt lat="38.3798207436" lon="-5.0178420078">
        <ele>632.68</ele>
        <time>2021-05-28T05:00:54Z</time>
      </trkpt>
      <trkpt lat="38.3790405560" lon="-5.0189324934">
        <ele>632.20</ele>
        <time>2021-05-28T05:00:58Z</time>
      </trkpt>
      <trkpt lat="38.3782741986" lon="-5.0200233143">
        <ele>635.09</ele>
        <time>2021-05-28T05:01:02Z</time>
      </trkpt>
      <trkpt lat="38.3778919838" lon="-5.0205629412">
        <ele>638.45</ele>
        <time>2021-05-28T05:01:04Z</time>
      </trkpt>
      <trkpt lat="38.3773232717" lon="-5.0213676039">
        <ele>642.30</ele>
        <time>2021-05-28T05:01:07Z</time>
      </trkpt>
      <trkpt lat="38.3766227961" lon="-5.0224549044">
        <ele>645.18</ele>
        <time>2021-05-28T05:01:11Z</time>
      </trkpt>
      <trkpt lat="38.3759063948" lon="-5.0243659783">
        <ele>646.62</ele>
        <time>2021-05-28T05:01:17Z</time>
      </trkpt>
      <trkpt lat="38.3750286419" lon="-5.0265570916">
        <ele>645.66</ele>
        <time>2021-05-28T05:01:24Z</time>
      </trkpt>
      <trkpt lat="38.3748473413" lon="-5.0268092193">
        <ele>647.59</ele>
        <time>2021-05-28T05:01:25Z</time>
      </trkpt>
      <trkpt lat="38.3746496122" lon="-5.0270436611">
        <ele>647.10</ele>
        <time>2021-05-28T05:01:26Z</time>
      </trkpt>
      <trkpt lat="38.3730951045" lon="-5.0285559241">
        <ele>648.07</ele>
        <time>2021-05-28T05:01:33Z</time>
      </trkpt>
      <trkpt lat="38.3712682687" lon="-5.0308508892">
        <ele>648.55</ele>
        <time>2021-05-28T05:01:42Z</time>
      </trkpt>
      <trkpt lat="38.3693446219" lon="-5.0339839607">
        <ele>651.43</ele>
        <time>2021-05-28T05:01:53Z</time>
      </trkpt>
      <trkpt lat="38.3666717168" lon="-5.0387779064">
        <ele>652.87</ele>
        <time>2021-05-28T05:02:09Z</time>
      </trkpt>
      <trkpt lat="38.3656945545" lon="-5.0413734466">
        <ele>651.43</ele>
        <time>2021-05-28T05:02:17Z</time>
      </trkpt>
      <trkpt lat="38.3653195482" lon="-5.0431491528">
        <ele>653.35</ele>
        <time>2021-05-28T05:02:22Z</time>
      </trkpt>
      <trkpt lat="38.3645327389" lon="-5.0476970058">
        <ele>652.87</ele>
        <time>2021-05-28T05:02:35Z</time>
      </trkpt>
      <trkpt lat="38.3646766562" lon="-5.0502777100">
        <ele>649.99</ele>
        <time>2021-05-28T05:02:42Z</time>
      </trkpt>
      <trkpt lat="38.3649235032" lon="-5.0554252882">
        <ele>646.62</ele>
        <time>2021-05-28T05:02:56Z</time>
      </trkpt>
      <trkpt lat="38.3649572823" lon="-5.0565448590">
        <ele>641.82</ele>
        <time>2021-05-28T05:02:59Z</time>
      </trkpt>
      <trkpt lat="38.3649670891" lon="-5.0569209550">
        <ele>642.30</ele>
        <time>2021-05-28T05:03:00Z</time>
      </trkpt>
      <trkpt lat="38.3649854455" lon="-5.0576713867">
        <ele>637.97</ele>
        <time>2021-05-28T05:03:02Z</time>
      </trkpt>
      <trkpt lat="38.3650194760" lon="-5.0587917957">
        <ele>635.57</ele>
        <time>2021-05-28T05:03:05Z</time>
      </trkpt>
      <trkpt lat="38.3650421910" lon="-5.0595362764">
        <ele>631.24</ele>
        <time>2021-05-28T05:03:07Z</time>
      </trkpt>
      <trkpt lat="38.3649226651" lon="-5.0636874139">
        <ele>629.80</ele>
        <time>2021-05-28T05:03:18Z</time>
      </trkpt>
      <trkpt lat="38.3647893090" lon="-5.0662462413">
        <ele>633.17</ele>
        <time>2021-05-28T05:03:25Z</time>
      </trkpt>
      <trkpt lat="38.3647714555" lon="-5.0665996224">
        <ele>633.17</ele>
        <time>2021-05-28T05:03:26Z</time>
      </trkpt>
      <trkpt lat="38.3644355088" lon="-5.0686085131">
        <ele>636.53</ele>
        <time>2021-05-28T05:03:32Z</time>
      </trkpt>
      <trkpt lat="38.3641952835" lon="-5.0695666485">
        <ele>633.65</ele>
        <time>2021-05-28T05:03:35Z</time>
      </trkpt>
      <trkpt lat="38.3641635999" lon="-5.0699004997">
        <ele>633.17</ele>
        <time>2021-05-28T05:03:36Z</time>
      </trkpt>
      <trkpt lat="38.3641573135" lon="-5.0702496059">
        <ele>632.68</ele>
        <time>2021-05-28T05:03:37Z</time>
      </trkpt>
      <trkpt lat="38.3641708922" lon="-5.0706089381">
        <ele>632.68</ele>
        <time>2021-05-28T05:03:38Z</time>
      </trkpt>
      <trkpt lat="38.3641918469" lon="-5.0709714554">
        <ele>631.24</ele>
        <time>2021-05-28T05:03:39Z</time>
      </trkpt>
      <trkpt lat="38.3642555494" lon="-5.0720649585">
        <ele>628.84</ele>
        <time>2021-05-28T05:03:42Z</time>
      </trkpt>
      <trkpt lat="38.3642790187" lon="-5.0724291522">
        <ele>625.47</ele>
        <time>2021-05-28T05:03:43Z</time>
      </trkpt>
      <trkpt lat="38.3643578924" lon="-5.0731485710">
        <ele>622.59</ele>
        <time>2021-05-28T05:03:45Z</time>
      </trkpt>
      <trkpt lat="38.3645707089" lon="-5.0742096361">
        <ele>619.23</ele>
        <time>2021-05-28T05:03:48Z</time>
      </trkpt>
      <trkpt lat="38.3650391735" lon="-5.0766579900">
        <ele>615.38</ele>
        <time>2021-05-28T05:03:55Z</time>
      </trkpt>
      <trkpt lat="38.3651659079" lon="-5.0781112444">
        <ele>612.02</ele>
        <time>2021-05-28T05:03:59Z</time>
      </trkpt>
      <trkpt lat="38.3652695920" lon="-5.0788156595">
        <ele>608.65</ele>
        <time>2021-05-28T05:04:01Z</time>
      </trkpt>
      <trkpt lat="38.3655671496" lon="-5.0798507407">
        <ele>607.21</ele>
        <time>2021-05-28T05:04:04Z</time>
      </trkpt>
      <trkpt lat="38.3662921004" lon="-5.0821034610">
        <ele>604.81</ele>
        <time>2021-05-28T05:04:11Z</time>
      </trkpt>
      <trkpt lat="38.3663405478" lon="-5.0824188720">
        <ele>604.81</ele>
        <time>2021-05-28T05:04:12Z</time>
      </trkpt>
      <trkpt lat="38.3663587365" lon="-5.0827404857">
        <ele>606.25</ele>
        <time>2021-05-28T05:04:13Z</time>
      </trkpt>
      <trkpt lat="38.3663471695" lon="-5.0830646977">
        <ele>606.73</ele>
        <time>2021-05-28T05:04:14Z</time>
      </trkpt>
      <trkpt lat="38.3663071878" lon="-5.0833900832">
        <ele>608.65</ele>
        <time>2021-05-28T05:04:15Z</time>
      </trkpt>
      <trkpt lat="38.3662402164" lon="-5.0837152172">
        <ele>609.13</ele>
        <time>2021-05-28T05:04:16Z</time>
      </trkpt>
      <trkpt lat="38.3661512006" lon="-5.0840392616">
        <ele>609.61</ele>
        <time>2021-05-28T05:04:17Z</time>
      </trkpt>
      <trkpt lat="38.3660501149" lon="-5.0843628868">
        <ele>610.57</ele>
        <time>2021-05-28T05:04:18Z</time>
      </trkpt>
      <trkpt lat="38.3658377174" lon="-5.0850215368">
        <ele>613.46</ele>
        <time>2021-05-28T05:04:20Z</time>
      </trkpt>
      <trkpt lat="38.3652917203" lon="-5.0867159385">
        <ele>617.78</ele>
        <time>2021-05-28T05:04:25Z</time>
      </trkpt>
      <trkpt lat="38.3649575338" lon="-5.0877454877">
        <ele>621.63</ele>
        <time>2021-05-28T05:04:28Z</time>
      </trkpt>
      <trkpt lat="38.3648411091" lon="-5.0881016348">
        <ele>621.63</ele>
        <time>2021-05-28T05:04:29Z</time>
      </trkpt>
      <trkpt lat="38.3646196593" lon="-5.0888143480">
        <ele>623.55</ele>
        <time>2021-05-28T05:04:31Z</time>
      </trkpt>
      <trkpt lat="38.3637466002" lon="-5.0918936916">
        <ele>624.51</ele>
        <time>2021-05-28T05:04:40Z</time>
      </trkpt>
      <trkpt lat="38.3637403138" lon="-5.0936729182">
        <ele>624.99</ele>
        <time>2021-05-28T05:04:45Z</time>
      </trkpt>
      <trkpt lat="38.3637920301" lon="-5.0940340105">
        <ele>627.88</ele>
        <time>2021-05-28T05:04:46Z</time>
      </trkpt>
      <trkpt lat="38.3638444170" lon="-5.0943959411">
        <ele>627.88</ele>
        <time>2021-05-28T05:04:47Z</time>
      </trkpt>
      <trkpt lat="38.3641678747" lon="-5.0984806102">
        <ele>628.84</ele>
        <time>2021-05-28T05:04:58Z</time>
      </trkpt>
      <trkpt lat="38.3643864747" lon="-5.1046007406">
        <ele>632.20</ele>
        <time>2021-05-28T05:05:14Z</time>
      </trkpt>
      <trkpt lat="38.3643580601" lon="-5.1057158690">
        <ele>634.13</ele>
        <time>2021-05-28T05:05:17Z</time>
      </trkpt>
      <trkpt lat="38.3645137120" lon="-5.1082948968">
        <ele>630.76</ele>
        <time>2021-05-28T05:05:24Z</time>
      </trkpt>
      <trkpt lat="38.3646487445" lon="-5.1090319175">
        <ele>627.88</ele>
        <time>2021-05-28T05:05:26Z</time>
      </trkpt>
      <trkpt lat="38.3647300489" lon="-5.1094025653">
        <ele>628.36</ele>
        <time>2021-05-28T05:05:27Z</time>
      </trkpt>
      <trkpt lat="38.3654860128" lon="-5.1124898717">
        <ele>624.99</ele>
        <time>2021-05-28T05:05:36Z</time>
      </trkpt>
      <trkpt lat="38.3655120805" lon="-5.1128316857">
        <ele>625.47</ele>
        <time>2021-05-28T05:05:37Z</time>
      </trkpt>
      <trkpt lat="38.3655083086" lon="-5.1131798699">
        <ele>624.03</ele>
        <time>2021-05-28T05:05:38Z</time>
      </trkpt>
      <trkpt lat="38.3652145229" lon="-5.1175381243">
        <ele>625.96</ele>
        <time>2021-05-28T05:05:50Z</time>
      </trkpt>
      <trkpt lat="38.3651399240" lon="-5.1186291967">
        <ele>630.28</ele>
        <time>2021-05-28T05:05:53Z</time>
      </trkpt>
      <trkpt lat="38.3650457114" lon="-5.1200664416">
        <ele>633.65</ele>
        <time>2021-05-28T05:05:57Z</time>
      </trkpt>
      <trkpt lat="38.3649608865" lon="-5.1211228129">
        <ele>637.01</ele>
        <time>2021-05-28T05:06:00Z</time>
      </trkpt>
      <trkpt lat="38.3647822682" lon="-5.1221511047">
        <ele>642.30</ele>
        <time>2021-05-28T05:06:03Z</time>
      </trkpt>
      <trkpt lat="38.3646982815" lon="-5.1224924158">
        <ele>642.30</ele>
        <time>2021-05-28T05:06:04Z</time>
      </trkpt>
      <trkpt lat="38.3639086224" lon="-5.1255683228">
        <ele>638.93</ele>
        <time>2021-05-28T05:06:13Z</time>
      </trkpt>
      <trkpt lat="38.3636833169" lon="-5.1261418965">
        <ele>636.05</ele>
        <time>2021-05-28T05:06:15Z</time>
      </trkpt>
      <trkpt lat="38.3635342028" lon="-5.1263998915">
        <ele>635.57</ele>
        <time>2021-05-28T05:06:16Z</time>
      </trkpt>
      <trkpt lat="38.3633652236" lon="-5.1266397815">
        <ele>637.49</ele>
        <time>2021-05-28T05:06:17Z</time>
      </trkpt>
      <trkpt lat="38.3631774690" lon="-5.1268643327">
        <ele>637.49</ele>
        <time>2021-05-28T05:06:18Z</time>
      </trkpt>
      <trkpt lat="38.3629768062" lon="-5.1270825136">
        <ele>638.45</ele>
        <time>2021-05-28T05:06:19Z</time>
      </trkpt>
      <trkpt lat="38.3621388674" lon="-5.1279727556">
        <ele>641.82</ele>
        <time>2021-05-28T05:06:23Z</time>
      </trkpt>
      <trkpt lat="38.3613017667" lon="-5.1288811024">
        <ele>639.89</ele>
        <time>2021-05-28T05:06:27Z</time>
      </trkpt>
      <trkpt lat="38.3604053222" lon="-5.1301824767">
        <ele>641.34</ele>
        <time>2021-05-28T05:06:32Z</time>
      </trkpt>
      <trkpt lat="38.3598112129" lon="-5.1312958449">
        <ele>644.22</ele>
        <time>2021-05-28T05:06:36Z</time>
      </trkpt>
      <trkpt lat="38.3597045112" lon="-5.1315808296">
        <ele>645.18</ele>
        <time>2021-05-28T05:06:37Z</time>
      </trkpt>
      <trkpt lat="38.3596219495" lon="-5.1318791416">
        <ele>645.66</ele>
        <time>2021-05-28T05:06:38Z</time>
      </trkpt>
      <trkpt lat="38.3595539723" lon="-5.1321952231">
        <ele>647.59</ele>
        <time>2021-05-28T05:06:39Z</time>
      </trkpt>
      <trkpt lat="38.3594400622" lon="-5.1328614168">
        <ele>653.35</ele>
        <time>2021-05-28T05:06:41Z</time>
      </trkpt>
      <trkpt lat="38.3592647128" lon="-5.1339208893">
        <ele>657.20</ele>
        <time>2021-05-28T05:06:44Z</time>
      </trkpt>
      <trkpt lat="38.3591434266" lon="-5.1346614305">
        <ele>658.16</ele>
        <time>2021-05-28T05:06:46Z</time>
      </trkpt>
      <trkpt lat="38.3582016360" lon="-5.1402190514">
        <ele>658.64</ele>
        <time>2021-05-28T05:07:01Z</time>
      </trkpt>
      <trkpt lat="38.3579574712" lon="-5.1416635886">
        <ele>661.04</ele>
        <time>2021-05-28T05:07:05Z</time>
      </trkpt>
      <trkpt lat="38.3576546330" lon="-5.1434530411">
        <ele>664.89</ele>
        <time>2021-05-28T05:07:10Z</time>
      </trkpt>
      <trkpt lat="38.3575950377" lon="-5.1438012253">
        <ele>664.89</ele>
        <time>2021-05-28T05:07:11Z</time>
      </trkpt>
      <trkpt lat="38.3574222028" lon="-5.1448140107">
        <ele>668.73</ele>
        <time>2021-05-28T05:07:14Z</time>
      </trkpt>
      <trkpt lat="38.3572850749" lon="-5.1457884908">
        <ele>671.62</ele>
        <time>2021-05-28T05:07:17Z</time>
      </trkpt>
      <trkpt lat="38.3572719153" lon="-5.1461038180">
        <ele>671.62</ele>
        <time>2021-05-28T05:07:18Z</time>
      </trkpt>
      <trkpt lat="38.3572809678" lon="-5.1464160439">
        <ele>672.58</ele>
        <time>2021-05-28T05:07:19Z</time>
      </trkpt>
      <trkpt lat="38.3573755994" lon="-5.1473962236">
        <ele>676.91</ele>
        <time>2021-05-28T05:07:22Z</time>
      </trkpt>
      <trkpt lat="38.3577116299" lon="-5.1502282172">
        <ele>675.94</ele>
        <time>2021-05-28T05:07:30Z</time>
      </trkpt>
      <trkpt lat="38.3577949461" lon="-5.1509557664">
        <ele>671.14</ele>
        <time>2021-05-28T05:07:32Z</time>
      </trkpt>
      <trkpt lat="38.3582796715" lon="-5.1557713374">
        <ele>667.29</ele>
        <time>2021-05-28T05:07:46Z</time>
      </trkpt>
      <trkpt lat="38.3582508378" lon="-5.1560876705">
        <ele>666.81</ele>
        <time>2021-05-28T05:07:47Z</time>
      </trkpt>
      <trkpt lat="38.3581952658" lon="-5.1563979685">
        <ele>667.29</ele>
        <time>2021-05-28T05:07:48Z</time>
      </trkpt>
      <trkpt lat="38.3581122849" lon="-5.1566998009">
        <ele>666.81</ele>
        <time>2021-05-28T05:07:49Z</time>
      </trkpt>
      <trkpt lat="38.3580003865" lon="-5.1569865458">
        <ele>665.85</ele>
        <time>2021-05-28T05:07:50Z</time>
      </trkpt>
      <trkpt lat="38.3578628395" lon="-5.1572578680">
        <ele>665.37</ele>
        <time>2021-05-28T05:07:51Z</time>
      </trkpt>
      <trkpt lat="38.3577038348" lon="-5.1575097442">
        <ele>666.33</ele>
        <time>2021-05-28T05:07:52Z</time>
      </trkpt>
      <trkpt lat="38.3575271443" lon="-5.1577464491">
        <ele>666.33</ele>
        <time>2021-05-28T05:07:53Z</time>
      </trkpt>
      <trkpt lat="38.3573369589" lon="-5.1579767838">
        <ele>666.33</ele>
        <time>2021-05-28T05:07:54Z</time>
      </trkpt>
      <trkpt lat="38.3561039809" lon="-5.1593959238">
        <ele>662.97</ele>
        <time>2021-05-28T05:08:00Z</time>
      </trkpt>
      <trkpt lat="38.3556983806" lon="-5.1598672383">
        <ele>662.01</ele>
        <time>2021-05-28T05:08:02Z</time>
      </trkpt>
      <trkpt lat="38.3547430113" lon="-5.1610476617">
        <ele>662.97</ele>
        <time>2021-05-28T05:08:07Z</time>
      </trkpt>
      <trkpt lat="38.3541956730" lon="-5.1622194517">
        <ele>666.33</ele>
        <time>2021-05-28T05:08:11Z</time>
      </trkpt>
      <trkpt lat="38.3539582975" lon="-5.1632356737">
        <ele>669.70</ele>
        <time>2021-05-28T05:08:14Z</time>
      </trkpt>
      <trkpt lat="38.3538308088" lon="-5.1643253211">
        <ele>673.06</ele>
        <time>2021-05-28T05:08:17Z</time>
      </trkpt>
      <trkpt lat="38.3537414577" lon="-5.1650654431">
        <ele>674.02</ele>
        <time>2021-05-28T05:08:19Z</time>
      </trkpt>
      <trkpt lat="38.3536055870" lon="-5.1661708485">
        <ele>674.98</ele>
        <time>2021-05-28T05:08:22Z</time>
      </trkpt>
      <trkpt lat="38.3532998152" lon="-5.1686909515">
        <ele>678.35</ele>
        <time>2021-05-28T05:08:29Z</time>
      </trkpt>
      <trkpt lat="38.3529853262" lon="-5.1712547243">
        <ele>681.71</ele>
        <time>2021-05-28T05:08:36Z</time>
      </trkpt>
      <trkpt lat="38.3528958075" lon="-5.1719996240">
        <ele>682.67</ele>
        <time>2021-05-28T05:08:38Z</time>
      </trkpt>
      <trkpt lat="38.3524488006" lon="-5.1757155731">
        <ele>686.04</ele>
        <time>2021-05-28T05:08:48Z</time>
      </trkpt>
      <trkpt lat="38.3524029516" lon="-5.1760854665">
        <ele>686.04</ele>
        <time>2021-05-28T05:08:49Z</time>
      </trkpt>
      <trkpt lat="38.3522216510" lon="-5.1775656268">
        <ele>688.44</ele>
        <time>2021-05-28T05:08:53Z</time>
      </trkpt>
      <trkpt lat="38.3519452997" lon="-5.1797171775">
        <ele>691.33</ele>
        <time>2021-05-28T05:08:59Z</time>
      </trkpt>
      <trkpt lat="38.3513504360" lon="-5.1820851490">
        <ele>692.29</ele>
        <time>2021-05-28T05:09:06Z</time>
      </trkpt>
      <trkpt lat="38.3506913669" lon="-5.1840631943">
        <ele>687.48</ele>
        <time>2021-05-28T05:09:12Z</time>
      </trkpt>
      <trkpt lat="38.3505432587" lon="-5.1851172186">
        <ele>685.08</ele>
        <time>2021-05-28T05:09:15Z</time>
      </trkpt>
      <trkpt lat="38.3505307697" lon="-5.1858363021">
        <ele>681.23</ele>
        <time>2021-05-28T05:09:17Z</time>
      </trkpt>
      <trkpt lat="38.3505519759" lon="-5.1865515299">
        <ele>677.87</ele>
        <time>2021-05-28T05:09:19Z</time>
      </trkpt>
      <trkpt lat="38.3505441807" lon="-5.1872564480">
        <ele>673.06</ele>
        <time>2021-05-28T05:09:21Z</time>
      </trkpt>
      <trkpt lat="38.3505120780" lon="-5.1876008604">
        <ele>670.18</ele>
        <time>2021-05-28T05:09:22Z</time>
      </trkpt>
      <trkpt lat="38.3503770456" lon="-5.1882730890">
        <ele>665.85</ele>
        <time>2021-05-28T05:09:24Z</time>
      </trkpt>
      <trkpt lat="38.3502747864" lon="-5.1885978039">
        <ele>663.93</ele>
        <time>2021-05-28T05:09:25Z</time>
      </trkpt>
      <trkpt lat="38.3501491416" lon="-5.1889101136">
        <ele>661.52</ele>
        <time>2021-05-28T05:09:26Z</time>
      </trkpt>
      <trkpt lat="38.3500005305" lon="-5.1892082579">
        <ele>659.12</ele>
        <time>2021-05-28T05:09:27Z</time>
      </trkpt>
      <trkpt lat="38.3498324733" lon="-5.1894878782">
        <ele>657.68</ele>
        <time>2021-05-28T05:09:28Z</time>
      </trkpt>
      <trkpt lat="38.3496443834" lon="-5.1897463761">
        <ele>655.28</ele>
        <time>2021-05-28T05:09:29Z</time>
      </trkpt>
      <trkpt lat="38.3494382724" lon="-5.1899800636">
        <ele>653.35</ele>
        <time>2021-05-28T05:09:30Z</time>
      </trkpt>
      <trkpt lat="38.3492173254" lon="-5.1901915390">
        <ele>651.43</ele>
        <time>2021-05-28T05:09:31Z</time>
      </trkpt>
      <trkpt lat="38.3489854820" lon="-5.1903773658">
        <ele>649.99</ele>
        <time>2021-05-28T05:09:32Z</time>
      </trkpt>
      <trkpt lat="38.3487439156" lon="-5.1905378792">
        <ele>647.59</ele>
        <time>2021-05-28T05:09:33Z</time>
      </trkpt>
      <trkpt lat="38.3484931290" lon="-5.1906752586">
        <ele>646.62</ele>
        <time>2021-05-28T05:09:34Z</time>
      </trkpt>
      <trkpt lat="38.3482316136" lon="-5.1907887496">
        <ele>645.66</ele>
        <time>2021-05-28T05:09:35Z</time>
      </trkpt>
      <trkpt lat="38.3479592856" lon="-5.1908806153">
        <ele>646.14</ele>
        <time>2021-05-28T05:09:36Z</time>
      </trkpt>
      <trkpt lat="38.3476816770" lon="-5.1909583155">
        <ele>644.70</ele>
        <time>2021-05-28T05:09:37Z</time>
      </trkpt>
      <trkpt lat="38.3457176294" lon="-5.1915234234">
        <ele>640.86</ele>
        <time>2021-05-28T05:09:44Z</time>
      </trkpt>
      <trkpt lat="38.3449486736" lon="-5.1919122599">
        <ele>637.49</ele>
        <time>2021-05-28T05:09:47Z</time>
      </trkpt>
      <trkpt lat="38.3442550711" lon="-5.1925250608">
        <ele>634.13</ele>
        <time>2021-05-28T05:09:50Z</time>
      </trkpt>
      <trkpt lat="38.3438617922" lon="-5.1930434816">
        <ele>631.24</ele>
        <time>2021-05-28T05:09:52Z</time>
      </trkpt>
      <trkpt lat="38.3435426094" lon="-5.1936304662">
        <ele>627.88</ele>
        <time>2021-05-28T05:09:54Z</time>
      </trkpt>
      <trkpt lat="38.3431731351" lon="-5.1946208719">
        <ele>624.51</ele>
        <time>2021-05-28T05:09:57Z</time>
      </trkpt>
      <trkpt lat="38.3425062709" lon="-5.1967283338">
        <ele>621.63</ele>
        <time>2021-05-28T05:10:03Z</time>
      </trkpt>
      <trkpt lat="38.3418284263" lon="-5.1988598518">
        <ele>617.78</ele>
        <time>2021-05-28T05:10:09Z</time>
      </trkpt>
      <trkpt lat="38.3414777275" lon="-5.1999492478">
        <ele>614.42</ele>
        <time>2021-05-28T05:10:12Z</time>
      </trkpt>
      <trkpt lat="38.3411225863" lon="-5.2010430023">
        <ele>611.54</ele>
        <time>2021-05-28T05:10:15Z</time>
      </trkpt>
      <trkpt lat="38.3408889826" lon="-5.2017641813">
        <ele>610.57</ele>
        <time>2021-05-28T05:10:17Z</time>
      </trkpt>
      <trkpt lat="38.3394962456" lon="-5.2060693782">
        <ele>614.42</ele>
        <time>2021-05-28T05:10:29Z</time>
      </trkpt>
      <trkpt lat="38.3393823355" lon="-5.2064221725">
        <ele>614.42</ele>
        <time>2021-05-28T05:10:30Z</time>
      </trkpt>
      <trkpt lat="38.3390400186" lon="-5.2074804716">
        <ele>617.78</ele>
        <time>2021-05-28T05:10:33Z</time>
      </trkpt>
      <trkpt lat="38.3389266115" lon="-5.2078330144">
        <ele>617.78</ele>
        <time>2021-05-28T05:10:34Z</time>
      </trkpt>
      <trkpt lat="38.3381292410" lon="-5.2103469986">
        <ele>614.42</ele>
        <time>2021-05-28T05:10:41Z</time>
      </trkpt>
      <trkpt lat="38.3377790451" lon="-5.2114285994">
        <ele>611.06</ele>
        <time>2021-05-28T05:10:44Z</time>
      </trkpt>
      <trkpt lat="38.3376628719" lon="-5.2117852494">
        <ele>611.06</ele>
        <time>2021-05-28T05:10:45Z</time>
      </trkpt>
      <trkpt lat="38.3371958323" lon="-5.2132187225">
        <ele>612.02</ele>
        <time>2021-05-28T05:10:49Z</time>
      </trkpt>
      <trkpt lat="38.3368449658" lon="-5.2142921928">
        <ele>613.46</ele>
        <time>2021-05-28T05:10:52Z</time>
      </trkpt>
      <trkpt lat="38.3366176486" lon="-5.2150030620">
        <ele>616.34</ele>
        <time>2021-05-28T05:10:54Z</time>
      </trkpt>
      <trkpt lat="38.3365041576" lon="-5.2153593767">
        <ele>616.82</ele>
        <time>2021-05-28T05:10:55Z</time>
      </trkpt>
      <trkpt lat="38.3360422309" lon="-5.2167866472">
        <ele>620.19</ele>
        <time>2021-05-28T05:10:59Z</time>
      </trkpt>
      <trkpt lat="38.3358124830" lon="-5.2174982708">
        <ele>621.15</ele>
        <time>2021-05-28T05:11:01Z</time>
      </trkpt>
      <trkpt lat="38.3353609499" lon="-5.2189112920">
        <ele>623.07</ele>
        <time>2021-05-28T05:11:05Z</time>
      </trkpt>
      <trkpt lat="38.3349168766" lon="-5.2202770393">
        <ele>626.44</ele>
        <time>2021-05-28T05:11:09Z</time>
      </trkpt>
      <trkpt lat="38.3348081633" lon="-5.2206101362">
        <ele>630.76</ele>
        <time>2021-05-28T05:11:10Z</time>
      </trkpt>
      <trkpt lat="38.3346997015" lon="-5.2209418081">
        <ele>630.28</ele>
        <time>2021-05-28T05:11:11Z</time>
      </trkpt>
      <trkpt lat="38.3340866491" lon="-5.2233117074">
        <ele>634.13</ele>
        <time>2021-05-28T05:11:18Z</time>
      </trkpt>
      <trkpt lat="38.3340553846" lon="-5.2243687492">
        <ele>637.49</ele>
        <time>2021-05-28T05:11:21Z</time>
      </trkpt>
      <trkpt lat="38.3341079392" lon="-5.2250695601">
        <ele>638.93</ele>
        <time>2021-05-28T05:11:23Z</time>
      </trkpt>
      <trkpt lat="38.3341549616" lon="-5.2260691859">
        <ele>641.34</ele>
        <time>2021-05-28T05:11:26Z</time>
      </trkpt>
      <trkpt lat="38.3341278881" lon="-5.2263744548">
        <ele>640.86</ele>
        <time>2021-05-28T05:11:27Z</time>
      </trkpt>
      <trkpt lat="38.3340766747" lon="-5.2266690787">
        <ele>642.30</ele>
        <time>2021-05-28T05:11:28Z</time>
      </trkpt>
      <trkpt lat="38.3340008184" lon="-5.2269497886">
        <ele>642.78</ele>
        <time>2021-05-28T05:11:29Z</time>
      </trkpt>
      <trkpt lat="38.3339030854" lon="-5.2272126451">
        <ele>644.22</ele>
        <time>2021-05-28T05:11:30Z</time>
      </trkpt>
      <trkpt lat="38.3337828051" lon="-5.2274548821">
        <ele>646.62</ele>
        <time>2021-05-28T05:11:31Z</time>
      </trkpt>
      <trkpt lat="38.3336473536" lon="-5.2276824508">
        <ele>648.07</ele>
        <time>2021-05-28T05:11:32Z</time>
      </trkpt>
      <trkpt lat="38.3334927913" lon="-5.2278933395">
        <ele>649.51</ele>
        <time>2021-05-28T05:11:33Z</time>
      </trkpt>
      <trkpt lat="38.3333203755" lon="-5.2280947566">
        <ele>650.95</ele>
        <time>2021-05-28T05:11:34Z</time>
      </trkpt>
      <trkpt lat="38.3331338782" lon="-5.2282910608">
        <ele>653.35</ele>
        <time>2021-05-28T05:11:35Z</time>
      </trkpt>
      <trkpt lat="38.3327299543" lon="-5.2286836691">
        <ele>658.16</ele>
        <time>2021-05-28T05:11:37Z</time>
      </trkpt>
      <trkpt lat="38.3323071711" lon="-5.2290912811">
        <ele>662.49</ele>
        <time>2021-05-28T05:11:39Z</time>
      </trkpt>
      <trkpt lat="38.3316883352" lon="-5.2297370229">
        <ele>666.81</ele>
        <time>2021-05-28T05:11:42Z</time>
      </trkpt>
      <trkpt lat="38.3313436713" lon="-5.2302199882">
        <ele>668.73</ele>
        <time>2021-05-28T05:11:44Z</time>
      </trkpt>
      <trkpt lat="38.3312015980" lon="-5.2304841857">
        <ele>670.18</ele>
        <time>2021-05-28T05:11:45Z</time>
      </trkpt>
      <trkpt lat="38.3310778812" lon="-5.2307635546">
        <ele>671.14</ele>
        <time>2021-05-28T05:11:46Z</time>
      </trkpt>
      <trkpt lat="38.3309721854" lon="-5.2310606930">
        <ele>673.54</ele>
        <time>2021-05-28T05:11:47Z</time>
      </trkpt>
      <trkpt lat="38.3308780566" lon="-5.2313689794">
        <ele>676.91</ele>
        <time>2021-05-28T05:11:48Z</time>
      </trkpt>
      <trkpt lat="38.3306100871" lon="-5.2323038131">
        <ele>680.27</ele>
        <time>2021-05-28T05:11:51Z</time>
      </trkpt>
      <trkpt lat="38.3304257691" lon="-5.2329423465">
        <ele>684.60</ele>
        <time>2021-05-28T05:11:53Z</time>
      </trkpt>
      <trkpt lat="38.3302380983" lon="-5.2335941233">
        <ele>687.96</ele>
        <time>2021-05-28T05:11:55Z</time>
      </trkpt>
      <trkpt lat="38.3300472423" lon="-5.2342559583">
        <ele>691.81</ele>
        <time>2021-05-28T05:11:57Z</time>
      </trkpt>
      <trkpt lat="38.3298573084" lon="-5.2349194698">
        <ele>695.17</ele>
        <time>2021-05-28T05:11:59Z</time>
      </trkpt>
      <trkpt lat="38.3296681289" lon="-5.2355757728">
        <ele>698.53</ele>
        <time>2021-05-28T05:12:01Z</time>
      </trkpt>
      <trkpt lat="38.3294830564" lon="-5.2362288069">
        <ele>699.98</ele>
        <time>2021-05-28T05:12:03Z</time>
      </trkpt>
      <trkpt lat="38.3288368117" lon="-5.2385236882">
        <ele>696.61</ele>
        <time>2021-05-28T05:12:10Z</time>
      </trkpt>
      <trkpt lat="38.3286524937" lon="-5.2391752135">
        <ele>691.81</ele>
        <time>2021-05-28T05:12:12Z</time>
      </trkpt>
      <trkpt lat="38.3284732886" lon="-5.2397985756">
        <ele>687.48</ele>
        <time>2021-05-28T05:12:14Z</time>
      </trkpt>
      <trkpt lat="38.3282946702" lon="-5.2404024918">
        <ele>686.04</ele>
        <time>2021-05-28T05:12:16Z</time>
      </trkpt>
      <trkpt lat="38.3279655129" lon="-5.2412224934">
        <ele>682.19</ele>
        <time>2021-05-28T05:12:19Z</time>
      </trkpt>
      <trkpt lat="38.3278186619" lon="-5.2414564323">
        <ele>682.67</ele>
        <time>2021-05-28T05:12:20Z</time>
      </trkpt>
      <trkpt lat="38.3276531193" lon="-5.2416615374">
        <ele>680.75</ele>
        <time>2021-05-28T05:12:21Z</time>
      </trkpt>
      <trkpt lat="38.3274688013" lon="-5.2418453526">
        <ele>680.27</ele>
        <time>2021-05-28T05:12:22Z</time>
      </trkpt>
      <trkpt lat="38.3272724971" lon="-5.2420110628">
        <ele>679.79</ele>
        <time>2021-05-28T05:12:23Z</time>
      </trkpt>
      <trkpt lat="38.3265191317" lon="-5.2427101135">
        <ele>676.42</ele>
        <time>2021-05-28T05:12:27Z</time>
      </trkpt>
      <trkpt lat="38.3263601270" lon="-5.2429261990">
        <ele>675.94</ele>
        <time>2021-05-28T05:12:28Z</time>
      </trkpt>
      <trkpt lat="38.3262206521" lon="-5.2431604732">
        <ele>673.54</ele>
        <time>2021-05-28T05:12:29Z</time>
      </trkpt>
      <trkpt lat="38.3261025511" lon="-5.2434133552">
        <ele>672.58</ele>
        <time>2021-05-28T05:12:30Z</time>
      </trkpt>
      <trkpt lat="38.3260075841" lon="-5.2436798159">
        <ele>670.66</ele>
        <time>2021-05-28T05:12:31Z</time>
      </trkpt>
      <trkpt lat="38.3259337395" lon="-5.2439519763">
        <ele>667.77</ele>
        <time>2021-05-28T05:12:32Z</time>
      </trkpt>
      <trkpt lat="38.3258861303" lon="-5.2442294173">
        <ele>665.85</ele>
        <time>2021-05-28T05:12:33Z</time>
      </trkpt>
      <trkpt lat="38.3258588053" lon="-5.2445140667">
        <ele>664.41</ele>
        <time>2021-05-28T05:12:34Z</time>
      </trkpt>
      <trkpt lat="38.3258556202" lon="-5.2448031586">
        <ele>663.45</ele>
        <time>2021-05-28T05:12:35Z</time>
      </trkpt>
      <trkpt lat="38.3258758206" lon="-5.2450895682">
        <ele>662.01</ele>
        <time>2021-05-28T05:12:36Z</time>
      </trkpt>
      <trkpt lat="38.3259213343" lon="-5.2453718707">
        <ele>660.56</ele>
        <time>2021-05-28T05:12:37Z</time>
      </trkpt>
      <trkpt lat="38.3259904012" lon="-5.2456494793">
        <ele>659.12</ele>
        <time>2021-05-28T05:12:38Z</time>
      </trkpt>
      <trkpt lat="38.3260784112" lon="-5.2459246572">
        <ele>657.68</ele>
        <time>2021-05-28T05:12:39Z</time>
      </trkpt>
      <trkpt lat="38.3261806704" lon="-5.2462015115">
        <ele>656.24</ele>
        <time>2021-05-28T05:12:40Z</time>
      </trkpt>
      <trkpt lat="38.3265112527" lon="-5.2470297273">
        <ele>652.87</ele>
        <time>2021-05-28T05:12:43Z</time>
      </trkpt>
      <trkpt lat="38.3266063035" lon="-5.2473121136">
        <ele>649.51</ele>
        <time>2021-05-28T05:12:44Z</time>
      </trkpt>
      <trkpt lat="38.3267913759" lon="-5.2482239809">
        <ele>645.18</ele>
        <time>2021-05-28T05:12:47Z</time>
      </trkpt>
      <trkpt lat="38.3268258255" lon="-5.2488723211">
        <ele>641.82</ele>
        <time>2021-05-28T05:12:49Z</time>
      </trkpt>
      <trkpt lat="38.3267838322" lon="-5.2495249361">
        <ele>638.45</ele>
        <time>2021-05-28T05:12:51Z</time>
      </trkpt>
      <trkpt lat="38.3266597800" lon="-5.2501652297">
        <ele>634.61</ele>
        <time>2021-05-28T05:12:53Z</time>
      </trkpt>
      <trkpt lat="38.3264558483" lon="-5.2507782821">
        <ele>630.28</ele>
        <time>2021-05-28T05:12:55Z</time>
      </trkpt>
      <trkpt lat="38.3261815924" lon="-5.2513463236">
        <ele>626.44</ele>
        <time>2021-05-28T05:12:57Z</time>
      </trkpt>
      <trkpt lat="38.3258418739" lon="-5.2518566139">
        <ele>622.59</ele>
        <time>2021-05-28T05:12:59Z</time>
      </trkpt>
      <trkpt lat="38.3254434820" lon="-5.2522987593">
        <ele>619.23</ele>
        <time>2021-05-28T05:13:01Z</time>
      </trkpt>
      <trkpt lat="38.3249957208" lon="-5.2526638750">
        <ele>615.38</ele>
        <time>2021-05-28T05:13:03Z</time>
      </trkpt>
      <trkpt lat="38.3245505579" lon="-5.2530067787">
        <ele>609.61</ele>
        <time>2021-05-28T05:13:05Z</time>
      </trkpt>
      <trkpt lat="38.3241413534" lon="-5.2534030750">
        <ele>606.25</ele>
        <time>2021-05-28T05:13:07Z</time>
      </trkpt>
      <trkpt lat="38.3239641599" lon="-5.2536287997">
        <ele>604.81</ele>
        <time>2021-05-28T05:13:08Z</time>
      </trkpt>
      <trkpt lat="38.3238101006" lon="-5.2538748085">
        <ele>603.36</ele>
        <time>2021-05-28T05:13:09Z</time>
      </trkpt>
      <trkpt lat="38.3236783370" lon="-5.2541422751">
        <ele>603.36</ele>
        <time>2021-05-28T05:13:10Z</time>
      </trkpt>
      <trkpt lat="38.3235719707" lon="-5.2544280980">
        <ele>602.88</ele>
        <time>2021-05-28T05:13:11Z</time>
      </trkpt>
      <trkpt lat="38.3234918397" lon="-5.2547302656">
        <ele>601.92</ele>
        <time>2021-05-28T05:13:12Z</time>
      </trkpt>
      <trkpt lat="38.3234364353" lon="-5.2550491970">
        <ele>601.44</ele>
        <time>2021-05-28T05:13:13Z</time>
      </trkpt>
      <trkpt lat="38.3234020695" lon="-5.2553823777">
        <ele>600.96</ele>
        <time>2021-05-28T05:13:14Z</time>
      </trkpt>
      <trkpt lat="38.3233863954" lon="-5.2557244431">
        <ele>600.48</ele>
        <time>2021-05-28T05:13:15Z</time>
      </trkpt>
      <trkpt lat="38.3233791869" lon="-5.2560745552">
        <ele>600.00</ele>
        <time>2021-05-28T05:13:16Z</time>
      </trkpt>
      <trkpt lat="38.3233521134" lon="-5.2571391407">
        <ele>596.64</ele>
        <time>2021-05-28T05:13:19Z</time>
      </trkpt>
      <trkpt lat="38.3233268000" lon="-5.2578138839">
        <ele>593.27</ele>
        <time>2021-05-28T05:13:21Z</time>
      </trkpt>
      <trkpt lat="38.3232403826" lon="-5.2584379166">
        <ele>589.43</ele>
        <time>2021-05-28T05:13:23Z</time>
      </trkpt>
      <trkpt lat="38.3231568988" lon="-5.2587255836">
        <ele>587.02</ele>
        <time>2021-05-28T05:13:24Z</time>
      </trkpt>
      <trkpt lat="38.3230443299" lon="-5.2589944750">
        <ele>585.10</ele>
        <time>2021-05-28T05:13:25Z</time>
      </trkpt>
      <trkpt lat="38.3229013346" lon="-5.2592423279">
        <ele>585.10</ele>
        <time>2021-05-28T05:13:26Z</time>
      </trkpt>
      <trkpt lat="38.3227355406" lon="-5.2594724111">
        <ele>584.62</ele>
        <time>2021-05-28T05:13:27Z</time>
      </trkpt>
      <trkpt lat="38.3225531504" lon="-5.2596941125">
        <ele>584.14</ele>
        <time>2021-05-28T05:13:28Z</time>
      </trkpt>
      <trkpt lat="38.3214405365" lon="-5.2610745281">
        <ele>580.77</ele>
        <time>2021-05-28T05:13:34Z</time>
      </trkpt>
      <trkpt lat="38.3212956972" lon="-5.2613333613">
        <ele>579.81</ele>
        <time>2021-05-28T05:13:35Z</time>
      </trkpt>
      <trkpt lat="38.3211679570" lon="-5.2616079524">
        <ele>580.29</ele>
        <time>2021-05-28T05:13:36Z</time>
      </trkpt>
      <trkpt lat="38.3208268136" lon="-5.2625081688">
        <ele>581.73</ele>
        <time>2021-05-28T05:13:39Z</time>
      </trkpt>
      <trkpt lat="38.3198930696" lon="-5.2649351489">
        <ele>576.93</ele>
        <time>2021-05-28T05:13:47Z</time>
      </trkpt>
      <trkpt lat="38.3197487332" lon="-5.2651922219">
        <ele>575.49</ele>
        <time>2021-05-28T05:13:48Z</time>
      </trkpt>
      <trkpt lat="38.3195856214" lon="-5.2654279210">
        <ele>574.04</ele>
        <time>2021-05-28T05:13:49Z</time>
      </trkpt>
      <trkpt lat="38.3194009680" lon="-5.2656429168">
        <ele>574.53</ele>
        <time>2021-05-28T05:13:50Z</time>
      </trkpt>
      <trkpt lat="38.3191992994" lon="-5.2658410650">
        <ele>573.56</ele>
        <time>2021-05-28T05:13:51Z</time>
      </trkpt>
      <trkpt lat="38.3189916797" lon="-5.2660305798">
        <ele>573.56</ele>
        <time>2021-05-28T05:13:52Z</time>
      </trkpt>
      <trkpt lat="38.3179151919" lon="-5.2670037188">
        <ele>569.72</ele>
        <time>2021-05-28T05:13:57Z</time>
      </trkpt>
      <trkpt lat="38.3174848650" lon="-5.2673985902">
        <ele>568.76</ele>
        <time>2021-05-28T05:13:59Z</time>
      </trkpt>
      <trkpt lat="38.3168807812" lon="-5.2680192702">
        <ele>564.91</ele>
        <time>2021-05-28T05:14:02Z</time>
      </trkpt>
      <trkpt lat="38.3167060185" lon="-5.2682557236">
        <ele>564.91</ele>
        <time>2021-05-28T05:14:03Z</time>
      </trkpt>
      <trkpt lat="38.3165501151" lon="-5.2685106173">
        <ele>563.47</ele>
        <time>2021-05-28T05:14:04Z</time>
      </trkpt>
      <trkpt lat="38.3164100535" lon="-5.2687816042">
        <ele>562.51</ele>
        <time>2021-05-28T05:14:05Z</time>
      </trkpt>
      <trkpt lat="38.3162818942" lon="-5.2690639906">
        <ele>562.03</ele>
        <time>2021-05-28T05:14:06Z</time>
      </trkpt>
      <trkpt lat="38.3158886153" lon="-5.2698776219">
        <ele>560.11</ele>
        <time>2021-05-28T05:14:09Z</time>
      </trkpt>
      <trkpt lat="38.3155768923" lon="-5.2703364473">
        <ele>558.66</ele>
        <time>2021-05-28T05:14:11Z</time>
      </trkpt>
      <trkpt lat="38.3153983578" lon="-5.2705358528">
        <ele>558.18</ele>
        <time>2021-05-28T05:14:12Z</time>
      </trkpt>
      <trkpt lat="38.3152064960" lon="-5.2707165666">
        <ele>558.66</ele>
        <time>2021-05-28T05:14:13Z</time>
      </trkpt>
      <trkpt lat="38.3142952994" lon="-5.2714109235">
        <ele>556.26</ele>
        <time>2021-05-28T05:14:18Z</time>
      </trkpt>
      <trkpt lat="38.3135816641" lon="-5.2719472814">
        <ele>552.41</ele>
        <time>2021-05-28T05:14:23Z</time>
      </trkpt>
      <trkpt lat="38.3133401815" lon="-5.2721326891">
        <ele>551.45</ele>
        <time>2021-05-28T05:14:25Z</time>
      </trkpt>
      <trkpt lat="38.3127868082" lon="-5.2726373635">
        <ele>548.09</ele>
        <time>2021-05-28T05:14:31Z</time>
      </trkpt>
      <trkpt lat="38.3127255365" lon="-5.2727161534">
        <ele>547.61</ele>
        <time>2021-05-28T05:14:32Z</time>
      </trkpt>
      <trkpt lat="38.3126783464" lon="-5.2727967035">
        <ele>547.13</ele>
        <time>2021-05-28T05:14:33Z</time>
      </trkpt>
      <trkpt lat="38.3126513567" lon="-5.2728797682">
        <ele>546.65</ele>
        <time>2021-05-28T05:14:34Z</time>
      </trkpt>
      <trkpt lat="38.3126068488" lon="-5.2730320673">
        <ele>545.69</ele>
        <time>2021-05-28T05:14:36Z</time>
      </trkpt>
      <trkpt lat="38.3125644363" lon="-5.2730806824">
        <ele>546.17</ele>
        <time>2021-05-28T05:14:37Z</time>
      </trkpt>
      <trkpt lat="38.3125134744" lon="-5.2731028106">
        <ele>545.69</ele>
        <time>2021-05-28T05:14:38Z</time>
      </trkpt>
      <trkpt lat="38.3124578185" lon="-5.2730953507">
        <ele>545.69</ele>
        <time>2021-05-28T05:14:39Z</time>
      </trkpt>
      <trkpt lat="38.3124104608" lon="-5.2730520163">
        <ele>545.20</ele>
        <time>2021-05-28T05:14:40Z</time>
      </trkpt>
      <trkpt lat="38.3123793639" lon="-5.2729827818">
        <ele>545.20</ele>
        <time>2021-05-28T05:14:41Z</time>
      </trkpt>
      <trkpt lat="38.3123629354" lon="-5.2728960291">
        <ele>546.17</ele>
        <time>2021-05-28T05:14:42Z</time>
      </trkpt>
      <trkpt lat="38.3123510331" lon="-5.2727942728">
        <ele>546.17</ele>
        <time>2021-05-28T05:14:43Z</time>
      </trkpt>
      <trkpt lat="38.3123260550" lon="-5.2726792730">
        <ele>546.65</ele>
        <time>2021-05-28T05:14:44Z</time>
      </trkpt>
      <trkpt lat="38.3122853190" lon="-5.2725524548">
        <ele>546.65</ele>
        <time>2021-05-28T05:14:45Z</time>
      </trkpt>
      <trkpt lat="38.3119637892" lon="-5.2718506381">
        <ele>544.24</ele>
        <time>2021-05-28T05:14:50Z</time>
      </trkpt>
      <trkpt lat="38.3118663076" lon="-5.2717366442">
        <ele>544.72</ele>
        <time>2021-05-28T05:14:51Z</time>
      </trkpt>
      <trkpt lat="38.3117482066" lon="-5.2716440242">
        <ele>545.20</ele>
        <time>2021-05-28T05:14:52Z</time>
      </trkpt>
      <trkpt lat="38.3116118331" lon="-5.2715768851">
        <ele>545.69</ele>
        <time>2021-05-28T05:14:53Z</time>
      </trkpt>
      <trkpt lat="38.3114632219" lon="-5.2715394180">
        <ele>546.65</ele>
        <time>2021-05-28T05:14:54Z</time>
      </trkpt>
      <trkpt lat="38.3113032114" lon="-5.2715300303">
        <ele>547.13</ele>
        <time>2021-05-28T05:14:55Z</time>
      </trkpt>
      <trkpt lat="38.3111380879" lon="-5.2715402562">
        <ele>547.61</ele>
        <time>2021-05-28T05:14:56Z</time>
      </trkpt>
      <trkpt lat="38.3103231154" lon="-5.2716789767">
        <ele>550.49</ele>
        <time>2021-05-28T05:15:01Z</time>
      </trkpt>
      <trkpt lat="38.3101841435" lon="-5.2717602812">
        <ele>550.49</ele>
        <time>2021-05-28T05:15:02Z</time>
      </trkpt>
      <trkpt lat="38.3100663777" lon="-5.2718705870">
        <ele>550.49</ele>
        <time>2021-05-28T05:15:03Z</time>
      </trkpt>
      <trkpt lat="38.3099678904" lon="-5.2720084693">
        <ele>550.49</ele>
        <time>2021-05-28T05:15:04Z</time>
      </trkpt>
      <trkpt lat="38.3098855801" lon="-5.2721642889">
        <ele>550.49</ele>
        <time>2021-05-28T05:15:05Z</time>
      </trkpt>
      <trkpt lat="38.3098116517" lon="-5.2723322622">
        <ele>550.97</ele>
        <time>2021-05-28T05:15:06Z</time>
      </trkpt>
      <trkpt lat="38.3090877905" lon="-5.2739532385">
        <ele>551.93</ele>
        <time>2021-05-28T05:15:14Z</time>
      </trkpt>
      <trkpt lat="38.3087809291" lon="-5.2749870624">
        <ele>553.86</ele>
        <time>2021-05-28T05:15:18Z</time>
      </trkpt>
      <trkpt lat="38.3081886638" lon="-5.2765512094">
        <ele>553.38</ele>
        <time>2021-05-28T05:15:24Z</time>
      </trkpt>
      <trkpt lat="38.3067652490" lon="-5.2788042650">
        <ele>549.53</ele>
        <time>2021-05-28T05:15:33Z</time>
      </trkpt>
      <trkpt lat="38.3066022210" lon="-5.2790455800">
        <ele>550.01</ele>
        <time>2021-05-28T05:15:34Z</time>
      </trkpt>
      <trkpt lat="38.3060571458" lon="-5.2797268610">
        <ele>547.61</ele>
        <time>2021-05-28T05:15:37Z</time>
      </trkpt>
      <trkpt lat="38.3054109011" lon="-5.2802878618">
        <ele>545.20</ele>
        <time>2021-05-28T05:15:40Z</time>
      </trkpt>
      <trkpt lat="38.3041555434" lon="-5.2808395587">
        <ele>541.84</ele>
        <time>2021-05-28T05:15:45Z</time>
      </trkpt>
      <trkpt lat="38.3027977590" lon="-5.2808434982">
        <ele>541.84</ele>
        <time>2021-05-28T05:15:50Z</time>
      </trkpt>
      <trkpt lat="38.3000234328" lon="-5.2800747938">
        <ele>541.84</ele>
        <time>2021-05-28T05:16:00Z</time>
      </trkpt>
      <trkpt lat="38.2969136629" lon="-5.2794559579">
        <ele>540.40</ele>
        <time>2021-05-28T05:16:11Z</time>
      </trkpt>
      <trkpt lat="38.2955803536" lon="-5.2798728738">
        <ele>539.92</ele>
        <time>2021-05-28T05:16:16Z</time>
      </trkpt>
      <trkpt lat="38.2953569759" lon="-5.2800374944">
        <ele>540.40</ele>
        <time>2021-05-28T05:16:17Z</time>
      </trkpt>
      <trkpt lat="38.2951521222" lon="-5.2802259196">
        <ele>541.36</ele>
        <time>2021-05-28T05:16:18Z</time>
      </trkpt>
      <trkpt lat="38.2949677203" lon="-5.2804368921">
        <ele>541.36</ele>
        <time>2021-05-28T05:16:19Z</time>
      </trkpt>
      <trkpt lat="38.2948030997" lon="-5.2806694899">
        <ele>540.88</ele>
        <time>2021-05-28T05:16:20Z</time>
      </trkpt>
      <trkpt lat="38.2946630381" lon="-5.2809237968">
        <ele>541.36</ele>
        <time>2021-05-28T05:16:21Z</time>
      </trkpt>
      <trkpt lat="38.2945429254" lon="-5.2811926883">
        <ele>541.84</ele>
        <time>2021-05-28T05:16:22Z</time>
      </trkpt>
      <trkpt lat="38.2944475394" lon="-5.2814791817">
        <ele>542.32</ele>
        <time>2021-05-28T05:16:23Z</time>
      </trkpt>
      <trkpt lat="38.2943741977" lon="-5.2817810141">
        <ele>541.84</ele>
        <time>2021-05-28T05:16:24Z</time>
      </trkpt>
      <trkpt lat="38.2943239901" lon="-5.2820938267">
        <ele>541.84</ele>
        <time>2021-05-28T05:16:25Z</time>
      </trkpt>
      <trkpt lat="38.2942944020" lon="-5.2824182902">
        <ele>542.32</ele>
        <time>2021-05-28T05:16:26Z</time>
      </trkpt>
      <trkpt lat="38.2942836732" lon="-5.2827514708">
        <ele>542.32</ele>
        <time>2021-05-28T05:16:27Z</time>
      </trkpt>
      <trkpt lat="38.2942923065" lon="-5.2830899321">
        <ele>541.84</ele>
        <time>2021-05-28T05:16:28Z</time>
      </trkpt>
      <trkpt lat="38.2943210565" lon="-5.2834334224">
        <ele>541.84</ele>
        <time>2021-05-28T05:16:29Z</time>
      </trkpt>
      <trkpt lat="38.2943638042" lon="-5.2837786730">
        <ele>541.84</ele>
        <time>2021-05-28T05:16:30Z</time>
      </trkpt>
      <trkpt lat="38.2944223098" lon="-5.2841224987">
        <ele>541.84</ele>
        <time>2021-05-28T05:16:31Z</time>
      </trkpt>
      <trkpt lat="38.2947689015" lon="-5.2854890004">
        <ele>545.20</ele>
        <time>2021-05-28T05:16:35Z</time>
      </trkpt>
      <trkpt lat="38.2948771119" lon="-5.2858271264">
        <ele>545.20</ele>
        <time>2021-05-28T05:16:36Z</time>
      </trkpt>
      <trkpt lat="38.2958954293" lon="-5.2888835873">
        <ele>549.05</ele>
        <time>2021-05-28T05:16:45Z</time>
      </trkpt>
      <trkpt lat="38.2962998562" lon="-5.2902430482">
        <ele>552.90</ele>
        <time>2021-05-28T05:16:49Z</time>
      </trkpt>
      <trkpt lat="38.2963773888" lon="-5.2905937470">
        <ele>552.41</ele>
        <time>2021-05-28T05:16:50Z</time>
      </trkpt>
      <trkpt lat="38.2968098111" lon="-5.2931793965">
        <ele>550.49</ele>
        <time>2021-05-28T05:16:57Z</time>
      </trkpt>
      <trkpt lat="38.2970578317" lon="-5.2946945094">
        <ele>547.13</ele>
        <time>2021-05-28T05:17:01Z</time>
      </trkpt>
      <trkpt lat="38.2971816324" lon="-5.2954446059">
        <ele>546.17</ele>
        <time>2021-05-28T05:17:03Z</time>
      </trkpt>
      <trkpt lat="38.2974919304" lon="-5.2973091602">
        <ele>543.28</ele>
        <time>2021-05-28T05:17:08Z</time>
      </trkpt>
      <trkpt lat="38.2978644222" lon="-5.2995431889">
        <ele>539.44</ele>
        <time>2021-05-28T05:17:14Z</time>
      </trkpt>
      <trkpt lat="38.2980476506" lon="-5.3006598260">
        <ele>538.48</ele>
        <time>2021-05-28T05:17:17Z</time>
      </trkpt>
      <trkpt lat="38.2983530872" lon="-5.3025290743">
        <ele>535.11</ele>
        <time>2021-05-28T05:17:22Z</time>
      </trkpt>
      <trkpt lat="38.2984143589" lon="-5.3029056732">
        <ele>535.59</ele>
        <time>2021-05-28T05:17:23Z</time>
      </trkpt>
      <trkpt lat="38.2986602839" lon="-5.3044179361">
        <ele>532.23</ele>
        <time>2021-05-28T05:17:27Z</time>
      </trkpt>
      <trkpt lat="38.2988436799" lon="-5.3055437095">
        <ele>528.86</ele>
        <time>2021-05-28T05:17:30Z</time>
      </trkpt>
      <trkpt lat="38.2990209572" lon="-5.3066642024">
        <ele>527.42</ele>
        <time>2021-05-28T05:17:33Z</time>
      </trkpt>
      <trkpt lat="38.2991372142" lon="-5.3073960263">
        <ele>528.86</ele>
        <time>2021-05-28T05:17:35Z</time>
      </trkpt>
      <trkpt lat="38.2993663754" lon="-5.3088269010">
        <ele>525.98</ele>
        <time>2021-05-28T05:17:39Z</time>
      </trkpt>
      <trkpt lat="38.2997025736" lon="-5.3109481931">
        <ele>531.27</ele>
        <time>2021-05-28T05:17:45Z</time>
      </trkpt>
      <trkpt lat="38.2997604087" lon="-5.3113041725">
        <ele>531.27</ele>
        <time>2021-05-28T05:17:46Z</time>
      </trkpt>
      <trkpt lat="38.2999335788" lon="-5.3123768046">
        <ele>535.11</ele>
        <time>2021-05-28T05:17:49Z</time>
      </trkpt>
      <trkpt lat="38.3006026223" lon="-5.3164374176">
        <ele>535.59</ele>
        <time>2021-05-28T05:18:01Z</time>
      </trkpt>
      <trkpt lat="38.3010445163" lon="-5.3191080596">
        <ele>532.23</ele>
        <time>2021-05-28T05:18:09Z</time>
      </trkpt>
      <trkpt lat="38.3012157585" lon="-5.3201405425">
        <ele>527.90</ele>
        <time>2021-05-28T05:18:12Z</time>
      </trkpt>
      <trkpt lat="38.3018324990" lon="-5.3239268158">
        <ele>529.82</ele>
        <time>2021-05-28T05:18:24Z</time>
      </trkpt>
      <trkpt lat="38.3021263685" lon="-5.3266386129">
        <ele>528.86</ele>
        <time>2021-05-28T05:18:33Z</time>
      </trkpt>
      <trkpt lat="38.3018091973" lon="-5.3298234846">
        <ele>530.79</ele>
        <time>2021-05-28T05:18:42Z</time>
      </trkpt>
      <trkpt lat="38.3016409725" lon="-5.3312198259">
        <ele>535.11</ele>
        <time>2021-05-28T05:18:46Z</time>
      </trkpt>
      <trkpt lat="38.3014724962" lon="-5.3326203581">
        <ele>538.48</ele>
        <time>2021-05-28T05:18:50Z</time>
      </trkpt>
      <trkpt lat="38.3014286589" lon="-5.3329717275">
        <ele>537.99</ele>
        <time>2021-05-28T05:18:51Z</time>
      </trkpt>
      <trkpt lat="38.3009967394" lon="-5.3363016900">
        <ele>541.36</ele>
        <time>2021-05-28T05:19:01Z</time>
      </trkpt>
      <trkpt lat="38.3009285107" lon="-5.3366206214">
        <ele>541.36</ele>
        <time>2021-05-28T05:19:02Z</time>
      </trkpt>
      <trkpt lat="38.3005079906" lon="-5.3378499113">
        <ele>545.20</ele>
        <time>2021-05-28T05:19:06Z</time>
      </trkpt>
      <trkpt lat="38.3002108522" lon="-5.3384257481">
        <ele>546.65</ele>
        <time>2021-05-28T05:19:08Z</time>
      </trkpt>
      <trkpt lat="38.2983870339" lon="-5.3413605876">
        <ele>543.76</ele>
        <time>2021-05-28T05:19:19Z</time>
      </trkpt>
      <trkpt lat="38.2978857961" lon="-5.3421675134">
        <ele>541.84</ele>
        <time>2021-05-28T05:19:22Z</time>
      </trkpt>
      <trkpt lat="38.2973914314" lon="-5.3429596871">
        <ele>538.48</ele>
        <time>2021-05-28T05:19:25Z</time>
      </trkpt>
      <trkpt lat="38.2969339471" lon="-5.3436972108">
        <ele>533.67</ele>
        <time>2021-05-28T05:19:28Z</time>
      </trkpt>
      <trkpt lat="38.2965055481" lon="-5.3443898913">
        <ele>531.27</ele>
        <time>2021-05-28T05:19:31Z</time>
      </trkpt>
      <trkpt lat="38.2959645800" lon="-5.3452600166">
        <ele>527.90</ele>
        <time>2021-05-28T05:19:35Z</time>
      </trkpt>
      <trkpt lat="38.2958345767" lon="-5.3454689775">
        <ele>528.38</ele>
        <time>2021-05-28T05:19:36Z</time>
      </trkpt>
      <trkpt lat="38.2944136765" lon="-5.3477044310">
        <ele>528.38</ele>
        <time>2021-05-28T05:19:46Z</time>
      </trkpt>
      <trkpt lat="38.2939457148" lon="-5.3484921623">
        <ele>526.46</ele>
        <time>2021-05-28T05:19:49Z</time>
      </trkpt>
      <trkpt lat="38.2924513891" lon="-5.3509135265">
        <ele>529.82</ele>
        <time>2021-05-28T05:19:58Z</time>
      </trkpt>
      <trkpt lat="38.2919332199" lon="-5.3517522197">
        <ele>532.71</ele>
        <time>2021-05-28T05:20:01Z</time>
      </trkpt>
      <trkpt lat="38.2914051600" lon="-5.3525986243">
        <ele>536.07</ele>
        <time>2021-05-28T05:20:04Z</time>
      </trkpt>
      <trkpt lat="38.2899664901" lon="-5.3549428750">
        <ele>539.44</ele>
        <time>2021-05-28T05:20:12Z</time>
      </trkpt>
      <trkpt lat="38.2868229412" lon="-5.3600233141">
        <ele>542.80</ele>
        <time>2021-05-28T05:20:29Z</time>
      </trkpt>
      <trkpt lat="38.2833914738" lon="-5.3657317255">
        <ele>542.80</ele>
        <time>2021-05-28T05:20:48Z</time>
      </trkpt>
      <trkpt lat="38.2829397731" lon="-5.3675023187">
        <ele>542.80</ele>
        <time>2021-05-28T05:20:53Z</time>
      </trkpt>
      <trkpt lat="38.2820265647" lon="-5.3742600605">
        <ele>543.76</ele>
        <time>2021-05-28T05:21:11Z</time>
      </trkpt>
      <trkpt lat="38.2817694079" lon="-5.3761252854">
        <ele>541.36</ele>
        <time>2021-05-28T05:21:16Z</time>
      </trkpt>
      <trkpt lat="38.2816819847" lon="-5.3786457237">
        <ele>540.88</ele>
        <time>2021-05-28T05:21:23Z</time>
      </trkpt>
      <trkpt lat="38.2820320968" lon="-5.3822471760">
        <ele>539.44</ele>
        <time>2021-05-28T05:21:33Z</time>
      </trkpt>
      <trkpt lat="38.2820190210" lon="-5.3826147225">
        <ele>539.44</ele>
        <time>2021-05-28T05:21:34Z</time>
      </trkpt>
      <trkpt lat="38.2816251554" lon="-5.3847408760">
        <ele>539.44</ele>
        <time>2021-05-28T05:21:40Z</time>
      </trkpt>
      <trkpt lat="38.2813148573" lon="-5.3857622948">
        <ele>540.88</ele>
        <time>2021-05-28T05:21:43Z</time>
      </trkpt>
      <trkpt lat="38.2794683240" lon="-5.3914353345">
        <ele>542.80</ele>
        <time>2021-05-28T05:22:00Z</time>
      </trkpt>
      <trkpt lat="38.2790390030" lon="-5.3927214537">
        <ele>546.65</ele>
        <time>2021-05-28T05:22:04Z</time>
      </trkpt>
      <trkpt lat="38.2773716748" lon="-5.3979124501">
        <ele>549.53</ele>
        <time>2021-05-28T05:22:20Z</time>
      </trkpt>
      <trkpt lat="38.2758975495" lon="-5.4024713673">
        <ele>552.90</ele>
        <time>2021-05-28T05:22:34Z</time>
      </trkpt>
      <trkpt lat="38.2749708463" lon="-5.4053265788">
        <ele>553.38</ele>
        <time>2021-05-28T05:22:43Z</time>
      </trkpt>
      <trkpt lat="38.2741489168" lon="-5.4081366956">
        <ele>551.45</ele>
        <time>2021-05-28T05:22:53Z</time>
      </trkpt>
      <trkpt lat="38.2739693765" lon="-5.4102817923">
        <ele>554.34</ele>
        <time>2021-05-28T05:23:01Z</time>
      </trkpt>
      <trkpt lat="38.2739915047" lon="-5.4105625860">
        <ele>554.34</ele>
        <time>2021-05-28T05:23:02Z</time>
      </trkpt>
      <trkpt lat="38.2741215918" lon="-5.4114187136">
        <ele>557.22</ele>
        <time>2021-05-28T05:23:05Z</time>
      </trkpt>
      <trkpt lat="38.2744188141" lon="-5.4125678726">
        <ele>560.59</ele>
        <time>2021-05-28T05:23:09Z</time>
      </trkpt>
      <trkpt lat="38.2747072354" lon="-5.4134307057">
        <ele>562.51</ele>
        <time>2021-05-28T05:23:12Z</time>
      </trkpt>
      <trkpt lat="38.2751109079" lon="-5.4146284796">
        <ele>565.87</ele>
        <time>2021-05-28T05:23:16Z</time>
      </trkpt>
      <trkpt lat="38.2763741445" lon="-5.4183467757">
        <ele>565.39</ele>
        <time>2021-05-28T05:23:28Z</time>
      </trkpt>
      <trkpt lat="38.2768839318" lon="-5.4198655766">
        <ele>563.95</ele>
        <time>2021-05-28T05:23:33Z</time>
      </trkpt>
      <trkpt lat="38.2772279251" lon="-5.4217204079">
        <ele>560.11</ele>
        <time>2021-05-28T05:23:39Z</time>
      </trkpt>
      <trkpt lat="38.2772378158" lon="-5.4220293649">
        <ele>560.11</ele>
        <time>2021-05-28T05:23:40Z</time>
      </trkpt>
      <trkpt lat="38.2771482971" lon="-5.4232412204">
        <ele>558.18</ele>
        <time>2021-05-28T05:23:44Z</time>
      </trkpt>
      <trkpt lat="38.2765075844" lon="-5.4252105486">
        <ele>557.70</ele>
        <time>2021-05-28T05:23:51Z</time>
      </trkpt>
      <trkpt lat="38.2757071126" lon="-5.4263880383">
        <ele>560.11</ele>
        <time>2021-05-28T05:23:56Z</time>
      </trkpt>
      <trkpt lat="38.2744968496" lon="-5.4275791068">
        <ele>563.95</ele>
        <time>2021-05-28T05:24:02Z</time>
      </trkpt>
      <trkpt lat="38.2738626748" lon="-5.4281792510">
        <ele>567.80</ele>
        <time>2021-05-28T05:24:05Z</time>
      </trkpt>
      <trkpt lat="38.2732176036" lon="-5.4287944827">
        <ele>570.68</ele>
        <time>2021-05-28T05:24:08Z</time>
      </trkpt>
      <trkpt lat="38.2727811579" lon="-5.4292142484">
        <ele>574.04</ele>
        <time>2021-05-28T05:24:10Z</time>
      </trkpt>
      <trkpt lat="38.2721168920" lon="-5.4298512731">
        <ele>576.93</ele>
        <time>2021-05-28T05:24:13Z</time>
      </trkpt>
      <trkpt lat="38.2716626767" lon="-5.4302786663">
        <ele>580.29</ele>
        <time>2021-05-28T05:24:15Z</time>
      </trkpt>
      <trkpt lat="38.2712074555" lon="-5.4307066463">
        <ele>583.66</ele>
        <time>2021-05-28T05:24:17Z</time>
      </trkpt>
      <trkpt lat="38.2707528211" lon="-5.4311407451">
        <ele>585.10</ele>
        <time>2021-05-28T05:24:19Z</time>
      </trkpt>
      <trkpt lat="38.2698455639" lon="-5.4320109542">
        <ele>588.46</ele>
        <time>2021-05-28T05:24:23Z</time>
      </trkpt>
      <trkpt lat="38.2691695634" lon="-5.4326569475">
        <ele>591.35</ele>
        <time>2021-05-28T05:24:26Z</time>
      </trkpt>
      <trkpt lat="38.2682728674" lon="-5.4335131589">
        <ele>595.19</ele>
        <time>2021-05-28T05:24:30Z</time>
      </trkpt>
      <trkpt lat="38.2676054165" lon="-5.4341450706">
        <ele>598.08</ele>
        <time>2021-05-28T05:24:33Z</time>
      </trkpt>
      <trkpt lat="38.2650712319" lon="-5.4366740584">
        <ele>596.15</ele>
        <time>2021-05-28T05:24:45Z</time>
      </trkpt>
      <trkpt lat="38.2645904459" lon="-5.4374498036">
        <ele>594.71</ele>
        <time>2021-05-28T05:24:48Z</time>
      </trkpt>
      <trkpt lat="38.2639356516" lon="-5.4393091612">
        <ele>592.79</ele>
        <time>2021-05-28T05:24:54Z</time>
      </trkpt>
      <trkpt lat="38.2632409595" lon="-5.4419534840">
        <ele>588.95</ele>
        <time>2021-05-28T05:25:02Z</time>
      </trkpt>
      <trkpt lat="38.2631461602" lon="-5.4433284514">
        <ele>592.31</ele>
        <time>2021-05-28T05:25:06Z</time>
      </trkpt>
      <trkpt lat="38.2631724793" lon="-5.4440273345">
        <ele>595.19</ele>
        <time>2021-05-28T05:25:08Z</time>
      </trkpt>
      <trkpt lat="38.2632278837" lon="-5.4450799339">
        <ele>600.48</ele>
        <time>2021-05-28T05:25:11Z</time>
      </trkpt>
      <trkpt lat="38.2632643450" lon="-5.4457828403">
        <ele>603.36</ele>
        <time>2021-05-28T05:25:13Z</time>
      </trkpt>
      <trkpt lat="38.2633004710" lon="-5.4464844894">
        <ele>607.21</ele>
        <time>2021-05-28T05:25:15Z</time>
      </trkpt>
      <trkpt lat="38.2633521035" lon="-5.4475393519">
        <ele>611.54</ele>
        <time>2021-05-28T05:25:18Z</time>
      </trkpt>
      <trkpt lat="38.2633242756" lon="-5.4496292956">
        <ele>616.82</ele>
        <time>2021-05-28T05:25:24Z</time>
      </trkpt>
      <trkpt lat="38.2631517760" lon="-5.4513193388">
        <ele>612.98</ele>
        <time>2021-05-28T05:25:29Z</time>
      </trkpt>
      <trkpt lat="38.2631108724" lon="-5.4516573809">
        <ele>609.61</ele>
        <time>2021-05-28T05:25:30Z</time>
      </trkpt>
      <trkpt lat="38.2629884128" lon="-5.4526782967">
        <ele>605.29</ele>
        <time>2021-05-28T05:25:33Z</time>
      </trkpt>
      <trkpt lat="38.2628664561" lon="-5.4536989611">
        <ele>601.44</ele>
        <time>2021-05-28T05:25:36Z</time>
      </trkpt>
      <trkpt lat="38.2627382129" lon="-5.4547213018">
        <ele>598.08</ele>
        <time>2021-05-28T05:25:39Z</time>
      </trkpt>
      <trkpt lat="38.2621070556" lon="-5.4577832110">
        <ele>598.56</ele>
        <time>2021-05-28T05:25:48Z</time>
      </trkpt>
      <trkpt lat="38.2617521659" lon="-5.4591183644">
        <ele>601.92</ele>
        <time>2021-05-28T05:25:52Z</time>
      </trkpt>
      <trkpt lat="38.2614875492" lon="-5.4601209238">
        <ele>605.77</ele>
        <time>2021-05-28T05:25:55Z</time>
      </trkpt>
      <trkpt lat="38.2613081764" lon="-5.4607861117">
        <ele>610.09</ele>
        <time>2021-05-28T05:25:57Z</time>
      </trkpt>
      <trkpt lat="38.2611309830" lon="-5.4614457674">
        <ele>613.94</ele>
        <time>2021-05-28T05:25:59Z</time>
      </trkpt>
      <trkpt lat="38.2607817929" lon="-5.4627675936">
        <ele>616.82</ele>
        <time>2021-05-28T05:26:03Z</time>
      </trkpt>
      <trkpt lat="38.2606054377" lon="-5.4634368047">
        <ele>620.67</ele>
        <time>2021-05-28T05:26:05Z</time>
      </trkpt>
      <trkpt lat="38.2604257297" lon="-5.4641092848">
        <ele>623.55</ele>
        <time>2021-05-28T05:26:07Z</time>
      </trkpt>
      <trkpt lat="38.2602476142" lon="-5.4647844471">
        <ele>626.92</ele>
        <time>2021-05-28T05:26:09Z</time>
      </trkpt>
      <trkpt lat="38.2599830814" lon="-5.4657960590">
        <ele>629.80</ele>
        <time>2021-05-28T05:26:12Z</time>
      </trkpt>
      <trkpt lat="38.2597131841" lon="-5.4667991214">
        <ele>634.61</ele>
        <time>2021-05-28T05:26:15Z</time>
      </trkpt>
      <trkpt lat="38.2595328894" lon="-5.4674677458">
        <ele>637.97</ele>
        <time>2021-05-28T05:26:17Z</time>
      </trkpt>
      <trkpt lat="38.2592855394" lon="-5.4684674554">
        <ele>639.89</ele>
        <time>2021-05-28T05:26:20Z</time>
      </trkpt>
      <trkpt lat="38.2591474056" lon="-5.4691417795">
        <ele>643.26</ele>
        <time>2021-05-28T05:26:22Z</time>
      </trkpt>
      <trkpt lat="38.2589993812" lon="-5.4701768607">
        <ele>647.10</ele>
        <time>2021-05-28T05:26:25Z</time>
      </trkpt>
      <trkpt lat="38.2589880656" lon="-5.4728941899">
        <ele>649.99</ele>
        <time>2021-05-28T05:26:33Z</time>
      </trkpt>
      <trkpt lat="38.2591056637" lon="-5.4738799017">
        <ele>651.43</ele>
        <time>2021-05-28T05:26:36Z</time>
      </trkpt>
      <trkpt lat="38.2592206635" lon="-5.4745245539">
        <ele>652.39</ele>
        <time>2021-05-28T05:26:38Z</time>
      </trkpt>
      <trkpt lat="38.2597408444" lon="-5.4766515456">
        <ele>655.76</ele>
        <time>2021-05-28T05:26:45Z</time>
      </trkpt>
      <trkpt lat="38.2600541599" lon="-5.4778982699">
        <ele>657.68</ele>
        <time>2021-05-28T05:26:49Z</time>
      </trkpt>
      <trkpt lat="38.2603031024" lon="-5.4788720794">
        <ele>660.08</ele>
        <time>2021-05-28T05:26:52Z</time>
      </trkpt>
      <trkpt lat="38.2606444973" lon="-5.4802165367">
        <ele>663.93</ele>
        <time>2021-05-28T05:26:56Z</time>
      </trkpt>
      <trkpt lat="38.2614277024" lon="-5.4833156615">
        <ele>661.52</ele>
        <time>2021-05-28T05:27:05Z</time>
      </trkpt>
      <trkpt lat="38.2617783174" lon="-5.4847069737">
        <ele>658.16</ele>
        <time>2021-05-28T05:27:09Z</time>
      </trkpt>
      <trkpt lat="38.2624053676" lon="-5.4871703312">
        <ele>655.28</ele>
        <time>2021-05-28T05:27:16Z</time>
      </trkpt>
      <trkpt lat="38.2629437372" lon="-5.4893024359">
        <ele>651.91</ele>
        <time>2021-05-28T05:27:22Z</time>
      </trkpt>
      <trkpt lat="38.2633908279" lon="-5.4910770524">
        <ele>648.55</ele>
        <time>2021-05-28T05:27:27Z</time>
      </trkpt>
      <trkpt lat="38.2639289461" lon="-5.4932166170">
        <ele>645.18</ele>
        <time>2021-05-28T05:27:33Z</time>
      </trkpt>
      <trkpt lat="38.2640198059" lon="-5.4935731832">
        <ele>645.18</ele>
        <time>2021-05-28T05:27:34Z</time>
      </trkpt>
      <trkpt lat="38.2645633724" lon="-5.4957299307">
        <ele>641.82</ele>
        <time>2021-05-28T05:27:40Z</time>
      </trkpt>
      <trkpt lat="38.2649289072" lon="-5.4971702769">
        <ele>638.93</ele>
        <time>2021-05-28T05:27:44Z</time>
      </trkpt>
      <trkpt lat="38.2653850503" lon="-5.4989754874">
        <ele>636.53</ele>
        <time>2021-05-28T05:27:49Z</time>
      </trkpt>
      <trkpt lat="38.2657878008" lon="-5.5004070327">
        <ele>633.65</ele>
        <time>2021-05-28T05:27:53Z</time>
      </trkpt>
      <trkpt lat="38.2659101766" lon="-5.5007539596">
        <ele>633.65</ele>
        <time>2021-05-28T05:27:54Z</time>
      </trkpt>
      <trkpt lat="38.2663255837" lon="-5.5017534178">
        <ele>630.28</ele>
        <time>2021-05-28T05:27:57Z</time>
      </trkpt>
      <trkpt lat="38.2669764385" lon="-5.5029508565">
        <ele>628.84</ele>
        <time>2021-05-28T05:28:01Z</time>
      </trkpt>
      <trkpt lat="38.2676958572" lon="-5.5040302780">
        <ele>632.68</ele>
        <time>2021-05-28T05:28:05Z</time>
      </trkpt>
      <trkpt lat="38.2678790018" lon="-5.5042936374">
        <ele>632.20</ele>
        <time>2021-05-28T05:28:06Z</time>
      </trkpt>
      <trkpt lat="38.2695550472" lon="-5.5066926219">
        <ele>636.05</ele>
        <time>2021-05-28T05:28:15Z</time>
      </trkpt>
      <trkpt lat="38.2713131513" lon="-5.5091993976">
        <ele>638.93</ele>
        <time>2021-05-28T05:28:24Z</time>
      </trkpt>
      <trkpt lat="38.2743011322" lon="-5.5134686362">
        <ele>642.78</ele>
        <time>2021-05-28T05:28:39Z</time>
      </trkpt>
      <trkpt lat="38.2744986936" lon="-5.5137490109">
        <ele>642.30</ele>
        <time>2021-05-28T05:28:40Z</time>
      </trkpt>
      <trkpt lat="38.2764201611" lon="-5.5159720592">
        <ele>643.26</ele>
        <time>2021-05-28T05:28:49Z</time>
      </trkpt>
      <trkpt lat="38.2782227732" lon="-5.5171740241">
        <ele>642.30</ele>
        <time>2021-05-28T05:28:56Z</time>
      </trkpt>
      <trkpt lat="38.2796553243" lon="-5.5177879147">
        <ele>638.93</ele>
        <time>2021-05-28T05:29:01Z</time>
      </trkpt>
      <trkpt lat="38.2805120386" lon="-5.5181468278">
        <ele>635.57</ele>
        <time>2021-05-28T05:29:04Z</time>
      </trkpt>
      <trkpt lat="38.2816463616" lon="-5.5186199024">
        <ele>631.72</ele>
        <time>2021-05-28T05:29:08Z</time>
      </trkpt>
      <trkpt lat="38.2824958675" lon="-5.5189824197">
        <ele>628.36</ele>
        <time>2021-05-28T05:29:11Z</time>
      </trkpt>
      <trkpt lat="38.2836109959" lon="-5.5195430852">
        <ele>624.51</ele>
        <time>2021-05-28T05:29:15Z</time>
      </trkpt>
      <trkpt lat="38.2846689597" lon="-5.5202966183">
        <ele>621.63</ele>
        <time>2021-05-28T05:29:19Z</time>
      </trkpt>
      <trkpt lat="38.2854081597" lon="-5.5209815875">
        <ele>618.26</ele>
        <time>2021-05-28T05:29:22Z</time>
      </trkpt>
      <trkpt lat="38.2863046881" lon="-5.5220206082">
        <ele>615.38</ele>
        <time>2021-05-28T05:29:26Z</time>
      </trkpt>
      <trkpt lat="38.2870526891" lon="-5.5231669173">
        <ele>612.02</ele>
        <time>2021-05-28T05:29:30Z</time>
      </trkpt>
      <trkpt lat="38.2881656382" lon="-5.5256924685">
        <ele>612.02</ele>
        <time>2021-05-28T05:29:38Z</time>
      </trkpt>
      <trkpt lat="38.2887378708" lon="-5.5273909774">
        <ele>615.38</ele>
        <time>2021-05-28T05:29:43Z</time>
      </trkpt>
      <trkpt lat="38.2903565839" lon="-5.5321513116">
        <ele>618.75</ele>
        <time>2021-05-28T05:29:57Z</time>
      </trkpt>
      <trkpt lat="38.2904740982" lon="-5.5324968137">
        <ele>618.75</ele>
        <time>2021-05-28T05:29:58Z</time>
      </trkpt>
      <trkpt lat="38.2913088519" lon="-5.5349456705">
        <ele>614.42</ele>
        <time>2021-05-28T05:30:05Z</time>
      </trkpt>
      <trkpt lat="38.2916701958" lon="-5.5360068195">
        <ele>611.54</ele>
        <time>2021-05-28T05:30:08Z</time>
      </trkpt>
      <trkpt lat="38.2920321263" lon="-5.5370733328">
        <ele>608.17</ele>
        <time>2021-05-28T05:30:11Z</time>
      </trkpt>
      <trkpt lat="38.2923900336" lon="-5.5381302908">
        <ele>605.29</ele>
        <time>2021-05-28T05:30:14Z</time>
      </trkpt>
      <trkpt lat="38.2927457616" lon="-5.5391723290">
        <ele>600.96</ele>
        <time>2021-05-28T05:30:17Z</time>
      </trkpt>
      <trkpt lat="38.2928636111" lon="-5.5395176634">
        <ele>601.44</ele>
        <time>2021-05-28T05:30:18Z</time>
      </trkpt>
      <trkpt lat="38.2932144776" lon="-5.5405509006">
        <ele>598.08</ele>
        <time>2021-05-28T05:30:21Z</time>
      </trkpt>
      <trkpt lat="38.2936853729" lon="-5.5419252813">
        <ele>593.75</ele>
        <time>2021-05-28T05:30:25Z</time>
      </trkpt>
      <trkpt lat="38.2941534184" lon="-5.5433020089">
        <ele>590.39</ele>
        <time>2021-05-28T05:30:29Z</time>
      </trkpt>
      <trkpt lat="38.2946261577" lon="-5.5446982663">
        <ele>587.50</ele>
        <time>2021-05-28T05:30:33Z</time>
      </trkpt>
      <trkpt lat="38.2967847493" lon="-5.5510337278">
        <ele>588.95</ele>
        <time>2021-05-28T05:30:51Z</time>
      </trkpt>
      <trkpt lat="38.2974187564" lon="-5.5538131669">
        <ele>591.83</ele>
        <time>2021-05-28T05:30:59Z</time>
      </trkpt>
      <trkpt lat="38.2976803556" lon="-5.5556184612">
        <ele>594.23</ele>
        <time>2021-05-28T05:31:04Z</time>
      </trkpt>
      <trkpt lat="38.2977844588" lon="-5.5563499499">
        <ele>598.56</ele>
        <time>2021-05-28T05:31:06Z</time>
      </trkpt>
      <trkpt lat="38.2979942579" lon="-5.5578247458">
        <ele>601.92</ele>
        <time>2021-05-28T05:31:10Z</time>
      </trkpt>
      <trkpt lat="38.2982491516" lon="-5.5596370809">
        <ele>607.21</ele>
        <time>2021-05-28T05:31:15Z</time>
      </trkpt>
      <trkpt lat="38.2989595179" lon="-5.5635163933">
        <ele>609.61</ele>
        <time>2021-05-28T05:31:26Z</time>
      </trkpt>
      <trkpt lat="38.2994628511" lon="-5.5652346835">
        <ele>606.73</ele>
        <time>2021-05-28T05:31:31Z</time>
      </trkpt>
      <trkpt lat="38.2995881606" lon="-5.5655658524">
        <ele>606.25</ele>
        <time>2021-05-28T05:31:32Z</time>
      </trkpt>
      <trkpt lat="38.2999936771" lon="-5.5665404163">
        <ele>609.13</ele>
        <time>2021-05-28T05:31:35Z</time>
      </trkpt>
      <trkpt lat="38.3005447872" lon="-5.5678298883">
        <ele>604.81</ele>
        <time>2021-05-28T05:31:39Z</time>
      </trkpt>
      <trkpt lat="38.3006819990" lon="-5.5681494065">
        <ele>605.29</ele>
        <time>2021-05-28T05:31:40Z</time>
      </trkpt>
      <trkpt lat="38.3010908682" lon="-5.5691069551">
        <ele>603.36</ele>
        <time>2021-05-28T05:31:43Z</time>
      </trkpt>
      <trkpt lat="38.3015481010" lon="-5.5704268534">
        <ele>599.04</ele>
        <time>2021-05-28T05:31:47Z</time>
      </trkpt>
      <trkpt lat="38.3016810380" lon="-5.5711278319">
        <ele>596.15</ele>
        <time>2021-05-28T05:31:49Z</time>
      </trkpt>
      <trkpt lat="38.3017335925" lon="-5.5718383659">
        <ele>590.87</ele>
        <time>2021-05-28T05:31:51Z</time>
      </trkpt>
      <trkpt lat="38.3016340155" lon="-5.5732689053">
        <ele>587.98</ele>
        <time>2021-05-28T05:31:55Z</time>
      </trkpt>
      <trkpt lat="38.3015413955" lon="-5.5739824567">
        <ele>587.02</ele>
        <time>2021-05-28T05:31:57Z</time>
      </trkpt>
      <trkpt lat="38.3009840827" lon="-5.5783102009">
        <ele>591.35</ele>
        <time>2021-05-28T05:32:09Z</time>
      </trkpt>
      <trkpt lat="38.3008011896" lon="-5.5797486193">
        <ele>594.71</ele>
        <time>2021-05-28T05:32:13Z</time>
      </trkpt>
      <trkpt lat="38.3006270975" lon="-5.5811967608">
        <ele>596.15</ele>
        <time>2021-05-28T05:32:17Z</time>
      </trkpt>
      <trkpt lat="38.3001230936" lon="-5.5859253276">
        <ele>598.08</ele>
        <time>2021-05-28T05:32:30Z</time>
      </trkpt>
      <trkpt lat="38.2996521983" lon="-5.5904543214">
        <ele>595.67</ele>
        <time>2021-05-28T05:32:43Z</time>
      </trkpt>
      <trkpt lat="38.2995631825" lon="-5.5914671067">
        <ele>593.27</ele>
        <time>2021-05-28T05:32:46Z</time>
      </trkpt>
      <trkpt lat="38.2996605802" lon="-5.5938842800">
        <ele>592.79</ele>
        <time>2021-05-28T05:32:53Z</time>
      </trkpt>
      <trkpt lat="38.2998209260" lon="-5.5949152540">
        <ele>594.71</ele>
        <time>2021-05-28T05:32:56Z</time>
      </trkpt>
      <trkpt lat="38.3002515044" lon="-5.5976245366">
        <ele>590.87</ele>
        <time>2021-05-28T05:33:04Z</time>
      </trkpt>
      <trkpt lat="38.3005130198" lon="-5.5992749333">
        <ele>587.50</ele>
        <time>2021-05-28T05:33:09Z</time>
      </trkpt>
      <trkpt lat="38.3006708510" lon="-5.6002630759">
        <ele>585.58</ele>
        <time>2021-05-28T05:33:12Z</time>
      </trkpt>
      <trkpt lat="38.3009261638" lon="-5.6019091140">
        <ele>582.70</ele>
        <time>2021-05-28T05:33:17Z</time>
      </trkpt>
      <trkpt lat="38.3012350369" lon="-5.6038608402">
        <ele>579.33</ele>
        <time>2021-05-28T05:33:23Z</time>
      </trkpt>
      <trkpt lat="38.3012864180" lon="-5.6041860580">
        <ele>579.33</ele>
        <time>2021-05-28T05:33:24Z</time>
      </trkpt>
      <trkpt lat="38.3014951274" lon="-5.6054948084">
        <ele>575.97</ele>
        <time>2021-05-28T05:33:28Z</time>
      </trkpt>
      <trkpt lat="38.3015474305" lon="-5.6058263965">
        <ele>575.97</ele>
        <time>2021-05-28T05:33:29Z</time>
      </trkpt>
      <trkpt lat="38.3018620871" lon="-5.6078517158">
        <ele>575.01</ele>
        <time>2021-05-28T05:33:35Z</time>
      </trkpt>
      <trkpt lat="38.3021866344" lon="-5.6099061202">
        <ele>570.20</ele>
        <time>2021-05-28T05:33:41Z</time>
      </trkpt>
      <trkpt lat="38.3024608064" lon="-5.6118295155">
        <ele>567.32</ele>
        <time>2021-05-28T05:33:47Z</time>
      </trkpt>
      <trkpt lat="38.3023567870" lon="-5.6140125822">
        <ele>565.87</ele>
        <time>2021-05-28T05:33:54Z</time>
      </trkpt>
      <trkpt lat="38.3016245440" lon="-5.6161615346">
        <ele>567.80</ele>
        <time>2021-05-28T05:34:01Z</time>
      </trkpt>
      <trkpt lat="38.3014982287" lon="-5.6164747663">
        <ele>567.80</ele>
        <time>2021-05-28T05:34:02Z</time>
      </trkpt>
      <trkpt lat="38.3011180256" lon="-5.6174279563">
        <ele>572.12</ele>
        <time>2021-05-28T05:34:05Z</time>
      </trkpt>
      <trkpt lat="38.3008634672" lon="-5.6180725247">
        <ele>575.49</ele>
        <time>2021-05-28T05:34:07Z</time>
      </trkpt>
      <trkpt lat="38.3003968466" lon="-5.6193519384">
        <ele>579.33</ele>
        <time>2021-05-28T05:34:11Z</time>
      </trkpt>
      <trkpt lat="38.3001773246" lon="-5.6203346327">
        <ele>581.73</ele>
        <time>2021-05-28T05:34:14Z</time>
      </trkpt>
      <trkpt lat="38.2998283859" lon="-5.6230986491">
        <ele>581.73</ele>
        <time>2021-05-28T05:34:22Z</time>
      </trkpt>
      <trkpt lat="38.2989322767" lon="-5.6257916708">
        <ele>585.58</ele>
        <time>2021-05-28T05:34:30Z</time>
      </trkpt>
      <trkpt lat="38.2985819131" lon="-5.6268011872">
        <ele>588.46</ele>
        <time>2021-05-28T05:34:33Z</time>
      </trkpt>
      <trkpt lat="38.2978959382" lon="-5.6294530537">
        <ele>587.02</ele>
        <time>2021-05-28T05:34:41Z</time>
      </trkpt>
      <trkpt lat="38.2978740614" lon="-5.6298001483">
        <ele>587.02</ele>
        <time>2021-05-28T05:34:42Z</time>
      </trkpt>
      <trkpt lat="38.2979214191" lon="-5.6318761781">
        <ele>582.70</ele>
        <time>2021-05-28T05:34:48Z</time>
      </trkpt>
      <trkpt lat="38.2980426215" lon="-5.6349296216">
        <ele>586.06</ele>
        <time>2021-05-28T05:34:57Z</time>
      </trkpt>
      <trkpt lat="38.2979004644" lon="-5.6375669874">
        <ele>588.95</ele>
        <time>2021-05-28T05:35:05Z</time>
      </trkpt>
      <trkpt lat="38.2976933476" lon="-5.6385630928">
        <ele>585.58</ele>
        <time>2021-05-28T05:35:08Z</time>
      </trkpt>
      <trkpt lat="38.2971979771" lon="-5.6409153901">
        <ele>581.73</ele>
        <time>2021-05-28T05:35:15Z</time>
      </trkpt>
      <trkpt lat="38.2971274853" lon="-5.6412600540">
        <ele>581.25</ele>
        <time>2021-05-28T05:35:16Z</time>
      </trkpt>
      <trkpt lat="38.2969137467" lon="-5.6423110608">
        <ele>578.37</ele>
        <time>2021-05-28T05:35:19Z</time>
      </trkpt>
      <trkpt lat="38.2967663091" lon="-5.6430196669">
        <ele>575.01</ele>
        <time>2021-05-28T05:35:21Z</time>
      </trkpt>
      <trkpt lat="38.2964621298" lon="-5.6444445066">
        <ele>571.64</ele>
        <time>2021-05-28T05:35:25Z</time>
      </trkpt>
      <trkpt lat="38.2963156980" lon="-5.6451523583">
        <ele>570.68</ele>
        <time>2021-05-28T05:35:27Z</time>
      </trkpt>
      <trkpt lat="38.2959523425" lon="-5.6469218619">
        <ele>566.83</ele>
        <time>2021-05-28T05:35:32Z</time>
      </trkpt>
      <trkpt lat="38.2956591435" lon="-5.6483512279">
        <ele>563.47</ele>
        <time>2021-05-28T05:35:36Z</time>
      </trkpt>
      <trkpt lat="38.2954359334" lon="-5.6493646838">
        <ele>559.14</ele>
        <time>2021-05-28T05:35:39Z</time>
      </trkpt>
      <trkpt lat="38.2947011758" lon="-5.6511178426">
        <ele>558.66</ele>
        <time>2021-05-28T05:35:45Z</time>
      </trkpt>
      <trkpt lat="38.2943604514" lon="-5.6515976228">
        <ele>559.62</ele>
        <time>2021-05-28T05:35:47Z</time>
      </trkpt>
      <trkpt lat="38.2936133724" lon="-5.6525073946">
        <ele>560.59</ele>
        <time>2021-05-28T05:35:51Z</time>
      </trkpt>
      <trkpt lat="38.2928430755" lon="-5.6533742510">
        <ele>563.95</ele>
        <time>2021-05-28T05:35:55Z</time>
      </trkpt>
      <trkpt lat="38.2921885327" lon="-5.6538989581">
        <ele>567.32</ele>
        <time>2021-05-28T05:35:58Z</time>
      </trkpt>
      <trkpt lat="38.2914801780" lon="-5.6543490663">
        <ele>571.64</ele>
        <time>2021-05-28T05:36:01Z</time>
      </trkpt>
      <trkpt lat="38.2907484379" lon="-5.6547823269">
        <ele>575.01</ele>
        <time>2021-05-28T05:36:04Z</time>
      </trkpt>
      <trkpt lat="38.2888943609" lon="-5.6561584678">
        <ele>574.53</ele>
        <time>2021-05-28T05:36:12Z</time>
      </trkpt>
      <trkpt lat="38.2877348084" lon="-5.6571721751">
        <ele>571.16</ele>
        <time>2021-05-28T05:36:17Z</time>
      </trkpt>
      <trkpt lat="38.2870143838" lon="-5.6577995606">
        <ele>567.32</ele>
        <time>2021-05-28T05:36:20Z</time>
      </trkpt>
      <trkpt lat="38.2867730688" lon="-5.6580099463">
        <ele>567.32</ele>
        <time>2021-05-28T05:36:21Z</time>
      </trkpt>
      <trkpt lat="38.2860647142" lon="-5.6586322188">
        <ele>563.47</ele>
        <time>2021-05-28T05:36:24Z</time>
      </trkpt>
      <trkpt lat="38.2858353853" lon="-5.6588328816">
        <ele>563.95</ele>
        <time>2021-05-28T05:36:25Z</time>
      </trkpt>
      <trkpt lat="38.2844596636" lon="-5.6598716509">
        <ele>560.11</ele>
        <time>2021-05-28T05:36:31Z</time>
      </trkpt>
      <trkpt lat="38.2834270969" lon="-5.6603019778">
        <ele>556.74</ele>
        <time>2021-05-28T05:36:35Z</time>
      </trkpt>
      <trkpt lat="38.2828904036" lon="-5.6604920793">
        <ele>555.30</ele>
        <time>2021-05-28T05:36:37Z</time>
      </trkpt>
      <trkpt lat="38.2818284165" lon="-5.6609198079">
        <ele>551.93</ele>
        <time>2021-05-28T05:36:41Z</time>
      </trkpt>
      <trkpt lat="38.2810316328" lon="-5.6612731889">
        <ele>548.57</ele>
        <time>2021-05-28T05:36:44Z</time>
      </trkpt>
      <trkpt lat="38.2807650045" lon="-5.6613931339">
        <ele>548.09</ele>
        <time>2021-05-28T05:36:45Z</time>
      </trkpt>
      <trkpt lat="38.2799760997" lon="-5.6617540587">
        <ele>542.32</ele>
        <time>2021-05-28T05:36:48Z</time>
      </trkpt>
      <trkpt lat="38.2783283014" lon="-5.6628832687">
        <ele>541.84</ele>
        <time>2021-05-28T05:36:55Z</time>
      </trkpt>
      <trkpt lat="38.2777734194" lon="-5.6636224687">
        <ele>546.17</ele>
        <time>2021-05-28T05:36:58Z</time>
      </trkpt>
      <trkpt lat="38.2776142471" lon="-5.6638973951">
        <ele>550.01</ele>
        <time>2021-05-28T05:36:59Z</time>
      </trkpt>
      <trkpt lat="38.2772333734" lon="-5.6647902355">
        <ele>553.86</ele>
        <time>2021-05-28T05:37:02Z</time>
      </trkpt>
      <trkpt lat="38.2770010270" lon="-5.6657552440">
        <ele>558.18</ele>
        <time>2021-05-28T05:37:05Z</time>
      </trkpt>
      <trkpt lat="38.2768172119" lon="-5.6671102624">
        <ele>562.51</ele>
        <time>2021-05-28T05:37:09Z</time>
      </trkpt>
      <trkpt lat="38.2766851969" lon="-5.6684901752">
        <ele>566.83</ele>
        <time>2021-05-28T05:37:13Z</time>
      </trkpt>
      <trkpt lat="38.2766442094" lon="-5.6695237476">
        <ele>570.20</ele>
        <time>2021-05-28T05:37:16Z</time>
      </trkpt>
      <trkpt lat="38.2766365819" lon="-5.6708933506">
        <ele>574.04</ele>
        <time>2021-05-28T05:37:20Z</time>
      </trkpt>
      <trkpt lat="38.2766124420" lon="-5.6744540669">
        <ele>572.60</ele>
        <time>2021-05-28T05:37:31Z</time>
      </trkpt>
      <trkpt lat="38.2766049821" lon="-5.6753282994">
        <ele>569.24</ele>
        <time>2021-05-28T05:37:34Z</time>
      </trkpt>
      <trkpt lat="38.2764200773" lon="-5.6773854699">
        <ele>567.80</ele>
        <time>2021-05-28T05:37:42Z</time>
      </trkpt>
      <trkpt lat="38.2758946158" lon="-5.6788461842">
        <ele>571.16</ele>
        <time>2021-05-28T05:37:48Z</time>
      </trkpt>
      <trkpt lat="38.2753292564" lon="-5.6797624938">
        <ele>574.53</ele>
        <time>2021-05-28T05:37:52Z</time>
      </trkpt>
      <trkpt lat="38.2749954052" lon="-5.6802021246">
        <ele>578.37</ele>
        <time>2021-05-28T05:37:54Z</time>
      </trkpt>
      <trkpt lat="38.2748242468" lon="-5.6804253347">
        <ele>578.37</ele>
        <time>2021-05-28T05:37:55Z</time>
      </trkpt>
      <trkpt lat="38.2717976253" lon="-5.6843882985">
        <ele>578.85</ele>
        <time>2021-05-28T05:38:13Z</time>
      </trkpt>
      <trkpt lat="38.2705909666" lon="-5.6859814469">
        <ele>576.93</ele>
        <time>2021-05-28T05:38:21Z</time>
      </trkpt>
      <trkpt lat="38.2692514546" lon="-5.6877319235">
        <ele>580.29</ele>
        <time>2021-05-28T05:38:30Z</time>
      </trkpt>
      <trkpt lat="38.2689277455" lon="-5.6881351769">
        <ele>580.77</ele>
        <time>2021-05-28T05:38:32Z</time>
      </trkpt>
      <trkpt lat="38.2681061514" lon="-5.6892040372">
        <ele>584.14</ele>
        <time>2021-05-28T05:38:37Z</time>
      </trkpt>
      <trkpt lat="38.2677756529" lon="-5.6896404829">
        <ele>585.10</ele>
        <time>2021-05-28T05:38:39Z</time>
      </trkpt>
      <trkpt lat="38.2667656336" lon="-5.6909597944">
        <ele>587.50</ele>
        <time>2021-05-28T05:38:45Z</time>
      </trkpt>
      <trkpt lat="38.2631862257" lon="-5.6956347171">
        <ele>587.98</ele>
        <time>2021-05-28T05:39:06Z</time>
      </trkpt>
      <trkpt lat="38.2617136091" lon="-5.6976415124">
        <ele>584.62</ele>
        <time>2021-05-28T05:39:16Z</time>
      </trkpt>
      <trkpt lat="38.2609327510" lon="-5.6991486624">
        <ele>584.14</ele>
        <time>2021-05-28T05:39:24Z</time>
      </trkpt>
      <trkpt lat="38.2606049348" lon="-5.7008180022">
        <ele>586.54</ele>
        <time>2021-05-28T05:39:32Z</time>
      </trkpt>
      <trkpt lat="38.2605004963" lon="-5.7018602919">
        <ele>589.91</ele>
        <time>2021-05-28T05:39:37Z</time>
      </trkpt>
      <trkpt lat="38.2604466006" lon="-5.7023585122">
        <ele>593.75</ele>
        <time>2021-05-28T05:39:39Z</time>
      </trkpt>
      <trkpt lat="38.2603813894" lon="-5.7029175013">
        <ele>597.12</ele>
        <time>2021-05-28T05:39:41Z</time>
      </trkpt>
      <trkpt lat="38.2603096403" lon="-5.7035184838">
        <ele>598.08</ele>
        <time>2021-05-28T05:39:43Z</time>
      </trkpt>
      <trkpt lat="38.2601994183" lon="-5.7044478692">
        <ele>601.44</ele>
        <time>2021-05-28T05:39:46Z</time>
      </trkpt>
      <trkpt lat="38.2601609454" lon="-5.7047628611">
        <ele>601.44</ele>
        <time>2021-05-28T05:39:47Z</time>
      </trkpt>
      <trkpt lat="38.2597866096" lon="-5.7079681847">
        <ele>605.29</ele>
        <time>2021-05-28T05:39:57Z</time>
      </trkpt>
      <trkpt lat="38.2596794888" lon="-5.7089308463">
        <ele>602.40</ele>
        <time>2021-05-28T05:40:00Z</time>
      </trkpt>
      <trkpt lat="38.2593323104" lon="-5.7119075954">
        <ele>605.77</ele>
        <time>2021-05-28T05:40:09Z</time>
      </trkpt>
      <trkpt lat="38.2592922449" lon="-5.7122399379">
        <ele>605.77</ele>
        <time>2021-05-28T05:40:10Z</time>
      </trkpt>
      <trkpt lat="38.2589340024" lon="-5.7153367996">
        <ele>602.88</ele>
        <time>2021-05-28T05:40:20Z</time>
      </trkpt>
      <trkpt lat="38.2589736488" lon="-5.7172606140">
        <ele>601.44</ele>
        <time>2021-05-28T05:40:27Z</time>
      </trkpt>
      <trkpt lat="38.2596360706" lon="-5.7201697212">
        <ele>603.36</ele>
        <time>2021-05-28T05:40:38Z</time>
      </trkpt>
      <trkpt lat="38.2602549065" lon="-5.7227976155">
        <ele>601.44</ele>
        <time>2021-05-28T05:40:48Z</time>
      </trkpt>
      <trkpt lat="38.2605503686" lon="-5.7240702398">
        <ele>603.36</ele>
        <time>2021-05-28T05:40:53Z</time>
      </trkpt>
      <trkpt lat="38.2608074415" lon="-5.7251939178">
        <ele>607.69</ele>
        <time>2021-05-28T05:40:57Z</time>
      </trkpt>
      <trkpt lat="38.2608748320" lon="-5.7255069818">
        <ele>608.17</ele>
        <time>2021-05-28T05:40:58Z</time>
      </trkpt>
      <trkpt lat="38.2610217668" lon="-5.7261607703">
        <ele>612.98</ele>
        <time>2021-05-28T05:41:00Z</time>
      </trkpt>
      <trkpt lat="38.2611010596" lon="-5.7264948729">
        <ele>611.54</ele>
        <time>2021-05-28T05:41:01Z</time>
      </trkpt>
      <trkpt lat="38.2611833699" lon="-5.7268298138">
        <ele>605.77</ele>
        <time>2021-05-28T05:41:02Z</time>
      </trkpt>
      <trkpt lat="38.2612650096" lon="-5.7271578815">
        <ele>607.69</ele>
        <time>2021-05-28T05:41:03Z</time>
      </trkpt>
      <trkpt lat="38.2622738555" lon="-5.7314666826">
        <ele>609.61</ele>
        <time>2021-05-28T05:41:16Z</time>
      </trkpt>
      <trkpt lat="38.2638406847" lon="-5.7382010389">
        <ele>609.61</ele>
        <time>2021-05-28T05:41:36Z</time>
      </trkpt>
      <trkpt lat="38.2643779647" lon="-5.7417091168">
        <ele>611.06</ele>
        <time>2021-05-28T05:41:46Z</time>
      </trkpt>
      <trkpt lat="38.2645005081" lon="-5.7435263973">
        <ele>609.13</ele>
        <time>2021-05-28T05:41:51Z</time>
      </trkpt>
      <trkpt lat="38.2646195311" lon="-5.7452995051">
        <ele>605.29</ele>
        <time>2021-05-28T05:41:56Z</time>
      </trkpt>
      <trkpt lat="38.2647115644" lon="-5.7467147894">
        <ele>601.44</ele>
        <time>2021-05-28T05:42:00Z</time>
      </trkpt>
      <trkpt lat="38.2648569904" lon="-5.7488665078">
        <ele>600.00</ele>
        <time>2021-05-28T05:42:06Z</time>
      </trkpt>
      <trkpt lat="38.2649038453" lon="-5.7495747786">
        <ele>602.40</ele>
        <time>2021-05-28T05:42:08Z</time>
      </trkpt>
      <trkpt lat="38.2650362793" lon="-5.7516646385">
        <ele>606.73</ele>
        <time>2021-05-28T05:42:14Z</time>
      </trkpt>
      <trkpt lat="38.2655117847" lon="-5.7587257214">
        <ele>607.21</ele>
        <time>2021-05-28T05:42:34Z</time>
      </trkpt>
      <trkpt lat="38.2658131141" lon="-5.7612644322">
        <ele>606.25</ele>
        <time>2021-05-28T05:42:42Z</time>
      </trkpt>
      <trkpt lat="38.2663908787" lon="-5.7636894006">
        <ele>606.25</ele>
        <time>2021-05-28T05:42:50Z</time>
      </trkpt>
      <trkpt lat="38.2664099056" lon="-5.7653366961">
        <ele>609.61</ele>
        <time>2021-05-28T05:42:55Z</time>
      </trkpt>
      <trkpt lat="38.2664441876" lon="-5.7714120671">
        <ele>610.09</ele>
        <time>2021-05-28T05:43:12Z</time>
      </trkpt>
      <trkpt lat="38.2664654776" lon="-5.7753174473">
        <ele>612.02</ele>
        <time>2021-05-28T05:43:23Z</time>
      </trkpt>
      <trkpt lat="38.2664827444" lon="-5.7774140965">
        <ele>615.38</ele>
        <time>2021-05-28T05:43:29Z</time>
      </trkpt>
      <trkpt lat="38.2664832473" lon="-5.7777699083">
        <ele>611.54</ele>
        <time>2021-05-28T05:43:30Z</time>
      </trkpt>
      <trkpt lat="38.2664824091" lon="-5.7781246305">
        <ele>612.02</ele>
        <time>2021-05-28T05:43:31Z</time>
      </trkpt>
      <trkpt lat="38.2664981671" lon="-5.7802297454">
        <ele>608.65</ele>
        <time>2021-05-28T05:43:37Z</time>
      </trkpt>
      <trkpt lat="38.2668217085" lon="-5.7825976331">
        <ele>607.69</ele>
        <time>2021-05-28T05:43:44Z</time>
      </trkpt>
      <trkpt lat="38.2671154104" lon="-5.7839472871">
        <ele>603.85</ele>
        <time>2021-05-28T05:43:48Z</time>
      </trkpt>
      <trkpt lat="38.2673315797" lon="-5.7849599887">
        <ele>600.48</ele>
        <time>2021-05-28T05:43:51Z</time>
      </trkpt>
      <trkpt lat="38.2674039155" lon="-5.7852963544">
        <ele>600.48</ele>
        <time>2021-05-28T05:43:52Z</time>
      </trkpt>
      <trkpt lat="38.2679116074" lon="-5.7876370009">
        <ele>595.67</ele>
        <time>2021-05-28T05:43:59Z</time>
      </trkpt>
      <trkpt lat="38.2682866137" lon="-5.7888946217">
        <ele>592.31</ele>
        <time>2021-05-28T05:44:03Z</time>
      </trkpt>
      <trkpt lat="38.2698562928" lon="-5.7925945614">
        <ele>589.43</ele>
        <time>2021-05-28T05:44:15Z</time>
      </trkpt>
      <trkpt lat="38.2705016993" lon="-5.7941941638">
        <ele>586.06</ele>
        <time>2021-05-28T05:44:20Z</time>
      </trkpt>
      <trkpt lat="38.2706169505" lon="-5.7945216447">
        <ele>585.58</ele>
        <time>2021-05-28T05:44:21Z</time>
      </trkpt>
      <trkpt lat="38.2714299951" lon="-5.7975997310">
        <ele>582.70</ele>
        <time>2021-05-28T05:44:30Z</time>
      </trkpt>
      <trkpt lat="38.2716765068" lon="-5.7986540068">
        <ele>580.77</ele>
        <time>2021-05-28T05:44:33Z</time>
      </trkpt>
      <trkpt lat="38.2728130091" lon="-5.8036399819">
        <ele>576.45</ele>
        <time>2021-05-28T05:44:48Z</time>
      </trkpt>
      <trkpt lat="38.2728477940" lon="-5.8039533813">
        <ele>576.93</ele>
        <time>2021-05-28T05:44:49Z</time>
      </trkpt>
      <trkpt lat="38.2727710996" lon="-5.8059098013">
        <ele>575.49</ele>
        <time>2021-05-28T05:44:55Z</time>
      </trkpt>
      <trkpt lat="38.2725291140" lon="-5.8085953631">
        <ele>571.64</ele>
        <time>2021-05-28T05:45:03Z</time>
      </trkpt>
      <trkpt lat="38.2724978495" lon="-5.8089276217">
        <ele>571.64</ele>
        <time>2021-05-28T05:45:04Z</time>
      </trkpt>
      <trkpt lat="38.2724423613" lon="-5.8095939830">
        <ele>568.76</ele>
        <time>2021-05-28T05:45:06Z</time>
      </trkpt>
      <trkpt lat="38.2723888010" lon="-5.8102620207">
        <ele>567.32</ele>
        <time>2021-05-28T05:45:08Z</time>
      </trkpt>
      <trkpt lat="38.2723509986" lon="-5.8109045774">
        <ele>563.47</ele>
        <time>2021-05-28T05:45:10Z</time>
      </trkpt>
      <trkpt lat="38.2723554410" lon="-5.8114897180">
        <ele>559.62</ele>
        <time>2021-05-28T05:45:12Z</time>
      </trkpt>
      <trkpt lat="38.2724146172" lon="-5.8120435104">
        <ele>559.14</ele>
        <time>2021-05-28T05:45:14Z</time>
      </trkpt>
      <trkpt lat="38.2729027793" lon="-5.8138504811">
        <ele>555.78</ele>
        <time>2021-05-28T05:45:21Z</time>
      </trkpt>
      <trkpt lat="38.2739150617" lon="-5.8170475904">
        <ele>555.30</ele>
        <time>2021-05-28T05:45:34Z</time>
      </trkpt>
      <trkpt lat="38.2745903917" lon="-5.8191783540">
        <ele>551.45</ele>
        <time>2021-05-28T05:45:44Z</time>
      </trkpt>
      <trkpt lat="38.2747977600" lon="-5.8198236767">
        <ele>548.57</ele>
        <time>2021-05-28T05:45:48Z</time>
      </trkpt>
      <trkpt lat="38.2748872787" lon="-5.8200530894">
        <ele>546.65</ele>
        <time>2021-05-28T05:45:50Z</time>
      </trkpt>
      <trkpt lat="38.2749443594" lon="-5.8201417699">
        <ele>546.17</ele>
        <time>2021-05-28T05:45:51Z</time>
      </trkpt>
      <trkpt lat="38.2750101574" lon="-5.8202085737">
        <ele>545.69</ele>
        <time>2021-05-28T05:45:52Z</time>
      </trkpt>
      <trkpt lat="38.2750825770" lon="-5.8202440292">
        <ele>544.72</ele>
        <time>2021-05-28T05:45:53Z</time>
      </trkpt>
      <trkpt lat="38.2751550805" lon="-5.8202524111">
        <ele>545.20</ele>
        <time>2021-05-28T05:45:54Z</time>
      </trkpt>
      <trkpt lat="38.2752202917" lon="-5.8202332165">
        <ele>544.24</ele>
        <time>2021-05-28T05:45:55Z</time>
      </trkpt>
      <trkpt lat="38.2752752770" lon="-5.8201934025">
        <ele>543.76</ele>
        <time>2021-05-28T05:45:56Z</time>
      </trkpt>
      <trkpt lat="38.2753200363" lon="-5.8201472182">
        <ele>543.28</ele>
        <time>2021-05-28T05:45:57Z</time>
      </trkpt>
      <trkpt lat="38.2753572520" lon="-5.8200940769">
        <ele>542.80</ele>
        <time>2021-05-28T05:45:58Z</time>
      </trkpt>
      <trkpt lat="38.2753929589" lon="-5.8200427797">
        <ele>543.28</ele>
        <time>2021-05-28T05:45:59Z</time>
      </trkpt>
      <trkpt lat="38.2754309289" lon="-5.8200048096">
        <ele>542.80</ele>
        <time>2021-05-28T05:46:00Z</time>
      </trkpt>
      <trkpt lat="38.2754676417" lon="-5.8199913148">
        <ele>542.80</ele>
        <time>2021-05-28T05:46:01Z</time>
      </trkpt>
      <trkpt lat="38.2755009178" lon="-5.8200003672">
        <ele>541.84</ele>
        <time>2021-05-28T05:46:02Z</time>
      </trkpt>
      <trkpt lat="38.2755290810" lon="-5.8200271055">
        <ele>543.28</ele>
        <time>2021-05-28T05:46:03Z</time>
      </trkpt>
      <trkpt lat="38.2755509578" lon="-5.8200598788">
        <ele>543.28</ele>
        <time>2021-05-28T05:46:04Z</time>
      </trkpt>
      <trkpt lat="38.2755631953" lon="-5.8200878743">
        <ele>542.80</ele>
        <time>2021-05-28T05:46:05Z</time>
      </trkpt>
      <trkpt lat="38.2755656261" lon="-5.8201089129">
        <ele>542.80</ele>
        <time>2021-05-28T05:46:16Z</time>
      </trkpt>
      <trkpt lat="38.2755733375" lon="-5.8201135229">
        <ele>542.80</ele>
        <time>2021-05-28T05:46:46Z</time>
      </trkpt>
      <trkpt lat="38.2755555678" lon="-5.8201260120">
        <ele>542.80</ele>
        <time>2021-05-28T05:47:23Z</time>
      </trkpt>
      <trkpt lat="38.2755160052" lon="-5.8201434463">
        <ele>542.80</ele>
        <time>2021-05-28T05:47:54Z</time>
      </trkpt>
      <trkpt lat="38.2755220402" lon="-5.8201364893">
        <ele>543.76</ele>
        <time>2021-05-28T05:48:25Z</time>
      </trkpt>
      <trkpt lat="38.2755325176" lon="-5.8201282751">
        <ele>544.24</ele>
        <time>2021-05-28T05:48:54Z</time>
      </trkpt>
      <trkpt lat="38.2755605970" lon="-5.8201074880">
        <ele>543.76</ele>
        <time>2021-05-28T05:49:20Z</time>
      </trkpt>
      <trkpt lat="38.2755805459" lon="-5.8201225754">
        <ele>544.24</ele>
        <time>2021-05-28T05:49:31Z</time>
      </trkpt>
      <trkpt lat="38.2755974773" lon="-5.8201606292">
        <ele>544.72</ele>
        <time>2021-05-28T05:49:32Z</time>
      </trkpt>
      <trkpt lat="38.2758669555" lon="-5.8206820674">
        <ele>546.65</ele>
        <time>2021-05-28T05:49:38Z</time>
      </trkpt>
      <trkpt lat="38.2764948439" lon="-5.8219876327">
        <ele>548.57</ele>
        <time>2021-05-28T05:49:47Z</time>
      </trkpt>
      <trkpt lat="38.2766596321" lon="-5.8225634694">
        <ele>547.13</ele>
        <time>2021-05-28T05:49:51Z</time>
      </trkpt>
      <trkpt lat="38.2767018769" lon="-5.8228121605">
        <ele>545.69</ele>
        <time>2021-05-28T05:49:53Z</time>
      </trkpt>
      <trkpt lat="38.2767215744" lon="-5.8229923714">
        <ele>544.72</ele>
        <time>2021-05-28T05:49:55Z</time>
      </trkpt>
      <trkpt lat="38.2768058963" lon="-5.8236658573">
        <ele>548.57</ele>
        <time>2021-05-28T05:50:01Z</time>
      </trkpt>
      <trkpt lat="38.2768808305" lon="-5.8242741320">
        <ele>551.45</ele>
        <time>2021-05-28T05:50:05Z</time>
      </trkpt>
      <trkpt lat="38.2769228239" lon="-5.8246018644">
        <ele>552.41</ele>
        <time>2021-05-28T05:50:07Z</time>
      </trkpt>
      <trkpt lat="38.2770716026" lon="-5.8256772626">
        <ele>552.41</ele>
        <time>2021-05-28T05:50:14Z</time>
      </trkpt>
      <trkpt lat="38.2772140112" lon="-5.8267871104">
        <ele>553.38</ele>
        <time>2021-05-28T05:50:22Z</time>
      </trkpt>
      <trkpt lat="38.2773182821" lon="-5.8276045136">
        <ele>552.90</ele>
        <time>2021-05-28T05:50:28Z</time>
      </trkpt>
      <trkpt lat="38.2773117442" lon="-5.8277222794">
        <ele>552.41</ele>
        <time>2021-05-28T05:50:29Z</time>
      </trkpt>
      <trkpt lat="38.2772905380" lon="-5.8278308250">
        <ele>552.41</ele>
        <time>2021-05-28T05:50:30Z</time>
      </trkpt>
      <trkpt lat="38.2772591058" lon="-5.8279318269">
        <ele>552.41</ele>
        <time>2021-05-28T05:50:31Z</time>
      </trkpt>
      <trkpt lat="38.2772177830" lon="-5.8280309848">
        <ele>552.41</ele>
        <time>2021-05-28T05:50:32Z</time>
      </trkpt>
      <trkpt lat="38.2771654800" lon="-5.8281334955">
        <ele>552.90</ele>
        <time>2021-05-28T05:50:33Z</time>
      </trkpt>
      <trkpt lat="38.2771009393" lon="-5.8282390237">
        <ele>552.90</ele>
        <time>2021-05-28T05:50:34Z</time>
      </trkpt>
      <trkpt lat="38.2768825907" lon="-5.8285609726">
        <ele>554.34</ele>
        <time>2021-05-28T05:50:37Z</time>
      </trkpt>
      <trkpt lat="38.2764935866" lon="-5.8290913794">
        <ele>554.34</ele>
        <time>2021-05-28T05:50:43Z</time>
      </trkpt>
      <trkpt lat="38.2764650881" lon="-5.8291519806">
        <ele>553.86</ele>
        <time>2021-05-28T05:50:44Z</time>
      </trkpt>
      <trkpt lat="38.2764443848" lon="-5.8292062953">
        <ele>553.38</ele>
        <time>2021-05-28T05:50:45Z</time>
      </trkpt>
      <trkpt lat="38.2764303870" lon="-5.8292622864">
        <ele>553.86</ele>
        <time>2021-05-28T05:50:46Z</time>
      </trkpt>
      <trkpt lat="38.2764163893" lon="-5.8293276653">
        <ele>554.82</ele>
        <time>2021-05-28T05:50:47Z</time>
      </trkpt>
      <trkpt lat="38.2763946801" lon="-5.8293930441">
        <ele>554.34</ele>
        <time>2021-05-28T05:50:48Z</time>
      </trkpt>
      <trkpt lat="38.2763586380" lon="-5.8294518851">
        <ele>554.82</ele>
        <time>2021-05-28T05:50:49Z</time>
      </trkpt>
      <trkpt lat="38.2763077598" lon="-5.8294989914">
        <ele>554.82</ele>
        <time>2021-05-28T05:50:50Z</time>
      </trkpt>
      <trkpt lat="38.2762445603" lon="-5.8295355365">
        <ele>555.30</ele>
        <time>2021-05-28T05:50:51Z</time>
      </trkpt>
      <trkpt lat="38.2761713862" lon="-5.8295822237">
        <ele>555.78</ele>
        <time>2021-05-28T05:50:52Z</time>
      </trkpt>
      <trkpt lat="38.2761013135" lon="-5.8296455909">
        <ele>556.26</ele>
        <time>2021-05-28T05:50:53Z</time>
      </trkpt>
      <trkpt lat="38.2760355994" lon="-5.8297265600">
        <ele>557.22</ele>
        <time>2021-05-28T05:50:54Z</time>
      </trkpt>
      <trkpt lat="38.2759650238" lon="-5.8298268914">
        <ele>558.18</ele>
        <time>2021-05-28T05:50:55Z</time>
      </trkpt>
      <trkpt lat="38.2756117266" lon="-5.8303187415">
        <ele>560.11</ele>
        <time>2021-05-28T05:50:59Z</time>
      </trkpt>
      <trkpt lat="38.2751120813" lon="-5.8309728652">
        <ele>562.99</ele>
        <time>2021-05-28T05:51:04Z</time>
      </trkpt>
      <trkpt lat="38.2747659925" lon="-5.8313985821">
        <ele>564.43</ele>
        <time>2021-05-28T05:51:07Z</time>
      </trkpt>
      <trkpt lat="38.2735377084" lon="-5.8330472186">
        <ele>567.80</ele>
        <time>2021-05-28T05:51:18Z</time>
      </trkpt>
      <trkpt lat="38.2730667293" lon="-5.8336505480">
        <ele>571.64</ele>
        <time>2021-05-28T05:51:22Z</time>
      </trkpt>
      <trkpt lat="38.2722134516" lon="-5.8346794266">
        <ele>575.01</ele>
        <time>2021-05-28T05:51:28Z</time>
      </trkpt>
      <trkpt lat="38.2719027344" lon="-5.8350612223">
        <ele>575.97</ele>
        <time>2021-05-28T05:51:30Z</time>
      </trkpt>
      <trkpt lat="38.2712490298" lon="-5.8358815592">
        <ele>579.33</ele>
        <time>2021-05-28T05:51:34Z</time>
      </trkpt>
      <trkpt lat="38.2706045453" lon="-5.8366938494">
        <ele>583.18</ele>
        <time>2021-05-28T05:51:38Z</time>
      </trkpt>
      <trkpt lat="38.2701036427" lon="-5.8373274375">
        <ele>584.62</ele>
        <time>2021-05-28T05:51:41Z</time>
      </trkpt>
      <trkpt lat="38.2691926975" lon="-5.8390368428">
        <ele>586.06</ele>
        <time>2021-05-28T05:51:48Z</time>
      </trkpt>
      <trkpt lat="38.2687712554" lon="-5.8405188471">
        <ele>587.98</ele>
        <time>2021-05-28T05:51:53Z</time>
      </trkpt>
      <trkpt lat="38.2685266715" lon="-5.8414710313">
        <ele>589.91</ele>
        <time>2021-05-28T05:51:56Z</time>
      </trkpt>
      <trkpt lat="38.2676286343" lon="-5.8446153346">
        <ele>592.31</ele>
        <time>2021-05-28T05:52:06Z</time>
      </trkpt>
      <trkpt lat="38.2664398290" lon="-5.8476924989">
        <ele>595.67</ele>
        <time>2021-05-28T05:52:16Z</time>
      </trkpt>
      <trkpt lat="38.2660799939" lon="-5.8486162685">
        <ele>597.12</ele>
        <time>2021-05-28T05:52:19Z</time>
      </trkpt>
      <trkpt lat="38.2648293301" lon="-5.8524059784">
        <ele>596.64</ele>
        <time>2021-05-28T05:52:31Z</time>
      </trkpt>
      <trkpt lat="38.2645880152" lon="-5.8537595719">
        <ele>592.79</ele>
        <time>2021-05-28T05:52:35Z</time>
      </trkpt>
      <trkpt lat="38.2644840796" lon="-5.8544366620">
        <ele>591.35</ele>
        <time>2021-05-28T05:52:37Z</time>
      </trkpt>
      <trkpt lat="38.2639838476" lon="-5.8584150486">
        <ele>594.23</ele>
        <time>2021-05-28T05:52:49Z</time>
      </trkpt>
      <trkpt lat="38.2639877871" lon="-5.8610781468">
        <ele>590.87</ele>
        <time>2021-05-28T05:52:58Z</time>
      </trkpt>
      <trkpt lat="38.2640219014" lon="-5.8618353680">
        <ele>587.02</ele>
        <time>2021-05-28T05:53:01Z</time>
      </trkpt>
      <trkpt lat="38.2640317921" lon="-5.8620753419">
        <ele>587.02</ele>
        <time>2021-05-28T05:53:02Z</time>
      </trkpt>
      <trkpt lat="38.2639480568" lon="-5.8638835698">
        <ele>588.95</ele>
        <time>2021-05-28T05:53:10Z</time>
      </trkpt>
      <trkpt lat="38.2637118548" lon="-5.8647580538">
        <ele>591.35</ele>
        <time>2021-05-28T05:53:14Z</time>
      </trkpt>
      <trkpt lat="38.2629339304" lon="-5.8663034253">
        <ele>592.79</ele>
        <time>2021-05-28T05:53:21Z</time>
      </trkpt>
      <trkpt lat="38.2628062740" lon="-5.8665253781">
        <ele>592.31</ele>
        <time>2021-05-28T05:53:22Z</time>
      </trkpt>
      <trkpt lat="38.2619913016" lon="-5.8679228090">
        <ele>589.91</ele>
        <time>2021-05-28T05:53:28Z</time>
      </trkpt>
      <trkpt lat="38.2603762764" lon="-5.8708604984">
        <ele>586.54</ele>
        <time>2021-05-28T05:53:40Z</time>
      </trkpt>
      <trkpt lat="38.2598229032" lon="-5.8725384716">
        <ele>584.14</ele>
        <time>2021-05-28T05:53:46Z</time>
      </trkpt>
      <trkpt lat="38.2594199851" lon="-5.8750313334">
        <ele>587.50</ele>
        <time>2021-05-28T05:53:54Z</time>
      </trkpt>
      <trkpt lat="38.2592483237" lon="-5.8763121720">
        <ele>590.39</ele>
        <time>2021-05-28T05:53:58Z</time>
      </trkpt>
      <trkpt lat="38.2591100223" lon="-5.8772912621">
        <ele>593.75</ele>
        <time>2021-05-28T05:54:01Z</time>
      </trkpt>
      <trkpt lat="38.2590645086" lon="-5.8776180726">
        <ele>594.23</ele>
        <time>2021-05-28T05:54:02Z</time>
      </trkpt>
      <trkpt lat="38.2588888239" lon="-5.8788929600">
        <ele>597.60</ele>
        <time>2021-05-28T05:54:06Z</time>
      </trkpt>
      <trkpt lat="38.2588454895" lon="-5.8792090416">
        <ele>597.12</ele>
        <time>2021-05-28T05:54:07Z</time>
      </trkpt>
      <trkpt lat="38.2587561384" lon="-5.8798368461">
        <ele>599.04</ele>
        <time>2021-05-28T05:54:09Z</time>
      </trkpt>
      <trkpt lat="38.2586233690" lon="-5.8807736915">
        <ele>601.92</ele>
        <time>2021-05-28T05:54:12Z</time>
      </trkpt>
      <trkpt lat="38.2584880013" lon="-5.8817211818">
        <ele>605.77</ele>
        <time>2021-05-28T05:54:15Z</time>
      </trkpt>
      <trkpt lat="38.2577430177" lon="-5.8870114200">
        <ele>609.13</ele>
        <time>2021-05-28T05:54:31Z</time>
      </trkpt>
      <trkpt lat="38.2573019620" lon="-5.8901385404">
        <ele>607.69</ele>
        <time>2021-05-28T05:54:40Z</time>
      </trkpt>
      <trkpt lat="38.2572066598" lon="-5.8908348251">
        <ele>605.29</ele>
        <time>2021-05-28T05:54:42Z</time>
      </trkpt>
      <trkpt lat="38.2570138760" lon="-5.8922239579">
        <ele>601.92</ele>
        <time>2021-05-28T05:54:46Z</time>
      </trkpt>
      <trkpt lat="38.2569660991" lon="-5.8925708011">
        <ele>601.92</ele>
        <time>2021-05-28T05:54:47Z</time>
      </trkpt>
      <trkpt lat="38.2560058683" lon="-5.8994033933">
        <ele>605.29</ele>
        <time>2021-05-28T05:55:07Z</time>
      </trkpt>
      <trkpt lat="38.2557729352" lon="-5.9010417201">
        <ele>608.65</ele>
        <time>2021-05-28T05:55:12Z</time>
      </trkpt>
      <trkpt lat="38.2557244878" lon="-5.9013712127">
        <ele>607.69</ele>
        <time>2021-05-28T05:55:13Z</time>
      </trkpt>
      <trkpt lat="38.2556283474" lon="-5.9020415135">
        <ele>610.09</ele>
        <time>2021-05-28T05:55:15Z</time>
      </trkpt>
      <trkpt lat="38.2551990263" lon="-5.9051149059">
        <ele>606.25</ele>
        <time>2021-05-28T05:55:24Z</time>
      </trkpt>
      <trkpt lat="38.2551036403" lon="-5.9058158007">
        <ele>603.36</ele>
        <time>2021-05-28T05:55:26Z</time>
      </trkpt>
      <trkpt lat="38.2549590524" lon="-5.9068717528">
        <ele>598.08</ele>
        <time>2021-05-28T05:55:29Z</time>
      </trkpt>
      <trkpt lat="38.2548622414" lon="-5.9075640142">
        <ele>595.19</ele>
        <time>2021-05-28T05:55:31Z</time>
      </trkpt>
      <trkpt lat="38.2547645085" lon="-5.9082475584">
        <ele>590.39</ele>
        <time>2021-05-28T05:55:33Z</time>
      </trkpt>
      <trkpt lat="38.2545728143" lon="-5.9096294828">
        <ele>586.54</ele>
        <time>2021-05-28T05:55:37Z</time>
      </trkpt>
      <trkpt lat="38.2544251252" lon="-5.9106714372">
        <ele>583.18</ele>
        <time>2021-05-28T05:55:40Z</time>
      </trkpt>
      <trkpt lat="38.2543752529" lon="-5.9110206272">
        <ele>583.66</ele>
        <time>2021-05-28T05:55:41Z</time>
      </trkpt>
      <trkpt lat="38.2541311719" lon="-5.9127473831">
        <ele>580.29</ele>
        <time>2021-05-28T05:55:46Z</time>
      </trkpt>
      <trkpt lat="38.2537335344" lon="-5.9155440889">
        <ele>583.66</ele>
        <time>2021-05-28T05:55:54Z</time>
      </trkpt>
      <trkpt lat="38.2535808999" lon="-5.9166083392">
        <ele>586.06</ele>
        <time>2021-05-28T05:55:57Z</time>
      </trkpt>
      <trkpt lat="38.2534348033" lon="-5.9176411573">
        <ele>587.02</ele>
        <time>2021-05-28T05:56:00Z</time>
      </trkpt>
      <trkpt lat="38.2531895489" lon="-5.9193501435">
        <ele>590.39</ele>
        <time>2021-05-28T05:56:05Z</time>
      </trkpt>
      <trkpt lat="38.2530440390" lon="-5.9203725681">
        <ele>591.83</ele>
        <time>2021-05-28T05:56:08Z</time>
      </trkpt>
      <trkpt lat="38.2529008761" lon="-5.9213884547">
        <ele>593.27</ele>
        <time>2021-05-28T05:56:11Z</time>
      </trkpt>
      <trkpt lat="38.2527612336" lon="-5.9223953728">
        <ele>596.64</ele>
        <time>2021-05-28T05:56:14Z</time>
      </trkpt>
      <trkpt lat="38.2527147979" lon="-5.9227283020">
        <ele>597.12</ele>
        <time>2021-05-28T05:56:15Z</time>
      </trkpt>
      <trkpt lat="38.2525744848" lon="-5.9237311129">
        <ele>600.48</ele>
        <time>2021-05-28T05:56:18Z</time>
      </trkpt>
      <trkpt lat="38.2522321679" lon="-5.9261202905">
        <ele>603.36</ele>
        <time>2021-05-28T05:56:25Z</time>
      </trkpt>
      <trkpt lat="38.2515352964" lon="-5.9311330039">
        <ele>605.77</ele>
        <time>2021-05-28T05:56:39Z</time>
      </trkpt>
      <trkpt lat="38.2505892310" lon="-5.9379121196">
        <ele>607.69</ele>
        <time>2021-05-28T05:56:58Z</time>
      </trkpt>
      <trkpt lat="38.2496189419" lon="-5.9448292013">
        <ele>604.33</ele>
        <time>2021-05-28T05:57:18Z</time>
      </trkpt>
      <trkpt lat="38.2495222148" lon="-5.9455079678">
        <ele>602.88</ele>
        <time>2021-05-28T05:57:20Z</time>
      </trkpt>
      <trkpt lat="38.2490446977" lon="-5.9489106014">
        <ele>602.40</ele>
        <time>2021-05-28T05:57:30Z</time>
      </trkpt>
      <trkpt lat="38.2488504052" lon="-5.9502785280">
        <ele>606.25</ele>
        <time>2021-05-28T05:57:34Z</time>
      </trkpt>
      <trkpt lat="38.2485157158" lon="-5.9526473377">
        <ele>607.21</ele>
        <time>2021-05-28T05:57:41Z</time>
      </trkpt>
      <trkpt lat="38.2482221816" lon="-5.9547444899">
        <ele>606.25</ele>
        <time>2021-05-28T05:57:47Z</time>
      </trkpt>
      <trkpt lat="38.2478295732" lon="-5.9575777408">
        <ele>607.69</ele>
        <time>2021-05-28T05:57:55Z</time>
      </trkpt>
      <trkpt lat="38.2475058641" lon="-5.9598930739">
        <ele>610.09</ele>
        <time>2021-05-28T05:58:02Z</time>
      </trkpt>
      <trkpt lat="38.2472324464" lon="-5.9618123621">
        <ele>613.94</ele>
        <time>2021-05-28T05:58:08Z</time>
      </trkpt>
      <trkpt lat="38.2471874356" lon="-5.9621327184">
        <ele>613.94</ele>
        <time>2021-05-28T05:58:09Z</time>
      </trkpt>
      <trkpt lat="38.2469591126" lon="-5.9637525212">
        <ele>612.02</ele>
        <time>2021-05-28T05:58:14Z</time>
      </trkpt>
      <trkpt lat="38.2467186358" lon="-5.9654423967">
        <ele>611.06</ele>
        <time>2021-05-28T05:58:19Z</time>
      </trkpt>
      <trkpt lat="38.2465199009" lon="-5.9668170288">
        <ele>607.21</ele>
        <time>2021-05-28T05:58:23Z</time>
      </trkpt>
      <trkpt lat="38.2464230061" lon="-5.9675102122">
        <ele>605.77</ele>
        <time>2021-05-28T05:58:25Z</time>
      </trkpt>
      <trkpt lat="38.2460410427" lon="-5.9702579677">
        <ele>604.33</ele>
        <time>2021-05-28T05:58:33Z</time>
      </trkpt>
      <trkpt lat="38.2452150062" lon="-5.9761455841">
        <ele>606.73</ele>
        <time>2021-05-28T05:58:51Z</time>
      </trkpt>
      <trkpt lat="38.2451225538" lon="-5.9768101014">
        <ele>608.65</ele>
        <time>2021-05-28T05:58:53Z</time>
      </trkpt>
      <trkpt lat="38.2442304678" lon="-5.9831505921">
        <ele>610.09</ele>
        <time>2021-05-28T05:59:12Z</time>
      </trkpt>
      <trkpt lat="38.2432010025" lon="-5.9904764593">
        <ele>613.46</ele>
        <time>2021-05-28T05:59:34Z</time>
      </trkpt>
      <trkpt lat="38.2425430231" lon="-5.9951485321">
        <ele>614.90</ele>
        <time>2021-05-28T05:59:49Z</time>
      </trkpt>
      <trkpt lat="38.2420697808" lon="-5.9986276925">
        <ele>612.50</ele>
        <time>2021-05-28T06:00:02Z</time>
      </trkpt>
      <trkpt lat="38.2421554439" lon="-5.9999661148">
        <ele>611.54</ele>
        <time>2021-05-28T06:00:09Z</time>
      </trkpt>
      <trkpt lat="38.2421950065" lon="-6.0002470762">
        <ele>610.57</ele>
        <time>2021-05-28T06:00:11Z</time>
      </trkpt>
      <trkpt lat="38.2423038036" lon="-6.0006877966">
        <ele>608.65</ele>
        <time>2021-05-28T06:00:17Z</time>
      </trkpt>
      <trkpt lat="38.2423462160" lon="-6.0008268524">
        <ele>610.09</ele>
        <time>2021-05-28T06:00:25Z</time>
      </trkpt>
      <trkpt lat="38.2423465513" lon="-6.0008615535">
        <ele>610.09</ele>
        <time>2021-05-28T06:00:26Z</time>
      </trkpt>
      <trkpt lat="38.2423354872" lon="-6.0009194724">
        <ele>610.57</ele>
        <time>2021-05-28T06:00:27Z</time>
      </trkpt>
      <trkpt lat="38.2423020434" lon="-6.0009804927">
        <ele>611.06</ele>
        <time>2021-05-28T06:00:28Z</time>
      </trkpt>
      <trkpt lat="38.2422483992" lon="-6.0010245815">
        <ele>610.57</ele>
        <time>2021-05-28T06:00:29Z</time>
      </trkpt>
      <trkpt lat="38.2421772368" lon="-6.0010534152">
        <ele>611.06</ele>
        <time>2021-05-28T06:00:30Z</time>
      </trkpt>
      <trkpt lat="38.2420891430" lon="-6.0010850150">
        <ele>611.54</ele>
        <time>2021-05-28T06:00:31Z</time>
      </trkpt>
      <trkpt lat="38.2419906557" lon="-6.0011311155">
        <ele>611.54</ele>
        <time>2021-05-28T06:00:32Z</time>
      </trkpt>
      <trkpt lat="38.2418904919" lon="-6.0011972487">
        <ele>612.02</ele>
        <time>2021-05-28T06:00:33Z</time>
      </trkpt>
      <trkpt lat="38.2417985424" lon="-6.0012813192">
        <ele>611.54</ele>
        <time>2021-05-28T06:00:34Z</time>
      </trkpt>
      <trkpt lat="38.2417263743" lon="-6.0013783816">
        <ele>611.54</ele>
        <time>2021-05-28T06:00:35Z</time>
      </trkpt>
      <trkpt lat="38.2416751608" lon="-6.0014899448">
        <ele>611.54</ele>
        <time>2021-05-28T06:00:36Z</time>
      </trkpt>
      <trkpt lat="38.2416352630" lon="-6.0016224626">
        <ele>612.02</ele>
        <time>2021-05-28T06:00:37Z</time>
      </trkpt>
      <trkpt lat="38.2416029926" lon="-6.0017752647">
        <ele>612.98</ele>
        <time>2021-05-28T06:00:38Z</time>
      </trkpt>
      <trkpt lat="38.2415757515" lon="-6.0019424837">
        <ele>613.94</ele>
        <time>2021-05-28T06:00:39Z</time>
      </trkpt>
      <trkpt lat="38.2415233646" lon="-6.0023016483">
        <ele>614.90</ele>
        <time>2021-05-28T06:00:41Z</time>
      </trkpt>
      <trkpt lat="38.2414194290" lon="-6.0030667484">
        <ele>618.26</ele>
        <time>2021-05-28T06:00:45Z</time>
      </trkpt>
      <trkpt lat="38.2413625997" lon="-6.0034836642">
        <ele>619.23</ele>
        <time>2021-05-28T06:00:47Z</time>
      </trkpt>
      <trkpt lat="38.2413040940" lon="-6.0039070342">
        <ele>620.19</ele>
        <time>2021-05-28T06:00:49Z</time>
      </trkpt>
      <trkpt lat="38.2409557421" lon="-6.0064225271">
        <ele>623.55</ele>
        <time>2021-05-28T06:01:02Z</time>
      </trkpt>
      <trkpt lat="38.2405691687" lon="-6.0079659708">
        <ele>624.51</ele>
        <time>2021-05-28T06:01:12Z</time>
      </trkpt>
      <trkpt lat="38.2405425142" lon="-6.0080836527">
        <ele>624.51</ele>
        <time>2021-05-28T06:01:13Z</time>
      </trkpt>
      <trkpt lat="38.2405288517" lon="-6.0082046874">
        <ele>624.99</ele>
        <time>2021-05-28T06:01:14Z</time>
      </trkpt>
      <trkpt lat="38.2405383233" lon="-6.0083258059">
        <ele>624.51</ele>
        <time>2021-05-28T06:01:15Z</time>
      </trkpt>
      <trkpt lat="38.2405717671" lon="-6.0084500257">
        <ele>625.47</ele>
        <time>2021-05-28T06:01:16Z</time>
      </trkpt>
      <trkpt lat="38.2406267524" lon="-6.0085762572">
        <ele>625.96</ele>
        <time>2021-05-28T06:01:17Z</time>
      </trkpt>
      <trkpt lat="38.2406982500" lon="-6.0087071825">
        <ele>626.92</ele>
        <time>2021-05-28T06:01:18Z</time>
      </trkpt>
      <trkpt lat="38.2407811470" lon="-6.0088469088">
        <ele>627.88</ele>
        <time>2021-05-28T06:01:19Z</time>
      </trkpt>
      <trkpt lat="38.2418631669" lon="-6.0105220322">
        <ele>627.88</ele>
        <time>2021-05-28T06:01:31Z</time>
      </trkpt>
      <trkpt lat="38.2424081583" lon="-6.0113925766">
        <ele>625.47</ele>
        <time>2021-05-28T06:01:38Z</time>
      </trkpt>
      <trkpt lat="38.2430732623" lon="-6.0124001652">
        <ele>624.99</ele>
        <time>2021-05-28T06:01:47Z</time>
      </trkpt>
      <trkpt lat="38.2435904257" lon="-6.0131987929">
        <ele>621.63</ele>
        <time>2021-05-28T06:01:53Z</time>
      </trkpt>
      <trkpt lat="38.2437216863" lon="-6.0134084243">
        <ele>620.67</ele>
        <time>2021-05-28T06:01:55Z</time>
      </trkpt>
      <trkpt lat="38.2439003047" lon="-6.0136649944">
        <ele>618.75</ele>
        <time>2021-05-28T06:01:58Z</time>
      </trkpt>
      <trkpt lat="38.2440402824" lon="-6.0138823371">
        <ele>617.78</ele>
        <time>2021-05-28T06:02:01Z</time>
      </trkpt>
      <trkpt lat="38.2440871373" lon="-6.0139247496">
        <ele>616.82</ele>
        <time>2021-05-28T06:02:02Z</time>
      </trkpt>
      <trkpt lat="38.2441407815" lon="-6.0139438603">
        <ele>616.82</ele>
        <time>2021-05-28T06:02:03Z</time>
      </trkpt>
      <trkpt lat="38.2441977784" lon="-6.0139395855">
        <ele>616.82</ele>
        <time>2021-05-28T06:02:04Z</time>
      </trkpt>
      <trkpt lat="38.2442565355" lon="-6.0139269289">
        <ele>616.82</ele>
        <time>2021-05-28T06:02:05Z</time>
      </trkpt>
      <trkpt lat="38.2443146221" lon="-6.0139275994">
        <ele>617.30</ele>
        <time>2021-05-28T06:02:06Z</time>
      </trkpt>
      <trkpt lat="38.2443701103" lon="-6.0139440279">
        <ele>616.82</ele>
        <time>2021-05-28T06:02:07Z</time>
      </trkpt>
      <trkpt lat="38.2444205694" lon="-6.0139749572">
        <ele>616.34</ele>
        <time>2021-05-28T06:02:08Z</time>
      </trkpt>
      <trkpt lat="38.2444588747" lon="-6.0140133463">
        <ele>616.34</ele>
        <time>2021-05-28T06:02:09Z</time>
      </trkpt>
      <trkpt lat="38.2444830146" lon="-6.0140461195">
        <ele>616.34</ele>
        <time>2021-05-28T06:02:10Z</time>
      </trkpt>
      <trkpt lat="38.2445007842" lon="-6.0140641406">
        <ele>615.38</ele>
        <time>2021-05-28T06:02:11Z</time>
      </trkpt>
      <trkpt lat="38.2445532549" lon="-6.0141976643">
        <ele>615.38</ele>
        <time>2021-05-28T06:02:16Z</time>
      </trkpt>
      <trkpt lat="38.2445436995" lon="-6.0142643843">
        <ele>615.86</ele>
        <time>2021-05-28T06:02:17Z</time>
      </trkpt>
      <trkpt lat="38.2445184700" lon="-6.0143393185">
        <ele>616.34</ele>
        <time>2021-05-28T06:02:18Z</time>
      </trkpt>
      <trkpt lat="38.2444801647" lon="-6.0144112352">
        <ele>616.82</ele>
        <time>2021-05-28T06:02:19Z</time>
      </trkpt>
      <trkpt lat="38.2444292028" lon="-6.0144709982">
        <ele>616.34</ele>
        <time>2021-05-28T06:02:20Z</time>
      </trkpt>
      <trkpt lat="38.2443627343" lon="-6.0145110637">
        <ele>616.34</ele>
        <time>2021-05-28T06:02:21Z</time>
      </trkpt>
      <trkpt lat="38.2442913204" lon="-6.0145278275">
        <ele>616.82</ele>
        <time>2021-05-28T06:02:22Z</time>
      </trkpt>
      <trkpt lat="38.2442158833" lon="-6.0145156737">
        <ele>617.30</ele>
        <time>2021-05-28T06:02:23Z</time>
      </trkpt>
      <trkpt lat="38.2441434637" lon="-6.0144787934">
        <ele>616.82</ele>
        <time>2021-05-28T06:02:24Z</time>
      </trkpt>
      <trkpt lat="38.2440738101" lon="-6.0144252330">
        <ele>616.82</ele>
        <time>2021-05-28T06:02:25Z</time>
      </trkpt>
      <trkpt lat="38.2440006360" lon="-6.0143746901">
        <ele>616.82</ele>
        <time>2021-05-28T06:02:26Z</time>
      </trkpt>
      <trkpt lat="38.2439218462" lon="-6.0143444315">
        <ele>617.30</ele>
        <time>2021-05-28T06:02:27Z</time>
      </trkpt>
      <trkpt lat="38.2438387815" lon="-6.0143345408">
        <ele>617.30</ele>
        <time>2021-05-28T06:02:28Z</time>
      </trkpt>
      <trkpt lat="38.2437487599" lon="-6.0143389832">
        <ele>617.78</ele>
        <time>2021-05-28T06:02:29Z</time>
      </trkpt>
      <trkpt lat="38.2436477579" lon="-6.0143505502">
        <ele>618.26</ele>
        <time>2021-05-28T06:02:30Z</time>
      </trkpt>
      <trkpt lat="38.2434198540" lon="-6.0143746063">
        <ele>619.23</ele>
        <time>2021-05-28T06:02:32Z</time>
      </trkpt>
      <trkpt lat="38.2431271579" lon="-6.0144106485">
        <ele>617.78</ele>
        <time>2021-05-28T06:02:35Z</time>
      </trkpt>
      <trkpt lat="38.2419448067" lon="-6.0145403165">
        <ele>619.23</ele>
        <time>2021-05-28T06:02:46Z</time>
      </trkpt>
      <trkpt lat="38.2412323449" lon="-6.0144751891">
        <ele>616.34</ele>
        <time>2021-05-28T06:02:52Z</time>
      </trkpt>
      <trkpt lat="38.2411455084" lon="-6.0145020112">
        <ele>614.90</ele>
        <time>2021-05-28T06:02:53Z</time>
      </trkpt>
      <trkpt lat="38.2410669699" lon="-6.0145493690">
        <ele>614.90</ele>
        <time>2021-05-28T06:02:54Z</time>
      </trkpt>
      <trkpt lat="38.2410015911" lon="-6.0146134906">
        <ele>615.38</ele>
        <time>2021-05-28T06:02:55Z</time>
      </trkpt>
      <trkpt lat="38.2409603521" lon="-6.0146992374">
        <ele>616.34</ele>
        <time>2021-05-28T06:02:56Z</time>
      </trkpt>
      <trkpt lat="38.2409393135" lon="-6.0147948749">
        <ele>616.82</ele>
        <time>2021-05-28T06:02:57Z</time>
      </trkpt>
      <trkpt lat="38.2409412414" lon="-6.0148963798">
        <ele>616.82</ele>
        <time>2021-05-28T06:02:58Z</time>
      </trkpt>
      <trkpt lat="38.2409646269" lon="-6.0149999801">
        <ele>618.26</ele>
        <time>2021-05-28T06:02:59Z</time>
      </trkpt>
      <trkpt lat="38.2409958076" lon="-6.0150981322">
        <ele>619.23</ele>
        <time>2021-05-28T06:03:00Z</time>
      </trkpt>
      <trkpt lat="38.2410321012" lon="-6.0151918419">
        <ele>620.19</ele>
        <time>2021-05-28T06:03:01Z</time>
      </trkpt>
      <trkpt lat="38.2410736755" lon="-6.0152706318">
        <ele>620.19</ele>
        <time>2021-05-28T06:03:02Z</time>
      </trkpt>
      <trkpt lat="38.2411171775" lon="-6.0153304785">
        <ele>621.15</ele>
        <time>2021-05-28T06:03:03Z</time>
      </trkpt>
      <trkpt lat="38.2411693968" lon="-6.0153874755">
        <ele>621.15</ele>
        <time>2021-05-28T06:03:04Z</time>
      </trkpt>
      <trkpt lat="38.2412165031" lon="-6.0154531058">
        <ele>622.11</ele>
        <time>2021-05-28T06:03:05Z</time>
      </trkpt>
      <trkpt lat="38.2412473485" lon="-6.0155396909">
        <ele>622.59</ele>
        <time>2021-05-28T06:03:06Z</time>
      </trkpt>
      <trkpt lat="38.2412548084" lon="-6.0156399384">
        <ele>623.07</ele>
        <time>2021-05-28T06:03:07Z</time>
      </trkpt>
      <trkpt lat="38.2412442472" lon="-6.0157531779">
        <ele>623.07</ele>
        <time>2021-05-28T06:03:08Z</time>
      </trkpt>
      <trkpt lat="38.2412288245" lon="-6.0158698540">
        <ele>624.51</ele>
        <time>2021-05-28T06:03:09Z</time>
      </trkpt>
      <trkpt lat="38.2412214484" lon="-6.0159894638">
        <ele>624.03</ele>
        <time>2021-05-28T06:03:10Z</time>
      </trkpt>
      <trkpt lat="38.2412094623" lon="-6.0164027754">
        <ele>626.44</ele>
        <time>2021-05-28T06:03:13Z</time>
      </trkpt>
      <trkpt lat="38.2411914412" lon="-6.0165287554">
        <ele>625.47</ele>
        <time>2021-05-28T06:03:14Z</time>
      </trkpt>
      <trkpt lat="38.2411657926" lon="-6.0166455992">
        <ele>624.99</ele>
        <time>2021-05-28T06:03:15Z</time>
      </trkpt>
      <trkpt lat="38.2407406624" lon="-6.0179099254">
        <ele>624.99</ele>
        <time>2021-05-28T06:03:25Z</time>
      </trkpt>
      <trkpt lat="38.2401999459" lon="-6.0193029139">
        <ele>626.92</ele>
        <time>2021-05-28T06:03:36Z</time>
      </trkpt>
      <trkpt lat="38.2401322201" lon="-6.0194291454">
        <ele>626.92</ele>
        <time>2021-05-28T06:03:37Z</time>
      </trkpt>
      <trkpt lat="38.2400521729" lon="-6.0195522755">
        <ele>626.92</ele>
        <time>2021-05-28T06:03:38Z</time>
      </trkpt>
      <trkpt lat="38.2399640791" lon="-6.0196623299">
        <ele>627.40</ele>
        <time>2021-05-28T06:03:39Z</time>
      </trkpt>
      <trkpt lat="38.2398681901" lon="-6.0197581351">
        <ele>627.88</ele>
        <time>2021-05-28T06:03:40Z</time>
      </trkpt>
      <trkpt lat="38.2397687808" lon="-6.0198456421">
        <ele>627.88</ele>
        <time>2021-05-28T06:03:41Z</time>
      </trkpt>
      <trkpt lat="38.2392019965" lon="-6.0203251708">
        <ele>625.96</ele>
        <time>2021-05-28T06:03:49Z</time>
      </trkpt>
      <trkpt lat="38.2387652993" lon="-6.0206400789">
        <ele>627.88</ele>
        <time>2021-05-28T06:03:55Z</time>
      </trkpt>
      <trkpt lat="38.2386707515" lon="-6.0206718463">
        <ele>628.36</ele>
        <time>2021-05-28T06:03:56Z</time>
      </trkpt>
      <trkpt lat="38.2385671511" lon="-6.0206876043">
        <ele>628.36</ele>
        <time>2021-05-28T06:03:57Z</time>
      </trkpt>
      <trkpt lat="38.2384584378" lon="-6.0206864309">
        <ele>628.84</ele>
        <time>2021-05-28T06:03:58Z</time>
      </trkpt>
      <trkpt lat="38.2383530773" lon="-6.0206703376">
        <ele>628.84</ele>
        <time>2021-05-28T06:03:59Z</time>
      </trkpt>
      <trkpt lat="38.2382540032" lon="-6.0206467845">
        <ele>629.32</ele>
        <time>2021-05-28T06:04:00Z</time>
      </trkpt>
      <trkpt lat="38.2381685916" lon="-6.0206150170">
        <ele>628.84</ele>
        <time>2021-05-28T06:04:01Z</time>
      </trkpt>
      <trkpt lat="38.2380970940" lon="-6.0205827467">
        <ele>628.84</ele>
        <time>2021-05-28T06:04:02Z</time>
      </trkpt>
      <trkpt lat="38.2380382530" lon="-6.0205505602">
        <ele>628.84</ele>
        <time>2021-05-28T06:04:03Z</time>
      </trkpt>
      <trkpt lat="38.2378966827" lon="-6.0204546712">
        <ele>627.88</ele>
        <time>2021-05-28T06:04:06Z</time>
      </trkpt>
      <trkpt lat="38.2373856381" lon="-6.0200169683">
        <ele>629.80</ele>
        <time>2021-05-28T06:04:15Z</time>
      </trkpt>
      <trkpt lat="38.2369911019" lon="-6.0196871404">
        <ele>630.76</ele>
        <time>2021-05-28T06:04:23Z</time>
      </trkpt>
      <trkpt lat="38.2369288243" lon="-6.0196648445">
        <ele>630.76</ele>
        <time>2021-05-28T06:04:24Z</time>
      </trkpt>
      <trkpt lat="38.2368643675" lon="-6.0196654312">
        <ele>631.24</ele>
        <time>2021-05-28T06:04:25Z</time>
      </trkpt>
      <trkpt lat="38.2367990725" lon="-6.0196940973">
        <ele>631.72</ele>
        <time>2021-05-28T06:04:26Z</time>
      </trkpt>
      <trkpt lat="38.2367343642" lon="-6.0197541118">
        <ele>631.72</ele>
        <time>2021-05-28T06:04:27Z</time>
      </trkpt>
      <trkpt lat="38.2366752718" lon="-6.0198355000">
        <ele>632.20</ele>
        <time>2021-05-28T06:04:28Z</time>
      </trkpt>
      <trkpt lat="38.2366171852" lon="-6.0199334007">
        <ele>633.65</ele>
        <time>2021-05-28T06:04:29Z</time>
      </trkpt>
      <trkpt lat="38.2362491358" lon="-6.0206663981">
        <ele>636.05</ele>
        <time>2021-05-28T06:04:35Z</time>
      </trkpt>
      <trkpt lat="38.2354433835" lon="-6.0222678445">
        <ele>634.13</ele>
        <time>2021-05-28T06:04:48Z</time>
      </trkpt>
      <trkpt lat="38.2350042555" lon="-6.0231173504">
        <ele>635.09</ele>
        <time>2021-05-28T06:04:56Z</time>
      </trkpt>
      <trkpt lat="38.2344359625" lon="-6.0242244322">
        <ele>636.53</ele>
        <time>2021-05-28T06:05:06Z</time>
      </trkpt>
      <trkpt lat="38.2343561668" lon="-6.0243516695">
        <ele>637.01</ele>
        <time>2021-05-28T06:05:07Z</time>
      </trkpt>
      <trkpt lat="38.2341703400" lon="-6.0246050544">
        <ele>638.45</ele>
        <time>2021-05-28T06:05:09Z</time>
      </trkpt>
      <trkpt lat="38.2335939165" lon="-6.0252405703">
        <ele>641.82</ele>
        <time>2021-05-28T06:05:14Z</time>
      </trkpt>
      <trkpt lat="38.2334593032" lon="-6.0253871698">
        <ele>641.82</ele>
        <time>2021-05-28T06:05:15Z</time>
      </trkpt>
      <trkpt lat="38.2326502819" lon="-6.0262582172">
        <ele>645.18</ele>
        <time>2021-05-28T06:05:21Z</time>
      </trkpt>
      <trkpt lat="38.2322165184" lon="-6.0267256759">
        <ele>648.55</ele>
        <time>2021-05-28T06:05:24Z</time>
      </trkpt>
      <trkpt lat="38.2320658118" lon="-6.0268866085">
        <ele>648.55</ele>
        <time>2021-05-28T06:05:25Z</time>
      </trkpt>
      <trkpt lat="38.2315944973" lon="-6.0273919534">
        <ele>650.47</ele>
        <time>2021-05-28T06:05:28Z</time>
      </trkpt>
      <trkpt lat="38.2304901816" lon="-6.0285759810">
        <ele>649.51</ele>
        <time>2021-05-28T06:05:35Z</time>
      </trkpt>
      <trkpt lat="38.2279563323" lon="-6.0313004348">
        <ele>653.35</ele>
        <time>2021-05-28T06:05:51Z</time>
      </trkpt>
      <trkpt lat="38.2276213076" lon="-6.0316848289">
        <ele>654.31</ele>
        <time>2021-05-28T06:05:53Z</time>
      </trkpt>
      <trkpt lat="38.2272975147" lon="-6.0320810415">
        <ele>655.28</ele>
        <time>2021-05-28T06:05:55Z</time>
      </trkpt>
      <trkpt lat="38.2266594004" lon="-6.0329379234">
        <ele>657.68</ele>
        <time>2021-05-28T06:05:59Z</time>
      </trkpt>
      <trkpt lat="38.2252411824" lon="-6.0353504866">
        <ele>655.76</ele>
        <time>2021-05-28T06:06:09Z</time>
      </trkpt>
      <trkpt lat="38.2249794994" lon="-6.0358624533">
        <ele>652.87</ele>
        <time>2021-05-28T06:06:11Z</time>
      </trkpt>
      <trkpt lat="38.2248461433" lon="-6.0361199453">
        <ele>652.87</ele>
        <time>2021-05-28T06:06:12Z</time>
      </trkpt>
      <trkpt lat="38.2242685463" lon="-6.0371597204">
        <ele>648.55</ele>
        <time>2021-05-28T06:06:16Z</time>
      </trkpt>
      <trkpt lat="38.2241092902" lon="-6.0374136083">
        <ele>649.03</ele>
        <time>2021-05-28T06:06:17Z</time>
      </trkpt>
      <trkpt lat="38.2237740979" lon="-6.0378964897">
        <ele>645.18</ele>
        <time>2021-05-28T06:06:19Z</time>
      </trkpt>
      <trkpt lat="38.2235946413" lon="-6.0381276626">
        <ele>645.18</ele>
        <time>2021-05-28T06:06:20Z</time>
      </trkpt>
      <trkpt lat="38.2226596400" lon="-6.0391766578">
        <ele>640.86</ele>
        <time>2021-05-28T06:06:25Z</time>
      </trkpt>
      <trkpt lat="38.2217257284" lon="-6.0401221365">
        <ele>637.49</ele>
        <time>2021-05-28T06:06:30Z</time>
      </trkpt>
      <trkpt lat="38.2213540748" lon="-6.0404876713">
        <ele>637.01</ele>
        <time>2021-05-28T06:06:32Z</time>
      </trkpt>
      <trkpt lat="38.2192270830" lon="-6.0426362883">
        <ele>637.01</ele>
        <time>2021-05-28T06:06:43Z</time>
      </trkpt>
      <trkpt lat="38.2183754817" lon="-6.0438401811">
        <ele>639.41</ele>
        <time>2021-05-28T06:06:48Z</time>
      </trkpt>
      <trkpt lat="38.2172052003" lon="-6.0454997979">
        <ele>636.53</ele>
        <time>2021-05-28T06:06:55Z</time>
      </trkpt>
      <trkpt lat="38.2160591427" lon="-6.0464642197">
        <ele>639.41</ele>
        <time>2021-05-28T06:07:01Z</time>
      </trkpt>
      <trkpt lat="38.2147063874" lon="-6.0467142519">
        <ele>641.82</ele>
        <time>2021-05-28T06:07:07Z</time>
      </trkpt>
      <trkpt lat="38.2144689281" lon="-6.0466745216">
        <ele>642.30</ele>
        <time>2021-05-28T06:07:08Z</time>
      </trkpt>
      <trkpt lat="38.2142308820" lon="-6.0466170218">
        <ele>642.30</ele>
        <time>2021-05-28T06:07:09Z</time>
      </trkpt>
      <trkpt lat="38.2139939256" lon="-6.0465406626">
        <ele>642.78</ele>
        <time>2021-05-28T06:07:10Z</time>
      </trkpt>
      <trkpt lat="38.2137598190" lon="-6.0464492161">
        <ele>641.82</ele>
        <time>2021-05-28T06:07:11Z</time>
      </trkpt>
      <trkpt lat="38.2121252641" lon="-6.0460716952">
        <ele>643.26</ele>
        <time>2021-05-28T06:07:18Z</time>
      </trkpt>
      <trkpt lat="38.2118842006" lon="-6.0461009480">
        <ele>644.70</ele>
        <time>2021-05-28T06:07:19Z</time>
      </trkpt>
      <trkpt lat="38.2116418798" lon="-6.0461577773">
        <ele>647.10</ele>
        <time>2021-05-28T06:07:20Z</time>
      </trkpt>
      <trkpt lat="38.2113991398" lon="-6.0462401714">
        <ele>648.55</ele>
        <time>2021-05-28T06:07:21Z</time>
      </trkpt>
      <trkpt lat="38.2111598365" lon="-6.0463477951">
        <ele>649.99</ele>
        <time>2021-05-28T06:07:22Z</time>
      </trkpt>
      <trkpt lat="38.2109260652" lon="-6.0464785527">
        <ele>651.91</ele>
        <time>2021-05-28T06:07:23Z</time>
      </trkpt>
      <trkpt lat="38.2106966525" lon="-6.0466230568">
        <ele>653.83</ele>
        <time>2021-05-28T06:07:24Z</time>
      </trkpt>
      <trkpt lat="38.2102487236" lon="-6.0469233803">
        <ele>656.72</ele>
        <time>2021-05-28T06:07:26Z</time>
      </trkpt>
      <trkpt lat="38.2095863018" lon="-6.0473643523">
        <ele>660.08</ele>
        <time>2021-05-28T06:07:29Z</time>
      </trkpt>
      <trkpt lat="38.2093645167" lon="-6.0475130472">
        <ele>659.60</ele>
        <time>2021-05-28T06:07:30Z</time>
      </trkpt>
      <trkpt lat="38.2082446944" lon="-6.0482571926">
        <ele>656.72</ele>
        <time>2021-05-28T06:07:35Z</time>
      </trkpt>
      <trkpt lat="38.2076518424" lon="-6.0486479569">
        <ele>651.43</ele>
        <time>2021-05-28T06:07:38Z</time>
      </trkpt>
      <trkpt lat="38.2072469965" lon="-6.0489176866">
        <ele>648.07</ele>
        <time>2021-05-28T06:07:40Z</time>
      </trkpt>
      <trkpt lat="38.2066212036" lon="-6.0493398830">
        <ele>645.66</ele>
        <time>2021-05-28T06:07:43Z</time>
      </trkpt>
      <trkpt lat="38.2061954867" lon="-6.0496237781">
        <ele>637.97</ele>
        <time>2021-05-28T06:07:45Z</time>
      </trkpt>
      <trkpt lat="38.2059814967" lon="-6.0497650970">
        <ele>638.45</ele>
        <time>2021-05-28T06:07:46Z</time>
      </trkpt>
      <trkpt lat="38.2055438776" lon="-6.0500565358">
        <ele>635.57</ele>
        <time>2021-05-28T06:07:48Z</time>
      </trkpt>
      <trkpt lat="38.2051076833" lon="-6.0503486451">
        <ele>631.72</ele>
        <time>2021-05-28T06:07:50Z</time>
      </trkpt>
      <trkpt lat="38.2042174414" lon="-6.0509108193">
        <ele>627.40</ele>
        <time>2021-05-28T06:07:54Z</time>
      </trkpt>
      <trkpt lat="38.2034822647" lon="-6.0512115620">
        <ele>623.07</ele>
        <time>2021-05-28T06:07:57Z</time>
      </trkpt>
      <trkpt lat="38.2029860560" lon="-6.0513333511">
        <ele>619.23</ele>
        <time>2021-05-28T06:07:59Z</time>
      </trkpt>
      <trkpt lat="38.2025069464" lon="-6.0514706466">
        <ele>615.38</ele>
        <time>2021-05-28T06:08:01Z</time>
      </trkpt>
      <trkpt lat="38.2020352129" lon="-6.0517014842">
        <ele>612.98</ele>
        <time>2021-05-28T06:08:03Z</time>
      </trkpt>
      <trkpt lat="38.2018051296" lon="-6.0518586449">
        <ele>612.50</ele>
        <time>2021-05-28T06:08:04Z</time>
      </trkpt>
      <trkpt lat="38.2015857752" lon="-6.0520365089">
        <ele>611.06</ele>
        <time>2021-05-28T06:08:05Z</time>
      </trkpt>
      <trkpt lat="38.2011852041" lon="-6.0523931589">
        <ele>605.77</ele>
        <time>2021-05-28T06:08:07Z</time>
      </trkpt>
      <trkpt lat="38.2007935178" lon="-6.0526858550">
        <ele>600.96</ele>
        <time>2021-05-28T06:08:09Z</time>
      </trkpt>
      <trkpt lat="38.2005860656" lon="-6.0527909640">
        <ele>598.56</ele>
        <time>2021-05-28T06:08:10Z</time>
      </trkpt>
      <trkpt lat="38.2003706507" lon="-6.0528653953">
        <ele>597.60</ele>
        <time>2021-05-28T06:08:11Z</time>
      </trkpt>
      <trkpt lat="38.2001462672" lon="-6.0529144295">
        <ele>596.15</ele>
        <time>2021-05-28T06:08:12Z</time>
      </trkpt>
      <trkpt lat="38.1999146752" lon="-6.0529509746">
        <ele>595.67</ele>
        <time>2021-05-28T06:08:13Z</time>
      </trkpt>
      <trkpt lat="38.1996806525" lon="-6.0529948119">
        <ele>595.67</ele>
        <time>2021-05-28T06:08:14Z</time>
      </trkpt>
      <trkpt lat="38.1992286164" lon="-6.0531378072">
        <ele>590.87</ele>
        <time>2021-05-28T06:08:16Z</time>
      </trkpt>
      <trkpt lat="38.1990082562" lon="-6.0532535613">
        <ele>589.43</ele>
        <time>2021-05-28T06:08:17Z</time>
      </trkpt>
      <trkpt lat="38.1987908296" lon="-6.0534026753">
        <ele>588.95</ele>
        <time>2021-05-28T06:08:18Z</time>
      </trkpt>
      <trkpt lat="38.1985765044" lon="-6.0535769351">
        <ele>588.46</ele>
        <time>2021-05-28T06:08:19Z</time>
      </trkpt>
      <trkpt lat="38.1983605027" lon="-6.0537576489">
        <ele>587.50</ele>
        <time>2021-05-28T06:08:20Z</time>
      </trkpt>
      <trkpt lat="38.1979175191" lon="-6.0540777538">
        <ele>581.73</ele>
        <time>2021-05-28T06:08:22Z</time>
      </trkpt>
      <trkpt lat="38.1976919621" lon="-6.0541925021">
        <ele>579.33</ele>
        <time>2021-05-28T06:08:23Z</time>
      </trkpt>
      <trkpt lat="38.1974580232" lon="-6.0542765725">
        <ele>578.37</ele>
        <time>2021-05-28T06:08:24Z</time>
      </trkpt>
      <trkpt lat="38.1972164568" lon="-6.0543328989">
        <ele>575.49</ele>
        <time>2021-05-28T06:08:25Z</time>
      </trkpt>
      <trkpt lat="38.1969670951" lon="-6.0543741379">
        <ele>576.45</ele>
        <time>2021-05-28T06:08:26Z</time>
      </trkpt>
      <trkpt lat="38.1961863209" lon="-6.0544907302">
        <ele>572.60</ele>
        <time>2021-05-28T06:08:29Z</time>
      </trkpt>
      <trkpt lat="38.1959219556" lon="-6.0545335617">
        <ele>572.60</ele>
        <time>2021-05-28T06:08:30Z</time>
      </trkpt>
      <trkpt lat="38.1954009365" lon="-6.0546170454">
        <ele>567.32</ele>
        <time>2021-05-28T06:08:32Z</time>
      </trkpt>
      <trkpt lat="38.1948882993" lon="-6.0546586197">
        <ele>564.43</ele>
        <time>2021-05-28T06:08:34Z</time>
      </trkpt>
      <trkpt lat="38.1943696272" lon="-6.0546042211">
        <ele>560.59</ele>
        <time>2021-05-28T06:08:36Z</time>
      </trkpt>
      <trkpt lat="38.1935796328" lon="-6.0543456394">
        <ele>557.22</ele>
        <time>2021-05-28T06:08:39Z</time>
      </trkpt>
      <trkpt lat="38.1930527464" lon="-6.0541559570">
        <ele>553.86</ele>
        <time>2021-05-28T06:08:41Z</time>
      </trkpt>
      <trkpt lat="38.1925231777" lon="-6.0540498421">
        <ele>549.05</ele>
        <time>2021-05-28T06:08:43Z</time>
      </trkpt>
      <trkpt lat="38.1919941958" lon="-6.0540541168">
        <ele>544.24</ele>
        <time>2021-05-28T06:08:45Z</time>
      </trkpt>
      <trkpt lat="38.1914718356" lon="-6.0541733913">
        <ele>542.32</ele>
        <time>2021-05-28T06:08:47Z</time>
      </trkpt>
      <trkpt lat="38.1912231445" lon="-6.0542761534">
        <ele>540.40</ele>
        <time>2021-05-28T06:08:48Z</time>
      </trkpt>
      <trkpt lat="38.1909830030" lon="-6.0544069111">
        <ele>537.99</ele>
        <time>2021-05-28T06:08:49Z</time>
      </trkpt>
      <trkpt lat="38.1907525845" lon="-6.0545576178">
        <ele>536.55</ele>
        <time>2021-05-28T06:08:50Z</time>
      </trkpt>
      <trkpt lat="38.1905287039" lon="-6.0547328833">
        <ele>534.15</ele>
        <time>2021-05-28T06:08:51Z</time>
      </trkpt>
      <trkpt lat="38.1903159712" lon="-6.0549358930">
        <ele>532.71</ele>
        <time>2021-05-28T06:08:52Z</time>
      </trkpt>
      <trkpt lat="38.1901158951" lon="-6.0551647190">
        <ele>529.82</ele>
        <time>2021-05-28T06:08:53Z</time>
      </trkpt>
      <trkpt lat="38.1899306551" lon="-6.0554136615">
        <ele>528.86</ele>
        <time>2021-05-28T06:08:54Z</time>
      </trkpt>
      <trkpt lat="38.1897613406" lon="-6.0556810442">
        <ele>528.86</ele>
        <time>2021-05-28T06:08:55Z</time>
      </trkpt>
      <trkpt lat="38.1896117236" lon="-6.0559646040">
        <ele>527.42</ele>
        <time>2021-05-28T06:08:56Z</time>
      </trkpt>
      <trkpt lat="38.1894850731" lon="-6.0562611558">
        <ele>524.54</ele>
        <time>2021-05-28T06:08:57Z</time>
      </trkpt>
      <trkpt lat="38.1893792097" lon="-6.0565672629">
        <ele>522.13</ele>
        <time>2021-05-28T06:08:58Z</time>
      </trkpt>
      <trkpt lat="38.1892949715" lon="-6.0568829253">
        <ele>520.21</ele>
        <time>2021-05-28T06:08:59Z</time>
      </trkpt>
      <trkpt lat="38.1892316043" lon="-6.0572088137">
        <ele>519.73</ele>
        <time>2021-05-28T06:09:00Z</time>
      </trkpt>
      <trkpt lat="38.1891852524" lon="-6.0575445928">
        <ele>517.81</ele>
        <time>2021-05-28T06:09:01Z</time>
      </trkpt>
      <trkpt lat="38.1891549937" lon="-6.0578843951">
        <ele>516.85</ele>
        <time>2021-05-28T06:09:02Z</time>
      </trkpt>
      <trkpt lat="38.1890344620" lon="-6.0592172015">
        <ele>511.08</ele>
        <time>2021-05-28T06:09:06Z</time>
      </trkpt>
      <trkpt lat="38.1888156105" lon="-6.0601790249">
        <ele>508.19</ele>
        <time>2021-05-28T06:09:09Z</time>
      </trkpt>
      <trkpt lat="38.1885904726" lon="-6.0607945081">
        <ele>504.83</ele>
        <time>2021-05-28T06:09:11Z</time>
      </trkpt>
      <trkpt lat="38.1883003749" lon="-6.0613798164">
        <ele>503.87</ele>
        <time>2021-05-28T06:09:13Z</time>
      </trkpt>
      <trkpt lat="38.1875950377" lon="-6.0624589864">
        <ele>499.06</ele>
        <time>2021-05-28T06:09:17Z</time>
      </trkpt>
      <trkpt lat="38.1874157488" lon="-6.0627185740">
        <ele>498.58</ele>
        <time>2021-05-28T06:09:18Z</time>
      </trkpt>
      <trkpt lat="38.1868138444" lon="-6.0638834070">
        <ele>495.70</ele>
        <time>2021-05-28T06:09:22Z</time>
      </trkpt>
      <trkpt lat="38.1863391772" lon="-6.0658764560">
        <ele>493.77</ele>
        <time>2021-05-28T06:09:28Z</time>
      </trkpt>
      <trkpt lat="38.1862295419" lon="-6.0664998181">
        <ele>488.97</ele>
        <time>2021-05-28T06:09:30Z</time>
      </trkpt>
      <trkpt lat="38.1860760693" lon="-6.0670768283">
        <ele>487.05</ele>
        <time>2021-05-28T06:09:32Z</time>
      </trkpt>
      <trkpt lat="38.1859729718" lon="-6.0673509166">
        <ele>486.08</ele>
        <time>2021-05-28T06:09:33Z</time>
      </trkpt>
      <trkpt lat="38.1858551223" lon="-6.0676139407">
        <ele>485.12</ele>
        <time>2021-05-28T06:09:34Z</time>
      </trkpt>
      <trkpt lat="38.1857214309" lon="-6.0678704269">
        <ele>486.08</ele>
        <time>2021-05-28T06:09:35Z</time>
      </trkpt>
      <trkpt lat="38.1855709758" lon="-6.0681184474">
        <ele>485.60</ele>
        <time>2021-05-28T06:09:36Z</time>
      </trkpt>
      <trkpt lat="38.1854069419" lon="-6.0683551524">
        <ele>484.64</ele>
        <time>2021-05-28T06:09:37Z</time>
      </trkpt>
      <trkpt lat="38.1847925484" lon="-6.0693443846">
        <ele>482.24</ele>
        <time>2021-05-28T06:09:41Z</time>
      </trkpt>
      <trkpt lat="38.1846819911" lon="-6.0696219094">
        <ele>481.28</ele>
        <time>2021-05-28T06:09:42Z</time>
      </trkpt>
      <trkpt lat="38.1845977530" lon="-6.0699134320">
        <ele>480.80</ele>
        <time>2021-05-28T06:09:43Z</time>
      </trkpt>
      <trkpt lat="38.1845389958" lon="-6.0702197067">
        <ele>480.32</ele>
        <time>2021-05-28T06:09:44Z</time>
      </trkpt>
      <trkpt lat="38.1845041271" lon="-6.0705388058">
        <ele>480.80</ele>
        <time>2021-05-28T06:09:45Z</time>
      </trkpt>
      <trkpt lat="38.1844946556" lon="-6.0708627664">
        <ele>481.28</ele>
        <time>2021-05-28T06:09:46Z</time>
      </trkpt>
      <trkpt lat="38.1845113356" lon="-6.0711901635">
        <ele>482.72</ele>
        <time>2021-05-28T06:09:47Z</time>
      </trkpt>
      <trkpt lat="38.1845418457" lon="-6.0715121962">
        <ele>483.68</ele>
        <time>2021-05-28T06:09:48Z</time>
      </trkpt>
      <trkpt lat="38.1845401693" lon="-6.0726721678">
        <ele>485.60</ele>
        <time>2021-05-28T06:09:52Z</time>
      </trkpt>
      <trkpt lat="38.1844902132" lon="-6.0729233734">
        <ele>487.05</ele>
        <time>2021-05-28T06:09:53Z</time>
      </trkpt>
      <trkpt lat="38.1844181288" lon="-6.0731667839">
        <ele>488.49</ele>
        <time>2021-05-28T06:09:54Z</time>
      </trkpt>
      <trkpt lat="38.1843212340" lon="-6.0734033212">
        <ele>488.97</ele>
        <time>2021-05-28T06:09:55Z</time>
      </trkpt>
      <trkpt lat="38.1842017919" lon="-6.0736316442">
        <ele>489.93</ele>
        <time>2021-05-28T06:09:56Z</time>
      </trkpt>
      <trkpt lat="38.1840606406" lon="-6.0738484841">
        <ele>490.89</ele>
        <time>2021-05-28T06:09:57Z</time>
      </trkpt>
      <trkpt lat="38.1838987861" lon="-6.0740529187">
        <ele>491.37</ele>
        <time>2021-05-28T06:09:58Z</time>
      </trkpt>
      <trkpt lat="38.1837153062" lon="-6.0742356442">
        <ele>491.37</ele>
        <time>2021-05-28T06:09:59Z</time>
      </trkpt>
      <trkpt lat="38.1835133024" lon="-6.0743882786">
        <ele>491.37</ele>
        <time>2021-05-28T06:10:00Z</time>
      </trkpt>
      <trkpt lat="38.1832947023" lon="-6.0745140910">
        <ele>490.89</ele>
        <time>2021-05-28T06:10:01Z</time>
      </trkpt>
      <trkpt lat="38.1830614340" lon="-6.0746154282">
        <ele>490.89</ele>
        <time>2021-05-28T06:10:02Z</time>
      </trkpt>
      <trkpt lat="38.1828181073" lon="-6.0746963974">
        <ele>491.85</ele>
        <time>2021-05-28T06:10:03Z</time>
      </trkpt>
      <trkpt lat="38.1825710926" lon="-6.0747675598">
        <ele>490.41</ele>
        <time>2021-05-28T06:10:04Z</time>
      </trkpt>
      <trkpt lat="38.1820887141" lon="-6.0749375448">
        <ele>487.05</ele>
        <time>2021-05-28T06:10:06Z</time>
      </trkpt>
      <trkpt lat="38.1818625703" lon="-6.0750582442">
        <ele>485.12</ele>
        <time>2021-05-28T06:10:07Z</time>
      </trkpt>
      <trkpt lat="38.1816484965" lon="-6.0752097052">
        <ele>483.68</ele>
        <time>2021-05-28T06:10:08Z</time>
      </trkpt>
      <trkpt lat="38.1814473309" lon="-6.0753967892">
        <ele>481.76</ele>
        <time>2021-05-28T06:10:09Z</time>
      </trkpt>
      <trkpt lat="38.1812575646" lon="-6.0756079294">
        <ele>481.76</ele>
        <time>2021-05-28T06:10:10Z</time>
      </trkpt>
      <trkpt lat="38.1810791977" lon="-6.0758274514">
        <ele>480.80</ele>
        <time>2021-05-28T06:10:11Z</time>
      </trkpt>
      <trkpt lat="38.1805538200" lon="-6.0764137655">
        <ele>478.39</ele>
        <time>2021-05-28T06:10:14Z</time>
      </trkpt>
      <trkpt lat="38.1803647242" lon="-6.0765578505">
        <ele>477.43</ele>
        <time>2021-05-28T06:10:15Z</time>
      </trkpt>
      <trkpt lat="38.1801637262" lon="-6.0766697489">
        <ele>476.47</ele>
        <time>2021-05-28T06:10:16Z</time>
      </trkpt>
      <trkpt lat="38.1799504068" lon="-6.0767485388">
        <ele>477.43</ele>
        <time>2021-05-28T06:10:17Z</time>
      </trkpt>
      <trkpt lat="38.1797246821" lon="-6.0767935496">
        <ele>476.95</ele>
        <time>2021-05-28T06:10:18Z</time>
      </trkpt>
      <trkpt lat="38.1794911623" lon="-6.0767994169">
        <ele>477.91</ele>
        <time>2021-05-28T06:10:19Z</time>
      </trkpt>
      <trkpt lat="38.1792557985" lon="-6.0767635424">
        <ele>478.39</ele>
        <time>2021-05-28T06:10:20Z</time>
      </trkpt>
      <trkpt lat="38.1790194288" lon="-6.0766897816">
        <ele>478.87</ele>
        <time>2021-05-28T06:10:21Z</time>
      </trkpt>
      <trkpt lat="38.1787833944" lon="-6.0765825771">
        <ele>478.87</ele>
        <time>2021-05-28T06:10:22Z</time>
      </trkpt>
      <trkpt lat="38.1785518024" lon="-6.0764530767">
        <ele>477.91</ele>
        <time>2021-05-28T06:10:23Z</time>
      </trkpt>
      <trkpt lat="38.1781015266" lon="-6.0761971772">
        <ele>473.59</ele>
        <time>2021-05-28T06:10:25Z</time>
      </trkpt>
      <trkpt lat="38.1776430365" lon="-6.0759970173">
        <ele>470.70</ele>
        <time>2021-05-28T06:10:27Z</time>
      </trkpt>
      <trkpt lat="38.1774025597" lon="-6.0759360809">
        <ele>470.22</ele>
        <time>2021-05-28T06:10:28Z</time>
      </trkpt>
      <trkpt lat="38.1771582272" lon="-6.0759017989">
        <ele>469.26</ele>
        <time>2021-05-28T06:10:29Z</time>
      </trkpt>
      <trkpt lat="38.1769089494" lon="-6.0758895613">
        <ele>468.30</ele>
        <time>2021-05-28T06:10:30Z</time>
      </trkpt>
      <trkpt lat="38.1766579952" lon="-6.0759029724">
        <ele>467.34</ele>
        <time>2021-05-28T06:10:31Z</time>
      </trkpt>
      <trkpt lat="38.1764038559" lon="-6.0759463906">
        <ele>465.90</ele>
        <time>2021-05-28T06:10:32Z</time>
      </trkpt>
      <trkpt lat="38.1761475373" lon="-6.0760171339">
        <ele>464.93</ele>
        <time>2021-05-28T06:10:33Z</time>
      </trkpt>
      <trkpt lat="38.1758915540" lon="-6.0761121847">
        <ele>464.45</ele>
        <time>2021-05-28T06:10:34Z</time>
      </trkpt>
      <trkpt lat="38.1756419409" lon="-6.0762256756">
        <ele>464.93</ele>
        <time>2021-05-28T06:10:35Z</time>
      </trkpt>
      <trkpt lat="38.1751905754" lon="-6.0764394980">
        <ele>461.57</ele>
        <time>2021-05-28T06:10:37Z</time>
      </trkpt>
      <trkpt lat="38.1749791838" lon="-6.0765207186">
        <ele>461.09</ele>
        <time>2021-05-28T06:10:38Z</time>
      </trkpt>
      <trkpt lat="38.1747659482" lon="-6.0765696689">
        <ele>459.17</ele>
        <time>2021-05-28T06:10:39Z</time>
      </trkpt>
      <trkpt lat="38.1745489407" lon="-6.0765826609">
        <ele>460.13</ele>
        <time>2021-05-28T06:10:40Z</time>
      </trkpt>
      <trkpt lat="38.1743269041" lon="-6.0765612870">
        <ele>461.09</ele>
        <time>2021-05-28T06:10:41Z</time>
      </trkpt>
      <trkpt lat="38.1741026044" lon="-6.0765049607">
        <ele>461.09</ele>
        <time>2021-05-28T06:10:42Z</time>
      </trkpt>
      <trkpt lat="38.1738786399" lon="-6.0764096584">
        <ele>461.57</ele>
        <time>2021-05-28T06:10:43Z</time>
      </trkpt>
      <trkpt lat="38.1736555975" lon="-6.0762747098">
        <ele>463.49</ele>
        <time>2021-05-28T06:10:44Z</time>
      </trkpt>
      <trkpt lat="38.1734363269" lon="-6.0761091672">
        <ele>464.45</ele>
        <time>2021-05-28T06:10:45Z</time>
      </trkpt>
      <trkpt lat="38.1732178107" lon="-6.0759258550">
        <ele>464.93</ele>
        <time>2021-05-28T06:10:46Z</time>
      </trkpt>
      <trkpt lat="38.1704984698" lon="-6.0736520123">
        <ele>462.53</ele>
        <time>2021-05-28T06:10:58Z</time>
      </trkpt>
      <trkpt lat="38.1702750921" lon="-6.0735099390">
        <ele>462.05</ele>
        <time>2021-05-28T06:10:59Z</time>
      </trkpt>
      <trkpt lat="38.1700414047" lon="-6.0733904969">
        <ele>462.53</ele>
        <time>2021-05-28T06:11:00Z</time>
      </trkpt>
      <trkpt lat="38.1697967369" lon="-6.0732968710">
        <ele>463.01</ele>
        <time>2021-05-28T06:11:01Z</time>
      </trkpt>
      <trkpt lat="38.1695454475" lon="-6.0732293129">
        <ele>463.49</ele>
        <time>2021-05-28T06:11:02Z</time>
      </trkpt>
      <trkpt lat="38.1692924816" lon="-6.0731934384">
        <ele>463.49</ele>
        <time>2021-05-28T06:11:03Z</time>
      </trkpt>
      <trkpt lat="38.1690428685" lon="-6.0731900018">
        <ele>463.49</ele>
        <time>2021-05-28T06:11:04Z</time>
      </trkpt>
      <trkpt lat="38.1687977817" lon="-6.0732169077">
        <ele>463.49</ele>
        <time>2021-05-28T06:11:05Z</time>
      </trkpt>
      <trkpt lat="38.1685538683" lon="-6.0732671991">
        <ele>464.93</ele>
        <time>2021-05-28T06:11:06Z</time>
      </trkpt>
      <trkpt lat="38.1683108769" lon="-6.0733464081">
        <ele>465.90</ele>
        <time>2021-05-28T06:11:07Z</time>
      </trkpt>
      <trkpt lat="38.1680696458" lon="-6.0734566301">
        <ele>466.86</ele>
        <time>2021-05-28T06:11:08Z</time>
      </trkpt>
      <trkpt lat="38.1678363774" lon="-6.0735907406">
        <ele>467.82</ele>
        <time>2021-05-28T06:11:09Z</time>
      </trkpt>
      <trkpt lat="38.1676140893" lon="-6.0737505835">
        <ele>467.82</ele>
        <time>2021-05-28T06:11:10Z</time>
      </trkpt>
      <trkpt lat="38.1674012728" lon="-6.0739340633">
        <ele>468.78</ele>
        <time>2021-05-28T06:11:11Z</time>
      </trkpt>
      <trkpt lat="38.1672005262" lon="-6.0741422698">
        <ele>468.78</ele>
        <time>2021-05-28T06:11:12Z</time>
      </trkpt>
      <trkpt lat="38.1670107599" lon="-6.0743753705">
        <ele>468.78</ele>
        <time>2021-05-28T06:11:13Z</time>
      </trkpt>
      <trkpt lat="38.1668294594" lon="-6.0746264923">
        <ele>469.26</ele>
        <time>2021-05-28T06:11:14Z</time>
      </trkpt>
      <trkpt lat="38.1661415566" lon="-6.0756559577">
        <ele>465.42</ele>
        <time>2021-05-28T06:11:18Z</time>
      </trkpt>
      <trkpt lat="38.1655620318" lon="-6.0763517395">
        <ele>462.53</ele>
        <time>2021-05-28T06:11:21Z</time>
      </trkpt>
      <trkpt lat="38.1653386541" lon="-6.0765437689">
        <ele>462.05</ele>
        <time>2021-05-28T06:11:22Z</time>
      </trkpt>
      <trkpt lat="38.1651036255" lon="-6.0767147597">
        <ele>461.57</ele>
        <time>2021-05-28T06:11:23Z</time>
      </trkpt>
      <trkpt lat="38.1640960369" lon="-6.0773114674">
        <ele>457.72</ele>
        <time>2021-05-28T06:11:27Z</time>
      </trkpt>
      <trkpt lat="38.1638429873" lon="-6.0774625931">
        <ele>457.72</ele>
        <time>2021-05-28T06:11:28Z</time>
      </trkpt>
      <trkpt lat="38.1631098222" lon="-6.0779807623">
        <ele>456.28</ele>
        <time>2021-05-28T06:11:31Z</time>
      </trkpt>
      <trkpt lat="38.1621957757" lon="-6.0788253229">
        <ele>453.88</ele>
        <time>2021-05-28T06:11:35Z</time>
      </trkpt>
      <trkpt lat="38.1611974072" lon="-6.0801163036">
        <ele>450.03</ele>
        <time>2021-05-28T06:11:40Z</time>
      </trkpt>
      <trkpt lat="38.1610183697" lon="-6.0804008693">
        <ele>449.55</ele>
        <time>2021-05-28T06:11:41Z</time>
      </trkpt>
      <trkpt lat="38.1605259329" lon="-6.0813080426">
        <ele>446.67</ele>
        <time>2021-05-28T06:11:44Z</time>
      </trkpt>
      <trkpt lat="38.1601133756" lon="-6.0822861269">
        <ele>442.34</ele>
        <time>2021-05-28T06:11:47Z</time>
      </trkpt>
      <trkpt lat="38.1592307612" lon="-6.0849624686">
        <ele>444.27</ele>
        <time>2021-05-28T06:11:55Z</time>
      </trkpt>
      <trkpt lat="38.1588734407" lon="-6.0859238729">
        <ele>450.03</ele>
        <time>2021-05-28T06:11:58Z</time>
      </trkpt>
      <trkpt lat="38.1584485620" lon="-6.0868391767">
        <ele>453.88</ele>
        <time>2021-05-28T06:12:01Z</time>
      </trkpt>
      <trkpt lat="38.1583024655" lon="-6.0871309508">
        <ele>453.88</ele>
        <time>2021-05-28T06:12:02Z</time>
      </trkpt>
      <trkpt lat="38.1577626709" lon="-6.0882132221">
        <ele>450.03</ele>
        <time>2021-05-28T06:12:06Z</time>
      </trkpt>
      <trkpt lat="38.1576340925" lon="-6.0884571355">
        <ele>450.52</ele>
        <time>2021-05-28T06:12:07Z</time>
      </trkpt>
      <trkpt lat="38.1573402230" lon="-6.0889040586">
        <ele>450.52</ele>
        <time>2021-05-28T06:12:09Z</time>
      </trkpt>
      <trkpt lat="38.1571714953" lon="-6.0891007818">
        <ele>450.52</ele>
        <time>2021-05-28T06:12:10Z</time>
      </trkpt>
      <trkpt lat="38.1569865067" lon="-6.0892770533">
        <ele>449.55</ele>
        <time>2021-05-28T06:12:11Z</time>
      </trkpt>
      <trkpt lat="38.1567875203" lon="-6.0894290172">
        <ele>449.55</ele>
        <time>2021-05-28T06:12:12Z</time>
      </trkpt>
      <trkpt lat="38.1565788109" lon="-6.0895528179">
        <ele>451.00</ele>
        <time>2021-05-28T06:12:13Z</time>
      </trkpt>
      <trkpt lat="38.1563589536" lon="-6.0896478686">
        <ele>451.96</ele>
        <time>2021-05-28T06:12:14Z</time>
      </trkpt>
      <trkpt lat="38.1561243441" lon="-6.0897168517">
        <ele>453.40</ele>
        <time>2021-05-28T06:12:15Z</time>
      </trkpt>
      <trkpt lat="38.1558739766" lon="-6.0897595156">
        <ele>455.32</ele>
        <time>2021-05-28T06:12:16Z</time>
      </trkpt>
      <trkpt lat="38.1556150597" lon="-6.0897808056">
        <ele>457.24</ele>
        <time>2021-05-28T06:12:17Z</time>
      </trkpt>
      <trkpt lat="38.1550751813" lon="-6.0897887684">
        <ele>460.13</ele>
        <time>2021-05-28T06:12:19Z</time>
      </trkpt>
      <trkpt lat="38.1542437803" lon="-6.0896574240">
        <ele>465.42</ele>
        <time>2021-05-28T06:12:22Z</time>
      </trkpt>
      <trkpt lat="38.1539719552" lon="-6.0895627923">
        <ele>465.42</ele>
        <time>2021-05-28T06:12:23Z</time>
      </trkpt>
      <trkpt lat="38.1527472753" lon="-6.0891895462">
        <ele>467.34</ele>
        <time>2021-05-28T06:12:28Z</time>
      </trkpt>
      <trkpt lat="38.1525094807" lon="-6.0891942400">
        <ele>467.82</ele>
        <time>2021-05-28T06:12:29Z</time>
      </trkpt>
      <trkpt lat="38.1522700936" lon="-6.0892304499">
        <ele>468.78</ele>
        <time>2021-05-28T06:12:30Z</time>
      </trkpt>
      <trkpt lat="38.1520333048" lon="-6.0892994329">
        <ele>470.22</ele>
        <time>2021-05-28T06:12:31Z</time>
      </trkpt>
      <trkpt lat="38.1518048979" lon="-6.0894037876">
        <ele>470.22</ele>
        <time>2021-05-28T06:12:32Z</time>
      </trkpt>
      <trkpt lat="38.1515847892" lon="-6.0895435978">
        <ele>470.22</ele>
        <time>2021-05-28T06:12:33Z</time>
      </trkpt>
      <trkpt lat="38.1513732299" lon="-6.0897150077">
        <ele>471.66</ele>
        <time>2021-05-28T06:12:34Z</time>
      </trkpt>
      <trkpt lat="38.1511661969" lon="-6.0899162572">
        <ele>472.14</ele>
        <time>2021-05-28T06:12:35Z</time>
      </trkpt>
      <trkpt lat="38.1509629358" lon="-6.0901399702">
        <ele>471.66</ele>
        <time>2021-05-28T06:12:36Z</time>
      </trkpt>
      <trkpt lat="38.1501627993" lon="-6.0910542682">
        <ele>468.30</ele>
        <time>2021-05-28T06:12:40Z</time>
      </trkpt>
      <trkpt lat="38.1497468054" lon="-6.0914363991">
        <ele>464.45</ele>
        <time>2021-05-28T06:12:42Z</time>
      </trkpt>
      <trkpt lat="38.1487818807" lon="-6.0920034349">
        <ele>460.61</ele>
        <time>2021-05-28T06:12:46Z</time>
      </trkpt>
      <trkpt lat="38.1477329694" lon="-6.0924634337">
        <ele>456.76</ele>
        <time>2021-05-28T06:12:50Z</time>
      </trkpt>
      <trkpt lat="38.1472152192" lon="-6.0926883202">
        <ele>452.44</ele>
        <time>2021-05-28T06:12:52Z</time>
      </trkpt>
      <trkpt lat="38.1464577466" lon="-6.0930210818">
        <ele>448.59</ele>
        <time>2021-05-28T06:12:55Z</time>
      </trkpt>
      <trkpt lat="38.1454494875" lon="-6.0934707709">
        <ele>445.23</ele>
        <time>2021-05-28T06:12:59Z</time>
      </trkpt>
      <trkpt lat="38.1447157357" lon="-6.0937955696">
        <ele>439.94</ele>
        <time>2021-05-28T06:13:02Z</time>
      </trkpt>
      <trkpt lat="38.1440531462" lon="-6.0941300076">
        <ele>436.10</ele>
        <time>2021-05-28T06:13:05Z</time>
      </trkpt>
      <trkpt lat="38.1436586101" lon="-6.0944249667">
        <ele>434.65</ele>
        <time>2021-05-28T06:13:07Z</time>
      </trkpt>
      <trkpt lat="38.1434781477" lon="-6.0946110450">
        <ele>434.65</ele>
        <time>2021-05-28T06:13:08Z</time>
      </trkpt>
      <trkpt lat="38.1433110125" lon="-6.0948234424">
        <ele>434.17</ele>
        <time>2021-05-28T06:13:09Z</time>
      </trkpt>
      <trkpt lat="38.1431589648" lon="-6.0950623266">
        <ele>434.17</ele>
        <time>2021-05-28T06:13:10Z</time>
      </trkpt>
      <trkpt lat="38.1430239324" lon="-6.0953240097">
        <ele>434.17</ele>
        <time>2021-05-28T06:13:11Z</time>
      </trkpt>
      <trkpt lat="38.1429075077" lon="-6.0956050549">
        <ele>433.69</ele>
        <time>2021-05-28T06:13:12Z</time>
      </trkpt>
      <trkpt lat="38.1428025663" lon="-6.0959000979">
        <ele>432.25</ele>
        <time>2021-05-28T06:13:13Z</time>
      </trkpt>
      <trkpt lat="38.1426979601" lon="-6.0961975716">
        <ele>432.25</ele>
        <time>2021-05-28T06:13:14Z</time>
      </trkpt>
      <trkpt lat="38.1424442399" lon="-6.0967599973">
        <ele>428.89</ele>
        <time>2021-05-28T06:13:16Z</time>
      </trkpt>
      <trkpt lat="38.1422863249" lon="-6.0970196687">
        <ele>427.92</ele>
        <time>2021-05-28T06:13:17Z</time>
      </trkpt>
      <trkpt lat="38.1421076227" lon="-6.0972657613">
        <ele>428.40</ele>
        <time>2021-05-28T06:13:18Z</time>
      </trkpt>
      <trkpt lat="38.1409382634" lon="-6.0986853205">
        <ele>426.96</ele>
        <time>2021-05-28T06:13:24Z</time>
      </trkpt>
      <trkpt lat="38.1407749839" lon="-6.0989626776">
        <ele>428.40</ele>
        <time>2021-05-28T06:13:25Z</time>
      </trkpt>
      <trkpt lat="38.1406279653" lon="-6.0992576368">
        <ele>429.85</ele>
        <time>2021-05-28T06:13:26Z</time>
      </trkpt>
      <trkpt lat="38.1402082834" lon="-6.1001948174">
        <ele>435.13</ele>
        <time>2021-05-28T06:13:29Z</time>
      </trkpt>
      <trkpt lat="38.1400665455" lon="-6.1005077977">
        <ele>438.50</ele>
        <time>2021-05-28T06:13:30Z</time>
      </trkpt>
      <trkpt lat="38.1399303395" lon="-6.1008122284">
        <ele>438.50</ele>
        <time>2021-05-28T06:13:31Z</time>
      </trkpt>
      <trkpt lat="38.1395341270" lon="-6.1016769055">
        <ele>441.86</ele>
        <time>2021-05-28T06:13:34Z</time>
      </trkpt>
      <trkpt lat="38.1392426044" lon="-6.1021899618">
        <ele>445.23</ele>
        <time>2021-05-28T06:13:36Z</time>
      </trkpt>
      <trkpt lat="38.1390735414" lon="-6.1024218053">
        <ele>446.19</ele>
        <time>2021-05-28T06:13:37Z</time>
      </trkpt>
      <trkpt lat="38.1388841104" lon="-6.1026290059">
        <ele>447.63</ele>
        <time>2021-05-28T06:13:38Z</time>
      </trkpt>
      <trkpt lat="38.1386774965" lon="-6.1028056964">
        <ele>450.03</ele>
        <time>2021-05-28T06:13:39Z</time>
      </trkpt>
      <trkpt lat="38.1384546217" lon="-6.1029534694">
        <ele>451.96</ele>
        <time>2021-05-28T06:13:40Z</time>
      </trkpt>
      <trkpt lat="38.1382159889" lon="-6.1030716542">
        <ele>453.40</ele>
        <time>2021-05-28T06:13:41Z</time>
      </trkpt>
      <trkpt lat="38.1379690580" lon="-6.1031532101">
        <ele>455.80</ele>
        <time>2021-05-28T06:13:42Z</time>
      </trkpt>
      <trkpt lat="38.1377152540" lon="-6.1031997297">
        <ele>457.72</ele>
        <time>2021-05-28T06:13:43Z</time>
      </trkpt>
      <trkpt lat="38.1374540739" lon="-6.1032132246">
        <ele>460.13</ele>
        <time>2021-05-28T06:13:44Z</time>
      </trkpt>
      <trkpt lat="38.1371858530" lon="-6.1032050941">
        <ele>462.05</ele>
        <time>2021-05-28T06:13:45Z</time>
      </trkpt>
      <trkpt lat="38.1366401073" lon="-6.1031621788">
        <ele>466.86</ele>
        <time>2021-05-28T06:13:47Z</time>
      </trkpt>
      <trkpt lat="38.1360838003" lon="-6.1031205207">
        <ele>471.18</ele>
        <time>2021-05-28T06:13:49Z</time>
      </trkpt>
      <trkpt lat="38.1355276611" lon="-6.1030831374">
        <ele>473.11</ele>
        <time>2021-05-28T06:13:51Z</time>
      </trkpt>
      <trkpt lat="38.1347498205" lon="-6.1030544713">
        <ele>477.43</ele>
        <time>2021-05-28T06:13:54Z</time>
      </trkpt>
      <trkpt lat="38.1342750695" lon="-6.1031259689">
        <ele>479.84</ele>
        <time>2021-05-28T06:13:56Z</time>
      </trkpt>
      <trkpt lat="38.1340490934" lon="-6.1032070220">
        <ele>480.80</ele>
        <time>2021-05-28T06:13:57Z</time>
      </trkpt>
      <trkpt lat="38.1338300742" lon="-6.1033199262">
        <ele>484.16</ele>
        <time>2021-05-28T06:13:58Z</time>
      </trkpt>
      <trkpt lat="38.1336185988" lon="-6.1034635082">
        <ele>484.64</ele>
        <time>2021-05-28T06:13:59Z</time>
      </trkpt>
      <trkpt lat="38.1334197801" lon="-6.1036352534">
        <ele>486.56</ele>
        <time>2021-05-28T06:14:00Z</time>
      </trkpt>
      <trkpt lat="38.1332355458" lon="-6.1038371734">
        <ele>488.49</ele>
        <time>2021-05-28T06:14:01Z</time>
      </trkpt>
      <trkpt lat="38.1330678239" lon="-6.1040593777">
        <ele>491.37</ele>
        <time>2021-05-28T06:14:02Z</time>
      </trkpt>
      <trkpt lat="38.1329244096" lon="-6.1042985134">
        <ele>491.85</ele>
        <time>2021-05-28T06:14:03Z</time>
      </trkpt>
      <trkpt lat="38.1328043807" lon="-6.1045519821">
        <ele>492.33</ele>
        <time>2021-05-28T06:14:04Z</time>
      </trkpt>
      <trkpt lat="38.1327055581" lon="-6.1048201192">
        <ele>493.29</ele>
        <time>2021-05-28T06:14:05Z</time>
      </trkpt>
      <trkpt lat="38.1326297019" lon="-6.1050995719">
        <ele>495.22</ele>
        <time>2021-05-28T06:14:06Z</time>
      </trkpt>
      <trkpt lat="38.1325758900" lon="-6.1053907592">
        <ele>496.18</ele>
        <time>2021-05-28T06:14:07Z</time>
      </trkpt>
      <trkpt lat="38.1325449608" lon="-6.1056955252">
        <ele>497.62</ele>
        <time>2021-05-28T06:14:08Z</time>
      </trkpt>
      <trkpt lat="38.1325324718" lon="-6.1060124449">
        <ele>499.06</ele>
        <time>2021-05-28T06:14:09Z</time>
      </trkpt>
      <trkpt lat="38.1325320527" lon="-6.1063408479">
        <ele>499.54</ele>
        <time>2021-05-28T06:14:10Z</time>
      </trkpt>
      <trkpt lat="38.1325494032" lon="-6.1070154235">
        <ele>502.43</ele>
        <time>2021-05-28T06:14:12Z</time>
      </trkpt>
      <trkpt lat="38.1325669214" lon="-6.1090069637">
        <ele>505.79</ele>
        <time>2021-05-28T06:14:18Z</time>
      </trkpt>
      <trkpt lat="38.1325026322" lon="-6.1103520077">
        <ele>509.16</ele>
        <time>2021-05-28T06:14:22Z</time>
      </trkpt>
      <trkpt lat="38.1324031390" lon="-6.1113704089">
        <ele>512.52</ele>
        <time>2021-05-28T06:14:25Z</time>
      </trkpt>
      <trkpt lat="38.1323082559" lon="-6.1120487563">
        <ele>516.85</ele>
        <time>2021-05-28T06:14:27Z</time>
      </trkpt>
      <trkpt lat="38.1321231835" lon="-6.1130788084">
        <ele>521.17</ele>
        <time>2021-05-28T06:14:30Z</time>
      </trkpt>
      <trkpt lat="38.1315380428" lon="-6.1168608908">
        <ele>520.69</ele>
        <time>2021-05-28T06:14:41Z</time>
      </trkpt>
      <trkpt lat="38.1315354444" lon="-6.1211325601">
        <ele>520.21</ele>
        <time>2021-05-28T06:14:53Z</time>
      </trkpt>
      <trkpt lat="38.1312414072" lon="-6.1236006953">
        <ele>519.73</ele>
        <time>2021-05-28T06:15:00Z</time>
      </trkpt>
      <trkpt lat="38.1310963165" lon="-6.1242983211">
        <ele>516.37</ele>
        <time>2021-05-28T06:15:02Z</time>
      </trkpt>
      <trkpt lat="38.1308894511" lon="-6.1253060773">
        <ele>511.56</ele>
        <time>2021-05-28T06:15:05Z</time>
      </trkpt>
      <trkpt lat="38.1308206357" lon="-6.1256400123">
        <ele>512.04</ele>
        <time>2021-05-28T06:15:06Z</time>
      </trkpt>
      <trkpt lat="38.1306151114" lon="-6.1266152468">
        <ele>509.16</ele>
        <time>2021-05-28T06:15:09Z</time>
      </trkpt>
      <trkpt lat="38.1304448750" lon="-6.1272505112">
        <ele>507.23</ele>
        <time>2021-05-28T06:15:11Z</time>
      </trkpt>
      <trkpt lat="38.1299385242" lon="-6.1284574214">
        <ele>503.87</ele>
        <time>2021-05-28T06:15:15Z</time>
      </trkpt>
      <trkpt lat="38.1297801901" lon="-6.1287328508">
        <ele>504.35</ele>
        <time>2021-05-28T06:15:16Z</time>
      </trkpt>
      <trkpt lat="38.1284763012" lon="-6.1303555034">
        <ele>503.87</ele>
        <time>2021-05-28T06:15:23Z</time>
      </trkpt>
      <trkpt lat="38.1273937784" lon="-6.1313995533">
        <ele>504.35</ele>
        <time>2021-05-28T06:15:29Z</time>
      </trkpt>
      <trkpt lat="38.1271812972" lon="-6.1315055005">
        <ele>505.79</ele>
        <time>2021-05-28T06:15:30Z</time>
      </trkpt>
      <trkpt lat="38.1269549858" lon="-6.1315873917">
        <ele>506.75</ele>
        <time>2021-05-28T06:15:31Z</time>
      </trkpt>
      <trkpt lat="38.1265005190" lon="-6.1317214184">
        <ele>508.19</ele>
        <time>2021-05-28T06:15:33Z</time>
      </trkpt>
      <trkpt lat="38.1251237914" lon="-6.1322493944">
        <ele>506.75</ele>
        <time>2021-05-28T06:15:40Z</time>
      </trkpt>
      <trkpt lat="38.1249726657" lon="-6.1323876120">
        <ele>507.23</ele>
        <time>2021-05-28T06:15:41Z</time>
      </trkpt>
      <trkpt lat="38.1248352025" lon="-6.1325522326">
        <ele>508.19</ele>
        <time>2021-05-28T06:15:42Z</time>
      </trkpt>
      <trkpt lat="38.1247107312" lon="-6.1327378079">
        <ele>509.64</ele>
        <time>2021-05-28T06:15:43Z</time>
      </trkpt>
      <trkpt lat="38.1246024370" lon="-6.1329377163">
        <ele>510.60</ele>
        <time>2021-05-28T06:15:44Z</time>
      </trkpt>
      <trkpt lat="38.1245105714" lon="-6.1331542209">
        <ele>512.04</ele>
        <time>2021-05-28T06:15:45Z</time>
      </trkpt>
      <trkpt lat="38.1244384032" lon="-6.1333888303">
        <ele>514.44</ele>
        <time>2021-05-28T06:15:46Z</time>
      </trkpt>
      <trkpt lat="38.1243886147" lon="-6.1336388625">
        <ele>515.88</ele>
        <time>2021-05-28T06:15:47Z</time>
      </trkpt>
      <trkpt lat="38.1243620440" lon="-6.1339000426">
        <ele>517.81</ele>
        <time>2021-05-28T06:15:48Z</time>
      </trkpt>
      <trkpt lat="38.1243586075" lon="-6.1341639888">
        <ele>519.73</ele>
        <time>2021-05-28T06:15:49Z</time>
      </trkpt>
      <trkpt lat="38.1243783887" lon="-6.1344322097">
        <ele>520.69</ele>
        <time>2021-05-28T06:15:50Z</time>
      </trkpt>
      <trkpt lat="38.1244217232" lon="-6.1347058788">
        <ele>523.58</ele>
        <time>2021-05-28T06:15:51Z</time>
      </trkpt>
      <trkpt lat="38.1244843360" lon="-6.1349828169">
        <ele>525.50</ele>
        <time>2021-05-28T06:15:52Z</time>
      </trkpt>
      <trkpt lat="38.1245580129" lon="-6.1352631915">
        <ele>528.38</ele>
        <time>2021-05-28T06:15:53Z</time>
      </trkpt>
      <trkpt lat="38.1247267406" lon="-6.1358338315">
        <ele>533.67</ele>
        <time>2021-05-28T06:15:55Z</time>
      </trkpt>
      <trkpt lat="38.1252142321" lon="-6.1372022610">
        <ele>537.51</ele>
        <time>2021-05-28T06:16:00Z</time>
      </trkpt>
      <trkpt lat="38.1256645080" lon="-6.1382965185">
        <ele>539.92</ele>
        <time>2021-05-28T06:16:04Z</time>
      </trkpt>
      <trkpt lat="38.1260582898" lon="-6.1390308570">
        <ele>538.96</ele>
        <time>2021-05-28T06:16:07Z</time>
      </trkpt>
      <trkpt lat="38.1262178812" lon="-6.1392445955">
        <ele>538.96</ele>
        <time>2021-05-28T06:16:08Z</time>
      </trkpt>
      <trkpt lat="38.1263876148" lon="-6.1394458450">
        <ele>540.40</ele>
        <time>2021-05-28T06:16:09Z</time>
      </trkpt>
      <trkpt lat="38.1268599350" lon="-6.1400067620">
        <ele>537.03</ele>
        <time>2021-05-28T06:16:12Z</time>
      </trkpt>
      <trkpt lat="38.1269774493" lon="-6.1401968636">
        <ele>536.55</ele>
        <time>2021-05-28T06:16:13Z</time>
      </trkpt>
      <trkpt lat="38.1270741764" lon="-6.1404068302">
        <ele>535.11</ele>
        <time>2021-05-28T06:16:14Z</time>
      </trkpt>
      <trkpt lat="38.1271353643" lon="-6.1406359915">
        <ele>534.63</ele>
        <time>2021-05-28T06:16:15Z</time>
      </trkpt>
      <trkpt lat="38.1271563191" lon="-6.1408720259">
        <ele>534.63</ele>
        <time>2021-05-28T06:16:16Z</time>
      </trkpt>
      <trkpt lat="38.1271419860" lon="-6.1411088984">
        <ele>535.59</ele>
        <time>2021-05-28T06:16:17Z</time>
      </trkpt>
      <trkpt lat="38.1270993222" lon="-6.1413440946">
        <ele>536.55</ele>
        <time>2021-05-28T06:16:18Z</time>
      </trkpt>
      <trkpt lat="38.1270263158" lon="-6.1415682267">
        <ele>537.99</ele>
        <time>2021-05-28T06:16:19Z</time>
      </trkpt>
      <trkpt lat="38.1269246433" lon="-6.1417755112">
        <ele>538.96</ele>
        <time>2021-05-28T06:16:20Z</time>
      </trkpt>
      <trkpt lat="38.1267944723" lon="-6.1419577338">
        <ele>539.44</ele>
        <time>2021-05-28T06:16:21Z</time>
      </trkpt>
      <trkpt lat="38.1266384851" lon="-6.1421083566">
        <ele>540.40</ele>
        <time>2021-05-28T06:16:22Z</time>
      </trkpt>
      <trkpt lat="38.1264631357" lon="-6.1422193330">
        <ele>541.84</ele>
        <time>2021-05-28T06:16:23Z</time>
      </trkpt>
      <trkpt lat="38.1262758840" lon="-6.1422868073">
        <ele>542.32</ele>
        <time>2021-05-28T06:16:24Z</time>
      </trkpt>
      <trkpt lat="38.1260791607" lon="-6.1423042417">
        <ele>542.80</ele>
        <time>2021-05-28T06:16:25Z</time>
      </trkpt>
      <trkpt lat="38.1258795876" lon="-6.1422783416">
        <ele>544.24</ele>
        <time>2021-05-28T06:16:26Z</time>
      </trkpt>
      <trkpt lat="38.1256800983" lon="-6.1422110349">
        <ele>545.69</ele>
        <time>2021-05-28T06:16:27Z</time>
      </trkpt>
      <trkpt lat="38.1254863087" lon="-6.1421013996">
        <ele>548.09</ele>
        <time>2021-05-28T06:16:28Z</time>
      </trkpt>
      <trkpt lat="38.1252983026" lon="-6.1419570632">
        <ele>550.01</ele>
        <time>2021-05-28T06:16:29Z</time>
      </trkpt>
      <trkpt lat="38.1251147389" lon="-6.1417927779">
        <ele>551.93</ele>
        <time>2021-05-28T06:16:30Z</time>
      </trkpt>
      <trkpt lat="38.1247448456" lon="-6.1414440908">
        <ele>556.74</ele>
        <time>2021-05-28T06:16:32Z</time>
      </trkpt>
      <trkpt lat="38.1241805758" lon="-6.1409377400">
        <ele>561.55</ele>
        <time>2021-05-28T06:16:35Z</time>
      </trkpt>
      <trkpt lat="38.1238049828" lon="-6.1405980214">
        <ele>564.91</ele>
        <time>2021-05-28T06:16:37Z</time>
      </trkpt>
      <trkpt lat="38.1234025676" lon="-6.1402758211">
        <ele>569.72</ele>
        <time>2021-05-28T06:16:39Z</time>
      </trkpt>
      <trkpt lat="38.1227562390" lon="-6.1399431434">
        <ele>573.56</ele>
        <time>2021-05-28T06:16:42Z</time>
      </trkpt>
      <trkpt lat="38.1225231383" lon="-6.1398744117">
        <ele>574.53</ele>
        <time>2021-05-28T06:16:43Z</time>
      </trkpt>
      <trkpt lat="38.1222857628" lon="-6.1398299038">
        <ele>574.53</ele>
        <time>2021-05-28T06:16:44Z</time>
      </trkpt>
      <trkpt lat="38.1220452022" lon="-6.1398073565">
        <ele>575.49</ele>
        <time>2021-05-28T06:16:45Z</time>
      </trkpt>
      <trkpt lat="38.1217985228" lon="-6.1398078594">
        <ele>576.45</ele>
        <time>2021-05-28T06:16:46Z</time>
      </trkpt>
      <trkpt lat="38.1215479039" lon="-6.1398339272">
        <ele>577.41</ele>
        <time>2021-05-28T06:16:47Z</time>
      </trkpt>
      <trkpt lat="38.1212963630" lon="-6.1398861464">
        <ele>577.89</ele>
        <time>2021-05-28T06:16:48Z</time>
      </trkpt>
      <trkpt lat="38.1210475881" lon="-6.1399631761">
        <ele>578.85</ele>
        <time>2021-05-28T06:16:49Z</time>
      </trkpt>
      <trkpt lat="38.1208028365" lon="-6.1400697939">
        <ele>581.25</ele>
        <time>2021-05-28T06:16:50Z</time>
      </trkpt>
      <trkpt lat="38.1205662992" lon="-6.1401965283">
        <ele>581.25</ele>
        <time>2021-05-28T06:16:51Z</time>
      </trkpt>
      <trkpt lat="38.1203400716" lon="-6.1403441336">
        <ele>582.22</ele>
        <time>2021-05-28T06:16:52Z</time>
      </trkpt>
      <trkpt lat="38.1201245729" lon="-6.1405139510">
        <ele>581.25</ele>
        <time>2021-05-28T06:16:53Z</time>
      </trkpt>
      <trkpt lat="38.1199206412" lon="-6.1407048069">
        <ele>581.73</ele>
        <time>2021-05-28T06:16:54Z</time>
      </trkpt>
      <trkpt lat="38.1197295338" lon="-6.1409150250">
        <ele>582.70</ele>
        <time>2021-05-28T06:16:55Z</time>
      </trkpt>
      <trkpt lat="38.1195515860" lon="-6.1411450244">
        <ele>582.22</ele>
        <time>2021-05-28T06:16:56Z</time>
      </trkpt>
      <trkpt lat="38.1193863787" lon="-6.1413914524">
        <ele>581.73</ele>
        <time>2021-05-28T06:16:57Z</time>
      </trkpt>
      <trkpt lat="38.1192333251" lon="-6.1416519620">
        <ele>582.22</ele>
        <time>2021-05-28T06:16:58Z</time>
      </trkpt>
      <trkpt lat="38.1190908328" lon="-6.1419208534">
        <ele>581.25</ele>
        <time>2021-05-28T06:16:59Z</time>
      </trkpt>
      <trkpt lat="38.1186604220" lon="-6.1427338142">
        <ele>576.45</ele>
        <time>2021-05-28T06:17:02Z</time>
      </trkpt>
      <trkpt lat="38.1182315201" lon="-6.1435410753">
        <ele>572.60</ele>
        <time>2021-05-28T06:17:05Z</time>
      </trkpt>
      <trkpt lat="38.1170393620" lon="-6.1457806360">
        <ele>569.24</ele>
        <time>2021-05-28T06:17:13Z</time>
      </trkpt>
      <trkpt lat="38.1167623401" lon="-6.1462947819">
        <ele>565.39</ele>
        <time>2021-05-28T06:17:15Z</time>
      </trkpt>
      <trkpt lat="38.1163357850" lon="-6.1469516717">
        <ele>562.03</ele>
        <time>2021-05-28T06:17:18Z</time>
      </trkpt>
      <trkpt lat="38.1161679793" lon="-6.1471361574">
        <ele>560.11</ele>
        <time>2021-05-28T06:17:19Z</time>
      </trkpt>
      <trkpt lat="38.1159876008" lon="-6.1472989339">
        <ele>559.62</ele>
        <time>2021-05-28T06:17:20Z</time>
      </trkpt>
      <trkpt lat="38.1157986727" lon="-6.1474391632">
        <ele>558.18</ele>
        <time>2021-05-28T06:17:21Z</time>
      </trkpt>
      <trkpt lat="38.1154231634" lon="-6.1476762872">
        <ele>553.38</ele>
        <time>2021-05-28T06:17:23Z</time>
      </trkpt>
      <trkpt lat="38.1150667649" lon="-6.1478958093">
        <ele>550.01</ele>
        <time>2021-05-28T06:17:25Z</time>
      </trkpt>
      <trkpt lat="38.1147468276" lon="-6.1481406447">
        <ele>547.13</ele>
        <time>2021-05-28T06:17:27Z</time>
      </trkpt>
      <trkpt lat="38.1146044191" lon="-6.1482828017">
        <ele>547.13</ele>
        <time>2021-05-28T06:17:28Z</time>
      </trkpt>
      <trkpt lat="38.1140963919" lon="-6.1488625780">
        <ele>544.24</ele>
        <time>2021-05-28T06:17:32Z</time>
      </trkpt>
      <trkpt lat="38.1137405802" lon="-6.1492639035">
        <ele>540.88</ele>
        <time>2021-05-28T06:17:35Z</time>
      </trkpt>
      <trkpt lat="38.1131904759" lon="-6.1499053705">
        <ele>536.55</ele>
        <time>2021-05-28T06:17:41Z</time>
      </trkpt>
      <trkpt lat="38.1123045087" lon="-6.1509070080">
        <ele>537.03</ele>
        <time>2021-05-28T06:17:52Z</time>
      </trkpt>
      <trkpt lat="38.1114150211" lon="-6.1519404128">
        <ele>535.59</ele>
        <time>2021-05-28T06:18:03Z</time>
      </trkpt>
      <trkpt lat="38.1113610417" lon="-6.1520367209">
        <ele>536.07</ele>
        <time>2021-05-28T06:18:04Z</time>
      </trkpt>
      <trkpt lat="38.1113131810" lon="-6.1521430872">
        <ele>536.07</ele>
        <time>2021-05-28T06:18:05Z</time>
      </trkpt>
      <trkpt lat="38.1112742051" lon="-6.1522591766">
        <ele>536.07</ele>
        <time>2021-05-28T06:18:06Z</time>
      </trkpt>
      <trkpt lat="38.1112405099" lon="-6.1523872521">
        <ele>535.59</ele>
        <time>2021-05-28T06:18:07Z</time>
      </trkpt>
      <trkpt lat="38.1107754819" lon="-6.1541123316">
        <ele>536.55</ele>
        <time>2021-05-28T06:18:19Z</time>
      </trkpt>
      <trkpt lat="38.1105820276" lon="-6.1546588317">
        <ele>538.96</ele>
        <time>2021-05-28T06:18:22Z</time>
      </trkpt>
      <trkpt lat="38.1102097873" lon="-6.1554813478">
        <ele>544.72</ele>
        <time>2021-05-28T06:18:26Z</time>
      </trkpt>
      <trkpt lat="38.1098046899" lon="-6.1563052889">
        <ele>549.05</ele>
        <time>2021-05-28T06:18:30Z</time>
      </trkpt>
      <trkpt lat="38.1095934659" lon="-6.1567446683">
        <ele>551.93</ele>
        <time>2021-05-28T06:18:32Z</time>
      </trkpt>
      <trkpt lat="38.1093720160" lon="-6.1571972072">
        <ele>553.38</ele>
        <time>2021-05-28T06:18:34Z</time>
      </trkpt>
      <trkpt lat="38.1084961910" lon="-6.1583753675">
        <ele>553.38</ele>
        <time>2021-05-28T06:18:40Z</time>
      </trkpt>
      <trkpt lat="38.1083006412" lon="-6.1585101485">
        <ele>553.38</ele>
        <time>2021-05-28T06:18:41Z</time>
      </trkpt>
      <trkpt lat="38.1080956198" lon="-6.1586208735">
        <ele>552.41</ele>
        <time>2021-05-28T06:18:42Z</time>
      </trkpt>
      <trkpt lat="38.1078879163" lon="-6.1587071232">
        <ele>551.93</ele>
        <time>2021-05-28T06:18:43Z</time>
      </trkpt>
      <trkpt lat="38.1076742616" lon="-6.1587757710">
        <ele>550.97</ele>
        <time>2021-05-28T06:18:44Z</time>
      </trkpt>
      <trkpt lat="38.1074493751" lon="-6.1588373780">
        <ele>550.97</ele>
        <time>2021-05-28T06:18:45Z</time>
      </trkpt>
      <trkpt lat="38.1064981129" lon="-6.1590606719">
        <ele>547.61</ele>
        <time>2021-05-28T06:18:49Z</time>
      </trkpt>
      <trkpt lat="38.1062624976" lon="-6.1591173336">
        <ele>548.09</ele>
        <time>2021-05-28T06:18:50Z</time>
      </trkpt>
      <trkpt lat="38.1056280714" lon="-6.1593729816">
        <ele>546.17</ele>
        <time>2021-05-28T06:18:53Z</time>
      </trkpt>
      <trkpt lat="38.1054403167" lon="-6.1594996322">
        <ele>545.20</ele>
        <time>2021-05-28T06:18:54Z</time>
      </trkpt>
      <trkpt lat="38.1052676495" lon="-6.1596486624">
        <ele>545.20</ele>
        <time>2021-05-28T06:18:55Z</time>
      </trkpt>
      <trkpt lat="38.1051073875" lon="-6.1598188151">
        <ele>544.72</ele>
        <time>2021-05-28T06:18:56Z</time>
      </trkpt>
      <trkpt lat="38.1049603689" lon="-6.1600078270">
        <ele>544.72</ele>
        <time>2021-05-28T06:18:57Z</time>
      </trkpt>
      <trkpt lat="38.1048260909" lon="-6.1602144409">
        <ele>544.72</ele>
        <time>2021-05-28T06:18:58Z</time>
      </trkpt>
      <trkpt lat="38.1047063135" lon="-6.1604402494">
        <ele>544.72</ele>
        <time>2021-05-28T06:18:59Z</time>
      </trkpt>
      <trkpt lat="38.1046048924" lon="-6.1606815644">
        <ele>544.72</ele>
        <time>2021-05-28T06:19:00Z</time>
      </trkpt>
      <trkpt lat="38.1045201514" lon="-6.1609352846">
        <ele>545.69</ele>
        <time>2021-05-28T06:19:01Z</time>
      </trkpt>
      <trkpt lat="38.1044530962" lon="-6.1611990631">
        <ele>545.20</ele>
        <time>2021-05-28T06:19:02Z</time>
      </trkpt>
      <trkpt lat="38.1044035591" lon="-6.1614735704">
        <ele>544.72</ele>
        <time>2021-05-28T06:19:03Z</time>
      </trkpt>
      <trkpt lat="38.1043717917" lon="-6.1617599800">
        <ele>545.69</ele>
        <time>2021-05-28T06:19:04Z</time>
      </trkpt>
      <trkpt lat="38.1043508369" lon="-6.1620557774">
        <ele>545.69</ele>
        <time>2021-05-28T06:19:05Z</time>
      </trkpt>
      <trkpt lat="38.1042950973" lon="-6.1649182811">
        <ele>550.49</ele>
        <time>2021-05-28T06:19:14Z</time>
      </trkpt>
      <trkpt lat="38.1043103524" lon="-6.1652557366">
        <ele>550.97</ele>
        <time>2021-05-28T06:19:15Z</time>
      </trkpt>
      <trkpt lat="38.1043613981" lon="-6.1659389455">
        <ele>554.34</ele>
        <time>2021-05-28T06:19:17Z</time>
      </trkpt>
      <trkpt lat="38.1044287886" lon="-6.1666279379">
        <ele>558.66</ele>
        <time>2021-05-28T06:19:19Z</time>
      </trkpt>
      <trkpt lat="38.1045359094" lon="-6.1676705629">
        <ele>564.91</ele>
        <time>2021-05-28T06:19:22Z</time>
      </trkpt>
      <trkpt lat="38.1046161242" lon="-6.1687214021">
        <ele>569.24</ele>
        <time>2021-05-28T06:19:25Z</time>
      </trkpt>
      <trkpt lat="38.1046405993" lon="-6.1694208719">
        <ele>573.08</ele>
        <time>2021-05-28T06:19:27Z</time>
      </trkpt>
      <trkpt lat="38.1046443712" lon="-6.1701230239">
        <ele>576.93</ele>
        <time>2021-05-28T06:19:29Z</time>
      </trkpt>
      <trkpt lat="38.1046245061" lon="-6.1708335578">
        <ele>580.29</ele>
        <time>2021-05-28T06:19:31Z</time>
      </trkpt>
      <trkpt lat="38.1046066526" lon="-6.1711917166">
        <ele>580.29</ele>
        <time>2021-05-28T06:19:32Z</time>
      </trkpt>
      <trkpt lat="38.1045556068" lon="-6.1719154101">
        <ele>583.66</ele>
        <time>2021-05-28T06:19:34Z</time>
      </trkpt>
      <trkpt lat="38.1044616457" lon="-6.1730089132">
        <ele>586.54</ele>
        <time>2021-05-28T06:19:37Z</time>
      </trkpt>
      <trkpt lat="38.1043054909" lon="-6.1747412011">
        <ele>588.46</ele>
        <time>2021-05-28T06:19:42Z</time>
      </trkpt>
      <trkpt lat="38.1041557901" lon="-6.1764318310">
        <ele>592.79</ele>
        <time>2021-05-28T06:19:47Z</time>
      </trkpt>
      <trkpt lat="38.1040321570" lon="-6.1784379557">
        <ele>596.64</ele>
        <time>2021-05-28T06:19:53Z</time>
      </trkpt>
      <trkpt lat="38.1040897407" lon="-6.1804985628">
        <ele>597.60</ele>
        <time>2021-05-28T06:20:00Z</time>
      </trkpt>
      <trkpt lat="38.1041574664" lon="-6.1810745671">
        <ele>600.96</ele>
        <time>2021-05-28T06:20:02Z</time>
      </trkpt>
      <trkpt lat="38.1042445544" lon="-6.1816644855">
        <ele>604.81</ele>
        <time>2021-05-28T06:20:04Z</time>
      </trkpt>
      <trkpt lat="38.1043779105" lon="-6.1825730000">
        <ele>609.13</ele>
        <time>2021-05-28T06:20:07Z</time>
      </trkpt>
      <trkpt lat="38.1044604722" lon="-6.1831862200">
        <ele>613.46</ele>
        <time>2021-05-28T06:20:09Z</time>
      </trkpt>
      <trkpt lat="38.1045390107" lon="-6.1838061456">
        <ele>617.78</ele>
        <time>2021-05-28T06:20:11Z</time>
      </trkpt>
      <trkpt lat="38.1046115141" lon="-6.1844312679">
        <ele>622.11</ele>
        <time>2021-05-28T06:20:13Z</time>
      </trkpt>
      <trkpt lat="38.1046790723" lon="-6.1850710586">
        <ele>626.92</ele>
        <time>2021-05-28T06:20:15Z</time>
      </trkpt>
      <trkpt lat="38.1047082413" lon="-6.1853946000">
        <ele>629.80</ele>
        <time>2021-05-28T06:20:16Z</time>
      </trkpt>
      <trkpt lat="38.1047597900" lon="-6.1860465445">
        <ele>634.61</ele>
        <time>2021-05-28T06:20:18Z</time>
      </trkpt>
      <trkpt lat="38.1047961675" lon="-6.1867049430">
        <ele>637.97</ele>
        <time>2021-05-28T06:20:20Z</time>
      </trkpt>
      <trkpt lat="38.1048204750" lon="-6.1873722263">
        <ele>642.30</ele>
        <time>2021-05-28T06:20:22Z</time>
      </trkpt>
      <trkpt lat="38.1048313715" lon="-6.1880430300">
        <ele>647.10</ele>
        <time>2021-05-28T06:20:24Z</time>
      </trkpt>
      <trkpt lat="38.1048339698" lon="-6.1887185276">
        <ele>650.95</ele>
        <time>2021-05-28T06:20:26Z</time>
      </trkpt>
      <trkpt lat="38.1048326287" lon="-6.1897282116">
        <ele>654.80</ele>
        <time>2021-05-28T06:20:29Z</time>
      </trkpt>
      <trkpt lat="38.1048083212" lon="-6.1910149176">
        <ele>657.68</ele>
        <time>2021-05-28T06:20:33Z</time>
      </trkpt>
      <trkpt lat="38.1046479754" lon="-6.1922782380">
        <ele>661.04</ele>
        <time>2021-05-28T06:20:37Z</time>
      </trkpt>
      <trkpt lat="38.1045769807" lon="-6.1925929785">
        <ele>660.56</ele>
        <time>2021-05-28T06:20:38Z</time>
      </trkpt>
      <trkpt lat="38.1042863801" lon="-6.1935137305">
        <ele>663.45</ele>
        <time>2021-05-28T06:20:41Z</time>
      </trkpt>
      <trkpt lat="38.1040100288" lon="-6.1940801796">
        <ele>664.89</ele>
        <time>2021-05-28T06:20:43Z</time>
      </trkpt>
      <trkpt lat="38.1033580005" lon="-6.1951479502">
        <ele>669.22</ele>
        <time>2021-05-28T06:20:47Z</time>
      </trkpt>
      <trkpt lat="38.1031877641" lon="-6.1954110581">
        <ele>669.22</ele>
        <time>2021-05-28T06:20:48Z</time>
      </trkpt>
      <trkpt lat="38.1026851851" lon="-6.1961863004">
        <ele>672.58</ele>
        <time>2021-05-28T06:20:51Z</time>
      </trkpt>
      <trkpt lat="38.1025214866" lon="-6.1964420322">
        <ele>672.58</ele>
        <time>2021-05-28T06:20:52Z</time>
      </trkpt>
      <trkpt lat="38.1023617275" lon="-6.1966952495">
        <ele>676.91</ele>
        <time>2021-05-28T06:20:53Z</time>
      </trkpt>
      <trkpt lat="38.1022090930" lon="-6.1969458684">
        <ele>676.91</ele>
        <time>2021-05-28T06:20:54Z</time>
      </trkpt>
      <trkpt lat="38.1019482482" lon="-6.1974586733">
        <ele>679.79</ele>
        <time>2021-05-28T06:20:56Z</time>
      </trkpt>
      <trkpt lat="38.1018498447" lon="-6.1977279000">
        <ele>681.71</ele>
        <time>2021-05-28T06:20:57Z</time>
      </trkpt>
      <trkpt lat="38.1017760001" lon="-6.1980081070">
        <ele>682.67</ele>
        <time>2021-05-28T06:20:58Z</time>
      </trkpt>
      <trkpt lat="38.1017282233" lon="-6.1982967798">
        <ele>685.08</ele>
        <time>2021-05-28T06:20:59Z</time>
      </trkpt>
      <trkpt lat="38.1017038319" lon="-6.1985947564">
        <ele>687.48</ele>
        <time>2021-05-28T06:21:00Z</time>
      </trkpt>
      <trkpt lat="38.1016990542" lon="-6.1989026237">
        <ele>690.36</ele>
        <time>2021-05-28T06:21:01Z</time>
      </trkpt>
      <trkpt lat="38.1017112080" lon="-6.1992197949">
        <ele>693.25</ele>
        <time>2021-05-28T06:21:02Z</time>
      </trkpt>
      <trkpt lat="38.1017511059" lon="-6.1998457555">
        <ele>696.61</ele>
        <time>2021-05-28T06:21:04Z</time>
      </trkpt>
      <trkpt lat="38.1017728988" lon="-6.2001589872">
        <ele>699.50</ele>
        <time>2021-05-28T06:21:05Z</time>
      </trkpt>
      <trkpt lat="38.1018086895" lon="-6.2008089200">
        <ele>705.26</ele>
        <time>2021-05-28T06:21:07Z</time>
      </trkpt>
      <trkpt lat="38.1018168200" lon="-6.2014733534">
        <ele>709.11</ele>
        <time>2021-05-28T06:21:09Z</time>
      </trkpt>
      <trkpt lat="38.1017609965" lon="-6.2021371163">
        <ele>713.92</ele>
        <time>2021-05-28T06:21:11Z</time>
      </trkpt>
      <trkpt lat="38.1016301550" lon="-6.2028052378">
        <ele>719.68</ele>
        <time>2021-05-28T06:21:13Z</time>
      </trkpt>
      <trkpt lat="38.1014284864" lon="-6.2034497224">
        <ele>724.97</ele>
        <time>2021-05-28T06:21:15Z</time>
      </trkpt>
      <trkpt lat="38.1011541467" lon="-6.2040528003">
        <ele>728.82</ele>
        <time>2021-05-28T06:21:17Z</time>
      </trkpt>
      <trkpt lat="38.1008099020" lon="-6.2046025693">
        <ele>734.58</ele>
        <time>2021-05-28T06:21:19Z</time>
      </trkpt>
      <trkpt lat="38.1006147712" lon="-6.2048561219">
        <ele>737.47</ele>
        <time>2021-05-28T06:21:20Z</time>
      </trkpt>
      <trkpt lat="38.1001954246" lon="-6.2053363211">
        <ele>741.31</ele>
        <time>2021-05-28T06:21:22Z</time>
      </trkpt>
      <trkpt lat="38.0999758188" lon="-6.2055704277">
        <ele>744.68</ele>
        <time>2021-05-28T06:21:23Z</time>
      </trkpt>
      <trkpt lat="38.0993471760" lon="-6.2062262278">
        <ele>748.52</ele>
        <time>2021-05-28T06:21:26Z</time>
      </trkpt>
      <trkpt lat="38.0987419188" lon="-6.2068788428">
        <ele>752.37</ele>
        <time>2021-05-28T06:21:29Z</time>
      </trkpt>
      <trkpt lat="38.0981395952" lon="-6.2075167894">
        <ele>755.25</ele>
        <time>2021-05-28T06:21:32Z</time>
      </trkpt>
      <trkpt lat="38.0965609476" lon="-6.2091550324">
        <ele>751.89</ele>
        <time>2021-05-28T06:21:40Z</time>
      </trkpt>
      <trkpt lat="38.0959615577" lon="-6.2097891234">
        <ele>749.00</ele>
        <time>2021-05-28T06:21:43Z</time>
      </trkpt>
      <trkpt lat="38.0953745730" lon="-6.2104223762">
        <ele>744.68</ele>
        <time>2021-05-28T06:21:46Z</time>
      </trkpt>
      <trkpt lat="38.0944813974" lon="-6.2116220780">
        <ele>741.31</ele>
        <time>2021-05-28T06:21:51Z</time>
      </trkpt>
      <trkpt lat="38.0937988590" lon="-6.2134762388">
        <ele>738.43</ele>
        <time>2021-05-28T06:21:57Z</time>
      </trkpt>
      <trkpt lat="38.0931889918" lon="-6.2156584673">
        <ele>735.07</ele>
        <time>2021-05-28T06:22:04Z</time>
      </trkpt>
      <trkpt lat="38.0930956174" lon="-6.2165370584">
        <ele>734.10</ele>
        <time>2021-05-28T06:22:07Z</time>
      </trkpt>
      <trkpt lat="38.0931113753" lon="-6.2168214563">
        <ele>734.10</ele>
        <time>2021-05-28T06:22:08Z</time>
      </trkpt>
      <trkpt lat="38.0931519438" lon="-6.2171080336">
        <ele>734.58</ele>
        <time>2021-05-28T06:22:09Z</time>
      </trkpt>
      <trkpt lat="38.0932157300" lon="-6.2173944432">
        <ele>735.55</ele>
        <time>2021-05-28T06:22:10Z</time>
      </trkpt>
      <trkpt lat="38.0933049135" lon="-6.2176770810">
        <ele>736.03</ele>
        <time>2021-05-28T06:22:11Z</time>
      </trkpt>
      <trkpt lat="38.0934167281" lon="-6.2179543544">
        <ele>736.51</ele>
        <time>2021-05-28T06:22:12Z</time>
      </trkpt>
      <trkpt lat="38.0935476534" lon="-6.2182302028">
        <ele>736.99</ele>
        <time>2021-05-28T06:22:13Z</time>
      </trkpt>
      <trkpt lat="38.0936921574" lon="-6.2185072247">
        <ele>737.95</ele>
        <time>2021-05-28T06:22:14Z</time>
      </trkpt>
      <trkpt lat="38.0941569339" lon="-6.2193685491">
        <ele>741.79</ele>
        <time>2021-05-28T06:22:17Z</time>
      </trkpt>
      <trkpt lat="38.0946341995" lon="-6.2202619761">
        <ele>743.24</ele>
        <time>2021-05-28T06:22:20Z</time>
      </trkpt>
      <trkpt lat="38.0957560334" lon="-6.2223539315">
        <ele>745.64</ele>
        <time>2021-05-28T06:22:27Z</time>
      </trkpt>
      <trkpt lat="38.0973785184" lon="-6.2255755998">
        <ele>748.04</ele>
        <time>2021-05-28T06:22:38Z</time>
      </trkpt>
      <trkpt lat="38.0976946838" lon="-6.2268616352">
        <ele>752.85</ele>
        <time>2021-05-28T06:22:42Z</time>
      </trkpt>
      <trkpt lat="38.0978249386" lon="-6.2279143184">
        <ele>757.18</ele>
        <time>2021-05-28T06:22:45Z</time>
      </trkpt>
      <trkpt lat="38.0978637468" lon="-6.2282719743">
        <ele>756.21</ele>
        <time>2021-05-28T06:22:46Z</time>
      </trkpt>
      <trkpt lat="38.0980219133" lon="-6.2296948861">
        <ele>759.58</ele>
        <time>2021-05-28T06:22:50Z</time>
      </trkpt>
      <trkpt lat="38.0980611406" lon="-6.2300455011">
        <ele>759.58</ele>
        <time>2021-05-28T06:22:51Z</time>
      </trkpt>
      <trkpt lat="38.0982814170" lon="-6.2321144901">
        <ele>762.94</ele>
        <time>2021-05-28T06:22:57Z</time>
      </trkpt>
      <trkpt lat="38.0983045511" lon="-6.2324603274">
        <ele>762.94</ele>
        <time>2021-05-28T06:22:58Z</time>
      </trkpt>
      <trkpt lat="38.0981909763" lon="-6.2349540275">
        <ele>761.50</ele>
        <time>2021-05-28T06:23:05Z</time>
      </trkpt>
      <trkpt lat="38.0981069896" lon="-6.2356645614">
        <ele>757.18</ele>
        <time>2021-05-28T06:23:07Z</time>
      </trkpt>
      <trkpt lat="38.0980273616" lon="-6.2363731675">
        <ele>753.33</ele>
        <time>2021-05-28T06:23:09Z</time>
      </trkpt>
      <trkpt lat="38.0979478173" lon="-6.2370806001">
        <ele>748.04</ele>
        <time>2021-05-28T06:23:11Z</time>
      </trkpt>
      <trkpt lat="38.0978676863" lon="-6.2377973367">
        <ele>744.20</ele>
        <time>2021-05-28T06:23:13Z</time>
      </trkpt>
      <trkpt lat="38.0978272017" lon="-6.2381594349">
        <ele>741.31</ele>
        <time>2021-05-28T06:23:14Z</time>
      </trkpt>
      <trkpt lat="38.0977390241" lon="-6.2388706394">
        <ele>736.51</ele>
        <time>2021-05-28T06:23:16Z</time>
      </trkpt>
      <trkpt lat="38.0976857990" lon="-6.2392226793">
        <ele>733.14</ele>
        <time>2021-05-28T06:23:17Z</time>
      </trkpt>
      <trkpt lat="38.0975460727" lon="-6.2399200536">
        <ele>728.34</ele>
        <time>2021-05-28T06:23:19Z</time>
      </trkpt>
      <trkpt lat="38.0973496009" lon="-6.2405887619">
        <ele>722.09</ele>
        <time>2021-05-28T06:23:21Z</time>
      </trkpt>
      <trkpt lat="38.0972299073" lon="-6.2409092858">
        <ele>718.72</ele>
        <time>2021-05-28T06:23:22Z</time>
      </trkpt>
      <trkpt lat="38.0969471019" lon="-6.2415308040">
        <ele>714.40</ele>
        <time>2021-05-28T06:23:24Z</time>
      </trkpt>
      <trkpt lat="38.0966122448" lon="-6.2421260867">
        <ele>710.55</ele>
        <time>2021-05-28T06:23:26Z</time>
      </trkpt>
      <trkpt lat="38.0964334588" lon="-6.2424162682">
        <ele>707.19</ele>
        <time>2021-05-28T06:23:27Z</time>
      </trkpt>
      <trkpt lat="38.0960725341" lon="-6.2430023309">
        <ele>701.90</ele>
        <time>2021-05-28T06:23:29Z</time>
      </trkpt>
      <trkpt lat="38.0957274511" lon="-6.2436014693">
        <ele>697.09</ele>
        <time>2021-05-28T06:23:31Z</time>
      </trkpt>
      <trkpt lat="38.0954396166" lon="-6.2442253344">
        <ele>693.25</ele>
        <time>2021-05-28T06:23:33Z</time>
      </trkpt>
      <trkpt lat="38.0952019896" lon="-6.2448802963">
        <ele>689.40</ele>
        <time>2021-05-28T06:23:35Z</time>
      </trkpt>
      <trkpt lat="38.0949170049" lon="-6.2459112704">
        <ele>687.00</ele>
        <time>2021-05-28T06:23:38Z</time>
      </trkpt>
      <trkpt lat="38.0943616200" lon="-6.2479658425">
        <ele>690.84</ele>
        <time>2021-05-28T06:23:44Z</time>
      </trkpt>
      <trkpt lat="38.0942725204" lon="-6.2482951675">
        <ele>690.84</ele>
        <time>2021-05-28T06:23:45Z</time>
      </trkpt>
      <trkpt lat="38.0937366653" lon="-6.2502651662">
        <ele>690.84</ele>
        <time>2021-05-28T06:23:52Z</time>
      </trkpt>
      <trkpt lat="38.0934541952" lon="-6.2513210345">
        <ele>689.40</ele>
        <time>2021-05-28T06:23:56Z</time>
      </trkpt>
      <trkpt lat="38.0931460764" lon="-6.2527216505">
        <ele>686.52</ele>
        <time>2021-05-28T06:24:01Z</time>
      </trkpt>
      <trkpt lat="38.0930381175" lon="-6.2551690824">
        <ele>687.96</ele>
        <time>2021-05-28T06:24:09Z</time>
      </trkpt>
      <trkpt lat="38.0928824656" lon="-6.2566671800">
        <ele>692.77</ele>
        <time>2021-05-28T06:24:14Z</time>
      </trkpt>
      <trkpt lat="38.0927977245" lon="-6.2569426093">
        <ele>694.69</ele>
        <time>2021-05-28T06:24:15Z</time>
      </trkpt>
      <trkpt lat="38.0926903524" lon="-6.2572104950">
        <ele>695.65</ele>
        <time>2021-05-28T06:24:16Z</time>
      </trkpt>
      <trkpt lat="38.0925644562" lon="-6.2574694119">
        <ele>698.05</ele>
        <time>2021-05-28T06:24:17Z</time>
      </trkpt>
      <trkpt lat="38.0924221314" lon="-6.2577144988">
        <ele>699.50</ele>
        <time>2021-05-28T06:24:18Z</time>
      </trkpt>
      <trkpt lat="38.0922664795" lon="-6.2579398043">
        <ele>700.94</ele>
        <time>2021-05-28T06:24:19Z</time>
      </trkpt>
      <trkpt lat="38.0921037868" lon="-6.2581495196">
        <ele>701.42</ele>
        <time>2021-05-28T06:24:20Z</time>
      </trkpt>
      <trkpt lat="38.0917885434" lon="-6.2585852109">
        <ele>706.23</ele>
        <time>2021-05-28T06:24:22Z</time>
      </trkpt>
      <trkpt lat="38.0916520022" lon="-6.2588284537">
        <ele>707.19</ele>
        <time>2021-05-28T06:24:23Z</time>
      </trkpt>
      <trkpt lat="38.0915310513" lon="-6.2590866163">
        <ele>708.15</ele>
        <time>2021-05-28T06:24:24Z</time>
      </trkpt>
      <trkpt lat="38.0914227571" lon="-6.2593468744">
        <ele>708.15</ele>
        <time>2021-05-28T06:24:25Z</time>
      </trkpt>
      <trkpt lat="38.0910505168" lon="-6.2600822188">
        <ele>709.59</ele>
        <time>2021-05-28T06:24:28Z</time>
      </trkpt>
      <trkpt lat="38.0908906739" lon="-6.2602906767">
        <ele>710.07</ele>
        <time>2021-05-28T06:24:29Z</time>
      </trkpt>
      <trkpt lat="38.0907171685" lon="-6.2604776770">
        <ele>710.55</ele>
        <time>2021-05-28T06:24:30Z</time>
      </trkpt>
      <trkpt lat="38.0905263126" lon="-6.2606435549">
        <ele>711.03</ele>
        <time>2021-05-28T06:24:31Z</time>
      </trkpt>
      <trkpt lat="38.0903223809" lon="-6.2607822753">
        <ele>711.03</ele>
        <time>2021-05-28T06:24:32Z</time>
      </trkpt>
      <trkpt lat="38.0901058763" lon="-6.2608980294">
        <ele>711.99</ele>
        <time>2021-05-28T06:24:33Z</time>
      </trkpt>
      <trkpt lat="38.0898775533" lon="-6.2609886378">
        <ele>712.47</ele>
        <time>2021-05-28T06:24:34Z</time>
      </trkpt>
      <trkpt lat="38.0896442011" lon="-6.2610477302">
        <ele>713.44</ele>
        <time>2021-05-28T06:24:35Z</time>
      </trkpt>
      <trkpt lat="38.0894087534" lon="-6.2610720377">
        <ele>714.40</ele>
        <time>2021-05-28T06:24:36Z</time>
      </trkpt>
      <trkpt lat="38.0891749822" lon="-6.2610603869">
        <ele>714.40</ele>
        <time>2021-05-28T06:24:37Z</time>
      </trkpt>
      <trkpt lat="38.0889451504" lon="-6.2610194832">
        <ele>714.88</ele>
        <time>2021-05-28T06:24:38Z</time>
      </trkpt>
      <trkpt lat="38.0887193419" lon="-6.2609501649">
        <ele>714.88</ele>
        <time>2021-05-28T06:24:39Z</time>
      </trkpt>
      <trkpt lat="38.0884970538" lon="-6.2608557846">
        <ele>715.84</ele>
        <time>2021-05-28T06:24:40Z</time>
      </trkpt>
      <trkpt lat="38.0882766098" lon="-6.2607377674">
        <ele>716.32</ele>
        <time>2021-05-28T06:24:41Z</time>
      </trkpt>
      <trkpt lat="38.0880574230" lon="-6.2605977058">
        <ele>717.28</ele>
        <time>2021-05-28T06:24:42Z</time>
      </trkpt>
      <trkpt lat="38.0871878844" lon="-6.2600590009">
        <ele>720.16</ele>
        <time>2021-05-28T06:24:46Z</time>
      </trkpt>
      <trkpt lat="38.0856833328" lon="-6.2595373113">
        <ele>716.80</ele>
        <time>2021-05-28T06:24:53Z</time>
      </trkpt>
      <trkpt lat="38.0852461327" lon="-6.2593545858">
        <ele>714.40</ele>
        <time>2021-05-28T06:24:56Z</time>
      </trkpt>
      <trkpt lat="38.0851292890" lon="-6.2593501434">
        <ele>714.40</ele>
        <time>2021-05-28T06:24:57Z</time>
      </trkpt>
      <trkpt lat="38.0850289576" lon="-6.2593779713">
        <ele>714.88</ele>
        <time>2021-05-28T06:24:58Z</time>
      </trkpt>
      <trkpt lat="38.0849525984" lon="-6.2594358902">
        <ele>714.40</ele>
        <time>2021-05-28T06:24:59Z</time>
      </trkpt>
      <trkpt lat="38.0848992057" lon="-6.2595109083">
        <ele>714.40</ele>
        <time>2021-05-28T06:25:00Z</time>
      </trkpt>
      <trkpt lat="38.0848689470" lon="-6.2595909555">
        <ele>714.40</ele>
        <time>2021-05-28T06:25:01Z</time>
      </trkpt>
      <trkpt lat="38.0848557036" lon="-6.2596713379">
        <ele>714.88</ele>
        <time>2021-05-28T06:25:02Z</time>
      </trkpt>
      <trkpt lat="38.0848627444" lon="-6.2597477809">
        <ele>714.88</ele>
        <time>2021-05-28T06:25:03Z</time>
      </trkpt>
      <trkpt lat="38.0848792568" lon="-6.2598204520">
        <ele>714.88</ele>
        <time>2021-05-28T06:25:04Z</time>
      </trkpt>
      <trkpt lat="38.0848876387" lon="-6.2598911114">
        <ele>714.88</ele>
        <time>2021-05-28T06:25:05Z</time>
      </trkpt>
      <trkpt lat="38.0848855432" lon="-6.2599536404">
        <ele>714.88</ele>
        <time>2021-05-28T06:25:06Z</time>
      </trkpt>
      <trkpt lat="38.0848764069" lon="-6.2600071169">
        <ele>714.40</ele>
        <time>2021-05-28T06:25:07Z</time>
      </trkpt>
      <trkpt lat="38.0848634150" lon="-6.2600495294">
        <ele>714.40</ele>
        <time>2021-05-28T06:25:08Z</time>
      </trkpt>
      <trkpt lat="38.0848520156" lon="-6.2600735854">
        <ele>713.92</ele>
        <time>2021-05-28T06:25:09Z</time>
      </trkpt>
      <trkpt lat="38.0848446395" lon="-6.2600641977">
        <ele>714.40</ele>
        <time>2021-05-28T06:25:21Z</time>
      </trkpt>
      <trkpt lat="38.0848497525" lon="-6.2600627728">
        <ele>714.88</ele>
        <time>2021-05-28T06:26:04Z</time>
      </trkpt>
      <trkpt lat="38.0848359223" lon="-6.2600787822">
        <ele>715.36</ele>
        <time>2021-05-28T06:26:21Z</time>
      </trkpt>
      <trkpt lat="38.0847578868" lon="-6.2601465918">
        <ele>715.84</ele>
        <time>2021-05-28T06:26:23Z</time>
      </trkpt>
      <trkpt lat="38.0847055838" lon="-6.2602074444">
        <ele>716.32</ele>
        <time>2021-05-28T06:26:24Z</time>
      </trkpt>
      <trkpt lat="38.0846574716" lon="-6.2602826301">
        <ele>716.80</ele>
        <time>2021-05-28T06:26:25Z</time>
      </trkpt>
      <trkpt lat="38.0846150592" lon="-6.2603696343">
        <ele>716.80</ele>
        <time>2021-05-28T06:26:26Z</time>
      </trkpt>
      <trkpt lat="38.0845753290" lon="-6.2604796886">
        <ele>717.76</ele>
        <time>2021-05-28T06:26:27Z</time>
      </trkpt>
      <trkpt lat="38.0845428910" lon="-6.2606090214">
        <ele>719.20</ele>
        <time>2021-05-28T06:26:28Z</time>
      </trkpt>
      <trkpt lat="38.0844993051" lon="-6.2607477419">
        <ele>719.68</ele>
        <time>2021-05-28T06:26:29Z</time>
      </trkpt>
      <trkpt lat="38.0844551325" lon="-6.2608662620">
        <ele>719.68</ele>
        <time>2021-05-28T06:26:30Z</time>
      </trkpt>
      <trkpt lat="38.0843997281" lon="-6.2610608060">
        <ele>718.72</ele>
        <time>2021-05-28T06:26:32Z</time>
      </trkpt>
      <trkpt lat="38.0844197609" lon="-6.2611596286">
        <ele>718.24</ele>
        <time>2021-05-28T06:26:33Z</time>
      </trkpt>
      <trkpt lat="38.0844593234" lon="-6.2612599600">
        <ele>718.72</ele>
        <time>2021-05-28T06:26:34Z</time>
      </trkpt>
      <trkpt lat="38.0845254567" lon="-6.2614635564">
        <ele>718.24</ele>
        <time>2021-05-28T06:26:36Z</time>
      </trkpt>
      <trkpt lat="38.0845227744" lon="-6.2615596130">
        <ele>718.72</ele>
        <time>2021-05-28T06:26:37Z</time>
      </trkpt>
      <trkpt lat="38.0844931863" lon="-6.2616454437">
        <ele>718.72</ele>
        <time>2021-05-28T06:26:38Z</time>
      </trkpt>
      <trkpt lat="38.0844416376" lon="-6.2617180310">
        <ele>718.72</ele>
        <time>2021-05-28T06:26:39Z</time>
      </trkpt>
      <trkpt lat="38.0843705591" lon="-6.2617625389">
        <ele>718.72</ele>
        <time>2021-05-28T06:26:40Z</time>
      </trkpt>
      <trkpt lat="38.0842929427" lon="-6.2617661431">
        <ele>719.20</ele>
        <time>2021-05-28T06:26:41Z</time>
      </trkpt>
      <trkpt lat="38.0842183437" lon="-6.2617342081">
        <ele>719.68</ele>
        <time>2021-05-28T06:26:42Z</time>
      </trkpt>
      <trkpt lat="38.0841522105" lon="-6.2616725173">
        <ele>720.16</ele>
        <time>2021-05-28T06:26:43Z</time>
      </trkpt>
      <trkpt lat="38.0840912741" lon="-6.2615777180">
        <ele>719.68</ele>
        <time>2021-05-28T06:26:44Z</time>
      </trkpt>
      <trkpt lat="38.0840228777" lon="-6.2614644784">
        <ele>720.65</ele>
        <time>2021-05-28T06:26:45Z</time>
      </trkpt>
      <trkpt lat="38.0839344487" lon="-6.2613551784">
        <ele>720.65</ele>
        <time>2021-05-28T06:26:46Z</time>
      </trkpt>
      <trkpt lat="38.0838286690" lon="-6.2612576131">
        <ele>722.09</ele>
        <time>2021-05-28T06:26:47Z</time>
      </trkpt>
      <trkpt lat="38.0837165192" lon="-6.2611717824">
        <ele>722.57</ele>
        <time>2021-05-28T06:26:48Z</time>
      </trkpt>
      <trkpt lat="38.0833212286" lon="-6.2608881388">
        <ele>725.93</ele>
        <time>2021-05-28T06:26:51Z</time>
      </trkpt>
      <trkpt lat="38.0830107629" lon="-6.2606570497">
        <ele>729.30</ele>
        <time>2021-05-28T06:26:53Z</time>
      </trkpt>
      <trkpt lat="38.0825223494" lon="-6.2603465840">
        <ele>733.14</ele>
        <time>2021-05-28T06:26:56Z</time>
      </trkpt>
      <trkpt lat="38.0810649879" lon="-6.2597384769">
        <ele>734.58</ele>
        <time>2021-05-28T06:27:03Z</time>
      </trkpt>
      <trkpt lat="38.0805779994" lon="-6.2595122494">
        <ele>736.51</ele>
        <time>2021-05-28T06:27:05Z</time>
      </trkpt>
      <trkpt lat="38.0786955915" lon="-6.2584109511">
        <ele>733.62</ele>
        <time>2021-05-28T06:27:13Z</time>
      </trkpt>
      <trkpt lat="38.0779796094" lon="-6.2579067796">
        <ele>730.74</ele>
        <time>2021-05-28T06:27:16Z</time>
      </trkpt>
      <trkpt lat="38.0770249106" lon="-6.2571454514">
        <ele>727.37</ele>
        <time>2021-05-28T06:27:20Z</time>
      </trkpt>
      <trkpt lat="38.0758367758" lon="-6.2560289819">
        <ele>724.97</ele>
        <time>2021-05-28T06:27:25Z</time>
      </trkpt>
      <trkpt lat="38.0749135930" lon="-6.2550249975">
        <ele>721.13</ele>
        <time>2021-05-28T06:27:29Z</time>
      </trkpt>
      <trkpt lat="38.0746894609" lon="-6.2547595426">
        <ele>721.61</ele>
        <time>2021-05-28T06:27:30Z</time>
      </trkpt>
      <trkpt lat="38.0740316492" lon="-6.2539452408">
        <ele>717.28</ele>
        <time>2021-05-28T06:27:33Z</time>
      </trkpt>
      <trkpt lat="38.0736160744" lon="-6.2534005009">
        <ele>711.51</ele>
        <time>2021-05-28T06:27:35Z</time>
      </trkpt>
      <trkpt lat="38.0732374638" lon="-6.2528774701">
        <ele>706.23</ele>
        <time>2021-05-28T06:27:37Z</time>
      </trkpt>
      <trkpt lat="38.0730495416" lon="-6.2526066508">
        <ele>702.86</ele>
        <time>2021-05-28T06:27:38Z</time>
      </trkpt>
      <trkpt lat="38.0728601944" lon="-6.2523248512">
        <ele>704.30</ele>
        <time>2021-05-28T06:27:39Z</time>
      </trkpt>
      <trkpt lat="38.0722706113" lon="-6.2514460087">
        <ele>700.46</ele>
        <time>2021-05-28T06:27:42Z</time>
      </trkpt>
      <trkpt lat="38.0720686074" lon="-6.2511504628">
        <ele>700.46</ele>
        <time>2021-05-28T06:27:43Z</time>
      </trkpt>
      <trkpt lat="38.0712426547" lon="-6.2499628309">
        <ele>695.65</ele>
        <time>2021-05-28T06:27:47Z</time>
      </trkpt>
      <trkpt lat="38.0705955718" lon="-6.2490638718">
        <ele>689.88</ele>
        <time>2021-05-28T06:27:50Z</time>
      </trkpt>
      <trkpt lat="38.0703773070" lon="-6.2487648893">
        <ele>691.33</ele>
        <time>2021-05-28T06:27:51Z</time>
      </trkpt>
      <trkpt lat="38.0699288752" lon="-6.2481707800">
        <ele>687.96</ele>
        <time>2021-05-28T06:27:53Z</time>
      </trkpt>
      <trkpt lat="38.0697005522" lon="-6.2478836160">
        <ele>683.15</ele>
        <time>2021-05-28T06:27:54Z</time>
      </trkpt>
      <trkpt lat="38.0689925328" lon="-6.2470650394">
        <ele>681.23</ele>
        <time>2021-05-28T06:27:57Z</time>
      </trkpt>
      <trkpt lat="38.0685123336" lon="-6.2465466186">
        <ele>677.39</ele>
        <time>2021-05-28T06:27:59Z</time>
      </trkpt>
      <trkpt lat="38.0680192262" lon="-6.2460450456">
        <ele>673.54</ele>
        <time>2021-05-28T06:28:01Z</time>
      </trkpt>
      <trkpt lat="38.0675095227" lon="-6.2455659360">
        <ele>669.22</ele>
        <time>2021-05-28T06:28:03Z</time>
      </trkpt>
      <trkpt lat="38.0669832230" lon="-6.2451028358">
        <ele>667.29</ele>
        <time>2021-05-28T06:28:05Z</time>
      </trkpt>
      <trkpt lat="38.0661650654" lon="-6.2444518134">
        <ele>663.93</ele>
        <time>2021-05-28T06:28:08Z</time>
      </trkpt>
      <trkpt lat="38.0653149728" lon="-6.2438660860">
        <ele>659.12</ele>
        <time>2021-05-28T06:28:11Z</time>
      </trkpt>
      <trkpt lat="38.0644380581" lon="-6.2433433067">
        <ele>655.76</ele>
        <time>2021-05-28T06:28:14Z</time>
      </trkpt>
      <trkpt lat="38.0638436135" lon="-6.2430263869">
        <ele>651.91</ele>
        <time>2021-05-28T06:28:16Z</time>
      </trkpt>
      <trkpt lat="38.0629395414" lon="-6.2425867561">
        <ele>648.55</ele>
        <time>2021-05-28T06:28:19Z</time>
      </trkpt>
      <trkpt lat="38.0617422704" lon="-6.2420540862">
        <ele>644.22</ele>
        <time>2021-05-28T06:28:23Z</time>
      </trkpt>
      <trkpt lat="38.0605553929" lon="-6.2415593024">
        <ele>639.41</ele>
        <time>2021-05-28T06:28:27Z</time>
      </trkpt>
      <trkpt lat="38.0590809323" lon="-6.2409482617">
        <ele>634.61</ele>
        <time>2021-05-28T06:28:32Z</time>
      </trkpt>
      <trkpt lat="38.0587864760" lon="-6.2408245448">
        <ele>635.09</ele>
        <time>2021-05-28T06:28:33Z</time>
      </trkpt>
      <trkpt lat="38.0573255103" lon="-6.2401845027">
        <ele>630.76</ele>
        <time>2021-05-28T06:28:38Z</time>
      </trkpt>
      <trkpt lat="38.0564482603" lon="-6.2397888768">
        <ele>628.36</ele>
        <time>2021-05-28T06:28:41Z</time>
      </trkpt>
      <trkpt lat="38.0549720395" lon="-6.2390771694">
        <ele>624.03</ele>
        <time>2021-05-28T06:28:46Z</time>
      </trkpt>
      <trkpt lat="38.0546753202" lon="-6.2389276363">
        <ele>624.51</ele>
        <time>2021-05-28T06:28:47Z</time>
      </trkpt>
      <trkpt lat="38.0537828989" lon="-6.2384615187">
        <ele>622.11</ele>
        <time>2021-05-28T06:28:50Z</time>
      </trkpt>
      <trkpt lat="38.0531956628" lon="-6.2381327804">
        <ele>618.75</ele>
        <time>2021-05-28T06:28:52Z</time>
      </trkpt>
      <trkpt lat="38.0523386970" lon="-6.2376164552">
        <ele>615.38</ele>
        <time>2021-05-28T06:28:55Z</time>
      </trkpt>
      <trkpt lat="38.0515187792" lon="-6.2370991241">
        <ele>613.94</ele>
        <time>2021-05-28T06:28:58Z</time>
      </trkpt>
      <trkpt lat="38.0504313949" lon="-6.2363885064">
        <ele>611.54</ele>
        <time>2021-05-28T06:29:02Z</time>
      </trkpt>
      <trkpt lat="38.0493404903" lon="-6.2356520724">
        <ele>607.69</ele>
        <time>2021-05-28T06:29:06Z</time>
      </trkpt>
      <trkpt lat="38.0487986002" lon="-6.2352763955">
        <ele>606.73</ele>
        <time>2021-05-28T06:29:08Z</time>
      </trkpt>
      <trkpt lat="38.0474771932" lon="-6.2342849001">
        <ele>603.85</ele>
        <time>2021-05-28T06:29:13Z</time>
      </trkpt>
      <trkpt lat="38.0472151749" lon="-6.2340773642">
        <ele>603.36</ele>
        <time>2021-05-28T06:29:14Z</time>
      </trkpt>
      <trkpt lat="38.0443960056" lon="-6.2316290103">
        <ele>600.00</ele>
        <time>2021-05-28T06:29:25Z</time>
      </trkpt>
      <trkpt lat="38.0411765166" lon="-6.2286072504">
        <ele>597.12</ele>
        <time>2021-05-28T06:29:38Z</time>
      </trkpt>
      <trkpt lat="38.0404560082" lon="-6.2279261369">
        <ele>595.19</ele>
        <time>2021-05-28T06:29:41Z</time>
      </trkpt>
      <trkpt lat="38.0392599106" lon="-6.2268400937">
        <ele>591.35</ele>
        <time>2021-05-28T06:29:46Z</time>
      </trkpt>
      <trkpt lat="38.0382979196" lon="-6.2260074355">
        <ele>588.95</ele>
        <time>2021-05-28T06:29:50Z</time>
      </trkpt>
      <trkpt lat="38.0375587195" lon="-6.2254194450">
        <ele>585.58</ele>
        <time>2021-05-28T06:29:53Z</time>
      </trkpt>
      <trkpt lat="38.0370610021" lon="-6.2250495516">
        <ele>583.66</ele>
        <time>2021-05-28T06:29:55Z</time>
      </trkpt>
      <trkpt lat="38.0363257416" lon="-6.2245523371">
        <ele>578.37</ele>
        <time>2021-05-28T06:29:58Z</time>
      </trkpt>
      <trkpt lat="38.0358525831" lon="-6.2242593057">
        <ele>575.49</ele>
        <time>2021-05-28T06:30:00Z</time>
      </trkpt>
      <trkpt lat="38.0351297278" lon="-6.2238577288">
        <ele>572.60</ele>
        <time>2021-05-28T06:30:03Z</time>
      </trkpt>
      <trkpt lat="38.0348852277" lon="-6.2237311620">
        <ele>572.60</ele>
        <time>2021-05-28T06:30:04Z</time>
      </trkpt>
      <trkpt lat="38.0341370590" lon="-6.2233744282">
        <ele>568.76</ele>
        <time>2021-05-28T06:30:07Z</time>
      </trkpt>
      <trkpt lat="38.0333624873" lon="-6.2230732664">
        <ele>566.35</ele>
        <time>2021-05-28T06:30:10Z</time>
      </trkpt>
      <trkpt lat="38.0325669609" lon="-6.2228265870">
        <ele>562.03</ele>
        <time>2021-05-28T06:30:13Z</time>
      </trkpt>
      <trkpt lat="38.0317575205" lon="-6.2226431072">
        <ele>559.14</ele>
        <time>2021-05-28T06:30:16Z</time>
      </trkpt>
      <trkpt lat="38.0309283827" lon="-6.2225250900">
        <ele>555.30</ele>
        <time>2021-05-28T06:30:19Z</time>
      </trkpt>
      <trkpt lat="38.0306500196" lon="-6.2224955019">
        <ele>556.26</ele>
        <time>2021-05-28T06:30:20Z</time>
      </trkpt>
      <trkpt lat="38.0298050400" lon="-6.2224380020">
        <ele>552.41</ele>
        <time>2021-05-28T06:30:23Z</time>
      </trkpt>
      <trkpt lat="38.0280925333" lon="-6.2224859465">
        <ele>549.53</ele>
        <time>2021-05-28T06:30:29Z</time>
      </trkpt>
      <trkpt lat="38.0246340763" lon="-6.2230855878">
        <ele>549.05</ele>
        <time>2021-05-28T06:30:41Z</time>
      </trkpt>
      <trkpt lat="38.0214426666" lon="-6.2239922583">
        <ele>551.45</ele>
        <time>2021-05-28T06:30:52Z</time>
      </trkpt>
      <trkpt lat="38.0183358304" lon="-6.2251888588">
        <ele>551.45</ele>
        <time>2021-05-28T06:31:03Z</time>
      </trkpt>
      <trkpt lat="38.0146043748" lon="-6.2270523235">
        <ele>548.57</ele>
        <time>2021-05-28T06:31:16Z</time>
      </trkpt>
      <trkpt lat="38.0117178988" lon="-6.2286837772">
        <ele>546.17</ele>
        <time>2021-05-28T06:31:26Z</time>
      </trkpt>
      <trkpt lat="38.0102830846" lon="-6.2294934690">
        <ele>544.24</ele>
        <time>2021-05-28T06:31:31Z</time>
      </trkpt>
      <trkpt lat="38.0073516816" lon="-6.2309929077">
        <ele>541.36</ele>
        <time>2021-05-28T06:31:41Z</time>
      </trkpt>
      <trkpt lat="38.0067565665" lon="-6.2312558480">
        <ele>538.96</ele>
        <time>2021-05-28T06:31:43Z</time>
      </trkpt>
      <trkpt lat="38.0052546971" lon="-6.2318435870">
        <ele>537.51</ele>
        <time>2021-05-28T06:31:48Z</time>
      </trkpt>
      <trkpt lat="38.0030720495" lon="-6.2325132173">
        <ele>534.15</ele>
        <time>2021-05-28T06:31:55Z</time>
      </trkpt>
      <trkpt lat="38.0017995927" lon="-6.2328150496">
        <ele>531.27</ele>
        <time>2021-05-28T06:31:59Z</time>
      </trkpt>
      <trkpt lat="38.0011647474" lon="-6.2329341564">
        <ele>528.38</ele>
        <time>2021-05-28T06:32:01Z</time>
      </trkpt>
      <trkpt lat="38.0005316623" lon="-6.2330432050">
        <ele>525.02</ele>
        <time>2021-05-28T06:32:03Z</time>
      </trkpt>
      <trkpt lat="37.9992446210" lon="-6.2332150340">
        <ele>521.17</ele>
        <time>2021-05-28T06:32:07Z</time>
      </trkpt>
      <trkpt lat="37.9982666206" lon="-6.2332986854">
        <ele>517.81</ele>
        <time>2021-05-28T06:32:10Z</time>
      </trkpt>
      <trkpt lat="37.9979385529" lon="-6.2333183829">
        <ele>518.77</ele>
        <time>2021-05-28T06:32:11Z</time>
      </trkpt>
      <trkpt lat="37.9963005614" lon="-6.2333477195">
        <ele>514.44</ele>
        <time>2021-05-28T06:32:16Z</time>
      </trkpt>
      <trkpt lat="37.9956466053" lon="-6.2333394215">
        <ele>513.00</ele>
        <time>2021-05-28T06:32:18Z</time>
      </trkpt>
      <trkpt lat="37.9946655873" lon="-6.2333017867">
        <ele>509.16</ele>
        <time>2021-05-28T06:32:21Z</time>
      </trkpt>
      <trkpt lat="37.9943372682" lon="-6.2332847714">
        <ele>509.16</ele>
        <time>2021-05-28T06:32:22Z</time>
      </trkpt>
      <trkpt lat="37.9927055631" lon="-6.2331764773">
        <ele>505.79</ele>
        <time>2021-05-28T06:32:27Z</time>
      </trkpt>
      <trkpt lat="37.9920654371" lon="-6.2331311312">
        <ele>504.35</ele>
        <time>2021-05-28T06:32:29Z</time>
      </trkpt>
      <trkpt lat="37.9911154322" lon="-6.2330592144">
        <ele>500.98</ele>
        <time>2021-05-28T06:32:32Z</time>
      </trkpt>
      <trkpt lat="37.9892196134" lon="-6.2329384312">
        <ele>499.54</ele>
        <time>2021-05-28T06:32:38Z</time>
      </trkpt>
      <trkpt lat="37.9873568192" lon="-6.2328738905">
        <ele>496.66</ele>
        <time>2021-05-28T06:32:44Z</time>
      </trkpt>
      <trkpt lat="37.9858657625" lon="-6.2329527643">
        <ele>492.81</ele>
        <time>2021-05-28T06:32:49Z</time>
      </trkpt>
      <trkpt lat="37.9855683725" lon="-6.2329901475">
        <ele>494.26</ele>
        <time>2021-05-28T06:32:50Z</time>
      </trkpt>
      <trkpt lat="37.9828507081" lon="-6.2334590312">
        <ele>492.81</ele>
        <time>2021-05-28T06:32:59Z</time>
      </trkpt>
      <trkpt lat="37.9784508795" lon="-6.2346775085">
        <ele>491.37</ele>
        <time>2021-05-28T06:33:14Z</time>
      </trkpt>
      <trkpt lat="37.9766842257" lon="-6.2351584621">
        <ele>495.22</ele>
        <time>2021-05-28T06:33:20Z</time>
      </trkpt>
      <trkpt lat="37.9763875064" lon="-6.2352369167">
        <ele>494.74</ele>
        <time>2021-05-28T06:33:21Z</time>
      </trkpt>
      <trkpt lat="37.9746079445" lon="-6.2356523238">
        <ele>498.10</ele>
        <time>2021-05-28T06:33:27Z</time>
      </trkpt>
      <trkpt lat="37.9743126500" lon="-6.2357143499">
        <ele>498.58</ele>
        <time>2021-05-28T06:33:28Z</time>
      </trkpt>
      <trkpt lat="37.9713491444" lon="-6.2360488717">
        <ele>500.02</ele>
        <time>2021-05-28T06:33:38Z</time>
      </trkpt>
      <trkpt lat="37.9701450840" lon="-6.2360503804">
        <ele>503.39</ele>
        <time>2021-05-28T06:33:42Z</time>
      </trkpt>
      <trkpt lat="37.9695455264" lon="-6.2360181101">
        <ele>498.10</ele>
        <time>2021-05-28T06:33:44Z</time>
      </trkpt>
      <trkpt lat="37.9692450352" lon="-6.2359927129">
        <ele>500.50</ele>
        <time>2021-05-28T06:33:45Z</time>
      </trkpt>
      <trkpt lat="37.9665550310" lon="-6.2355429400">
        <ele>497.14</ele>
        <time>2021-05-28T06:33:54Z</time>
      </trkpt>
      <trkpt lat="37.9662568867" lon="-6.2354752142">
        <ele>498.58</ele>
        <time>2021-05-28T06:33:55Z</time>
      </trkpt>
      <trkpt lat="37.9656611010" lon="-6.2353342306">
        <ele>499.06</ele>
        <time>2021-05-28T06:33:57Z</time>
      </trkpt>
      <trkpt lat="37.9644674342" lon="-6.2350013852">
        <ele>496.66</ele>
        <time>2021-05-28T06:34:01Z</time>
      </trkpt>
      <trkpt lat="37.9626613855" lon="-6.2344130594">
        <ele>495.22</ele>
        <time>2021-05-28T06:34:07Z</time>
      </trkpt>
      <trkpt lat="37.9614719935" lon="-6.2340208702">
        <ele>490.89</ele>
        <time>2021-05-28T06:34:11Z</time>
      </trkpt>
      <trkpt lat="37.9595025815" lon="-6.2333724461">
        <ele>487.53</ele>
        <time>2021-05-28T06:34:18Z</time>
      </trkpt>
      <trkpt lat="37.9571627732" lon="-6.2326065078">
        <ele>484.64</ele>
        <time>2021-05-28T06:34:27Z</time>
      </trkpt>
      <trkpt lat="37.9540175479" lon="-6.2315592729">
        <ele>485.12</ele>
        <time>2021-05-28T06:34:40Z</time>
      </trkpt>
      <trkpt lat="37.9523461964" lon="-6.2310018763">
        <ele>482.24</ele>
        <time>2021-05-28T06:34:47Z</time>
      </trkpt>
      <trkpt lat="37.9507723264" lon="-6.2304937653">
        <ele>482.24</ele>
        <time>2021-05-28T06:34:54Z</time>
      </trkpt>
      <trkpt lat="37.9492382705" lon="-6.2300045136">
        <ele>480.80</ele>
        <time>2021-05-28T06:35:02Z</time>
      </trkpt>
      <trkpt lat="37.9485806264" lon="-6.2298358697">
        <ele>480.32</ele>
        <time>2021-05-28T06:35:06Z</time>
      </trkpt>
      <trkpt lat="37.9484136589" lon="-6.2298410665">
        <ele>481.28</ele>
        <time>2021-05-28T06:35:07Z</time>
      </trkpt>
      <trkpt lat="37.9482508823" lon="-6.2298796233">
        <ele>480.80</ele>
        <time>2021-05-28T06:35:08Z</time>
      </trkpt>
      <trkpt lat="37.9480982479" lon="-6.2299476005">
        <ele>480.32</ele>
        <time>2021-05-28T06:35:09Z</time>
      </trkpt>
      <trkpt lat="37.9479586892" lon="-6.2300467584">
        <ele>479.84</ele>
        <time>2021-05-28T06:35:10Z</time>
      </trkpt>
      <trkpt lat="37.9478329606" lon="-6.2301630154">
        <ele>479.35</ele>
        <time>2021-05-28T06:35:11Z</time>
      </trkpt>
      <trkpt lat="37.9477207270" lon="-6.2302977126">
        <ele>478.87</ele>
        <time>2021-05-28T06:35:12Z</time>
      </trkpt>
      <trkpt lat="37.9476246703" lon="-6.2304496765">
        <ele>478.87</ele>
        <time>2021-05-28T06:35:13Z</time>
      </trkpt>
      <trkpt lat="37.9475459643" lon="-6.2306141295">
        <ele>479.35</ele>
        <time>2021-05-28T06:35:14Z</time>
      </trkpt>
      <trkpt lat="37.9474810045" lon="-6.2307800073">
        <ele>478.39</ele>
        <time>2021-05-28T06:35:15Z</time>
      </trkpt>
      <trkpt lat="37.9474290367" lon="-6.2309406884">
        <ele>477.91</ele>
        <time>2021-05-28T06:35:16Z</time>
      </trkpt>
      <trkpt lat="37.9472390190" lon="-6.2314723525">
        <ele>475.51</ele>
        <time>2021-05-28T06:35:21Z</time>
      </trkpt>
      <trkpt lat="37.9472160526" lon="-6.2315042876">
        <ele>474.55</ele>
        <time>2021-05-28T06:35:22Z</time>
      </trkpt>
      <trkpt lat="37.9471970256" lon="-6.2315226439">
        <ele>474.55</ele>
        <time>2021-05-28T06:35:23Z</time>
      </trkpt>
      <trkpt lat="37.9471173137" lon="-6.2315710913">
        <ele>475.51</ele>
        <time>2021-05-28T06:35:27Z</time>
      </trkpt>
      <trkpt lat="37.9470616579" lon="-6.2315772101">
        <ele>476.47</ele>
        <time>2021-05-28T06:35:28Z</time>
      </trkpt>
      <trkpt lat="37.9469855502" lon="-6.2315612845">
        <ele>475.99</ele>
        <time>2021-05-28T06:35:29Z</time>
      </trkpt>
      <trkpt lat="37.9468997195" lon="-6.2315193750">
        <ele>477.43</ele>
        <time>2021-05-28T06:35:30Z</time>
      </trkpt>
      <trkpt lat="37.9468055908" lon="-6.2314585224">
        <ele>477.43</ele>
        <time>2021-05-28T06:35:31Z</time>
      </trkpt>
      <trkpt lat="37.9466960393" lon="-6.2313845940">
        <ele>478.39</ele>
        <time>2021-05-28T06:35:32Z</time>
      </trkpt>
      <trkpt lat="37.9461571667" lon="-6.2310717814">
        <ele>479.35</ele>
        <time>2021-05-28T06:35:36Z</time>
      </trkpt>
      <trkpt lat="37.9454702698" lon="-6.2309043948">
        <ele>481.76</ele>
        <time>2021-05-28T06:35:40Z</time>
      </trkpt>
      <trkpt lat="37.9452732950" lon="-6.2309084181">
        <ele>481.76</ele>
        <time>2021-05-28T06:35:41Z</time>
      </trkpt>
      <trkpt lat="37.9450708721" lon="-6.2309322227">
        <ele>482.24</ele>
        <time>2021-05-28T06:35:42Z</time>
      </trkpt>
      <trkpt lat="37.9448697064" lon="-6.2309730425">
        <ele>482.24</ele>
        <time>2021-05-28T06:35:43Z</time>
      </trkpt>
      <trkpt lat="37.9446674511" lon="-6.2310295366">
        <ele>481.28</ele>
        <time>2021-05-28T06:35:44Z</time>
      </trkpt>
      <trkpt lat="37.9440209549" lon="-6.2312795687">
        <ele>485.12</ele>
        <time>2021-05-28T06:35:47Z</time>
      </trkpt>
      <trkpt lat="37.9433333036" lon="-6.2315792218">
        <ele>488.01</ele>
        <time>2021-05-28T06:35:50Z</time>
      </trkpt>
      <trkpt lat="37.9426361807" lon="-6.2318859994">
        <ele>492.33</ele>
        <time>2021-05-28T06:35:53Z</time>
      </trkpt>
      <trkpt lat="37.9421948735" lon="-6.2321263086">
        <ele>493.77</ele>
        <time>2021-05-28T06:35:55Z</time>
      </trkpt>
      <trkpt lat="37.9417822324" lon="-6.2324322481">
        <ele>496.66</ele>
        <time>2021-05-28T06:35:57Z</time>
      </trkpt>
      <trkpt lat="37.9413923901" lon="-6.2327685300">
        <ele>500.50</ele>
        <time>2021-05-28T06:35:59Z</time>
      </trkpt>
      <trkpt lat="37.9411907215" lon="-6.2329127826">
        <ele>500.50</ele>
        <time>2021-05-28T06:36:00Z</time>
      </trkpt>
      <trkpt lat="37.9409741331" lon="-6.2330341525">
        <ele>501.46</ele>
        <time>2021-05-28T06:36:01Z</time>
      </trkpt>
      <trkpt lat="37.9397859145" lon="-6.2335387431">
        <ele>505.79</ele>
        <time>2021-05-28T06:36:06Z</time>
      </trkpt>
      <trkpt lat="37.9393060505" lon="-6.2337412499">
        <ele>509.64</ele>
        <time>2021-05-28T06:36:08Z</time>
      </trkpt>
      <trkpt lat="37.9388303775" lon="-6.2339476962">
        <ele>513.00</ele>
        <time>2021-05-28T06:36:10Z</time>
      </trkpt>
      <trkpt lat="37.9381251242" lon="-6.2342591677">
        <ele>516.37</ele>
        <time>2021-05-28T06:36:13Z</time>
      </trkpt>
      <trkpt lat="37.9376941267" lon="-6.2345166598">
        <ele>519.25</ele>
        <time>2021-05-28T06:36:15Z</time>
      </trkpt>
      <trkpt lat="37.9375008401" lon="-6.2346774247">
        <ele>518.77</ele>
        <time>2021-05-28T06:36:16Z</time>
      </trkpt>
      <trkpt lat="37.9373186175" lon="-6.2348615751">
        <ele>519.73</ele>
        <time>2021-05-28T06:36:17Z</time>
      </trkpt>
      <trkpt lat="37.9366452154" lon="-6.2356063072">
        <ele>516.85</ele>
        <time>2021-05-28T06:36:21Z</time>
      </trkpt>
      <trkpt lat="37.9364602268" lon="-6.2357417587">
        <ele>516.37</ele>
        <time>2021-05-28T06:36:22Z</time>
      </trkpt>
      <trkpt lat="37.9362589773" lon="-6.2358425092">
        <ele>514.44</ele>
        <time>2021-05-28T06:36:23Z</time>
      </trkpt>
      <trkpt lat="37.9360408802" lon="-6.2359136716">
        <ele>515.88</ele>
        <time>2021-05-28T06:36:24Z</time>
      </trkpt>
      <trkpt lat="37.9358134791" lon="-6.2359689921">
        <ele>514.92</ele>
        <time>2021-05-28T06:36:25Z</time>
      </trkpt>
      <trkpt lat="37.9335453361" lon="-6.2364355288">
        <ele>515.40</ele>
        <time>2021-05-28T06:36:34Z</time>
      </trkpt>
      <trkpt lat="37.9319481645" lon="-6.2369267922">
        <ele>518.77</ele>
        <time>2021-05-28T06:36:40Z</time>
      </trkpt>
      <trkpt lat="37.9311484471" lon="-6.2372111902">
        <ele>522.61</ele>
        <time>2021-05-28T06:36:43Z</time>
      </trkpt>
      <trkpt lat="37.9306130111" lon="-6.2374014594">
        <ele>526.46</ele>
        <time>2021-05-28T06:36:45Z</time>
      </trkpt>
      <trkpt lat="37.9298230167" lon="-6.2376842648">
        <ele>528.86</ele>
        <time>2021-05-28T06:36:48Z</time>
      </trkpt>
      <trkpt lat="37.9275257047" lon="-6.2384557351">
        <ele>528.86</ele>
        <time>2021-05-28T06:36:58Z</time>
      </trkpt>
      <trkpt lat="37.9266448505" lon="-6.2384351995">
        <ele>532.23</ele>
        <time>2021-05-28T06:37:02Z</time>
      </trkpt>
      <trkpt lat="37.9259437881" lon="-6.2383276597">
        <ele>535.59</ele>
        <time>2021-05-28T06:37:05Z</time>
      </trkpt>
      <trkpt lat="37.9254755750" lon="-6.2382534798">
        <ele>536.55</ele>
        <time>2021-05-28T06:37:07Z</time>
      </trkpt>
      <trkpt lat="37.9250047635" lon="-6.2381765340">
        <ele>538.48</ele>
        <time>2021-05-28T06:37:09Z</time>
      </trkpt>
      <trkpt lat="37.9245275818" lon="-6.2380974926">
        <ele>544.24</ele>
        <time>2021-05-28T06:37:11Z</time>
      </trkpt>
      <trkpt lat="37.9238339793" lon="-6.2379912101">
        <ele>546.65</ele>
        <time>2021-05-28T06:37:14Z</time>
      </trkpt>
      <trkpt lat="37.9233814403" lon="-6.2379817385">
        <ele>548.09</ele>
        <time>2021-05-28T06:37:16Z</time>
      </trkpt>
      <trkpt lat="37.9231554642" lon="-6.2380135059">
        <ele>549.53</ele>
        <time>2021-05-28T06:37:17Z</time>
      </trkpt>
      <trkpt lat="37.9229310807" lon="-6.2380691618">
        <ele>550.01</ele>
        <time>2021-05-28T06:37:18Z</time>
      </trkpt>
      <trkpt lat="37.9224984068" lon="-6.2381767854">
        <ele>551.45</ele>
        <time>2021-05-28T06:37:20Z</time>
      </trkpt>
      <trkpt lat="37.9222879373" lon="-6.2382017635">
        <ele>550.97</ele>
        <time>2021-05-28T06:37:21Z</time>
      </trkpt>
      <trkpt lat="37.9220774677" lon="-6.2381932978">
        <ele>550.49</ele>
        <time>2021-05-28T06:37:22Z</time>
      </trkpt>
      <trkpt lat="37.9218657408" lon="-6.2381483708">
        <ele>549.05</ele>
        <time>2021-05-28T06:37:23Z</time>
      </trkpt>
      <trkpt lat="37.9216533434" lon="-6.2380746100">
        <ele>549.05</ele>
        <time>2021-05-28T06:37:24Z</time>
      </trkpt>
      <trkpt lat="37.9214440472" lon="-6.2379679084">
        <ele>549.05</ele>
        <time>2021-05-28T06:37:25Z</time>
      </trkpt>
      <trkpt lat="37.9212330747" lon="-6.2378254160">
        <ele>548.57</ele>
        <time>2021-05-28T06:37:26Z</time>
      </trkpt>
      <trkpt lat="37.9199741129" lon="-6.2369142193">
        <ele>544.24</ele>
        <time>2021-05-28T06:37:32Z</time>
      </trkpt>
      <trkpt lat="37.9195271898" lon="-6.2366892491">
        <ele>543.28</ele>
        <time>2021-05-28T06:37:34Z</time>
      </trkpt>
      <trkpt lat="37.9192919936" lon="-6.2366096210">
        <ele>543.28</ele>
        <time>2021-05-28T06:37:35Z</time>
      </trkpt>
      <trkpt lat="37.9170836974" lon="-6.2358190399">
        <ele>541.36</ele>
        <time>2021-05-28T06:37:44Z</time>
      </trkpt>
      <trkpt lat="37.9166365229" lon="-6.2355908845">
        <ele>537.51</ele>
        <time>2021-05-28T06:37:46Z</time>
      </trkpt>
      <trkpt lat="37.9160118196" lon="-6.2352603860">
        <ele>533.67</ele>
        <time>2021-05-28T06:37:49Z</time>
      </trkpt>
      <trkpt lat="37.9154371563" lon="-6.2349006347">
        <ele>530.30</ele>
        <time>2021-05-28T06:37:52Z</time>
      </trkpt>
      <trkpt lat="37.9152648244" lon="-6.2347447313">
        <ele>529.34</ele>
        <time>2021-05-28T06:37:53Z</time>
      </trkpt>
      <trkpt lat="37.9150995333" lon="-6.2345653586">
        <ele>529.34</ele>
        <time>2021-05-28T06:37:54Z</time>
      </trkpt>
      <trkpt lat="37.9141044337" lon="-6.2333271001">
        <ele>525.50</ele>
        <time>2021-05-28T06:38:00Z</time>
      </trkpt>
      <trkpt lat="37.9138031043" lon="-6.2329544406">
        <ele>521.17</ele>
        <time>2021-05-28T06:38:02Z</time>
      </trkpt>
      <trkpt lat="37.9133918043" lon="-6.2324556336">
        <ele>517.33</ele>
        <time>2021-05-28T06:38:05Z</time>
      </trkpt>
      <trkpt lat="37.9131053109" lon="-6.2321610935">
        <ele>516.85</ele>
        <time>2021-05-28T06:38:07Z</time>
      </trkpt>
      <trkpt lat="37.9118554015" lon="-6.2314326223">
        <ele>515.40</ele>
        <time>2021-05-28T06:38:14Z</time>
      </trkpt>
      <trkpt lat="37.9105770774" lon="-6.2307574600">
        <ele>512.04</ele>
        <time>2021-05-28T06:38:22Z</time>
      </trkpt>
      <trkpt lat="37.9104705434" lon="-6.2306892313">
        <ele>512.04</ele>
        <time>2021-05-28T06:38:23Z</time>
      </trkpt>
      <trkpt lat="37.9101889115" lon="-6.2305412907">
        <ele>510.12</ele>
        <time>2021-05-28T06:38:26Z</time>
      </trkpt>
      <trkpt lat="37.9094972368" lon="-6.2302796915">
        <ele>513.48</ele>
        <time>2021-05-28T06:38:32Z</time>
      </trkpt>
      <trkpt lat="37.9090292752" lon="-6.2301597465">
        <ele>511.08</ele>
        <time>2021-05-28T06:38:36Z</time>
      </trkpt>
      <trkpt lat="37.9083191603" lon="-6.2301094551">
        <ele>513.96</ele>
        <time>2021-05-28T06:38:43Z</time>
      </trkpt>
      <trkpt lat="37.9081961140" lon="-6.2301115505">
        <ele>514.44</ele>
        <time>2021-05-28T06:38:44Z</time>
      </trkpt>
      <trkpt lat="37.9075742606" lon="-6.2301128078">
        <ele>513.96</ele>
        <time>2021-05-28T06:38:49Z</time>
      </trkpt>
      <trkpt lat="37.9074590094" lon="-6.2300822139">
        <ele>513.48</ele>
        <time>2021-05-28T06:38:50Z</time>
      </trkpt>
      <trkpt lat="37.9073547386" lon="-6.2300394662">
        <ele>513.00</ele>
        <time>2021-05-28T06:38:51Z</time>
      </trkpt>
      <trkpt lat="37.9069218971" lon="-6.2298315950">
        <ele>513.48</ele>
        <time>2021-05-28T06:38:56Z</time>
      </trkpt>
      <trkpt lat="37.9068261757" lon="-6.2298145797">
        <ele>513.48</ele>
        <time>2021-05-28T06:38:57Z</time>
      </trkpt>
      <trkpt lat="37.9066504072" lon="-6.2297901884">
        <ele>512.52</ele>
        <time>2021-05-28T06:38:59Z</time>
      </trkpt>
      <trkpt lat="37.9065766465" lon="-6.2297608517">
        <ele>512.04</ele>
        <time>2021-05-28T06:39:00Z</time>
      </trkpt>
      <trkpt lat="37.9065126926" lon="-6.2297131587">
        <ele>512.52</ele>
        <time>2021-05-28T06:39:01Z</time>
      </trkpt>
      <trkpt lat="37.9064617306" lon="-6.2296437565">
        <ele>512.04</ele>
        <time>2021-05-28T06:39:02Z</time>
      </trkpt>
      <trkpt lat="37.9064225871" lon="-6.2295521423">
        <ele>512.52</ele>
        <time>2021-05-28T06:39:03Z</time>
      </trkpt>
      <trkpt lat="37.9064051528" lon="-6.2294398248">
        <ele>512.52</ele>
        <time>2021-05-28T06:39:04Z</time>
      </trkpt>
      <trkpt lat="37.9064002912" lon="-6.2293169461">
        <ele>512.04</ele>
        <time>2021-05-28T06:39:05Z</time>
      </trkpt>
      <trkpt lat="37.9063677695" lon="-6.2286410294">
        <ele>509.16</ele>
        <time>2021-05-28T06:39:11Z</time>
      </trkpt>
      <trkpt lat="37.9063542746" lon="-6.2285092659">
        <ele>509.16</ele>
        <time>2021-05-28T06:39:12Z</time>
      </trkpt>
      <trkpt lat="37.9063556995" lon="-6.2283697072">
        <ele>508.19</ele>
        <time>2021-05-28T06:39:13Z</time>
      </trkpt>
      <trkpt lat="37.9063741397" lon="-6.2282292265">
        <ele>508.67</ele>
        <time>2021-05-28T06:39:14Z</time>
      </trkpt>
      <trkpt lat="37.9065737128" lon="-6.2273906171">
        <ele>505.31</ele>
        <time>2021-05-28T06:39:20Z</time>
      </trkpt>
      <trkpt lat="37.9070177022" lon="-6.2259321660">
        <ele>502.91</ele>
        <time>2021-05-28T06:39:31Z</time>
      </trkpt>
      <trkpt lat="37.9071918782" lon="-6.2252180278">
        <ele>499.54</ele>
        <time>2021-05-28T06:39:36Z</time>
      </trkpt>
      <trkpt lat="37.9073227197" lon="-6.2244911492">
        <ele>497.14</ele>
        <time>2021-05-28T06:39:43Z</time>
      </trkpt>
      <trkpt lat="37.9073230550" lon="-6.2244002055">
        <ele>496.66</ele>
        <time>2021-05-28T06:39:44Z</time>
      </trkpt>
      <trkpt lat="37.9073124100" lon="-6.2243005447">
        <ele>497.14</ele>
        <time>2021-05-28T06:39:45Z</time>
      </trkpt>
      <trkpt lat="37.9072893597" lon="-6.2241958547">
        <ele>497.14</ele>
        <time>2021-05-28T06:39:46Z</time>
      </trkpt>
      <trkpt lat="37.9072632082" lon="-6.2241010554">
        <ele>496.66</ele>
        <time>2021-05-28T06:39:47Z</time>
      </trkpt>
      <trkpt lat="37.9072097316" lon="-6.2239742372">
        <ele>497.62</ele>
        <time>2021-05-28T06:39:48Z</time>
      </trkpt>
      <trkpt lat="37.9071477056" lon="-6.2238627579">
        <ele>497.62</ele>
        <time>2021-05-28T06:39:49Z</time>
      </trkpt>
      <trkpt lat="37.9064460564" lon="-6.2228176184">
        <ele>496.66</ele>
        <time>2021-05-28T06:39:59Z</time>
      </trkpt>
      <trkpt lat="37.9058708902" lon="-6.2223316357">
        <ele>494.26</ele>
        <time>2021-05-28T06:40:05Z</time>
      </trkpt>
      <trkpt lat="37.9056024179" lon="-6.2221127842">
        <ele>490.89</ele>
        <time>2021-05-28T06:40:08Z</time>
      </trkpt>
      <trkpt lat="37.9054250568" lon="-6.2219729740">
        <ele>490.41</ele>
        <time>2021-05-28T06:40:10Z</time>
      </trkpt>
      <trkpt lat="37.9049844202" lon="-6.2216498516">
        <ele>487.05</ele>
        <time>2021-05-28T06:40:15Z</time>
      </trkpt>
      <trkpt lat="37.9049023613" lon="-6.2216164079">
        <ele>486.56</ele>
        <time>2021-05-28T06:40:16Z</time>
      </trkpt>
      <trkpt lat="37.9048267566" lon="-6.2215981353">
        <ele>486.08</ele>
        <time>2021-05-28T06:40:17Z</time>
      </trkpt>
      <trkpt lat="37.9047555104" lon="-6.2215918489">
        <ele>485.60</ele>
        <time>2021-05-28T06:40:18Z</time>
      </trkpt>
      <trkpt lat="37.9046861921" lon="-6.2215958722">
        <ele>485.12</ele>
        <time>2021-05-28T06:40:19Z</time>
      </trkpt>
      <trkpt lat="37.9046225734" lon="-6.2216097862">
        <ele>484.64</ele>
        <time>2021-05-28T06:40:20Z</time>
      </trkpt>
      <trkpt lat="37.9045618046" lon="-6.2216174975">
        <ele>484.16</ele>
        <time>2021-05-28T06:40:21Z</time>
      </trkpt>
      <trkpt lat="37.9045025446" lon="-6.2216180004">
        <ele>483.68</ele>
        <time>2021-05-28T06:40:22Z</time>
      </trkpt>
      <trkpt lat="37.9044440389" lon="-6.2216123007">
        <ele>483.20</ele>
        <time>2021-05-28T06:40:23Z</time>
      </trkpt>
      <trkpt lat="37.9041593056" lon="-6.2215674575">
        <ele>481.76</ele>
        <time>2021-05-28T06:40:29Z</time>
      </trkpt>
      <trkpt lat="37.9041579645" lon="-6.2215193454">
        <ele>481.28</ele>
        <time>2021-05-28T06:40:36Z</time>
      </trkpt>
      <trkpt lat="37.9041609820" lon="-6.2215169985">
        <ele>481.28</ele>
        <time>2021-05-28T06:40:40Z</time>
      </trkpt>
      <trkpt lat="37.9041738063" lon="-6.2213870790">
        <ele>481.28</ele>
        <time>2021-05-28T06:40:44Z</time>
      </trkpt>
      <trkpt lat="37.9041976109" lon="-6.2213534676">
        <ele>481.28</ele>
        <time>2021-05-28T06:40:45Z</time>
      </trkpt>
      <trkpt lat="37.9042281210" lon="-6.2213288248">
        <ele>481.28</ele>
        <time>2021-05-28T06:40:46Z</time>
      </trkpt>
      <trkpt lat="37.9042572062" lon="-6.2213076185">
        <ele>481.76</ele>
        <time>2021-05-28T06:40:47Z</time>
      </trkpt>
      <trkpt lat="37.9042743053" lon="-6.2212817185">
        <ele>482.24</ele>
        <time>2021-05-28T06:40:48Z</time>
      </trkpt>
      <trkpt lat="37.9042966850" lon="-6.2211703230">
        <ele>482.72</ele>
        <time>2021-05-28T06:41:00Z</time>
      </trkpt>
      <trkpt lat="37.9042949248" lon="-6.2211699039">
        <ele>482.72</ele>
        <time>2021-05-28T06:41:34Z</time>
      </trkpt>
      <trkpt lat="37.9043321405" lon="-6.2211455964">
        <ele>482.72</ele>
        <time>2021-05-28T06:42:00Z</time>
      </trkpt>
      <trkpt lat="37.9043424502" lon="-6.2211260665">
        <ele>482.24</ele>
        <time>2021-05-28T06:42:27Z</time>
      </trkpt>
      <trkpt lat="37.9043452162" lon="-6.2211218756">
        <ele>483.20</ele>
        <time>2021-05-28T06:42:34Z</time>
      </trkpt>
      <trkpt lat="37.9043507483" lon="-6.2211395614">
        <ele>482.24</ele>
        <time>2021-05-28T07:03:50Z</time>
      </trkpt>
      <trkpt lat="37.9043493234" lon="-6.2211406510">
        <ele>482.24</ele>
        <time>2021-05-28T07:03:52Z</time>
      </trkpt>
      <trkpt lat="37.9043051507" lon="-6.2211931217">
        <ele>487.05</ele>
        <time>2021-05-28T07:04:05Z</time>
      </trkpt>
      <trkpt lat="37.9043394327" lon="-6.2212094665">
        <ele>488.01</ele>
        <time>2021-05-28T07:04:06Z</time>
      </trkpt>
      <trkpt lat="37.9043712001" lon="-6.2212300859">
        <ele>488.49</ele>
        <time>2021-05-28T07:04:07Z</time>
      </trkpt>
      <trkpt lat="37.9043975193" lon="-6.2212538067">
        <ele>489.45</ele>
        <time>2021-05-28T07:04:08Z</time>
      </trkpt>
      <trkpt lat="37.9044087511" lon="-6.2212828919">
        <ele>489.93</ele>
        <time>2021-05-28T07:04:09Z</time>
      </trkpt>
      <trkpt lat="37.9044175521" lon="-6.2213097978">
        <ele>490.41</ele>
        <time>2021-05-28T07:04:10Z</time>
      </trkpt>
      <trkpt lat="37.9044525046" lon="-6.2215153221">
        <ele>493.29</ele>
        <time>2021-05-28T07:04:18Z</time>
      </trkpt>
      <trkpt lat="37.9043474793" lon="-6.2217195053">
        <ele>494.74</ele>
        <time>2021-05-28T07:04:24Z</time>
      </trkpt>
      <trkpt lat="37.9043250158" lon="-6.2217186671">
        <ele>494.26</ele>
        <time>2021-05-28T07:04:25Z</time>
      </trkpt>
      <trkpt lat="37.9043062404" lon="-6.2217174936">
        <ele>494.74</ele>
        <time>2021-05-28T07:04:26Z</time>
      </trkpt>
      <trkpt lat="37.9042939190" lon="-6.2217181642">
        <ele>494.26</ele>
        <time>2021-05-28T07:04:27Z</time>
      </trkpt>
      <trkpt lat="37.9043014627" lon="-6.2216938566">
        <ele>496.18</ele>
        <time>2021-05-28T07:04:40Z</time>
      </trkpt>
      <trkpt lat="37.9042951763" lon="-6.2216762546">
        <ele>496.18</ele>
        <time>2021-05-28T07:05:00Z</time>
      </trkpt>
      <trkpt lat="37.9043248482" lon="-6.2217151467">
        <ele>495.22</ele>
        <time>2021-05-28T07:05:21Z</time>
      </trkpt>
      <trkpt lat="37.9043281171" lon="-6.2217288930">
        <ele>495.70</ele>
        <time>2021-05-28T07:05:44Z</time>
      </trkpt>
      <trkpt lat="37.9042983614" lon="-6.2216814514">
        <ele>495.22</ele>
        <time>2021-05-28T07:06:03Z</time>
      </trkpt>
      <trkpt lat="37.9042958468" lon="-6.2216806971">
        <ele>495.22</ele>
        <time>2021-05-28T07:06:04Z</time>
      </trkpt>
      <trkpt lat="37.9040746484" lon="-6.2217714731">
        <ele>494.26</ele>
        <time>2021-05-28T07:21:34Z</time>
      </trkpt>
      <trkpt lat="37.9040719662" lon="-6.2217676174">
        <ele>493.77</ele>
        <time>2021-05-28T07:21:35Z</time>
      </trkpt>
      <trkpt lat="37.9040907416" lon="-6.2217887398">
        <ele>493.77</ele>
        <time>2021-05-28T07:22:02Z</time>
      </trkpt>
      <trkpt lat="37.9040901549" lon="-6.2217346765">
        <ele>494.26</ele>
        <time>2021-05-28T07:22:22Z</time>
      </trkpt>
      <trkpt lat="37.9041064158" lon="-6.2217417173">
        <ele>494.26</ele>
        <time>2021-05-28T07:22:47Z</time>
      </trkpt>
      <trkpt lat="37.9041093495" lon="-6.2216999754">
        <ele>494.74</ele>
        <time>2021-05-28T07:23:13Z</time>
      </trkpt>
      <trkpt lat="37.9040956032" lon="-6.2216630951">
        <ele>495.22</ele>
        <time>2021-05-28T07:23:37Z</time>
      </trkpt>
      <trkpt lat="37.9040974472" lon="-6.2216475885">
        <ele>495.70</ele>
        <time>2021-05-28T07:24:00Z</time>
      </trkpt>
      <trkpt lat="37.9041067511" lon="-6.2216757517">
        <ele>495.22</ele>
        <time>2021-05-28T07:24:25Z</time>
      </trkpt>
      <trkpt lat="37.9041157197" lon="-6.2216868997">
        <ele>495.22</ele>
        <time>2021-05-28T07:24:52Z</time>
      </trkpt>
      <trkpt lat="37.9041272867" lon="-6.2216775957">
        <ele>494.74</ele>
        <time>2021-05-28T07:25:19Z</time>
      </trkpt>
      <trkpt lat="37.9040850420" lon="-6.2217209302">
        <ele>495.70</ele>
        <time>2021-05-28T07:25:46Z</time>
      </trkpt>
      <trkpt lat="37.9040922504" lon="-6.2217453215">
        <ele>495.22</ele>
        <time>2021-05-28T07:26:15Z</time>
      </trkpt>
      <trkpt lat="37.9040965252" lon="-6.2217873149">
        <ele>496.18</ele>
        <time>2021-05-28T07:26:36Z</time>
      </trkpt>
      <trkpt lat="37.9040753189" lon="-6.2217525300">
        <ele>496.18</ele>
        <time>2021-05-28T07:26:58Z</time>
      </trkpt>
      <trkpt lat="37.9040436354" lon="-6.2217244506">
        <ele>495.70</ele>
        <time>2021-05-28T07:27:19Z</time>
      </trkpt>
      <trkpt lat="37.9040456470" lon="-6.2217068486">
        <ele>495.70</ele>
        <time>2021-05-28T07:27:43Z</time>
      </trkpt>
      <trkpt lat="37.9041032307" lon="-6.2217278033">
        <ele>495.70</ele>
        <time>2021-05-28T07:28:09Z</time>
      </trkpt>
      <trkpt lat="37.9041262809" lon="-6.2217370234">
        <ele>495.70</ele>
        <time>2021-05-28T07:28:31Z</time>
      </trkpt>
      <trkpt lat="37.9041243531" lon="-6.2217539549">
        <ele>495.22</ele>
        <time>2021-05-28T07:28:56Z</time>
      </trkpt>
      <trkpt lat="37.9041025601" lon="-6.2217226066">
        <ele>495.70</ele>
        <time>2021-05-28T07:29:16Z</time>
      </trkpt>
      <trkpt lat="37.9040990397" lon="-6.2216996402">
        <ele>495.22</ele>
        <time>2021-05-28T07:29:43Z</time>
      </trkpt>
      <trkpt lat="37.9040777497" lon="-6.2217125483">
        <ele>495.22</ele>
        <time>2021-05-28T07:30:05Z</time>
      </trkpt>
      <trkpt lat="37.9040740617" lon="-6.2217106204">
        <ele>494.74</ele>
        <time>2021-05-28T07:30:06Z</time>
      </trkpt>
      <trkpt lat="37.9039170686" lon="-6.2215114664">
        <ele>493.29</ele>
        <time>2021-05-28T07:30:19Z</time>
      </trkpt>
      <trkpt lat="37.9038380273" lon="-6.2214707304">
        <ele>494.26</ele>
        <time>2021-05-28T07:30:29Z</time>
      </trkpt>
      <trkpt lat="37.9037906695" lon="-6.2214557268">
        <ele>494.26</ele>
        <time>2021-05-28T07:30:30Z</time>
      </trkpt>
      <trkpt lat="37.9037312418" lon="-6.2214434054">
        <ele>494.26</ele>
        <time>2021-05-28T07:30:31Z</time>
      </trkpt>
      <trkpt lat="37.9032763559" lon="-6.2214080337">
        <ele>492.33</ele>
        <time>2021-05-28T07:30:37Z</time>
      </trkpt>
      <trkpt lat="37.9031067900" lon="-6.2214098778">
        <ele>490.89</ele>
        <time>2021-05-28T07:30:39Z</time>
      </trkpt>
      <trkpt lat="37.9028634634" lon="-6.2214240432">
        <ele>489.93</ele>
        <time>2021-05-28T07:30:42Z</time>
      </trkpt>
      <trkpt lat="37.9027941450" lon="-6.2214444112">
        <ele>488.49</ele>
        <time>2021-05-28T07:30:43Z</time>
      </trkpt>
      <trkpt lat="37.9027285986" lon="-6.2214781903">
        <ele>488.01</ele>
        <time>2021-05-28T07:30:44Z</time>
      </trkpt>
      <trkpt lat="37.9026662372" lon="-6.2215294875">
        <ele>488.01</ele>
        <time>2021-05-28T07:30:45Z</time>
      </trkpt>
      <trkpt lat="37.9026089888" lon="-6.2216098700">
        <ele>487.53</ele>
        <time>2021-05-28T07:30:46Z</time>
      </trkpt>
      <trkpt lat="37.9025602899" lon="-6.2217129674">
        <ele>487.53</ele>
        <time>2021-05-28T07:30:47Z</time>
      </trkpt>
      <trkpt lat="37.9025205597" lon="-6.2218236923">
        <ele>488.49</ele>
        <time>2021-05-28T07:30:48Z</time>
      </trkpt>
      <trkpt lat="37.9024856072" lon="-6.2219334114">
        <ele>488.49</ele>
        <time>2021-05-28T07:30:49Z</time>
      </trkpt>
      <trkpt lat="37.9020348284" lon="-6.2233543117">
        <ele>489.45</ele>
        <time>2021-05-28T07:31:01Z</time>
      </trkpt>
      <trkpt lat="37.9013929423" lon="-6.2252988294">
        <ele>492.81</ele>
        <time>2021-05-28T07:31:17Z</time>
      </trkpt>
      <trkpt lat="37.9012492765" lon="-6.2257416453">
        <ele>495.70</ele>
        <time>2021-05-28T07:31:20Z</time>
      </trkpt>
      <trkpt lat="37.9011424910" lon="-6.2260674499">
        <ele>497.14</ele>
        <time>2021-05-28T07:31:22Z</time>
      </trkpt>
      <trkpt lat="37.9009573348" lon="-6.2266361620">
        <ele>500.50</ele>
        <time>2021-05-28T07:31:25Z</time>
      </trkpt>
      <trkpt lat="37.9007062130" lon="-6.2274205405">
        <ele>503.87</ele>
        <time>2021-05-28T07:31:29Z</time>
      </trkpt>
      <trkpt lat="37.9005120043" lon="-6.2280579843">
        <ele>506.27</ele>
        <time>2021-05-28T07:31:32Z</time>
      </trkpt>
      <trkpt lat="37.9001810029" lon="-6.2291813269">
        <ele>510.60</ele>
        <time>2021-05-28T07:31:37Z</time>
      </trkpt>
      <trkpt lat="37.9001074098" lon="-6.2294327840">
        <ele>510.60</ele>
        <time>2021-05-28T07:31:38Z</time>
      </trkpt>
      <trkpt lat="37.8996489197" lon="-6.2310014572">
        <ele>514.44</ele>
        <time>2021-05-28T07:31:44Z</time>
      </trkpt>
      <trkpt lat="37.8994936030" lon="-6.2315381505">
        <ele>517.33</ele>
        <time>2021-05-28T07:31:46Z</time>
      </trkpt>
      <trkpt lat="37.8992552217" lon="-6.2323435675">
        <ele>520.69</ele>
        <time>2021-05-28T07:31:49Z</time>
      </trkpt>
      <trkpt lat="37.8990214504" lon="-6.2331222463">
        <ele>525.02</ele>
        <time>2021-05-28T07:31:52Z</time>
      </trkpt>
      <trkpt lat="37.8988062870" lon="-6.2338452693">
        <ele>526.94</ele>
        <time>2021-05-28T07:31:55Z</time>
      </trkpt>
      <trkpt lat="37.8985664807" lon="-6.2346725632">
        <ele>528.38</ele>
        <time>2021-05-28T07:31:59Z</time>
      </trkpt>
      <trkpt lat="37.8984401654" lon="-6.2351023871">
        <ele>532.23</ele>
        <time>2021-05-28T07:32:01Z</time>
      </trkpt>
      <trkpt lat="37.8980834316" lon="-6.2363373768">
        <ele>529.82</ele>
        <time>2021-05-28T07:32:08Z</time>
      </trkpt>
      <trkpt lat="37.8980485629" lon="-6.2364916876">
        <ele>527.90</ele>
        <time>2021-05-28T07:32:10Z</time>
      </trkpt>
      <trkpt lat="37.8980437014" lon="-6.2365398835">
        <ele>528.38</ele>
        <time>2021-05-28T07:32:11Z</time>
      </trkpt>
      <trkpt lat="37.8980412707" lon="-6.2365754228">
        <ele>528.38</ele>
        <time>2021-05-28T07:32:12Z</time>
      </trkpt>
      <trkpt lat="37.8980372474" lon="-6.2366017420">
        <ele>528.38</ele>
        <time>2021-05-28T07:32:13Z</time>
      </trkpt>
      <trkpt lat="37.8980327211" lon="-6.2366181705">
        <ele>528.38</ele>
        <time>2021-05-28T07:32:14Z</time>
      </trkpt>
      <trkpt lat="37.8980357386" lon="-6.2366057653">
        <ele>528.86</ele>
        <time>2021-05-28T07:32:26Z</time>
      </trkpt>
      <trkpt lat="37.8980319668" lon="-6.2365947012">
        <ele>528.86</ele>
        <time>2021-05-28T07:32:54Z</time>
      </trkpt>
      <trkpt lat="37.8980202321" lon="-6.2366136443">
        <ele>528.38</ele>
        <time>2021-05-28T07:32:57Z</time>
      </trkpt>
      <trkpt lat="37.8980012890" lon="-6.2366366945">
        <ele>528.38</ele>
        <time>2021-05-28T07:32:58Z</time>
      </trkpt>
      <trkpt lat="37.8979797475" lon="-6.2366829626">
        <ele>529.34</ele>
        <time>2021-05-28T07:32:59Z</time>
      </trkpt>
      <trkpt lat="37.8979577031" lon="-6.2367589865">
        <ele>529.82</ele>
        <time>2021-05-28T07:33:00Z</time>
      </trkpt>
      <trkpt lat="37.8979313001" lon="-6.2368526123">
        <ele>530.30</ele>
        <time>2021-05-28T07:33:01Z</time>
      </trkpt>
      <trkpt lat="37.8978985269" lon="-6.2369616609">
        <ele>530.79</ele>
        <time>2021-05-28T07:33:02Z</time>
      </trkpt>
      <trkpt lat="37.8977577109" lon="-6.2374245096">
        <ele>534.63</ele>
        <time>2021-05-28T07:33:05Z</time>
      </trkpt>
      <trkpt lat="37.8976489976" lon="-6.2378046289">
        <ele>537.51</ele>
        <time>2021-05-28T07:33:07Z</time>
      </trkpt>
      <trkpt lat="37.8975252807" lon="-6.2382282503">
        <ele>538.48</ele>
        <time>2021-05-28T07:33:09Z</time>
      </trkpt>
      <trkpt lat="37.8973059263" lon="-6.2389556319">
        <ele>542.32</ele>
        <time>2021-05-28T07:33:12Z</time>
      </trkpt>
      <trkpt lat="37.8971521184" lon="-6.2394748069">
        <ele>543.76</ele>
        <time>2021-05-28T07:33:14Z</time>
      </trkpt>
      <trkpt lat="37.8967262339" lon="-6.2409264687">
        <ele>540.88</ele>
        <time>2021-05-28T07:33:20Z</time>
      </trkpt>
      <trkpt lat="37.8965062089" lon="-6.2416720390">
        <ele>537.51</ele>
        <time>2021-05-28T07:33:24Z</time>
      </trkpt>
      <trkpt lat="37.8959758021" lon="-6.2434898224">
        <ele>535.59</ele>
        <time>2021-05-28T07:33:33Z</time>
      </trkpt>
      <trkpt lat="37.8956719581" lon="-6.2445011828">
        <ele>532.23</ele>
        <time>2021-05-28T07:33:37Z</time>
      </trkpt>
      <trkpt lat="37.8954313137" lon="-6.2453037500">
        <ele>530.30</ele>
        <time>2021-05-28T07:33:40Z</time>
      </trkpt>
      <trkpt lat="37.8952604905" lon="-6.2458714563">
        <ele>526.94</ele>
        <time>2021-05-28T07:33:42Z</time>
      </trkpt>
      <trkpt lat="37.8950832132" lon="-6.2464583572">
        <ele>525.98</ele>
        <time>2021-05-28T07:33:44Z</time>
      </trkpt>
      <trkpt lat="37.8949030861" lon="-6.2470621057">
        <ele>521.65</ele>
        <time>2021-05-28T07:33:46Z</time>
      </trkpt>
      <trkpt lat="37.8947275691" lon="-6.2476540357">
        <ele>518.29</ele>
        <time>2021-05-28T07:33:48Z</time>
      </trkpt>
      <trkpt lat="37.8943596035" lon="-6.2489081360">
        <ele>514.44</ele>
        <time>2021-05-28T07:33:52Z</time>
      </trkpt>
      <trkpt lat="37.8941648081" lon="-6.2495568115">
        <ele>511.08</ele>
        <time>2021-05-28T07:33:54Z</time>
      </trkpt>
      <trkpt lat="37.8939695936" lon="-6.2502122764">
        <ele>507.23</ele>
        <time>2021-05-28T07:33:56Z</time>
      </trkpt>
      <trkpt lat="37.8936768137" lon="-6.2511920370">
        <ele>501.95</ele>
        <time>2021-05-28T07:33:59Z</time>
      </trkpt>
      <trkpt lat="37.8935831040" lon="-6.2515025027">
        <ele>497.62</ele>
        <time>2021-05-28T07:34:00Z</time>
      </trkpt>
      <trkpt lat="37.8933946788" lon="-6.2520884816">
        <ele>493.29</ele>
        <time>2021-05-28T07:34:02Z</time>
      </trkpt>
      <trkpt lat="37.8931562137" lon="-6.2526217382">
        <ele>489.93</ele>
        <time>2021-05-28T07:34:04Z</time>
      </trkpt>
      <trkpt lat="37.8930066805" lon="-6.2528716028">
        <ele>488.97</ele>
        <time>2021-05-28T07:34:05Z</time>
      </trkpt>
      <trkpt lat="37.8928447422" lon="-6.2531093974">
        <ele>487.53</ele>
        <time>2021-05-28T07:34:06Z</time>
      </trkpt>
      <trkpt lat="37.8917664941" lon="-6.2543486618">
        <ele>483.20</ele>
        <time>2021-05-28T07:34:12Z</time>
      </trkpt>
      <trkpt lat="37.8904639464" lon="-6.2550960761">
        <ele>481.28</ele>
        <time>2021-05-28T07:34:18Z</time>
      </trkpt>
      <trkpt lat="37.8897864372" lon="-6.2554053683">
        <ele>476.95</ele>
        <time>2021-05-28T07:34:21Z</time>
      </trkpt>
      <trkpt lat="37.8891179804" lon="-6.2557270657">
        <ele>474.07</ele>
        <time>2021-05-28T07:34:24Z</time>
      </trkpt>
      <trkpt lat="37.8888971172" lon="-6.2558532134">
        <ele>474.07</ele>
        <time>2021-05-28T07:34:25Z</time>
      </trkpt>
      <trkpt lat="37.8886824567" lon="-6.2560014892">
        <ele>474.07</ele>
        <time>2021-05-28T07:34:26Z</time>
      </trkpt>
      <trkpt lat="37.8884768486" lon="-6.2561669480">
        <ele>474.07</ele>
        <time>2021-05-28T07:34:27Z</time>
      </trkpt>
      <trkpt lat="37.8882921953" lon="-6.2563563790">
        <ele>472.63</ele>
        <time>2021-05-28T07:34:28Z</time>
      </trkpt>
      <trkpt lat="37.8881295025" lon="-6.2565773260">
        <ele>470.70</ele>
        <time>2021-05-28T07:34:29Z</time>
      </trkpt>
      <trkpt lat="37.8879787959" lon="-6.2568168808">
        <ele>470.22</ele>
        <time>2021-05-28T07:34:30Z</time>
      </trkpt>
      <trkpt lat="37.8878325317" lon="-6.2570695113">
        <ele>468.78</ele>
        <time>2021-05-28T07:34:31Z</time>
      </trkpt>
      <trkpt lat="37.8872692678" lon="-6.2581444904">
        <ele>464.93</ele>
        <time>2021-05-28T07:34:35Z</time>
      </trkpt>
      <trkpt lat="37.8869667649" lon="-6.2586634979">
        <ele>461.57</ele>
        <time>2021-05-28T07:34:37Z</time>
      </trkpt>
      <trkpt lat="37.8864906728" lon="-6.2594189588">
        <ele>456.76</ele>
        <time>2021-05-28T07:34:40Z</time>
      </trkpt>
      <trkpt lat="37.8863206878" lon="-6.2596598547">
        <ele>453.40</ele>
        <time>2021-05-28T07:34:41Z</time>
      </trkpt>
      <trkpt lat="37.8857492097" lon="-6.2603133917">
        <ele>451.96</ele>
        <time>2021-05-28T07:34:44Z</time>
      </trkpt>
      <trkpt lat="37.8850976005" lon="-6.2608431280">
        <ele>448.59</ele>
        <time>2021-05-28T07:34:47Z</time>
      </trkpt>
      <trkpt lat="37.8836285044" lon="-6.2615177035">
        <ele>445.23</ele>
        <time>2021-05-28T07:34:53Z</time>
      </trkpt>
      <trkpt lat="37.8824600670" lon="-6.2621507049">
        <ele>442.82</ele>
        <time>2021-05-28T07:34:58Z</time>
      </trkpt>
      <trkpt lat="37.8814859223" lon="-6.2630073354">
        <ele>438.02</ele>
        <time>2021-05-28T07:35:03Z</time>
      </trkpt>
      <trkpt lat="37.8813559189" lon="-6.2631909829">
        <ele>436.58</ele>
        <time>2021-05-28T07:35:04Z</time>
      </trkpt>
      <trkpt lat="37.8812542465" lon="-6.2634007819">
        <ele>436.10</ele>
        <time>2021-05-28T07:35:05Z</time>
      </trkpt>
      <trkpt lat="37.8811672423" lon="-6.2636358943">
        <ele>437.54</ele>
        <time>2021-05-28T07:35:06Z</time>
      </trkpt>
      <trkpt lat="37.8810848482" lon="-6.2638894469">
        <ele>439.46</ele>
        <time>2021-05-28T07:35:07Z</time>
      </trkpt>
      <trkpt lat="37.8809026256" lon="-6.2647371925">
        <ele>440.90</ele>
        <time>2021-05-28T07:35:10Z</time>
      </trkpt>
      <trkpt lat="37.8805320617" lon="-6.2667883281">
        <ele>438.50</ele>
        <time>2021-05-28T07:35:17Z</time>
      </trkpt>
      <trkpt lat="37.8804384358" lon="-6.2670276314">
        <ele>438.02</ele>
        <time>2021-05-28T07:35:18Z</time>
      </trkpt>
      <trkpt lat="37.8803227656" lon="-6.2672507577">
        <ele>438.02</ele>
        <time>2021-05-28T07:35:19Z</time>
      </trkpt>
      <trkpt lat="37.8801827040" lon="-6.2674587965">
        <ele>439.46</ele>
        <time>2021-05-28T07:35:20Z</time>
      </trkpt>
      <trkpt lat="37.8800225258" lon="-6.2676542625">
        <ele>439.46</ele>
        <time>2021-05-28T07:35:21Z</time>
      </trkpt>
      <trkpt lat="37.8798470926" lon="-6.2678465433">
        <ele>439.46</ele>
        <time>2021-05-28T07:35:22Z</time>
      </trkpt>
      <trkpt lat="37.8788904659" lon="-6.2688849773">
        <ele>436.10</ele>
        <time>2021-05-28T07:35:27Z</time>
      </trkpt>
      <trkpt lat="37.8780744877" lon="-6.2697556056">
        <ele>433.69</ele>
        <time>2021-05-28T07:35:31Z</time>
      </trkpt>
      <trkpt lat="37.8774326015" lon="-6.2703663111">
        <ele>430.81</ele>
        <time>2021-05-28T07:35:34Z</time>
      </trkpt>
      <trkpt lat="37.8769830801" lon="-6.2707387190">
        <ele>428.89</ele>
        <time>2021-05-28T07:35:36Z</time>
      </trkpt>
      <trkpt lat="37.8762725461" lon="-6.2712348439">
        <ele>426.96</ele>
        <time>2021-05-28T07:35:39Z</time>
      </trkpt>
      <trkpt lat="37.8744491469" lon="-6.2721695937">
        <ele>423.60</ele>
        <time>2021-05-28T07:35:46Z</time>
      </trkpt>
      <trkpt lat="37.8733766824" lon="-6.2727106456">
        <ele>420.23</ele>
        <time>2021-05-28T07:35:50Z</time>
      </trkpt>
      <trkpt lat="37.8728317749" lon="-6.2729868293">
        <ele>416.87</ele>
        <time>2021-05-28T07:35:52Z</time>
      </trkpt>
      <trkpt lat="37.8722811677" lon="-6.2732658628">
        <ele>414.47</ele>
        <time>2021-05-28T07:35:54Z</time>
      </trkpt>
      <trkpt lat="37.8717254475" lon="-6.2735448126">
        <ele>411.10</ele>
        <time>2021-05-28T07:35:56Z</time>
      </trkpt>
      <trkpt lat="37.8708953038" lon="-6.2739638239">
        <ele>408.22</ele>
        <time>2021-05-28T07:35:59Z</time>
      </trkpt>
      <trkpt lat="37.8700918145" lon="-6.2743734475">
        <ele>402.45</ele>
        <time>2021-05-28T07:36:02Z</time>
      </trkpt>
      <trkpt lat="37.8698298801" lon="-6.2745052949">
        <ele>402.45</ele>
        <time>2021-05-28T07:36:03Z</time>
      </trkpt>
      <trkpt lat="37.8688308410" lon="-6.2750444189">
        <ele>398.60</ele>
        <time>2021-05-28T07:36:07Z</time>
      </trkpt>
      <trkpt lat="37.8664765321" lon="-6.2764461245">
        <ele>395.24</ele>
        <time>2021-05-28T07:36:17Z</time>
      </trkpt>
      <trkpt lat="37.8642326966" lon="-6.2775482610">
        <ele>398.12</ele>
        <time>2021-05-28T07:36:26Z</time>
      </trkpt>
      <trkpt lat="37.8639727738" lon="-6.2776351813">
        <ele>398.60</ele>
        <time>2021-05-28T07:36:27Z</time>
      </trkpt>
      <trkpt lat="37.8631942626" lon="-6.2778899074">
        <ele>400.05</ele>
        <time>2021-05-28T07:36:30Z</time>
      </trkpt>
      <trkpt lat="37.8617665730" lon="-6.2783784885">
        <ele>399.08</ele>
        <time>2021-05-28T07:36:36Z</time>
      </trkpt>
      <trkpt lat="37.8615607973" lon="-6.2784971762">
        <ele>399.57</ele>
        <time>2021-05-28T07:36:37Z</time>
      </trkpt>
      <trkpt lat="37.8613638226" lon="-6.2786410097">
        <ele>399.08</ele>
        <time>2021-05-28T07:36:38Z</time>
      </trkpt>
      <trkpt lat="37.8611801751" lon="-6.2788104918">
        <ele>399.08</ele>
        <time>2021-05-28T07:36:39Z</time>
      </trkpt>
      <trkpt lat="37.8610136267" lon="-6.2790063769">
        <ele>399.57</ele>
        <time>2021-05-28T07:36:40Z</time>
      </trkpt>
      <trkpt lat="37.8608645964" lon="-6.2792257313">
        <ele>399.57</ele>
        <time>2021-05-28T07:36:41Z</time>
      </trkpt>
      <trkpt lat="37.8607359342" lon="-6.2794646155">
        <ele>400.53</ele>
        <time>2021-05-28T07:36:42Z</time>
      </trkpt>
      <trkpt lat="37.8606255446" lon="-6.2797173299">
        <ele>400.05</ele>
        <time>2021-05-28T07:36:43Z</time>
      </trkpt>
      <trkpt lat="37.8605325893" lon="-6.2799816113">
        <ele>400.53</ele>
        <time>2021-05-28T07:36:44Z</time>
      </trkpt>
      <trkpt lat="37.8604594991" lon="-6.2802574597">
        <ele>401.01</ele>
        <time>2021-05-28T07:36:45Z</time>
      </trkpt>
      <trkpt lat="37.8604010772" lon="-6.2805458810">
        <ele>402.45</ele>
        <time>2021-05-28T07:36:46Z</time>
      </trkpt>
      <trkpt lat="37.8603553120" lon="-6.2808424328">
        <ele>404.37</ele>
        <time>2021-05-28T07:36:47Z</time>
      </trkpt>
      <trkpt lat="37.8603181802" lon="-6.2811383978">
        <ele>404.37</ele>
        <time>2021-05-28T07:36:48Z</time>
      </trkpt>
      <trkpt lat="37.8600151744" lon="-6.2824525125">
        <ele>405.33</ele>
        <time>2021-05-28T07:36:53Z</time>
      </trkpt>
      <trkpt lat="37.8598994203" lon="-6.2826737110">
        <ele>406.29</ele>
        <time>2021-05-28T07:36:54Z</time>
      </trkpt>
      <trkpt lat="37.8597600292" lon="-6.2828813307">
        <ele>408.22</ele>
        <time>2021-05-28T07:36:55Z</time>
      </trkpt>
      <trkpt lat="37.8596050479" lon="-6.2830778863">
        <ele>410.14</ele>
        <time>2021-05-28T07:36:56Z</time>
      </trkpt>
      <trkpt lat="37.8594410140" lon="-6.2832637131">
        <ele>409.66</ele>
        <time>2021-05-28T07:36:57Z</time>
      </trkpt>
      <trkpt lat="37.8587859683" lon="-6.2839542981">
        <ele>412.06</ele>
        <time>2021-05-28T07:37:01Z</time>
      </trkpt>
      <trkpt lat="37.8586449847" lon="-6.2841480039">
        <ele>413.02</ele>
        <time>2021-05-28T07:37:02Z</time>
      </trkpt>
      <trkpt lat="37.8585148137" lon="-6.2843647599">
        <ele>413.02</ele>
        <time>2021-05-28T07:37:03Z</time>
      </trkpt>
      <trkpt lat="37.8583994787" lon="-6.2846015487">
        <ele>413.50</ele>
        <time>2021-05-28T07:37:04Z</time>
      </trkpt>
      <trkpt lat="37.8583030030" lon="-6.2848571129">
        <ele>413.50</ele>
        <time>2021-05-28T07:37:05Z</time>
      </trkpt>
      <trkpt lat="37.8582210280" lon="-6.2851301953">
        <ele>416.39</ele>
        <time>2021-05-28T07:37:06Z</time>
      </trkpt>
      <trkpt lat="37.8581471834" lon="-6.2854171917">
        <ele>417.35</ele>
        <time>2021-05-28T07:37:07Z</time>
      </trkpt>
      <trkpt lat="37.8574498091" lon="-6.2880070321">
        <ele>419.27</ele>
        <time>2021-05-28T07:37:16Z</time>
      </trkpt>
      <trkpt lat="37.8566305619" lon="-6.2894508988">
        <ele>419.27</ele>
        <time>2021-05-28T07:37:22Z</time>
      </trkpt>
      <trkpt lat="37.8554755356" lon="-6.2905964535">
        <ele>416.39</ele>
        <time>2021-05-28T07:37:28Z</time>
      </trkpt>
      <trkpt lat="37.8550779819" lon="-6.2909633294">
        <ele>413.02</ele>
        <time>2021-05-28T07:37:30Z</time>
      </trkpt>
      <trkpt lat="37.8547178116" lon="-6.2913636491">
        <ele>411.10</ele>
        <time>2021-05-28T07:37:32Z</time>
      </trkpt>
      <trkpt lat="37.8545653448" lon="-6.2915877812">
        <ele>408.70</ele>
        <time>2021-05-28T07:37:33Z</time>
      </trkpt>
      <trkpt lat="37.8544293903" lon="-6.2918306049">
        <ele>406.77</ele>
        <time>2021-05-28T07:37:34Z</time>
      </trkpt>
      <trkpt lat="37.8543108702" lon="-6.2920937967">
        <ele>405.33</ele>
        <time>2021-05-28T07:37:35Z</time>
      </trkpt>
      <trkpt lat="37.8542098682" lon="-6.2923741713">
        <ele>403.89</ele>
        <time>2021-05-28T07:37:36Z</time>
      </trkpt>
      <trkpt lat="37.8541237023" lon="-6.2926724833">
        <ele>402.93</ele>
        <time>2021-05-28T07:37:37Z</time>
      </trkpt>
      <trkpt lat="37.8540492710" lon="-6.2929791771">
        <ele>402.93</ele>
        <time>2021-05-28T07:37:38Z</time>
      </trkpt>
      <trkpt lat="37.8538382147" lon="-6.2939196266">
        <ele>399.08</ele>
        <time>2021-05-28T07:37:41Z</time>
      </trkpt>
      <trkpt lat="37.8536885977" lon="-6.2945562322">
        <ele>395.72</ele>
        <time>2021-05-28T07:37:43Z</time>
      </trkpt>
      <trkpt lat="37.8535402380" lon="-6.2951915804">
        <ele>392.36</ele>
        <time>2021-05-28T07:37:45Z</time>
      </trkpt>
      <trkpt lat="37.8533186205" lon="-6.2961332873">
        <ele>387.07</ele>
        <time>2021-05-28T07:37:48Z</time>
      </trkpt>
      <trkpt lat="37.8530909680" lon="-6.2970646005">
        <ele>380.82</ele>
        <time>2021-05-28T07:37:51Z</time>
      </trkpt>
      <trkpt lat="37.8529110923" lon="-6.2976584584">
        <ele>377.45</ele>
        <time>2021-05-28T07:37:53Z</time>
      </trkpt>
      <trkpt lat="37.8526865412" lon="-6.2982238177">
        <ele>374.57</ele>
        <time>2021-05-28T07:37:55Z</time>
      </trkpt>
      <trkpt lat="37.8524110280" lon="-6.2987579126">
        <ele>371.21</ele>
        <time>2021-05-28T07:37:57Z</time>
      </trkpt>
      <trkpt lat="37.8519431502" lon="-6.2994936761">
        <ele>367.36</ele>
        <time>2021-05-28T07:38:00Z</time>
      </trkpt>
      <trkpt lat="37.8516428266" lon="-6.2999399286">
        <ele>361.11</ele>
        <time>2021-05-28T07:38:02Z</time>
      </trkpt>
      <trkpt lat="37.8513395693" lon="-6.3003171142">
        <ele>357.75</ele>
        <time>2021-05-28T07:38:04Z</time>
      </trkpt>
      <trkpt lat="37.8511695005" lon="-6.3004705030">
        <ele>355.83</ele>
        <time>2021-05-28T07:38:05Z</time>
      </trkpt>
      <trkpt lat="37.8509862721" lon="-6.3005979080">
        <ele>353.42</ele>
        <time>2021-05-28T07:38:06Z</time>
      </trkpt>
      <trkpt lat="37.8507932369" lon="-6.3006959762">
        <ele>352.46</ele>
        <time>2021-05-28T07:38:07Z</time>
      </trkpt>
      <trkpt lat="37.8505866230" lon="-6.3007616065">
        <ele>351.50</ele>
        <time>2021-05-28T07:38:08Z</time>
      </trkpt>
      <trkpt lat="37.8503676876" lon="-6.3007909432">
        <ele>349.58</ele>
        <time>2021-05-28T07:38:09Z</time>
      </trkpt>
      <trkpt lat="37.8501412924" lon="-6.3007836509">
        <ele>349.10</ele>
        <time>2021-05-28T07:38:10Z</time>
      </trkpt>
      <trkpt lat="37.8499060962" lon="-6.3007533923">
        <ele>348.62</ele>
        <time>2021-05-28T07:38:11Z</time>
      </trkpt>
      <trkpt lat="37.8496652003" lon="-6.3007115666">
        <ele>348.13</ele>
        <time>2021-05-28T07:38:12Z</time>
      </trkpt>
      <trkpt lat="37.8489187080" lon="-6.3006260712">
        <ele>344.29</ele>
        <time>2021-05-28T07:38:15Z</time>
      </trkpt>
      <trkpt lat="37.8481625766" lon="-6.3006889354">
        <ele>339.96</ele>
        <time>2021-05-28T07:38:18Z</time>
      </trkpt>
      <trkpt lat="37.8476723190" lon="-6.3008167595">
        <ele>336.60</ele>
        <time>2021-05-28T07:38:20Z</time>
      </trkpt>
      <trkpt lat="37.8467483819" lon="-6.3012722321">
        <ele>331.31</ele>
        <time>2021-05-28T07:38:24Z</time>
      </trkpt>
      <trkpt lat="37.8463100921" lon="-6.3015375193">
        <ele>327.95</ele>
        <time>2021-05-28T07:38:26Z</time>
      </trkpt>
      <trkpt lat="37.8458693717" lon="-6.3017671835">
        <ele>323.62</ele>
        <time>2021-05-28T07:38:28Z</time>
      </trkpt>
      <trkpt lat="37.8456475865" lon="-6.3018407766">
        <ele>320.74</ele>
        <time>2021-05-28T07:38:29Z</time>
      </trkpt>
      <trkpt lat="37.8449735139" lon="-6.3019844424">
        <ele>316.41</ele>
        <time>2021-05-28T07:38:32Z</time>
      </trkpt>
      <trkpt lat="37.8445501439" lon="-6.3021118473">
        <ele>313.53</ele>
        <time>2021-05-28T07:38:34Z</time>
      </trkpt>
      <trkpt lat="37.8443470504" lon="-6.3022105023">
        <ele>313.05</ele>
        <time>2021-05-28T07:38:35Z</time>
      </trkpt>
      <trkpt lat="37.8441523388" lon="-6.3023340516">
        <ele>312.57</ele>
        <time>2021-05-28T07:38:36Z</time>
      </trkpt>
      <trkpt lat="37.8439665120" lon="-6.3024808187">
        <ele>311.60</ele>
        <time>2021-05-28T07:38:37Z</time>
      </trkpt>
      <trkpt lat="37.8437890671" lon="-6.3026526477">
        <ele>310.16</ele>
        <time>2021-05-28T07:38:38Z</time>
      </trkpt>
      <trkpt lat="37.8436248656" lon="-6.3028504606">
        <ele>309.20</ele>
        <time>2021-05-28T07:38:39Z</time>
      </trkpt>
      <trkpt lat="37.8434770927" lon="-6.3030726649">
        <ele>309.20</ele>
        <time>2021-05-28T07:38:40Z</time>
      </trkpt>
      <trkpt lat="37.8433406353" lon="-6.3033126388">
        <ele>308.24</ele>
        <time>2021-05-28T07:38:41Z</time>
      </trkpt>
      <trkpt lat="37.8432144038" lon="-6.3035575580">
        <ele>308.72</ele>
        <time>2021-05-28T07:38:42Z</time>
      </trkpt>
      <trkpt lat="37.8429984860" lon="-6.3040286209">
        <ele>305.36</ele>
        <time>2021-05-28T07:38:44Z</time>
      </trkpt>
      <trkpt lat="37.8429179359" lon="-6.3042564411">
        <ele>303.43</ele>
        <time>2021-05-28T07:38:45Z</time>
      </trkpt>
      <trkpt lat="37.8428586759" lon="-6.3044901285">
        <ele>301.99</ele>
        <time>2021-05-28T07:38:46Z</time>
      </trkpt>
      <trkpt lat="37.8428191971" lon="-6.3047386520">
        <ele>302.47</ele>
        <time>2021-05-28T07:38:47Z</time>
      </trkpt>
      <trkpt lat="37.8427994996" lon="-6.3050061185">
        <ele>302.95</ele>
        <time>2021-05-28T07:38:48Z</time>
      </trkpt>
      <trkpt lat="37.8427948058" lon="-6.3052839786">
        <ele>304.88</ele>
        <time>2021-05-28T07:38:49Z</time>
      </trkpt>
      <trkpt lat="37.8427958116" lon="-6.3055631798">
        <ele>304.39</ele>
        <time>2021-05-28T07:38:50Z</time>
      </trkpt>
      <trkpt lat="37.8427170217" lon="-6.3063623104">
        <ele>303.91</ele>
        <time>2021-05-28T07:38:53Z</time>
      </trkpt>
      <trkpt lat="37.8426446859" lon="-6.3066249993">
        <ele>303.91</ele>
        <time>2021-05-28T07:38:54Z</time>
      </trkpt>
      <trkpt lat="37.8425540775" lon="-6.3068868499">
        <ele>303.91</ele>
        <time>2021-05-28T07:38:55Z</time>
      </trkpt>
      <trkpt lat="37.8424503934" lon="-6.3071470242">
        <ele>304.39</ele>
        <time>2021-05-28T07:38:56Z</time>
      </trkpt>
      <trkpt lat="37.8423385788" lon="-6.3074047677">
        <ele>303.91</ele>
        <time>2021-05-28T07:38:57Z</time>
      </trkpt>
      <trkpt lat="37.8420375846" lon="-6.3081595581">
        <ele>301.03</ele>
        <time>2021-05-28T07:39:00Z</time>
      </trkpt>
      <trkpt lat="37.8419717029" lon="-6.3084197324">
        <ele>300.55</ele>
        <time>2021-05-28T07:39:01Z</time>
      </trkpt>
      <trkpt lat="37.8419324756" lon="-6.3086931501">
        <ele>300.55</ele>
        <time>2021-05-28T07:39:02Z</time>
      </trkpt>
      <trkpt lat="37.8419209085" lon="-6.3089772966">
        <ele>300.55</ele>
        <time>2021-05-28T07:39:03Z</time>
      </trkpt>
      <trkpt lat="37.8419351578" lon="-6.3092627842">
        <ele>298.15</ele>
        <time>2021-05-28T07:39:04Z</time>
      </trkpt>
      <trkpt lat="37.8419657517" lon="-6.3095456734">
        <ele>298.15</ele>
        <time>2021-05-28T07:39:05Z</time>
      </trkpt>
      <trkpt lat="37.8420516662" lon="-6.3103589695">
        <ele>292.86</ele>
        <time>2021-05-28T07:39:08Z</time>
      </trkpt>
      <trkpt lat="37.8420541808" lon="-6.3106151205">
        <ele>289.97</ele>
        <time>2021-05-28T07:39:09Z</time>
      </trkpt>
      <trkpt lat="37.8420342319" lon="-6.3108696789">
        <ele>289.97</ele>
        <time>2021-05-28T07:39:10Z</time>
      </trkpt>
      <trkpt lat="37.8419879638" lon="-6.3111217227">
        <ele>291.42</ele>
        <time>2021-05-28T07:39:11Z</time>
      </trkpt>
      <trkpt lat="37.8419162985" lon="-6.3113730121">
        <ele>289.49</ele>
        <time>2021-05-28T07:39:12Z</time>
      </trkpt>
      <trkpt lat="37.8418203257" lon="-6.3116202783">
        <ele>288.05</ele>
        <time>2021-05-28T07:39:13Z</time>
      </trkpt>
      <trkpt lat="37.8417062480" lon="-6.3118562289">
        <ele>287.57</ele>
        <time>2021-05-28T07:39:14Z</time>
      </trkpt>
      <trkpt lat="37.8415851295" lon="-6.3120818697">
        <ele>286.13</ele>
        <time>2021-05-28T07:39:15Z</time>
      </trkpt>
      <trkpt lat="37.8412739933" lon="-6.3127328083">
        <ele>282.77</ele>
        <time>2021-05-28T07:39:18Z</time>
      </trkpt>
      <trkpt lat="37.8412031662" lon="-6.3129558507">
        <ele>284.21</ele>
        <time>2021-05-28T07:39:19Z</time>
      </trkpt>
      <trkpt lat="37.8411531262" lon="-6.3131894544">
        <ele>284.21</ele>
        <time>2021-05-28T07:39:20Z</time>
      </trkpt>
      <trkpt lat="37.8411187604" lon="-6.3134361338">
        <ele>285.17</ele>
        <time>2021-05-28T07:39:21Z</time>
      </trkpt>
      <trkpt lat="37.8408448398" lon="-6.3161769323">
        <ele>285.65</ele>
        <time>2021-05-28T07:39:32Z</time>
      </trkpt>
      <trkpt lat="37.8408174310" lon="-6.3172239158">
        <ele>287.57</ele>
        <time>2021-05-28T07:39:36Z</time>
      </trkpt>
      <trkpt lat="37.8407629486" lon="-6.3177106529">
        <ele>285.65</ele>
        <time>2021-05-28T07:39:38Z</time>
      </trkpt>
      <trkpt lat="37.8407017607" lon="-6.3179497886">
        <ele>287.09</ele>
        <time>2021-05-28T07:39:39Z</time>
      </trkpt>
      <trkpt lat="37.8406152595" lon="-6.3181815483">
        <ele>287.57</ele>
        <time>2021-05-28T07:39:40Z</time>
      </trkpt>
      <trkpt lat="37.8405052889" lon="-6.3183972146">
        <ele>289.49</ele>
        <time>2021-05-28T07:39:41Z</time>
      </trkpt>
      <trkpt lat="37.8403762076" lon="-6.3185934350">
        <ele>289.97</ele>
        <time>2021-05-28T07:39:42Z</time>
      </trkpt>
      <trkpt lat="37.8402273450" lon="-6.3187652640">
        <ele>289.49</ele>
        <time>2021-05-28T07:39:43Z</time>
      </trkpt>
      <trkpt lat="37.8400611319" lon="-6.3189096842">
        <ele>291.42</ele>
        <time>2021-05-28T07:39:44Z</time>
      </trkpt>
      <trkpt lat="37.8398772329" lon="-6.3190261088">
        <ele>291.90</ele>
        <time>2021-05-28T07:39:45Z</time>
      </trkpt>
      <trkpt lat="37.8396809287" lon="-6.3191152085">
        <ele>292.86</ele>
        <time>2021-05-28T07:39:46Z</time>
      </trkpt>
      <trkpt lat="37.8394750692" lon="-6.3191800006">
        <ele>293.82</ele>
        <time>2021-05-28T07:39:47Z</time>
      </trkpt>
      <trkpt lat="37.8392615821" lon="-6.3192250952">
        <ele>296.22</ele>
        <time>2021-05-28T07:39:48Z</time>
      </trkpt>
      <trkpt lat="37.8390434012" lon="-6.3192546833">
        <ele>297.18</ele>
        <time>2021-05-28T07:39:49Z</time>
      </trkpt>
      <trkpt lat="37.8386087157" lon="-6.3193044718">
        <ele>301.03</ele>
        <time>2021-05-28T07:39:51Z</time>
      </trkpt>
      <trkpt lat="37.8379967529" lon="-6.3194063958">
        <ele>303.91</ele>
        <time>2021-05-28T07:39:54Z</time>
      </trkpt>
      <trkpt lat="37.8378097527" lon="-6.3194746245">
        <ele>304.88</ele>
        <time>2021-05-28T07:39:55Z</time>
      </trkpt>
      <trkpt lat="37.8376336489" lon="-6.3195688371">
        <ele>303.91</ele>
        <time>2021-05-28T07:39:56Z</time>
      </trkpt>
      <trkpt lat="37.8374705371" lon="-6.3196888659">
        <ele>304.88</ele>
        <time>2021-05-28T07:39:57Z</time>
      </trkpt>
      <trkpt lat="37.8373194952" lon="-6.3198358007">
        <ele>305.36</ele>
        <time>2021-05-28T07:39:58Z</time>
      </trkpt>
      <trkpt lat="37.8371815290" lon="-6.3200078811">
        <ele>306.32</ele>
        <time>2021-05-28T07:39:59Z</time>
      </trkpt>
      <trkpt lat="37.8370616678" lon="-6.3202048559">
        <ele>306.32</ele>
        <time>2021-05-28T07:40:00Z</time>
      </trkpt>
      <trkpt lat="37.8369613364" lon="-6.3204199355">
        <ele>307.28</ele>
        <time>2021-05-28T07:40:01Z</time>
      </trkpt>
      <trkpt lat="37.8368801158" lon="-6.3206501864">
        <ele>307.28</ele>
        <time>2021-05-28T07:40:02Z</time>
      </trkpt>
      <trkpt lat="37.8368216939" lon="-6.3208970334">
        <ele>307.76</ele>
        <time>2021-05-28T07:40:03Z</time>
      </trkpt>
      <trkpt lat="37.8367868252" lon="-6.3211543579">
        <ele>307.76</ele>
        <time>2021-05-28T07:40:04Z</time>
      </trkpt>
      <trkpt lat="37.8367774375" lon="-6.3214171305">
        <ele>307.28</ele>
        <time>2021-05-28T07:40:05Z</time>
      </trkpt>
      <trkpt lat="37.8367972188" lon="-6.3216904644">
        <ele>307.76</ele>
        <time>2021-05-28T07:40:06Z</time>
      </trkpt>
      <trkpt lat="37.8368443251" lon="-6.3219648041">
        <ele>308.72</ele>
        <time>2021-05-28T07:40:07Z</time>
      </trkpt>
      <trkpt lat="37.8369152360" lon="-6.3222343661">
        <ele>309.68</ele>
        <time>2021-05-28T07:40:08Z</time>
      </trkpt>
      <trkpt lat="37.8369953670" lon="-6.3224985637">
        <ele>309.68</ele>
        <time>2021-05-28T07:40:09Z</time>
      </trkpt>
      <trkpt lat="37.8371324111" lon="-6.3230270427">
        <ele>310.64</ele>
        <time>2021-05-28T07:40:11Z</time>
      </trkpt>
      <trkpt lat="37.8371699620" lon="-6.3232978620">
        <ele>313.05</ele>
        <time>2021-05-28T07:40:12Z</time>
      </trkpt>
      <trkpt lat="37.8371826187" lon="-6.3235749677">
        <ele>313.53</ele>
        <time>2021-05-28T07:40:13Z</time>
      </trkpt>
      <trkpt lat="37.8371729795" lon="-6.3238587789">
        <ele>315.45</ele>
        <time>2021-05-28T07:40:14Z</time>
      </trkpt>
      <trkpt lat="37.8371526953" lon="-6.3241451886">
        <ele>316.41</ele>
        <time>2021-05-28T07:40:15Z</time>
      </trkpt>
      <trkpt lat="37.8370787669" lon="-6.3249711413">
        <ele>320.74</ele>
        <time>2021-05-28T07:40:18Z</time>
      </trkpt>
      <trkpt lat="37.8370063473" lon="-6.3255266938">
        <ele>324.58</ele>
        <time>2021-05-28T07:40:20Z</time>
      </trkpt>
      <trkpt lat="37.8368047625" lon="-6.3263746910">
        <ele>330.83</ele>
        <time>2021-05-28T07:40:23Z</time>
      </trkpt>
      <trkpt lat="37.8366158344" lon="-6.3269716501">
        <ele>335.64</ele>
        <time>2021-05-28T07:40:25Z</time>
      </trkpt>
      <trkpt lat="37.8364351206" lon="-6.3275935873">
        <ele>339.00</ele>
        <time>2021-05-28T07:40:27Z</time>
      </trkpt>
      <trkpt lat="37.8362584300" lon="-6.3282275107">
        <ele>343.81</ele>
        <time>2021-05-28T07:40:29Z</time>
      </trkpt>
      <trkpt lat="37.8359850124" lon="-6.3291540463">
        <ele>347.65</ele>
        <time>2021-05-28T07:40:32Z</time>
      </trkpt>
      <trkpt lat="37.8357234132" lon="-6.3300406840">
        <ele>351.02</ele>
        <time>2021-05-28T07:40:35Z</time>
      </trkpt>
      <trkpt lat="37.8355527576" lon="-6.3306223042">
        <ele>353.90</ele>
        <time>2021-05-28T07:40:37Z</time>
      </trkpt>
      <trkpt lat="37.8353772406" lon="-6.3311953750">
        <ele>357.75</ele>
        <time>2021-05-28T07:40:39Z</time>
      </trkpt>
      <trkpt lat="37.8350899927" lon="-6.3320572022">
        <ele>363.04</ele>
        <time>2021-05-28T07:40:42Z</time>
      </trkpt>
      <trkpt lat="37.8347536270" lon="-6.3329069596">
        <ele>367.36</ele>
        <time>2021-05-28T07:40:45Z</time>
      </trkpt>
      <trkpt lat="37.8344954643" lon="-6.3334592432">
        <ele>370.73</ele>
        <time>2021-05-28T07:40:47Z</time>
      </trkpt>
      <trkpt lat="37.8340657242" lon="-6.3342492376">
        <ele>374.57</ele>
        <time>2021-05-28T07:40:50Z</time>
      </trkpt>
      <trkpt lat="37.8336098325" lon="-6.3349931315">
        <ele>378.90</ele>
        <time>2021-05-28T07:40:53Z</time>
      </trkpt>
      <trkpt lat="37.8333099280" lon="-6.3354651164">
        <ele>381.78</ele>
        <time>2021-05-28T07:40:55Z</time>
      </trkpt>
      <trkpt lat="37.8330291342" lon="-6.3359024841">
        <ele>382.74</ele>
        <time>2021-05-28T07:40:57Z</time>
      </trkpt>
      <trkpt lat="37.8322649561" lon="-6.3369770441">
        <ele>386.59</ele>
        <time>2021-05-28T07:41:03Z</time>
      </trkpt>
      <trkpt lat="37.8321076278" lon="-6.3371154293">
        <ele>388.51</ele>
        <time>2021-05-28T07:41:04Z</time>
      </trkpt>
      <trkpt lat="37.8319358826" lon="-6.3372373860">
        <ele>389.95</ele>
        <time>2021-05-28T07:41:05Z</time>
      </trkpt>
      <trkpt lat="37.8315633070" lon="-6.3374574110">
        <ele>393.32</ele>
        <time>2021-05-28T07:41:07Z</time>
      </trkpt>
      <trkpt lat="37.8311686032" lon="-6.3376727421">
        <ele>396.68</ele>
        <time>2021-05-28T07:41:09Z</time>
      </trkpt>
      <trkpt lat="37.8305791877" lon="-6.3379842136">
        <ele>399.08</ele>
        <time>2021-05-28T07:41:12Z</time>
      </trkpt>
      <trkpt lat="37.8295956552" lon="-6.3385991938">
        <ele>396.68</ele>
        <time>2021-05-28T07:41:17Z</time>
      </trkpt>
      <trkpt lat="37.8292487282" lon="-6.3389167003">
        <ele>395.72</ele>
        <time>2021-05-28T07:41:19Z</time>
      </trkpt>
      <trkpt lat="37.8287632484" lon="-6.3394114841">
        <ele>393.80</ele>
        <time>2021-05-28T07:41:22Z</time>
      </trkpt>
      <trkpt lat="37.8283393756" lon="-6.3399895839">
        <ele>395.24</ele>
        <time>2021-05-28T07:41:25Z</time>
      </trkpt>
      <trkpt lat="37.8282284830" lon="-6.3402189966">
        <ele>395.72</ele>
        <time>2021-05-28T07:41:26Z</time>
      </trkpt>
      <trkpt lat="37.8281346895" lon="-6.3404634129">
        <ele>396.20</ele>
        <time>2021-05-28T07:41:27Z</time>
      </trkpt>
      <trkpt lat="37.8280576598" lon="-6.3407194801">
        <ele>396.68</ele>
        <time>2021-05-28T07:41:28Z</time>
      </trkpt>
      <trkpt lat="37.8279967234" lon="-6.3409877010">
        <ele>398.12</ele>
        <time>2021-05-28T07:41:29Z</time>
      </trkpt>
      <trkpt lat="37.8279485274" lon="-6.3412610348">
        <ele>399.08</ele>
        <time>2021-05-28T07:41:30Z</time>
      </trkpt>
      <trkpt lat="37.8279181011" lon="-6.3415301777">
        <ele>399.08</ele>
        <time>2021-05-28T07:41:31Z</time>
      </trkpt>
      <trkpt lat="37.8278992418" lon="-6.3417955488">
        <ele>400.05</ele>
        <time>2021-05-28T07:41:32Z</time>
      </trkpt>
      <trkpt lat="37.8278737608" lon="-6.3423272967">
        <ele>403.41</ele>
        <time>2021-05-28T07:41:34Z</time>
      </trkpt>
      <trkpt lat="37.8278676420" lon="-6.3425949309">
        <ele>406.77</ele>
        <time>2021-05-28T07:41:35Z</time>
      </trkpt>
      <trkpt lat="37.8278677259" lon="-6.3434021082">
        <ele>411.10</ele>
        <time>2021-05-28T07:41:38Z</time>
      </trkpt>
      <trkpt lat="37.8278722521" lon="-6.3442014065">
        <ele>414.47</ele>
        <time>2021-05-28T07:41:41Z</time>
      </trkpt>
      <trkpt lat="37.8278873395" lon="-6.3444413804">
        <ele>413.50</ele>
        <time>2021-05-28T07:41:42Z</time>
      </trkpt>
      <trkpt lat="37.8279231302" lon="-6.3446727209">
        <ele>413.98</ele>
        <time>2021-05-28T07:41:43Z</time>
      </trkpt>
      <trkpt lat="37.8279823065" lon="-6.3449060731">
        <ele>415.43</ele>
        <time>2021-05-28T07:41:44Z</time>
      </trkpt>
      <trkpt lat="37.8280589171" lon="-6.3451420236">
        <ele>416.87</ele>
        <time>2021-05-28T07:41:45Z</time>
      </trkpt>
      <trkpt lat="37.8281439096" lon="-6.3453832548">
        <ele>418.79</ele>
        <time>2021-05-28T07:41:46Z</time>
      </trkpt>
      <trkpt lat="37.8283915110" lon="-6.3461400568">
        <ele>422.64</ele>
        <time>2021-05-28T07:41:49Z</time>
      </trkpt>
      <trkpt lat="37.8285854682" lon="-6.3469702844">
        <ele>426.00</ele>
        <time>2021-05-28T07:41:52Z</time>
      </trkpt>
      <trkpt lat="37.8288064990" lon="-6.3480722532">
        <ele>428.89</ele>
        <time>2021-05-28T07:41:56Z</time>
      </trkpt>
      <trkpt lat="37.8290415276" lon="-6.3491940033">
        <ele>432.25</ele>
        <time>2021-05-28T07:42:00Z</time>
      </trkpt>
      <trkpt lat="37.8292119317" lon="-6.3502784539">
        <ele>435.61</ele>
        <time>2021-05-28T07:42:04Z</time>
      </trkpt>
      <trkpt lat="37.8292079922" lon="-6.3510922529">
        <ele>438.02</ele>
        <time>2021-05-28T07:42:07Z</time>
      </trkpt>
      <trkpt lat="37.8291719500" lon="-6.3513495773">
        <ele>438.98</ele>
        <time>2021-05-28T07:42:08Z</time>
      </trkpt>
      <trkpt lat="37.8291213233" lon="-6.3515904732">
        <ele>438.50</ele>
        <time>2021-05-28T07:42:09Z</time>
      </trkpt>
      <trkpt lat="37.8290587943" lon="-6.3518156111">
        <ele>438.98</ele>
        <time>2021-05-28T07:42:10Z</time>
      </trkpt>
      <trkpt lat="37.8289809264" lon="-6.3520305231">
        <ele>440.42</ele>
        <time>2021-05-28T07:42:11Z</time>
      </trkpt>
      <trkpt lat="37.8288891446" lon="-6.3522365503">
        <ele>440.42</ele>
        <time>2021-05-28T07:42:12Z</time>
      </trkpt>
      <trkpt lat="37.8287831973" lon="-6.3524322677">
        <ele>442.34</ele>
        <time>2021-05-28T07:42:13Z</time>
      </trkpt>
      <trkpt lat="37.8286584746" lon="-6.3526159991">
        <ele>443.31</ele>
        <time>2021-05-28T07:42:14Z</time>
      </trkpt>
      <trkpt lat="37.8285235260" lon="-6.3527993951">
        <ele>442.82</ele>
        <time>2021-05-28T07:42:15Z</time>
      </trkpt>
      <trkpt lat="37.8277362138" lon="-6.3540796470">
        <ele>441.38</ele>
        <time>2021-05-28T07:42:21Z</time>
      </trkpt>
      <trkpt lat="37.8273836710" lon="-6.3551387005">
        <ele>436.58</ele>
        <time>2021-05-28T07:42:25Z</time>
      </trkpt>
      <trkpt lat="37.8271636460" lon="-6.3559798244">
        <ele>432.73</ele>
        <time>2021-05-28T07:42:28Z</time>
      </trkpt>
      <trkpt lat="37.8270347323" lon="-6.3565214630">
        <ele>427.44</ele>
        <time>2021-05-28T07:42:30Z</time>
      </trkpt>
      <trkpt lat="37.8268561140" lon="-6.3570267241">
        <ele>425.04</ele>
        <time>2021-05-28T07:42:32Z</time>
      </trkpt>
      <trkpt lat="37.8267306369" lon="-6.3572670333">
        <ele>424.08</ele>
        <time>2021-05-28T07:42:33Z</time>
      </trkpt>
      <trkpt lat="37.8265863843" lon="-6.3574976195">
        <ele>423.60</ele>
        <time>2021-05-28T07:42:34Z</time>
      </trkpt>
      <trkpt lat="37.8262704704" lon="-6.3579566963">
        <ele>420.71</ele>
        <time>2021-05-28T07:42:36Z</time>
      </trkpt>
      <trkpt lat="37.8258356173" lon="-6.3586728461">
        <ele>415.91</ele>
        <time>2021-05-28T07:42:39Z</time>
      </trkpt>
      <trkpt lat="37.8257228807" lon="-6.3589307573">
        <ele>414.47</ele>
        <time>2021-05-28T07:42:40Z</time>
      </trkpt>
      <trkpt lat="37.8256340325" lon="-6.3592017442">
        <ele>412.54</ele>
        <time>2021-05-28T07:42:41Z</time>
      </trkpt>
      <trkpt lat="37.8255722579" lon="-6.3594866451">
        <ele>413.50</ele>
        <time>2021-05-28T07:42:42Z</time>
      </trkpt>
      <trkpt lat="37.8255378082" lon="-6.3597856276">
        <ele>414.47</ele>
        <time>2021-05-28T07:42:43Z</time>
      </trkpt>
      <trkpt lat="37.8255166858" lon="-6.3600937463">
        <ele>413.50</ele>
        <time>2021-05-28T07:42:44Z</time>
      </trkpt>
      <trkpt lat="37.8251895402" lon="-6.3622204028">
        <ele>410.62</ele>
        <time>2021-05-28T07:42:51Z</time>
      </trkpt>
      <trkpt lat="37.8249222413" lon="-6.3629960641">
        <ele>409.18</ele>
        <time>2021-05-28T07:42:54Z</time>
      </trkpt>
      <trkpt lat="37.8247931600" lon="-6.3632330205">
        <ele>410.14</ele>
        <time>2021-05-28T07:42:55Z</time>
      </trkpt>
      <trkpt lat="37.8240146488" lon="-6.3646289427">
        <ele>409.18</ele>
        <time>2021-05-28T07:43:01Z</time>
      </trkpt>
      <trkpt lat="37.8239377029" lon="-6.3648826629">
        <ele>408.70</ele>
        <time>2021-05-28T07:43:02Z</time>
      </trkpt>
      <trkpt lat="37.8238876630" lon="-6.3651496265">
        <ele>408.22</ele>
        <time>2021-05-28T07:43:03Z</time>
      </trkpt>
      <trkpt lat="37.8238649480" lon="-6.3654294144">
        <ele>408.22</ele>
        <time>2021-05-28T07:43:04Z</time>
      </trkpt>
      <trkpt lat="37.8238646127" lon="-6.3657226134">
        <ele>408.70</ele>
        <time>2021-05-28T07:43:05Z</time>
      </trkpt>
      <trkpt lat="37.8238707315" lon="-6.3660270441">
        <ele>408.70</ele>
        <time>2021-05-28T07:43:06Z</time>
      </trkpt>
      <trkpt lat="37.8239002358" lon="-6.3675911073">
        <ele>407.74</ele>
        <time>2021-05-28T07:43:11Z</time>
      </trkpt>
      <trkpt lat="37.8239108808" lon="-6.3687147014">
        <ele>403.41</ele>
        <time>2021-05-28T07:43:15Z</time>
      </trkpt>
      <trkpt lat="37.8238662053" lon="-6.3694911171">
        <ele>401.49</ele>
        <time>2021-05-28T07:43:18Z</time>
      </trkpt>
      <trkpt lat="37.8238103818" lon="-6.3697541412">
        <ele>401.01</ele>
        <time>2021-05-28T07:43:19Z</time>
      </trkpt>
      <trkpt lat="37.8237328492" lon="-6.3700157404">
        <ele>400.05</ele>
        <time>2021-05-28T07:43:20Z</time>
      </trkpt>
      <trkpt lat="37.8236417379" lon="-6.3702792674">
        <ele>400.05</ele>
        <time>2021-05-28T07:43:21Z</time>
      </trkpt>
      <trkpt lat="37.8234058712" lon="-6.3710847683">
        <ele>395.24</ele>
        <time>2021-05-28T07:43:24Z</time>
      </trkpt>
      <trkpt lat="37.8233709186" lon="-6.3713660650">
        <ele>393.32</ele>
        <time>2021-05-28T07:43:25Z</time>
      </trkpt>
      <trkpt lat="37.8233650513" lon="-6.3716627005">
        <ele>392.36</ele>
        <time>2021-05-28T07:43:26Z</time>
      </trkpt>
      <trkpt lat="37.8233811446" lon="-6.3719712384">
        <ele>391.87</ele>
        <time>2021-05-28T07:43:27Z</time>
      </trkpt>
      <trkpt lat="37.8234057873" lon="-6.3722887449">
        <ele>391.39</ele>
        <time>2021-05-28T07:43:28Z</time>
      </trkpt>
      <trkpt lat="37.8235105611" lon="-6.3735902868">
        <ele>387.55</ele>
        <time>2021-05-28T07:43:32Z</time>
      </trkpt>
      <trkpt lat="37.8235613555" lon="-6.3742304966">
        <ele>384.66</ele>
        <time>2021-05-28T07:43:34Z</time>
      </trkpt>
      <trkpt lat="37.8236041870" lon="-6.3748640008">
        <ele>383.70</ele>
        <time>2021-05-28T07:43:36Z</time>
      </trkpt>
      <trkpt lat="37.8236468509" lon="-6.3754672464">
        <ele>380.34</ele>
        <time>2021-05-28T07:43:38Z</time>
      </trkpt>
      <trkpt lat="37.8236840665" lon="-6.3757467829">
        <ele>377.45</ele>
        <time>2021-05-28T07:43:39Z</time>
      </trkpt>
      <trkpt lat="37.8237467632" lon="-6.3760134112">
        <ele>376.97</ele>
        <time>2021-05-28T07:43:40Z</time>
      </trkpt>
      <trkpt lat="37.8238337673" lon="-6.3762739208">
        <ele>376.01</ele>
        <time>2021-05-28T07:43:41Z</time>
      </trkpt>
      <trkpt lat="37.8239366971" lon="-6.3765262160">
        <ele>376.01</ele>
        <time>2021-05-28T07:43:42Z</time>
      </trkpt>
      <trkpt lat="37.8240413871" lon="-6.3767653517">
        <ele>375.53</ele>
        <time>2021-05-28T07:43:43Z</time>
      </trkpt>
      <trkpt lat="37.8242230229" lon="-6.3772373367">
        <ele>373.61</ele>
        <time>2021-05-28T07:43:45Z</time>
      </trkpt>
      <trkpt lat="37.8242860548" lon="-6.3774921466">
        <ele>373.13</ele>
        <time>2021-05-28T07:43:46Z</time>
      </trkpt>
      <trkpt lat="37.8243195824" lon="-6.3777644746">
        <ele>372.17</ele>
        <time>2021-05-28T07:43:47Z</time>
      </trkpt>
      <trkpt lat="37.8243258689" lon="-6.3780473638">
        <ele>372.65</ele>
        <time>2021-05-28T07:43:48Z</time>
      </trkpt>
      <trkpt lat="37.8243178222" lon="-6.3783350307">
        <ele>373.61</ele>
        <time>2021-05-28T07:43:49Z</time>
      </trkpt>
      <trkpt lat="37.8242991306" lon="-6.3786300737">
        <ele>372.65</ele>
        <time>2021-05-28T07:43:50Z</time>
      </trkpt>
      <trkpt lat="37.8241453227" lon="-6.3800886087">
        <ele>369.76</ele>
        <time>2021-05-28T07:43:55Z</time>
      </trkpt>
      <trkpt lat="37.8240743279" lon="-6.3803312648">
        <ele>368.32</ele>
        <time>2021-05-28T07:43:56Z</time>
      </trkpt>
      <trkpt lat="37.8239791095" lon="-6.3805468474">
        <ele>366.88</ele>
        <time>2021-05-28T07:43:57Z</time>
      </trkpt>
      <trkpt lat="37.8238615114" lon="-6.3807380386">
        <ele>366.40</ele>
        <time>2021-05-28T07:43:58Z</time>
      </trkpt>
      <trkpt lat="37.8237361182" lon="-6.3809162378">
        <ele>364.96</ele>
        <time>2021-05-28T07:43:59Z</time>
      </trkpt>
      <trkpt lat="37.8236207832" lon="-6.3811010588">
        <ele>364.96</ele>
        <time>2021-05-28T07:44:00Z</time>
      </trkpt>
      <trkpt lat="37.8235235531" lon="-6.3813013863">
        <ele>364.96</ele>
        <time>2021-05-28T07:44:01Z</time>
      </trkpt>
      <trkpt lat="37.8234465234" lon="-6.3815218303">
        <ele>364.48</ele>
        <time>2021-05-28T07:44:02Z</time>
      </trkpt>
      <trkpt lat="37.8233945556" lon="-6.3817658275">
        <ele>364.48</ele>
        <time>2021-05-28T07:44:03Z</time>
      </trkpt>
      <trkpt lat="37.8233666439" lon="-6.3820258342">
        <ele>363.52</ele>
        <time>2021-05-28T07:44:04Z</time>
      </trkpt>
      <trkpt lat="37.8233710025" lon="-6.3822910376">
        <ele>363.52</ele>
        <time>2021-05-28T07:44:05Z</time>
      </trkpt>
      <trkpt lat="37.8234096430" lon="-6.3825599290">
        <ele>363.52</ele>
        <time>2021-05-28T07:44:06Z</time>
      </trkpt>
      <trkpt lat="37.8234838229" lon="-6.3828227855">
        <ele>364.00</ele>
        <time>2021-05-28T07:44:07Z</time>
      </trkpt>
      <trkpt lat="37.8235732578" lon="-6.3830731530">
        <ele>362.07</ele>
        <time>2021-05-28T07:44:08Z</time>
      </trkpt>
      <trkpt lat="37.8237331007" lon="-6.3835755643">
        <ele>360.63</ele>
        <time>2021-05-28T07:44:10Z</time>
      </trkpt>
      <trkpt lat="37.8237828054" lon="-6.3838382531">
        <ele>360.15</ele>
        <time>2021-05-28T07:44:11Z</time>
      </trkpt>
      <trkpt lat="37.8238115553" lon="-6.3841115031">
        <ele>361.11</ele>
        <time>2021-05-28T07:44:12Z</time>
      </trkpt>
      <trkpt lat="37.8238198534" lon="-6.3843945600">
        <ele>361.59</ele>
        <time>2021-05-28T07:44:13Z</time>
      </trkpt>
      <trkpt lat="37.8238133155" lon="-6.3846846577">
        <ele>362.07</ele>
        <time>2021-05-28T07:44:14Z</time>
      </trkpt>
      <trkpt lat="37.8237963002" lon="-6.3849813771">
        <ele>363.52</ele>
        <time>2021-05-28T07:44:15Z</time>
      </trkpt>
      <trkpt lat="37.8237483557" lon="-6.3855950162">
        <ele>367.84</ele>
        <time>2021-05-28T07:44:17Z</time>
      </trkpt>
      <trkpt lat="37.8235067893" lon="-6.3874413818">
        <ele>368.32</ele>
        <time>2021-05-28T07:44:23Z</time>
      </trkpt>
      <trkpt lat="37.8234119900" lon="-6.3877379335">
        <ele>368.32</ele>
        <time>2021-05-28T07:44:24Z</time>
      </trkpt>
      <trkpt lat="37.8233032767" lon="-6.3880314678">
        <ele>368.80</ele>
        <time>2021-05-28T07:44:25Z</time>
      </trkpt>
      <trkpt lat="37.8229332995" lon="-6.3889125735">
        <ele>370.73</ele>
        <time>2021-05-28T07:44:28Z</time>
      </trkpt>
      <trkpt lat="37.8217951208" lon="-6.3915744144">
        <ele>370.73</ele>
        <time>2021-05-28T07:44:38Z</time>
      </trkpt>
      <trkpt lat="37.8217285685" lon="-6.3918305654">
        <ele>373.61</ele>
        <time>2021-05-28T07:44:39Z</time>
      </trkpt>
      <trkpt lat="37.8216800373" lon="-6.3920956850">
        <ele>373.61</ele>
        <time>2021-05-28T07:44:40Z</time>
      </trkpt>
      <trkpt lat="37.8216408100" lon="-6.3923675101">
        <ele>374.57</ele>
        <time>2021-05-28T07:44:41Z</time>
      </trkpt>
      <trkpt lat="37.8214561567" lon="-6.3933736738">
        <ele>377.45</ele>
        <time>2021-05-28T07:44:45Z</time>
      </trkpt>
      <trkpt lat="37.8213775344" lon="-6.3935931120">
        <ele>379.38</ele>
        <time>2021-05-28T07:44:46Z</time>
      </trkpt>
      <trkpt lat="37.8212818131" lon="-6.3938049227">
        <ele>379.38</ele>
        <time>2021-05-28T07:44:47Z</time>
      </trkpt>
      <trkpt lat="37.8208105825" lon="-6.3946405146">
        <ele>383.22</ele>
        <time>2021-05-28T07:44:51Z</time>
      </trkpt>
      <trkpt lat="37.8199153114" lon="-6.3961897418">
        <ele>382.26</ele>
        <time>2021-05-28T07:44:58Z</time>
      </trkpt>
      <trkpt lat="37.8198034130" lon="-6.3964286260">
        <ele>381.78</ele>
        <time>2021-05-28T07:44:59Z</time>
      </trkpt>
      <trkpt lat="37.8197165765" lon="-6.3966732938">
        <ele>381.30</ele>
        <time>2021-05-28T07:45:00Z</time>
      </trkpt>
      <trkpt lat="37.8196525387" lon="-6.3969270140">
        <ele>381.78</ele>
        <time>2021-05-28T07:45:01Z</time>
      </trkpt>
      <trkpt lat="37.8196061030" lon="-6.3971912954">
        <ele>382.74</ele>
        <time>2021-05-28T07:45:02Z</time>
      </trkpt>
      <trkpt lat="37.8195786104" lon="-6.3974667247">
        <ele>383.22</ele>
        <time>2021-05-28T07:45:03Z</time>
      </trkpt>
      <trkpt lat="37.8195790295" lon="-6.3977488596">
        <ele>384.18</ele>
        <time>2021-05-28T07:45:04Z</time>
      </trkpt>
      <trkpt lat="37.8196069412" lon="-6.3980374485">
        <ele>385.63</ele>
        <time>2021-05-28T07:45:05Z</time>
      </trkpt>
      <trkpt lat="37.8196511976" lon="-6.3983349223">
        <ele>385.63</ele>
        <time>2021-05-28T07:45:06Z</time>
      </trkpt>
      <trkpt lat="37.8197564743" lon="-6.3989380840">
        <ele>388.99</ele>
        <time>2021-05-28T07:45:08Z</time>
      </trkpt>
      <trkpt lat="37.8198512737" lon="-6.3998145796">
        <ele>388.99</ele>
        <time>2021-05-28T07:45:11Z</time>
      </trkpt>
      <trkpt lat="37.8198442329" lon="-6.4001030847">
        <ele>389.95</ele>
        <time>2021-05-28T07:45:12Z</time>
      </trkpt>
      <trkpt lat="37.8198134713" lon="-6.4003918413">
        <ele>389.47</ele>
        <time>2021-05-28T07:45:13Z</time>
      </trkpt>
      <trkpt lat="37.8195234574" lon="-6.4016726799">
        <ele>389.95</ele>
        <time>2021-05-28T07:45:18Z</time>
      </trkpt>
      <trkpt lat="37.8194140736" lon="-6.4018825628">
        <ele>390.43</ele>
        <time>2021-05-28T07:45:19Z</time>
      </trkpt>
      <trkpt lat="37.8192746826" lon="-6.4020828065">
        <ele>391.39</ele>
        <time>2021-05-28T07:45:20Z</time>
      </trkpt>
      <trkpt lat="37.8189617861" lon="-6.4024868142">
        <ele>395.24</ele>
        <time>2021-05-28T07:45:22Z</time>
      </trkpt>
      <trkpt lat="37.8188176174" lon="-6.4027103595">
        <ele>396.68</ele>
        <time>2021-05-28T07:45:23Z</time>
      </trkpt>
      <trkpt lat="37.8186961636" lon="-6.4029553626">
        <ele>398.12</ele>
        <time>2021-05-28T07:45:24Z</time>
      </trkpt>
      <trkpt lat="37.8185935691" lon="-6.4032203984">
        <ele>401.49</ele>
        <time>2021-05-28T07:45:25Z</time>
      </trkpt>
      <trkpt lat="37.8183998633" lon="-6.4037817344">
        <ele>406.29</ele>
        <time>2021-05-28T07:45:27Z</time>
      </trkpt>
      <trkpt lat="37.8181088436" lon="-6.4046184998">
        <ele>410.14</ele>
        <time>2021-05-28T07:45:30Z</time>
      </trkpt>
      <trkpt lat="37.8179075103" lon="-6.4051543549">
        <ele>413.98</ele>
        <time>2021-05-28T07:45:32Z</time>
      </trkpt>
      <trkpt lat="37.8177034110" lon="-6.4056780562">
        <ele>415.43</ele>
        <time>2021-05-28T07:45:34Z</time>
      </trkpt>
      <trkpt lat="37.8174701426" lon="-6.4061814733">
        <ele>419.27</ele>
        <time>2021-05-28T07:45:36Z</time>
      </trkpt>
      <trkpt lat="37.8172434960" lon="-6.4066730719">
        <ele>423.12</ele>
        <time>2021-05-28T07:45:38Z</time>
      </trkpt>
      <trkpt lat="37.8171569109" lon="-6.4069080167">
        <ele>424.08</ele>
        <time>2021-05-28T07:45:39Z</time>
      </trkpt>
      <trkpt lat="37.8171020094" lon="-6.4071350824">
        <ele>424.08</ele>
        <time>2021-05-28T07:45:40Z</time>
      </trkpt>
      <trkpt lat="37.8170797974" lon="-6.4073673449">
        <ele>424.08</ele>
        <time>2021-05-28T07:45:41Z</time>
      </trkpt>
      <trkpt lat="37.8170858324" lon="-6.4076090790">
        <ele>425.52</ele>
        <time>2021-05-28T07:45:42Z</time>
      </trkpt>
      <trkpt lat="37.8171040211" lon="-6.4078533277">
        <ele>427.44</ele>
        <time>2021-05-28T07:45:43Z</time>
      </trkpt>
      <trkpt lat="37.8171195276" lon="-6.4085642807">
        <ele>429.37</ele>
        <time>2021-05-28T07:45:46Z</time>
      </trkpt>
      <trkpt lat="37.8170795459" lon="-6.4087867364">
        <ele>431.77</ele>
        <time>2021-05-28T07:45:47Z</time>
      </trkpt>
      <trkpt lat="37.8170135804" lon="-6.4090185799">
        <ele>433.21</ele>
        <time>2021-05-28T07:45:48Z</time>
      </trkpt>
      <trkpt lat="37.8168321121" lon="-6.4095038921">
        <ele>436.10</ele>
        <time>2021-05-28T07:45:50Z</time>
      </trkpt>
      <trkpt lat="37.8167159390" lon="-6.4097407646">
        <ele>435.13</ele>
        <time>2021-05-28T07:45:51Z</time>
      </trkpt>
      <trkpt lat="37.8160690237" lon="-6.4113800973">
        <ele>436.10</ele>
        <time>2021-05-28T07:45:57Z</time>
      </trkpt>
      <trkpt lat="37.8159253579" lon="-6.4120160323">
        <ele>439.94</ele>
        <time>2021-05-28T07:45:59Z</time>
      </trkpt>
      <trkpt lat="37.8158013895" lon="-6.4126678091">
        <ele>443.79</ele>
        <time>2021-05-28T07:46:01Z</time>
      </trkpt>
      <trkpt lat="37.8156640101" lon="-6.4133676980">
        <ele>447.15</ele>
        <time>2021-05-28T07:46:03Z</time>
      </trkpt>
      <trkpt lat="37.8155390359" lon="-6.4141051378">
        <ele>451.48</ele>
        <time>2021-05-28T07:46:05Z</time>
      </trkpt>
      <trkpt lat="37.8154818714" lon="-6.4144674875">
        <ele>450.03</ele>
        <time>2021-05-28T07:46:06Z</time>
      </trkpt>
      <trkpt lat="37.8152015805" lon="-6.4161685947">
        <ele>453.88</ele>
        <time>2021-05-28T07:46:11Z</time>
      </trkpt>
      <trkpt lat="37.8151408955" lon="-6.4168367162">
        <ele>457.24</ele>
        <time>2021-05-28T07:46:13Z</time>
      </trkpt>
      <trkpt lat="37.8151169233" lon="-6.4171678014">
        <ele>457.24</ele>
        <time>2021-05-28T07:46:14Z</time>
      </trkpt>
      <trkpt lat="37.8150096349" lon="-6.4183460455">
        <ele>462.05</ele>
        <time>2021-05-28T07:46:18Z</time>
      </trkpt>
      <trkpt lat="37.8149557393" lon="-6.4186106622">
        <ele>463.97</ele>
        <time>2021-05-28T07:46:19Z</time>
      </trkpt>
      <trkpt lat="37.8148800507" lon="-6.4188777097">
        <ele>466.38</ele>
        <time>2021-05-28T07:46:20Z</time>
      </trkpt>
      <trkpt lat="37.8147909511" lon="-6.4191388898">
        <ele>466.86</ele>
        <time>2021-05-28T07:46:21Z</time>
      </trkpt>
      <trkpt lat="37.8144182079" lon="-6.4201466460">
        <ele>469.74</ele>
        <time>2021-05-28T07:46:25Z</time>
      </trkpt>
      <trkpt lat="37.8142080735" lon="-6.4209825732">
        <ele>466.86</ele>
        <time>2021-05-28T07:46:28Z</time>
      </trkpt>
      <trkpt lat="37.8141343966" lon="-6.4215310011">
        <ele>463.49</ele>
        <time>2021-05-28T07:46:30Z</time>
      </trkpt>
      <trkpt lat="37.8140442912" lon="-6.4220470749">
        <ele>457.72</ele>
        <time>2021-05-28T07:46:32Z</time>
      </trkpt>
      <trkpt lat="37.8139717877" lon="-6.4223046508">
        <ele>457.24</ele>
        <time>2021-05-28T07:46:33Z</time>
      </trkpt>
      <trkpt lat="37.8138761502" lon="-6.4225659147">
        <ele>456.76</ele>
        <time>2021-05-28T07:46:34Z</time>
      </trkpt>
      <trkpt lat="37.8136734758" lon="-6.4230855927">
        <ele>453.40</ele>
        <time>2021-05-28T07:46:36Z</time>
      </trkpt>
      <trkpt lat="37.8134870622" lon="-6.4235737547">
        <ele>447.15</ele>
        <time>2021-05-28T07:46:38Z</time>
      </trkpt>
      <trkpt lat="37.8133300692" lon="-6.4240231924">
        <ele>442.82</ele>
        <time>2021-05-28T07:46:40Z</time>
      </trkpt>
      <trkpt lat="37.8132827114" lon="-6.4242479950">
        <ele>439.94</ele>
        <time>2021-05-28T07:46:41Z</time>
      </trkpt>
      <trkpt lat="37.8132619243" lon="-6.4244855382">
        <ele>438.98</ele>
        <time>2021-05-28T07:46:42Z</time>
      </trkpt>
      <trkpt lat="37.8132794425" lon="-6.4247250091">
        <ele>438.02</ele>
        <time>2021-05-28T07:46:43Z</time>
      </trkpt>
      <trkpt lat="37.8133356851" lon="-6.4249602053">
        <ele>438.02</ele>
        <time>2021-05-28T07:46:44Z</time>
      </trkpt>
      <trkpt lat="37.8134303167" lon="-6.4251971617">
        <ele>437.54</ele>
        <time>2021-05-28T07:46:45Z</time>
      </trkpt>
      <trkpt lat="37.8135516029" lon="-6.4254376385">
        <ele>438.98</ele>
        <time>2021-05-28T07:46:46Z</time>
      </trkpt>
      <trkpt lat="37.8136858810" lon="-6.4256761875">
        <ele>440.42</ele>
        <time>2021-05-28T07:46:47Z</time>
      </trkpt>
      <trkpt lat="37.8138185665" lon="-6.4259102102">
        <ele>440.42</ele>
        <time>2021-05-28T07:46:48Z</time>
      </trkpt>
      <trkpt lat="37.8142445348" lon="-6.4267458860">
        <ele>438.02</ele>
        <time>2021-05-28T07:46:52Z</time>
      </trkpt>
      <trkpt lat="37.8143044654" lon="-6.4269756339">
        <ele>438.02</ele>
        <time>2021-05-28T07:46:53Z</time>
      </trkpt>
      <trkpt lat="37.8143411782" lon="-6.4272298571">
        <ele>438.98</ele>
        <time>2021-05-28T07:46:54Z</time>
      </trkpt>
      <trkpt lat="37.8143639769" lon="-6.4274953958">
        <ele>440.90</ele>
        <time>2021-05-28T07:46:55Z</time>
      </trkpt>
      <trkpt lat="37.8143776394" lon="-6.4277610183">
        <ele>440.90</ele>
        <time>2021-05-28T07:46:56Z</time>
      </trkpt>
      <trkpt lat="37.8143716045" lon="-6.4285029843">
        <ele>440.90</ele>
        <time>2021-05-28T07:46:59Z</time>
      </trkpt>
      <trkpt lat="37.8143278509" lon="-6.4287462272">
        <ele>441.38</ele>
        <time>2021-05-28T07:47:00Z</time>
      </trkpt>
      <trkpt lat="37.8142561018" lon="-6.4289913978">
        <ele>443.31</ele>
        <time>2021-05-28T07:47:01Z</time>
      </trkpt>
      <trkpt lat="37.8141657449" lon="-6.4292362332">
        <ele>443.31</ele>
        <time>2021-05-28T07:47:02Z</time>
      </trkpt>
      <trkpt lat="37.8138548601" lon="-6.4299426600">
        <ele>446.67</ele>
        <time>2021-05-28T07:47:05Z</time>
      </trkpt>
      <trkpt lat="37.8136017267" lon="-6.4306599833">
        <ele>450.03</ele>
        <time>2021-05-28T07:47:08Z</time>
      </trkpt>
      <trkpt lat="37.8134385310" lon="-6.4314033743">
        <ele>451.96</ele>
        <time>2021-05-28T07:47:11Z</time>
      </trkpt>
      <trkpt lat="37.8133480065" lon="-6.4319105633">
        <ele>454.84</ele>
        <time>2021-05-28T07:47:13Z</time>
      </trkpt>
      <trkpt lat="37.8131677955" lon="-6.4326467458">
        <ele>455.32</ele>
        <time>2021-05-28T07:47:16Z</time>
      </trkpt>
      <trkpt lat="37.8125938028" lon="-6.4341054484">
        <ele>455.32</ele>
        <time>2021-05-28T07:47:22Z</time>
      </trkpt>
      <trkpt lat="37.8114821948" lon="-6.4371816069">
        <ele>456.76</ele>
        <time>2021-05-28T07:47:34Z</time>
      </trkpt>
      <trkpt lat="37.8114075121" lon="-6.4377557673">
        <ele>457.72</ele>
        <time>2021-05-28T07:47:36Z</time>
      </trkpt>
      <trkpt lat="37.8113785945" lon="-6.4386113919">
        <ele>459.17</ele>
        <time>2021-05-28T07:47:39Z</time>
      </trkpt>
      <trkpt lat="37.8114136308" lon="-6.4391969517">
        <ele>463.01</ele>
        <time>2021-05-28T07:47:41Z</time>
      </trkpt>
      <trkpt lat="37.8115703724" lon="-6.4400911331">
        <ele>466.86</ele>
        <time>2021-05-28T07:47:44Z</time>
      </trkpt>
      <trkpt lat="37.8117380105" lon="-6.4406694844">
        <ele>468.30</ele>
        <time>2021-05-28T07:47:46Z</time>
      </trkpt>
      <trkpt lat="37.8122186288" lon="-6.4417508338">
        <ele>471.66</ele>
        <time>2021-05-28T07:47:50Z</time>
      </trkpt>
      <trkpt lat="37.8123715986" lon="-6.4420214854">
        <ele>471.66</ele>
        <time>2021-05-28T07:47:51Z</time>
      </trkpt>
      <trkpt lat="37.8126962297" lon="-6.4425584301">
        <ele>473.11</ele>
        <time>2021-05-28T07:47:53Z</time>
      </trkpt>
      <trkpt lat="37.8134884033" lon="-6.4438480698">
        <ele>474.55</ele>
        <time>2021-05-28T07:47:58Z</time>
      </trkpt>
      <trkpt lat="37.8143842611" lon="-6.4453649428">
        <ele>472.63</ele>
        <time>2021-05-28T07:48:04Z</time>
      </trkpt>
      <trkpt lat="37.8146013524" lon="-6.4458585531">
        <ele>471.66</ele>
        <time>2021-05-28T07:48:06Z</time>
      </trkpt>
      <trkpt lat="37.8146761190" lon="-6.4461193979">
        <ele>473.11</ele>
        <time>2021-05-28T07:48:07Z</time>
      </trkpt>
      <trkpt lat="37.8147314396" lon="-6.4463850204">
        <ele>474.07</ele>
        <time>2021-05-28T07:48:08Z</time>
      </trkpt>
      <trkpt lat="37.8147699125" lon="-6.4466466196">
        <ele>474.55</ele>
        <time>2021-05-28T07:48:09Z</time>
      </trkpt>
      <trkpt lat="37.8147870954" lon="-6.4469042793">
        <ele>474.55</ele>
        <time>2021-05-28T07:48:10Z</time>
      </trkpt>
      <trkpt lat="37.8147809766" lon="-6.4471693989">
        <ele>474.07</ele>
        <time>2021-05-28T07:48:11Z</time>
      </trkpt>
      <trkpt lat="37.8147532325" lon="-6.4474439900">
        <ele>475.99</ele>
        <time>2021-05-28T07:48:12Z</time>
      </trkpt>
      <trkpt lat="37.8147099819" lon="-6.4477257058">
        <ele>477.43</ele>
        <time>2021-05-28T07:48:13Z</time>
      </trkpt>
      <trkpt lat="37.8145336267" lon="-6.4486137684">
        <ele>481.28</ele>
        <time>2021-05-28T07:48:16Z</time>
      </trkpt>
      <trkpt lat="37.8141508251" lon="-6.4500274602">
        <ele>485.60</ele>
        <time>2021-05-28T07:48:21Z</time>
      </trkpt>
      <trkpt lat="37.8138102684" lon="-6.4508635551">
        <ele>489.93</ele>
        <time>2021-05-28T07:48:24Z</time>
      </trkpt>
      <trkpt lat="37.8135615773" lon="-6.4514207840">
        <ele>493.29</ele>
        <time>2021-05-28T07:48:26Z</time>
      </trkpt>
      <trkpt lat="37.8131819610" lon="-6.4522664342">
        <ele>498.10</ele>
        <time>2021-05-28T07:48:29Z</time>
      </trkpt>
      <trkpt lat="37.8130562324" lon="-6.4525429532">
        <ele>497.62</ele>
        <time>2021-05-28T07:48:30Z</time>
      </trkpt>
      <trkpt lat="37.8125730995" lon="-6.4535666350">
        <ele>501.46</ele>
        <time>2021-05-28T07:48:34Z</time>
      </trkpt>
      <trkpt lat="37.8121240810" lon="-6.4542692900">
        <ele>506.27</ele>
        <time>2021-05-28T07:48:37Z</time>
      </trkpt>
      <trkpt lat="37.8117520921" lon="-6.4546831883">
        <ele>510.12</ele>
        <time>2021-05-28T07:48:39Z</time>
      </trkpt>
      <trkpt lat="37.8113534488" lon="-6.4550564345">
        <ele>513.00</ele>
        <time>2021-05-28T07:48:41Z</time>
      </trkpt>
      <trkpt lat="37.8103568405" lon="-6.4559140708">
        <ele>516.37</ele>
        <time>2021-05-28T07:48:46Z</time>
      </trkpt>
      <trkpt lat="37.8101579379" lon="-6.4560868219">
        <ele>515.88</ele>
        <time>2021-05-28T07:48:47Z</time>
      </trkpt>
      <trkpt lat="37.8097723704" lon="-6.4564309828">
        <ele>513.96</ele>
        <time>2021-05-28T07:48:49Z</time>
      </trkpt>
      <trkpt lat="37.8090849705" lon="-6.4572866913">
        <ele>509.64</ele>
        <time>2021-05-28T07:48:53Z</time>
      </trkpt>
      <trkpt lat="37.8089521173" lon="-6.4575496316">
        <ele>509.64</ele>
        <time>2021-05-28T07:48:54Z</time>
      </trkpt>
      <trkpt lat="37.8088395484" lon="-6.4578364603">
        <ele>508.67</ele>
        <time>2021-05-28T07:48:55Z</time>
      </trkpt>
      <trkpt lat="37.8087471798" lon="-6.4581501111">
        <ele>507.71</ele>
        <time>2021-05-28T07:48:56Z</time>
      </trkpt>
      <trkpt lat="37.8086594213" lon="-6.4584805258">
        <ele>507.23</ele>
        <time>2021-05-28T07:48:57Z</time>
      </trkpt>
      <trkpt lat="37.8084896877" lon="-6.4591645729">
        <ele>510.60</ele>
        <time>2021-05-28T07:48:59Z</time>
      </trkpt>
      <trkpt lat="37.8080498055" lon="-6.4608918317">
        <ele>513.96</ele>
        <time>2021-05-28T07:49:04Z</time>
      </trkpt>
      <trkpt lat="37.8078754619" lon="-6.4615786448">
        <ele>517.81</ele>
        <time>2021-05-28T07:49:06Z</time>
      </trkpt>
      <trkpt lat="37.8076158743" lon="-6.4626071882">
        <ele>521.65</ele>
        <time>2021-05-28T07:49:09Z</time>
      </trkpt>
      <trkpt lat="37.8074551933" lon="-6.4632784110">
        <ele>525.02</ele>
        <time>2021-05-28T07:49:11Z</time>
      </trkpt>
      <trkpt lat="37.8073059116" lon="-6.4639306907">
        <ele>526.94</ele>
        <time>2021-05-28T07:49:13Z</time>
      </trkpt>
      <trkpt lat="37.8069526982" lon="-6.4653254393">
        <ele>529.82</ele>
        <time>2021-05-28T07:49:18Z</time>
      </trkpt>
      <trkpt lat="37.8068405483" lon="-6.4655630663">
        <ele>530.79</ele>
        <time>2021-05-28T07:49:19Z</time>
      </trkpt>
      <trkpt lat="37.8067032527" lon="-6.4657760505">
        <ele>531.27</ele>
        <time>2021-05-28T07:49:20Z</time>
      </trkpt>
      <trkpt lat="37.8065434936" lon="-6.4659691695">
        <ele>531.75</ele>
        <time>2021-05-28T07:49:21Z</time>
      </trkpt>
      <trkpt lat="37.8063657973" lon="-6.4661368076">
        <ele>532.23</ele>
        <time>2021-05-28T07:49:22Z</time>
      </trkpt>
      <trkpt lat="37.8061695769" lon="-6.4662720077">
        <ele>533.67</ele>
        <time>2021-05-28T07:49:23Z</time>
      </trkpt>
      <trkpt lat="37.8059591074" lon="-6.4663690701">
        <ele>534.15</ele>
        <time>2021-05-28T07:49:24Z</time>
      </trkpt>
      <trkpt lat="37.8057378251" lon="-6.4664258994">
        <ele>535.59</ele>
        <time>2021-05-28T07:49:25Z</time>
      </trkpt>
      <trkpt lat="37.8055048920" lon="-6.4664496202">
        <ele>537.51</ele>
        <time>2021-05-28T07:49:26Z</time>
      </trkpt>
      <trkpt lat="37.8052654210" lon="-6.4664580859">
        <ele>539.92</ele>
        <time>2021-05-28T07:49:27Z</time>
      </trkpt>
      <trkpt lat="37.8039699979" lon="-6.4665461797">
        <ele>541.84</ele>
        <time>2021-05-28T07:49:33Z</time>
      </trkpt>
      <trkpt lat="37.8037750348" lon="-6.4666248020">
        <ele>542.32</ele>
        <time>2021-05-28T07:49:34Z</time>
      </trkpt>
      <trkpt lat="37.8035893757" lon="-6.4667367842">
        <ele>543.76</ele>
        <time>2021-05-28T07:49:35Z</time>
      </trkpt>
      <trkpt lat="37.8034167085" lon="-6.4668862335">
        <ele>544.72</ele>
        <time>2021-05-28T07:49:36Z</time>
      </trkpt>
      <trkpt lat="37.8032592125" lon="-6.4670675341">
        <ele>546.65</ele>
        <time>2021-05-28T07:49:37Z</time>
      </trkpt>
      <trkpt lat="37.8031194862" lon="-6.4672822785">
        <ele>548.09</ele>
        <time>2021-05-28T07:49:38Z</time>
      </trkpt>
      <trkpt lat="37.8030038998" lon="-6.4675201569">
        <ele>549.05</ele>
        <time>2021-05-28T07:49:39Z</time>
      </trkpt>
      <trkpt lat="37.8029156383" lon="-6.4677780680">
        <ele>550.97</ele>
        <time>2021-05-28T07:49:40Z</time>
      </trkpt>
      <trkpt lat="37.8028477449" lon="-6.4680603705">
        <ele>551.93</ele>
        <time>2021-05-28T07:49:41Z</time>
      </trkpt>
      <trkpt lat="37.8027962800" lon="-6.4683640469">
        <ele>554.34</ele>
        <time>2021-05-28T07:49:42Z</time>
      </trkpt>
      <trkpt lat="37.8027604055" lon="-6.4686803799">
        <ele>556.74</ele>
        <time>2021-05-28T07:49:43Z</time>
      </trkpt>
      <trkpt lat="37.8027272969" lon="-6.4690035861">
        <ele>559.14</ele>
        <time>2021-05-28T07:49:44Z</time>
      </trkpt>
      <trkpt lat="37.8026564699" lon="-6.4696457237">
        <ele>561.55</ele>
        <time>2021-05-28T07:49:46Z</time>
      </trkpt>
      <trkpt lat="37.8025547974" lon="-6.4706155099">
        <ele>566.35</ele>
        <time>2021-05-28T07:49:49Z</time>
      </trkpt>
      <trkpt lat="37.8024508618" lon="-6.4715538640">
        <ele>569.24</ele>
        <time>2021-05-28T07:49:52Z</time>
      </trkpt>
      <trkpt lat="37.8023429029" lon="-6.4721166249">
        <ele>568.76</ele>
        <time>2021-05-28T07:49:54Z</time>
      </trkpt>
      <trkpt lat="37.8022601735" lon="-6.4723744523">
        <ele>570.20</ele>
        <time>2021-05-28T07:49:55Z</time>
      </trkpt>
      <trkpt lat="37.8021543100" lon="-6.4726122469">
        <ele>571.16</ele>
        <time>2021-05-28T07:49:56Z</time>
      </trkpt>
      <trkpt lat="37.8020206187" lon="-6.4728257339">
        <ele>571.16</ele>
        <time>2021-05-28T07:49:57Z</time>
      </trkpt>
      <trkpt lat="37.8018662240" lon="-6.4730129018">
        <ele>572.60</ele>
        <time>2021-05-28T07:49:58Z</time>
      </trkpt>
      <trkpt lat="37.8016897012" lon="-6.4731786121">
        <ele>573.56</ele>
        <time>2021-05-28T07:49:59Z</time>
      </trkpt>
      <trkpt lat="37.8014807403" lon="-6.4733142313">
        <ele>574.04</ele>
        <time>2021-05-28T07:50:00Z</time>
      </trkpt>
      <trkpt lat="37.8012478072" lon="-6.4734267164">
        <ele>575.01</ele>
        <time>2021-05-28T07:50:01Z</time>
      </trkpt>
      <trkpt lat="37.8009956796" lon="-6.4735261258">
        <ele>575.97</ele>
        <time>2021-05-28T07:50:02Z</time>
      </trkpt>
      <trkpt lat="37.7991732862" lon="-6.4741813391">
        <ele>572.60</ele>
        <time>2021-05-28T07:50:09Z</time>
      </trkpt>
      <trkpt lat="37.7989175543" lon="-6.4742923994">
        <ele>573.08</ele>
        <time>2021-05-28T07:50:10Z</time>
      </trkpt>
      <trkpt lat="37.7986732218" lon="-6.4744262584">
        <ele>571.64</ele>
        <time>2021-05-28T07:50:11Z</time>
      </trkpt>
      <trkpt lat="37.7984452341" lon="-6.4745877776">
        <ele>570.20</ele>
        <time>2021-05-28T07:50:12Z</time>
      </trkpt>
      <trkpt lat="37.7982339263" lon="-6.4747819863">
        <ele>571.16</ele>
        <time>2021-05-28T07:50:13Z</time>
      </trkpt>
      <trkpt lat="37.7980385441" lon="-6.4750093874">
        <ele>571.64</ele>
        <time>2021-05-28T07:50:14Z</time>
      </trkpt>
      <trkpt lat="37.7978564892" lon="-6.4752626885">
        <ele>572.12</ele>
        <time>2021-05-28T07:50:15Z</time>
      </trkpt>
      <trkpt lat="37.7976841573" lon="-6.4755257126">
        <ele>572.12</ele>
        <time>2021-05-28T07:50:16Z</time>
      </trkpt>
      <trkpt lat="37.7971554268" lon="-6.4762660861">
        <ele>574.04</ele>
        <time>2021-05-28T07:50:19Z</time>
      </trkpt>
      <trkpt lat="37.7969499025" lon="-6.4764740411">
        <ele>574.04</ele>
        <time>2021-05-28T07:50:20Z</time>
      </trkpt>
      <trkpt lat="37.7967235912" lon="-6.4766604546">
        <ele>575.49</ele>
        <time>2021-05-28T07:50:21Z</time>
      </trkpt>
      <trkpt lat="37.7964785881" lon="-6.4768289309">
        <ele>576.45</ele>
        <time>2021-05-28T07:50:22Z</time>
      </trkpt>
      <trkpt lat="37.7962212637" lon="-6.4769899473">
        <ele>576.93</ele>
        <time>2021-05-28T07:50:23Z</time>
      </trkpt>
      <trkpt lat="37.7954073809" lon="-6.4774591662">
        <ele>580.77</ele>
        <time>2021-05-28T07:50:26Z</time>
      </trkpt>
      <trkpt lat="37.7951404173" lon="-6.4776205178">
        <ele>580.29</ele>
        <time>2021-05-28T07:50:27Z</time>
      </trkpt>
      <trkpt lat="37.7937325928" lon="-6.4788087364">
        <ele>578.37</ele>
        <time>2021-05-28T07:50:33Z</time>
      </trkpt>
      <trkpt lat="37.7929221466" lon="-6.4798693825">
        <ele>572.60</ele>
        <time>2021-05-28T07:50:37Z</time>
      </trkpt>
      <trkpt lat="37.7925359085" lon="-6.4803615678">
        <ele>569.72</ele>
        <time>2021-05-28T07:50:39Z</time>
      </trkpt>
      <trkpt lat="37.7923268639" lon="-6.4805851970">
        <ele>565.87</ele>
        <time>2021-05-28T07:50:40Z</time>
      </trkpt>
      <trkpt lat="37.7921075094" lon="-6.4807965886">
        <ele>565.87</ele>
        <time>2021-05-28T07:50:41Z</time>
      </trkpt>
      <trkpt lat="37.7916447446" lon="-6.4811694995">
        <ele>562.51</ele>
        <time>2021-05-28T07:50:43Z</time>
      </trkpt>
      <trkpt lat="37.7911921218" lon="-6.4814811386">
        <ele>556.26</ele>
        <time>2021-05-28T07:50:45Z</time>
      </trkpt>
      <trkpt lat="37.7907768823" lon="-6.4818142354">
        <ele>552.41</ele>
        <time>2021-05-28T07:50:47Z</time>
      </trkpt>
      <trkpt lat="37.7905840147" lon="-6.4820164070">
        <ele>550.97</ele>
        <time>2021-05-28T07:50:48Z</time>
      </trkpt>
      <trkpt lat="37.7904093359" lon="-6.4822428022">
        <ele>550.49</ele>
        <time>2021-05-28T07:50:49Z</time>
      </trkpt>
      <trkpt lat="37.7902551088" lon="-6.4824919961">
        <ele>548.57</ele>
        <time>2021-05-28T07:50:50Z</time>
      </trkpt>
      <trkpt lat="37.7901256923" lon="-6.4827615581">
        <ele>546.65</ele>
        <time>2021-05-28T07:50:51Z</time>
      </trkpt>
      <trkpt lat="37.7900165599" lon="-6.4830467943">
        <ele>545.20</ele>
        <time>2021-05-28T07:50:52Z</time>
      </trkpt>
      <trkpt lat="37.7899319865" lon="-6.4833581820">
        <ele>545.20</ele>
        <time>2021-05-28T07:50:53Z</time>
      </trkpt>
      <trkpt lat="37.7898718882" lon="-6.4836947992">
        <ele>545.69</ele>
        <time>2021-05-28T07:50:54Z</time>
      </trkpt>
      <trkpt lat="37.7898292243" lon="-6.4840418939">
        <ele>544.24</ele>
        <time>2021-05-28T07:50:55Z</time>
      </trkpt>
      <trkpt lat="37.7897934336" lon="-6.4843880665">
        <ele>542.32</ele>
        <time>2021-05-28T07:50:56Z</time>
      </trkpt>
      <trkpt lat="37.7897106204" lon="-6.4850472193">
        <ele>536.07</ele>
        <time>2021-05-28T07:50:58Z</time>
      </trkpt>
      <trkpt lat="37.7895765938" lon="-6.4856345393">
        <ele>532.23</ele>
        <time>2021-05-28T07:51:00Z</time>
      </trkpt>
      <trkpt lat="37.7894750889" lon="-6.4858982340">
        <ele>530.79</ele>
        <time>2021-05-28T07:51:01Z</time>
      </trkpt>
      <trkpt lat="37.7893444989" lon="-6.4861439914">
        <ele>531.27</ele>
        <time>2021-05-28T07:51:02Z</time>
      </trkpt>
      <trkpt lat="37.7891894337" lon="-6.4863625914">
        <ele>531.27</ele>
        <time>2021-05-28T07:51:03Z</time>
      </trkpt>
      <trkpt lat="37.7890122402" lon="-6.4865486696">
        <ele>529.34</ele>
        <time>2021-05-28T07:51:04Z</time>
      </trkpt>
      <trkpt lat="37.7888116613" lon="-6.4867004659">
        <ele>530.30</ele>
        <time>2021-05-28T07:51:05Z</time>
      </trkpt>
      <trkpt lat="37.7885935642" lon="-6.4868185669">
        <ele>531.27</ele>
        <time>2021-05-28T07:51:06Z</time>
      </trkpt>
      <trkpt lat="37.7883627266" lon="-6.4869011287">
        <ele>531.27</ele>
        <time>2021-05-28T07:51:07Z</time>
      </trkpt>
      <trkpt lat="37.7881221659" lon="-6.4869439602">
        <ele>530.30</ele>
        <time>2021-05-28T07:51:08Z</time>
      </trkpt>
      <trkpt lat="37.7878715470" lon="-6.4869595505">
        <ele>531.75</ele>
        <time>2021-05-28T07:51:09Z</time>
      </trkpt>
      <trkpt lat="37.7876100317" lon="-6.4869640768">
        <ele>532.23</ele>
        <time>2021-05-28T07:51:10Z</time>
      </trkpt>
      <trkpt lat="37.7865880262" lon="-6.4869925752">
        <ele>529.34</ele>
        <time>2021-05-28T07:51:14Z</time>
      </trkpt>
      <trkpt lat="37.7863513213" lon="-6.4870364126">
        <ele>527.90</ele>
        <time>2021-05-28T07:51:15Z</time>
      </trkpt>
      <trkpt lat="37.7861181367" lon="-6.4871165436">
        <ele>527.90</ele>
        <time>2021-05-28T07:51:16Z</time>
      </trkpt>
      <trkpt lat="37.7858929988" lon="-6.4872391708">
        <ele>527.90</ele>
        <time>2021-05-28T07:51:17Z</time>
      </trkpt>
      <trkpt lat="37.7856795955" lon="-6.4874025341">
        <ele>527.42</ele>
        <time>2021-05-28T07:51:18Z</time>
      </trkpt>
      <trkpt lat="37.7854837105" lon="-6.4876060467">
        <ele>526.94</ele>
        <time>2021-05-28T07:51:19Z</time>
      </trkpt>
      <trkpt lat="37.7853098698" lon="-6.4878451824">
        <ele>526.46</ele>
        <time>2021-05-28T07:51:20Z</time>
      </trkpt>
      <trkpt lat="37.7851645276" lon="-6.4881179295">
        <ele>526.46</ele>
        <time>2021-05-28T07:51:21Z</time>
      </trkpt>
      <trkpt lat="37.7850522939" lon="-6.4884146489">
        <ele>525.98</ele>
        <time>2021-05-28T07:51:22Z</time>
      </trkpt>
      <trkpt lat="37.7849690616" lon="-6.4887303952">
        <ele>526.94</ele>
        <time>2021-05-28T07:51:23Z</time>
      </trkpt>
      <trkpt lat="37.7849116456" lon="-6.4890618995">
        <ele>528.86</ele>
        <time>2021-05-28T07:51:24Z</time>
      </trkpt>
      <trkpt lat="37.7848666348" lon="-6.4893940743">
        <ele>530.79</ele>
        <time>2021-05-28T07:51:25Z</time>
      </trkpt>
      <trkpt lat="37.7847688179" lon="-6.4900231361">
        <ele>531.75</ele>
        <time>2021-05-28T07:51:27Z</time>
      </trkpt>
      <trkpt lat="37.7847004216" lon="-6.4903170895">
        <ele>531.75</ele>
        <time>2021-05-28T07:51:28Z</time>
      </trkpt>
      <trkpt lat="37.7846089751" lon="-6.4905948658">
        <ele>531.75</ele>
        <time>2021-05-28T07:51:29Z</time>
      </trkpt>
      <trkpt lat="37.7844916284" lon="-6.4908522740">
        <ele>532.71</ele>
        <time>2021-05-28T07:51:30Z</time>
      </trkpt>
      <trkpt lat="37.7843296062" lon="-6.4911236800">
        <ele>534.15</ele>
        <time>2021-05-28T07:51:31Z</time>
      </trkpt>
      <trkpt lat="37.7841928136" lon="-6.4913035557">
        <ele>535.11</ele>
        <time>2021-05-28T07:51:32Z</time>
      </trkpt>
      <trkpt lat="37.7840147819" lon="-6.4914839342">
        <ele>535.59</ele>
        <time>2021-05-28T07:51:33Z</time>
      </trkpt>
      <trkpt lat="37.7838216629" lon="-6.4916303661">
        <ele>535.59</ele>
        <time>2021-05-28T07:51:34Z</time>
      </trkpt>
      <trkpt lat="37.7836119477" lon="-6.4917436894">
        <ele>536.55</ele>
        <time>2021-05-28T07:51:35Z</time>
      </trkpt>
      <trkpt lat="37.7833852172" lon="-6.4918254968">
        <ele>537.99</ele>
        <time>2021-05-28T07:51:36Z</time>
      </trkpt>
      <trkpt lat="37.7831451595" lon="-6.4918774646">
        <ele>538.96</ele>
        <time>2021-05-28T07:51:37Z</time>
      </trkpt>
      <trkpt lat="37.7828911878" lon="-6.4919115789">
        <ele>539.92</ele>
        <time>2021-05-28T07:51:38Z</time>
      </trkpt>
      <trkpt lat="37.7823516447" lon="-6.4919626247">
        <ele>543.28</ele>
        <time>2021-05-28T07:51:40Z</time>
      </trkpt>
      <trkpt lat="37.7814713772" lon="-6.4920380618">
        <ele>546.17</ele>
        <time>2021-05-28T07:51:43Z</time>
      </trkpt>
      <trkpt lat="37.7803080529" lon="-6.4922836516">
        <ele>549.05</ele>
        <time>2021-05-28T07:51:47Z</time>
      </trkpt>
      <trkpt lat="37.7780147642" lon="-6.4931349177">
        <ele>545.69</ele>
        <time>2021-05-28T07:51:55Z</time>
      </trkpt>
      <trkpt lat="37.7774618100" lon="-6.4933406934">
        <ele>541.36</ele>
        <time>2021-05-28T07:51:57Z</time>
      </trkpt>
      <trkpt lat="37.7769524418" lon="-6.4935276937">
        <ele>535.11</ele>
        <time>2021-05-28T07:51:59Z</time>
      </trkpt>
      <trkpt lat="37.7764627710" lon="-6.4937181305">
        <ele>530.79</ele>
        <time>2021-05-28T07:52:01Z</time>
      </trkpt>
      <trkpt lat="37.7760116570" lon="-6.4939667378">
        <ele>528.38</ele>
        <time>2021-05-28T07:52:03Z</time>
      </trkpt>
      <trkpt lat="37.7757995948" lon="-6.4941228926">
        <ele>524.54</ele>
        <time>2021-05-28T07:52:04Z</time>
      </trkpt>
      <trkpt lat="37.7756031230" lon="-6.4942999184">
        <ele>522.13</ele>
        <time>2021-05-28T07:52:05Z</time>
      </trkpt>
      <trkpt lat="37.7754202299" lon="-6.4945075382">
        <ele>522.13</ele>
        <time>2021-05-28T07:52:06Z</time>
      </trkpt>
      <trkpt lat="37.7752486523" lon="-6.4947416447">
        <ele>521.17</ele>
        <time>2021-05-28T07:52:07Z</time>
      </trkpt>
      <trkpt lat="37.7750904858" lon="-6.4950070158">
        <ele>520.69</ele>
        <time>2021-05-28T07:52:08Z</time>
      </trkpt>
      <trkpt lat="37.7749474067" lon="-6.4952977840">
        <ele>521.65</ele>
        <time>2021-05-28T07:52:09Z</time>
      </trkpt>
      <trkpt lat="37.7748216782" lon="-6.4956129435">
        <ele>519.73</ele>
        <time>2021-05-28T07:52:10Z</time>
      </trkpt>
      <trkpt lat="37.7747178264" lon="-6.4959539194">
        <ele>518.77</ele>
        <time>2021-05-28T07:52:11Z</time>
      </trkpt>
      <trkpt lat="37.7746200096" lon="-6.4963011816">
        <ele>517.81</ele>
        <time>2021-05-28T07:52:12Z</time>
      </trkpt>
      <trkpt lat="37.7744216938" lon="-6.4969849773">
        <ele>514.44</ele>
        <time>2021-05-28T07:52:14Z</time>
      </trkpt>
      <trkpt lat="37.7742051892" lon="-6.4976345748">
        <ele>510.12</ele>
        <time>2021-05-28T07:52:16Z</time>
      </trkpt>
      <trkpt lat="37.7736277599" lon="-6.4988708217">
        <ele>507.23</ele>
        <time>2021-05-28T07:52:20Z</time>
      </trkpt>
      <trkpt lat="37.7733058948" lon="-6.4994641766">
        <ele>503.87</ele>
        <time>2021-05-28T07:52:22Z</time>
      </trkpt>
      <trkpt lat="37.7729822695" lon="-6.5000687633">
        <ele>500.02</ele>
        <time>2021-05-28T07:52:24Z</time>
      </trkpt>
      <trkpt lat="37.7724946104" lon="-6.5009696502">
        <ele>494.74</ele>
        <time>2021-05-28T07:52:27Z</time>
      </trkpt>
      <trkpt lat="37.7723379526" lon="-6.5012620110">
        <ele>491.85</ele>
        <time>2021-05-28T07:52:28Z</time>
      </trkpt>
      <trkpt lat="37.7720378805" lon="-6.5018315613">
        <ele>488.01</ele>
        <time>2021-05-28T07:52:30Z</time>
      </trkpt>
      <trkpt lat="37.7716373932" lon="-6.5027092304">
        <ele>483.68</ele>
        <time>2021-05-28T07:52:33Z</time>
      </trkpt>
      <trkpt lat="37.7714565117" lon="-6.5033475962">
        <ele>480.32</ele>
        <time>2021-05-28T07:52:35Z</time>
      </trkpt>
      <trkpt lat="37.7713983413" lon="-6.5036823694">
        <ele>478.87</ele>
        <time>2021-05-28T07:52:36Z</time>
      </trkpt>
      <trkpt lat="37.7713662386" lon="-6.5040260274">
        <ele>478.39</ele>
        <time>2021-05-28T07:52:37Z</time>
      </trkpt>
      <trkpt lat="37.7712659910" lon="-6.5054633562">
        <ele>474.55</ele>
        <time>2021-05-28T07:52:41Z</time>
      </trkpt>
      <trkpt lat="37.7712055575" lon="-6.5061530191">
        <ele>470.70</ele>
        <time>2021-05-28T07:52:43Z</time>
      </trkpt>
      <trkpt lat="37.7711749636" lon="-6.5064860322">
        <ele>467.34</ele>
        <time>2021-05-28T07:52:44Z</time>
      </trkpt>
      <trkpt lat="37.7711200621" lon="-6.5071203746">
        <ele>462.05</ele>
        <time>2021-05-28T07:52:46Z</time>
      </trkpt>
      <trkpt lat="37.7710762247" lon="-6.5077175852">
        <ele>458.69</ele>
        <time>2021-05-28T07:52:48Z</time>
      </trkpt>
      <trkpt lat="37.7710260171" lon="-6.5083134547">
        <ele>454.36</ele>
        <time>2021-05-28T07:52:50Z</time>
      </trkpt>
      <trkpt lat="37.7709369175" lon="-6.5088882018">
        <ele>451.48</ele>
        <time>2021-05-28T07:52:52Z</time>
      </trkpt>
      <trkpt lat="37.7707958501" lon="-6.5094405692">
        <ele>449.07</ele>
        <time>2021-05-28T07:52:54Z</time>
      </trkpt>
      <trkpt lat="37.7703324147" lon="-6.5104892291">
        <ele>446.19</ele>
        <time>2021-05-28T07:52:58Z</time>
      </trkpt>
      <trkpt lat="37.7700283192" lon="-6.5109447856">
        <ele>442.82</ele>
        <time>2021-05-28T07:53:00Z</time>
      </trkpt>
      <trkpt lat="37.7694819029" lon="-6.5115392301">
        <ele>438.98</ele>
        <time>2021-05-28T07:53:03Z</time>
      </trkpt>
      <trkpt lat="37.7686410304" lon="-6.5122944396">
        <ele>435.61</ele>
        <time>2021-05-28T07:53:07Z</time>
      </trkpt>
      <trkpt lat="37.7678196039" lon="-6.5130339749">
        <ele>433.21</ele>
        <time>2021-05-28T07:53:11Z</time>
      </trkpt>
      <trkpt lat="37.7673043683" lon="-6.5136150923">
        <ele>435.13</ele>
        <time>2021-05-28T07:53:14Z</time>
      </trkpt>
      <trkpt lat="37.7671767958" lon="-6.5138404816">
        <ele>436.58</ele>
        <time>2021-05-28T07:53:15Z</time>
      </trkpt>
      <trkpt lat="37.7670767996" lon="-6.5140824672">
        <ele>436.58</ele>
        <time>2021-05-28T07:53:16Z</time>
      </trkpt>
      <trkpt lat="37.7670005243" lon="-6.5143456589">
        <ele>438.02</ele>
        <time>2021-05-28T07:53:17Z</time>
      </trkpt>
      <trkpt lat="37.7669378277" lon="-6.5146298893">
        <ele>440.42</ele>
        <time>2021-05-28T07:53:18Z</time>
      </trkpt>
      <trkpt lat="37.7668871172" lon="-6.5149275307">
        <ele>441.86</ele>
        <time>2021-05-28T07:53:19Z</time>
      </trkpt>
      <trkpt lat="37.7668185532" lon="-6.5155598614">
        <ele>448.11</ele>
        <time>2021-05-28T07:53:21Z</time>
      </trkpt>
      <trkpt lat="37.7668146137" lon="-6.5162213612">
        <ele>451.48</ele>
        <time>2021-05-28T07:53:23Z</time>
      </trkpt>
      <trkpt lat="37.7668742090" lon="-6.5169024747">
        <ele>456.76</ele>
        <time>2021-05-28T07:53:25Z</time>
      </trkpt>
      <trkpt lat="37.7669954114" lon="-6.5175847616">
        <ele>462.05</ele>
        <time>2021-05-28T07:53:27Z</time>
      </trkpt>
      <trkpt lat="37.7671801485" lon="-6.5182385501">
        <ele>465.90</ele>
        <time>2021-05-28T07:53:29Z</time>
      </trkpt>
      <trkpt lat="37.7674169373" lon="-6.5188837051">
        <ele>470.70</ele>
        <time>2021-05-28T07:53:31Z</time>
      </trkpt>
      <trkpt lat="37.7676818054" lon="-6.5195143595">
        <ele>474.55</ele>
        <time>2021-05-28T07:53:33Z</time>
      </trkpt>
      <trkpt lat="37.7679349389" lon="-6.5201132465">
        <ele>477.91</ele>
        <time>2021-05-28T07:53:35Z</time>
      </trkpt>
      <trkpt lat="37.7680546325" lon="-6.5204004105">
        <ele>477.43</ele>
        <time>2021-05-28T07:53:36Z</time>
      </trkpt>
      <trkpt lat="37.7683345042" lon="-6.5212545265">
        <ele>480.80</ele>
        <time>2021-05-28T07:53:39Z</time>
      </trkpt>
      <trkpt lat="37.7683853824" lon="-6.5215552691">
        <ele>482.24</ele>
        <time>2021-05-28T07:53:40Z</time>
      </trkpt>
      <trkpt lat="37.7684122883" lon="-6.5218636394">
        <ele>484.16</ele>
        <time>2021-05-28T07:53:41Z</time>
      </trkpt>
      <trkpt lat="37.7684179042" lon="-6.5224931203">
        <ele>488.97</ele>
        <time>2021-05-28T07:53:43Z</time>
      </trkpt>
      <trkpt lat="37.7683361806" lon="-6.5234195720">
        <ele>493.29</ele>
        <time>2021-05-28T07:53:46Z</time>
      </trkpt>
      <trkpt lat="37.7682697959" lon="-6.5237160400">
        <ele>495.70</ele>
        <time>2021-05-28T07:53:47Z</time>
      </trkpt>
      <trkpt lat="37.7681777626" lon="-6.5240065567">
        <ele>497.62</ele>
        <time>2021-05-28T07:53:48Z</time>
      </trkpt>
      <trkpt lat="37.7680639364" lon="-6.5242958162">
        <ele>500.02</ele>
        <time>2021-05-28T07:53:49Z</time>
      </trkpt>
      <trkpt lat="37.7677973080" lon="-6.5248848964">
        <ele>504.35</ele>
        <time>2021-05-28T07:53:51Z</time>
      </trkpt>
      <trkpt lat="37.7675183583" lon="-6.5254662652">
        <ele>507.71</ele>
        <time>2021-05-28T07:53:53Z</time>
      </trkpt>
      <trkpt lat="37.7671185415" lon="-6.5263062995">
        <ele>512.52</ele>
        <time>2021-05-28T07:53:56Z</time>
      </trkpt>
      <trkpt lat="37.7668567747" lon="-6.5268455073">
        <ele>515.88</ele>
        <time>2021-05-28T07:53:58Z</time>
      </trkpt>
      <trkpt lat="37.7665523440" lon="-6.5273335855">
        <ele>521.17</ele>
        <time>2021-05-28T07:54:00Z</time>
      </trkpt>
      <trkpt lat="37.7663659304" lon="-6.5275552031">
        <ele>523.09</ele>
        <time>2021-05-28T07:54:01Z</time>
      </trkpt>
      <trkpt lat="37.7661598194" lon="-6.5277612302">
        <ele>525.02</ele>
        <time>2021-05-28T07:54:02Z</time>
      </trkpt>
      <trkpt lat="37.7657052688" lon="-6.5281467978">
        <ele>530.30</ele>
        <time>2021-05-28T07:54:04Z</time>
      </trkpt>
      <trkpt lat="37.7654735930" lon="-6.5283406712">
        <ele>530.30</ele>
        <time>2021-05-28T07:54:05Z</time>
      </trkpt>
      <trkpt lat="37.7652499638" lon="-6.5285355505">
        <ele>533.67</ele>
        <time>2021-05-28T07:54:06Z</time>
      </trkpt>
      <trkpt lat="37.7648643125" lon="-6.5289392229">
        <ele>535.59</ele>
        <time>2021-05-28T07:54:08Z</time>
      </trkpt>
      <trkpt lat="37.7647051401" lon="-6.5291608404">
        <ele>536.07</ele>
        <time>2021-05-28T07:54:09Z</time>
      </trkpt>
      <trkpt lat="37.7645665873" lon="-6.5294050891">
        <ele>537.03</ele>
        <time>2021-05-28T07:54:10Z</time>
      </trkpt>
      <trkpt lat="37.7644463070" lon="-6.5296737291">
        <ele>539.44</ele>
        <time>2021-05-28T07:54:11Z</time>
      </trkpt>
      <trkpt lat="37.7643427905" lon="-6.5299605578">
        <ele>543.28</ele>
        <time>2021-05-28T07:54:12Z</time>
      </trkpt>
      <trkpt lat="37.7642475720" lon="-6.5302587859">
        <ele>544.72</ele>
        <time>2021-05-28T07:54:13Z</time>
      </trkpt>
      <trkpt lat="37.7641580533" lon="-6.5305569302">
        <ele>544.72</ele>
        <time>2021-05-28T07:54:14Z</time>
      </trkpt>
      <trkpt lat="37.7638793550" lon="-6.5314108785">
        <ele>549.05</ele>
        <time>2021-05-28T07:54:17Z</time>
      </trkpt>
      <trkpt lat="37.7636442427" lon="-6.5319428779">
        <ele>552.90</ele>
        <time>2021-05-28T07:54:19Z</time>
      </trkpt>
      <trkpt lat="37.7634980623" lon="-6.5321953408">
        <ele>553.38</ele>
        <time>2021-05-28T07:54:20Z</time>
      </trkpt>
      <trkpt lat="37.7631739341" lon="-6.5326883644">
        <ele>555.30</ele>
        <time>2021-05-28T07:54:22Z</time>
      </trkpt>
      <trkpt lat="37.7624222450" lon="-6.5338927601">
        <ele>551.93</ele>
        <time>2021-05-28T07:54:27Z</time>
      </trkpt>
      <trkpt lat="37.7623222489" lon="-6.5341527667">
        <ele>549.53</ele>
        <time>2021-05-28T07:54:28Z</time>
      </trkpt>
      <trkpt lat="37.7622466441" lon="-6.5344174672">
        <ele>547.13</ele>
        <time>2021-05-28T07:54:29Z</time>
      </trkpt>
      <trkpt lat="37.7621934190" lon="-6.5346846823">
        <ele>546.17</ele>
        <time>2021-05-28T07:54:30Z</time>
      </trkpt>
      <trkpt lat="37.7621616516" lon="-6.5349549148">
        <ele>544.72</ele>
        <time>2021-05-28T07:54:31Z</time>
      </trkpt>
      <trkpt lat="37.7621538565" lon="-6.5352261532">
        <ele>542.80</ele>
        <time>2021-05-28T07:54:32Z</time>
      </trkpt>
      <trkpt lat="37.7621691953" lon="-6.5355025046">
        <ele>541.84</ele>
        <time>2021-05-28T07:54:33Z</time>
      </trkpt>
      <trkpt lat="37.7622090932" lon="-6.5357844718">
        <ele>539.92</ele>
        <time>2021-05-28T07:54:34Z</time>
      </trkpt>
      <trkpt lat="37.7622700296" lon="-6.5360648464">
        <ele>539.44</ele>
        <time>2021-05-28T07:54:35Z</time>
      </trkpt>
      <trkpt lat="37.7623561956" lon="-6.5363363363">
        <ele>538.48</ele>
        <time>2021-05-28T07:54:36Z</time>
      </trkpt>
      <trkpt lat="37.7624618914" lon="-6.5365994442">
        <ele>536.07</ele>
        <time>2021-05-28T07:54:37Z</time>
      </trkpt>
      <trkpt lat="37.7625880390" lon="-6.5368472133">
        <ele>534.15</ele>
        <time>2021-05-28T07:54:38Z</time>
      </trkpt>
      <trkpt lat="37.7627373207" lon="-6.5370809007">
        <ele>532.71</ele>
        <time>2021-05-28T07:54:39Z</time>
      </trkpt>
      <trkpt lat="37.7629078925" lon="-6.5372933820">
        <ele>531.75</ele>
        <time>2021-05-28T07:54:40Z</time>
      </trkpt>
      <trkpt lat="37.7630984969" lon="-6.5374832321">
        <ele>528.86</ele>
        <time>2021-05-28T07:54:41Z</time>
      </trkpt>
      <trkpt lat="37.7633052785" lon="-6.5376495291">
        <ele>528.38</ele>
        <time>2021-05-28T07:54:42Z</time>
      </trkpt>
      <trkpt lat="37.7635207772" lon="-6.5377847292">
        <ele>526.46</ele>
        <time>2021-05-28T07:54:43Z</time>
      </trkpt>
      <trkpt lat="37.7637377009" lon="-6.5378986392">
        <ele>525.50</ele>
        <time>2021-05-28T07:54:44Z</time>
      </trkpt>
      <trkpt lat="37.7643606439" lon="-6.5382868890">
        <ele>522.13</ele>
        <time>2021-05-28T07:54:47Z</time>
      </trkpt>
      <trkpt lat="37.7645489015" lon="-6.5384692792">
        <ele>521.17</ele>
        <time>2021-05-28T07:54:48Z</time>
      </trkpt>
      <trkpt lat="37.7647245862" lon="-6.5386818442">
        <ele>522.13</ele>
        <time>2021-05-28T07:54:49Z</time>
      </trkpt>
      <trkpt lat="37.7648850996" lon="-6.5389192197">
        <ele>522.61</ele>
        <time>2021-05-28T07:54:50Z</time>
      </trkpt>
      <trkpt lat="37.7650354709" lon="-6.5391740296">
        <ele>522.13</ele>
        <time>2021-05-28T07:54:51Z</time>
      </trkpt>
      <trkpt lat="37.7651766222" lon="-6.5394383110">
        <ele>523.09</ele>
        <time>2021-05-28T07:54:52Z</time>
      </trkpt>
      <trkpt lat="37.7654291689" lon="-6.5399962943">
        <ele>525.02</ele>
        <time>2021-05-28T07:54:54Z</time>
      </trkpt>
      <trkpt lat="37.7655284945" lon="-6.5403024852">
        <ele>526.94</ele>
        <time>2021-05-28T07:54:55Z</time>
      </trkpt>
      <trkpt lat="37.7656052727" lon="-6.5406203270">
        <ele>527.90</ele>
        <time>2021-05-28T07:54:56Z</time>
      </trkpt>
      <trkpt lat="37.7656628564" lon="-6.5409519989">
        <ele>529.82</ele>
        <time>2021-05-28T07:54:57Z</time>
      </trkpt>
      <trkpt lat="37.7656968031" lon="-6.5412978362">
        <ele>532.71</ele>
        <time>2021-05-28T07:54:58Z</time>
      </trkpt>
      <trkpt lat="37.7657098789" lon="-6.5416516364">
        <ele>534.63</ele>
        <time>2021-05-28T07:54:59Z</time>
      </trkpt>
      <trkpt lat="37.7657139860" lon="-6.5420144890">
        <ele>536.55</ele>
        <time>2021-05-28T07:55:00Z</time>
      </trkpt>
      <trkpt lat="37.7657159977" lon="-6.5423844662">
        <ele>540.88</ele>
        <time>2021-05-28T07:55:01Z</time>
      </trkpt>
      <trkpt lat="37.7657157462" lon="-6.5430898871">
        <ele>541.84</ele>
        <time>2021-05-28T07:55:03Z</time>
      </trkpt>
      <trkpt lat="37.7657212783" lon="-6.5441289917">
        <ele>545.20</ele>
        <time>2021-05-28T07:55:06Z</time>
      </trkpt>
      <trkpt lat="37.7657281514" lon="-6.5451464709">
        <ele>547.13</ele>
        <time>2021-05-28T07:55:09Z</time>
      </trkpt>
      <trkpt lat="37.7657465916" lon="-6.5471289586">
        <ele>550.01</ele>
        <time>2021-05-28T07:55:16Z</time>
      </trkpt>
      <trkpt lat="37.7657479327" lon="-6.5473848581">
        <ele>550.01</ele>
        <time>2021-05-28T07:55:17Z</time>
      </trkpt>
      <trkpt lat="37.7657520398" lon="-6.5478935558">
        <ele>553.86</ele>
        <time>2021-05-28T07:55:19Z</time>
      </trkpt>
      <trkpt lat="37.7657537162" lon="-6.5481499583">
        <ele>553.38</ele>
        <time>2021-05-28T07:55:20Z</time>
      </trkpt>
      <trkpt lat="37.7657593321" lon="-6.5486670379">
        <ele>557.22</ele>
        <time>2021-05-28T07:55:22Z</time>
      </trkpt>
      <trkpt lat="37.7657175064" lon="-6.5494637378">
        <ele>560.59</ele>
        <time>2021-05-28T07:55:25Z</time>
      </trkpt>
      <trkpt lat="37.7656035963" lon="-6.5500306897">
        <ele>564.43</ele>
        <time>2021-05-28T07:55:27Z</time>
      </trkpt>
      <trkpt lat="37.7650812361" lon="-6.5520080645">
        <ele>562.51</ele>
        <time>2021-05-28T07:55:35Z</time>
      </trkpt>
      <trkpt lat="37.7649154421" lon="-6.5524205379">
        <ele>561.55</ele>
        <time>2021-05-28T07:55:37Z</time>
      </trkpt>
      <trkpt lat="37.7646636497" lon="-6.5529599972">
        <ele>558.18</ele>
        <time>2021-05-28T07:55:40Z</time>
      </trkpt>
      <trkpt lat="37.7643266972" lon="-6.5536585450">
        <ele>559.14</ele>
        <time>2021-05-28T07:55:44Z</time>
      </trkpt>
      <trkpt lat="37.7640132979" lon="-6.5544558316">
        <ele>561.07</ele>
        <time>2021-05-28T07:55:48Z</time>
      </trkpt>
      <trkpt lat="37.7639582288" lon="-6.5546825621">
        <ele>562.03</ele>
        <time>2021-05-28T07:55:49Z</time>
      </trkpt>
      <trkpt lat="37.7639140561" lon="-6.5549218655">
        <ele>562.51</ele>
        <time>2021-05-28T07:55:50Z</time>
      </trkpt>
      <trkpt lat="37.7638817858" lon="-6.5551719815">
        <ele>562.99</ele>
        <time>2021-05-28T07:55:51Z</time>
      </trkpt>
      <trkpt lat="37.7638643514" lon="-6.5554310661">
        <ele>562.99</ele>
        <time>2021-05-28T07:55:52Z</time>
      </trkpt>
      <trkpt lat="37.7638606634" lon="-6.5556944255">
        <ele>562.03</ele>
        <time>2021-05-28T07:55:53Z</time>
      </trkpt>
      <trkpt lat="37.7638718951" lon="-6.5559652448">
        <ele>562.99</ele>
        <time>2021-05-28T07:55:54Z</time>
      </trkpt>
      <trkpt lat="37.7638980467" lon="-6.5562422667">
        <ele>563.47</ele>
        <time>2021-05-28T07:55:55Z</time>
      </trkpt>
      <trkpt lat="37.7639630903" lon="-6.5567965619">
        <ele>564.43</ele>
        <time>2021-05-28T07:55:57Z</time>
      </trkpt>
      <trkpt lat="37.7640448138" lon="-6.5581597947">
        <ele>563.47</ele>
        <time>2021-05-28T07:56:03Z</time>
      </trkpt>
      <trkpt lat="37.7639437281" lon="-6.5588006750">
        <ele>566.35</ele>
        <time>2021-05-28T07:56:06Z</time>
      </trkpt>
      <trkpt lat="37.7638890781" lon="-6.5590078756">
        <ele>566.35</ele>
        <time>2021-05-28T07:56:07Z</time>
      </trkpt>
      <trkpt lat="37.7636902593" lon="-6.5596200898">
        <ele>570.68</ele>
        <time>2021-05-28T07:56:10Z</time>
      </trkpt>
      <trkpt lat="37.7635509521" lon="-6.5600365028">
        <ele>572.60</ele>
        <time>2021-05-28T07:56:12Z</time>
      </trkpt>
      <trkpt lat="37.7634462621" lon="-6.5604802407">
        <ele>574.04</ele>
        <time>2021-05-28T07:56:14Z</time>
      </trkpt>
      <trkpt lat="37.7634139918" lon="-6.5607171971">
        <ele>575.97</ele>
        <time>2021-05-28T07:56:15Z</time>
      </trkpt>
      <trkpt lat="37.7633927856" lon="-6.5609648824">
        <ele>577.41</ele>
        <time>2021-05-28T07:56:16Z</time>
      </trkpt>
      <trkpt lat="37.7633671369" lon="-6.5617682878">
        <ele>581.25</ele>
        <time>2021-05-28T07:56:19Z</time>
      </trkpt>
      <trkpt lat="37.7632893529" lon="-6.5628607012">
        <ele>578.37</ele>
        <time>2021-05-28T07:56:23Z</time>
      </trkpt>
      <trkpt lat="37.7632749360" lon="-6.5633789543">
        <ele>575.01</ele>
        <time>2021-05-28T07:56:25Z</time>
      </trkpt>
      <trkpt lat="37.7632613573" lon="-6.5638435632">
        <ele>572.12</ele>
        <time>2021-05-28T07:56:27Z</time>
      </trkpt>
      <trkpt lat="37.7632404026" lon="-6.5644571185">
        <ele>569.24</ele>
        <time>2021-05-28T07:56:30Z</time>
      </trkpt>
      <trkpt lat="37.7631200384" lon="-6.5664820187">
        <ele>567.32</ele>
        <time>2021-05-28T07:56:39Z</time>
      </trkpt>
      <trkpt lat="37.7630436793" lon="-6.5674572531">
        <ele>563.95</ele>
        <time>2021-05-28T07:56:43Z</time>
      </trkpt>
      <trkpt lat="37.7630428411" lon="-6.5676981490">
        <ele>562.51</ele>
        <time>2021-05-28T07:56:44Z</time>
      </trkpt>
      <trkpt lat="37.7630613651" lon="-6.5679319203">
        <ele>562.03</ele>
        <time>2021-05-28T07:56:45Z</time>
      </trkpt>
      <trkpt lat="37.7630992513" lon="-6.5681601595">
        <ele>562.03</ele>
        <time>2021-05-28T07:56:46Z</time>
      </trkpt>
      <trkpt lat="37.7631546557" lon="-6.5683783405">
        <ele>561.55</ele>
        <time>2021-05-28T07:56:47Z</time>
      </trkpt>
      <trkpt lat="37.7632217947" lon="-6.5685844515">
        <ele>561.55</ele>
        <time>2021-05-28T07:56:48Z</time>
      </trkpt>
      <trkpt lat="37.7632907778" lon="-6.5687838569">
        <ele>561.07</ele>
        <time>2021-05-28T07:56:49Z</time>
      </trkpt>
      <trkpt lat="37.7634363715" lon="-6.5693620406">
        <ele>560.11</ele>
        <time>2021-05-28T07:56:52Z</time>
      </trkpt>
      <trkpt lat="37.7634511236" lon="-6.5695485380">
        <ele>559.62</ele>
        <time>2021-05-28T07:56:53Z</time>
      </trkpt>
      <trkpt lat="37.7634429093" lon="-6.5697376337">
        <ele>558.66</ele>
        <time>2021-05-28T07:56:54Z</time>
      </trkpt>
      <trkpt lat="37.7634106390" lon="-6.5699332673">
        <ele>560.11</ele>
        <time>2021-05-28T07:56:55Z</time>
      </trkpt>
      <trkpt lat="37.7633549832" lon="-6.5701283142">
        <ele>561.55</ele>
        <time>2021-05-28T07:56:56Z</time>
      </trkpt>
      <trkpt lat="37.7632756066" lon="-6.5703218523">
        <ele>560.59</ele>
        <time>2021-05-28T07:56:57Z</time>
      </trkpt>
      <trkpt lat="37.7631767839" lon="-6.5705108643">
        <ele>560.11</ele>
        <time>2021-05-28T07:56:58Z</time>
      </trkpt>
      <trkpt lat="37.7630635444" lon="-6.5706901532">
        <ele>560.11</ele>
        <time>2021-05-28T07:56:59Z</time>
      </trkpt>
      <trkpt lat="37.7629440185" lon="-6.5708576236">
        <ele>560.11</ele>
        <time>2021-05-28T07:57:00Z</time>
      </trkpt>
      <trkpt lat="37.7621106897" lon="-6.5720117278">
        <ele>556.74</ele>
        <time>2021-05-28T07:57:08Z</time>
      </trkpt>
      <trkpt lat="37.7613800392" lon="-6.5733087435">
        <ele>558.18</ele>
        <time>2021-05-28T07:57:16Z</time>
      </trkpt>
      <trkpt lat="37.7611614391" lon="-6.5742163360">
        <ele>554.34</ele>
        <time>2021-05-28T07:57:20Z</time>
      </trkpt>
      <trkpt lat="37.7611243073" lon="-6.5746955294">
        <ele>550.97</ele>
        <time>2021-05-28T07:57:22Z</time>
      </trkpt>
      <trkpt lat="37.7611301746" lon="-6.5749384370">
        <ele>550.01</ele>
        <time>2021-05-28T07:57:23Z</time>
      </trkpt>
      <trkpt lat="37.7611525543" lon="-6.5751852002">
        <ele>549.05</ele>
        <time>2021-05-28T07:57:24Z</time>
      </trkpt>
      <trkpt lat="37.7612131555" lon="-6.5756661538">
        <ele>546.17</ele>
        <time>2021-05-28T07:57:26Z</time>
      </trkpt>
      <trkpt lat="37.7612578310" lon="-6.5763564873">
        <ele>541.84</ele>
        <time>2021-05-28T07:57:29Z</time>
      </trkpt>
      <trkpt lat="37.7612521313" lon="-6.5765965451">
        <ele>541.36</ele>
        <time>2021-05-28T07:57:30Z</time>
      </trkpt>
      <trkpt lat="37.7612302545" lon="-6.5768427216">
        <ele>540.40</ele>
        <time>2021-05-28T07:57:31Z</time>
      </trkpt>
      <trkpt lat="37.7611699887" lon="-6.5770951845">
        <ele>539.92</ele>
        <time>2021-05-28T07:57:32Z</time>
      </trkpt>
      <trkpt lat="37.7610945515" lon="-6.5773461387">
        <ele>538.48</ele>
        <time>2021-05-28T07:57:33Z</time>
      </trkpt>
      <trkpt lat="37.7609959804" lon="-6.5775984339">
        <ele>539.44</ele>
        <time>2021-05-28T07:57:34Z</time>
      </trkpt>
      <trkpt lat="37.7608783823" lon="-6.5778454486">
        <ele>537.51</ele>
        <time>2021-05-28T07:57:35Z</time>
      </trkpt>
      <trkpt lat="37.7607432660" lon="-6.5780807287">
        <ele>536.55</ele>
        <time>2021-05-28T07:57:36Z</time>
      </trkpt>
      <trkpt lat="37.7605990134" lon="-6.5783018433">
        <ele>533.67</ele>
        <time>2021-05-28T07:57:37Z</time>
      </trkpt>
      <trkpt lat="37.7603167947" lon="-6.5787148196">
        <ele>529.82</ele>
        <time>2021-05-28T07:57:39Z</time>
      </trkpt>
      <trkpt lat="37.7600505855" lon="-6.5790850483">
        <ele>526.46</ele>
        <time>2021-05-28T07:57:41Z</time>
      </trkpt>
      <trkpt lat="37.7598176524" lon="-6.5794106014">
        <ele>523.09</ele>
        <time>2021-05-28T07:57:43Z</time>
      </trkpt>
      <trkpt lat="37.7596123796" lon="-6.5797070693">
        <ele>519.73</ele>
        <time>2021-05-28T07:57:45Z</time>
      </trkpt>
      <trkpt lat="37.7593169175" lon="-6.5801547468">
        <ele>516.37</ele>
        <time>2021-05-28T07:57:48Z</time>
      </trkpt>
      <trkpt lat="37.7590359561" lon="-6.5806388017">
        <ele>512.52</ele>
        <time>2021-05-28T07:57:51Z</time>
      </trkpt>
      <trkpt lat="37.7589450963" lon="-6.5808169171">
        <ele>512.52</ele>
        <time>2021-05-28T07:57:52Z</time>
      </trkpt>
      <trkpt lat="37.7583615482" lon="-6.5820683353">
        <ele>509.16</ele>
        <time>2021-05-28T07:57:58Z</time>
      </trkpt>
      <trkpt lat="37.7582569420" lon="-6.5822944790">
        <ele>509.16</ele>
        <time>2021-05-28T07:57:59Z</time>
      </trkpt>
      <trkpt lat="37.7578830253" lon="-6.5830251295">
        <ele>505.31</ele>
        <time>2021-05-28T07:58:02Z</time>
      </trkpt>
      <trkpt lat="37.7574501000" lon="-6.5837012138">
        <ele>501.46</ele>
        <time>2021-05-28T07:58:05Z</time>
      </trkpt>
      <trkpt lat="37.7573025785" lon="-6.5839076601">
        <ele>498.10</ele>
        <time>2021-05-28T07:58:06Z</time>
      </trkpt>
      <trkpt lat="37.7568614390" lon="-6.5844569262">
        <ele>493.77</ele>
        <time>2021-05-28T07:58:09Z</time>
      </trkpt>
      <trkpt lat="37.7567207906" lon="-6.5846195351">
        <ele>490.41</ele>
        <time>2021-05-28T07:58:10Z</time>
      </trkpt>
      <trkpt lat="37.7564534917" lon="-6.5849199425">
        <ele>486.56</ele>
        <time>2021-05-28T07:58:12Z</time>
      </trkpt>
      <trkpt lat="37.7562129311" lon="-6.5851899236">
        <ele>483.20</ele>
        <time>2021-05-28T07:58:14Z</time>
      </trkpt>
      <trkpt lat="37.7557483222" lon="-6.5857034829">
        <ele>480.32</ele>
        <time>2021-05-28T07:58:18Z</time>
      </trkpt>
      <trkpt lat="37.7546831500" lon="-6.5866178647">
        <ele>476.47</ele>
        <time>2021-05-28T07:58:25Z</time>
      </trkpt>
      <trkpt lat="37.7543398272" lon="-6.5868136659">
        <ele>473.59</ele>
        <time>2021-05-28T07:58:27Z</time>
      </trkpt>
      <trkpt lat="37.7539978456" lon="-6.5869699884">
        <ele>472.14</ele>
        <time>2021-05-28T07:58:29Z</time>
      </trkpt>
      <trkpt lat="37.7525476925" lon="-6.5874077752">
        <ele>468.78</ele>
        <time>2021-05-28T07:58:37Z</time>
      </trkpt>
      <trkpt lat="37.7516618092" lon="-6.5876008105">
        <ele>466.86</ele>
        <time>2021-05-28T07:58:42Z</time>
      </trkpt>
      <trkpt lat="37.7514816821" lon="-6.5875895787">
        <ele>466.86</ele>
        <time>2021-05-28T07:58:43Z</time>
      </trkpt>
      <trkpt lat="37.7513023093" lon="-6.5875513572">
        <ele>466.86</ele>
        <time>2021-05-28T07:58:44Z</time>
      </trkpt>
      <trkpt lat="37.7511307318" lon="-6.5874851402">
        <ele>466.86</ele>
        <time>2021-05-28T07:58:45Z</time>
      </trkpt>
      <trkpt lat="37.7509718947" lon="-6.5873875748">
        <ele>466.86</ele>
        <time>2021-05-28T07:58:46Z</time>
      </trkpt>
      <trkpt lat="37.7508257143" lon="-6.5872597508">
        <ele>467.34</ele>
        <time>2021-05-28T07:58:47Z</time>
      </trkpt>
      <trkpt lat="37.7506887540" lon="-6.5871094633">
        <ele>467.34</ele>
        <time>2021-05-28T07:58:48Z</time>
      </trkpt>
      <trkpt lat="37.7505616844" lon="-6.5869401488">
        <ele>467.82</ele>
        <time>2021-05-28T07:58:49Z</time>
      </trkpt>
      <trkpt lat="37.7504404821" lon="-6.5867623687">
        <ele>468.78</ele>
        <time>2021-05-28T07:58:50Z</time>
      </trkpt>
      <trkpt lat="37.7501048706" lon="-6.5862380806">
        <ele>467.34</ele>
        <time>2021-05-28T07:58:53Z</time>
      </trkpt>
      <trkpt lat="37.7497939859" lon="-6.5857671015">
        <ele>465.90</ele>
        <time>2021-05-28T07:58:56Z</time>
      </trkpt>
      <trkpt lat="37.7496758848" lon="-6.5856412053">
        <ele>466.86</ele>
        <time>2021-05-28T07:58:57Z</time>
      </trkpt>
      <trkpt lat="37.7495443728" lon="-6.5855386108">
        <ele>466.86</ele>
        <time>2021-05-28T07:58:58Z</time>
      </trkpt>
      <trkpt lat="37.7494002879" lon="-6.5854577255">
        <ele>466.86</ele>
        <time>2021-05-28T07:58:59Z</time>
      </trkpt>
      <trkpt lat="37.7492476534" lon="-6.5853928495">
        <ele>466.86</ele>
        <time>2021-05-28T07:59:00Z</time>
      </trkpt>
      <trkpt lat="37.7490904927" lon="-6.5853349306">
        <ele>466.86</ele>
        <time>2021-05-28T07:59:01Z</time>
      </trkpt>
      <trkpt lat="37.7484723274" lon="-6.5850234590">
        <ele>467.82</ele>
        <time>2021-05-28T07:59:05Z</time>
      </trkpt>
      <trkpt lat="37.7483364567" lon="-6.5848935395">
        <ele>468.30</ele>
        <time>2021-05-28T07:59:06Z</time>
      </trkpt>
      <trkpt lat="37.7482119855" lon="-6.5847386420">
        <ele>469.26</ele>
        <time>2021-05-28T07:59:07Z</time>
      </trkpt>
      <trkpt lat="37.7480965666" lon="-6.5845672321">
        <ele>468.78</ele>
        <time>2021-05-28T07:59:08Z</time>
      </trkpt>
      <trkpt lat="37.7479844168" lon="-6.5843930561">
        <ele>468.30</ele>
        <time>2021-05-28T07:59:09Z</time>
      </trkpt>
      <trkpt lat="37.7475471329" lon="-6.5837642457">
        <ele>467.82</ele>
        <time>2021-05-28T07:59:13Z</time>
      </trkpt>
      <trkpt lat="37.7474271879" lon="-6.5836594719">
        <ele>466.86</ele>
        <time>2021-05-28T07:59:14Z</time>
      </trkpt>
      <trkpt lat="37.7472964302" lon="-6.5835805982">
        <ele>466.86</ele>
        <time>2021-05-28T07:59:15Z</time>
      </trkpt>
      <trkpt lat="37.7471550275" lon="-6.5835324861">
        <ele>466.86</ele>
        <time>2021-05-28T07:59:16Z</time>
      </trkpt>
      <trkpt lat="37.7470026445" lon="-6.5835168120">
        <ele>465.42</ele>
        <time>2021-05-28T07:59:17Z</time>
      </trkpt>
      <trkpt lat="37.7468403708" lon="-6.5835347492">
        <ele>465.90</ele>
        <time>2021-05-28T07:59:18Z</time>
      </trkpt>
      <trkpt lat="37.7466737386" lon="-6.5835984517">
        <ele>465.42</ele>
        <time>2021-05-28T07:59:19Z</time>
      </trkpt>
      <trkpt lat="37.7465048432" lon="-6.5837016329">
        <ele>466.86</ele>
        <time>2021-05-28T07:59:20Z</time>
      </trkpt>
      <trkpt lat="37.7463385463" lon="-6.5838217456">
        <ele>463.01</ele>
        <time>2021-05-28T07:59:21Z</time>
      </trkpt>
      <trkpt lat="37.7461740095" lon="-6.5839507431">
        <ele>462.53</ele>
        <time>2021-05-28T07:59:22Z</time>
      </trkpt>
      <trkpt lat="37.7458331175" lon="-6.5842095762">
        <ele>461.57</ele>
        <time>2021-05-28T07:59:24Z</time>
      </trkpt>
      <trkpt lat="37.7454762161" lon="-6.5844035335">
        <ele>458.21</ele>
        <time>2021-05-28T07:59:26Z</time>
      </trkpt>
      <trkpt lat="37.7451271936" lon="-6.5845423378">
        <ele>454.36</ele>
        <time>2021-05-28T07:59:28Z</time>
      </trkpt>
      <trkpt lat="37.7449559513" lon="-6.5846150927">
        <ele>453.88</ele>
        <time>2021-05-28T07:59:29Z</time>
      </trkpt>
      <trkpt lat="37.7442613430" lon="-6.5850543045">
        <ele>451.48</ele>
        <time>2021-05-28T07:59:33Z</time>
      </trkpt>
      <trkpt lat="37.7439082135" lon="-6.5853325836">
        <ele>448.11</ele>
        <time>2021-05-28T07:59:35Z</time>
      </trkpt>
      <trkpt lat="37.7433817461" lon="-6.5856592264">
        <ele>443.31</ele>
        <time>2021-05-28T07:59:38Z</time>
      </trkpt>
      <trkpt lat="37.7430168819" lon="-6.5858225059">
        <ele>442.82</ele>
        <time>2021-05-28T07:59:40Z</time>
      </trkpt>
      <trkpt lat="37.7424239460" lon="-6.5860395972">
        <ele>439.46</ele>
        <time>2021-05-28T07:59:43Z</time>
      </trkpt>
      <trkpt lat="37.7420359477" lon="-6.5861692652">
        <ele>436.10</ele>
        <time>2021-05-28T07:59:45Z</time>
      </trkpt>
      <trkpt lat="37.7416678984" lon="-6.5862914734">
        <ele>433.21</ele>
        <time>2021-05-28T07:59:47Z</time>
      </trkpt>
      <trkpt lat="37.7414937224" lon="-6.5863684192">
        <ele>431.77</ele>
        <time>2021-05-28T07:59:48Z</time>
      </trkpt>
      <trkpt lat="37.7413350530" lon="-6.5864689182">
        <ele>429.85</ele>
        <time>2021-05-28T07:59:49Z</time>
      </trkpt>
      <trkpt lat="37.7411929797" lon="-6.5865975805">
        <ele>428.89</ele>
        <time>2021-05-28T07:59:50Z</time>
      </trkpt>
      <trkpt lat="37.7410680056" lon="-6.5867601894">
        <ele>427.44</ele>
        <time>2021-05-28T07:59:51Z</time>
      </trkpt>
      <trkpt lat="37.7409677580" lon="-6.5869448427">
        <ele>426.00</ele>
        <time>2021-05-28T07:59:52Z</time>
      </trkpt>
      <trkpt lat="37.7408846933" lon="-6.5871401411">
        <ele>424.56</ele>
        <time>2021-05-28T07:59:53Z</time>
      </trkpt>
      <trkpt lat="37.7408236731" lon="-6.5873563103">
        <ele>423.60</ele>
        <time>2021-05-28T07:59:54Z</time>
      </trkpt>
      <trkpt lat="37.7407934144" lon="-6.5875903331">
        <ele>422.64</ele>
        <time>2021-05-28T07:59:55Z</time>
      </trkpt>
      <trkpt lat="37.7407763153" lon="-6.5878197458">
        <ele>420.71</ele>
        <time>2021-05-28T07:59:56Z</time>
      </trkpt>
      <trkpt lat="37.7406758163" lon="-6.5886508115">
        <ele>415.91</ele>
        <time>2021-05-28T08:00:00Z</time>
      </trkpt>
      <trkpt lat="37.7406034805" lon="-6.5888315253">
        <ele>414.95</ele>
        <time>2021-05-28T08:00:01Z</time>
      </trkpt>
      <trkpt lat="37.7404979523" lon="-6.5890025999">
        <ele>415.43</ele>
        <time>2021-05-28T08:00:02Z</time>
      </trkpt>
      <trkpt lat="37.7403643448" lon="-6.5891571622">
        <ele>413.98</ele>
        <time>2021-05-28T08:00:03Z</time>
      </trkpt>
      <trkpt lat="37.7402118780" lon="-6.5892906860">
        <ele>412.54</ele>
        <time>2021-05-28T08:00:04Z</time>
      </trkpt>
      <trkpt lat="37.7400431503" lon="-6.5893976390">
        <ele>413.02</ele>
        <time>2021-05-28T08:00:05Z</time>
      </trkpt>
      <trkpt lat="37.7398636937" lon="-6.5894706454">
        <ele>411.58</ele>
        <time>2021-05-28T08:00:06Z</time>
      </trkpt>
      <trkpt lat="37.7396822255" lon="-6.5895019937">
        <ele>410.14</ele>
        <time>2021-05-28T08:00:07Z</time>
      </trkpt>
      <trkpt lat="37.7395015955" lon="-6.5894942824">
        <ele>408.22</ele>
        <time>2021-05-28T08:00:08Z</time>
      </trkpt>
      <trkpt lat="37.7393238153" lon="-6.5894460864">
        <ele>407.26</ele>
        <time>2021-05-28T08:00:09Z</time>
      </trkpt>
      <trkpt lat="37.7391507290" lon="-6.5893615130">
        <ele>406.77</ele>
        <time>2021-05-28T08:00:10Z</time>
      </trkpt>
      <trkpt lat="37.7389852703" lon="-6.5892488603">
        <ele>406.29</ele>
        <time>2021-05-28T08:00:11Z</time>
      </trkpt>
      <trkpt lat="37.7388261817" lon="-6.5891229641">
        <ele>406.77</ele>
        <time>2021-05-28T08:00:12Z</time>
      </trkpt>
      <trkpt lat="37.7371727675" lon="-6.5878847055">
        <ele>403.41</ele>
        <time>2021-05-28T08:00:22Z</time>
      </trkpt>
      <trkpt lat="37.7366250940" lon="-6.5875438973">
        <ele>399.08</ele>
        <time>2021-05-28T08:00:25Z</time>
      </trkpt>
      <trkpt lat="37.7360405400" lon="-6.5872898418">
        <ele>394.76</ele>
        <time>2021-05-28T08:00:28Z</time>
      </trkpt>
      <trkpt lat="37.7352842409" lon="-6.5870348644">
        <ele>391.39</ele>
        <time>2021-05-28T08:00:32Z</time>
      </trkpt>
      <trkpt lat="37.7347789798" lon="-6.5868258197">
        <ele>391.87</ele>
        <time>2021-05-28T08:00:35Z</time>
      </trkpt>
      <trkpt lat="37.7346174605" lon="-6.5867243148">
        <ele>390.91</ele>
        <time>2021-05-28T08:00:36Z</time>
      </trkpt>
      <trkpt lat="37.7332376316" lon="-6.5858042333">
        <ele>392.36</ele>
        <time>2021-05-28T08:00:44Z</time>
      </trkpt>
      <trkpt lat="37.7323648240" lon="-6.5853420552">
        <ele>389.47</ele>
        <time>2021-05-28T08:00:49Z</time>
      </trkpt>
      <trkpt lat="37.7309198678" lon="-6.5845725127">
        <ele>390.43</ele>
        <time>2021-05-28T08:00:58Z</time>
      </trkpt>
      <trkpt lat="37.7286232263" lon="-6.5833870601">
        <ele>391.87</ele>
        <time>2021-05-28T08:01:11Z</time>
      </trkpt>
      <trkpt lat="37.7284336276" lon="-6.5833470784">
        <ele>391.87</ele>
        <time>2021-05-28T08:01:12Z</time>
      </trkpt>
      <trkpt lat="37.7282426041" lon="-6.5833303146">
        <ele>391.39</ele>
        <time>2021-05-28T08:01:13Z</time>
      </trkpt>
      <trkpt lat="37.7280499879" lon="-6.5833397862">
        <ele>391.39</ele>
        <time>2021-05-28T08:01:14Z</time>
      </trkpt>
      <trkpt lat="37.7278568689" lon="-6.5833776724">
        <ele>391.39</ele>
        <time>2021-05-28T08:01:15Z</time>
      </trkpt>
      <trkpt lat="37.7276660968" lon="-6.5834434703">
        <ele>391.87</ele>
        <time>2021-05-28T08:01:16Z</time>
      </trkpt>
      <trkpt lat="37.7274827845" lon="-6.5835342463">
        <ele>391.39</ele>
        <time>2021-05-28T08:01:17Z</time>
      </trkpt>
      <trkpt lat="37.7273014840" lon="-6.5836531017">
        <ele>391.39</ele>
        <time>2021-05-28T08:01:18Z</time>
      </trkpt>
      <trkpt lat="37.7271221951" lon="-6.5838031378">
        <ele>393.32</ele>
        <time>2021-05-28T08:01:19Z</time>
      </trkpt>
      <trkpt lat="37.7269491088" lon="-6.5839781519">
        <ele>394.76</ele>
        <time>2021-05-28T08:01:20Z</time>
      </trkpt>
      <trkpt lat="37.7267802972" lon="-6.5841570217">
        <ele>394.28</ele>
        <time>2021-05-28T08:01:21Z</time>
      </trkpt>
      <trkpt lat="37.7259048074" lon="-6.5848569945">
        <ele>398.60</ele>
        <time>2021-05-28T08:01:26Z</time>
      </trkpt>
      <trkpt lat="37.7256949246" lon="-6.5849487763">
        <ele>400.05</ele>
        <time>2021-05-28T08:01:27Z</time>
      </trkpt>
      <trkpt lat="37.7254723851" lon="-6.5850201901">
        <ele>400.05</ele>
        <time>2021-05-28T08:01:28Z</time>
      </trkpt>
      <trkpt lat="37.7252464928" lon="-6.5850734152">
        <ele>401.49</ele>
        <time>2021-05-28T08:01:29Z</time>
      </trkpt>
      <trkpt lat="37.7250222769" lon="-6.5851066075">
        <ele>400.53</ele>
        <time>2021-05-28T08:01:30Z</time>
      </trkpt>
      <trkpt lat="37.7248021681" lon="-6.5851208568">
        <ele>401.97</ele>
        <time>2021-05-28T08:01:31Z</time>
      </trkpt>
      <trkpt lat="37.7245844062" lon="-6.5851163305">
        <ele>401.97</ele>
        <time>2021-05-28T08:01:32Z</time>
      </trkpt>
      <trkpt lat="37.7243658062" lon="-6.5850963816">
        <ele>403.41</ele>
        <time>2021-05-28T08:01:33Z</time>
      </trkpt>
      <trkpt lat="37.7241503075" lon="-6.5850671288">
        <ele>403.41</ele>
        <time>2021-05-28T08:01:34Z</time>
      </trkpt>
      <trkpt lat="37.7235226706" lon="-6.5848723333">
        <ele>408.22</ele>
        <time>2021-05-28T08:01:37Z</time>
      </trkpt>
      <trkpt lat="37.7225293312" lon="-6.5841154475">
        <ele>411.10</ele>
        <time>2021-05-28T08:01:43Z</time>
      </trkpt>
      <trkpt lat="37.7221185341" lon="-6.5835740604">
        <ele>415.91</ele>
        <time>2021-05-28T08:01:46Z</time>
      </trkpt>
      <trkpt lat="37.7218663227" lon="-6.5831482597">
        <ele>419.75</ele>
        <time>2021-05-28T08:01:48Z</time>
      </trkpt>
      <trkpt lat="37.7215062361" lon="-6.5825027693">
        <ele>421.68</ele>
        <time>2021-05-28T08:01:51Z</time>
      </trkpt>
      <trkpt lat="37.7207974624" lon="-6.5812642593">
        <ele>425.52</ele>
        <time>2021-05-28T08:01:57Z</time>
      </trkpt>
      <trkpt lat="37.7206693869" lon="-6.5810604952">
        <ele>425.52</ele>
        <time>2021-05-28T08:01:58Z</time>
      </trkpt>
      <trkpt lat="37.7203942928" lon="-6.5806622710">
        <ele>425.52</ele>
        <time>2021-05-28T08:02:00Z</time>
      </trkpt>
      <trkpt lat="37.7202355396" lon="-6.5804870892">
        <ele>426.48</ele>
        <time>2021-05-28T08:02:01Z</time>
      </trkpt>
      <trkpt lat="37.7193040587" lon="-6.5796689317">
        <ele>425.52</ele>
        <time>2021-05-28T08:02:07Z</time>
      </trkpt>
      <trkpt lat="37.7183644474" lon="-6.5792497527">
        <ele>429.85</ele>
        <time>2021-05-28T08:02:13Z</time>
      </trkpt>
      <trkpt lat="37.7176442742" lon="-6.5790418815">
        <ele>435.61</ele>
        <time>2021-05-28T08:02:17Z</time>
      </trkpt>
      <trkpt lat="37.7174630575" lon="-6.5789910872">
        <ele>435.13</ele>
        <time>2021-05-28T08:02:18Z</time>
      </trkpt>
      <trkpt lat="37.7167449798" lon="-6.5788578987">
        <ele>438.02</ele>
        <time>2021-05-28T08:02:22Z</time>
      </trkpt>
      <trkpt lat="37.7163934428" lon="-6.5788689628">
        <ele>438.98</ele>
        <time>2021-05-28T08:02:24Z</time>
      </trkpt>
      <trkpt lat="37.7155891154" lon="-6.5791217610">
        <ele>441.38</ele>
        <time>2021-05-28T08:02:29Z</time>
      </trkpt>
      <trkpt lat="37.7150370833" lon="-6.5795089211">
        <ele>445.71</ele>
        <time>2021-05-28T08:02:33Z</time>
      </trkpt>
      <trkpt lat="37.7149008773" lon="-6.5796166286">
        <ele>445.71</ele>
        <time>2021-05-28T08:02:34Z</time>
      </trkpt>
      <trkpt lat="37.7135806438" lon="-6.5806894284">
        <ele>448.59</ele>
        <time>2021-05-28T08:02:45Z</time>
      </trkpt>
      <trkpt lat="37.7130385861" lon="-6.5811528638">
        <ele>450.52</ele>
        <time>2021-05-28T08:02:50Z</time>
      </trkpt>
      <trkpt lat="37.7128400188" lon="-6.5813822765">
        <ele>451.96</ele>
        <time>2021-05-28T08:02:52Z</time>
      </trkpt>
      <trkpt lat="37.7127557807" lon="-6.5815173090">
        <ele>452.44</ele>
        <time>2021-05-28T08:02:53Z</time>
      </trkpt>
      <trkpt lat="37.7126797568" lon="-6.5816618968">
        <ele>452.44</ele>
        <time>2021-05-28T08:02:54Z</time>
      </trkpt>
      <trkpt lat="37.7126174793" lon="-6.5818158723">
        <ele>452.92</ele>
        <time>2021-05-28T08:02:55Z</time>
      </trkpt>
      <trkpt lat="37.7125688642" lon="-6.5819746256">
        <ele>454.36</ele>
        <time>2021-05-28T08:02:56Z</time>
      </trkpt>
      <trkpt lat="37.7125338279" lon="-6.5821301099">
        <ele>454.36</ele>
        <time>2021-05-28T08:02:57Z</time>
      </trkpt>
      <trkpt lat="37.7125119511" lon="-6.5822777990">
        <ele>453.40</ele>
        <time>2021-05-28T08:02:58Z</time>
      </trkpt>
      <trkpt lat="37.7124971990" lon="-6.5824201237">
        <ele>452.92</ele>
        <time>2021-05-28T08:02:59Z</time>
      </trkpt>
      <trkpt lat="37.7124895714" lon="-6.5825626999">
        <ele>454.36</ele>
        <time>2021-05-28T08:03:00Z</time>
      </trkpt>
      <trkpt lat="37.7126365900" lon="-6.5837328136">
        <ele>454.36</ele>
        <time>2021-05-28T08:03:07Z</time>
      </trkpt>
      <trkpt lat="37.7128270268" lon="-6.5851226170">
        <ele>454.36</ele>
        <time>2021-05-28T08:03:15Z</time>
      </trkpt>
      <trkpt lat="37.7128164656" lon="-6.5860971808">
        <ele>455.32</ele>
        <time>2021-05-28T08:03:20Z</time>
      </trkpt>
      <trkpt lat="37.7127801720" lon="-6.5862820018">
        <ele>454.36</ele>
        <time>2021-05-28T08:03:21Z</time>
      </trkpt>
      <trkpt lat="37.7125553694" lon="-6.5869937092">
        <ele>450.52</ele>
        <time>2021-05-28T08:03:25Z</time>
      </trkpt>
      <trkpt lat="37.7123916708" lon="-6.5873265546">
        <ele>449.55</ele>
        <time>2021-05-28T08:03:27Z</time>
      </trkpt>
      <trkpt lat="37.7119313367" lon="-6.5882305428">
        <ele>447.15</ele>
        <time>2021-05-28T08:03:32Z</time>
      </trkpt>
      <trkpt lat="37.7116471063" lon="-6.5887648053">
        <ele>443.31</ele>
        <time>2021-05-28T08:03:35Z</time>
      </trkpt>
      <trkpt lat="37.7115570847" lon="-6.5889334492">
        <ele>443.31</ele>
        <time>2021-05-28T08:03:36Z</time>
      </trkpt>
      <trkpt lat="37.7113828249" lon="-6.5892460942">
        <ele>440.42</ele>
        <time>2021-05-28T08:03:38Z</time>
      </trkpt>
      <trkpt lat="37.7109425236" lon="-6.5898570511">
        <ele>439.94</ele>
        <time>2021-05-28T08:03:43Z</time>
      </trkpt>
      <trkpt lat="37.7099593263" lon="-6.5905308723">
        <ele>436.58</ele>
        <time>2021-05-28T08:03:51Z</time>
      </trkpt>
      <trkpt lat="37.7098504454" lon="-6.5906041302">
        <ele>436.58</ele>
        <time>2021-05-28T08:03:52Z</time>
      </trkpt>
      <trkpt lat="37.7096229605" lon="-6.5907912143">
        <ele>438.02</ele>
        <time>2021-05-28T08:03:54Z</time>
      </trkpt>
      <trkpt lat="37.7095072065" lon="-6.5909119975">
        <ele>438.50</ele>
        <time>2021-05-28T08:03:55Z</time>
      </trkpt>
      <trkpt lat="37.7093939669" lon="-6.5910504665">
        <ele>438.50</ele>
        <time>2021-05-28T08:03:56Z</time>
      </trkpt>
      <trkpt lat="37.7092834935" lon="-6.5911999159">
        <ele>438.50</ele>
        <time>2021-05-28T08:03:57Z</time>
      </trkpt>
      <trkpt lat="37.7091757022" lon="-6.5913617704">
        <ele>438.98</ele>
        <time>2021-05-28T08:03:58Z</time>
      </trkpt>
      <trkpt lat="37.7081793454" lon="-6.5928679984">
        <ele>438.02</ele>
        <time>2021-05-28T08:04:08Z</time>
      </trkpt>
      <trkpt lat="37.7080568857" lon="-6.5929862671">
        <ele>438.98</ele>
        <time>2021-05-28T08:04:09Z</time>
      </trkpt>
      <trkpt lat="37.7079238649" lon="-6.5930953156">
        <ele>438.98</ele>
        <time>2021-05-28T08:04:10Z</time>
      </trkpt>
      <trkpt lat="37.7077835519" lon="-6.5931943059">
        <ele>440.42</ele>
        <time>2021-05-28T08:04:11Z</time>
      </trkpt>
      <trkpt lat="37.7076336835" lon="-6.5932783764">
        <ele>440.42</ele>
        <time>2021-05-28T08:04:12Z</time>
      </trkpt>
      <trkpt lat="37.7074828092" lon="-6.5933497902">
        <ele>440.90</ele>
        <time>2021-05-28T08:04:13Z</time>
      </trkpt>
      <trkpt lat="37.7073298395" lon="-6.5934057813">
        <ele>440.90</ele>
        <time>2021-05-28T08:04:14Z</time>
      </trkpt>
      <trkpt lat="37.7071769536" lon="-6.5934497863">
        <ele>440.42</ele>
        <time>2021-05-28T08:04:15Z</time>
      </trkpt>
      <trkpt lat="37.7070259117" lon="-6.5934844036">
        <ele>440.42</ele>
        <time>2021-05-28T08:04:16Z</time>
      </trkpt>
      <trkpt lat="37.7068723552" lon="-6.5935069509">
        <ele>440.42</ele>
        <time>2021-05-28T08:04:17Z</time>
      </trkpt>
      <trkpt lat="37.7067162003" lon="-6.5935167577">
        <ele>440.42</ele>
        <time>2021-05-28T08:04:18Z</time>
      </trkpt>
      <trkpt lat="37.7065549325" lon="-6.5935129859">
        <ele>439.94</ele>
        <time>2021-05-28T08:04:19Z</time>
      </trkpt>
      <trkpt lat="37.7063898090" lon="-6.5934935398">
        <ele>439.94</ele>
        <time>2021-05-28T08:04:20Z</time>
      </trkpt>
      <trkpt lat="37.7062282898" lon="-6.5934630297">
        <ele>439.46</ele>
        <time>2021-05-28T08:04:21Z</time>
      </trkpt>
      <trkpt lat="37.7057523653" lon="-6.5933553223">
        <ele>435.61</ele>
        <time>2021-05-28T08:04:24Z</time>
      </trkpt>
      <trkpt lat="37.7052461822" lon="-6.5932691563">
        <ele>432.25</ele>
        <time>2021-05-28T08:04:27Z</time>
      </trkpt>
      <trkpt lat="37.7035556361" lon="-6.5931031946">
        <ele>428.89</ele>
        <time>2021-05-28T08:04:36Z</time>
      </trkpt>
      <trkpt lat="37.7026171982" lon="-6.5930373129">
        <ele>426.96</ele>
        <time>2021-05-28T08:04:41Z</time>
      </trkpt>
      <trkpt lat="37.7020836063" lon="-6.5930567589">
        <ele>428.89</ele>
        <time>2021-05-28T08:04:44Z</time>
      </trkpt>
      <trkpt lat="37.7011960465" lon="-6.5931984130">
        <ele>433.21</ele>
        <time>2021-05-28T08:04:49Z</time>
      </trkpt>
      <trkpt lat="37.7010258101" lon="-6.5932270791">
        <ele>433.69</ele>
        <time>2021-05-28T08:04:50Z</time>
      </trkpt>
      <trkpt lat="37.7003959939" lon="-6.5933139995">
        <ele>437.06</ele>
        <time>2021-05-28T08:04:54Z</time>
      </trkpt>
      <trkpt lat="37.7000746317" lon="-6.5933419112">
        <ele>440.42</ele>
        <time>2021-05-28T08:04:56Z</time>
      </trkpt>
      <trkpt lat="37.6999181416" lon="-6.5933497064">
        <ele>439.94</ele>
        <time>2021-05-28T08:04:57Z</time>
      </trkpt>
      <trkpt lat="37.6989944559" lon="-6.5933746006">
        <ele>436.10</ele>
        <time>2021-05-28T08:05:04Z</time>
      </trkpt>
      <trkpt lat="37.6988918614" lon="-6.5933871735">
        <ele>436.58</ele>
        <time>2021-05-28T08:05:05Z</time>
      </trkpt>
      <trkpt lat="37.6986412425" lon="-6.5934536420">
        <ele>433.21</ele>
        <time>2021-05-28T08:05:08Z</time>
      </trkpt>
      <trkpt lat="37.6984922122" lon="-6.5935320966">
        <ele>431.77</ele>
        <time>2021-05-28T08:05:10Z</time>
      </trkpt>
      <trkpt lat="37.6982807368" lon="-6.5936681349">
        <ele>430.33</ele>
        <time>2021-05-28T08:05:13Z</time>
      </trkpt>
      <trkpt lat="37.6981495600" lon="-6.5937748365">
        <ele>429.85</ele>
        <time>2021-05-28T08:05:15Z</time>
      </trkpt>
      <trkpt lat="37.6980791520" lon="-6.5938588232">
        <ele>430.33</ele>
        <time>2021-05-28T08:05:16Z</time>
      </trkpt>
      <trkpt lat="37.6977901440" lon="-6.5943218395">
        <ele>428.89</ele>
        <time>2021-05-28T08:05:20Z</time>
      </trkpt>
      <trkpt lat="37.6977339853" lon="-6.5944560338">
        <ele>428.89</ele>
        <time>2021-05-28T08:05:21Z</time>
      </trkpt>
      <trkpt lat="37.6976872981" lon="-6.5945836063">
        <ele>427.92</ele>
        <time>2021-05-28T08:05:22Z</time>
      </trkpt>
      <trkpt lat="37.6972852182" lon="-6.5957417339">
        <ele>426.00</ele>
        <time>2021-05-28T08:05:32Z</time>
      </trkpt>
      <trkpt lat="37.6967719942" lon="-6.5968267713">
        <ele>426.00</ele>
        <time>2021-05-28T08:05:43Z</time>
      </trkpt>
      <trkpt lat="37.6962481253" lon="-6.5978590865">
        <ele>425.04</ele>
        <time>2021-05-28T08:05:52Z</time>
      </trkpt>
      <trkpt lat="37.6961624622" lon="-6.5980886668">
        <ele>424.56</ele>
        <time>2021-05-28T08:05:54Z</time>
      </trkpt>
      <trkpt lat="37.6958953310" lon="-6.5991247538">
        <ele>424.56</ele>
        <time>2021-05-28T08:06:04Z</time>
      </trkpt>
      <trkpt lat="37.6956253499" lon="-6.6002222802">
        <ele>426.48</ele>
        <time>2021-05-28T08:06:15Z</time>
      </trkpt>
      <trkpt lat="37.6952693705" lon="-6.6016431805">
        <ele>428.40</ele>
        <time>2021-05-28T08:06:26Z</time>
      </trkpt>
      <trkpt lat="37.6951650996" lon="-6.6020591743">
        <ele>429.85</ele>
        <time>2021-05-28T08:06:29Z</time>
      </trkpt>
      <trkpt lat="37.6949813683" lon="-6.6027846280">
        <ele>433.21</ele>
        <time>2021-05-28T08:06:34Z</time>
      </trkpt>
      <trkpt lat="37.6949363574" lon="-6.6029469017">
        <ele>433.21</ele>
        <time>2021-05-28T08:06:35Z</time>
      </trkpt>
      <trkpt lat="37.6948252134" lon="-6.6032649111">
        <ele>433.21</ele>
        <time>2021-05-28T08:06:37Z</time>
      </trkpt>
      <trkpt lat="37.6947507821" lon="-6.6034141928">
        <ele>433.21</ele>
        <time>2021-05-28T08:06:38Z</time>
      </trkpt>
      <trkpt lat="37.6946615987" lon="-6.6035632230">
        <ele>434.17</ele>
        <time>2021-05-28T08:06:39Z</time>
      </trkpt>
      <trkpt lat="37.6945566572" lon="-6.6037063021">
        <ele>436.10</ele>
        <time>2021-05-28T08:06:40Z</time>
      </trkpt>
      <trkpt lat="37.6944355387" lon="-6.6038418375">
        <ele>436.58</ele>
        <time>2021-05-28T08:06:41Z</time>
      </trkpt>
      <trkpt lat="37.6942997519" lon="-6.6039677337">
        <ele>437.06</ele>
        <time>2021-05-28T08:06:42Z</time>
      </trkpt>
      <trkpt lat="37.6941522304" lon="-6.6040849965">
        <ele>436.58</ele>
        <time>2021-05-28T08:06:43Z</time>
      </trkpt>
      <trkpt lat="37.6934342366" lon="-6.6046634316">
        <ele>434.17</ele>
        <time>2021-05-28T08:06:48Z</time>
      </trkpt>
      <trkpt lat="37.6933216676" lon="-6.6048161499">
        <ele>434.65</ele>
        <time>2021-05-28T08:06:49Z</time>
      </trkpt>
      <trkpt lat="37.6932229288" lon="-6.6049913317">
        <ele>436.10</ele>
        <time>2021-05-28T08:06:50Z</time>
      </trkpt>
      <trkpt lat="37.6931415405" lon="-6.6051819362">
        <ele>437.06</ele>
        <time>2021-05-28T08:06:51Z</time>
      </trkpt>
      <trkpt lat="37.6930770837" lon="-6.6053757258">
        <ele>438.50</ele>
        <time>2021-05-28T08:06:52Z</time>
      </trkpt>
      <trkpt lat="37.6930222660" lon="-6.6055659950">
        <ele>438.98</ele>
        <time>2021-05-28T08:06:53Z</time>
      </trkpt>
      <trkpt lat="37.6929804403" lon="-6.6057560127">
        <ele>439.46</ele>
        <time>2021-05-28T08:06:54Z</time>
      </trkpt>
      <trkpt lat="37.6929506008" lon="-6.6059447732">
        <ele>440.90</ele>
        <time>2021-05-28T08:06:55Z</time>
      </trkpt>
      <trkpt lat="37.6929320768" lon="-6.6061344557">
        <ele>441.86</ele>
        <time>2021-05-28T08:06:56Z</time>
      </trkpt>
      <trkpt lat="37.6929267123" lon="-6.6063270718">
        <ele>443.31</ele>
        <time>2021-05-28T08:06:57Z</time>
      </trkpt>
      <trkpt lat="37.6929359324" lon="-6.6065207776">
        <ele>444.75</ele>
        <time>2021-05-28T08:06:58Z</time>
      </trkpt>
      <trkpt lat="37.6929506846" lon="-6.6067122202">
        <ele>445.23</ele>
        <time>2021-05-28T08:06:59Z</time>
      </trkpt>
      <trkpt lat="37.6930022333" lon="-6.6073168907">
        <ele>447.63</ele>
        <time>2021-05-28T08:07:02Z</time>
      </trkpt>
      <trkpt lat="37.6932235155" lon="-6.6092122067">
        <ele>445.23</ele>
        <time>2021-05-28T08:07:12Z</time>
      </trkpt>
      <trkpt lat="37.6936492324" lon="-6.6103463620">
        <ele>444.27</ele>
        <time>2021-05-28T08:07:18Z</time>
      </trkpt>
      <trkpt lat="37.6939072274" lon="-6.6121068131">
        <ele>447.15</ele>
        <time>2021-05-28T08:07:26Z</time>
      </trkpt>
      <trkpt lat="37.6939236559" lon="-6.6130673792">
        <ele>449.07</ele>
        <time>2021-05-28T08:07:30Z</time>
      </trkpt>
      <trkpt lat="37.6936494838" lon="-6.6151046008">
        <ele>447.63</ele>
        <time>2021-05-28T08:07:38Z</time>
      </trkpt>
      <trkpt lat="37.6932804286" lon="-6.6182393488">
        <ele>445.71</ele>
        <time>2021-05-28T08:07:50Z</time>
      </trkpt>
      <trkpt lat="37.6931299735" lon="-6.6195277311">
        <ele>450.52</ele>
        <time>2021-05-28T08:07:55Z</time>
      </trkpt>
      <trkpt lat="37.6930142194" lon="-6.6205535084">
        <ele>454.36</ele>
        <time>2021-05-28T08:07:59Z</time>
      </trkpt>
      <trkpt lat="37.6929790154" lon="-6.6207980085">
        <ele>454.36</ele>
        <time>2021-05-28T08:08:00Z</time>
      </trkpt>
      <trkpt lat="37.6929301489" lon="-6.6210362222">
        <ele>453.40</ele>
        <time>2021-05-28T08:08:01Z</time>
      </trkpt>
      <trkpt lat="37.6928570587" lon="-6.6212637071">
        <ele>452.92</ele>
        <time>2021-05-28T08:08:02Z</time>
      </trkpt>
      <trkpt lat="37.6927638520" lon="-6.6214769427">
        <ele>453.88</ele>
        <time>2021-05-28T08:08:03Z</time>
      </trkpt>
      <trkpt lat="37.6923406497" lon="-6.6223115288">
        <ele>457.24</ele>
        <time>2021-05-28T08:08:07Z</time>
      </trkpt>
      <trkpt lat="37.6922634523" lon="-6.6225319728">
        <ele>457.24</ele>
        <time>2021-05-28T08:08:08Z</time>
      </trkpt>
      <trkpt lat="37.6922102273" lon="-6.6227633134">
        <ele>457.24</ele>
        <time>2021-05-28T08:08:09Z</time>
      </trkpt>
      <trkpt lat="37.6921768673" lon="-6.6230005212">
        <ele>458.21</ele>
        <time>2021-05-28T08:08:10Z</time>
      </trkpt>
      <trkpt lat="37.6921545714" lon="-6.6232358851">
        <ele>458.21</ele>
        <time>2021-05-28T08:08:11Z</time>
      </trkpt>
      <trkpt lat="37.6921232231" lon="-6.6241763346">
        <ele>454.84</ele>
        <time>2021-05-28T08:08:15Z</time>
      </trkpt>
      <trkpt lat="37.6920606941" lon="-6.6248861980">
        <ele>452.92</ele>
        <time>2021-05-28T08:08:18Z</time>
      </trkpt>
      <trkpt lat="37.6920134202" lon="-6.6251172870">
        <ele>451.00</ele>
        <time>2021-05-28T08:08:19Z</time>
      </trkpt>
      <trkpt lat="37.6919485442" lon="-6.6253378987">
        <ele>449.55</ele>
        <time>2021-05-28T08:08:20Z</time>
      </trkpt>
      <trkpt lat="37.6917362306" lon="-6.6259886697">
        <ele>445.71</ele>
        <time>2021-05-28T08:08:23Z</time>
      </trkpt>
      <trkpt lat="37.6915079914" lon="-6.6268952563">
        <ele>441.86</ele>
        <time>2021-05-28T08:08:27Z</time>
      </trkpt>
      <trkpt lat="37.6912898105" lon="-6.6278606839">
        <ele>438.50</ele>
        <time>2021-05-28T08:08:31Z</time>
      </trkpt>
      <trkpt lat="37.6911622379" lon="-6.6285345890">
        <ele>434.17</ele>
        <time>2021-05-28T08:08:34Z</time>
      </trkpt>
      <trkpt lat="37.6911482401" lon="-6.6287506744">
        <ele>432.73</ele>
        <time>2021-05-28T08:08:35Z</time>
      </trkpt>
      <trkpt lat="37.6911563706" lon="-6.6289688554">
        <ele>432.25</ele>
        <time>2021-05-28T08:08:36Z</time>
      </trkpt>
      <trkpt lat="37.6911898982" lon="-6.6291850246">
        <ele>431.29</ele>
        <time>2021-05-28T08:08:37Z</time>
      </trkpt>
      <trkpt lat="37.6912472304" lon="-6.6293882020">
        <ele>430.81</ele>
        <time>2021-05-28T08:08:38Z</time>
      </trkpt>
      <trkpt lat="37.6913245115" lon="-6.6295755375">
        <ele>429.85</ele>
        <time>2021-05-28T08:08:39Z</time>
      </trkpt>
      <trkpt lat="37.6914201491" lon="-6.6297527310">
        <ele>430.81</ele>
        <time>2021-05-28T08:08:40Z</time>
      </trkpt>
      <trkpt lat="37.6915257610" lon="-6.6299124062">
        <ele>429.37</ele>
        <time>2021-05-28T08:08:41Z</time>
      </trkpt>
      <trkpt lat="37.6916265953" lon="-6.6300600953">
        <ele>429.37</ele>
        <time>2021-05-28T08:08:42Z</time>
      </trkpt>
      <trkpt lat="37.6917146053" lon="-6.6302066948">
        <ele>428.40</ele>
        <time>2021-05-28T08:08:43Z</time>
      </trkpt>
      <trkpt lat="37.6917861030" lon="-6.6303521208">
        <ele>426.96</ele>
        <time>2021-05-28T08:08:44Z</time>
      </trkpt>
      <trkpt lat="37.6918395795" lon="-6.6304971278">
        <ele>426.00</ele>
        <time>2021-05-28T08:08:45Z</time>
      </trkpt>
      <trkpt lat="37.6918757055" lon="-6.6306381952">
        <ele>425.04</ele>
        <time>2021-05-28T08:08:46Z</time>
      </trkpt>
      <trkpt lat="37.6918965764" lon="-6.6307735629">
        <ele>423.60</ele>
        <time>2021-05-28T08:08:47Z</time>
      </trkpt>
      <trkpt lat="37.6919044554" lon="-6.6309049912">
        <ele>423.12</ele>
        <time>2021-05-28T08:08:48Z</time>
      </trkpt>
      <trkpt lat="37.6919037011" lon="-6.6310352460">
        <ele>423.12</ele>
        <time>2021-05-28T08:08:49Z</time>
      </trkpt>
      <trkpt lat="37.6918957382" lon="-6.6311678477">
        <ele>423.12</ele>
        <time>2021-05-28T08:08:50Z</time>
      </trkpt>
      <trkpt lat="37.6917328779" lon="-6.6330318153">
        <ele>425.52</ele>
        <time>2021-05-28T08:09:03Z</time>
      </trkpt>
      <trkpt lat="37.6915656589" lon="-6.6349914204">
        <ele>424.08</ele>
        <time>2021-05-28T08:09:16Z</time>
      </trkpt>
      <trkpt lat="37.6914397627" lon="-6.6370009817">
        <ele>422.16</ele>
        <time>2021-05-28T08:09:26Z</time>
      </trkpt>
      <trkpt lat="37.6914846897" lon="-6.6372180730">
        <ele>422.16</ele>
        <time>2021-05-28T08:09:27Z</time>
      </trkpt>
      <trkpt lat="37.6915542595" lon="-6.6374324821">
        <ele>422.16</ele>
        <time>2021-05-28T08:09:28Z</time>
      </trkpt>
      <trkpt lat="37.6916420180" lon="-6.6376427002">
        <ele>422.64</ele>
        <time>2021-05-28T08:09:29Z</time>
      </trkpt>
      <trkpt lat="37.6917383261" lon="-6.6378467157">
        <ele>423.12</ele>
        <time>2021-05-28T08:09:30Z</time>
      </trkpt>
      <trkpt lat="37.6920407452" lon="-6.6386010870">
        <ele>421.68</ele>
        <time>2021-05-28T08:09:34Z</time>
      </trkpt>
      <trkpt lat="37.6920766197" lon="-6.6387857404">
        <ele>421.68</ele>
        <time>2021-05-28T08:09:35Z</time>
      </trkpt>
      <trkpt lat="37.6920940541" lon="-6.6389694717">
        <ele>422.16</ele>
        <time>2021-05-28T08:09:36Z</time>
      </trkpt>
      <trkpt lat="37.6920968201" lon="-6.6391599085">
        <ele>422.16</ele>
        <time>2021-05-28T08:09:37Z</time>
      </trkpt>
      <trkpt lat="37.6920869295" lon="-6.6393589787">
        <ele>422.16</ele>
        <time>2021-05-28T08:09:38Z</time>
      </trkpt>
      <trkpt lat="37.6920668967" lon="-6.6395720467">
        <ele>423.12</ele>
        <time>2021-05-28T08:09:39Z</time>
      </trkpt>
      <trkpt lat="37.6919788029" lon="-6.6404678207">
        <ele>419.27</ele>
        <time>2021-05-28T08:09:43Z</time>
      </trkpt>
      <trkpt lat="37.6919566747" lon="-6.6406911984">
        <ele>418.79</ele>
        <time>2021-05-28T08:09:44Z</time>
      </trkpt>
      <trkpt lat="37.6918812376" lon="-6.6414059233">
        <ele>416.87</ele>
        <time>2021-05-28T08:09:47Z</time>
      </trkpt>
      <trkpt lat="37.6918011904" lon="-6.6421782319">
        <ele>413.50</ele>
        <time>2021-05-28T08:09:50Z</time>
      </trkpt>
      <trkpt lat="37.6917220652" lon="-6.6429548990">
        <ele>410.62</ele>
        <time>2021-05-28T08:09:53Z</time>
      </trkpt>
      <trkpt lat="37.6916723605" lon="-6.6437042411">
        <ele>406.29</ele>
        <time>2021-05-28T08:09:56Z</time>
      </trkpt>
      <trkpt lat="37.6916814130" lon="-6.6439622361">
        <ele>405.81</ele>
        <time>2021-05-28T08:09:57Z</time>
      </trkpt>
      <trkpt lat="37.6917087380" lon="-6.6442254279">
        <ele>406.29</ele>
        <time>2021-05-28T08:09:58Z</time>
      </trkpt>
      <trkpt lat="37.6917836722" lon="-6.6447406635">
        <ele>402.93</ele>
        <time>2021-05-28T08:10:00Z</time>
      </trkpt>
      <trkpt lat="37.6918529905" lon="-6.6457801033">
        <ele>399.08</ele>
        <time>2021-05-28T08:10:04Z</time>
      </trkpt>
      <trkpt lat="37.6918653119" lon="-6.6465711873">
        <ele>393.80</ele>
        <time>2021-05-28T08:10:07Z</time>
      </trkpt>
      <trkpt lat="37.6918643899" lon="-6.6470792983">
        <ele>389.95</ele>
        <time>2021-05-28T08:10:09Z</time>
      </trkpt>
      <trkpt lat="37.6918467879" lon="-6.6473315097">
        <ele>389.95</ele>
        <time>2021-05-28T08:10:10Z</time>
      </trkpt>
      <trkpt lat="37.6918082312" lon="-6.6475773510">
        <ele>387.55</ele>
        <time>2021-05-28T08:10:11Z</time>
      </trkpt>
      <trkpt lat="37.6917428523" lon="-6.6478167381">
        <ele>386.11</ele>
        <time>2021-05-28T08:10:12Z</time>
      </trkpt>
      <trkpt lat="37.6916526631" lon="-6.6480486654">
        <ele>385.63</ele>
        <time>2021-05-28T08:10:13Z</time>
      </trkpt>
      <trkpt lat="37.6915408485" lon="-6.6482685227">
        <ele>384.66</ele>
        <time>2021-05-28T08:10:14Z</time>
      </trkpt>
      <trkpt lat="37.6914125215" lon="-6.6484724544">
        <ele>383.70</ele>
        <time>2021-05-28T08:10:15Z</time>
      </trkpt>
      <trkpt lat="37.6912787464" lon="-6.6486652382">
        <ele>382.26</ele>
        <time>2021-05-28T08:10:16Z</time>
      </trkpt>
      <trkpt lat="37.6911507547" lon="-6.6488575190">
        <ele>382.74</ele>
        <time>2021-05-28T08:10:17Z</time>
      </trkpt>
      <trkpt lat="37.6910375990" lon="-6.6490550805">
        <ele>380.82</ele>
        <time>2021-05-28T08:10:18Z</time>
      </trkpt>
      <trkpt lat="37.6909413747" lon="-6.6492630355">
        <ele>380.82</ele>
        <time>2021-05-28T08:10:19Z</time>
      </trkpt>
      <trkpt lat="37.6908587292" lon="-6.6494761873">
        <ele>380.34</ele>
        <time>2021-05-28T08:10:20Z</time>
      </trkpt>
      <trkpt lat="37.6907207631" lon="-6.6498817876">
        <ele>377.45</ele>
        <time>2021-05-28T08:10:22Z</time>
      </trkpt>
      <trkpt lat="37.6906050090" lon="-6.6502383538">
        <ele>374.09</ele>
        <time>2021-05-28T08:10:24Z</time>
      </trkpt>
      <trkpt lat="37.6904264744" lon="-6.6507985163">
        <ele>371.21</ele>
        <time>2021-05-28T08:10:28Z</time>
      </trkpt>
      <trkpt lat="37.6902382169" lon="-6.6513861716">
        <ele>367.36</ele>
        <time>2021-05-28T08:10:34Z</time>
      </trkpt>
      <trkpt lat="37.6902209502" lon="-6.6514409054">
        <ele>367.36</ele>
        <time>2021-05-28T08:10:35Z</time>
      </trkpt>
      <trkpt lat="37.6901365444" lon="-6.6517579090">
        <ele>366.40</ele>
        <time>2021-05-28T08:10:46Z</time>
      </trkpt>
      <trkpt lat="37.6900972333" lon="-6.6518887505">
        <ele>367.36</ele>
        <time>2021-05-28T08:10:51Z</time>
      </trkpt>
      <trkpt lat="37.6900675613" lon="-6.6519424785">
        <ele>366.88</ele>
        <time>2021-05-28T08:10:52Z</time>
      </trkpt>
      <trkpt lat="37.6900118217" lon="-6.6520020738">
        <ele>366.88</ele>
        <time>2021-05-28T08:10:53Z</time>
      </trkpt>
      <trkpt lat="37.6899357140" lon="-6.6520624235">
        <ele>366.88</ele>
        <time>2021-05-28T08:10:54Z</time>
      </trkpt>
      <trkpt lat="37.6898383163" lon="-6.6521215998">
        <ele>367.36</ele>
        <time>2021-05-28T08:10:55Z</time>
      </trkpt>
      <trkpt lat="37.6894765534" lon="-6.6523938440">
        <ele>367.84</ele>
        <time>2021-05-28T08:10:58Z</time>
      </trkpt>
      <trkpt lat="37.6893639844" lon="-6.6525295470">
        <ele>368.32</ele>
        <time>2021-05-28T08:10:59Z</time>
      </trkpt>
      <trkpt lat="37.6892666705" lon="-6.6526939999">
        <ele>370.24</ele>
        <time>2021-05-28T08:11:00Z</time>
      </trkpt>
      <trkpt lat="37.6891917363" lon="-6.6528777312">
        <ele>369.76</ele>
        <time>2021-05-28T08:11:01Z</time>
      </trkpt>
      <trkpt lat="37.6891375054" lon="-6.6530721914">
        <ele>370.73</ele>
        <time>2021-05-28T08:11:02Z</time>
      </trkpt>
      <trkpt lat="37.6890946738" lon="-6.6532745305">
        <ele>371.21</ele>
        <time>2021-05-28T08:11:03Z</time>
      </trkpt>
      <trkpt lat="37.6890279539" lon="-6.6536757722">
        <ele>372.17</ele>
        <time>2021-05-28T08:11:05Z</time>
      </trkpt>
      <trkpt lat="37.6888400316" lon="-6.6546691116">
        <ele>375.53</ele>
        <time>2021-05-28T08:11:10Z</time>
      </trkpt>
      <trkpt lat="37.6887638401" lon="-6.6548566148">
        <ele>376.49</ele>
        <time>2021-05-28T08:11:11Z</time>
      </trkpt>
      <trkpt lat="37.6886654366" lon="-6.6550233308">
        <ele>378.42</ele>
        <time>2021-05-28T08:11:12Z</time>
      </trkpt>
      <trkpt lat="37.6885481738" lon="-6.6551555973">
        <ele>379.38</ele>
        <time>2021-05-28T08:11:13Z</time>
      </trkpt>
      <trkpt lat="37.6884112973" lon="-6.6552443616">
        <ele>379.86</ele>
        <time>2021-05-28T08:11:14Z</time>
      </trkpt>
      <trkpt lat="37.6882531308" lon="-6.6552971676">
        <ele>382.74</ele>
        <time>2021-05-28T08:11:15Z</time>
      </trkpt>
      <trkpt lat="37.6880752668" lon="-6.6553225648">
        <ele>384.66</ele>
        <time>2021-05-28T08:11:16Z</time>
      </trkpt>
      <trkpt lat="37.6878818125" lon="-6.6553403344">
        <ele>385.63</ele>
        <time>2021-05-28T08:11:17Z</time>
      </trkpt>
      <trkpt lat="37.6874898747" lon="-6.6553726047">
        <ele>387.55</ele>
        <time>2021-05-28T08:11:19Z</time>
      </trkpt>
      <trkpt lat="37.6870958414" lon="-6.6554044560">
        <ele>390.43</ele>
        <time>2021-05-28T08:11:21Z</time>
      </trkpt>
      <trkpt lat="37.6850232482" lon="-6.6555536538">
        <ele>391.39</ele>
        <time>2021-05-28T08:11:32Z</time>
      </trkpt>
      <trkpt lat="37.6848729607" lon="-6.6555078048">
        <ele>392.84</ele>
        <time>2021-05-28T08:11:33Z</time>
      </trkpt>
      <trkpt lat="37.6847364195" lon="-6.6554181185">
        <ele>391.87</ele>
        <time>2021-05-28T08:11:34Z</time>
      </trkpt>
      <trkpt lat="37.6846087631" lon="-6.6552842595">
        <ele>393.32</ele>
        <time>2021-05-28T08:11:35Z</time>
      </trkpt>
      <trkpt lat="37.6844872255" lon="-6.6551139392">
        <ele>393.80</ele>
        <time>2021-05-28T08:11:36Z</time>
      </trkpt>
      <trkpt lat="37.6843702979" lon="-6.6549216583">
        <ele>394.28</ele>
        <time>2021-05-28T08:11:37Z</time>
      </trkpt>
      <trkpt lat="37.6842583995" lon="-6.6547156312">
        <ele>394.76</ele>
        <time>2021-05-28T08:11:38Z</time>
      </trkpt>
      <trkpt lat="37.6839281525" lon="-6.6541589051">
        <ele>392.84</ele>
        <time>2021-05-28T08:11:41Z</time>
      </trkpt>
      <trkpt lat="37.6837883424" lon="-6.6540064383">
        <ele>392.36</ele>
        <time>2021-05-28T08:11:42Z</time>
      </trkpt>
      <trkpt lat="37.6836288348" lon="-6.6538801230">
        <ele>392.84</ele>
        <time>2021-05-28T08:11:43Z</time>
      </trkpt>
      <trkpt lat="37.6834513061" lon="-6.6537770256">
        <ele>393.32</ele>
        <time>2021-05-28T08:11:44Z</time>
      </trkpt>
      <trkpt lat="37.6832681615" lon="-6.6536994930">
        <ele>390.91</ele>
        <time>2021-05-28T08:11:45Z</time>
      </trkpt>
      <trkpt lat="37.6830814127" lon="-6.6536480282">
        <ele>389.95</ele>
        <time>2021-05-28T08:11:46Z</time>
      </trkpt>
      <trkpt lat="37.6828914788" lon="-6.6536158416">
        <ele>388.03</ele>
        <time>2021-05-28T08:11:47Z</time>
      </trkpt>
      <trkpt lat="37.6827040594" lon="-6.6535960604">
        <ele>386.59</ele>
        <time>2021-05-28T08:11:48Z</time>
      </trkpt>
      <trkpt lat="37.6823558751" lon="-6.6535840742">
        <ele>382.26</ele>
        <time>2021-05-28T08:11:50Z</time>
      </trkpt>
      <trkpt lat="37.6821966190" lon="-6.6536099743">
        <ele>380.82</ele>
        <time>2021-05-28T08:11:51Z</time>
      </trkpt>
      <trkpt lat="37.6820455771" lon="-6.6536668036">
        <ele>381.30</ele>
        <time>2021-05-28T08:11:52Z</time>
      </trkpt>
      <trkpt lat="37.6819072757" lon="-6.6537630279">
        <ele>381.30</ele>
        <time>2021-05-28T08:11:53Z</time>
      </trkpt>
      <trkpt lat="37.6817859896" lon="-6.6538931150">
        <ele>381.30</ele>
        <time>2021-05-28T08:11:54Z</time>
      </trkpt>
      <trkpt lat="37.6816839818" lon="-6.6540549695">
        <ele>381.78</ele>
        <time>2021-05-28T08:11:55Z</time>
      </trkpt>
      <trkpt lat="37.6816041861" lon="-6.6542440653">
        <ele>383.70</ele>
        <time>2021-05-28T08:11:56Z</time>
      </trkpt>
      <trkpt lat="37.6815413218" lon="-6.6544481646">
        <ele>384.66</ele>
        <time>2021-05-28T08:11:57Z</time>
      </trkpt>
      <trkpt lat="37.6814799663" lon="-6.6546445526">
        <ele>385.63</ele>
        <time>2021-05-28T08:11:58Z</time>
      </trkpt>
      <trkpt lat="37.6814115699" lon="-6.6548188124">
        <ele>385.63</ele>
        <time>2021-05-28T08:11:59Z</time>
      </trkpt>
      <trkpt lat="37.6813244820" lon="-6.6549577843">
        <ele>386.11</ele>
        <time>2021-05-28T08:12:00Z</time>
      </trkpt>
      <trkpt lat="37.6812160201" lon="-6.6550664976">
        <ele>387.55</ele>
        <time>2021-05-28T08:12:01Z</time>
      </trkpt>
      <trkpt lat="37.6810850948" lon="-6.6551449522">
        <ele>388.51</ele>
        <time>2021-05-28T08:12:02Z</time>
      </trkpt>
      <trkpt lat="37.6809386630" lon="-6.6552016139">
        <ele>389.47</ele>
        <time>2021-05-28T08:12:03Z</time>
      </trkpt>
      <trkpt lat="37.6807804126" lon="-6.6552389972">
        <ele>391.39</ele>
        <time>2021-05-28T08:12:04Z</time>
      </trkpt>
      <trkpt lat="37.6806157082" lon="-6.6552585270">
        <ele>393.80</ele>
        <time>2021-05-28T08:12:05Z</time>
      </trkpt>
      <trkpt lat="37.6804471482" lon="-6.6552621312">
        <ele>394.28</ele>
        <time>2021-05-28T08:12:06Z</time>
      </trkpt>
      <trkpt lat="37.6802840363" lon="-6.6552503128">
        <ele>394.28</ele>
        <time>2021-05-28T08:12:07Z</time>
      </trkpt>
      <trkpt lat="37.6801315695" lon="-6.6552163661">
        <ele>394.28</ele>
        <time>2021-05-28T08:12:08Z</time>
      </trkpt>
      <trkpt lat="37.6799933519" lon="-6.6551529989">
        <ele>395.24</ele>
        <time>2021-05-28T08:12:09Z</time>
      </trkpt>
      <trkpt lat="37.6798775140" lon="-6.6550471354">
        <ele>396.68</ele>
        <time>2021-05-28T08:12:10Z</time>
      </trkpt>
      <trkpt lat="37.6797807030" lon="-6.6549032182">
        <ele>398.60</ele>
        <time>2021-05-28T08:12:11Z</time>
      </trkpt>
      <trkpt lat="37.6797000691" lon="-6.6547290422">
        <ele>400.05</ele>
        <time>2021-05-28T08:12:12Z</time>
      </trkpt>
      <trkpt lat="37.6796330139" lon="-6.6545301396">
        <ele>400.05</ele>
        <time>2021-05-28T08:12:13Z</time>
      </trkpt>
      <trkpt lat="37.6795746759" lon="-6.6543189157">
        <ele>401.01</ele>
        <time>2021-05-28T08:12:14Z</time>
      </trkpt>
      <trkpt lat="37.6795192715" lon="-6.6541147325">
        <ele>401.49</ele>
        <time>2021-05-28T08:12:15Z</time>
      </trkpt>
      <trkpt lat="37.6792321075" lon="-6.6531258356">
        <ele>402.93</ele>
        <time>2021-05-28T08:12:21Z</time>
      </trkpt>
      <trkpt lat="37.6791821513" lon="-6.6529927310">
        <ele>403.41</ele>
        <time>2021-05-28T08:12:22Z</time>
      </trkpt>
      <trkpt lat="37.6791239809" lon="-6.6528743785">
        <ele>402.93</ele>
        <time>2021-05-28T08:12:23Z</time>
      </trkpt>
      <trkpt lat="37.6790516451" lon="-6.6527660005">
        <ele>403.41</ele>
        <time>2021-05-28T08:12:24Z</time>
      </trkpt>
      <trkpt lat="37.6789612044" lon="-6.6526746377">
        <ele>404.37</ele>
        <time>2021-05-28T08:12:25Z</time>
      </trkpt>
      <trkpt lat="37.6788510662" lon="-6.6526179761">
        <ele>404.85</ele>
        <time>2021-05-28T08:12:26Z</time>
      </trkpt>
      <trkpt lat="37.6787258405" lon="-6.6526041459">
        <ele>406.29</ele>
        <time>2021-05-28T08:12:27Z</time>
      </trkpt>
      <trkpt lat="37.6785900537" lon="-6.6526339855">
        <ele>407.26</ele>
        <time>2021-05-28T08:12:28Z</time>
      </trkpt>
      <trkpt lat="37.6784509979" lon="-6.6527000349">
        <ele>409.66</ele>
        <time>2021-05-28T08:12:29Z</time>
      </trkpt>
      <trkpt lat="37.6783240121" lon="-6.6528048087">
        <ele>410.62</ele>
        <time>2021-05-28T08:12:30Z</time>
      </trkpt>
      <trkpt lat="37.6782189868" lon="-6.6529503185">
        <ele>411.10</ele>
        <time>2021-05-28T08:12:31Z</time>
      </trkpt>
      <trkpt lat="37.6781361736" lon="-6.6531248298">
        <ele>413.50</ele>
        <time>2021-05-28T08:12:32Z</time>
      </trkpt>
      <trkpt lat="37.6780681126" lon="-6.6533097345">
        <ele>413.02</ele>
        <time>2021-05-28T08:12:33Z</time>
      </trkpt>
      <trkpt lat="37.6778392866" lon="-6.6538781952">
        <ele>416.39</ele>
        <time>2021-05-28T08:12:36Z</time>
      </trkpt>
      <trkpt lat="37.6773264818" lon="-6.6550717782">
        <ele>419.27</ele>
        <time>2021-05-28T08:12:43Z</time>
      </trkpt>
      <trkpt lat="37.6771267410" lon="-6.6554916278">
        <ele>421.19</ele>
        <time>2021-05-28T08:12:46Z</time>
      </trkpt>
      <trkpt lat="37.6768355537" lon="-6.6560018342">
        <ele>422.16</ele>
        <time>2021-05-28T08:12:53Z</time>
      </trkpt>
      <trkpt lat="37.6767197158" lon="-6.6561477631">
        <ele>422.64</ele>
        <time>2021-05-28T08:13:01Z</time>
      </trkpt>
      <trkpt lat="37.6767104119" lon="-6.6561731603">
        <ele>422.64</ele>
        <time>2021-05-28T08:13:20Z</time>
      </trkpt>
      <trkpt lat="37.6766882837" lon="-6.6562045086">
        <ele>423.60</ele>
        <time>2021-05-28T08:13:21Z</time>
      </trkpt>
      <trkpt lat="37.6766138524" lon="-6.6563034151">
        <ele>424.56</ele>
        <time>2021-05-28T08:13:23Z</time>
      </trkpt>
      <trkpt lat="37.6764706057" lon="-6.6565008089">
        <ele>425.04</ele>
        <time>2021-05-28T08:13:27Z</time>
      </trkpt>
      <trkpt lat="37.6764499024" lon="-6.6565552913">
        <ele>425.04</ele>
        <time>2021-05-28T08:13:28Z</time>
      </trkpt>
      <trkpt lat="37.6764432807" lon="-6.6566043254">
        <ele>424.56</ele>
        <time>2021-05-28T08:13:29Z</time>
      </trkpt>
      <trkpt lat="37.6764457114" lon="-6.6566502582">
        <ele>425.04</ele>
        <time>2021-05-28T08:13:30Z</time>
      </trkpt>
      <trkpt lat="37.6764484774" lon="-6.6567033157">
        <ele>425.04</ele>
        <time>2021-05-28T08:13:31Z</time>
      </trkpt>
      <trkpt lat="37.6764445379" lon="-6.6567716282">
        <ele>425.52</ele>
        <time>2021-05-28T08:13:32Z</time>
      </trkpt>
      <trkpt lat="37.6764317974" lon="-6.6568474006">
        <ele>426.00</ele>
        <time>2021-05-28T08:13:33Z</time>
      </trkpt>
      <trkpt lat="37.6764135249" lon="-6.6569251008">
        <ele>426.48</ele>
        <time>2021-05-28T08:13:34Z</time>
      </trkpt>
      <trkpt lat="37.6763570309" lon="-6.6571863648">
        <ele>427.92</ele>
        <time>2021-05-28T08:13:37Z</time>
      </trkpt>
      <trkpt lat="37.6762054022" lon="-6.6578973178">
        <ele>431.77</ele>
        <time>2021-05-28T08:13:44Z</time>
      </trkpt>
      <trkpt lat="37.6761558652" lon="-6.6581349447">
        <ele>432.73</ele>
        <time>2021-05-28T08:13:46Z</time>
      </trkpt>
      <trkpt lat="37.6759698708" lon="-6.6591786593">
        <ele>432.25</ele>
        <time>2021-05-28T08:13:56Z</time>
      </trkpt>
      <trkpt lat="37.6759603992" lon="-6.6592762247">
        <ele>432.73</ele>
        <time>2021-05-28T08:13:57Z</time>
      </trkpt>
      <trkpt lat="37.6759439707" lon="-6.6593766399">
        <ele>432.25</ele>
        <time>2021-05-28T08:13:58Z</time>
      </trkpt>
      <trkpt lat="37.6757992152" lon="-6.6600928735">
        <ele>435.13</ele>
        <time>2021-05-28T08:14:04Z</time>
      </trkpt>
      <trkpt lat="37.6756574772" lon="-6.6608111188">
        <ele>438.02</ele>
        <time>2021-05-28T08:14:10Z</time>
      </trkpt>
      <trkpt lat="37.6755799446" lon="-6.6611924954">
        <ele>440.90</ele>
        <time>2021-05-28T08:14:13Z</time>
      </trkpt>
      <trkpt lat="37.6755512785" lon="-6.6613281146">
        <ele>441.38</ele>
        <time>2021-05-28T08:14:14Z</time>
      </trkpt>
      <trkpt lat="37.6754755061" lon="-6.6615995206">
        <ele>442.82</ele>
        <time>2021-05-28T08:14:16Z</time>
      </trkpt>
      <trkpt lat="37.6750938781" lon="-6.6624335200">
        <ele>442.82</ele>
        <time>2021-05-28T08:14:23Z</time>
      </trkpt>
      <trkpt lat="37.6744001079" lon="-6.6638388298">
        <ele>444.75</ele>
        <time>2021-05-28T08:14:32Z</time>
      </trkpt>
      <trkpt lat="37.6742654108" lon="-6.6641917918">
        <ele>444.75</ele>
        <time>2021-05-28T08:14:34Z</time>
      </trkpt>
      <trkpt lat="37.6742270216" lon="-6.6643738467">
        <ele>444.75</ele>
        <time>2021-05-28T08:14:35Z</time>
      </trkpt>
      <trkpt lat="37.6742155384" lon="-6.6645549797">
        <ele>443.79</ele>
        <time>2021-05-28T08:14:36Z</time>
      </trkpt>
      <trkpt lat="37.6742322184" lon="-6.6647449974">
        <ele>443.79</ele>
        <time>2021-05-28T08:14:37Z</time>
      </trkpt>
      <trkpt lat="37.6742724515" lon="-6.6649477556">
        <ele>443.79</ele>
        <time>2021-05-28T08:14:38Z</time>
      </trkpt>
      <trkpt lat="37.6743283588" lon="-6.6651645117">
        <ele>444.27</ele>
        <time>2021-05-28T08:14:39Z</time>
      </trkpt>
      <trkpt lat="37.6743980963" lon="-6.6653912421">
        <ele>443.79</ele>
        <time>2021-05-28T08:14:40Z</time>
      </trkpt>
      <trkpt lat="37.6744761318" lon="-6.6656187270">
        <ele>443.79</ele>
        <time>2021-05-28T08:14:41Z</time>
      </trkpt>
      <trkpt lat="37.6746224798" lon="-6.6660593636">
        <ele>440.42</ele>
        <time>2021-05-28T08:14:43Z</time>
      </trkpt>
      <trkpt lat="37.6747451909" lon="-6.6664979048">
        <ele>439.46</ele>
        <time>2021-05-28T08:14:45Z</time>
      </trkpt>
      <trkpt lat="37.6749041956" lon="-6.6674640868">
        <ele>435.61</ele>
        <time>2021-05-28T08:14:49Z</time>
      </trkpt>
      <trkpt lat="37.6750375517" lon="-6.6684592701">
        <ele>432.73</ele>
        <time>2021-05-28T08:14:53Z</time>
      </trkpt>
      <trkpt lat="37.6751450915" lon="-6.6691953689">
        <ele>429.37</ele>
        <time>2021-05-28T08:14:56Z</time>
      </trkpt>
      <trkpt lat="37.6751961373" lon="-6.6694236081">
        <ele>428.40</ele>
        <time>2021-05-28T08:14:57Z</time>
      </trkpt>
      <trkpt lat="37.6752685569" lon="-6.6696460638">
        <ele>429.37</ele>
        <time>2021-05-28T08:14:58Z</time>
      </trkpt>
      <trkpt lat="37.6753597520" lon="-6.6698689386">
        <ele>428.40</ele>
        <time>2021-05-28T08:14:59Z</time>
      </trkpt>
      <trkpt lat="37.6759755705" lon="-6.6711950395">
        <ele>424.56</ele>
        <time>2021-05-28T08:15:05Z</time>
      </trkpt>
      <trkpt lat="37.6765675005" lon="-6.6730372980">
        <ele>424.08</ele>
        <time>2021-05-28T08:15:13Z</time>
      </trkpt>
      <trkpt lat="37.6766267605" lon="-6.6735568922">
        <ele>423.12</ele>
        <time>2021-05-28T08:15:15Z</time>
      </trkpt>
      <trkpt lat="37.6766483858" lon="-6.6740855388">
        <ele>422.64</ele>
        <time>2021-05-28T08:15:17Z</time>
      </trkpt>
      <trkpt lat="37.6766320411" lon="-6.6743509099">
        <ele>423.60</ele>
        <time>2021-05-28T08:15:18Z</time>
      </trkpt>
      <trkpt lat="37.6765997708" lon="-6.6746130120">
        <ele>423.60</ele>
        <time>2021-05-28T08:15:19Z</time>
      </trkpt>
      <trkpt lat="37.6764440350" lon="-6.6756299883">
        <ele>423.60</ele>
        <time>2021-05-28T08:15:23Z</time>
      </trkpt>
      <trkpt lat="37.6764431130" lon="-6.6759021487">
        <ele>424.08</ele>
        <time>2021-05-28T08:15:24Z</time>
      </trkpt>
      <trkpt lat="37.6764649060" lon="-6.6761775780">
        <ele>424.56</ele>
        <time>2021-05-28T08:15:25Z</time>
      </trkpt>
      <trkpt lat="37.6765063964" lon="-6.6764527559">
        <ele>425.04</ele>
        <time>2021-05-28T08:15:26Z</time>
      </trkpt>
      <trkpt lat="37.6765642315" lon="-6.6767244972">
        <ele>425.52</ele>
        <time>2021-05-28T08:15:27Z</time>
      </trkpt>
      <trkpt lat="37.6766354777" lon="-6.6769964062">
        <ele>425.04</ele>
        <time>2021-05-28T08:15:28Z</time>
      </trkpt>
      <trkpt lat="37.6769577619" lon="-6.6780549567">
        <ele>422.16</ele>
        <time>2021-05-28T08:15:32Z</time>
      </trkpt>
      <trkpt lat="37.6771479473" lon="-6.6785378382">
        <ele>418.31</ele>
        <time>2021-05-28T08:15:34Z</time>
      </trkpt>
      <trkpt lat="37.6774430741" lon="-6.6792080551">
        <ele>414.47</ele>
        <time>2021-05-28T08:15:37Z</time>
      </trkpt>
      <trkpt lat="37.6775859855" lon="-6.6796552297">
        <ele>410.62</ele>
        <time>2021-05-28T08:15:39Z</time>
      </trkpt>
      <trkpt lat="37.6776383724" lon="-6.6798885819">
        <ele>410.62</ele>
        <time>2021-05-28T08:15:40Z</time>
      </trkpt>
      <trkpt lat="37.6778249536" lon="-6.6808930691">
        <ele>409.18</ele>
        <time>2021-05-28T08:15:44Z</time>
      </trkpt>
      <trkpt lat="37.6779993810" lon="-6.6822466627">
        <ele>407.26</ele>
        <time>2021-05-28T08:15:49Z</time>
      </trkpt>
      <trkpt lat="37.6780486666" lon="-6.6827657539">
        <ele>402.45</ele>
        <time>2021-05-28T08:15:51Z</time>
      </trkpt>
      <trkpt lat="37.6780751534" lon="-6.6830170434">
        <ele>402.93</ele>
        <time>2021-05-28T08:15:52Z</time>
      </trkpt>
      <trkpt lat="37.6785029657" lon="-6.6850120202">
        <ele>400.05</ele>
        <time>2021-05-28T08:16:00Z</time>
      </trkpt>
      <trkpt lat="37.6785812527" lon="-6.6852630582">
        <ele>400.53</ele>
        <time>2021-05-28T08:16:01Z</time>
      </trkpt>
      <trkpt lat="37.6788012777" lon="-6.6860373784">
        <ele>396.68</ele>
        <time>2021-05-28T08:16:04Z</time>
      </trkpt>
      <trkpt lat="37.6788581908" lon="-6.6862982232">
        <ele>396.68</ele>
        <time>2021-05-28T08:16:05Z</time>
      </trkpt>
      <trkpt lat="37.6790218055" lon="-6.6873372439">
        <ele>398.12</ele>
        <time>2021-05-28T08:16:09Z</time>
      </trkpt>
      <trkpt lat="37.6791953947" lon="-6.6893959232">
        <ele>396.20</ele>
        <time>2021-05-28T08:16:17Z</time>
      </trkpt>
      <trkpt lat="37.6791658904" lon="-6.6896648146">
        <ele>395.72</ele>
        <time>2021-05-28T08:16:18Z</time>
      </trkpt>
      <trkpt lat="37.6789643057" lon="-6.6907704715">
        <ele>391.39</ele>
        <time>2021-05-28T08:16:22Z</time>
      </trkpt>
      <trkpt lat="37.6788947359" lon="-6.6913460568">
        <ele>387.55</ele>
        <time>2021-05-28T08:16:24Z</time>
      </trkpt>
      <trkpt lat="37.6788763795" lon="-6.6916379984">
        <ele>387.55</ele>
        <time>2021-05-28T08:16:25Z</time>
      </trkpt>
      <trkpt lat="37.6788057201" lon="-6.6934332345">
        <ele>384.66</ele>
        <time>2021-05-28T08:16:31Z</time>
      </trkpt>
      <trkpt lat="37.6787866931" lon="-6.6940226499">
        <ele>380.82</ele>
        <time>2021-05-28T08:16:33Z</time>
      </trkpt>
      <trkpt lat="37.6787290256" lon="-6.6957313009">
        <ele>377.94</ele>
        <time>2021-05-28T08:16:39Z</time>
      </trkpt>
      <trkpt lat="37.6787912194" lon="-6.6969412286">
        <ele>376.01</ele>
        <time>2021-05-28T08:16:44Z</time>
      </trkpt>
      <trkpt lat="37.6788577717" lon="-6.6971611697">
        <ele>377.45</ele>
        <time>2021-05-28T08:16:45Z</time>
      </trkpt>
      <trkpt lat="37.6789422613" lon="-6.6973759141">
        <ele>378.42</ele>
        <time>2021-05-28T08:16:46Z</time>
      </trkpt>
      <trkpt lat="37.6796083711" lon="-6.6987428349">
        <ele>381.78</ele>
        <time>2021-05-28T08:16:52Z</time>
      </trkpt>
      <trkpt lat="37.6798193436" lon="-6.6992514487">
        <ele>383.22</ele>
        <time>2021-05-28T08:16:54Z</time>
      </trkpt>
      <trkpt lat="37.6803660113" lon="-6.7013449967">
        <ele>384.18</ele>
        <time>2021-05-28T08:17:02Z</time>
      </trkpt>
      <trkpt lat="37.6804605592" lon="-6.7021696921">
        <ele>379.86</ele>
        <time>2021-05-28T08:17:05Z</time>
      </trkpt>
      <trkpt lat="37.6805585437" lon="-6.7030252330">
        <ele>377.94</ele>
        <time>2021-05-28T08:17:08Z</time>
      </trkpt>
      <trkpt lat="37.6808649860" lon="-6.7041335721">
        <ele>374.57</ele>
        <time>2021-05-28T08:17:12Z</time>
      </trkpt>
      <trkpt lat="37.6812371425" lon="-6.7051891051">
        <ele>370.73</ele>
        <time>2021-05-28T08:17:16Z</time>
      </trkpt>
      <trkpt lat="37.6814153418" lon="-6.7060347553">
        <ele>365.92</ele>
        <time>2021-05-28T08:17:19Z</time>
      </trkpt>
      <trkpt lat="37.6815127395" lon="-6.7065776512">
        <ele>361.59</ele>
        <time>2021-05-28T08:17:21Z</time>
      </trkpt>
      <trkpt lat="37.6816365402" lon="-6.7071045376">
        <ele>360.63</ele>
        <time>2021-05-28T08:17:23Z</time>
      </trkpt>
      <trkpt lat="37.6820476726" lon="-6.7081220169">
        <ele>356.31</ele>
        <time>2021-05-28T08:17:27Z</time>
      </trkpt>
      <trkpt lat="37.6822731458" lon="-6.7085646652">
        <ele>350.54</ele>
        <time>2021-05-28T08:17:29Z</time>
      </trkpt>
      <trkpt lat="37.6825984474" lon="-6.7091964930">
        <ele>347.17</ele>
        <time>2021-05-28T08:17:32Z</time>
      </trkpt>
      <trkpt lat="37.6828964241" lon="-6.7098553944">
        <ele>344.29</ele>
        <time>2021-05-28T08:17:35Z</time>
      </trkpt>
      <trkpt lat="37.6829668321" lon="-6.7101048399">
        <ele>342.85</ele>
        <time>2021-05-28T08:17:36Z</time>
      </trkpt>
      <trkpt lat="37.6830160338" lon="-6.7103676125">
        <ele>341.89</ele>
        <time>2021-05-28T08:17:37Z</time>
      </trkpt>
      <trkpt lat="37.6830437779" lon="-6.7106411979">
        <ele>341.89</ele>
        <time>2021-05-28T08:17:38Z</time>
      </trkpt>
      <trkpt lat="37.6830531657" lon="-6.7109239195">
        <ele>340.44</ele>
        <time>2021-05-28T08:17:39Z</time>
      </trkpt>
      <trkpt lat="37.6830540039" lon="-6.7112157773">
        <ele>338.52</ele>
        <time>2021-05-28T08:17:40Z</time>
      </trkpt>
      <trkpt lat="37.6830495615" lon="-6.7115156818">
        <ele>339.00</ele>
        <time>2021-05-28T08:17:41Z</time>
      </trkpt>
      <trkpt lat="37.6830405928" lon="-6.7118191067">
        <ele>336.12</ele>
        <time>2021-05-28T08:17:42Z</time>
      </trkpt>
      <trkpt lat="37.6830013655" lon="-6.7124096118">
        <ele>332.75</ele>
        <time>2021-05-28T08:17:44Z</time>
      </trkpt>
      <trkpt lat="37.6829561032" lon="-6.7132926453">
        <ele>328.43</ele>
        <time>2021-05-28T08:17:47Z</time>
      </trkpt>
      <trkpt lat="37.6829287782" lon="-6.7144596577">
        <ele>325.06</ele>
        <time>2021-05-28T08:17:51Z</time>
      </trkpt>
      <trkpt lat="37.6829032972" lon="-6.7153148632">
        <ele>320.26</ele>
        <time>2021-05-28T08:17:54Z</time>
      </trkpt>
      <trkpt lat="37.6828788221" lon="-6.7158870120">
        <ele>318.81</ele>
        <time>2021-05-28T08:17:56Z</time>
      </trkpt>
      <trkpt lat="37.6829110924" lon="-6.7167644296">
        <ele>316.41</ele>
        <time>2021-05-28T08:17:59Z</time>
      </trkpt>
      <trkpt lat="37.6829972584" lon="-6.7176602874">
        <ele>313.53</ele>
        <time>2021-05-28T08:18:02Z</time>
      </trkpt>
      <trkpt lat="37.6830928959" lon="-6.7185698915">
        <ele>310.64</ele>
        <time>2021-05-28T08:18:05Z</time>
      </trkpt>
      <trkpt lat="37.6831577718" lon="-6.7191863805">
        <ele>307.28</ele>
        <time>2021-05-28T08:18:07Z</time>
      </trkpt>
      <trkpt lat="37.6832226478" lon="-6.7198109161">
        <ele>303.43</ele>
        <time>2021-05-28T08:18:09Z</time>
      </trkpt>
      <trkpt lat="37.6833335403" lon="-6.7207305785">
        <ele>298.15</ele>
        <time>2021-05-28T08:18:12Z</time>
      </trkpt>
      <trkpt lat="37.6833694987" lon="-6.7210276332">
        <ele>294.30</ele>
        <time>2021-05-28T08:18:13Z</time>
      </trkpt>
      <trkpt lat="37.6835111529" lon="-6.7221634649">
        <ele>289.97</ele>
        <time>2021-05-28T08:18:17Z</time>
      </trkpt>
      <trkpt lat="37.6836373843" lon="-6.7227350269">
        <ele>286.13</ele>
        <time>2021-05-28T08:18:19Z</time>
      </trkpt>
      <trkpt lat="37.6839475147" lon="-6.7235888913">
        <ele>282.77</ele>
        <time>2021-05-28T08:18:22Z</time>
      </trkpt>
      <trkpt lat="37.6840634365" lon="-6.7238637339">
        <ele>282.77</ele>
        <time>2021-05-28T08:18:23Z</time>
      </trkpt>
      <trkpt lat="37.6842936035" lon="-6.7243829928">
        <ele>279.40</ele>
        <time>2021-05-28T08:18:25Z</time>
      </trkpt>
      <trkpt lat="37.6844133809" lon="-6.7246243916">
        <ele>276.04</ele>
        <time>2021-05-28T08:18:26Z</time>
      </trkpt>
      <trkpt lat="37.6845437195" lon="-6.7248470150">
        <ele>274.11</ele>
        <time>2021-05-28T08:18:27Z</time>
      </trkpt>
      <trkpt lat="37.6846844517" lon="-6.7250419781">
        <ele>273.15</ele>
        <time>2021-05-28T08:18:28Z</time>
      </trkpt>
      <trkpt lat="37.6848383434" lon="-6.7252156511">
        <ele>271.23</ele>
        <time>2021-05-28T08:18:29Z</time>
      </trkpt>
      <trkpt lat="37.6850105915" lon="-6.7253723089">
        <ele>272.19</ele>
        <time>2021-05-28T08:18:30Z</time>
      </trkpt>
      <trkpt lat="37.6851969212" lon="-6.7255173996">
        <ele>270.75</ele>
        <time>2021-05-28T08:18:31Z</time>
      </trkpt>
      <trkpt lat="37.6853935607" lon="-6.7256580479">
        <ele>271.23</ele>
        <time>2021-05-28T08:18:32Z</time>
      </trkpt>
      <trkpt lat="37.6864532847" lon="-6.7263760418">
        <ele>266.90</ele>
        <time>2021-05-28T08:18:37Z</time>
      </trkpt>
      <trkpt lat="37.6870878786" lon="-6.7267763615">
        <ele>263.54</ele>
        <time>2021-05-28T08:18:40Z</time>
      </trkpt>
      <trkpt lat="37.6882966328" lon="-6.7277714610">
        <ele>267.86</ele>
        <time>2021-05-28T08:18:46Z</time>
      </trkpt>
      <trkpt lat="37.6886789314" lon="-6.7281402647">
        <ele>271.71</ele>
        <time>2021-05-28T08:18:48Z</time>
      </trkpt>
      <trkpt lat="37.6890594698" lon="-6.7285233177">
        <ele>276.04</ele>
        <time>2021-05-28T08:18:50Z</time>
      </trkpt>
      <trkpt lat="37.6892490685" lon="-6.7287197895">
        <ele>279.40</ele>
        <time>2021-05-28T08:18:51Z</time>
      </trkpt>
      <trkpt lat="37.6896172855" lon="-6.7290961370">
        <ele>280.36</ele>
        <time>2021-05-28T08:18:53Z</time>
      </trkpt>
      <trkpt lat="37.6899661403" lon="-6.7294806987">
        <ele>286.13</ele>
        <time>2021-05-28T08:18:55Z</time>
      </trkpt>
      <trkpt lat="37.6902750134" lon="-6.7299002130">
        <ele>288.53</ele>
        <time>2021-05-28T08:18:57Z</time>
      </trkpt>
      <trkpt lat="37.6904051844" lon="-6.7301279493">
        <ele>289.97</ele>
        <time>2021-05-28T08:18:58Z</time>
      </trkpt>
      <trkpt lat="37.6905206870" lon="-6.7303726170">
        <ele>291.42</ele>
        <time>2021-05-28T08:18:59Z</time>
      </trkpt>
      <trkpt lat="37.6907578949" lon="-6.7308628745">
        <ele>297.18</ele>
        <time>2021-05-28T08:19:01Z</time>
      </trkpt>
      <trkpt lat="37.6908937655" lon="-6.7310790438">
        <ele>298.63</ele>
        <time>2021-05-28T08:19:02Z</time>
      </trkpt>
      <trkpt lat="37.6910375152" lon="-6.7312755156">
        <ele>299.11</ele>
        <time>2021-05-28T08:19:03Z</time>
      </trkpt>
      <trkpt lat="37.6911863778" lon="-6.7314578220">
        <ele>299.11</ele>
        <time>2021-05-28T08:19:04Z</time>
      </trkpt>
      <trkpt lat="37.6916475501" lon="-6.7320153862">
        <ele>303.43</ele>
        <time>2021-05-28T08:19:07Z</time>
      </trkpt>
      <trkpt lat="37.6919418387" lon="-6.7324366607">
        <ele>309.20</ele>
        <time>2021-05-28T08:19:09Z</time>
      </trkpt>
      <trkpt lat="37.6922012586" lon="-6.7328892834">
        <ele>313.05</ele>
        <time>2021-05-28T08:19:11Z</time>
      </trkpt>
      <trkpt lat="37.6924076211" lon="-6.7333851568">
        <ele>317.37</ele>
        <time>2021-05-28T08:19:13Z</time>
      </trkpt>
      <trkpt lat="37.6925572380" lon="-6.7339127976">
        <ele>320.74</ele>
        <time>2021-05-28T08:19:15Z</time>
      </trkpt>
      <trkpt lat="37.6926772669" lon="-6.7344458867">
        <ele>324.10</ele>
        <time>2021-05-28T08:19:17Z</time>
      </trkpt>
      <trkpt lat="37.6928547118" lon="-6.7354422435">
        <ele>329.39</ele>
        <time>2021-05-28T08:19:21Z</time>
      </trkpt>
      <trkpt lat="37.6929192524" lon="-6.7359172460">
        <ele>334.20</ele>
        <time>2021-05-28T08:19:23Z</time>
      </trkpt>
      <trkpt lat="37.6930030715" lon="-6.7368650716">
        <ele>337.56</ele>
        <time>2021-05-28T08:19:27Z</time>
      </trkpt>
      <trkpt lat="37.6930342522" lon="-6.7376347817">
        <ele>342.37</ele>
        <time>2021-05-28T08:19:30Z</time>
      </trkpt>
      <trkpt lat="37.6930646785" lon="-6.7384285480">
        <ele>345.73</ele>
        <time>2021-05-28T08:19:33Z</time>
      </trkpt>
      <trkpt lat="37.6930796821" lon="-6.7389172968">
        <ele>342.37</ele>
        <time>2021-05-28T08:19:35Z</time>
      </trkpt>
      <trkpt lat="37.6930850465" lon="-6.7391363997">
        <ele>342.37</ele>
        <time>2021-05-28T08:19:36Z</time>
      </trkpt>
      <trkpt lat="37.6931249443" lon="-6.7402537912">
        <ele>345.73</ele>
        <time>2021-05-28T08:19:41Z</time>
      </trkpt>
      <trkpt lat="37.6931230165" lon="-6.7410522513">
        <ele>349.58</ele>
        <time>2021-05-28T08:19:44Z</time>
      </trkpt>
      <trkpt lat="37.6930672769" lon="-6.7415984999">
        <ele>350.54</ele>
        <time>2021-05-28T08:19:46Z</time>
      </trkpt>
      <trkpt lat="37.6929213479" lon="-6.7433596216">
        <ele>350.54</ele>
        <time>2021-05-28T08:19:53Z</time>
      </trkpt>
      <trkpt lat="37.6929860562" lon="-6.7441147473">
        <ele>346.21</ele>
        <time>2021-05-28T08:19:56Z</time>
      </trkpt>
      <trkpt lat="37.6930658519" lon="-6.7447856348">
        <ele>341.41</ele>
        <time>2021-05-28T08:19:59Z</time>
      </trkpt>
      <trkpt lat="37.6931164786" lon="-6.7454944085">
        <ele>338.52</ele>
        <time>2021-05-28T08:20:02Z</time>
      </trkpt>
      <trkpt lat="37.6931033190" lon="-6.7457472906">
        <ele>338.52</ele>
        <time>2021-05-28T08:20:03Z</time>
      </trkpt>
      <trkpt lat="37.6930686180" lon="-6.7460055370">
        <ele>338.04</ele>
        <time>2021-05-28T08:20:04Z</time>
      </trkpt>
      <trkpt lat="37.6930116210" lon="-6.7462661304">
        <ele>336.12</ele>
        <time>2021-05-28T08:20:05Z</time>
      </trkpt>
      <trkpt lat="37.6929333340" lon="-6.7465293221">
        <ele>336.60</ele>
        <time>2021-05-28T08:20:06Z</time>
      </trkpt>
      <trkpt lat="37.6928366069" lon="-6.7467919271">
        <ele>335.64</ele>
        <time>2021-05-28T08:20:07Z</time>
      </trkpt>
      <trkpt lat="37.6927299052" lon="-6.7470489163">
        <ele>334.68</ele>
        <time>2021-05-28T08:20:08Z</time>
      </trkpt>
      <trkpt lat="37.6925128140" lon="-6.7475435324">
        <ele>332.75</ele>
        <time>2021-05-28T08:20:10Z</time>
      </trkpt>
      <trkpt lat="37.6922849100" lon="-6.7480321135">
        <ele>330.83</ele>
        <time>2021-05-28T08:20:12Z</time>
      </trkpt>
      <trkpt lat="37.6919492986" lon="-6.7487861495">
        <ele>326.02</ele>
        <time>2021-05-28T08:20:15Z</time>
      </trkpt>
      <trkpt lat="37.6915824227" lon="-6.7494779080">
        <ele>323.62</ele>
        <time>2021-05-28T08:20:18Z</time>
      </trkpt>
      <trkpt lat="37.6909590606" lon="-6.7502803076">
        <ele>320.26</ele>
        <time>2021-05-28T08:20:22Z</time>
      </trkpt>
      <trkpt lat="37.6907811128" lon="-6.7504511308">
        <ele>320.26</ele>
        <time>2021-05-28T08:20:23Z</time>
      </trkpt>
      <trkpt lat="37.6893203147" lon="-6.7513818573">
        <ele>322.66</ele>
        <time>2021-05-28T08:20:30Z</time>
      </trkpt>
      <trkpt lat="37.6888808515" lon="-6.7516223341">
        <ele>326.50</ele>
        <time>2021-05-28T08:20:32Z</time>
      </trkpt>
      <trkpt lat="37.6886633411" lon="-6.7517406028">
        <ele>326.02</ele>
        <time>2021-05-28T08:20:33Z</time>
      </trkpt>
      <trkpt lat="37.6879988238" lon="-6.7520960793">
        <ele>324.10</ele>
        <time>2021-05-28T08:20:36Z</time>
      </trkpt>
      <trkpt lat="37.6871031336" lon="-6.7525834870">
        <ele>319.78</ele>
        <time>2021-05-28T08:20:40Z</time>
      </trkpt>
      <trkpt lat="37.6850970928" lon="-6.7536899820">
        <ele>315.93</ele>
        <time>2021-05-28T08:20:49Z</time>
      </trkpt>
      <trkpt lat="37.6848682668" lon="-6.7538242601">
        <ele>315.45</ele>
        <time>2021-05-28T08:20:50Z</time>
      </trkpt>
      <trkpt lat="37.6844025683" lon="-6.7541118432">
        <ele>314.01</ele>
        <time>2021-05-28T08:20:52Z</time>
      </trkpt>
      <trkpt lat="37.6839434076" lon="-6.7544258293">
        <ele>311.12</ele>
        <time>2021-05-28T08:20:54Z</time>
      </trkpt>
      <trkpt lat="37.6834907848" lon="-6.7547516339">
        <ele>307.76</ele>
        <time>2021-05-28T08:20:56Z</time>
      </trkpt>
      <trkpt lat="37.6832701731" lon="-6.7549080402">
        <ele>304.39</ele>
        <time>2021-05-28T08:20:57Z</time>
      </trkpt>
      <trkpt lat="37.6828291174" lon="-6.7552203499">
        <ele>302.95</ele>
        <time>2021-05-28T08:20:59Z</time>
      </trkpt>
      <trkpt lat="37.6819680445" lon="-6.7558267806">
        <ele>300.55</ele>
        <time>2021-05-28T08:21:03Z</time>
      </trkpt>
      <trkpt lat="37.6803433802" lon="-6.7571825534">
        <ele>299.59</ele>
        <time>2021-05-28T08:21:11Z</time>
      </trkpt>
      <trkpt lat="37.6797367819" lon="-6.7580360826">
        <ele>302.95</ele>
        <time>2021-05-28T08:21:15Z</time>
      </trkpt>
      <trkpt lat="37.6794710755" lon="-6.7585139349">
        <ele>304.39</ele>
        <time>2021-05-28T08:21:17Z</time>
      </trkpt>
      <trkpt lat="37.6790883578" lon="-6.7592929490">
        <ele>308.24</ele>
        <time>2021-05-28T08:21:20Z</time>
      </trkpt>
      <trkpt lat="37.6787733659" lon="-6.7601712886">
        <ele>313.05</ele>
        <time>2021-05-28T08:21:23Z</time>
      </trkpt>
      <trkpt lat="37.6786783990" lon="-6.7604721151">
        <ele>313.05</ele>
        <time>2021-05-28T08:21:24Z</time>
      </trkpt>
      <trkpt lat="37.6781307254" lon="-6.7622031458">
        <ele>311.12</ele>
        <time>2021-05-28T08:21:30Z</time>
      </trkpt>
      <trkpt lat="37.6776511967" lon="-6.7642057501">
        <ele>310.64</ele>
        <time>2021-05-28T08:21:38Z</time>
      </trkpt>
      <trkpt lat="37.6773445029" lon="-6.7658396345">
        <ele>306.32</ele>
        <time>2021-05-28T08:21:44Z</time>
      </trkpt>
      <trkpt lat="37.6771290042" lon="-6.7666352447">
        <ele>302.47</ele>
        <time>2021-05-28T08:21:47Z</time>
      </trkpt>
      <trkpt lat="37.6769550797" lon="-6.7671700940">
        <ele>299.11</ele>
        <time>2021-05-28T08:21:49Z</time>
      </trkpt>
      <trkpt lat="37.6767638046" lon="-6.7677225452">
        <ele>295.26</ele>
        <time>2021-05-28T08:21:51Z</time>
      </trkpt>
      <trkpt lat="37.6762790792" lon="-6.7687726300">
        <ele>290.94</ele>
        <time>2021-05-28T08:21:55Z</time>
      </trkpt>
      <trkpt lat="37.6756801084" lon="-6.7697432544">
        <ele>288.05</ele>
        <time>2021-05-28T08:21:59Z</time>
      </trkpt>
      <trkpt lat="37.6752049383" lon="-6.7704084422">
        <ele>283.73</ele>
        <time>2021-05-28T08:22:02Z</time>
      </trkpt>
      <trkpt lat="37.6746415067" lon="-6.7709639948">
        <ele>280.36</ele>
        <time>2021-05-28T08:22:05Z</time>
      </trkpt>
      <trkpt lat="37.6744375750" lon="-6.7711105943">
        <ele>277.96</ele>
        <time>2021-05-28T08:22:06Z</time>
      </trkpt>
      <trkpt lat="37.6740204077" lon="-6.7713840958">
        <ele>274.11</ele>
        <time>2021-05-28T08:22:08Z</time>
      </trkpt>
      <trkpt lat="37.6736500952" lon="-6.7716979142">
        <ele>268.83</ele>
        <time>2021-05-28T08:22:10Z</time>
      </trkpt>
      <trkpt lat="37.6734811161" lon="-6.7718802206">
        <ele>268.83</ele>
        <time>2021-05-28T08:22:11Z</time>
      </trkpt>
      <trkpt lat="37.6731814630" lon="-6.7722936161">
        <ele>263.54</ele>
        <time>2021-05-28T08:22:13Z</time>
      </trkpt>
      <trkpt lat="37.6730501186" lon="-6.7725327518">
        <ele>262.58</ele>
        <time>2021-05-28T08:22:14Z</time>
      </trkpt>
      <trkpt lat="37.6729299221" lon="-6.7727920040">
        <ele>261.14</ele>
        <time>2021-05-28T08:22:15Z</time>
      </trkpt>
      <trkpt lat="37.6727041975" lon="-6.7733501550">
        <ele>259.69</ele>
        <time>2021-05-28T08:22:17Z</time>
      </trkpt>
      <trkpt lat="37.6717765722" lon="-6.7756910529">
        <ele>256.81</ele>
        <time>2021-05-28T08:22:25Z</time>
      </trkpt>
      <trkpt lat="37.6711263042" lon="-6.7770942673">
        <ele>259.69</ele>
        <time>2021-05-28T08:22:30Z</time>
      </trkpt>
      <trkpt lat="37.6704491302" lon="-6.7785599269">
        <ele>256.33</ele>
        <time>2021-05-28T08:22:35Z</time>
      </trkpt>
      <trkpt lat="37.6703179535" lon="-6.7788596638">
        <ele>257.29</ele>
        <time>2021-05-28T08:22:36Z</time>
      </trkpt>
      <trkpt lat="37.6695854589" lon="-6.7806193605">
        <ele>253.44</ele>
        <time>2021-05-28T08:22:42Z</time>
      </trkpt>
      <trkpt lat="37.6690123882" lon="-6.7817185633">
        <ele>250.08</ele>
        <time>2021-05-28T08:22:46Z</time>
      </trkpt>
      <trkpt lat="37.6680765487" lon="-6.7829571571">
        <ele>245.75</ele>
        <time>2021-05-28T08:22:51Z</time>
      </trkpt>
      <trkpt lat="37.6669539604" lon="-6.7842746247">
        <ele>244.79</ele>
        <time>2021-05-28T08:22:57Z</time>
      </trkpt>
      <trkpt lat="37.6658503991" lon="-6.7850988172">
        <ele>247.68</ele>
        <time>2021-05-28T08:23:02Z</time>
      </trkpt>
      <trkpt lat="37.6638867706" lon="-6.7859593034">
        <ele>245.75</ele>
        <time>2021-05-28T08:23:10Z</time>
      </trkpt>
      <trkpt lat="37.6634140313" lon="-6.7862505745">
        <ele>244.31</ele>
        <time>2021-05-28T08:23:12Z</time>
      </trkpt>
      <trkpt lat="37.6624983083" lon="-6.7869585939">
        <ele>240.95</ele>
        <time>2021-05-28T08:23:16Z</time>
      </trkpt>
      <trkpt lat="37.6618812326" lon="-6.7876358517">
        <ele>239.51</ele>
        <time>2021-05-28T08:23:19Z</time>
      </trkpt>
      <trkpt lat="37.6611411944" lon="-6.7886954919">
        <ele>234.70</ele>
        <time>2021-05-28T08:23:23Z</time>
      </trkpt>
      <trkpt lat="37.6604731567" lon="-6.7898078542">
        <ele>235.66</ele>
        <time>2021-05-28T08:23:27Z</time>
      </trkpt>
      <trkpt lat="37.6600632817" lon="-6.7906887084">
        <ele>231.33</ele>
        <time>2021-05-28T08:23:30Z</time>
      </trkpt>
      <trkpt lat="37.6599442586" lon="-6.7909879424">
        <ele>231.81</ele>
        <time>2021-05-28T08:23:31Z</time>
      </trkpt>
      <trkpt lat="37.6597297657" lon="-6.7915739212">
        <ele>228.45</ele>
        <time>2021-05-28T08:23:33Z</time>
      </trkpt>
      <trkpt lat="37.6596314460" lon="-6.7918457463">
        <ele>225.09</ele>
        <time>2021-05-28T08:23:34Z</time>
      </trkpt>
      <trkpt lat="37.6594529115" lon="-6.7923355848">
        <ele>222.20</ele>
        <time>2021-05-28T08:23:36Z</time>
      </trkpt>
      <trkpt lat="37.6592836808" lon="-6.7927523330">
        <ele>220.28</ele>
        <time>2021-05-28T08:23:38Z</time>
      </trkpt>
      <trkpt lat="37.6591791585" lon="-6.7929278500">
        <ele>220.76</ele>
        <time>2021-05-28T08:23:39Z</time>
      </trkpt>
      <trkpt lat="37.6590507478" lon="-6.7930724379">
        <ele>221.72</ele>
        <time>2021-05-28T08:23:40Z</time>
      </trkpt>
      <trkpt lat="37.6588975266" lon="-6.7931815702">
        <ele>221.72</ele>
        <time>2021-05-28T08:23:41Z</time>
      </trkpt>
      <trkpt lat="37.6587263681" lon="-6.7932564206">
        <ele>222.20</ele>
        <time>2021-05-28T08:23:42Z</time>
      </trkpt>
      <trkpt lat="37.6585405413" lon="-6.7933053710">
        <ele>224.12</ele>
        <time>2021-05-28T08:23:43Z</time>
      </trkpt>
      <trkpt lat="37.6583434828" lon="-6.7933356296">
        <ele>227.49</ele>
        <time>2021-05-28T08:23:44Z</time>
      </trkpt>
      <trkpt lat="37.6579520479" lon="-6.7934137490">
        <ele>229.89</ele>
        <time>2021-05-28T08:23:46Z</time>
      </trkpt>
      <trkpt lat="37.6577647123" lon="-6.7934874259">
        <ele>230.37</ele>
        <time>2021-05-28T08:23:47Z</time>
      </trkpt>
      <trkpt lat="37.6575889438" lon="-6.7935895175">
        <ele>231.33</ele>
        <time>2021-05-28T08:23:48Z</time>
      </trkpt>
      <trkpt lat="37.6574347168" lon="-6.7937243823">
        <ele>230.85</ele>
        <time>2021-05-28T08:23:49Z</time>
      </trkpt>
      <trkpt lat="37.6572968345" lon="-6.7938930262">
        <ele>232.78</ele>
        <time>2021-05-28T08:23:50Z</time>
      </trkpt>
      <trkpt lat="37.6571623050" lon="-6.7940733209">
        <ele>234.22</ele>
        <time>2021-05-28T08:23:51Z</time>
      </trkpt>
      <trkpt lat="37.6570246741" lon="-6.7942387797">
        <ele>232.30</ele>
        <time>2021-05-28T08:23:52Z</time>
      </trkpt>
      <trkpt lat="37.6568819303" lon="-6.7943811882">
        <ele>231.33</ele>
        <time>2021-05-28T08:23:53Z</time>
      </trkpt>
      <trkpt lat="37.6567215845" lon="-6.7945023905">
        <ele>232.78</ele>
        <time>2021-05-28T08:23:54Z</time>
      </trkpt>
      <trkpt lat="37.6565444749" lon="-6.7945992853">
        <ele>232.30</ele>
        <time>2021-05-28T08:23:55Z</time>
      </trkpt>
      <trkpt lat="37.6563568879" lon="-6.7946699448">
        <ele>233.26</ele>
        <time>2021-05-28T08:23:56Z</time>
      </trkpt>
      <trkpt lat="37.6561539620" lon="-6.7947069090">
        <ele>234.22</ele>
        <time>2021-05-28T08:23:57Z</time>
      </trkpt>
      <trkpt lat="37.6559425704" lon="-6.7947102617">
        <ele>233.74</ele>
        <time>2021-05-28T08:23:58Z</time>
      </trkpt>
      <trkpt lat="37.6557243057" lon="-6.7946860380">
        <ele>234.22</ele>
        <time>2021-05-28T08:23:59Z</time>
      </trkpt>
      <trkpt lat="37.6555026043" lon="-6.7946448829">
        <ele>236.62</ele>
        <time>2021-05-28T08:24:00Z</time>
      </trkpt>
      <trkpt lat="37.6552784722" lon="-6.7945933342">
        <ele>236.62</ele>
        <time>2021-05-28T08:24:01Z</time>
      </trkpt>
      <trkpt lat="37.6539243758" lon="-6.7944246065">
        <ele>232.30</ele>
        <time>2021-05-28T08:24:07Z</time>
      </trkpt>
      <trkpt lat="37.6537039317" lon="-6.7944670189">
        <ele>231.81</ele>
        <time>2021-05-28T08:24:08Z</time>
      </trkpt>
      <trkpt lat="37.6534859184" lon="-6.7945488263">
        <ele>231.33</ele>
        <time>2021-05-28T08:24:09Z</time>
      </trkpt>
      <trkpt lat="37.6532739401" lon="-6.7946623173">
        <ele>231.33</ele>
        <time>2021-05-28T08:24:10Z</time>
      </trkpt>
      <trkpt lat="37.6530636381" lon="-6.7947949190">
        <ele>230.85</ele>
        <time>2021-05-28T08:24:11Z</time>
      </trkpt>
      <trkpt lat="37.6516234595" lon="-6.7957345303">
        <ele>227.01</ele>
        <time>2021-05-28T08:24:18Z</time>
      </trkpt>
      <trkpt lat="37.6514279097" lon="-6.7958413996">
        <ele>223.16</ele>
        <time>2021-05-28T08:24:19Z</time>
      </trkpt>
      <trkpt lat="37.6512272470" lon="-6.7959192675">
        <ele>222.20</ele>
        <time>2021-05-28T08:24:20Z</time>
      </trkpt>
      <trkpt lat="37.6510202978" lon="-6.7959682178">
        <ele>221.72</ele>
        <time>2021-05-28T08:24:21Z</time>
      </trkpt>
      <trkpt lat="37.6506197266" lon="-6.7960540485">
        <ele>219.32</ele>
        <time>2021-05-28T08:24:23Z</time>
      </trkpt>
      <trkpt lat="37.6504395157" lon="-6.7961297370">
        <ele>218.84</ele>
        <time>2021-05-28T08:24:24Z</time>
      </trkpt>
      <trkpt lat="37.6502776612" lon="-6.7962346785">
        <ele>217.88</ele>
        <time>2021-05-28T08:24:25Z</time>
      </trkpt>
      <trkpt lat="37.6501341630" lon="-6.7963676155">
        <ele>216.43</ele>
        <time>2021-05-28T08:24:26Z</time>
      </trkpt>
      <trkpt lat="37.6500064228" lon="-6.7965282965">
        <ele>216.91</ele>
        <time>2021-05-28T08:24:27Z</time>
      </trkpt>
      <trkpt lat="37.6498908363" lon="-6.7967157997">
        <ele>216.43</ele>
        <time>2021-05-28T08:24:28Z</time>
      </trkpt>
      <trkpt lat="37.6497890800" lon="-6.7969287839">
        <ele>217.88</ele>
        <time>2021-05-28T08:24:29Z</time>
      </trkpt>
      <trkpt lat="37.6497080270" lon="-6.7971535027">
        <ele>216.43</ele>
        <time>2021-05-28T08:24:30Z</time>
      </trkpt>
      <trkpt lat="37.6496504433" lon="-6.7973788921">
        <ele>214.99</ele>
        <time>2021-05-28T08:24:31Z</time>
      </trkpt>
      <trkpt lat="37.6496186759" lon="-6.7976095621">
        <ele>215.47</ele>
        <time>2021-05-28T08:24:32Z</time>
      </trkpt>
      <trkpt lat="37.6496149041" lon="-6.7978548165">
        <ele>215.95</ele>
        <time>2021-05-28T08:24:33Z</time>
      </trkpt>
      <trkpt lat="37.6496286504" lon="-6.7981126439">
        <ele>214.99</ele>
        <time>2021-05-28T08:24:34Z</time>
      </trkpt>
      <trkpt lat="37.6496476773" lon="-6.7989428714">
        <ele>214.51</ele>
        <time>2021-05-28T08:24:37Z</time>
      </trkpt>
      <trkpt lat="37.6496154070" lon="-6.7992256768">
        <ele>212.59</ele>
        <time>2021-05-28T08:24:38Z</time>
      </trkpt>
      <trkpt lat="37.6495555602" lon="-6.7995122541">
        <ele>212.11</ele>
        <time>2021-05-28T08:24:39Z</time>
      </trkpt>
      <trkpt lat="37.6494754292" lon="-6.7998000048">
        <ele>212.11</ele>
        <time>2021-05-28T08:24:40Z</time>
      </trkpt>
      <trkpt lat="37.6493848208" lon="-6.8000861630">
        <ele>211.63</ele>
        <time>2021-05-28T08:24:41Z</time>
      </trkpt>
      <trkpt lat="37.6490668952" lon="-6.8009218387">
        <ele>207.30</ele>
        <time>2021-05-28T08:24:44Z</time>
      </trkpt>
      <trkpt lat="37.6486789808" lon="-6.8017142639">
        <ele>202.98</ele>
        <time>2021-05-28T08:24:47Z</time>
      </trkpt>
      <trkpt lat="37.6485328842" lon="-6.8019666430">
        <ele>202.98</ele>
        <time>2021-05-28T08:24:48Z</time>
      </trkpt>
      <trkpt lat="37.6478303131" lon="-6.8031489942">
        <ele>197.21</ele>
        <time>2021-05-28T08:24:53Z</time>
      </trkpt>
      <trkpt lat="37.6477289759" lon="-6.8033741321">
        <ele>193.36</ele>
        <time>2021-05-28T08:24:54Z</time>
      </trkpt>
      <trkpt lat="37.6476506051" lon="-6.8035992701">
        <ele>191.44</ele>
        <time>2021-05-28T08:24:55Z</time>
      </trkpt>
      <trkpt lat="37.6476013195" lon="-6.8038301915">
        <ele>189.52</ele>
        <time>2021-05-28T08:24:56Z</time>
      </trkpt>
      <trkpt lat="37.6475790236" lon="-6.8040702492">
        <ele>188.56</ele>
        <time>2021-05-28T08:24:57Z</time>
      </trkpt>
      <trkpt lat="37.6475898363" lon="-6.8054343201">
        <ele>184.23</ele>
        <time>2021-05-28T08:25:02Z</time>
      </trkpt>
      <trkpt lat="37.6476133894" lon="-6.8056991044">
        <ele>180.87</ele>
        <time>2021-05-28T08:25:03Z</time>
      </trkpt>
      <trkpt lat="37.6476540416" lon="-6.8059539143">
        <ele>178.94</ele>
        <time>2021-05-28T08:25:04Z</time>
      </trkpt>
      <trkpt lat="37.6477131341" lon="-6.8062000908">
        <ele>177.50</ele>
        <time>2021-05-28T08:25:05Z</time>
      </trkpt>
      <trkpt lat="37.6478393655" lon="-6.8066861574">
        <ele>174.62</ele>
        <time>2021-05-28T08:25:07Z</time>
      </trkpt>
      <trkpt lat="37.6479219273" lon="-6.8071927596">
        <ele>171.25</ele>
        <time>2021-05-28T08:25:09Z</time>
      </trkpt>
      <trkpt lat="37.6479321532" lon="-6.8074437138">
        <ele>168.85</ele>
        <time>2021-05-28T08:25:10Z</time>
      </trkpt>
      <trkpt lat="37.6479237713" lon="-6.8077023793">
        <ele>167.89</ele>
        <time>2021-05-28T08:25:11Z</time>
      </trkpt>
      <trkpt lat="37.6478925906" lon="-6.8079672474">
        <ele>166.93</ele>
        <time>2021-05-28T08:25:12Z</time>
      </trkpt>
      <trkpt lat="37.6478386112" lon="-6.8082268350">
        <ele>165.00</ele>
        <time>2021-05-28T08:25:13Z</time>
      </trkpt>
      <trkpt lat="37.6477622520" lon="-6.8084715027">
        <ele>163.08</ele>
        <time>2021-05-28T08:25:14Z</time>
      </trkpt>
      <trkpt lat="37.6476593222" lon="-6.8087019213">
        <ele>162.12</ele>
        <time>2021-05-28T08:25:15Z</time>
      </trkpt>
      <trkpt lat="37.6475295704" lon="-6.8089190125">
        <ele>160.20</ele>
        <time>2021-05-28T08:25:16Z</time>
      </trkpt>
      <trkpt lat="37.6473793667" lon="-6.8091273028">
        <ele>160.68</ele>
        <time>2021-05-28T08:25:17Z</time>
      </trkpt>
      <trkpt lat="37.6472165901" lon="-6.8093248643">
        <ele>160.68</ele>
        <time>2021-05-28T08:25:18Z</time>
      </trkpt>
      <trkpt lat="37.6468943059" lon="-6.8097245973">
        <ele>157.31</ele>
        <time>2021-05-28T08:25:20Z</time>
      </trkpt>
      <trkpt lat="37.6465865225" lon="-6.8101224862">
        <ele>152.99</ele>
        <time>2021-05-28T08:25:22Z</time>
      </trkpt>
      <trkpt lat="37.6462983526" lon="-6.8105033599">
        <ele>149.62</ele>
        <time>2021-05-28T08:25:24Z</time>
      </trkpt>
      <trkpt lat="37.6461603027" lon="-6.8106835708">
        <ele>146.74</ele>
        <time>2021-05-28T08:25:25Z</time>
      </trkpt>
      <trkpt lat="37.6460315567" lon="-6.8108513765">
        <ele>143.37</ele>
        <time>2021-05-28T08:25:26Z</time>
      </trkpt>
      <trkpt lat="37.6458182372" lon="-6.8112028297">
        <ele>138.09</ele>
        <time>2021-05-28T08:25:28Z</time>
      </trkpt>
      <trkpt lat="37.6457338315" lon="-6.8114100304">
        <ele>137.61</ele>
        <time>2021-05-28T08:25:29Z</time>
      </trkpt>
      <trkpt lat="37.6456583105" lon="-6.8116365932">
        <ele>137.13</ele>
        <time>2021-05-28T08:25:30Z</time>
      </trkpt>
      <trkpt lat="37.6455205958" lon="-6.8121271860">
        <ele>136.16</ele>
        <time>2021-05-28T08:25:32Z</time>
      </trkpt>
      <trkpt lat="37.6453842223" lon="-6.8126166891">
        <ele>132.80</ele>
        <time>2021-05-28T08:25:34Z</time>
      </trkpt>
      <trkpt lat="37.6453188434" lon="-6.8128532264">
        <ele>128.95</ele>
        <time>2021-05-28T08:25:35Z</time>
      </trkpt>
      <trkpt lat="37.6451926120" lon="-6.8133042566">
        <ele>124.15</ele>
        <time>2021-05-28T08:25:37Z</time>
      </trkpt>
      <trkpt lat="37.6450787857" lon="-6.8137184065">
        <ele>118.38</ele>
        <time>2021-05-28T08:25:39Z</time>
      </trkpt>
      <trkpt lat="37.6449652109" lon="-6.8140669260">
        <ele>114.53</ele>
        <time>2021-05-28T08:25:41Z</time>
      </trkpt>
      <trkpt lat="37.6448866725" lon="-6.8142198958">
        <ele>113.57</ele>
        <time>2021-05-28T08:25:42Z</time>
      </trkpt>
      <trkpt lat="37.6447811443" lon="-6.8143663276">
        <ele>114.53</ele>
        <time>2021-05-28T08:25:43Z</time>
      </trkpt>
      <trkpt lat="37.6446506381" lon="-6.8145089038">
        <ele>113.09</ele>
        <time>2021-05-28T08:25:44Z</time>
      </trkpt>
      <trkpt lat="37.6445026137" lon="-6.8146513961">
        <ele>111.65</ele>
        <time>2021-05-28T08:25:45Z</time>
      </trkpt>
      <trkpt lat="37.6440577861" lon="-6.8150997441">
        <ele>106.84</ele>
        <time>2021-05-28T08:25:48Z</time>
      </trkpt>
      <trkpt lat="37.6436826959" lon="-6.8155375309">
        <ele>102.04</ele>
        <time>2021-05-28T08:25:51Z</time>
      </trkpt>
      <trkpt lat="37.6434697118" lon="-6.8158182409">
        <ele>99.15</ele>
        <time>2021-05-28T08:25:53Z</time>
      </trkpt>
      <trkpt lat="37.6433889940" lon="-6.8159588054">
        <ele>98.19</ele>
        <time>2021-05-28T08:25:54Z</time>
      </trkpt>
      <trkpt lat="37.6432687975" lon="-6.8162147049">
        <ele>95.31</ele>
        <time>2021-05-28T08:25:56Z</time>
      </trkpt>
      <trkpt lat="37.6432325877" lon="-6.8163339794">
        <ele>94.83</ele>
        <time>2021-05-28T08:25:57Z</time>
      </trkpt>
      <trkpt lat="37.6432199311" lon="-6.8164550141">
        <ele>94.35</ele>
        <time>2021-05-28T08:25:58Z</time>
      </trkpt>
      <trkpt lat="37.6432400476" lon="-6.8165803235">
        <ele>93.87</ele>
        <time>2021-05-28T08:25:59Z</time>
      </trkpt>
      <trkpt lat="37.6432897523" lon="-6.8166918028">
        <ele>92.42</ele>
        <time>2021-05-28T08:26:00Z</time>
      </trkpt>
      <trkpt lat="37.6433577295" lon="-6.8167815730">
        <ele>92.42</ele>
        <time>2021-05-28T08:26:01Z</time>
      </trkpt>
      <trkpt lat="37.6434495114" lon="-6.8168548308">
        <ele>92.42</ele>
        <time>2021-05-28T08:26:02Z</time>
      </trkpt>
      <trkpt lat="37.6435587276" lon="-6.8169242330">
        <ele>93.39</ele>
        <time>2021-05-28T08:26:03Z</time>
      </trkpt>
      <trkpt lat="37.6436717995" lon="-6.8169927131">
        <ele>94.35</ele>
        <time>2021-05-28T08:26:04Z</time>
      </trkpt>
      <trkpt lat="37.6438813470" lon="-6.8170977384">
        <ele>93.87</ele>
        <time>2021-05-28T08:26:06Z</time>
      </trkpt>
      <trkpt lat="37.6439832710" lon="-6.8171045277">
        <ele>92.90</ele>
        <time>2021-05-28T08:26:07Z</time>
      </trkpt>
      <trkpt lat="37.6440853626" lon="-6.8170653842">
        <ele>94.35</ele>
        <time>2021-05-28T08:26:08Z</time>
      </trkpt>
      <trkpt lat="37.6441827603" lon="-6.8169829901">
        <ele>95.79</ele>
        <time>2021-05-28T08:26:09Z</time>
      </trkpt>
      <trkpt lat="37.6442717761" lon="-6.8168601952">
        <ele>97.71</ele>
        <time>2021-05-28T08:26:10Z</time>
      </trkpt>
      <trkpt lat="37.6443545893" lon="-6.8167173676">
        <ele>98.19</ele>
        <time>2021-05-28T08:26:11Z</time>
      </trkpt>
      <trkpt lat="37.6444417611" lon="-6.8165845145">
        <ele>98.19</ele>
        <time>2021-05-28T08:26:12Z</time>
      </trkpt>
      <trkpt lat="37.6445445232" lon="-6.8164687604">
        <ele>99.15</ele>
        <time>2021-05-28T08:26:13Z</time>
      </trkpt>
      <trkpt lat="37.6446677372" lon="-6.8163750507">
        <ele>100.60</ele>
        <time>2021-05-28T08:26:14Z</time>
      </trkpt>
      <trkpt lat="37.6448043622" lon="-6.8163157068">
        <ele>101.08</ele>
        <time>2021-05-28T08:26:15Z</time>
      </trkpt>
      <trkpt lat="37.6449492015" lon="-6.8163019605">
        <ele>102.04</ele>
        <time>2021-05-28T08:26:16Z</time>
      </trkpt>
      <trkpt lat="37.6450979803" lon="-6.8163314648">
        <ele>103.00</ele>
        <time>2021-05-28T08:26:17Z</time>
      </trkpt>
      <trkpt lat="37.6452505309" lon="-6.8163937423">
        <ele>105.88</ele>
        <time>2021-05-28T08:26:18Z</time>
      </trkpt>
      <trkpt lat="37.6454071887" lon="-6.8164695147">
        <ele>108.29</ele>
        <time>2021-05-28T08:26:19Z</time>
      </trkpt>
      <trkpt lat="37.6459844504" lon="-6.8167368136">
        <ele>111.65</ele>
        <time>2021-05-28T08:26:23Z</time>
      </trkpt>
      <trkpt lat="37.6463801600" lon="-6.8169085588">
        <ele>116.94</ele>
        <time>2021-05-28T08:26:26Z</time>
      </trkpt>
      <trkpt lat="37.6466638874" lon="-6.8170951400">
        <ele>121.74</ele>
        <time>2021-05-28T08:26:28Z</time>
      </trkpt>
      <trkpt lat="37.6467938907" lon="-6.8172319327">
        <ele>122.71</ele>
        <time>2021-05-28T08:26:29Z</time>
      </trkpt>
      <trkpt lat="37.6469060406" lon="-6.8174018338">
        <ele>123.67</ele>
        <time>2021-05-28T08:26:30Z</time>
      </trkpt>
      <trkpt lat="37.6469959784" lon="-6.8175953720">
        <ele>126.07</ele>
        <time>2021-05-28T08:26:31Z</time>
      </trkpt>
      <trkpt lat="37.6470692363" lon="-6.8178109545">
        <ele>127.99</ele>
        <time>2021-05-28T08:26:32Z</time>
      </trkpt>
      <trkpt lat="37.6471323520" lon="-6.8180342484">
        <ele>128.95</ele>
        <time>2021-05-28T08:26:33Z</time>
      </trkpt>
      <trkpt lat="37.6473012473" lon="-6.8186607957">
        <ele>132.80</ele>
        <time>2021-05-28T08:26:36Z</time>
      </trkpt>
      <trkpt lat="37.6473980583" lon="-6.8190653063">
        <ele>136.16</ele>
        <time>2021-05-28T08:26:38Z</time>
      </trkpt>
      <trkpt lat="37.6474199351" lon="-6.8192771170">
        <ele>137.61</ele>
        <time>2021-05-28T08:26:39Z</time>
      </trkpt>
      <trkpt lat="37.6474143192" lon="-6.8194987345">
        <ele>140.49</ele>
        <time>2021-05-28T08:26:40Z</time>
      </trkpt>
      <trkpt lat="37.6473859046" lon="-6.8197252974">
        <ele>141.93</ele>
        <time>2021-05-28T08:26:41Z</time>
      </trkpt>
      <trkpt lat="37.6473470125" lon="-6.8199568056">
        <ele>144.82</ele>
        <time>2021-05-28T08:26:42Z</time>
      </trkpt>
      <trkpt lat="37.6472901832" lon="-6.8204256054">
        <ele>148.66</ele>
        <time>2021-05-28T08:26:44Z</time>
      </trkpt>
      <trkpt lat="37.6472829748" lon="-6.8206636515">
        <ele>150.10</ele>
        <time>2021-05-28T08:26:45Z</time>
      </trkpt>
      <trkpt lat="37.6472952124" lon="-6.8209009431">
        <ele>152.03</ele>
        <time>2021-05-28T08:26:46Z</time>
      </trkpt>
      <trkpt lat="37.6473258063" lon="-6.8211347144">
        <ele>152.51</ele>
        <time>2021-05-28T08:26:47Z</time>
      </trkpt>
      <trkpt lat="37.6474622637" lon="-6.8217930291">
        <ele>156.35</ele>
        <time>2021-05-28T08:26:50Z</time>
      </trkpt>
      <trkpt lat="37.6475805324" lon="-6.8222630024">
        <ele>160.20</ele>
        <time>2021-05-28T08:26:52Z</time>
      </trkpt>
      <trkpt lat="37.6476256270" lon="-6.8225168902">
        <ele>162.60</ele>
        <time>2021-05-28T08:26:53Z</time>
      </trkpt>
      <trkpt lat="37.6476539578" lon="-6.8227792438">
        <ele>165.00</ele>
        <time>2021-05-28T08:26:54Z</time>
      </trkpt>
      <trkpt lat="37.6476902515" lon="-6.8233070523">
        <ele>169.33</ele>
        <time>2021-05-28T08:26:56Z</time>
      </trkpt>
      <trkpt lat="37.6477526966" lon="-6.8238293286">
        <ele>173.66</ele>
        <time>2021-05-28T08:26:58Z</time>
      </trkpt>
      <trkpt lat="37.6478428021" lon="-6.8243479170">
        <ele>177.02</ele>
        <time>2021-05-28T08:27:00Z</time>
      </trkpt>
      <trkpt lat="37.6478930097" lon="-6.8246112764">
        <ele>180.38</ele>
        <time>2021-05-28T08:27:01Z</time>
      </trkpt>
      <trkpt lat="37.6480089314" lon="-6.8251230754">
        <ele>185.19</ele>
        <time>2021-05-28T08:27:03Z</time>
      </trkpt>
      <trkpt lat="37.6480856258" lon="-6.8253585231">
        <ele>187.11</ele>
        <time>2021-05-28T08:27:04Z</time>
      </trkpt>
      <trkpt lat="37.6481718756" lon="-6.8255845830">
        <ele>190.48</ele>
        <time>2021-05-28T08:27:05Z</time>
      </trkpt>
      <trkpt lat="37.6483406872" lon="-6.8260395527">
        <ele>196.25</ele>
        <time>2021-05-28T08:27:07Z</time>
      </trkpt>
      <trkpt lat="37.6484721154" lon="-6.8265159801">
        <ele>201.05</ele>
        <time>2021-05-28T08:27:09Z</time>
      </trkpt>
      <trkpt lat="37.6485079899" lon="-6.8267561216">
        <ele>201.05</ele>
        <time>2021-05-28T08:27:10Z</time>
      </trkpt>
      <trkpt lat="37.6485189702" lon="-6.8270072434">
        <ele>202.98</ele>
        <time>2021-05-28T08:27:11Z</time>
      </trkpt>
      <trkpt lat="37.6485126000" lon="-6.8275353871">
        <ele>204.90</ele>
        <time>2021-05-28T08:27:13Z</time>
      </trkpt>
      <trkpt lat="37.6485390868" lon="-6.8283091206">
        <ele>204.90</ele>
        <time>2021-05-28T08:27:16Z</time>
      </trkpt>
      <trkpt lat="37.6485912222" lon="-6.8285499327">
        <ele>206.82</ele>
        <time>2021-05-28T08:27:17Z</time>
      </trkpt>
      <trkpt lat="37.6486685872" lon="-6.8287778366">
        <ele>208.26</ele>
        <time>2021-05-28T08:27:18Z</time>
      </trkpt>
      <trkpt lat="37.6487642247" lon="-6.8289791699">
        <ele>209.22</ele>
        <time>2021-05-28T08:27:19Z</time>
      </trkpt>
      <trkpt lat="37.6488640532" lon="-6.8291577883">
        <ele>208.26</ele>
        <time>2021-05-28T08:27:20Z</time>
      </trkpt>
      <trkpt lat="37.6490204595" lon="-6.8294889573">
        <ele>208.26</ele>
        <time>2021-05-28T08:27:22Z</time>
      </trkpt>
      <trkpt lat="37.6490605250" lon="-6.8296806514">
        <ele>209.22</ele>
        <time>2021-05-28T08:27:23Z</time>
      </trkpt>
      <trkpt lat="37.6490722597" lon="-6.8298924621">
        <ele>211.15</ele>
        <time>2021-05-28T08:27:24Z</time>
      </trkpt>
      <trkpt lat="37.6490611956" lon="-6.8301245570">
        <ele>213.07</ele>
        <time>2021-05-28T08:27:25Z</time>
      </trkpt>
      <trkpt lat="37.6490410790" lon="-6.8303598370">
        <ele>215.47</ele>
        <time>2021-05-28T08:27:26Z</time>
      </trkpt>
      <trkpt lat="37.6489479560" lon="-6.8310967740">
        <ele>220.28</ele>
        <time>2021-05-28T08:27:29Z</time>
      </trkpt>
      <trkpt lat="37.6487824973" lon="-6.8318777159">
        <ele>224.61</ele>
        <time>2021-05-28T08:27:32Z</time>
      </trkpt>
      <trkpt lat="37.6487020310" lon="-6.8321311008">
        <ele>224.61</ele>
        <time>2021-05-28T08:27:33Z</time>
      </trkpt>
      <trkpt lat="37.6484412700" lon="-6.8328512739">
        <ele>226.05</ele>
        <time>2021-05-28T08:27:36Z</time>
      </trkpt>
      <trkpt lat="37.6483061537" lon="-6.8332949281">
        <ele>224.12</ele>
        <time>2021-05-28T08:27:38Z</time>
      </trkpt>
      <trkpt lat="37.6482683513" lon="-6.8335136119">
        <ele>224.12</ele>
        <time>2021-05-28T08:27:39Z</time>
      </trkpt>
      <trkpt lat="37.6482568681" lon="-6.8337297812">
        <ele>223.64</ele>
        <time>2021-05-28T08:27:40Z</time>
      </trkpt>
      <trkpt lat="37.6482751407" lon="-6.8339342158">
        <ele>223.16</ele>
        <time>2021-05-28T08:27:41Z</time>
      </trkpt>
      <trkpt lat="37.6483245101" lon="-6.8341348786">
        <ele>225.57</ele>
        <time>2021-05-28T08:27:42Z</time>
      </trkpt>
      <trkpt lat="37.6483970135" lon="-6.8343375530">
        <ele>227.97</ele>
        <time>2021-05-28T08:27:43Z</time>
      </trkpt>
      <trkpt lat="37.6484836824" lon="-6.8345366232">
        <ele>228.93</ele>
        <time>2021-05-28T08:27:44Z</time>
      </trkpt>
      <trkpt lat="37.6485645678" lon="-6.8347198516">
        <ele>228.93</ele>
        <time>2021-05-28T08:27:45Z</time>
      </trkpt>
      <trkpt lat="37.6486296952" lon="-6.8348915968">
        <ele>229.41</ele>
        <time>2021-05-28T08:27:46Z</time>
      </trkpt>
      <trkpt lat="37.6486735325" lon="-6.8350727297">
        <ele>229.89</ele>
        <time>2021-05-28T08:27:47Z</time>
      </trkpt>
      <trkpt lat="37.6486865245" lon="-6.8352703750">
        <ele>231.81</ele>
        <time>2021-05-28T08:27:48Z</time>
      </trkpt>
      <trkpt lat="37.6486663241" lon="-6.8354832754">
        <ele>234.22</ele>
        <time>2021-05-28T08:27:49Z</time>
      </trkpt>
      <trkpt lat="37.6486213971" lon="-6.8357081618">
        <ele>236.14</ele>
        <time>2021-05-28T08:27:50Z</time>
      </trkpt>
      <trkpt lat="37.6485593710" lon="-6.8359376583">
        <ele>238.54</ele>
        <time>2021-05-28T08:27:51Z</time>
      </trkpt>
      <trkpt lat="37.6484912261" lon="-6.8361609522">
        <ele>240.47</ele>
        <time>2021-05-28T08:27:52Z</time>
      </trkpt>
      <trkpt lat="37.6483825129" lon="-6.8366004992">
        <ele>242.39</ele>
        <time>2021-05-28T08:27:54Z</time>
      </trkpt>
      <trkpt lat="37.6483581215" lon="-6.8368251342">
        <ele>242.39</ele>
        <time>2021-05-28T08:27:55Z</time>
      </trkpt>
      <trkpt lat="37.6483608875" lon="-6.8370512780">
        <ele>244.31</ele>
        <time>2021-05-28T08:27:56Z</time>
      </trkpt>
      <trkpt lat="37.6483961754" lon="-6.8372734822">
        <ele>245.75</ele>
        <time>2021-05-28T08:27:57Z</time>
      </trkpt>
      <trkpt lat="37.6484607160" lon="-6.8374819402">
        <ele>246.23</ele>
        <time>2021-05-28T08:27:58Z</time>
      </trkpt>
      <trkpt lat="37.6485544257" lon="-6.8376691919">
        <ele>247.20</ele>
        <time>2021-05-28T08:27:59Z</time>
      </trkpt>
      <trkpt lat="37.6486705989" lon="-6.8378348183">
        <ele>247.68</ele>
        <time>2021-05-28T08:28:00Z</time>
      </trkpt>
      <trkpt lat="37.6487839222" lon="-6.8379994389">
        <ele>248.64</ele>
        <time>2021-05-28T08:28:01Z</time>
      </trkpt>
      <trkpt lat="37.6488730218" lon="-6.8381866906">
        <ele>249.12</ele>
        <time>2021-05-28T08:28:02Z</time>
      </trkpt>
      <trkpt lat="37.6489389036" lon="-6.8383964896">
        <ele>249.60</ele>
        <time>2021-05-28T08:28:03Z</time>
      </trkpt>
      <trkpt lat="37.6489916258" lon="-6.8386238068">
        <ele>252.96</ele>
        <time>2021-05-28T08:28:04Z</time>
      </trkpt>
      <trkpt lat="37.6490275841" lon="-6.8388714083">
        <ele>254.89</ele>
        <time>2021-05-28T08:28:05Z</time>
      </trkpt>
      <trkpt lat="37.6490409113" lon="-6.8391337618">
        <ele>256.33</ele>
        <time>2021-05-28T08:28:06Z</time>
      </trkpt>
      <trkpt lat="37.6490340382" lon="-6.8393948581">
        <ele>259.69</ele>
        <time>2021-05-28T08:28:07Z</time>
      </trkpt>
      <trkpt lat="37.6490079705" lon="-6.8396329042">
        <ele>258.73</ele>
        <time>2021-05-28T08:28:08Z</time>
      </trkpt>
      <trkpt lat="37.6489643846" lon="-6.8398463912">
        <ele>259.69</ele>
        <time>2021-05-28T08:28:09Z</time>
      </trkpt>
      <trkpt lat="37.6488979999" lon="-6.8400389235">
        <ele>260.17</ele>
        <time>2021-05-28T08:28:10Z</time>
      </trkpt>
      <trkpt lat="37.6488016918" lon="-6.8402177934">
        <ele>261.14</ele>
        <time>2021-05-28T08:28:11Z</time>
      </trkpt>
      <trkpt lat="37.6486746222" lon="-6.8403826654">
        <ele>262.58</ele>
        <time>2021-05-28T08:28:12Z</time>
      </trkpt>
      <trkpt lat="37.6485265978" lon="-6.8405358028">
        <ele>264.02</ele>
        <time>2021-05-28T08:28:13Z</time>
      </trkpt>
      <trkpt lat="37.6483669225" lon="-6.8406819832">
        <ele>265.94</ele>
        <time>2021-05-28T08:28:14Z</time>
      </trkpt>
      <trkpt lat="37.6482037269" lon="-6.8408245593">
        <ele>265.94</ele>
        <time>2021-05-28T08:28:15Z</time>
      </trkpt>
      <trkpt lat="37.6478950214" lon="-6.8411376234">
        <ele>266.42</ele>
        <time>2021-05-28T08:28:17Z</time>
      </trkpt>
      <trkpt lat="37.6477746572" lon="-6.8413298205">
        <ele>264.98</ele>
        <time>2021-05-28T08:28:18Z</time>
      </trkpt>
      <trkpt lat="37.6476801094" lon="-6.8415438104">
        <ele>264.98</ele>
        <time>2021-05-28T08:28:19Z</time>
      </trkpt>
      <trkpt lat="37.6476040017" lon="-6.8417648412">
        <ele>264.50</ele>
        <time>2021-05-28T08:28:20Z</time>
      </trkpt>
      <trkpt lat="37.6475498546" lon="-6.8419895601">
        <ele>263.06</ele>
        <time>2021-05-28T08:28:21Z</time>
      </trkpt>
      <trkpt lat="37.6475211047" lon="-6.8422089983">
        <ele>261.62</ele>
        <time>2021-05-28T08:28:22Z</time>
      </trkpt>
      <trkpt lat="37.6475175004" lon="-6.8424261734">
        <ele>258.25</ele>
        <time>2021-05-28T08:28:23Z</time>
      </trkpt>
      <trkpt lat="37.6475393772" lon="-6.8426459469">
        <ele>259.21</ele>
        <time>2021-05-28T08:28:24Z</time>
      </trkpt>
      <trkpt lat="37.6475868188" lon="-6.8428684864">
        <ele>257.77</ele>
        <time>2021-05-28T08:28:25Z</time>
      </trkpt>
      <trkpt lat="37.6476607472" lon="-6.8430896010">
        <ele>255.85</ele>
        <time>2021-05-28T08:28:26Z</time>
      </trkpt>
      <trkpt lat="37.6477599889" lon="-6.8433033396">
        <ele>255.85</ele>
        <time>2021-05-28T08:28:27Z</time>
      </trkpt>
      <trkpt lat="37.6478780899" lon="-6.8435108755">
        <ele>255.37</ele>
        <time>2021-05-28T08:28:28Z</time>
      </trkpt>
      <trkpt lat="37.6480046567" lon="-6.8437161483">
        <ele>255.85</ele>
        <time>2021-05-28T08:28:29Z</time>
      </trkpt>
      <trkpt lat="37.6486265101" lon="-6.8446973339">
        <ele>254.89</ele>
        <time>2021-05-28T08:28:34Z</time>
      </trkpt>
      <trkpt lat="37.6487628836" lon="-6.8448454421">
        <ele>254.41</ele>
        <time>2021-05-28T08:28:35Z</time>
      </trkpt>
      <trkpt lat="37.6489244867" lon="-6.8449741881">
        <ele>255.85</ele>
        <time>2021-05-28T08:28:36Z</time>
      </trkpt>
      <trkpt lat="37.6491109002" lon="-6.8450823985">
        <ele>256.33</ele>
        <time>2021-05-28T08:28:37Z</time>
      </trkpt>
      <trkpt lat="37.6493152510" lon="-6.8451664690">
        <ele>257.77</ele>
        <time>2021-05-28T08:28:38Z</time>
      </trkpt>
      <trkpt lat="37.6495276485" lon="-6.8452273216">
        <ele>258.25</ele>
        <time>2021-05-28T08:28:39Z</time>
      </trkpt>
      <trkpt lat="37.6499197539" lon="-6.8453532178">
        <ele>259.69</ele>
        <time>2021-05-28T08:28:41Z</time>
      </trkpt>
      <trkpt lat="37.6500837039" lon="-6.8454388808">
        <ele>257.77</ele>
        <time>2021-05-28T08:28:42Z</time>
      </trkpt>
      <trkpt lat="37.6502224244" lon="-6.8455527071">
        <ele>256.33</ele>
        <time>2021-05-28T08:28:43Z</time>
      </trkpt>
      <trkpt lat="37.6503350772" lon="-6.8456991389">
        <ele>256.33</ele>
        <time>2021-05-28T08:28:44Z</time>
      </trkpt>
      <trkpt lat="37.6504304633" lon="-6.8458799366">
        <ele>256.81</ele>
        <time>2021-05-28T08:28:45Z</time>
      </trkpt>
      <trkpt lat="37.6505161263" lon="-6.8460912444">
        <ele>257.29</ele>
        <time>2021-05-28T08:28:46Z</time>
      </trkpt>
      <trkpt lat="37.6506033819" lon="-6.8463219982">
        <ele>261.14</ele>
        <time>2021-05-28T08:28:47Z</time>
      </trkpt>
      <trkpt lat="37.6507711038" lon="-6.8468332943">
        <ele>261.62</ele>
        <time>2021-05-28T08:28:49Z</time>
      </trkpt>
      <trkpt lat="37.6508291904" lon="-6.8471058737">
        <ele>262.10</ele>
        <time>2021-05-28T08:28:50Z</time>
      </trkpt>
      <trkpt lat="37.6508660708" lon="-6.8473824766">
        <ele>263.06</ele>
        <time>2021-05-28T08:28:51Z</time>
      </trkpt>
      <trkpt lat="37.6510228962" lon="-6.8487058114">
        <ele>265.94</ele>
        <time>2021-05-28T08:28:56Z</time>
      </trkpt>
      <trkpt lat="37.6510889456" lon="-6.8489443604">
        <ele>266.90</ele>
        <time>2021-05-28T08:28:57Z</time>
      </trkpt>
      <trkpt lat="37.6512286719" lon="-6.8494441733">
        <ele>270.27</ele>
        <time>2021-05-28T08:28:59Z</time>
      </trkpt>
      <trkpt lat="37.6512782089" lon="-6.8497143220">
        <ele>271.71</ele>
        <time>2021-05-28T08:29:00Z</time>
      </trkpt>
      <trkpt lat="37.6513039414" lon="-6.8500010669">
        <ele>273.15</ele>
        <time>2021-05-28T08:29:01Z</time>
      </trkpt>
      <trkpt lat="37.6513108145" lon="-6.8502926733">
        <ele>273.63</ele>
        <time>2021-05-28T08:29:02Z</time>
      </trkpt>
      <trkpt lat="37.6513591781" lon="-6.8513521459">
        <ele>270.75</ele>
        <time>2021-05-28T08:29:06Z</time>
      </trkpt>
      <trkpt lat="37.6514112297" lon="-6.8515587598">
        <ele>268.83</ele>
        <time>2021-05-28T08:29:07Z</time>
      </trkpt>
      <trkpt lat="37.6514821406" lon="-6.8517291639">
        <ele>267.38</ele>
        <time>2021-05-28T08:29:08Z</time>
      </trkpt>
      <trkpt lat="37.6515769400" lon="-6.8518784456">
        <ele>266.90</ele>
        <time>2021-05-28T08:29:09Z</time>
      </trkpt>
      <trkpt lat="37.6517025847" lon="-6.8520150706">
        <ele>266.42</ele>
        <time>2021-05-28T08:29:10Z</time>
      </trkpt>
      <trkpt lat="37.6518527046" lon="-6.8521517795">
        <ele>269.79</ele>
        <time>2021-05-28T08:29:11Z</time>
      </trkpt>
      <trkpt lat="37.6520091109" lon="-6.8523084372">
        <ele>271.71</ele>
        <time>2021-05-28T08:29:12Z</time>
      </trkpt>
      <trkpt lat="37.6521614939" lon="-6.8524946831">
        <ele>272.67</ele>
        <time>2021-05-28T08:29:13Z</time>
      </trkpt>
      <trkpt lat="37.6523118652" lon="-6.8526976090">
        <ele>276.04</ele>
        <time>2021-05-28T08:29:14Z</time>
      </trkpt>
      <trkpt lat="37.6527274400" lon="-6.8533207197">
        <ele>275.07</ele>
        <time>2021-05-28T08:29:17Z</time>
      </trkpt>
      <trkpt lat="37.6528197248" lon="-6.8535272498">
        <ele>274.11</ele>
        <time>2021-05-28T08:29:18Z</time>
      </trkpt>
      <trkpt lat="37.6528809126" lon="-6.8537466880">
        <ele>275.56</ele>
        <time>2021-05-28T08:29:19Z</time>
      </trkpt>
      <trkpt lat="37.6529159490" lon="-6.8539803755">
        <ele>275.07</ele>
        <time>2021-05-28T08:29:20Z</time>
      </trkpt>
      <trkpt lat="37.6529344730" lon="-6.8542241212">
        <ele>276.04</ele>
        <time>2021-05-28T08:29:21Z</time>
      </trkpt>
      <trkpt lat="37.6529551763" lon="-6.8544775061">
        <ele>276.52</ele>
        <time>2021-05-28T08:29:22Z</time>
      </trkpt>
      <trkpt lat="37.6529927272" lon="-6.8547351658">
        <ele>277.96</ele>
        <time>2021-05-28T08:29:23Z</time>
      </trkpt>
      <trkpt lat="37.6530484669" lon="-6.8549921550">
        <ele>277.96</ele>
        <time>2021-05-28T08:29:24Z</time>
      </trkpt>
      <trkpt lat="37.6531149354" lon="-6.8552503176">
        <ele>279.40</ele>
        <time>2021-05-28T08:29:25Z</time>
      </trkpt>
      <trkpt lat="37.6533205435" lon="-6.8560437486">
        <ele>282.28</ele>
        <time>2021-05-28T08:29:28Z</time>
      </trkpt>
      <trkpt lat="37.6537725795" lon="-6.8572706077">
        <ele>284.21</ele>
        <time>2021-05-28T08:29:33Z</time>
      </trkpt>
      <trkpt lat="37.6541420538" lon="-6.8583159987">
        <ele>287.57</ele>
        <time>2021-05-28T08:29:37Z</time>
      </trkpt>
      <trkpt lat="37.6544597279" lon="-6.8602182716">
        <ele>289.49</ele>
        <time>2021-05-28T08:29:44Z</time>
      </trkpt>
      <trkpt lat="37.6544425450" lon="-6.8604911026">
        <ele>289.49</ele>
        <time>2021-05-28T08:29:45Z</time>
      </trkpt>
      <trkpt lat="37.6543697901" lon="-6.8612807617">
        <ele>289.49</ele>
        <time>2021-05-28T08:29:48Z</time>
      </trkpt>
      <trkpt lat="37.6543758251" lon="-6.8615509942">
        <ele>289.97</ele>
        <time>2021-05-28T08:29:49Z</time>
      </trkpt>
      <trkpt lat="37.6544316486" lon="-6.8620988354">
        <ele>290.94</ele>
        <time>2021-05-28T08:29:51Z</time>
      </trkpt>
      <trkpt lat="37.6546820160" lon="-6.8635388464">
        <ele>295.74</ele>
        <time>2021-05-28T08:29:56Z</time>
      </trkpt>
      <trkpt lat="37.6547194831" lon="-6.8638369069">
        <ele>295.26</ele>
        <time>2021-05-28T08:29:57Z</time>
      </trkpt>
      <trkpt lat="37.6548012067" lon="-6.8653162289">
        <ele>298.63</ele>
        <time>2021-05-28T08:30:02Z</time>
      </trkpt>
      <trkpt lat="37.6548741292" lon="-6.8664451875">
        <ele>301.99</ele>
        <time>2021-05-28T08:30:06Z</time>
      </trkpt>
      <trkpt lat="37.6548986882" lon="-6.8669930287">
        <ele>302.47</ele>
        <time>2021-05-28T08:30:08Z</time>
      </trkpt>
      <trkpt lat="37.6549301203" lon="-6.8678197358">
        <ele>305.36</ele>
        <time>2021-05-28T08:30:11Z</time>
      </trkpt>
      <trkpt lat="37.6549953315" lon="-6.8686693255">
        <ele>307.28</ele>
        <time>2021-05-28T08:30:14Z</time>
      </trkpt>
      <trkpt lat="37.6550504845" lon="-6.8704005238">
        <ele>307.28</ele>
        <time>2021-05-28T08:30:21Z</time>
      </trkpt>
      <trkpt lat="37.6550545078" lon="-6.8712227046">
        <ele>302.95</ele>
        <time>2021-05-28T08:30:25Z</time>
      </trkpt>
      <trkpt lat="37.6550731156" lon="-6.8714183383">
        <ele>302.95</ele>
        <time>2021-05-28T08:30:26Z</time>
      </trkpt>
      <trkpt lat="37.6551335491" lon="-6.8721181434">
        <ele>299.59</ele>
        <time>2021-05-28T08:30:30Z</time>
      </trkpt>
      <trkpt lat="37.6551273465" lon="-6.8722788244">
        <ele>300.07</ele>
        <time>2021-05-28T08:30:31Z</time>
      </trkpt>
      <trkpt lat="37.6551054697" lon="-6.8724473007">
        <ele>301.03</ele>
        <time>2021-05-28T08:30:32Z</time>
      </trkpt>
      <trkpt lat="37.6550614648" lon="-6.8726236559">
        <ele>301.99</ele>
        <time>2021-05-28T08:30:33Z</time>
      </trkpt>
      <trkpt lat="37.6549990196" lon="-6.8728019390">
        <ele>302.95</ele>
        <time>2021-05-28T08:30:34Z</time>
      </trkpt>
      <trkpt lat="37.6549280249" lon="-6.8729805574">
        <ele>302.47</ele>
        <time>2021-05-28T08:30:35Z</time>
      </trkpt>
      <trkpt lat="37.6546845306" lon="-6.8736768421">
        <ele>298.63</ele>
        <time>2021-05-28T08:30:39Z</time>
      </trkpt>
      <trkpt lat="37.6545203291" lon="-6.8741497491">
        <ele>296.70</ele>
        <time>2021-05-28T08:30:42Z</time>
      </trkpt>
      <trkpt lat="37.6544690318" lon="-6.8742997013">
        <ele>295.26</ele>
        <time>2021-05-28T08:30:43Z</time>
      </trkpt>
      <trkpt lat="37.6543283835" lon="-6.8747337162">
        <ele>293.82</ele>
        <time>2021-05-28T08:30:46Z</time>
      </trkpt>
      <trkpt lat="37.6542648487" lon="-6.8754018378">
        <ele>289.97</ele>
        <time>2021-05-28T08:30:51Z</time>
      </trkpt>
      <trkpt lat="37.6542504318" lon="-6.8755216990">
        <ele>289.01</ele>
        <time>2021-05-28T08:30:52Z</time>
      </trkpt>
      <trkpt lat="37.6542277168" lon="-6.8756345194">
        <ele>288.05</ele>
        <time>2021-05-28T08:30:53Z</time>
      </trkpt>
      <trkpt lat="37.6541993860" lon="-6.8757281452">
        <ele>287.09</ele>
        <time>2021-05-28T08:30:54Z</time>
      </trkpt>
      <trkpt lat="37.6541682892" lon="-6.8758026604">
        <ele>285.65</ele>
        <time>2021-05-28T08:30:55Z</time>
      </trkpt>
      <trkpt lat="37.6541384496" lon="-6.8758606631">
        <ele>284.69</ele>
        <time>2021-05-28T08:30:56Z</time>
      </trkpt>
      <trkpt lat="37.6540888287" lon="-6.8759542052">
        <ele>282.77</ele>
        <time>2021-05-28T08:30:58Z</time>
      </trkpt>
      <trkpt lat="37.6540750824" lon="-6.8759967852">
        <ele>283.25</ele>
        <time>2021-05-28T08:30:59Z</time>
      </trkpt>
      <trkpt lat="37.6540658623" lon="-6.8760287203">
        <ele>283.25</ele>
        <time>2021-05-28T08:31:00Z</time>
      </trkpt>
      <trkpt lat="37.6540544629" lon="-6.8760568835">
        <ele>282.77</ele>
        <time>2021-05-28T08:31:01Z</time>
      </trkpt>
      <trkpt lat="37.6540132239" lon="-6.8761260342">
        <ele>281.80</ele>
        <time>2021-05-28T08:31:08Z</time>
      </trkpt>
      <trkpt lat="37.6539755892" lon="-6.8761521019">
        <ele>281.80</ele>
        <time>2021-05-28T08:31:09Z</time>
      </trkpt>
      <trkpt lat="37.6539111324" lon="-6.8761729728">
        <ele>281.80</ele>
        <time>2021-05-28T08:31:10Z</time>
      </trkpt>
      <trkpt lat="37.6538314205" lon="-6.8761866353">
        <ele>283.25</ele>
        <time>2021-05-28T08:31:11Z</time>
      </trkpt>
      <trkpt lat="37.6535395626" lon="-6.8762444705">
        <ele>284.21</ele>
        <time>2021-05-28T08:31:14Z</time>
      </trkpt>
      <trkpt lat="37.6534347888" lon="-6.8762837816">
        <ele>283.25</ele>
        <time>2021-05-28T08:31:15Z</time>
      </trkpt>
      <trkpt lat="37.6533422526" lon="-6.8763371743">
        <ele>282.77</ele>
        <time>2021-05-28T08:31:16Z</time>
      </trkpt>
      <trkpt lat="37.6528145280" lon="-6.8765556067">
        <ele>281.32</ele>
        <time>2021-05-28T08:31:23Z</time>
      </trkpt>
      <trkpt lat="37.6526680961" lon="-6.8765738793">
        <ele>280.84</ele>
        <time>2021-05-28T08:31:28Z</time>
      </trkpt>
      <trkpt lat="37.6521311514" lon="-6.8767005298">
        <ele>281.32</ele>
        <time>2021-05-28T08:31:34Z</time>
      </trkpt>
      <trkpt lat="37.6516004093" lon="-6.8768002745">
        <ele>280.36</ele>
        <time>2021-05-28T08:31:39Z</time>
      </trkpt>
      <trkpt lat="37.6510995068" lon="-6.8768870272">
        <ele>278.92</ele>
        <time>2021-05-28T08:31:45Z</time>
      </trkpt>
      <trkpt lat="37.6510304399" lon="-6.8769163638">
        <ele>278.44</ele>
        <time>2021-05-28T08:31:46Z</time>
      </trkpt>
      <trkpt lat="37.6509771310" lon="-6.8769701757">
        <ele>277.48</ele>
        <time>2021-05-28T08:31:47Z</time>
      </trkpt>
      <trkpt lat="37.6509453636" lon="-6.8770504743">
        <ele>276.52</ele>
        <time>2021-05-28T08:31:48Z</time>
      </trkpt>
      <trkpt lat="37.6509366464" lon="-6.8771559186">
        <ele>276.04</ele>
        <time>2021-05-28T08:31:49Z</time>
      </trkpt>
      <trkpt lat="37.6509451121" lon="-6.8772790488">
        <ele>277.00</ele>
        <time>2021-05-28T08:31:50Z</time>
      </trkpt>
      <trkpt lat="37.6509615406" lon="-6.8774199486">
        <ele>277.00</ele>
        <time>2021-05-28T08:31:51Z</time>
      </trkpt>
      <trkpt lat="37.6509926375" lon="-6.8778033368">
        <ele>275.07</ele>
        <time>2021-05-28T08:31:54Z</time>
      </trkpt>
      <trkpt lat="37.6510066353" lon="-6.8778984714">
        <ele>274.59</ele>
        <time>2021-05-28T08:31:55Z</time>
      </trkpt>
      <trkpt lat="37.6510324515" lon="-6.8779810332">
        <ele>275.07</ele>
        <time>2021-05-28T08:31:56Z</time>
      </trkpt>
      <trkpt lat="37.6510678232" lon="-6.8780502677">
        <ele>275.07</ele>
        <time>2021-05-28T08:31:57Z</time>
      </trkpt>
      <trkpt lat="37.6511155162" lon="-6.8781173229">
        <ele>275.56</ele>
        <time>2021-05-28T08:31:58Z</time>
      </trkpt>
      <trkpt lat="37.6511742733" lon="-6.8781918380">
        <ele>275.56</ele>
        <time>2021-05-28T08:31:59Z</time>
      </trkpt>
      <trkpt lat="37.6512434240" lon="-6.8782679457">
        <ele>276.52</ele>
        <time>2021-05-28T08:32:00Z</time>
      </trkpt>
      <trkpt lat="37.6514792908" lon="-6.8785323948">
        <ele>278.44</ele>
        <time>2021-05-28T08:32:03Z</time>
      </trkpt>
      <trkpt lat="37.6518027484" lon="-6.8789923936">
        <ele>279.88</ele>
        <time>2021-05-28T08:32:08Z</time>
      </trkpt>
      <trkpt lat="37.6518371981" lon="-6.8790876120">
        <ele>279.88</ele>
        <time>2021-05-28T08:32:09Z</time>
      </trkpt>
      <trkpt lat="37.6518567279" lon="-6.8791926373">
        <ele>280.36</ele>
        <time>2021-05-28T08:32:10Z</time>
      </trkpt>
      <trkpt lat="37.6518614218" lon="-6.8793021888">
        <ele>280.84</ele>
        <time>2021-05-28T08:32:11Z</time>
      </trkpt>
      <trkpt lat="37.6518625952" lon="-6.8794129975">
        <ele>282.28</ele>
        <time>2021-05-28T08:32:12Z</time>
      </trkpt>
      <trkpt lat="37.6518767606" lon="-6.8795192800">
        <ele>281.80</ele>
        <time>2021-05-28T08:32:13Z</time>
      </trkpt>
      <trkpt lat="37.6519094501" lon="-6.8796178512">
        <ele>281.80</ele>
        <time>2021-05-28T08:32:14Z</time>
      </trkpt>
      <trkpt lat="37.6519578137" lon="-6.8797163386">
        <ele>282.28</ele>
        <time>2021-05-28T08:32:15Z</time>
      </trkpt>
      <trkpt lat="37.6520657726" lon="-6.8799113017">
        <ele>283.25</ele>
        <time>2021-05-28T08:32:17Z</time>
      </trkpt>
      <trkpt lat="37.6524335705" lon="-6.8805810157">
        <ele>287.57</ele>
        <time>2021-05-28T08:32:25Z</time>
      </trkpt>
      <trkpt lat="37.6528762188" lon="-6.8817680608">
        <ele>290.46</ele>
        <time>2021-05-28T08:32:35Z</time>
      </trkpt>
      <trkpt lat="37.6529019512" lon="-6.8818995729">
        <ele>290.94</ele>
        <time>2021-05-28T08:32:36Z</time>
      </trkpt>
      <trkpt lat="37.6529518235" lon="-6.8824801035">
        <ele>295.26</ele>
        <time>2021-05-28T08:32:40Z</time>
      </trkpt>
      <trkpt lat="37.6529629715" lon="-6.8826444726">
        <ele>295.26</ele>
        <time>2021-05-28T08:32:41Z</time>
      </trkpt>
      <trkpt lat="37.6529825013" lon="-6.8829825148">
        <ele>296.70</ele>
        <time>2021-05-28T08:32:43Z</time>
      </trkpt>
      <trkpt lat="37.6529736165" lon="-6.8833159469">
        <ele>298.15</ele>
        <time>2021-05-28T08:32:45Z</time>
      </trkpt>
      <trkpt lat="37.6529458724" lon="-6.8834819086">
        <ele>298.63</ele>
        <time>2021-05-28T08:32:46Z</time>
      </trkpt>
      <trkpt lat="37.6529027894" lon="-6.8836461101">
        <ele>299.11</ele>
        <time>2021-05-28T08:32:47Z</time>
      </trkpt>
      <trkpt lat="37.6527167950" lon="-6.8841619324">
        <ele>294.78</ele>
        <time>2021-05-28T08:32:51Z</time>
      </trkpt>
      <trkpt lat="37.6526773162" lon="-6.8842575699">
        <ele>294.78</ele>
        <time>2021-05-28T08:32:52Z</time>
      </trkpt>
      <trkpt lat="37.6525757276" lon="-6.8845322449">
        <ele>292.38</ele>
        <time>2021-05-28T08:32:58Z</time>
      </trkpt>
      <trkpt lat="37.6525724586" lon="-6.8845578935">
        <ele>291.90</ele>
        <time>2021-05-28T08:33:03Z</time>
      </trkpt>
      <trkpt lat="37.6525645796" lon="-6.8845765851">
        <ele>291.90</ele>
        <time>2021-05-28T08:33:04Z</time>
      </trkpt>
      <trkpt lat="37.6525537670" lon="-6.8846001383">
        <ele>292.38</ele>
        <time>2021-05-28T08:33:11Z</time>
      </trkpt>
      <trkpt lat="37.6525399368" lon="-6.8846228532">
        <ele>291.90</ele>
        <time>2021-05-28T08:33:12Z</time>
      </trkpt>
      <trkpt lat="37.6525012124" lon="-6.8846492562">
        <ele>291.90</ele>
        <time>2021-05-28T08:33:13Z</time>
      </trkpt>
      <trkpt lat="37.6524292119" lon="-6.8846602365">
        <ele>291.90</ele>
        <time>2021-05-28T08:33:14Z</time>
      </trkpt>
      <trkpt lat="37.6523338258" lon="-6.8846574705">
        <ele>292.38</ele>
        <time>2021-05-28T08:33:15Z</time>
      </trkpt>
      <trkpt lat="37.6522199158" lon="-6.8846514355">
        <ele>291.90</ele>
        <time>2021-05-28T08:33:16Z</time>
      </trkpt>
      <trkpt lat="37.6512742694" lon="-6.8849030603">
        <ele>289.97</ele>
        <time>2021-05-28T08:33:22Z</time>
      </trkpt>
      <trkpt lat="37.6511109062" lon="-6.8850077502">
        <ele>288.53</ele>
        <time>2021-05-28T08:33:23Z</time>
      </trkpt>
      <trkpt lat="37.6509591099" lon="-6.8851230852">
        <ele>286.13</ele>
        <time>2021-05-28T08:33:24Z</time>
      </trkpt>
      <trkpt lat="37.6508193836" lon="-6.8852437846">
        <ele>284.21</ele>
        <time>2021-05-28T08:33:25Z</time>
      </trkpt>
      <trkpt lat="37.6506912243" lon="-6.8853697646">
        <ele>282.77</ele>
        <time>2021-05-28T08:33:26Z</time>
      </trkpt>
      <trkpt lat="37.6505758893" lon="-6.8854998518">
        <ele>280.84</ele>
        <time>2021-05-28T08:33:27Z</time>
      </trkpt>
      <trkpt lat="37.6504770666" lon="-6.8856254965">
        <ele>279.40</ele>
        <time>2021-05-28T08:33:28Z</time>
      </trkpt>
      <trkpt lat="37.6503268629" lon="-6.8858392350">
        <ele>275.56</ele>
        <time>2021-05-28T08:33:30Z</time>
      </trkpt>
      <trkpt lat="37.6502225082" lon="-6.8860226311">
        <ele>273.63</ele>
        <time>2021-05-28T08:33:32Z</time>
      </trkpt>
      <trkpt lat="37.6501992065" lon="-6.8861096352">
        <ele>273.15</ele>
        <time>2021-05-28T08:33:33Z</time>
      </trkpt>
      <trkpt lat="37.6502027269" lon="-6.8861919455">
        <ele>273.15</ele>
        <time>2021-05-28T08:33:34Z</time>
      </trkpt>
      <trkpt lat="37.6502322312" lon="-6.8862721603">
        <ele>273.63</ele>
        <time>2021-05-28T08:33:35Z</time>
      </trkpt>
      <trkpt lat="37.6502835285" lon="-6.8863553088">
        <ele>274.11</ele>
        <time>2021-05-28T08:33:36Z</time>
      </trkpt>
      <trkpt lat="37.6503487397" lon="-6.8864315841">
        <ele>275.07</ele>
        <time>2021-05-28T08:33:37Z</time>
      </trkpt>
      <trkpt lat="37.6504137833" lon="-6.8865058478">
        <ele>275.56</ele>
        <time>2021-05-28T08:33:38Z</time>
      </trkpt>
      <trkpt lat="37.6504773181" lon="-6.8865807820">
        <ele>276.04</ele>
        <time>2021-05-28T08:33:39Z</time>
      </trkpt>
      <trkpt lat="37.6507146098" lon="-6.8868547026">
        <ele>279.40</ele>
        <time>2021-05-28T08:33:42Z</time>
      </trkpt>
      <trkpt lat="37.6509971637" lon="-6.8871857040">
        <ele>281.32</ele>
        <time>2021-05-28T08:33:45Z</time>
      </trkpt>
      <trkpt lat="37.6512912009" lon="-6.8875221536">
        <ele>284.21</ele>
        <time>2021-05-28T08:33:48Z</time>
      </trkpt>
      <trkpt lat="37.6516276505" lon="-6.8878948968">
        <ele>288.05</ele>
        <time>2021-05-28T08:33:51Z</time>
      </trkpt>
      <trkpt lat="37.6517445780" lon="-6.8880266603">
        <ele>288.05</ele>
        <time>2021-05-28T08:33:52Z</time>
      </trkpt>
      <trkpt lat="37.6519788522" lon="-6.8882963061">
        <ele>291.42</ele>
        <time>2021-05-28T08:33:54Z</time>
      </trkpt>
      <trkpt lat="37.6525613107" lon="-6.8892632425">
        <ele>294.30</ele>
        <time>2021-05-28T08:34:00Z</time>
      </trkpt>
      <trkpt lat="37.6530498080" lon="-6.8902930431">
        <ele>294.30</ele>
        <time>2021-05-28T08:34:05Z</time>
      </trkpt>
      <trkpt lat="37.6533271652" lon="-6.8906705640">
        <ele>292.38</ele>
        <time>2021-05-28T08:34:07Z</time>
      </trkpt>
      <trkpt lat="37.6538121421" lon="-6.8911578041">
        <ele>290.46</ele>
        <time>2021-05-28T08:34:10Z</time>
      </trkpt>
      <trkpt lat="37.6542780083" lon="-6.8917006999">
        <ele>285.65</ele>
        <time>2021-05-28T08:34:13Z</time>
      </trkpt>
      <trkpt lat="37.6545230951" lon="-6.8921331223">
        <ele>282.77</ele>
        <time>2021-05-28T08:34:15Z</time>
      </trkpt>
      <trkpt lat="37.6546153799" lon="-6.8923675641">
        <ele>279.88</ele>
        <time>2021-05-28T08:34:16Z</time>
      </trkpt>
      <trkpt lat="37.6546932478" lon="-6.8926152494">
        <ele>279.40</ele>
        <time>2021-05-28T08:34:17Z</time>
      </trkpt>
      <trkpt lat="37.6547536813" lon="-6.8928704783">
        <ele>277.48</ele>
        <time>2021-05-28T08:34:18Z</time>
      </trkpt>
      <trkpt lat="37.6547942497" lon="-6.8931287248">
        <ele>275.56</ele>
        <time>2021-05-28T08:34:19Z</time>
      </trkpt>
      <trkpt lat="37.6548152883" lon="-6.8933900725">
        <ele>276.04</ele>
        <time>2021-05-28T08:34:20Z</time>
      </trkpt>
      <trkpt lat="37.6548137795" lon="-6.8936579581">
        <ele>275.07</ele>
        <time>2021-05-28T08:34:21Z</time>
      </trkpt>
      <trkpt lat="37.6547922380" lon="-6.8939346448">
        <ele>273.63</ele>
        <time>2021-05-28T08:34:22Z</time>
      </trkpt>
      <trkpt lat="37.6547514182" lon="-6.8942168634">
        <ele>274.11</ele>
        <time>2021-05-28T08:34:23Z</time>
      </trkpt>
      <trkpt lat="37.6546892244" lon="-6.8945021834">
        <ele>275.56</ele>
        <time>2021-05-28T08:34:24Z</time>
      </trkpt>
      <trkpt lat="37.6546127815" lon="-6.8947890121">
        <ele>275.07</ele>
        <time>2021-05-28T08:34:25Z</time>
      </trkpt>
      <trkpt lat="37.6537849009" lon="-6.8976124562">
        <ele>271.23</ele>
        <time>2021-05-28T08:34:35Z</time>
      </trkpt>
      <trkpt lat="37.6537387166" lon="-6.8978756480">
        <ele>271.23</ele>
        <time>2021-05-28T08:34:36Z</time>
      </trkpt>
      <trkpt lat="37.6537157502" lon="-6.8981430307">
        <ele>270.27</ele>
        <time>2021-05-28T08:34:37Z</time>
      </trkpt>
      <trkpt lat="37.6537169237" lon="-6.8984104972">
        <ele>268.83</ele>
        <time>2021-05-28T08:34:38Z</time>
      </trkpt>
      <trkpt lat="37.6537433267" lon="-6.8986788020">
        <ele>268.35</ele>
        <time>2021-05-28T08:34:39Z</time>
      </trkpt>
      <trkpt lat="37.6537971385" lon="-6.8989429995">
        <ele>267.38</ele>
        <time>2021-05-28T08:34:40Z</time>
      </trkpt>
      <trkpt lat="37.6538765151" lon="-6.8992003240">
        <ele>267.86</ele>
        <time>2021-05-28T08:34:41Z</time>
      </trkpt>
      <trkpt lat="37.6539807022" lon="-6.8994521163">
        <ele>267.86</ele>
        <time>2021-05-28T08:34:42Z</time>
      </trkpt>
      <trkpt lat="37.6541075204" lon="-6.8997012265">
        <ele>268.35</ele>
        <time>2021-05-28T08:34:43Z</time>
      </trkpt>
      <trkpt lat="37.6542462409" lon="-6.8999467324">
        <ele>268.83</ele>
        <time>2021-05-28T08:34:44Z</time>
      </trkpt>
      <trkpt lat="37.6548005361" lon="-6.9008910377">
        <ele>265.94</ele>
        <time>2021-05-28T08:34:48Z</time>
      </trkpt>
      <trkpt lat="37.6549320482" lon="-6.9011181034">
        <ele>265.46</ele>
        <time>2021-05-28T08:34:49Z</time>
      </trkpt>
      <trkpt lat="37.6550627220" lon="-6.9013434928">
        <ele>262.10</ele>
        <time>2021-05-28T08:34:50Z</time>
      </trkpt>
      <trkpt lat="37.6551891211" lon="-6.9015731569">
        <ele>261.62</ele>
        <time>2021-05-28T08:34:51Z</time>
      </trkpt>
      <trkpt lat="37.6554026920" lon="-6.9020542782">
        <ele>258.25</ele>
        <time>2021-05-28T08:34:53Z</time>
      </trkpt>
      <trkpt lat="37.6554810628" lon="-6.9023182243">
        <ele>257.29</ele>
        <time>2021-05-28T08:34:54Z</time>
      </trkpt>
      <trkpt lat="37.6555417478" lon="-6.9025931507">
        <ele>255.85</ele>
        <time>2021-05-28T08:34:55Z</time>
      </trkpt>
      <trkpt lat="37.6555893570" lon="-6.9028653111">
        <ele>252.96</ele>
        <time>2021-05-28T08:34:56Z</time>
      </trkpt>
      <trkpt lat="37.6556337811" lon="-6.9031266589">
        <ele>252.96</ele>
        <time>2021-05-28T08:34:57Z</time>
      </trkpt>
      <trkpt lat="37.6557468530" lon="-6.9036248792">
        <ele>247.20</ele>
        <time>2021-05-28T08:34:59Z</time>
      </trkpt>
      <trkpt lat="37.6558274031" lon="-6.9038610812">
        <ele>245.75</ele>
        <time>2021-05-28T08:35:00Z</time>
      </trkpt>
      <trkpt lat="37.6559267286" lon="-6.9040852133">
        <ele>245.27</ele>
        <time>2021-05-28T08:35:01Z</time>
      </trkpt>
      <trkpt lat="37.6560448296" lon="-6.9042913243">
        <ele>245.27</ele>
        <time>2021-05-28T08:35:02Z</time>
      </trkpt>
      <trkpt lat="37.6561804488" lon="-6.9044798333">
        <ele>243.35</ele>
        <time>2021-05-28T08:35:03Z</time>
      </trkpt>
      <trkpt lat="37.6563378610" lon="-6.9046508241">
        <ele>241.43</ele>
        <time>2021-05-28T08:35:04Z</time>
      </trkpt>
      <trkpt lat="37.6565117016" lon="-6.9047991000">
        <ele>239.51</ele>
        <time>2021-05-28T08:35:05Z</time>
      </trkpt>
      <trkpt lat="37.6566982828" lon="-6.9049172848">
        <ele>237.58</ele>
        <time>2021-05-28T08:35:06Z</time>
      </trkpt>
      <trkpt lat="37.6568963472" lon="-6.9050031994">
        <ele>236.14</ele>
        <time>2021-05-28T08:35:07Z</time>
      </trkpt>
      <trkpt lat="37.6571082417" lon="-6.9050638005">
        <ele>235.66</ele>
        <time>2021-05-28T08:35:08Z</time>
      </trkpt>
      <trkpt lat="37.6573363971" lon="-6.9051004294">
        <ele>235.18</ele>
        <time>2021-05-28T08:35:09Z</time>
      </trkpt>
      <trkpt lat="37.6575771254" lon="-6.9051207975">
        <ele>234.70</ele>
        <time>2021-05-28T08:35:10Z</time>
      </trkpt>
      <trkpt lat="37.6585246157" lon="-6.9051793870">
        <ele>231.33</ele>
        <time>2021-05-28T08:35:14Z</time>
      </trkpt>
      <trkpt lat="37.6589582115" lon="-6.9052716717">
        <ele>227.97</ele>
        <time>2021-05-28T08:35:16Z</time>
      </trkpt>
      <trkpt lat="37.6591652445" lon="-6.9053600170">
        <ele>225.09</ele>
        <time>2021-05-28T08:35:17Z</time>
      </trkpt>
      <trkpt lat="37.6593631413" lon="-6.9054822251">
        <ele>223.16</ele>
        <time>2021-05-28T08:35:18Z</time>
      </trkpt>
      <trkpt lat="37.6595527399" lon="-6.9056372903">
        <ele>221.24</ele>
        <time>2021-05-28T08:35:19Z</time>
      </trkpt>
      <trkpt lat="37.6597244013" lon="-6.9058191776">
        <ele>219.32</ele>
        <time>2021-05-28T08:35:20Z</time>
      </trkpt>
      <trkpt lat="37.6598751917" lon="-6.9060236122">
        <ele>218.36</ele>
        <time>2021-05-28T08:35:21Z</time>
      </trkpt>
      <trkpt lat="37.6600107271" lon="-6.9062499236">
        <ele>216.43</ele>
        <time>2021-05-28T08:35:22Z</time>
      </trkpt>
      <trkpt lat="37.6601351984" lon="-6.9064943399">
        <ele>215.47</ele>
        <time>2021-05-28T08:35:23Z</time>
      </trkpt>
      <trkpt lat="37.6602557302" lon="-6.9067427795">
        <ele>214.99</ele>
        <time>2021-05-28T08:35:24Z</time>
      </trkpt>
      <trkpt lat="37.6605050918" lon="-6.9071990903">
        <ele>210.67</ele>
        <time>2021-05-28T08:35:26Z</time>
      </trkpt>
      <trkpt lat="37.6606426388" lon="-6.9073980767">
        <ele>208.74</ele>
        <time>2021-05-28T08:35:27Z</time>
      </trkpt>
      <trkpt lat="37.6607888192" lon="-6.9075720012">
        <ele>205.86</ele>
        <time>2021-05-28T08:35:28Z</time>
      </trkpt>
      <trkpt lat="37.6609531045" lon="-6.9077202771">
        <ele>204.42</ele>
        <time>2021-05-28T08:35:29Z</time>
      </trkpt>
      <trkpt lat="37.6611360814" lon="-6.9078439940">
        <ele>202.98</ele>
        <time>2021-05-28T08:35:30Z</time>
      </trkpt>
      <trkpt lat="37.6613325533" lon="-6.9079439901">
        <ele>202.49</ele>
        <time>2021-05-28T08:35:31Z</time>
      </trkpt>
      <trkpt lat="37.6615433581" lon="-6.9080131408">
        <ele>202.01</ele>
        <time>2021-05-28T08:35:32Z</time>
      </trkpt>
      <trkpt lat="37.6617635507" lon="-6.9080497697">
        <ele>200.09</ele>
        <time>2021-05-28T08:35:33Z</time>
      </trkpt>
      <trkpt lat="37.6619920414" lon="-6.9080546312">
        <ele>198.65</ele>
        <time>2021-05-28T08:35:34Z</time>
      </trkpt>
      <trkpt lat="37.6622300036" lon="-6.9080283120">
        <ele>200.09</ele>
        <time>2021-05-28T08:35:35Z</time>
      </trkpt>
      <trkpt lat="37.6624731626" lon="-6.9079812057">
        <ele>198.17</ele>
        <time>2021-05-28T08:35:36Z</time>
      </trkpt>
      <trkpt lat="37.6629598159" lon="-6.9079047628">
        <ele>193.84</ele>
        <time>2021-05-28T08:35:38Z</time>
      </trkpt>
      <trkpt lat="37.6631980296" lon="-6.9078993145">
        <ele>193.36</ele>
        <time>2021-05-28T08:35:39Z</time>
      </trkpt>
      <trkpt lat="37.6634337287" lon="-6.9079287350">
        <ele>190.96</ele>
        <time>2021-05-28T08:35:40Z</time>
      </trkpt>
      <trkpt lat="37.6636697631" lon="-6.9079994783">
        <ele>190.96</ele>
        <time>2021-05-28T08:35:41Z</time>
      </trkpt>
      <trkpt lat="37.6639079768" lon="-6.9081047550">
        <ele>190.96</ele>
        <time>2021-05-28T08:35:42Z</time>
      </trkpt>
      <trkpt lat="37.6641451009" lon="-6.9082291424">
        <ele>189.52</ele>
        <time>2021-05-28T08:35:43Z</time>
      </trkpt>
      <trkpt lat="37.6646273956" lon="-6.9084744807">
        <ele>186.15</ele>
        <time>2021-05-28T08:35:45Z</time>
      </trkpt>
      <trkpt lat="37.6653666794" lon="-6.9087084197">
        <ele>179.90</ele>
        <time>2021-05-28T08:35:48Z</time>
      </trkpt>
      <trkpt lat="37.6656069886" lon="-6.9087665062">
        <ele>180.38</ele>
        <time>2021-05-28T08:35:49Z</time>
      </trkpt>
      <trkpt lat="37.6660715975" lon="-6.9089133572">
        <ele>175.58</ele>
        <time>2021-05-28T08:35:51Z</time>
      </trkpt>
      <trkpt lat="37.6669602469" lon="-6.9094737712">
        <ele>174.14</ele>
        <time>2021-05-28T08:35:55Z</time>
      </trkpt>
      <trkpt lat="37.6671619993" lon="-6.9096752722">
        <ele>173.17</ele>
        <time>2021-05-28T08:35:56Z</time>
      </trkpt>
      <trkpt lat="37.6673450600" lon="-6.9098932855">
        <ele>172.69</ele>
        <time>2021-05-28T08:35:57Z</time>
      </trkpt>
      <trkpt lat="37.6675106864" lon="-6.9101229496">
        <ele>170.77</ele>
        <time>2021-05-28T08:35:58Z</time>
      </trkpt>
      <trkpt lat="37.6676597167" lon="-6.9103639293">
        <ele>171.73</ele>
        <time>2021-05-28T08:35:59Z</time>
      </trkpt>
      <trkpt lat="37.6677943300" lon="-6.9106180687">
        <ele>172.21</ele>
        <time>2021-05-28T08:36:00Z</time>
      </trkpt>
      <trkpt lat="37.6679123472" lon="-6.9108844455">
        <ele>172.21</ele>
        <time>2021-05-28T08:36:01Z</time>
      </trkpt>
      <trkpt lat="37.6680077333" lon="-6.9111564383">
        <ele>174.62</ele>
        <time>2021-05-28T08:36:02Z</time>
      </trkpt>
      <trkpt lat="37.6680887863" lon="-6.9114269223">
        <ele>173.66</ele>
        <time>2021-05-28T08:36:03Z</time>
      </trkpt>
      <trkpt lat="37.6681673247" lon="-6.9116947241">
        <ele>178.94</ele>
        <time>2021-05-28T08:36:04Z</time>
      </trkpt>
      <trkpt lat="37.6682502218" lon="-6.9119582511">
        <ele>178.46</ele>
        <time>2021-05-28T08:36:05Z</time>
      </trkpt>
      <trkpt lat="37.6684474479" lon="-6.9124510232">
        <ele>182.31</ele>
        <time>2021-05-28T08:36:07Z</time>
      </trkpt>
      <trkpt lat="37.6685731765" lon="-6.9126735628">
        <ele>182.31</ele>
        <time>2021-05-28T08:36:08Z</time>
      </trkpt>
      <trkpt lat="37.6687174290" lon="-6.9128785841">
        <ele>181.83</ele>
        <time>2021-05-28T08:36:09Z</time>
      </trkpt>
      <trkpt lat="37.6688829716" lon="-6.9130665064">
        <ele>182.79</ele>
        <time>2021-05-28T08:36:10Z</time>
      </trkpt>
      <trkpt lat="37.6690626796" lon="-6.9132433645">
        <ele>182.31</ele>
        <time>2021-05-28T08:36:11Z</time>
      </trkpt>
      <trkpt lat="37.6700259279" lon="-6.9141339418">
        <ele>177.98</ele>
        <time>2021-05-28T08:36:16Z</time>
      </trkpt>
      <trkpt lat="37.6702076476" lon="-6.9143419806">
        <ele>177.98</ele>
        <time>2021-05-28T08:36:17Z</time>
      </trkpt>
      <trkpt lat="37.6703778002" lon="-6.9145703875">
        <ele>176.06</ele>
        <time>2021-05-28T08:36:18Z</time>
      </trkpt>
      <trkpt lat="37.6708599273" lon="-6.9153157063">
        <ele>170.29</ele>
        <time>2021-05-28T08:36:21Z</time>
      </trkpt>
      <trkpt lat="37.6711686328" lon="-6.9158060476">
        <ele>166.45</ele>
        <time>2021-05-28T08:36:23Z</time>
      </trkpt>
      <trkpt lat="37.6720871218" lon="-6.9172541052">
        <ele>161.64</ele>
        <time>2021-05-28T08:36:29Z</time>
      </trkpt>
      <trkpt lat="37.6724768803" lon="-6.9178942312">
        <ele>159.72</ele>
        <time>2021-05-28T08:36:32Z</time>
      </trkpt>
      <trkpt lat="37.6725762058" lon="-6.9181126636">
        <ele>159.24</ele>
        <time>2021-05-28T08:36:33Z</time>
      </trkpt>
      <trkpt lat="37.6726591028" lon="-6.9183521345">
        <ele>159.24</ele>
        <time>2021-05-28T08:36:34Z</time>
      </trkpt>
      <trkpt lat="37.6727212127" lon="-6.9186109677">
        <ele>159.72</ele>
        <time>2021-05-28T08:36:35Z</time>
      </trkpt>
      <trkpt lat="37.6727630384" lon="-6.9188847207">
        <ele>160.68</ele>
        <time>2021-05-28T08:36:36Z</time>
      </trkpt>
      <trkpt lat="37.6727907825" lon="-6.9191725552">
        <ele>161.64</ele>
        <time>2021-05-28T08:36:37Z</time>
      </trkpt>
      <trkpt lat="37.6728126593" lon="-6.9194672629">
        <ele>162.12</ele>
        <time>2021-05-28T08:36:38Z</time>
      </trkpt>
      <trkpt lat="37.6729311794" lon="-6.9203405734">
        <ele>161.64</ele>
        <time>2021-05-28T08:36:41Z</time>
      </trkpt>
      <trkpt lat="37.6730139926" lon="-6.9206154160">
        <ele>162.60</ele>
        <time>2021-05-28T08:36:42Z</time>
      </trkpt>
      <trkpt lat="37.6731197722" lon="-6.9208828826">
        <ele>161.64</ele>
        <time>2021-05-28T08:36:43Z</time>
      </trkpt>
      <trkpt lat="37.6737894863" lon="-6.9222510606">
        <ele>164.52</ele>
        <time>2021-05-28T08:36:48Z</time>
      </trkpt>
      <trkpt lat="37.6742087491" lon="-6.9230427314">
        <ele>161.64</ele>
        <time>2021-05-28T08:36:51Z</time>
      </trkpt>
      <trkpt lat="37.6743402611" lon="-6.9232960325">
        <ele>161.16</ele>
        <time>2021-05-28T08:36:52Z</time>
      </trkpt>
      <trkpt lat="37.6745518204" lon="-6.9237058237">
        <ele>157.31</ele>
        <time>2021-05-28T08:36:54Z</time>
      </trkpt>
      <trkpt lat="37.6746980846" lon="-6.9240012020">
        <ele>153.95</ele>
        <time>2021-05-28T08:36:56Z</time>
      </trkpt>
      <trkpt lat="37.6747617032" lon="-6.9241353963">
        <ele>153.95</ele>
        <time>2021-05-28T08:36:57Z</time>
      </trkpt>
      <trkpt lat="37.6750390604" lon="-6.9247554895">
        <ele>157.79</ele>
        <time>2021-05-28T08:37:01Z</time>
      </trkpt>
      <trkpt lat="37.6752112247" lon="-6.9251341000">
        <ele>159.72</ele>
        <time>2021-05-28T08:37:03Z</time>
      </trkpt>
      <trkpt lat="37.6753697265" lon="-6.9254290592">
        <ele>157.31</ele>
        <time>2021-05-28T08:37:05Z</time>
      </trkpt>
      <trkpt lat="37.6760582160" lon="-6.9261494000">
        <ele>159.72</ele>
        <time>2021-05-28T08:37:12Z</time>
      </trkpt>
      <trkpt lat="37.6769469492" lon="-6.9266897812">
        <ele>161.64</ele>
        <time>2021-05-28T08:37:18Z</time>
      </trkpt>
      <trkpt lat="37.6781654265" lon="-6.9275128003">
        <ele>164.52</ele>
        <time>2021-05-28T08:37:26Z</time>
      </trkpt>
      <trkpt lat="37.6783009619" lon="-6.9276591484">
        <ele>164.52</ele>
        <time>2021-05-28T08:37:27Z</time>
      </trkpt>
      <trkpt lat="37.6784188114" lon="-6.9278096873">
        <ele>163.08</ele>
        <time>2021-05-28T08:37:28Z</time>
      </trkpt>
      <trkpt lat="37.6785198972" lon="-6.9279609807">
        <ele>162.60</ele>
        <time>2021-05-28T08:37:29Z</time>
      </trkpt>
      <trkpt lat="37.6786106732" lon="-6.9281203207">
        <ele>163.08</ele>
        <time>2021-05-28T08:37:30Z</time>
      </trkpt>
      <trkpt lat="37.6786949951" lon="-6.9282870367">
        <ele>164.04</ele>
        <time>2021-05-28T08:37:31Z</time>
      </trkpt>
      <trkpt lat="37.6787729468" lon="-6.9284586981">
        <ele>164.52</ele>
        <time>2021-05-28T08:37:32Z</time>
      </trkpt>
      <trkpt lat="37.6791190356" lon="-6.9292510394">
        <ele>166.45</ele>
        <time>2021-05-28T08:37:37Z</time>
      </trkpt>
      <trkpt lat="37.6794434153" lon="-6.9299837016">
        <ele>169.81</ele>
        <time>2021-05-28T08:37:42Z</time>
      </trkpt>
      <trkpt lat="37.6799038332" lon="-6.9310072996">
        <ele>173.17</ele>
        <time>2021-05-28T08:37:48Z</time>
      </trkpt>
      <trkpt lat="37.6800913364" lon="-6.9314170070">
        <ele>176.06</ele>
        <time>2021-05-28T08:37:50Z</time>
      </trkpt>
      <trkpt lat="37.6803765725" lon="-6.9320698734">
        <ele>179.90</ele>
        <time>2021-05-28T08:37:53Z</time>
      </trkpt>
      <trkpt lat="37.6805913169" lon="-6.9328090735">
        <ele>182.79</ele>
        <time>2021-05-28T08:37:56Z</time>
      </trkpt>
      <trkpt lat="37.6806281134" lon="-6.9330826588">
        <ele>185.19</ele>
        <time>2021-05-28T08:37:57Z</time>
      </trkpt>
      <trkpt lat="37.6806463860" lon="-6.9333662186">
        <ele>186.15</ele>
        <time>2021-05-28T08:37:58Z</time>
      </trkpt>
      <trkpt lat="37.6807146985" lon="-6.9344567880">
        <ele>186.63</ele>
        <time>2021-05-28T08:38:02Z</time>
      </trkpt>
      <trkpt lat="37.6807672530" lon="-6.9347113464">
        <ele>188.56</ele>
        <time>2021-05-28T08:38:03Z</time>
      </trkpt>
      <trkpt lat="37.6808430254" lon="-6.9349574391">
        <ele>188.08</ele>
        <time>2021-05-28T08:38:04Z</time>
      </trkpt>
      <trkpt lat="37.6809415128" lon="-6.9351931382">
        <ele>189.04</ele>
        <time>2021-05-28T08:38:05Z</time>
      </trkpt>
      <trkpt lat="37.6810607035" lon="-6.9354194496">
        <ele>190.96</ele>
        <time>2021-05-28T08:38:06Z</time>
      </trkpt>
      <trkpt lat="37.6812005974" lon="-6.9356388040">
        <ele>191.92</ele>
        <time>2021-05-28T08:38:07Z</time>
      </trkpt>
      <trkpt lat="37.6813529804" lon="-6.9358556438">
        <ele>192.40</ele>
        <time>2021-05-28T08:38:08Z</time>
      </trkpt>
      <trkpt lat="37.6823007222" lon="-6.9372030348">
        <ele>195.77</ele>
        <time>2021-05-28T08:38:14Z</time>
      </trkpt>
      <trkpt lat="37.6829317957" lon="-6.9380769320">
        <ele>194.32</ele>
        <time>2021-05-28T08:38:18Z</time>
      </trkpt>
      <trkpt lat="37.6837528870" lon="-6.9391556829">
        <ele>197.69</ele>
        <time>2021-05-28T08:38:23Z</time>
      </trkpt>
      <trkpt lat="37.6841118839" lon="-6.9396269973">
        <ele>202.01</ele>
        <time>2021-05-28T08:38:25Z</time>
      </trkpt>
      <trkpt lat="37.6842946932" lon="-6.9398720842">
        <ele>202.01</ele>
        <time>2021-05-28T08:38:26Z</time>
      </trkpt>
      <trkpt lat="37.6858843211" lon="-6.9423339330">
        <ele>199.13</ele>
        <time>2021-05-28T08:38:36Z</time>
      </trkpt>
      <trkpt lat="37.6859936211" lon="-6.9426160678">
        <ele>200.57</ele>
        <time>2021-05-28T08:38:37Z</time>
      </trkpt>
      <trkpt lat="37.6860849001" lon="-6.9429113623">
        <ele>200.57</ele>
        <time>2021-05-28T08:38:38Z</time>
      </trkpt>
      <trkpt lat="37.6863463316" lon="-6.9438005146">
        <ele>203.94</ele>
        <time>2021-05-28T08:38:41Z</time>
      </trkpt>
      <trkpt lat="37.6872763876" lon="-6.9456908852">
        <ele>202.49</ele>
        <time>2021-05-28T08:38:48Z</time>
      </trkpt>
      <trkpt lat="37.6874220651" lon="-6.9459125027">
        <ele>203.94</ele>
        <time>2021-05-28T08:38:49Z</time>
      </trkpt>
      <trkpt lat="37.6875851769" lon="-6.9461165182">
        <ele>205.38</ele>
        <time>2021-05-28T08:38:50Z</time>
      </trkpt>
      <trkpt lat="37.6877648849" lon="-6.9463009201">
        <ele>206.82</ele>
        <time>2021-05-28T08:38:51Z</time>
      </trkpt>
      <trkpt lat="37.6881463453" lon="-6.9466496911">
        <ele>208.26</ele>
        <time>2021-05-28T08:38:53Z</time>
      </trkpt>
      <trkpt lat="37.6884884946" lon="-6.9470319897">
        <ele>211.15</ele>
        <time>2021-05-28T08:38:55Z</time>
      </trkpt>
      <trkpt lat="37.6886292268" lon="-6.9472557027">
        <ele>211.63</ele>
        <time>2021-05-28T08:38:56Z</time>
      </trkpt>
      <trkpt lat="37.6887532789" lon="-6.9475038908">
        <ele>214.03</ele>
        <time>2021-05-28T08:38:57Z</time>
      </trkpt>
      <trkpt lat="37.6888663508" lon="-6.9477710221">
        <ele>216.91</ele>
        <time>2021-05-28T08:38:58Z</time>
      </trkpt>
      <trkpt lat="37.6889741421" lon="-6.9480508938">
        <ele>219.32</ele>
        <time>2021-05-28T08:38:59Z</time>
      </trkpt>
      <trkpt lat="37.6891794987" lon="-6.9486146607">
        <ele>220.76</ele>
        <time>2021-05-28T08:39:01Z</time>
      </trkpt>
      <trkpt lat="37.6898044534" lon="-6.9503283408">
        <ele>218.36</ele>
        <time>2021-05-28T08:39:07Z</time>
      </trkpt>
      <trkpt lat="37.6900048647" lon="-6.9508835580">
        <ele>214.99</ele>
        <time>2021-05-28T08:39:09Z</time>
      </trkpt>
      <trkpt lat="37.6901921164" lon="-6.9514205027">
        <ele>211.15</ele>
        <time>2021-05-28T08:39:11Z</time>
      </trkpt>
      <trkpt lat="37.6903509535" lon="-6.9519493170">
        <ele>207.78</ele>
        <time>2021-05-28T08:39:13Z</time>
      </trkpt>
      <trkpt lat="37.6904070284" lon="-6.9522271771">
        <ele>206.34</ele>
        <time>2021-05-28T08:39:14Z</time>
      </trkpt>
      <trkpt lat="37.6904437412" lon="-6.9525187835">
        <ele>206.82</ele>
        <time>2021-05-28T08:39:15Z</time>
      </trkpt>
      <trkpt lat="37.6905187592" lon="-6.9534314051">
        <ele>199.61</ele>
        <time>2021-05-28T08:39:18Z</time>
      </trkpt>
      <trkpt lat="37.6905412227" lon="-6.9537420385">
        <ele>199.61</ele>
        <time>2021-05-28T08:39:19Z</time>
      </trkpt>
      <trkpt lat="37.6905615907" lon="-6.9540499058">
        <ele>196.25</ele>
        <time>2021-05-28T08:39:20Z</time>
      </trkpt>
      <trkpt lat="37.6905820426" lon="-6.9543609582">
        <ele>197.21</ele>
        <time>2021-05-28T08:39:21Z</time>
      </trkpt>
      <trkpt lat="37.6906062663" lon="-6.9546804763">
        <ele>193.36</ele>
        <time>2021-05-28T08:39:22Z</time>
      </trkpt>
      <trkpt lat="37.6907276362" lon="-6.9563212339">
        <ele>193.36</ele>
        <time>2021-05-28T08:39:27Z</time>
      </trkpt>
      <trkpt lat="37.6908732299" lon="-6.9581738859">
        <ele>194.80</ele>
        <time>2021-05-28T08:39:33Z</time>
      </trkpt>
      <trkpt lat="37.6910552010" lon="-6.9595486857">
        <ele>193.36</ele>
        <time>2021-05-28T08:39:38Z</time>
      </trkpt>
      <trkpt lat="37.6911392715" lon="-6.9597999752">
        <ele>191.92</ele>
        <time>2021-05-28T08:39:39Z</time>
      </trkpt>
      <trkpt lat="37.6912451349" lon="-6.9600429665">
        <ele>192.88</ele>
        <time>2021-05-28T08:39:40Z</time>
      </trkpt>
      <trkpt lat="37.6913735457" lon="-6.9602709543">
        <ele>191.44</ele>
        <time>2021-05-28T08:39:41Z</time>
      </trkpt>
      <trkpt lat="37.6915271021" lon="-6.9604850281">
        <ele>190.96</ele>
        <time>2021-05-28T08:39:42Z</time>
      </trkpt>
      <trkpt lat="37.6917030383" lon="-6.9606814161">
        <ele>189.52</ele>
        <time>2021-05-28T08:39:43Z</time>
      </trkpt>
      <trkpt lat="37.6918965764" lon="-6.9608542509">
        <ele>189.04</ele>
        <time>2021-05-28T08:39:44Z</time>
      </trkpt>
      <trkpt lat="37.6920943055" lon="-6.9610073045">
        <ele>187.11</ele>
        <time>2021-05-28T08:39:45Z</time>
      </trkpt>
      <trkpt lat="37.6924679708" lon="-6.9613362942">
        <ele>183.75</ele>
        <time>2021-05-28T08:39:47Z</time>
      </trkpt>
      <trkpt lat="37.6926318370" lon="-6.9615340233">
        <ele>183.75</ele>
        <time>2021-05-28T08:39:48Z</time>
      </trkpt>
      <trkpt lat="37.6927809510" lon="-6.9617574010">
        <ele>183.27</ele>
        <time>2021-05-28T08:39:49Z</time>
      </trkpt>
      <trkpt lat="37.6932124514" lon="-6.9625090901">
        <ele>186.15</ele>
        <time>2021-05-28T08:39:52Z</time>
      </trkpt>
      <trkpt lat="37.6936992723" lon="-6.9636735041">
        <ele>190.48</ele>
        <time>2021-05-28T08:39:56Z</time>
      </trkpt>
      <trkpt lat="37.6941691618" lon="-6.9651499763">
        <ele>187.59</ele>
        <time>2021-05-28T08:40:01Z</time>
      </trkpt>
      <trkpt lat="37.6945621055" lon="-6.9662302360">
        <ele>188.56</ele>
        <time>2021-05-28T08:40:05Z</time>
      </trkpt>
      <trkpt lat="37.6946906000" lon="-6.9664744847">
        <ele>187.59</ele>
        <time>2021-05-28T08:40:06Z</time>
      </trkpt>
      <trkpt lat="37.6957030501" lon="-6.9681263901">
        <ele>190.48</ele>
        <time>2021-05-28T08:40:13Z</time>
      </trkpt>
      <trkpt lat="37.6958544273" lon="-6.9683515280">
        <ele>190.96</ele>
        <time>2021-05-28T08:40:14Z</time>
      </trkpt>
      <trkpt lat="37.6960163657" lon="-6.9685491733">
        <ele>191.44</ele>
        <time>2021-05-28T08:40:15Z</time>
      </trkpt>
      <trkpt lat="37.6961950678" lon="-6.9687196612">
        <ele>192.88</ele>
        <time>2021-05-28T08:40:16Z</time>
      </trkpt>
      <trkpt lat="37.6963950600" lon="-6.9688668475">
        <ele>192.88</ele>
        <time>2021-05-28T08:40:17Z</time>
      </trkpt>
      <trkpt lat="37.6966127381" lon="-6.9689996168">
        <ele>194.80</ele>
        <time>2021-05-28T08:40:18Z</time>
      </trkpt>
      <trkpt lat="37.6968434080" lon="-6.9691234175">
        <ele>196.25</ele>
        <time>2021-05-28T08:40:19Z</time>
      </trkpt>
      <trkpt lat="37.6973250322" lon="-6.9693752099">
        <ele>199.61</ele>
        <time>2021-05-28T08:40:21Z</time>
      </trkpt>
      <trkpt lat="37.6980763022" lon="-6.9697867613">
        <ele>202.01</ele>
        <time>2021-05-28T08:40:24Z</time>
      </trkpt>
      <trkpt lat="37.6985391509" lon="-6.9700368773">
        <ele>198.65</ele>
        <time>2021-05-28T08:40:26Z</time>
      </trkpt>
      <trkpt lat="37.6994034927" lon="-6.9705319125">
        <ele>194.80</ele>
        <time>2021-05-28T08:40:30Z</time>
      </trkpt>
      <trkpt lat="37.6996181533" lon="-6.9706910849">
        <ele>194.32</ele>
        <time>2021-05-28T08:40:31Z</time>
      </trkpt>
      <trkpt lat="37.7002253383" lon="-6.9712983537">
        <ele>189.04</ele>
        <time>2021-05-28T08:40:34Z</time>
      </trkpt>
      <trkpt lat="37.7005781326" lon="-6.9718018547">
        <ele>185.19</ele>
        <time>2021-05-28T08:40:36Z</time>
      </trkpt>
      <trkpt lat="37.7011518739" lon="-6.9729858823">
        <ele>182.31</ele>
        <time>2021-05-28T08:40:40Z</time>
      </trkpt>
      <trkpt lat="37.7016738988" lon="-6.9741285034">
        <ele>177.02</ele>
        <time>2021-05-28T08:40:44Z</time>
      </trkpt>
      <trkpt lat="37.7019142918" lon="-6.9746585749">
        <ele>174.14</ele>
        <time>2021-05-28T08:40:46Z</time>
      </trkpt>
      <trkpt lat="37.7022716962" lon="-6.9754499104">
        <ele>170.77</ele>
        <time>2021-05-28T08:40:49Z</time>
      </trkpt>
      <trkpt lat="37.7024646476" lon="-6.9759976678">
        <ele>168.37</ele>
        <time>2021-05-28T08:40:51Z</time>
      </trkpt>
      <trkpt lat="37.7025308646" lon="-6.9762892742">
        <ele>168.37</ele>
        <time>2021-05-28T08:40:52Z</time>
      </trkpt>
      <trkpt lat="37.7025729418" lon="-6.9765908550">
        <ele>168.37</ele>
        <time>2021-05-28T08:40:53Z</time>
      </trkpt>
      <trkpt lat="37.7025929745" lon="-6.9768946152">
        <ele>166.45</ele>
        <time>2021-05-28T08:40:54Z</time>
      </trkpt>
      <trkpt lat="37.7025901247" lon="-6.9771982916">
        <ele>165.96</ele>
        <time>2021-05-28T08:40:55Z</time>
      </trkpt>
      <trkpt lat="37.7025653142" lon="-6.9775002915">
        <ele>166.45</ele>
        <time>2021-05-28T08:40:56Z</time>
      </trkpt>
      <trkpt lat="37.7025180403" lon="-6.9778029621">
        <ele>166.45</ele>
        <time>2021-05-28T08:40:57Z</time>
      </trkpt>
      <trkpt lat="37.7024591994" lon="-6.9781022798">
        <ele>165.96</ele>
        <time>2021-05-28T08:40:58Z</time>
      </trkpt>
      <trkpt lat="37.7023195568" lon="-6.9789536297">
        <ele>162.12</ele>
        <time>2021-05-28T08:41:01Z</time>
      </trkpt>
      <trkpt lat="37.7023136895" lon="-6.9792423863">
        <ele>162.12</ele>
        <time>2021-05-28T08:41:02Z</time>
      </trkpt>
      <trkpt lat="37.7023321297" lon="-6.9795366749">
        <ele>161.16</ele>
        <time>2021-05-28T08:41:03Z</time>
      </trkpt>
      <trkpt lat="37.7023732848" lon="-6.9798367471">
        <ele>160.20</ele>
        <time>2021-05-28T08:41:04Z</time>
      </trkpt>
      <trkpt lat="37.7024288569" lon="-6.9801468775">
        <ele>160.68</ele>
        <time>2021-05-28T08:41:05Z</time>
      </trkpt>
      <trkpt lat="37.7027360536" lon="-6.9817692786">
        <ele>157.79</ele>
        <time>2021-05-28T08:41:10Z</time>
      </trkpt>
      <trkpt lat="37.7027549967" lon="-6.9820781518">
        <ele>156.35</ele>
        <time>2021-05-28T08:41:11Z</time>
      </trkpt>
      <trkpt lat="37.7027470339" lon="-6.9823845103">
        <ele>155.39</ele>
        <time>2021-05-28T08:41:12Z</time>
      </trkpt>
      <trkpt lat="37.7027167752" lon="-6.9826901145">
        <ele>155.39</ele>
        <time>2021-05-28T08:41:13Z</time>
      </trkpt>
      <trkpt lat="37.7025915496" lon="-6.9838614855">
        <ele>152.03</ele>
        <time>2021-05-28T08:41:17Z</time>
      </trkpt>
      <trkpt lat="37.7026080620" lon="-6.9841349870">
        <ele>152.03</ele>
        <time>2021-05-28T08:41:18Z</time>
      </trkpt>
      <trkpt lat="37.7026514802" lon="-6.9843949936">
        <ele>151.06</ele>
        <time>2021-05-28T08:41:19Z</time>
      </trkpt>
      <trkpt lat="37.7027159370" lon="-6.9846440200">
        <ele>150.10</ele>
        <time>2021-05-28T08:41:20Z</time>
      </trkpt>
      <trkpt lat="37.7028001752" lon="-6.9848777074">
        <ele>149.62</ele>
        <time>2021-05-28T08:41:21Z</time>
      </trkpt>
      <trkpt lat="37.7029039431" lon="-6.9850970618">
        <ele>148.66</ele>
        <time>2021-05-28T08:41:22Z</time>
      </trkpt>
      <trkpt lat="37.7030269895" lon="-6.9853042625">
        <ele>148.18</ele>
        <time>2021-05-28T08:41:23Z</time>
      </trkpt>
      <trkpt lat="37.7031726670" lon="-6.9855010696">
        <ele>146.26</ele>
        <time>2021-05-28T08:41:24Z</time>
      </trkpt>
      <trkpt lat="37.7033367008" lon="-6.9856825378">
        <ele>146.26</ele>
        <time>2021-05-28T08:41:25Z</time>
      </trkpt>
      <trkpt lat="37.7035102062" lon="-6.9858567975">
        <ele>145.30</ele>
        <time>2021-05-28T08:41:26Z</time>
      </trkpt>
      <trkpt lat="37.7036888245" lon="-6.9860309735">
        <ele>144.82</ele>
        <time>2021-05-28T08:41:27Z</time>
      </trkpt>
      <trkpt lat="37.7048466168" lon="-6.9872937910">
        <ele>144.34</ele>
        <time>2021-05-28T08:41:34Z</time>
      </trkpt>
      <trkpt lat="37.7049668971" lon="-6.9875145704">
        <ele>144.82</ele>
        <time>2021-05-28T08:41:35Z</time>
      </trkpt>
      <trkpt lat="37.7050655521" lon="-6.9877538737">
        <ele>145.78</ele>
        <time>2021-05-28T08:41:36Z</time>
      </trkpt>
      <trkpt lat="37.7051398158" lon="-6.9880124554">
        <ele>147.22</ele>
        <time>2021-05-28T08:41:37Z</time>
      </trkpt>
      <trkpt lat="37.7051914483" lon="-6.9882853702">
        <ele>149.14</ele>
        <time>2021-05-28T08:41:38Z</time>
      </trkpt>
      <trkpt lat="37.7052217908" lon="-6.9885723665">
        <ele>151.54</ele>
        <time>2021-05-28T08:41:39Z</time>
      </trkpt>
      <trkpt lat="37.7052368782" lon="-6.9888730254">
        <ele>152.99</ele>
        <time>2021-05-28T08:41:40Z</time>
      </trkpt>
      <trkpt lat="37.7052438352" lon="-6.9891784620">
        <ele>154.91</ele>
        <time>2021-05-28T08:41:41Z</time>
      </trkpt>
      <trkpt lat="37.7052818891" lon="-6.9897670392">
        <ele>157.31</ele>
        <time>2021-05-28T08:41:43Z</time>
      </trkpt>
      <trkpt lat="37.7053301688" lon="-6.9900452346">
        <ele>157.79</ele>
        <time>2021-05-28T08:41:44Z</time>
      </trkpt>
      <trkpt lat="37.7054025047" lon="-6.9903155509">
        <ele>159.24</ele>
        <time>2021-05-28T08:41:45Z</time>
      </trkpt>
      <trkpt lat="37.7054929454" lon="-6.9905777369">
        <ele>158.27</ele>
        <time>2021-05-28T08:41:46Z</time>
      </trkpt>
      <trkpt lat="37.7055927739" lon="-6.9908387493">
        <ele>159.24</ele>
        <time>2021-05-28T08:41:47Z</time>
      </trkpt>
      <trkpt lat="37.7059827000" lon="-6.9919244573">
        <ele>161.16</ele>
        <time>2021-05-28T08:41:51Z</time>
      </trkpt>
      <trkpt lat="37.7060417086" lon="-6.9922207575">
        <ele>164.04</ele>
        <time>2021-05-28T08:41:52Z</time>
      </trkpt>
      <trkpt lat="37.7060834505" lon="-6.9925304689">
        <ele>165.48</ele>
        <time>2021-05-28T08:41:53Z</time>
      </trkpt>
      <trkpt lat="37.7062541898" lon="-6.9937320985">
        <ele>163.08</ele>
        <time>2021-05-28T08:41:57Z</time>
      </trkpt>
      <trkpt lat="37.7063346561" lon="-6.9939939491">
        <ele>160.68</ele>
        <time>2021-05-28T08:41:58Z</time>
      </trkpt>
      <trkpt lat="37.7064395975" lon="-6.9942470826">
        <ele>159.24</ele>
        <time>2021-05-28T08:41:59Z</time>
      </trkpt>
      <trkpt lat="37.7065684274" lon="-6.9944915827">
        <ele>158.75</ele>
        <time>2021-05-28T08:42:00Z</time>
      </trkpt>
      <trkpt lat="37.7067141049" lon="-6.9947282877">
        <ele>157.79</ele>
        <time>2021-05-28T08:42:01Z</time>
      </trkpt>
      <trkpt lat="37.7068644762" lon="-6.9949618075">
        <ele>157.79</ele>
        <time>2021-05-28T08:42:02Z</time>
      </trkpt>
      <trkpt lat="37.7071381453" lon="-6.9954528194">
        <ele>156.35</ele>
        <time>2021-05-28T08:42:04Z</time>
      </trkpt>
      <trkpt lat="37.7072506305" lon="-6.9957281649">
        <ele>156.35</ele>
        <time>2021-05-28T08:42:05Z</time>
      </trkpt>
      <trkpt lat="37.7073452622" lon="-6.9960214477">
        <ele>155.87</ele>
        <time>2021-05-28T08:42:06Z</time>
      </trkpt>
      <trkpt lat="37.7074973099" lon="-6.9966083486">
        <ele>151.54</ele>
        <time>2021-05-28T08:42:08Z</time>
      </trkpt>
      <trkpt lat="37.7078663651" lon="-6.9980300870">
        <ele>146.26</ele>
        <time>2021-05-28T08:42:13Z</time>
      </trkpt>
      <trkpt lat="37.7080211788" lon="-6.9985422213">
        <ele>145.30</ele>
        <time>2021-05-28T08:42:15Z</time>
      </trkpt>
      <trkpt lat="37.7087956667" lon="-7.0000001695">
        <ele>145.30</ele>
        <time>2021-05-28T08:42:21Z</time>
      </trkpt>
      <trkpt lat="37.7092974074" lon="-7.0007046685">
        <ele>141.45</ele>
        <time>2021-05-28T08:42:24Z</time>
      </trkpt>
      <trkpt lat="37.7098133974" lon="-7.0014141127">
        <ele>139.05</ele>
        <time>2021-05-28T08:42:27Z</time>
      </trkpt>
      <trkpt lat="37.7111551724" lon="-7.0032985322">
        <ele>142.89</ele>
        <time>2021-05-28T08:42:35Z</time>
      </trkpt>
      <trkpt lat="37.7116376348" lon="-7.0039771311">
        <ele>146.74</ele>
        <time>2021-05-28T08:42:38Z</time>
      </trkpt>
      <trkpt lat="37.7119636070" lon="-7.0044396445">
        <ele>150.10</ele>
        <time>2021-05-28T08:42:40Z</time>
      </trkpt>
      <trkpt lat="37.7122961171" lon="-7.0049099531">
        <ele>151.54</ele>
        <time>2021-05-28T08:42:42Z</time>
      </trkpt>
      <trkpt lat="37.7126360871" lon="-7.0053841174">
        <ele>153.95</ele>
        <time>2021-05-28T08:42:44Z</time>
      </trkpt>
      <trkpt lat="37.7134866826" lon="-7.0065871719">
        <ele>159.72</ele>
        <time>2021-05-28T08:42:49Z</time>
      </trkpt>
      <trkpt lat="37.7140173409" lon="-7.0072968677">
        <ele>164.04</ele>
        <time>2021-05-28T08:42:52Z</time>
      </trkpt>
      <trkpt lat="37.7142066043" lon="-7.0075216703">
        <ele>163.56</ele>
        <time>2021-05-28T08:42:53Z</time>
      </trkpt>
      <trkpt lat="37.7149656694" lon="-7.0083928015">
        <ele>168.37</ele>
        <time>2021-05-28T08:42:57Z</time>
      </trkpt>
      <trkpt lat="37.7151310444" lon="-7.0086296741">
        <ele>167.41</ele>
        <time>2021-05-28T08:42:58Z</time>
      </trkpt>
      <trkpt lat="37.7154065575" lon="-7.0091392100">
        <ele>171.73</ele>
        <time>2021-05-28T08:43:00Z</time>
      </trkpt>
      <trkpt lat="37.7156161051" lon="-7.0097084250">
        <ele>173.66</ele>
        <time>2021-05-28T08:43:02Z</time>
      </trkpt>
      <trkpt lat="37.7156920452" lon="-7.0100140292">
        <ele>173.66</ele>
        <time>2021-05-28T08:43:03Z</time>
      </trkpt>
      <trkpt lat="37.7157493774" lon="-7.0103327930">
        <ele>175.58</ele>
        <time>2021-05-28T08:43:04Z</time>
      </trkpt>
      <trkpt lat="37.7158342022" lon="-7.0109993219">
        <ele>179.90</ele>
        <time>2021-05-28T08:43:06Z</time>
      </trkpt>
      <trkpt lat="37.7159298398" lon="-7.0119965170">
        <ele>184.23</ele>
        <time>2021-05-28T08:43:09Z</time>
      </trkpt>
      <trkpt lat="37.7159580030" lon="-7.0123252552">
        <ele>183.75</ele>
        <time>2021-05-28T08:43:10Z</time>
      </trkpt>
      <trkpt lat="37.7160144132" lon="-7.0133299101">
        <ele>186.63</ele>
        <time>2021-05-28T08:43:13Z</time>
      </trkpt>
      <trkpt lat="37.7160132397" lon="-7.0140168909">
        <ele>187.59</ele>
        <time>2021-05-28T08:43:15Z</time>
      </trkpt>
      <trkpt lat="37.7160165086" lon="-7.0179920085">
        <ele>188.56</ele>
        <time>2021-05-28T08:43:27Z</time>
      </trkpt>
      <trkpt lat="37.7160191070" lon="-7.0214819815">
        <ele>188.08</ele>
        <time>2021-05-28T08:43:38Z</time>
      </trkpt>
      <trkpt lat="37.7158915345" lon="-7.0220864844">
        <ele>188.56</ele>
        <time>2021-05-28T08:43:40Z</time>
      </trkpt>
      <trkpt lat="37.7156782988" lon="-7.0230280235">
        <ele>192.40</ele>
        <time>2021-05-28T08:43:43Z</time>
      </trkpt>
      <trkpt lat="37.7152679209" lon="-7.0252115931">
        <ele>188.56</ele>
        <time>2021-05-28T08:43:50Z</time>
      </trkpt>
      <trkpt lat="37.7152390871" lon="-7.0255397446">
        <ele>189.04</ele>
        <time>2021-05-28T08:43:51Z</time>
      </trkpt>
      <trkpt lat="37.7151029650" lon="-7.0272168797">
        <ele>187.59</ele>
        <time>2021-05-28T08:43:56Z</time>
      </trkpt>
      <trkpt lat="37.7150748018" lon="-7.0275495574">
        <ele>184.23</ele>
        <time>2021-05-28T08:43:57Z</time>
      </trkpt>
      <trkpt lat="37.7149003744" lon="-7.0295135211">
        <ele>180.38</ele>
        <time>2021-05-28T08:44:03Z</time>
      </trkpt>
      <trkpt lat="37.7148717083" lon="-7.0298238192">
        <ele>180.38</ele>
        <time>2021-05-28T08:44:04Z</time>
      </trkpt>
      <trkpt lat="37.7148074191" lon="-7.0311061665">
        <ele>184.23</ele>
        <time>2021-05-28T08:44:08Z</time>
      </trkpt>
      <trkpt lat="37.7148140408" lon="-7.0314316358">
        <ele>184.23</ele>
        <time>2021-05-28T08:44:09Z</time>
      </trkpt>
      <trkpt lat="37.7149106003" lon="-7.0339111704">
        <ele>180.38</ele>
        <time>2021-05-28T08:44:17Z</time>
      </trkpt>
      <trkpt lat="37.7149038110" lon="-7.0344644599">
        <ele>181.35</ele>
        <time>2021-05-28T08:44:19Z</time>
      </trkpt>
      <trkpt lat="37.7148695290" lon="-7.0347373746">
        <ele>182.79</ele>
        <time>2021-05-28T08:44:20Z</time>
      </trkpt>
      <trkpt lat="37.7148116939" lon="-7.0350062661">
        <ele>183.75</ele>
        <time>2021-05-28T08:44:21Z</time>
      </trkpt>
      <trkpt lat="37.7147319820" lon="-7.0352714695">
        <ele>184.23</ele>
        <time>2021-05-28T08:44:22Z</time>
      </trkpt>
      <trkpt lat="37.7146374341" lon="-7.0355333202">
        <ele>185.19</ele>
        <time>2021-05-28T08:44:23Z</time>
      </trkpt>
      <trkpt lat="37.7143719792" lon="-7.0362986717">
        <ele>180.87</ele>
        <time>2021-05-28T08:44:26Z</time>
      </trkpt>
      <trkpt lat="37.7142691333" lon="-7.0368305035">
        <ele>178.94</ele>
        <time>2021-05-28T08:44:28Z</time>
      </trkpt>
      <trkpt lat="37.7142459992" lon="-7.0371007361">
        <ele>179.42</ele>
        <time>2021-05-28T08:44:29Z</time>
      </trkpt>
      <trkpt lat="37.7140888385" lon="-7.0396066736">
        <ele>182.31</ele>
        <time>2021-05-28T08:44:38Z</time>
      </trkpt>
      <trkpt lat="37.7140894253" lon="-7.0406182017">
        <ele>184.71</ele>
        <time>2021-05-28T08:44:42Z</time>
      </trkpt>
      <trkpt lat="37.7141342685" lon="-7.0408674795">
        <ele>185.67</ele>
        <time>2021-05-28T08:44:43Z</time>
      </trkpt>
      <trkpt lat="37.7142046764" lon="-7.0411106385">
        <ele>187.59</ele>
        <time>2021-05-28T08:44:44Z</time>
      </trkpt>
      <trkpt lat="37.7142967097" lon="-7.0413465891">
        <ele>188.08</ele>
        <time>2021-05-28T08:44:45Z</time>
      </trkpt>
      <trkpt lat="37.7144082729" lon="-7.0415742416">
        <ele>188.56</ele>
        <time>2021-05-28T08:44:46Z</time>
      </trkpt>
      <trkpt lat="37.7145365998" lon="-7.0417966973">
        <ele>190.48</ele>
        <time>2021-05-28T08:44:47Z</time>
      </trkpt>
      <trkpt lat="37.7146766614" lon="-7.0420231763">
        <ele>192.40</ele>
        <time>2021-05-28T08:44:48Z</time>
      </trkpt>
      <trkpt lat="37.7151204832" lon="-7.0427389909">
        <ele>197.21</ele>
        <time>2021-05-28T08:44:51Z</time>
      </trkpt>
      <trkpt lat="37.7154172026" lon="-7.0432521310">
        <ele>200.57</ele>
        <time>2021-05-28T08:44:53Z</time>
      </trkpt>
      <trkpt lat="37.7155600302" lon="-7.0435112994">
        <ele>201.05</ele>
        <time>2021-05-28T08:44:54Z</time>
      </trkpt>
      <trkpt lat="37.7161814645" lon="-7.0444512460">
        <ele>203.94</ele>
        <time>2021-05-28T08:44:58Z</time>
      </trkpt>
      <trkpt lat="37.7167295571" lon="-7.0450907853">
        <ele>207.78</ele>
        <time>2021-05-28T08:45:01Z</time>
      </trkpt>
      <trkpt lat="37.7170795016" lon="-7.0454965532">
        <ele>208.26</ele>
        <time>2021-05-28T08:45:03Z</time>
      </trkpt>
      <trkpt lat="37.7174967527" lon="-7.0461633336">
        <ele>209.70</ele>
        <time>2021-05-28T08:45:06Z</time>
      </trkpt>
      <trkpt lat="37.7176066395" lon="-7.0464208256">
        <ele>210.67</ele>
        <time>2021-05-28T08:45:07Z</time>
      </trkpt>
      <trkpt lat="37.7176994272" lon="-7.0466953330">
        <ele>210.67</ele>
        <time>2021-05-28T08:45:08Z</time>
      </trkpt>
      <trkpt lat="37.7177737746" lon="-7.0469855145">
        <ele>213.55</ele>
        <time>2021-05-28T08:45:09Z</time>
      </trkpt>
      <trkpt lat="37.7178304363" lon="-7.0472898614">
        <ele>213.55</ele>
        <time>2021-05-28T08:45:10Z</time>
      </trkpt>
      <trkpt lat="37.7178720105" lon="-7.0476065297">
        <ele>216.91</ele>
        <time>2021-05-28T08:45:11Z</time>
      </trkpt>
      <trkpt lat="37.7179023530" lon="-7.0479296520">
        <ele>217.40</ele>
        <time>2021-05-28T08:45:12Z</time>
      </trkpt>
      <trkpt lat="37.7179292589" lon="-7.0482578874">
        <ele>217.88</ele>
        <time>2021-05-28T08:45:13Z</time>
      </trkpt>
      <trkpt lat="37.7180949692" lon="-7.0494406577">
        <ele>218.36</ele>
        <time>2021-05-28T08:45:17Z</time>
      </trkpt>
      <trkpt lat="37.7181683108" lon="-7.0496807992">
        <ele>216.91</ele>
        <time>2021-05-28T08:45:18Z</time>
      </trkpt>
      <trkpt lat="37.7182577457" lon="-7.0499045961">
        <ele>216.91</ele>
        <time>2021-05-28T08:45:19Z</time>
      </trkpt>
      <trkpt lat="37.7185885794" lon="-7.0505619887">
        <ele>221.24</ele>
        <time>2021-05-28T08:45:22Z</time>
      </trkpt>
      <trkpt lat="37.7189131267" lon="-7.0512860175">
        <ele>225.57</ele>
        <time>2021-05-28T08:45:25Z</time>
      </trkpt>
      <trkpt lat="37.7190919127" lon="-7.0518197771">
        <ele>228.45</ele>
        <time>2021-05-28T08:45:27Z</time>
      </trkpt>
      <trkpt lat="37.7193525899" lon="-7.0526608173">
        <ele>231.81</ele>
        <time>2021-05-28T08:45:30Z</time>
      </trkpt>
      <trkpt lat="37.7194415219" lon="-7.0529494062">
        <ele>235.18</ele>
        <time>2021-05-28T08:45:31Z</time>
      </trkpt>
      <trkpt lat="37.7197159454" lon="-7.0538430847">
        <ele>239.51</ele>
        <time>2021-05-28T08:45:34Z</time>
      </trkpt>
      <trkpt lat="37.7199860942" lon="-7.0547635853">
        <ele>242.39</ele>
        <time>2021-05-28T08:45:37Z</time>
      </trkpt>
      <trkpt lat="37.7201057039" lon="-7.0553980954">
        <ele>244.79</ele>
        <time>2021-05-28T08:45:39Z</time>
      </trkpt>
      <trkpt lat="37.7201367170" lon="-7.0557384007">
        <ele>247.20</ele>
        <time>2021-05-28T08:45:40Z</time>
      </trkpt>
      <trkpt lat="37.7201595157" lon="-7.0560821425">
        <ele>250.56</ele>
        <time>2021-05-28T08:45:41Z</time>
      </trkpt>
      <trkpt lat="37.7202665526" lon="-7.0577901229">
        <ele>253.93</ele>
        <time>2021-05-28T08:45:46Z</time>
      </trkpt>
      <trkpt lat="37.7203548141" lon="-7.0590595622">
        <ele>255.85</ele>
        <time>2021-05-28T08:45:50Z</time>
      </trkpt>
      <trkpt lat="37.7204192709" lon="-7.0600241516">
        <ele>259.21</ele>
        <time>2021-05-28T08:45:53Z</time>
      </trkpt>
      <trkpt lat="37.7204389684" lon="-7.0603293367">
        <ele>256.33</ele>
        <time>2021-05-28T08:45:54Z</time>
      </trkpt>
      <trkpt lat="37.7204683889" lon="-7.0606204402">
        <ele>256.81</ele>
        <time>2021-05-28T08:45:55Z</time>
      </trkpt>
      <trkpt lat="37.7205189317" lon="-7.0609029103">
        <ele>257.29</ele>
        <time>2021-05-28T08:45:56Z</time>
      </trkpt>
      <trkpt lat="37.7205966320" lon="-7.0611804351">
        <ele>256.33</ele>
        <time>2021-05-28T08:45:57Z</time>
      </trkpt>
      <trkpt lat="37.7206976339" lon="-7.0614530984">
        <ele>256.81</ele>
        <time>2021-05-28T08:45:58Z</time>
      </trkpt>
      <trkpt lat="37.7208202612" lon="-7.0617216546">
        <ele>257.29</ele>
        <time>2021-05-28T08:45:59Z</time>
      </trkpt>
      <trkpt lat="37.7209583949" lon="-7.0619923063">
        <ele>256.81</ele>
        <time>2021-05-28T08:46:00Z</time>
      </trkpt>
      <trkpt lat="37.7227866556" lon="-7.0654393639">
        <ele>259.21</ele>
        <time>2021-05-28T08:46:12Z</time>
      </trkpt>
      <trkpt lat="37.7230958641" lon="-7.0660283603">
        <ele>260.65</ele>
        <time>2021-05-28T08:46:14Z</time>
      </trkpt>
      <trkpt lat="37.7241370641" lon="-7.0680364128">
        <ele>264.02</ele>
        <time>2021-05-28T08:46:21Z</time>
      </trkpt>
      <trkpt lat="37.7243687399" lon="-7.0685760397">
        <ele>262.10</ele>
        <time>2021-05-28T08:46:23Z</time>
      </trkpt>
      <trkpt lat="37.7244455181" lon="-7.0688556600">
        <ele>261.62</ele>
        <time>2021-05-28T08:46:24Z</time>
      </trkpt>
      <trkpt lat="37.7244932111" lon="-7.0691533852">
        <ele>262.58</ele>
        <time>2021-05-28T08:46:25Z</time>
      </trkpt>
      <trkpt lat="37.7245150041" lon="-7.0694677904">
        <ele>264.98</ele>
        <time>2021-05-28T08:46:26Z</time>
      </trkpt>
      <trkpt lat="37.7245167643" lon="-7.0697904937">
        <ele>266.42</ele>
        <time>2021-05-28T08:46:27Z</time>
      </trkpt>
      <trkpt lat="37.7245082986" lon="-7.0701214951">
        <ele>266.90</ele>
        <time>2021-05-28T08:46:28Z</time>
      </trkpt>
      <trkpt lat="37.7244968154" lon="-7.0704514068">
        <ele>266.90</ele>
        <time>2021-05-28T08:46:29Z</time>
      </trkpt>
      <trkpt lat="37.7245117351" lon="-7.0717115421">
        <ele>264.98</ele>
        <time>2021-05-28T08:46:33Z</time>
      </trkpt>
      <trkpt lat="37.7245605178" lon="-7.0720146317">
        <ele>264.50</ele>
        <time>2021-05-28T08:46:34Z</time>
      </trkpt>
      <trkpt lat="37.7246282436" lon="-7.0723100938">
        <ele>263.54</ele>
        <time>2021-05-28T08:46:35Z</time>
      </trkpt>
      <trkpt lat="37.7248563152" lon="-7.0731693227">
        <ele>261.14</ele>
        <time>2021-05-28T08:46:38Z</time>
      </trkpt>
      <trkpt lat="37.7252514381" lon="-7.0746719465">
        <ele>259.21</ele>
        <time>2021-05-28T08:46:43Z</time>
      </trkpt>
      <trkpt lat="37.7256486565" lon="-7.0765841100">
        <ele>257.77</ele>
        <time>2021-05-28T08:46:49Z</time>
      </trkpt>
      <trkpt lat="37.7258013748" lon="-7.0775165129">
        <ele>253.93</ele>
        <time>2021-05-28T08:46:52Z</time>
      </trkpt>
      <trkpt lat="37.7258502413" lon="-7.0778079517">
        <ele>253.93</ele>
        <time>2021-05-28T08:46:53Z</time>
      </trkpt>
      <trkpt lat="37.7260821685" lon="-7.0791953243">
        <ele>250.56</ele>
        <time>2021-05-28T08:46:58Z</time>
      </trkpt>
      <trkpt lat="37.7264558338" lon="-7.0812023710">
        <ele>247.68</ele>
        <time>2021-05-28T08:47:06Z</time>
      </trkpt>
      <trkpt lat="37.7265416645" lon="-7.0814488828">
        <ele>246.72</ele>
        <time>2021-05-28T08:47:07Z</time>
      </trkpt>
      <trkpt lat="37.7266476955" lon="-7.0816798881">
        <ele>245.75</ele>
        <time>2021-05-28T08:47:08Z</time>
      </trkpt>
      <trkpt lat="37.7267698199" lon="-7.0818891004">
        <ele>244.79</ele>
        <time>2021-05-28T08:47:09Z</time>
      </trkpt>
      <trkpt lat="37.7269103006" lon="-7.0820830576">
        <ele>242.39</ele>
        <time>2021-05-28T08:47:10Z</time>
      </trkpt>
      <trkpt lat="37.7270694729" lon="-7.0822634362">
        <ele>242.87</ele>
        <time>2021-05-28T08:47:11Z</time>
      </trkpt>
      <trkpt lat="37.7272502705" lon="-7.0824233629">
        <ele>240.47</ele>
        <time>2021-05-28T08:47:12Z</time>
      </trkpt>
      <trkpt lat="37.7274521068" lon="-7.0825681183">
        <ele>241.43</ele>
        <time>2021-05-28T08:47:13Z</time>
      </trkpt>
      <trkpt lat="37.7276735567" lon="-7.0826955233">
        <ele>240.95</ele>
        <time>2021-05-28T08:47:14Z</time>
      </trkpt>
      <trkpt lat="37.7279070765" lon="-7.0828104392">
        <ele>239.99</ele>
        <time>2021-05-28T08:47:15Z</time>
      </trkpt>
      <trkpt lat="37.7288153395" lon="-7.0833622199">
        <ele>235.66</ele>
        <time>2021-05-28T08:47:19Z</time>
      </trkpt>
      <trkpt lat="37.7291823830" lon="-7.0837427583">
        <ele>233.74</ele>
        <time>2021-05-28T08:47:21Z</time>
      </trkpt>
      <trkpt lat="37.7293428127" lon="-7.0839589275">
        <ele>233.74</ele>
        <time>2021-05-28T08:47:22Z</time>
      </trkpt>
      <trkpt lat="37.7294867299" lon="-7.0841893461">
        <ele>233.26</ele>
        <time>2021-05-28T08:47:23Z</time>
      </trkpt>
      <trkpt lat="37.7296101116" lon="-7.0844299067">
        <ele>231.33</ele>
        <time>2021-05-28T08:47:24Z</time>
      </trkpt>
      <trkpt lat="37.7297093533" lon="-7.0846731495">
        <ele>229.89</ele>
        <time>2021-05-28T08:47:25Z</time>
      </trkpt>
      <trkpt lat="37.7297881432" lon="-7.0849130396">
        <ele>230.37</ele>
        <time>2021-05-28T08:47:26Z</time>
      </trkpt>
      <trkpt lat="37.7298503369" lon="-7.0851471461">
        <ele>228.93</ele>
        <time>2021-05-28T08:47:27Z</time>
      </trkpt>
      <trkpt lat="37.7299000416" lon="-7.0853810012">
        <ele>227.97</ele>
        <time>2021-05-28T08:47:28Z</time>
      </trkpt>
      <trkpt lat="37.7299360000" lon="-7.0856208913">
        <ele>227.01</ele>
        <time>2021-05-28T08:47:29Z</time>
      </trkpt>
      <trkpt lat="37.7299593855" lon="-7.0858684089">
        <ele>226.53</ele>
        <time>2021-05-28T08:47:30Z</time>
      </trkpt>
      <trkpt lat="37.7299682703" lon="-7.0861209556">
        <ele>226.53</ele>
        <time>2021-05-28T08:47:31Z</time>
      </trkpt>
      <trkpt lat="37.7299641632" lon="-7.0863781124">
        <ele>227.49</ele>
        <time>2021-05-28T08:47:32Z</time>
      </trkpt>
      <trkpt lat="37.7299489919" lon="-7.0866359398">
        <ele>227.49</ele>
        <time>2021-05-28T08:47:33Z</time>
      </trkpt>
      <trkpt lat="37.7297143824" lon="-7.0892643370">
        <ele>227.01</ele>
        <time>2021-05-28T08:47:43Z</time>
      </trkpt>
      <trkpt lat="37.7300394326" lon="-7.0907856524">
        <ele>226.53</ele>
        <time>2021-05-28T08:47:50Z</time>
      </trkpt>
      <trkpt lat="37.7302360721" lon="-7.0914025605">
        <ele>222.68</ele>
        <time>2021-05-28T08:47:53Z</time>
      </trkpt>
      <trkpt lat="37.7303540893" lon="-7.0919564366">
        <ele>218.84</ele>
        <time>2021-05-28T08:47:56Z</time>
      </trkpt>
      <trkpt lat="37.7303566039" lon="-7.0921166148">
        <ele>217.40</ele>
        <time>2021-05-28T08:47:57Z</time>
      </trkpt>
      <trkpt lat="37.7303438634" lon="-7.0922648069">
        <ele>216.43</ele>
        <time>2021-05-28T08:47:58Z</time>
      </trkpt>
      <trkpt lat="37.7302970085" lon="-7.0926243905">
        <ele>212.59</ele>
        <time>2021-05-28T08:48:01Z</time>
      </trkpt>
      <trkpt lat="37.7302881237" lon="-7.0928369556">
        <ele>210.67</ele>
        <time>2021-05-28T08:48:07Z</time>
      </trkpt>
      <trkpt lat="37.7302815858" lon="-7.0928567369">
        <ele>210.67</ele>
        <time>2021-05-28T08:48:35Z</time>
      </trkpt>
      <trkpt lat="37.7302697673" lon="-7.0928785298">
        <ele>211.15</ele>
        <time>2021-05-28T08:49:02Z</time>
      </trkpt>
      <trkpt lat="37.7302828431" lon="-7.0928962994">
        <ele>211.63</ele>
        <time>2021-05-28T08:49:31Z</time>
      </trkpt>
      <trkpt lat="37.7303322125" lon="-7.0929745864">
        <ele>211.63</ele>
        <time>2021-05-28T08:49:36Z</time>
      </trkpt>
      <trkpt lat="37.7305055503" lon="-7.0931498520">
        <ele>210.67</ele>
        <time>2021-05-28T08:49:40Z</time>
      </trkpt>
      <trkpt lat="37.7305695042" lon="-7.0931997243">
        <ele>210.19</ele>
        <time>2021-05-28T08:49:41Z</time>
      </trkpt>
      <trkpt lat="37.7306467853" lon="-7.0932467468">
        <ele>210.67</ele>
        <time>2021-05-28T08:49:42Z</time>
      </trkpt>
      <trkpt lat="37.7307362203" lon="-7.0932870638">
        <ele>210.67</ele>
        <time>2021-05-28T08:49:43Z</time>
      </trkpt>
      <trkpt lat="37.7308450174" lon="-7.0933272969">
        <ele>211.63</ele>
        <time>2021-05-28T08:49:44Z</time>
      </trkpt>
      <trkpt lat="37.7315139771" lon="-7.0935772453">
        <ele>212.59</ele>
        <time>2021-05-28T08:49:49Z</time>
      </trkpt>
      <trkpt lat="37.7319544461" lon="-7.0937418658">
        <ele>210.67</ele>
        <time>2021-05-28T08:49:52Z</time>
      </trkpt>
      <trkpt lat="37.7325105015" lon="-7.0940533374">
        <ele>212.59</ele>
        <time>2021-05-28T08:49:56Z</time>
      </trkpt>
      <trkpt lat="37.7326378226" lon="-7.0941700973">
        <ele>211.63</ele>
        <time>2021-05-28T08:49:57Z</time>
      </trkpt>
      <trkpt lat="37.7327562589" lon="-7.0943016093">
        <ele>211.63</ele>
        <time>2021-05-28T08:49:58Z</time>
      </trkpt>
      <trkpt lat="37.7328700852" lon="-7.0944484603">
        <ele>211.15</ele>
        <time>2021-05-28T08:49:59Z</time>
      </trkpt>
      <trkpt lat="37.7329808101" lon="-7.0946073812">
        <ele>212.11</ele>
        <time>2021-05-28T08:50:00Z</time>
      </trkpt>
      <trkpt lat="37.7337551303" lon="-7.0958639961">
        <ele>214.03</ele>
        <time>2021-05-28T08:50:07Z</time>
      </trkpt>
      <trkpt lat="37.7342705335" lon="-7.0966938883">
        <ele>216.91</ele>
        <time>2021-05-28T08:50:11Z</time>
      </trkpt>
      <trkpt lat="37.7349391580" lon="-7.0977813564">
        <ele>215.47</ele>
        <time>2021-05-28T08:50:16Z</time>
      </trkpt>
      <trkpt lat="37.7366238367" lon="-7.1003744658">
        <ele>215.47</ele>
        <time>2021-05-28T08:50:28Z</time>
      </trkpt>
      <trkpt lat="37.7368013654" lon="-7.1005450375">
        <ele>215.47</ele>
        <time>2021-05-28T08:50:29Z</time>
      </trkpt>
      <trkpt lat="37.7369912993" lon="-7.1006960794">
        <ele>215.95</ele>
        <time>2021-05-28T08:50:30Z</time>
      </trkpt>
      <trkpt lat="37.7373979893" lon="-7.1009753644">
        <ele>216.91</ele>
        <time>2021-05-28T08:50:32Z</time>
      </trkpt>
      <trkpt lat="37.7380302362" lon="-7.1014003269">
        <ele>221.24</ele>
        <time>2021-05-28T08:50:35Z</time>
      </trkpt>
      <trkpt lat="37.7382438071" lon="-7.1015444119">
        <ele>221.72</ele>
        <time>2021-05-28T08:50:36Z</time>
      </trkpt>
      <trkpt lat="37.7395572513" lon="-7.1025610529">
        <ele>223.16</ele>
        <time>2021-05-28T08:50:43Z</time>
      </trkpt>
      <trkpt lat="37.7396916132" lon="-7.1027494781">
        <ele>223.64</ele>
        <time>2021-05-28T08:50:44Z</time>
      </trkpt>
      <trkpt lat="37.7398122288" lon="-7.1029597800">
        <ele>224.12</ele>
        <time>2021-05-28T08:50:45Z</time>
      </trkpt>
      <trkpt lat="37.7399219479" lon="-7.1031900309">
        <ele>225.57</ele>
        <time>2021-05-28T08:50:46Z</time>
      </trkpt>
      <trkpt lat="37.7400215250" lon="-7.1034393925">
        <ele>225.57</ele>
        <time>2021-05-28T08:50:47Z</time>
      </trkpt>
      <trkpt lat="37.7401148155" lon="-7.1036985610">
        <ele>227.01</ele>
        <time>2021-05-28T08:50:48Z</time>
      </trkpt>
      <trkpt lat="37.7404639218" lon="-7.1047571115">
        <ele>230.85</ele>
        <time>2021-05-28T08:50:52Z</time>
      </trkpt>
      <trkpt lat="37.7407433745" lon="-7.1055719163">
        <ele>233.74</ele>
        <time>2021-05-28T08:50:55Z</time>
      </trkpt>
      <trkpt lat="37.7418260649" lon="-7.1080709808">
        <ele>233.74</ele>
        <time>2021-05-28T08:51:04Z</time>
      </trkpt>
      <trkpt lat="37.7422838006" lon="-7.1089274436">
        <ele>236.62</ele>
        <time>2021-05-28T08:51:07Z</time>
      </trkpt>
      <trkpt lat="37.7427477390" lon="-7.1097962279">
        <ele>240.47</ele>
        <time>2021-05-28T08:51:10Z</time>
      </trkpt>
      <trkpt lat="37.7431974281" lon="-7.1106495894">
        <ele>242.39</ele>
        <time>2021-05-28T08:51:13Z</time>
      </trkpt>
      <trkpt lat="37.7445873991" lon="-7.1133285295">
        <ele>243.35</ele>
        <time>2021-05-28T08:51:23Z</time>
      </trkpt>
      <trkpt lat="37.7458017692" lon="-7.1156208962">
        <ele>240.95</ele>
        <time>2021-05-28T08:51:31Z</time>
      </trkpt>
      <trkpt lat="37.7466769237" lon="-7.1172950137">
        <ele>237.58</ele>
        <time>2021-05-28T08:51:37Z</time>
      </trkpt>
      <trkpt lat="37.7477777191" lon="-7.1192611568">
        <ele>238.54</ele>
        <time>2021-05-28T08:51:45Z</time>
      </trkpt>
      <trkpt lat="37.7482703235" lon="-7.1199415158">
        <ele>236.62</ele>
        <time>2021-05-28T08:51:48Z</time>
      </trkpt>
      <trkpt lat="37.7494485676" lon="-7.1214943472">
        <ele>232.78</ele>
        <time>2021-05-28T08:51:55Z</time>
      </trkpt>
      <trkpt lat="37.7498412598" lon="-7.1222723555">
        <ele>229.89</ele>
        <time>2021-05-28T08:51:58Z</time>
      </trkpt>
      <trkpt lat="37.7503378876" lon="-7.1233492624">
        <ele>225.57</ele>
        <time>2021-05-28T08:52:02Z</time>
      </trkpt>
      <trkpt lat="37.7515043970" lon="-7.1258261148">
        <ele>229.41</ele>
        <time>2021-05-28T08:52:11Z</time>
      </trkpt>
      <trkpt lat="37.7522946429" lon="-7.1275037527">
        <ele>230.37</ele>
        <time>2021-05-28T08:52:18Z</time>
      </trkpt>
      <trkpt lat="37.7524267416" lon="-7.1277163178">
        <ele>231.81</ele>
        <time>2021-05-28T08:52:19Z</time>
      </trkpt>
      <trkpt lat="37.7525765263" lon="-7.1279181540">
        <ele>231.33</ele>
        <time>2021-05-28T08:52:20Z</time>
      </trkpt>
      <trkpt lat="37.7527450863" lon="-7.1281040646">
        <ele>231.33</ele>
        <time>2021-05-28T08:52:21Z</time>
      </trkpt>
      <trkpt lat="37.7529304102" lon="-7.1282760613">
        <ele>230.85</ele>
        <time>2021-05-28T08:52:22Z</time>
      </trkpt>
      <trkpt lat="37.7531301510" lon="-7.1284328029">
        <ele>231.81</ele>
        <time>2021-05-28T08:52:23Z</time>
      </trkpt>
      <trkpt lat="37.7533413749" lon="-7.1285774745">
        <ele>231.81</ele>
        <time>2021-05-28T08:52:24Z</time>
      </trkpt>
      <trkpt lat="37.7540156152" lon="-7.1290030237">
        <ele>235.66</ele>
        <time>2021-05-28T08:52:27Z</time>
      </trkpt>
      <trkpt lat="37.7542496379" lon="-7.1291518025">
        <ele>236.14</ele>
        <time>2021-05-28T08:52:28Z</time>
      </trkpt>
      <trkpt lat="37.7557354979" lon="-7.1302142926">
        <ele>234.70</ele>
        <time>2021-05-28T08:52:35Z</time>
      </trkpt>
      <trkpt lat="37.7559178881" lon="-7.1304243430">
        <ele>236.14</ele>
        <time>2021-05-28T08:52:36Z</time>
      </trkpt>
      <trkpt lat="37.7569893468" lon="-7.1319366060">
        <ele>240.95</ele>
        <time>2021-05-28T08:52:42Z</time>
      </trkpt>
      <trkpt lat="37.7580740489" lon="-7.1332270838">
        <ele>240.95</ele>
        <time>2021-05-28T08:52:48Z</time>
      </trkpt>
      <trkpt lat="37.7594983857" lon="-7.1339263022">
        <ele>242.39</ele>
        <time>2021-05-28T08:52:54Z</time>
      </trkpt>
      <trkpt lat="37.7611003350" lon="-7.1344283782">
        <ele>240.47</ele>
        <time>2021-05-28T08:53:01Z</time>
      </trkpt>
      <trkpt lat="37.7613009140" lon="-7.1345639974">
        <ele>240.47</ele>
        <time>2021-05-28T08:53:02Z</time>
      </trkpt>
      <trkpt lat="37.7614950389" lon="-7.1347309649">
        <ele>241.43</ele>
        <time>2021-05-28T08:53:03Z</time>
      </trkpt>
      <trkpt lat="37.7616845537" lon="-7.1349232458">
        <ele>242.39</ele>
        <time>2021-05-28T08:53:04Z</time>
      </trkpt>
      <trkpt lat="37.7618710510" lon="-7.1351316199">
        <ele>243.35</ele>
        <time>2021-05-28T08:53:05Z</time>
      </trkpt>
      <trkpt lat="37.7620593086" lon="-7.1353451908">
        <ele>246.23</ele>
        <time>2021-05-28T08:53:06Z</time>
      </trkpt>
      <trkpt lat="37.7622448001" lon="-7.1355558280">
        <ele>246.23</ele>
        <time>2021-05-28T08:53:07Z</time>
      </trkpt>
      <trkpt lat="37.7634455077" lon="-7.1367709525">
        <ele>245.75</ele>
        <time>2021-05-28T08:53:14Z</time>
      </trkpt>
      <trkpt lat="37.7636489365" lon="-7.1368857846">
        <ele>247.20</ele>
        <time>2021-05-28T08:53:15Z</time>
      </trkpt>
      <trkpt lat="37.7638697997" lon="-7.1369877923">
        <ele>249.12</ele>
        <time>2021-05-28T08:53:16Z</time>
      </trkpt>
      <trkpt lat="37.7643393539" lon="-7.1371780615">
        <ele>249.60</ele>
        <time>2021-05-28T08:53:18Z</time>
      </trkpt>
      <trkpt lat="37.7656963840" lon="-7.1379455086">
        <ele>252.00</ele>
        <time>2021-05-28T08:53:24Z</time>
      </trkpt>
      <trkpt lat="37.7661433071" lon="-7.1382626798">
        <ele>253.44</ele>
        <time>2021-05-28T08:53:26Z</time>
      </trkpt>
      <trkpt lat="37.7671032865" lon="-7.1390160453">
        <ele>254.41</ele>
        <time>2021-05-28T08:53:31Z</time>
      </trkpt>
      <trkpt lat="37.7672624588" lon="-7.1392005309">
        <ele>255.85</ele>
        <time>2021-05-28T08:53:32Z</time>
      </trkpt>
      <trkpt lat="37.7674078010" lon="-7.1394052170">
        <ele>256.81</ele>
        <time>2021-05-28T08:53:33Z</time>
      </trkpt>
      <trkpt lat="37.7675416600" lon="-7.1396328695">
        <ele>257.77</ele>
        <time>2021-05-28T08:53:34Z</time>
      </trkpt>
      <trkpt lat="37.7676673047" lon="-7.1398731787">
        <ele>258.73</ele>
        <time>2021-05-28T08:53:35Z</time>
      </trkpt>
      <trkpt lat="37.7680507768" lon="-7.1405211836">
        <ele>258.73</ele>
        <time>2021-05-28T08:53:38Z</time>
      </trkpt>
      <trkpt lat="37.7682051715" lon="-7.1407113690">
        <ele>260.65</ele>
        <time>2021-05-28T08:53:39Z</time>
      </trkpt>
      <trkpt lat="37.7683796827" lon="-7.1408966929">
        <ele>261.62</ele>
        <time>2021-05-28T08:53:40Z</time>
      </trkpt>
      <trkpt lat="37.7691600379" lon="-7.1416538302">
        <ele>264.98</ele>
        <time>2021-05-28T08:53:44Z</time>
      </trkpt>
      <trkpt lat="37.7695687395" lon="-7.1420532279">
        <ele>265.94</ele>
        <time>2021-05-28T08:53:46Z</time>
      </trkpt>
      <trkpt lat="37.7714042924" lon="-7.1440179460">
        <ele>265.46</ele>
        <time>2021-05-28T08:53:56Z</time>
      </trkpt>
      <trkpt lat="37.7718754392" lon="-7.1448929328">
        <ele>264.02</ele>
        <time>2021-05-28T08:54:00Z</time>
      </trkpt>
      <trkpt lat="37.7724983823" lon="-7.1459371503">
        <ele>266.42</ele>
        <time>2021-05-28T08:54:05Z</time>
      </trkpt>
      <trkpt lat="37.7726677805" lon="-7.1461320296">
        <ele>268.83</ele>
        <time>2021-05-28T08:54:06Z</time>
      </trkpt>
      <trkpt lat="37.7730406914" lon="-7.1465147473">
        <ele>270.27</ele>
        <time>2021-05-28T08:54:08Z</time>
      </trkpt>
      <trkpt lat="37.7735782228" lon="-7.1470458247">
        <ele>267.86</ele>
        <time>2021-05-28T08:54:11Z</time>
      </trkpt>
      <trkpt lat="37.7745837998" lon="-7.1483761165">
        <ele>265.94</ele>
        <time>2021-05-28T08:54:17Z</time>
      </trkpt>
      <trkpt lat="37.7759882715" lon="-7.1505019348">
        <ele>262.58</ele>
        <time>2021-05-28T08:54:25Z</time>
      </trkpt>
      <trkpt lat="37.7770952694" lon="-7.1520571131">
        <ele>264.02</ele>
        <time>2021-05-28T08:54:31Z</time>
      </trkpt>
      <trkpt lat="37.7784104738" lon="-7.1536490880">
        <ele>264.98</ele>
        <time>2021-05-28T08:54:38Z</time>
      </trkpt>
      <trkpt lat="37.7798338886" lon="-7.1552722435">
        <ele>263.54</ele>
        <time>2021-05-28T08:54:46Z</time>
      </trkpt>
      <trkpt lat="37.7799511515" lon="-7.1554854792">
        <ele>263.54</ele>
        <time>2021-05-28T08:54:47Z</time>
      </trkpt>
      <trkpt lat="37.7800524887" lon="-7.1557201724">
        <ele>263.54</ele>
        <time>2021-05-28T08:54:48Z</time>
      </trkpt>
      <trkpt lat="37.7801436000" lon="-7.1559748147">
        <ele>264.50</ele>
        <time>2021-05-28T08:54:49Z</time>
      </trkpt>
      <trkpt lat="37.7802264132" lon="-7.1562319715">
        <ele>264.02</ele>
        <time>2021-05-28T08:54:50Z</time>
      </trkpt>
      <trkpt lat="37.7803795505" lon="-7.1567323711">
        <ele>261.14</ele>
        <time>2021-05-28T08:54:52Z</time>
      </trkpt>
      <trkpt lat="37.7804572508" lon="-7.1570087224">
        <ele>264.98</ele>
        <time>2021-05-28T08:54:53Z</time>
      </trkpt>
      <trkpt lat="37.7806301694" lon="-7.1576168295">
        <ele>268.83</ele>
        <time>2021-05-28T08:54:55Z</time>
      </trkpt>
      <trkpt lat="37.7807227056" lon="-7.1579480823">
        <ele>272.19</ele>
        <time>2021-05-28T08:54:56Z</time>
      </trkpt>
      <trkpt lat="37.7808123920" lon="-7.1582852025">
        <ele>270.27</ele>
        <time>2021-05-28T08:54:57Z</time>
      </trkpt>
      <trkpt lat="37.7809832152" lon="-7.1589228138">
        <ele>269.31</ele>
        <time>2021-05-28T08:54:59Z</time>
      </trkpt>
      <trkpt lat="37.7812095266" lon="-7.1598532051">
        <ele>267.86</ele>
        <time>2021-05-28T08:55:02Z</time>
      </trkpt>
      <trkpt lat="37.7814101893" lon="-7.1607166249">
        <ele>265.46</ele>
        <time>2021-05-28T08:55:05Z</time>
      </trkpt>
      <trkpt lat="37.7815345768" lon="-7.1612440143">
        <ele>261.62</ele>
        <time>2021-05-28T08:55:07Z</time>
      </trkpt>
      <trkpt lat="37.7816804219" lon="-7.1617159154">
        <ele>258.25</ele>
        <time>2021-05-28T08:55:09Z</time>
      </trkpt>
      <trkpt lat="37.7817786578" lon="-7.1619211882">
        <ele>256.81</ele>
        <time>2021-05-28T08:55:10Z</time>
      </trkpt>
      <trkpt lat="37.7818898857" lon="-7.1620963700">
        <ele>256.33</ele>
        <time>2021-05-28T08:55:11Z</time>
      </trkpt>
      <trkpt lat="37.7820149437" lon="-7.1622397006">
        <ele>255.37</ele>
        <time>2021-05-28T08:55:12Z</time>
      </trkpt>
      <trkpt lat="37.7821616270" lon="-7.1623702068">
        <ele>254.41</ele>
        <time>2021-05-28T08:55:13Z</time>
      </trkpt>
      <trkpt lat="37.7823290974" lon="-7.1625021379">
        <ele>255.85</ele>
        <time>2021-05-28T08:55:14Z</time>
      </trkpt>
      <trkpt lat="37.7827091329" lon="-7.1627799980">
        <ele>261.14</ele>
        <time>2021-05-28T08:55:16Z</time>
      </trkpt>
      <trkpt lat="37.7831342630" lon="-7.1630817465">
        <ele>264.98</ele>
        <time>2021-05-28T08:55:18Z</time>
      </trkpt>
      <trkpt lat="37.7837884706" lon="-7.1635511331">
        <ele>269.31</ele>
        <time>2021-05-28T08:55:21Z</time>
      </trkpt>
      <trkpt lat="37.7844410017" lon="-7.1640975494">
        <ele>273.15</ele>
        <time>2021-05-28T08:55:24Z</time>
      </trkpt>
      <trkpt lat="37.7848677244" lon="-7.1645179857">
        <ele>276.52</ele>
        <time>2021-05-28T08:55:26Z</time>
      </trkpt>
      <trkpt lat="37.7855126280" lon="-7.1651708521">
        <ele>279.88</ele>
        <time>2021-05-28T08:55:29Z</time>
      </trkpt>
      <trkpt lat="37.7859325614" lon="-7.1655943897">
        <ele>280.84</ele>
        <time>2021-05-28T08:55:31Z</time>
      </trkpt>
      <trkpt lat="37.7870743442" lon="-7.1667495836">
        <ele>280.84</ele>
        <time>2021-05-28T08:55:37Z</time>
      </trkpt>
      <trkpt lat="37.7881740499" lon="-7.1682651155">
        <ele>283.73</ele>
        <time>2021-05-28T08:55:44Z</time>
      </trkpt>
      <trkpt lat="37.7885040455" lon="-7.1690952592">
        <ele>287.09</ele>
        <time>2021-05-28T08:55:47Z</time>
      </trkpt>
      <trkpt lat="37.7888227254" lon="-7.1705019102">
        <ele>290.94</ele>
        <time>2021-05-28T08:55:52Z</time>
      </trkpt>
      <trkpt lat="37.7888648864" lon="-7.1708099451">
        <ele>290.94</ele>
        <time>2021-05-28T08:55:53Z</time>
      </trkpt>
      <trkpt lat="37.7890566643" lon="-7.1723206155">
        <ele>292.38</ele>
        <time>2021-05-28T08:55:58Z</time>
      </trkpt>
      <trkpt lat="37.7892431617" lon="-7.1738621313">
        <ele>290.46</ele>
        <time>2021-05-28T08:56:03Z</time>
      </trkpt>
      <trkpt lat="37.7893685549" lon="-7.1747887507">
        <ele>286.61</ele>
        <time>2021-05-28T08:56:06Z</time>
      </trkpt>
      <trkpt lat="37.7897437289" lon="-7.1765430830">
        <ele>282.77</ele>
        <time>2021-05-28T08:56:12Z</time>
      </trkpt>
      <trkpt lat="37.7898314036" lon="-7.1768098790">
        <ele>282.77</ele>
        <time>2021-05-28T08:56:13Z</time>
      </trkpt>
      <trkpt lat="37.7910755295" lon="-7.1805594396">
        <ele>283.73</ele>
        <time>2021-05-28T08:56:28Z</time>
      </trkpt>
      <trkpt lat="37.7915709000" lon="-7.1820802521">
        <ele>286.61</ele>
        <time>2021-05-28T08:56:35Z</time>
      </trkpt>
      <trkpt lat="37.7917088661" lon="-7.1825006884">
        <ele>288.05</ele>
        <time>2021-05-28T08:56:37Z</time>
      </trkpt>
      <trkpt lat="37.7919623349" lon="-7.1835019905">
        <ele>291.90</ele>
        <time>2021-05-28T08:56:42Z</time>
      </trkpt>
      <trkpt lat="37.7919751592" lon="-7.1837308165">
        <ele>292.38</ele>
        <time>2021-05-28T08:56:43Z</time>
      </trkpt>
      <trkpt lat="37.7919531986" lon="-7.1846959088">
        <ele>295.74</ele>
        <time>2021-05-28T08:56:47Z</time>
      </trkpt>
      <trkpt lat="37.7920712158" lon="-7.1861111932">
        <ele>299.11</ele>
        <time>2021-05-28T08:56:53Z</time>
      </trkpt>
      <trkpt lat="37.7927048877" lon="-7.1885144524">
        <ele>301.99</ele>
        <time>2021-05-28T08:57:03Z</time>
      </trkpt>
      <trkpt lat="37.7930636331" lon="-7.1895284951">
        <ele>306.32</ele>
        <time>2021-05-28T08:57:07Z</time>
      </trkpt>
      <trkpt lat="37.7931622043" lon="-7.1897838078">
        <ele>306.32</ele>
        <time>2021-05-28T08:57:08Z</time>
      </trkpt>
      <trkpt lat="37.7936931979" lon="-7.1912677400">
        <ele>308.72</ele>
        <time>2021-05-28T08:57:14Z</time>
      </trkpt>
      <trkpt lat="37.7940479200" lon="-7.1927313041">
        <ele>311.60</ele>
        <time>2021-05-28T08:57:20Z</time>
      </trkpt>
      <trkpt lat="37.7942929231" lon="-7.1937073767">
        <ele>313.53</ele>
        <time>2021-05-28T08:57:24Z</time>
      </trkpt>
      <trkpt lat="37.7944521792" lon="-7.1941910125">
        <ele>314.97</ele>
        <time>2021-05-28T08:57:26Z</time>
      </trkpt>
      <trkpt lat="37.7949079871" lon="-7.1951571945">
        <ele>311.12</ele>
        <time>2021-05-28T08:57:31Z</time>
      </trkpt>
      <trkpt lat="37.7951524034" lon="-7.1955400798">
        <ele>307.76</ele>
        <time>2021-05-28T08:57:34Z</time>
      </trkpt>
      <trkpt lat="37.7952781320" lon="-7.1957368869">
        <ele>306.32</ele>
        <time>2021-05-28T08:57:36Z</time>
      </trkpt>
      <trkpt lat="37.7953411639" lon="-7.1958129108">
        <ele>306.32</ele>
        <time>2021-05-28T08:57:37Z</time>
      </trkpt>
      <trkpt lat="37.7954376396" lon="-7.1959219594">
        <ele>304.88</ele>
        <time>2021-05-28T08:57:39Z</time>
      </trkpt>
      <trkpt lat="37.7955694031" lon="-7.1960838139">
        <ele>304.39</ele>
        <time>2021-05-28T08:57:46Z</time>
      </trkpt>
      <trkpt lat="37.7955802158" lon="-7.1961498633">
        <ele>304.39</ele>
        <time>2021-05-28T08:57:47Z</time>
      </trkpt>
      <trkpt lat="37.7955702413" lon="-7.1962335985">
        <ele>304.88</ele>
        <time>2021-05-28T08:57:48Z</time>
      </trkpt>
      <trkpt lat="37.7955380548" lon="-7.1963244583">
        <ele>304.39</ele>
        <time>2021-05-28T08:57:49Z</time>
      </trkpt>
      <trkpt lat="37.7954819798" lon="-7.1964343451">
        <ele>305.36</ele>
        <time>2021-05-28T08:57:50Z</time>
      </trkpt>
      <trkpt lat="37.7949552611" lon="-7.1974896267">
        <ele>303.91</ele>
        <time>2021-05-28T08:57:56Z</time>
      </trkpt>
      <trkpt lat="37.7941560466" lon="-7.1991490759">
        <ele>305.36</ele>
        <time>2021-05-28T08:58:03Z</time>
      </trkpt>
      <trkpt lat="37.7937379573" lon="-7.2002512123">
        <ele>301.99</ele>
        <time>2021-05-28T08:58:07Z</time>
      </trkpt>
      <trkpt lat="37.7932518069" lon="-7.2022324428">
        <ele>300.07</ele>
        <time>2021-05-28T08:58:14Z</time>
      </trkpt>
      <trkpt lat="37.7929785568" lon="-7.2031018976">
        <ele>298.63</ele>
        <time>2021-05-28T08:58:17Z</time>
      </trkpt>
      <trkpt lat="37.7926694322" lon="-7.2039608750">
        <ele>294.78</ele>
        <time>2021-05-28T08:58:20Z</time>
      </trkpt>
      <trkpt lat="37.7923110221" lon="-7.2047587484">
        <ele>291.42</ele>
        <time>2021-05-28T08:58:23Z</time>
      </trkpt>
      <trkpt lat="37.7919754107" lon="-7.2054583859">
        <ele>288.05</ele>
        <time>2021-05-28T08:58:26Z</time>
      </trkpt>
      <trkpt lat="37.7916677110" lon="-7.2065198701">
        <ele>285.17</ele>
        <time>2021-05-28T08:58:30Z</time>
      </trkpt>
      <trkpt lat="37.7907776367" lon="-7.2097679414">
        <ele>281.80</ele>
        <time>2021-05-28T08:58:41Z</time>
      </trkpt>
      <trkpt lat="37.7905973420" lon="-7.2103579435">
        <ele>279.88</ele>
        <time>2021-05-28T08:58:43Z</time>
      </trkpt>
      <trkpt lat="37.7903038915" lon="-7.2115616687">
        <ele>276.52</ele>
        <time>2021-05-28T08:58:47Z</time>
      </trkpt>
      <trkpt lat="37.7902204078" lon="-7.2121771518">
        <ele>275.56</ele>
        <time>2021-05-28T08:58:49Z</time>
      </trkpt>
      <trkpt lat="37.7901415341" lon="-7.2127695847">
        <ele>272.67</ele>
        <time>2021-05-28T08:58:51Z</time>
      </trkpt>
      <trkpt lat="37.7896084450" lon="-7.2151293419">
        <ele>276.52</ele>
        <time>2021-05-28T08:58:59Z</time>
      </trkpt>
      <trkpt lat="37.7892120648" lon="-7.2166680079">
        <ele>274.59</ele>
        <time>2021-05-28T08:59:04Z</time>
      </trkpt>
      <trkpt lat="37.7886349708" lon="-7.2194549907">
        <ele>270.75</ele>
        <time>2021-05-28T08:59:13Z</time>
      </trkpt>
      <trkpt lat="37.7885498945" lon="-7.2197750956">
        <ele>270.75</ele>
        <time>2021-05-28T08:59:14Z</time>
      </trkpt>
      <trkpt lat="37.7877545357" lon="-7.2219874989">
        <ele>267.38</ele>
        <time>2021-05-28T08:59:21Z</time>
      </trkpt>
      <trkpt lat="37.7868560795" lon="-7.2237169370">
        <ele>264.02</ele>
        <time>2021-05-28T08:59:27Z</time>
      </trkpt>
      <trkpt lat="37.7865564264" lon="-7.2242363635">
        <ele>261.14</ele>
        <time>2021-05-28T08:59:29Z</time>
      </trkpt>
      <trkpt lat="37.7861373313" lon="-7.2249781620">
        <ele>258.73</ele>
        <time>2021-05-28T08:59:32Z</time>
      </trkpt>
      <trkpt lat="37.7852963749" lon="-7.2265264671">
        <ele>257.77</ele>
        <time>2021-05-28T08:59:38Z</time>
      </trkpt>
      <trkpt lat="37.7847350389" lon="-7.2275722772">
        <ele>254.41</ele>
        <time>2021-05-28T08:59:42Z</time>
      </trkpt>
      <trkpt lat="37.7841166221" lon="-7.2287757508">
        <ele>250.08</ele>
        <time>2021-05-28T08:59:47Z</time>
      </trkpt>
      <trkpt lat="37.7840162069" lon="-7.2290298063">
        <ele>250.56</ele>
        <time>2021-05-28T08:59:48Z</time>
      </trkpt>
      <trkpt lat="37.7839325555" lon="-7.2293044813">
        <ele>251.04</ele>
        <time>2021-05-28T08:59:49Z</time>
      </trkpt>
      <trkpt lat="37.7837056573" lon="-7.2302205395">
        <ele>252.96</ele>
        <time>2021-05-28T08:59:52Z</time>
      </trkpt>
      <trkpt lat="37.7832575608" lon="-7.2314057406">
        <ele>250.56</ele>
        <time>2021-05-28T08:59:56Z</time>
      </trkpt>
      <trkpt lat="37.7828000765" lon="-7.2325254790">
        <ele>246.72</ele>
        <time>2021-05-28T09:00:00Z</time>
      </trkpt>
      <trkpt lat="37.7826997451" lon="-7.2327738348">
        <ele>242.87</ele>
        <time>2021-05-28T09:00:01Z</time>
      </trkpt>
      <trkpt lat="37.7825927082" lon="-7.2330164071">
        <ele>242.87</ele>
        <time>2021-05-28T09:00:02Z</time>
      </trkpt>
      <trkpt lat="37.7824637108" lon="-7.2332555428">
        <ele>244.79</ele>
        <time>2021-05-28T09:00:03Z</time>
      </trkpt>
      <trkpt lat="37.7823119983" lon="-7.2334879730">
        <ele>244.79</ele>
        <time>2021-05-28T09:00:04Z</time>
      </trkpt>
      <trkpt lat="37.7815494966" lon="-7.2345848288">
        <ele>242.87</ele>
        <time>2021-05-28T09:00:09Z</time>
      </trkpt>
      <trkpt lat="37.7807673812" lon="-7.2365905344">
        <ele>241.43</ele>
        <time>2021-05-28T09:00:16Z</time>
      </trkpt>
      <trkpt lat="37.7798353974" lon="-7.2391195223">
        <ele>238.06</ele>
        <time>2021-05-28T09:00:24Z</time>
      </trkpt>
      <trkpt lat="37.7788184211" lon="-7.2415979672">
        <ele>235.18</ele>
        <time>2021-05-28T09:00:32Z</time>
      </trkpt>
      <trkpt lat="37.7784810495" lon="-7.2424877062">
        <ele>231.33</ele>
        <time>2021-05-28T09:00:35Z</time>
      </trkpt>
      <trkpt lat="37.7783169318" lon="-7.2431568336">
        <ele>227.97</ele>
        <time>2021-05-28T09:00:37Z</time>
      </trkpt>
      <trkpt lat="37.7781806421" lon="-7.2438326664">
        <ele>224.61</ele>
        <time>2021-05-28T09:00:39Z</time>
      </trkpt>
      <trkpt lat="37.7780523151" lon="-7.2444767319">
        <ele>221.24</ele>
        <time>2021-05-28T09:00:41Z</time>
      </trkpt>
      <trkpt lat="37.7779259160" lon="-7.2450653091">
        <ele>215.95</ele>
        <time>2021-05-28T09:00:43Z</time>
      </trkpt>
      <trkpt lat="37.7777939010" lon="-7.2455851547">
        <ele>211.63</ele>
        <time>2021-05-28T09:00:45Z</time>
      </trkpt>
      <trkpt lat="37.7777147759" lon="-7.2458242066">
        <ele>212.11</ele>
        <time>2021-05-28T09:00:46Z</time>
      </trkpt>
      <trkpt lat="37.7776219882" lon="-7.2460438125">
        <ele>212.11</ele>
        <time>2021-05-28T09:00:47Z</time>
      </trkpt>
      <trkpt lat="37.7775061503" lon="-7.2462458163">
        <ele>212.59</ele>
        <time>2021-05-28T09:00:48Z</time>
      </trkpt>
      <trkpt lat="37.7773672622" lon="-7.2464401927">
        <ele>214.03</ele>
        <time>2021-05-28T09:00:49Z</time>
      </trkpt>
      <trkpt lat="37.7772083413" lon="-7.2466288693">
        <ele>215.95</ele>
        <time>2021-05-28T09:00:50Z</time>
      </trkpt>
      <trkpt lat="37.7770352550" lon="-7.2468177974">
        <ele>218.36</ele>
        <time>2021-05-28T09:00:51Z</time>
      </trkpt>
      <trkpt lat="37.7766638529" lon="-7.2471924685">
        <ele>222.20</ele>
        <time>2021-05-28T09:00:53Z</time>
      </trkpt>
      <trkpt lat="37.7762871701" lon="-7.2474979889">
        <ele>223.64</ele>
        <time>2021-05-28T09:00:55Z</time>
      </trkpt>
      <trkpt lat="37.7760947216" lon="-7.2476098873">
        <ele>224.61</ele>
        <time>2021-05-28T09:00:56Z</time>
      </trkpt>
      <trkpt lat="37.7758884430" lon="-7.2476889286">
        <ele>225.09</ele>
        <time>2021-05-28T09:00:57Z</time>
      </trkpt>
      <trkpt lat="37.7756716032" lon="-7.2477412317">
        <ele>227.49</ele>
        <time>2021-05-28T09:00:58Z</time>
      </trkpt>
      <trkpt lat="37.7750769909" lon="-7.2478980571">
        <ele>227.49</ele>
        <time>2021-05-28T09:01:01Z</time>
      </trkpt>
      <trkpt lat="37.7748945169" lon="-7.2479854804">
        <ele>228.45</ele>
        <time>2021-05-28T09:01:02Z</time>
      </trkpt>
      <trkpt lat="37.7747048344" lon="-7.2480982170">
        <ele>228.45</ele>
        <time>2021-05-28T09:01:03Z</time>
      </trkpt>
      <trkpt lat="37.7738772891" lon="-7.2487054020">
        <ele>232.78</ele>
        <time>2021-05-28T09:01:07Z</time>
      </trkpt>
      <trkpt lat="37.7725820336" lon="-7.2497938760">
        <ele>229.89</ele>
        <time>2021-05-28T09:01:13Z</time>
      </trkpt>
      <trkpt lat="37.7721773554" lon="-7.2502025776">
        <ele>228.93</ele>
        <time>2021-05-28T09:01:15Z</time>
      </trkpt>
      <trkpt lat="37.7717927098" lon="-7.2506147157">
        <ele>225.57</ele>
        <time>2021-05-28T09:01:17Z</time>
      </trkpt>
      <trkpt lat="37.7714079805" lon="-7.2509706113">
        <ele>221.72</ele>
        <time>2021-05-28T09:01:19Z</time>
      </trkpt>
      <trkpt lat="37.7711991873" lon="-7.2511152830">
        <ele>220.28</ele>
        <time>2021-05-28T09:01:20Z</time>
      </trkpt>
      <trkpt lat="37.7709748875" lon="-7.2512348089">
        <ele>219.80</ele>
        <time>2021-05-28T09:01:21Z</time>
      </trkpt>
      <trkpt lat="37.7702718135" lon="-7.2515182011">
        <ele>215.47</ele>
        <time>2021-05-28T09:01:24Z</time>
      </trkpt>
      <trkpt lat="37.7698481083" lon="-7.2517176066">
        <ele>211.63</ele>
        <time>2021-05-28T09:01:26Z</time>
      </trkpt>
      <trkpt lat="37.7696476970" lon="-7.2518459335">
        <ele>211.63</ele>
        <time>2021-05-28T09:01:27Z</time>
      </trkpt>
      <trkpt lat="37.7694542427" lon="-7.2520035971">
        <ele>210.67</ele>
        <time>2021-05-28T09:01:28Z</time>
      </trkpt>
      <trkpt lat="37.7692659851" lon="-7.2521943692">
        <ele>211.63</ele>
        <time>2021-05-28T09:01:29Z</time>
      </trkpt>
      <trkpt lat="37.7690799069" lon="-7.2524107900">
        <ele>212.11</ele>
        <time>2021-05-28T09:01:30Z</time>
      </trkpt>
      <trkpt lat="37.7688930742" lon="-7.2526460700">
        <ele>211.63</ele>
        <time>2021-05-28T09:01:31Z</time>
      </trkpt>
      <trkpt lat="37.7687060740" lon="-7.2528955992">
        <ele>216.91</ele>
        <time>2021-05-28T09:01:32Z</time>
      </trkpt>
      <trkpt lat="37.7685191575" lon="-7.2531547677">
        <ele>215.95</ele>
        <time>2021-05-28T09:01:33Z</time>
      </trkpt>
      <trkpt lat="37.7681619208" lon="-7.2536605317">
        <ele>214.51</ele>
        <time>2021-05-28T09:01:35Z</time>
      </trkpt>
      <trkpt lat="37.7673892770" lon="-7.2546516079">
        <ele>217.40</ele>
        <time>2021-05-28T09:01:39Z</time>
      </trkpt>
      <trkpt lat="37.7666352410" lon="-7.2557592764">
        <ele>220.76</ele>
        <time>2021-05-28T09:01:43Z</time>
      </trkpt>
      <trkpt lat="37.7650347166" lon="-7.2583229654">
        <ele>217.40</ele>
        <time>2021-05-28T09:01:52Z</time>
      </trkpt>
      <trkpt lat="37.7647288609" lon="-7.2587435693">
        <ele>212.11</ele>
        <time>2021-05-28T09:01:54Z</time>
      </trkpt>
      <trkpt lat="37.7645618096" lon="-7.2589081898">
        <ele>211.63</ele>
        <time>2021-05-28T09:01:55Z</time>
      </trkpt>
      <trkpt lat="37.7643718757" lon="-7.2590524424">
        <ele>215.95</ele>
        <time>2021-05-28T09:01:56Z</time>
      </trkpt>
      <trkpt lat="37.7641675249" lon="-7.2591716330">
        <ele>215.47</ele>
        <time>2021-05-28T09:01:57Z</time>
      </trkpt>
      <trkpt lat="37.7639567200" lon="-7.2592693660">
        <ele>215.95</ele>
        <time>2021-05-28T09:01:58Z</time>
      </trkpt>
      <trkpt lat="37.7637348510" lon="-7.2593430430">
        <ele>219.80</ele>
        <time>2021-05-28T09:01:59Z</time>
      </trkpt>
      <trkpt lat="37.7635035943" lon="-7.2593957651">
        <ele>220.76</ele>
        <time>2021-05-28T09:02:00Z</time>
      </trkpt>
      <trkpt lat="37.7632638719" lon="-7.2594400216">
        <ele>221.72</ele>
        <time>2021-05-28T09:02:01Z</time>
      </trkpt>
      <trkpt lat="37.7630326152" lon="-7.2594903130">
        <ele>221.24</ele>
        <time>2021-05-28T09:02:02Z</time>
      </trkpt>
      <trkpt lat="37.7628203854" lon="-7.2595594637">
        <ele>221.72</ele>
        <time>2021-05-28T09:02:03Z</time>
      </trkpt>
      <trkpt lat="37.7626319602" lon="-7.2596445400">
        <ele>220.76</ele>
        <time>2021-05-28T09:02:04Z</time>
      </trkpt>
      <trkpt lat="37.7624711115" lon="-7.2597457096">
        <ele>218.36</ele>
        <time>2021-05-28T09:02:05Z</time>
      </trkpt>
      <trkpt lat="37.7623383421" lon="-7.2598640621">
        <ele>217.88</ele>
        <time>2021-05-28T09:02:06Z</time>
      </trkpt>
      <trkpt lat="37.7622321434" lon="-7.2600105777">
        <ele>217.40</ele>
        <time>2021-05-28T09:02:07Z</time>
      </trkpt>
      <trkpt lat="37.7621452231" lon="-7.2601942252">
        <ele>218.36</ele>
        <time>2021-05-28T09:02:08Z</time>
      </trkpt>
      <trkpt lat="37.7620658465" lon="-7.2604139149">
        <ele>220.28</ele>
        <time>2021-05-28T09:02:09Z</time>
      </trkpt>
      <trkpt lat="37.7619883977" lon="-7.2606631089">
        <ele>220.76</ele>
        <time>2021-05-28T09:02:10Z</time>
      </trkpt>
      <trkpt lat="37.7618423011" lon="-7.2612116206">
        <ele>224.12</ele>
        <time>2021-05-28T09:02:12Z</time>
      </trkpt>
      <trkpt lat="37.7617468312" lon="-7.2617654130">
        <ele>222.20</ele>
        <time>2021-05-28T09:02:14Z</time>
      </trkpt>
      <trkpt lat="37.7617293131" lon="-7.2620634735">
        <ele>223.64</ele>
        <time>2021-05-28T09:02:15Z</time>
      </trkpt>
      <trkpt lat="37.7617369406" lon="-7.2623811476">
        <ele>224.12</ele>
        <time>2021-05-28T09:02:16Z</time>
      </trkpt>
      <trkpt lat="37.7617665287" lon="-7.2627117299">
        <ele>225.57</ele>
        <time>2021-05-28T09:02:17Z</time>
      </trkpt>
      <trkpt lat="37.7618085220" lon="-7.2630440723">
        <ele>226.53</ele>
        <time>2021-05-28T09:02:18Z</time>
      </trkpt>
      <trkpt lat="37.7619217616" lon="-7.2636700328">
        <ele>222.68</ele>
        <time>2021-05-28T09:02:20Z</time>
      </trkpt>
      <trkpt lat="37.7620448917" lon="-7.2642592806">
        <ele>218.84</ele>
        <time>2021-05-28T09:02:22Z</time>
      </trkpt>
      <trkpt lat="37.7621130366" lon="-7.2648132406">
        <ele>214.51</ele>
        <time>2021-05-28T09:02:24Z</time>
      </trkpt>
      <trkpt lat="37.7621105220" lon="-7.2650876641">
        <ele>214.51</ele>
        <time>2021-05-28T09:02:25Z</time>
      </trkpt>
      <trkpt lat="37.7620785031" lon="-7.2653596569">
        <ele>214.99</ele>
        <time>2021-05-28T09:02:26Z</time>
      </trkpt>
      <trkpt lat="37.7620188240" lon="-7.2656346671">
        <ele>214.99</ele>
        <time>2021-05-28T09:02:27Z</time>
      </trkpt>
      <trkpt lat="37.7619372681" lon="-7.2659153771">
        <ele>214.51</ele>
        <time>2021-05-28T09:02:28Z</time>
      </trkpt>
      <trkpt lat="37.7618366014" lon="-7.2662082408">
        <ele>214.51</ele>
        <time>2021-05-28T09:02:29Z</time>
      </trkpt>
      <trkpt lat="37.7613612637" lon="-7.2673678771">
        <ele>210.19</ele>
        <time>2021-05-28T09:02:33Z</time>
      </trkpt>
      <trkpt lat="37.7611022629" lon="-7.2679207474">
        <ele>209.22</ele>
        <time>2021-05-28T09:02:35Z</time>
      </trkpt>
      <trkpt lat="37.7608665638" lon="-7.2684632242">
        <ele>207.78</ele>
        <time>2021-05-28T09:02:37Z</time>
      </trkpt>
      <trkpt lat="37.7605731133" lon="-7.2693825513">
        <ele>211.63</ele>
        <time>2021-05-28T09:02:40Z</time>
      </trkpt>
      <trkpt lat="37.7604859415" lon="-7.2697151452">
        <ele>211.63</ele>
        <time>2021-05-28T09:02:41Z</time>
      </trkpt>
      <trkpt lat="37.7599952649" lon="-7.2717826255">
        <ele>208.74</ele>
        <time>2021-05-28T09:02:47Z</time>
      </trkpt>
      <trkpt lat="37.7598455641" lon="-7.2724684328">
        <ele>205.38</ele>
        <time>2021-05-28T09:02:49Z</time>
      </trkpt>
      <trkpt lat="37.7596246172" lon="-7.2731483728">
        <ele>203.46</ele>
        <time>2021-05-28T09:02:51Z</time>
      </trkpt>
      <trkpt lat="37.7588737663" lon="-7.2751399968">
        <ele>198.65</ele>
        <time>2021-05-28T09:02:57Z</time>
      </trkpt>
      <trkpt lat="37.7585480455" lon="-7.2763460688">
        <ele>199.61</ele>
        <time>2021-05-28T09:03:01Z</time>
      </trkpt>
      <trkpt lat="37.7583807427" lon="-7.2772686649">
        <ele>197.21</ele>
        <time>2021-05-28T09:03:04Z</time>
      </trkpt>
      <trkpt lat="37.7582897153" lon="-7.2775803041">
        <ele>197.69</ele>
        <time>2021-05-28T09:03:05Z</time>
      </trkpt>
      <trkpt lat="37.7581784874" lon="-7.2778978106">
        <ele>197.69</ele>
        <time>2021-05-28T09:03:06Z</time>
      </trkpt>
      <trkpt lat="37.7580467239" lon="-7.2782179154">
        <ele>197.21</ele>
        <time>2021-05-28T09:03:07Z</time>
      </trkpt>
      <trkpt lat="37.7579018846" lon="-7.2785298061">
        <ele>195.77</ele>
        <time>2021-05-28T09:03:08Z</time>
      </trkpt>
      <trkpt lat="37.7576262876" lon="-7.2791525815">
        <ele>192.88</ele>
        <time>2021-05-28T09:03:10Z</time>
      </trkpt>
      <trkpt lat="37.7573246229" lon="-7.2801398858">
        <ele>190.96</ele>
        <time>2021-05-28T09:03:13Z</time>
      </trkpt>
      <trkpt lat="37.7568058670" lon="-7.2835795674">
        <ele>193.36</ele>
        <time>2021-05-28T09:03:23Z</time>
      </trkpt>
      <trkpt lat="37.7566247340" lon="-7.2850997932">
        <ele>189.52</ele>
        <time>2021-05-28T09:03:28Z</time>
      </trkpt>
      <trkpt lat="37.7565637138" lon="-7.2853796650">
        <ele>190.48</ele>
        <time>2021-05-28T09:03:29Z</time>
      </trkpt>
      <trkpt lat="37.7564781345" lon="-7.2856652364">
        <ele>191.92</ele>
        <time>2021-05-28T09:03:30Z</time>
      </trkpt>
      <trkpt lat="37.7559602167" lon="-7.2873971052">
        <ele>187.59</ele>
        <time>2021-05-28T09:03:36Z</time>
      </trkpt>
      <trkpt lat="37.7559122723" lon="-7.2877004463">
        <ele>187.59</ele>
        <time>2021-05-28T09:03:37Z</time>
      </trkpt>
      <trkpt lat="37.7557200752" lon="-7.2894965205">
        <ele>184.23</ele>
        <time>2021-05-28T09:03:43Z</time>
      </trkpt>
      <trkpt lat="37.7556515951" lon="-7.2897623107">
        <ele>184.71</ele>
        <time>2021-05-28T09:03:44Z</time>
      </trkpt>
      <trkpt lat="37.7555572987" lon="-7.2900148574">
        <ele>181.83</ele>
        <time>2021-05-28T09:03:45Z</time>
      </trkpt>
      <trkpt lat="37.7554383595" lon="-7.2902613692">
        <ele>183.27</ele>
        <time>2021-05-28T09:03:46Z</time>
      </trkpt>
      <trkpt lat="37.7549295779" lon="-7.2912444826">
        <ele>182.79</ele>
        <time>2021-05-28T09:03:50Z</time>
      </trkpt>
      <trkpt lat="37.7548343595" lon="-7.2915199958">
        <ele>181.83</ele>
        <time>2021-05-28T09:03:51Z</time>
      </trkpt>
      <trkpt lat="37.7547517978" lon="-7.2918105964">
        <ele>181.83</ele>
        <time>2021-05-28T09:03:52Z</time>
      </trkpt>
      <trkpt lat="37.7545635402" lon="-7.2927434184">
        <ele>178.46</ele>
        <time>2021-05-28T09:03:55Z</time>
      </trkpt>
      <trkpt lat="37.7545174398" lon="-7.2930517886">
        <ele>178.46</ele>
        <time>2021-05-28T09:03:56Z</time>
      </trkpt>
      <trkpt lat="37.7543078084" lon="-7.2943018656">
        <ele>180.38</ele>
        <time>2021-05-28T09:04:00Z</time>
      </trkpt>
      <trkpt lat="37.7540985961" lon="-7.2952778544">
        <ele>181.83</ele>
        <time>2021-05-28T09:04:03Z</time>
      </trkpt>
      <trkpt lat="37.7533588093" lon="-7.2989040334">
        <ele>185.67</ele>
        <time>2021-05-28T09:04:14Z</time>
      </trkpt>
      <trkpt lat="37.7531339228" lon="-7.3014497012">
        <ele>182.31</ele>
        <time>2021-05-28T09:04:22Z</time>
      </trkpt>
      <trkpt lat="37.7530656941" lon="-7.3017011583">
        <ele>182.79</ele>
        <time>2021-05-28T09:04:23Z</time>
      </trkpt>
      <trkpt lat="37.7529646922" lon="-7.3019516934">
        <ele>183.75</ele>
        <time>2021-05-28T09:04:24Z</time>
      </trkpt>
      <trkpt lat="37.7528336830" lon="-7.3021985404">
        <ele>186.15</ele>
        <time>2021-05-28T09:04:25Z</time>
      </trkpt>
      <trkpt lat="37.7526758518" lon="-7.3024331499">
        <ele>187.11</ele>
        <time>2021-05-28T09:04:26Z</time>
      </trkpt>
      <trkpt lat="37.7525061183" lon="-7.3026576173">
        <ele>187.59</ele>
        <time>2021-05-28T09:04:27Z</time>
      </trkpt>
      <trkpt lat="37.7521895338" lon="-7.3031273391">
        <ele>185.19</ele>
        <time>2021-05-28T09:04:29Z</time>
      </trkpt>
      <trkpt lat="37.7520535793" lon="-7.3033979069">
        <ele>186.63</ele>
        <time>2021-05-28T09:04:30Z</time>
      </trkpt>
      <trkpt lat="37.7515913174" lon="-7.3045380134">
        <ele>182.31</ele>
        <time>2021-05-28T09:04:34Z</time>
      </trkpt>
      <trkpt lat="37.7514100168" lon="-7.3051206395">
        <ele>182.31</ele>
        <time>2021-05-28T09:04:36Z</time>
      </trkpt>
      <trkpt lat="37.7513519302" lon="-7.3054378945">
        <ele>182.79</ele>
        <time>2021-05-28T09:04:37Z</time>
      </trkpt>
      <trkpt lat="37.7512478270" lon="-7.3064667732">
        <ele>183.75</ele>
        <time>2021-05-28T09:04:40Z</time>
      </trkpt>
      <trkpt lat="37.7509418037" lon="-7.3094853479">
        <ele>181.83</ele>
        <time>2021-05-28T09:04:49Z</time>
      </trkpt>
      <trkpt lat="37.7508572303" lon="-7.3097887728">
        <ele>181.83</ele>
        <time>2021-05-28T09:04:50Z</time>
      </trkpt>
      <trkpt lat="37.7507452480" lon="-7.3100919463">
        <ele>182.79</ele>
        <time>2021-05-28T09:04:51Z</time>
      </trkpt>
      <trkpt lat="37.7506185137" lon="-7.3103972152">
        <ele>186.15</ele>
        <time>2021-05-28T09:04:52Z</time>
      </trkpt>
      <trkpt lat="37.7503606025" lon="-7.3110290430">
        <ele>187.11</ele>
        <time>2021-05-28T09:04:54Z</time>
      </trkpt>
      <trkpt lat="37.7498346381" lon="-7.3123331834">
        <ele>188.56</ele>
        <time>2021-05-28T09:04:58Z</time>
      </trkpt>
      <trkpt lat="37.7481270768" lon="-7.3169735726">
        <ele>189.52</ele>
        <time>2021-05-28T09:05:12Z</time>
      </trkpt>
      <trkpt lat="37.7478362247" lon="-7.3179406766">
        <ele>187.59</ele>
        <time>2021-05-28T09:05:15Z</time>
      </trkpt>
      <trkpt lat="37.7476297785" lon="-7.3189814575">
        <ele>184.23</ele>
        <time>2021-05-28T09:05:18Z</time>
      </trkpt>
      <trkpt lat="37.7475059777" lon="-7.3196784966">
        <ele>180.38</ele>
        <time>2021-05-28T09:05:20Z</time>
      </trkpt>
      <trkpt lat="37.7473865356" lon="-7.3203495517">
        <ele>176.54</ele>
        <time>2021-05-28T09:05:22Z</time>
      </trkpt>
      <trkpt lat="37.7472728770" lon="-7.3209621850">
        <ele>169.33</ele>
        <time>2021-05-28T09:05:24Z</time>
      </trkpt>
      <trkpt lat="37.7471679356" lon="-7.3215094395">
        <ele>165.48</ele>
        <time>2021-05-28T09:05:26Z</time>
      </trkpt>
      <trkpt lat="37.7471164707" lon="-7.3217591364">
        <ele>162.12</ele>
        <time>2021-05-28T09:05:27Z</time>
      </trkpt>
      <trkpt lat="37.7470466495" lon="-7.3222607933">
        <ele>164.52</ele>
        <time>2021-05-28T09:05:29Z</time>
      </trkpt>
      <trkpt lat="37.7470562048" lon="-7.3225263320">
        <ele>162.60</ele>
        <time>2021-05-28T09:05:30Z</time>
      </trkpt>
      <trkpt lat="37.7470949292" lon="-7.3227999173">
        <ele>163.08</ele>
        <time>2021-05-28T09:05:31Z</time>
      </trkpt>
      <trkpt lat="37.7472810913" lon="-7.3236402031">
        <ele>165.00</ele>
        <time>2021-05-28T09:05:34Z</time>
      </trkpt>
      <trkpt lat="37.7474157047" lon="-7.3244746216">
        <ele>166.93</ele>
        <time>2021-05-28T09:05:37Z</time>
      </trkpt>
      <trkpt lat="37.7474286128" lon="-7.3247368913">
        <ele>166.93</ele>
        <time>2021-05-28T09:05:38Z</time>
      </trkpt>
      <trkpt lat="37.7474191412" lon="-7.3250073753">
        <ele>170.29</ele>
        <time>2021-05-28T09:05:39Z</time>
      </trkpt>
      <trkpt lat="37.7473863680" lon="-7.3252859898">
        <ele>172.21</ele>
        <time>2021-05-28T09:05:40Z</time>
      </trkpt>
      <trkpt lat="37.7472209092" lon="-7.3261884693">
        <ele>176.54</ele>
        <time>2021-05-28T09:05:43Z</time>
      </trkpt>
      <trkpt lat="37.7471717075" lon="-7.3264943250">
        <ele>176.54</ele>
        <time>2021-05-28T09:05:44Z</time>
      </trkpt>
      <trkpt lat="37.7469411213" lon="-7.3283761460">
        <ele>178.46</ele>
        <time>2021-05-28T09:05:50Z</time>
      </trkpt>
      <trkpt lat="37.7468540333" lon="-7.3289359733">
        <ele>178.94</ele>
        <time>2021-05-28T09:05:52Z</time>
      </trkpt>
      <trkpt lat="37.7467791829" lon="-7.3292052001">
        <ele>179.90</ele>
        <time>2021-05-28T09:05:53Z</time>
      </trkpt>
      <trkpt lat="37.7466790192" lon="-7.3294767737">
        <ele>183.27</ele>
        <time>2021-05-28T09:05:54Z</time>
      </trkpt>
      <trkpt lat="37.7464508638" lon="-7.3300396185">
        <ele>186.15</ele>
        <time>2021-05-28T09:05:56Z</time>
      </trkpt>
      <trkpt lat="37.7463375404" lon="-7.3303191550">
        <ele>186.15</ele>
        <time>2021-05-28T09:05:57Z</time>
      </trkpt>
      <trkpt lat="37.7458452713" lon="-7.3321785964">
        <ele>187.11</ele>
        <time>2021-05-28T09:06:03Z</time>
      </trkpt>
      <trkpt lat="37.7457770426" lon="-7.3328491487">
        <ele>188.08</ele>
        <time>2021-05-28T09:06:05Z</time>
      </trkpt>
      <trkpt lat="37.7457200456" lon="-7.3334426712">
        <ele>184.71</ele>
        <time>2021-05-28T09:06:07Z</time>
      </trkpt>
      <trkpt lat="37.7456264198" lon="-7.3339750897">
        <ele>183.75</ele>
        <time>2021-05-28T09:06:09Z</time>
      </trkpt>
      <trkpt lat="37.7455409244" lon="-7.3342374433">
        <ele>182.79</ele>
        <time>2021-05-28T09:06:10Z</time>
      </trkpt>
      <trkpt lat="37.7454317082" lon="-7.3344970308">
        <ele>182.79</ele>
        <time>2021-05-28T09:06:11Z</time>
      </trkpt>
      <trkpt lat="37.7453063987" lon="-7.3347489908">
        <ele>182.31</ele>
        <time>2021-05-28T09:06:12Z</time>
      </trkpt>
      <trkpt lat="37.7451734617" lon="-7.3349860311">
        <ele>181.35</ele>
        <time>2021-05-28T09:06:13Z</time>
      </trkpt>
      <trkpt lat="37.7448037360" lon="-7.3356217984">
        <ele>177.50</ele>
        <time>2021-05-28T09:06:16Z</time>
      </trkpt>
      <trkpt lat="37.7444719803" lon="-7.3361714836">
        <ele>174.14</ele>
        <time>2021-05-28T09:06:19Z</time>
      </trkpt>
      <trkpt lat="37.7434551716" lon="-7.3377965670">
        <ele>174.62</ele>
        <time>2021-05-28T09:06:29Z</time>
      </trkpt>
      <trkpt lat="37.7433415968" lon="-7.3379269056">
        <ele>173.66</ele>
        <time>2021-05-28T09:06:30Z</time>
      </trkpt>
      <trkpt lat="37.7432131022" lon="-7.3380445037">
        <ele>173.66</ele>
        <time>2021-05-28T09:06:31Z</time>
      </trkpt>
      <trkpt lat="37.7412934788" lon="-7.3394579440">
        <ele>173.17</ele>
        <time>2021-05-28T09:06:44Z</time>
      </trkpt>
      <trkpt lat="37.7411517408" lon="-7.3395628855">
        <ele>173.17</ele>
        <time>2021-05-28T09:06:45Z</time>
      </trkpt>
      <trkpt lat="37.7406787500" lon="-7.3399917874">
        <ele>174.14</ele>
        <time>2021-05-28T09:06:49Z</time>
      </trkpt>
      <trkpt lat="37.7406044863" lon="-7.3401155882">
        <ele>175.58</ele>
        <time>2021-05-28T09:06:50Z</time>
      </trkpt>
      <trkpt lat="37.7405510098" lon="-7.3402481899">
        <ele>176.54</ele>
        <time>2021-05-28T09:06:51Z</time>
      </trkpt>
      <trkpt lat="37.7405154705" lon="-7.3403895088">
        <ele>177.50</ele>
        <time>2021-05-28T09:06:52Z</time>
      </trkpt>
      <trkpt lat="37.7404946834" lon="-7.3405330069">
        <ele>177.50</ele>
        <time>2021-05-28T09:06:53Z</time>
      </trkpt>
      <trkpt lat="37.7404797636" lon="-7.3406636808">
        <ele>177.98</ele>
        <time>2021-05-28T09:06:54Z</time>
      </trkpt>
      <trkpt lat="37.7403985430" lon="-7.3413025495">
        <ele>177.98</ele>
        <time>2021-05-28T09:07:01Z</time>
      </trkpt>
      <trkpt lat="37.7403947711" lon="-7.3413964268">
        <ele>177.98</ele>
        <time>2021-05-28T09:07:02Z</time>
      </trkpt>
      <trkpt lat="37.7403889876" lon="-7.3417312838">
        <ele>177.98</ele>
        <time>2021-05-28T09:07:06Z</time>
      </trkpt>
      <trkpt lat="37.7403711341" lon="-7.3417861015">
        <ele>177.50</ele>
        <time>2021-05-28T09:07:07Z</time>
      </trkpt>
      <trkpt lat="37.7403129637" lon="-7.3418599460">
        <ele>176.54</ele>
        <time>2021-05-28T09:07:09Z</time>
      </trkpt>
      <trkpt lat="37.7402532846" lon="-7.3418762907">
        <ele>177.02</ele>
        <time>2021-05-28T09:07:10Z</time>
      </trkpt>
      <trkpt lat="37.7398223709" lon="-7.3419136740">
        <ele>175.10</ele>
        <time>2021-05-28T09:07:15Z</time>
      </trkpt>
      <trkpt lat="37.7393955644" lon="-7.3419330362">
        <ele>172.21</ele>
        <time>2021-05-28T09:07:20Z</time>
      </trkpt>
      <trkpt lat="37.7393256593" lon="-7.3419295996">
        <ele>172.21</ele>
        <time>2021-05-28T09:07:21Z</time>
      </trkpt>
      <trkpt lat="37.7391510643" lon="-7.3419465311">
        <ele>170.77</ele>
        <time>2021-05-28T09:07:24Z</time>
      </trkpt>
      <trkpt lat="37.7391005214" lon="-7.3419620376">
        <ele>170.77</ele>
        <time>2021-05-28T09:07:25Z</time>
      </trkpt>
      <trkpt lat="37.7390583605" lon="-7.3419867642">
        <ele>170.77</ele>
        <time>2021-05-28T09:07:26Z</time>
      </trkpt>
      <trkpt lat="37.7390264254" lon="-7.3420185316">
        <ele>170.29</ele>
        <time>2021-05-28T09:07:27Z</time>
      </trkpt>
      <trkpt lat="37.7390013635" lon="-7.3420502152">
        <ele>169.81</ele>
        <time>2021-05-28T09:07:28Z</time>
      </trkpt>
      <trkpt lat="37.7389850188" lon="-7.3420746904">
        <ele>169.33</ele>
        <time>2021-05-28T09:07:29Z</time>
      </trkpt>
      <trkpt lat="37.7389732841" lon="-7.3420929629">
        <ele>169.33</ele>
        <time>2021-05-28T09:07:30Z</time>
      </trkpt>
      <trkpt lat="37.7389542572" lon="-7.3421224672">
        <ele>169.81</ele>
        <time>2021-05-28T09:07:42Z</time>
      </trkpt>
      <trkpt lat="37.7389186341" lon="-7.3421714175">
        <ele>169.81</ele>
        <time>2021-05-28T09:08:14Z</time>
      </trkpt>
      <trkpt lat="37.7389284410" lon="-7.3422215413">
        <ele>170.29</ele>
        <time>2021-05-28T09:08:15Z</time>
      </trkpt>
      <trkpt lat="37.7390495595" lon="-7.3428927641">
        <ele>171.25</ele>
        <time>2021-05-28T09:08:23Z</time>
      </trkpt>
      <trkpt lat="37.7390836738" lon="-7.3435970116">
        <ele>171.73</ele>
        <time>2021-05-28T09:08:33Z</time>
      </trkpt>
      <trkpt lat="37.7391278464" lon="-7.3442953080">
        <ele>173.17</ele>
        <time>2021-05-28T09:08:42Z</time>
      </trkpt>
      <trkpt lat="37.7391860168" lon="-7.3450755794">
        <ele>173.66</ele>
        <time>2021-05-28T09:08:53Z</time>
      </trkpt>
      <trkpt lat="37.7392635494" lon="-7.3455866240">
        <ele>174.62</ele>
        <time>2021-05-28T09:09:02Z</time>
      </trkpt>
      <trkpt lat="37.7393501345" lon="-7.3460490536">
        <ele>176.06</ele>
        <time>2021-05-28T09:09:07Z</time>
      </trkpt>
      <trkpt lat="37.7393699158" lon="-7.3462685756">
        <ele>177.02</ele>
        <time>2021-05-28T09:09:09Z</time>
      </trkpt>
      <trkpt lat="37.7393909544" lon="-7.3463740200">
        <ele>177.02</ele>
        <time>2021-05-28T09:09:10Z</time>
      </trkpt>
      <trkpt lat="37.7394173574" lon="-7.3464689869">
        <ele>177.02</ele>
        <time>2021-05-28T09:09:11Z</time>
      </trkpt>
      <trkpt lat="37.7394467779" lon="-7.3465524707">
        <ele>177.02</ele>
        <time>2021-05-28T09:09:12Z</time>
      </trkpt>
      <trkpt lat="37.7394777071" lon="-7.3466263991">
        <ele>176.54</ele>
        <time>2021-05-28T09:09:13Z</time>
      </trkpt>
      <trkpt lat="37.7395764459" lon="-7.3468611762">
        <ele>177.50</ele>
        <time>2021-05-28T09:09:16Z</time>
      </trkpt>
      <trkpt lat="37.7396462671" lon="-7.3470723163">
        <ele>176.54</ele>
        <time>2021-05-28T09:09:19Z</time>
      </trkpt>
      <trkpt lat="37.7397068683" lon="-7.3473682813">
        <ele>177.98</ele>
        <time>2021-05-28T09:09:23Z</time>
      </trkpt>
      <trkpt lat="37.7397113945" lon="-7.3474684451">
        <ele>178.46</ele>
        <time>2021-05-28T09:09:24Z</time>
      </trkpt>
      <trkpt lat="37.7397324331" lon="-7.3483226448">
        <ele>182.31</ele>
        <time>2021-05-28T09:09:31Z</time>
      </trkpt>
      <trkpt lat="37.7398258913" lon="-7.3488749284">
        <ele>185.19</ele>
        <time>2021-05-28T09:09:35Z</time>
      </trkpt>
      <trkpt lat="37.7398630232" lon="-7.3489863239">
        <ele>185.67</ele>
        <time>2021-05-28T09:09:36Z</time>
      </trkpt>
      <trkpt lat="37.7399136499" lon="-7.3490729090">
        <ele>185.19</ele>
        <time>2021-05-28T09:09:37Z</time>
      </trkpt>
      <trkpt lat="37.7399832197" lon="-7.3491368629">
        <ele>186.15</ele>
        <time>2021-05-28T09:09:38Z</time>
      </trkpt>
      <trkpt lat="37.7400665358" lon="-7.3491837177">
        <ele>186.15</ele>
        <time>2021-05-28T09:09:39Z</time>
      </trkpt>
      <trkpt lat="37.7401458286" lon="-7.3492253758">
        <ele>187.11</ele>
        <time>2021-05-28T09:09:40Z</time>
      </trkpt>
      <trkpt lat="37.7402090281" lon="-7.3492889106">
        <ele>187.59</ele>
        <time>2021-05-28T09:09:41Z</time>
      </trkpt>
      <trkpt lat="37.7402497642" lon="-7.3493828718">
        <ele>188.08</ele>
        <time>2021-05-28T09:09:42Z</time>
      </trkpt>
      <trkpt lat="37.7402660251" lon="-7.3495064210">
        <ele>189.04</ele>
        <time>2021-05-28T09:09:43Z</time>
      </trkpt>
      <trkpt lat="37.7402740717" lon="-7.3496495001">
        <ele>190.48</ele>
        <time>2021-05-28T09:09:44Z</time>
      </trkpt>
      <trkpt lat="37.7402990498" lon="-7.3497972731">
        <ele>191.44</ele>
        <time>2021-05-28T09:09:45Z</time>
      </trkpt>
      <trkpt lat="37.7403484192" lon="-7.3499482311">
        <ele>193.36</ele>
        <time>2021-05-28T09:09:46Z</time>
      </trkpt>
      <trkpt lat="37.7404137142" lon="-7.3501006979">
        <ele>195.77</ele>
        <time>2021-05-28T09:09:47Z</time>
      </trkpt>
      <trkpt lat="37.7404837031" lon="-7.3502503987">
        <ele>196.25</ele>
        <time>2021-05-28T09:09:48Z</time>
      </trkpt>
      <trkpt lat="37.7407230902" lon="-7.3507448472">
        <ele>200.57</ele>
        <time>2021-05-28T09:09:51Z</time>
      </trkpt>
      <trkpt lat="37.7415699139" lon="-7.3522005323">
        <ele>204.42</ele>
        <time>2021-05-28T09:09:59Z</time>
      </trkpt>
      <trkpt lat="37.7422617562" lon="-7.3541170545">
        <ele>208.26</ele>
        <time>2021-05-28T09:10:07Z</time>
      </trkpt>
      <trkpt lat="37.7424332500" lon="-7.3545917217">
        <ele>209.22</ele>
        <time>2021-05-28T09:10:09Z</time>
      </trkpt>
      <trkpt lat="37.7425055020" lon="-7.3548244033">
        <ele>209.70</ele>
        <time>2021-05-28T09:10:10Z</time>
      </trkpt>
      <trkpt lat="37.7425618283" lon="-7.3550748546">
        <ele>211.15</ele>
        <time>2021-05-28T09:10:11Z</time>
      </trkpt>
      <trkpt lat="37.7426068392" lon="-7.3553457577">
        <ele>212.59</ele>
        <time>2021-05-28T09:10:12Z</time>
      </trkpt>
      <trkpt lat="37.7426785044" lon="-7.3559194151">
        <ele>216.43</ele>
        <time>2021-05-28T09:10:14Z</time>
      </trkpt>
      <trkpt lat="37.7428254392" lon="-7.3569938913">
        <ele>213.07</ele>
        <time>2021-05-28T09:10:18Z</time>
      </trkpt>
      <trkpt lat="37.7428369224" lon="-7.3572387267">
        <ele>212.59</ele>
        <time>2021-05-28T09:10:19Z</time>
      </trkpt>
      <trkpt lat="37.7428280376" lon="-7.3574974760">
        <ele>213.07</ele>
        <time>2021-05-28T09:10:20Z</time>
      </trkpt>
      <trkpt lat="37.7428024728" lon="-7.3580547050">
        <ele>216.91</ele>
        <time>2021-05-28T09:10:22Z</time>
      </trkpt>
      <trkpt lat="37.7428007126" lon="-7.3583343253">
        <ele>214.03</ele>
        <time>2021-05-28T09:10:23Z</time>
      </trkpt>
      <trkpt lat="37.7428003773" lon="-7.3588602059">
        <ele>209.22</ele>
        <time>2021-05-28T09:10:25Z</time>
      </trkpt>
      <trkpt lat="37.7428033948" lon="-7.3593549896">
        <ele>205.38</ele>
        <time>2021-05-28T09:10:27Z</time>
      </trkpt>
      <trkpt lat="37.7428064123" lon="-7.3608001973">
        <ele>202.01</ele>
        <time>2021-05-28T09:10:33Z</time>
      </trkpt>
      <trkpt lat="37.7428997867" lon="-7.3625219241">
        <ele>202.98</ele>
        <time>2021-05-28T09:10:40Z</time>
      </trkpt>
      <trkpt lat="37.7430131938" lon="-7.3636538163">
        <ele>200.57</ele>
        <time>2021-05-28T09:10:44Z</time>
      </trkpt>
      <trkpt lat="37.7430708613" lon="-7.3663529567">
        <ele>201.53</ele>
        <time>2021-05-28T09:10:53Z</time>
      </trkpt>
      <trkpt lat="37.7426153049" lon="-7.3682483565">
        <ele>199.13</ele>
        <time>2021-05-28T09:10:59Z</time>
      </trkpt>
      <trkpt lat="37.7422630135" lon="-7.3691578768">
        <ele>202.01</ele>
        <time>2021-05-28T09:11:02Z</time>
      </trkpt>
      <trkpt lat="37.7421514504" lon="-7.3694498185">
        <ele>202.01</ele>
        <time>2021-05-28T09:11:03Z</time>
      </trkpt>
      <trkpt lat="37.7416846622" lon="-7.3714230023">
        <ele>202.98</ele>
        <time>2021-05-28T09:11:10Z</time>
      </trkpt>
      <trkpt lat="37.7417274937" lon="-7.3733533546">
        <ele>202.49</ele>
        <time>2021-05-28T09:11:16Z</time>
      </trkpt>
      <trkpt lat="37.7417994104" lon="-7.3746682238">
        <ele>199.61</ele>
        <time>2021-05-28T09:11:20Z</time>
      </trkpt>
      <trkpt lat="37.7419451717" lon="-7.3772865627">
        <ele>202.49</ele>
        <time>2021-05-28T09:11:28Z</time>
      </trkpt>
      <trkpt lat="37.7419737540" lon="-7.3778911494">
        <ele>204.42</ele>
        <time>2021-05-28T09:11:30Z</time>
      </trkpt>
      <trkpt lat="37.7420022525" lon="-7.3781643156">
        <ele>203.94</ele>
        <time>2021-05-28T09:11:31Z</time>
      </trkpt>
      <trkpt lat="37.7420520410" lon="-7.3784257472">
        <ele>205.38</ele>
        <time>2021-05-28T09:11:32Z</time>
      </trkpt>
      <trkpt lat="37.7421238739" lon="-7.3786818981">
        <ele>205.86</ele>
        <time>2021-05-28T09:11:33Z</time>
      </trkpt>
      <trkpt lat="37.7422142308" lon="-7.3789358698">
        <ele>206.82</ele>
        <time>2021-05-28T09:11:34Z</time>
      </trkpt>
      <trkpt lat="37.7423194237" lon="-7.3791903444">
        <ele>206.34</ele>
        <time>2021-05-28T09:11:35Z</time>
      </trkpt>
      <trkpt lat="37.7428463940" lon="-7.3801929038">
        <ele>205.38</ele>
        <time>2021-05-28T09:11:39Z</time>
      </trkpt>
      <trkpt lat="37.7443004865" lon="-7.3821911495">
        <ele>204.90</ele>
        <time>2021-05-28T09:11:47Z</time>
      </trkpt>
      <trkpt lat="37.7451184765" lon="-7.3831886798">
        <ele>202.01</ele>
        <time>2021-05-28T09:11:51Z</time>
      </trkpt>
      <trkpt lat="37.7455163654" lon="-7.3836786021">
        <ele>196.73</ele>
        <time>2021-05-28T09:11:53Z</time>
      </trkpt>
      <trkpt lat="37.7459115721" lon="-7.3841504194">
        <ele>193.36</ele>
        <time>2021-05-28T09:11:55Z</time>
      </trkpt>
      <trkpt lat="37.7464584075" lon="-7.3848027829">
        <ele>189.52</ele>
        <time>2021-05-28T09:11:58Z</time>
      </trkpt>
      <trkpt lat="37.7469945140" lon="-7.3853994068">
        <ele>194.32</ele>
        <time>2021-05-28T09:12:01Z</time>
      </trkpt>
      <trkpt lat="37.7471822686" lon="-7.3855737504">
        <ele>192.88</ele>
        <time>2021-05-28T09:12:02Z</time>
      </trkpt>
      <trkpt lat="37.7479771245" lon="-7.3862698674">
        <ele>194.80</ele>
        <time>2021-05-28T09:12:06Z</time>
      </trkpt>
      <trkpt lat="37.7498163655" lon="-7.3877291568">
        <ele>192.40</ele>
        <time>2021-05-28T09:12:14Z</time>
      </trkpt>
      <trkpt lat="37.7505535539" lon="-7.3881302308">
        <ele>188.08</ele>
        <time>2021-05-28T09:12:17Z</time>
      </trkpt>
      <trkpt lat="37.7512569632" lon="-7.3885011300">
        <ele>184.71</ele>
        <time>2021-05-28T09:12:20Z</time>
      </trkpt>
      <trkpt lat="37.7517014556" lon="-7.3887431156">
        <ele>183.75</ele>
        <time>2021-05-28T09:12:22Z</time>
      </trkpt>
      <trkpt lat="37.7525315993" lon="-7.3892946448">
        <ele>184.23</ele>
        <time>2021-05-28T09:12:26Z</time>
      </trkpt>
      <trkpt lat="37.7527216170" lon="-7.3894809745">
        <ele>184.23</ele>
        <time>2021-05-28T09:12:27Z</time>
      </trkpt>
      <trkpt lat="37.7528913505" lon="-7.3896931205">
        <ele>185.19</ele>
        <time>2021-05-28T09:12:28Z</time>
      </trkpt>
      <trkpt lat="37.7530454099" lon="-7.3899356090">
        <ele>185.19</ele>
        <time>2021-05-28T09:12:29Z</time>
      </trkpt>
      <trkpt lat="37.7531894948" lon="-7.3902059253">
        <ele>187.11</ele>
        <time>2021-05-28T09:12:30Z</time>
      </trkpt>
      <trkpt lat="37.7533282153" lon="-7.3904918320">
        <ele>187.11</ele>
        <time>2021-05-28T09:12:31Z</time>
      </trkpt>
      <trkpt lat="37.7540063113" lon="-7.3919328488">
        <ele>184.23</ele>
        <time>2021-05-28T09:12:36Z</time>
      </trkpt>
      <trkpt lat="37.7547341958" lon="-7.3932871968">
        <ele>182.31</ele>
        <time>2021-05-28T09:12:41Z</time>
      </trkpt>
      <trkpt lat="37.7550116368" lon="-7.3938248958">
        <ele>178.94</ele>
        <time>2021-05-28T09:12:43Z</time>
      </trkpt>
      <trkpt lat="37.7554672770" lon="-7.3953980953">
        <ele>176.06</ele>
        <time>2021-05-28T09:12:48Z</time>
      </trkpt>
      <trkpt lat="37.7555180714" lon="-7.3957375623">
        <ele>177.02</ele>
        <time>2021-05-28T09:12:49Z</time>
      </trkpt>
      <trkpt lat="37.7556178160" lon="-7.3971662577">
        <ele>178.94</ele>
        <time>2021-05-28T09:12:53Z</time>
      </trkpt>
      <trkpt lat="37.7556610666" lon="-7.3989082687">
        <ele>176.06</ele>
        <time>2021-05-28T09:12:59Z</time>
      </trkpt>
      <trkpt lat="37.7558198199" lon="-7.4015839398">
        <ele>177.50</ele>
        <time>2021-05-28T09:13:09Z</time>
      </trkpt>
      <trkpt lat="37.7558188140" lon="-7.4022131693">
        <ele>177.98</ele>
        <time>2021-05-28T09:13:11Z</time>
      </trkpt>
      <trkpt lat="37.7557608951" lon="-7.4045287538">
        <ele>171.73</ele>
        <time>2021-05-28T09:13:18Z</time>
      </trkpt>
      <trkpt lat="37.7557934169" lon="-7.4050128926">
        <ele>165.96</ele>
        <time>2021-05-28T09:13:20Z</time>
      </trkpt>
      <trkpt lat="37.7558285370" lon="-7.4052174110">
        <ele>166.45</ele>
        <time>2021-05-28T09:13:21Z</time>
      </trkpt>
      <trkpt lat="37.7558885515" lon="-7.4054139666">
        <ele>165.96</ele>
        <time>2021-05-28T09:13:22Z</time>
      </trkpt>
      <trkpt lat="37.7559727896" lon="-7.4056130368">
        <ele>165.96</ele>
        <time>2021-05-28T09:13:23Z</time>
      </trkpt>
      <trkpt lat="37.7560776472" lon="-7.4058198184">
        <ele>165.96</ele>
        <time>2021-05-28T09:13:24Z</time>
      </trkpt>
      <trkpt lat="37.7562002745" lon="-7.4060325511">
        <ele>168.37</ele>
        <time>2021-05-28T09:13:25Z</time>
      </trkpt>
      <trkpt lat="37.7563380729" lon="-7.4062529951">
        <ele>167.41</ele>
        <time>2021-05-28T09:13:26Z</time>
      </trkpt>
      <trkpt lat="37.7569179330" lon="-7.4071765970">
        <ele>165.48</ele>
        <time>2021-05-28T09:13:30Z</time>
      </trkpt>
      <trkpt lat="37.7570807096" lon="-7.4073863961">
        <ele>163.08</ele>
        <time>2021-05-28T09:13:31Z</time>
      </trkpt>
      <trkpt lat="37.7574135549" lon="-7.4077389389">
        <ele>158.27</ele>
        <time>2021-05-28T09:13:33Z</time>
      </trkpt>
      <trkpt lat="37.7575796004" lon="-7.4078942556">
        <ele>153.95</ele>
        <time>2021-05-28T09:13:34Z</time>
      </trkpt>
      <trkpt lat="37.7579183970" lon="-7.4081646558">
        <ele>150.58</ele>
        <time>2021-05-28T09:13:36Z</time>
      </trkpt>
      <trkpt lat="37.7584843431" lon="-7.4085931387">
        <ele>147.22</ele>
        <time>2021-05-28T09:13:39Z</time>
      </trkpt>
      <trkpt lat="37.7589062043" lon="-7.4088931270">
        <ele>141.93</ele>
        <time>2021-05-28T09:13:41Z</time>
      </trkpt>
      <trkpt lat="37.7591194399" lon="-7.4090410676">
        <ele>137.13</ele>
        <time>2021-05-28T09:13:42Z</time>
      </trkpt>
      <trkpt lat="37.7595370263" lon="-7.4093278963">
        <ele>130.40</ele>
        <time>2021-05-28T09:13:44Z</time>
      </trkpt>
      <trkpt lat="37.7599577140" lon="-7.4096283037">
        <ele>126.55</ele>
        <time>2021-05-28T09:13:46Z</time>
      </trkpt>
      <trkpt lat="37.7603647392" lon="-7.4099147972">
        <ele>120.78</ele>
        <time>2021-05-28T09:13:48Z</time>
      </trkpt>
      <trkpt lat="37.7607464511" lon="-7.4101805035">
        <ele>116.94</ele>
        <time>2021-05-28T09:13:50Z</time>
      </trkpt>
      <trkpt lat="37.7610988263" lon="-7.4104313739">
        <ele>112.61</ele>
        <time>2021-05-28T09:13:52Z</time>
      </trkpt>
      <trkpt lat="37.7614309173" lon="-7.4106721859">
        <ele>109.25</ele>
        <time>2021-05-28T09:13:54Z</time>
      </trkpt>
      <trkpt lat="37.7617651038" lon="-7.4109105673">
        <ele>105.88</ele>
        <time>2021-05-28T09:13:56Z</time>
      </trkpt>
      <trkpt lat="37.7626574412" lon="-7.4115439039">
        <ele>111.17</ele>
        <time>2021-05-28T09:14:01Z</time>
      </trkpt>
      <trkpt lat="37.7628310304" lon="-7.4116767570">
        <ele>109.73</ele>
        <time>2021-05-28T09:14:02Z</time>
      </trkpt>
      <trkpt lat="37.7631539851" lon="-7.4119826127">
        <ele>112.61</ele>
        <time>2021-05-28T09:14:04Z</time>
      </trkpt>
      <trkpt lat="37.7633035183" lon="-7.4121714570">
        <ele>114.53</ele>
        <time>2021-05-28T09:14:05Z</time>
      </trkpt>
      <trkpt lat="37.7634471841" lon="-7.4123797473">
        <ele>117.90</ele>
        <time>2021-05-28T09:14:06Z</time>
      </trkpt>
      <trkpt lat="37.7637162432" lon="-7.4128233176">
        <ele>122.22</ele>
        <time>2021-05-28T09:14:08Z</time>
      </trkpt>
      <trkpt lat="37.7639649343" lon="-7.4132528901">
        <ele>123.19</ele>
        <time>2021-05-28T09:14:10Z</time>
      </trkpt>
      <trkpt lat="37.7642194089" lon="-7.4136436544">
        <ele>127.51</ele>
        <time>2021-05-28T09:14:12Z</time>
      </trkpt>
      <trkpt lat="37.7646374982" lon="-7.4141952675">
        <ele>130.40</ele>
        <time>2021-05-28T09:14:15Z</time>
      </trkpt>
      <trkpt lat="37.7648862731" lon="-7.4145890493">
        <ele>132.80</ele>
        <time>2021-05-28T09:14:17Z</time>
      </trkpt>
      <trkpt lat="37.7649802342" lon="-7.4147914723">
        <ele>132.80</ele>
        <time>2021-05-28T09:14:18Z</time>
      </trkpt>
      <trkpt lat="37.7650484629" lon="-7.4150070548">
        <ele>134.24</ele>
        <time>2021-05-28T09:14:19Z</time>
      </trkpt>
      <trkpt lat="37.7650910430" lon="-7.4152418319">
        <ele>135.20</ele>
        <time>2021-05-28T09:14:20Z</time>
      </trkpt>
      <trkpt lat="37.7651182842" lon="-7.4154961389">
        <ele>137.13</ele>
        <time>2021-05-28T09:14:21Z</time>
      </trkpt>
      <trkpt lat="37.7651373949" lon="-7.4157654494">
        <ele>139.53</ele>
        <time>2021-05-28T09:14:22Z</time>
      </trkpt>
      <trkpt lat="37.7651808131" lon="-7.4163309764">
        <ele>143.37</ele>
        <time>2021-05-28T09:14:24Z</time>
      </trkpt>
      <trkpt lat="37.7652067132" lon="-7.4166224152">
        <ele>143.37</ele>
        <time>2021-05-28T09:14:25Z</time>
      </trkpt>
      <trkpt lat="37.7653678972" lon="-7.4186321441">
        <ele>140.01</ele>
        <time>2021-05-28T09:14:32Z</time>
      </trkpt>
      <trkpt lat="37.7653972339" lon="-7.4191690888">
        <ele>137.13</ele>
        <time>2021-05-28T09:14:34Z</time>
      </trkpt>
      <trkpt lat="37.7653877623" lon="-7.4196514674">
        <ele>133.76</ele>
        <time>2021-05-28T09:14:36Z</time>
      </trkpt>
      <trkpt lat="37.7653574198" lon="-7.4198638648">
        <ele>132.80</ele>
        <time>2021-05-28T09:14:37Z</time>
      </trkpt>
      <trkpt lat="37.7653040271" lon="-7.4200628512">
        <ele>131.36</ele>
        <time>2021-05-28T09:14:38Z</time>
      </trkpt>
      <trkpt lat="37.7652234770" lon="-7.4202522822">
        <ele>131.84</ele>
        <time>2021-05-28T09:14:39Z</time>
      </trkpt>
      <trkpt lat="37.7651259117" lon="-7.4204415455">
        <ele>132.32</ele>
        <time>2021-05-28T09:14:40Z</time>
      </trkpt>
      <trkpt lat="37.7647534199" lon="-7.4211136065">
        <ele>128.95</ele>
        <time>2021-05-28T09:14:44Z</time>
      </trkpt>
      <trkpt lat="37.7646982670" lon="-7.4212601222">
        <ele>127.03</ele>
        <time>2021-05-28T09:14:45Z</time>
      </trkpt>
      <trkpt lat="37.7646719478" lon="-7.4214147683">
        <ele>126.07</ele>
        <time>2021-05-28T09:14:46Z</time>
      </trkpt>
      <trkpt lat="37.7646789048" lon="-7.4215751141">
        <ele>126.07</ele>
        <time>2021-05-28T09:14:47Z</time>
      </trkpt>
      <trkpt lat="37.7647214849" lon="-7.4217359629">
        <ele>126.55</ele>
        <time>2021-05-28T09:14:48Z</time>
      </trkpt>
      <trkpt lat="37.7647930663" lon="-7.4219001643">
        <ele>127.03</ele>
        <time>2021-05-28T09:14:49Z</time>
      </trkpt>
      <trkpt lat="37.7648850158" lon="-7.4220626894">
        <ele>128.95</ele>
        <time>2021-05-28T09:14:50Z</time>
      </trkpt>
      <trkpt lat="37.7649876103" lon="-7.4222232867">
        <ele>129.43</ele>
        <time>2021-05-28T09:14:51Z</time>
      </trkpt>
      <trkpt lat="37.7652989142" lon="-7.4227067549">
        <ele>134.24</ele>
        <time>2021-05-28T09:14:54Z</time>
      </trkpt>
      <trkpt lat="37.7653766982" lon="-7.4228824396">
        <ele>135.20</ele>
        <time>2021-05-28T09:14:55Z</time>
      </trkpt>
      <trkpt lat="37.7654334437" lon="-7.4230706133">
        <ele>136.16</ele>
        <time>2021-05-28T09:14:56Z</time>
      </trkpt>
      <trkpt lat="37.7654696535" lon="-7.4232649896">
        <ele>137.61</ele>
        <time>2021-05-28T09:14:57Z</time>
      </trkpt>
      <trkpt lat="37.7654888481" lon="-7.4234585278">
        <ele>139.53</ele>
        <time>2021-05-28T09:14:58Z</time>
      </trkpt>
      <trkpt lat="37.7655000798" lon="-7.4236415885">
        <ele>140.97</ele>
        <time>2021-05-28T09:14:59Z</time>
      </trkpt>
      <trkpt lat="37.7655496169" lon="-7.4243171699">
        <ele>144.82</ele>
        <time>2021-05-28T09:15:03Z</time>
      </trkpt>
      <trkpt lat="37.7655816358" lon="-7.4244750012">
        <ele>145.30</ele>
        <time>2021-05-28T09:15:04Z</time>
      </trkpt>
      <trkpt lat="37.7657002397" lon="-7.4249221757">
        <ele>149.14</ele>
        <time>2021-05-28T09:15:07Z</time>
      </trkpt>
      <trkpt lat="37.7657817956" lon="-7.4251915701">
        <ele>151.54</ele>
        <time>2021-05-28T09:15:09Z</time>
      </trkpt>
      <trkpt lat="37.7658323385" lon="-7.4253154546">
        <ele>152.51</ele>
        <time>2021-05-28T09:15:10Z</time>
      </trkpt>
      <trkpt lat="37.7658915985" lon="-7.4254359026">
        <ele>152.99</ele>
        <time>2021-05-28T09:15:11Z</time>
      </trkpt>
      <trkpt lat="37.7659599110" lon="-7.4255557638">
        <ele>153.47</ele>
        <time>2021-05-28T09:15:12Z</time>
      </trkpt>
      <trkpt lat="37.7662913315" lon="-7.4260402378">
        <ele>157.79</ele>
        <time>2021-05-28T09:15:16Z</time>
      </trkpt>
      <trkpt lat="37.7668145299" lon="-7.4267382827">
        <ele>161.16</ele>
        <time>2021-05-28T09:15:22Z</time>
      </trkpt>
      <trkpt lat="37.7670586947" lon="-7.4271356687">
        <ele>164.52</ele>
        <time>2021-05-28T09:15:25Z</time>
      </trkpt>
      <trkpt lat="37.7673073020" lon="-7.4276149459">
        <ele>168.37</ele>
        <time>2021-05-28T09:15:28Z</time>
      </trkpt>
      <trkpt lat="37.7674953081" lon="-7.4279744457">
        <ele>171.73</ele>
        <time>2021-05-28T09:15:30Z</time>
      </trkpt>
      <trkpt lat="37.7676890139" lon="-7.4283426628">
        <ele>172.69</ele>
        <time>2021-05-28T09:15:32Z</time>
      </trkpt>
      <trkpt lat="37.7680759225" lon="-7.4290979560">
        <ele>177.02</ele>
        <time>2021-05-28T09:15:36Z</time>
      </trkpt>
      <trkpt lat="37.7681749966" lon="-7.4292882252">
        <ele>177.02</ele>
        <time>2021-05-28T09:15:37Z</time>
      </trkpt>
      <trkpt lat="37.7684916649" lon="-7.4298179615">
        <ele>178.94</ele>
        <time>2021-05-28T09:15:40Z</time>
      </trkpt>
      <trkpt lat="37.7686247695" lon="-7.4299759604">
        <ele>179.90</ele>
        <time>2021-05-28T09:15:41Z</time>
      </trkpt>
      <trkpt lat="37.7687739674" lon="-7.4301212188">
        <ele>182.31</ele>
        <time>2021-05-28T09:15:42Z</time>
      </trkpt>
      <trkpt lat="37.7689338103" lon="-7.4302528147">
        <ele>183.27</ele>
        <time>2021-05-28T09:15:43Z</time>
      </trkpt>
      <trkpt lat="37.7691044658" lon="-7.4303618632">
        <ele>184.71</ele>
        <time>2021-05-28T09:15:44Z</time>
      </trkpt>
      <trkpt lat="37.7692867722" lon="-7.4304409046">
        <ele>185.67</ele>
        <time>2021-05-28T09:15:45Z</time>
      </trkpt>
      <trkpt lat="37.7694788016" lon="-7.4304942973">
        <ele>186.63</ele>
        <time>2021-05-28T09:15:46Z</time>
      </trkpt>
      <trkpt lat="37.7696782909" lon="-7.4305253942">
        <ele>187.11</ele>
        <time>2021-05-28T09:15:47Z</time>
      </trkpt>
      <trkpt lat="37.7698802110" lon="-7.4305401463">
        <ele>189.04</ele>
        <time>2021-05-28T09:15:48Z</time>
      </trkpt>
      <trkpt lat="37.7700822987" lon="-7.4305449240">
        <ele>188.56</ele>
        <time>2021-05-28T09:15:49Z</time>
      </trkpt>
      <trkpt lat="37.7710525040" lon="-7.4306372087">
        <ele>190.96</ele>
        <time>2021-05-28T09:15:54Z</time>
      </trkpt>
      <trkpt lat="37.7712284401" lon="-7.4307108019">
        <ele>191.44</ele>
        <time>2021-05-28T09:15:55Z</time>
      </trkpt>
      <trkpt lat="37.7713958267" lon="-7.4308123067">
        <ele>192.88</ele>
        <time>2021-05-28T09:15:56Z</time>
      </trkpt>
      <trkpt lat="37.7715588547" lon="-7.4309426453">
        <ele>193.36</ele>
        <time>2021-05-28T09:15:57Z</time>
      </trkpt>
      <trkpt lat="37.7717214637" lon="-7.4310984649">
        <ele>195.77</ele>
        <time>2021-05-28T09:15:58Z</time>
      </trkpt>
      <trkpt lat="37.7718826476" lon="-7.4312681984">
        <ele>197.21</ele>
        <time>2021-05-28T09:15:59Z</time>
      </trkpt>
      <trkpt lat="37.7725241147" lon="-7.4319680873">
        <ele>194.80</ele>
        <time>2021-05-28T09:16:04Z</time>
      </trkpt>
      <trkpt lat="37.7729460597" lon="-7.4324500468">
        <ele>193.84</ele>
        <time>2021-05-28T09:16:10Z</time>
      </trkpt>
      <trkpt lat="37.7730238438" lon="-7.4325259030">
        <ele>192.88</ele>
        <time>2021-05-28T09:16:12Z</time>
      </trkpt>
      <trkpt lat="37.7730583772" lon="-7.4325462710">
        <ele>192.40</ele>
        <time>2021-05-28T09:16:13Z</time>
      </trkpt>
      <trkpt lat="37.7730898093" lon="-7.4325580895">
        <ele>192.88</ele>
        <time>2021-05-28T09:16:14Z</time>
      </trkpt>
      <trkpt lat="37.7731189784" lon="-7.4325598497">
        <ele>192.40</ele>
        <time>2021-05-28T09:16:15Z</time>
      </trkpt>
      <trkpt lat="37.7731443755" lon="-7.4325549882">
        <ele>192.88</ele>
        <time>2021-05-28T09:16:16Z</time>
      </trkpt>
      <trkpt lat="37.7731701080" lon="-7.4325456843">
        <ele>192.88</ele>
        <time>2021-05-28T09:16:17Z</time>
      </trkpt>
      <trkpt lat="37.7731910627" lon="-7.4325373862">
        <ele>192.88</ele>
        <time>2021-05-28T09:16:18Z</time>
      </trkpt>
      <trkpt lat="37.7732605487" lon="-7.4324786291">
        <ele>192.88</ele>
        <time>2021-05-28T09:16:30Z</time>
      </trkpt>
      <trkpt lat="37.7732559387" lon="-7.4324821495">
        <ele>193.36</ele>
        <time>2021-05-28T09:17:09Z</time>
      </trkpt>
      <trkpt lat="37.7732608840" lon="-7.4325004220">
        <ele>192.88</ele>
        <time>2021-05-28T09:17:50Z</time>
      </trkpt>
      <trkpt lat="37.7734630555" lon="-7.4325124081">
        <ele>193.84</ele>
        <time>2021-05-28T09:25:18Z</time>
      </trkpt>
      <trkpt lat="37.7733674180" lon="-7.4325519707">
        <ele>196.25</ele>
        <time>2021-05-28T09:25:29Z</time>
      </trkpt>
      <trkpt lat="37.7733967546" lon="-7.4325636216">
        <ele>199.13</ele>
        <time>2021-05-28T09:25:34Z</time>
      </trkpt>
      <trkpt lat="37.7733955812" lon="-7.4325693212">
        <ele>202.01</ele>
        <time>2021-05-28T09:25:49Z</time>
      </trkpt>
      <trkpt lat="37.7733283583" lon="-7.4324980751">
        <ele>202.49</ele>
        <time>2021-05-28T09:26:17Z</time>
      </trkpt>
      <trkpt lat="37.7732405160" lon="-7.4324977398">
        <ele>202.98</ele>
        <time>2021-05-28T09:26:48Z</time>
      </trkpt>
      <trkpt lat="37.7732364088" lon="-7.4325549044">
        <ele>202.49</ele>
        <time>2021-05-28T09:27:16Z</time>
      </trkpt>
      <trkpt lat="37.7732188907" lon="-7.4325098097">
        <ele>203.46</ele>
        <time>2021-05-28T09:28:00Z</time>
      </trkpt>
      <trkpt lat="37.7732532565" lon="-7.4325618614">
        <ele>203.94</ele>
        <time>2021-05-28T09:28:32Z</time>
      </trkpt>
      <trkpt lat="37.7732519154" lon="-7.4325476959">
        <ele>204.42</ele>
        <time>2021-05-28T09:29:08Z</time>
      </trkpt>
      <trkpt lat="37.7732253447" lon="-7.4325509649">
        <ele>204.42</ele>
        <time>2021-05-28T09:30:05Z</time>
      </trkpt>
      <trkpt lat="37.7731897216" lon="-7.4325529765">
        <ele>205.38</ele>
        <time>2021-05-28T09:31:08Z</time>
      </trkpt>
      <trkpt lat="37.7732075751" lon="-7.4325475283">
        <ele>206.34</ele>
        <time>2021-05-28T09:31:57Z</time>
      </trkpt>
      <trkpt lat="37.7731929068" lon="-7.4325248133">
        <ele>206.34</ele>
        <time>2021-05-28T09:32:25Z</time>
      </trkpt>
      <trkpt lat="37.7732069883" lon="-7.4325201195">
        <ele>206.82</ele>
        <time>2021-05-28T09:32:42Z</time>
      </trkpt>
      <trkpt lat="37.7732074074" lon="-7.4326100573">
        <ele>207.78</ele>
        <time>2021-05-28T09:32:47Z</time>
      </trkpt>
      <trkpt lat="37.7731769811" lon="-7.4326586723">
        <ele>206.82</ele>
        <time>2021-05-28T09:32:48Z</time>
      </trkpt>
      <trkpt lat="37.7731540147" lon="-7.4327155016">
        <ele>205.86</ele>
        <time>2021-05-28T09:32:49Z</time>
      </trkpt>
      <trkpt lat="37.7731447108" lon="-7.4327763543">
        <ele>206.34</ele>
        <time>2021-05-28T09:32:50Z</time>
      </trkpt>
      <trkpt lat="37.7731449623" lon="-7.4328399729">
        <ele>206.82</ele>
        <time>2021-05-28T09:32:51Z</time>
      </trkpt>
      <trkpt lat="37.7731548529" lon="-7.4329166673">
        <ele>207.30</ele>
        <time>2021-05-28T09:32:52Z</time>
      </trkpt>
      <trkpt lat="37.7731772326" lon="-7.4330076948">
        <ele>207.30</ele>
        <time>2021-05-28T09:32:53Z</time>
      </trkpt>
      <trkpt lat="37.7732030489" lon="-7.4331081100">
        <ele>207.78</ele>
        <time>2021-05-28T09:32:54Z</time>
      </trkpt>
      <trkpt lat="37.7732239198" lon="-7.4332184158">
        <ele>206.82</ele>
        <time>2021-05-28T09:32:55Z</time>
      </trkpt>
      <trkpt lat="37.7732380014" lon="-7.4333277997">
        <ele>206.82</ele>
        <time>2021-05-28T09:32:56Z</time>
      </trkpt>
      <trkpt lat="37.7732333075" lon="-7.4341646489">
        <ele>204.42</ele>
        <time>2021-05-28T09:33:05Z</time>
      </trkpt>
      <trkpt lat="37.7732007857" lon="-7.4351338483">
        <ele>201.53</ele>
        <time>2021-05-28T09:33:12Z</time>
      </trkpt>
      <trkpt lat="37.7731865365" lon="-7.4353221897">
        <ele>200.09</ele>
        <time>2021-05-28T09:33:14Z</time>
      </trkpt>
      <trkpt lat="37.7731658332" lon="-7.4353874847">
        <ele>199.61</ele>
        <time>2021-05-28T09:33:15Z</time>
      </trkpt>
      <trkpt lat="37.7731298748" lon="-7.4354344234">
        <ele>200.09</ele>
        <time>2021-05-28T09:33:16Z</time>
      </trkpt>
      <trkpt lat="37.7729738038" lon="-7.4354125466">
        <ele>197.69</ele>
        <time>2021-05-28T09:33:21Z</time>
      </trkpt>
      <trkpt lat="37.7729779948" lon="-7.4353837967">
        <ele>196.73</ele>
        <time>2021-05-28T09:33:47Z</time>
      </trkpt>
      <trkpt lat="37.7729795873" lon="-7.4354024045">
        <ele>197.21</ele>
        <time>2021-05-28T09:34:13Z</time>
      </trkpt>
      <trkpt lat="37.7729801740" lon="-7.4353995547">
        <ele>197.21</ele>
        <time>2021-05-28T09:34:26Z</time>
      </trkpt>
      <trkpt lat="37.7726632543" lon="-7.4352618400">
        <ele>198.17</ele>
        <time>2021-05-28T09:34:32Z</time>
      </trkpt>
      <trkpt lat="37.7723181713" lon="-7.4351452477">
        <ele>201.05</ele>
        <time>2021-05-28T09:34:35Z</time>
      </trkpt>
      <trkpt lat="37.7720698994" lon="-7.4350817129">
        <ele>201.05</ele>
        <time>2021-05-28T09:34:37Z</time>
      </trkpt>
      <trkpt lat="37.7719505411" lon="-7.4350305833">
        <ele>201.05</ele>
        <time>2021-05-28T09:34:38Z</time>
      </trkpt>
      <trkpt lat="37.7715651412" lon="-7.4348313455">
        <ele>201.05</ele>
        <time>2021-05-28T09:34:42Z</time>
      </trkpt>
      <trkpt lat="37.7714904584" lon="-7.4348374642">
        <ele>201.05</ele>
        <time>2021-05-28T09:34:43Z</time>
      </trkpt>
      <trkpt lat="37.7714148536" lon="-7.4348799605">
        <ele>201.05</ele>
        <time>2021-05-28T09:34:44Z</time>
      </trkpt>
      <trkpt lat="37.7713327948" lon="-7.4349591695">
        <ele>201.53</ele>
        <time>2021-05-28T09:34:45Z</time>
      </trkpt>
      <trkpt lat="37.7712445334" lon="-7.4350676313">
        <ele>202.98</ele>
        <time>2021-05-28T09:34:46Z</time>
      </trkpt>
      <trkpt lat="37.7711525839" lon="-7.4351898395">
        <ele>203.46</ele>
        <time>2021-05-28T09:34:47Z</time>
      </trkpt>
      <trkpt lat="37.7706056647" lon="-7.4357679393">
        <ele>201.53</ele>
        <time>2021-05-28T09:34:52Z</time>
      </trkpt>
      <trkpt lat="37.7704763319" lon="-7.4358370062">
        <ele>202.01</ele>
        <time>2021-05-28T09:34:53Z</time>
      </trkpt>
      <trkpt lat="37.7703297324" lon="-7.4358891416">
        <ele>202.98</ele>
        <time>2021-05-28T09:34:54Z</time>
      </trkpt>
      <trkpt lat="37.7696635388" lon="-7.4360494874">
        <ele>206.34</ele>
        <time>2021-05-28T09:34:58Z</time>
      </trkpt>
      <trkpt lat="37.7687509172" lon="-7.4362707697">
        <ele>209.70</ele>
        <time>2021-05-28T09:35:03Z</time>
      </trkpt>
      <trkpt lat="37.7680992242" lon="-7.4364257511">
        <ele>205.86</ele>
        <time>2021-05-28T09:35:08Z</time>
      </trkpt>
      <trkpt lat="37.7679915167" lon="-7.4364596978">
        <ele>203.46</ele>
        <time>2021-05-28T09:35:12Z</time>
      </trkpt>
      <trkpt lat="37.7679822966" lon="-7.4364647269">
        <ele>202.98</ele>
        <time>2021-05-28T09:35:18Z</time>
      </trkpt>
      <trkpt lat="37.7679487690" lon="-7.4364753719">
        <ele>203.46</ele>
        <time>2021-05-28T09:35:19Z</time>
      </trkpt>
      <trkpt lat="37.7678922750" lon="-7.4364881124">
        <ele>203.46</ele>
        <time>2021-05-28T09:35:20Z</time>
      </trkpt>
      <trkpt lat="37.7670909651" lon="-7.4366672337">
        <ele>202.98</ele>
        <time>2021-05-28T09:35:28Z</time>
      </trkpt>
      <trkpt lat="37.7667171322" lon="-7.4367447663">
        <ele>201.05</ele>
        <time>2021-05-28T09:35:31Z</time>
      </trkpt>
      <trkpt lat="37.7666056529" lon="-7.4367403239">
        <ele>199.13</ele>
        <time>2021-05-28T09:35:32Z</time>
      </trkpt>
      <trkpt lat="37.7665011305" lon="-7.4367070477">
        <ele>198.65</ele>
        <time>2021-05-28T09:35:33Z</time>
      </trkpt>
      <trkpt lat="37.7663987875" lon="-7.4366496317">
        <ele>199.13</ele>
        <time>2021-05-28T09:35:34Z</time>
      </trkpt>
      <trkpt lat="37.7662935946" lon="-7.4365814868">
        <ele>199.13</ele>
        <time>2021-05-28T09:35:35Z</time>
      </trkpt>
      <trkpt lat="37.7660911717" lon="-7.4364739470">
        <ele>198.17</ele>
        <time>2021-05-28T09:35:37Z</time>
      </trkpt>
      <trkpt lat="37.7660052571" lon="-7.4364510644">
        <ele>197.69</ele>
        <time>2021-05-28T09:35:38Z</time>
      </trkpt>
      <trkpt lat="37.7659207676" lon="-7.4364539143">
        <ele>198.17</ele>
        <time>2021-05-28T09:35:39Z</time>
      </trkpt>
      <trkpt lat="37.7658283990" lon="-7.4364772160">
        <ele>198.65</ele>
        <time>2021-05-28T09:35:40Z</time>
      </trkpt>
      <trkpt lat="37.7657223679" lon="-7.4365165271">
        <ele>199.13</ele>
        <time>2021-05-28T09:35:41Z</time>
      </trkpt>
      <trkpt lat="37.7656030934" lon="-7.4365706742">
        <ele>198.17</ele>
        <time>2021-05-28T09:35:42Z</time>
      </trkpt>
      <trkpt lat="37.7647489775" lon="-7.4369615223">
        <ele>197.21</ele>
        <time>2021-05-28T09:35:49Z</time>
      </trkpt>
      <trkpt lat="37.7646323014" lon="-7.4369686469">
        <ele>196.73</ele>
        <time>2021-05-28T09:35:50Z</time>
      </trkpt>
      <trkpt lat="37.7645204868" lon="-7.4369398970">
        <ele>196.25</ele>
        <time>2021-05-28T09:35:51Z</time>
      </trkpt>
      <trkpt lat="37.7644302137" lon="-7.4368796311">
        <ele>196.73</ele>
        <time>2021-05-28T09:35:52Z</time>
      </trkpt>
      <trkpt lat="37.7643696964" lon="-7.4368022662">
        <ele>195.28</ele>
        <time>2021-05-28T09:35:53Z</time>
      </trkpt>
      <trkpt lat="37.7643358335" lon="-7.4367041141">
        <ele>195.77</ele>
        <time>2021-05-28T09:35:54Z</time>
      </trkpt>
      <trkpt lat="37.7643169742" lon="-7.4365819898">
        <ele>196.25</ele>
        <time>2021-05-28T09:35:55Z</time>
      </trkpt>
      <trkpt lat="37.7643064968" lon="-7.4364459515">
        <ele>197.21</ele>
        <time>2021-05-28T09:35:56Z</time>
      </trkpt>
      <trkpt lat="37.7643013000" lon="-7.4363080692">
        <ele>197.69</ele>
        <time>2021-05-28T09:35:57Z</time>
      </trkpt>
      <trkpt lat="37.7642935887" lon="-7.4361793231">
        <ele>198.17</ele>
        <time>2021-05-28T09:35:58Z</time>
      </trkpt>
      <trkpt lat="37.7642710414" lon="-7.4360601325">
        <ele>197.21</ele>
        <time>2021-05-28T09:35:59Z</time>
      </trkpt>
      <trkpt lat="37.7642241027" lon="-7.4359435402">
        <ele>196.73</ele>
        <time>2021-05-28T09:36:00Z</time>
      </trkpt>
      <trkpt lat="37.7641500067" lon="-7.4358299654">
        <ele>197.21</ele>
        <time>2021-05-28T09:36:01Z</time>
      </trkpt>
      <trkpt lat="37.7640557941" lon="-7.4357246049">
        <ele>198.17</ele>
        <time>2021-05-28T09:36:02Z</time>
      </trkpt>
      <trkpt lat="37.7639513556" lon="-7.4356207531">
        <ele>197.69</ele>
        <time>2021-05-28T09:36:03Z</time>
      </trkpt>
      <trkpt lat="37.7630605269" lon="-7.4347647093">
        <ele>198.65</ele>
        <time>2021-05-28T09:36:10Z</time>
      </trkpt>
      <trkpt lat="37.7626738697" lon="-7.4345046189">
        <ele>195.28</ele>
        <time>2021-05-28T09:36:13Z</time>
      </trkpt>
      <trkpt lat="37.7625513263" lon="-7.4344446044">
        <ele>194.32</ele>
        <time>2021-05-28T09:36:14Z</time>
      </trkpt>
      <trkpt lat="37.7624220774" lon="-7.4344164412">
        <ele>192.88</ele>
        <time>2021-05-28T09:36:15Z</time>
      </trkpt>
      <trkpt lat="37.7622826863" lon="-7.4344240688">
        <ele>193.36</ele>
        <time>2021-05-28T09:36:16Z</time>
      </trkpt>
      <trkpt lat="37.7621419542" lon="-7.4344563391">
        <ele>193.36</ele>
        <time>2021-05-28T09:36:17Z</time>
      </trkpt>
      <trkpt lat="37.7620083466" lon="-7.4344907049">
        <ele>193.36</ele>
        <time>2021-05-28T09:36:18Z</time>
      </trkpt>
      <trkpt lat="37.7617775928" lon="-7.4345217180">
        <ele>192.88</ele>
        <time>2021-05-28T09:36:20Z</time>
      </trkpt>
      <trkpt lat="37.7616821229" lon="-7.4344971590">
        <ele>191.92</ele>
        <time>2021-05-28T09:36:21Z</time>
      </trkpt>
      <trkpt lat="37.7616001479" lon="-7.4344362225">
        <ele>191.92</ele>
        <time>2021-05-28T09:36:22Z</time>
      </trkpt>
      <trkpt lat="37.7615231182" lon="-7.4343436863">
        <ele>192.88</ele>
        <time>2021-05-28T09:36:23Z</time>
      </trkpt>
      <trkpt lat="37.7614407241" lon="-7.4342298601">
        <ele>194.32</ele>
        <time>2021-05-28T09:36:24Z</time>
      </trkpt>
      <trkpt lat="37.7610128280" lon="-7.4337561987">
        <ele>197.69</ele>
        <time>2021-05-28T09:36:28Z</time>
      </trkpt>
      <trkpt lat="37.7608902007" lon="-7.4336652551">
        <ele>196.73</ele>
        <time>2021-05-28T09:36:29Z</time>
      </trkpt>
      <trkpt lat="37.7607729379" lon="-7.4335953500">
        <ele>196.25</ele>
        <time>2021-05-28T09:36:30Z</time>
      </trkpt>
      <trkpt lat="37.7606602851" lon="-7.4335421249">
        <ele>196.25</ele>
        <time>2021-05-28T09:36:31Z</time>
      </trkpt>
      <trkpt lat="37.7605454531" lon="-7.4335127883">
        <ele>195.28</ele>
        <time>2021-05-28T09:36:32Z</time>
      </trkpt>
      <trkpt lat="37.7604298666" lon="-7.4335156381">
        <ele>194.80</ele>
        <time>2021-05-28T09:36:33Z</time>
      </trkpt>
      <trkpt lat="37.7603255119" lon="-7.4335439689">
        <ele>194.80</ele>
        <time>2021-05-28T09:36:34Z</time>
      </trkpt>
      <trkpt lat="37.7602387592" lon="-7.4335922487">
        <ele>193.84</ele>
        <time>2021-05-28T09:36:35Z</time>
      </trkpt>
      <trkpt lat="37.7601657528" lon="-7.4336704519">
        <ele>193.36</ele>
        <time>2021-05-28T09:36:36Z</time>
      </trkpt>
      <trkpt lat="37.7600973565" lon="-7.4337778240">
        <ele>192.88</ele>
        <time>2021-05-28T09:36:37Z</time>
      </trkpt>
      <trkpt lat="37.7600333188" lon="-7.4339041393">
        <ele>193.36</ele>
        <time>2021-05-28T09:36:38Z</time>
      </trkpt>
      <trkpt lat="37.7599716280" lon="-7.4340406805">
        <ele>192.40</ele>
        <time>2021-05-28T09:36:39Z</time>
      </trkpt>
      <trkpt lat="37.7596913371" lon="-7.4345979933">
        <ele>192.88</ele>
        <time>2021-05-28T09:36:43Z</time>
      </trkpt>
      <trkpt lat="37.7596150618" lon="-7.4347047787">
        <ele>193.36</ele>
        <time>2021-05-28T09:36:44Z</time>
      </trkpt>
      <trkpt lat="37.7595343441" lon="-7.4347880110">
        <ele>192.40</ele>
        <time>2021-05-28T09:36:45Z</time>
      </trkpt>
      <trkpt lat="37.7594350185" lon="-7.4348399788">
        <ele>192.40</ele>
        <time>2021-05-28T09:36:46Z</time>
      </trkpt>
      <trkpt lat="37.7593169175" lon="-7.4348591734">
        <ele>192.88</ele>
        <time>2021-05-28T09:36:47Z</time>
      </trkpt>
      <trkpt lat="37.7591900993" lon="-7.4348653760">
        <ele>193.36</ele>
        <time>2021-05-28T09:36:48Z</time>
      </trkpt>
      <trkpt lat="37.7590551507" lon="-7.4348701537">
        <ele>194.80</ele>
        <time>2021-05-28T09:36:49Z</time>
      </trkpt>
      <trkpt lat="37.7584137674" lon="-7.4348989036">
        <ele>193.36</ele>
        <time>2021-05-28T09:36:54Z</time>
      </trkpt>
      <trkpt lat="37.7583084069" lon="-7.4349335209">
        <ele>192.40</ele>
        <time>2021-05-28T09:36:55Z</time>
      </trkpt>
      <trkpt lat="37.7582131047" lon="-7.4349978939">
        <ele>191.92</ele>
        <time>2021-05-28T09:36:56Z</time>
      </trkpt>
      <trkpt lat="37.7581373323" lon="-7.4350881670">
        <ele>191.92</ele>
        <time>2021-05-28T09:36:57Z</time>
      </trkpt>
      <trkpt lat="37.7580788266" lon="-7.4352055136">
        <ele>191.44</ele>
        <time>2021-05-28T09:36:58Z</time>
      </trkpt>
      <trkpt lat="37.7580395993" lon="-7.4353500176">
        <ele>191.44</ele>
        <time>2021-05-28T09:36:59Z</time>
      </trkpt>
      <trkpt lat="37.7580197342" lon="-7.4355127104">
        <ele>191.44</ele>
        <time>2021-05-28T09:37:00Z</time>
      </trkpt>
      <trkpt lat="37.7580073290" lon="-7.4356754869">
        <ele>191.44</ele>
        <time>2021-05-28T09:37:01Z</time>
      </trkpt>
      <trkpt lat="37.7579898108" lon="-7.4358275346">
        <ele>190.48</ele>
        <time>2021-05-28T09:37:02Z</time>
      </trkpt>
      <trkpt lat="37.7579569537" lon="-7.4359571189">
        <ele>189.52</ele>
        <time>2021-05-28T09:37:03Z</time>
      </trkpt>
      <trkpt lat="37.7578950115" lon="-7.4360584561">
        <ele>189.52</ele>
        <time>2021-05-28T09:37:04Z</time>
      </trkpt>
      <trkpt lat="37.7578116953" lon="-7.4361344799">
        <ele>190.00</ele>
        <time>2021-05-28T09:37:05Z</time>
      </trkpt>
      <trkpt lat="37.7577103581" lon="-7.4362030439">
        <ele>190.48</ele>
        <time>2021-05-28T09:37:06Z</time>
      </trkpt>
      <trkpt lat="37.7575930115" lon="-7.4362750445">
        <ele>190.48</ele>
        <time>2021-05-28T09:37:07Z</time>
      </trkpt>
      <trkpt lat="37.7573197614" lon="-7.4364442751">
        <ele>191.44</ele>
        <time>2021-05-28T09:37:09Z</time>
      </trkpt>
      <trkpt lat="37.7569031809" lon="-7.4367101490">
        <ele>193.36</ele>
        <time>2021-05-28T09:37:12Z</time>
      </trkpt>
      <trkpt lat="37.7564505581" lon="-7.4369772803">
        <ele>192.88</ele>
        <time>2021-05-28T09:37:16Z</time>
      </trkpt>
      <trkpt lat="37.7562088240" lon="-7.4370726664">
        <ele>194.80</ele>
        <time>2021-05-28T09:37:18Z</time>
      </trkpt>
      <trkpt lat="37.7561017871" lon="-7.4371364526">
        <ele>194.32</ele>
        <time>2021-05-28T09:37:19Z</time>
      </trkpt>
      <trkpt lat="37.7560141124" lon="-7.4372190144">
        <ele>194.32</ele>
        <time>2021-05-28T09:37:20Z</time>
      </trkpt>
      <trkpt lat="37.7559458837" lon="-7.4373297393">
        <ele>194.32</ele>
        <time>2021-05-28T09:37:21Z</time>
      </trkpt>
      <trkpt lat="37.7558950055" lon="-7.4374687951">
        <ele>194.80</ele>
        <time>2021-05-28T09:37:22Z</time>
      </trkpt>
      <trkpt lat="37.7558549400" lon="-7.4376312364">
        <ele>196.73</ele>
        <time>2021-05-28T09:37:23Z</time>
      </trkpt>
      <trkpt lat="37.7558111865" lon="-7.4378031492">
        <ele>196.73</ele>
        <time>2021-05-28T09:37:24Z</time>
      </trkpt>
      <trkpt lat="37.7557540219" lon="-7.4379800912">
        <ele>197.69</ele>
        <time>2021-05-28T09:37:25Z</time>
      </trkpt>
      <trkpt lat="37.7556899004" lon="-7.4381610565">
        <ele>197.21</ele>
        <time>2021-05-28T09:37:26Z</time>
      </trkpt>
      <trkpt lat="37.7555225976" lon="-7.4386649765">
        <ele>193.84</ele>
        <time>2021-05-28T09:37:29Z</time>
      </trkpt>
      <trkpt lat="37.7554267086" lon="-7.4389514700">
        <ele>191.92</ele>
        <time>2021-05-28T09:37:31Z</time>
      </trkpt>
      <trkpt lat="37.7553637605" lon="-7.4390657153">
        <ele>190.96</ele>
        <time>2021-05-28T09:37:32Z</time>
      </trkpt>
      <trkpt lat="37.7552804444" lon="-7.4391460977">
        <ele>190.48</ele>
        <time>2021-05-28T09:37:33Z</time>
      </trkpt>
      <trkpt lat="37.7551848069" lon="-7.4391797092">
        <ele>189.52</ele>
        <time>2021-05-28T09:37:34Z</time>
      </trkpt>
      <trkpt lat="37.7550868224" lon="-7.4391582515">
        <ele>190.48</ele>
        <time>2021-05-28T09:37:35Z</time>
      </trkpt>
      <trkpt lat="37.7549866587" lon="-7.4391029309">
        <ele>191.44</ele>
        <time>2021-05-28T09:37:36Z</time>
      </trkpt>
      <trkpt lat="37.7548872493" lon="-7.4390462693">
        <ele>192.40</ele>
        <time>2021-05-28T09:37:37Z</time>
      </trkpt>
      <trkpt lat="37.7547885105" lon="-7.4390156753">
        <ele>191.44</ele>
        <time>2021-05-28T09:37:38Z</time>
      </trkpt>
      <trkpt lat="37.7546841558" lon="-7.4390134960">
        <ele>190.96</ele>
        <time>2021-05-28T09:37:39Z</time>
      </trkpt>
      <trkpt lat="37.7545735147" lon="-7.4390274938">
        <ele>190.48</ele>
        <time>2021-05-28T09:37:40Z</time>
      </trkpt>
      <trkpt lat="37.7544572577" lon="-7.4390329421">
        <ele>190.96</ele>
        <time>2021-05-28T09:37:41Z</time>
      </trkpt>
      <trkpt lat="37.7543358039" lon="-7.4390026834">
        <ele>190.48</ele>
        <time>2021-05-28T09:37:42Z</time>
      </trkpt>
      <trkpt lat="37.7542109974" lon="-7.4389384780">
        <ele>190.96</ele>
        <time>2021-05-28T09:37:43Z</time>
      </trkpt>
      <trkpt lat="37.7539774776" lon="-7.4387898669">
        <ele>189.52</ele>
        <time>2021-05-28T09:37:45Z</time>
      </trkpt>
      <trkpt lat="37.7534870524" lon="-7.4385152757">
        <ele>187.11</ele>
        <time>2021-05-28T09:37:51Z</time>
      </trkpt>
      <trkpt lat="37.7533701248" lon="-7.4384966679">
        <ele>187.11</ele>
        <time>2021-05-28T09:37:52Z</time>
      </trkpt>
      <trkpt lat="37.7532468271" lon="-7.4385011103">
        <ele>186.63</ele>
        <time>2021-05-28T09:37:53Z</time>
      </trkpt>
      <trkpt lat="37.7531173266" lon="-7.4385255855">
        <ele>186.15</ele>
        <time>2021-05-28T09:37:54Z</time>
      </trkpt>
      <trkpt lat="37.7529891673" lon="-7.4385788105">
        <ele>185.67</ele>
        <time>2021-05-28T09:37:55Z</time>
      </trkpt>
      <trkpt lat="37.7528719045" lon="-7.4386628810">
        <ele>185.19</ele>
        <time>2021-05-28T09:37:56Z</time>
      </trkpt>
      <trkpt lat="37.7527737524" lon="-7.4387777969">
        <ele>185.19</ele>
        <time>2021-05-28T09:37:57Z</time>
      </trkpt>
      <trkpt lat="37.7526975609" lon="-7.4389248155">
        <ele>184.71</ele>
        <time>2021-05-28T09:37:58Z</time>
      </trkpt>
      <trkpt lat="37.7526403964" lon="-7.4390961416">
        <ele>185.19</ele>
        <time>2021-05-28T09:37:59Z</time>
      </trkpt>
      <trkpt lat="37.7525982354" lon="-7.4392719939">
        <ele>185.67</ele>
        <time>2021-05-28T09:38:00Z</time>
      </trkpt>
      <trkpt lat="37.7525124885" lon="-7.4395738263">
        <ele>184.71</ele>
        <time>2021-05-28T09:38:02Z</time>
      </trkpt>
      <trkpt lat="37.7524509653" lon="-7.4396912567">
        <ele>184.71</ele>
        <time>2021-05-28T09:38:03Z</time>
      </trkpt>
      <trkpt lat="37.7523681521" lon="-7.4397925101">
        <ele>184.71</ele>
        <time>2021-05-28T09:38:04Z</time>
      </trkpt>
      <trkpt lat="37.7518031280" lon="-7.4403952528">
        <ele>187.11</ele>
        <time>2021-05-28T09:38:09Z</time>
      </trkpt>
      <trkpt lat="37.7516156249" lon="-7.4406468775">
        <ele>185.67</ele>
        <time>2021-05-28T09:38:11Z</time>
      </trkpt>
      <trkpt lat="37.7515468933" lon="-7.4407919683">
        <ele>186.15</ele>
        <time>2021-05-28T09:38:12Z</time>
      </trkpt>
      <trkpt lat="37.7514872141" lon="-7.4409583490">
        <ele>186.63</ele>
        <time>2021-05-28T09:38:13Z</time>
      </trkpt>
      <trkpt lat="37.7512825280" lon="-7.4414881691">
        <ele>188.56</ele>
        <time>2021-05-28T09:38:16Z</time>
      </trkpt>
      <trkpt lat="37.7505455911" lon="-7.4426151998">
        <ele>186.63</ele>
        <time>2021-05-28T09:38:23Z</time>
      </trkpt>
      <trkpt lat="37.7504680585" lon="-7.4428097438">
        <ele>185.67</ele>
        <time>2021-05-28T09:38:24Z</time>
      </trkpt>
      <trkpt lat="37.7504076250" lon="-7.4430182017">
        <ele>186.15</ele>
        <time>2021-05-28T09:38:25Z</time>
      </trkpt>
      <trkpt lat="37.7500979975" lon="-7.4440578930">
        <ele>183.75</ele>
        <time>2021-05-28T09:38:31Z</time>
      </trkpt>
      <trkpt lat="37.7500208002" lon="-7.4441535305">
        <ele>183.75</ele>
        <time>2021-05-28T09:38:32Z</time>
      </trkpt>
      <trkpt lat="37.7499338798" lon="-7.4442136288">
        <ele>182.79</ele>
        <time>2021-05-28T09:38:33Z</time>
      </trkpt>
      <trkpt lat="37.7498406731" lon="-7.4442374334">
        <ele>182.79</ele>
        <time>2021-05-28T09:38:34Z</time>
      </trkpt>
      <trkpt lat="37.7497376595" lon="-7.4442246929">
        <ele>183.27</ele>
        <time>2021-05-28T09:38:35Z</time>
      </trkpt>
      <trkpt lat="37.7496304549" lon="-7.4441688694">
        <ele>183.27</ele>
        <time>2021-05-28T09:38:36Z</time>
      </trkpt>
      <trkpt lat="37.7495209873" lon="-7.4440748245">
        <ele>183.75</ele>
        <time>2021-05-28T09:38:37Z</time>
      </trkpt>
      <trkpt lat="37.7494121902" lon="-7.4439667817">
        <ele>184.71</ele>
        <time>2021-05-28T09:38:38Z</time>
      </trkpt>
      <trkpt lat="37.7491132077" lon="-7.4436979741">
        <ele>182.79</ele>
        <time>2021-05-28T09:38:41Z</time>
      </trkpt>
      <trkpt lat="37.7490041591" lon="-7.4436505325">
        <ele>182.79</ele>
        <time>2021-05-28T09:38:42Z</time>
      </trkpt>
      <trkpt lat="37.7488808613" lon="-7.4436253030">
        <ele>183.27</ele>
        <time>2021-05-28T09:38:43Z</time>
      </trkpt>
      <trkpt lat="37.7485951222" lon="-7.4435969722">
        <ele>184.23</ele>
        <time>2021-05-28T09:38:45Z</time>
      </trkpt>
      <trkpt lat="37.7472484857" lon="-7.4435041007">
        <ele>185.67</ele>
        <time>2021-05-28T09:38:53Z</time>
      </trkpt>
      <trkpt lat="37.7468083519" lon="-7.4435087107">
        <ele>182.31</ele>
        <time>2021-05-28T09:38:56Z</time>
      </trkpt>
      <trkpt lat="37.7466874011" lon="-7.4435658753">
        <ele>180.87</ele>
        <time>2021-05-28T09:38:57Z</time>
      </trkpt>
      <trkpt lat="37.7465806156" lon="-7.4436606746">
        <ele>180.87</ele>
        <time>2021-05-28T09:38:58Z</time>
      </trkpt>
      <trkpt lat="37.7464794461" lon="-7.4437965453">
        <ele>180.38</ele>
        <time>2021-05-28T09:38:59Z</time>
      </trkpt>
      <trkpt lat="37.7463766001" lon="-7.4439646024">
        <ele>181.35</ele>
        <time>2021-05-28T09:39:00Z</time>
      </trkpt>
      <trkpt lat="37.7461460140" lon="-7.4443494994">
        <ele>185.19</ele>
        <time>2021-05-28T09:39:02Z</time>
      </trkpt>
      <trkpt lat="37.7460201178" lon="-7.4445433728">
        <ele>184.71</ele>
        <time>2021-05-28T09:39:03Z</time>
      </trkpt>
      <trkpt lat="37.7453100029" lon="-7.4456426594">
        <ele>180.87</ele>
        <time>2021-05-28T09:39:09Z</time>
      </trkpt>
      <trkpt lat="37.7452091686" lon="-7.4457714893">
        <ele>179.90</ele>
        <time>2021-05-28T09:39:10Z</time>
      </trkpt>
      <trkpt lat="37.7450954262" lon="-7.4458703119">
        <ele>179.90</ele>
        <time>2021-05-28T09:39:11Z</time>
      </trkpt>
      <trkpt lat="37.7449600585" lon="-7.4459361937">
        <ele>178.94</ele>
        <time>2021-05-28T09:39:12Z</time>
      </trkpt>
      <trkpt lat="37.7448028978" lon="-7.4459750019">
        <ele>180.87</ele>
        <time>2021-05-28T09:39:13Z</time>
      </trkpt>
      <trkpt lat="37.7446311526" lon="-7.4460035842">
        <ele>181.83</ele>
        <time>2021-05-28T09:39:14Z</time>
      </trkpt>
      <trkpt lat="37.7441499475" lon="-7.4461096153">
        <ele>181.35</ele>
        <time>2021-05-28T09:39:17Z</time>
      </trkpt>
      <trkpt lat="37.7440077905" lon="-7.4461950269">
        <ele>181.35</ele>
        <time>2021-05-28T09:39:18Z</time>
      </trkpt>
      <trkpt lat="37.7438808046" lon="-7.4463122059">
        <ele>181.35</ele>
        <time>2021-05-28T09:39:19Z</time>
      </trkpt>
      <trkpt lat="37.7437680680" lon="-7.4464479089">
        <ele>181.35</ele>
        <time>2021-05-28T09:39:20Z</time>
      </trkpt>
      <trkpt lat="37.7436611149" lon="-7.4465867970">
        <ele>181.35</ele>
        <time>2021-05-28T09:39:21Z</time>
      </trkpt>
      <trkpt lat="37.7428489085" lon="-7.4475762807">
        <ele>177.98</ele>
        <time>2021-05-28T09:39:28Z</time>
      </trkpt>
      <trkpt lat="37.7427391894" lon="-7.4477022607">
        <ele>177.98</ele>
        <time>2021-05-28T09:39:29Z</time>
      </trkpt>
      <trkpt lat="37.7426425461" lon="-7.4478246365">
        <ele>177.02</ele>
        <time>2021-05-28T09:39:30Z</time>
      </trkpt>
      <trkpt lat="37.7425643429" lon="-7.4479489401">
        <ele>176.54</ele>
        <time>2021-05-28T09:39:31Z</time>
      </trkpt>
      <trkpt lat="37.7425080165" lon="-7.4480808713">
        <ele>176.06</ele>
        <time>2021-05-28T09:39:32Z</time>
      </trkpt>
      <trkpt lat="37.7424741536" lon="-7.4482324999">
        <ele>176.54</ele>
        <time>2021-05-28T09:39:33Z</time>
      </trkpt>
      <trkpt lat="37.7424563002" lon="-7.4484000541">
        <ele>177.50</ele>
        <time>2021-05-28T09:39:34Z</time>
      </trkpt>
      <trkpt lat="37.7424454875" lon="-7.4485729728">
        <ele>177.50</ele>
        <time>2021-05-28T09:39:35Z</time>
      </trkpt>
      <trkpt lat="37.7424065955" lon="-7.4489986897">
        <ele>177.02</ele>
        <time>2021-05-28T09:39:38Z</time>
      </trkpt>
      <trkpt lat="37.7423780970" lon="-7.4491074029">
        <ele>177.50</ele>
        <time>2021-05-28T09:39:39Z</time>
      </trkpt>
      <trkpt lat="37.7423368581" lon="-7.4492167030">
        <ele>177.98</ele>
        <time>2021-05-28T09:39:40Z</time>
      </trkpt>
      <trkpt lat="37.7422360238" lon="-7.4494422600">
        <ele>177.50</ele>
        <time>2021-05-28T09:39:42Z</time>
      </trkpt>
      <trkpt lat="37.7421599999" lon="-7.4495425913">
        <ele>176.54</ele>
        <time>2021-05-28T09:39:43Z</time>
      </trkpt>
      <trkpt lat="37.7420585789" lon="-7.4496275000">
        <ele>177.50</ele>
        <time>2021-05-28T09:39:44Z</time>
      </trkpt>
      <trkpt lat="37.7418291662" lon="-7.4497937970">
        <ele>177.50</ele>
        <time>2021-05-28T09:39:46Z</time>
      </trkpt>
      <trkpt lat="37.7417271584" lon="-7.4499050248">
        <ele>176.54</ele>
        <time>2021-05-28T09:39:47Z</time>
      </trkpt>
      <trkpt lat="37.7416423336" lon="-7.4500405602">
        <ele>175.58</ele>
        <time>2021-05-28T09:39:48Z</time>
      </trkpt>
      <trkpt lat="37.7415716741" lon="-7.4501904286">
        <ele>176.54</ele>
        <time>2021-05-28T09:39:49Z</time>
      </trkpt>
      <trkpt lat="37.7415124141" lon="-7.4503378663">
        <ele>176.06</ele>
        <time>2021-05-28T09:39:50Z</time>
      </trkpt>
      <trkpt lat="37.7413831651" lon="-7.4506032374">
        <ele>174.62</ele>
        <time>2021-05-28T09:39:52Z</time>
      </trkpt>
      <trkpt lat="37.7413036209" lon="-7.4506953545">
        <ele>173.66</ele>
        <time>2021-05-28T09:39:53Z</time>
      </trkpt>
      <trkpt lat="37.7412073966" lon="-7.4507552013">
        <ele>174.14</ele>
        <time>2021-05-28T09:39:54Z</time>
      </trkpt>
      <trkpt lat="37.7410945762" lon="-7.4507852923">
        <ele>174.62</ele>
        <time>2021-05-28T09:39:55Z</time>
      </trkpt>
      <trkpt lat="37.7409716975" lon="-7.4507804308">
        <ele>175.10</ele>
        <time>2021-05-28T09:39:56Z</time>
      </trkpt>
      <trkpt lat="37.7408401854" lon="-7.4507461488">
        <ele>176.06</ele>
        <time>2021-05-28T09:39:57Z</time>
      </trkpt>
      <trkpt lat="37.7407028060" lon="-7.4507085979">
        <ele>177.02</ele>
        <time>2021-05-28T09:39:58Z</time>
      </trkpt>
      <trkpt lat="37.7405567933" lon="-7.4507074244">
        <ele>177.50</ele>
        <time>2021-05-28T09:39:59Z</time>
      </trkpt>
      <trkpt lat="37.7404079307" lon="-7.4507495016">
        <ele>178.46</ele>
        <time>2021-05-28T09:40:00Z</time>
      </trkpt>
      <trkpt lat="37.7402707189" lon="-7.4508070014">
        <ele>179.42</ele>
        <time>2021-05-28T09:40:01Z</time>
      </trkpt>
      <trkpt lat="37.7399465907" lon="-7.4509711191">
        <ele>178.94</ele>
        <time>2021-05-28T09:40:04Z</time>
      </trkpt>
      <trkpt lat="37.7398558985" lon="-7.4510442093">
        <ele>179.42</ele>
        <time>2021-05-28T09:40:05Z</time>
      </trkpt>
      <trkpt lat="37.7394210454" lon="-7.4514436908">
        <ele>180.87</ele>
        <time>2021-05-28T09:40:09Z</time>
      </trkpt>
      <trkpt lat="37.7391493879" lon="-7.4517046195">
        <ele>182.31</ele>
        <time>2021-05-28T09:40:11Z</time>
      </trkpt>
      <trkpt lat="37.7380239498" lon="-7.4527997151">
        <ele>183.27</ele>
        <time>2021-05-28T09:40:19Z</time>
      </trkpt>
      <trkpt lat="37.7377320919" lon="-7.4530864600">
        <ele>181.35</ele>
        <time>2021-05-28T09:40:21Z</time>
      </trkpt>
      <trkpt lat="37.7373379748" lon="-7.4536068086">
        <ele>177.98</ele>
        <time>2021-05-28T09:40:24Z</time>
      </trkpt>
      <trkpt lat="37.7372336201" lon="-7.4537912942">
        <ele>177.98</ele>
        <time>2021-05-28T09:40:25Z</time>
      </trkpt>
      <trkpt lat="37.7371420059" lon="-7.4539871793">
        <ele>176.06</ele>
        <time>2021-05-28T09:40:26Z</time>
      </trkpt>
      <trkpt lat="37.7370621264" lon="-7.4541961402">
        <ele>175.58</ele>
        <time>2021-05-28T09:40:27Z</time>
      </trkpt>
      <trkpt lat="37.7368291933" lon="-7.4551401101">
        <ele>171.73</ele>
        <time>2021-05-28T09:40:31Z</time>
      </trkpt>
      <trkpt lat="37.7367376629" lon="-7.4556265119">
        <ele>168.37</ele>
        <time>2021-05-28T09:40:33Z</time>
      </trkpt>
      <trkpt lat="37.7366433665" lon="-7.4561055377">
        <ele>166.93</ele>
        <time>2021-05-28T09:40:35Z</time>
      </trkpt>
      <trkpt lat="37.7365564462" lon="-7.4565767683">
        <ele>163.08</ele>
        <time>2021-05-28T09:40:37Z</time>
      </trkpt>
      <trkpt lat="37.7364682686" lon="-7.4570514355">
        <ele>159.72</ele>
        <time>2021-05-28T09:40:39Z</time>
      </trkpt>
      <trkpt lat="37.7362940926" lon="-7.4577146117">
        <ele>156.35</ele>
        <time>2021-05-28T09:40:42Z</time>
      </trkpt>
      <trkpt lat="37.7362079266" lon="-7.4579039589">
        <ele>154.43</ele>
        <time>2021-05-28T09:40:43Z</time>
      </trkpt>
      <trkpt lat="37.7360990457" lon="-7.4580781348">
        <ele>152.99</ele>
        <time>2021-05-28T09:40:44Z</time>
      </trkpt>
      <trkpt lat="37.7359700482" lon="-7.4582339544">
        <ele>151.54</ele>
        <time>2021-05-28T09:40:45Z</time>
      </trkpt>
      <trkpt lat="37.7356554754" lon="-7.4584894348">
        <ele>149.62</ele>
        <time>2021-05-28T09:40:47Z</time>
      </trkpt>
      <trkpt lat="37.7354781143" lon="-7.4585726671">
        <ele>148.18</ele>
        <time>2021-05-28T09:40:48Z</time>
      </trkpt>
      <trkpt lat="37.7352847438" lon="-7.4586262275">
        <ele>147.70</ele>
        <time>2021-05-28T09:40:49Z</time>
      </trkpt>
      <trkpt lat="37.7350776270" lon="-7.4586562347">
        <ele>147.22</ele>
        <time>2021-05-28T09:40:50Z</time>
      </trkpt>
      <trkpt lat="37.7348611224" lon="-7.4586750939">
        <ele>147.70</ele>
        <time>2021-05-28T09:40:51Z</time>
      </trkpt>
      <trkpt lat="37.7337201778" lon="-7.4587424006">
        <ele>143.85</ele>
        <time>2021-05-28T09:40:56Z</time>
      </trkpt>
      <trkpt lat="37.7334812097" lon="-7.4587542191">
        <ele>144.34</ele>
        <time>2021-05-28T09:40:57Z</time>
      </trkpt>
      <trkpt lat="37.7332506236" lon="-7.4587671272">
        <ele>140.01</ele>
        <time>2021-05-28T09:40:58Z</time>
      </trkpt>
      <trkpt lat="37.7330302633" lon="-7.4587807897">
        <ele>136.64</ele>
        <time>2021-05-28T09:40:59Z</time>
      </trkpt>
      <trkpt lat="37.7326041274" lon="-7.4588061031">
        <ele>132.32</ele>
        <time>2021-05-28T09:41:01Z</time>
      </trkpt>
      <trkpt lat="37.7323874552" lon="-7.4588176701">
        <ele>131.84</ele>
        <time>2021-05-28T09:41:02Z</time>
      </trkpt>
      <trkpt lat="37.7317547891" lon="-7.4588571489">
        <ele>127.51</ele>
        <time>2021-05-28T09:41:05Z</time>
      </trkpt>
      <trkpt lat="37.7313670423" lon="-7.4588817079">
        <ele>122.22</ele>
        <time>2021-05-28T09:41:07Z</time>
      </trkpt>
      <trkpt lat="37.7311818022" lon="-7.4588972982">
        <ele>121.74</ele>
        <time>2021-05-28T09:41:08Z</time>
      </trkpt>
      <trkpt lat="37.7308139205" lon="-7.4589722324">
        <ele>119.82</ele>
        <time>2021-05-28T09:41:10Z</time>
      </trkpt>
      <trkpt lat="37.7306395769" lon="-7.4590489268">
        <ele>118.38</ele>
        <time>2021-05-28T09:41:11Z</time>
      </trkpt>
      <trkpt lat="37.7304582763" lon="-7.4591681175">
        <ele>116.94</ele>
        <time>2021-05-28T09:41:12Z</time>
      </trkpt>
      <trkpt lat="37.7303307876" lon="-7.4592865538">
        <ele>115.50</ele>
        <time>2021-05-28T09:41:13Z</time>
      </trkpt>
      <trkpt lat="37.7301970962" lon="-7.4594539404">
        <ele>116.46</ele>
        <time>2021-05-28T09:41:14Z</time>
      </trkpt>
      <trkpt lat="37.7300715353" lon="-7.4596458860">
        <ele>115.98</ele>
        <time>2021-05-28T09:41:15Z</time>
      </trkpt>
      <trkpt lat="37.7299498301" lon="-7.4598530866">
        <ele>116.94</ele>
        <time>2021-05-28T09:41:16Z</time>
      </trkpt>
      <trkpt lat="37.7294433117" lon="-7.4607285764">
        <ele>120.78</ele>
        <time>2021-05-28T09:41:20Z</time>
      </trkpt>
      <trkpt lat="37.7291843109" lon="-7.4611496832">
        <ele>120.30</ele>
        <time>2021-05-28T09:41:22Z</time>
      </trkpt>
      <trkpt lat="37.7285890281" lon="-7.4617558625">
        <ele>126.07</ele>
        <time>2021-05-28T09:41:26Z</time>
      </trkpt>
      <trkpt lat="37.7284272574" lon="-7.4618442077">
        <ele>126.07</ele>
        <time>2021-05-28T09:41:27Z</time>
      </trkpt>
      <trkpt lat="37.7280905563" lon="-7.4619647395">
        <ele>129.92</ele>
        <time>2021-05-28T09:41:29Z</time>
      </trkpt>
      <trkpt lat="37.7273302339" lon="-7.4621022027">
        <ele>135.68</ele>
        <time>2021-05-28T09:41:33Z</time>
      </trkpt>
      <trkpt lat="37.7269166708" lon="-7.4621589482">
        <ele>140.01</ele>
        <time>2021-05-28T09:41:35Z</time>
      </trkpt>
      <trkpt lat="37.7264916245" lon="-7.4622143526">
        <ele>144.82</ele>
        <time>2021-05-28T09:41:37Z</time>
      </trkpt>
      <trkpt lat="37.7262734435" lon="-7.4622404203">
        <ele>144.82</ele>
        <time>2021-05-28T09:41:38Z</time>
      </trkpt>
      <trkpt lat="37.7258343156" lon="-7.4622980878">
        <ele>148.66</ele>
        <time>2021-05-28T09:41:40Z</time>
      </trkpt>
      <trkpt lat="37.7251860593" lon="-7.4623917975">
        <ele>153.47</ele>
        <time>2021-05-28T09:41:43Z</time>
      </trkpt>
      <trkpt lat="37.7243540715" lon="-7.4625208788">
        <ele>157.31</ele>
        <time>2021-05-28T09:41:47Z</time>
      </trkpt>
      <trkpt lat="37.7237452939" lon="-7.4626112357">
        <ele>161.16</ele>
        <time>2021-05-28T09:41:50Z</time>
      </trkpt>
      <trkpt lat="37.7231444791" lon="-7.4626959767">
        <ele>165.48</ele>
        <time>2021-05-28T09:41:53Z</time>
      </trkpt>
      <trkpt lat="37.7225529682" lon="-7.4627810530">
        <ele>169.33</ele>
        <time>2021-05-28T09:41:56Z</time>
      </trkpt>
      <trkpt lat="37.7221674006" lon="-7.4628208671">
        <ele>172.69</ele>
        <time>2021-05-28T09:41:58Z</time>
      </trkpt>
      <trkpt lat="37.7215815894" lon="-7.4627736770">
        <ele>176.06</ele>
        <time>2021-05-28T09:42:01Z</time>
      </trkpt>
      <trkpt lat="37.7211712953" lon="-7.4626811408">
        <ele>180.38</ele>
        <time>2021-05-28T09:42:03Z</time>
      </trkpt>
      <trkpt lat="37.7209635917" lon="-7.4626311846">
        <ele>183.75</ele>
        <time>2021-05-28T09:42:04Z</time>
      </trkpt>
      <trkpt lat="37.7203284949" lon="-7.4624729343">
        <ele>186.63</ele>
        <time>2021-05-28T09:42:07Z</time>
      </trkpt>
      <trkpt lat="37.7194607165" lon="-7.4622638896">
        <ele>193.36</ele>
        <time>2021-05-28T09:42:11Z</time>
      </trkpt>
      <trkpt lat="37.7185993921" lon="-7.4620702676">
        <ele>192.40</ele>
        <time>2021-05-28T09:42:15Z</time>
      </trkpt>
      <trkpt lat="37.7177772112" lon="-7.4622035399">
        <ele>194.80</ele>
        <time>2021-05-28T09:42:19Z</time>
      </trkpt>
      <trkpt lat="37.7173545118" lon="-7.4624429271">
        <ele>194.80</ele>
        <time>2021-05-28T09:42:21Z</time>
      </trkpt>
      <trkpt lat="37.7154491376" lon="-7.4636894837">
        <ele>191.44</ele>
        <time>2021-05-28T09:42:30Z</time>
      </trkpt>
      <trkpt lat="37.7139110584" lon="-7.4646922946">
        <ele>187.59</ele>
        <time>2021-05-28T09:42:37Z</time>
      </trkpt>
      <trkpt lat="37.7136816457" lon="-7.4648396485">
        <ele>187.59</ele>
        <time>2021-05-28T09:42:38Z</time>
      </trkpt>
      <trkpt lat="37.7127831895" lon="-7.4654200114">
        <ele>183.75</ele>
        <time>2021-05-28T09:42:42Z</time>
      </trkpt>
      <trkpt lat="37.7116750181" lon="-7.4661382567">
        <ele>180.87</ele>
        <time>2021-05-28T09:42:47Z</time>
      </trkpt>
      <trkpt lat="37.7112381533" lon="-7.4664198048">
        <ele>179.42</ele>
        <time>2021-05-28T09:42:49Z</time>
      </trkpt>
      <trkpt lat="37.7087756339" lon="-7.4682344869">
        <ele>178.46</ele>
        <time>2021-05-28T09:43:01Z</time>
      </trkpt>
      <trkpt lat="37.7081425488" lon="-7.4690057058">
        <ele>175.10</ele>
        <time>2021-05-28T09:43:05Z</time>
      </trkpt>
      <trkpt lat="37.7079998888" lon="-7.4692051113">
        <ele>175.10</ele>
        <time>2021-05-28T09:43:06Z</time>
      </trkpt>
      <trkpt lat="37.7067471296" lon="-7.4712604377">
        <ele>172.69</ele>
        <time>2021-05-28T09:43:15Z</time>
      </trkpt>
      <trkpt lat="37.7060160600" lon="-7.4724764843">
        <ele>169.33</ele>
        <time>2021-05-28T09:43:20Z</time>
      </trkpt>
      <trkpt lat="37.7058765013" lon="-7.4727097526">
        <ele>168.85</ele>
        <time>2021-05-28T09:43:21Z</time>
      </trkpt>
      <trkpt lat="37.7054681350" lon="-7.4733851664">
        <ele>164.52</ele>
        <time>2021-05-28T09:43:24Z</time>
      </trkpt>
      <trkpt lat="37.7053307556" lon="-7.4736111425">
        <ele>165.48</ele>
        <time>2021-05-28T09:43:25Z</time>
      </trkpt>
      <trkpt lat="37.7042779885" lon="-7.4752834160">
        <ele>166.45</ele>
        <time>2021-05-28T09:43:33Z</time>
      </trkpt>
      <trkpt lat="37.7041477337" lon="-7.4754184484">
        <ele>165.96</ele>
        <time>2021-05-28T09:43:34Z</time>
      </trkpt>
      <trkpt lat="37.7040161379" lon="-7.4755247310">
        <ele>166.45</ele>
        <time>2021-05-28T09:43:35Z</time>
      </trkpt>
      <trkpt lat="37.7033136506" lon="-7.4760469235">
        <ele>166.45</ele>
        <time>2021-05-28T09:43:42Z</time>
      </trkpt>
      <trkpt lat="37.7032568213" lon="-7.4761211872">
        <ele>166.45</ele>
        <time>2021-05-28T09:43:43Z</time>
      </trkpt>
      <trkpt lat="37.7032129001" lon="-7.4761962052">
        <ele>165.96</ele>
        <time>2021-05-28T09:43:44Z</time>
      </trkpt>
      <trkpt lat="37.7031780314" lon="-7.4762739055">
        <ele>165.48</ele>
        <time>2021-05-28T09:43:45Z</time>
      </trkpt>
      <trkpt lat="37.7031511255" lon="-7.4763583113">
        <ele>165.48</ele>
        <time>2021-05-28T09:43:46Z</time>
      </trkpt>
      <trkpt lat="37.7031256445" lon="-7.4764521047">
        <ele>165.48</ele>
        <time>2021-05-28T09:43:47Z</time>
      </trkpt>
      <trkpt lat="37.7029359620" lon="-7.4771198072">
        <ele>165.00</ele>
        <time>2021-05-28T09:43:55Z</time>
      </trkpt>
      <trkpt lat="37.7027798910" lon="-7.4775931332">
        <ele>168.37</ele>
        <time>2021-05-28T09:44:05Z</time>
      </trkpt>
      <trkpt lat="37.7027424239" lon="-7.4776637089">
        <ele>167.89</ele>
        <time>2021-05-28T09:44:06Z</time>
      </trkpt>
      <trkpt lat="37.7027027775" lon="-7.4777244776">
        <ele>167.89</ele>
        <time>2021-05-28T09:44:07Z</time>
      </trkpt>
      <trkpt lat="37.7026400808" lon="-7.4778175168">
        <ele>167.89</ele>
        <time>2021-05-28T09:44:09Z</time>
      </trkpt>
      <trkpt lat="37.7026219759" lon="-7.4778659642">
        <ele>167.89</ele>
        <time>2021-05-28T09:44:10Z</time>
      </trkpt>
      <trkpt lat="37.7026168630" lon="-7.4779289123">
        <ele>167.89</ele>
        <time>2021-05-28T09:44:11Z</time>
      </trkpt>
      <trkpt lat="37.7026209701" lon="-7.4780083727">
        <ele>167.89</ele>
        <time>2021-05-28T09:44:12Z</time>
      </trkpt>
      <trkpt lat="37.7026337106" lon="-7.4781004060">
        <ele>168.37</ele>
        <time>2021-05-28T09:44:13Z</time>
      </trkpt>
      <trkpt lat="37.7026502229" lon="-7.4781927746">
        <ele>168.37</ele>
        <time>2021-05-28T09:44:14Z</time>
      </trkpt>
      <trkpt lat="37.7026684117" lon="-7.4782726541">
        <ele>168.37</ele>
        <time>2021-05-28T09:44:15Z</time>
      </trkpt>
      <trkpt lat="37.7027063817" lon="-7.4784232769">
        <ele>166.93</ele>
        <time>2021-05-28T09:44:18Z</time>
      </trkpt>
      <trkpt lat="37.7027212176" lon="-7.4784773402">
        <ele>166.45</ele>
        <time>2021-05-28T09:44:19Z</time>
      </trkpt>
      <trkpt lat="37.7027688269" lon="-7.4787064176">
        <ele>166.45</ele>
        <time>2021-05-28T09:44:22Z</time>
      </trkpt>
      <trkpt lat="37.7027867641" lon="-7.4788784143">
        <ele>166.93</ele>
        <time>2021-05-28T09:44:24Z</time>
      </trkpt>
      <trkpt lat="37.7027870994" lon="-7.4789638259">
        <ele>166.93</ele>
        <time>2021-05-28T09:44:25Z</time>
      </trkpt>
      <trkpt lat="37.7027706709" lon="-7.4795302749">
        <ele>168.85</ele>
        <time>2021-05-28T09:44:32Z</time>
      </trkpt>
      <trkpt lat="37.7027436811" lon="-7.4797440972">
        <ele>169.81</ele>
        <time>2021-05-28T09:44:35Z</time>
      </trkpt>
      <trkpt lat="37.7027397417" lon="-7.4798209593">
        <ele>169.81</ele>
        <time>2021-05-28T09:44:36Z</time>
      </trkpt>
      <trkpt lat="37.7027491294" lon="-7.4801297486">
        <ele>169.81</ele>
        <time>2021-05-28T09:44:40Z</time>
      </trkpt>
      <trkpt lat="37.7027456090" lon="-7.4802008271">
        <ele>169.33</ele>
        <time>2021-05-28T09:44:41Z</time>
      </trkpt>
      <trkpt lat="37.7027329523" lon="-7.4802704807">
        <ele>168.85</ele>
        <time>2021-05-28T09:44:42Z</time>
      </trkpt>
      <trkpt lat="37.7027052082" lon="-7.4803403020">
        <ele>167.89</ele>
        <time>2021-05-28T09:44:43Z</time>
      </trkpt>
      <trkpt lat="37.7026696689" lon="-7.4804196786">
        <ele>167.89</ele>
        <time>2021-05-28T09:44:44Z</time>
      </trkpt>
      <trkpt lat="37.7026368119" lon="-7.4805169087">
        <ele>167.41</ele>
        <time>2021-05-28T09:44:45Z</time>
      </trkpt>
      <trkpt lat="37.7026089840" lon="-7.4806190003">
        <ele>168.37</ele>
        <time>2021-05-28T09:44:46Z</time>
      </trkpt>
      <trkpt lat="37.7025457844" lon="-7.4807976186">
        <ele>168.85</ele>
        <time>2021-05-28T09:44:48Z</time>
      </trkpt>
      <trkpt lat="37.7025052998" lon="-7.4808672722">
        <ele>168.37</ele>
        <time>2021-05-28T09:44:49Z</time>
      </trkpt>
      <trkpt lat="37.7024675813" lon="-7.4809315614">
        <ele>168.85</ele>
        <time>2021-05-28T09:44:50Z</time>
      </trkpt>
      <trkpt lat="37.7024454530" lon="-7.4810005445">
        <ele>168.85</ele>
        <time>2021-05-28T09:44:51Z</time>
      </trkpt>
      <trkpt lat="37.7024447825" lon="-7.4810684379">
        <ele>168.85</ele>
        <time>2021-05-28T09:44:52Z</time>
      </trkpt>
      <trkpt lat="37.7024516556" lon="-7.4811245129">
        <ele>167.89</ele>
        <time>2021-05-28T09:44:53Z</time>
      </trkpt>
      <trkpt lat="37.7024412621" lon="-7.4812720343">
        <ele>167.89</ele>
        <time>2021-05-28T09:44:56Z</time>
      </trkpt>
      <trkpt lat="37.7024162002" lon="-7.4813224934">
        <ele>167.41</ele>
        <time>2021-05-28T09:44:57Z</time>
      </trkpt>
      <trkpt lat="37.7023797389" lon="-7.4813736230">
        <ele>167.41</ele>
        <time>2021-05-28T09:44:58Z</time>
      </trkpt>
      <trkpt lat="37.7023338899" lon="-7.4814280216">
        <ele>166.93</ele>
        <time>2021-05-28T09:44:59Z</time>
      </trkpt>
      <trkpt lat="37.7022807486" lon="-7.4814858567">
        <ele>166.93</ele>
        <time>2021-05-28T09:45:00Z</time>
      </trkpt>
      <trkpt lat="37.7018853743" lon="-7.4819606915">
        <ele>169.81</ele>
        <time>2021-05-28T09:45:07Z</time>
      </trkpt>
      <trkpt lat="37.7015996352" lon="-7.4823955446">
        <ele>168.85</ele>
        <time>2021-05-28T09:45:12Z</time>
      </trkpt>
      <trkpt lat="37.7015683707" lon="-7.4824967142">
        <ele>167.89</ele>
        <time>2021-05-28T09:45:13Z</time>
      </trkpt>
      <trkpt lat="37.7015550435" lon="-7.4826060142">
        <ele>167.41</ele>
        <time>2021-05-28T09:45:14Z</time>
      </trkpt>
      <trkpt lat="37.7015554626" lon="-7.4827216007">
        <ele>167.89</ele>
        <time>2021-05-28T09:45:15Z</time>
      </trkpt>
      <trkpt lat="37.7015604079" lon="-7.4828378577">
        <ele>167.89</ele>
        <time>2021-05-28T09:45:16Z</time>
      </trkpt>
      <trkpt lat="37.7015625872" lon="-7.4830596428">
        <ele>167.89</ele>
        <time>2021-05-28T09:45:18Z</time>
      </trkpt>
      <trkpt lat="37.7015516907" lon="-7.4831582140">
        <ele>168.37</ele>
        <time>2021-05-28T09:45:19Z</time>
      </trkpt>
      <trkpt lat="37.7015319094" lon="-7.4832451344">
        <ele>167.89</ele>
        <time>2021-05-28T09:45:20Z</time>
      </trkpt>
      <trkpt lat="37.7015037462" lon="-7.4833189789">
        <ele>167.89</ele>
        <time>2021-05-28T09:45:21Z</time>
      </trkpt>
      <trkpt lat="37.7014697157" lon="-7.4833815079">
        <ele>167.89</ele>
        <time>2021-05-28T09:45:22Z</time>
      </trkpt>
      <trkpt lat="37.7014283091" lon="-7.4834374152">
        <ele>168.85</ele>
        <time>2021-05-28T09:45:23Z</time>
      </trkpt>
      <trkpt lat="37.7013827115" lon="-7.4834902212">
        <ele>168.85</ele>
        <time>2021-05-28T09:45:24Z</time>
      </trkpt>
      <trkpt lat="37.7013329230" lon="-7.4835426919">
        <ele>169.33</ele>
        <time>2021-05-28T09:45:25Z</time>
      </trkpt>
      <trkpt lat="37.7011885028" lon="-7.4837170355">
        <ele>171.73</ele>
        <time>2021-05-28T09:45:28Z</time>
      </trkpt>
      <trkpt lat="37.7009241376" lon="-7.4840694107">
        <ele>173.66</ele>
        <time>2021-05-28T09:45:33Z</time>
      </trkpt>
      <trkpt lat="37.7008533943" lon="-7.4841290899">
        <ele>173.17</ele>
        <time>2021-05-28T09:45:34Z</time>
      </trkpt>
      <trkpt lat="37.7007715032" lon="-7.4841853324">
        <ele>174.14</ele>
        <time>2021-05-28T09:45:35Z</time>
      </trkpt>
      <trkpt lat="37.7006773744" lon="-7.4842396472">
        <ele>177.02</ele>
        <time>2021-05-28T09:45:36Z</time>
      </trkpt>
      <trkpt lat="37.7005698346" lon="-7.4842951354">
        <ele>177.98</ele>
        <time>2021-05-28T09:45:37Z</time>
      </trkpt>
      <trkpt lat="37.7003156953" lon="-7.4844133202">
        <ele>181.83</ele>
        <time>2021-05-28T09:45:39Z</time>
      </trkpt>
      <trkpt lat="37.6997588854" lon="-7.4846491031">
        <ele>186.15</ele>
        <time>2021-05-28T09:45:43Z</time>
      </trkpt>
      <trkpt lat="37.6994967833" lon="-7.4847309943">
        <ele>187.11</ele>
        <time>2021-05-28T09:45:45Z</time>
      </trkpt>
      <trkpt lat="37.6986818947" lon="-7.4848205969">
        <ele>185.67</ele>
        <time>2021-05-28T09:45:50Z</time>
      </trkpt>
      <trkpt lat="37.6976201590" lon="-7.4848936033">
        <ele>182.31</ele>
        <time>2021-05-28T09:45:56Z</time>
      </trkpt>
      <trkpt lat="37.6965108141" lon="-7.4849682022">
        <ele>177.02</ele>
        <time>2021-05-28T09:46:02Z</time>
      </trkpt>
      <trkpt lat="37.6961575169" lon="-7.4849910010">
        <ele>176.06</ele>
        <time>2021-05-28T09:46:04Z</time>
      </trkpt>
      <trkpt lat="37.6951411273" lon="-7.4851011392">
        <ele>175.10</ele>
        <time>2021-05-28T09:46:10Z</time>
      </trkpt>
      <trkpt lat="37.6949858107" lon="-7.4851630814">
        <ele>175.58</ele>
        <time>2021-05-28T09:46:11Z</time>
      </trkpt>
      <trkpt lat="37.6948375348" lon="-7.4852529354">
        <ele>176.06</ele>
        <time>2021-05-28T09:46:12Z</time>
      </trkpt>
      <trkpt lat="37.6947002392" lon="-7.4853696954">
        <ele>175.58</ele>
        <time>2021-05-28T09:46:13Z</time>
      </trkpt>
      <trkpt lat="37.6945731696" lon="-7.4855075777">
        <ele>177.02</ele>
        <time>2021-05-28T09:46:14Z</time>
      </trkpt>
      <trkpt lat="37.6944551524" lon="-7.4856642354">
        <ele>177.50</ele>
        <time>2021-05-28T09:46:15Z</time>
      </trkpt>
      <trkpt lat="37.6943394821" lon="-7.4858324602">
        <ele>176.54</ele>
        <time>2021-05-28T09:46:16Z</time>
      </trkpt>
      <trkpt lat="37.6937227417" lon="-7.4867405556">
        <ele>179.90</ele>
        <time>2021-05-28T09:46:21Z</time>
      </trkpt>
      <trkpt lat="37.6935962588" lon="-7.4869314954">
        <ele>180.38</ele>
        <time>2021-05-28T09:46:22Z</time>
      </trkpt>
      <trkpt lat="37.6932240184" lon="-7.4874926638">
        <ele>183.27</ele>
        <time>2021-05-28T09:46:25Z</time>
      </trkpt>
      <trkpt lat="37.6929823682" lon="-7.4878583662">
        <ele>186.63</ele>
        <time>2021-05-28T09:46:27Z</time>
      </trkpt>
      <trkpt lat="37.6928636804" lon="-7.4880356435">
        <ele>186.63</ele>
        <time>2021-05-28T09:46:28Z</time>
      </trkpt>
      <trkpt lat="37.6926350221" lon="-7.4883534014">
        <ele>187.11</ele>
        <time>2021-05-28T09:46:30Z</time>
      </trkpt>
      <trkpt lat="37.6925150771" lon="-7.4884761125">
        <ele>188.08</ele>
        <time>2021-05-28T09:46:31Z</time>
      </trkpt>
      <trkpt lat="37.6923755184" lon="-7.4885757733">
        <ele>190.48</ele>
        <time>2021-05-28T09:46:32Z</time>
      </trkpt>
      <trkpt lat="37.6922162622" lon="-7.4886662979">
        <ele>192.40</ele>
        <time>2021-05-28T09:46:33Z</time>
      </trkpt>
      <trkpt lat="37.6920466125" lon="-7.4887543917">
        <ele>193.36</ele>
        <time>2021-05-28T09:46:34Z</time>
      </trkpt>
      <trkpt lat="37.6918716822" lon="-7.4888416473">
        <ele>193.36</ele>
        <time>2021-05-28T09:46:35Z</time>
      </trkpt>
      <trkpt lat="37.6914996933" lon="-7.4890226964">
        <ele>194.80</ele>
        <time>2021-05-28T09:46:37Z</time>
      </trkpt>
      <trkpt lat="37.6895836741" lon="-7.4901084881">
        <ele>192.88</ele>
        <time>2021-05-28T09:46:47Z</time>
      </trkpt>
      <trkpt lat="37.6886624191" lon="-7.4906814750">
        <ele>192.88</ele>
        <time>2021-05-28T09:46:52Z</time>
      </trkpt>
      <trkpt lat="37.6881423220" lon="-7.4910092074">
        <ele>191.44</ele>
        <time>2021-05-28T09:46:55Z</time>
      </trkpt>
      <trkpt lat="37.6861262228" lon="-7.4922633916">
        <ele>188.08</ele>
        <time>2021-05-28T09:47:05Z</time>
      </trkpt>
      <trkpt lat="37.6854664832" lon="-7.4926782120">
        <ele>190.00</ele>
        <time>2021-05-28T09:47:08Z</time>
      </trkpt>
      <trkpt lat="37.6843588147" lon="-7.4933802802">
        <ele>186.63</ele>
        <time>2021-05-28T09:47:13Z</time>
      </trkpt>
      <trkpt lat="37.6841373648" lon="-7.4935195036">
        <ele>186.63</ele>
        <time>2021-05-28T09:47:14Z</time>
      </trkpt>
      <trkpt lat="37.6830286067" lon="-7.4942198116">
        <ele>184.71</ele>
        <time>2021-05-28T09:47:19Z</time>
      </trkpt>
      <trkpt lat="37.6826062426" lon="-7.4944838416">
        <ele>183.75</ele>
        <time>2021-05-28T09:47:21Z</time>
      </trkpt>
      <trkpt lat="37.6821852196" lon="-7.4947486259">
        <ele>185.19</ele>
        <time>2021-05-28T09:47:23Z</time>
      </trkpt>
      <trkpt lat="37.6811847556" lon="-7.4953647796">
        <ele>181.83</ele>
        <time>2021-05-28T09:47:28Z</time>
      </trkpt>
      <trkpt lat="37.6801570505" lon="-7.4960139580">
        <ele>179.42</ele>
        <time>2021-05-28T09:47:34Z</time>
      </trkpt>
      <trkpt lat="37.6790456101" lon="-7.4967054650">
        <ele>175.10</ele>
        <time>2021-05-28T09:47:40Z</time>
      </trkpt>
      <trkpt lat="37.6786790695" lon="-7.4969333690">
        <ele>172.69</ele>
        <time>2021-05-28T09:47:42Z</time>
      </trkpt>
      <trkpt lat="37.6777651906" lon="-7.4974895082">
        <ele>170.77</ele>
        <time>2021-05-28T09:47:47Z</time>
      </trkpt>
      <trkpt lat="37.6769280061" lon="-7.4980070908">
        <ele>171.25</ele>
        <time>2021-05-28T09:47:53Z</time>
      </trkpt>
      <trkpt lat="37.6764435321" lon="-7.4983112700">
        <ele>169.81</ele>
        <time>2021-05-28T09:47:59Z</time>
      </trkpt>
      <trkpt lat="37.6762410253" lon="-7.4984439556">
        <ele>169.81</ele>
        <time>2021-05-28T09:48:07Z</time>
      </trkpt>
      <trkpt lat="37.6762358285" lon="-7.4984538462">
        <ele>169.81</ele>
        <time>2021-05-28T09:48:17Z</time>
      </trkpt>
      <trkpt lat="37.6762178913" lon="-7.4984677602">
        <ele>169.81</ele>
        <time>2021-05-28T09:48:18Z</time>
      </trkpt>
      <trkpt lat="37.6761753112" lon="-7.4984822609">
        <ele>170.29</ele>
        <time>2021-05-28T09:48:19Z</time>
      </trkpt>
      <trkpt lat="37.6761065796" lon="-7.4984878767">
        <ele>170.29</ele>
        <time>2021-05-28T09:48:20Z</time>
      </trkpt>
      <trkpt lat="37.6760252751" lon="-7.4984848592">
        <ele>170.77</ele>
        <time>2021-05-28T09:48:21Z</time>
      </trkpt>
      <trkpt lat="37.6752828062" lon="-7.4985314626">
        <ele>167.89</ele>
        <time>2021-05-28T09:48:29Z</time>
      </trkpt>
      <trkpt lat="37.6751146652" lon="-7.4985435326">
        <ele>166.45</ele>
        <time>2021-05-28T09:48:31Z</time>
      </trkpt>
      <trkpt lat="37.6741497405" lon="-7.4985899683">
        <ele>166.45</ele>
        <time>2021-05-28T09:48:40Z</time>
      </trkpt>
      <trkpt lat="37.6740345731" lon="-7.4985591229">
        <ele>165.48</ele>
        <time>2021-05-28T09:48:41Z</time>
      </trkpt>
      <trkpt lat="37.6739335712" lon="-7.4985151179">
        <ele>164.52</ele>
        <time>2021-05-28T09:48:42Z</time>
      </trkpt>
      <trkpt lat="37.6738438848" lon="-7.4984668382">
        <ele>164.52</ele>
        <time>2021-05-28T09:48:43Z</time>
      </trkpt>
      <trkpt lat="37.6737539470" lon="-7.4984315503">
        <ele>165.00</ele>
        <time>2021-05-28T09:48:44Z</time>
      </trkpt>
      <trkpt lat="37.6736495085" lon="-7.4984260183">
        <ele>165.00</ele>
        <time>2021-05-28T09:48:45Z</time>
      </trkpt>
      <trkpt lat="37.6735314913" lon="-7.4984443747">
        <ele>165.48</ele>
        <time>2021-05-28T09:48:46Z</time>
      </trkpt>
      <trkpt lat="37.6730761863" lon="-7.4985385872">
        <ele>164.04</ele>
        <time>2021-05-28T09:48:50Z</time>
      </trkpt>
      <trkpt lat="37.6729809679" lon="-7.4985898007">
        <ele>163.56</ele>
        <time>2021-05-28T09:48:51Z</time>
      </trkpt>
      <trkpt lat="37.6729011722" lon="-7.4986618850">
        <ele>163.08</ele>
        <time>2021-05-28T09:48:52Z</time>
      </trkpt>
      <trkpt lat="37.6728353743" lon="-7.4987485539">
        <ele>162.12</ele>
        <time>2021-05-28T09:48:53Z</time>
      </trkpt>
      <trkpt lat="37.6727789640" lon="-7.4988337141">
        <ele>161.64</ele>
        <time>2021-05-28T09:48:54Z</time>
      </trkpt>
      <trkpt lat="37.6725663152" lon="-7.4991575908">
        <ele>158.75</ele>
        <time>2021-05-28T09:48:58Z</time>
      </trkpt>
      <trkpt lat="37.6718908176" lon="-7.5001726393">
        <ele>156.83</ele>
        <time>2021-05-28T09:49:07Z</time>
      </trkpt>
      <trkpt lat="37.6712868176" lon="-7.5010969117">
        <ele>153.95</ele>
        <time>2021-05-28T09:49:14Z</time>
      </trkpt>
      <trkpt lat="37.6711602509" lon="-7.5013343710">
        <ele>152.99</ele>
        <time>2021-05-28T09:49:16Z</time>
      </trkpt>
      <trkpt lat="37.6711216941" lon="-7.5014712475">
        <ele>152.51</ele>
        <time>2021-05-28T09:49:17Z</time>
      </trkpt>
      <trkpt lat="37.6710194349" lon="-7.5025181472">
        <ele>154.43</ele>
        <time>2021-05-28T09:49:23Z</time>
      </trkpt>
      <trkpt lat="37.6709876675" lon="-7.5027184747">
        <ele>155.87</ele>
        <time>2021-05-28T09:49:24Z</time>
      </trkpt>
      <trkpt lat="37.6709436625" lon="-7.5029229932">
        <ele>157.79</ele>
        <time>2021-05-28T09:49:25Z</time>
      </trkpt>
      <trkpt lat="37.6708906051" lon="-7.5031204708">
        <ele>157.31</ele>
        <time>2021-05-28T09:49:26Z</time>
      </trkpt>
      <trkpt lat="37.6707282476" lon="-7.5036075432">
        <ele>155.39</ele>
        <time>2021-05-28T09:49:29Z</time>
      </trkpt>
      <trkpt lat="37.6706648804" lon="-7.5037326012">
        <ele>154.43</ele>
        <time>2021-05-28T09:49:30Z</time>
      </trkpt>
      <trkpt lat="37.6705871802" lon="-7.5038431585">
        <ele>153.95</ele>
        <time>2021-05-28T09:49:31Z</time>
      </trkpt>
      <trkpt lat="37.6704889443" lon="-7.5039409753">
        <ele>154.91</ele>
        <time>2021-05-28T09:49:32Z</time>
      </trkpt>
      <trkpt lat="37.6703671552" lon="-7.5040268060">
        <ele>154.91</ele>
        <time>2021-05-28T09:49:33Z</time>
      </trkpt>
      <trkpt lat="37.6702255849" lon="-7.5041004829">
        <ele>154.91</ele>
        <time>2021-05-28T09:49:34Z</time>
      </trkpt>
      <trkpt lat="37.6700774767" lon="-7.5041696336">
        <ele>154.43</ele>
        <time>2021-05-28T09:49:35Z</time>
      </trkpt>
      <trkpt lat="37.6696914900" lon="-7.5043950230">
        <ele>151.06</ele>
        <time>2021-05-28T09:49:38Z</time>
      </trkpt>
      <trkpt lat="37.6695962716" lon="-7.5044903252">
        <ele>149.62</ele>
        <time>2021-05-28T09:49:39Z</time>
      </trkpt>
      <trkpt lat="37.6695247740" lon="-7.5046059955">
        <ele>148.66</ele>
        <time>2021-05-28T09:49:40Z</time>
      </trkpt>
      <trkpt lat="37.6694728062" lon="-7.5047371723">
        <ele>148.18</ele>
        <time>2021-05-28T09:49:41Z</time>
      </trkpt>
      <trkpt lat="37.6694346685" lon="-7.5048777368">
        <ele>147.22</ele>
        <time>2021-05-28T09:49:42Z</time>
      </trkpt>
      <trkpt lat="37.6694044936" lon="-7.5050227437">
        <ele>146.74</ele>
        <time>2021-05-28T09:49:43Z</time>
      </trkpt>
      <trkpt lat="37.6693806052" lon="-7.5051726121">
        <ele>146.74</ele>
        <time>2021-05-28T09:49:44Z</time>
      </trkpt>
      <trkpt lat="37.6693639252" lon="-7.5053289346">
        <ele>146.26</ele>
        <time>2021-05-28T09:49:45Z</time>
      </trkpt>
      <trkpt lat="37.6693532802" lon="-7.5054937229">
        <ele>146.26</ele>
        <time>2021-05-28T09:49:46Z</time>
      </trkpt>
      <trkpt lat="37.6693583932" lon="-7.5066661835">
        <ele>149.14</ele>
        <time>2021-05-28T09:49:52Z</time>
      </trkpt>
      <trkpt lat="37.6693342533" lon="-7.5072431937">
        <ele>148.66</ele>
        <time>2021-05-28T09:49:55Z</time>
      </trkpt>
      <trkpt lat="37.6692907512" lon="-7.5074365642">
        <ele>149.62</ele>
        <time>2021-05-28T09:49:56Z</time>
      </trkpt>
      <trkpt lat="37.6691029128" lon="-7.5079666357">
        <ele>147.70</ele>
        <time>2021-05-28T09:49:59Z</time>
      </trkpt>
      <trkpt lat="37.6690121368" lon="-7.5081040990">
        <ele>147.22</ele>
        <time>2021-05-28T09:50:00Z</time>
      </trkpt>
      <trkpt lat="37.6688909344" lon="-7.5082244631">
        <ele>147.22</ele>
        <time>2021-05-28T09:50:01Z</time>
      </trkpt>
      <trkpt lat="37.6687429938" lon="-7.5083350204">
        <ele>147.22</ele>
        <time>2021-05-28T09:50:02Z</time>
      </trkpt>
      <trkpt lat="37.6685868390" lon="-7.5084421411">
        <ele>146.74</ele>
        <time>2021-05-28T09:50:03Z</time>
      </trkpt>
      <trkpt lat="37.6681164466" lon="-7.5087617431">
        <ele>143.37</ele>
        <time>2021-05-28T09:50:06Z</time>
      </trkpt>
      <trkpt lat="37.6677956712" lon="-7.5089680217">
        <ele>142.41</ele>
        <time>2021-05-28T09:50:08Z</time>
      </trkpt>
      <trkpt lat="37.6674066670" lon="-7.5092394277">
        <ele>139.53</ele>
        <time>2021-05-28T09:50:11Z</time>
      </trkpt>
      <trkpt lat="37.6673117001" lon="-7.5093529187">
        <ele>139.53</ele>
        <time>2021-05-28T09:50:12Z</time>
      </trkpt>
      <trkpt lat="37.6672262885" lon="-7.5094959978">
        <ele>140.01</ele>
        <time>2021-05-28T09:50:13Z</time>
      </trkpt>
      <trkpt lat="37.6670413837" lon="-7.5098145101">
        <ele>141.45</ele>
        <time>2021-05-28T09:50:15Z</time>
      </trkpt>
      <trkpt lat="37.6668625139" lon="-7.5101521332">
        <ele>139.53</ele>
        <time>2021-05-28T09:50:17Z</time>
      </trkpt>
      <trkpt lat="37.6668054331" lon="-7.5103351939">
        <ele>139.53</ele>
        <time>2021-05-28T09:50:18Z</time>
      </trkpt>
      <trkpt lat="37.6667756774" lon="-7.5105309114">
        <ele>139.05</ele>
        <time>2021-05-28T09:50:19Z</time>
      </trkpt>
      <trkpt lat="37.6667735819" lon="-7.5107350945">
        <ele>139.53</ele>
        <time>2021-05-28T09:50:20Z</time>
      </trkpt>
      <trkpt lat="37.6667999849" lon="-7.5109448098">
        <ele>140.97</ele>
        <time>2021-05-28T09:50:21Z</time>
      </trkpt>
      <trkpt lat="37.6668521203" lon="-7.5111547764">
        <ele>141.93</ele>
        <time>2021-05-28T09:50:22Z</time>
      </trkpt>
      <trkpt lat="37.6669249590" lon="-7.5113661680">
        <ele>143.37</ele>
        <time>2021-05-28T09:50:23Z</time>
      </trkpt>
      <trkpt lat="37.6670091134" lon="-7.5115806609">
        <ele>144.82</ele>
        <time>2021-05-28T09:50:24Z</time>
      </trkpt>
      <trkpt lat="37.6670958661" lon="-7.5117881130">
        <ele>144.34</ele>
        <time>2021-05-28T09:50:25Z</time>
      </trkpt>
      <trkpt lat="37.6673657633" lon="-7.5124837272">
        <ele>145.30</ele>
        <time>2021-05-28T09:50:29Z</time>
      </trkpt>
      <trkpt lat="37.6673870534" lon="-7.5126482639">
        <ele>146.74</ele>
        <time>2021-05-28T09:50:30Z</time>
      </trkpt>
      <trkpt lat="37.6673750672" lon="-7.5127996411">
        <ele>145.78</ele>
        <time>2021-05-28T09:50:31Z</time>
      </trkpt>
      <trkpt lat="37.6673245244" lon="-7.5129301473">
        <ele>145.78</ele>
        <time>2021-05-28T09:50:32Z</time>
      </trkpt>
      <trkpt lat="37.6672401186" lon="-7.5130422134">
        <ele>146.26</ele>
        <time>2021-05-28T09:50:33Z</time>
      </trkpt>
      <trkpt lat="37.6671260409" lon="-7.5131351687">
        <ele>149.14</ele>
        <time>2021-05-28T09:50:34Z</time>
      </trkpt>
      <trkpt lat="37.6669870690" lon="-7.5132120308">
        <ele>149.62</ele>
        <time>2021-05-28T09:50:35Z</time>
      </trkpt>
      <trkpt lat="37.6667081192" lon="-7.5133655872">
        <ele>151.54</ele>
        <time>2021-05-28T09:50:37Z</time>
      </trkpt>
      <trkpt lat="37.6665940415" lon="-7.5134776533">
        <ele>151.54</ele>
        <time>2021-05-28T09:50:38Z</time>
      </trkpt>
      <trkpt lat="37.6665057801" lon="-7.5136249233">
        <ele>152.99</ele>
        <time>2021-05-28T09:50:39Z</time>
      </trkpt>
      <trkpt lat="37.6664449275" lon="-7.5138110016">
        <ele>153.95</ele>
        <time>2021-05-28T09:50:40Z</time>
      </trkpt>
      <trkpt lat="37.6664077956" lon="-7.5140204653">
        <ele>155.39</ele>
        <time>2021-05-28T09:50:41Z</time>
      </trkpt>
      <trkpt lat="37.6663885172" lon="-7.5142465252">
        <ele>156.83</ele>
        <time>2021-05-28T09:50:42Z</time>
      </trkpt>
      <trkpt lat="37.6663772017" lon="-7.5144841522">
        <ele>157.79</ele>
        <time>2021-05-28T09:50:43Z</time>
      </trkpt>
      <trkpt lat="37.6663477812" lon="-7.5154025573">
        <ele>159.72</ele>
        <time>2021-05-28T09:50:47Z</time>
      </trkpt>
      <trkpt lat="37.6663715020" lon="-7.5155994482">
        <ele>160.20</ele>
        <time>2021-05-28T09:50:48Z</time>
      </trkpt>
      <trkpt lat="37.6664233021" lon="-7.5157923996">
        <ele>162.12</ele>
        <time>2021-05-28T09:50:49Z</time>
      </trkpt>
      <trkpt lat="37.6664988231" lon="-7.5159863569">
        <ele>162.12</ele>
        <time>2021-05-28T09:50:50Z</time>
      </trkpt>
      <trkpt lat="37.6665865816" lon="-7.5161872711">
        <ele>165.00</ele>
        <time>2021-05-28T09:50:51Z</time>
      </trkpt>
      <trkpt lat="37.6668676268" lon="-7.5168348569">
        <ele>168.37</ele>
        <time>2021-05-28T09:50:54Z</time>
      </trkpt>
      <trkpt lat="37.6672174875" lon="-7.5176824350">
        <ele>169.33</ele>
        <time>2021-05-28T09:50:58Z</time>
      </trkpt>
      <trkpt lat="37.6672803517" lon="-7.5179091655">
        <ele>171.25</ele>
        <time>2021-05-28T09:50:59Z</time>
      </trkpt>
      <trkpt lat="37.6673309784" lon="-7.5181544200">
        <ele>173.17</ele>
        <time>2021-05-28T09:51:00Z</time>
      </trkpt>
      <trkpt lat="37.6674111933" lon="-7.5186921190">
        <ele>176.06</ele>
        <time>2021-05-28T09:51:02Z</time>
      </trkpt>
      <trkpt lat="37.6674918272" lon="-7.5192702189">
        <ele>179.90</ele>
        <time>2021-05-28T09:51:04Z</time>
      </trkpt>
      <trkpt lat="37.6675733831" lon="-7.5198515039">
        <ele>183.75</ele>
        <time>2021-05-28T09:51:06Z</time>
      </trkpt>
      <trkpt lat="37.6676097605" lon="-7.5201316271">
        <ele>183.75</ele>
        <time>2021-05-28T09:51:07Z</time>
      </trkpt>
      <trkpt lat="37.6678113453" lon="-7.5218852889">
        <ele>184.71</ele>
        <time>2021-05-28T09:51:14Z</time>
      </trkpt>
      <trkpt lat="37.6677909773" lon="-7.5220976863">
        <ele>185.19</ele>
        <time>2021-05-28T09:51:15Z</time>
      </trkpt>
      <trkpt lat="37.6677443739" lon="-7.5223158672">
        <ele>186.15</ele>
        <time>2021-05-28T09:51:16Z</time>
      </trkpt>
      <trkpt lat="37.6676193159" lon="-7.5227905344">
        <ele>189.52</ele>
        <time>2021-05-28T09:51:18Z</time>
      </trkpt>
      <trkpt lat="37.6674854569" lon="-7.5232959632">
        <ele>193.36</ele>
        <time>2021-05-28T09:51:20Z</time>
      </trkpt>
      <trkpt lat="37.6673524361" lon="-7.5238221791">
        <ele>196.73</ele>
        <time>2021-05-28T09:51:22Z</time>
      </trkpt>
      <trkpt lat="37.6671501808" lon="-7.5246236566">
        <ele>200.09</ele>
        <time>2021-05-28T09:51:25Z</time>
      </trkpt>
      <trkpt lat="37.6670820359" lon="-7.5248886924">
        <ele>200.09</ele>
        <time>2021-05-28T09:51:26Z</time>
      </trkpt>
      <trkpt lat="37.6669561397" lon="-7.5253859907">
        <ele>201.53</ele>
        <time>2021-05-28T09:51:28Z</time>
      </trkpt>
      <trkpt lat="37.6663340349" lon="-7.5271329470">
        <ele>204.90</ele>
        <time>2021-05-28T09:51:36Z</time>
      </trkpt>
      <trkpt lat="37.6658303663" lon="-7.5280764978">
        <ele>201.05</ele>
        <time>2021-05-28T09:51:40Z</time>
      </trkpt>
      <trkpt lat="37.6657003630" lon="-7.5283120293">
        <ele>201.05</ele>
        <time>2021-05-28T09:51:41Z</time>
      </trkpt>
      <trkpt lat="37.6650324091" lon="-7.5295577478">
        <ele>197.69</ele>
        <time>2021-05-28T09:51:46Z</time>
      </trkpt>
      <trkpt lat="37.6641141716" lon="-7.5312617887">
        <ele>193.84</ele>
        <time>2021-05-28T09:51:53Z</time>
      </trkpt>
      <trkpt lat="37.6637214795" lon="-7.5319902599">
        <ele>191.44</ele>
        <time>2021-05-28T09:51:56Z</time>
      </trkpt>
      <trkpt lat="37.6631831098" lon="-7.5330060627">
        <ele>187.11</ele>
        <time>2021-05-28T09:52:00Z</time>
      </trkpt>
      <trkpt lat="37.6627547946" lon="-7.5338118151">
        <ele>184.23</ele>
        <time>2021-05-28T09:52:03Z</time>
      </trkpt>
      <trkpt lat="37.6624736656" lon="-7.5343506876">
        <ele>180.38</ele>
        <time>2021-05-28T09:52:05Z</time>
      </trkpt>
      <trkpt lat="37.6622409839" lon="-7.5348941702">
        <ele>176.06</ele>
        <time>2021-05-28T09:52:07Z</time>
      </trkpt>
      <trkpt lat="37.6619800553" lon="-7.5356357172">
        <ele>172.21</ele>
        <time>2021-05-28T09:52:10Z</time>
      </trkpt>
      <trkpt lat="37.6617650595" lon="-7.5362574030">
        <ele>168.85</ele>
        <time>2021-05-28T09:52:13Z</time>
      </trkpt>
      <trkpt lat="37.6615018677" lon="-7.5370017160">
        <ele>165.48</ele>
        <time>2021-05-28T09:52:17Z</time>
      </trkpt>
      <trkpt lat="37.6612920687" lon="-7.5376255810">
        <ele>161.16</ele>
        <time>2021-05-28T09:52:22Z</time>
      </trkpt>
      <trkpt lat="37.6612590440" lon="-7.5377448555">
        <ele>161.64</ele>
        <time>2021-05-28T09:52:29Z</time>
      </trkpt>
      <trkpt lat="37.6612468902" lon="-7.5377565064">
        <ele>161.16</ele>
        <time>2021-05-28T09:53:16Z</time>
      </trkpt>
      <trkpt lat="37.6612543501" lon="-7.5377611164">
        <ele>161.16</ele>
        <time>2021-05-28T09:53:51Z</time>
      </trkpt>
      <trkpt lat="37.6612592116" lon="-7.5377516448">
        <ele>161.64</ele>
        <time>2021-05-28T09:54:39Z</time>
      </trkpt>
      <trkpt lat="37.6611631550" lon="-7.5378692430">
        <ele>162.12</ele>
        <time>2021-05-28T09:55:07Z</time>
      </trkpt>
      <trkpt lat="37.6606053393" lon="-7.5385154039">
        <ele>163.56</ele>
        <time>2021-05-28T09:55:14Z</time>
      </trkpt>
      <trkpt lat="37.6602335181" lon="-7.5389427971">
        <ele>159.72</ele>
        <time>2021-05-28T09:55:18Z</time>
      </trkpt>
      <trkpt lat="37.6601027604" lon="-7.5391479023">
        <ele>158.27</ele>
        <time>2021-05-28T09:55:20Z</time>
      </trkpt>
      <trkpt lat="37.6600526366" lon="-7.5392535981">
        <ele>157.31</ele>
        <time>2021-05-28T09:55:21Z</time>
      </trkpt>
      <trkpt lat="37.6600141637" lon="-7.5393606350">
        <ele>157.31</ele>
        <time>2021-05-28T09:55:22Z</time>
      </trkpt>
      <trkpt lat="37.6599889342" lon="-7.5394683424">
        <ele>156.83</ele>
        <time>2021-05-28T09:55:23Z</time>
      </trkpt>
      <trkpt lat="37.6599726733" lon="-7.5395763014">
        <ele>156.35</ele>
        <time>2021-05-28T09:55:24Z</time>
      </trkpt>
      <trkpt lat="37.6599639561" lon="-7.5396829192">
        <ele>155.87</ele>
        <time>2021-05-28T09:55:25Z</time>
      </trkpt>
      <trkpt lat="37.6599637046" lon="-7.5397918001">
        <ele>155.39</ele>
        <time>2021-05-28T09:55:26Z</time>
      </trkpt>
      <trkpt lat="37.6599701587" lon="-7.5399077218">
        <ele>155.39</ele>
        <time>2021-05-28T09:55:27Z</time>
      </trkpt>
      <trkpt lat="37.6600768603" lon="-7.5406514481">
        <ele>158.75</ele>
        <time>2021-05-28T09:55:32Z</time>
      </trkpt>
      <trkpt lat="37.6601050235" lon="-7.5408308208">
        <ele>158.27</ele>
        <time>2021-05-28T09:55:33Z</time>
      </trkpt>
      <trkpt lat="37.6601920277" lon="-7.5414096750">
        <ele>161.16</ele>
        <time>2021-05-28T09:55:36Z</time>
      </trkpt>
      <trkpt lat="37.6602779422" lon="-7.5422502961">
        <ele>163.08</ele>
        <time>2021-05-28T09:55:40Z</time>
      </trkpt>
      <trkpt lat="37.6602683868" lon="-7.5424760208">
        <ele>164.04</ele>
        <time>2021-05-28T09:55:41Z</time>
      </trkpt>
      <trkpt lat="37.6602376252" lon="-7.5427079480">
        <ele>165.48</ele>
        <time>2021-05-28T09:55:42Z</time>
      </trkpt>
      <trkpt lat="37.6601833943" lon="-7.5429448206">
        <ele>166.93</ele>
        <time>2021-05-28T09:55:43Z</time>
      </trkpt>
      <trkpt lat="37.6601119805" lon="-7.5431778375">
        <ele>167.89</ele>
        <time>2021-05-28T09:55:44Z</time>
      </trkpt>
      <trkpt lat="37.6600258145" lon="-7.5434086751">
        <ele>168.85</ele>
        <time>2021-05-28T09:55:45Z</time>
      </trkpt>
      <trkpt lat="37.6599285007" lon="-7.5436463021">
        <ele>170.77</ele>
        <time>2021-05-28T09:55:46Z</time>
      </trkpt>
      <trkpt lat="37.6596157718" lon="-7.5443973206">
        <ele>173.17</ele>
        <time>2021-05-28T09:55:49Z</time>
      </trkpt>
      <trkpt lat="37.6591221616" lon="-7.5455959328">
        <ele>175.58</ele>
        <time>2021-05-28T09:55:54Z</time>
      </trkpt>
      <trkpt lat="37.6582724880" lon="-7.5476323161">
        <ele>172.21</ele>
        <time>2021-05-28T09:56:02Z</time>
      </trkpt>
      <trkpt lat="37.6573439408" lon="-7.5498584658">
        <ele>169.81</ele>
        <time>2021-05-28T09:56:10Z</time>
      </trkpt>
      <trkpt lat="37.6569887158" lon="-7.5507034454">
        <ele>165.96</ele>
        <time>2021-05-28T09:56:13Z</time>
      </trkpt>
      <trkpt lat="37.6566563733" lon="-7.5514978822">
        <ele>162.60</ele>
        <time>2021-05-28T09:56:16Z</time>
      </trkpt>
      <trkpt lat="37.6563242823" lon="-7.5522995275">
        <ele>158.27</ele>
        <time>2021-05-28T09:56:19Z</time>
      </trkpt>
      <trkpt lat="37.6562153175" lon="-7.5525568519">
        <ele>158.27</ele>
        <time>2021-05-28T09:56:20Z</time>
      </trkpt>
      <trkpt lat="37.6554747764" lon="-7.5543257687">
        <ele>156.83</ele>
        <time>2021-05-28T09:56:28Z</time>
      </trkpt>
      <trkpt lat="37.6553919632" lon="-7.5544831809">
        <ele>156.35</ele>
        <time>2021-05-28T09:56:29Z</time>
      </trkpt>
      <trkpt lat="37.6552899554" lon="-7.5546185486">
        <ele>158.27</ele>
        <time>2021-05-28T09:56:30Z</time>
      </trkpt>
      <trkpt lat="37.6551640593" lon="-7.5547270942">
        <ele>159.24</ele>
        <time>2021-05-28T09:56:31Z</time>
      </trkpt>
      <trkpt lat="37.6550135203" lon="-7.5548089854">
        <ele>160.20</ele>
        <time>2021-05-28T09:56:32Z</time>
      </trkpt>
      <trkpt lat="37.6548415236" lon="-7.5548754539">
        <ele>161.64</ele>
        <time>2021-05-28T09:56:33Z</time>
      </trkpt>
      <trkpt lat="37.6546519250" lon="-7.5549393240">
        <ele>163.08</ele>
        <time>2021-05-28T09:56:34Z</time>
      </trkpt>
      <trkpt lat="37.6532931346" lon="-7.5554078724">
        <ele>159.72</ele>
        <time>2021-05-28T09:56:41Z</time>
      </trkpt>
      <trkpt lat="37.6516082045" lon="-7.5559822004">
        <ele>157.31</ele>
        <time>2021-05-28T09:56:49Z</time>
      </trkpt>
      <trkpt lat="37.6503069140" lon="-7.5564271118">
        <ele>153.47</ele>
        <time>2021-05-28T09:56:55Z</time>
      </trkpt>
      <trkpt lat="37.6500883140" lon="-7.5565021299">
        <ele>153.47</ele>
        <time>2021-05-28T09:56:56Z</time>
      </trkpt>
      <trkpt lat="37.6480939239" lon="-7.5571836624">
        <ele>152.51</ele>
        <time>2021-05-28T09:57:06Z</time>
      </trkpt>
      <trkpt lat="37.6471191086" lon="-7.5575163402">
        <ele>153.95</ele>
        <time>2021-05-28T09:57:12Z</time>
      </trkpt>
      <trkpt lat="37.6465685852" lon="-7.5577160809">
        <ele>152.51</ele>
        <time>2021-05-28T09:57:16Z</time>
      </trkpt>
      <trkpt lat="37.6452180091" lon="-7.5582427159">
        <ele>153.47</ele>
        <time>2021-05-28T09:57:26Z</time>
      </trkpt>
      <trkpt lat="37.6450918615" lon="-7.5583403651">
        <ele>153.47</ele>
        <time>2021-05-28T09:57:27Z</time>
      </trkpt>
      <trkpt lat="37.6449585892" lon="-7.5584599748">
        <ele>154.43</ele>
        <time>2021-05-28T09:57:28Z</time>
      </trkpt>
      <trkpt lat="37.6439439598" lon="-7.5594413280">
        <ele>155.87</ele>
        <time>2021-05-28T09:57:35Z</time>
      </trkpt>
      <trkpt lat="37.6433245372" lon="-7.5600373652">
        <ele>156.83</ele>
        <time>2021-05-28T09:57:39Z</time>
      </trkpt>
      <trkpt lat="37.6426000893" lon="-7.5608026329">
        <ele>158.27</ele>
        <time>2021-05-28T09:57:44Z</time>
      </trkpt>
      <trkpt lat="37.6416641660" lon="-7.5618551485">
        <ele>161.64</ele>
        <time>2021-05-28T09:57:50Z</time>
      </trkpt>
      <trkpt lat="37.6415070053" lon="-7.5620356947">
        <ele>161.64</ele>
        <time>2021-05-28T09:57:51Z</time>
      </trkpt>
      <trkpt lat="37.6405827329" lon="-7.5630707759">
        <ele>165.48</ele>
        <time>2021-05-28T09:57:57Z</time>
      </trkpt>
      <trkpt lat="37.6399836782" lon="-7.5637413282">
        <ele>167.41</ele>
        <time>2021-05-28T09:58:01Z</time>
      </trkpt>
      <trkpt lat="37.6395240147" lon="-7.5642566476">
        <ele>169.33</ele>
        <time>2021-05-28T09:58:04Z</time>
      </trkpt>
      <trkpt lat="37.6382029429" lon="-7.5657392386">
        <ele>173.17</ele>
        <time>2021-05-28T09:58:12Z</time>
      </trkpt>
      <trkpt lat="37.6375131123" lon="-7.5665060990">
        <ele>176.54</ele>
        <time>2021-05-28T09:58:16Z</time>
      </trkpt>
      <trkpt lat="37.6371617429" lon="-7.5668963604">
        <ele>180.38</ele>
        <time>2021-05-28T09:58:18Z</time>
      </trkpt>
      <trkpt lat="37.6359580178" lon="-7.5682466850">
        <ele>182.79</ele>
        <time>2021-05-28T09:58:26Z</time>
      </trkpt>
      <trkpt lat="37.6356401760" lon="-7.5687093660">
        <ele>184.71</ele>
        <time>2021-05-28T09:58:29Z</time>
      </trkpt>
      <trkpt lat="37.6355560217" lon="-7.5689074304">
        <ele>185.67</ele>
        <time>2021-05-28T09:58:30Z</time>
      </trkpt>
      <trkpt lat="37.6354814228" lon="-7.5691300537">
        <ele>187.11</ele>
        <time>2021-05-28T09:58:31Z</time>
      </trkpt>
      <trkpt lat="37.6352549437" lon="-7.5698712654">
        <ele>190.96</ele>
        <time>2021-05-28T09:58:34Z</time>
      </trkpt>
      <trkpt lat="37.6351771597" lon="-7.5701230578">
        <ele>190.48</ele>
        <time>2021-05-28T09:58:35Z</time>
      </trkpt>
      <trkpt lat="37.6350190770" lon="-7.5706413109">
        <ele>189.52</ele>
        <time>2021-05-28T09:58:37Z</time>
      </trkpt>
      <trkpt lat="37.6348566357" lon="-7.5711682811">
        <ele>190.48</ele>
        <time>2021-05-28T09:58:39Z</time>
      </trkpt>
      <trkpt lat="37.6345544681" lon="-7.5722966529">
        <ele>188.56</ele>
        <time>2021-05-28T09:58:44Z</time>
      </trkpt>
      <trkpt lat="37.6345305797" lon="-7.5725271553">
        <ele>188.56</ele>
        <time>2021-05-28T09:58:45Z</time>
      </trkpt>
      <trkpt lat="37.6344984770" lon="-7.5733082648">
        <ele>190.96</ele>
        <time>2021-05-28T09:58:48Z</time>
      </trkpt>
      <trkpt lat="37.6344455034" lon="-7.5764707569">
        <ele>189.52</ele>
        <time>2021-05-28T09:58:59Z</time>
      </trkpt>
      <trkpt lat="37.6344231237" lon="-7.5782351475">
        <ele>186.63</ele>
        <time>2021-05-28T09:59:05Z</time>
      </trkpt>
      <trkpt lat="37.6344060246" lon="-7.5793631840">
        <ele>182.31</ele>
        <time>2021-05-28T09:59:09Z</time>
      </trkpt>
      <trkpt lat="37.6343840640" lon="-7.5807885267">
        <ele>184.23</ele>
        <time>2021-05-28T09:59:14Z</time>
      </trkpt>
      <trkpt lat="37.6343599241" lon="-7.5820106920">
        <ele>179.90</ele>
        <time>2021-05-28T09:59:18Z</time>
      </trkpt>
      <trkpt lat="37.6343564875" lon="-7.5823121890">
        <ele>180.38</ele>
        <time>2021-05-28T09:59:19Z</time>
      </trkpt>
      <trkpt lat="37.6343175117" lon="-7.5856336858">
        <ele>181.83</ele>
        <time>2021-05-28T09:59:30Z</time>
      </trkpt>
      <trkpt lat="37.6343046874" lon="-7.5864660088">
        <ele>185.19</ele>
        <time>2021-05-28T09:59:33Z</time>
      </trkpt>
      <trkpt lat="37.6342364587" lon="-7.5888125226">
        <ele>183.75</ele>
        <time>2021-05-28T09:59:41Z</time>
      </trkpt>
      <trkpt lat="37.6342048589" lon="-7.5904424675">
        <ele>181.83</ele>
        <time>2021-05-28T09:59:46Z</time>
      </trkpt>
      <trkpt lat="37.6341715828" lon="-7.5920439977">
        <ele>179.90</ele>
        <time>2021-05-28T09:59:51Z</time>
      </trkpt>
      <trkpt lat="37.6341582555" lon="-7.5928292982">
        <ele>175.58</ele>
        <time>2021-05-28T09:59:54Z</time>
      </trkpt>
      <trkpt lat="37.6341450959" lon="-7.5930818450">
        <ele>176.06</ele>
        <time>2021-05-28T09:59:55Z</time>
      </trkpt>
      <trkpt lat="37.6340969000" lon="-7.5936285127">
        <ele>178.46</ele>
        <time>2021-05-28T09:59:57Z</time>
      </trkpt>
      <trkpt lat="37.6339782961" lon="-7.5947628357">
        <ele>174.14</ele>
        <time>2021-05-28T10:00:01Z</time>
      </trkpt>
      <trkpt lat="37.6339276694" lon="-7.5952486508">
        <ele>171.25</ele>
        <time>2021-05-28T10:00:03Z</time>
      </trkpt>
      <trkpt lat="37.6338560879" lon="-7.5957078114">
        <ele>168.85</ele>
        <time>2021-05-28T10:00:05Z</time>
      </trkpt>
      <trkpt lat="37.6337921340" lon="-7.5959558319">
        <ele>168.85</ele>
        <time>2021-05-28T10:00:06Z</time>
      </trkpt>
      <trkpt lat="37.6331124455" lon="-7.5981695764">
        <ele>167.89</ele>
        <time>2021-05-28T10:00:14Z</time>
      </trkpt>
      <trkpt lat="37.6329418737" lon="-7.5987213571">
        <ele>164.52</ele>
        <time>2021-05-28T10:00:16Z</time>
      </trkpt>
      <trkpt lat="37.6326396223" lon="-7.5997069851">
        <ele>160.20</ele>
        <time>2021-05-28T10:00:20Z</time>
      </trkpt>
      <trkpt lat="37.6325559709" lon="-7.6001418382">
        <ele>159.72</ele>
        <time>2021-05-28T10:00:22Z</time>
      </trkpt>
      <trkpt lat="37.6325547975" lon="-7.6003512181">
        <ele>160.20</ele>
        <time>2021-05-28T10:00:23Z</time>
      </trkpt>
      <trkpt lat="37.6325787697" lon="-7.6005461812">
        <ele>161.64</ele>
        <time>2021-05-28T10:00:24Z</time>
      </trkpt>
      <trkpt lat="37.6325989701" lon="-7.6007300802">
        <ele>161.16</ele>
        <time>2021-05-28T10:00:25Z</time>
      </trkpt>
      <trkpt lat="37.6325850561" lon="-7.6009116322">
        <ele>162.12</ele>
        <time>2021-05-28T10:00:26Z</time>
      </trkpt>
      <trkpt lat="37.6325334236" lon="-7.6010935195">
        <ele>163.56</ele>
        <time>2021-05-28T10:00:27Z</time>
      </trkpt>
      <trkpt lat="37.6324531250" lon="-7.6012703776">
        <ele>166.45</ele>
        <time>2021-05-28T10:00:28Z</time>
      </trkpt>
      <trkpt lat="37.6323594153" lon="-7.6014383510">
        <ele>167.41</ele>
        <time>2021-05-28T10:00:29Z</time>
      </trkpt>
      <trkpt lat="37.6322445832" lon="-7.6015846990">
        <ele>167.41</ele>
        <time>2021-05-28T10:00:30Z</time>
      </trkpt>
      <trkpt lat="37.6321047731" lon="-7.6017154567">
        <ele>168.85</ele>
        <time>2021-05-28T10:00:31Z</time>
      </trkpt>
      <trkpt lat="37.6319434214" lon="-7.6018344797">
        <ele>171.25</ele>
        <time>2021-05-28T10:00:32Z</time>
      </trkpt>
      <trkpt lat="37.6317735203" lon="-7.6019483060">
        <ele>173.17</ele>
        <time>2021-05-28T10:00:33Z</time>
      </trkpt>
      <trkpt lat="37.6313408464" lon="-7.6022966579">
        <ele>170.77</ele>
        <time>2021-05-28T10:00:36Z</time>
      </trkpt>
      <trkpt lat="37.6312456280" lon="-7.6024517231">
        <ele>170.29</ele>
        <time>2021-05-28T10:00:37Z</time>
      </trkpt>
      <trkpt lat="37.6311752200" lon="-7.6026398968">
        <ele>169.81</ele>
        <time>2021-05-28T10:00:38Z</time>
      </trkpt>
      <trkpt lat="37.6311228331" lon="-7.6028561499">
        <ele>171.73</ele>
        <time>2021-05-28T10:00:39Z</time>
      </trkpt>
      <trkpt lat="37.6310787443" lon="-7.6030884124">
        <ele>172.21</ele>
        <time>2021-05-28T10:00:40Z</time>
      </trkpt>
      <trkpt lat="37.6309348270" lon="-7.6037304662">
        <ele>170.29</ele>
        <time>2021-05-28T10:00:43Z</time>
      </trkpt>
      <trkpt lat="37.6308547799" lon="-7.6039095875">
        <ele>169.33</ele>
        <time>2021-05-28T10:00:44Z</time>
      </trkpt>
      <trkpt lat="37.6307518501" lon="-7.6040689275">
        <ele>169.81</ele>
        <time>2021-05-28T10:00:45Z</time>
      </trkpt>
      <trkpt lat="37.6305479184" lon="-7.6043855119">
        <ele>169.33</ele>
        <time>2021-05-28T10:00:47Z</time>
      </trkpt>
      <trkpt lat="37.6304714754" lon="-7.6045810618">
        <ele>169.81</ele>
        <time>2021-05-28T10:00:48Z</time>
      </trkpt>
      <trkpt lat="37.6304152329" lon="-7.6048045233">
        <ele>170.29</ele>
        <time>2021-05-28T10:00:49Z</time>
      </trkpt>
      <trkpt lat="37.6303786878" lon="-7.6050435752">
        <ele>170.77</ele>
        <time>2021-05-28T10:00:50Z</time>
      </trkpt>
      <trkpt lat="37.6303563081" lon="-7.6052862313">
        <ele>170.77</ele>
        <time>2021-05-28T10:00:51Z</time>
      </trkpt>
      <trkpt lat="37.6302071102" lon="-7.6079169754">
        <ele>171.73</ele>
        <time>2021-05-28T10:01:01Z</time>
      </trkpt>
      <trkpt lat="37.6302501932" lon="-7.6087635476">
        <ele>170.77</ele>
        <time>2021-05-28T10:01:04Z</time>
      </trkpt>
      <trkpt lat="37.6303024124" lon="-7.6099314820">
        <ele>167.41</ele>
        <time>2021-05-28T10:01:08Z</time>
      </trkpt>
      <trkpt lat="37.6304848865" lon="-7.6134000812">
        <ele>169.33</ele>
        <time>2021-05-28T10:01:19Z</time>
      </trkpt>
      <trkpt lat="37.6305557974" lon="-7.6147954166">
        <ele>166.45</ele>
        <time>2021-05-28T10:01:24Z</time>
      </trkpt>
      <trkpt lat="37.6306070946" lon="-7.6159499399">
        <ele>167.89</ele>
        <time>2021-05-28T10:01:29Z</time>
      </trkpt>
      <trkpt lat="37.6306526922" lon="-7.6163963601">
        <ele>166.93</ele>
        <time>2021-05-28T10:01:31Z</time>
      </trkpt>
      <trkpt lat="37.6306991279" lon="-7.6165979449">
        <ele>167.41</ele>
        <time>2021-05-28T10:01:32Z</time>
      </trkpt>
      <trkpt lat="37.6307641715" lon="-7.6168070734">
        <ele>167.41</ele>
        <time>2021-05-28T10:01:33Z</time>
      </trkpt>
      <trkpt lat="37.6313301176" lon="-7.6183477510">
        <ele>166.45</ele>
        <time>2021-05-28T10:01:39Z</time>
      </trkpt>
      <trkpt lat="37.6323343534" lon="-7.6209533494">
        <ele>167.41</ele>
        <time>2021-05-28T10:01:48Z</time>
      </trkpt>
      <trkpt lat="37.6328257844" lon="-7.6223014947">
        <ele>168.37</ele>
        <time>2021-05-28T10:01:53Z</time>
      </trkpt>
      <trkpt lat="37.6329197455" lon="-7.6225770079">
        <ele>165.48</ele>
        <time>2021-05-28T10:01:54Z</time>
      </trkpt>
      <trkpt lat="37.6329952665" lon="-7.6228635013">
        <ele>164.52</ele>
        <time>2021-05-28T10:01:55Z</time>
      </trkpt>
      <trkpt lat="37.6330518443" lon="-7.6231631543">
        <ele>163.08</ele>
        <time>2021-05-28T10:01:56Z</time>
      </trkpt>
      <trkpt lat="37.6330968551" lon="-7.6234769728">
        <ele>163.56</ele>
        <time>2021-05-28T10:01:57Z</time>
      </trkpt>
      <trkpt lat="37.6334074885" lon="-7.6258058846">
        <ele>159.72</ele>
        <time>2021-05-28T10:02:04Z</time>
      </trkpt>
      <trkpt lat="37.6334987674" lon="-7.6264835615">
        <ele>156.83</ele>
        <time>2021-05-28T10:02:06Z</time>
      </trkpt>
      <trkpt lat="37.6335979253" lon="-7.6274504978">
        <ele>154.43</ele>
        <time>2021-05-28T10:02:09Z</time>
      </trkpt>
      <trkpt lat="37.6336545870" lon="-7.6283481997">
        <ele>150.58</ele>
        <time>2021-05-28T10:02:12Z</time>
      </trkpt>
      <trkpt lat="37.6337166131" lon="-7.6291295607">
        <ele>147.22</ele>
        <time>2021-05-28T10:02:15Z</time>
      </trkpt>
      <trkpt lat="37.6337633003" lon="-7.6293723844">
        <ele>146.26</ele>
        <time>2021-05-28T10:02:16Z</time>
      </trkpt>
      <trkpt lat="37.6338310260" lon="-7.6296205726">
        <ele>147.70</ele>
        <time>2021-05-28T10:02:17Z</time>
      </trkpt>
      <trkpt lat="37.6340927929" lon="-7.6304100640">
        <ele>151.06</ele>
        <time>2021-05-28T10:02:20Z</time>
      </trkpt>
      <trkpt lat="37.6345562283" lon="-7.6318062376">
        <ele>146.26</ele>
        <time>2021-05-28T10:02:25Z</time>
      </trkpt>
      <trkpt lat="37.6347340085" lon="-7.6323357224">
        <ele>145.78</ele>
        <time>2021-05-28T10:02:27Z</time>
      </trkpt>
      <trkpt lat="37.6353401877" lon="-7.6341289468">
        <ele>149.62</ele>
        <time>2021-05-28T10:02:34Z</time>
      </trkpt>
      <trkpt lat="37.6358162798" lon="-7.6355721429">
        <ele>145.78</ele>
        <time>2021-05-28T10:02:40Z</time>
      </trkpt>
      <trkpt lat="37.6358817425" lon="-7.6357805170">
        <ele>145.78</ele>
        <time>2021-05-28T10:02:41Z</time>
      </trkpt>
      <trkpt lat="37.6359707583" lon="-7.6361669227">
        <ele>143.85</ele>
        <time>2021-05-28T10:02:43Z</time>
      </trkpt>
      <trkpt lat="37.6359793078" lon="-7.6363562699">
        <ele>143.37</ele>
        <time>2021-05-28T10:02:44Z</time>
      </trkpt>
      <trkpt lat="37.6359648909" lon="-7.6365511492">
        <ele>142.41</ele>
        <time>2021-05-28T10:02:45Z</time>
      </trkpt>
      <trkpt lat="37.6359306928" lon="-7.6367603615">
        <ele>142.89</ele>
        <time>2021-05-28T10:02:46Z</time>
      </trkpt>
      <trkpt lat="37.6358857658" lon="-7.6369855832">
        <ele>142.41</ele>
        <time>2021-05-28T10:02:47Z</time>
      </trkpt>
      <trkpt lat="37.6356810797" lon="-7.6381414477">
        <ele>139.05</ele>
        <time>2021-05-28T10:02:52Z</time>
      </trkpt>
      <trkpt lat="37.6355683431" lon="-7.6397013199">
        <ele>137.61</ele>
        <time>2021-05-28T10:02:59Z</time>
      </trkpt>
      <trkpt lat="37.6356287766" lon="-7.6403240114">
        <ele>134.72</ele>
        <time>2021-05-28T10:03:02Z</time>
      </trkpt>
      <trkpt lat="37.6356546767" lon="-7.6405213214">
        <ele>134.72</ele>
        <time>2021-05-28T10:03:03Z</time>
      </trkpt>
      <trkpt lat="37.6356958319" lon="-7.6407010294">
        <ele>133.28</ele>
        <time>2021-05-28T10:03:04Z</time>
      </trkpt>
      <trkpt lat="37.6357494760" lon="-7.6408631355">
        <ele>131.36</ele>
        <time>2021-05-28T10:03:05Z</time>
      </trkpt>
      <trkpt lat="37.6358500589" lon="-7.6411534846">
        <ele>128.95</ele>
        <time>2021-05-28T10:03:07Z</time>
      </trkpt>
      <trkpt lat="37.6358770486" lon="-7.6413005870">
        <ele>127.99</ele>
        <time>2021-05-28T10:03:08Z</time>
      </trkpt>
      <trkpt lat="37.6358773839" lon="-7.6414449234">
        <ele>127.03</ele>
        <time>2021-05-28T10:03:09Z</time>
      </trkpt>
      <trkpt lat="37.6358466223" lon="-7.6415891759">
        <ele>126.07</ele>
        <time>2021-05-28T10:03:10Z</time>
      </trkpt>
      <trkpt lat="37.6357876137" lon="-7.6417338476">
        <ele>125.59</ele>
        <time>2021-05-28T10:03:11Z</time>
      </trkpt>
      <trkpt lat="37.6357288565" lon="-7.6418721490">
        <ele>125.59</ele>
        <time>2021-05-28T10:03:12Z</time>
      </trkpt>
      <trkpt lat="37.6356908027" lon="-7.6420186646">
        <ele>123.67</ele>
        <time>2021-05-28T10:03:13Z</time>
      </trkpt>
      <trkpt lat="37.6356800739" lon="-7.6421775017">
        <ele>123.67</ele>
        <time>2021-05-28T10:03:14Z</time>
      </trkpt>
      <trkpt lat="37.6356838457" lon="-7.6423356682">
        <ele>124.15</ele>
        <time>2021-05-28T10:03:15Z</time>
      </trkpt>
      <trkpt lat="37.6356789004" lon="-7.6424923260">
        <ele>123.67</ele>
        <time>2021-05-28T10:03:16Z</time>
      </trkpt>
      <trkpt lat="37.6356576104" lon="-7.6426561922">
        <ele>123.19</ele>
        <time>2021-05-28T10:03:17Z</time>
      </trkpt>
      <trkpt lat="37.6355437003" lon="-7.6433886029">
        <ele>118.86</ele>
        <time>2021-05-28T10:03:21Z</time>
      </trkpt>
      <trkpt lat="37.6354796626" lon="-7.6439335942">
        <ele>115.01</ele>
        <time>2021-05-28T10:03:24Z</time>
      </trkpt>
      <trkpt lat="37.6354960073" lon="-7.6441104524">
        <ele>114.53</ele>
        <time>2021-05-28T10:03:25Z</time>
      </trkpt>
      <trkpt lat="37.6355411019" lon="-7.6442763302">
        <ele>115.50</ele>
        <time>2021-05-28T10:03:26Z</time>
      </trkpt>
      <trkpt lat="37.6356138568" lon="-7.6444387715">
        <ele>116.46</ele>
        <time>2021-05-28T10:03:27Z</time>
      </trkpt>
      <trkpt lat="37.6357035432" lon="-7.6445958484">
        <ele>117.90</ele>
        <time>2021-05-28T10:03:28Z</time>
      </trkpt>
      <trkpt lat="37.6357904635" lon="-7.6447499078">
        <ele>117.42</ele>
        <time>2021-05-28T10:03:29Z</time>
      </trkpt>
      <trkpt lat="37.6358581893" lon="-7.6449076552">
        <ele>117.90</ele>
        <time>2021-05-28T10:03:30Z</time>
      </trkpt>
      <trkpt lat="37.6359006856" lon="-7.6450731140">
        <ele>117.42</ele>
        <time>2021-05-28T10:03:31Z</time>
      </trkpt>
      <trkpt lat="37.6359193772" lon="-7.6452549174">
        <ele>117.90</ele>
        <time>2021-05-28T10:03:32Z</time>
      </trkpt>
      <trkpt lat="37.6359055471" lon="-7.6457981486">
        <ele>114.53</ele>
        <time>2021-05-28T10:03:35Z</time>
      </trkpt>
      <trkpt lat="37.6358867716" lon="-7.6459595002">
        <ele>113.09</ele>
        <time>2021-05-28T10:03:36Z</time>
      </trkpt>
      <trkpt lat="37.6358878613" lon="-7.6461136434">
        <ele>112.13</ele>
        <time>2021-05-28T10:03:37Z</time>
      </trkpt>
      <trkpt lat="37.6359251607" lon="-7.6462589018">
        <ele>112.13</ele>
        <time>2021-05-28T10:03:38Z</time>
      </trkpt>
      <trkpt lat="37.6359993406" lon="-7.6463955268">
        <ele>112.61</ele>
        <time>2021-05-28T10:03:39Z</time>
      </trkpt>
      <trkpt lat="37.6360966545" lon="-7.6465318166">
        <ele>114.05</ele>
        <time>2021-05-28T10:03:40Z</time>
      </trkpt>
      <trkpt lat="37.6361882687" lon="-7.6466842834">
        <ele>113.57</ele>
        <time>2021-05-28T10:03:41Z</time>
      </trkpt>
      <trkpt lat="37.6362543181" lon="-7.6468491554">
        <ele>113.57</ele>
        <time>2021-05-28T10:03:42Z</time>
      </trkpt>
      <trkpt lat="37.6362998318" lon="-7.6470149495">
        <ele>112.13</ele>
        <time>2021-05-28T10:03:43Z</time>
      </trkpt>
      <trkpt lat="37.6364102215" lon="-7.6473198831">
        <ele>111.65</ele>
        <time>2021-05-28T10:03:45Z</time>
      </trkpt>
      <trkpt lat="37.6365340222" lon="-7.6476095617">
        <ele>110.21</ele>
        <time>2021-05-28T10:03:47Z</time>
      </trkpt>
      <trkpt lat="37.6365776081" lon="-7.6477652974">
        <ele>110.69</ele>
        <time>2021-05-28T10:03:48Z</time>
      </trkpt>
      <trkpt lat="37.6366594993" lon="-7.6480685547">
        <ele>109.73</ele>
        <time>2021-05-28T10:03:50Z</time>
      </trkpt>
      <trkpt lat="37.6367250457" lon="-7.6481922716">
        <ele>109.73</ele>
        <time>2021-05-28T10:03:51Z</time>
      </trkpt>
      <trkpt lat="37.6368687116" lon="-7.6484270487">
        <ele>109.25</ele>
        <time>2021-05-28T10:03:53Z</time>
      </trkpt>
      <trkpt lat="37.6369222719" lon="-7.6485681999">
        <ele>108.77</ele>
        <time>2021-05-28T10:03:54Z</time>
      </trkpt>
      <trkpt lat="37.6369651034" lon="-7.6487191580">
        <ele>108.29</ele>
        <time>2021-05-28T10:03:55Z</time>
      </trkpt>
      <trkpt lat="37.6370608248" lon="-7.6490178052">
        <ele>107.32</ele>
        <time>2021-05-28T10:03:57Z</time>
      </trkpt>
      <trkpt lat="37.6371372677" lon="-7.6491538435">
        <ele>106.36</ele>
        <time>2021-05-28T10:03:58Z</time>
      </trkpt>
      <trkpt lat="37.6372277923" lon="-7.6492884569">
        <ele>106.36</ele>
        <time>2021-05-28T10:03:59Z</time>
      </trkpt>
      <trkpt lat="37.6375026349" lon="-7.6497095637">
        <ele>102.04</ele>
        <time>2021-05-28T10:04:02Z</time>
      </trkpt>
      <trkpt lat="37.6376897190" lon="-7.6499387249">
        <ele>99.15</ele>
        <time>2021-05-28T10:04:04Z</time>
      </trkpt>
      <trkpt lat="37.6378082391" lon="-7.6500146650">
        <ele>97.71</ele>
        <time>2021-05-28T10:04:05Z</time>
      </trkpt>
      <trkpt lat="37.6379427686" lon="-7.6500528865">
        <ele>98.19</ele>
        <time>2021-05-28T10:04:06Z</time>
      </trkpt>
      <trkpt lat="37.6380840875" lon="-7.6500544790">
        <ele>98.19</ele>
        <time>2021-05-28T10:04:07Z</time>
      </trkpt>
      <trkpt lat="37.6382297650" lon="-7.6500486117">
        <ele>98.19</ele>
        <time>2021-05-28T10:04:08Z</time>
      </trkpt>
      <trkpt lat="37.6383764483" lon="-7.6500661299">
        <ele>98.19</ele>
        <time>2021-05-28T10:04:09Z</time>
      </trkpt>
      <trkpt lat="37.6385191083" lon="-7.6501124818">
        <ele>97.23</ele>
        <time>2021-05-28T10:04:10Z</time>
      </trkpt>
      <trkpt lat="37.6386558171" lon="-7.6501576602">
        <ele>96.75</ele>
        <time>2021-05-28T10:04:11Z</time>
      </trkpt>
      <trkpt lat="37.6387900114" lon="-7.6501888409">
        <ele>95.31</ele>
        <time>2021-05-28T10:04:12Z</time>
      </trkpt>
      <trkpt lat="37.6389210206" lon="-7.6502256375">
        <ele>93.87</ele>
        <time>2021-05-28T10:04:13Z</time>
      </trkpt>
      <trkpt lat="37.6390458271" lon="-7.6502936985">
        <ele>93.39</ele>
        <time>2021-05-28T10:04:14Z</time>
      </trkpt>
      <trkpt lat="37.6391596533" lon="-7.6504015736">
        <ele>93.87</ele>
        <time>2021-05-28T10:04:15Z</time>
      </trkpt>
      <trkpt lat="37.6392656006" lon="-7.6505432278">
        <ele>94.35</ele>
        <time>2021-05-28T10:04:16Z</time>
      </trkpt>
      <trkpt lat="37.6393626630" lon="-7.6507111173">
        <ele>93.87</ele>
        <time>2021-05-28T10:04:17Z</time>
      </trkpt>
      <trkpt lat="37.6394416206" lon="-7.6508939266">
        <ele>92.90</ele>
        <time>2021-05-28T10:04:18Z</time>
      </trkpt>
      <trkpt lat="37.6395024732" lon="-7.6510823518">
        <ele>91.94</ele>
        <time>2021-05-28T10:04:19Z</time>
      </trkpt>
      <trkpt lat="37.6395552792" lon="-7.6512689330">
        <ele>90.50</ele>
        <time>2021-05-28T10:04:20Z</time>
      </trkpt>
      <trkpt lat="37.6396587119" lon="-7.6516115014">
        <ele>86.66</ele>
        <time>2021-05-28T10:04:22Z</time>
      </trkpt>
      <trkpt lat="37.6397259347" lon="-7.6519383956">
        <ele>83.29</ele>
        <time>2021-05-28T10:04:24Z</time>
      </trkpt>
      <trkpt lat="37.6397623122" lon="-7.6520948019">
        <ele>83.29</ele>
        <time>2021-05-28T10:04:25Z</time>
      </trkpt>
      <trkpt lat="37.6398140285" lon="-7.6522458438">
        <ele>81.37</ele>
        <time>2021-05-28T10:04:26Z</time>
      </trkpt>
      <trkpt lat="37.6398897171" lon="-7.6523771044">
        <ele>79.93</ele>
        <time>2021-05-28T10:04:27Z</time>
      </trkpt>
      <trkpt lat="37.6399910543" lon="-7.6524815429">
        <ele>78.48</ele>
        <time>2021-05-28T10:04:28Z</time>
      </trkpt>
      <trkpt lat="37.6401087362" lon="-7.6525561418">
        <ele>77.52</ele>
        <time>2021-05-28T10:04:29Z</time>
      </trkpt>
      <trkpt lat="37.6402345486" lon="-7.6526123844">
        <ele>76.56</ele>
        <time>2021-05-28T10:04:30Z</time>
      </trkpt>
      <trkpt lat="37.6403558347" lon="-7.6526705548">
        <ele>74.64</ele>
        <time>2021-05-28T10:04:31Z</time>
      </trkpt>
      <trkpt lat="37.6404616144" lon="-7.6527587324">
        <ele>73.20</ele>
        <time>2021-05-28T10:04:32Z</time>
      </trkpt>
      <trkpt lat="37.6405340340" lon="-7.6528802700">
        <ele>70.79</ele>
        <time>2021-05-28T10:04:33Z</time>
      </trkpt>
      <trkpt lat="37.6405746024" lon="-7.6530214213">
        <ele>69.35</ele>
        <time>2021-05-28T10:04:34Z</time>
      </trkpt>
      <trkpt lat="37.6405926235" lon="-7.6531702839">
        <ele>67.43</ele>
        <time>2021-05-28T10:04:35Z</time>
      </trkpt>
      <trkpt lat="37.6405860018" lon="-7.6533161290">
        <ele>65.99</ele>
        <time>2021-05-28T10:04:36Z</time>
      </trkpt>
      <trkpt lat="37.6405521389" lon="-7.6534473058">
        <ele>65.03</ele>
        <time>2021-05-28T10:04:37Z</time>
      </trkpt>
      <trkpt lat="37.6404818147" lon="-7.6535552647">
        <ele>64.07</ele>
        <time>2021-05-28T10:04:38Z</time>
      </trkpt>
      <trkpt lat="37.6403793879" lon="-7.6536461245">
        <ele>64.07</ele>
        <time>2021-05-28T10:04:39Z</time>
      </trkpt>
      <trkpt lat="37.6402508095" lon="-7.6537213940">
        <ele>65.03</ele>
        <time>2021-05-28T10:04:40Z</time>
      </trkpt>
      <trkpt lat="37.6401142683" lon="-7.6537875272">
        <ele>63.58</ele>
        <time>2021-05-28T10:04:41Z</time>
      </trkpt>
      <trkpt lat="37.6397106797" lon="-7.6539874356">
        <ele>61.66</ele>
        <time>2021-05-28T10:04:44Z</time>
      </trkpt>
      <trkpt lat="37.6395860408" lon="-7.6540795527">
        <ele>61.66</ele>
        <time>2021-05-28T10:04:45Z</time>
      </trkpt>
      <trkpt lat="37.6394747291" lon="-7.6541874278">
        <ele>60.70</ele>
        <time>2021-05-28T10:04:46Z</time>
      </trkpt>
      <trkpt lat="37.6393772475" lon="-7.6543081272">
        <ele>60.22</ele>
        <time>2021-05-28T10:04:47Z</time>
      </trkpt>
      <trkpt lat="37.6392954402" lon="-7.6544429082">
        <ele>60.22</ele>
        <time>2021-05-28T10:04:48Z</time>
      </trkpt>
      <trkpt lat="37.6392403711" lon="-7.6545919385">
        <ele>59.26</ele>
        <time>2021-05-28T10:04:49Z</time>
      </trkpt>
      <trkpt lat="37.6392130461" lon="-7.6547449082">
        <ele>58.78</ele>
        <time>2021-05-28T10:04:50Z</time>
      </trkpt>
      <trkpt lat="37.6392022334" lon="-7.6548954472">
        <ele>57.34</ele>
        <time>2021-05-28T10:04:51Z</time>
      </trkpt>
      <trkpt lat="37.6392042451" lon="-7.6550479978">
        <ele>56.86</ele>
        <time>2021-05-28T10:04:52Z</time>
      </trkpt>
      <trkpt lat="37.6392262895" lon="-7.6552042365">
        <ele>56.86</ele>
        <time>2021-05-28T10:04:53Z</time>
      </trkpt>
      <trkpt lat="37.6392728090" lon="-7.6553589664">
        <ele>56.86</ele>
        <time>2021-05-28T10:04:54Z</time>
      </trkpt>
      <trkpt lat="37.6393436361" lon="-7.6555049792">
        <ele>56.86</ele>
        <time>2021-05-28T10:04:55Z</time>
      </trkpt>
      <trkpt lat="37.6394374296" lon="-7.6556467172">
        <ele>55.89</ele>
        <time>2021-05-28T10:04:56Z</time>
      </trkpt>
      <trkpt lat="37.6395519264" lon="-7.6557809114">
        <ele>55.41</ele>
        <time>2021-05-28T10:04:57Z</time>
      </trkpt>
      <trkpt lat="37.6396753080" lon="-7.6559061371">
        <ele>53.97</ele>
        <time>2021-05-28T10:04:58Z</time>
      </trkpt>
      <trkpt lat="37.6399258431" lon="-7.6561517268">
        <ele>53.01</ele>
        <time>2021-05-28T10:05:00Z</time>
      </trkpt>
      <trkpt lat="37.6402943954" lon="-7.6565187704">
        <ele>50.61</ele>
        <time>2021-05-28T10:05:03Z</time>
      </trkpt>
      <trkpt lat="37.6406455133" lon="-7.6568707265">
        <ele>48.68</ele>
        <time>2021-05-28T10:05:06Z</time>
      </trkpt>
      <trkpt lat="37.6415173989" lon="-7.6577388402">
        <ele>50.13</ele>
        <time>2021-05-28T10:05:15Z</time>
      </trkpt>
      <trkpt lat="37.6416498329" lon="-7.6579187997">
        <ele>51.09</ele>
        <time>2021-05-28T10:05:18Z</time>
      </trkpt>
      <trkpt lat="37.6417037286" lon="-7.6580174547">
        <ele>51.57</ele>
        <time>2021-05-28T10:05:25Z</time>
      </trkpt>
      <trkpt lat="37.6416957658" lon="-7.6580333803">
        <ele>51.57</ele>
        <time>2021-05-28T10:05:46Z</time>
      </trkpt>
      <trkpt lat="37.6417005435" lon="-7.6580631360">
        <ele>51.57</ele>
        <time>2021-05-28T10:05:50Z</time>
      </trkpt>
      <trkpt lat="37.6417091768" lon="-7.6580951549">
        <ele>52.53</ele>
        <time>2021-05-28T10:05:51Z</time>
      </trkpt>
      <trkpt lat="37.6417212468" lon="-7.6581197977">
        <ele>52.05</ele>
        <time>2021-05-28T10:05:52Z</time>
      </trkpt>
      <trkpt lat="37.6417325623" lon="-7.6581337117">
        <ele>52.05</ele>
        <time>2021-05-28T10:05:53Z</time>
      </trkpt>
      <trkpt lat="37.6417482365" lon="-7.6581456140">
        <ele>52.53</ele>
        <time>2021-05-28T10:05:54Z</time>
      </trkpt>
      <trkpt lat="37.6417769864" lon="-7.6581600308">
        <ele>52.53</ele>
        <time>2021-05-28T10:05:55Z</time>
      </trkpt>
      <trkpt lat="37.6418209076" lon="-7.6581757888">
        <ele>53.01</ele>
        <time>2021-05-28T10:05:56Z</time>
      </trkpt>
      <trkpt lat="37.6418775693" lon="-7.6581850927">
        <ele>53.49</ele>
        <time>2021-05-28T10:05:57Z</time>
      </trkpt>
      <trkpt lat="37.6419393439" lon="-7.6581898704">
        <ele>53.97</ele>
        <time>2021-05-28T10:05:58Z</time>
      </trkpt>
      <trkpt lat="37.6419992745" lon="-7.6581985876">
        <ele>54.45</ele>
        <time>2021-05-28T10:05:59Z</time>
      </trkpt>
      <trkpt lat="37.6420550141" lon="-7.6582218055">
        <ele>54.45</ele>
        <time>2021-05-28T10:06:00Z</time>
      </trkpt>
      <trkpt lat="37.6421072334" lon="-7.6582565904">
        <ele>54.45</ele>
        <time>2021-05-28T10:06:01Z</time>
      </trkpt>
      <trkpt lat="37.6421552617" lon="-7.6583060436">
        <ele>54.93</ele>
        <time>2021-05-28T10:06:02Z</time>
      </trkpt>
      <trkpt lat="37.6421912201" lon="-7.6583756972">
        <ele>55.41</ele>
        <time>2021-05-28T10:06:03Z</time>
      </trkpt>
      <trkpt lat="37.6422108337" lon="-7.6584576722">
        <ele>55.89</ele>
        <time>2021-05-28T10:06:04Z</time>
      </trkpt>
      <trkpt lat="37.6422160305" lon="-7.6585449278">
        <ele>55.89</ele>
        <time>2021-05-28T10:06:05Z</time>
      </trkpt>
      <trkpt lat="37.6422061399" lon="-7.6586303394">
        <ele>55.89</ele>
        <time>2021-05-28T10:06:06Z</time>
      </trkpt>
      <trkpt lat="37.6421845146" lon="-7.6587104704">
        <ele>55.89</ele>
        <time>2021-05-28T10:06:07Z</time>
      </trkpt>
      <trkpt lat="37.6421515737" lon="-7.6587833092">
        <ele>55.89</ele>
        <time>2021-05-28T10:06:08Z</time>
      </trkpt>
      <trkpt lat="37.6421071496" lon="-7.6588427369">
        <ele>55.89</ele>
        <time>2021-05-28T10:06:09Z</time>
      </trkpt>
      <trkpt lat="37.6420536730" lon="-7.6588841435">
        <ele>54.93</ele>
        <time>2021-05-28T10:06:10Z</time>
      </trkpt>
      <trkpt lat="37.6419960894" lon="-7.6589097921">
        <ele>54.93</ele>
        <time>2021-05-28T10:06:11Z</time>
      </trkpt>
      <trkpt lat="37.6419322193" lon="-7.6589170843">
        <ele>54.93</ele>
        <time>2021-05-28T10:06:12Z</time>
      </trkpt>
      <trkpt lat="37.6418648288" lon="-7.6589051820">
        <ele>54.93</ele>
        <time>2021-05-28T10:06:13Z</time>
      </trkpt>
      <trkpt lat="37.6417968515" lon="-7.6588831376">
        <ele>53.97</ele>
        <time>2021-05-28T10:06:14Z</time>
      </trkpt>
      <trkpt lat="37.6417306345" lon="-7.6588630211">
        <ele>53.49</ele>
        <time>2021-05-28T10:06:15Z</time>
      </trkpt>
      <trkpt lat="37.6416671835" lon="-7.6588520408">
        <ele>53.49</ele>
        <time>2021-05-28T10:06:16Z</time>
      </trkpt>
      <trkpt lat="37.6415971108" lon="-7.6588543039">
        <ele>53.49</ele>
        <time>2021-05-28T10:06:17Z</time>
      </trkpt>
      <trkpt lat="37.6415237691" lon="-7.6588727441">
        <ele>53.01</ele>
        <time>2021-05-28T10:06:18Z</time>
      </trkpt>
      <trkpt lat="37.6414469909" lon="-7.6588999014">
        <ele>53.01</ele>
        <time>2021-05-28T10:06:19Z</time>
      </trkpt>
      <trkpt lat="37.6409343537" lon="-7.6591050904">
        <ele>49.65</ele>
        <time>2021-05-28T10:06:26Z</time>
      </trkpt>
      <trkpt lat="37.6407651231" lon="-7.6592060924">
        <ele>49.16</ele>
        <time>2021-05-28T10:06:29Z</time>
      </trkpt>
      <trkpt lat="37.6407245547" lon="-7.6592466608">
        <ele>48.68</ele>
        <time>2021-05-28T10:06:30Z</time>
      </trkpt>
      <trkpt lat="37.6406978164" lon="-7.6592822839">
        <ele>48.68</ele>
        <time>2021-05-28T10:06:31Z</time>
      </trkpt>
      <trkpt lat="37.6406798791" lon="-7.6593091898">
        <ele>48.68</ele>
        <time>2021-05-28T10:06:32Z</time>
      </trkpt>
      <trkpt lat="37.6406663842" lon="-7.6593318209">
        <ele>47.72</ele>
        <time>2021-05-28T10:06:33Z</time>
      </trkpt>
      <trkpt lat="37.6406287495" lon="-7.6593804359">
        <ele>47.72</ele>
        <time>2021-05-28T10:06:45Z</time>
      </trkpt>
      <trkpt lat="37.6403772924" lon="-7.6597679313">
        <ele>46.76</ele>
        <time>2021-05-28T10:06:57Z</time>
      </trkpt>
      <trkpt lat="37.6403421722" lon="-7.6598110981">
        <ele>45.80</ele>
        <time>2021-05-28T10:06:58Z</time>
      </trkpt>
      <trkpt lat="37.6402790565" lon="-7.6599013712">
        <ele>45.80</ele>
        <time>2021-05-28T10:07:00Z</time>
      </trkpt>
      <trkpt lat="37.6401811559" lon="-7.6600706019">
        <ele>45.32</ele>
        <time>2021-05-28T10:07:04Z</time>
      </trkpt>
      <trkpt lat="37.6399164554" lon="-7.6604829915">
        <ele>43.40</ele>
        <time>2021-05-28T10:07:11Z</time>
      </trkpt>
      <trkpt lat="37.6398809161" lon="-7.6605297625">
        <ele>43.40</ele>
        <time>2021-05-28T10:07:12Z</time>
      </trkpt>
      <trkpt lat="37.6398469694" lon="-7.6605870947">
        <ele>43.40</ele>
        <time>2021-05-28T10:07:13Z</time>
      </trkpt>
      <trkpt lat="37.6398135256" lon="-7.6606554072">
        <ele>43.40</ele>
        <time>2021-05-28T10:07:14Z</time>
      </trkpt>
      <trkpt lat="37.6397825126" lon="-7.6607262343">
        <ele>42.92</ele>
        <time>2021-05-28T10:07:15Z</time>
      </trkpt>
      <trkpt lat="37.6396415289" lon="-7.6610392984">
        <ele>46.28</ele>
        <time>2021-05-28T10:07:20Z</time>
      </trkpt>
      <trkpt lat="37.6396190654" lon="-7.6610954572">
        <ele>46.76</ele>
        <time>2021-05-28T10:07:21Z</time>
      </trkpt>
      <trkpt lat="37.6394340768" lon="-7.6615612395">
        <ele>49.65</ele>
        <time>2021-05-28T10:07:28Z</time>
      </trkpt>
      <trkpt lat="37.6393788401" lon="-7.6616872195">
        <ele>50.61</ele>
        <time>2021-05-28T10:07:30Z</time>
      </trkpt>
      <trkpt lat="37.6392792631" lon="-7.6619582903">
        <ele>52.05</ele>
        <time>2021-05-28T10:07:35Z</time>
      </trkpt>
      <trkpt lat="37.6392305642" lon="-7.6621198095">
        <ele>52.53</ele>
        <time>2021-05-28T10:07:39Z</time>
      </trkpt>
      <trkpt lat="37.6391783450" lon="-7.6622480527">
        <ele>52.53</ele>
        <time>2021-05-28T10:07:41Z</time>
      </trkpt>
      <trkpt lat="37.6391682867" lon="-7.6623138506">
        <ele>53.01</ele>
        <time>2021-05-28T10:07:42Z</time>
      </trkpt>
      <trkpt lat="37.6391704660" lon="-7.6623761281">
        <ele>53.49</ele>
        <time>2021-05-28T10:07:43Z</time>
      </trkpt>
      <trkpt lat="37.6391551271" lon="-7.6626122463">
        <ele>53.01</ele>
        <time>2021-05-28T10:07:48Z</time>
      </trkpt>
      <trkpt lat="37.6391329151" lon="-7.6626483724">
        <ele>53.01</ele>
        <time>2021-05-28T10:07:49Z</time>
      </trkpt>
      <trkpt lat="37.6389942784" lon="-7.6628607698">
        <ele>52.05</ele>
        <time>2021-05-28T10:07:58Z</time>
      </trkpt>
      <trkpt lat="37.6390065160" lon="-7.6628861669">
        <ele>52.53</ele>
        <time>2021-05-28T10:07:59Z</time>
      </trkpt>
      <trkpt lat="37.6390345115" lon="-7.6629199460">
        <ele>52.53</ele>
        <time>2021-05-28T10:08:00Z</time>
      </trkpt>
      <trkpt lat="37.6390801929" lon="-7.6629514620">
        <ele>53.01</ele>
        <time>2021-05-28T10:08:01Z</time>
      </trkpt>
      <trkpt lat="37.6391374413" lon="-7.6629779488">
        <ele>53.49</ele>
        <time>2021-05-28T10:08:02Z</time>
      </trkpt>
      <trkpt lat="37.6391968690" lon="-7.6630098000">
        <ele>53.97</ele>
        <time>2021-05-28T10:08:03Z</time>
      </trkpt>
      <trkpt lat="37.6392479148" lon="-7.6630438305">
        <ele>53.97</ele>
        <time>2021-05-28T10:08:04Z</time>
      </trkpt>
      <trkpt lat="37.6393403672" lon="-7.6631252188">
        <ele>55.41</ele>
        <time>2021-05-28T10:08:11Z</time>
      </trkpt>
      <trkpt lat="37.6393635012" lon="-7.6631595846">
        <ele>54.93</ele>
        <time>2021-05-28T10:08:19Z</time>
      </trkpt>
      <trkpt lat="37.6394101046" lon="-7.6632164139">
        <ele>54.93</ele>
        <time>2021-05-28T10:08:42Z</time>
      </trkpt>
      <trkpt lat="37.6394839492" lon="-7.6633007359">
        <ele>54.93</ele>
        <time>2021-05-28T10:08:50Z</time>
      </trkpt>
      <trkpt lat="37.6395023055" lon="-7.6633906737">
        <ele>54.45</ele>
        <time>2021-05-28T10:08:59Z</time>
      </trkpt>
      <trkpt lat="37.6395153813" lon="-7.6634112932">
        <ele>53.97</ele>
        <time>2021-05-28T10:09:00Z</time>
      </trkpt>
      <trkpt lat="37.6395313907" lon="-7.6634408813">
        <ele>53.97</ele>
        <time>2021-05-28T10:09:01Z</time>
      </trkpt>
      <trkpt lat="37.6395448856" lon="-7.6634804439">
        <ele>53.97</ele>
        <time>2021-05-28T10:09:02Z</time>
      </trkpt>
      <trkpt lat="37.6395482384" lon="-7.6635252032">
        <ele>53.97</ele>
        <time>2021-05-28T10:09:03Z</time>
      </trkpt>
      <trkpt lat="37.6395434607" lon="-7.6635687891">
        <ele>53.49</ele>
        <time>2021-05-28T10:09:04Z</time>
      </trkpt>
      <trkpt lat="37.6395347435" lon="-7.6636130456">
        <ele>53.01</ele>
        <time>2021-05-28T10:09:05Z</time>
      </trkpt>
      <trkpt lat="37.6395212486" lon="-7.6636596490">
        <ele>52.53</ele>
        <time>2021-05-28T10:09:06Z</time>
      </trkpt>
      <trkpt lat="37.6395065803" lon="-7.6637066714">
        <ele>52.53</ele>
        <time>2021-05-28T10:09:07Z</time>
      </trkpt>
      <trkpt lat="37.6395063289" lon="-7.6638961025">
        <ele>49.65</ele>
        <time>2021-05-28T10:09:12Z</time>
      </trkpt>
      <trkpt lat="37.6395738870" lon="-7.6641091704">
        <ele>48.68</ele>
        <time>2021-05-28T10:09:19Z</time>
      </trkpt>
      <trkpt lat="37.6395629905" lon="-7.6641513314">
        <ele>48.20</ele>
        <time>2021-05-28T10:09:20Z</time>
      </trkpt>
      <trkpt lat="37.6395437960" lon="-7.6641877927">
        <ele>48.68</ele>
        <time>2021-05-28T10:09:21Z</time>
      </trkpt>
      <trkpt lat="37.6395186502" lon="-7.6642121002">
        <ele>48.68</ele>
        <time>2021-05-28T10:09:22Z</time>
      </trkpt>
      <trkpt lat="37.6394914091" lon="-7.6642267685">
        <ele>48.68</ele>
        <time>2021-05-28T10:09:23Z</time>
      </trkpt>
      <trkpt lat="37.6394588035" lon="-7.6642382517">
        <ele>48.68</ele>
        <time>2021-05-28T10:09:24Z</time>
      </trkpt>
      <trkpt lat="37.6394172292" lon="-7.6642667502">
        <ele>48.68</ele>
        <time>2021-05-28T10:09:25Z</time>
      </trkpt>
      <trkpt lat="37.6393715478" lon="-7.6643216517">
        <ele>48.68</ele>
        <time>2021-05-28T10:09:26Z</time>
      </trkpt>
      <trkpt lat="37.6393318176" lon="-7.6644016989">
        <ele>48.20</ele>
        <time>2021-05-28T10:09:27Z</time>
      </trkpt>
      <trkpt lat="37.6393038221" lon="-7.6645019464">
        <ele>48.20</ele>
        <time>2021-05-28T10:09:28Z</time>
      </trkpt>
      <trkpt lat="37.6392861363" lon="-7.6646171138">
        <ele>48.20</ele>
        <time>2021-05-28T10:09:29Z</time>
      </trkpt>
      <trkpt lat="37.6392729767" lon="-7.6647394896">
        <ele>47.24</ele>
        <time>2021-05-28T10:09:30Z</time>
      </trkpt>
      <trkpt lat="37.6392551232" lon="-7.6648626197">
        <ele>46.76</ele>
        <time>2021-05-28T10:09:31Z</time>
      </trkpt>
      <trkpt lat="37.6392293908" lon="-7.6649820618">
        <ele>45.80</ele>
        <time>2021-05-28T10:09:32Z</time>
      </trkpt>
      <trkpt lat="37.6391080208" lon="-7.6654072758">
        <ele>41.47</ele>
        <time>2021-05-28T10:09:36Z</time>
      </trkpt>
      <trkpt lat="37.6390832942" lon="-7.6654659491">
        <ele>40.51</ele>
        <time>2021-05-28T10:09:37Z</time>
      </trkpt>
      <trkpt lat="37.6390567236" lon="-7.6654988062">
        <ele>40.03</ele>
        <time>2021-05-28T10:09:38Z</time>
      </trkpt>
      <trkpt lat="37.6390319131" lon="-7.6655117143">
        <ele>39.55</ele>
        <time>2021-05-28T10:09:39Z</time>
      </trkpt>
      <trkpt lat="37.6390120480" lon="-7.6655177493">
        <ele>39.07</ele>
        <time>2021-05-28T10:09:40Z</time>
      </trkpt>
      <trkpt lat="37.6389962900" lon="-7.6655198447">
        <ele>39.55</ele>
        <time>2021-05-28T10:09:55Z</time>
      </trkpt>
      <trkpt lat="37.6389657799" lon="-7.6655278075">
        <ele>40.03</ele>
        <time>2021-05-28T10:10:40Z</time>
      </trkpt>
      <trkpt lat="37.6389113814" lon="-7.6655402128">
        <ele>40.03</ele>
        <time>2021-05-28T10:10:41Z</time>
      </trkpt>
      <trkpt lat="37.6388432365" lon="-7.6655424759">
        <ele>40.03</ele>
        <time>2021-05-28T10:10:42Z</time>
      </trkpt>
      <trkpt lat="37.6387673803" lon="-7.6655342616">
        <ele>39.55</ele>
        <time>2021-05-28T10:10:43Z</time>
      </trkpt>
      <trkpt lat="37.6386896800" lon="-7.6655252092">
        <ele>39.07</ele>
        <time>2021-05-28T10:10:44Z</time>
      </trkpt>
      <trkpt lat="37.6386148296" lon="-7.6655207667">
        <ele>37.63</ele>
        <time>2021-05-28T10:10:45Z</time>
      </trkpt>
      <trkpt lat="37.6384728402" lon="-7.6655321661">
        <ele>36.19</ele>
        <time>2021-05-28T10:10:47Z</time>
      </trkpt>
      <trkpt lat="37.6384091377" lon="-7.6655611675">
        <ele>35.71</ele>
        <time>2021-05-28T10:10:48Z</time>
      </trkpt>
      <trkpt lat="37.6383495424" lon="-7.6656132191">
        <ele>35.23</ele>
        <time>2021-05-28T10:10:49Z</time>
      </trkpt>
      <trkpt lat="37.6382986642" lon="-7.6656959485">
        <ele>34.74</ele>
        <time>2021-05-28T10:10:50Z</time>
      </trkpt>
      <trkpt lat="37.6382638793" lon="-7.6658101100">
        <ele>34.74</ele>
        <time>2021-05-28T10:10:51Z</time>
      </trkpt>
      <trkpt lat="37.6382421702" lon="-7.6659446396">
        <ele>35.71</ele>
        <time>2021-05-28T10:10:52Z</time>
      </trkpt>
      <trkpt lat="37.6382247359" lon="-7.6660906523">
        <ele>35.71</ele>
        <time>2021-05-28T10:10:53Z</time>
      </trkpt>
      <trkpt lat="37.6381741930" lon="-7.6664684247">
        <ele>34.26</ele>
        <time>2021-05-28T10:10:56Z</time>
      </trkpt>
      <trkpt lat="37.6381423417" lon="-7.6665661577">
        <ele>34.26</ele>
        <time>2021-05-28T10:10:57Z</time>
      </trkpt>
      <trkpt lat="37.6380888652" lon="-7.6666446961">
        <ele>34.26</ele>
        <time>2021-05-28T10:10:58Z</time>
      </trkpt>
      <trkpt lat="37.6380123384" lon="-7.6667021122">
        <ele>34.74</ele>
        <time>2021-05-28T10:10:59Z</time>
      </trkpt>
      <trkpt lat="37.6379198022" lon="-7.6667337958">
        <ele>35.71</ele>
        <time>2021-05-28T10:11:00Z</time>
      </trkpt>
      <trkpt lat="37.6378079876" lon="-7.6667436864">
        <ele>35.71</ele>
        <time>2021-05-28T10:11:01Z</time>
      </trkpt>
      <trkpt lat="37.6376811694" lon="-7.6667500567">
        <ele>36.19</ele>
        <time>2021-05-28T10:11:02Z</time>
      </trkpt>
      <trkpt lat="37.6375468075" lon="-7.6667766273">
        <ele>36.67</ele>
        <time>2021-05-28T10:11:03Z</time>
      </trkpt>
      <trkpt lat="37.6374141220" lon="-7.6668114122">
        <ele>37.15</ele>
        <time>2021-05-28T10:11:04Z</time>
      </trkpt>
      <trkpt lat="37.6370156463" lon="-7.6669756137">
        <ele>39.07</ele>
        <time>2021-05-28T10:11:07Z</time>
      </trkpt>
      <trkpt lat="37.6368905045" lon="-7.6670767833">
        <ele>41.47</ele>
        <time>2021-05-28T10:11:08Z</time>
      </trkpt>
      <trkpt lat="37.6367792767" lon="-7.6671989914">
        <ele>41.47</ele>
        <time>2021-05-28T10:11:09Z</time>
      </trkpt>
      <trkpt lat="37.6366874948" lon="-7.6673396397">
        <ele>41.47</ele>
        <time>2021-05-28T10:11:10Z</time>
      </trkpt>
      <trkpt lat="37.6366233733" lon="-7.6674871612">
        <ele>40.99</ele>
        <time>2021-05-28T10:11:11Z</time>
      </trkpt>
      <trkpt lat="37.6365915220" lon="-7.6676430646">
        <ele>41.95</ele>
        <time>2021-05-28T10:11:12Z</time>
      </trkpt>
      <trkpt lat="37.6365936175" lon="-7.6678040810">
        <ele>42.92</ele>
        <time>2021-05-28T10:11:13Z</time>
      </trkpt>
      <trkpt lat="37.6366263069" lon="-7.6679661870">
        <ele>43.88</ele>
        <time>2021-05-28T10:11:14Z</time>
      </trkpt>
      <trkpt lat="37.6366828848" lon="-7.6681260299">
        <ele>45.32</ele>
        <time>2021-05-28T10:11:15Z</time>
      </trkpt>
      <trkpt lat="37.6367420610" lon="-7.6682810951">
        <ele>45.32</ele>
        <time>2021-05-28T10:11:16Z</time>
      </trkpt>
      <trkpt lat="37.6367801987" lon="-7.6684342325">
        <ele>45.32</ele>
        <time>2021-05-28T10:11:17Z</time>
      </trkpt>
      <trkpt lat="37.6367810369" lon="-7.6685839333">
        <ele>45.80</ele>
        <time>2021-05-28T10:11:18Z</time>
      </trkpt>
      <trkpt lat="37.6367384568" lon="-7.6687191334">
        <ele>47.24</ele>
        <time>2021-05-28T10:11:19Z</time>
      </trkpt>
      <trkpt lat="37.6366534643" lon="-7.6688410062">
        <ele>48.20</ele>
        <time>2021-05-28T10:11:20Z</time>
      </trkpt>
      <trkpt lat="37.6365416497" lon="-7.6689605322">
        <ele>50.61</ele>
        <time>2021-05-28T10:11:21Z</time>
      </trkpt>
      <trkpt lat="37.6364126522" lon="-7.6690863445">
        <ele>53.01</ele>
        <time>2021-05-28T10:11:22Z</time>
      </trkpt>
      <trkpt lat="37.6361330319" lon="-7.6693664677">
        <ele>56.86</ele>
        <time>2021-05-28T10:11:24Z</time>
      </trkpt>
      <trkpt lat="37.6356660761" lon="-7.6697766781">
        <ele>59.74</ele>
        <time>2021-05-28T10:11:27Z</time>
      </trkpt>
      <trkpt lat="37.6355003659" lon="-7.6698695496">
        <ele>62.14</ele>
        <time>2021-05-28T10:11:28Z</time>
      </trkpt>
      <trkpt lat="37.6350997947" lon="-7.6700837910">
        <ele>61.18</ele>
        <time>2021-05-28T10:11:31Z</time>
      </trkpt>
      <trkpt lat="37.6350097731" lon="-7.6701812726">
        <ele>61.66</ele>
        <time>2021-05-28T10:11:32Z</time>
      </trkpt>
      <trkpt lat="37.6349371858" lon="-7.6703072526">
        <ele>61.18</ele>
        <time>2021-05-28T10:11:33Z</time>
      </trkpt>
      <trkpt lat="37.6348793507" lon="-7.6704535168">
        <ele>62.62</ele>
        <time>2021-05-28T10:11:34Z</time>
      </trkpt>
      <trkpt lat="37.6348314900" lon="-7.6706107613">
        <ele>64.07</ele>
        <time>2021-05-28T10:11:35Z</time>
      </trkpt>
      <trkpt lat="37.6347975433" lon="-7.6707741246">
        <ele>64.55</ele>
        <time>2021-05-28T10:11:36Z</time>
      </trkpt>
      <trkpt lat="37.6347775944" lon="-7.6709420141">
        <ele>65.51</ele>
        <time>2021-05-28T10:11:37Z</time>
      </trkpt>
      <trkpt lat="37.6347651053" lon="-7.6711125858">
        <ele>66.47</ele>
        <time>2021-05-28T10:11:38Z</time>
      </trkpt>
      <trkpt lat="37.6347653568" lon="-7.6712820679">
        <ele>67.43</ele>
        <time>2021-05-28T10:11:39Z</time>
      </trkpt>
      <trkpt lat="37.6347773429" lon="-7.6714461017">
        <ele>68.39</ele>
        <time>2021-05-28T10:11:40Z</time>
      </trkpt>
      <trkpt lat="37.6347920951" lon="-7.6715947129">
        <ele>68.39</ele>
        <time>2021-05-28T10:11:41Z</time>
      </trkpt>
      <trkpt lat="37.6348004770" lon="-7.6718472596">
        <ele>69.35</ele>
        <time>2021-05-28T10:11:43Z</time>
      </trkpt>
      <trkpt lat="37.6347918436" lon="-7.6719490997">
        <ele>69.35</ele>
        <time>2021-05-28T10:11:44Z</time>
      </trkpt>
      <trkpt lat="37.6347727329" lon="-7.6720349304">
        <ele>69.35</ele>
        <time>2021-05-28T10:11:45Z</time>
      </trkpt>
      <trkpt lat="37.6347401273" lon="-7.6721162349">
        <ele>69.83</ele>
        <time>2021-05-28T10:11:46Z</time>
      </trkpt>
      <trkpt lat="37.6347000618" lon="-7.6721977908">
        <ele>70.31</ele>
        <time>2021-05-28T10:11:47Z</time>
      </trkpt>
      <trkpt lat="37.6346486807" lon="-7.6722856332">
        <ele>70.79</ele>
        <time>2021-05-28T10:11:48Z</time>
      </trkpt>
      <trkpt lat="37.6345893368" lon="-7.6723805163">
        <ele>72.24</ele>
        <time>2021-05-28T10:11:49Z</time>
      </trkpt>
      <trkpt lat="37.6343766879" lon="-7.6727136970">
        <ele>75.12</ele>
        <time>2021-05-28T10:11:52Z</time>
      </trkpt>
      <trkpt lat="37.6341510471" lon="-7.6730946545">
        <ele>77.52</ele>
        <time>2021-05-28T10:11:55Z</time>
      </trkpt>
      <trkpt lat="37.6340926252" lon="-7.6732416730">
        <ele>77.52</ele>
        <time>2021-05-28T10:11:56Z</time>
      </trkpt>
      <trkpt lat="37.6340549905" lon="-7.6734083053">
        <ele>78.00</ele>
        <time>2021-05-28T10:11:57Z</time>
      </trkpt>
      <trkpt lat="37.6340449322" lon="-7.6735891867">
        <ele>78.97</ele>
        <time>2021-05-28T10:11:58Z</time>
      </trkpt>
      <trkpt lat="37.6340651326" lon="-7.6739878301">
        <ele>81.85</ele>
        <time>2021-05-28T10:12:00Z</time>
      </trkpt>
      <trkpt lat="37.6341057848" lon="-7.6744060870">
        <ele>83.29</ele>
        <time>2021-05-28T10:12:02Z</time>
      </trkpt>
      <trkpt lat="37.6341136638" lon="-7.6747674309">
        <ele>83.29</ele>
        <time>2021-05-28T10:12:04Z</time>
      </trkpt>
      <trkpt lat="37.6340880990" lon="-7.6749307103">
        <ele>82.81</ele>
        <time>2021-05-28T10:12:05Z</time>
      </trkpt>
      <trkpt lat="37.6340293419" lon="-7.6750771422">
        <ele>83.29</ele>
        <time>2021-05-28T10:12:06Z</time>
      </trkpt>
      <trkpt lat="37.6339298487" lon="-7.6751929801">
        <ele>84.73</ele>
        <time>2021-05-28T10:12:07Z</time>
      </trkpt>
      <trkpt lat="37.6338073052" lon="-7.6752679143">
        <ele>86.18</ele>
        <time>2021-05-28T10:12:08Z</time>
      </trkpt>
      <trkpt lat="37.6336642262" lon="-7.6753025316">
        <ele>89.06</ele>
        <time>2021-05-28T10:12:09Z</time>
      </trkpt>
      <trkpt lat="37.6335169561" lon="-7.6753035374">
        <ele>90.02</ele>
        <time>2021-05-28T10:12:10Z</time>
      </trkpt>
      <trkpt lat="37.6333810017" lon="-7.6753036212">
        <ele>90.02</ele>
        <time>2021-05-28T10:12:11Z</time>
      </trkpt>
      <trkpt lat="37.6332619786" lon="-7.6753274258">
        <ele>90.98</ele>
        <time>2021-05-28T10:12:12Z</time>
      </trkpt>
      <trkpt lat="37.6331535168" lon="-7.6753906254">
        <ele>91.46</ele>
        <time>2021-05-28T10:12:13Z</time>
      </trkpt>
      <trkpt lat="37.6330610644" lon="-7.6754967403">
        <ele>92.90</ele>
        <time>2021-05-28T10:12:14Z</time>
      </trkpt>
      <trkpt lat="37.6329849567" lon="-7.6756448485">
        <ele>94.35</ele>
        <time>2021-05-28T10:12:15Z</time>
      </trkpt>
      <trkpt lat="37.6329167280" lon="-7.6758226287">
        <ele>96.27</ele>
        <time>2021-05-28T10:12:16Z</time>
      </trkpt>
      <trkpt lat="37.6328505948" lon="-7.6760216150">
        <ele>98.19</ele>
        <time>2021-05-28T10:12:17Z</time>
      </trkpt>
      <trkpt lat="37.6327191666" lon="-7.6764542889">
        <ele>100.60</ele>
        <time>2021-05-28T10:12:19Z</time>
      </trkpt>
      <trkpt lat="37.6325509418" lon="-7.6770892181">
        <ele>101.08</ele>
        <time>2021-05-28T10:12:22Z</time>
      </trkpt>
      <trkpt lat="37.6325351000" lon="-7.6772954967">
        <ele>101.56</ele>
        <time>2021-05-28T10:12:23Z</time>
      </trkpt>
      <trkpt lat="37.6325515285" lon="-7.6774913818">
        <ele>101.56</ele>
        <time>2021-05-28T10:12:24Z</time>
      </trkpt>
      <trkpt lat="37.6325932704" lon="-7.6776782982">
        <ele>102.04</ele>
        <time>2021-05-28T10:12:25Z</time>
      </trkpt>
      <trkpt lat="37.6326362696" lon="-7.6778595150">
        <ele>102.52</ele>
        <time>2021-05-28T10:12:26Z</time>
      </trkpt>
      <trkpt lat="37.6326589845" lon="-7.6780471019">
        <ele>103.00</ele>
        <time>2021-05-28T10:12:27Z</time>
      </trkpt>
      <trkpt lat="37.6326578949" lon="-7.6782403886">
        <ele>104.44</ele>
        <time>2021-05-28T10:12:28Z</time>
      </trkpt>
      <trkpt lat="37.6326364372" lon="-7.6784295682">
        <ele>104.44</ele>
        <time>2021-05-28T10:12:29Z</time>
      </trkpt>
      <trkpt lat="37.6326101180" lon="-7.6786036603">
        <ele>104.44</ele>
        <time>2021-05-28T10:12:30Z</time>
      </trkpt>
      <trkpt lat="37.6325608324" lon="-7.6788973622">
        <ele>103.48</ele>
        <time>2021-05-28T10:12:32Z</time>
      </trkpt>
      <trkpt lat="37.6325127203" lon="-7.6790315565">
        <ele>103.48</ele>
        <time>2021-05-28T10:12:33Z</time>
      </trkpt>
      <trkpt lat="37.6324392948" lon="-7.6791474782">
        <ele>103.96</ele>
        <time>2021-05-28T10:12:34Z</time>
      </trkpt>
      <trkpt lat="37.6323415618" lon="-7.6792345662">
        <ele>103.96</ele>
        <time>2021-05-28T10:12:35Z</time>
      </trkpt>
      <trkpt lat="37.6322228741" lon="-7.6792946644">
        <ele>104.92</ele>
        <time>2021-05-28T10:12:36Z</time>
      </trkpt>
      <trkpt lat="37.6320943795" lon="-7.6793415193">
        <ele>106.36</ele>
        <time>2021-05-28T10:12:37Z</time>
      </trkpt>
      <trkpt lat="37.6318305172" lon="-7.6794545911">
        <ele>109.25</ele>
        <time>2021-05-28T10:12:39Z</time>
      </trkpt>
      <trkpt lat="37.6317015197" lon="-7.6795320399">
        <ele>110.69</ele>
        <time>2021-05-28T10:12:40Z</time>
      </trkpt>
      <trkpt lat="37.6315783057" lon="-7.6796223130">
        <ele>112.61</ele>
        <time>2021-05-28T10:12:41Z</time>
      </trkpt>
      <trkpt lat="37.6314667426" lon="-7.6797150169">
        <ele>112.13</ele>
        <time>2021-05-28T10:12:42Z</time>
      </trkpt>
      <trkpt lat="37.6312815025" lon="-7.6798865944">
        <ele>111.17</ele>
        <time>2021-05-28T10:12:44Z</time>
      </trkpt>
      <trkpt lat="37.6311264373" lon="-7.6800795458">
        <ele>110.69</ele>
        <time>2021-05-28T10:12:46Z</time>
      </trkpt>
      <trkpt lat="37.6310665905" lon="-7.6802008320">
        <ele>111.17</ele>
        <time>2021-05-28T10:12:47Z</time>
      </trkpt>
      <trkpt lat="37.6310231723" lon="-7.6803377923">
        <ele>112.13</ele>
        <time>2021-05-28T10:12:48Z</time>
      </trkpt>
      <trkpt lat="37.6309909858" lon="-7.6804922707">
        <ele>113.57</ele>
        <time>2021-05-28T10:12:49Z</time>
      </trkpt>
      <trkpt lat="37.6309645828" lon="-7.6806652732">
        <ele>115.01</ele>
        <time>2021-05-28T10:12:50Z</time>
      </trkpt>
      <trkpt lat="37.6309384312" lon="-7.6808517706">
        <ele>116.46</ele>
        <time>2021-05-28T10:12:51Z</time>
      </trkpt>
      <trkpt lat="37.6308783330" lon="-7.6812649146">
        <ele>120.30</ele>
        <time>2021-05-28T10:12:53Z</time>
      </trkpt>
      <trkpt lat="37.6307794265" lon="-7.6819316950">
        <ele>124.15</ele>
        <time>2021-05-28T10:12:56Z</time>
      </trkpt>
      <trkpt lat="37.6307484973" lon="-7.6821404044">
        <ele>124.15</ele>
        <time>2021-05-28T10:12:57Z</time>
      </trkpt>
      <trkpt lat="37.6306653488" lon="-7.6827381179">
        <ele>126.55</ele>
        <time>2021-05-28T10:13:00Z</time>
      </trkpt>
      <trkpt lat="37.6305800211" lon="-7.6832707878">
        <ele>129.43</ele>
        <time>2021-05-28T10:13:03Z</time>
      </trkpt>
      <trkpt lat="37.6304918434" lon="-7.6838317886">
        <ele>130.88</ele>
        <time>2021-05-28T10:13:06Z</time>
      </trkpt>
      <trkpt lat="37.6304359362" lon="-7.6840352174">
        <ele>131.36</ele>
        <time>2021-05-28T10:13:07Z</time>
      </trkpt>
      <trkpt lat="37.6303646900" lon="-7.6842397358">
        <ele>131.84</ele>
        <time>2021-05-28T10:13:08Z</time>
      </trkpt>
      <trkpt lat="37.6302858163" lon="-7.6844466012">
        <ele>132.32</ele>
        <time>2021-05-28T10:13:09Z</time>
      </trkpt>
      <trkpt lat="37.6300376281" lon="-7.6850825362">
        <ele>135.68</ele>
        <time>2021-05-28T10:13:12Z</time>
      </trkpt>
      <trkpt lat="37.6297000889" lon="-7.6859544218">
        <ele>139.53</ele>
        <time>2021-05-28T10:13:16Z</time>
      </trkpt>
      <trkpt lat="37.6294191275" lon="-7.6867693104">
        <ele>139.53</ele>
        <time>2021-05-28T10:13:20Z</time>
      </trkpt>
      <trkpt lat="37.6293916348" lon="-7.6869813725">
        <ele>139.05</ele>
        <time>2021-05-28T10:13:21Z</time>
      </trkpt>
      <trkpt lat="37.6293957420" lon="-7.6871889085">
        <ele>138.57</ele>
        <time>2021-05-28T10:13:22Z</time>
      </trkpt>
      <trkpt lat="37.6294346340" lon="-7.6873834524">
        <ele>138.57</ele>
        <time>2021-05-28T10:13:23Z</time>
      </trkpt>
      <trkpt lat="37.6295053773" lon="-7.6875758171">
        <ele>139.05</ele>
        <time>2021-05-28T10:13:24Z</time>
      </trkpt>
      <trkpt lat="37.6295964886" lon="-7.6877695229">
        <ele>139.53</ele>
        <time>2021-05-28T10:13:25Z</time>
      </trkpt>
      <trkpt lat="37.6298404019" lon="-7.6883564238">
        <ele>137.13</ele>
        <time>2021-05-28T10:13:28Z</time>
      </trkpt>
      <trkpt lat="37.6298723370" lon="-7.6885750238">
        <ele>137.61</ele>
        <time>2021-05-28T10:13:29Z</time>
      </trkpt>
      <trkpt lat="37.6298769470" lon="-7.6888111420">
        <ele>138.57</ele>
        <time>2021-05-28T10:13:30Z</time>
      </trkpt>
      <trkpt lat="37.6297408249" lon="-7.6909184363">
        <ele>140.01</ele>
        <time>2021-05-28T10:13:38Z</time>
      </trkpt>
      <trkpt lat="37.6297016814" lon="-7.6914740726">
        <ele>139.05</ele>
        <time>2021-05-28T10:13:40Z</time>
      </trkpt>
      <trkpt lat="37.6295533217" lon="-7.6947161090">
        <ele>136.64</ele>
        <time>2021-05-28T10:13:51Z</time>
      </trkpt>
      <trkpt lat="37.6295486279" lon="-7.6964303758">
        <ele>134.24</ele>
        <time>2021-05-28T10:13:57Z</time>
      </trkpt>
      <trkpt lat="37.6295984164" lon="-7.6967029553">
        <ele>135.68</ele>
        <time>2021-05-28T10:13:58Z</time>
      </trkpt>
      <trkpt lat="37.6296732668" lon="-7.6969767921">
        <ele>136.16</ele>
        <time>2021-05-28T10:13:59Z</time>
      </trkpt>
      <trkpt lat="37.6299506240" lon="-7.6978348475">
        <ele>140.97</ele>
        <time>2021-05-28T10:14:02Z</time>
      </trkpt>
      <trkpt lat="37.6301449165" lon="-7.6984270290">
        <ele>144.34</ele>
        <time>2021-05-28T10:14:04Z</time>
      </trkpt>
      <trkpt lat="37.6302408893" lon="-7.6987166237">
        <ele>144.34</ele>
        <time>2021-05-28T10:14:05Z</time>
      </trkpt>
      <trkpt lat="37.6306200027" lon="-7.6998715661">
        <ele>147.70</ele>
        <time>2021-05-28T10:14:09Z</time>
      </trkpt>
      <trkpt lat="37.6308183186" lon="-7.7004614845">
        <ele>149.14</ele>
        <time>2021-05-28T10:14:11Z</time>
      </trkpt>
      <trkpt lat="37.6316327881" lon="-7.7029110957">
        <ele>146.74</ele>
        <time>2021-05-28T10:14:20Z</time>
      </trkpt>
      <trkpt lat="37.6317266654" lon="-7.7033937257">
        <ele>144.34</ele>
        <time>2021-05-28T10:14:22Z</time>
      </trkpt>
      <trkpt lat="37.6317376457" lon="-7.7036368847">
        <ele>142.89</ele>
        <time>2021-05-28T10:14:23Z</time>
      </trkpt>
      <trkpt lat="37.6317251567" lon="-7.7038827259">
        <ele>142.89</ele>
        <time>2021-05-28T10:14:24Z</time>
      </trkpt>
      <trkpt lat="37.6315432694" lon="-7.7054990083">
        <ele>141.45</ele>
        <time>2021-05-28T10:14:30Z</time>
      </trkpt>
      <trkpt lat="37.6314784773" lon="-7.7062948700">
        <ele>139.05</ele>
        <time>2021-05-28T10:14:33Z</time>
      </trkpt>
      <trkpt lat="37.6314851828" lon="-7.7065481711">
        <ele>140.01</ele>
        <time>2021-05-28T10:14:34Z</time>
      </trkpt>
      <trkpt lat="37.6315472927" lon="-7.7075331286">
        <ele>139.05</ele>
        <time>2021-05-28T10:14:38Z</time>
      </trkpt>
      <trkpt lat="37.6315290201" lon="-7.7077884413">
        <ele>138.57</ele>
        <time>2021-05-28T10:14:39Z</time>
      </trkpt>
      <trkpt lat="37.6314862724" lon="-7.7080553211">
        <ele>139.05</ele>
        <time>2021-05-28T10:14:40Z</time>
      </trkpt>
      <trkpt lat="37.6312001143" lon="-7.7094016224">
        <ele>137.61</ele>
        <time>2021-05-28T10:14:45Z</time>
      </trkpt>
      <trkpt lat="37.6310884673" lon="-7.7099190373">
        <ele>135.68</ele>
        <time>2021-05-28T10:14:47Z</time>
      </trkpt>
      <trkpt lat="37.6308046561" lon="-7.7112381812">
        <ele>137.13</ele>
        <time>2021-05-28T10:14:52Z</time>
      </trkpt>
      <trkpt lat="37.6304367743" lon="-7.7129702177">
        <ele>140.97</ele>
        <time>2021-05-28T10:14:58Z</time>
      </trkpt>
      <trkpt lat="37.6303715631" lon="-7.7132681105">
        <ele>140.97</ele>
        <time>2021-05-28T10:14:59Z</time>
      </trkpt>
      <trkpt lat="37.6301098801" lon="-7.7144741826">
        <ele>142.89</ele>
        <time>2021-05-28T10:15:03Z</time>
      </trkpt>
      <trkpt lat="37.6299145818" lon="-7.7153793443">
        <ele>144.82</ele>
        <time>2021-05-28T10:15:06Z</time>
      </trkpt>
      <trkpt lat="37.6296062954" lon="-7.7168491110">
        <ele>146.74</ele>
        <time>2021-05-28T10:15:11Z</time>
      </trkpt>
      <trkpt lat="37.6294136792" lon="-7.7177488245">
        <ele>150.10</ele>
        <time>2021-05-28T10:15:14Z</time>
      </trkpt>
      <trkpt lat="37.6293480489" lon="-7.7180490643">
        <ele>149.62</ele>
        <time>2021-05-28T10:15:15Z</time>
      </trkpt>
      <trkpt lat="37.6288954262" lon="-7.7198978607">
        <ele>151.06</ele>
        <time>2021-05-28T10:15:22Z</time>
      </trkpt>
      <trkpt lat="37.6277713291" lon="-7.7227555867">
        <ele>149.14</ele>
        <time>2021-05-28T10:15:33Z</time>
      </trkpt>
      <trkpt lat="37.6274806447" lon="-7.7234956250">
        <ele>144.34</ele>
        <time>2021-05-28T10:15:36Z</time>
      </trkpt>
      <trkpt lat="37.6273260824" lon="-7.7239548694">
        <ele>143.85</ele>
        <time>2021-05-28T10:15:38Z</time>
      </trkpt>
      <trkpt lat="37.6272734441" lon="-7.7241950110">
        <ele>143.85</ele>
        <time>2021-05-28T10:15:39Z</time>
      </trkpt>
      <trkpt lat="37.6271588635" lon="-7.7248455305">
        <ele>140.49</ele>
        <time>2021-05-28T10:15:42Z</time>
      </trkpt>
      <trkpt lat="37.6271023694" lon="-7.7250121627">
        <ele>140.01</ele>
        <time>2021-05-28T10:15:43Z</time>
      </trkpt>
      <trkpt lat="37.6270217355" lon="-7.7251575887">
        <ele>139.05</ele>
        <time>2021-05-28T10:15:44Z</time>
      </trkpt>
      <trkpt lat="37.6269105915" lon="-7.7252831496">
        <ele>139.53</ele>
        <time>2021-05-28T10:15:45Z</time>
      </trkpt>
      <trkpt lat="37.6267750561" lon="-7.7253908571">
        <ele>139.05</ele>
        <time>2021-05-28T10:15:46Z</time>
      </trkpt>
      <trkpt lat="37.6266170572" lon="-7.7254853211">
        <ele>140.97</ele>
        <time>2021-05-28T10:15:47Z</time>
      </trkpt>
      <trkpt lat="37.6264391933" lon="-7.7255794499">
        <ele>141.45</ele>
        <time>2021-05-28T10:15:48Z</time>
      </trkpt>
      <trkpt lat="37.6258693077" lon="-7.7258830424">
        <ele>139.05</ele>
        <time>2021-05-28T10:15:51Z</time>
      </trkpt>
      <trkpt lat="37.6247933228" lon="-7.7264609747">
        <ele>135.68</ele>
        <time>2021-05-28T10:15:56Z</time>
      </trkpt>
      <trkpt lat="37.6241640933" lon="-7.7268015314">
        <ele>132.80</ele>
        <time>2021-05-28T10:15:59Z</time>
      </trkpt>
      <trkpt lat="37.6238028333" lon="-7.7270237356">
        <ele>130.40</ele>
        <time>2021-05-28T10:16:01Z</time>
      </trkpt>
      <trkpt lat="37.6236514561" lon="-7.7271569241">
        <ele>130.88</ele>
        <time>2021-05-28T10:16:02Z</time>
      </trkpt>
      <trkpt lat="37.6235115621" lon="-7.7273105644">
        <ele>132.32</ele>
        <time>2021-05-28T10:16:03Z</time>
      </trkpt>
      <trkpt lat="37.6233821455" lon="-7.7274857461">
        <ele>133.28</ele>
        <time>2021-05-28T10:16:04Z</time>
      </trkpt>
      <trkpt lat="37.6232684869" lon="-7.7276800387">
        <ele>133.76</ele>
        <time>2021-05-28T10:16:05Z</time>
      </trkpt>
      <trkpt lat="37.6231737714" lon="-7.7278899215">
        <ele>135.68</ele>
        <time>2021-05-28T10:16:06Z</time>
      </trkpt>
      <trkpt lat="37.6230963226" lon="-7.7281153109">
        <ele>136.64</ele>
        <time>2021-05-28T10:16:07Z</time>
      </trkpt>
      <trkpt lat="37.6230340451" lon="-7.7283567935">
        <ele>138.09</ele>
        <time>2021-05-28T10:16:08Z</time>
      </trkpt>
      <trkpt lat="37.6229881123" lon="-7.7286110166">
        <ele>139.05</ele>
        <time>2021-05-28T10:16:09Z</time>
      </trkpt>
      <trkpt lat="37.6229506452" lon="-7.7288767230">
        <ele>140.97</ele>
        <time>2021-05-28T10:16:10Z</time>
      </trkpt>
      <trkpt lat="37.6228654012" lon="-7.7294259053">
        <ele>145.30</ele>
        <time>2021-05-28T10:16:12Z</time>
      </trkpt>
      <trkpt lat="37.6227723621" lon="-7.7300009038">
        <ele>146.74</ele>
        <time>2021-05-28T10:16:14Z</time>
      </trkpt>
      <trkpt lat="37.6223518420" lon="-7.7326332405">
        <ele>150.58</ele>
        <time>2021-05-28T10:16:23Z</time>
      </trkpt>
      <trkpt lat="37.6223058254" lon="-7.7329371683">
        <ele>153.47</ele>
        <time>2021-05-28T10:16:24Z</time>
      </trkpt>
      <trkpt lat="37.6222079247" lon="-7.7335524838">
        <ele>154.43</ele>
        <time>2021-05-28T10:16:26Z</time>
      </trkpt>
      <trkpt lat="37.6219594851" lon="-7.7350910660">
        <ele>158.75</ele>
        <time>2021-05-28T10:16:31Z</time>
      </trkpt>
      <trkpt lat="37.6216534618" lon="-7.7370763198">
        <ele>159.24</ele>
        <time>2021-05-28T10:16:38Z</time>
      </trkpt>
      <trkpt lat="37.6216747519" lon="-7.7386012394">
        <ele>161.16</ele>
        <time>2021-05-28T10:16:44Z</time>
      </trkpt>
      <trkpt lat="37.6217418071" lon="-7.7396518271">
        <ele>157.31</ele>
        <time>2021-05-28T10:16:48Z</time>
      </trkpt>
      <trkpt lat="37.6217382029" lon="-7.7401211299">
        <ele>155.87</ele>
        <time>2021-05-28T10:16:50Z</time>
      </trkpt>
      <trkpt lat="37.6216995623" lon="-7.7403495368">
        <ele>155.39</ele>
        <time>2021-05-28T10:16:51Z</time>
      </trkpt>
      <trkpt lat="37.6216310821" lon="-7.7405857388">
        <ele>155.39</ele>
        <time>2021-05-28T10:16:52Z</time>
      </trkpt>
      <trkpt lat="37.6213519648" lon="-7.7413453907">
        <ele>158.75</ele>
        <time>2021-05-28T10:16:55Z</time>
      </trkpt>
      <trkpt lat="37.6211613603" lon="-7.7418711875">
        <ele>161.16</ele>
        <time>2021-05-28T10:16:57Z</time>
      </trkpt>
      <trkpt lat="37.6206643973" lon="-7.7430387866">
        <ele>157.79</ele>
        <time>2021-05-28T10:17:02Z</time>
      </trkpt>
      <trkpt lat="37.6201147120" lon="-7.7440381609">
        <ele>155.39</ele>
        <time>2021-05-28T10:17:06Z</time>
      </trkpt>
      <trkpt lat="37.6195521187" lon="-7.7450443245">
        <ele>159.72</ele>
        <time>2021-05-28T10:17:10Z</time>
      </trkpt>
      <trkpt lat="37.6192704029" lon="-7.7455550339">
        <ele>161.16</ele>
        <time>2021-05-28T10:17:12Z</time>
      </trkpt>
      <trkpt lat="37.6188649703" lon="-7.7462993469">
        <ele>164.04</ele>
        <time>2021-05-28T10:17:15Z</time>
      </trkpt>
      <trkpt lat="37.6187363919" lon="-7.7465321124">
        <ele>163.08</ele>
        <time>2021-05-28T10:17:16Z</time>
      </trkpt>
      <trkpt lat="37.6182112657" lon="-7.7475784253">
        <ele>162.12</ele>
        <time>2021-05-28T10:17:21Z</time>
      </trkpt>
      <trkpt lat="37.6181491558" lon="-7.7478063293">
        <ele>163.56</ele>
        <time>2021-05-28T10:17:22Z</time>
      </trkpt>
      <trkpt lat="37.6181049831" lon="-7.7480543498">
        <ele>164.04</ele>
        <time>2021-05-28T10:17:23Z</time>
      </trkpt>
      <trkpt lat="37.6178375166" lon="-7.7504963335">
        <ele>165.00</ele>
        <time>2021-05-28T10:17:32Z</time>
      </trkpt>
      <trkpt lat="37.6177842077" lon="-7.7514781896">
        <ele>167.89</ele>
        <time>2021-05-28T10:17:36Z</time>
      </trkpt>
      <trkpt lat="37.6178057492" lon="-7.7517263778">
        <ele>168.85</ele>
        <time>2021-05-28T10:17:37Z</time>
      </trkpt>
      <trkpt lat="37.6178886462" lon="-7.7531163488">
        <ele>169.81</ele>
        <time>2021-05-28T10:17:43Z</time>
      </trkpt>
      <trkpt lat="37.6178521849" lon="-7.7532894351">
        <ele>170.29</ele>
        <time>2021-05-28T10:17:44Z</time>
      </trkpt>
      <trkpt lat="37.6177802682" lon="-7.7534420695">
        <ele>170.77</ele>
        <time>2021-05-28T10:17:45Z</time>
      </trkpt>
      <trkpt lat="37.6176722255" lon="-7.7535696421">
        <ele>172.21</ele>
        <time>2021-05-28T10:17:46Z</time>
      </trkpt>
      <trkpt lat="37.6175381150" lon="-7.7536793612">
        <ele>173.66</ele>
        <time>2021-05-28T10:17:47Z</time>
      </trkpt>
      <trkpt lat="37.6173910964" lon="-7.7537806146">
        <ele>174.14</ele>
        <time>2021-05-28T10:17:48Z</time>
      </trkpt>
      <trkpt lat="37.6171295810" lon="-7.7540046629">
        <ele>175.58</ele>
        <time>2021-05-28T10:17:50Z</time>
      </trkpt>
      <trkpt lat="37.6170336921" lon="-7.7541444730">
        <ele>176.06</ele>
        <time>2021-05-28T10:17:51Z</time>
      </trkpt>
      <trkpt lat="37.6169728395" lon="-7.7543053217">
        <ele>176.54</ele>
        <time>2021-05-28T10:17:52Z</time>
      </trkpt>
      <trkpt lat="37.6169485319" lon="-7.7544835210">
        <ele>177.02</ele>
        <time>2021-05-28T10:17:53Z</time>
      </trkpt>
      <trkpt lat="37.6169586740" lon="-7.7546729520">
        <ele>178.94</ele>
        <time>2021-05-28T10:17:54Z</time>
      </trkpt>
      <trkpt lat="37.6169949677" lon="-7.7548726927">
        <ele>180.38</ele>
        <time>2021-05-28T10:17:55Z</time>
      </trkpt>
      <trkpt lat="37.6170418225" lon="-7.7550921310">
        <ele>181.83</ele>
        <time>2021-05-28T10:17:56Z</time>
      </trkpt>
      <trkpt lat="37.6171287429" lon="-7.7555776946">
        <ele>185.19</ele>
        <time>2021-05-28T10:17:58Z</time>
      </trkpt>
      <trkpt lat="37.6172518730" lon="-7.7565929107">
        <ele>185.67</ele>
        <time>2021-05-28T10:18:02Z</time>
      </trkpt>
      <trkpt lat="37.6172943693" lon="-7.7582824510">
        <ele>182.79</ele>
        <time>2021-05-28T10:18:08Z</time>
      </trkpt>
      <trkpt lat="37.6172839757" lon="-7.7592170332">
        <ele>177.98</ele>
        <time>2021-05-28T10:18:11Z</time>
      </trkpt>
      <trkpt lat="37.6172771864" lon="-7.7598614339">
        <ele>174.14</ele>
        <time>2021-05-28T10:18:13Z</time>
      </trkpt>
      <trkpt lat="37.6172704808" lon="-7.7605052479">
        <ele>170.29</ele>
        <time>2021-05-28T10:18:15Z</time>
      </trkpt>
      <trkpt lat="37.6172640268" lon="-7.7611523308">
        <ele>166.45</ele>
        <time>2021-05-28T10:18:17Z</time>
      </trkpt>
      <trkpt lat="37.6172481850" lon="-7.7624130528">
        <ele>165.96</ele>
        <time>2021-05-28T10:18:21Z</time>
      </trkpt>
      <trkpt lat="37.6172310021" lon="-7.7642085403">
        <ele>167.41</ele>
        <time>2021-05-28T10:18:27Z</time>
      </trkpt>
      <trkpt lat="37.6172240451" lon="-7.7648013923">
        <ele>170.77</ele>
        <time>2021-05-28T10:18:29Z</time>
      </trkpt>
      <trkpt lat="37.6172219496" lon="-7.7650857065">
        <ele>171.25</ele>
        <time>2021-05-28T10:18:30Z</time>
      </trkpt>
      <trkpt lat="37.6172193512" lon="-7.7656258363">
        <ele>172.69</ele>
        <time>2021-05-28T10:18:32Z</time>
      </trkpt>
      <trkpt lat="37.6172121428" lon="-7.7666571457">
        <ele>176.06</ele>
        <time>2021-05-28T10:18:36Z</time>
      </trkpt>
      <trkpt lat="37.6172361150" lon="-7.7671977784">
        <ele>174.14</ele>
        <time>2021-05-28T10:18:38Z</time>
      </trkpt>
      <trkpt lat="37.6172746718" lon="-7.7674763091">
        <ele>174.62</ele>
        <time>2021-05-28T10:18:39Z</time>
      </trkpt>
      <trkpt lat="37.6173789427" lon="-7.7680238150">
        <ele>176.06</ele>
        <time>2021-05-28T10:18:41Z</time>
      </trkpt>
      <trkpt lat="37.6178150531" lon="-7.7703104820">
        <ele>175.10</ele>
        <time>2021-05-28T10:18:50Z</time>
      </trkpt>
      <trkpt lat="37.6180259418" lon="-7.7714272030">
        <ele>171.73</ele>
        <time>2021-05-28T10:18:54Z</time>
      </trkpt>
      <trkpt lat="37.6182489004" lon="-7.7725217119">
        <ele>169.81</ele>
        <time>2021-05-28T10:18:58Z</time>
      </trkpt>
      <trkpt lat="37.6183540095" lon="-7.7730440721">
        <ele>167.89</ele>
        <time>2021-05-28T10:19:00Z</time>
      </trkpt>
      <trkpt lat="37.6185379084" lon="-7.7739819232">
        <ele>164.52</ele>
        <time>2021-05-28T10:19:04Z</time>
      </trkpt>
      <trkpt lat="37.6185752079" lon="-7.7743925527">
        <ele>162.60</ele>
        <time>2021-05-28T10:19:06Z</time>
      </trkpt>
      <trkpt lat="37.6185587794" lon="-7.7746052854">
        <ele>164.04</ele>
        <time>2021-05-28T10:19:07Z</time>
      </trkpt>
      <trkpt lat="37.6185189653" lon="-7.7748274896">
        <ele>164.04</ele>
        <time>2021-05-28T10:19:08Z</time>
      </trkpt>
      <trkpt lat="37.6182048954" lon="-7.7761345636">
        <ele>165.96</ele>
        <time>2021-05-28T10:19:14Z</time>
      </trkpt>
      <trkpt lat="37.6181205735" lon="-7.7763088234">
        <ele>166.45</ele>
        <time>2021-05-28T10:19:15Z</time>
      </trkpt>
      <trkpt lat="37.6180114411" lon="-7.7764705941">
        <ele>165.48</ele>
        <time>2021-05-28T10:19:16Z</time>
      </trkpt>
      <trkpt lat="37.6178794261" lon="-7.7766195405">
        <ele>166.45</ele>
        <time>2021-05-28T10:19:17Z</time>
      </trkpt>
      <trkpt lat="37.6177255344" lon="-7.7767638769">
        <ele>168.85</ele>
        <time>2021-05-28T10:19:18Z</time>
      </trkpt>
      <trkpt lat="37.6175585669" lon="-7.7769103087">
        <ele>169.81</ele>
        <time>2021-05-28T10:19:19Z</time>
      </trkpt>
      <trkpt lat="37.6173877437" lon="-7.7770556509">
        <ele>169.81</ele>
        <time>2021-05-28T10:19:20Z</time>
      </trkpt>
      <trkpt lat="37.6162973419" lon="-7.7780348249">
        <ele>169.33</ele>
        <time>2021-05-28T10:19:27Z</time>
      </trkpt>
      <trkpt lat="37.6162031293" lon="-7.7781938296">
        <ele>167.41</ele>
        <time>2021-05-28T10:19:28Z</time>
      </trkpt>
      <trkpt lat="37.6161375828" lon="-7.7783792373">
        <ele>166.45</ele>
        <time>2021-05-28T10:19:29Z</time>
      </trkpt>
      <trkpt lat="37.6161016244" lon="-7.7785917185">
        <ele>166.93</ele>
        <time>2021-05-28T10:19:30Z</time>
      </trkpt>
      <trkpt lat="37.6160894707" lon="-7.7788265795">
        <ele>167.89</ele>
        <time>2021-05-28T10:19:31Z</time>
      </trkpt>
      <trkpt lat="37.6160905603" lon="-7.7790758573">
        <ele>171.25</ele>
        <time>2021-05-28T10:19:32Z</time>
      </trkpt>
      <trkpt lat="37.6161113475" lon="-7.7804369107">
        <ele>167.89</ele>
        <time>2021-05-28T10:19:37Z</time>
      </trkpt>
      <trkpt lat="37.6161447912" lon="-7.7821681928">
        <ele>164.04</ele>
        <time>2021-05-28T10:19:43Z</time>
      </trkpt>
      <trkpt lat="37.6161275245" lon="-7.7826879546">
        <ele>163.56</ele>
        <time>2021-05-28T10:19:45Z</time>
      </trkpt>
      <trkpt lat="37.6160889678" lon="-7.7829503920">
        <ele>164.52</ele>
        <time>2021-05-28T10:19:46Z</time>
      </trkpt>
      <trkpt lat="37.6160289533" lon="-7.7832196187">
        <ele>166.93</ele>
        <time>2021-05-28T10:19:47Z</time>
      </trkpt>
      <trkpt lat="37.6158808451" lon="-7.7837916836">
        <ele>168.37</ele>
        <time>2021-05-28T10:19:49Z</time>
      </trkpt>
      <trkpt lat="37.6153176650" lon="-7.7859296557">
        <ele>167.89</ele>
        <time>2021-05-28T10:19:57Z</time>
      </trkpt>
      <trkpt lat="37.6152192615" lon="-7.7863132954">
        <ele>166.45</ele>
        <time>2021-05-28T10:19:59Z</time>
      </trkpt>
      <trkpt lat="37.6150931139" lon="-7.7866802551">
        <ele>168.37</ele>
        <time>2021-05-28T10:20:01Z</time>
      </trkpt>
      <trkpt lat="37.6149932854" lon="-7.7868525870">
        <ele>169.33</ele>
        <time>2021-05-28T10:20:02Z</time>
      </trkpt>
      <trkpt lat="37.6148718316" lon="-7.7870170400">
        <ele>169.81</ele>
        <time>2021-05-28T10:20:03Z</time>
      </trkpt>
      <trkpt lat="37.6144112460" lon="-7.7876005881">
        <ele>165.00</ele>
        <time>2021-05-28T10:20:07Z</time>
      </trkpt>
      <trkpt lat="37.6143058855" lon="-7.7877290826">
        <ele>165.00</ele>
        <time>2021-05-28T10:20:08Z</time>
      </trkpt>
      <trkpt lat="37.6142042130" lon="-7.7878506202">
        <ele>161.16</ele>
        <time>2021-05-28T10:20:09Z</time>
      </trkpt>
      <trkpt lat="37.6137226727" lon="-7.7884532791">
        <ele>158.27</ele>
        <time>2021-05-28T10:20:14Z</time>
      </trkpt>
      <trkpt lat="37.6133309025" lon="-7.7889427822">
        <ele>154.91</ele>
        <time>2021-05-28T10:20:18Z</time>
      </trkpt>
      <trkpt lat="37.6130767632" lon="-7.7892861050">
        <ele>153.47</ele>
        <time>2021-05-28T10:20:21Z</time>
      </trkpt>
      <trkpt lat="37.6125683170" lon="-7.7903174981">
        <ele>154.91</ele>
        <time>2021-05-28T10:20:29Z</time>
      </trkpt>
      <trkpt lat="37.6123460289" lon="-7.7907945961">
        <ele>153.95</ele>
        <time>2021-05-28T10:20:33Z</time>
      </trkpt>
      <trkpt lat="37.6120963320" lon="-7.7913137712">
        <ele>157.31</ele>
        <time>2021-05-28T10:20:37Z</time>
      </trkpt>
      <trkpt lat="37.6120261755" lon="-7.7914604545">
        <ele>157.31</ele>
        <time>2021-05-28T10:20:38Z</time>
      </trkpt>
      <trkpt lat="37.6112137176" lon="-7.7932147868">
        <ele>160.68</ele>
        <time>2021-05-28T10:20:49Z</time>
      </trkpt>
      <trkpt lat="37.6106238831" lon="-7.7945274767">
        <ele>160.20</ele>
        <time>2021-05-28T10:20:57Z</time>
      </trkpt>
      <trkpt lat="37.6105744299" lon="-7.7947091125">
        <ele>160.68</ele>
        <time>2021-05-28T10:20:58Z</time>
      </trkpt>
      <trkpt lat="37.6105340291" lon="-7.7948975377">
        <ele>161.64</ele>
        <time>2021-05-28T10:20:59Z</time>
      </trkpt>
      <trkpt lat="37.6105012558" lon="-7.7950914111">
        <ele>161.64</ele>
        <time>2021-05-28T10:21:00Z</time>
      </trkpt>
      <trkpt lat="37.6104129944" lon="-7.7958950680">
        <ele>164.52</ele>
        <time>2021-05-28T10:21:04Z</time>
      </trkpt>
      <trkpt lat="37.6103532314" lon="-7.7964623552">
        <ele>166.45</ele>
        <time>2021-05-28T10:21:07Z</time>
      </trkpt>
      <trkpt lat="37.6103130821" lon="-7.7966414765">
        <ele>167.89</ele>
        <time>2021-05-28T10:21:08Z</time>
      </trkpt>
      <trkpt lat="37.6102565043" lon="-7.7968154848">
        <ele>168.85</ele>
        <time>2021-05-28T10:21:09Z</time>
      </trkpt>
      <trkpt lat="37.6101788040" lon="-7.7969752438">
        <ele>169.33</ele>
        <time>2021-05-28T10:21:10Z</time>
      </trkpt>
      <trkpt lat="37.6100798137" lon="-7.7971272916">
        <ele>170.29</ele>
        <time>2021-05-28T10:21:11Z</time>
      </trkpt>
      <trkpt lat="37.6099642273" lon="-7.7972683590">
        <ele>171.25</ele>
        <time>2021-05-28T10:21:12Z</time>
      </trkpt>
      <trkpt lat="37.6098425221" lon="-7.7974043973">
        <ele>172.69</ele>
        <time>2021-05-28T10:21:13Z</time>
      </trkpt>
      <trkpt lat="37.6094561163" lon="-7.7978481352">
        <ele>175.58</ele>
        <time>2021-05-28T10:21:16Z</time>
      </trkpt>
      <trkpt lat="37.6087292377" lon="-7.7986910194">
        <ele>177.98</ele>
        <time>2021-05-28T10:21:21Z</time>
      </trkpt>
      <trkpt lat="37.6082086377" lon="-7.7993593924">
        <ele>175.58</ele>
        <time>2021-05-28T10:21:25Z</time>
      </trkpt>
      <trkpt lat="37.6081102341" lon="-7.7995520085">
        <ele>175.58</ele>
        <time>2021-05-28T10:21:26Z</time>
      </trkpt>
      <trkpt lat="37.6080292650" lon="-7.7997673396">
        <ele>174.62</ele>
        <time>2021-05-28T10:21:27Z</time>
      </trkpt>
      <trkpt lat="37.6079639699" lon="-7.8000027873">
        <ele>174.62</ele>
        <time>2021-05-28T10:21:28Z</time>
      </trkpt>
      <trkpt lat="37.6079083979" lon="-7.8002526518">
        <ele>175.10</ele>
        <time>2021-05-28T10:21:29Z</time>
      </trkpt>
      <trkpt lat="37.6077652350" lon="-7.8009947855">
        <ele>171.25</ele>
        <time>2021-05-28T10:21:32Z</time>
      </trkpt>
      <trkpt lat="37.6076805778" lon="-7.8014227655">
        <ele>170.29</ele>
        <time>2021-05-28T10:21:34Z</time>
      </trkpt>
      <trkpt lat="37.6075354032" lon="-7.8019434493">
        <ele>169.33</ele>
        <time>2021-05-28T10:21:37Z</time>
      </trkpt>
      <trkpt lat="37.6074476447" lon="-7.8020659089">
        <ele>168.85</ele>
        <time>2021-05-28T10:21:38Z</time>
      </trkpt>
      <trkpt lat="37.6073367521" lon="-7.8021572717">
        <ele>169.33</ele>
        <time>2021-05-28T10:21:39Z</time>
      </trkpt>
      <trkpt lat="37.6072132867" lon="-7.8022135142">
        <ele>170.77</ele>
        <time>2021-05-28T10:21:40Z</time>
      </trkpt>
      <trkpt lat="37.6070723869" lon="-7.8022301104">
        <ele>171.25</ele>
        <time>2021-05-28T10:21:41Z</time>
      </trkpt>
      <trkpt lat="37.6069163997" lon="-7.8022206388">
        <ele>172.21</ele>
        <time>2021-05-28T10:21:42Z</time>
      </trkpt>
      <trkpt lat="37.6066241227" lon="-7.8022177052">
        <ele>171.25</ele>
        <time>2021-05-28T10:21:44Z</time>
      </trkpt>
      <trkpt lat="37.6064984780" lon="-7.8022499755">
        <ele>170.77</ele>
        <time>2021-05-28T10:21:45Z</time>
      </trkpt>
      <trkpt lat="37.6063901838" lon="-7.8023275081">
        <ele>169.81</ele>
        <time>2021-05-28T10:21:46Z</time>
      </trkpt>
      <trkpt lat="37.6063034311" lon="-7.8024513088">
        <ele>169.33</ele>
        <time>2021-05-28T10:21:47Z</time>
      </trkpt>
      <trkpt lat="37.6062445063" lon="-7.8026109003">
        <ele>168.85</ele>
        <time>2021-05-28T10:21:48Z</time>
      </trkpt>
      <trkpt lat="37.6062203664" lon="-7.8027995769">
        <ele>169.33</ele>
        <time>2021-05-28T10:21:49Z</time>
      </trkpt>
      <trkpt lat="37.6062166784" lon="-7.8030033410">
        <ele>169.33</ele>
        <time>2021-05-28T10:21:50Z</time>
      </trkpt>
      <trkpt lat="37.6062081289" lon="-7.8032181691">
        <ele>168.37</ele>
        <time>2021-05-28T10:21:51Z</time>
      </trkpt>
      <trkpt lat="37.6061750203" lon="-7.8034454864">
        <ele>169.81</ele>
        <time>2021-05-28T10:21:52Z</time>
      </trkpt>
      <trkpt lat="37.6061093900" lon="-7.8036813531">
        <ele>168.37</ele>
        <time>2021-05-28T10:21:53Z</time>
      </trkpt>
      <trkpt lat="37.6060101483" lon="-7.8039090056">
        <ele>167.41</ele>
        <time>2021-05-28T10:21:54Z</time>
      </trkpt>
      <trkpt lat="37.6058901194" lon="-7.8041191399">
        <ele>165.96</ele>
        <time>2021-05-28T10:21:55Z</time>
      </trkpt>
      <trkpt lat="37.6057585236" lon="-7.8043190483">
        <ele>166.45</ele>
        <time>2021-05-28T10:21:56Z</time>
      </trkpt>
      <trkpt lat="37.6051606424" lon="-7.8051655367">
        <ele>170.77</ele>
        <time>2021-05-28T10:22:00Z</time>
      </trkpt>
      <trkpt lat="37.6050012186" lon="-7.8053902555">
        <ele>170.29</ele>
        <time>2021-05-28T10:22:01Z</time>
      </trkpt>
      <trkpt lat="37.6036870200" lon="-7.8073149081">
        <ele>170.29</ele>
        <time>2021-05-28T10:22:10Z</time>
      </trkpt>
      <trkpt lat="37.6035982557" lon="-7.8075161576">
        <ele>169.81</ele>
        <time>2021-05-28T10:22:11Z</time>
      </trkpt>
      <trkpt lat="37.6035377383" lon="-7.8077353444">
        <ele>172.21</ele>
        <time>2021-05-28T10:22:12Z</time>
      </trkpt>
      <trkpt lat="37.6034957450" lon="-7.8079752345">
        <ele>173.66</ele>
        <time>2021-05-28T10:22:13Z</time>
      </trkpt>
      <trkpt lat="37.6034641452" lon="-7.8082348220">
        <ele>175.58</ele>
        <time>2021-05-28T10:22:14Z</time>
      </trkpt>
      <trkpt lat="37.6033950783" lon="-7.8087836690">
        <ele>180.38</ele>
        <time>2021-05-28T10:22:16Z</time>
      </trkpt>
      <trkpt lat="37.6033236645" lon="-7.8093475197">
        <ele>183.75</ele>
        <time>2021-05-28T10:22:18Z</time>
      </trkpt>
      <trkpt lat="37.6031522546" lon="-7.8106523305">
        <ele>188.08</ele>
        <time>2021-05-28T10:22:23Z</time>
      </trkpt>
      <trkpt lat="37.6031107642" lon="-7.8108856827">
        <ele>187.11</ele>
        <time>2021-05-28T10:22:24Z</time>
      </trkpt>
      <trkpt lat="37.6030483190" lon="-7.8111171070">
        <ele>186.63</ele>
        <time>2021-05-28T10:22:25Z</time>
      </trkpt>
      <trkpt lat="37.6029556151" lon="-7.8113424964">
        <ele>188.56</ele>
        <time>2021-05-28T10:22:26Z</time>
      </trkpt>
      <trkpt lat="37.6028369274" lon="-7.8115636110">
        <ele>188.08</ele>
        <time>2021-05-28T10:22:27Z</time>
      </trkpt>
      <trkpt lat="37.6025655214" lon="-7.8120210953">
        <ele>191.44</ele>
        <time>2021-05-28T10:22:29Z</time>
      </trkpt>
      <trkpt lat="37.6021512877" lon="-7.8127209004">
        <ele>188.08</ele>
        <time>2021-05-28T10:22:32Z</time>
      </trkpt>
      <trkpt lat="37.6011667494" lon="-7.8143686149">
        <ele>184.23</ele>
        <time>2021-05-28T10:22:39Z</time>
      </trkpt>
      <trkpt lat="37.6009306312" lon="-7.8148167115">
        <ele>182.79</ele>
        <time>2021-05-28T10:22:41Z</time>
      </trkpt>
      <trkpt lat="37.6008350775" lon="-7.8150632232">
        <ele>186.15</ele>
        <time>2021-05-28T10:22:42Z</time>
      </trkpt>
      <trkpt lat="37.6006670203" lon="-7.8155909479">
        <ele>190.00</ele>
        <time>2021-05-28T10:22:44Z</time>
      </trkpt>
      <trkpt lat="37.6005010586" lon="-7.8161383700">
        <ele>193.36</ele>
        <time>2021-05-28T10:22:46Z</time>
      </trkpt>
      <trkpt lat="37.6002055965" lon="-7.8171607107">
        <ele>196.25</ele>
        <time>2021-05-28T10:22:50Z</time>
      </trkpt>
      <trkpt lat="37.6000518724" lon="-7.8176703304">
        <ele>197.69</ele>
        <time>2021-05-28T10:22:52Z</time>
      </trkpt>
      <trkpt lat="37.5997186918" lon="-7.8187550325">
        <ele>194.32</ele>
        <time>2021-05-28T10:22:56Z</time>
      </trkpt>
      <trkpt lat="37.5996421650" lon="-7.8190025501">
        <ele>191.44</ele>
        <time>2021-05-28T10:22:57Z</time>
      </trkpt>
      <trkpt lat="37.5994111598" lon="-7.8197202925">
        <ele>188.08</ele>
        <time>2021-05-28T10:23:00Z</time>
      </trkpt>
      <trkpt lat="37.5992018636" lon="-7.8201965522">
        <ele>187.59</ele>
        <time>2021-05-28T10:23:02Z</time>
      </trkpt>
      <trkpt lat="37.5990541745" lon="-7.8204155713">
        <ele>188.56</ele>
        <time>2021-05-28T10:23:03Z</time>
      </trkpt>
      <trkpt lat="37.5988795795" lon="-7.8206184134">
        <ele>186.15</ele>
        <time>2021-05-28T10:23:04Z</time>
      </trkpt>
      <trkpt lat="37.5984874740" lon="-7.8210069146">
        <ele>184.71</ele>
        <time>2021-05-28T10:23:06Z</time>
      </trkpt>
      <trkpt lat="37.5969325472" lon="-7.8225199319">
        <ele>182.31</ele>
        <time>2021-05-28T10:23:14Z</time>
      </trkpt>
      <trkpt lat="37.5961698778" lon="-7.8232643288">
        <ele>186.63</ele>
        <time>2021-05-28T10:23:18Z</time>
      </trkpt>
      <trkpt lat="37.5959735736" lon="-7.8234560229">
        <ele>189.52</ele>
        <time>2021-05-28T10:23:19Z</time>
      </trkpt>
      <trkpt lat="37.5953795481" lon="-7.8240403254">
        <ele>193.84</ele>
        <time>2021-05-28T10:23:22Z</time>
      </trkpt>
      <trkpt lat="37.5950101577" lon="-7.8244063631">
        <ele>194.80</ele>
        <time>2021-05-28T10:23:24Z</time>
      </trkpt>
      <trkpt lat="37.5940389466" lon="-7.8253778256">
        <ele>198.65</ele>
        <time>2021-05-28T10:23:30Z</time>
      </trkpt>
      <trkpt lat="37.5938729011" lon="-7.8255442064">
        <ele>199.13</ele>
        <time>2021-05-28T10:23:31Z</time>
      </trkpt>
      <trkpt lat="37.5922228396" lon="-7.8271661885">
        <ele>195.28</ele>
        <time>2021-05-28T10:23:40Z</time>
      </trkpt>
      <trkpt lat="37.5911672227" lon="-7.8282603621">
        <ele>196.73</ele>
        <time>2021-05-28T10:23:47Z</time>
      </trkpt>
      <trkpt lat="37.5910826493" lon="-7.8284390643">
        <ele>196.73</ele>
        <time>2021-05-28T10:23:48Z</time>
      </trkpt>
      <trkpt lat="37.5910236407" lon="-7.8286474384">
        <ele>199.13</ele>
        <time>2021-05-28T10:23:49Z</time>
      </trkpt>
      <trkpt lat="37.5909824017" lon="-7.8288808744">
        <ele>201.05</ele>
        <time>2021-05-28T10:23:50Z</time>
      </trkpt>
      <trkpt lat="37.5909520593" lon="-7.8291344270">
        <ele>202.98</ele>
        <time>2021-05-28T10:23:51Z</time>
      </trkpt>
      <trkpt lat="37.5908939727" lon="-7.8296735510">
        <ele>207.30</ele>
        <time>2021-05-28T10:23:53Z</time>
      </trkpt>
      <trkpt lat="37.5907731056" lon="-7.8307304252">
        <ele>210.19</ele>
        <time>2021-05-28T10:23:57Z</time>
      </trkpt>
      <trkpt lat="37.5905630551" lon="-7.8320988547">
        <ele>205.86</ele>
        <time>2021-05-28T10:24:03Z</time>
      </trkpt>
      <trkpt lat="37.5904773083" lon="-7.8322861902">
        <ele>206.82</ele>
        <time>2021-05-28T10:24:04Z</time>
      </trkpt>
      <trkpt lat="37.5903630629" lon="-7.8324506432">
        <ele>205.86</ele>
        <time>2021-05-28T10:24:05Z</time>
      </trkpt>
      <trkpt lat="37.5902219117" lon="-7.8325902019">
        <ele>205.38</ele>
        <time>2021-05-28T10:24:06Z</time>
      </trkpt>
      <trkpt lat="37.5900629070" lon="-7.8327087220">
        <ele>204.90</ele>
        <time>2021-05-28T10:24:07Z</time>
      </trkpt>
      <trkpt lat="37.5898940116" lon="-7.8328067902">
        <ele>204.42</ele>
        <time>2021-05-28T10:24:08Z</time>
      </trkpt>
      <trkpt lat="37.5897155609" lon="-7.8328757733">
        <ele>204.42</ele>
        <time>2021-05-28T10:24:09Z</time>
      </trkpt>
      <trkpt lat="37.5895244535" lon="-7.8329056129">
        <ele>202.98</ele>
        <time>2021-05-28T10:24:10Z</time>
      </trkpt>
      <trkpt lat="37.5893206894" lon="-7.8329023439">
        <ele>202.01</ele>
        <time>2021-05-28T10:24:11Z</time>
      </trkpt>
      <trkpt lat="37.5891136564" lon="-7.8328865860">
        <ele>202.98</ele>
        <time>2021-05-28T10:24:12Z</time>
      </trkpt>
      <trkpt lat="37.5885387417" lon="-7.8328789584">
        <ele>201.53</ele>
        <time>2021-05-28T10:24:15Z</time>
      </trkpt>
      <trkpt lat="37.5883655716" lon="-7.8329322673">
        <ele>201.05</ele>
        <time>2021-05-28T10:24:16Z</time>
      </trkpt>
      <trkpt lat="37.5882079918" lon="-7.8330284078">
        <ele>201.05</ele>
        <time>2021-05-28T10:24:17Z</time>
      </trkpt>
      <trkpt lat="37.5880714506" lon="-7.8331685532">
        <ele>201.53</ele>
        <time>2021-05-28T10:24:18Z</time>
      </trkpt>
      <trkpt lat="37.5879543554" lon="-7.8333459143">
        <ele>203.46</ele>
        <time>2021-05-28T10:24:19Z</time>
      </trkpt>
      <trkpt lat="37.5878651720" lon="-7.8335599881">
        <ele>203.46</ele>
        <time>2021-05-28T10:24:20Z</time>
      </trkpt>
      <trkpt lat="37.5877994578" lon="-7.8338039014">
        <ele>206.34</ele>
        <time>2021-05-28T10:24:21Z</time>
      </trkpt>
      <trkpt lat="37.5877425447" lon="-7.8340655006">
        <ele>206.82</ele>
        <time>2021-05-28T10:24:22Z</time>
      </trkpt>
      <trkpt lat="37.5875620823" lon="-7.8348710854">
        <ele>210.19</ele>
        <time>2021-05-28T10:24:25Z</time>
      </trkpt>
      <trkpt lat="37.5873640180" lon="-7.8357206751">
        <ele>212.11</ele>
        <time>2021-05-28T10:24:28Z</time>
      </trkpt>
      <trkpt lat="37.5870371237" lon="-7.8371310141">
        <ele>210.67</ele>
        <time>2021-05-28T10:24:33Z</time>
      </trkpt>
      <trkpt lat="37.5867956411" lon="-7.8380823601">
        <ele>207.30</ele>
        <time>2021-05-28T10:24:37Z</time>
      </trkpt>
      <trkpt lat="37.5867133308" lon="-7.8383049835">
        <ele>207.78</ele>
        <time>2021-05-28T10:24:38Z</time>
      </trkpt>
      <trkpt lat="37.5866095629" lon="-7.8385286964">
        <ele>207.30</ele>
        <time>2021-05-28T10:24:39Z</time>
      </trkpt>
      <trkpt lat="37.5863512326" lon="-7.8389860131">
        <ele>209.70</ele>
        <time>2021-05-28T10:24:41Z</time>
      </trkpt>
      <trkpt lat="37.5856127031" lon="-7.8402113635">
        <ele>206.34</ele>
        <time>2021-05-28T10:24:46Z</time>
      </trkpt>
      <trkpt lat="37.5844063796" lon="-7.8422562126">
        <ele>209.70</ele>
        <time>2021-05-28T10:24:55Z</time>
      </trkpt>
      <trkpt lat="37.5843171123" lon="-7.8424881399">
        <ele>212.11</ele>
        <time>2021-05-28T10:24:56Z</time>
      </trkpt>
      <trkpt lat="37.5842456147" lon="-7.8427345678">
        <ele>213.07</ele>
        <time>2021-05-28T10:24:57Z</time>
      </trkpt>
      <trkpt lat="37.5841992628" lon="-7.8429950774">
        <ele>213.07</ele>
        <time>2021-05-28T10:24:58Z</time>
      </trkpt>
      <trkpt lat="37.5841795653" lon="-7.8432719316">
        <ele>213.07</ele>
        <time>2021-05-28T10:24:59Z</time>
      </trkpt>
      <trkpt lat="37.5841854326" lon="-7.8435626999">
        <ele>212.11</ele>
        <time>2021-05-28T10:25:00Z</time>
      </trkpt>
      <trkpt lat="37.5842039566" lon="-7.8438647836">
        <ele>211.63</ele>
        <time>2021-05-28T10:25:01Z</time>
      </trkpt>
      <trkpt lat="37.5842609536" lon="-7.8447736334">
        <ele>210.19</ele>
        <time>2021-05-28T10:25:04Z</time>
      </trkpt>
      <trkpt lat="37.5843012705" lon="-7.8453883622">
        <ele>206.82</ele>
        <time>2021-05-28T10:25:06Z</time>
      </trkpt>
      <trkpt lat="37.5843662303" lon="-7.8463058453">
        <ele>204.90</ele>
        <time>2021-05-28T10:25:09Z</time>
      </trkpt>
      <trkpt lat="37.5844743568" lon="-7.8478606883">
        <ele>208.26</ele>
        <time>2021-05-28T10:25:14Z</time>
      </trkpt>
      <trkpt lat="37.5845273305" lon="-7.8487541992">
        <ele>204.90</ele>
        <time>2021-05-28T10:25:17Z</time>
      </trkpt>
      <trkpt lat="37.5845447648" lon="-7.8490292095">
        <ele>205.38</ele>
        <time>2021-05-28T10:25:18Z</time>
      </trkpt>
      <trkpt lat="37.5845648814" lon="-7.8498326987">
        <ele>205.38</ele>
        <time>2021-05-28T10:25:21Z</time>
      </trkpt>
      <trkpt lat="37.5845387299" lon="-7.8501017578">
        <ele>205.38</ele>
        <time>2021-05-28T10:25:22Z</time>
      </trkpt>
      <trkpt lat="37.5844906177" lon="-7.8503731638">
        <ele>204.90</ele>
        <time>2021-05-28T10:25:23Z</time>
      </trkpt>
      <trkpt lat="37.5843656436" lon="-7.8509303089">
        <ele>209.70</ele>
        <time>2021-05-28T10:25:25Z</time>
      </trkpt>
      <trkpt lat="37.5842949003" lon="-7.8512132820">
        <ele>208.74</ele>
        <time>2021-05-28T10:25:26Z</time>
      </trkpt>
      <trkpt lat="37.5838763081" lon="-7.8528122976">
        <ele>212.11</ele>
        <time>2021-05-28T10:25:32Z</time>
      </trkpt>
      <trkpt lat="37.5837318879" lon="-7.8532605618">
        <ele>211.15</ele>
        <time>2021-05-28T10:25:34Z</time>
      </trkpt>
      <trkpt lat="37.5836332329" lon="-7.8534695227">
        <ele>210.67</ele>
        <time>2021-05-28T10:25:35Z</time>
      </trkpt>
      <trkpt lat="37.5835092645" lon="-7.8536770586">
        <ele>211.15</ele>
        <time>2021-05-28T10:25:36Z</time>
      </trkpt>
      <trkpt lat="37.5833650120" lon="-7.8538815770">
        <ele>213.07</ele>
        <time>2021-05-28T10:25:37Z</time>
      </trkpt>
      <trkpt lat="37.5832089409" lon="-7.8540841676">
        <ele>214.99</ele>
        <time>2021-05-28T10:25:38Z</time>
      </trkpt>
      <trkpt lat="37.5829075277" lon="-7.8544627782">
        <ele>211.15</ele>
        <time>2021-05-28T10:25:40Z</time>
      </trkpt>
      <trkpt lat="37.5827846490" lon="-7.8546444979">
        <ele>209.22</ele>
        <time>2021-05-28T10:25:41Z</time>
      </trkpt>
      <trkpt lat="37.5826880056" lon="-7.8548374493">
        <ele>208.26</ele>
        <time>2021-05-28T10:25:42Z</time>
      </trkpt>
      <trkpt lat="37.5826230459" lon="-7.8550498467">
        <ele>207.78</ele>
        <time>2021-05-28T10:25:43Z</time>
      </trkpt>
      <trkpt lat="37.5825892668" lon="-7.8552843723">
        <ele>208.26</ele>
        <time>2021-05-28T10:25:44Z</time>
      </trkpt>
      <trkpt lat="37.5825849082" lon="-7.8555379249">
        <ele>210.19</ele>
        <time>2021-05-28T10:25:45Z</time>
      </trkpt>
      <trkpt lat="37.5826019235" lon="-7.8558067326">
        <ele>212.11</ele>
        <time>2021-05-28T10:25:46Z</time>
      </trkpt>
      <trkpt lat="37.5826269854" lon="-7.8560876101">
        <ele>213.07</ele>
        <time>2021-05-28T10:25:47Z</time>
      </trkpt>
      <trkpt lat="37.5826754328" lon="-7.8566787858">
        <ele>214.99</ele>
        <time>2021-05-28T10:25:49Z</time>
      </trkpt>
      <trkpt lat="37.5827630237" lon="-7.8578276094">
        <ele>211.63</ele>
        <time>2021-05-28T10:25:53Z</time>
      </trkpt>
      <trkpt lat="37.5827943720" lon="-7.8585350420">
        <ele>210.19</ele>
        <time>2021-05-28T10:25:56Z</time>
      </trkpt>
      <trkpt lat="37.5827670470" lon="-7.8587414045">
        <ele>208.74</ele>
        <time>2021-05-28T10:25:57Z</time>
      </trkpt>
      <trkpt lat="37.5827118102" lon="-7.8589341883">
        <ele>207.30</ele>
        <time>2021-05-28T10:25:58Z</time>
      </trkpt>
      <trkpt lat="37.5826247223" lon="-7.8591212723">
        <ele>207.30</ele>
        <time>2021-05-28T10:25:59Z</time>
      </trkpt>
      <trkpt lat="37.5825071242" lon="-7.8593059257">
        <ele>208.26</ele>
        <time>2021-05-28T10:26:00Z</time>
      </trkpt>
      <trkpt lat="37.5823716726" lon="-7.8594926745">
        <ele>209.70</ele>
        <time>2021-05-28T10:26:01Z</time>
      </trkpt>
      <trkpt lat="37.5822275877" lon="-7.8596859612">
        <ele>209.22</ele>
        <time>2021-05-28T10:26:02Z</time>
      </trkpt>
      <trkpt lat="37.5818165392" lon="-7.8602491412">
        <ele>205.86</ele>
        <time>2021-05-28T10:26:05Z</time>
      </trkpt>
      <trkpt lat="37.5816904753" lon="-7.8604216408">
        <ele>205.86</ele>
        <time>2021-05-28T10:26:06Z</time>
      </trkpt>
      <trkpt lat="37.5814770721" lon="-7.8607658017">
        <ele>208.26</ele>
        <time>2021-05-28T10:26:08Z</time>
      </trkpt>
      <trkpt lat="37.5813945942" lon="-7.8609683085">
        <ele>209.70</ele>
        <time>2021-05-28T10:26:09Z</time>
      </trkpt>
      <trkpt lat="37.5813301373" lon="-7.8611980565">
        <ele>211.63</ele>
        <time>2021-05-28T10:26:10Z</time>
      </trkpt>
      <trkpt lat="37.5812807679" lon="-7.8614495136">
        <ele>212.59</ele>
        <time>2021-05-28T10:26:11Z</time>
      </trkpt>
      <trkpt lat="37.5812436361" lon="-7.8617074247">
        <ele>212.59</ele>
        <time>2021-05-28T10:26:12Z</time>
      </trkpt>
      <trkpt lat="37.5811065920" lon="-7.8627851699">
        <ele>214.03</ele>
        <time>2021-05-28T10:26:16Z</time>
      </trkpt>
      <trkpt lat="37.5806314219" lon="-7.8649917897">
        <ele>212.59</ele>
        <time>2021-05-28T10:26:24Z</time>
      </trkpt>
      <trkpt lat="37.5802557450" lon="-7.8659125417">
        <ele>210.67</ele>
        <time>2021-05-28T10:26:28Z</time>
      </trkpt>
      <trkpt lat="37.5801166892" lon="-7.8661078401">
        <ele>211.63</ele>
        <time>2021-05-28T10:26:29Z</time>
      </trkpt>
      <trkpt lat="37.5799560919" lon="-7.8662964329">
        <ele>213.07</ele>
        <time>2021-05-28T10:26:30Z</time>
      </trkpt>
      <trkpt lat="37.5797816645" lon="-7.8664883785">
        <ele>213.07</ele>
        <time>2021-05-28T10:26:31Z</time>
      </trkpt>
      <trkpt lat="37.5786681287" lon="-7.8677099571">
        <ele>209.22</ele>
        <time>2021-05-28T10:26:37Z</time>
      </trkpt>
      <trkpt lat="37.5779101532" lon="-7.8685404360">
        <ele>213.07</ele>
        <time>2021-05-28T10:26:41Z</time>
      </trkpt>
      <trkpt lat="37.5775245856" lon="-7.8689620458">
        <ele>215.47</ele>
        <time>2021-05-28T10:26:43Z</time>
      </trkpt>
      <trkpt lat="37.5759949721" lon="-7.8706536815">
        <ele>218.36</ele>
        <time>2021-05-28T10:26:51Z</time>
      </trkpt>
      <trkpt lat="37.5752178021" lon="-7.8715134971">
        <ele>218.84</ele>
        <time>2021-05-28T10:26:55Z</time>
      </trkpt>
      <trkpt lat="37.5746316556" lon="-7.8721642680">
        <ele>221.24</ele>
        <time>2021-05-28T10:26:58Z</time>
      </trkpt>
      <trkpt lat="37.5734695885" lon="-7.8737743478">
        <ele>223.64</ele>
        <time>2021-05-28T10:27:05Z</time>
      </trkpt>
      <trkpt lat="37.5721662026" lon="-7.8756922111">
        <ele>220.28</ele>
        <time>2021-05-28T10:27:13Z</time>
      </trkpt>
      <trkpt lat="37.5711491425" lon="-7.8772012051">
        <ele>221.24</ele>
        <time>2021-05-28T10:27:20Z</time>
      </trkpt>
      <trkpt lat="37.5706479885" lon="-7.8779254854">
        <ele>220.28</ele>
        <time>2021-05-28T10:27:24Z</time>
      </trkpt>
      <trkpt lat="37.5705266185" lon="-7.8780710790">
        <ele>219.32</ele>
        <time>2021-05-28T10:27:25Z</time>
      </trkpt>
      <trkpt lat="37.5703903288" lon="-7.8781926166">
        <ele>218.84</ele>
        <time>2021-05-28T10:27:26Z</time>
      </trkpt>
      <trkpt lat="37.5702376105" lon="-7.8782782797">
        <ele>219.80</ele>
        <time>2021-05-28T10:27:27Z</time>
      </trkpt>
      <trkpt lat="37.5700682122" lon="-7.8783240449">
        <ele>220.28</ele>
        <time>2021-05-28T10:27:28Z</time>
      </trkpt>
      <trkpt lat="37.5698869117" lon="-7.8783340193">
        <ele>221.72</ele>
        <time>2021-05-28T10:27:29Z</time>
      </trkpt>
      <trkpt lat="37.5696924515" lon="-7.8783268109">
        <ele>222.68</ele>
        <time>2021-05-28T10:27:30Z</time>
      </trkpt>
      <trkpt lat="37.5690645631" lon="-7.8782957979">
        <ele>226.53</ele>
        <time>2021-05-28T10:27:33Z</time>
      </trkpt>
      <trkpt lat="37.5684645027" lon="-7.8782696463">
        <ele>228.93</ele>
        <time>2021-05-28T10:27:36Z</time>
      </trkpt>
      <trkpt lat="37.5679111294" lon="-7.8782388847">
        <ele>229.89</ele>
        <time>2021-05-28T10:27:39Z</time>
      </trkpt>
      <trkpt lat="37.5675770268" lon="-7.8782683890">
        <ele>230.85</ele>
        <time>2021-05-28T10:27:41Z</time>
      </trkpt>
      <trkpt lat="37.5674142502" lon="-7.8783346061">
        <ele>231.81</ele>
        <time>2021-05-28T10:27:42Z</time>
      </trkpt>
      <trkpt lat="37.5672549941" lon="-7.8784383740">
        <ele>234.70</ele>
        <time>2021-05-28T10:27:43Z</time>
      </trkpt>
      <trkpt lat="37.5671066344" lon="-7.8785757534">
        <ele>235.66</ele>
        <time>2021-05-28T10:27:44Z</time>
      </trkpt>
      <trkpt lat="37.5669663213" lon="-7.8787256218">
        <ele>236.62</ele>
        <time>2021-05-28T10:27:45Z</time>
      </trkpt>
      <trkpt lat="37.5667190552" lon="-7.8790489119">
        <ele>236.14</ele>
        <time>2021-05-28T10:27:47Z</time>
      </trkpt>
      <trkpt lat="37.5666245911" lon="-7.8792436235">
        <ele>236.14</ele>
        <time>2021-05-28T10:27:48Z</time>
      </trkpt>
      <trkpt lat="37.5665572006" lon="-7.8794605471">
        <ele>236.14</ele>
        <time>2021-05-28T10:27:49Z</time>
      </trkpt>
      <trkpt lat="37.5665136147" lon="-7.8796964139">
        <ele>236.14</ele>
        <time>2021-05-28T10:27:50Z</time>
      </trkpt>
      <trkpt lat="37.5664886367" lon="-7.8799478710">
        <ele>236.14</ele>
        <time>2021-05-28T10:27:51Z</time>
      </trkpt>
      <trkpt lat="37.5664688554" lon="-7.8802095540">
        <ele>237.10</ele>
        <time>2021-05-28T10:27:52Z</time>
      </trkpt>
      <trkpt lat="37.5664455537" lon="-7.8804763500">
        <ele>237.10</ele>
        <time>2021-05-28T10:27:53Z</time>
      </trkpt>
      <trkpt lat="37.5663364213" lon="-7.8816409316">
        <ele>236.14</ele>
        <time>2021-05-28T10:27:57Z</time>
      </trkpt>
      <trkpt lat="37.5660257880" lon="-7.8845770285">
        <ele>233.26</ele>
        <time>2021-05-28T10:28:06Z</time>
      </trkpt>
      <trkpt lat="37.5659648515" lon="-7.8850843851">
        <ele>230.37</ele>
        <time>2021-05-28T10:28:08Z</time>
      </trkpt>
      <trkpt lat="37.5658195093" lon="-7.8864036128">
        <ele>229.89</ele>
        <time>2021-05-28T10:28:15Z</time>
      </trkpt>
      <trkpt lat="37.5657595787" lon="-7.8865732625">
        <ele>229.89</ele>
        <time>2021-05-28T10:28:16Z</time>
      </trkpt>
      <trkpt lat="37.5656696409" lon="-7.8867321834">
        <ele>229.89</ele>
        <time>2021-05-28T10:28:17Z</time>
      </trkpt>
      <trkpt lat="37.5655514561" lon="-7.8868708201">
        <ele>230.37</ele>
        <time>2021-05-28T10:28:18Z</time>
      </trkpt>
      <trkpt lat="37.5654106401" lon="-7.8869880829">
        <ele>231.81</ele>
        <time>2021-05-28T10:28:19Z</time>
      </trkpt>
      <trkpt lat="37.5652492885" lon="-7.8870829660">
        <ele>232.30</ele>
        <time>2021-05-28T10:28:20Z</time>
      </trkpt>
      <trkpt lat="37.5650748610" lon="-7.8871636000">
        <ele>233.26</ele>
        <time>2021-05-28T10:28:21Z</time>
      </trkpt>
      <trkpt lat="37.5642836094" lon="-7.8874738980">
        <ele>237.10</ele>
        <time>2021-05-28T10:28:25Z</time>
      </trkpt>
      <trkpt lat="37.5636508595" lon="-7.8877186496">
        <ele>239.02</ele>
        <time>2021-05-28T10:28:28Z</time>
      </trkpt>
      <trkpt lat="37.5630850811" lon="-7.8879587911">
        <ele>240.95</ele>
        <time>2021-05-28T10:28:31Z</time>
      </trkpt>
      <trkpt lat="37.5629124139" lon="-7.8880619723">
        <ele>242.87</ele>
        <time>2021-05-28T10:28:32Z</time>
      </trkpt>
      <trkpt lat="37.5627471227" lon="-7.8881920595">
        <ele>242.87</ele>
        <time>2021-05-28T10:28:33Z</time>
      </trkpt>
      <trkpt lat="37.5625907164" lon="-7.8883488849">
        <ele>244.31</ele>
        <time>2021-05-28T10:28:34Z</time>
      </trkpt>
      <trkpt lat="37.5624455418" lon="-7.8885338735">
        <ele>245.27</ele>
        <time>2021-05-28T10:28:35Z</time>
      </trkpt>
      <trkpt lat="37.5623126049" lon="-7.8887465224">
        <ele>247.20</ele>
        <time>2021-05-28T10:28:36Z</time>
      </trkpt>
      <trkpt lat="37.5621991139" lon="-7.8889751807">
        <ele>247.20</ele>
        <time>2021-05-28T10:28:37Z</time>
      </trkpt>
      <trkpt lat="37.5620975252" lon="-7.8892183397">
        <ele>247.68</ele>
        <time>2021-05-28T10:28:38Z</time>
      </trkpt>
      <trkpt lat="37.5618868880" lon="-7.8897430468">
        <ele>249.60</ele>
        <time>2021-05-28T10:28:40Z</time>
      </trkpt>
      <trkpt lat="37.5609865878" lon="-7.8919798415">
        <ele>246.72</ele>
        <time>2021-05-28T10:28:48Z</time>
      </trkpt>
      <trkpt lat="37.5604020339" lon="-7.8934351075">
        <ele>247.68</ele>
        <time>2021-05-28T10:28:54Z</time>
      </trkpt>
      <trkpt lat="37.5591942016" lon="-7.8964566998">
        <ele>251.52</ele>
        <time>2021-05-28T10:29:04Z</time>
      </trkpt>
      <trkpt lat="37.5581801590" lon="-7.8990267590">
        <ele>252.48</ele>
        <time>2021-05-28T10:29:13Z</time>
      </trkpt>
      <trkpt lat="37.5572918449" lon="-7.9017935414">
        <ele>250.08</ele>
        <time>2021-05-28T10:29:22Z</time>
      </trkpt>
      <trkpt lat="37.5570142362" lon="-7.9026714619">
        <ele>253.44</ele>
        <time>2021-05-28T10:29:25Z</time>
      </trkpt>
      <trkpt lat="37.5569227897" lon="-7.9029577039">
        <ele>253.44</ele>
        <time>2021-05-28T10:29:26Z</time>
      </trkpt>
      <trkpt lat="37.5564822368" lon="-7.9043473396">
        <ele>257.77</ele>
        <time>2021-05-28T10:29:31Z</time>
      </trkpt>
      <trkpt lat="37.5562457833" lon="-7.9052314628">
        <ele>261.62</ele>
        <time>2021-05-28T10:29:34Z</time>
      </trkpt>
      <trkpt lat="37.5560815819" lon="-7.9062177613">
        <ele>265.46</ele>
        <time>2021-05-28T10:29:37Z</time>
      </trkpt>
      <trkpt lat="37.5557726249" lon="-7.9080582596">
        <ele>267.38</ele>
        <time>2021-05-28T10:29:43Z</time>
      </trkpt>
      <trkpt lat="37.5553447288" lon="-7.9094818421">
        <ele>269.79</ele>
        <time>2021-05-28T10:29:48Z</time>
      </trkpt>
      <trkpt lat="37.5547761843" lon="-7.9110416304">
        <ele>267.86</ele>
        <time>2021-05-28T10:29:53Z</time>
      </trkpt>
      <trkpt lat="37.5540451985" lon="-7.9130853899">
        <ele>272.19</ele>
        <time>2021-05-28T10:29:59Z</time>
      </trkpt>
      <trkpt lat="37.5539202243" lon="-7.9134349991">
        <ele>271.71</ele>
        <time>2021-05-28T10:30:00Z</time>
      </trkpt>
      <trkpt lat="37.5528358575" lon="-7.9164524004">
        <ele>271.23</ele>
        <time>2021-05-28T10:30:09Z</time>
      </trkpt>
      <trkpt lat="37.5521553308" lon="-7.9183467105">
        <ele>274.59</ele>
        <time>2021-05-28T10:30:15Z</time>
      </trkpt>
      <trkpt lat="37.5517108385" lon="-7.9195929319">
        <ele>277.96</ele>
        <time>2021-05-28T10:30:19Z</time>
      </trkpt>
      <trkpt lat="37.5513756461" lon="-7.9205311183">
        <ele>279.40</ele>
        <time>2021-05-28T10:30:22Z</time>
      </trkpt>
      <trkpt lat="37.5509348419" lon="-7.9217592347">
        <ele>281.80</ele>
        <time>2021-05-28T10:30:26Z</time>
      </trkpt>
      <trkpt lat="37.5502295047" lon="-7.9237252101">
        <ele>285.65</ele>
        <time>2021-05-28T10:30:33Z</time>
      </trkpt>
      <trkpt lat="37.5492877141" lon="-7.9263620730">
        <ele>286.13</ele>
        <time>2021-05-28T10:30:42Z</time>
      </trkpt>
      <trkpt lat="37.5487541221" lon="-7.9278489389">
        <ele>289.49</ele>
        <time>2021-05-28T10:30:47Z</time>
      </trkpt>
      <trkpt lat="37.5482268166" lon="-7.9293290991">
        <ele>293.34</ele>
        <time>2021-05-28T10:30:52Z</time>
      </trkpt>
      <trkpt lat="37.5475140195" lon="-7.9313071445">
        <ele>289.49</ele>
        <time>2021-05-28T10:30:59Z</time>
      </trkpt>
      <trkpt lat="37.5471188128" lon="-7.9324141424">
        <ele>286.13</ele>
        <time>2021-05-28T10:31:03Z</time>
      </trkpt>
      <trkpt lat="37.5470247678" lon="-7.9326710477">
        <ele>286.61</ele>
        <time>2021-05-28T10:31:04Z</time>
      </trkpt>
      <trkpt lat="37.5461268984" lon="-7.9344491009">
        <ele>289.01</ele>
        <time>2021-05-28T10:31:11Z</time>
      </trkpt>
      <trkpt lat="37.5459668040" lon="-7.9347058386">
        <ele>288.05</ele>
        <time>2021-05-28T10:31:12Z</time>
      </trkpt>
      <trkpt lat="37.5456596911" lon="-7.9352048133">
        <ele>286.13</ele>
        <time>2021-05-28T10:31:14Z</time>
      </trkpt>
      <trkpt lat="37.5439198595" lon="-7.9380523972">
        <ele>287.09</ele>
        <time>2021-05-28T10:31:25Z</time>
      </trkpt>
      <trkpt lat="37.5428031385" lon="-7.9399468750">
        <ele>286.13</ele>
        <time>2021-05-28T10:31:33Z</time>
      </trkpt>
      <trkpt lat="37.5423967838" lon="-7.9415240139">
        <ele>286.61</ele>
        <time>2021-05-28T10:31:39Z</time>
      </trkpt>
      <trkpt lat="37.5418797880" lon="-7.9447973985">
        <ele>283.73</ele>
        <time>2021-05-28T10:31:49Z</time>
      </trkpt>
      <trkpt lat="37.5415482000" lon="-7.9468425829">
        <ele>287.09</ele>
        <time>2021-05-28T10:31:56Z</time>
      </trkpt>
      <trkpt lat="37.5415018480" lon="-7.9471460078">
        <ele>284.21</ele>
        <time>2021-05-28T10:31:57Z</time>
      </trkpt>
      <trkpt lat="37.5410923921" lon="-7.9496835452">
        <ele>280.36</ele>
        <time>2021-05-28T10:32:05Z</time>
      </trkpt>
      <trkpt lat="37.5408995245" lon="-7.9508850910">
        <ele>281.32</ele>
        <time>2021-05-28T10:32:09Z</time>
      </trkpt>
      <trkpt lat="37.5407991093" lon="-7.9514541384">
        <ele>276.52</ele>
        <time>2021-05-28T10:32:11Z</time>
      </trkpt>
      <trkpt lat="37.5405748934" lon="-7.9528757930">
        <ele>275.07</ele>
        <time>2021-05-28T10:32:16Z</time>
      </trkpt>
      <trkpt lat="37.5404893141" lon="-7.9537278973">
        <ele>273.63</ele>
        <time>2021-05-28T10:32:19Z</time>
      </trkpt>
      <trkpt lat="37.5404977798" lon="-7.9540053383">
        <ele>275.07</ele>
        <time>2021-05-28T10:32:20Z</time>
      </trkpt>
      <trkpt lat="37.5405252725" lon="-7.9542800132">
        <ele>275.56</ele>
        <time>2021-05-28T10:32:21Z</time>
      </trkpt>
      <trkpt lat="37.5405687746" lon="-7.9545572028">
        <ele>276.52</ele>
        <time>2021-05-28T10:32:22Z</time>
      </trkpt>
      <trkpt lat="37.5406214967" lon="-7.9548384156">
        <ele>277.96</ele>
        <time>2021-05-28T10:32:23Z</time>
      </trkpt>
      <trkpt lat="37.5407318026" lon="-7.9554169346">
        <ele>281.80</ele>
        <time>2021-05-28T10:32:25Z</time>
      </trkpt>
      <trkpt lat="37.5407819264" lon="-7.9557017516">
        <ele>281.80</ele>
        <time>2021-05-28T10:32:26Z</time>
      </trkpt>
      <trkpt lat="37.5408278592" lon="-7.9559821263">
        <ele>276.52</ele>
        <time>2021-05-28T10:32:27Z</time>
      </trkpt>
      <trkpt lat="37.5410292763" lon="-7.9571095761">
        <ele>272.67</ele>
        <time>2021-05-28T10:32:31Z</time>
      </trkpt>
      <trkpt lat="37.5415555760" lon="-7.9601446632">
        <ele>270.75</ele>
        <time>2021-05-28T10:32:43Z</time>
      </trkpt>
      <trkpt lat="37.5415626168" lon="-7.9603916779">
        <ele>269.79</ele>
        <time>2021-05-28T10:32:44Z</time>
      </trkpt>
      <trkpt lat="37.5415507145" lon="-7.9606495891">
        <ele>269.79</ele>
        <time>2021-05-28T10:32:45Z</time>
      </trkpt>
      <trkpt lat="37.5415241439" lon="-7.9609058239">
        <ele>269.79</ele>
        <time>2021-05-28T10:32:46Z</time>
      </trkpt>
      <trkpt lat="37.5414913706" lon="-7.9611555208">
        <ele>269.31</ele>
        <time>2021-05-28T10:32:47Z</time>
      </trkpt>
      <trkpt lat="37.5412667356" lon="-7.9626283888">
        <ele>268.83</ele>
        <time>2021-05-28T10:32:53Z</time>
      </trkpt>
      <trkpt lat="37.5409421045" lon="-7.9648007266">
        <ele>266.42</ele>
        <time>2021-05-28T10:33:01Z</time>
      </trkpt>
      <trkpt lat="37.5408702716" lon="-7.9652666766">
        <ele>263.54</ele>
        <time>2021-05-28T10:33:03Z</time>
      </trkpt>
      <trkpt lat="37.5407742150" lon="-7.9661537334">
        <ele>262.10</ele>
        <time>2021-05-28T10:33:07Z</time>
      </trkpt>
      <trkpt lat="37.5407881290" lon="-7.9663963057">
        <ele>262.58</ele>
        <time>2021-05-28T10:33:08Z</time>
      </trkpt>
      <trkpt lat="37.5408211537" lon="-7.9666434042">
        <ele>260.65</ele>
        <time>2021-05-28T10:33:09Z</time>
      </trkpt>
      <trkpt lat="37.5408773962" lon="-7.9668878205">
        <ele>261.14</ele>
        <time>2021-05-28T10:33:10Z</time>
      </trkpt>
      <trkpt lat="37.5409600418" lon="-7.9671292193">
        <ele>262.10</ele>
        <time>2021-05-28T10:33:11Z</time>
      </trkpt>
      <trkpt lat="37.5410614628" lon="-7.9673684388">
        <ele>264.02</ele>
        <time>2021-05-28T10:33:12Z</time>
      </trkpt>
      <trkpt lat="37.5411721878" lon="-7.9676114302">
        <ele>265.46</ele>
        <time>2021-05-28T10:33:13Z</time>
      </trkpt>
      <trkpt lat="37.5414036959" lon="-7.9681219719">
        <ele>268.35</ele>
        <time>2021-05-28T10:33:15Z</time>
      </trkpt>
      <trkpt lat="37.5417704880" lon="-7.9689282272">
        <ele>271.71</ele>
        <time>2021-05-28T10:33:18Z</time>
      </trkpt>
      <trkpt lat="37.5418947916" lon="-7.9691979568">
        <ele>271.23</ele>
        <time>2021-05-28T10:33:19Z</time>
      </trkpt>
      <trkpt lat="37.5427802559" lon="-7.9711275548">
        <ele>267.86</ele>
        <time>2021-05-28T10:33:27Z</time>
      </trkpt>
      <trkpt lat="37.5428622309" lon="-7.9713368509">
        <ele>267.86</ele>
        <time>2021-05-28T10:33:28Z</time>
      </trkpt>
      <trkpt lat="37.5429292861" lon="-7.9715551995">
        <ele>267.38</ele>
        <time>2021-05-28T10:33:29Z</time>
      </trkpt>
      <trkpt lat="37.5429784041" lon="-7.9717836902">
        <ele>267.38</ele>
        <time>2021-05-28T10:33:30Z</time>
      </trkpt>
      <trkpt lat="37.5430065673" lon="-7.9720293637">
        <ele>268.35</ele>
        <time>2021-05-28T10:33:31Z</time>
      </trkpt>
      <trkpt lat="37.5430107582" lon="-7.9722903762">
        <ele>268.83</ele>
        <time>2021-05-28T10:33:32Z</time>
      </trkpt>
      <trkpt lat="37.5429963414" lon="-7.9725557473">
        <ele>269.31</ele>
        <time>2021-05-28T10:33:33Z</time>
      </trkpt>
      <trkpt lat="37.5429741293" lon="-7.9728329368">
        <ele>268.83</ele>
        <time>2021-05-28T10:33:34Z</time>
      </trkpt>
      <trkpt lat="37.5428174715" lon="-7.9742020369">
        <ele>266.90</ele>
        <time>2021-05-28T10:33:39Z</time>
      </trkpt>
      <trkpt lat="37.5427390169" lon="-7.9744731914">
        <ele>267.86</ele>
        <time>2021-05-28T10:33:40Z</time>
      </trkpt>
      <trkpt lat="37.5422652718" lon="-7.9758543614">
        <ele>264.50</ele>
        <time>2021-05-28T10:33:45Z</time>
      </trkpt>
      <trkpt lat="37.5421744119" lon="-7.9761223309">
        <ele>265.46</ele>
        <time>2021-05-28T10:33:46Z</time>
      </trkpt>
      <trkpt lat="37.5420858990" lon="-7.9763804935">
        <ele>261.62</ele>
        <time>2021-05-28T10:33:47Z</time>
      </trkpt>
      <trkpt lat="37.5417947955" lon="-7.9772950429">
        <ele>256.33</ele>
        <time>2021-05-28T10:33:51Z</time>
      </trkpt>
      <trkpt lat="37.5417491980" lon="-7.9775133077">
        <ele>255.85</ele>
        <time>2021-05-28T10:33:52Z</time>
      </trkpt>
      <trkpt lat="37.5417281594" lon="-7.9777423851">
        <ele>256.33</ele>
        <time>2021-05-28T10:33:53Z</time>
      </trkpt>
      <trkpt lat="37.5417351164" lon="-7.9779762402">
        <ele>256.81</ele>
        <time>2021-05-28T10:33:54Z</time>
      </trkpt>
      <trkpt lat="37.5417604297" lon="-7.9782038927">
        <ele>256.81</ele>
        <time>2021-05-28T10:33:55Z</time>
      </trkpt>
      <trkpt lat="37.5417924486" lon="-7.9784178827">
        <ele>253.93</ele>
        <time>2021-05-28T10:33:56Z</time>
      </trkpt>
      <trkpt lat="37.5418870803" lon="-7.9790118244">
        <ele>252.00</ele>
        <time>2021-05-28T10:33:59Z</time>
      </trkpt>
      <trkpt lat="37.5419403892" lon="-7.9798443988">
        <ele>250.56</ele>
        <time>2021-05-28T10:34:03Z</time>
      </trkpt>
      <trkpt lat="37.5418518763" lon="-7.9813429154">
        <ele>252.96</ele>
        <time>2021-05-28T10:34:09Z</time>
      </trkpt>
      <trkpt lat="37.5418100506" lon="-7.9819110408">
        <ele>257.29</ele>
        <time>2021-05-28T10:34:11Z</time>
      </trkpt>
      <trkpt lat="37.5417933706" lon="-7.9822046589">
        <ele>261.14</ele>
        <time>2021-05-28T10:34:12Z</time>
      </trkpt>
      <trkpt lat="37.5417832285" lon="-7.9824910685">
        <ele>258.73</ele>
        <time>2021-05-28T10:34:13Z</time>
      </trkpt>
      <trkpt lat="37.5417693146" lon="-7.9836253077">
        <ele>262.10</ele>
        <time>2021-05-28T10:34:17Z</time>
      </trkpt>
      <trkpt lat="37.5417627767" lon="-7.9839106277">
        <ele>262.10</ele>
        <time>2021-05-28T10:34:18Z</time>
      </trkpt>
      <trkpt lat="37.5417243037" lon="-7.9852552526">
        <ele>258.25</ele>
        <time>2021-05-28T10:34:23Z</time>
      </trkpt>
      <trkpt lat="37.5417057797" lon="-7.9857310094">
        <ele>254.41</ele>
        <time>2021-05-28T10:34:25Z</time>
      </trkpt>
      <trkpt lat="37.5416771974" lon="-7.9859672114">
        <ele>253.93</ele>
        <time>2021-05-28T10:34:26Z</time>
      </trkpt>
      <trkpt lat="37.5416240562" lon="-7.9862153996">
        <ele>253.44</ele>
        <time>2021-05-28T10:34:27Z</time>
      </trkpt>
      <trkpt lat="37.5414207950" lon="-7.9869359918">
        <ele>250.56</ele>
        <time>2021-05-28T10:34:30Z</time>
      </trkpt>
      <trkpt lat="37.5411974173" lon="-7.9875881039">
        <ele>246.23</ele>
        <time>2021-05-28T10:34:33Z</time>
      </trkpt>
      <trkpt lat="37.5410879496" lon="-7.9877749365">
        <ele>245.75</ele>
        <time>2021-05-28T10:34:34Z</time>
      </trkpt>
      <trkpt lat="37.5409486424" lon="-7.9879470170">
        <ele>244.31</ele>
        <time>2021-05-28T10:34:35Z</time>
      </trkpt>
      <trkpt lat="37.5407939963" lon="-7.9881159961">
        <ele>244.31</ele>
        <time>2021-05-28T10:34:36Z</time>
      </trkpt>
      <trkpt lat="37.5403138809" lon="-7.9886179883">
        <ele>239.99</ele>
        <time>2021-05-28T10:34:39Z</time>
      </trkpt>
      <trkpt lat="37.5398886669" lon="-7.9890744668">
        <ele>235.66</ele>
        <time>2021-05-28T10:34:42Z</time>
      </trkpt>
      <trkpt lat="37.5397798698" lon="-7.9892351478">
        <ele>234.22</ele>
        <time>2021-05-28T10:34:43Z</time>
      </trkpt>
      <trkpt lat="37.5396980625" lon="-7.9894054681">
        <ele>231.81</ele>
        <time>2021-05-28T10:34:44Z</time>
      </trkpt>
      <trkpt lat="37.5396424904" lon="-7.9895940609">
        <ele>230.85</ele>
        <time>2021-05-28T10:34:45Z</time>
      </trkpt>
      <trkpt lat="37.5396134891" lon="-7.9898027703">
        <ele>231.81</ele>
        <time>2021-05-28T10:34:46Z</time>
      </trkpt>
      <trkpt lat="37.5396087114" lon="-7.9900280759">
        <ele>231.81</ele>
        <time>2021-05-28T10:34:47Z</time>
      </trkpt>
      <trkpt lat="37.5396161713" lon="-7.9902625177">
        <ele>231.33</ele>
        <time>2021-05-28T10:34:48Z</time>
      </trkpt>
      <trkpt lat="37.5396533031" lon="-7.9909393564">
        <ele>228.45</ele>
        <time>2021-05-28T10:34:51Z</time>
      </trkpt>
      <trkpt lat="37.5397003256" lon="-7.9911581241">
        <ele>227.49</ele>
        <time>2021-05-28T10:34:52Z</time>
      </trkpt>
      <trkpt lat="37.5397771038" lon="-7.9913737904">
        <ele>228.45</ele>
        <time>2021-05-28T10:34:53Z</time>
      </trkpt>
      <trkpt lat="37.5400472526" lon="-7.9919809755">
        <ele>224.12</ele>
        <time>2021-05-28T10:34:56Z</time>
      </trkpt>
      <trkpt lat="37.5402948540" lon="-7.9925463349">
        <ele>220.76</ele>
        <time>2021-05-28T10:34:59Z</time>
      </trkpt>
      <trkpt lat="37.5405207463" lon="-7.9930925835">
        <ele>216.91</ele>
        <time>2021-05-28T10:35:02Z</time>
      </trkpt>
      <trkpt lat="37.5405706186" lon="-7.9932896420">
        <ele>217.88</ele>
        <time>2021-05-28T10:35:03Z</time>
      </trkpt>
      <trkpt lat="37.5407193974" lon="-7.9939902015">
        <ele>220.76</ele>
        <time>2021-05-28T10:35:06Z</time>
      </trkpt>
      <trkpt lat="37.5408312120" lon="-7.9945004079">
        <ele>224.12</ele>
        <time>2021-05-28T10:35:08Z</time>
      </trkpt>
      <trkpt lat="37.5408831798" lon="-7.9947475903">
        <ele>223.64</ele>
        <time>2021-05-28T10:35:09Z</time>
      </trkpt>
      <trkpt lat="37.5409660768" lon="-7.9952132888">
        <ele>223.64</ele>
        <time>2021-05-28T10:35:11Z</time>
      </trkpt>
      <trkpt lat="37.5409786496" lon="-7.9954514187">
        <ele>224.61</ele>
        <time>2021-05-28T10:35:12Z</time>
      </trkpt>
      <trkpt lat="37.5409675017" lon="-7.9957040492">
        <ele>227.01</ele>
        <time>2021-05-28T10:35:13Z</time>
      </trkpt>
      <trkpt lat="37.5409066491" lon="-7.9965124000">
        <ele>230.85</ele>
        <time>2021-05-28T10:35:16Z</time>
      </trkpt>
      <trkpt lat="37.5408832636" lon="-7.9967921041">
        <ele>230.85</ele>
        <time>2021-05-28T10:35:17Z</time>
      </trkpt>
      <trkpt lat="37.5407554395" lon="-7.9976436216">
        <ele>234.70</ele>
        <time>2021-05-28T10:35:20Z</time>
      </trkpt>
      <trkpt lat="37.5403737277" lon="-7.9996163025">
        <ele>232.78</ele>
        <time>2021-05-28T10:35:28Z</time>
      </trkpt>
      <trkpt lat="37.5403138809" lon="-7.9998034704">
        <ele>233.26</ele>
        <time>2021-05-28T10:35:29Z</time>
      </trkpt>
      <trkpt lat="37.5402319897" lon="-7.9999767244">
        <ele>233.26</ele>
        <time>2021-05-28T10:35:30Z</time>
      </trkpt>
      <trkpt lat="37.5401248690" lon="-8.0001365673">
        <ele>234.22</ele>
        <time>2021-05-28T10:35:31Z</time>
      </trkpt>
      <trkpt lat="37.5399939436" lon="-8.0002754554">
        <ele>234.70</ele>
        <time>2021-05-28T10:35:32Z</time>
      </trkpt>
      <trkpt lat="37.5398370344" lon="-8.0003938917">
        <ele>236.14</ele>
        <time>2021-05-28T10:35:33Z</time>
      </trkpt>
      <trkpt lat="37.5396579970" lon="-8.0004952289">
        <ele>237.58</ele>
        <time>2021-05-28T10:35:34Z</time>
      </trkpt>
      <trkpt lat="37.5394658837" lon="-8.0005841609">
        <ele>239.51</ele>
        <time>2021-05-28T10:35:35Z</time>
      </trkpt>
      <trkpt lat="37.5390764605" lon="-8.0007651262">
        <ele>240.95</ele>
        <time>2021-05-28T10:35:37Z</time>
      </trkpt>
      <trkpt lat="37.5384978577" lon="-8.0010405555">
        <ele>244.31</ele>
        <time>2021-05-28T10:35:40Z</time>
      </trkpt>
      <trkpt lat="37.5377290696" lon="-8.0014117900">
        <ele>247.20</ele>
        <time>2021-05-28T10:35:44Z</time>
      </trkpt>
      <trkpt lat="37.5375403930" lon="-8.0015032366">
        <ele>247.20</ele>
        <time>2021-05-28T10:35:45Z</time>
      </trkpt>
      <trkpt lat="37.5368941482" lon="-8.0018558633">
        <ele>248.16</ele>
        <time>2021-05-28T10:35:49Z</time>
      </trkpt>
      <trkpt lat="37.5367529970" lon="-8.0019761436">
        <ele>248.16</ele>
        <time>2021-05-28T10:35:50Z</time>
      </trkpt>
      <trkpt lat="37.5366200600" lon="-8.0021104217">
        <ele>248.64</ele>
        <time>2021-05-28T10:35:51Z</time>
      </trkpt>
      <trkpt lat="37.5363651663" lon="-8.0023807380">
        <ele>249.60</ele>
        <time>2021-05-28T10:35:53Z</time>
      </trkpt>
      <trkpt lat="37.5359925069" lon="-8.0027733464">
        <ele>252.48</ele>
        <time>2021-05-28T10:35:56Z</time>
      </trkpt>
      <trkpt lat="37.5356209371" lon="-8.0031751748">
        <ele>253.93</ele>
        <time>2021-05-28T10:35:59Z</time>
      </trkpt>
      <trkpt lat="37.5351645425" lon="-8.0037162267">
        <ele>256.33</ele>
        <time>2021-05-28T10:36:03Z</time>
      </trkpt>
      <trkpt lat="37.5350721739" lon="-8.0038766563">
        <ele>256.81</ele>
        <time>2021-05-28T10:36:04Z</time>
      </trkpt>
      <trkpt lat="37.5349889416" lon="-8.0040597171">
        <ele>258.73</ele>
        <time>2021-05-28T10:36:05Z</time>
      </trkpt>
      <trkpt lat="37.5349135045" lon="-8.0042631458">
        <ele>260.17</ele>
        <time>2021-05-28T10:36:06Z</time>
      </trkpt>
      <trkpt lat="37.5348455273" lon="-8.0044790637">
        <ele>261.14</ele>
        <time>2021-05-28T10:36:07Z</time>
      </trkpt>
      <trkpt lat="37.5347911287" lon="-8.0046995915">
        <ele>262.10</ele>
        <time>2021-05-28T10:36:08Z</time>
      </trkpt>
      <trkpt lat="37.5347581040" lon="-8.0049238075">
        <ele>262.10</ele>
        <time>2021-05-28T10:36:09Z</time>
      </trkpt>
      <trkpt lat="37.5347494707" lon="-8.0051539745">
        <ele>263.54</ele>
        <time>2021-05-28T10:36:10Z</time>
      </trkpt>
      <trkpt lat="37.5347622111" lon="-8.0053865723">
        <ele>264.50</ele>
        <time>2021-05-28T10:36:11Z</time>
      </trkpt>
      <trkpt lat="37.5347871892" lon="-8.0056232773">
        <ele>264.98</ele>
        <time>2021-05-28T10:36:12Z</time>
      </trkpt>
      <trkpt lat="37.5348431803" lon="-8.0061027221">
        <ele>265.94</ele>
        <time>2021-05-28T10:36:14Z</time>
      </trkpt>
      <trkpt lat="37.5349778775" lon="-8.0073192716">
        <ele>264.02</ele>
        <time>2021-05-28T10:36:19Z</time>
      </trkpt>
      <trkpt lat="37.5349903665" lon="-8.0077419709">
        <ele>261.62</ele>
        <time>2021-05-28T10:36:21Z</time>
      </trkpt>
      <trkpt lat="37.5349594373" lon="-8.0079424661">
        <ele>260.17</ele>
        <time>2021-05-28T10:36:22Z</time>
      </trkpt>
      <trkpt lat="37.5348979980" lon="-8.0081323162">
        <ele>259.69</ele>
        <time>2021-05-28T10:36:23Z</time>
      </trkpt>
      <trkpt lat="37.5348067190" lon="-8.0083097611">
        <ele>259.69</ele>
        <time>2021-05-28T10:36:24Z</time>
      </trkpt>
      <trkpt lat="37.5346886180" lon="-8.0084797461">
        <ele>261.14</ele>
        <time>2021-05-28T10:36:25Z</time>
      </trkpt>
      <trkpt lat="37.5345456228" lon="-8.0086416844">
        <ele>262.58</ele>
        <time>2021-05-28T10:36:26Z</time>
      </trkpt>
      <trkpt lat="37.5343907252" lon="-8.0088062212">
        <ele>265.46</ele>
        <time>2021-05-28T10:36:27Z</time>
      </trkpt>
      <trkpt lat="37.5342359114" lon="-8.0089724343">
        <ele>264.98</ele>
        <time>2021-05-28T10:36:28Z</time>
      </trkpt>
      <trkpt lat="37.5337167364" lon="-8.0096361134">
        <ele>265.46</ele>
        <time>2021-05-28T10:36:32Z</time>
      </trkpt>
      <trkpt lat="37.5336145610" lon="-8.0098409671">
        <ele>268.35</ele>
        <time>2021-05-28T10:36:33Z</time>
      </trkpt>
      <trkpt lat="37.5335269701" lon="-8.0100671947">
        <ele>268.83</ele>
        <time>2021-05-28T10:36:34Z</time>
      </trkpt>
      <trkpt lat="37.5334556401" lon="-8.0103101861">
        <ele>269.31</ele>
        <time>2021-05-28T10:36:35Z</time>
      </trkpt>
      <trkpt lat="37.5333929434" lon="-8.0105630681">
        <ele>270.75</ele>
        <time>2021-05-28T10:36:36Z</time>
      </trkpt>
      <trkpt lat="37.5332704838" lon="-8.0110799801">
        <ele>271.71</ele>
        <time>2021-05-28T10:36:38Z</time>
      </trkpt>
      <trkpt lat="37.5328375585" lon="-8.0128764734">
        <ele>274.59</ele>
        <time>2021-05-28T10:36:45Z</time>
      </trkpt>
      <trkpt lat="37.5327070523" lon="-8.0134195369">
        <ele>277.96</ele>
        <time>2021-05-28T10:36:47Z</time>
      </trkpt>
      <trkpt lat="37.5326416735" lon="-8.0136928707">
        <ele>277.48</ele>
        <time>2021-05-28T10:36:48Z</time>
      </trkpt>
      <trkpt lat="37.5319047365" lon="-8.0167790875">
        <ele>280.84</ele>
        <time>2021-05-28T10:36:59Z</time>
      </trkpt>
      <trkpt lat="37.5316624995" lon="-8.0175881926">
        <ele>284.21</ele>
        <time>2021-05-28T10:37:02Z</time>
      </trkpt>
      <trkpt lat="37.5312886667" lon="-8.0183801986">
        <ele>288.53</ele>
        <time>2021-05-28T10:37:05Z</time>
      </trkpt>
      <trkpt lat="37.5307422504" lon="-8.0194213148">
        <ele>292.38</ele>
        <time>2021-05-28T10:37:09Z</time>
      </trkpt>
      <trkpt lat="37.5302053895" lon="-8.0204628501">
        <ele>292.38</ele>
        <time>2021-05-28T10:37:13Z</time>
      </trkpt>
      <trkpt lat="37.5294582266" lon="-8.0219123326">
        <ele>294.78</ele>
        <time>2021-05-28T10:37:19Z</time>
      </trkpt>
      <trkpt lat="37.5288783666" lon="-8.0230572168">
        <ele>295.74</ele>
        <time>2021-05-28T10:37:24Z</time>
      </trkpt>
      <trkpt lat="37.5282665715" lon="-8.0242368020">
        <ele>298.63</ele>
        <time>2021-05-28T10:37:29Z</time>
      </trkpt>
      <trkpt lat="37.5272747409" lon="-8.0258545931">
        <ele>295.26</ele>
        <time>2021-05-28T10:37:36Z</time>
      </trkpt>
      <trkpt lat="37.5268237945" lon="-8.0265396461">
        <ele>292.86</ele>
        <time>2021-05-28T10:37:39Z</time>
      </trkpt>
      <trkpt lat="37.5255134515" lon="-8.0285273306">
        <ele>289.49</ele>
        <time>2021-05-28T10:37:48Z</time>
      </trkpt>
      <trkpt lat="37.5250867289" lon="-8.0291680433">
        <ele>286.61</ele>
        <time>2021-05-28T10:37:51Z</time>
      </trkpt>
      <trkpt lat="37.5248265546" lon="-8.0296016391">
        <ele>285.65</ele>
        <time>2021-05-28T10:37:53Z</time>
      </trkpt>
      <trkpt lat="37.5237041339" lon="-8.0320979375">
        <ele>285.65</ele>
        <time>2021-05-28T10:38:03Z</time>
      </trkpt>
      <trkpt lat="37.5231377687" lon="-8.0333917681">
        <ele>287.57</ele>
        <time>2021-05-28T10:38:08Z</time>
      </trkpt>
      <trkpt lat="37.5224508718" lon="-8.0349471979">
        <ele>290.94</ele>
        <time>2021-05-28T10:38:14Z</time>
      </trkpt>
      <trkpt lat="37.5221002568" lon="-8.0357404612">
        <ele>294.30</ele>
        <time>2021-05-28T10:38:17Z</time>
      </trkpt>
      <trkpt lat="37.5218675751" lon="-8.0362789147">
        <ele>296.22</ele>
        <time>2021-05-28T10:38:19Z</time>
      </trkpt>
      <trkpt lat="37.5211825222" lon="-8.0378247052">
        <ele>298.15</ele>
        <time>2021-05-28T10:38:25Z</time>
      </trkpt>
      <trkpt lat="37.5209771656" lon="-8.0382953491">
        <ele>296.70</ele>
        <time>2021-05-28T10:38:27Z</time>
      </trkpt>
      <trkpt lat="37.5206735730" lon="-8.0389859341">
        <ele>298.15</ele>
        <time>2021-05-28T10:38:30Z</time>
      </trkpt>
      <trkpt lat="37.5198380649" lon="-8.0408840999">
        <ele>296.22</ele>
        <time>2021-05-28T10:38:38Z</time>
      </trkpt>
      <trkpt lat="37.5196453650" lon="-8.0413184501">
        <ele>294.30</ele>
        <time>2021-05-28T10:38:40Z</time>
      </trkpt>
      <trkpt lat="37.5195389986" lon="-8.0415279977">
        <ele>294.78</ele>
        <time>2021-05-28T10:38:41Z</time>
      </trkpt>
      <trkpt lat="37.5194097497" lon="-8.0417340249">
        <ele>294.78</ele>
        <time>2021-05-28T10:38:42Z</time>
      </trkpt>
      <trkpt lat="37.5192620605" lon="-8.0419333465">
        <ele>295.26</ele>
        <time>2021-05-28T10:38:43Z</time>
      </trkpt>
      <trkpt lat="37.5184110459" lon="-8.0428740475">
        <ele>294.30</ele>
        <time>2021-05-28T10:38:48Z</time>
      </trkpt>
      <trkpt lat="37.5160336867" lon="-8.0454515666">
        <ele>296.22</ele>
        <time>2021-05-28T10:39:02Z</time>
      </trkpt>
      <trkpt lat="37.5154200476" lon="-8.0461216997">
        <ele>298.63</ele>
        <time>2021-05-28T10:39:06Z</time>
      </trkpt>
      <trkpt lat="37.5141895004" lon="-8.0475926399">
        <ele>301.51</ele>
        <time>2021-05-28T10:39:14Z</time>
      </trkpt>
      <trkpt lat="37.5140747521" lon="-8.0478140898">
        <ele>302.47</ele>
        <time>2021-05-28T10:39:15Z</time>
      </trkpt>
      <trkpt lat="37.5139759295" lon="-8.0480399821">
        <ele>300.55</ele>
        <time>2021-05-28T10:39:16Z</time>
      </trkpt>
      <trkpt lat="37.5138936192" lon="-8.0482726637">
        <ele>300.07</ele>
        <time>2021-05-28T10:39:17Z</time>
      </trkpt>
      <trkpt lat="37.5138250552" lon="-8.0485164095">
        <ele>299.59</ele>
        <time>2021-05-28T10:39:18Z</time>
      </trkpt>
      <trkpt lat="37.5137661304" lon="-8.0487729795">
        <ele>300.07</ele>
        <time>2021-05-28T10:39:19Z</time>
      </trkpt>
      <trkpt lat="37.5135601871" lon="-8.0498361401">
        <ele>296.70</ele>
        <time>2021-05-28T10:39:23Z</time>
      </trkpt>
      <trkpt lat="37.5134187005" lon="-8.0506087840">
        <ele>293.34</ele>
        <time>2021-05-28T10:39:26Z</time>
      </trkpt>
      <trkpt lat="37.5132829137" lon="-8.0513131991">
        <ele>289.97</ele>
        <time>2021-05-28T10:39:29Z</time>
      </trkpt>
      <trkpt lat="37.5131694227" lon="-8.0517450348">
        <ele>287.09</ele>
        <time>2021-05-28T10:39:31Z</time>
      </trkpt>
      <trkpt lat="37.5130900461" lon="-8.0519493856">
        <ele>286.61</ele>
        <time>2021-05-28T10:39:32Z</time>
      </trkpt>
      <trkpt lat="37.5129914749" lon="-8.0521470308">
        <ele>286.61</ele>
        <time>2021-05-28T10:39:33Z</time>
      </trkpt>
      <trkpt lat="37.5128722843" lon="-8.0523385573">
        <ele>285.65</ele>
        <time>2021-05-28T10:39:34Z</time>
      </trkpt>
      <trkpt lat="37.5127379224" lon="-8.0525210313">
        <ele>286.61</ele>
        <time>2021-05-28T10:39:35Z</time>
      </trkpt>
      <trkpt lat="37.5125959329" lon="-8.0526940338">
        <ele>286.13</ele>
        <time>2021-05-28T10:39:36Z</time>
      </trkpt>
      <trkpt lat="37.5121733174" lon="-8.0531764962">
        <ele>282.77</ele>
        <time>2021-05-28T10:39:39Z</time>
      </trkpt>
      <trkpt lat="37.5118119735" lon="-8.0535888858">
        <ele>279.40</ele>
        <time>2021-05-28T10:39:42Z</time>
      </trkpt>
      <trkpt lat="37.5114101451" lon="-8.0539916363">
        <ele>277.00</ele>
        <time>2021-05-28T10:39:46Z</time>
      </trkpt>
      <trkpt lat="37.5113142561" lon="-8.0540603679">
        <ele>277.00</ele>
        <time>2021-05-28T10:39:47Z</time>
      </trkpt>
      <trkpt lat="37.5107798260" lon="-8.0544370506">
        <ele>275.07</ele>
        <time>2021-05-28T10:39:55Z</time>
      </trkpt>
      <trkpt lat="37.5105761457" lon="-8.0547165871">
        <ele>275.56</ele>
        <time>2021-05-28T10:40:01Z</time>
      </trkpt>
      <trkpt lat="37.5105427857" lon="-8.0547962990">
        <ele>275.07</ele>
        <time>2021-05-28T10:40:02Z</time>
      </trkpt>
      <trkpt lat="37.5105308834" lon="-8.0548913497">
        <ele>275.07</ele>
        <time>2021-05-28T10:40:03Z</time>
      </trkpt>
      <trkpt lat="37.5105406065" lon="-8.0550029129">
        <ele>275.07</ele>
        <time>2021-05-28T10:40:04Z</time>
      </trkpt>
      <trkpt lat="37.5105622318" lon="-8.0551307369">
        <ele>277.00</ele>
        <time>2021-05-28T10:40:05Z</time>
      </trkpt>
      <trkpt lat="37.5107015390" lon="-8.0562419258">
        <ele>275.56</ele>
        <time>2021-05-28T10:40:14Z</time>
      </trkpt>
      <trkpt lat="37.5108092465" lon="-8.0571967922">
        <ele>275.56</ele>
        <time>2021-05-28T10:40:24Z</time>
      </trkpt>
      <trkpt lat="37.5108560175" lon="-8.0575650092">
        <ele>278.44</ele>
        <time>2021-05-28T10:40:28Z</time>
      </trkpt>
      <trkpt lat="37.5108703505" lon="-8.0576579645">
        <ele>278.44</ele>
        <time>2021-05-28T10:40:29Z</time>
      </trkpt>
      <trkpt lat="37.5109423511" lon="-8.0579775665">
        <ele>281.32</ele>
        <time>2021-05-28T10:40:32Z</time>
      </trkpt>
      <trkpt lat="37.5109824166" lon="-8.0580780655">
        <ele>281.32</ele>
        <time>2021-05-28T10:40:33Z</time>
      </trkpt>
      <trkpt lat="37.5110313669" lon="-8.0581637286">
        <ele>281.80</ele>
        <time>2021-05-28T10:40:34Z</time>
      </trkpt>
      <trkpt lat="37.5110854302" lon="-8.0582354777">
        <ele>280.36</ele>
        <time>2021-05-28T10:40:35Z</time>
      </trkpt>
      <trkpt lat="37.5111414213" lon="-8.0582920555">
        <ele>281.80</ele>
        <time>2021-05-28T10:40:36Z</time>
      </trkpt>
      <trkpt lat="37.5111929700" lon="-8.0583366472">
        <ele>281.32</ele>
        <time>2021-05-28T10:40:37Z</time>
      </trkpt>
      <trkpt lat="37.5115666352" lon="-8.0585112423">
        <ele>281.80</ele>
        <time>2021-05-28T10:40:45Z</time>
      </trkpt>
      <trkpt lat="37.5121128839" lon="-8.0587177724">
        <ele>280.84</ele>
        <time>2021-05-28T10:40:55Z</time>
      </trkpt>
      <trkpt lat="37.5123651791" lon="-8.0588560738">
        <ele>280.84</ele>
        <time>2021-05-28T10:41:07Z</time>
      </trkpt>
      <trkpt lat="37.5123762432" lon="-8.0588978995">
        <ele>280.84</ele>
        <time>2021-05-28T10:41:08Z</time>
      </trkpt>
      <trkpt lat="37.5123749860" lon="-8.0589480232">
        <ele>281.32</ele>
        <time>2021-05-28T10:41:09Z</time>
      </trkpt>
      <trkpt lat="37.5123686157" lon="-8.0590110552">
        <ele>281.80</ele>
        <time>2021-05-28T10:41:10Z</time>
      </trkpt>
      <trkpt lat="37.5123649277" lon="-8.0590769369">
        <ele>281.80</ele>
        <time>2021-05-28T10:41:11Z</time>
      </trkpt>
      <trkpt lat="37.5123656821" lon="-8.0591356941">
        <ele>282.28</ele>
        <time>2021-05-28T10:41:12Z</time>
      </trkpt>
      <trkpt lat="37.5123657659" lon="-8.0591859017">
        <ele>282.28</ele>
        <time>2021-05-28T10:41:13Z</time>
      </trkpt>
      <trkpt lat="37.5123641733" lon="-8.0592304934">
        <ele>282.28</ele>
        <time>2021-05-28T10:41:14Z</time>
      </trkpt>
      <trkpt lat="37.5123540312" lon="-8.0592732411">
        <ele>281.80</ele>
        <time>2021-05-28T10:41:15Z</time>
      </trkpt>
      <trkpt lat="37.5122147240" lon="-8.0597223435">
        <ele>281.80</ele>
        <time>2021-05-28T10:41:25Z</time>
      </trkpt>
      <trkpt lat="37.5121144764" lon="-8.0599583779">
        <ele>279.88</ele>
        <time>2021-05-28T10:41:34Z</time>
      </trkpt>
      <trkpt lat="37.5120971259" lon="-8.0599963479">
        <ele>279.88</ele>
        <time>2021-05-28T10:41:37Z</time>
      </trkpt>
      <trkpt lat="37.5120902527" lon="-8.0600200687">
        <ele>279.88</ele>
        <time>2021-05-28T10:41:38Z</time>
      </trkpt>
      <trkpt lat="37.5120862294" lon="-8.0600525066">
        <ele>279.88</ele>
        <time>2021-05-28T10:41:39Z</time>
      </trkpt>
      <trkpt lat="37.5120743271" lon="-8.0600834358">
        <ele>279.88</ele>
        <time>2021-05-28T10:41:40Z</time>
      </trkpt>
      <trkpt lat="37.5120437331" lon="-8.0601217411">
        <ele>280.36</ele>
        <time>2021-05-28T10:41:50Z</time>
      </trkpt>
      <trkpt lat="37.5120433979" lon="-8.0601365771">
        <ele>280.36</ele>
        <time>2021-05-28T10:41:57Z</time>
      </trkpt>
      <trkpt lat="37.5120247062" lon="-8.0601551849">
        <ele>280.36</ele>
        <time>2021-05-28T10:41:58Z</time>
      </trkpt>
      <trkpt lat="37.5119904242" lon="-8.0601898860">
        <ele>281.32</ele>
        <time>2021-05-28T10:41:59Z</time>
      </trkpt>
      <trkpt lat="37.5119492691" lon="-8.0602462124">
        <ele>282.28</ele>
        <time>2021-05-28T10:42:00Z</time>
      </trkpt>
      <trkpt lat="37.5119060185" lon="-8.0603141058">
        <ele>282.28</ele>
        <time>2021-05-28T10:42:01Z</time>
      </trkpt>
      <trkpt lat="37.5118242111" lon="-8.0604310334">
        <ele>283.25</ele>
        <time>2021-05-28T10:42:03Z</time>
      </trkpt>
      <trkpt lat="37.5117871631" lon="-8.0604663212">
        <ele>283.25</ele>
        <time>2021-05-28T10:42:04Z</time>
      </trkpt>
      <trkpt lat="37.5117542222" lon="-8.0604929756">
        <ele>283.25</ele>
        <time>2021-05-28T10:42:05Z</time>
      </trkpt>
      <trkpt lat="37.5117170066" lon="-8.0605083145">
        <ele>283.25</ele>
        <time>2021-05-28T10:42:06Z</time>
      </trkpt>
      <trkpt lat="37.5116745103" lon="-8.0605156068">
        <ele>282.77</ele>
        <time>2021-05-28T10:42:07Z</time>
      </trkpt>
      <trkpt lat="37.5116311759" lon="-8.0605161935">
        <ele>283.25</ele>
        <time>2021-05-28T10:42:08Z</time>
      </trkpt>
      <trkpt lat="37.5115910266" lon="-8.0605031177">
        <ele>282.77</ele>
        <time>2021-05-28T10:42:09Z</time>
      </trkpt>
      <trkpt lat="37.5115597621" lon="-8.0604651477">
        <ele>282.28</ele>
        <time>2021-05-28T10:42:10Z</time>
      </trkpt>
      <trkpt lat="37.5115437526" lon="-8.0604029540">
        <ele>282.28</ele>
        <time>2021-05-28T10:42:11Z</time>
      </trkpt>
      <trkpt lat="37.5115456805" lon="-8.0603322946">
        <ele>282.77</ele>
        <time>2021-05-28T10:42:12Z</time>
      </trkpt>
      <trkpt lat="37.5115734246" lon="-8.0602597911">
        <ele>282.77</ele>
        <time>2021-05-28T10:42:13Z</time>
      </trkpt>
      <trkpt lat="37.5116143283" lon="-8.0601956695">
        <ele>282.77</ele>
        <time>2021-05-28T10:42:14Z</time>
      </trkpt>
      <trkpt lat="37.5116604287" lon="-8.0601365771">
        <ele>283.25</ele>
        <time>2021-05-28T10:42:15Z</time>
      </trkpt>
      <trkpt lat="37.5117938686" lon="-8.0599602219">
        <ele>282.28</ele>
        <time>2021-05-28T10:42:18Z</time>
      </trkpt>
      <trkpt lat="37.5118381251" lon="-8.0599328130">
        <ele>281.80</ele>
        <time>2021-05-28T10:42:19Z</time>
      </trkpt>
      <trkpt lat="37.5118856505" lon="-8.0599321425">
        <ele>281.80</ele>
        <time>2021-05-28T10:42:20Z</time>
      </trkpt>
      <trkpt lat="37.5119295716" lon="-8.0599468946">
        <ele>281.80</ele>
        <time>2021-05-28T10:42:21Z</time>
      </trkpt>
      <trkpt lat="37.5119626801" lon="-8.0599733815">
        <ele>281.32</ele>
        <time>2021-05-28T10:42:22Z</time>
      </trkpt>
      <trkpt lat="37.5119859818" lon="-8.0599971861">
        <ele>281.32</ele>
        <time>2021-05-28T10:42:23Z</time>
      </trkpt>
      <trkpt lat="37.5120638497" lon="-8.0600682646">
        <ele>280.36</ele>
        <time>2021-05-28T10:42:28Z</time>
      </trkpt>
      <trkpt lat="37.5120633468" lon="-8.0600003712">
        <ele>280.36</ele>
        <time>2021-05-28T10:42:40Z</time>
      </trkpt>
      <trkpt lat="37.5120566413" lon="-8.0599933304">
        <ele>280.36</ele>
        <time>2021-05-28T10:42:41Z</time>
      </trkpt>
      <trkpt lat="37.5120662805" lon="-8.0599770695">
        <ele>280.36</ele>
        <time>2021-05-28T10:42:56Z</time>
      </trkpt>
      <trkpt lat="37.5120834634" lon="-8.0599969346">
        <ele>280.84</ele>
        <time>2021-05-28T10:43:31Z</time>
      </trkpt>
      <trkpt lat="37.5121288933" lon="-8.0599833559">
        <ele>280.84</ele>
        <time>2021-05-28T10:44:03Z</time>
      </trkpt>
      <trkpt lat="37.5121272169" lon="-8.0600138661">
        <ele>280.84</ele>
        <time>2021-05-28T10:44:26Z</time>
      </trkpt>
      <trkpt lat="37.5121279713" lon="-8.0600681808">
        <ele>280.84</ele>
        <time>2021-05-28T10:44:51Z</time>
      </trkpt>
      <trkpt lat="37.5121458247" lon="-8.0600173026">
        <ele>281.32</ele>
        <time>2021-05-28T10:45:31Z</time>
      </trkpt>
      <trkpt lat="37.5121449865" lon="-8.0600560270">
        <ele>281.80</ele>
        <time>2021-05-28T10:45:56Z</time>
      </trkpt>
      <trkpt lat="37.5121392868" lon="-8.0600390956">
        <ele>281.32</ele>
        <time>2021-05-28T10:46:22Z</time>
      </trkpt>
      <trkpt lat="37.5119094551" lon="-8.0600379221">
        <ele>285.17</ele>
        <time>2021-05-28T11:16:05Z</time>
      </trkpt>
      <trkpt lat="37.5119874068" lon="-8.0599789973">
        <ele>282.77</ele>
        <time>2021-05-28T11:16:22Z</time>
      </trkpt>
      <trkpt lat="37.5120341778" lon="-8.0599681847">
        <ele>280.36</ele>
        <time>2021-05-28T11:16:43Z</time>
      </trkpt>
      <trkpt lat="37.5120615028" lon="-8.0599727109">
        <ele>280.36</ele>
        <time>2021-05-28T11:16:59Z</time>
      </trkpt>
      <trkpt lat="37.5120515283" lon="-8.0599583779">
        <ele>280.84</ele>
        <time>2021-05-28T11:17:18Z</time>
      </trkpt>
      <trkpt lat="37.5120677054" lon="-8.0599501636">
        <ele>280.36</ele>
        <time>2021-05-28T11:17:43Z</time>
      </trkpt>
      <trkpt lat="37.5120485108" lon="-8.0600105133">
        <ele>280.84</ele>
        <time>2021-05-28T11:17:54Z</time>
      </trkpt>
      <trkpt lat="37.5120426435" lon="-8.0601135269">
        <ele>281.80</ele>
        <time>2021-05-28T11:18:04Z</time>
      </trkpt>
      <trkpt lat="37.5120247062" lon="-8.0601673387">
        <ele>282.77</ele>
        <time>2021-05-28T11:18:05Z</time>
      </trkpt>
      <trkpt lat="37.5119912624" lon="-8.0602276884">
        <ele>284.21</ele>
        <time>2021-05-28T11:18:06Z</time>
      </trkpt>
      <trkpt lat="37.5119564775" lon="-8.0602835119">
        <ele>283.25</ele>
        <time>2021-05-28T11:18:07Z</time>
      </trkpt>
      <trkpt lat="37.5119274762" lon="-8.0603317078">
        <ele>282.77</ele>
        <time>2021-05-28T11:18:08Z</time>
      </trkpt>
      <trkpt lat="37.5119037554" lon="-8.0603704322">
        <ele>283.25</ele>
        <time>2021-05-28T11:18:09Z</time>
      </trkpt>
      <trkpt lat="37.5117304176" lon="-8.0604984239">
        <ele>284.21</ele>
        <time>2021-05-28T11:18:18Z</time>
      </trkpt>
      <trkpt lat="37.5117029250" lon="-8.0605026148">
        <ele>283.25</ele>
        <time>2021-05-28T11:18:19Z</time>
      </trkpt>
      <trkpt lat="37.5115833152" lon="-8.0605690833">
        <ele>282.77</ele>
        <time>2021-05-28T11:18:22Z</time>
      </trkpt>
      <trkpt lat="37.5115131587" lon="-8.0606285110">
        <ele>282.28</ele>
        <time>2021-05-28T11:18:24Z</time>
      </trkpt>
      <trkpt lat="37.5114808045" lon="-8.0606637988">
        <ele>282.28</ele>
        <time>2021-05-28T11:18:25Z</time>
      </trkpt>
      <trkpt lat="37.5112966541" lon="-8.0608711671">
        <ele>281.80</ele>
        <time>2021-05-28T11:18:31Z</time>
      </trkpt>
      <trkpt lat="37.5110451970" lon="-8.0611755978">
        <ele>281.32</ele>
        <time>2021-05-28T11:18:37Z</time>
      </trkpt>
      <trkpt lat="37.5110098254" lon="-8.0612341873">
        <ele>281.32</ele>
        <time>2021-05-28T11:18:38Z</time>
      </trkpt>
      <trkpt lat="37.5109680835" lon="-8.0612821318">
        <ele>281.32</ele>
        <time>2021-05-28T11:18:39Z</time>
      </trkpt>
      <trkpt lat="37.5105611421" lon="-8.0617429689">
        <ele>280.84</ele>
        <time>2021-05-28T11:18:46Z</time>
      </trkpt>
      <trkpt lat="37.5104157999" lon="-8.0619653407">
        <ele>280.36</ele>
        <time>2021-05-28T11:18:49Z</time>
      </trkpt>
      <trkpt lat="37.5100906659" lon="-8.0628386512">
        <ele>279.88</ele>
        <time>2021-05-28T11:18:58Z</time>
      </trkpt>
      <trkpt lat="37.5100364350" lon="-8.0630287528">
        <ele>278.44</ele>
        <time>2021-05-28T11:19:01Z</time>
      </trkpt>
      <trkpt lat="37.5097871572" lon="-8.0637012329">
        <ele>279.88</ele>
        <time>2021-05-28T11:19:10Z</time>
      </trkpt>
      <trkpt lat="37.5096361991" lon="-8.0646144412">
        <ele>277.96</ele>
        <time>2021-05-28T11:19:20Z</time>
      </trkpt>
      <trkpt lat="37.5096428208" lon="-8.0646781437">
        <ele>277.96</ele>
        <time>2021-05-28T11:19:21Z</time>
      </trkpt>
      <trkpt lat="37.5096597522" lon="-8.0647362303">
        <ele>277.48</ele>
        <time>2021-05-28T11:19:22Z</time>
      </trkpt>
      <trkpt lat="37.5096696429" lon="-8.0648014415">
        <ele>277.96</ele>
        <time>2021-05-28T11:19:23Z</time>
      </trkpt>
      <trkpt lat="37.5096574891" lon="-8.0648834165">
        <ele>278.44</ele>
        <time>2021-05-28T11:19:24Z</time>
      </trkpt>
      <trkpt lat="37.5096201897" lon="-8.0649793055">
        <ele>278.44</ele>
        <time>2021-05-28T11:19:25Z</time>
      </trkpt>
      <trkpt lat="37.5095728319" lon="-8.0650803912">
        <ele>278.92</ele>
        <time>2021-05-28T11:19:26Z</time>
      </trkpt>
      <trkpt lat="37.5094195269" lon="-8.0654666293">
        <ele>280.36</ele>
        <time>2021-05-28T11:19:29Z</time>
      </trkpt>
      <trkpt lat="37.5090509746" lon="-8.0665506609">
        <ele>279.88</ele>
        <time>2021-05-28T11:19:37Z</time>
      </trkpt>
      <trkpt lat="37.5089780521" lon="-8.0666453764">
        <ele>279.88</ele>
        <time>2021-05-28T11:19:38Z</time>
      </trkpt>
      <trkpt lat="37.5088848453" lon="-8.0667282734">
        <ele>279.40</ele>
        <time>2021-05-28T11:19:39Z</time>
      </trkpt>
      <trkpt lat="37.5087804906" lon="-8.0667963345">
        <ele>278.44</ele>
        <time>2021-05-28T11:19:40Z</time>
      </trkpt>
      <trkpt lat="37.5086747948" lon="-8.0668565165">
        <ele>278.44</ele>
        <time>2021-05-28T11:19:41Z</time>
      </trkpt>
      <trkpt lat="37.5085695181" lon="-8.0669101607">
        <ele>277.96</ele>
        <time>2021-05-28T11:19:42Z</time>
      </trkpt>
      <trkpt lat="37.5074155815" lon="-8.0673168506">
        <ele>279.40</ele>
        <time>2021-05-28T11:19:52Z</time>
      </trkpt>
      <trkpt lat="37.5073072873" lon="-8.0673839059">
        <ele>279.88</ele>
        <time>2021-05-28T11:19:53Z</time>
      </trkpt>
      <trkpt lat="37.5072036032" lon="-8.0674801301">
        <ele>281.32</ele>
        <time>2021-05-28T11:19:54Z</time>
      </trkpt>
      <trkpt lat="37.5071031041" lon="-8.0675979797">
        <ele>280.84</ele>
        <time>2021-05-28T11:19:55Z</time>
      </trkpt>
      <trkpt lat="37.5070019346" lon="-8.0677299108">
        <ele>282.77</ele>
        <time>2021-05-28T11:19:56Z</time>
      </trkpt>
      <trkpt lat="37.5060619041" lon="-8.0690087378">
        <ele>286.13</ele>
        <time>2021-05-28T11:20:05Z</time>
      </trkpt>
      <trkpt lat="37.5049537327" lon="-8.0705443863">
        <ele>289.97</ele>
        <time>2021-05-28T11:20:15Z</time>
      </trkpt>
      <trkpt lat="37.5036983751" lon="-8.0720746703">
        <ele>290.94</ele>
        <time>2021-05-28T11:20:24Z</time>
      </trkpt>
      <trkpt lat="37.5035422202" lon="-8.0722623412">
        <ele>290.94</ele>
        <time>2021-05-28T11:20:25Z</time>
      </trkpt>
      <trkpt lat="37.5030655414" lon="-8.0728272814">
        <ele>295.26</ele>
        <time>2021-05-28T11:20:28Z</time>
      </trkpt>
      <trkpt lat="37.5029046927" lon="-8.0730191432">
        <ele>293.82</ele>
        <time>2021-05-28T11:20:29Z</time>
      </trkpt>
      <trkpt lat="37.5012948643" lon="-8.0749251042">
        <ele>293.34</ele>
        <time>2021-05-28T11:20:40Z</time>
      </trkpt>
      <trkpt lat="37.5011432357" lon="-8.0750525091">
        <ele>293.82</ele>
        <time>2021-05-28T11:20:41Z</time>
      </trkpt>
      <trkpt lat="37.5009766035" lon="-8.0751618929">
        <ele>294.30</ele>
        <time>2021-05-28T11:20:42Z</time>
      </trkpt>
      <trkpt lat="37.5000259280" lon="-8.0756819900">
        <ele>299.11</ele>
        <time>2021-05-28T11:20:47Z</time>
      </trkpt>
      <trkpt lat="37.4991829600" lon="-8.0761256441">
        <ele>301.99</ele>
        <time>2021-05-28T11:20:51Z</time>
      </trkpt>
      <trkpt lat="37.4977546837" lon="-8.0766003951">
        <ele>303.91</ele>
        <time>2021-05-28T11:20:58Z</time>
      </trkpt>
      <trkpt lat="37.4970921781" lon="-8.0766452383">
        <ele>307.28</ele>
        <time>2021-05-28T11:21:01Z</time>
      </trkpt>
      <trkpt lat="37.4959033728" lon="-8.0766979605">
        <ele>312.09</ele>
        <time>2021-05-28T11:21:06Z</time>
      </trkpt>
      <trkpt lat="37.4956579506" lon="-8.0767113715">
        <ele>312.09</ele>
        <time>2021-05-28T11:21:07Z</time>
      </trkpt>
      <trkpt lat="37.4935711920" lon="-8.0768104456">
        <ele>313.53</ele>
        <time>2021-05-28T11:21:16Z</time>
      </trkpt>
      <trkpt lat="37.4925748352" lon="-8.0769413710">
        <ele>310.64</ele>
        <time>2021-05-28T11:21:21Z</time>
      </trkpt>
      <trkpt lat="37.4924045149" lon="-8.0770226754">
        <ele>311.60</ele>
        <time>2021-05-28T11:21:22Z</time>
      </trkpt>
      <trkpt lat="37.4922333565" lon="-8.0771272816">
        <ele>314.01</ele>
        <time>2021-05-28T11:21:23Z</time>
      </trkpt>
      <trkpt lat="37.4918871000" lon="-8.0773467198">
        <ele>316.89</ele>
        <time>2021-05-28T11:21:25Z</time>
      </trkpt>
      <trkpt lat="37.4913798273" lon="-8.0776726920">
        <ele>320.74</ele>
        <time>2021-05-28T11:21:28Z</time>
      </trkpt>
      <trkpt lat="37.4910353310" lon="-8.0778952315">
        <ele>324.58</ele>
        <time>2021-05-28T11:21:30Z</time>
      </trkpt>
      <trkpt lat="37.4905105401" lon="-8.0782290827">
        <ele>328.43</ele>
        <time>2021-05-28T11:21:33Z</time>
      </trkpt>
      <trkpt lat="37.4901540577" lon="-8.0784553103">
        <ele>331.79</ele>
        <time>2021-05-28T11:21:35Z</time>
      </trkpt>
      <trkpt lat="37.4899756908" lon="-8.0785680469">
        <ele>331.79</ele>
        <time>2021-05-28T11:21:36Z</time>
      </trkpt>
      <trkpt lat="37.4892928172" lon="-8.0790031515">
        <ele>334.68</ele>
        <time>2021-05-28T11:21:40Z</time>
      </trkpt>
      <trkpt lat="37.4888458941" lon="-8.0792351626">
        <ele>333.71</ele>
        <time>2021-05-28T11:21:43Z</time>
      </trkpt>
      <trkpt lat="37.4887098558" lon="-8.0792585481">
        <ele>333.23</ele>
        <time>2021-05-28T11:21:44Z</time>
      </trkpt>
      <trkpt lat="37.4885732308" lon="-8.0792414490">
        <ele>333.23</ele>
        <time>2021-05-28T11:21:45Z</time>
      </trkpt>
      <trkpt lat="37.4884319957" lon="-8.0791824404">
        <ele>332.75</ele>
        <time>2021-05-28T11:21:46Z</time>
      </trkpt>
      <trkpt lat="37.4882849772" lon="-8.0790881440">
        <ele>334.20</ele>
        <time>2021-05-28T11:21:47Z</time>
      </trkpt>
      <trkpt lat="37.4881305825" lon="-8.0789747369">
        <ele>335.16</ele>
        <time>2021-05-28T11:21:48Z</time>
      </trkpt>
      <trkpt lat="37.4876263272" lon="-8.0786013231">
        <ele>338.52</ele>
        <time>2021-05-28T11:21:51Z</time>
      </trkpt>
      <trkpt lat="37.4870870356" lon="-8.0782022607">
        <ele>340.92</ele>
        <time>2021-05-28T11:21:54Z</time>
      </trkpt>
      <trkpt lat="37.4865157250" lon="-8.0777857639">
        <ele>343.33</ele>
        <time>2021-05-28T11:21:57Z</time>
      </trkpt>
      <trkpt lat="37.4859478511" lon="-8.0773101747">
        <ele>346.21</ele>
        <time>2021-05-28T11:22:00Z</time>
      </trkpt>
      <trkpt lat="37.4849148653" lon="-8.0762841459">
        <ele>348.62</ele>
        <time>2021-05-28T11:22:06Z</time>
      </trkpt>
      <trkpt lat="37.4835281633" lon="-8.0746595655">
        <ele>344.77</ele>
        <time>2021-05-28T11:22:15Z</time>
      </trkpt>
      <trkpt lat="37.4833907001" lon="-8.0745083559">
        <ele>343.81</ele>
        <time>2021-05-28T11:22:16Z</time>
      </trkpt>
      <trkpt lat="37.4832448550" lon="-8.0743859801">
        <ele>342.85</ele>
        <time>2021-05-28T11:22:17Z</time>
      </trkpt>
      <trkpt lat="37.4830818269" lon="-8.0742941983">
        <ele>343.33</ele>
        <time>2021-05-28T11:22:18Z</time>
      </trkpt>
      <trkpt lat="37.4828997720" lon="-8.0742256343">
        <ele>343.81</ele>
        <time>2021-05-28T11:22:19Z</time>
      </trkpt>
      <trkpt lat="37.4827015400" lon="-8.0741731636">
        <ele>344.29</ele>
        <time>2021-05-28T11:22:20Z</time>
      </trkpt>
      <trkpt lat="37.4810886942" lon="-8.0737836566">
        <ele>347.17</ele>
        <time>2021-05-28T11:22:28Z</time>
      </trkpt>
      <trkpt lat="37.4804544356" lon="-8.0736235622">
        <ele>349.10</ele>
        <time>2021-05-28T11:22:31Z</time>
      </trkpt>
      <trkpt lat="37.4797828775" lon="-8.0735252425">
        <ele>352.94</ele>
        <time>2021-05-28T11:22:34Z</time>
      </trkpt>
      <trkpt lat="37.4783029687" lon="-8.0735679902">
        <ele>355.83</ele>
        <time>2021-05-28T11:22:41Z</time>
      </trkpt>
      <trkpt lat="37.4781332351" lon="-8.0736393202">
        <ele>354.86</ele>
        <time>2021-05-28T11:22:42Z</time>
      </trkpt>
      <trkpt lat="37.4779738113" lon="-8.0737497937">
        <ele>356.31</ele>
        <time>2021-05-28T11:22:43Z</time>
      </trkpt>
      <trkpt lat="37.4778227694" lon="-8.0738990754">
        <ele>359.19</ele>
        <time>2021-05-28T11:22:44Z</time>
      </trkpt>
      <trkpt lat="37.4776786845" lon="-8.0740696471">
        <ele>359.67</ele>
        <time>2021-05-28T11:22:45Z</time>
      </trkpt>
      <trkpt lat="37.4772822205" lon="-8.0745174922">
        <ele>357.75</ele>
        <time>2021-05-28T11:22:48Z</time>
      </trkpt>
      <trkpt lat="37.4771466013" lon="-8.0746114533">
        <ele>357.75</ele>
        <time>2021-05-28T11:22:49Z</time>
      </trkpt>
      <trkpt lat="37.4769970682" lon="-8.0746708810">
        <ele>357.75</ele>
        <time>2021-05-28T11:22:50Z</time>
      </trkpt>
      <trkpt lat="37.4768307712" lon="-8.0746936798">
        <ele>359.67</ele>
        <time>2021-05-28T11:22:51Z</time>
      </trkpt>
      <trkpt lat="37.4766508117" lon="-8.0746773351">
        <ele>359.19</ele>
        <time>2021-05-28T11:22:52Z</time>
      </trkpt>
      <trkpt lat="37.4764607102" lon="-8.0746327434">
        <ele>360.15</ele>
        <time>2021-05-28T11:22:53Z</time>
      </trkpt>
      <trkpt lat="37.4762628973" lon="-8.0745708849">
        <ele>361.11</ele>
        <time>2021-05-28T11:22:54Z</time>
      </trkpt>
      <trkpt lat="37.4752698094" lon="-8.0742149893">
        <ele>356.79</ele>
        <time>2021-05-28T11:23:00Z</time>
      </trkpt>
      <trkpt lat="37.4751791172" lon="-8.0741905980">
        <ele>356.79</ele>
        <time>2021-05-28T11:23:01Z</time>
      </trkpt>
      <trkpt lat="37.4749793764" lon="-8.0741062760">
        <ele>355.34</ele>
        <time>2021-05-28T11:23:06Z</time>
      </trkpt>
      <trkpt lat="37.4749669712" lon="-8.0740751792">
        <ele>355.34</ele>
        <time>2021-05-28T11:23:07Z</time>
      </trkpt>
      <trkpt lat="37.4749657977" lon="-8.0740436632">
        <ele>355.83</ele>
        <time>2021-05-28T11:23:08Z</time>
      </trkpt>
      <trkpt lat="37.4749743473" lon="-8.0740175117">
        <ele>355.34</ele>
        <time>2021-05-28T11:23:09Z</time>
      </trkpt>
      <trkpt lat="37.4749876745" lon="-8.0739971437">
        <ele>355.83</ele>
        <time>2021-05-28T11:23:10Z</time>
      </trkpt>
      <trkpt lat="37.4750036001" lon="-8.0739813857">
        <ele>355.34</ele>
        <time>2021-05-28T11:23:11Z</time>
      </trkpt>
      <trkpt lat="37.4750242196" lon="-8.0739729200">
        <ele>355.34</ele>
        <time>2021-05-28T11:23:12Z</time>
      </trkpt>
      <trkpt lat="37.4750423245" lon="-8.0739739258">
        <ele>355.34</ele>
        <time>2021-05-28T11:23:13Z</time>
      </trkpt>
      <trkpt lat="37.4750536401" lon="-8.0739833973">
        <ele>355.34</ele>
        <time>2021-05-28T11:23:14Z</time>
      </trkpt>
      <trkpt lat="37.4750544783" lon="-8.0740181822">
        <ele>355.34</ele>
        <time>2021-05-28T11:23:24Z</time>
      </trkpt>
      <trkpt lat="37.4750481918" lon="-8.0740037654">
        <ele>354.86</ele>
        <time>2021-05-28T11:23:35Z</time>
      </trkpt>
      <trkpt lat="37.4750520475" lon="-8.0740155838">
        <ele>355.83</ele>
        <time>2021-05-28T11:23:48Z</time>
      </trkpt>
      <trkpt lat="37.4750463478" lon="-8.0740008317">
        <ele>355.83</ele>
        <time>2021-05-28T11:24:21Z</time>
      </trkpt>
      <trkpt lat="37.4750409834" lon="-8.0740058608">
        <ele>356.31</ele>
        <time>2021-05-28T11:24:56Z</time>
      </trkpt>
      <trkpt lat="37.4750291649" lon="-8.0740024243">
        <ele>356.31</ele>
        <time>2021-05-28T11:25:36Z</time>
      </trkpt>
      <trkpt lat="37.4750429112" lon="-8.0740086269">
        <ele>356.31</ele>
        <time>2021-05-28T11:26:12Z</time>
      </trkpt>
      <trkpt lat="37.4750383850" lon="-8.0740092974">
        <ele>357.27</ele>
        <time>2021-05-28T11:26:39Z</time>
      </trkpt>
      <trkpt lat="37.4750372954" lon="-8.0740010832">
        <ele>357.27</ele>
        <time>2021-05-28T11:27:04Z</time>
      </trkpt>
      <trkpt lat="37.4750429951" lon="-8.0739968084">
        <ele>357.27</ele>
        <time>2021-05-28T11:27:31Z</time>
      </trkpt>
      <trkpt lat="37.4750479404" lon="-8.0740058608">
        <ele>357.27</ele>
        <time>2021-05-28T11:27:59Z</time>
      </trkpt>
      <trkpt lat="37.4750623573" lon="-8.0740283243">
        <ele>357.27</ele>
        <time>2021-05-28T11:28:12Z</time>
      </trkpt>
      <trkpt lat="37.4750680570" lon="-8.0740486924">
        <ele>357.75</ele>
        <time>2021-05-28T11:28:13Z</time>
      </trkpt>
      <trkpt lat="37.4750691466" lon="-8.0740665458">
        <ele>358.23</ele>
        <time>2021-05-28T11:28:14Z</time>
      </trkpt>
      <trkpt lat="37.4750425760" lon="-8.0741248839">
        <ele>357.75</ele>
        <time>2021-05-28T11:28:22Z</time>
      </trkpt>
      <trkpt lat="37.4750064500" lon="-8.0741408095">
        <ele>357.75</ele>
        <time>2021-05-28T11:28:23Z</time>
      </trkpt>
      <trkpt lat="37.4749520514" lon="-8.0741314217">
        <ele>358.23</ele>
        <time>2021-05-28T11:28:24Z</time>
      </trkpt>
      <trkpt lat="37.4742485583" lon="-8.0739438348">
        <ele>358.71</ele>
        <time>2021-05-28T11:28:34Z</time>
      </trkpt>
      <trkpt lat="37.4735920038" lon="-8.0737615284">
        <ele>358.71</ele>
        <time>2021-05-28T11:28:43Z</time>
      </trkpt>
      <trkpt lat="37.4728683941" lon="-8.0735781323">
        <ele>358.71</ele>
        <time>2021-05-28T11:28:53Z</time>
      </trkpt>
      <trkpt lat="37.4725861754" lon="-8.0735304393">
        <ele>358.71</ele>
        <time>2021-05-28T11:28:57Z</time>
      </trkpt>
      <trkpt lat="37.4725040328" lon="-8.0735358037">
        <ele>358.71</ele>
        <time>2021-05-28T11:28:58Z</time>
      </trkpt>
      <trkpt lat="37.4724202976" lon="-8.0735573452">
        <ele>358.71</ele>
        <time>2021-05-28T11:28:59Z</time>
      </trkpt>
      <trkpt lat="37.4723374005" lon="-8.0735962372">
        <ele>358.71</ele>
        <time>2021-05-28T11:29:00Z</time>
      </trkpt>
      <trkpt lat="37.4722592812" lon="-8.0736511387">
        <ele>358.23</ele>
        <time>2021-05-28T11:29:01Z</time>
      </trkpt>
      <trkpt lat="37.4721870292" lon="-8.0737171881">
        <ele>359.19</ele>
        <time>2021-05-28T11:29:02Z</time>
      </trkpt>
      <trkpt lat="37.4721171241" lon="-8.0737834889">
        <ele>359.19</ele>
        <time>2021-05-28T11:29:03Z</time>
      </trkpt>
      <trkpt lat="37.4714128766" lon="-8.0743759219">
        <ele>362.07</ele>
        <time>2021-05-28T11:29:13Z</time>
      </trkpt>
      <trkpt lat="37.4711382855" lon="-8.0745495111">
        <ele>363.52</ele>
        <time>2021-05-28T11:29:16Z</time>
      </trkpt>
      <trkpt lat="37.4704818986" lon="-8.0749434605">
        <ele>366.40</ele>
        <time>2021-05-28T11:29:23Z</time>
      </trkpt>
      <trkpt lat="37.4695628230" lon="-8.0752101727">
        <ele>365.92</ele>
        <time>2021-05-28T11:29:32Z</time>
      </trkpt>
      <trkpt lat="37.4689592421" lon="-8.0753766373">
        <ele>365.44</ele>
        <time>2021-05-28T11:29:39Z</time>
      </trkpt>
      <trkpt lat="37.4688889179" lon="-8.0754001066">
        <ele>365.44</ele>
        <time>2021-05-28T11:29:46Z</time>
      </trkpt>
      <trkpt lat="37.4688879959" lon="-8.0754031241">
        <ele>364.96</ele>
        <time>2021-05-28T11:30:22Z</time>
      </trkpt>
      <trkpt lat="37.4688841403" lon="-8.0753993522">
        <ele>365.44</ele>
        <time>2021-05-28T11:31:00Z</time>
      </trkpt>
      <trkpt lat="37.4687189329" lon="-8.0754146911">
        <ele>365.92</ele>
        <time>2021-05-28T11:31:21Z</time>
      </trkpt>
      <trkpt lat="37.4686439987" lon="-8.0754331313">
        <ele>366.40</ele>
        <time>2021-05-28T11:31:22Z</time>
      </trkpt>
      <trkpt lat="37.4682413321" lon="-8.0755229853">
        <ele>368.80</ele>
        <time>2021-05-28T11:31:26Z</time>
      </trkpt>
      <trkpt lat="37.4681180343" lon="-8.0755203869">
        <ele>368.80</ele>
        <time>2021-05-28T11:31:27Z</time>
      </trkpt>
      <trkpt lat="37.4679959100" lon="-8.0754827522">
        <ele>369.28</ele>
        <time>2021-05-28T11:31:28Z</time>
      </trkpt>
      <trkpt lat="37.4678731989" lon="-8.0754016992">
        <ele>369.28</ele>
        <time>2021-05-28T11:31:29Z</time>
      </trkpt>
      <trkpt lat="37.4677467160" lon="-8.0752777308">
        <ele>371.21</ele>
        <time>2021-05-28T11:31:30Z</time>
      </trkpt>
      <trkpt lat="37.4676172994" lon="-8.0751220789">
        <ele>371.69</ele>
        <time>2021-05-28T11:31:31Z</time>
      </trkpt>
      <trkpt lat="37.4674870446" lon="-8.0749579612">
        <ele>370.73</ele>
        <time>2021-05-28T11:31:32Z</time>
      </trkpt>
      <trkpt lat="37.4665118102" lon="-8.0737667251">
        <ele>366.40</ele>
        <time>2021-05-28T11:31:39Z</time>
      </trkpt>
      <trkpt lat="37.4663615227" lon="-8.0736300163">
        <ele>364.00</ele>
        <time>2021-05-28T11:31:40Z</time>
      </trkpt>
      <trkpt lat="37.4661957286" lon="-8.0735161062">
        <ele>362.55</ele>
        <time>2021-05-28T11:31:41Z</time>
      </trkpt>
      <trkpt lat="37.4660131708" lon="-8.0734317005">
        <ele>361.11</ele>
        <time>2021-05-28T11:31:42Z</time>
      </trkpt>
      <trkpt lat="37.4658204708" lon="-8.0733687524">
        <ele>360.63</ele>
        <time>2021-05-28T11:31:43Z</time>
      </trkpt>
      <trkpt lat="37.4656207301" lon="-8.0733167846">
        <ele>361.59</ele>
        <time>2021-05-28T11:31:44Z</time>
      </trkpt>
      <trkpt lat="37.4648602400" lon="-8.0730804149">
        <ele>356.79</ele>
        <time>2021-05-28T11:31:48Z</time>
      </trkpt>
      <trkpt lat="37.4646941107" lon="-8.0729832686">
        <ele>355.83</ele>
        <time>2021-05-28T11:31:49Z</time>
      </trkpt>
      <trkpt lat="37.4643964693" lon="-8.0727723800">
        <ele>354.86</ele>
        <time>2021-05-28T11:31:51Z</time>
      </trkpt>
      <trkpt lat="37.4641276617" lon="-8.0725974496">
        <ele>353.42</ele>
        <time>2021-05-28T11:31:53Z</time>
      </trkpt>
      <trkpt lat="37.4640034419" lon="-8.0725417938">
        <ele>352.94</ele>
        <time>2021-05-28T11:31:54Z</time>
      </trkpt>
      <trkpt lat="37.4638863467" lon="-8.0725095235">
        <ele>350.54</ele>
        <time>2021-05-28T11:31:55Z</time>
      </trkpt>
      <trkpt lat="37.4637726042" lon="-8.0724925920">
        <ele>349.10</ele>
        <time>2021-05-28T11:31:56Z</time>
      </trkpt>
      <trkpt lat="37.4635504000" lon="-8.0724662729">
        <ele>348.62</ele>
        <time>2021-05-28T11:31:58Z</time>
      </trkpt>
      <trkpt lat="37.4631939176" lon="-8.0723625887">
        <ele>348.62</ele>
        <time>2021-05-28T11:32:01Z</time>
      </trkpt>
      <trkpt lat="37.4630695302" lon="-8.0722958688">
        <ele>348.62</ele>
        <time>2021-05-28T11:32:02Z</time>
      </trkpt>
      <trkpt lat="37.4629462324" lon="-8.0722142290">
        <ele>347.65</ele>
        <time>2021-05-28T11:32:03Z</time>
      </trkpt>
      <trkpt lat="37.4628224317" lon="-8.0721223634">
        <ele>347.65</ele>
        <time>2021-05-28T11:32:04Z</time>
      </trkpt>
      <trkpt lat="37.4627013132" lon="-8.0720147397">
        <ele>346.69</ele>
        <time>2021-05-28T11:32:05Z</time>
      </trkpt>
      <trkpt lat="37.4625871517" lon="-8.0718828086">
        <ele>347.17</ele>
        <time>2021-05-28T11:32:06Z</time>
      </trkpt>
      <trkpt lat="37.4624774326" lon="-8.0717280786">
        <ele>347.17</ele>
        <time>2021-05-28T11:32:07Z</time>
      </trkpt>
      <trkpt lat="37.4620388076" lon="-8.0710808281">
        <ele>343.33</ele>
        <time>2021-05-28T11:32:11Z</time>
      </trkpt>
      <trkpt lat="37.4618108198" lon="-8.0707548559">
        <ele>340.44</ele>
        <time>2021-05-28T11:32:13Z</time>
      </trkpt>
      <trkpt lat="37.4616755359" lon="-8.0706058256">
        <ele>339.96</ele>
        <time>2021-05-28T11:32:14Z</time>
      </trkpt>
      <trkpt lat="37.4615191296" lon="-8.0704860482">
        <ele>340.44</ele>
        <time>2021-05-28T11:32:15Z</time>
      </trkpt>
      <trkpt lat="37.4613438640" lon="-8.0703947693">
        <ele>340.44</ele>
        <time>2021-05-28T11:32:16Z</time>
      </trkpt>
      <trkpt lat="37.4611533433" lon="-8.0703236070">
        <ele>339.96</ele>
        <time>2021-05-28T11:32:17Z</time>
      </trkpt>
      <trkpt lat="37.4609525129" lon="-8.0702707171">
        <ele>339.96</ele>
        <time>2021-05-28T11:32:18Z</time>
      </trkpt>
      <trkpt lat="37.4607455637" lon="-8.0702366866">
        <ele>339.00</ele>
        <time>2021-05-28T11:32:19Z</time>
      </trkpt>
      <trkpt lat="37.4605371896" lon="-8.0702175759">
        <ele>339.00</ele>
        <time>2021-05-28T11:32:20Z</time>
      </trkpt>
      <trkpt lat="37.4599199463" lon="-8.0701813661">
        <ele>336.12</ele>
        <time>2021-05-28T11:32:23Z</time>
      </trkpt>
      <trkpt lat="37.4593251664" lon="-8.0701439828">
        <ele>331.79</ele>
        <time>2021-05-28T11:32:26Z</time>
      </trkpt>
      <trkpt lat="37.4589673430" lon="-8.0701106228">
        <ele>328.43</ele>
        <time>2021-05-28T11:32:28Z</time>
      </trkpt>
      <trkpt lat="37.4588008784" lon="-8.0700627621">
        <ele>327.47</ele>
        <time>2021-05-28T11:32:29Z</time>
      </trkpt>
      <trkpt lat="37.4586375151" lon="-8.0699801166">
        <ele>326.02</ele>
        <time>2021-05-28T11:32:30Z</time>
      </trkpt>
      <trkpt lat="37.4584778398" lon="-8.0698653683">
        <ele>326.02</ele>
        <time>2021-05-28T11:32:31Z</time>
      </trkpt>
      <trkpt lat="37.4583268818" lon="-8.0697343592">
        <ele>323.62</ele>
        <time>2021-05-28T11:32:32Z</time>
      </trkpt>
      <trkpt lat="37.4579262268" lon="-8.0693425890">
        <ele>319.78</ele>
        <time>2021-05-28T11:32:35Z</time>
      </trkpt>
      <trkpt lat="37.4578147475" lon="-8.0691746157">
        <ele>318.81</ele>
        <time>2021-05-28T11:32:36Z</time>
      </trkpt>
      <trkpt lat="37.4577143323" lon="-8.0689765513">
        <ele>319.30</ele>
        <time>2021-05-28T11:32:37Z</time>
      </trkpt>
      <trkpt lat="37.4572639726" lon="-8.0678700563">
        <ele>317.37</ele>
        <time>2021-05-28T11:32:42Z</time>
      </trkpt>
      <trkpt lat="37.4570761342" lon="-8.0674698204">
        <ele>313.05</ele>
        <time>2021-05-28T11:32:44Z</time>
      </trkpt>
      <trkpt lat="37.4566947576" lon="-8.0667103361">
        <ele>309.20</ele>
        <time>2021-05-28T11:32:48Z</time>
      </trkpt>
      <trkpt lat="37.4561116286" lon="-8.0655703135">
        <ele>304.88</ele>
        <time>2021-05-28T11:32:55Z</time>
      </trkpt>
      <trkpt lat="37.4560728204" lon="-8.0654195230">
        <ele>303.91</ele>
        <time>2021-05-28T11:32:56Z</time>
      </trkpt>
      <trkpt lat="37.4560515303" lon="-8.0652817246">
        <ele>302.95</ele>
        <time>2021-05-28T11:32:57Z</time>
      </trkpt>
      <trkpt lat="37.4560304079" lon="-8.0651614442">
        <ele>302.47</ele>
        <time>2021-05-28T11:32:58Z</time>
      </trkpt>
      <trkpt lat="37.4559959583" lon="-8.0650587659">
        <ele>302.95</ele>
        <time>2021-05-28T11:32:59Z</time>
      </trkpt>
      <trkpt lat="37.4559423141" lon="-8.0649816524">
        <ele>302.95</ele>
        <time>2021-05-28T11:33:00Z</time>
      </trkpt>
      <trkpt lat="37.4558668770" lon="-8.0649263319">
        <ele>302.47</ele>
        <time>2021-05-28T11:33:01Z</time>
      </trkpt>
      <trkpt lat="37.4557728320" lon="-8.0648757052">
        <ele>303.91</ele>
        <time>2021-05-28T11:33:02Z</time>
      </trkpt>
      <trkpt lat="37.4556709919" lon="-8.0648052134">
        <ele>303.91</ele>
        <time>2021-05-28T11:33:03Z</time>
      </trkpt>
      <trkpt lat="37.4555642065" lon="-8.0647096597">
        <ele>304.88</ele>
        <time>2021-05-28T11:33:04Z</time>
      </trkpt>
      <trkpt lat="37.4554606900" lon="-8.0645998567">
        <ele>305.84</ele>
        <time>2021-05-28T11:33:05Z</time>
      </trkpt>
      <trkpt lat="37.4553613644" lon="-8.0644785706">
        <ele>305.84</ele>
        <time>2021-05-28T11:33:06Z</time>
      </trkpt>
      <trkpt lat="37.4552631285" lon="-8.0643383414">
        <ele>307.28</ele>
        <time>2021-05-28T11:33:07Z</time>
      </trkpt>
      <trkpt lat="37.4551655632" lon="-8.0641813483">
        <ele>311.12</ele>
        <time>2021-05-28T11:33:08Z</time>
      </trkpt>
      <trkpt lat="37.4549621344" lon="-8.0638347566">
        <ele>315.45</ele>
        <time>2021-05-28T11:33:10Z</time>
      </trkpt>
      <trkpt lat="37.4548589531" lon="-8.0636554677">
        <ele>315.45</ele>
        <time>2021-05-28T11:33:11Z</time>
      </trkpt>
      <trkpt lat="37.4542646762" lon="-8.0626867712">
        <ele>318.33</ele>
        <time>2021-05-28T11:33:18Z</time>
      </trkpt>
      <trkpt lat="37.4541912507" lon="-8.0626140162">
        <ele>318.33</ele>
        <time>2021-05-28T11:33:19Z</time>
      </trkpt>
      <trkpt lat="37.4541215971" lon="-8.0625560973">
        <ele>319.30</ele>
        <time>2021-05-28T11:33:20Z</time>
      </trkpt>
      <trkpt lat="37.4537284020" lon="-8.0622219946">
        <ele>319.78</ele>
        <time>2021-05-28T11:33:25Z</time>
      </trkpt>
      <trkpt lat="37.4536491930" lon="-8.0621225014">
        <ele>319.78</ele>
        <time>2021-05-28T11:33:26Z</time>
      </trkpt>
      <trkpt lat="37.4535747617" lon="-8.0620105192">
        <ele>320.26</ele>
        <time>2021-05-28T11:33:27Z</time>
      </trkpt>
      <trkpt lat="37.4529408384" lon="-8.0608286709">
        <ele>320.74</ele>
        <time>2021-05-28T11:33:36Z</time>
      </trkpt>
      <trkpt lat="37.4528604560" lon="-8.0606724322">
        <ele>320.74</ele>
        <time>2021-05-28T11:33:37Z</time>
      </trkpt>
      <trkpt lat="37.4524893891" lon="-8.0600287858">
        <ele>317.85</ele>
        <time>2021-05-28T11:33:41Z</time>
      </trkpt>
      <trkpt lat="37.4523750599" lon="-8.0599111877">
        <ele>316.41</ele>
        <time>2021-05-28T11:33:42Z</time>
      </trkpt>
      <trkpt lat="37.4522455595" lon="-8.0598271172">
        <ele>314.49</ele>
        <time>2021-05-28T11:33:43Z</time>
      </trkpt>
      <trkpt lat="37.4521028157" lon="-8.0597887281">
        <ele>314.49</ele>
        <time>2021-05-28T11:33:44Z</time>
      </trkpt>
      <trkpt lat="37.4519557972" lon="-8.0597940926">
        <ele>314.01</ele>
        <time>2021-05-28T11:33:45Z</time>
      </trkpt>
      <trkpt lat="37.4518139753" lon="-8.0597970262">
        <ele>313.05</ele>
        <time>2021-05-28T11:33:46Z</time>
      </trkpt>
      <trkpt lat="37.4516784400" lon="-8.0597695336">
        <ele>311.60</ele>
        <time>2021-05-28T11:33:47Z</time>
      </trkpt>
      <trkpt lat="37.4515543878" lon="-8.0596935935">
        <ele>310.64</ele>
        <time>2021-05-28T11:33:48Z</time>
      </trkpt>
      <trkpt lat="37.4514510389" lon="-8.0595682003">
        <ele>311.12</ele>
        <time>2021-05-28T11:33:49Z</time>
      </trkpt>
      <trkpt lat="37.4513674714" lon="-8.0594001431">
        <ele>310.64</ele>
        <time>2021-05-28T11:33:50Z</time>
      </trkpt>
      <trkpt lat="37.4512942135" lon="-8.0592081975">
        <ele>311.12</ele>
        <time>2021-05-28T11:33:51Z</time>
      </trkpt>
      <trkpt lat="37.4512128253" lon="-8.0590232089">
        <ele>311.12</ele>
        <time>2021-05-28T11:33:52Z</time>
      </trkpt>
      <trkpt lat="37.4511162657" lon="-8.0588521343">
        <ele>309.68</ele>
        <time>2021-05-28T11:33:53Z</time>
      </trkpt>
      <trkpt lat="37.4509226438" lon="-8.0585104879">
        <ele>308.72</ele>
        <time>2021-05-28T11:33:55Z</time>
      </trkpt>
      <trkpt lat="37.4508436862" lon="-8.0583197158">
        <ele>307.76</ele>
        <time>2021-05-28T11:33:56Z</time>
      </trkpt>
      <trkpt lat="37.4506562669" lon="-8.0576873012">
        <ele>306.32</ele>
        <time>2021-05-28T11:33:59Z</time>
      </trkpt>
      <trkpt lat="37.4506115913" lon="-8.0574561283">
        <ele>304.88</ele>
        <time>2021-05-28T11:34:00Z</time>
      </trkpt>
      <trkpt lat="37.4505837634" lon="-8.0572125502">
        <ele>305.36</ele>
        <time>2021-05-28T11:34:01Z</time>
      </trkpt>
      <trkpt lat="37.4505716935" lon="-8.0569597520">
        <ele>303.91</ele>
        <time>2021-05-28T11:34:02Z</time>
      </trkpt>
      <trkpt lat="37.4505739566" lon="-8.0567153357">
        <ele>304.88</ele>
        <time>2021-05-28T11:34:03Z</time>
      </trkpt>
      <trkpt lat="37.4505874515" lon="-8.0564889405">
        <ele>302.95</ele>
        <time>2021-05-28T11:34:04Z</time>
      </trkpt>
      <trkpt lat="37.4506120943" lon="-8.0560851842">
        <ele>299.59</ele>
        <time>2021-05-28T11:34:06Z</time>
      </trkpt>
      <trkpt lat="37.4506041314" lon="-8.0559024587">
        <ele>298.63</ele>
        <time>2021-05-28T11:34:07Z</time>
      </trkpt>
      <trkpt lat="37.4505739566" lon="-8.0557287019">
        <ele>297.67</ele>
        <time>2021-05-28T11:34:08Z</time>
      </trkpt>
      <trkpt lat="37.4505197257" lon="-8.0555591360">
        <ele>297.67</ele>
        <time>2021-05-28T11:34:09Z</time>
      </trkpt>
      <trkpt lat="37.4504429474" lon="-8.0553869717">
        <ele>298.63</ele>
        <time>2021-05-28T11:34:10Z</time>
      </trkpt>
      <trkpt lat="37.4503460526" lon="-8.0552152265">
        <ele>298.15</ele>
        <time>2021-05-28T11:34:11Z</time>
      </trkpt>
      <trkpt lat="37.4502287060" lon="-8.0550522823">
        <ele>298.15</ele>
        <time>2021-05-28T11:34:12Z</time>
      </trkpt>
      <trkpt lat="37.4500930030" lon="-8.0548923556">
        <ele>299.11</ele>
        <time>2021-05-28T11:34:13Z</time>
      </trkpt>
      <trkpt lat="37.4499459844" lon="-8.0547320098">
        <ele>299.11</ele>
        <time>2021-05-28T11:34:14Z</time>
      </trkpt>
      <trkpt lat="37.4486177880" lon="-8.0533895642">
        <ele>294.30</ele>
        <time>2021-05-28T11:34:23Z</time>
      </trkpt>
      <trkpt lat="37.4485005252" lon="-8.0533581320">
        <ele>294.30</ele>
        <time>2021-05-28T11:34:24Z</time>
      </trkpt>
      <trkpt lat="37.4483888783" lon="-8.0533731356">
        <ele>294.30</ele>
        <time>2021-05-28T11:34:25Z</time>
      </trkpt>
      <trkpt lat="37.4482774828" lon="-8.0534300487">
        <ele>295.26</ele>
        <time>2021-05-28T11:34:26Z</time>
      </trkpt>
      <trkpt lat="37.4481548555" lon="-8.0535087548">
        <ele>295.26</ele>
        <time>2021-05-28T11:34:27Z</time>
      </trkpt>
      <trkpt lat="37.4479096849" lon="-8.0536496546">
        <ele>295.26</ele>
        <time>2021-05-28T11:34:29Z</time>
      </trkpt>
      <trkpt lat="37.4477955233" lon="-8.0536748003">
        <ele>294.78</ele>
        <time>2021-05-28T11:34:30Z</time>
      </trkpt>
      <trkpt lat="37.4476803560" lon="-8.0536510795">
        <ele>295.26</ele>
        <time>2021-05-28T11:34:31Z</time>
      </trkpt>
      <trkpt lat="37.4475598242" lon="-8.0535776541">
        <ele>295.74</ele>
        <time>2021-05-28T11:34:32Z</time>
      </trkpt>
      <trkpt lat="37.4474325869" lon="-8.0534693599">
        <ele>297.18</ele>
        <time>2021-05-28T11:34:33Z</time>
      </trkpt>
      <trkpt lat="37.4473025836" lon="-8.0533496663">
        <ele>298.63</ele>
        <time>2021-05-28T11:34:34Z</time>
      </trkpt>
      <trkpt lat="37.4465448596" lon="-8.0526458379">
        <ele>301.99</ele>
        <time>2021-05-28T11:34:39Z</time>
      </trkpt>
      <trkpt lat="37.4463812448" lon="-8.0524950475">
        <ele>301.51</ele>
        <time>2021-05-28T11:34:40Z</time>
      </trkpt>
      <trkpt lat="37.4459345732" lon="-8.0521493778">
        <ele>300.07</ele>
        <time>2021-05-28T11:34:43Z</time>
      </trkpt>
      <trkpt lat="37.4457837828" lon="-8.0520987511">
        <ele>298.63</ele>
        <time>2021-05-28T11:34:44Z</time>
      </trkpt>
      <trkpt lat="37.4456228502" lon="-8.0520851724">
        <ele>299.11</ele>
        <time>2021-05-28T11:34:45Z</time>
      </trkpt>
      <trkpt lat="37.4454577267" lon="-8.0520995893">
        <ele>299.11</ele>
        <time>2021-05-28T11:34:46Z</time>
      </trkpt>
      <trkpt lat="37.4452980515" lon="-8.0521374755">
        <ele>300.07</ele>
        <time>2021-05-28T11:34:47Z</time>
      </trkpt>
      <trkpt lat="37.4451460037" lon="-8.0521994177">
        <ele>300.55</ele>
        <time>2021-05-28T11:34:48Z</time>
      </trkpt>
      <trkpt lat="37.4450002424" lon="-8.0522947200">
        <ele>300.55</ele>
        <time>2021-05-28T11:34:49Z</time>
      </trkpt>
      <trkpt lat="37.4448546488" lon="-8.0524236336">
        <ele>301.51</ele>
        <time>2021-05-28T11:34:50Z</time>
      </trkpt>
      <trkpt lat="37.4447060376" lon="-8.0525719933">
        <ele>302.95</ele>
        <time>2021-05-28T11:34:51Z</time>
      </trkpt>
      <trkpt lat="37.4444048759" lon="-8.0528706405">
        <ele>304.39</ele>
        <time>2021-05-28T11:34:53Z</time>
      </trkpt>
      <trkpt lat="37.4439768959" lon="-8.0532894004">
        <ele>304.88</ele>
        <time>2021-05-28T11:34:56Z</time>
      </trkpt>
      <trkpt lat="37.4438100960" lon="-8.0533997063">
        <ele>303.91</ele>
        <time>2021-05-28T11:34:57Z</time>
      </trkpt>
      <trkpt lat="37.4425106496" lon="-8.0540438555">
        <ele>305.36</ele>
        <time>2021-05-28T11:35:04Z</time>
      </trkpt>
      <trkpt lat="37.4423613679" lon="-8.0541459471">
        <ele>305.84</ele>
        <time>2021-05-28T11:35:05Z</time>
      </trkpt>
      <trkpt lat="37.4422228988" lon="-8.0542695802">
        <ele>306.80</ele>
        <time>2021-05-28T11:35:06Z</time>
      </trkpt>
      <trkpt lat="37.4421071447" lon="-8.0544040259">
        <ele>306.32</ele>
        <time>2021-05-28T11:35:07Z</time>
      </trkpt>
      <trkpt lat="37.4420176260" lon="-8.0545488652">
        <ele>306.80</ele>
        <time>2021-05-28T11:35:08Z</time>
      </trkpt>
      <trkpt lat="37.4419599585" lon="-8.0547073670">
        <ele>306.80</ele>
        <time>2021-05-28T11:35:09Z</time>
      </trkpt>
      <trkpt lat="37.4419338908" lon="-8.0548859853">
        <ele>307.76</ele>
        <time>2021-05-28T11:35:10Z</time>
      </trkpt>
      <trkpt lat="37.4419276882" lon="-8.0550767574">
        <ele>309.20</ele>
        <time>2021-05-28T11:35:11Z</time>
      </trkpt>
      <trkpt lat="37.4419217370" lon="-8.0552645959">
        <ele>310.64</ele>
        <time>2021-05-28T11:35:12Z</time>
      </trkpt>
      <trkpt lat="37.4419032130" lon="-8.0554426275">
        <ele>310.64</ele>
        <time>2021-05-28T11:35:13Z</time>
      </trkpt>
      <trkpt lat="37.4418570288" lon="-8.0556085892">
        <ele>311.12</ele>
        <time>2021-05-28T11:35:14Z</time>
      </trkpt>
      <trkpt lat="37.4417734612" lon="-8.0557523388">
        <ele>311.60</ele>
        <time>2021-05-28T11:35:15Z</time>
      </trkpt>
      <trkpt lat="37.4416536000" lon="-8.0558650754">
        <ele>312.09</ele>
        <time>2021-05-28T11:35:16Z</time>
      </trkpt>
      <trkpt lat="37.4415030610" lon="-8.0559437815">
        <ele>313.05</ele>
        <time>2021-05-28T11:35:17Z</time>
      </trkpt>
      <trkpt lat="37.4413363449" lon="-8.0559943244">
        <ele>314.49</ele>
        <time>2021-05-28T11:35:18Z</time>
      </trkpt>
      <trkpt lat="37.4411730655" lon="-8.0560146924">
        <ele>314.97</ele>
        <time>2021-05-28T11:35:19Z</time>
      </trkpt>
      <trkpt lat="37.4410140608" lon="-8.0559994373">
        <ele>314.97</ele>
        <time>2021-05-28T11:35:20Z</time>
      </trkpt>
      <trkpt lat="37.4408601690" lon="-8.0559432786">
        <ele>315.45</ele>
        <time>2021-05-28T11:35:21Z</time>
      </trkpt>
      <trkpt lat="37.4407088757" lon="-8.0558406841">
        <ele>317.37</ele>
        <time>2021-05-28T11:35:22Z</time>
      </trkpt>
      <trkpt lat="37.4405525532" lon="-8.0557079986">
        <ele>318.81</ele>
        <time>2021-05-28T11:35:23Z</time>
      </trkpt>
      <trkpt lat="37.4399215635" lon="-8.0551607441">
        <ele>317.37</ele>
        <time>2021-05-28T11:35:27Z</time>
      </trkpt>
      <trkpt lat="37.4397721142" lon="-8.0550717283">
        <ele>315.93</ele>
        <time>2021-05-28T11:35:28Z</time>
      </trkpt>
      <trkpt lat="37.4396195635" lon="-8.0550220236">
        <ele>315.93</ele>
        <time>2021-05-28T11:35:29Z</time>
      </trkpt>
      <trkpt lat="37.4394594692" lon="-8.0550088640">
        <ele>314.97</ele>
        <time>2021-05-28T11:35:30Z</time>
      </trkpt>
      <trkpt lat="37.4392914120" lon="-8.0550293159">
        <ele>316.41</ele>
        <time>2021-05-28T11:35:31Z</time>
      </trkpt>
      <trkpt lat="37.4391148891" lon="-8.0550808646">
        <ele>316.41</ele>
        <time>2021-05-28T11:35:32Z</time>
      </trkpt>
      <trkpt lat="37.4389296491" lon="-8.0551518593">
        <ele>317.37</ele>
        <time>2021-05-28T11:35:33Z</time>
      </trkpt>
      <trkpt lat="37.4385455064" lon="-8.0552930944">
        <ele>318.33</ele>
        <time>2021-05-28T11:35:35Z</time>
      </trkpt>
      <trkpt lat="37.4373004586" lon="-8.0557944160">
        <ele>317.85</ele>
        <time>2021-05-28T11:35:42Z</time>
      </trkpt>
      <trkpt lat="37.4371473212" lon="-8.0559170432">
        <ele>319.78</ele>
        <time>2021-05-28T11:35:43Z</time>
      </trkpt>
      <trkpt lat="37.4369990453" lon="-8.0560653191">
        <ele>318.81</ele>
        <time>2021-05-28T11:35:44Z</time>
      </trkpt>
      <trkpt lat="37.4362829793" lon="-8.0567448400">
        <ele>319.78</ele>
        <time>2021-05-28T11:35:49Z</time>
      </trkpt>
      <trkpt lat="37.4361258186" lon="-8.0568099674">
        <ele>320.26</ele>
        <time>2021-05-28T11:35:50Z</time>
      </trkpt>
      <trkpt lat="37.4359617848" lon="-8.0568335205">
        <ele>320.26</ele>
        <time>2021-05-28T11:35:51Z</time>
      </trkpt>
      <trkpt lat="37.4357922189" lon="-8.0568148289">
        <ele>321.22</ele>
        <time>2021-05-28T11:35:52Z</time>
      </trkpt>
      <trkpt lat="37.4356187135" lon="-8.0567577481">
        <ele>321.22</ele>
        <time>2021-05-28T11:35:53Z</time>
      </trkpt>
      <trkpt lat="37.4354416039" lon="-8.0566727556">
        <ele>321.22</ele>
        <time>2021-05-28T11:35:54Z</time>
      </trkpt>
      <trkpt lat="37.4352691881" lon="-8.0565796327">
        <ele>322.18</ele>
        <time>2021-05-28T11:35:55Z</time>
      </trkpt>
      <trkpt lat="37.4348095246" lon="-8.0563655589">
        <ele>320.26</ele>
        <time>2021-05-28T11:35:58Z</time>
      </trkpt>
      <trkpt lat="37.4346600752" lon="-8.0563516449">
        <ele>320.74</ele>
        <time>2021-05-28T11:35:59Z</time>
      </trkpt>
      <trkpt lat="37.4345103744" lon="-8.0563804787">
        <ele>319.78</ele>
        <time>2021-05-28T11:36:00Z</time>
      </trkpt>
      <trkpt lat="37.4343575723" lon="-8.0564539041">
        <ele>321.22</ele>
        <time>2021-05-28T11:36:01Z</time>
      </trkpt>
      <trkpt lat="37.4342073686" lon="-8.0565635394">
        <ele>322.66</ele>
        <time>2021-05-28T11:36:02Z</time>
      </trkpt>
      <trkpt lat="37.4340593442" lon="-8.0566919502">
        <ele>323.62</ele>
        <time>2021-05-28T11:36:03Z</time>
      </trkpt>
      <trkpt lat="37.4335867725" lon="-8.0571212713">
        <ele>326.99</ele>
        <time>2021-05-28T11:36:06Z</time>
      </trkpt>
      <trkpt lat="37.4333232455" lon="-8.0574210919">
        <ele>325.54</ele>
        <time>2021-05-28T11:36:08Z</time>
      </trkpt>
      <trkpt lat="37.4332286976" lon="-8.0575935077">
        <ele>326.02</ele>
        <time>2021-05-28T11:36:09Z</time>
      </trkpt>
      <trkpt lat="37.4331540987" lon="-8.0577798374">
        <ele>326.99</ele>
        <time>2021-05-28T11:36:10Z</time>
      </trkpt>
      <trkpt lat="37.4330851156" lon="-8.0579680111">
        <ele>326.99</ele>
        <time>2021-05-28T11:36:11Z</time>
      </trkpt>
      <trkpt lat="37.4330069963" lon="-8.0581458751">
        <ele>327.95</ele>
        <time>2021-05-28T11:36:12Z</time>
      </trkpt>
      <trkpt lat="37.4329012167" lon="-8.0582965817">
        <ele>328.43</ele>
        <time>2021-05-28T11:36:13Z</time>
      </trkpt>
      <trkpt lat="37.4327631667" lon="-8.0584128387">
        <ele>329.39</ele>
        <time>2021-05-28T11:36:14Z</time>
      </trkpt>
      <trkpt lat="37.4325977080" lon="-8.0584979989">
        <ele>330.35</ele>
        <time>2021-05-28T11:36:15Z</time>
      </trkpt>
      <trkpt lat="37.4324104562" lon="-8.0585720949">
        <ele>331.31</ele>
        <time>2021-05-28T11:36:16Z</time>
      </trkpt>
      <trkpt lat="37.4320128188" lon="-8.0587208737">
        <ele>332.27</ele>
        <time>2021-05-28T11:36:18Z</time>
      </trkpt>
      <trkpt lat="37.4312155321" lon="-8.0590320937">
        <ele>337.56</ele>
        <time>2021-05-28T11:36:22Z</time>
      </trkpt>
      <trkpt lat="37.4310072418" lon="-8.0591115542">
        <ele>337.08</ele>
        <time>2021-05-28T11:36:23Z</time>
      </trkpt>
      <trkpt lat="37.4301688839" lon="-8.0594194215">
        <ele>340.92</ele>
        <time>2021-05-28T11:36:27Z</time>
      </trkpt>
      <trkpt lat="37.4297265708" lon="-8.0595854670">
        <ele>342.37</ele>
        <time>2021-05-28T11:36:29Z</time>
      </trkpt>
      <trkpt lat="37.4287651666" lon="-8.0599677656">
        <ele>339.00</ele>
        <time>2021-05-28T11:36:34Z</time>
      </trkpt>
      <trkpt lat="37.4286040664" lon="-8.0600654986">
        <ele>339.48</ele>
        <time>2021-05-28T11:36:35Z</time>
      </trkpt>
      <trkpt lat="37.4284426309" lon="-8.0601928197">
        <ele>340.44</ele>
        <time>2021-05-28T11:36:36Z</time>
      </trkpt>
      <trkpt lat="37.4282822851" lon="-8.0603431910">
        <ele>343.33</ele>
        <time>2021-05-28T11:36:37Z</time>
      </trkpt>
      <trkpt lat="37.4276520498" lon="-8.0609831493">
        <ele>348.13</ele>
        <time>2021-05-28T11:36:41Z</time>
      </trkpt>
      <trkpt lat="37.4273221381" lon="-8.0613131449">
        <ele>351.02</ele>
        <time>2021-05-28T11:36:43Z</time>
      </trkpt>
      <trkpt lat="37.4269811623" lon="-8.0616576411">
        <ele>352.46</ele>
        <time>2021-05-28T11:36:45Z</time>
      </trkpt>
      <trkpt lat="37.4263469875" lon="-8.0624602083">
        <ele>356.79</ele>
        <time>2021-05-28T11:36:49Z</time>
      </trkpt>
      <trkpt lat="37.4261969514" lon="-8.0626902077">
        <ele>356.31</ele>
        <time>2021-05-28T11:36:50Z</time>
      </trkpt>
      <trkpt lat="37.4257194344" lon="-8.0633141566">
        <ele>358.23</ele>
        <time>2021-05-28T11:36:53Z</time>
      </trkpt>
      <trkpt lat="37.4255473539" lon="-8.0634786934">
        <ele>357.27</ele>
        <time>2021-05-28T11:36:54Z</time>
      </trkpt>
      <trkpt lat="37.4253695738" lon="-8.0636220239">
        <ele>356.79</ele>
        <time>2021-05-28T11:36:55Z</time>
      </trkpt>
      <trkpt lat="37.4251808133" lon="-8.0637452379">
        <ele>357.27</ele>
        <time>2021-05-28T11:36:56Z</time>
      </trkpt>
      <trkpt lat="37.4249752890" lon="-8.0638466589">
        <ele>359.19</ele>
        <time>2021-05-28T11:36:57Z</time>
      </trkpt>
      <trkpt lat="37.4247597065" lon="-8.0639319029">
        <ele>361.11</ele>
        <time>2021-05-28T11:36:58Z</time>
      </trkpt>
      <trkpt lat="37.4243193213" lon="-8.0641000438">
        <ele>364.48</ele>
        <time>2021-05-28T11:37:00Z</time>
      </trkpt>
      <trkpt lat="37.4234446697" lon="-8.0644382536">
        <ele>363.52</ele>
        <time>2021-05-28T11:37:05Z</time>
      </trkpt>
      <trkpt lat="37.4233255628" lon="-8.0645172112">
        <ele>362.55</ele>
        <time>2021-05-28T11:37:06Z</time>
      </trkpt>
      <trkpt lat="37.4232291710" lon="-8.0646244995">
        <ele>362.55</ele>
        <time>2021-05-28T11:37:07Z</time>
      </trkpt>
      <trkpt lat="37.4231588468" lon="-8.0647620466">
        <ele>363.52</ele>
        <time>2021-05-28T11:37:08Z</time>
      </trkpt>
      <trkpt lat="37.4231178593" lon="-8.0649197102">
        <ele>365.44</ele>
        <time>2021-05-28T11:37:09Z</time>
      </trkpt>
      <trkpt lat="37.4231026880" lon="-8.0650970712">
        <ele>367.36</ele>
        <time>2021-05-28T11:37:10Z</time>
      </trkpt>
      <trkpt lat="37.4231000897" lon="-8.0652991589">
        <ele>368.32</ele>
        <time>2021-05-28T11:37:11Z</time>
      </trkpt>
      <trkpt lat="37.4231163505" lon="-8.0657416396">
        <ele>370.73</ele>
        <time>2021-05-28T11:37:13Z</time>
      </trkpt>
      <trkpt lat="37.4231349584" lon="-8.0667891260">
        <ele>368.32</ele>
        <time>2021-05-28T11:37:18Z</time>
      </trkpt>
      <trkpt lat="37.4231104832" lon="-8.0669530760">
        <ele>366.88</ele>
        <time>2021-05-28T11:37:19Z</time>
      </trkpt>
      <trkpt lat="37.4230587669" lon="-8.0671014357">
        <ele>365.92</ele>
        <time>2021-05-28T11:37:20Z</time>
      </trkpt>
      <trkpt lat="37.4229728524" lon="-8.0672376417">
        <ele>365.92</ele>
        <time>2021-05-28T11:37:21Z</time>
      </trkpt>
      <trkpt lat="37.4228546675" lon="-8.0673621129">
        <ele>367.36</ele>
        <time>2021-05-28T11:37:22Z</time>
      </trkpt>
      <trkpt lat="37.4227118399" lon="-8.0674802139">
        <ele>369.28</ele>
        <time>2021-05-28T11:37:23Z</time>
      </trkpt>
      <trkpt lat="37.4225533381" lon="-8.0676003266">
        <ele>370.73</ele>
        <time>2021-05-28T11:37:24Z</time>
      </trkpt>
      <trkpt lat="37.4222096801" lon="-8.0678633507">
        <ele>374.09</ele>
        <time>2021-05-28T11:37:26Z</time>
      </trkpt>
      <trkpt lat="37.4220345821" lon="-8.0679950304">
        <ele>374.09</ele>
        <time>2021-05-28T11:37:27Z</time>
      </trkpt>
      <trkpt lat="37.4212940410" lon="-8.0684532691">
        <ele>377.45</ele>
        <time>2021-05-28T11:37:31Z</time>
      </trkpt>
      <trkpt lat="37.4205718562" lon="-8.0688243359">
        <ele>377.94</ele>
        <time>2021-05-28T11:37:35Z</time>
      </trkpt>
      <trkpt lat="37.4204181321" lon="-8.0689458735">
        <ele>378.90</ele>
        <time>2021-05-28T11:37:36Z</time>
      </trkpt>
      <trkpt lat="37.4199369270" lon="-8.0694104824">
        <ele>383.70</ele>
        <time>2021-05-28T11:37:39Z</time>
      </trkpt>
      <trkpt lat="37.4197691213" lon="-8.0695771147">
        <ele>383.70</ele>
        <time>2021-05-28T11:37:40Z</time>
      </trkpt>
      <trkpt lat="37.4192852341" lon="-8.0700045079">
        <ele>383.70</ele>
        <time>2021-05-28T11:37:43Z</time>
      </trkpt>
      <trkpt lat="37.4191194400" lon="-8.0700952001">
        <ele>384.66</ele>
        <time>2021-05-28T11:37:44Z</time>
      </trkpt>
      <trkpt lat="37.4189490359" lon="-8.0701529514">
        <ele>384.18</ele>
        <time>2021-05-28T11:37:45Z</time>
      </trkpt>
      <trkpt lat="37.4187803082" lon="-8.0701759178">
        <ele>385.15</ele>
        <time>2021-05-28T11:37:46Z</time>
      </trkpt>
      <trkpt lat="37.4186161906" lon="-8.0701624230">
        <ele>386.59</ele>
        <time>2021-05-28T11:37:47Z</time>
      </trkpt>
      <trkpt lat="37.4184577726" lon="-8.0701133050">
        <ele>386.59</ele>
        <time>2021-05-28T11:37:48Z</time>
      </trkpt>
      <trkpt lat="37.4183074012" lon="-8.0700462498">
        <ele>387.55</ele>
        <time>2021-05-28T11:37:49Z</time>
      </trkpt>
      <trkpt lat="37.4181667529" lon="-8.0699811224">
        <ele>387.55</ele>
        <time>2021-05-28T11:37:50Z</time>
      </trkpt>
      <trkpt lat="37.4177888967" lon="-8.0698237102">
        <ele>389.47</ele>
        <time>2021-05-28T11:37:53Z</time>
      </trkpt>
      <trkpt lat="37.4176597316" lon="-8.0697978102">
        <ele>390.43</ele>
        <time>2021-05-28T11:37:54Z</time>
      </trkpt>
      <trkpt lat="37.4175356794" lon="-8.0697914399">
        <ele>390.43</ele>
        <time>2021-05-28T11:37:55Z</time>
      </trkpt>
      <trkpt lat="37.4174239486" lon="-8.0697971396">
        <ele>389.47</ele>
        <time>2021-05-28T11:37:56Z</time>
      </trkpt>
      <trkpt lat="37.4173285626" lon="-8.0698065273">
        <ele>388.99</ele>
        <time>2021-05-28T11:37:57Z</time>
      </trkpt>
      <trkpt lat="37.4170657899" lon="-8.0698370375">
        <ele>390.43</ele>
        <time>2021-05-28T11:38:00Z</time>
      </trkpt>
      <trkpt lat="37.4161546770" lon="-8.0699315015">
        <ele>390.91</ele>
        <time>2021-05-28T11:38:07Z</time>
      </trkpt>
      <trkpt lat="37.4150523730" lon="-8.0700233672">
        <ele>388.99</ele>
        <time>2021-05-28T11:38:14Z</time>
      </trkpt>
      <trkpt lat="37.4149098806" lon="-8.0699829664">
        <ele>388.51</ele>
        <time>2021-05-28T11:38:15Z</time>
      </trkpt>
      <trkpt lat="37.4147751834" lon="-8.0699260533">
        <ele>387.07</ele>
        <time>2021-05-28T11:38:16Z</time>
      </trkpt>
      <trkpt lat="37.4146479461" lon="-8.0698729958">
        <ele>386.59</ele>
        <time>2021-05-28T11:38:17Z</time>
      </trkpt>
      <trkpt lat="37.4145259056" lon="-8.0698378757">
        <ele>386.59</ele>
        <time>2021-05-28T11:38:18Z</time>
      </trkpt>
      <trkpt lat="37.4144052900" lon="-8.0698251352">
        <ele>385.63</ele>
        <time>2021-05-28T11:38:19Z</time>
      </trkpt>
      <trkpt lat="37.4142862670" lon="-8.0698294099">
        <ele>385.15</ele>
        <time>2021-05-28T11:38:20Z</time>
      </trkpt>
      <trkpt lat="37.4141653161" lon="-8.0698490236">
        <ele>386.11</ele>
        <time>2021-05-28T11:38:21Z</time>
      </trkpt>
      <trkpt lat="37.4140387494" lon="-8.0698770192">
        <ele>386.59</ele>
        <time>2021-05-28T11:38:22Z</time>
      </trkpt>
      <trkpt lat="37.4131407961" lon="-8.0700595770">
        <ele>388.99</ele>
        <time>2021-05-28T11:38:30Z</time>
      </trkpt>
      <trkpt lat="37.4127211981" lon="-8.0701746605">
        <ele>390.43</ele>
        <time>2021-05-28T11:38:34Z</time>
      </trkpt>
      <trkpt lat="37.4123395700" lon="-8.0703395326">
        <ele>394.76</ele>
        <time>2021-05-28T11:38:37Z</time>
      </trkpt>
      <trkpt lat="37.4117172975" lon="-8.0705967732">
        <ele>400.05</ele>
        <time>2021-05-28T11:38:41Z</time>
      </trkpt>
      <trkpt lat="37.4112210888" lon="-8.0707734637">
        <ele>402.93</ele>
        <time>2021-05-28T11:38:44Z</time>
      </trkpt>
      <trkpt lat="37.4110692088" lon="-8.0708622281">
        <ele>402.93</ele>
        <time>2021-05-28T11:38:45Z</time>
      </trkpt>
      <trkpt lat="37.4109151494" lon="-8.0709519144">
        <ele>403.89</ele>
        <time>2021-05-28T11:38:46Z</time>
      </trkpt>
      <trkpt lat="37.4107513670" lon="-8.0710304528">
        <ele>406.77</ele>
        <time>2021-05-28T11:38:47Z</time>
      </trkpt>
      <trkpt lat="37.4105865788" lon="-8.0710980948">
        <ele>407.26</ele>
        <time>2021-05-28T11:38:48Z</time>
      </trkpt>
      <trkpt lat="37.4098631367" lon="-8.0713717639">
        <ele>408.70</ele>
        <time>2021-05-28T11:38:53Z</time>
      </trkpt>
      <trkpt lat="37.4097423535" lon="-8.0713855103">
        <ele>408.70</ele>
        <time>2021-05-28T11:38:54Z</time>
      </trkpt>
      <trkpt lat="37.4096271023" lon="-8.0713671539">
        <ele>408.70</ele>
        <time>2021-05-28T11:38:55Z</time>
      </trkpt>
      <trkpt lat="37.4095131084" lon="-8.0713236518">
        <ele>410.14</ele>
        <time>2021-05-28T11:38:56Z</time>
      </trkpt>
      <trkpt lat="37.4094056524" lon="-8.0712608714">
        <ele>410.14</ele>
        <time>2021-05-28T11:38:57Z</time>
      </trkpt>
      <trkpt lat="37.4093082547" lon="-8.0711903796">
        <ele>411.10</ele>
        <time>2021-05-28T11:38:58Z</time>
      </trkpt>
      <trkpt lat="37.4091078434" lon="-8.0710199755">
        <ele>412.06</ele>
        <time>2021-05-28T11:39:00Z</time>
      </trkpt>
      <trkpt lat="37.4088606611" lon="-8.0708222464">
        <ele>415.91</ele>
        <time>2021-05-28T11:39:02Z</time>
      </trkpt>
      <trkpt lat="37.4085489381" lon="-8.0706530996">
        <ele>419.27</ele>
        <time>2021-05-28T11:39:04Z</time>
      </trkpt>
      <trkpt lat="37.4084373750" lon="-8.0706151295">
        <ele>419.27</ele>
        <time>2021-05-28T11:39:05Z</time>
      </trkpt>
      <trkpt lat="37.4083108082" lon="-8.0705980305">
        <ele>419.75</ele>
        <time>2021-05-28T11:39:06Z</time>
      </trkpt>
      <trkpt lat="37.4081989937" lon="-8.0706145428">
        <ele>420.23</ele>
        <time>2021-05-28T11:39:07Z</time>
      </trkpt>
      <trkpt lat="37.4081046134" lon="-8.0706674326">
        <ele>420.23</ele>
        <time>2021-05-28T11:39:08Z</time>
      </trkpt>
      <trkpt lat="37.4080328643" lon="-8.0707591306">
        <ele>420.71</ele>
        <time>2021-05-28T11:39:09Z</time>
      </trkpt>
      <trkpt lat="37.4079902843" lon="-8.0708808359">
        <ele>422.16</ele>
        <time>2021-05-28T11:39:10Z</time>
      </trkpt>
      <trkpt lat="37.4079756159" lon="-8.0710208137">
        <ele>424.08</ele>
        <time>2021-05-28T11:39:11Z</time>
      </trkpt>
      <trkpt lat="37.4079834111" lon="-8.0711777229">
        <ele>426.00</ele>
        <time>2021-05-28T11:39:12Z</time>
      </trkpt>
      <trkpt lat="37.4080026057" lon="-8.0713420920">
        <ele>426.96</ele>
        <time>2021-05-28T11:39:13Z</time>
      </trkpt>
      <trkpt lat="37.4080353789" lon="-8.0716387276">
        <ele>429.37</ele>
        <time>2021-05-28T11:39:15Z</time>
      </trkpt>
      <trkpt lat="37.4080268294" lon="-8.0717718322">
        <ele>430.81</ele>
        <time>2021-05-28T11:39:16Z</time>
      </trkpt>
      <trkpt lat="37.4079876021" lon="-8.0719059426">
        <ele>432.25</ele>
        <time>2021-05-28T11:39:17Z</time>
      </trkpt>
      <trkpt lat="37.4079143442" lon="-8.0720406398">
        <ele>434.17</ele>
        <time>2021-05-28T11:39:18Z</time>
      </trkpt>
      <trkpt lat="37.4078208022" lon="-8.0721817072">
        <ele>435.61</ele>
        <time>2021-05-28T11:39:19Z</time>
      </trkpt>
      <trkpt lat="37.4076250009" lon="-8.0724684522">
        <ele>439.46</ele>
        <time>2021-05-28T11:39:21Z</time>
      </trkpt>
      <trkpt lat="37.4074091669" lon="-8.0727362540">
        <ele>443.79</ele>
        <time>2021-05-28T11:39:23Z</time>
      </trkpt>
      <trkpt lat="37.4071594700" lon="-8.0730313808">
        <ele>446.67</ele>
        <time>2021-05-28T11:39:25Z</time>
      </trkpt>
      <trkpt lat="37.4068770837" lon="-8.0733576044">
        <ele>451.96</ele>
        <time>2021-05-28T11:39:27Z</time>
      </trkpt>
      <trkpt lat="37.4067328312" lon="-8.0735232309">
        <ele>452.44</ele>
        <time>2021-05-28T11:39:28Z</time>
      </trkpt>
      <trkpt lat="37.4059744366" lon="-8.0743307434">
        <ele>455.32</ele>
        <time>2021-05-28T11:39:33Z</time>
      </trkpt>
      <trkpt lat="37.4053137749" lon="-8.0749325640">
        <ele>453.88</ele>
        <time>2021-05-28T11:39:38Z</time>
      </trkpt>
      <trkpt lat="37.4052320514" lon="-8.0750374217">
        <ele>453.88</ele>
        <time>2021-05-28T11:39:39Z</time>
      </trkpt>
      <trkpt lat="37.4051746354" lon="-8.0751568638">
        <ele>453.88</ele>
        <time>2021-05-28T11:39:40Z</time>
      </trkpt>
      <trkpt lat="37.4051411916" lon="-8.0752889626">
        <ele>452.92</ele>
        <time>2021-05-28T11:39:41Z</time>
      </trkpt>
      <trkpt lat="37.4051136989" lon="-8.0754244979">
        <ele>451.48</ele>
        <time>2021-05-28T11:39:42Z</time>
      </trkpt>
      <trkpt lat="37.4050640780" lon="-8.0755597819">
        <ele>450.52</ele>
        <time>2021-05-28T11:39:43Z</time>
      </trkpt>
      <trkpt lat="37.4049766548" lon="-8.0756933894">
        <ele>449.55</ele>
        <time>2021-05-28T11:39:44Z</time>
      </trkpt>
      <trkpt lat="37.4048577994" lon="-8.0758300982">
        <ele>448.59</ele>
        <time>2021-05-28T11:39:45Z</time>
      </trkpt>
      <trkpt lat="37.4047204200" lon="-8.0759731773">
        <ele>447.63</ele>
        <time>2021-05-28T11:39:46Z</time>
      </trkpt>
      <trkpt lat="37.4044371117" lon="-8.0762852356">
        <ele>443.79</ele>
        <time>2021-05-28T11:39:48Z</time>
      </trkpt>
      <trkpt lat="37.4043135624" lon="-8.0764711462">
        <ele>443.79</ele>
        <time>2021-05-28T11:39:49Z</time>
      </trkpt>
      <trkpt lat="37.4042067770" lon="-8.0766765028">
        <ele>444.27</ele>
        <time>2021-05-28T11:39:50Z</time>
      </trkpt>
      <trkpt lat="37.4041180126" lon="-8.0768945999">
        <ele>444.75</ele>
        <time>2021-05-28T11:39:51Z</time>
      </trkpt>
      <trkpt lat="37.4040418211" lon="-8.0771245994">
        <ele>445.71</ele>
        <time>2021-05-28T11:39:52Z</time>
      </trkpt>
      <trkpt lat="37.4039787892" lon="-8.0773673393">
        <ele>447.15</ele>
        <time>2021-05-28T11:39:53Z</time>
      </trkpt>
      <trkpt lat="37.4039255641" lon="-8.0776184611">
        <ele>446.67</ele>
        <time>2021-05-28T11:39:54Z</time>
      </trkpt>
      <trkpt lat="37.4036001787" lon="-8.0790904909">
        <ele>443.79</ele>
        <time>2021-05-28T11:40:01Z</time>
      </trkpt>
      <trkpt lat="37.4035337102" lon="-8.0792152975">
        <ele>441.38</ele>
        <time>2021-05-28T11:40:02Z</time>
      </trkpt>
      <trkpt lat="37.4034403358" lon="-8.0793232564">
        <ele>442.34</ele>
        <time>2021-05-28T11:40:03Z</time>
      </trkpt>
      <trkpt lat="37.4033280183" lon="-8.0794052314">
        <ele>441.86</ele>
        <time>2021-05-28T11:40:04Z</time>
      </trkpt>
      <trkpt lat="37.4032006133" lon="-8.0794509966">
        <ele>441.86</ele>
        <time>2021-05-28T11:40:05Z</time>
      </trkpt>
      <trkpt lat="37.4030526727" lon="-8.0794608034">
        <ele>441.86</ele>
        <time>2021-05-28T11:40:06Z</time>
      </trkpt>
      <trkpt lat="37.4028870463" lon="-8.0794506613">
        <ele>442.34</ele>
        <time>2021-05-28T11:40:07Z</time>
      </trkpt>
      <trkpt lat="37.4019977264" lon="-8.0793971848">
        <ele>445.71</ele>
        <time>2021-05-28T11:40:12Z</time>
      </trkpt>
      <trkpt lat="37.4018480256" lon="-8.0793576222">
        <ele>446.67</ele>
        <time>2021-05-28T11:40:13Z</time>
      </trkpt>
      <trkpt lat="37.4015800562" lon="-8.0792758148">
        <ele>448.11</ele>
        <time>2021-05-28T11:40:15Z</time>
      </trkpt>
      <trkpt lat="37.4014508072" lon="-8.0792603083">
        <ele>449.07</ele>
        <time>2021-05-28T11:40:16Z</time>
      </trkpt>
      <trkpt lat="37.4013170321" lon="-8.0792731326">
        <ele>451.48</ele>
        <time>2021-05-28T11:40:17Z</time>
      </trkpt>
      <trkpt lat="37.4011744559" lon="-8.0793114379">
        <ele>453.40</ele>
        <time>2021-05-28T11:40:18Z</time>
      </trkpt>
      <trkpt lat="37.4010198098" lon="-8.0793630704">
        <ele>454.36</ele>
        <time>2021-05-28T11:40:19Z</time>
      </trkpt>
      <trkpt lat="37.4006920774" lon="-8.0794792436">
        <ele>459.65</ele>
        <time>2021-05-28T11:40:21Z</time>
      </trkpt>
      <trkpt lat="37.4004049134" lon="-8.0795913097">
        <ele>461.09</ele>
        <time>2021-05-28T11:40:23Z</time>
      </trkpt>
      <trkpt lat="37.4002780952" lon="-8.0796743743">
        <ele>461.57</ele>
        <time>2021-05-28T11:40:24Z</time>
      </trkpt>
      <trkpt lat="37.4001583178" lon="-8.0797869433">
        <ele>463.97</ele>
        <time>2021-05-28T11:40:25Z</time>
      </trkpt>
      <trkpt lat="37.3999129795" lon="-8.0800189544">
        <ele>466.38</ele>
        <time>2021-05-28T11:40:27Z</time>
      </trkpt>
      <trkpt lat="37.3997802939" lon="-8.0800904520">
        <ele>466.38</ele>
        <time>2021-05-28T11:40:28Z</time>
      </trkpt>
      <trkpt lat="37.3996498715" lon="-8.0801166873">
        <ele>467.34</ele>
        <time>2021-05-28T11:40:29Z</time>
      </trkpt>
      <trkpt lat="37.3995181080" lon="-8.0800963193">
        <ele>467.82</ele>
        <time>2021-05-28T11:40:30Z</time>
      </trkpt>
      <trkpt lat="37.3993748613" lon="-8.0800485425">
        <ele>470.22</ele>
        <time>2021-05-28T11:40:31Z</time>
      </trkpt>
      <trkpt lat="37.3989271000" lon="-8.0798980035">
        <ele>472.14</ele>
        <time>2021-05-28T11:40:34Z</time>
      </trkpt>
      <trkpt lat="37.3987936601" lon="-8.0798881967">
        <ele>472.14</ele>
        <time>2021-05-28T11:40:35Z</time>
      </trkpt>
      <trkpt lat="37.3986618128" lon="-8.0799089000">
        <ele>473.11</ele>
        <time>2021-05-28T11:40:36Z</time>
      </trkpt>
      <trkpt lat="37.3985328153" lon="-8.0799684115">
        <ele>474.07</ele>
        <time>2021-05-28T11:40:37Z</time>
      </trkpt>
      <trkpt lat="37.3984086793" lon="-8.0800685752">
        <ele>476.95</ele>
        <time>2021-05-28T11:40:38Z</time>
      </trkpt>
      <trkpt lat="37.3982862197" lon="-8.0801941361">
        <ele>478.87</ele>
        <time>2021-05-28T11:40:39Z</time>
      </trkpt>
      <trkpt lat="37.3981589824" lon="-8.0803279113">
        <ele>479.84</ele>
        <time>2021-05-28T11:40:40Z</time>
      </trkpt>
      <trkpt lat="37.3980226927" lon="-8.0804532208">
        <ele>481.76</ele>
        <time>2021-05-28T11:40:41Z</time>
      </trkpt>
      <trkpt lat="37.3978738301" lon="-8.0805556476">
        <ele>481.76</ele>
        <time>2021-05-28T11:40:42Z</time>
      </trkpt>
      <trkpt lat="37.3977201898" lon="-8.0806335155">
        <ele>482.72</ele>
        <time>2021-05-28T11:40:43Z</time>
      </trkpt>
      <trkpt lat="37.3974625301" lon="-8.0807740800">
        <ele>484.16</ele>
        <time>2021-05-28T11:40:45Z</time>
      </trkpt>
      <trkpt lat="37.3973616119" lon="-8.0808622576">
        <ele>485.12</ele>
        <time>2021-05-28T11:40:46Z</time>
      </trkpt>
      <trkpt lat="37.3972591013" lon="-8.0809476692">
        <ele>485.60</ele>
        <time>2021-05-28T11:40:47Z</time>
      </trkpt>
      <trkpt lat="37.3971357197" lon="-8.0810038280">
        <ele>486.56</ele>
        <time>2021-05-28T11:40:48Z</time>
      </trkpt>
      <trkpt lat="37.3969890364" lon="-8.0810263753">
        <ele>488.01</ele>
        <time>2021-05-28T11:40:49Z</time>
      </trkpt>
      <trkpt lat="37.3968238290" lon="-8.0810238607">
        <ele>488.97</ele>
        <time>2021-05-28T11:40:50Z</time>
      </trkpt>
      <trkpt lat="37.3966455460" lon="-8.0810021516">
        <ele>489.45</ele>
        <time>2021-05-28T11:40:51Z</time>
      </trkpt>
      <trkpt lat="37.3964624014" lon="-8.0809630081">
        <ele>488.49</ele>
        <time>2021-05-28T11:40:52Z</time>
      </trkpt>
      <trkpt lat="37.3962897342" lon="-8.0809148960">
        <ele>488.01</ele>
        <time>2021-05-28T11:40:53Z</time>
      </trkpt>
      <trkpt lat="37.3961376864" lon="-8.0808459967">
        <ele>487.53</ele>
        <time>2021-05-28T11:40:54Z</time>
      </trkpt>
      <trkpt lat="37.3960081860" lon="-8.0807373673">
        <ele>488.01</ele>
        <time>2021-05-28T11:40:55Z</time>
      </trkpt>
      <trkpt lat="37.3958957009" lon="-8.0805895943">
        <ele>489.93</ele>
        <time>2021-05-28T11:40:56Z</time>
      </trkpt>
      <trkpt lat="37.3956781905" lon="-8.0802368000">
        <ele>493.29</ele>
        <time>2021-05-28T11:40:58Z</time>
      </trkpt>
      <trkpt lat="37.3954611830" lon="-8.0798981711">
        <ele>494.74</ele>
        <time>2021-05-28T11:41:00Z</time>
      </trkpt>
      <trkpt lat="37.3953327723" lon="-8.0797705147">
        <ele>495.70</ele>
        <time>2021-05-28T11:41:01Z</time>
      </trkpt>
      <trkpt lat="37.3951850832" lon="-8.0796608794">
        <ele>496.66</ele>
        <time>2021-05-28T11:41:02Z</time>
      </trkpt>
      <trkpt lat="37.3948592786" lon="-8.0794513319">
        <ele>498.58</ele>
        <time>2021-05-28T11:41:04Z</time>
      </trkpt>
      <trkpt lat="37.3945716117" lon="-8.0792258587">
        <ele>498.10</ele>
        <time>2021-05-28T11:41:06Z</time>
      </trkpt>
      <trkpt lat="37.3944640718" lon="-8.0790721346">
        <ele>498.10</ele>
        <time>2021-05-28T11:41:07Z</time>
      </trkpt>
      <trkpt lat="37.3943706974" lon="-8.0788906664">
        <ele>499.06</ele>
        <time>2021-05-28T11:41:08Z</time>
      </trkpt>
      <trkpt lat="37.3941856250" lon="-8.0785088707">
        <ele>500.50</ele>
        <time>2021-05-28T11:41:10Z</time>
      </trkpt>
      <trkpt lat="37.3939641751" lon="-8.0781377200">
        <ele>500.02</ele>
        <time>2021-05-28T11:41:12Z</time>
      </trkpt>
      <trkpt lat="37.3938304000" lon="-8.0779642984">
        <ele>500.50</ele>
        <time>2021-05-28T11:41:13Z</time>
      </trkpt>
      <trkpt lat="37.3924204800" lon="-8.0763910990">
        <ele>499.06</ele>
        <time>2021-05-28T11:41:22Z</time>
      </trkpt>
      <trkpt lat="37.3921408597" lon="-8.0760497879">
        <ele>498.58</ele>
        <time>2021-05-28T11:41:24Z</time>
      </trkpt>
      <trkpt lat="37.3920243513" lon="-8.0758625362">
        <ele>497.62</ele>
        <time>2021-05-28T11:41:25Z</time>
      </trkpt>
      <trkpt lat="37.3918294720" lon="-8.0755042937">
        <ele>494.74</ele>
        <time>2021-05-28T11:41:27Z</time>
      </trkpt>
      <trkpt lat="37.3917237762" lon="-8.0753701832">
        <ele>494.26</ele>
        <time>2021-05-28T11:41:28Z</time>
      </trkpt>
      <trkpt lat="37.3915943597" lon="-8.0752669182">
        <ele>494.26</ele>
        <time>2021-05-28T11:41:29Z</time>
      </trkpt>
      <trkpt lat="37.3914470896" lon="-8.0751786567">
        <ele>496.18</ele>
        <time>2021-05-28T11:41:30Z</time>
      </trkpt>
      <trkpt lat="37.3912869953" lon="-8.0751062371">
        <ele>497.14</ele>
        <time>2021-05-28T11:41:31Z</time>
      </trkpt>
      <trkpt lat="37.3911146633" lon="-8.0750592984">
        <ele>496.18</ele>
        <time>2021-05-28T11:41:32Z</time>
      </trkpt>
      <trkpt lat="37.3909396492" lon="-8.0750395171">
        <ele>495.22</ele>
        <time>2021-05-28T11:41:33Z</time>
      </trkpt>
      <trkpt lat="37.3907726817" lon="-8.0750322249">
        <ele>494.26</ele>
        <time>2021-05-28T11:41:34Z</time>
      </trkpt>
      <trkpt lat="37.3904623836" lon="-8.0750073306">
        <ele>492.33</ele>
        <time>2021-05-28T11:41:36Z</time>
      </trkpt>
      <trkpt lat="37.3903128505" lon="-8.0749554466">
        <ele>490.89</ele>
        <time>2021-05-28T11:41:37Z</time>
      </trkpt>
      <trkpt lat="37.3901595455" lon="-8.0748650897">
        <ele>490.41</ele>
        <time>2021-05-28T11:41:38Z</time>
      </trkpt>
      <trkpt lat="37.3899990320" lon="-8.0747692008">
        <ele>491.37</ele>
        <time>2021-05-28T11:41:39Z</time>
      </trkpt>
      <trkpt lat="37.3898414522" lon="-8.0746892374">
        <ele>491.37</ele>
        <time>2021-05-28T11:41:40Z</time>
      </trkpt>
      <trkpt lat="37.3896962777" lon="-8.0746010598">
        <ele>487.53</ele>
        <time>2021-05-28T11:41:41Z</time>
      </trkpt>
      <trkpt lat="37.3895568866" lon="-8.0744753312">
        <ele>484.16</ele>
        <time>2021-05-28T11:41:42Z</time>
      </trkpt>
      <trkpt lat="37.3894166574" lon="-8.0743383709">
        <ele>484.64</ele>
        <time>2021-05-28T11:41:43Z</time>
      </trkpt>
      <trkpt lat="37.3892710637" lon="-8.0742241256">
        <ele>483.20</ele>
        <time>2021-05-28T11:41:44Z</time>
      </trkpt>
      <trkpt lat="37.3891185131" lon="-8.0741444975">
        <ele>480.32</ele>
        <time>2021-05-28T11:41:45Z</time>
      </trkpt>
      <trkpt lat="37.3889558204" lon="-8.0741020851">
        <ele>478.39</ele>
        <time>2021-05-28T11:41:46Z</time>
      </trkpt>
      <trkpt lat="37.3887806386" lon="-8.0740859918">
        <ele>477.91</ele>
        <time>2021-05-28T11:41:47Z</time>
      </trkpt>
      <trkpt lat="37.3885997571" lon="-8.0740778614">
        <ele>477.43</ele>
        <time>2021-05-28T11:41:48Z</time>
      </trkpt>
      <trkpt lat="37.3882414307" lon="-8.0740797054">
        <ele>473.11</ele>
        <time>2021-05-28T11:41:50Z</time>
      </trkpt>
      <trkpt lat="37.3880687635" lon="-8.0741067789">
        <ele>470.70</ele>
        <time>2021-05-28T11:41:51Z</time>
      </trkpt>
      <trkpt lat="37.3879032210" lon="-8.0741655361">
        <ele>469.26</ele>
        <time>2021-05-28T11:41:52Z</time>
      </trkpt>
      <trkpt lat="37.3877478205" lon="-8.0742517021">
        <ele>469.26</ele>
        <time>2021-05-28T11:41:53Z</time>
      </trkpt>
      <trkpt lat="37.3874314874" lon="-8.0744228605">
        <ele>468.78</ele>
        <time>2021-05-28T11:41:55Z</time>
      </trkpt>
      <trkpt lat="37.3872574791" lon="-8.0744763371">
        <ele>469.74</ele>
        <time>2021-05-28T11:41:56Z</time>
      </trkpt>
      <trkpt lat="37.3870722391" lon="-8.0745035782">
        <ele>470.70</ele>
        <time>2021-05-28T11:41:57Z</time>
      </trkpt>
      <trkpt lat="37.3868756834" lon="-8.0745109543">
        <ele>473.11</ele>
        <time>2021-05-28T11:41:58Z</time>
      </trkpt>
      <trkpt lat="37.3866732605" lon="-8.0745089427">
        <ele>475.99</ele>
        <time>2021-05-28T11:41:59Z</time>
      </trkpt>
      <trkpt lat="37.3862767965" lon="-8.0745007284">
        <ele>479.35</ele>
        <time>2021-05-28T11:42:01Z</time>
      </trkpt>
      <trkpt lat="37.3856909014" lon="-8.0744646862">
        <ele>485.60</ele>
        <time>2021-05-28T11:42:04Z</time>
      </trkpt>
      <trkpt lat="37.3848962970" lon="-8.0743377842">
        <ele>488.97</ele>
        <time>2021-05-28T11:42:08Z</time>
      </trkpt>
      <trkpt lat="37.3837281950" lon="-8.0741185136">
        <ele>486.08</ele>
        <time>2021-05-28T11:42:15Z</time>
      </trkpt>
      <trkpt lat="37.3836159613" lon="-8.0741335172">
        <ele>484.16</ele>
        <time>2021-05-28T11:42:16Z</time>
      </trkpt>
      <trkpt lat="37.3835235927" lon="-8.0741825514">
        <ele>483.68</ele>
        <time>2021-05-28T11:42:17Z</time>
      </trkpt>
      <trkpt lat="37.3834499996" lon="-8.0742622633">
        <ele>483.68</ele>
        <time>2021-05-28T11:42:18Z</time>
      </trkpt>
      <trkpt lat="37.3834019713" lon="-8.0743835494">
        <ele>484.16</ele>
        <time>2021-05-28T11:42:19Z</time>
      </trkpt>
      <trkpt lat="37.3833742272" lon="-8.0745371059">
        <ele>484.64</ele>
        <time>2021-05-28T11:42:20Z</time>
      </trkpt>
      <trkpt lat="37.3833575472" lon="-8.0747070909">
        <ele>485.60</ele>
        <time>2021-05-28T11:42:21Z</time>
      </trkpt>
      <trkpt lat="37.3833360896" lon="-8.0748879723">
        <ele>487.05</ele>
        <time>2021-05-28T11:42:22Z</time>
      </trkpt>
      <trkpt lat="37.3833023105" lon="-8.0750737153">
        <ele>488.97</ele>
        <time>2021-05-28T11:42:23Z</time>
      </trkpt>
      <trkpt lat="37.3832551204" lon="-8.0752512440">
        <ele>489.45</ele>
        <time>2021-05-28T11:42:24Z</time>
      </trkpt>
      <trkpt lat="37.3831899092" lon="-8.0754156969">
        <ele>490.89</ele>
        <time>2021-05-28T11:42:25Z</time>
      </trkpt>
      <trkpt lat="37.3831040785" lon="-8.0755737796">
        <ele>492.81</ele>
        <time>2021-05-28T11:42:26Z</time>
      </trkpt>
      <trkpt lat="37.3830042500" lon="-8.0757312756">
        <ele>494.26</ele>
        <time>2021-05-28T11:42:27Z</time>
      </trkpt>
      <trkpt lat="37.3826811276" lon="-8.0762171745">
        <ele>499.06</ele>
        <time>2021-05-28T11:42:30Z</time>
      </trkpt>
      <trkpt lat="37.3822074663" lon="-8.0769148003">
        <ele>504.83</ele>
        <time>2021-05-28T11:42:34Z</time>
      </trkpt>
      <trkpt lat="37.3819687497" lon="-8.0772868730">
        <ele>507.71</ele>
        <time>2021-05-28T11:42:36Z</time>
      </trkpt>
      <trkpt lat="37.3816670012" lon="-8.0778855085">
        <ele>512.04</ele>
        <time>2021-05-28T11:42:39Z</time>
      </trkpt>
      <trkpt lat="37.3815069906" lon="-8.0783435795">
        <ele>516.85</ele>
        <time>2021-05-28T11:42:41Z</time>
      </trkpt>
      <trkpt lat="37.3812410329" lon="-8.0791417882">
        <ele>518.29</ele>
        <time>2021-05-28T11:42:45Z</time>
      </trkpt>
      <trkpt lat="37.3811587226" lon="-8.0792690255">
        <ele>519.73</ele>
        <time>2021-05-28T11:42:46Z</time>
      </trkpt>
      <trkpt lat="37.3810550384" lon="-8.0793673452">
        <ele>521.17</ele>
        <time>2021-05-28T11:42:47Z</time>
      </trkpt>
      <trkpt lat="37.3809342552" lon="-8.0794388428">
        <ele>521.17</ele>
        <time>2021-05-28T11:42:48Z</time>
      </trkpt>
      <trkpt lat="37.3807983007" lon="-8.0794859491">
        <ele>521.65</ele>
        <time>2021-05-28T11:42:49Z</time>
      </trkpt>
      <trkpt lat="37.3806439061" lon="-8.0795100052">
        <ele>522.61</ele>
        <time>2021-05-28T11:42:50Z</time>
      </trkpt>
      <trkpt lat="37.3804693110" lon="-8.0795183871">
        <ele>524.06</ele>
        <time>2021-05-28T11:42:51Z</time>
      </trkpt>
      <trkpt lat="37.3798988387" lon="-8.0795390904">
        <ele>526.94</ele>
        <time>2021-05-28T11:42:54Z</time>
      </trkpt>
      <trkpt lat="37.3791784141" lon="-8.0795729533">
        <ele>527.90</ele>
        <time>2021-05-28T11:42:58Z</time>
      </trkpt>
      <trkpt lat="37.3790075909" lon="-8.0796013679">
        <ele>529.34</ele>
        <time>2021-05-28T11:42:59Z</time>
      </trkpt>
      <trkpt lat="37.3788505141" lon="-8.0796530843">
        <ele>529.34</ele>
        <time>2021-05-28T11:43:00Z</time>
      </trkpt>
      <trkpt lat="37.3787036631" lon="-8.0797348078">
        <ele>530.30</ele>
        <time>2021-05-28T11:43:01Z</time>
      </trkpt>
      <trkpt lat="37.3785610031" lon="-8.0798466224">
        <ele>531.75</ele>
        <time>2021-05-28T11:43:02Z</time>
      </trkpt>
      <trkpt lat="37.3784194328" lon="-8.0799822416">
        <ele>533.67</ele>
        <time>2021-05-28T11:43:03Z</time>
      </trkpt>
      <trkpt lat="37.3782735877" lon="-8.0801332835">
        <ele>537.51</ele>
        <time>2021-05-28T11:43:04Z</time>
      </trkpt>
      <trkpt lat="37.3779692408" lon="-8.0804641172">
        <ele>541.36</ele>
        <time>2021-05-28T11:43:06Z</time>
      </trkpt>
      <trkpt lat="37.3776661512" lon="-8.0807954539">
        <ele>543.76</ele>
        <time>2021-05-28T11:43:08Z</time>
      </trkpt>
      <trkpt lat="37.3772833496" lon="-8.0811852124">
        <ele>542.80</ele>
        <time>2021-05-28T11:43:11Z</time>
      </trkpt>
      <trkpt lat="37.3771576211" lon="-8.0812572129">
        <ele>542.80</ele>
        <time>2021-05-28T11:43:12Z</time>
      </trkpt>
      <trkpt lat="37.3770246003" lon="-8.0812839512">
        <ele>542.80</ele>
        <time>2021-05-28T11:43:13Z</time>
      </trkpt>
      <trkpt lat="37.3768804315" lon="-8.0812693667">
        <ele>545.69</ele>
        <time>2021-05-28T11:43:14Z</time>
      </trkpt>
      <trkpt lat="37.3767240252" lon="-8.0812205002">
        <ele>547.13</ele>
        <time>2021-05-28T11:43:15Z</time>
      </trkpt>
      <trkpt lat="37.3765528668" lon="-8.0811533611">
        <ele>549.53</ele>
        <time>2021-05-28T11:43:16Z</time>
      </trkpt>
      <trkpt lat="37.3761759326" lon="-8.0810046662">
        <ele>552.90</ele>
        <time>2021-05-28T11:43:18Z</time>
      </trkpt>
      <trkpt lat="37.3759850767" lon="-8.0809257086">
        <ele>552.41</ele>
        <time>2021-05-28T11:43:19Z</time>
      </trkpt>
      <trkpt lat="37.3747633304" lon="-8.0804549810">
        <ele>555.78</ele>
        <time>2021-05-28T11:43:25Z</time>
      </trkpt>
      <trkpt lat="37.3740434926" lon="-8.0801380612">
        <ele>555.78</ele>
        <time>2021-05-28T11:43:29Z</time>
      </trkpt>
      <trkpt lat="37.3739124835" lon="-8.0800389033">
        <ele>556.26</ele>
        <time>2021-05-28T11:43:30Z</time>
      </trkpt>
      <trkpt lat="37.3736703303" lon="-8.0798231531">
        <ele>559.62</ele>
        <time>2021-05-28T11:43:32Z</time>
      </trkpt>
      <trkpt lat="37.3734127544" lon="-8.0795827601">
        <ele>562.51</ele>
        <time>2021-05-28T11:43:34Z</time>
      </trkpt>
      <trkpt lat="37.3732799850" lon="-8.0794604681">
        <ele>562.51</ele>
        <time>2021-05-28T11:43:35Z</time>
      </trkpt>
      <trkpt lat="37.3728707805" lon="-8.0791448057">
        <ele>560.59</ele>
        <time>2021-05-28T11:43:38Z</time>
      </trkpt>
      <trkpt lat="37.3727295455" lon="-8.0790935922">
        <ele>559.62</ele>
        <time>2021-05-28T11:43:39Z</time>
      </trkpt>
      <trkpt lat="37.3725855444" lon="-8.0790750682">
        <ele>558.66</ele>
        <time>2021-05-28T11:43:40Z</time>
      </trkpt>
      <trkpt lat="37.3724401183" lon="-8.0790847912">
        <ele>558.66</ele>
        <time>2021-05-28T11:43:41Z</time>
      </trkpt>
      <trkpt lat="37.3722998891" lon="-8.0791119486">
        <ele>557.22</ele>
        <time>2021-05-28T11:43:42Z</time>
      </trkpt>
      <trkpt lat="37.3720247950" lon="-8.0791723821">
        <ele>555.78</ele>
        <time>2021-05-28T11:43:44Z</time>
      </trkpt>
      <trkpt lat="37.3715511337" lon="-8.0792653374">
        <ele>552.90</ele>
        <time>2021-05-28T11:43:48Z</time>
      </trkpt>
      <trkpt lat="37.3714673985" lon="-8.0792948417">
        <ele>552.41</ele>
        <time>2021-05-28T11:43:49Z</time>
      </trkpt>
      <trkpt lat="37.3713969905" lon="-8.0793411937">
        <ele>551.93</ele>
        <time>2021-05-28T11:43:50Z</time>
      </trkpt>
      <trkpt lat="37.3713400774" lon="-8.0794121046">
        <ele>552.41</ele>
        <time>2021-05-28T11:43:51Z</time>
      </trkpt>
      <trkpt lat="37.3712969944" lon="-8.0795074068">
        <ele>552.90</ele>
        <time>2021-05-28T11:43:52Z</time>
      </trkpt>
      <trkpt lat="37.3712623771" lon="-8.0796214845">
        <ele>553.38</ele>
        <time>2021-05-28T11:43:53Z</time>
      </trkpt>
      <trkpt lat="37.3712310288" lon="-8.0797534157">
        <ele>554.82</ele>
        <time>2021-05-28T11:43:54Z</time>
      </trkpt>
      <trkpt lat="37.3711992614" lon="-8.0799029488">
        <ele>556.74</ele>
        <time>2021-05-28T11:43:55Z</time>
      </trkpt>
      <trkpt lat="37.3711375706" lon="-8.0802255683">
        <ele>561.07</ele>
        <time>2021-05-28T11:43:57Z</time>
      </trkpt>
      <trkpt lat="37.3711082339" lon="-8.0803766940">
        <ele>560.59</ele>
        <time>2021-05-28T11:43:58Z</time>
      </trkpt>
      <trkpt lat="37.3710327130" lon="-8.0806543026">
        <ele>561.07</ele>
        <time>2021-05-28T11:44:00Z</time>
      </trkpt>
      <trkpt lat="37.3709781468" lon="-8.0807951186">
        <ele>562.51</ele>
        <time>2021-05-28T11:44:01Z</time>
      </trkpt>
      <trkpt lat="37.3705433775" lon="-8.0817031302">
        <ele>558.18</ele>
        <time>2021-05-28T11:44:07Z</time>
      </trkpt>
      <trkpt lat="37.3703363445" lon="-8.0821147654">
        <ele>555.30</ele>
        <time>2021-05-28T11:44:10Z</time>
      </trkpt>
      <trkpt lat="37.3702319060" lon="-8.0823691562">
        <ele>553.38</ele>
        <time>2021-05-28T11:44:12Z</time>
      </trkpt>
      <trkpt lat="37.3702132981" lon="-8.0824888498">
        <ele>552.41</ele>
        <time>2021-05-28T11:44:13Z</time>
      </trkpt>
      <trkpt lat="37.3702256195" lon="-8.0826098844">
        <ele>552.41</ele>
        <time>2021-05-28T11:44:14Z</time>
      </trkpt>
      <trkpt lat="37.3702681158" lon="-8.0827410612">
        <ele>552.41</ele>
        <time>2021-05-28T11:44:15Z</time>
      </trkpt>
      <trkpt lat="37.3703311477" lon="-8.0828854814">
        <ele>552.90</ele>
        <time>2021-05-28T11:44:16Z</time>
      </trkpt>
      <trkpt lat="37.3704024777" lon="-8.0830407143">
        <ele>552.90</ele>
        <time>2021-05-28T11:44:17Z</time>
      </trkpt>
      <trkpt lat="37.3711940646" lon="-8.0845108163">
        <ele>551.45</ele>
        <time>2021-05-28T11:44:27Z</time>
      </trkpt>
      <trkpt lat="37.3713046219" lon="-8.0846234690">
        <ele>551.93</ele>
        <time>2021-05-28T11:44:28Z</time>
      </trkpt>
      <trkpt lat="37.3723910004" lon="-8.0856038164">
        <ele>551.93</ele>
        <time>2021-05-28T11:44:36Z</time>
      </trkpt>
      <trkpt lat="37.3733527400" lon="-8.0865042005">
        <ele>550.49</ele>
        <time>2021-05-28T11:44:44Z</time>
      </trkpt>
      <trkpt lat="37.3734701704" lon="-8.0865770392">
        <ele>550.49</ele>
        <time>2021-05-28T11:44:45Z</time>
      </trkpt>
      <trkpt lat="37.3735913727" lon="-8.0866230559">
        <ele>549.53</ele>
        <time>2021-05-28T11:44:46Z</time>
      </trkpt>
      <trkpt lat="37.3739424068" lon="-8.0867067911">
        <ele>544.72</ele>
        <time>2021-05-28T11:44:49Z</time>
      </trkpt>
      <trkpt lat="37.3740501981" lon="-8.0867412407">
        <ele>543.76</ele>
        <time>2021-05-28T11:44:50Z</time>
      </trkpt>
      <trkpt lat="37.3741447460" lon="-8.0867984891">
        <ele>541.84</ele>
        <time>2021-05-28T11:44:51Z</time>
      </trkpt>
      <trkpt lat="37.3742153216" lon="-8.0868896004">
        <ele>539.92</ele>
        <time>2021-05-28T11:44:52Z</time>
      </trkpt>
      <trkpt lat="37.3742558900" lon="-8.0870081205">
        <ele>538.48</ele>
        <time>2021-05-28T11:44:53Z</time>
      </trkpt>
      <trkpt lat="37.3742656969" lon="-8.0871486850">
        <ele>536.55</ele>
        <time>2021-05-28T11:44:54Z</time>
      </trkpt>
      <trkpt lat="37.3742567282" lon="-8.0873155687">
        <ele>536.07</ele>
        <time>2021-05-28T11:44:55Z</time>
      </trkpt>
      <trkpt lat="37.3742444906" lon="-8.0874994677">
        <ele>534.63</ele>
        <time>2021-05-28T11:44:56Z</time>
      </trkpt>
      <trkpt lat="37.3741922714" lon="-8.0882747937">
        <ele>530.79</ele>
        <time>2021-05-28T11:45:00Z</time>
      </trkpt>
      <trkpt lat="37.3741573188" lon="-8.0886280071">
        <ele>526.94</ele>
        <time>2021-05-28T11:45:02Z</time>
      </trkpt>
      <trkpt lat="37.3741137329" lon="-8.0887995008">
        <ele>526.46</ele>
        <time>2021-05-28T11:45:03Z</time>
      </trkpt>
      <trkpt lat="37.3739283253" lon="-8.0893024150">
        <ele>523.58</ele>
        <time>2021-05-28T11:45:06Z</time>
      </trkpt>
      <trkpt lat="37.3738005012" lon="-8.0895851366">
        <ele>521.17</ele>
        <time>2021-05-28T11:45:08Z</time>
      </trkpt>
      <trkpt lat="37.3737105634" lon="-8.0896910839">
        <ele>520.21</ele>
        <time>2021-05-28T11:45:09Z</time>
      </trkpt>
      <trkpt lat="37.3735958152" lon="-8.0897773337">
        <ele>520.69</ele>
        <time>2021-05-28T11:45:10Z</time>
      </trkpt>
      <trkpt lat="37.3728800006" lon="-8.0902016256">
        <ele>518.29</ele>
        <time>2021-05-28T11:45:15Z</time>
      </trkpt>
      <trkpt lat="37.3725142144" lon="-8.0904450361">
        <ele>516.37</ele>
        <time>2021-05-28T11:45:18Z</time>
      </trkpt>
      <trkpt lat="37.3724081833" lon="-8.0905487202">
        <ele>516.37</ele>
        <time>2021-05-28T11:45:19Z</time>
      </trkpt>
      <trkpt lat="37.3721186724" lon="-8.0908827391">
        <ele>512.52</ele>
        <time>2021-05-28T11:45:22Z</time>
      </trkpt>
      <trkpt lat="37.3720471747" lon="-8.0910077970">
        <ele>511.56</ele>
        <time>2021-05-28T11:45:23Z</time>
      </trkpt>
      <trkpt lat="37.3720024992" lon="-8.0911514629">
        <ele>510.12</ele>
        <time>2021-05-28T11:45:24Z</time>
      </trkpt>
      <trkpt lat="37.3719858192" lon="-8.0913162511">
        <ele>509.64</ele>
        <time>2021-05-28T11:45:25Z</time>
      </trkpt>
      <trkpt lat="37.3719883338" lon="-8.0915057659">
        <ele>509.16</ele>
        <time>2021-05-28T11:45:26Z</time>
      </trkpt>
      <trkpt lat="37.3719978891" lon="-8.0917140562">
        <ele>508.67</ele>
        <time>2021-05-28T11:45:27Z</time>
      </trkpt>
      <trkpt lat="37.3721213546" lon="-8.0933528021">
        <ele>505.31</ele>
        <time>2021-05-28T11:45:35Z</time>
      </trkpt>
      <trkpt lat="37.3722929321" lon="-8.0944100115">
        <ele>501.46</ele>
        <time>2021-05-28T11:45:41Z</time>
      </trkpt>
      <trkpt lat="37.3722784314" lon="-8.0945617240">
        <ele>500.02</ele>
        <time>2021-05-28T11:45:42Z</time>
      </trkpt>
      <trkpt lat="37.3722264636" lon="-8.0947053898">
        <ele>500.02</ele>
        <time>2021-05-28T11:45:43Z</time>
      </trkpt>
      <trkpt lat="37.3721392080" lon="-8.0948379077">
        <ele>501.95</ele>
        <time>2021-05-28T11:45:44Z</time>
      </trkpt>
      <trkpt lat="37.3720344342" lon="-8.0949581042">
        <ele>501.46</ele>
        <time>2021-05-28T11:45:45Z</time>
      </trkpt>
      <trkpt lat="37.3719342705" lon="-8.0950702541">
        <ele>499.06</ele>
        <time>2021-05-28T11:45:46Z</time>
      </trkpt>
      <trkpt lat="37.3718486913" lon="-8.0951873492">
        <ele>498.58</ele>
        <time>2021-05-28T11:45:47Z</time>
      </trkpt>
      <trkpt lat="37.3717862461" lon="-8.0953197833">
        <ele>498.10</ele>
        <time>2021-05-28T11:45:48Z</time>
      </trkpt>
      <trkpt lat="37.3717549816" lon="-8.0954667181">
        <ele>497.62</ele>
        <time>2021-05-28T11:45:49Z</time>
      </trkpt>
      <trkpt lat="37.3717554007" lon="-8.0956309196">
        <ele>498.10</ele>
        <time>2021-05-28T11:45:50Z</time>
      </trkpt>
      <trkpt lat="37.3717773613" lon="-8.0958183389">
        <ele>499.06</ele>
        <time>2021-05-28T11:45:51Z</time>
      </trkpt>
      <trkpt lat="37.3718096316" lon="-8.0960260425">
        <ele>500.98</ele>
        <time>2021-05-28T11:45:52Z</time>
      </trkpt>
      <trkpt lat="37.3719744198" lon="-8.0971784703">
        <ele>504.35</ele>
        <time>2021-05-28T11:45:57Z</time>
      </trkpt>
      <trkpt lat="37.3720063549" lon="-8.0974173546">
        <ele>504.35</ele>
        <time>2021-05-28T11:45:58Z</time>
      </trkpt>
      <trkpt lat="37.3720711470" lon="-8.0978641938">
        <ele>508.67</ele>
        <time>2021-05-28T11:46:00Z</time>
      </trkpt>
      <trkpt lat="37.3721016571" lon="-8.0980561394">
        <ele>508.19</ele>
        <time>2021-05-28T11:46:01Z</time>
      </trkpt>
      <trkpt lat="37.3721559718" lon="-8.0985478219">
        <ele>508.67</ele>
        <time>2021-05-28T11:46:04Z</time>
      </trkpt>
      <trkpt lat="37.3721393757" lon="-8.0986991990">
        <ele>509.64</ele>
        <time>2021-05-28T11:46:05Z</time>
      </trkpt>
      <trkpt lat="37.3721007351" lon="-8.0988582876">
        <ele>510.60</ele>
        <time>2021-05-28T11:46:06Z</time>
      </trkpt>
      <trkpt lat="37.3718938697" lon="-8.0995682348">
        <ele>507.23</ele>
        <time>2021-05-28T11:46:10Z</time>
      </trkpt>
      <trkpt lat="37.3718759324" lon="-8.0997197796">
        <ele>506.27</ele>
        <time>2021-05-28T11:46:11Z</time>
      </trkpt>
      <trkpt lat="37.3718880024" lon="-8.0998584162">
        <ele>505.79</ele>
        <time>2021-05-28T11:46:12Z</time>
      </trkpt>
      <trkpt lat="37.3719313368" lon="-8.1000044290">
        <ele>506.75</ele>
        <time>2021-05-28T11:46:13Z</time>
      </trkpt>
      <trkpt lat="37.3719902616" lon="-8.1001700554">
        <ele>508.19</ele>
        <time>2021-05-28T11:46:14Z</time>
      </trkpt>
      <trkpt lat="37.3722001445" lon="-8.1007662602">
        <ele>509.64</ele>
        <time>2021-05-28T11:46:17Z</time>
      </trkpt>
      <trkpt lat="37.3724899907" lon="-8.1016159337">
        <ele>513.96</ele>
        <time>2021-05-28T11:46:21Z</time>
      </trkpt>
      <trkpt lat="37.3730307911" lon="-8.1029404420">
        <ele>511.56</ele>
        <time>2021-05-28T11:46:28Z</time>
      </trkpt>
      <trkpt lat="37.3730583675" lon="-8.1030994467">
        <ele>510.12</ele>
        <time>2021-05-28T11:46:29Z</time>
      </trkpt>
      <trkpt lat="37.3730506562" lon="-8.1032600440">
        <ele>510.12</ele>
        <time>2021-05-28T11:46:30Z</time>
      </trkpt>
      <trkpt lat="37.3730045557" lon="-8.1034208089">
        <ele>509.64</ele>
        <time>2021-05-28T11:46:31Z</time>
      </trkpt>
      <trkpt lat="37.3729259335" lon="-8.1035857648">
        <ele>510.60</ele>
        <time>2021-05-28T11:46:32Z</time>
      </trkpt>
      <trkpt lat="37.3728312179" lon="-8.1037639640">
        <ele>511.08</ele>
        <time>2021-05-28T11:46:33Z</time>
      </trkpt>
      <trkpt lat="37.3719872441" lon="-8.1053790729">
        <ele>507.71</ele>
        <time>2021-05-28T11:46:41Z</time>
      </trkpt>
      <trkpt lat="37.3716077115" lon="-8.1061330251">
        <ele>503.87</ele>
        <time>2021-05-28T11:46:45Z</time>
      </trkpt>
      <trkpt lat="37.3715481162" lon="-8.1062898505">
        <ele>503.39</ele>
        <time>2021-05-28T11:46:46Z</time>
      </trkpt>
      <trkpt lat="37.3715050332" lon="-8.1064655352">
        <ele>503.87</ele>
        <time>2021-05-28T11:46:47Z</time>
      </trkpt>
      <trkpt lat="37.3713374790" lon="-8.1075499859">
        <ele>500.98</ele>
        <time>2021-05-28T11:46:52Z</time>
      </trkpt>
      <trkpt lat="37.3712786380" lon="-8.1079373974">
        <ele>499.06</ele>
        <time>2021-05-28T11:46:54Z</time>
      </trkpt>
      <trkpt lat="37.3712700885" lon="-8.1081135012">
        <ele>499.06</ele>
        <time>2021-05-28T11:46:55Z</time>
      </trkpt>
      <trkpt lat="37.3712915462" lon="-8.1082818937">
        <ele>497.62</ele>
        <time>2021-05-28T11:46:56Z</time>
      </trkpt>
      <trkpt lat="37.3713469505" lon="-8.1084465981">
        <ele>498.10</ele>
        <time>2021-05-28T11:46:57Z</time>
      </trkpt>
      <trkpt lat="37.3714275006" lon="-8.1086133979">
        <ele>499.54</ele>
        <time>2021-05-28T11:46:58Z</time>
      </trkpt>
      <trkpt lat="37.3715217970" lon="-8.1087873224">
        <ele>502.91</ele>
        <time>2021-05-28T11:46:59Z</time>
      </trkpt>
      <trkpt lat="37.3716202844" lon="-8.1089639291">
        <ele>502.91</ele>
        <time>2021-05-28T11:47:00Z</time>
      </trkpt>
      <trkpt lat="37.3718331847" lon="-8.1094074994">
        <ele>501.95</ele>
        <time>2021-05-28T11:47:03Z</time>
      </trkpt>
      <trkpt lat="37.3718500324" lon="-8.1095476449">
        <ele>500.98</ele>
        <time>2021-05-28T11:47:04Z</time>
      </trkpt>
      <trkpt lat="37.3718439974" lon="-8.1097045541">
        <ele>502.43</ele>
        <time>2021-05-28T11:47:05Z</time>
      </trkpt>
      <trkpt lat="37.3718166724" lon="-8.1100774650">
        <ele>503.39</ele>
        <time>2021-05-28T11:47:07Z</time>
      </trkpt>
      <trkpt lat="37.3717875034" lon="-8.1105093006">
        <ele>500.50</ele>
        <time>2021-05-28T11:47:09Z</time>
      </trkpt>
      <trkpt lat="37.3717452586" lon="-8.1112303957">
        <ele>496.66</ele>
        <time>2021-05-28T11:47:12Z</time>
      </trkpt>
      <trkpt lat="37.3717022594" lon="-8.1119027082">
        <ele>493.29</ele>
        <time>2021-05-28T11:47:15Z</time>
      </trkpt>
      <trkpt lat="37.3716913629" lon="-8.1120937318">
        <ele>492.81</ele>
        <time>2021-05-28T11:47:16Z</time>
      </trkpt>
      <trkpt lat="37.3716842383" lon="-8.1124622840">
        <ele>495.70</ele>
        <time>2021-05-28T11:47:18Z</time>
      </trkpt>
      <trkpt lat="37.3717004154" lon="-8.1126507930">
        <ele>496.66</ele>
        <time>2021-05-28T11:47:19Z</time>
      </trkpt>
      <trkpt lat="37.3717361223" lon="-8.1128429063">
        <ele>498.10</ele>
        <time>2021-05-28T11:47:20Z</time>
      </trkpt>
      <trkpt lat="37.3717864137" lon="-8.1130372826">
        <ele>499.54</ele>
        <time>2021-05-28T11:47:21Z</time>
      </trkpt>
      <trkpt lat="37.3718419857" lon="-8.1132367719">
        <ele>500.50</ele>
        <time>2021-05-28T11:47:22Z</time>
      </trkpt>
      <trkpt lat="37.3719501961" lon="-8.1136396062">
        <ele>505.31</ele>
        <time>2021-05-28T11:47:24Z</time>
      </trkpt>
      <trkpt lat="37.3720502760" lon="-8.1140362378">
        <ele>507.71</ele>
        <time>2021-05-28T11:47:26Z</time>
      </trkpt>
      <trkpt lat="37.3722429760" lon="-8.1148122344">
        <ele>505.31</ele>
        <time>2021-05-28T11:47:30Z</time>
      </trkpt>
      <trkpt lat="37.3728468921" lon="-8.1163767166">
        <ele>503.87</ele>
        <time>2021-05-28T11:47:39Z</time>
      </trkpt>
      <trkpt lat="37.3730497342" lon="-8.1168658007">
        <ele>500.98</ele>
        <time>2021-05-28T11:47:42Z</time>
      </trkpt>
      <trkpt lat="37.3731115926" lon="-8.1170123164">
        <ele>500.50</ele>
        <time>2021-05-28T11:47:43Z</time>
      </trkpt>
      <trkpt lat="37.3734897003" lon="-8.1178975292">
        <ele>497.62</ele>
        <time>2021-05-28T11:47:50Z</time>
      </trkpt>
      <trkpt lat="37.3735855892" lon="-8.1181500759">
        <ele>498.10</ele>
        <time>2021-05-28T11:47:52Z</time>
      </trkpt>
      <trkpt lat="37.3736193683" lon="-8.1182934903">
        <ele>498.10</ele>
        <time>2021-05-28T11:47:53Z</time>
      </trkpt>
      <trkpt lat="37.3736411612" lon="-8.1184495613">
        <ele>497.62</ele>
        <time>2021-05-28T11:47:54Z</time>
      </trkpt>
      <trkpt lat="37.3737074621" lon="-8.1189701613">
        <ele>495.70</ele>
        <time>2021-05-28T11:47:57Z</time>
      </trkpt>
      <trkpt lat="37.3738055304" lon="-8.1197232753">
        <ele>490.41</ele>
        <time>2021-05-28T11:48:01Z</time>
      </trkpt>
      <trkpt lat="37.3738310952" lon="-8.1199117843">
        <ele>487.05</ele>
        <time>2021-05-28T11:48:02Z</time>
      </trkpt>
      <trkpt lat="37.3738765251" lon="-8.1202717870">
        <ele>483.68</ele>
        <time>2021-05-28T11:48:04Z</time>
      </trkpt>
      <trkpt lat="37.3739590030" lon="-8.1207938120">
        <ele>481.76</ele>
        <time>2021-05-28T11:48:07Z</time>
      </trkpt>
      <trkpt lat="37.3740093783" lon="-8.1209604442">
        <ele>481.76</ele>
        <time>2021-05-28T11:48:08Z</time>
      </trkpt>
      <trkpt lat="37.3741192650" lon="-8.1212719996">
        <ele>478.39</ele>
        <time>2021-05-28T11:48:10Z</time>
      </trkpt>
      <trkpt lat="37.3741520382" lon="-8.1214363687">
        <ele>476.47</ele>
        <time>2021-05-28T11:48:11Z</time>
      </trkpt>
      <trkpt lat="37.3741608392" lon="-8.1216223631">
        <ele>474.55</ele>
        <time>2021-05-28T11:48:12Z</time>
      </trkpt>
      <trkpt lat="37.3741518706" lon="-8.1218356825">
        <ele>474.07</ele>
        <time>2021-05-28T11:48:13Z</time>
      </trkpt>
      <trkpt lat="37.3741328437" lon="-8.1220709626">
        <ele>473.59</ele>
        <time>2021-05-28T11:48:14Z</time>
      </trkpt>
      <trkpt lat="37.3740824685" lon="-8.1225627288">
        <ele>469.26</ele>
        <time>2021-05-28T11:48:16Z</time>
      </trkpt>
      <trkpt lat="37.3740293272" lon="-8.1230928004">
        <ele>464.93</ele>
        <time>2021-05-28T11:48:18Z</time>
      </trkpt>
      <trkpt lat="37.3739814665" lon="-8.1236519571">
        <ele>463.97</ele>
        <time>2021-05-28T11:48:20Z</time>
      </trkpt>
      <trkpt lat="37.3739166744" lon="-8.1244196557">
        <ele>462.05</ele>
        <time>2021-05-28T11:48:23Z</time>
      </trkpt>
      <trkpt lat="37.3738535587" lon="-8.1257590000">
        <ele>458.69</ele>
        <time>2021-05-28T11:48:29Z</time>
      </trkpt>
      <trkpt lat="37.3738323525" lon="-8.1259449944">
        <ele>457.24</ele>
        <time>2021-05-28T11:48:30Z</time>
      </trkpt>
      <trkpt lat="37.3737913650" lon="-8.1261352636">
        <ele>456.76</ele>
        <time>2021-05-28T11:48:31Z</time>
      </trkpt>
      <trkpt lat="37.3737361282" lon="-8.1263292208">
        <ele>456.28</ele>
        <time>2021-05-28T11:48:32Z</time>
      </trkpt>
      <trkpt lat="37.3735523131" lon="-8.1268400140">
        <ele>452.44</ele>
        <time>2021-05-28T11:48:35Z</time>
      </trkpt>
      <trkpt lat="37.3734647222" lon="-8.1269596238">
        <ele>451.48</ele>
        <time>2021-05-28T11:48:36Z</time>
      </trkpt>
      <trkpt lat="37.3733567633" lon="-8.1270472985">
        <ele>447.63</ele>
        <time>2021-05-28T11:48:37Z</time>
      </trkpt>
      <trkpt lat="37.3732296936" lon="-8.1271035410">
        <ele>446.67</ele>
        <time>2021-05-28T11:48:38Z</time>
      </trkpt>
      <trkpt lat="37.3730890453" lon="-8.1271374878">
        <ele>445.23</ele>
        <time>2021-05-28T11:48:39Z</time>
      </trkpt>
      <trkpt lat="37.3729460500" lon="-8.1271632202">
        <ele>443.79</ele>
        <time>2021-05-28T11:48:40Z</time>
      </trkpt>
      <trkpt lat="37.3728127778" lon="-8.1272018608">
        <ele>441.86</ele>
        <time>2021-05-28T11:48:41Z</time>
      </trkpt>
      <trkpt lat="37.3727009632" lon="-8.1272624619">
        <ele>440.42</ele>
        <time>2021-05-28T11:48:42Z</time>
      </trkpt>
      <trkpt lat="37.3726237658" lon="-8.1273444369">
        <ele>438.02</ele>
        <time>2021-05-28T11:48:43Z</time>
      </trkpt>
      <trkpt lat="37.3725863826" lon="-8.1274456903">
        <ele>438.02</ele>
        <time>2021-05-28T11:48:44Z</time>
      </trkpt>
      <trkpt lat="37.3725760728" lon="-8.1275674794">
        <ele>438.02</ele>
        <time>2021-05-28T11:48:45Z</time>
      </trkpt>
      <trkpt lat="37.3725790065" lon="-8.1277149171">
        <ele>438.02</ele>
        <time>2021-05-28T11:48:46Z</time>
      </trkpt>
      <trkpt lat="37.3725913279" lon="-8.1278822199">
        <ele>438.50</ele>
        <time>2021-05-28T11:48:47Z</time>
      </trkpt>
      <trkpt lat="37.3726230953" lon="-8.1280502770">
        <ele>438.02</ele>
        <time>2021-05-28T11:48:48Z</time>
      </trkpt>
      <trkpt lat="37.3726862110" lon="-8.1281995587">
        <ele>436.58</ele>
        <time>2021-05-28T11:48:49Z</time>
      </trkpt>
      <trkpt lat="37.3727768194" lon="-8.1283280533">
        <ele>436.10</ele>
        <time>2021-05-28T11:48:50Z</time>
      </trkpt>
      <trkpt lat="37.3728789110" lon="-8.1284516864">
        <ele>436.10</ele>
        <time>2021-05-28T11:48:51Z</time>
      </trkpt>
      <trkpt lat="37.3729714472" lon="-8.1285793427">
        <ele>433.69</ele>
        <time>2021-05-28T11:48:52Z</time>
      </trkpt>
      <trkpt lat="37.3730414361" lon="-8.1287152134">
        <ele>432.25</ele>
        <time>2021-05-28T11:48:53Z</time>
      </trkpt>
      <trkpt lat="37.3730774783" lon="-8.1288633216">
        <ele>430.33</ele>
        <time>2021-05-28T11:48:54Z</time>
      </trkpt>
      <trkpt lat="37.3730747961" lon="-8.1290111784">
        <ele>429.37</ele>
        <time>2021-05-28T11:48:55Z</time>
      </trkpt>
      <trkpt lat="37.3730367422" lon="-8.1291324645">
        <ele>426.96</ele>
        <time>2021-05-28T11:48:56Z</time>
      </trkpt>
      <trkpt lat="37.3729648255" lon="-8.1292128470">
        <ele>424.56</ele>
        <time>2021-05-28T11:48:57Z</time>
      </trkpt>
      <trkpt lat="37.3728602193" lon="-8.1292685028">
        <ele>424.08</ele>
        <time>2021-05-28T11:48:58Z</time>
      </trkpt>
      <trkpt lat="37.3727272823" lon="-8.1293172855">
        <ele>423.60</ele>
        <time>2021-05-28T11:48:59Z</time>
      </trkpt>
      <trkpt lat="37.3725736421" lon="-8.1293635536">
        <ele>422.16</ele>
        <time>2021-05-28T11:49:00Z</time>
      </trkpt>
      <trkpt lat="37.3724158108" lon="-8.1294120848">
        <ele>422.16</ele>
        <time>2021-05-28T11:49:01Z</time>
      </trkpt>
      <trkpt lat="37.3721424770" lon="-8.1295399088">
        <ele>418.31</ele>
        <time>2021-05-28T11:49:03Z</time>
      </trkpt>
      <trkpt lat="37.3720430676" lon="-8.1296321098">
        <ele>416.87</ele>
        <time>2021-05-28T11:49:04Z</time>
      </trkpt>
      <trkpt lat="37.3719735816" lon="-8.1297481153">
        <ele>417.35</ele>
        <time>2021-05-28T11:49:05Z</time>
      </trkpt>
      <trkpt lat="37.3719430715" lon="-8.1298911106">
        <ele>418.31</ele>
        <time>2021-05-28T11:49:06Z</time>
      </trkpt>
      <trkpt lat="37.3719443288" lon="-8.1300558150">
        <ele>420.23</ele>
        <time>2021-05-28T11:49:07Z</time>
      </trkpt>
      <trkpt lat="37.3719406407" lon="-8.1302435696">
        <ele>420.71</ele>
        <time>2021-05-28T11:49:08Z</time>
      </trkpt>
      <trkpt lat="37.3719061911" lon="-8.1304477528">
        <ele>422.16</ele>
        <time>2021-05-28T11:49:09Z</time>
      </trkpt>
      <trkpt lat="37.3718323465" lon="-8.1306620780">
        <ele>425.52</ele>
        <time>2021-05-28T11:49:10Z</time>
      </trkpt>
      <trkpt lat="37.3717323504" lon="-8.1308745593">
        <ele>426.48</ele>
        <time>2021-05-28T11:49:11Z</time>
      </trkpt>
      <trkpt lat="37.3716197815" lon="-8.1310855318">
        <ele>429.37</ele>
        <time>2021-05-28T11:49:12Z</time>
      </trkpt>
      <trkpt lat="37.3706775717" lon="-8.1326258741">
        <ele>430.81</ele>
        <time>2021-05-28T11:49:19Z</time>
      </trkpt>
      <trkpt lat="37.3704030644" lon="-8.1330332346">
        <ele>431.29</ele>
        <time>2021-05-28T11:49:21Z</time>
      </trkpt>
      <trkpt lat="37.3700880725" lon="-8.1333938241">
        <ele>435.13</ele>
        <time>2021-05-28T11:49:23Z</time>
      </trkpt>
      <trkpt lat="37.3699563090" lon="-8.1335581932">
        <ele>435.13</ele>
        <time>2021-05-28T11:49:24Z</time>
      </trkpt>
      <trkpt lat="37.3698415607" lon="-8.1337264180">
        <ele>435.13</ele>
        <time>2021-05-28T11:49:25Z</time>
      </trkpt>
      <trkpt lat="37.3697418161" lon="-8.1338992529">
        <ele>434.65</ele>
        <time>2021-05-28T11:49:26Z</time>
      </trkpt>
      <trkpt lat="37.3695554864" lon="-8.1342102215">
        <ele>432.73</ele>
        <time>2021-05-28T11:49:28Z</time>
      </trkpt>
      <trkpt lat="37.3694514669" lon="-8.1343175098">
        <ele>432.25</ele>
        <time>2021-05-28T11:49:29Z</time>
      </trkpt>
      <trkpt lat="37.3693254869" lon="-8.1343793683">
        <ele>431.77</ele>
        <time>2021-05-28T11:49:30Z</time>
      </trkpt>
      <trkpt lat="37.3691765405" lon="-8.1344097108">
        <ele>432.25</ele>
        <time>2021-05-28T11:49:31Z</time>
      </trkpt>
      <trkpt lat="37.3690203018" lon="-8.1344278995">
        <ele>432.25</ele>
        <time>2021-05-28T11:49:32Z</time>
      </trkpt>
      <trkpt lat="37.3687470518" lon="-8.1344864052">
        <ele>429.37</ele>
        <time>2021-05-28T11:49:34Z</time>
      </trkpt>
      <trkpt lat="37.3686406016" lon="-8.1345516164">
        <ele>427.92</ele>
        <time>2021-05-28T11:49:35Z</time>
      </trkpt>
      <trkpt lat="37.3685550224" lon="-8.1346661132">
        <ele>426.96</ele>
        <time>2021-05-28T11:49:36Z</time>
      </trkpt>
      <trkpt lat="37.3684773222" lon="-8.1348277163">
        <ele>426.96</ele>
        <time>2021-05-28T11:49:37Z</time>
      </trkpt>
      <trkpt lat="37.3683934193" lon="-8.1350193266">
        <ele>426.96</ele>
        <time>2021-05-28T11:49:38Z</time>
      </trkpt>
      <trkpt lat="37.3682114482" lon="-8.1354436185">
        <ele>423.60</ele>
        <time>2021-05-28T11:49:40Z</time>
      </trkpt>
      <trkpt lat="37.3680168204" lon="-8.1359104067">
        <ele>420.23</ele>
        <time>2021-05-28T11:49:42Z</time>
      </trkpt>
      <trkpt lat="37.3678267188" lon="-8.1363666337">
        <ele>415.91</ele>
        <time>2021-05-28T11:49:44Z</time>
      </trkpt>
      <trkpt lat="37.3676791973" lon="-8.1367711443">
        <ele>412.06</ele>
        <time>2021-05-28T11:49:46Z</time>
      </trkpt>
      <trkpt lat="37.3676299956" lon="-8.1369718909">
        <ele>411.10</ele>
        <time>2021-05-28T11:49:47Z</time>
      </trkpt>
      <trkpt lat="37.3675932828" lon="-8.1371870544">
        <ele>411.10</ele>
        <time>2021-05-28T11:49:48Z</time>
      </trkpt>
      <trkpt lat="37.3674993217" lon="-8.1378134340">
        <ele>409.18</ele>
        <time>2021-05-28T11:49:51Z</time>
      </trkpt>
      <trkpt lat="37.3674468510" lon="-8.1379776355">
        <ele>407.74</ele>
        <time>2021-05-28T11:49:52Z</time>
      </trkpt>
      <trkpt lat="37.3673626129" lon="-8.1381219719">
        <ele>406.29</ele>
        <time>2021-05-28T11:49:53Z</time>
      </trkpt>
      <trkpt lat="37.3672500439" lon="-8.1382661406">
        <ele>406.77</ele>
        <time>2021-05-28T11:49:54Z</time>
      </trkpt>
      <trkpt lat="37.3668897897" lon="-8.1387323420">
        <ele>402.45</ele>
        <time>2021-05-28T11:49:57Z</time>
      </trkpt>
      <trkpt lat="37.3666578624" lon="-8.1389721483">
        <ele>397.16</ele>
        <time>2021-05-28T11:49:59Z</time>
      </trkpt>
      <trkpt lat="37.3665240034" lon="-8.1390304025">
        <ele>395.72</ele>
        <time>2021-05-28T11:50:00Z</time>
      </trkpt>
      <trkpt lat="37.3663705308" lon="-8.1390553806">
        <ele>393.32</ele>
        <time>2021-05-28T11:50:01Z</time>
      </trkpt>
      <trkpt lat="37.3656698875" lon="-8.1391651835">
        <ele>388.03</ele>
        <time>2021-05-28T11:50:05Z</time>
      </trkpt>
      <trkpt lat="37.3655138165" lon="-8.1392176542">
        <ele>387.07</ele>
        <time>2021-05-28T11:50:06Z</time>
      </trkpt>
      <trkpt lat="37.3653828911" lon="-8.1392920855">
        <ele>387.07</ele>
        <time>2021-05-28T11:50:07Z</time>
      </trkpt>
      <trkpt lat="37.3652769439" lon="-8.1394042354">
        <ele>388.51</ele>
        <time>2021-05-28T11:50:08Z</time>
      </trkpt>
      <trkpt lat="37.3651881795" lon="-8.1395525951">
        <ele>390.43</ele>
        <time>2021-05-28T11:50:09Z</time>
      </trkpt>
      <trkpt lat="37.3651080485" lon="-8.1397293694">
        <ele>391.39</ele>
        <time>2021-05-28T11:50:10Z</time>
      </trkpt>
      <trkpt lat="37.3650396522" lon="-8.1399216503">
        <ele>393.32</ele>
        <time>2021-05-28T11:50:11Z</time>
      </trkpt>
      <trkpt lat="37.3649880197" lon="-8.1401332095">
        <ele>395.72</ele>
        <time>2021-05-28T11:50:12Z</time>
      </trkpt>
      <trkpt lat="37.3649426736" lon="-8.1403642148">
        <ele>398.12</ele>
        <time>2021-05-28T11:50:13Z</time>
      </trkpt>
      <trkpt lat="37.3648601957" lon="-8.1408400554">
        <ele>399.57</ele>
        <time>2021-05-28T11:50:15Z</time>
      </trkpt>
      <trkpt lat="37.3647725210" lon="-8.1413046643">
        <ele>401.01</ele>
        <time>2021-05-28T11:50:17Z</time>
      </trkpt>
      <trkpt lat="37.3647031188" lon="-8.1415339094">
        <ele>401.49</ele>
        <time>2021-05-28T11:50:18Z</time>
      </trkpt>
      <trkpt lat="37.3644226603" lon="-8.1422970816">
        <ele>398.12</ele>
        <time>2021-05-28T11:50:22Z</time>
      </trkpt>
      <trkpt lat="37.3643957544" lon="-8.1424610317">
        <ele>397.64</ele>
        <time>2021-05-28T11:50:23Z</time>
      </trkpt>
      <trkpt lat="37.3643864505" lon="-8.1426390633">
        <ele>398.60</ele>
        <time>2021-05-28T11:50:24Z</time>
      </trkpt>
      <trkpt lat="37.3643876240" lon="-8.1435288023">
        <ele>397.16</ele>
        <time>2021-05-28T11:50:28Z</time>
      </trkpt>
      <trkpt lat="37.3643940780" lon="-8.1437748950">
        <ele>393.32</ele>
        <time>2021-05-28T11:50:29Z</time>
      </trkpt>
      <trkpt lat="37.3644056451" lon="-8.1440169644">
        <ele>389.47</ele>
        <time>2021-05-28T11:50:30Z</time>
      </trkpt>
      <trkpt lat="37.3644291144" lon="-8.1442539208">
        <ele>387.55</ele>
        <time>2021-05-28T11:50:31Z</time>
      </trkpt>
      <trkpt lat="37.3644717783" lon="-8.1444841716">
        <ele>385.15</ele>
        <time>2021-05-28T11:50:32Z</time>
      </trkpt>
      <trkpt lat="37.3645634763" lon="-8.1449616887">
        <ele>383.22</ele>
        <time>2021-05-28T11:50:34Z</time>
      </trkpt>
      <trkpt lat="37.3645806592" lon="-8.1452241261">
        <ele>381.30</ele>
        <time>2021-05-28T11:50:35Z</time>
      </trkpt>
      <trkpt lat="37.3645734508" lon="-8.1454989687">
        <ele>381.78</ele>
        <time>2021-05-28T11:50:36Z</time>
      </trkpt>
      <trkpt lat="37.3645239975" lon="-8.1460385956">
        <ele>385.15</ele>
        <time>2021-05-28T11:50:38Z</time>
      </trkpt>
      <trkpt lat="37.3644468840" lon="-8.1469144206">
        <ele>388.03</ele>
        <time>2021-05-28T11:50:42Z</time>
      </trkpt>
      <trkpt lat="37.3643870372" lon="-8.1472931150">
        <ele>388.99</ele>
        <time>2021-05-28T11:50:44Z</time>
      </trkpt>
      <trkpt lat="37.3643483967" lon="-8.1474562269">
        <ele>388.51</ele>
        <time>2021-05-28T11:50:45Z</time>
      </trkpt>
      <trkpt lat="37.3642890528" lon="-8.1475948635">
        <ele>387.55</ele>
        <time>2021-05-28T11:50:46Z</time>
      </trkpt>
      <trkpt lat="37.3642004561" lon="-8.1477045827">
        <ele>385.15</ele>
        <time>2021-05-28T11:50:47Z</time>
      </trkpt>
      <trkpt lat="37.3640820198" lon="-8.1477980409">
        <ele>386.11</ele>
        <time>2021-05-28T11:50:48Z</time>
      </trkpt>
      <trkpt lat="37.3639409523" lon="-8.1478956062">
        <ele>385.63</ele>
        <time>2021-05-28T11:50:49Z</time>
      </trkpt>
      <trkpt lat="37.3632830568" lon="-8.1483561918">
        <ele>381.78</ele>
        <time>2021-05-28T11:50:53Z</time>
      </trkpt>
      <trkpt lat="37.3628444318" lon="-8.1487047952">
        <ele>381.30</ele>
        <time>2021-05-28T11:50:56Z</time>
      </trkpt>
      <trkpt lat="37.3622611351" lon="-8.1493520457">
        <ele>377.94</ele>
        <time>2021-05-28T11:51:00Z</time>
      </trkpt>
      <trkpt lat="37.3619655054" lon="-8.1497188378">
        <ele>374.57</ele>
        <time>2021-05-28T11:51:02Z</time>
      </trkpt>
      <trkpt lat="37.3617187422" lon="-8.1500459835">
        <ele>370.24</ele>
        <time>2021-05-28T11:51:04Z</time>
      </trkpt>
      <trkpt lat="37.3616077658" lon="-8.1501756515">
        <ele>368.32</ele>
        <time>2021-05-28T11:51:05Z</time>
      </trkpt>
      <trkpt lat="37.3614916764" lon="-8.1502748933">
        <ele>367.36</ele>
        <time>2021-05-28T11:51:06Z</time>
      </trkpt>
      <trkpt lat="37.3613551352" lon="-8.1503510848">
        <ele>365.44</ele>
        <time>2021-05-28T11:51:07Z</time>
      </trkpt>
      <trkpt lat="37.3606861755" lon="-8.1506805774">
        <ele>360.15</ele>
        <time>2021-05-28T11:51:11Z</time>
      </trkpt>
      <trkpt lat="37.3605306912" lon="-8.1507725269">
        <ele>360.15</ele>
        <time>2021-05-28T11:51:12Z</time>
      </trkpt>
      <trkpt lat="37.3603805713" lon="-8.1508673262">
        <ele>356.31</ele>
        <time>2021-05-28T11:51:13Z</time>
      </trkpt>
      <trkpt lat="37.3600893002" lon="-8.1510581821">
        <ele>352.46</ele>
        <time>2021-05-28T11:51:15Z</time>
      </trkpt>
      <trkpt lat="37.3598012142" lon="-8.1512554921">
        <ele>350.54</ele>
        <time>2021-05-28T11:51:17Z</time>
      </trkpt>
      <trkpt lat="37.3596560396" lon="-8.1513870042">
        <ele>347.65</ele>
        <time>2021-05-28T11:51:18Z</time>
      </trkpt>
      <trkpt lat="37.3593729828" lon="-8.1516907644">
        <ele>342.85</ele>
        <time>2021-05-28T11:51:20Z</time>
      </trkpt>
      <trkpt lat="37.3591019120" lon="-8.1519946083">
        <ele>337.08</ele>
        <time>2021-05-28T11:51:22Z</time>
      </trkpt>
      <trkpt lat="37.3588859104" lon="-8.1522906572">
        <ele>332.27</ele>
        <time>2021-05-28T11:51:24Z</time>
      </trkpt>
      <trkpt lat="37.3588163406" lon="-8.1524528470">
        <ele>331.31</ele>
        <time>2021-05-28T11:51:25Z</time>
      </trkpt>
      <trkpt lat="37.3587733414" lon="-8.1526377518">
        <ele>331.79</ele>
        <time>2021-05-28T11:51:26Z</time>
      </trkpt>
      <trkpt lat="37.3587502073" lon="-8.1528452039">
        <ele>333.71</ele>
        <time>2021-05-28T11:51:27Z</time>
      </trkpt>
      <trkpt lat="37.3587373830" lon="-8.1530591939">
        <ele>331.79</ele>
        <time>2021-05-28T11:51:28Z</time>
      </trkpt>
      <trkpt lat="37.3587155901" lon="-8.1532716751">
        <ele>329.87</ele>
        <time>2021-05-28T11:51:29Z</time>
      </trkpt>
      <trkpt lat="37.3586697411" lon="-8.1534903590">
        <ele>327.47</ele>
        <time>2021-05-28T11:51:30Z</time>
      </trkpt>
      <trkpt lat="37.3585994169" lon="-8.1537209451">
        <ele>325.54</ele>
        <time>2021-05-28T11:51:31Z</time>
      </trkpt>
      <trkpt lat="37.3585135024" lon="-8.1539552193">
        <ele>322.18</ele>
        <time>2021-05-28T11:51:32Z</time>
      </trkpt>
      <trkpt lat="37.3584182840" lon="-8.1541863922">
        <ele>317.85</ele>
        <time>2021-05-28T11:51:33Z</time>
      </trkpt>
      <trkpt lat="37.3583212215" lon="-8.1544132065">
        <ele>311.60</ele>
        <time>2021-05-28T11:51:34Z</time>
      </trkpt>
      <trkpt lat="37.3581704311" lon="-8.1548539270">
        <ele>305.84</ele>
        <time>2021-05-28T11:51:36Z</time>
      </trkpt>
      <trkpt lat="37.3581305332" lon="-8.1550977565">
        <ele>304.39</ele>
        <time>2021-05-28T11:51:37Z</time>
      </trkpt>
      <trkpt lat="37.3581080697" lon="-8.1553717609">
        <ele>304.88</ele>
        <time>2021-05-28T11:51:38Z</time>
      </trkpt>
      <trkpt lat="37.3580732848" lon="-8.1559575722">
        <ele>300.55</ele>
        <time>2021-05-28T11:51:40Z</time>
      </trkpt>
      <trkpt lat="37.3580484744" lon="-8.1565741450">
        <ele>297.18</ele>
        <time>2021-05-28T11:51:42Z</time>
      </trkpt>
      <trkpt lat="37.3579560220" lon="-8.1583823729">
        <ele>294.78</ele>
        <time>2021-05-28T11:51:49Z</time>
      </trkpt>
      <trkpt lat="37.3579489812" lon="-8.1586034037">
        <ele>293.82</ele>
        <time>2021-05-28T11:51:50Z</time>
      </trkpt>
      <trkpt lat="37.3579620570" lon="-8.1588143762">
        <ele>292.86</ele>
        <time>2021-05-28T11:51:51Z</time>
      </trkpt>
      <trkpt lat="37.3579984345" lon="-8.1590257678">
        <ele>292.38</ele>
        <time>2021-05-28T11:51:52Z</time>
      </trkpt>
      <trkpt lat="37.3580547608" lon="-8.1592404284">
        <ele>293.82</ele>
        <time>2021-05-28T11:51:53Z</time>
      </trkpt>
      <trkpt lat="37.3581231572" lon="-8.1594591122">
        <ele>294.30</ele>
        <time>2021-05-28T11:51:54Z</time>
      </trkpt>
      <trkpt lat="37.3582508974" lon="-8.1598792132">
        <ele>290.46</ele>
        <time>2021-05-28T11:51:56Z</time>
      </trkpt>
      <trkpt lat="37.3583999276" lon="-8.1604304910">
        <ele>286.61</ele>
        <time>2021-05-28T11:51:59Z</time>
      </trkpt>
      <trkpt lat="37.3584775440" lon="-8.1607758254">
        <ele>282.77</ele>
        <time>2021-05-28T11:52:01Z</time>
      </trkpt>
      <trkpt lat="37.3585896939" lon="-8.1613103393">
        <ele>277.96</ele>
        <time>2021-05-28T11:52:04Z</time>
      </trkpt>
      <trkpt lat="37.3586614430" lon="-8.1616382394">
        <ele>273.63</ele>
        <time>2021-05-28T11:52:06Z</time>
      </trkpt>
      <trkpt lat="37.3587239720" lon="-8.1619000901">
        <ele>269.79</ele>
        <time>2021-05-28T11:52:08Z</time>
      </trkpt>
      <trkpt lat="37.3588030133" lon="-8.1622464303">
        <ele>265.94</ele>
        <time>2021-05-28T11:52:11Z</time>
      </trkpt>
      <trkpt lat="37.3588209506" lon="-8.1623636093">
        <ele>264.98</ele>
        <time>2021-05-28T11:52:12Z</time>
      </trkpt>
      <trkpt lat="37.3588268179" lon="-8.1624838896">
        <ele>264.50</ele>
        <time>2021-05-28T11:52:13Z</time>
      </trkpt>
      <trkpt lat="37.3588118982" lon="-8.1626106240">
        <ele>264.02</ele>
        <time>2021-05-28T11:52:14Z</time>
      </trkpt>
      <trkpt lat="37.3587728385" lon="-8.1627403758">
        <ele>262.58</ele>
        <time>2021-05-28T11:52:15Z</time>
      </trkpt>
      <trkpt lat="37.3587222956" lon="-8.1628755759">
        <ele>262.10</ele>
        <time>2021-05-28T11:52:16Z</time>
      </trkpt>
      <trkpt lat="37.3586259037" lon="-8.1631374266">
        <ele>258.73</ele>
        <time>2021-05-28T11:52:18Z</time>
      </trkpt>
      <trkpt lat="37.3584916256" lon="-8.1634951662">
        <ele>255.37</ele>
        <time>2021-05-28T11:52:21Z</time>
      </trkpt>
      <trkpt lat="37.3584361374" lon="-8.1635986827">
        <ele>253.93</ele>
        <time>2021-05-28T11:52:22Z</time>
      </trkpt>
      <trkpt lat="37.3583689146" lon="-8.1636779755">
        <ele>252.48</ele>
        <time>2021-05-28T11:52:23Z</time>
      </trkpt>
      <trkpt lat="37.3582915496" lon="-8.1637301948">
        <ele>251.04</ele>
        <time>2021-05-28T11:52:24Z</time>
      </trkpt>
      <trkpt lat="37.3582196329" lon="-8.1637616269">
        <ele>250.08</ele>
        <time>2021-05-28T11:52:25Z</time>
      </trkpt>
      <trkpt lat="37.3581635579" lon="-8.1637835037">
        <ele>249.12</ele>
        <time>2021-05-28T11:52:26Z</time>
      </trkpt>
      <trkpt lat="37.3580932338" lon="-8.1638154387">
        <ele>248.16</ele>
        <time>2021-05-28T11:52:28Z</time>
      </trkpt>
      <trkpt lat="37.3580600414" lon="-8.1638187915">
        <ele>247.68</ele>
        <time>2021-05-28T11:52:36Z</time>
      </trkpt>
      <trkpt lat="37.3580185510" lon="-8.1638020277">
        <ele>248.16</ele>
        <time>2021-05-28T11:53:17Z</time>
      </trkpt>
      <trkpt lat="37.3579869512" lon="-8.1638833322">
        <ele>248.16</ele>
        <time>2021-05-28T11:53:57Z</time>
      </trkpt>
      <trkpt lat="37.3576054908" lon="-8.1641636230">
        <ele>247.20</ele>
        <time>2021-05-28T11:54:02Z</time>
      </trkpt>
      <trkpt lat="37.3574999627" lon="-8.1642495375">
        <ele>247.68</ele>
        <time>2021-05-28T11:54:03Z</time>
      </trkpt>
      <trkpt lat="37.3574041575" lon="-8.1643462647">
        <ele>247.68</ele>
        <time>2021-05-28T11:54:04Z</time>
      </trkpt>
      <trkpt lat="37.3573171534" lon="-8.1644488592">
        <ele>246.72</ele>
        <time>2021-05-28T11:54:05Z</time>
      </trkpt>
      <trkpt lat="37.3572410457" lon="-8.1645542197">
        <ele>245.27</ele>
        <time>2021-05-28T11:54:06Z</time>
      </trkpt>
      <trkpt lat="37.3571792711" lon="-8.1646618433">
        <ele>244.31</ele>
        <time>2021-05-28T11:54:07Z</time>
      </trkpt>
      <trkpt lat="37.3571325839" lon="-8.1647617556">
        <ele>241.91</ele>
        <time>2021-05-28T11:54:08Z</time>
      </trkpt>
      <trkpt lat="37.3570963740" lon="-8.1648463290">
        <ele>241.91</ele>
        <time>2021-05-28T11:54:09Z</time>
      </trkpt>
      <trkpt lat="37.3570138123" lon="-8.1650825310">
        <ele>239.51</ele>
        <time>2021-05-28T11:54:16Z</time>
      </trkpt>
      <trkpt lat="37.3570112139" lon="-8.1651157234">
        <ele>239.51</ele>
        <time>2021-05-28T11:54:29Z</time>
      </trkpt>
      <trkpt lat="37.3570191767" lon="-8.1651539449">
        <ele>239.99</ele>
        <time>2021-05-28T11:54:30Z</time>
      </trkpt>
      <trkpt lat="37.3570459988" lon="-8.1652018894">
        <ele>240.47</ele>
        <time>2021-05-28T11:54:31Z</time>
      </trkpt>
      <trkpt lat="37.3570919316" lon="-8.1652520970">
        <ele>239.99</ele>
        <time>2021-05-28T11:54:32Z</time>
      </trkpt>
      <trkpt lat="37.3571428098" lon="-8.1653051544">
        <ele>239.99</ele>
        <time>2021-05-28T11:54:33Z</time>
      </trkpt>
      <trkpt lat="37.3571892455" lon="-8.1653660908">
        <ele>239.99</ele>
        <time>2021-05-28T11:54:34Z</time>
      </trkpt>
      <trkpt lat="37.3572388664" lon="-8.1654333975">
        <ele>240.47</ele>
        <time>2021-05-28T11:54:35Z</time>
      </trkpt>
      <trkpt lat="37.3573572189" lon="-8.1655793265">
        <ele>241.43</ele>
        <time>2021-05-28T11:54:37Z</time>
      </trkpt>
      <trkpt lat="37.3574873060" lon="-8.1657465454">
        <ele>241.91</ele>
        <time>2021-05-28T11:54:39Z</time>
      </trkpt>
      <trkpt lat="37.3575408664" lon="-8.1658512354">
        <ele>243.35</ele>
        <time>2021-05-28T11:54:40Z</time>
      </trkpt>
      <trkpt lat="37.3575750645" lon="-8.1659716833">
        <ele>243.35</ele>
        <time>2021-05-28T11:54:41Z</time>
      </trkpt>
      <trkpt lat="37.3575864639" lon="-8.1661031116">
        <ele>243.35</ele>
        <time>2021-05-28T11:54:42Z</time>
      </trkpt>
      <trkpt lat="37.3575762380" lon="-8.1662382279">
        <ele>244.31</ele>
        <time>2021-05-28T11:54:43Z</time>
      </trkpt>
      <trkpt lat="37.3575531039" lon="-8.1663733441">
        <ele>244.79</ele>
        <time>2021-05-28T11:54:44Z</time>
      </trkpt>
      <trkpt lat="37.3575290479" lon="-8.1664991565">
        <ele>245.27</ele>
        <time>2021-05-28T11:54:45Z</time>
      </trkpt>
      <trkpt lat="37.3575050756" lon="-8.1667169183">
        <ele>245.75</ele>
        <time>2021-05-28T11:54:47Z</time>
      </trkpt>
      <trkpt lat="37.3575154692" lon="-8.1668185908">
        <ele>246.23</ele>
        <time>2021-05-28T11:54:48Z</time>
      </trkpt>
      <trkpt lat="37.3575453088" lon="-8.1669143960">
        <ele>246.23</ele>
        <time>2021-05-28T11:54:49Z</time>
      </trkpt>
      <trkpt lat="37.3575927503" lon="-8.1670044176">
        <ele>246.72</ele>
        <time>2021-05-28T11:54:50Z</time>
      </trkpt>
      <trkpt lat="37.3576577101" lon="-8.1670879852">
        <ele>248.16</ele>
        <time>2021-05-28T11:54:51Z</time>
      </trkpt>
      <trkpt lat="37.3577386793" lon="-8.1671576388">
        <ele>248.64</ele>
        <time>2021-05-28T11:54:52Z</time>
      </trkpt>
      <trkpt lat="37.3578320537" lon="-8.1672134623">
        <ele>248.64</ele>
        <time>2021-05-28T11:54:53Z</time>
      </trkpt>
      <trkpt lat="37.3579317983" lon="-8.1672659330">
        <ele>248.64</ele>
        <time>2021-05-28T11:54:54Z</time>
      </trkpt>
      <trkpt lat="37.3583890311" lon="-8.1675252691">
        <ele>245.75</ele>
        <time>2021-05-28T11:55:01Z</time>
      </trkpt>
      <trkpt lat="37.3585262429" lon="-8.1678740401">
        <ele>241.91</ele>
        <time>2021-05-28T11:55:10Z</time>
      </trkpt>
      <trkpt lat="37.3585342895" lon="-8.1679284386">
        <ele>241.91</ele>
        <time>2021-05-28T11:55:11Z</time>
      </trkpt>
      <trkpt lat="37.3585383967" lon="-8.1679862738">
        <ele>241.91</ele>
        <time>2021-05-28T11:55:12Z</time>
      </trkpt>
      <trkpt lat="37.3585564177" lon="-8.1681989226">
        <ele>239.51</ele>
        <time>2021-05-28T11:55:16Z</time>
      </trkpt>
      <trkpt lat="37.3587386403" lon="-8.1687942054">
        <ele>236.62</ele>
        <time>2021-05-28T11:55:27Z</time>
      </trkpt>
      <trkpt lat="37.3587683961" lon="-8.1689301599">
        <ele>235.66</ele>
        <time>2021-05-28T11:55:29Z</time>
      </trkpt>
      <trkpt lat="37.3587714974" lon="-8.1690057646">
        <ele>236.14</ele>
        <time>2021-05-28T11:55:30Z</time>
      </trkpt>
      <trkpt lat="37.3587673064" lon="-8.1690815371">
        <ele>236.14</ele>
        <time>2021-05-28T11:55:31Z</time>
      </trkpt>
      <trkpt lat="37.3587876745" lon="-8.1696709525">
        <ele>235.66</ele>
        <time>2021-05-28T11:55:40Z</time>
      </trkpt>
      <trkpt lat="37.3588129040" lon="-8.1698925700">
        <ele>234.70</ele>
        <time>2021-05-28T11:55:43Z</time>
      </trkpt>
      <trkpt lat="37.3588091321" lon="-8.1700980943">
        <ele>233.74</ele>
        <time>2021-05-28T11:55:46Z</time>
      </trkpt>
      <trkpt lat="37.3587994091" lon="-8.1702235714">
        <ele>233.74</ele>
        <time>2021-05-28T11:55:48Z</time>
      </trkpt>
      <trkpt lat="37.3587995768" lon="-8.1702845916">
        <ele>233.74</ele>
        <time>2021-05-28T11:55:49Z</time>
      </trkpt>
      <trkpt lat="37.3588060308" lon="-8.1703516468">
        <ele>233.26</ele>
        <time>2021-05-28T11:55:50Z</time>
      </trkpt>
      <trkpt lat="37.3588208668" lon="-8.1704228092">
        <ele>233.26</ele>
        <time>2021-05-28T11:55:51Z</time>
      </trkpt>
      <trkpt lat="37.3588431627" lon="-8.1704983301">
        <ele>233.26</ele>
        <time>2021-05-28T11:55:52Z</time>
      </trkpt>
      <trkpt lat="37.3588704877" lon="-8.1705785450">
        <ele>233.74</ele>
        <time>2021-05-28T11:55:53Z</time>
      </trkpt>
      <trkpt lat="37.3589011654" lon="-8.1706615258">
        <ele>233.74</ele>
        <time>2021-05-28T11:55:54Z</time>
      </trkpt>
      <trkpt lat="37.3589683045" lon="-8.1708159205">
        <ele>232.78</ele>
        <time>2021-05-28T11:55:56Z</time>
      </trkpt>
      <trkpt lat="37.3591937777" lon="-8.1711562257">
        <ele>232.30</ele>
        <time>2021-05-28T11:56:01Z</time>
      </trkpt>
      <trkpt lat="37.3592996411" lon="-8.1712742429">
        <ele>232.30</ele>
        <time>2021-05-28T11:56:03Z</time>
      </trkpt>
      <trkpt lat="37.3594003916" lon="-8.1713859737">
        <ele>231.81</ele>
        <time>2021-05-28T11:56:05Z</time>
      </trkpt>
      <trkpt lat="37.3594542872" lon="-8.1714224350">
        <ele>231.33</ele>
        <time>2021-05-28T11:56:06Z</time>
      </trkpt>
      <trkpt lat="37.3595114518" lon="-8.1714490894">
        <ele>231.33</ele>
        <time>2021-05-28T11:56:07Z</time>
      </trkpt>
      <trkpt lat="37.3595710471" lon="-8.1714684516">
        <ele>230.85</ele>
        <time>2021-05-28T11:56:08Z</time>
      </trkpt>
      <trkpt lat="37.3596322350" lon="-8.1714809407">
        <ele>229.89</ele>
        <time>2021-05-28T11:56:09Z</time>
      </trkpt>
      <trkpt lat="37.3596911598" lon="-8.1714919209">
        <ele>229.89</ele>
        <time>2021-05-28T11:56:10Z</time>
      </trkpt>
      <trkpt lat="37.3599088378" lon="-8.1715431344">
        <ele>228.93</ele>
        <time>2021-05-28T11:56:14Z</time>
      </trkpt>
      <trkpt lat="37.3599542677" lon="-8.1715692859">
        <ele>228.45</ele>
        <time>2021-05-28T11:56:15Z</time>
      </trkpt>
      <trkpt lat="37.3599978536" lon="-8.1716063339">
        <ele>228.93</ele>
        <time>2021-05-28T11:56:16Z</time>
      </trkpt>
      <trkpt lat="37.3600356560" lon="-8.1716559548">
        <ele>228.93</ele>
        <time>2021-05-28T11:56:17Z</time>
      </trkpt>
      <trkpt lat="37.3600701056" lon="-8.1717080064">
        <ele>229.41</ele>
        <time>2021-05-28T11:56:18Z</time>
      </trkpt>
      <trkpt lat="37.3600996938" lon="-8.1717651710">
        <ele>229.89</ele>
        <time>2021-05-28T11:56:19Z</time>
      </trkpt>
      <trkpt lat="37.3601286113" lon="-8.1718262751">
        <ele>231.33</ele>
        <time>2021-05-28T11:56:20Z</time>
      </trkpt>
      <trkpt lat="37.3602135200" lon="-8.1720344815">
        <ele>232.78</ele>
        <time>2021-05-28T11:56:23Z</time>
      </trkpt>
      <trkpt lat="37.3602285236" lon="-8.1721070688">
        <ele>233.26</ele>
        <time>2021-05-28T11:56:24Z</time>
      </trkpt>
      <trkpt lat="37.3602299485" lon="-8.1721820030">
        <ele>233.26</ele>
        <time>2021-05-28T11:56:25Z</time>
      </trkpt>
      <trkpt lat="37.3602174595" lon="-8.1722549256">
        <ele>233.26</ele>
        <time>2021-05-28T11:56:26Z</time>
      </trkpt>
      <trkpt lat="37.3601961695" lon="-8.1723204721">
        <ele>233.26</ele>
        <time>2021-05-28T11:56:27Z</time>
      </trkpt>
      <trkpt lat="37.3601664975" lon="-8.1723804865">
        <ele>233.26</ele>
        <time>2021-05-28T11:56:28Z</time>
      </trkpt>
      <trkpt lat="37.3601326346" lon="-8.1724364776">
        <ele>233.26</ele>
        <time>2021-05-28T11:56:29Z</time>
      </trkpt>
      <trkpt lat="37.3600944970" lon="-8.1724893674">
        <ele>233.26</ele>
        <time>2021-05-28T11:56:30Z</time>
      </trkpt>
      <trkpt lat="37.3600525036" lon="-8.1725394912">
        <ele>233.74</ele>
        <time>2021-05-28T11:56:31Z</time>
      </trkpt>
      <trkpt lat="37.3597192392" lon="-8.1730334368">
        <ele>235.18</ele>
        <time>2021-05-28T11:56:39Z</time>
      </trkpt>
      <trkpt lat="37.3596931715" lon="-8.1731000729">
        <ele>235.66</ele>
        <time>2021-05-28T11:56:40Z</time>
      </trkpt>
      <trkpt lat="37.3596717138" lon="-8.1731748395">
        <ele>235.66</ele>
        <time>2021-05-28T11:56:41Z</time>
      </trkpt>
      <trkpt lat="37.3596542794" lon="-8.1732596643">
        <ele>236.14</ele>
        <time>2021-05-28T11:56:42Z</time>
      </trkpt>
      <trkpt lat="37.3596381862" lon="-8.1733527873">
        <ele>236.14</ele>
        <time>2021-05-28T11:56:43Z</time>
      </trkpt>
      <trkpt lat="37.3596129566" lon="-8.1742157042">
        <ele>234.70</ele>
        <time>2021-05-28T11:56:51Z</time>
      </trkpt>
      <trkpt lat="37.3596365098" lon="-8.1743157003">
        <ele>235.18</ele>
        <time>2021-05-28T11:56:52Z</time>
      </trkpt>
      <trkpt lat="37.3596658465" lon="-8.1743970048">
        <ele>235.18</ele>
        <time>2021-05-28T11:56:53Z</time>
      </trkpt>
      <trkpt lat="37.3596900702" lon="-8.1744650658">
        <ele>235.18</ele>
        <time>2021-05-28T11:56:54Z</time>
      </trkpt>
      <trkpt lat="37.3596903216" lon="-8.1745259184">
        <ele>234.22</ele>
        <time>2021-05-28T11:56:55Z</time>
      </trkpt>
      <trkpt lat="37.3596712109" lon="-8.1745752040">
        <ele>234.70</ele>
        <time>2021-05-28T11:56:56Z</time>
      </trkpt>
      <trkpt lat="37.3596392758" lon="-8.1746258307">
        <ele>233.74</ele>
        <time>2021-05-28T11:56:57Z</time>
      </trkpt>
      <trkpt lat="37.3595941812" lon="-8.1746754516">
        <ele>232.78</ele>
        <time>2021-05-28T11:56:58Z</time>
      </trkpt>
      <trkpt lat="37.3595373519" lon="-8.1747284252">
        <ele>233.26</ele>
        <time>2021-05-28T11:56:59Z</time>
      </trkpt>
      <trkpt lat="37.3594720569" lon="-8.1747828238">
        <ele>232.30</ele>
        <time>2021-05-28T11:57:00Z</time>
      </trkpt>
      <trkpt lat="37.3591623455" lon="-8.1749946345">
        <ele>228.93</ele>
        <time>2021-05-28T11:57:04Z</time>
      </trkpt>
      <trkpt lat="37.3583612870" lon="-8.1753551401">
        <ele>227.49</ele>
        <time>2021-05-28T11:57:13Z</time>
      </trkpt>
      <trkpt lat="37.3580880370" lon="-8.1755638495">
        <ele>227.01</ele>
        <time>2021-05-28T11:57:17Z</time>
      </trkpt>
      <trkpt lat="37.3580245860" lon="-8.1756347604">
        <ele>226.53</ele>
        <time>2021-05-28T11:57:18Z</time>
      </trkpt>
      <trkpt lat="37.3579694331" lon="-8.1757116225">
        <ele>226.05</ele>
        <time>2021-05-28T11:57:19Z</time>
      </trkpt>
      <trkpt lat="37.3579218239" lon="-8.1757960282">
        <ele>226.05</ele>
        <time>2021-05-28T11:57:20Z</time>
      </trkpt>
      <trkpt lat="37.3578799143" lon="-8.1758906599">
        <ele>225.57</ele>
        <time>2021-05-28T11:57:21Z</time>
      </trkpt>
      <trkpt lat="37.3578425311" lon="-8.1759899016">
        <ele>225.57</ele>
        <time>2021-05-28T11:57:22Z</time>
      </trkpt>
      <trkpt lat="37.3578113504" lon="-8.1760972738">
        <ele>225.57</ele>
        <time>2021-05-28T11:57:23Z</time>
      </trkpt>
      <trkpt lat="37.3577852827" lon="-8.1762083340">
        <ele>226.05</ele>
        <time>2021-05-28T11:57:24Z</time>
      </trkpt>
      <trkpt lat="37.3576897290" lon="-8.1766764633">
        <ele>224.61</ele>
        <time>2021-05-28T11:57:29Z</time>
      </trkpt>
      <trkpt lat="37.3576515075" lon="-8.1768435985">
        <ele>225.09</ele>
        <time>2021-05-28T11:57:31Z</time>
      </trkpt>
      <trkpt lat="37.3576401081" lon="-8.1769254897">
        <ele>224.61</ele>
        <time>2021-05-28T11:57:32Z</time>
      </trkpt>
      <trkpt lat="37.3576371744" lon="-8.1770104822">
        <ele>224.61</ele>
        <time>2021-05-28T11:57:33Z</time>
      </trkpt>
      <trkpt lat="37.3576468974" lon="-8.1770979054">
        <ele>225.09</ele>
        <time>2021-05-28T11:57:34Z</time>
      </trkpt>
      <trkpt lat="37.3576646671" lon="-8.1771821436">
        <ele>225.57</ele>
        <time>2021-05-28T11:57:35Z</time>
      </trkpt>
      <trkpt lat="37.3576888070" lon="-8.1772694830">
        <ele>226.05</ele>
        <time>2021-05-28T11:57:36Z</time>
      </trkpt>
      <trkpt lat="37.3577201553" lon="-8.1773636118">
        <ele>227.01</ele>
        <time>2021-05-28T11:57:37Z</time>
      </trkpt>
      <trkpt lat="37.3578143679" lon="-8.1776323356">
        <ele>229.89</ele>
        <time>2021-05-28T11:57:40Z</time>
      </trkpt>
      <trkpt lat="37.3579416052" lon="-8.1779857166">
        <ele>234.70</ele>
        <time>2021-05-28T11:57:45Z</time>
      </trkpt>
      <trkpt lat="37.3579746298" lon="-8.1780681945">
        <ele>235.66</ele>
        <time>2021-05-28T11:57:46Z</time>
      </trkpt>
      <trkpt lat="37.3580660764" lon="-8.1784087513">
        <ele>237.10</ele>
        <time>2021-05-28T11:57:52Z</time>
      </trkpt>
      <trkpt lat="37.3582108319" lon="-8.1785551831">
        <ele>238.06</ele>
        <time>2021-05-28T11:57:56Z</time>
      </trkpt>
      <trkpt lat="37.3584914580" lon="-8.1787036266">
        <ele>242.39</ele>
        <time>2021-05-28T11:58:01Z</time>
      </trkpt>
      <trkpt lat="37.3585445993" lon="-8.1787541695">
        <ele>242.87</ele>
        <time>2021-05-28T11:58:02Z</time>
      </trkpt>
      <trkpt lat="37.3587544821" lon="-8.1789632980">
        <ele>247.20</ele>
        <time>2021-05-28T11:58:06Z</time>
      </trkpt>
      <trkpt lat="37.3589228746" lon="-8.1791364681">
        <ele>250.08</ele>
        <time>2021-05-28T11:58:09Z</time>
      </trkpt>
      <trkpt lat="37.3590958770" lon="-8.1793181878">
        <ele>252.96</ele>
        <time>2021-05-28T11:58:12Z</time>
      </trkpt>
      <trkpt lat="37.3591842223" lon="-8.1797687989">
        <ele>255.37</ele>
        <time>2021-05-28T11:58:18Z</time>
      </trkpt>
      <trkpt lat="37.3590066936" lon="-8.1800436415">
        <ele>258.25</ele>
        <time>2021-05-28T11:58:22Z</time>
      </trkpt>
      <trkpt lat="37.3587986547" lon="-8.1804903969">
        <ele>263.06</ele>
        <time>2021-05-28T11:58:27Z</time>
      </trkpt>
      <trkpt lat="37.3585687391" lon="-8.1807334721">
        <ele>267.38</ele>
        <time>2021-05-28T11:58:34Z</time>
      </trkpt>
      <trkpt lat="37.3585368041" lon="-8.1805870403">
        <ele>270.75</ele>
        <time>2021-05-28T11:58:36Z</time>
      </trkpt>
      <trkpt lat="37.3585029412" lon="-8.1803145446">
        <ele>275.07</ele>
        <time>2021-05-28T11:58:39Z</time>
      </trkpt>
      <trkpt lat="37.3584734369" lon="-8.1800849643">
        <ele>276.52</ele>
        <time>2021-05-28T11:58:42Z</time>
      </trkpt>
      <trkpt lat="37.3584606964" lon="-8.1800108682">
        <ele>277.48</ele>
        <time>2021-05-28T11:58:43Z</time>
      </trkpt>
      <trkpt lat="37.3582767136" lon="-8.1797924358">
        <ele>280.84</ele>
        <time>2021-05-28T11:58:48Z</time>
      </trkpt>
      <trkpt lat="37.3580885399" lon="-8.1798539590">
        <ele>282.77</ele>
        <time>2021-05-28T11:58:51Z</time>
      </trkpt>
      <trkpt lat="37.3579713609" lon="-8.1799407955">
        <ele>283.73</ele>
        <time>2021-05-28T11:58:53Z</time>
      </trkpt>
      <trkpt lat="37.3578748852" lon="-8.1800146401">
        <ele>285.17</ele>
        <time>2021-05-28T11:58:55Z</time>
      </trkpt>
      <trkpt lat="37.3575992044" lon="-8.1800930947">
        <ele>289.97</ele>
        <time>2021-05-28T11:59:00Z</time>
      </trkpt>
      <trkpt lat="37.3572827037" lon="-8.1800616626">
        <ele>296.22</ele>
        <time>2021-05-28T11:59:04Z</time>
      </trkpt>
      <trkpt lat="37.3570563924" lon="-8.1800525263">
        <ele>299.59</ele>
        <time>2021-05-28T11:59:07Z</time>
      </trkpt>
      <trkpt lat="37.3569098767" lon="-8.1800632551">
        <ele>302.47</ele>
        <time>2021-05-28T11:59:09Z</time>
      </trkpt>
      <trkpt lat="37.3568367865" lon="-8.1800640095">
        <ele>303.91</ele>
        <time>2021-05-28T11:59:10Z</time>
      </trkpt>
      <trkpt lat="37.3564927094" lon="-8.1801965274">
        <ele>305.36</ele>
        <time>2021-05-28T11:59:20Z</time>
      </trkpt>
      <trkpt lat="37.3562503885" lon="-8.1803072523">
        <ele>301.99</ele>
        <time>2021-05-28T11:59:26Z</time>
      </trkpt>
      <trkpt lat="37.3558535054" lon="-8.1804839429">
        <ele>298.63</ele>
        <time>2021-05-28T11:59:34Z</time>
      </trkpt>
      <trkpt lat="37.3552956060" lon="-8.1808052212">
        <ele>298.15</ele>
        <time>2021-05-28T11:59:42Z</time>
      </trkpt>
      <trkpt lat="37.3551115394" lon="-8.1808635592">
        <ele>302.95</ele>
        <time>2021-05-28T11:59:45Z</time>
      </trkpt>
      <trkpt lat="37.3549421411" lon="-8.1807597913">
        <ele>306.32</ele>
        <time>2021-05-28T11:59:48Z</time>
      </trkpt>
      <trkpt lat="37.3548937775" lon="-8.1804774888">
        <ele>310.16</ele>
        <time>2021-05-28T11:59:52Z</time>
      </trkpt>
      <trkpt lat="37.3549736571" lon="-8.1802410353">
        <ele>313.53</ele>
        <time>2021-05-28T11:59:55Z</time>
      </trkpt>
      <trkpt lat="37.3549521156" lon="-8.1800280511">
        <ele>316.89</ele>
        <time>2021-05-28T11:59:58Z</time>
      </trkpt>
      <trkpt lat="37.3548792768" lon="-8.1799385324">
        <ele>318.33</ele>
        <time>2021-05-28T12:00:00Z</time>
      </trkpt>
      <trkpt lat="37.3548272252" lon="-8.1799252890">
        <ele>319.30</ele>
        <time>2021-05-28T12:00:01Z</time>
      </trkpt>
      <trkpt lat="37.3547700606" lon="-8.1799325813">
        <ele>319.78</ele>
        <time>2021-05-28T12:00:02Z</time>
      </trkpt>
      <trkpt lat="37.3547097947" lon="-8.1799553800">
        <ele>320.74</ele>
        <time>2021-05-28T12:00:03Z</time>
      </trkpt>
      <trkpt lat="37.3546441644" lon="-8.1799858902">
        <ele>321.70</ele>
        <time>2021-05-28T12:00:04Z</time>
      </trkpt>
      <trkpt lat="37.3545708228" lon="-8.1800118741">
        <ele>322.66</ele>
        <time>2021-05-28T12:00:05Z</time>
      </trkpt>
      <trkpt lat="37.3544923682" lon="-8.1800222676">
        <ele>323.14</ele>
        <time>2021-05-28T12:00:06Z</time>
      </trkpt>
      <trkpt lat="37.3544182722" lon="-8.1800215971">
        <ele>325.06</ele>
        <time>2021-05-28T12:00:07Z</time>
      </trkpt>
      <trkpt lat="37.3543519713" lon="-8.1800117064">
        <ele>325.06</ele>
        <time>2021-05-28T12:00:08Z</time>
      </trkpt>
      <trkpt lat="37.3542476166" lon="-8.1799375266">
        <ele>326.50</ele>
        <time>2021-05-28T12:00:10Z</time>
      </trkpt>
      <trkpt lat="37.3541099858" lon="-8.1797052640">
        <ele>330.83</ele>
        <time>2021-05-28T12:00:14Z</time>
      </trkpt>
      <trkpt lat="37.3539046291" lon="-8.1796447467">
        <ele>334.68</ele>
        <time>2021-05-28T12:00:18Z</time>
      </trkpt>
      <trkpt lat="37.3537459597" lon="-8.1797865685">
        <ele>337.56</ele>
        <time>2021-05-28T12:00:21Z</time>
      </trkpt>
      <trkpt lat="37.3534316383" lon="-8.1800767500">
        <ele>342.85</ele>
        <time>2021-05-28T12:00:26Z</time>
      </trkpt>
      <trkpt lat="37.3533685226" lon="-8.1801013928">
        <ele>342.37</ele>
        <time>2021-05-28T12:00:27Z</time>
      </trkpt>
      <trkpt lat="37.3531800136" lon="-8.1801509298">
        <ele>345.73</ele>
        <time>2021-05-28T12:00:30Z</time>
      </trkpt>
      <trkpt lat="37.3530516867" lon="-8.1802018080">
        <ele>348.13</ele>
        <time>2021-05-28T12:00:32Z</time>
      </trkpt>
      <trkpt lat="37.3529904149" lon="-8.1802453101">
        <ele>349.10</ele>
        <time>2021-05-28T12:00:33Z</time>
      </trkpt>
      <trkpt lat="37.3529335018" lon="-8.1803034805">
        <ele>350.54</ele>
        <time>2021-05-28T12:00:34Z</time>
      </trkpt>
      <trkpt lat="37.3528778460" lon="-8.1803677697">
        <ele>350.54</ele>
        <time>2021-05-28T12:00:35Z</time>
      </trkpt>
      <trkpt lat="37.3527629301" lon="-8.1804958452">
        <ele>351.98</ele>
        <time>2021-05-28T12:00:37Z</time>
      </trkpt>
      <trkpt lat="37.3525423184" lon="-8.1807705201">
        <ele>355.34</ele>
        <time>2021-05-28T12:00:41Z</time>
      </trkpt>
      <trkpt lat="37.3523747642" lon="-8.1809260044">
        <ele>358.23</ele>
        <time>2021-05-28T12:00:44Z</time>
      </trkpt>
      <trkpt lat="37.3523030989" lon="-8.1809578557">
        <ele>358.71</ele>
        <time>2021-05-28T12:00:45Z</time>
      </trkpt>
      <trkpt lat="37.3522249795" lon="-8.1809797324">
        <ele>359.67</ele>
        <time>2021-05-28T12:00:46Z</time>
      </trkpt>
      <trkpt lat="37.3521484528" lon="-8.1809919700">
        <ele>361.11</ele>
        <time>2021-05-28T12:00:47Z</time>
      </trkpt>
      <trkpt lat="37.3520829901" lon="-8.1809895393">
        <ele>361.59</ele>
        <time>2021-05-28T12:00:48Z</time>
      </trkpt>
      <trkpt lat="37.3520295136" lon="-8.1809609570">
        <ele>361.59</ele>
        <time>2021-05-28T12:00:49Z</time>
      </trkpt>
      <trkpt lat="37.3519863468" lon="-8.1809037086">
        <ele>362.07</ele>
        <time>2021-05-28T12:00:50Z</time>
      </trkpt>
      <trkpt lat="37.3519544955" lon="-8.1808259245">
        <ele>363.04</ele>
        <time>2021-05-28T12:00:51Z</time>
      </trkpt>
      <trkpt lat="37.3519251589" lon="-8.1807315443">
        <ele>363.52</ele>
        <time>2021-05-28T12:00:52Z</time>
      </trkpt>
      <trkpt lat="37.3518903740" lon="-8.1806327216">
        <ele>364.96</ele>
        <time>2021-05-28T12:00:53Z</time>
      </trkpt>
      <trkpt lat="37.3518496379" lon="-8.1805459689">
        <ele>364.96</ele>
        <time>2021-05-28T12:00:54Z</time>
      </trkpt>
      <trkpt lat="37.3518055491" lon="-8.1804769021">
        <ele>364.96</ele>
        <time>2021-05-28T12:00:55Z</time>
      </trkpt>
      <trkpt lat="37.3517543357" lon="-8.1804224197">
        <ele>364.48</ele>
        <time>2021-05-28T12:00:56Z</time>
      </trkpt>
      <trkpt lat="37.3516923096" lon="-8.1803872157">
        <ele>364.48</ele>
        <time>2021-05-28T12:00:57Z</time>
      </trkpt>
      <trkpt lat="37.3516195547" lon="-8.1803769898">
        <ele>364.96</ele>
        <time>2021-05-28T12:00:58Z</time>
      </trkpt>
      <trkpt lat="37.3515447881" lon="-8.1803905685">
        <ele>364.96</ele>
        <time>2021-05-28T12:00:59Z</time>
      </trkpt>
      <trkpt lat="37.3514716141" lon="-8.1804257724">
        <ele>364.96</ele>
        <time>2021-05-28T12:01:00Z</time>
      </trkpt>
      <trkpt lat="37.3513944168" lon="-8.1804647483">
        <ele>365.44</ele>
        <time>2021-05-28T12:01:01Z</time>
      </trkpt>
      <trkpt lat="37.3513123579" lon="-8.1804841105">
        <ele>365.44</ele>
        <time>2021-05-28T12:01:02Z</time>
      </trkpt>
      <trkpt lat="37.3512251023" lon="-8.1804818474">
        <ele>366.40</ele>
        <time>2021-05-28T12:01:03Z</time>
      </trkpt>
      <trkpt lat="37.3511407804" lon="-8.1804631557">
        <ele>366.88</ele>
        <time>2021-05-28T12:01:04Z</time>
      </trkpt>
      <trkpt lat="37.3510552850" lon="-8.1804409437">
        <ele>365.92</ele>
        <time>2021-05-28T12:01:05Z</time>
      </trkpt>
      <trkpt lat="37.3509693705" lon="-8.1804332323">
        <ele>365.92</ele>
        <time>2021-05-28T12:01:06Z</time>
      </trkpt>
      <trkpt lat="37.3508836236" lon="-8.1804364175">
        <ele>366.40</ele>
        <time>2021-05-28T12:01:07Z</time>
      </trkpt>
      <trkpt lat="37.3507939372" lon="-8.1804608926">
        <ele>367.36</ele>
        <time>2021-05-28T12:01:08Z</time>
      </trkpt>
      <trkpt lat="37.3507011496" lon="-8.1805090047">
        <ele>368.32</ele>
        <time>2021-05-28T12:01:09Z</time>
      </trkpt>
      <trkpt lat="37.3505155742" lon="-8.1806250941">
        <ele>369.76</ele>
        <time>2021-05-28T12:01:11Z</time>
      </trkpt>
      <trkpt lat="37.3504335154" lon="-8.1806917302">
        <ele>369.28</ele>
        <time>2021-05-28T12:01:12Z</time>
      </trkpt>
      <trkpt lat="37.3503598385" lon="-8.1807551812">
        <ele>369.28</ele>
        <time>2021-05-28T12:01:13Z</time>
      </trkpt>
      <trkpt lat="37.3502836470" lon="-8.1808037963">
        <ele>368.32</ele>
        <time>2021-05-28T12:01:14Z</time>
      </trkpt>
      <trkpt lat="37.3501976486" lon="-8.1808325462">
        <ele>367.84</ele>
        <time>2021-05-28T12:01:15Z</time>
      </trkpt>
      <trkpt lat="37.3500993289" lon="-8.1808451191">
        <ele>368.32</ele>
        <time>2021-05-28T12:01:16Z</time>
      </trkpt>
      <trkpt lat="37.3500015959" lon="-8.1808521599">
        <ele>367.36</ele>
        <time>2021-05-28T12:01:17Z</time>
      </trkpt>
      <trkpt lat="37.3499154299" lon="-8.1808674149">
        <ele>367.84</ele>
        <time>2021-05-28T12:01:18Z</time>
      </trkpt>
      <trkpt lat="37.3498412501" lon="-8.1808957458">
        <ele>366.88</ele>
        <time>2021-05-28T12:01:19Z</time>
      </trkpt>
      <trkpt lat="37.3497723509" lon="-8.1809273455">
        <ele>366.40</ele>
        <time>2021-05-28T12:01:20Z</time>
      </trkpt>
      <trkpt lat="37.3497071397" lon="-8.1809486356">
        <ele>365.92</ele>
        <time>2021-05-28T12:01:21Z</time>
      </trkpt>
      <trkpt lat="37.3496422637" lon="-8.1809578557">
        <ele>366.40</ele>
        <time>2021-05-28T12:01:22Z</time>
      </trkpt>
      <trkpt lat="37.3495773878" lon="-8.1809621304">
        <ele>364.96</ele>
        <time>2021-05-28T12:01:23Z</time>
      </trkpt>
      <trkpt lat="37.3495145235" lon="-8.1809633039">
        <ele>364.00</ele>
        <time>2021-05-28T12:01:24Z</time>
      </trkpt>
      <trkpt lat="37.3493769765" lon="-8.1809728593">
        <ele>363.52</ele>
        <time>2021-05-28T12:01:26Z</time>
      </trkpt>
      <trkpt lat="37.3492965940" lon="-8.1810008548">
        <ele>363.04</ele>
        <time>2021-05-28T12:01:27Z</time>
      </trkpt>
      <trkpt lat="37.3492137808" lon="-8.1810476258">
        <ele>363.04</ele>
        <time>2021-05-28T12:01:28Z</time>
      </trkpt>
      <trkpt lat="37.3491299618" lon="-8.1811104063">
        <ele>363.04</ele>
        <time>2021-05-28T12:01:29Z</time>
      </trkpt>
      <trkpt lat="37.3490449693" lon="-8.1811803114">
        <ele>364.48</ele>
        <time>2021-05-28T12:01:30Z</time>
      </trkpt>
      <trkpt lat="37.3488785885" lon="-8.1813307665">
        <ele>367.36</ele>
        <time>2021-05-28T12:01:32Z</time>
      </trkpt>
      <trkpt lat="37.3486241139" lon="-8.1815623585">
        <ele>371.69</ele>
        <time>2021-05-28T12:01:35Z</time>
      </trkpt>
      <trkpt lat="37.3485440668" lon="-8.1816541404">
        <ele>372.65</ele>
        <time>2021-05-28T12:01:36Z</time>
      </trkpt>
      <trkpt lat="37.3484768439" lon="-8.1817557290">
        <ele>374.09</ele>
        <time>2021-05-28T12:01:37Z</time>
      </trkpt>
      <trkpt lat="37.3484213557" lon="-8.1818640232">
        <ele>375.05</ele>
        <time>2021-05-28T12:01:38Z</time>
      </trkpt>
      <trkpt lat="37.3483735789" lon="-8.1819804478">
        <ele>376.01</ele>
        <time>2021-05-28T12:01:39Z</time>
      </trkpt>
      <trkpt lat="37.3483344354" lon="-8.1820987165">
        <ele>376.97</ele>
        <time>2021-05-28T12:01:40Z</time>
      </trkpt>
      <trkpt lat="37.3483019136" lon="-8.1822176557">
        <ele>378.90</ele>
        <time>2021-05-28T12:01:41Z</time>
      </trkpt>
      <trkpt lat="37.3480756022" lon="-8.1828680076">
        <ele>381.78</ele>
        <time>2021-05-28T12:01:46Z</time>
      </trkpt>
      <trkpt lat="37.3479968961" lon="-8.1830897927">
        <ele>383.22</ele>
        <time>2021-05-28T12:01:48Z</time>
      </trkpt>
      <trkpt lat="37.3479820602" lon="-8.1831932254">
        <ele>383.22</ele>
        <time>2021-05-28T12:01:49Z</time>
      </trkpt>
      <trkpt lat="37.3479841556" lon="-8.1832970772">
        <ele>383.22</ele>
        <time>2021-05-28T12:01:50Z</time>
      </trkpt>
      <trkpt lat="37.3480127379" lon="-8.1835258193">
        <ele>384.66</ele>
        <time>2021-05-28T12:01:52Z</time>
      </trkpt>
      <trkpt lat="37.3480340280" lon="-8.1836475246">
        <ele>385.63</ele>
        <time>2021-05-28T12:01:53Z</time>
      </trkpt>
      <trkpt lat="37.3480411526" lon="-8.1837603450">
        <ele>386.59</ele>
        <time>2021-05-28T12:01:54Z</time>
      </trkpt>
      <trkpt lat="37.3480313458" lon="-8.1838659570">
        <ele>387.55</ele>
        <time>2021-05-28T12:01:55Z</time>
      </trkpt>
      <trkpt lat="37.3480005004" lon="-8.1839671265">
        <ele>387.55</ele>
        <time>2021-05-28T12:01:56Z</time>
      </trkpt>
      <trkpt lat="37.3479480296" lon="-8.1840562262">
        <ele>388.03</ele>
        <time>2021-05-28T12:01:57Z</time>
      </trkpt>
      <trkpt lat="37.3478730116" lon="-8.1841210183">
        <ele>388.03</ele>
        <time>2021-05-28T12:01:58Z</time>
      </trkpt>
      <trkpt lat="37.3477768712" lon="-8.1841556355">
        <ele>388.51</ele>
        <time>2021-05-28T12:01:59Z</time>
      </trkpt>
      <trkpt lat="37.3476659786" lon="-8.1841673702">
        <ele>388.99</ele>
        <time>2021-05-28T12:02:00Z</time>
      </trkpt>
      <trkpt lat="37.3475460336" lon="-8.1841682084">
        <ele>388.99</ele>
        <time>2021-05-28T12:02:01Z</time>
      </trkpt>
      <trkpt lat="37.3472038843" lon="-8.1841656938">
        <ele>390.91</ele>
        <time>2021-05-28T12:02:04Z</time>
      </trkpt>
      <trkpt lat="37.3471133597" lon="-8.1841405481">
        <ele>392.36</ele>
        <time>2021-05-28T12:02:05Z</time>
      </trkpt>
      <trkpt lat="37.3470321391" lon="-8.1840997282">
        <ele>394.28</ele>
        <time>2021-05-28T12:02:06Z</time>
      </trkpt>
      <trkpt lat="37.3469602223" lon="-8.1840494368">
        <ele>394.76</ele>
        <time>2021-05-28T12:02:07Z</time>
      </trkpt>
      <trkpt lat="37.3469026387" lon="-8.1839986425">
        <ele>394.76</ele>
        <time>2021-05-28T12:02:08Z</time>
      </trkpt>
      <trkpt lat="37.3468542751" lon="-8.1839538831">
        <ele>394.76</ele>
        <time>2021-05-28T12:02:09Z</time>
      </trkpt>
      <trkpt lat="37.3466863018" lon="-8.1837903522">
        <ele>393.80</ele>
        <time>2021-05-28T12:02:17Z</time>
      </trkpt>
      <trkpt lat="37.3467061669" lon="-8.1838151626">
        <ele>393.80</ele>
        <time>2021-05-28T12:02:44Z</time>
      </trkpt>
      <trkpt lat="37.3467124533" lon="-8.1838219520">
        <ele>393.80</ele>
        <time>2021-05-28T12:03:30Z</time>
      </trkpt>
      <trkpt lat="37.3467152193" lon="-8.1838201918">
        <ele>394.76</ele>
        <time>2021-05-28T12:04:04Z</time>
      </trkpt>
      <trkpt lat="37.3467139620" lon="-8.1838268135">
        <ele>394.76</ele>
        <time>2021-05-28T12:04:35Z</time>
      </trkpt>
      <trkpt lat="37.3467145488" lon="-8.1838317588">
        <ele>395.24</ele>
        <time>2021-05-28T12:05:09Z</time>
      </trkpt>
      <trkpt lat="37.3467093520" lon="-8.1838087924">
        <ele>396.20</ele>
        <time>2021-05-28T12:05:45Z</time>
      </trkpt>
      <trkpt lat="37.3466971144" lon="-8.1838002428">
        <ele>395.72</ele>
        <time>2021-05-28T12:05:52Z</time>
      </trkpt>
      <trkpt lat="37.3466672748" lon="-8.1837651227">
        <ele>395.72</ele>
        <time>2021-05-28T12:05:53Z</time>
      </trkpt>
      <trkpt lat="37.3463131394" lon="-8.1833008491">
        <ele>399.08</ele>
        <time>2021-05-28T12:06:00Z</time>
      </trkpt>
      <trkpt lat="37.3461857345" lon="-8.1831090711">
        <ele>397.16</ele>
        <time>2021-05-28T12:06:04Z</time>
      </trkpt>
      <trkpt lat="37.3461240437" lon="-8.1830343883">
        <ele>396.68</ele>
        <time>2021-05-28T12:06:06Z</time>
      </trkpt>
      <trkpt lat="37.3459760193" lon="-8.1829308718">
        <ele>395.72</ele>
        <time>2021-05-28T12:06:09Z</time>
      </trkpt>
      <trkpt lat="37.3459137417" lon="-8.1829082407">
        <ele>395.72</ele>
        <time>2021-05-28T12:06:10Z</time>
      </trkpt>
      <trkpt lat="37.3458503745" lon="-8.1828937400">
        <ele>395.24</ele>
        <time>2021-05-28T12:06:11Z</time>
      </trkpt>
      <trkpt lat="37.3451688420" lon="-8.1827121880">
        <ele>395.72</ele>
        <time>2021-05-28T12:06:22Z</time>
      </trkpt>
      <trkpt lat="37.3446985334" lon="-8.1826520059">
        <ele>392.84</ele>
        <time>2021-05-28T12:06:28Z</time>
      </trkpt>
      <trkpt lat="37.3445477430" lon="-8.1826363318">
        <ele>391.39</ele>
        <time>2021-05-28T12:06:30Z</time>
      </trkpt>
      <trkpt lat="37.3444701266" lon="-8.1826406904">
        <ele>391.39</ele>
        <time>2021-05-28T12:06:31Z</time>
      </trkpt>
      <trkpt lat="37.3443940189" lon="-8.1826556940">
        <ele>390.91</ele>
        <time>2021-05-28T12:06:32Z</time>
      </trkpt>
      <trkpt lat="37.3443227727" lon="-8.1826823484">
        <ele>390.43</ele>
        <time>2021-05-28T12:06:33Z</time>
      </trkpt>
      <trkpt lat="37.3442580644" lon="-8.1827269401">
        <ele>389.95</ele>
        <time>2021-05-28T12:06:34Z</time>
      </trkpt>
      <trkpt lat="37.3442034144" lon="-8.1827881280">
        <ele>389.95</ele>
        <time>2021-05-28T12:06:35Z</time>
      </trkpt>
      <trkpt lat="37.3441595770" lon="-8.1828639004">
        <ele>390.91</ele>
        <time>2021-05-28T12:06:36Z</time>
      </trkpt>
      <trkpt lat="37.3441244569" lon="-8.1829538383">
        <ele>390.91</ele>
        <time>2021-05-28T12:06:37Z</time>
      </trkpt>
      <trkpt lat="37.3440876603" lon="-8.1830494758">
        <ele>391.39</ele>
        <time>2021-05-28T12:06:38Z</time>
      </trkpt>
      <trkpt lat="37.3440402187" lon="-8.1831415091">
        <ele>391.39</ele>
        <time>2021-05-28T12:06:39Z</time>
      </trkpt>
      <trkpt lat="37.3439823836" lon="-8.1832209695">
        <ele>390.91</ele>
        <time>2021-05-28T12:06:40Z</time>
      </trkpt>
      <trkpt lat="37.3439154122" lon="-8.1832859293">
        <ele>391.39</ele>
        <time>2021-05-28T12:06:41Z</time>
      </trkpt>
      <trkpt lat="37.3438403104" lon="-8.1833461951">
        <ele>392.36</ele>
        <time>2021-05-28T12:06:42Z</time>
      </trkpt>
      <trkpt lat="37.3437706567" lon="-8.1834210455">
        <ele>391.87</ele>
        <time>2021-05-28T12:06:43Z</time>
      </trkpt>
      <trkpt lat="37.3437227961" lon="-8.1835126597">
        <ele>392.36</ele>
        <time>2021-05-28T12:06:44Z</time>
      </trkpt>
      <trkpt lat="37.3436564114" lon="-8.1836629473">
        <ele>392.36</ele>
        <time>2021-05-28T12:06:46Z</time>
      </trkpt>
      <trkpt lat="37.3436119873" lon="-8.1837030966">
        <ele>392.36</ele>
        <time>2021-05-28T12:06:47Z</time>
      </trkpt>
      <trkpt lat="37.3435621988" lon="-8.1837142445">
        <ele>392.84</ele>
        <time>2021-05-28T12:06:48Z</time>
      </trkpt>
      <trkpt lat="37.3435131647" lon="-8.1836921163">
        <ele>392.84</ele>
        <time>2021-05-28T12:06:49Z</time>
      </trkpt>
      <trkpt lat="37.3434646334" lon="-8.1836371310">
        <ele>391.39</ele>
        <time>2021-05-28T12:06:50Z</time>
      </trkpt>
      <trkpt lat="37.3434144258" lon="-8.1835605204">
        <ele>391.39</ele>
        <time>2021-05-28T12:06:51Z</time>
      </trkpt>
      <trkpt lat="37.3433649726" lon="-8.1834829040">
        <ele>389.95</ele>
        <time>2021-05-28T12:06:52Z</time>
      </trkpt>
      <trkpt lat="37.3433100712" lon="-8.1834139209">
        <ele>388.99</ele>
        <time>2021-05-28T12:06:53Z</time>
      </trkpt>
      <trkpt lat="37.3432396632" lon="-8.1833619531">
        <ele>388.99</ele>
        <time>2021-05-28T12:06:54Z</time>
      </trkpt>
      <trkpt lat="37.3431591131" lon="-8.1833339576">
        <ele>387.55</ele>
        <time>2021-05-28T12:06:55Z</time>
      </trkpt>
      <trkpt lat="37.3430796526" lon="-8.1833209656">
        <ele>386.59</ele>
        <time>2021-05-28T12:06:56Z</time>
      </trkpt>
      <trkpt lat="37.3430055566" lon="-8.1833161041">
        <ele>385.15</ele>
        <time>2021-05-28T12:06:57Z</time>
      </trkpt>
      <trkpt lat="37.3429359030" lon="-8.1833176967">
        <ele>384.66</ele>
        <time>2021-05-28T12:06:58Z</time>
      </trkpt>
      <trkpt lat="37.3428758048" lon="-8.1833383162">
        <ele>384.18</ele>
        <time>2021-05-28T12:06:59Z</time>
      </trkpt>
      <trkpt lat="37.3428275250" lon="-8.1833731849">
        <ele>382.74</ele>
        <time>2021-05-28T12:07:00Z</time>
      </trkpt>
      <trkpt lat="37.3427858669" lon="-8.1834140886">
        <ele>382.26</ele>
        <time>2021-05-28T12:07:01Z</time>
      </trkpt>
      <trkpt lat="37.3427498247" lon="-8.1834559981">
        <ele>381.78</ele>
        <time>2021-05-28T12:07:02Z</time>
      </trkpt>
      <trkpt lat="37.3425421212" lon="-8.1836737599">
        <ele>378.90</ele>
        <time>2021-05-28T12:07:08Z</time>
      </trkpt>
      <trkpt lat="37.3423469905" lon="-8.1838693935">
        <ele>374.57</ele>
        <time>2021-05-28T12:07:13Z</time>
      </trkpt>
      <trkpt lat="37.3421763349" lon="-8.1840773486">
        <ele>371.21</ele>
        <time>2021-05-28T12:07:17Z</time>
      </trkpt>
      <trkpt lat="37.3421278875" lon="-8.1841429789">
        <ele>370.73</ele>
        <time>2021-05-28T12:07:18Z</time>
      </trkpt>
      <trkpt lat="37.3419665359" lon="-8.1843448151">
        <ele>367.84</ele>
        <time>2021-05-28T12:07:21Z</time>
      </trkpt>
      <trkpt lat="37.3418005742" lon="-8.1845076755">
        <ele>364.48</ele>
        <time>2021-05-28T12:07:24Z</time>
      </trkpt>
      <trkpt lat="37.3417130671" lon="-8.1846188195">
        <ele>362.55</ele>
        <time>2021-05-28T12:07:26Z</time>
      </trkpt>
      <trkpt lat="37.3416781146" lon="-8.1846854556">
        <ele>361.59</ele>
        <time>2021-05-28T12:07:27Z</time>
      </trkpt>
      <trkpt lat="37.3416524660" lon="-8.1847577915">
        <ele>360.63</ele>
        <time>2021-05-28T12:07:28Z</time>
      </trkpt>
      <trkpt lat="37.3416342773" lon="-8.1848298758">
        <ele>359.67</ele>
        <time>2021-05-28T12:07:29Z</time>
      </trkpt>
      <trkpt lat="37.3416203633" lon="-8.1849011220">
        <ele>357.27</ele>
        <time>2021-05-28T12:07:30Z</time>
      </trkpt>
      <trkpt lat="37.3416109756" lon="-8.1849736255">
        <ele>356.31</ele>
        <time>2021-05-28T12:07:31Z</time>
      </trkpt>
      <trkpt lat="37.3416050244" lon="-8.1850569416">
        <ele>356.79</ele>
        <time>2021-05-28T12:07:32Z</time>
      </trkpt>
      <trkpt lat="37.3416085448" lon="-8.1851503160">
        <ele>356.31</ele>
        <time>2021-05-28T12:07:33Z</time>
      </trkpt>
      <trkpt lat="37.3416253924" lon="-8.1852499768">
        <ele>355.83</ele>
        <time>2021-05-28T12:07:34Z</time>
      </trkpt>
      <trkpt lat="37.3416540585" lon="-8.1853565946">
        <ele>355.34</ele>
        <time>2021-05-28T12:07:35Z</time>
      </trkpt>
      <trkpt lat="37.3416888434" lon="-8.1854645535">
        <ele>353.42</ele>
        <time>2021-05-28T12:07:36Z</time>
      </trkpt>
      <trkpt lat="37.3417291604" lon="-8.1855667289">
        <ele>352.46</ele>
        <time>2021-05-28T12:07:37Z</time>
      </trkpt>
      <trkpt lat="37.3418112192" lon="-8.1857737619">
        <ele>350.54</ele>
        <time>2021-05-28T12:07:39Z</time>
      </trkpt>
      <trkpt lat="37.3419517837" lon="-8.1863796059">
        <ele>349.10</ele>
        <time>2021-05-28T12:07:44Z</time>
      </trkpt>
      <trkpt lat="37.3418296594" lon="-8.1869091745">
        <ele>346.21</ele>
        <time>2021-05-28T12:07:50Z</time>
      </trkpt>
      <trkpt lat="37.3416170944" lon="-8.1870072428">
        <ele>344.77</ele>
        <time>2021-05-28T12:07:53Z</time>
      </trkpt>
      <trkpt lat="37.3412943911" lon="-8.1871833466">
        <ele>339.00</ele>
        <time>2021-05-28T12:07:57Z</time>
      </trkpt>
      <trkpt lat="37.3412060458" lon="-8.1872242503">
        <ele>338.52</ele>
        <time>2021-05-28T12:07:58Z</time>
      </trkpt>
      <trkpt lat="37.3406572826" lon="-8.1873757951">
        <ele>342.37</ele>
        <time>2021-05-28T12:08:03Z</time>
      </trkpt>
      <trkpt lat="37.3396315891" lon="-8.1876124162">
        <ele>345.25</ele>
        <time>2021-05-28T12:08:12Z</time>
      </trkpt>
      <trkpt lat="37.3395367898" lon="-8.1876527332">
        <ele>345.25</ele>
        <time>2021-05-28T12:08:13Z</time>
      </trkpt>
      <trkpt lat="37.3394506238" lon="-8.1877012644">
        <ele>346.69</ele>
        <time>2021-05-28T12:08:14Z</time>
      </trkpt>
      <trkpt lat="37.3393802997" lon="-8.1877605245">
        <ele>346.21</ele>
        <time>2021-05-28T12:08:15Z</time>
      </trkpt>
      <trkpt lat="37.3393259849" lon="-8.1878359616">
        <ele>346.69</ele>
        <time>2021-05-28T12:08:16Z</time>
      </trkpt>
      <trkpt lat="37.3392892722" lon="-8.1879253965">
        <ele>347.17</ele>
        <time>2021-05-28T12:08:17Z</time>
      </trkpt>
      <trkpt lat="37.3392709997" lon="-8.1880255602">
        <ele>348.13</ele>
        <time>2021-05-28T12:08:18Z</time>
      </trkpt>
      <trkpt lat="37.3392658867" lon="-8.1881258078">
        <ele>349.58</ele>
        <time>2021-05-28T12:08:19Z</time>
      </trkpt>
      <trkpt lat="37.3392748553" lon="-8.1882153265">
        <ele>350.54</ele>
        <time>2021-05-28T12:08:20Z</time>
      </trkpt>
      <trkpt lat="37.3392981570" lon="-8.1883046776">
        <ele>351.02</ele>
        <time>2021-05-28T12:08:21Z</time>
      </trkpt>
      <trkpt lat="37.3393231351" lon="-8.1884018239">
        <ele>353.42</ele>
        <time>2021-05-28T12:08:22Z</time>
      </trkpt>
      <trkpt lat="37.3393329419" lon="-8.1885085255">
        <ele>354.38</ele>
        <time>2021-05-28T12:08:23Z</time>
      </trkpt>
      <trkpt lat="37.3393223807" lon="-8.1886273809">
        <ele>355.83</ele>
        <time>2021-05-28T12:08:24Z</time>
      </trkpt>
      <trkpt lat="37.3392963968" lon="-8.1887484994">
        <ele>357.27</ele>
        <time>2021-05-28T12:08:25Z</time>
      </trkpt>
      <trkpt lat="37.3392591812" lon="-8.1888689473">
        <ele>357.75</ele>
        <time>2021-05-28T12:08:26Z</time>
      </trkpt>
      <trkpt lat="37.3392119072" lon="-8.1889848690">
        <ele>358.23</ele>
        <time>2021-05-28T12:08:27Z</time>
      </trkpt>
      <trkpt lat="37.3391574249" lon="-8.1890986953">
        <ele>359.67</ele>
        <time>2021-05-28T12:08:28Z</time>
      </trkpt>
      <trkpt lat="37.3390061315" lon="-8.1894445326">
        <ele>361.59</ele>
        <time>2021-05-28T12:08:31Z</time>
      </trkpt>
      <trkpt lat="37.3389769625" lon="-8.1895730272">
        <ele>363.04</ele>
        <time>2021-05-28T12:08:32Z</time>
      </trkpt>
      <trkpt lat="37.3389662337" lon="-8.1897069700">
        <ele>364.96</ele>
        <time>2021-05-28T12:08:33Z</time>
      </trkpt>
      <trkpt lat="37.3389765434" lon="-8.1898448523">
        <ele>366.88</ele>
        <time>2021-05-28T12:08:34Z</time>
      </trkpt>
      <trkpt lat="37.3390024435" lon="-8.1899798010">
        <ele>368.32</ele>
        <time>2021-05-28T12:08:35Z</time>
      </trkpt>
      <trkpt lat="37.3390414193" lon="-8.1901134085">
        <ele>369.76</ele>
        <time>2021-05-28T12:08:36Z</time>
      </trkpt>
      <trkpt lat="37.3390929680" lon="-8.1902447529">
        <ele>370.73</ele>
        <time>2021-05-28T12:08:37Z</time>
      </trkpt>
      <trkpt lat="37.3391539045" lon="-8.1903741695">
        <ele>371.21</ele>
        <time>2021-05-28T12:08:38Z</time>
      </trkpt>
      <trkpt lat="37.3392216302" lon="-8.1905060168">
        <ele>372.17</ele>
        <time>2021-05-28T12:08:39Z</time>
      </trkpt>
      <trkpt lat="37.3393541481" lon="-8.1907823682">
        <ele>376.49</ele>
        <time>2021-05-28T12:08:41Z</time>
      </trkpt>
      <trkpt lat="37.3394963052" lon="-8.1910645869">
        <ele>377.94</ele>
        <time>2021-05-28T12:08:43Z</time>
      </trkpt>
      <trkpt lat="37.3398558050" lon="-8.1916793995">
        <ele>381.30</ele>
        <time>2021-05-28T12:08:48Z</time>
      </trkpt>
      <trkpt lat="37.3398955353" lon="-8.1917928066">
        <ele>381.30</ele>
        <time>2021-05-28T12:08:49Z</time>
      </trkpt>
      <trkpt lat="37.3399151489" lon="-8.1919116620">
        <ele>381.78</ele>
        <time>2021-05-28T12:08:50Z</time>
      </trkpt>
      <trkpt lat="37.3399122152" lon="-8.1920349598">
        <ele>382.74</ele>
        <time>2021-05-28T12:08:51Z</time>
      </trkpt>
      <trkpt lat="37.3398878239" lon="-8.1921568327">
        <ele>383.70</ele>
        <time>2021-05-28T12:08:52Z</time>
      </trkpt>
      <trkpt lat="37.3398408853" lon="-8.1922735088">
        <ele>384.66</ele>
        <time>2021-05-28T12:08:53Z</time>
      </trkpt>
      <trkpt lat="37.3397743329" lon="-8.1923853233">
        <ele>385.63</ele>
        <time>2021-05-28T12:08:54Z</time>
      </trkpt>
      <trkpt lat="37.3396913521" lon="-8.1924927793">
        <ele>386.11</ele>
        <time>2021-05-28T12:08:55Z</time>
      </trkpt>
      <trkpt lat="37.3396024201" lon="-8.1925997324">
        <ele>387.55</ele>
        <time>2021-05-28T12:08:56Z</time>
      </trkpt>
      <trkpt lat="37.3395193554" lon="-8.1927047577">
        <ele>388.03</ele>
        <time>2021-05-28T12:08:57Z</time>
      </trkpt>
      <trkpt lat="37.3394546472" lon="-8.1928127166">
        <ele>388.03</ele>
        <time>2021-05-28T12:08:58Z</time>
      </trkpt>
      <trkpt lat="37.3394124862" lon="-8.1929331645">
        <ele>388.03</ele>
        <time>2021-05-28T12:08:59Z</time>
      </trkpt>
      <trkpt lat="37.3393937107" lon="-8.1930585578">
        <ele>389.95</ele>
        <time>2021-05-28T12:09:00Z</time>
      </trkpt>
      <trkpt lat="37.3394027632" lon="-8.1931840349">
        <ele>390.91</ele>
        <time>2021-05-28T12:09:01Z</time>
      </trkpt>
      <trkpt lat="37.3394315969" lon="-8.1932947598">
        <ele>391.39</ele>
        <time>2021-05-28T12:09:02Z</time>
      </trkpt>
      <trkpt lat="37.3394720815" lon="-8.1933878828">
        <ele>392.36</ele>
        <time>2021-05-28T12:09:03Z</time>
      </trkpt>
      <trkpt lat="37.3395196069" lon="-8.1934771501">
        <ele>392.36</ele>
        <time>2021-05-28T12:09:04Z</time>
      </trkpt>
      <trkpt lat="37.3395712394" lon="-8.1935723685">
        <ele>394.28</ele>
        <time>2021-05-28T12:09:05Z</time>
      </trkpt>
      <trkpt lat="37.3396192677" lon="-8.1936827581">
        <ele>395.24</ele>
        <time>2021-05-28T12:09:06Z</time>
      </trkpt>
      <trkpt lat="37.3396631051" lon="-8.1938092411">
        <ele>396.68</ele>
        <time>2021-05-28T12:09:07Z</time>
      </trkpt>
      <trkpt lat="37.3396914359" lon="-8.1939410884">
        <ele>398.12</ele>
        <time>2021-05-28T12:09:08Z</time>
      </trkpt>
      <trkpt lat="37.3396959621" lon="-8.1940632965">
        <ele>398.60</ele>
        <time>2021-05-28T12:09:09Z</time>
      </trkpt>
      <trkpt lat="37.3396766838" lon="-8.1941804755">
        <ele>398.60</ele>
        <time>2021-05-28T12:09:10Z</time>
      </trkpt>
      <trkpt lat="37.3396306671" lon="-8.1943029352">
        <ele>399.08</ele>
        <time>2021-05-28T12:09:11Z</time>
      </trkpt>
      <trkpt lat="37.3395592533" lon="-8.1944301724">
        <ele>401.49</ele>
        <time>2021-05-28T12:09:12Z</time>
      </trkpt>
      <trkpt lat="37.3394805472" lon="-8.1945527159">
        <ele>401.49</ele>
        <time>2021-05-28T12:09:13Z</time>
      </trkpt>
      <trkpt lat="37.3393432517" lon="-8.1947772671">
        <ele>400.05</ele>
        <time>2021-05-28T12:09:15Z</time>
      </trkpt>
      <trkpt lat="37.3391539883" lon="-8.1950740702">
        <ele>397.16</ele>
        <time>2021-05-28T12:09:18Z</time>
      </trkpt>
      <trkpt lat="37.3390399106" lon="-8.1952694524">
        <ele>393.32</ele>
        <time>2021-05-28T12:09:20Z</time>
      </trkpt>
      <trkpt lat="37.3388441931" lon="-8.1956425309">
        <ele>389.47</ele>
        <time>2021-05-28T12:09:24Z</time>
      </trkpt>
      <trkpt lat="37.3387045506" lon="-8.1960104965">
        <ele>385.63</ele>
        <time>2021-05-28T12:09:28Z</time>
      </trkpt>
      <trkpt lat="37.3386686761" lon="-8.1962159369">
        <ele>384.66</ele>
        <time>2021-05-28T12:09:30Z</time>
      </trkpt>
      <trkpt lat="37.3386633117" lon="-8.1963312719">
        <ele>383.70</ele>
        <time>2021-05-28T12:09:31Z</time>
      </trkpt>
      <trkpt lat="37.3386680894" lon="-8.1964471098">
        <ele>382.74</ele>
        <time>2021-05-28T12:09:32Z</time>
      </trkpt>
      <trkpt lat="37.3386831768" lon="-8.1965595111">
        <ele>382.74</ele>
        <time>2021-05-28T12:09:33Z</time>
      </trkpt>
      <trkpt lat="37.3387040477" lon="-8.1966719963">
        <ele>381.30</ele>
        <time>2021-05-28T12:09:34Z</time>
      </trkpt>
      <trkpt lat="37.3387634754" lon="-8.1969907600">
        <ele>377.94</ele>
        <time>2021-05-28T12:09:37Z</time>
      </trkpt>
      <trkpt lat="37.3388764635" lon="-8.1973703764">
        <ele>374.57</ele>
        <time>2021-05-28T12:09:41Z</time>
      </trkpt>
      <trkpt lat="37.3390005995" lon="-8.1977865379">
        <ele>370.73</ele>
        <time>2021-05-28T12:09:45Z</time>
      </trkpt>
      <trkpt lat="37.3390845861" lon="-8.1981468759">
        <ele>366.88</ele>
        <time>2021-05-28T12:09:48Z</time>
      </trkpt>
      <trkpt lat="37.3391850013" lon="-8.1985264923">
        <ele>363.52</ele>
        <time>2021-05-28T12:09:51Z</time>
      </trkpt>
      <trkpt lat="37.3393086344" lon="-8.1988761853">
        <ele>361.11</ele>
        <time>2021-05-28T12:09:54Z</time>
      </trkpt>
      <trkpt lat="37.3395839799" lon="-8.1996899843">
        <ele>357.75</ele>
        <time>2021-05-28T12:10:00Z</time>
      </trkpt>
      <trkpt lat="37.3396647815" lon="-8.2001193892">
        <ele>354.38</ele>
        <time>2021-05-28T12:10:03Z</time>
      </trkpt>
      <trkpt lat="37.3396748397" lon="-8.2002596185">
        <ele>353.42</ele>
        <time>2021-05-28T12:10:04Z</time>
      </trkpt>
      <trkpt lat="37.3396677151" lon="-8.2004052959">
        <ele>352.46</ele>
        <time>2021-05-28T12:10:05Z</time>
      </trkpt>
      <trkpt lat="37.3396437429" lon="-8.2005578466">
        <ele>351.50</ele>
        <time>2021-05-28T12:10:06Z</time>
      </trkpt>
      <trkpt lat="37.3396098800" lon="-8.2007188629">
        <ele>350.54</ele>
        <time>2021-05-28T12:10:07Z</time>
      </trkpt>
      <trkpt lat="37.3395698145" lon="-8.2008821424">
        <ele>350.06</ele>
        <time>2021-05-28T12:10:08Z</time>
      </trkpt>
      <trkpt lat="37.3394146655" lon="-8.2013336755">
        <ele>350.54</ele>
        <time>2021-05-28T12:10:11Z</time>
      </trkpt>
      <trkpt lat="37.3393440060" lon="-8.2014497649">
        <ele>350.06</ele>
        <time>2021-05-28T12:10:12Z</time>
      </trkpt>
      <trkpt lat="37.3392583430" lon="-8.2015452348">
        <ele>350.06</ele>
        <time>2021-05-28T12:10:13Z</time>
      </trkpt>
      <trkpt lat="37.3391573410" lon="-8.2016271260">
        <ele>351.02</ele>
        <time>2021-05-28T12:10:14Z</time>
      </trkpt>
      <trkpt lat="37.3390493821" lon="-8.2017034013">
        <ele>351.98</ele>
        <time>2021-05-28T12:10:15Z</time>
      </trkpt>
      <trkpt lat="37.3386976775" lon="-8.2019061595">
        <ele>356.31</ele>
        <time>2021-05-28T12:10:18Z</time>
      </trkpt>
      <trkpt lat="37.3385737091" lon="-8.2019537687">
        <ele>356.79</ele>
        <time>2021-05-28T12:10:19Z</time>
      </trkpt>
      <trkpt lat="37.3380945157" lon="-8.2021199819">
        <ele>361.11</ele>
        <time>2021-05-28T12:10:23Z</time>
      </trkpt>
      <trkpt lat="37.3379979562" lon="-8.2021908090">
        <ele>361.59</ele>
        <time>2021-05-28T12:10:24Z</time>
      </trkpt>
      <trkpt lat="37.3379135504" lon="-8.2022875361">
        <ele>362.07</ele>
        <time>2021-05-28T12:10:25Z</time>
      </trkpt>
      <trkpt lat="37.3378424719" lon="-8.2024069782">
        <ele>362.55</ele>
        <time>2021-05-28T12:10:26Z</time>
      </trkpt>
      <trkpt lat="37.3377903365" lon="-8.2025491353">
        <ele>363.52</ele>
        <time>2021-05-28T12:10:27Z</time>
      </trkpt>
      <trkpt lat="37.3377577309" lon="-8.2027099002">
        <ele>363.52</ele>
        <time>2021-05-28T12:10:28Z</time>
      </trkpt>
      <trkpt lat="37.3377450742" lon="-8.2028855849">
        <ele>364.00</ele>
        <time>2021-05-28T12:10:29Z</time>
      </trkpt>
      <trkpt lat="37.3377454933" lon="-8.2030625269">
        <ele>364.00</ele>
        <time>2021-05-28T12:10:30Z</time>
      </trkpt>
      <trkpt lat="37.3377402965" lon="-8.2032262255">
        <ele>363.52</ele>
        <time>2021-05-28T12:10:31Z</time>
      </trkpt>
      <trkpt lat="37.3377188388" lon="-8.2033822127">
        <ele>364.00</ele>
        <time>2021-05-28T12:10:32Z</time>
      </trkpt>
      <trkpt lat="37.3376757558" lon="-8.2035267167">
        <ele>363.52</ele>
        <time>2021-05-28T12:10:33Z</time>
      </trkpt>
      <trkpt lat="37.3376079462" lon="-8.2036583964">
        <ele>363.04</ele>
        <time>2021-05-28T12:10:34Z</time>
      </trkpt>
      <trkpt lat="37.3375228699" lon="-8.2037776709">
        <ele>363.04</ele>
        <time>2021-05-28T12:10:35Z</time>
      </trkpt>
      <trkpt lat="37.3374289088" lon="-8.2038863003">
        <ele>361.59</ele>
        <time>2021-05-28T12:10:36Z</time>
      </trkpt>
      <trkpt lat="37.3373280745" lon="-8.2039883081">
        <ele>361.59</ele>
        <time>2021-05-28T12:10:37Z</time>
      </trkpt>
      <trkpt lat="37.3370490409" lon="-8.2042937446">
        <ele>357.75</ele>
        <time>2021-05-28T12:10:40Z</time>
      </trkpt>
      <trkpt lat="37.3368536588" lon="-8.2044678368">
        <ele>356.31</ele>
        <time>2021-05-28T12:10:42Z</time>
      </trkpt>
      <trkpt lat="37.3365504853" lon="-8.2047052123">
        <ele>354.38</ele>
        <time>2021-05-28T12:10:45Z</time>
      </trkpt>
      <trkpt lat="37.3364629783" lon="-8.2048024423">
        <ele>353.42</ele>
        <time>2021-05-28T12:10:46Z</time>
      </trkpt>
      <trkpt lat="37.3362983577" lon="-8.2049909513">
        <ele>350.06</ele>
        <time>2021-05-28T12:10:48Z</time>
      </trkpt>
      <trkpt lat="37.3361987807" lon="-8.2050623652">
        <ele>348.62</ele>
        <time>2021-05-28T12:10:49Z</time>
      </trkpt>
      <trkpt lat="37.3360851221" lon="-8.2051158417">
        <ele>347.17</ele>
        <time>2021-05-28T12:10:50Z</time>
      </trkpt>
      <trkpt lat="37.3359646741" lon="-8.2051518839">
        <ele>345.73</ele>
        <time>2021-05-28T12:10:51Z</time>
      </trkpt>
      <trkpt lat="37.3358371854" lon="-8.2051713299">
        <ele>344.77</ele>
        <time>2021-05-28T12:10:52Z</time>
      </trkpt>
      <trkpt lat="37.3357070144" lon="-8.2051790413">
        <ele>343.81</ele>
        <time>2021-05-28T12:10:53Z</time>
      </trkpt>
      <trkpt lat="37.3355798610" lon="-8.2051806338">
        <ele>341.41</ele>
        <time>2021-05-28T12:10:54Z</time>
      </trkpt>
      <trkpt lat="37.3352548946" lon="-8.2051640376">
        <ele>337.56</ele>
        <time>2021-05-28T12:10:57Z</time>
      </trkpt>
      <trkpt lat="37.3351662140" lon="-8.2051708270">
        <ele>337.08</ele>
        <time>2021-05-28T12:10:58Z</time>
      </trkpt>
      <trkpt lat="37.3350864183" lon="-8.2052078750">
        <ele>336.12</ele>
        <time>2021-05-28T12:10:59Z</time>
      </trkpt>
      <trkpt lat="37.3350210395" lon="-8.2052708231">
        <ele>334.20</ele>
        <time>2021-05-28T12:11:00Z</time>
      </trkpt>
      <trkpt lat="37.3349718377" lon="-8.2053553127">
        <ele>333.71</ele>
        <time>2021-05-28T12:11:01Z</time>
      </trkpt>
      <trkpt lat="37.3349303473" lon="-8.2054591645">
        <ele>333.23</ele>
        <time>2021-05-28T12:11:02Z</time>
      </trkpt>
      <trkpt lat="37.3348938860" lon="-8.2055801153">
        <ele>332.75</ele>
        <time>2021-05-28T12:11:03Z</time>
      </trkpt>
      <trkpt lat="37.3348631244" lon="-8.2057081070">
        <ele>331.79</ele>
        <time>2021-05-28T12:11:04Z</time>
      </trkpt>
      <trkpt lat="37.3348382302" lon="-8.2058333326">
        <ele>330.83</ele>
        <time>2021-05-28T12:11:05Z</time>
      </trkpt>
      <trkpt lat="37.3348270822" lon="-8.2059589773">
        <ele>328.43</ele>
        <time>2021-05-28T12:11:06Z</time>
      </trkpt>
      <trkpt lat="37.3348373082" lon="-8.2060888130">
        <ele>328.43</ele>
        <time>2021-05-28T12:11:07Z</time>
      </trkpt>
      <trkpt lat="37.3348683212" lon="-8.2062140387">
        <ele>328.43</ele>
        <time>2021-05-28T12:11:08Z</time>
      </trkpt>
      <trkpt lat="37.3349031899" lon="-8.2063340675">
        <ele>326.99</ele>
        <time>2021-05-28T12:11:09Z</time>
      </trkpt>
      <trkpt lat="37.3349240609" lon="-8.2064565271">
        <ele>324.58</ele>
        <time>2021-05-28T12:11:10Z</time>
      </trkpt>
      <trkpt lat="37.3349262401" lon="-8.2065794896">
        <ele>322.66</ele>
        <time>2021-05-28T12:11:11Z</time>
      </trkpt>
      <trkpt lat="37.3349084705" lon="-8.2067032065">
        <ele>322.18</ele>
        <time>2021-05-28T12:11:12Z</time>
      </trkpt>
      <trkpt lat="37.3348783795" lon="-8.2068322040">
        <ele>322.18</ele>
        <time>2021-05-28T12:11:13Z</time>
      </trkpt>
      <trkpt lat="37.3348388169" lon="-8.2069643028">
        <ele>321.70</ele>
        <time>2021-05-28T12:11:14Z</time>
      </trkpt>
      <trkpt lat="37.3347430117" lon="-8.2072208729">
        <ele>320.74</ele>
        <time>2021-05-28T12:11:16Z</time>
      </trkpt>
      <trkpt lat="37.3346840031" lon="-8.2073310111">
        <ele>320.26</ele>
        <time>2021-05-28T12:11:17Z</time>
      </trkpt>
      <trkpt lat="37.3346157745" lon="-8.2074271515">
        <ele>318.33</ele>
        <time>2021-05-28T12:11:18Z</time>
      </trkpt>
      <trkpt lat="37.3345341347" lon="-8.2075106353">
        <ele>316.41</ele>
        <time>2021-05-28T12:11:19Z</time>
      </trkpt>
      <trkpt lat="37.3344443645" lon="-8.2075885870">
        <ele>314.49</ele>
        <time>2021-05-28T12:11:20Z</time>
      </trkpt>
      <trkpt lat="37.3343515769" lon="-8.2076575700">
        <ele>314.01</ele>
        <time>2021-05-28T12:11:21Z</time>
      </trkpt>
      <trkpt lat="37.3342546821" lon="-8.2077126391">
        <ele>312.57</ele>
        <time>2021-05-28T12:11:22Z</time>
      </trkpt>
      <trkpt lat="37.3341546860" lon="-8.2077516988">
        <ele>312.09</ele>
        <time>2021-05-28T12:11:23Z</time>
      </trkpt>
      <trkpt lat="37.3340551089" lon="-8.2077765930">
        <ele>312.57</ele>
        <time>2021-05-28T12:11:24Z</time>
      </trkpt>
      <trkpt lat="37.3333155736" lon="-8.2078744937">
        <ele>315.93</ele>
        <time>2021-05-28T12:11:31Z</time>
      </trkpt>
      <trkpt lat="37.3327719234" lon="-8.2079259586">
        <ele>316.89</ele>
        <time>2021-05-28T12:11:36Z</time>
      </trkpt>
      <trkpt lat="37.3324739467" lon="-8.2080069277">
        <ele>318.33</ele>
        <time>2021-05-28T12:11:39Z</time>
      </trkpt>
      <trkpt lat="37.3321876209" lon="-8.2081136294">
        <ele>320.26</ele>
        <time>2021-05-28T12:11:42Z</time>
      </trkpt>
      <trkpt lat="37.3317118641" lon="-8.2082990371">
        <ele>322.18</ele>
        <time>2021-05-28T12:11:47Z</time>
      </trkpt>
      <trkpt lat="37.3316096887" lon="-8.2083083410">
        <ele>322.66</ele>
        <time>2021-05-28T12:11:48Z</time>
      </trkpt>
      <trkpt lat="37.3315087706" lon="-8.2082964387">
        <ele>322.66</ele>
        <time>2021-05-28T12:11:49Z</time>
      </trkpt>
      <trkpt lat="37.3314068466" lon="-8.2082635816">
        <ele>321.70</ele>
        <time>2021-05-28T12:11:50Z</time>
      </trkpt>
      <trkpt lat="37.3313109577" lon="-8.2082204986">
        <ele>320.74</ele>
        <time>2021-05-28T12:11:51Z</time>
      </trkpt>
      <trkpt lat="37.3312211037" lon="-8.2081756555">
        <ele>320.26</ele>
        <time>2021-05-28T12:11:52Z</time>
      </trkpt>
      <trkpt lat="37.3311278131" lon="-8.2081365958">
        <ele>319.30</ele>
        <time>2021-05-28T12:11:53Z</time>
      </trkpt>
      <trkpt lat="37.3310268112" lon="-8.2081100252">
        <ele>319.30</ele>
        <time>2021-05-28T12:11:54Z</time>
      </trkpt>
      <trkpt lat="37.3309218697" lon="-8.2081026491">
        <ele>319.78</ele>
        <time>2021-05-28T12:11:55Z</time>
      </trkpt>
      <trkpt lat="37.3308169283" lon="-8.2081132941">
        <ele>319.78</ele>
        <time>2021-05-28T12:11:56Z</time>
      </trkpt>
      <trkpt lat="37.3307141662" lon="-8.2081391942">
        <ele>319.30</ele>
        <time>2021-05-28T12:11:57Z</time>
      </trkpt>
      <trkpt lat="37.3306114040" lon="-8.2081791759">
        <ele>318.81</ele>
        <time>2021-05-28T12:11:58Z</time>
      </trkpt>
      <trkpt lat="37.3305054568" lon="-8.2082321495">
        <ele>318.81</ele>
        <time>2021-05-28T12:11:59Z</time>
      </trkpt>
      <trkpt lat="37.3301390000" lon="-8.2084795833">
        <ele>315.45</ele>
        <time>2021-05-28T12:12:03Z</time>
      </trkpt>
      <trkpt lat="37.3300653230" lon="-8.2085488178">
        <ele>315.45</ele>
        <time>2021-05-28T12:12:04Z</time>
      </trkpt>
      <trkpt lat="37.3299961723" lon="-8.2086319663">
        <ele>315.93</ele>
        <time>2021-05-28T12:12:05Z</time>
      </trkpt>
      <trkpt lat="37.3299383372" lon="-8.2087321300">
        <ele>316.41</ele>
        <time>2021-05-28T12:12:06Z</time>
      </trkpt>
      <trkpt lat="37.3298988584" lon="-8.2088476326">
        <ele>316.89</ele>
        <time>2021-05-28T12:12:07Z</time>
      </trkpt>
      <trkpt lat="37.3298794962" lon="-8.2089727744">
        <ele>316.41</ele>
        <time>2021-05-28T12:12:08Z</time>
      </trkpt>
      <trkpt lat="37.3298794962" lon="-8.2091032807">
        <ele>315.93</ele>
        <time>2021-05-28T12:12:09Z</time>
      </trkpt>
      <trkpt lat="37.3298796639" lon="-8.2092321943">
        <ele>316.41</ele>
        <time>2021-05-28T12:12:10Z</time>
      </trkpt>
      <trkpt lat="37.3298637383" lon="-8.2093526423">
        <ele>316.41</ele>
        <time>2021-05-28T12:12:11Z</time>
      </trkpt>
      <trkpt lat="37.3298283666" lon="-8.2094628643">
        <ele>316.41</ele>
        <time>2021-05-28T12:12:12Z</time>
      </trkpt>
      <trkpt lat="37.3297722079" lon="-8.2095642015">
        <ele>315.93</ele>
        <time>2021-05-28T12:12:13Z</time>
      </trkpt>
      <trkpt lat="37.3296989501" lon="-8.2096533850">
        <ele>315.93</ele>
        <time>2021-05-28T12:12:14Z</time>
      </trkpt>
      <trkpt lat="37.3296163883" lon="-8.2097313367">
        <ele>316.41</ele>
        <time>2021-05-28T12:12:15Z</time>
      </trkpt>
      <trkpt lat="37.3295271210" lon="-8.2098046783">
        <ele>315.45</ele>
        <time>2021-05-28T12:12:16Z</time>
      </trkpt>
      <trkpt lat="37.3292648513" lon="-8.2099967077">
        <ele>314.97</ele>
        <time>2021-05-28T12:12:19Z</time>
      </trkpt>
      <trkpt lat="37.3291958682" lon="-8.2100750785">
        <ele>314.97</ele>
        <time>2021-05-28T12:12:20Z</time>
      </trkpt>
      <trkpt lat="37.3291398771" lon="-8.2101715542">
        <ele>314.97</ele>
        <time>2021-05-28T12:12:21Z</time>
      </trkpt>
      <trkpt lat="37.3291070201" lon="-8.2102790102">
        <ele>314.01</ele>
        <time>2021-05-28T12:12:22Z</time>
      </trkpt>
      <trkpt lat="37.3290950339" lon="-8.2104022242">
        <ele>313.53</ele>
        <time>2021-05-28T12:12:23Z</time>
      </trkpt>
      <trkpt lat="37.3291056789" lon="-8.2105410285">
        <ele>314.01</ele>
        <time>2021-05-28T12:12:24Z</time>
      </trkpt>
      <trkpt lat="37.3291298188" lon="-8.2106823474">
        <ele>313.53</ele>
        <time>2021-05-28T12:12:25Z</time>
      </trkpt>
      <trkpt lat="37.3291467503" lon="-8.2108195592">
        <ele>314.01</ele>
        <time>2021-05-28T12:12:26Z</time>
      </trkpt>
      <trkpt lat="37.3291418049" lon="-8.2109547593">
        <ele>312.57</ele>
        <time>2021-05-28T12:12:27Z</time>
      </trkpt>
      <trkpt lat="37.3291106243" lon="-8.2110924739">
        <ele>311.60</ele>
        <time>2021-05-28T12:12:28Z</time>
      </trkpt>
      <trkpt lat="37.3290611710" lon="-8.2112276740">
        <ele>310.64</ele>
        <time>2021-05-28T12:12:29Z</time>
      </trkpt>
      <trkpt lat="37.3290032521" lon="-8.2113566715">
        <ele>309.68</ele>
        <time>2021-05-28T12:12:30Z</time>
      </trkpt>
      <trkpt lat="37.3288988136" lon="-8.2116272394">
        <ele>307.76</ele>
        <time>2021-05-28T12:12:32Z</time>
      </trkpt>
      <trkpt lat="37.3288586643" lon="-8.2117765211">
        <ele>306.80</ele>
        <time>2021-05-28T12:12:33Z</time>
      </trkpt>
      <trkpt lat="37.3288242985" lon="-8.2119338494">
        <ele>305.84</ele>
        <time>2021-05-28T12:12:34Z</time>
      </trkpt>
      <trkpt lat="37.3288025893" lon="-8.2120969612">
        <ele>303.91</ele>
        <time>2021-05-28T12:12:35Z</time>
      </trkpt>
      <trkpt lat="37.3287963867" lon="-8.2122620009">
        <ele>302.95</ele>
        <time>2021-05-28T12:12:36Z</time>
      </trkpt>
      <trkpt lat="37.3288035113" lon="-8.2124300580">
        <ele>301.99</ele>
        <time>2021-05-28T12:12:37Z</time>
      </trkpt>
      <trkpt lat="37.3288171738" lon="-8.2125909068">
        <ele>300.55</ele>
        <time>2021-05-28T12:12:38Z</time>
      </trkpt>
      <trkpt lat="37.3288471811" lon="-8.2130456250">
        <ele>297.18</ele>
        <time>2021-05-28T12:12:41Z</time>
      </trkpt>
      <trkpt lat="37.3288490251" lon="-8.2133539952">
        <ele>294.30</ele>
        <time>2021-05-28T12:12:43Z</time>
      </trkpt>
      <trkpt lat="37.3288349435" lon="-8.2135091443">
        <ele>293.34</ele>
        <time>2021-05-28T12:12:44Z</time>
      </trkpt>
      <trkpt lat="37.3288100492" lon="-8.2136545703">
        <ele>290.94</ele>
        <time>2021-05-28T12:12:45Z</time>
      </trkpt>
      <trkpt lat="37.3287710734" lon="-8.2137915306">
        <ele>289.97</ele>
        <time>2021-05-28T12:12:46Z</time>
      </trkpt>
      <trkpt lat="37.3287134059" lon="-8.2139240485">
        <ele>289.01</ele>
        <time>2021-05-28T12:12:47Z</time>
      </trkpt>
      <trkpt lat="37.3286393099" lon="-8.2140485197">
        <ele>289.49</ele>
        <time>2021-05-28T12:12:48Z</time>
      </trkpt>
      <trkpt lat="37.3285564128" lon="-8.2141618431">
        <ele>288.05</ele>
        <time>2021-05-28T12:12:49Z</time>
      </trkpt>
      <trkpt lat="37.3284724262" lon="-8.2142631803">
        <ele>286.61</ele>
        <time>2021-05-28T12:12:50Z</time>
      </trkpt>
      <trkpt lat="37.3283043690" lon="-8.2144720573">
        <ele>284.69</ele>
        <time>2021-05-28T12:12:52Z</time>
      </trkpt>
      <trkpt lat="37.3282381520" lon="-8.2145965286">
        <ele>284.21</ele>
        <time>2021-05-28T12:12:53Z</time>
      </trkpt>
      <trkpt lat="37.3281878605" lon="-8.2147260290">
        <ele>283.73</ele>
        <time>2021-05-28T12:12:54Z</time>
      </trkpt>
      <trkpt lat="37.3281067237" lon="-8.2150000334">
        <ele>280.84</ele>
        <time>2021-05-28T12:12:56Z</time>
      </trkpt>
      <trkpt lat="37.3279260937" lon="-8.2154270075">
        <ele>277.00</ele>
        <time>2021-05-28T12:12:59Z</time>
      </trkpt>
      <trkpt lat="37.3278422747" lon="-8.2155654766">
        <ele>276.52</ele>
        <time>2021-05-28T12:13:00Z</time>
      </trkpt>
      <trkpt lat="37.3277493194" lon="-8.2156970724">
        <ele>275.07</ele>
        <time>2021-05-28T12:13:01Z</time>
      </trkpt>
      <trkpt lat="37.3276473116" lon="-8.2158170175">
        <ele>274.11</ele>
        <time>2021-05-28T12:13:02Z</time>
      </trkpt>
      <trkpt lat="37.3275453039" lon="-8.2159176003">
        <ele>273.15</ele>
        <time>2021-05-28T12:13:03Z</time>
      </trkpt>
      <trkpt lat="37.3274398595" lon="-8.2160049397">
        <ele>272.67</ele>
        <time>2021-05-28T12:13:04Z</time>
      </trkpt>
      <trkpt lat="37.3273313139" lon="-8.2160884235">
        <ele>271.23</ele>
        <time>2021-05-28T12:13:05Z</time>
      </trkpt>
      <trkpt lat="37.3269039206" lon="-8.2164703868">
        <ele>270.27</ele>
        <time>2021-05-28T12:13:09Z</time>
      </trkpt>
      <trkpt lat="37.3268085346" lon="-8.2165916730">
        <ele>269.79</ele>
        <time>2021-05-28T12:13:10Z</time>
      </trkpt>
      <trkpt lat="37.3267218657" lon="-8.2167215925">
        <ele>269.31</ele>
        <time>2021-05-28T12:13:11Z</time>
      </trkpt>
      <trkpt lat="37.3266458418" lon="-8.2168612350">
        <ele>268.35</ele>
        <time>2021-05-28T12:13:12Z</time>
      </trkpt>
      <trkpt lat="37.3265829775" lon="-8.2170073316">
        <ele>268.83</ele>
        <time>2021-05-28T12:13:13Z</time>
      </trkpt>
      <trkpt lat="37.3265301716" lon="-8.2171570323">
        <ele>268.83</ele>
        <time>2021-05-28T12:13:14Z</time>
      </trkpt>
      <trkpt lat="37.3264824785" lon="-8.2173152827">
        <ele>269.31</ele>
        <time>2021-05-28T12:13:15Z</time>
      </trkpt>
      <trkpt lat="37.3262722604" lon="-8.2178632077">
        <ele>267.86</ele>
        <time>2021-05-28T12:13:19Z</time>
      </trkpt>
      <trkpt lat="37.3261990026" lon="-8.2179659698">
        <ele>268.35</ele>
        <time>2021-05-28T12:13:20Z</time>
      </trkpt>
      <trkpt lat="37.3261131719" lon="-8.2180526387">
        <ele>268.35</ele>
        <time>2021-05-28T12:13:21Z</time>
      </trkpt>
      <trkpt lat="37.3260173667" lon="-8.2181292493">
        <ele>267.86</ele>
        <time>2021-05-28T12:13:22Z</time>
      </trkpt>
      <trkpt lat="37.3259226512" lon="-8.2182045188">
        <ele>267.38</ele>
        <time>2021-05-28T12:13:23Z</time>
      </trkpt>
      <trkpt lat="37.3258406762" lon="-8.2182938699">
        <ele>266.42</ele>
        <time>2021-05-28T12:13:24Z</time>
      </trkpt>
      <trkpt lat="37.3257716093" lon="-8.2184068579">
        <ele>265.94</ele>
        <time>2021-05-28T12:13:25Z</time>
      </trkpt>
      <trkpt lat="37.3257192224" lon="-8.2185428124">
        <ele>265.94</ele>
        <time>2021-05-28T12:13:26Z</time>
      </trkpt>
      <trkpt lat="37.3256877903" lon="-8.2186948601">
        <ele>266.42</ele>
        <time>2021-05-28T12:13:27Z</time>
      </trkpt>
      <trkpt lat="37.3256742954" lon="-8.2188556250">
        <ele>265.94</ele>
        <time>2021-05-28T12:13:28Z</time>
      </trkpt>
      <trkpt lat="37.3256703559" lon="-8.2190171443">
        <ele>265.94</ele>
        <time>2021-05-28T12:13:29Z</time>
      </trkpt>
      <trkpt lat="37.3256448749" lon="-8.2193049788">
        <ele>263.06</ele>
        <time>2021-05-28T12:13:31Z</time>
      </trkpt>
      <trkpt lat="37.3256099224" lon="-8.2194290310">
        <ele>262.58</ele>
        <time>2021-05-28T12:13:32Z</time>
      </trkpt>
      <trkpt lat="37.3255566973" lon="-8.2195447013">
        <ele>261.62</ele>
        <time>2021-05-28T12:13:33Z</time>
      </trkpt>
      <trkpt lat="37.3254879657" lon="-8.2196417637">
        <ele>260.17</ele>
        <time>2021-05-28T12:13:34Z</time>
      </trkpt>
      <trkpt lat="37.3254052363" lon="-8.2197125070">
        <ele>259.21</ele>
        <time>2021-05-28T12:13:35Z</time>
      </trkpt>
      <trkpt lat="37.3253121134" lon="-8.2197560091">
        <ele>258.25</ele>
        <time>2021-05-28T12:13:36Z</time>
      </trkpt>
      <trkpt lat="37.3252090998" lon="-8.2197773829">
        <ele>257.29</ele>
        <time>2021-05-28T12:13:37Z</time>
      </trkpt>
      <trkpt lat="37.3250955250" lon="-8.2197845913">
        <ele>256.33</ele>
        <time>2021-05-28T12:13:38Z</time>
      </trkpt>
      <trkpt lat="37.3249779269" lon="-8.2197882794">
        <ele>255.37</ele>
        <time>2021-05-28T12:13:39Z</time>
      </trkpt>
      <trkpt lat="37.3248614185" lon="-8.2198114973">
        <ele>255.37</ele>
        <time>2021-05-28T12:13:40Z</time>
      </trkpt>
      <trkpt lat="37.3247441556" lon="-8.2198620401">
        <ele>255.37</ele>
        <time>2021-05-28T12:13:41Z</time>
      </trkpt>
      <trkpt lat="37.3246282339" lon="-8.2199276704">
        <ele>253.93</ele>
        <time>2021-05-28T12:13:42Z</time>
      </trkpt>
      <trkpt lat="37.3245100491" lon="-8.2200000901">
        <ele>253.93</ele>
        <time>2021-05-28T12:13:43Z</time>
      </trkpt>
      <trkpt lat="37.3243890982" lon="-8.2200601045">
        <ele>252.96</ele>
        <time>2021-05-28T12:13:44Z</time>
      </trkpt>
      <trkpt lat="37.3242668062" lon="-8.2201030198">
        <ele>250.08</ele>
        <time>2021-05-28T12:13:45Z</time>
      </trkpt>
      <trkpt lat="37.3241527285" lon="-8.2201437559">
        <ele>247.68</ele>
        <time>2021-05-28T12:13:46Z</time>
      </trkpt>
      <trkpt lat="37.3240497150" lon="-8.2202016748">
        <ele>246.72</ele>
        <time>2021-05-28T12:13:47Z</time>
      </trkpt>
      <trkpt lat="37.3239590228" lon="-8.2202784531">
        <ele>244.31</ele>
        <time>2021-05-28T12:13:48Z</time>
      </trkpt>
      <trkpt lat="37.3238823283" lon="-8.2203765213">
        <ele>244.31</ele>
        <time>2021-05-28T12:13:49Z</time>
      </trkpt>
      <trkpt lat="37.3238242418" lon="-8.2204987295">
        <ele>241.91</ele>
        <time>2021-05-28T12:13:50Z</time>
      </trkpt>
      <trkpt lat="37.3237862717" lon="-8.2206485141">
        <ele>242.39</ele>
        <time>2021-05-28T12:13:51Z</time>
      </trkpt>
      <trkpt lat="37.3237646464" lon="-8.2208133023">
        <ele>240.47</ele>
        <time>2021-05-28T12:13:52Z</time>
      </trkpt>
      <trkpt lat="37.3237457871" lon="-8.2209787611">
        <ele>239.51</ele>
        <time>2021-05-28T12:13:53Z</time>
      </trkpt>
      <trkpt lat="37.3237190489" lon="-8.2211434655">
        <ele>238.06</ele>
        <time>2021-05-28T12:13:54Z</time>
      </trkpt>
      <trkpt lat="37.3236818332" lon="-8.2212993689">
        <ele>236.62</ele>
        <time>2021-05-28T12:13:55Z</time>
      </trkpt>
      <trkpt lat="37.3236339726" lon="-8.2214492373">
        <ele>235.18</ele>
        <time>2021-05-28T12:13:56Z</time>
      </trkpt>
      <trkpt lat="37.3235737067" lon="-8.2215936575">
        <ele>234.70</ele>
        <time>2021-05-28T12:13:57Z</time>
      </trkpt>
      <trkpt lat="37.3235032987" lon="-8.2217368204">
        <ele>234.22</ele>
        <time>2021-05-28T12:13:58Z</time>
      </trkpt>
      <trkpt lat="37.3232645821" lon="-8.2221321110">
        <ele>230.37</ele>
        <time>2021-05-28T12:14:01Z</time>
      </trkpt>
      <trkpt lat="37.3229939304" lon="-8.2224785350">
        <ele>227.49</ele>
        <time>2021-05-28T12:14:04Z</time>
      </trkpt>
      <trkpt lat="37.3228121269" lon="-8.2226635236">
        <ele>225.09</ele>
        <time>2021-05-28T12:14:06Z</time>
      </trkpt>
      <trkpt lat="37.3223898467" lon="-8.2230272982">
        <ele>223.64</ele>
        <time>2021-05-28T12:14:10Z</time>
      </trkpt>
      <trkpt lat="37.3222911917" lon="-8.2231440581">
        <ele>224.12</ele>
        <time>2021-05-28T12:14:11Z</time>
      </trkpt>
      <trkpt lat="37.3222019244" lon="-8.2232764922">
        <ele>223.64</ele>
        <time>2021-05-28T12:14:12Z</time>
      </trkpt>
      <trkpt lat="37.3217458650" lon="-8.2239546720">
        <ele>220.28</ele>
        <time>2021-05-28T12:14:17Z</time>
      </trkpt>
      <trkpt lat="37.3213862814" lon="-8.2242762018">
        <ele>216.43</ele>
        <time>2021-05-28T12:14:20Z</time>
      </trkpt>
      <trkpt lat="37.3212536797" lon="-8.2243552431">
        <ele>215.95</ele>
        <time>2021-05-28T12:14:21Z</time>
      </trkpt>
      <trkpt lat="37.3211121093" lon="-8.2244102284">
        <ele>215.47</ele>
        <time>2021-05-28T12:14:22Z</time>
      </trkpt>
      <trkpt lat="37.3209649231" lon="-8.2244415767">
        <ele>215.95</ele>
        <time>2021-05-28T12:14:23Z</time>
      </trkpt>
      <trkpt lat="37.3208174855" lon="-8.2244479470">
        <ele>214.99</ele>
        <time>2021-05-28T12:14:24Z</time>
      </trkpt>
      <trkpt lat="37.3206687905" lon="-8.2244334463">
        <ele>215.47</ele>
        <time>2021-05-28T12:14:25Z</time>
      </trkpt>
      <trkpt lat="37.3205166589" lon="-8.2244064566">
        <ele>214.99</ele>
        <time>2021-05-28T12:14:26Z</time>
      </trkpt>
      <trkpt lat="37.3196648899" lon="-8.2242342923">
        <ele>211.63</ele>
        <time>2021-05-28T12:14:32Z</time>
      </trkpt>
      <trkpt lat="37.3195447773" lon="-8.2242137566">
        <ele>209.70</ele>
        <time>2021-05-28T12:14:33Z</time>
      </trkpt>
      <trkpt lat="37.3194282688" lon="-8.2242146786">
        <ele>209.22</ele>
        <time>2021-05-28T12:14:34Z</time>
      </trkpt>
      <trkpt lat="37.3193206452" lon="-8.2242419198">
        <ele>208.26</ele>
        <time>2021-05-28T12:14:35Z</time>
      </trkpt>
      <trkpt lat="37.3192229960" lon="-8.2242978271">
        <ele>208.26</ele>
        <time>2021-05-28T12:14:36Z</time>
      </trkpt>
      <trkpt lat="37.3191274423" lon="-8.2243818138">
        <ele>207.78</ele>
        <time>2021-05-28T12:14:37Z</time>
      </trkpt>
      <trkpt lat="37.3190338165" lon="-8.2244828995">
        <ele>206.82</ele>
        <time>2021-05-28T12:14:38Z</time>
      </trkpt>
      <trkpt lat="37.3189387657" lon="-8.2245929539">
        <ele>206.82</ele>
        <time>2021-05-28T12:14:39Z</time>
      </trkpt>
      <trkpt lat="37.3186330777" lon="-8.2249394618">
        <ele>202.98</ele>
        <time>2021-05-28T12:14:42Z</time>
      </trkpt>
      <trkpt lat="37.3184149805" lon="-8.2251540385">
        <ele>200.09</ele>
        <time>2021-05-28T12:14:44Z</time>
      </trkpt>
      <trkpt lat="37.3180652875" lon="-8.2253920007">
        <ele>195.77</ele>
        <time>2021-05-28T12:14:47Z</time>
      </trkpt>
      <trkpt lat="37.3178481963" lon="-8.2255049050">
        <ele>191.92</ele>
        <time>2021-05-28T12:14:49Z</time>
      </trkpt>
      <trkpt lat="37.3177468590" lon="-8.2255703676">
        <ele>190.00</ele>
        <time>2021-05-28T12:14:50Z</time>
      </trkpt>
      <trkpt lat="37.3176571727" lon="-8.2256515045">
        <ele>188.56</ele>
        <time>2021-05-28T12:14:51Z</time>
      </trkpt>
      <trkpt lat="37.3175813165" lon="-8.2257434539">
        <ele>187.59</ele>
        <time>2021-05-28T12:14:52Z</time>
      </trkpt>
      <trkpt lat="37.3175210506" lon="-8.2258436177">
        <ele>186.15</ele>
        <time>2021-05-28T12:14:53Z</time>
      </trkpt>
      <trkpt lat="37.3174767941" lon="-8.2259406801">
        <ele>185.19</ele>
        <time>2021-05-28T12:14:54Z</time>
      </trkpt>
      <trkpt lat="37.3174477927" lon="-8.2260269299">
        <ele>183.27</ele>
        <time>2021-05-28T12:14:55Z</time>
      </trkpt>
      <trkpt lat="37.3174292687" lon="-8.2260981761">
        <ele>182.79</ele>
        <time>2021-05-28T12:14:56Z</time>
      </trkpt>
      <trkpt lat="37.3174002673" lon="-8.2262362260">
        <ele>178.94</ele>
        <time>2021-05-28T12:14:59Z</time>
      </trkpt>
      <trkpt lat="37.3175136745" lon="-8.2265139185">
        <ele>178.94</ele>
        <time>2021-05-28T12:15:09Z</time>
      </trkpt>
      <trkpt lat="37.3178812210" lon="-8.2268936187">
        <ele>178.46</ele>
        <time>2021-05-28T12:15:17Z</time>
      </trkpt>
      <trkpt lat="37.3185242806" lon="-8.2274883986">
        <ele>175.58</ele>
        <time>2021-05-28T12:15:24Z</time>
      </trkpt>
      <trkpt lat="37.3186891526" lon="-8.2276584674">
        <ele>175.10</ele>
        <time>2021-05-28T12:15:26Z</time>
      </trkpt>
      <trkpt lat="37.3190272786" lon="-8.2279808354">
        <ele>171.73</ele>
        <time>2021-05-28T12:15:30Z</time>
      </trkpt>
      <trkpt lat="37.3191644065" lon="-8.2281208131">
        <ele>170.29</ele>
        <time>2021-05-28T12:15:32Z</time>
      </trkpt>
      <trkpt lat="37.3192770593" lon="-8.2282618806">
        <ele>169.33</ele>
        <time>2021-05-28T12:15:34Z</time>
      </trkpt>
      <trkpt lat="37.3195593618" lon="-8.2287259027">
        <ele>167.41</ele>
        <time>2021-05-28T12:15:39Z</time>
      </trkpt>
      <trkpt lat="37.3195937276" lon="-8.2288275752">
        <ele>166.93</ele>
        <time>2021-05-28T12:15:40Z</time>
      </trkpt>
      <trkpt lat="37.3196115810" lon="-8.2289332710">
        <ele>166.45</ele>
        <time>2021-05-28T12:15:41Z</time>
      </trkpt>
      <trkpt lat="37.3196075577" lon="-8.2290467620">
        <ele>166.45</ele>
        <time>2021-05-28T12:15:42Z</time>
      </trkpt>
      <trkpt lat="37.3195854295" lon="-8.2291639410">
        <ele>166.93</ele>
        <time>2021-05-28T12:15:43Z</time>
      </trkpt>
      <trkpt lat="37.3195477109" lon="-8.2292853110">
        <ele>166.45</ele>
        <time>2021-05-28T12:15:44Z</time>
      </trkpt>
      <trkpt lat="37.3194991797" lon="-8.2294063456">
        <ele>166.45</ele>
        <time>2021-05-28T12:15:45Z</time>
      </trkpt>
      <trkpt lat="37.3194497265" lon="-8.2295189146">
        <ele>165.96</ele>
        <time>2021-05-28T12:15:46Z</time>
      </trkpt>
      <trkpt lat="37.3191812541" lon="-8.2303813286">
        <ele>163.08</ele>
        <time>2021-05-28T12:15:55Z</time>
      </trkpt>
      <trkpt lat="37.3191556055" lon="-8.2306025270">
        <ele>163.56</ele>
        <time>2021-05-28T12:15:57Z</time>
      </trkpt>
      <trkpt lat="37.3192300368" lon="-8.2318362594">
        <ele>165.48</ele>
        <time>2021-05-28T12:16:08Z</time>
      </trkpt>
      <trkpt lat="37.3192523327" lon="-8.2322157919">
        <ele>165.96</ele>
        <time>2021-05-28T12:16:11Z</time>
      </trkpt>
      <trkpt lat="37.3192404304" lon="-8.2323405147">
        <ele>166.45</ele>
        <time>2021-05-28T12:16:12Z</time>
      </trkpt>
      <trkpt lat="37.3192122672" lon="-8.2324663270">
        <ele>165.96</ele>
        <time>2021-05-28T12:16:13Z</time>
      </trkpt>
      <trkpt lat="37.3191693518" lon="-8.2325907145">
        <ele>165.96</ele>
        <time>2021-05-28T12:16:14Z</time>
      </trkpt>
      <trkpt lat="37.3191162106" lon="-8.2327137608">
        <ele>165.48</ele>
        <time>2021-05-28T12:16:15Z</time>
      </trkpt>
      <trkpt lat="37.3190527596" lon="-8.2328337897">
        <ele>165.00</ele>
        <time>2021-05-28T12:16:16Z</time>
      </trkpt>
      <trkpt lat="37.3189848661" lon="-8.2329450175">
        <ele>164.04</ele>
        <time>2021-05-28T12:16:17Z</time>
      </trkpt>
      <trkpt lat="37.3189130332" lon="-8.2330470253">
        <ele>164.52</ele>
        <time>2021-05-28T12:16:18Z</time>
      </trkpt>
      <trkpt lat="37.3188323155" lon="-8.2331426628">
        <ele>164.52</ele>
        <time>2021-05-28T12:16:19Z</time>
      </trkpt>
      <trkpt lat="37.3187510110" lon="-8.2332253922">
        <ele>164.52</ele>
        <time>2021-05-28T12:16:20Z</time>
      </trkpt>
      <trkpt lat="37.3186619952" lon="-8.2332996558">
        <ele>163.56</ele>
        <time>2021-05-28T12:16:21Z</time>
      </trkpt>
      <trkpt lat="37.3185603227" lon="-8.2333712373">
        <ele>164.04</ele>
        <time>2021-05-28T12:16:22Z</time>
      </trkpt>
      <trkpt lat="37.3177694902" lon="-8.2338692900">
        <ele>161.16</ele>
        <time>2021-05-28T12:16:29Z</time>
      </trkpt>
      <trkpt lat="37.3169709463" lon="-8.2344943285">
        <ele>158.75</ele>
        <time>2021-05-28T12:16:36Z</time>
      </trkpt>
      <trkpt lat="37.3163289763" lon="-8.2352578361">
        <ele>159.24</ele>
        <time>2021-05-28T12:16:42Z</time>
      </trkpt>
      <trkpt lat="37.3160952050" lon="-8.2355145738">
        <ele>158.27</ele>
        <time>2021-05-28T12:16:44Z</time>
      </trkpt>
      <trkpt lat="37.3157157563" lon="-8.2360020652">
        <ele>154.91</ele>
        <time>2021-05-28T12:16:48Z</time>
      </trkpt>
      <trkpt lat="37.3156232201" lon="-8.2361049950">
        <ele>153.47</ele>
        <time>2021-05-28T12:16:49Z</time>
      </trkpt>
      <trkpt lat="37.3155277502" lon="-8.2361862157">
        <ele>153.47</ele>
        <time>2021-05-28T12:16:50Z</time>
      </trkpt>
      <trkpt lat="37.3154330347" lon="-8.2362551987">
        <ele>152.51</ele>
        <time>2021-05-28T12:16:51Z</time>
      </trkpt>
      <trkpt lat="37.3153327033" lon="-8.2363157161">
        <ele>151.54</ele>
        <time>2021-05-28T12:16:52Z</time>
      </trkpt>
      <trkpt lat="37.3152218945" lon="-8.2363678515">
        <ele>152.03</ele>
        <time>2021-05-28T12:16:53Z</time>
      </trkpt>
      <trkpt lat="37.3151008599" lon="-8.2364156283">
        <ele>152.51</ele>
        <time>2021-05-28T12:16:54Z</time>
      </trkpt>
      <trkpt lat="37.3139450792" lon="-8.2367883716">
        <ele>152.51</ele>
        <time>2021-05-28T12:17:01Z</time>
      </trkpt>
      <trkpt lat="37.3136036005" lon="-8.2369082328">
        <ele>150.58</ele>
        <time>2021-05-28T12:17:03Z</time>
      </trkpt>
      <trkpt lat="37.3131098226" lon="-8.2371234801">
        <ele>145.78</ele>
        <time>2021-05-28T12:17:07Z</time>
      </trkpt>
      <trkpt lat="37.3129317071" lon="-8.2372440118">
        <ele>145.30</ele>
        <time>2021-05-28T12:17:09Z</time>
      </trkpt>
      <trkpt lat="37.3128441162" lon="-8.2373238914">
        <ele>145.78</ele>
        <time>2021-05-28T12:17:10Z</time>
      </trkpt>
      <trkpt lat="37.3123355862" lon="-8.2378725708">
        <ele>149.14</ele>
        <time>2021-05-28T12:17:15Z</time>
      </trkpt>
      <trkpt lat="37.3119948618" lon="-8.2382061705">
        <ele>148.18</ele>
        <time>2021-05-28T12:17:18Z</time>
      </trkpt>
      <trkpt lat="37.3118733242" lon="-8.2382853795">
        <ele>148.18</ele>
        <time>2021-05-28T12:17:19Z</time>
      </trkpt>
      <trkpt lat="37.3115201946" lon="-8.2384621538">
        <ele>149.62</ele>
        <time>2021-05-28T12:17:22Z</time>
      </trkpt>
      <trkpt lat="37.3112390656" lon="-8.2385708671">
        <ele>152.03</ele>
        <time>2021-05-28T12:17:25Z</time>
      </trkpt>
      <trkpt lat="37.3109782208" lon="-8.2386694383">
        <ele>155.39</ele>
        <time>2021-05-28T12:17:28Z</time>
      </trkpt>
      <trkpt lat="37.3103593010" lon="-8.2389716059">
        <ele>155.39</ele>
        <time>2021-05-28T12:17:37Z</time>
      </trkpt>
      <trkpt lat="37.3103288747" lon="-8.2389913872">
        <ele>155.39</ele>
        <time>2021-05-28T12:17:38Z</time>
      </trkpt>
      <trkpt lat="37.3098485917" lon="-8.2392982487">
        <ele>152.03</ele>
        <time>2021-05-28T12:17:49Z</time>
      </trkpt>
      <trkpt lat="37.3098333366" lon="-8.2393578440">
        <ele>151.54</ele>
        <time>2021-05-28T12:17:50Z</time>
      </trkpt>
      <trkpt lat="37.3098363541" lon="-8.2394297607">
        <ele>151.54</ele>
        <time>2021-05-28T12:17:51Z</time>
      </trkpt>
      <trkpt lat="37.3098528665" lon="-8.2395121548">
        <ele>152.03</ele>
        <time>2021-05-28T12:17:52Z</time>
      </trkpt>
      <trkpt lat="37.3098761681" lon="-8.2396041043">
        <ele>151.54</ele>
        <time>2021-05-28T12:17:53Z</time>
      </trkpt>
      <trkpt lat="37.3098962847" lon="-8.2397037651">
        <ele>151.06</ele>
        <time>2021-05-28T12:17:54Z</time>
      </trkpt>
      <trkpt lat="37.3099076003" lon="-8.2398131490">
        <ele>151.06</ele>
        <time>2021-05-28T12:17:55Z</time>
      </trkpt>
      <trkpt lat="37.3099072650" lon="-8.2399234548">
        <ele>150.58</ele>
        <time>2021-05-28T12:17:56Z</time>
      </trkpt>
      <trkpt lat="37.3098915908" lon="-8.2401335891">
        <ele>149.62</ele>
        <time>2021-05-28T12:17:58Z</time>
      </trkpt>
      <trkpt lat="37.3098791856" lon="-8.2414812315">
        <ele>147.22</ele>
        <time>2021-05-28T12:18:09Z</time>
      </trkpt>
      <trkpt lat="37.3099269625" lon="-8.2419514563">
        <ele>145.78</ele>
        <time>2021-05-28T12:18:12Z</time>
      </trkpt>
      <trkpt lat="37.3099980410" lon="-8.2424075995">
        <ele>144.34</ele>
        <time>2021-05-28T12:18:15Z</time>
      </trkpt>
      <trkpt lat="37.3100709636" lon="-8.2427013014">
        <ele>142.41</ele>
        <time>2021-05-28T12:18:18Z</time>
      </trkpt>
      <trkpt lat="37.3100797646" lon="-8.2427935023">
        <ele>142.41</ele>
        <time>2021-05-28T12:18:19Z</time>
      </trkpt>
      <trkpt lat="37.3100819439" lon="-8.2429001201">
        <ele>141.93</ele>
        <time>2021-05-28T12:18:20Z</time>
      </trkpt>
      <trkpt lat="37.3100724723" lon="-8.2430226635">
        <ele>142.41</ele>
        <time>2021-05-28T12:18:21Z</time>
      </trkpt>
      <trkpt lat="37.3100523558" lon="-8.2431521639">
        <ele>142.41</ele>
        <time>2021-05-28T12:18:22Z</time>
      </trkpt>
      <trkpt lat="37.3100294732" lon="-8.2432842627">
        <ele>142.41</ele>
        <time>2021-05-28T12:18:23Z</time>
      </trkpt>
      <trkpt lat="37.3100052495" lon="-8.2435152680">
        <ele>141.45</ele>
        <time>2021-05-28T12:18:25Z</time>
      </trkpt>
      <trkpt lat="37.3100062553" lon="-8.2436143421">
        <ele>141.93</ele>
        <time>2021-05-28T12:18:26Z</time>
      </trkpt>
      <trkpt lat="37.3100251146" lon="-8.2439186890">
        <ele>141.93</ele>
        <time>2021-05-28T12:18:30Z</time>
      </trkpt>
      <trkpt lat="37.3100406211" lon="-8.2439582516">
        <ele>141.45</ele>
        <time>2021-05-28T12:18:31Z</time>
      </trkpt>
      <trkpt lat="37.3100642581" lon="-8.2439837325">
        <ele>141.45</ele>
        <time>2021-05-28T12:18:32Z</time>
      </trkpt>
      <trkpt lat="37.3100931756" lon="-8.2439984847">
        <ele>141.45</ele>
        <time>2021-05-28T12:18:33Z</time>
      </trkpt>
      <trkpt lat="37.3101235181" lon="-8.2440089621">
        <ele>141.45</ele>
        <time>2021-05-28T12:18:34Z</time>
      </trkpt>
      <trkpt lat="37.3101568781" lon="-8.2440149132">
        <ele>141.45</ele>
        <time>2021-05-28T12:18:35Z</time>
      </trkpt>
      <trkpt lat="37.3101889808" lon="-8.2440163381">
        <ele>141.93</ele>
        <time>2021-05-28T12:18:36Z</time>
      </trkpt>
      <trkpt lat="37.3102163896" lon="-8.2440157514">
        <ele>141.93</ele>
        <time>2021-05-28T12:18:37Z</time>
      </trkpt>
      <trkpt lat="37.3102443013" lon="-8.2440134883">
        <ele>141.93</ele>
        <time>2021-05-28T12:18:38Z</time>
      </trkpt>
      <trkpt lat="37.3104340676" lon="-8.2440388016">
        <ele>142.89</ele>
        <time>2021-05-28T12:18:42Z</time>
      </trkpt>
      <trkpt lat="37.3104955070" lon="-8.2440589182">
        <ele>143.37</ele>
        <time>2021-05-28T12:18:43Z</time>
      </trkpt>
      <trkpt lat="37.3106216546" lon="-8.2441105507">
        <ele>143.85</ele>
        <time>2021-05-28T12:18:45Z</time>
      </trkpt>
      <trkpt lat="37.3106851056" lon="-8.2441294938">
        <ele>144.34</ele>
        <time>2021-05-28T12:18:46Z</time>
      </trkpt>
      <trkpt lat="37.3107481375" lon="-8.2441354450">
        <ele>144.82</ele>
        <time>2021-05-28T12:18:47Z</time>
      </trkpt>
      <trkpt lat="37.3108120915" lon="-8.2441249676">
        <ele>145.30</ele>
        <time>2021-05-28T12:18:48Z</time>
      </trkpt>
      <trkpt lat="37.3108731117" lon="-8.2441021688">
        <ele>145.78</ele>
        <time>2021-05-28T12:18:49Z</time>
      </trkpt>
      <trkpt lat="37.3109349702" lon="-8.2440683059">
        <ele>146.26</ele>
        <time>2021-05-28T12:18:50Z</time>
      </trkpt>
      <trkpt lat="37.3109936435" lon="-8.2440294977">
        <ele>147.22</ele>
        <time>2021-05-28T12:18:51Z</time>
      </trkpt>
      <trkpt lat="37.3110527359" lon="-8.2439975627">
        <ele>148.18</ele>
        <time>2021-05-28T12:18:52Z</time>
      </trkpt>
      <trkpt lat="37.3111694120" lon="-8.2439336088">
        <ele>150.10</ele>
        <time>2021-05-28T12:18:54Z</time>
      </trkpt>
      <trkpt lat="37.3112073820" lon="-8.2439011708">
        <ele>150.58</ele>
        <time>2021-05-28T12:18:55Z</time>
      </trkpt>
      <trkpt lat="37.3112226371" lon="-8.2438626140">
        <ele>151.06</ele>
        <time>2021-05-28T12:18:56Z</time>
      </trkpt>
      <trkpt lat="37.3112317733" lon="-8.2438202854">
        <ele>151.54</ele>
        <time>2021-05-28T12:18:57Z</time>
      </trkpt>
      <trkpt lat="37.3112346232" lon="-8.2437787950">
        <ele>151.54</ele>
        <time>2021-05-28T12:18:58Z</time>
      </trkpt>
      <trkpt lat="37.3112390656" lon="-8.2437383942">
        <ele>151.54</ele>
        <time>2021-05-28T12:18:59Z</time>
      </trkpt>
      <trkpt lat="37.3112492077" lon="-8.2437010948">
        <ele>150.10</ele>
        <time>2021-05-28T12:19:00Z</time>
      </trkpt>
      <trkpt lat="37.3112653848" lon="-8.2436650526">
        <ele>151.06</ele>
        <time>2021-05-28T12:19:01Z</time>
      </trkpt>
      <trkpt lat="37.3112877645" lon="-8.2436357997">
        <ele>150.58</ele>
        <time>2021-05-28T12:19:02Z</time>
      </trkpt>
      <trkpt lat="37.3113186099" lon="-8.2436092291">
        <ele>150.10</ele>
        <time>2021-05-28T12:19:03Z</time>
      </trkpt>
      <trkpt lat="37.3113579210" lon="-8.2435880229">
        <ele>149.62</ele>
        <time>2021-05-28T12:19:04Z</time>
      </trkpt>
      <trkpt lat="37.3114034347" lon="-8.2435704209">
        <ele>149.62</ele>
        <time>2021-05-28T12:19:05Z</time>
      </trkpt>
      <trkpt lat="37.3115048558" lon="-8.2435302716">
        <ele>148.66</ele>
        <time>2021-05-28T12:19:07Z</time>
      </trkpt>
      <trkpt lat="37.3115440831" lon="-8.2434995100">
        <ele>147.70</ele>
        <time>2021-05-28T12:19:08Z</time>
      </trkpt>
      <trkpt lat="37.3115741741" lon="-8.2434609532">
        <ele>147.22</ele>
        <time>2021-05-28T12:19:09Z</time>
      </trkpt>
      <trkpt lat="37.3116710689" lon="-8.2433535811">
        <ele>148.18</ele>
        <time>2021-05-28T12:19:17Z</time>
      </trkpt>
      <trkpt lat="37.3117210250" lon="-8.2433483005">
        <ele>148.66</ele>
        <time>2021-05-28T12:19:22Z</time>
      </trkpt>
      <trkpt lat="37.3117611744" lon="-8.2433579396">
        <ele>149.14</ele>
        <time>2021-05-28T12:19:23Z</time>
      </trkpt>
      <trkpt lat="37.3118020780" lon="-8.2433874439">
        <ele>149.62</ele>
        <time>2021-05-28T12:19:24Z</time>
      </trkpt>
      <trkpt lat="37.3119841330" lon="-8.2435495500">
        <ele>152.99</ele>
        <time>2021-05-28T12:19:27Z</time>
      </trkpt>
      <trkpt lat="37.3121806048" lon="-8.2437476981">
        <ele>156.35</ele>
        <time>2021-05-28T12:19:30Z</time>
      </trkpt>
      <trkpt lat="37.3123896495" lon="-8.2439643703">
        <ele>161.64</ele>
        <time>2021-05-28T12:19:33Z</time>
      </trkpt>
      <trkpt lat="37.3126243427" lon="-8.2442294061">
        <ele>165.48</ele>
        <time>2021-05-28T12:19:36Z</time>
      </trkpt>
      <trkpt lat="37.3126917332" lon="-8.2443294022">
        <ele>166.93</ele>
        <time>2021-05-28T12:19:37Z</time>
      </trkpt>
      <trkpt lat="37.3127516638" lon="-8.2444363553">
        <ele>167.89</ele>
        <time>2021-05-28T12:19:38Z</time>
      </trkpt>
      <trkpt lat="37.3128055595" lon="-8.2445514388">
        <ele>168.37</ele>
        <time>2021-05-28T12:19:39Z</time>
      </trkpt>
      <trkpt lat="37.3128458764" lon="-8.2446686178">
        <ele>169.81</ele>
        <time>2021-05-28T12:19:40Z</time>
      </trkpt>
      <trkpt lat="37.3128638975" lon="-8.2447737269">
        <ele>171.25</ele>
        <time>2021-05-28T12:19:41Z</time>
      </trkpt>
      <trkpt lat="37.3128592037" lon="-8.2448658440">
        <ele>171.73</ele>
        <time>2021-05-28T12:19:42Z</time>
      </trkpt>
      <trkpt lat="37.3128381651" lon="-8.2449459750">
        <ele>172.69</ele>
        <time>2021-05-28T12:19:43Z</time>
      </trkpt>
      <trkpt lat="37.3128017876" lon="-8.2450162154">
        <ele>174.14</ele>
        <time>2021-05-28T12:19:44Z</time>
      </trkpt>
      <trkpt lat="37.3127508257" lon="-8.2450869586">
        <ele>175.10</ele>
        <time>2021-05-28T12:19:45Z</time>
      </trkpt>
      <trkpt lat="37.3126960918" lon="-8.2451484818">
        <ele>176.54</ele>
        <time>2021-05-28T12:19:46Z</time>
      </trkpt>
      <trkpt lat="37.3126499914" lon="-8.2452046406">
        <ele>177.02</ele>
        <time>2021-05-28T12:19:47Z</time>
      </trkpt>
      <trkpt lat="37.3126153741" lon="-8.2452652417">
        <ele>177.50</ele>
        <time>2021-05-28T12:19:48Z</time>
      </trkpt>
      <trkpt lat="37.3125883006" lon="-8.2453315426">
        <ele>177.98</ele>
        <time>2021-05-28T12:19:49Z</time>
      </trkpt>
      <trkpt lat="37.3125663400" lon="-8.2453967538">
        <ele>177.98</ele>
        <time>2021-05-28T12:19:50Z</time>
      </trkpt>
      <trkpt lat="37.3125501629" lon="-8.2454552595">
        <ele>177.98</ele>
        <time>2021-05-28T12:19:51Z</time>
      </trkpt>
      <trkpt lat="37.3124434613" lon="-8.2456928864">
        <ele>177.98</ele>
        <time>2021-05-28T12:19:55Z</time>
      </trkpt>
      <trkpt lat="37.3124022223" lon="-8.2457646355">
        <ele>177.98</ele>
        <time>2021-05-28T12:19:56Z</time>
      </trkpt>
      <trkpt lat="37.3118116334" lon="-8.2463893387">
        <ele>176.54</ele>
        <time>2021-05-28T12:20:05Z</time>
      </trkpt>
      <trkpt lat="37.3115408979" lon="-8.2466090284">
        <ele>174.14</ele>
        <time>2021-05-28T12:20:08Z</time>
      </trkpt>
      <trkpt lat="37.3109073099" lon="-8.2470327336">
        <ele>170.29</ele>
        <time>2021-05-28T12:20:14Z</time>
      </trkpt>
      <trkpt lat="37.3108049668" lon="-8.2471150439">
        <ele>170.29</ele>
        <time>2021-05-28T12:20:15Z</time>
      </trkpt>
      <trkpt lat="37.3100369330" lon="-8.2476049662">
        <ele>171.25</ele>
        <time>2021-05-28T12:20:22Z</time>
      </trkpt>
      <trkpt lat="37.3095434066" lon="-8.2479653880">
        <ele>168.85</ele>
        <time>2021-05-28T12:20:27Z</time>
      </trkpt>
      <trkpt lat="37.3082827684" lon="-8.2489232719">
        <ele>171.73</ele>
        <time>2021-05-28T12:20:40Z</time>
      </trkpt>
      <trkpt lat="37.3081945069" lon="-8.2489826996">
        <ele>172.21</ele>
        <time>2021-05-28T12:20:41Z</time>
      </trkpt>
      <trkpt lat="37.3078202549" lon="-8.2491696998">
        <ele>172.21</ele>
        <time>2021-05-28T12:20:45Z</time>
      </trkpt>
      <trkpt lat="37.3077190854" lon="-8.2491984498">
        <ele>170.77</ele>
        <time>2021-05-28T12:20:46Z</time>
      </trkpt>
      <trkpt lat="37.3074200191" lon="-8.2492484059">
        <ele>166.45</ele>
        <time>2021-05-28T12:20:49Z</time>
      </trkpt>
      <trkpt lat="37.3073268123" lon="-8.2492685225">
        <ele>165.96</ele>
        <time>2021-05-28T12:20:50Z</time>
      </trkpt>
      <trkpt lat="37.3072433285" lon="-8.2492968533">
        <ele>165.00</ele>
        <time>2021-05-28T12:20:51Z</time>
      </trkpt>
      <trkpt lat="37.3071681429" lon="-8.2493339851">
        <ele>164.52</ele>
        <time>2021-05-28T12:20:52Z</time>
      </trkpt>
      <trkpt lat="37.3070971482" lon="-8.2493779901">
        <ele>164.04</ele>
        <time>2021-05-28T12:20:53Z</time>
      </trkpt>
      <trkpt lat="37.3070277460" lon="-8.2494328916">
        <ele>163.56</ele>
        <time>2021-05-28T12:20:54Z</time>
      </trkpt>
      <trkpt lat="37.3069643788" lon="-8.2494944986">
        <ele>163.08</ele>
        <time>2021-05-28T12:20:55Z</time>
      </trkpt>
      <trkpt lat="37.3069059569" lon="-8.2495624758">
        <ele>162.60</ele>
        <time>2021-05-28T12:20:56Z</time>
      </trkpt>
      <trkpt lat="37.3067916278" lon="-8.2496861089">
        <ele>160.20</ele>
        <time>2021-05-28T12:20:58Z</time>
      </trkpt>
      <trkpt lat="37.3067517299" lon="-8.2497557625">
        <ele>159.72</ele>
        <time>2021-05-28T12:20:59Z</time>
      </trkpt>
      <trkpt lat="37.3067306075" lon="-8.2498343010">
        <ele>158.75</ele>
        <time>2021-05-28T12:21:00Z</time>
      </trkpt>
      <trkpt lat="37.3067242373" lon="-8.2499174494">
        <ele>158.27</ele>
        <time>2021-05-28T12:21:01Z</time>
      </trkpt>
      <trkpt lat="37.3067228962" lon="-8.2500031963">
        <ele>158.27</ele>
        <time>2021-05-28T12:21:02Z</time>
      </trkpt>
      <trkpt lat="37.3067170288" lon="-8.2500886079">
        <ele>157.31</ele>
        <time>2021-05-28T12:21:03Z</time>
      </trkpt>
      <trkpt lat="37.3067050427" lon="-8.2501731813">
        <ele>156.83</ele>
        <time>2021-05-28T12:21:04Z</time>
      </trkpt>
      <trkpt lat="37.3066898715" lon="-8.2502698246">
        <ele>156.35</ele>
        <time>2021-05-28T12:21:05Z</time>
      </trkpt>
      <trkpt lat="37.3066587746" lon="-8.2505747583">
        <ele>153.95</ele>
        <time>2021-05-28T12:21:08Z</time>
      </trkpt>
      <trkpt lat="37.3066596128" lon="-8.2506759278">
        <ele>153.47</ele>
        <time>2021-05-28T12:21:09Z</time>
      </trkpt>
      <trkpt lat="37.3066745326" lon="-8.2507767621">
        <ele>152.03</ele>
        <time>2021-05-28T12:21:10Z</time>
      </trkpt>
      <trkpt lat="37.3067003489" lon="-8.2508746628">
        <ele>150.10</ele>
        <time>2021-05-28T12:21:11Z</time>
      </trkpt>
      <trkpt lat="37.3067335412" lon="-8.2509675343">
        <ele>149.62</ele>
        <time>2021-05-28T12:21:12Z</time>
      </trkpt>
      <trkpt lat="37.3067715112" lon="-8.2510571368">
        <ele>148.66</ele>
        <time>2021-05-28T12:21:13Z</time>
      </trkpt>
      <trkpt lat="37.3068140075" lon="-8.2511391956">
        <ele>147.70</ele>
        <time>2021-05-28T12:21:14Z</time>
      </trkpt>
      <trkpt lat="37.3068615329" lon="-8.2512155548">
        <ele>146.26</ele>
        <time>2021-05-28T12:21:15Z</time>
      </trkpt>
      <trkpt lat="37.3069150932" lon="-8.2512822747">
        <ele>145.30</ele>
        <time>2021-05-28T12:21:16Z</time>
      </trkpt>
      <trkpt lat="37.3069779575" lon="-8.2513280399">
        <ele>143.85</ele>
        <time>2021-05-28T12:21:17Z</time>
      </trkpt>
      <trkpt lat="37.3070420790" lon="-8.2513467316">
        <ele>142.41</ele>
        <time>2021-05-28T12:21:18Z</time>
      </trkpt>
      <trkpt lat="37.3071041051" lon="-8.2513357513">
        <ele>141.93</ele>
        <time>2021-05-28T12:21:19Z</time>
      </trkpt>
      <trkpt lat="37.3071688134" lon="-8.2512941770">
        <ele>141.93</ele>
        <time>2021-05-28T12:21:20Z</time>
      </trkpt>
      <trkpt lat="37.3072315101" lon="-8.2512650918">
        <ele>140.49</ele>
        <time>2021-05-28T12:21:21Z</time>
      </trkpt>
      <trkpt lat="37.3073007446" lon="-8.2512636669">
        <ele>140.01</ele>
        <time>2021-05-28T12:21:22Z</time>
      </trkpt>
      <trkpt lat="37.3073713202" lon="-8.2512852922">
        <ele>139.53</ele>
        <time>2021-05-28T12:21:23Z</time>
      </trkpt>
      <trkpt lat="37.3074406385" lon="-8.2513298839">
        <ele>138.09</ele>
        <time>2021-05-28T12:21:24Z</time>
      </trkpt>
      <trkpt lat="37.3075064365" lon="-8.2513915747">
        <ele>137.13</ele>
        <time>2021-05-28T12:21:25Z</time>
      </trkpt>
      <trkpt lat="37.3075625952" lon="-8.2514696941">
        <ele>136.16</ele>
        <time>2021-05-28T12:21:26Z</time>
      </trkpt>
      <trkpt lat="37.3076111265" lon="-8.2515655831">
        <ele>136.16</ele>
        <time>2021-05-28T12:21:27Z</time>
      </trkpt>
      <trkpt lat="37.3076537903" lon="-8.2516685966">
        <ele>136.16</ele>
        <time>2021-05-28T12:21:28Z</time>
      </trkpt>
      <trkpt lat="37.3076918442" lon="-8.2517613843">
        <ele>135.68</ele>
        <time>2021-05-28T12:21:29Z</time>
      </trkpt>
      <trkpt lat="37.3077333346" lon="-8.2518397551">
        <ele>135.68</ele>
        <time>2021-05-28T12:21:30Z</time>
      </trkpt>
      <trkpt lat="37.3077849671" lon="-8.2519058045">
        <ele>136.16</ele>
        <time>2021-05-28T12:21:31Z</time>
      </trkpt>
      <trkpt lat="37.3078491725" lon="-8.2519634720">
        <ele>135.68</ele>
        <time>2021-05-28T12:21:32Z</time>
      </trkpt>
      <trkpt lat="37.3079209216" lon="-8.2520186249">
        <ele>136.16</ele>
        <time>2021-05-28T12:21:33Z</time>
      </trkpt>
      <trkpt lat="37.3086224869" lon="-8.2526725810">
        <ele>136.16</ele>
        <time>2021-05-28T12:21:44Z</time>
      </trkpt>
      <trkpt lat="37.3088539951" lon="-8.2529398799">
        <ele>134.72</ele>
        <time>2021-05-28T12:21:48Z</time>
      </trkpt>
      <trkpt lat="37.3088865168" lon="-8.2530090306">
        <ele>135.20</ele>
        <time>2021-05-28T12:21:49Z</time>
      </trkpt>
      <trkpt lat="37.3089030292" lon="-8.2530877367">
        <ele>135.20</ele>
        <time>2021-05-28T12:21:50Z</time>
      </trkpt>
      <trkpt lat="37.3089012690" lon="-8.2531741541">
        <ele>135.68</ele>
        <time>2021-05-28T12:21:51Z</time>
      </trkpt>
      <trkpt lat="37.3088876903" lon="-8.2532645110">
        <ele>136.16</ele>
        <time>2021-05-28T12:21:52Z</time>
      </trkpt>
      <trkpt lat="37.3088645563" lon="-8.2533564605">
        <ele>136.16</ele>
        <time>2021-05-28T12:21:53Z</time>
      </trkpt>
      <trkpt lat="37.3088340461" lon="-8.2534538582">
        <ele>136.64</ele>
        <time>2021-05-28T12:21:54Z</time>
      </trkpt>
      <trkpt lat="37.3087577708" lon="-8.2536696084">
        <ele>138.09</ele>
        <time>2021-05-28T12:21:56Z</time>
      </trkpt>
      <trkpt lat="37.3082750570" lon="-8.2548225392">
        <ele>140.49</ele>
        <time>2021-05-28T12:22:07Z</time>
      </trkpt>
      <trkpt lat="37.3081059940" lon="-8.2553699613">
        <ele>137.61</ele>
        <time>2021-05-28T12:22:15Z</time>
      </trkpt>
      <trkpt lat="37.3080713768" lon="-8.2555347495">
        <ele>137.13</ele>
        <time>2021-05-28T12:22:19Z</time>
      </trkpt>
      <trkpt lat="37.3080653418" lon="-8.2555953506">
        <ele>137.61</ele>
        <time>2021-05-28T12:22:20Z</time>
      </trkpt>
      <trkpt lat="37.3080370948" lon="-8.2559308782">
        <ele>135.20</ele>
        <time>2021-05-28T12:22:25Z</time>
      </trkpt>
      <trkpt lat="37.3080120329" lon="-8.2560034655">
        <ele>134.72</ele>
        <time>2021-05-28T12:22:26Z</time>
      </trkpt>
      <trkpt lat="37.3079787567" lon="-8.2560652401">
        <ele>134.72</ele>
        <time>2021-05-28T12:22:27Z</time>
      </trkpt>
      <trkpt lat="37.3079419602" lon="-8.2561065629">
        <ele>134.24</ele>
        <time>2021-05-28T12:22:28Z</time>
      </trkpt>
      <trkpt lat="37.3079081811" lon="-8.2561375760">
        <ele>134.24</ele>
        <time>2021-05-28T12:22:29Z</time>
      </trkpt>
      <trkpt lat="37.3076653574" lon="-8.2562995143">
        <ele>135.20</ele>
        <time>2021-05-28T12:22:39Z</time>
      </trkpt>
      <trkpt lat="37.3072113097" lon="-8.2567237224">
        <ele>138.57</ele>
        <time>2021-05-28T12:22:46Z</time>
      </trkpt>
      <trkpt lat="37.3069350421" lon="-8.2570175920">
        <ele>140.97</ele>
        <time>2021-05-28T12:22:50Z</time>
      </trkpt>
      <trkpt lat="37.3068877682" lon="-8.2571117207">
        <ele>140.97</ele>
        <time>2021-05-28T12:22:51Z</time>
      </trkpt>
      <trkpt lat="37.3068496305" lon="-8.2572282292">
        <ele>140.97</ele>
        <time>2021-05-28T12:22:52Z</time>
      </trkpt>
      <trkpt lat="37.3066114169" lon="-8.2582822535">
        <ele>142.89</ele>
        <time>2021-05-28T12:23:00Z</time>
      </trkpt>
      <trkpt lat="37.3066042084" lon="-8.2584143523">
        <ele>142.89</ele>
        <time>2021-05-28T12:23:01Z</time>
      </trkpt>
      <trkpt lat="37.3066055495" lon="-8.2585508935">
        <ele>143.37</ele>
        <time>2021-05-28T12:23:02Z</time>
      </trkpt>
      <trkpt lat="37.3066350538" lon="-8.2596347574">
        <ele>142.41</ele>
        <time>2021-05-28T12:23:11Z</time>
      </trkpt>
      <trkpt lat="37.3066011909" lon="-8.2598971110">
        <ele>142.41</ele>
        <time>2021-05-28T12:23:14Z</time>
      </trkpt>
      <trkpt lat="37.3065294418" lon="-8.2601397671">
        <ele>141.93</ele>
        <time>2021-05-28T12:23:22Z</time>
      </trkpt>
      <trkpt lat="37.3064306192" lon="-8.2602997776">
        <ele>141.93</ele>
        <time>2021-05-28T12:23:26Z</time>
      </trkpt>
      <trkpt lat="37.3062226642" lon="-8.2607142627">
        <ele>139.05</ele>
        <time>2021-05-28T12:23:37Z</time>
      </trkpt>
      <trkpt lat="37.3061473109" lon="-8.2609756943">
        <ele>136.16</ele>
        <time>2021-05-28T12:23:43Z</time>
      </trkpt>
      <trkpt lat="37.3062430322" lon="-8.2613260578">
        <ele>133.76</ele>
        <time>2021-05-28T12:23:51Z</time>
      </trkpt>
      <trkpt lat="37.3062848579" lon="-8.2613573223">
        <ele>133.76</ele>
        <time>2021-05-28T12:23:52Z</time>
      </trkpt>
      <trkpt lat="37.3063333891" lon="-8.2613793667">
        <ele>132.80</ele>
        <time>2021-05-28T12:23:53Z</time>
      </trkpt>
      <trkpt lat="37.3063889612" lon="-8.2613882516">
        <ele>132.80</ele>
        <time>2021-05-28T12:23:54Z</time>
      </trkpt>
      <trkpt lat="37.3064440303" lon="-8.2613842282">
        <ele>132.32</ele>
        <time>2021-05-28T12:23:55Z</time>
      </trkpt>
      <trkpt lat="37.3065000214" lon="-8.2613653690">
        <ele>132.32</ele>
        <time>2021-05-28T12:23:56Z</time>
      </trkpt>
      <trkpt lat="37.3065536655" lon="-8.2613397203">
        <ele>131.84</ele>
        <time>2021-05-28T12:23:57Z</time>
      </trkpt>
      <trkpt lat="37.3066012748" lon="-8.2613118924">
        <ele>131.36</ele>
        <time>2021-05-28T12:23:58Z</time>
      </trkpt>
      <trkpt lat="37.3066447768" lon="-8.2612783648">
        <ele>130.88</ele>
        <time>2021-05-28T12:23:59Z</time>
      </trkpt>
      <trkpt lat="37.3066852614" lon="-8.2612460945">
        <ele>130.88</ele>
        <time>2021-05-28T12:24:00Z</time>
      </trkpt>
      <trkpt lat="37.3067739420" lon="-8.2611795422">
        <ele>130.40</ele>
        <time>2021-05-28T12:24:02Z</time>
      </trkpt>
      <trkpt lat="37.3068249039" lon="-8.2611535583">
        <ele>130.40</ele>
        <time>2021-05-28T12:24:03Z</time>
      </trkpt>
      <trkpt lat="37.3071409855" lon="-8.2609700784">
        <ele>128.95</ele>
        <time>2021-05-28T12:24:09Z</time>
      </trkpt>
      <trkpt lat="37.3071752675" lon="-8.2609316055">
        <ele>129.43</ele>
        <time>2021-05-28T12:24:10Z</time>
      </trkpt>
      <trkpt lat="37.3072029278" lon="-8.2608788833">
        <ele>128.95</ele>
        <time>2021-05-28T12:24:11Z</time>
      </trkpt>
      <trkpt lat="37.3072251398" lon="-8.2608079724">
        <ele>128.95</ele>
        <time>2021-05-28T12:24:12Z</time>
      </trkpt>
      <trkpt lat="37.3072451726" lon="-8.2607275899">
        <ele>128.95</ele>
        <time>2021-05-28T12:24:13Z</time>
      </trkpt>
      <trkpt lat="37.3072697315" lon="-8.2606544998">
        <ele>129.43</ele>
        <time>2021-05-28T12:24:14Z</time>
      </trkpt>
      <trkpt lat="37.3073154967" lon="-8.2605435234">
        <ele>128.47</ele>
        <time>2021-05-28T12:24:16Z</time>
      </trkpt>
      <trkpt lat="37.3073334340" lon="-8.2605012786">
        <ele>127.99</ele>
        <time>2021-05-28T12:24:17Z</time>
      </trkpt>
      <trkpt lat="37.3073437437" lon="-8.2604701817">
        <ele>127.51</ele>
        <time>2021-05-28T12:24:18Z</time>
      </trkpt>
      <trkpt lat="37.3073574901" lon="-8.2604457904">
        <ele>127.03</ele>
        <time>2021-05-28T12:24:19Z</time>
      </trkpt>
      <trkpt lat="37.3073754273" lon="-8.2604260091">
        <ele>126.55</ele>
        <time>2021-05-28T12:24:20Z</time>
      </trkpt>
      <trkpt lat="37.3073963821" lon="-8.2604156155">
        <ele>127.03</ele>
        <time>2021-05-28T12:24:21Z</time>
      </trkpt>
      <trkpt lat="37.3074164987" lon="-8.2604099996">
        <ele>126.07</ele>
        <time>2021-05-28T12:24:22Z</time>
      </trkpt>
      <trkpt lat="37.3074319214" lon="-8.2604069822">
        <ele>126.07</ele>
        <time>2021-05-28T12:24:23Z</time>
      </trkpt>
      <trkpt lat="37.3075134773" lon="-8.2604194712">
        <ele>125.11</ele>
        <time>2021-05-28T12:24:38Z</time>
      </trkpt>
      <trkpt lat="37.3075322527" lon="-8.2604441140">
        <ele>125.59</ele>
        <time>2021-05-28T12:24:41Z</time>
      </trkpt>
      <trkpt lat="37.3075467534" lon="-8.2604803238">
        <ele>125.59</ele>
        <time>2021-05-28T12:24:42Z</time>
      </trkpt>
      <trkpt lat="37.3075543810" lon="-8.2605307829">
        <ele>126.55</ele>
        <time>2021-05-28T12:24:43Z</time>
      </trkpt>
      <trkpt lat="37.3075502738" lon="-8.2605930604">
        <ele>126.55</ele>
        <time>2021-05-28T12:24:44Z</time>
      </trkpt>
      <trkpt lat="37.3075414728" lon="-8.2606576849">
        <ele>127.03</ele>
        <time>2021-05-28T12:24:45Z</time>
      </trkpt>
      <trkpt lat="37.3075314984" lon="-8.2607177831">
        <ele>127.51</ele>
        <time>2021-05-28T12:24:46Z</time>
      </trkpt>
      <trkpt lat="37.3075172491" lon="-8.2607733551">
        <ele>127.51</ele>
        <time>2021-05-28T12:24:47Z</time>
      </trkpt>
      <trkpt lat="37.3073816299" lon="-8.2612515427">
        <ele>127.03</ele>
        <time>2021-05-28T12:24:56Z</time>
      </trkpt>
      <trkpt lat="37.3073643632" lon="-8.2613191847">
        <ele>126.07</ele>
        <time>2021-05-28T12:25:08Z</time>
      </trkpt>
      <trkpt lat="37.3073512875" lon="-8.2613249682">
        <ele>126.55</ele>
        <time>2021-05-28T12:25:45Z</time>
      </trkpt>
      <trkpt lat="37.3073546402" lon="-8.2613205258">
        <ele>125.11</ele>
        <time>2021-05-28T12:26:44Z</time>
      </trkpt>
      <trkpt lat="37.3073577415" lon="-8.2613286562">
        <ele>124.63</ele>
        <time>2021-05-28T12:26:56Z</time>
      </trkpt>
      <trkpt lat="37.3073427379" lon="-8.2613301650">
        <ele>126.07</ele>
        <time>2021-05-28T12:29:35Z</time>
      </trkpt>
      <trkpt lat="37.3073568195" lon="-8.2613133173">
        <ele>126.07</ele>
        <time>2021-05-28T12:29:36Z</time>
      </trkpt>
      <trkpt lat="37.3073872458" lon="-8.2612812147">
        <ele>124.15</ele>
        <time>2021-05-28T12:29:43Z</time>
      </trkpt>
      <trkpt lat="37.3073891737" lon="-8.2613130659">
        <ele>119.82</ele>
        <time>2021-05-28T12:29:55Z</time>
      </trkpt>
      <trkpt lat="37.3073852342" lon="-8.2613126468">
        <ele>118.38</ele>
        <time>2021-05-28T12:30:09Z</time>
      </trkpt>
      <trkpt lat="37.3074690532" lon="-8.2613825519">
        <ele>120.30</ele>
        <time>2021-05-28T12:30:17Z</time>
      </trkpt>
      <trkpt lat="37.3076030798" lon="-8.2614020817">
        <ele>119.82</ele>
        <time>2021-05-28T12:30:31Z</time>
      </trkpt>
      <trkpt lat="37.3078225181" lon="-8.2614377048">
        <ele>118.38</ele>
        <time>2021-05-28T12:30:40Z</time>
      </trkpt>
      <trkpt lat="37.3080509249" lon="-8.2614015788">
        <ele>119.82</ele>
        <time>2021-05-28T12:30:50Z</time>
      </trkpt>
      <trkpt lat="37.3080642521" lon="-8.2613854017">
        <ele>119.34</ele>
        <time>2021-05-28T12:30:59Z</time>
      </trkpt>
      <trkpt lat="37.3082633223" lon="-8.2614121400">
        <ele>119.82</ele>
        <time>2021-05-28T12:31:07Z</time>
      </trkpt>
      <trkpt lat="37.3083295394" lon="-8.2614337653">
        <ele>119.34</ele>
        <time>2021-05-28T12:31:11Z</time>
      </trkpt>
      <trkpt lat="37.3084165435" lon="-8.2615893334">
        <ele>116.94</ele>
        <time>2021-05-28T12:31:19Z</time>
      </trkpt>
      <trkpt lat="37.3084400967" lon="-8.2616166584">
        <ele>116.94</ele>
        <time>2021-05-28T12:31:33Z</time>
      </trkpt>
      <trkpt lat="37.3084645718" lon="-8.2615782693">
        <ele>116.94</ele>
        <time>2021-05-28T12:32:00Z</time>
      </trkpt>
      <trkpt lat="37.3084815871" lon="-8.2616078574">
        <ele>116.46</ele>
        <time>2021-05-28T12:32:24Z</time>
      </trkpt>
      <trkpt lat="37.3084746301" lon="-8.2616407983">
        <ele>116.94</ele>
        <time>2021-05-28T12:32:40Z</time>
      </trkpt>
      <trkpt lat="37.3084553517" lon="-8.2616304886">
        <ele>116.46</ele>
        <time>2021-05-28T12:33:05Z</time>
      </trkpt>
      <trkpt lat="37.3084602132" lon="-8.2616551314">
        <ele>115.98</ele>
        <time>2021-05-28T12:34:05Z</time>
      </trkpt>
      <trkpt lat="37.3084365763" lon="-8.2616374455">
        <ele>116.46</ele>
        <time>2021-05-28T12:34:27Z</time>
      </trkpt>
      <trkpt lat="37.3083665036" lon="-8.2616967894">
        <ele>115.98</ele>
        <time>2021-05-28T12:35:19Z</time>
      </trkpt>
      <trkpt lat="37.3083973490" lon="-8.2616528682">
        <ele>115.98</ele>
        <time>2021-05-28T12:35:35Z</time>
      </trkpt>
      <trkpt lat="37.3084018752" lon="-8.2616169937">
        <ele>116.46</ele>
        <time>2021-05-28T12:35:50Z</time>
      </trkpt>
      <trkpt lat="37.3084071558" lon="-8.2615803648">
        <ele>116.46</ele>
        <time>2021-05-28T12:36:01Z</time>
      </trkpt>
      <trkpt lat="37.3084147833" lon="-8.2616062649">
        <ele>116.46</ele>
        <time>2021-05-28T12:36:23Z</time>
      </trkpt>
      <trkpt lat="37.3083925713" lon="-8.2615911774">
        <ele>116.46</ele>
        <time>2021-05-28T12:36:48Z</time>
      </trkpt>
      <trkpt lat="37.3083833512" lon="-8.2614456676">
        <ele>117.90</ele>
        <time>2021-05-28T12:36:58Z</time>
      </trkpt>
      <trkpt lat="37.3083763104" lon="-8.2614397164">
        <ele>118.38</ele>
        <time>2021-05-28T12:37:03Z</time>
      </trkpt>
      <trkpt lat="37.3081972729" lon="-8.2614159118">
        <ele>119.34</ele>
        <time>2021-05-28T12:37:13Z</time>
      </trkpt>
      <trkpt lat="37.3081208300" lon="-8.2614009921">
        <ele>118.86</ele>
        <time>2021-05-28T12:37:23Z</time>
      </trkpt>
      <trkpt lat="37.3081183992" lon="-8.2613776904">
        <ele>118.38</ele>
        <time>2021-05-28T12:38:12Z</time>
      </trkpt>
      <trkpt lat="37.3081343248" lon="-8.2613978069">
        <ele>117.90</ele>
        <time>2021-05-28T12:39:01Z</time>
      </trkpt>
      <trkpt lat="37.3081267811" lon="-8.2613926940">
        <ele>118.38</ele>
        <time>2021-05-28T12:39:26Z</time>
      </trkpt>
      <trkpt lat="37.3079298902" lon="-8.2614045125">
        <ele>118.86</ele>
        <time>2021-05-28T12:45:12Z</time>
      </trkpt>
      <trkpt lat="37.3077960312" lon="-8.2614410575">
        <ele>118.86</ele>
        <time>2021-05-28T12:45:23Z</time>
      </trkpt>
      <trkpt lat="37.3077706341" lon="-8.2614478469">
        <ele>122.71</ele>
        <time>2021-05-28T12:45:34Z</time>
      </trkpt>
      <trkpt lat="37.3074957915" lon="-8.2614043448">
        <ele>125.59</ele>
        <time>2021-05-28T12:45:42Z</time>
      </trkpt>
      <trkpt lat="37.3073953763" lon="-8.2613460906">
        <ele>124.15</ele>
        <time>2021-05-28T12:45:46Z</time>
      </trkpt>
      <trkpt lat="37.3073886707" lon="-8.2613185979">
        <ele>124.15</ele>
        <time>2021-05-28T12:45:47Z</time>
      </trkpt>
      <trkpt lat="37.3073871620" lon="-8.2612907700">
        <ele>124.15</ele>
        <time>2021-05-28T12:45:48Z</time>
      </trkpt>
      <trkpt lat="37.3073944543" lon="-8.2612630259">
        <ele>123.67</ele>
        <time>2021-05-28T12:45:49Z</time>
      </trkpt>
      <trkpt lat="37.3074667063" lon="-8.2609700784">
        <ele>124.63</ele>
        <time>2021-05-28T12:45:57Z</time>
      </trkpt>
      <trkpt lat="37.3074800335" lon="-8.2609126624">
        <ele>124.63</ele>
        <time>2021-05-28T12:46:07Z</time>
      </trkpt>
      <trkpt lat="37.3075345997" lon="-8.2607913762">
        <ele>124.63</ele>
        <time>2021-05-28T12:46:18Z</time>
      </trkpt>
      <trkpt lat="37.3075558897" lon="-8.2606765442">
        <ele>125.11</ele>
        <time>2021-05-28T12:46:28Z</time>
      </trkpt>
      <trkpt lat="37.3075619247" lon="-8.2606190443">
        <ele>124.63</ele>
        <time>2021-05-28T12:46:29Z</time>
      </trkpt>
      <trkpt lat="37.3075634334" lon="-8.2605721056">
        <ele>124.15</ele>
        <time>2021-05-28T12:46:30Z</time>
      </trkpt>
      <trkpt lat="37.3075589910" lon="-8.2605291903">
        <ele>123.67</ele>
        <time>2021-05-28T12:46:31Z</time>
      </trkpt>
      <trkpt lat="37.3075510282" lon="-8.2604968362">
        <ele>123.67</ele>
        <time>2021-05-28T12:46:32Z</time>
      </trkpt>
      <trkpt lat="37.3075402994" lon="-8.2604703493">
        <ele>123.67</ele>
        <time>2021-05-28T12:46:33Z</time>
      </trkpt>
      <trkpt lat="37.3074930254" lon="-8.2604166213">
        <ele>123.67</ele>
        <time>2021-05-28T12:46:36Z</time>
      </trkpt>
      <trkpt lat="37.3074661195" lon="-8.2604135200">
        <ele>123.67</ele>
        <time>2021-05-28T12:46:37Z</time>
      </trkpt>
      <trkpt lat="37.3074349388" lon="-8.2604281045">
        <ele>123.67</ele>
        <time>2021-05-28T12:46:38Z</time>
      </trkpt>
      <trkpt lat="37.3073952924" lon="-8.2604614645">
        <ele>124.63</ele>
        <time>2021-05-28T12:46:39Z</time>
      </trkpt>
      <trkpt lat="37.3073553946" lon="-8.2605154440">
        <ele>125.11</ele>
        <time>2021-05-28T12:46:40Z</time>
      </trkpt>
      <trkpt lat="37.3073149100" lon="-8.2605877798">
        <ele>126.07</ele>
        <time>2021-05-28T12:46:41Z</time>
      </trkpt>
      <trkpt lat="37.3072776943" lon="-8.2606721856">
        <ele>127.03</ele>
        <time>2021-05-28T12:46:42Z</time>
      </trkpt>
      <trkpt lat="37.3072478548" lon="-8.2607610337">
        <ele>127.51</ele>
        <time>2021-05-28T12:46:43Z</time>
      </trkpt>
      <trkpt lat="37.3072232958" lon="-8.2608426735">
        <ele>127.03</ele>
        <time>2021-05-28T12:46:44Z</time>
      </trkpt>
      <trkpt lat="37.3071979824" lon="-8.2609137520">
        <ele>127.03</ele>
        <time>2021-05-28T12:46:45Z</time>
      </trkpt>
      <trkpt lat="37.3071669694" lon="-8.2609748561">
        <ele>127.51</ele>
        <time>2021-05-28T12:46:46Z</time>
      </trkpt>
      <trkpt lat="37.3071254790" lon="-8.2610192802">
        <ele>127.51</ele>
        <time>2021-05-28T12:46:47Z</time>
      </trkpt>
      <trkpt lat="37.3070766125" lon="-8.2610537298">
        <ele>127.03</ele>
        <time>2021-05-28T12:46:48Z</time>
      </trkpt>
      <trkpt lat="37.3070302606" lon="-8.2610808872">
        <ele>127.51</ele>
        <time>2021-05-28T12:46:49Z</time>
      </trkpt>
      <trkpt lat="37.3069804721" lon="-8.2611064520">
        <ele>127.99</ele>
        <time>2021-05-28T12:46:50Z</time>
      </trkpt>
      <trkpt lat="37.3067344632" lon="-8.2612232957">
        <ele>128.47</ele>
        <time>2021-05-28T12:46:54Z</time>
      </trkpt>
      <trkpt lat="37.3066762928" lon="-8.2612633612">
        <ele>128.47</ele>
        <time>2021-05-28T12:46:55Z</time>
      </trkpt>
      <trkpt lat="37.3065675795" lon="-8.2613431569">
        <ele>129.43</ele>
        <time>2021-05-28T12:46:57Z</time>
      </trkpt>
      <trkpt lat="37.3065162823" lon="-8.2613646984">
        <ele>129.43</ele>
        <time>2021-05-28T12:46:58Z</time>
      </trkpt>
      <trkpt lat="37.3064625543" lon="-8.2613778580">
        <ele>129.43</ele>
        <time>2021-05-28T12:46:59Z</time>
      </trkpt>
      <trkpt lat="37.3064040486" lon="-8.2613781933">
        <ele>130.40</ele>
        <time>2021-05-28T12:47:00Z</time>
      </trkpt>
      <trkpt lat="37.3063443694" lon="-8.2613647822">
        <ele>130.88</ele>
        <time>2021-05-28T12:47:01Z</time>
      </trkpt>
      <trkpt lat="37.3062872887" lon="-8.2613325957">
        <ele>130.88</ele>
        <time>2021-05-28T12:47:02Z</time>
      </trkpt>
      <trkpt lat="37.3062346503" lon="-8.2612803765">
        <ele>131.36</ele>
        <time>2021-05-28T12:47:03Z</time>
      </trkpt>
      <trkpt lat="37.3061949201" lon="-8.2612140756">
        <ele>131.36</ele>
        <time>2021-05-28T12:47:04Z</time>
      </trkpt>
      <trkpt lat="37.3061710317" lon="-8.2611388899">
        <ele>131.84</ele>
        <time>2021-05-28T12:47:05Z</time>
      </trkpt>
      <trkpt lat="37.3061649129" lon="-8.2610597648">
        <ele>132.32</ele>
        <time>2021-05-28T12:47:06Z</time>
      </trkpt>
      <trkpt lat="37.3061691877" lon="-8.2609789632">
        <ele>133.28</ele>
        <time>2021-05-28T12:47:07Z</time>
      </trkpt>
      <trkpt lat="37.3061766475" lon="-8.2609084714">
        <ele>134.24</ele>
        <time>2021-05-28T12:47:08Z</time>
      </trkpt>
      <trkpt lat="37.3061926570" lon="-8.2608502172">
        <ele>134.24</ele>
        <time>2021-05-28T12:47:09Z</time>
      </trkpt>
      <trkpt lat="37.3062379193" lon="-8.2607287634">
        <ele>136.16</ele>
        <time>2021-05-28T12:47:11Z</time>
      </trkpt>
      <trkpt lat="37.3062743805" lon="-8.2606627140">
        <ele>137.13</ele>
        <time>2021-05-28T12:47:12Z</time>
      </trkpt>
      <trkpt lat="37.3063131049" lon="-8.2606042083">
        <ele>137.13</ele>
        <time>2021-05-28T12:47:13Z</time>
      </trkpt>
      <trkpt lat="37.3065106664" lon="-8.2602265198">
        <ele>139.53</ele>
        <time>2021-05-28T12:47:20Z</time>
      </trkpt>
      <trkpt lat="37.3065367341" lon="-8.2601710316">
        <ele>139.05</ele>
        <time>2021-05-28T12:47:21Z</time>
      </trkpt>
      <trkpt lat="37.3065535817" lon="-8.2601224165">
        <ele>140.01</ele>
        <time>2021-05-28T12:47:22Z</time>
      </trkpt>
      <trkpt lat="37.3065614607" lon="-8.2600784115">
        <ele>140.01</ele>
        <time>2021-05-28T12:47:23Z</time>
      </trkpt>
      <trkpt lat="37.3065626342" lon="-8.2600453030">
        <ele>140.01</ele>
        <time>2021-05-28T12:47:24Z</time>
      </trkpt>
      <trkpt lat="37.3065590300" lon="-8.2600257732">
        <ele>139.53</ele>
        <time>2021-05-28T12:47:34Z</time>
      </trkpt>
      <trkpt lat="37.3065694235" lon="-8.2600049023">
        <ele>139.53</ele>
        <time>2021-05-28T12:47:45Z</time>
      </trkpt>
      <trkpt lat="37.3065767996" lon="-8.2599871326">
        <ele>139.05</ele>
        <time>2021-05-28T12:47:46Z</time>
      </trkpt>
      <trkpt lat="37.3066163622" lon="-8.2598657627">
        <ele>139.05</ele>
        <time>2021-05-28T12:47:56Z</time>
      </trkpt>
      <trkpt lat="37.3066268396" lon="-8.2598285470">
        <ele>139.05</ele>
        <time>2021-05-28T12:47:57Z</time>
      </trkpt>
      <trkpt lat="37.3066412564" lon="-8.2597624976">
        <ele>139.53</ele>
        <time>2021-05-28T12:47:58Z</time>
      </trkpt>
      <trkpt lat="37.3066534102" lon="-8.2596738171">
        <ele>139.53</ele>
        <time>2021-05-28T12:47:59Z</time>
      </trkpt>
      <trkpt lat="37.3066468723" lon="-8.2587718405">
        <ele>138.57</ele>
        <time>2021-05-28T12:48:10Z</time>
      </trkpt>
      <trkpt lat="37.3067242373" lon="-8.2577976119">
        <ele>139.05</ele>
        <time>2021-05-28T12:48:20Z</time>
      </trkpt>
      <trkpt lat="37.3069342878" lon="-8.2570311707">
        <ele>138.57</ele>
        <time>2021-05-28T12:48:27Z</time>
      </trkpt>
      <trkpt lat="37.3069838248" lon="-8.2569532190">
        <ele>138.09</ele>
        <time>2021-05-28T12:48:28Z</time>
      </trkpt>
      <trkpt lat="37.3070446774" lon="-8.2568909414">
        <ele>138.57</ele>
        <time>2021-05-28T12:48:29Z</time>
      </trkpt>
      <trkpt lat="37.3071099725" lon="-8.2568398956">
        <ele>138.09</ele>
        <time>2021-05-28T12:48:30Z</time>
      </trkpt>
      <trkpt lat="37.3071735911" lon="-8.2567910291">
        <ele>138.09</ele>
        <time>2021-05-28T12:48:31Z</time>
      </trkpt>
      <trkpt lat="37.3072317615" lon="-8.2567380555">
        <ele>137.13</ele>
        <time>2021-05-28T12:48:32Z</time>
      </trkpt>
      <trkpt lat="37.3072868306" lon="-8.2566814777">
        <ele>137.13</ele>
        <time>2021-05-28T12:48:33Z</time>
      </trkpt>
      <trkpt lat="37.3073457554" lon="-8.2566201221">
        <ele>135.68</ele>
        <time>2021-05-28T12:48:34Z</time>
      </trkpt>
      <trkpt lat="37.3080203310" lon="-8.2560276892">
        <ele>132.80</ele>
        <time>2021-05-28T12:48:43Z</time>
      </trkpt>
      <trkpt lat="37.3080732208" lon="-8.2559396792">
        <ele>133.28</ele>
        <time>2021-05-28T12:48:44Z</time>
      </trkpt>
      <trkpt lat="37.3081102688" lon="-8.2558390964">
        <ele>132.80</ele>
        <time>2021-05-28T12:48:45Z</time>
      </trkpt>
      <trkpt lat="37.3081318941" lon="-8.2557401899">
        <ele>133.28</ele>
        <time>2021-05-28T12:48:46Z</time>
      </trkpt>
      <trkpt lat="37.3081383482" lon="-8.2556554489">
        <ele>133.76</ele>
        <time>2021-05-28T12:48:47Z</time>
      </trkpt>
      <trkpt lat="37.3081338219" lon="-8.2555800118">
        <ele>133.76</ele>
        <time>2021-05-28T12:48:48Z</time>
      </trkpt>
      <trkpt lat="37.3081290442" lon="-8.2555128727">
        <ele>133.76</ele>
        <time>2021-05-28T12:48:49Z</time>
      </trkpt>
      <trkpt lat="37.3081341572" lon="-8.2554630842">
        <ele>134.72</ele>
        <time>2021-05-28T12:48:50Z</time>
      </trkpt>
      <trkpt lat="37.3081537709" lon="-8.2554271258">
        <ele>134.24</ele>
        <time>2021-05-28T12:48:51Z</time>
      </trkpt>
      <trkpt lat="37.3081827722" lon="-8.2554086857">
        <ele>134.24</ele>
        <time>2021-05-28T12:48:52Z</time>
      </trkpt>
      <trkpt lat="37.3082139529" lon="-8.2554094400">
        <ele>134.72</ele>
        <time>2021-05-28T12:48:53Z</time>
      </trkpt>
      <trkpt lat="37.3082469776" lon="-8.2554280479">
        <ele>134.72</ele>
        <time>2021-05-28T12:48:54Z</time>
      </trkpt>
      <trkpt lat="37.3082698602" lon="-8.2554650959">
        <ele>134.72</ele>
        <time>2021-05-28T12:48:55Z</time>
      </trkpt>
      <trkpt lat="37.3082774039" lon="-8.2555137947">
        <ele>135.68</ele>
        <time>2021-05-28T12:48:56Z</time>
      </trkpt>
      <trkpt lat="37.3082779907" lon="-8.2555848733">
        <ele>135.68</ele>
        <time>2021-05-28T12:48:57Z</time>
      </trkpt>
      <trkpt lat="37.3082811758" lon="-8.2556841150">
        <ele>138.09</ele>
        <time>2021-05-28T12:48:58Z</time>
      </trkpt>
      <trkpt lat="37.3082947545" lon="-8.2558035571">
        <ele>139.05</ele>
        <time>2021-05-28T12:48:59Z</time>
      </trkpt>
      <trkpt lat="37.3083170503" lon="-8.2559325546">
        <ele>140.01</ele>
        <time>2021-05-28T12:49:00Z</time>
      </trkpt>
      <trkpt lat="37.3084181361" lon="-8.2564492989">
        <ele>143.85</ele>
        <time>2021-05-28T12:49:04Z</time>
      </trkpt>
      <trkpt lat="37.3084801622" lon="-8.2568880916">
        <ele>147.22</ele>
        <time>2021-05-28T12:49:07Z</time>
      </trkpt>
      <trkpt lat="37.3085684236" lon="-8.2574071828">
        <ele>145.78</ele>
        <time>2021-05-28T12:49:12Z</time>
      </trkpt>
      <trkpt lat="37.3085706029" lon="-8.2575061731">
        <ele>144.34</ele>
        <time>2021-05-28T12:49:13Z</time>
      </trkpt>
      <trkpt lat="37.3085624725" lon="-8.2578063291">
        <ele>140.97</ele>
        <time>2021-05-28T12:49:16Z</time>
      </trkpt>
      <trkpt lat="37.3085869476" lon="-8.2581343129">
        <ele>137.61</ele>
        <time>2021-05-28T12:49:19Z</time>
      </trkpt>
      <trkpt lat="37.3085963354" lon="-8.2582649868">
        <ele>137.13</ele>
        <time>2021-05-28T12:49:20Z</time>
      </trkpt>
      <trkpt lat="37.3086765502" lon="-8.2594600786">
        <ele>140.01</ele>
        <time>2021-05-28T12:49:28Z</time>
      </trkpt>
      <trkpt lat="37.3087388277" lon="-8.2599111926">
        <ele>139.53</ele>
        <time>2021-05-28T12:49:32Z</time>
      </trkpt>
      <trkpt lat="37.3088127561" lon="-8.2601493225">
        <ele>139.53</ele>
        <time>2021-05-28T12:49:34Z</time>
      </trkpt>
      <trkpt lat="37.3089038674" lon="-8.2605811581">
        <ele>140.97</ele>
        <time>2021-05-28T12:49:37Z</time>
      </trkpt>
      <trkpt lat="37.3089740239" lon="-8.2608481217">
        <ele>141.93</ele>
        <time>2021-05-28T12:49:39Z</time>
      </trkpt>
      <trkpt lat="37.3090700805" lon="-8.2612152491">
        <ele>145.78</ele>
        <time>2021-05-28T12:49:42Z</time>
      </trkpt>
      <trkpt lat="37.3091058712" lon="-8.2613352779">
        <ele>145.78</ele>
        <time>2021-05-28T12:49:43Z</time>
      </trkpt>
      <trkpt lat="37.3091813084" lon="-8.2615727372">
        <ele>148.66</ele>
        <time>2021-05-28T12:49:45Z</time>
      </trkpt>
      <trkpt lat="37.3093053605" lon="-8.2619250286">
        <ele>151.54</ele>
        <time>2021-05-28T12:49:48Z</time>
      </trkpt>
      <trkpt lat="37.3093631957" lon="-8.2621477358">
        <ele>152.51</ele>
        <time>2021-05-28T12:49:50Z</time>
      </trkpt>
      <trkpt lat="37.3093662970" lon="-8.2622603048">
        <ele>152.51</ele>
        <time>2021-05-28T12:49:51Z</time>
      </trkpt>
      <trkpt lat="37.3093515448" lon="-8.2623709459">
        <ele>152.99</ele>
        <time>2021-05-28T12:49:52Z</time>
      </trkpt>
      <trkpt lat="37.3093207832" lon="-8.2624826767">
        <ele>153.47</ele>
        <time>2021-05-28T12:49:53Z</time>
      </trkpt>
      <trkpt lat="37.3092761915" lon="-8.2625965029">
        <ele>153.47</ele>
        <time>2021-05-28T12:49:54Z</time>
      </trkpt>
      <trkpt lat="37.3092253134" lon="-8.2627008576">
        <ele>154.43</ele>
        <time>2021-05-28T12:49:55Z</time>
      </trkpt>
      <trkpt lat="37.3091740999" lon="-8.2627913821">
        <ele>153.47</ele>
        <time>2021-05-28T12:49:56Z</time>
      </trkpt>
      <trkpt lat="37.3087480478" lon="-8.2633851562">
        <ele>152.99</ele>
        <time>2021-05-28T12:50:03Z</time>
      </trkpt>
      <trkpt lat="37.3086652346" lon="-8.2634637784">
        <ele>152.51</ele>
        <time>2021-05-28T12:50:04Z</time>
      </trkpt>
      <trkpt lat="37.3082434572" lon="-8.2637509424">
        <ele>149.14</ele>
        <time>2021-05-28T12:50:09Z</time>
      </trkpt>
      <trkpt lat="37.3078861367" lon="-8.2639286388">
        <ele>145.78</ele>
        <time>2021-05-28T12:50:13Z</time>
      </trkpt>
      <trkpt lat="37.3073876649" lon="-8.2641629968">
        <ele>141.93</ele>
        <time>2021-05-28T12:50:18Z</time>
      </trkpt>
      <trkpt lat="37.3071612697" lon="-8.2642848697">
        <ele>138.57</ele>
        <time>2021-05-28T12:50:20Z</time>
      </trkpt>
      <trkpt lat="37.3070502095" lon="-8.2643363345">
        <ele>138.57</ele>
        <time>2021-05-28T12:50:21Z</time>
      </trkpt>
      <trkpt lat="37.3067342956" lon="-8.2644817606">
        <ele>137.13</ele>
        <time>2021-05-28T12:50:24Z</time>
      </trkpt>
      <trkpt lat="37.3060599715" lon="-8.2647887059">
        <ele>134.24</ele>
        <time>2021-05-28T12:50:30Z</time>
      </trkpt>
      <trkpt lat="37.3059401102" lon="-8.2648322079">
        <ele>134.24</ele>
        <time>2021-05-28T12:50:31Z</time>
      </trkpt>
      <trkpt lat="37.3049599305" lon="-8.2652070466">
        <ele>132.80</ele>
        <time>2021-05-28T12:50:40Z</time>
      </trkpt>
      <trkpt lat="37.3039175570" lon="-8.2657398004">
        <ele>131.84</ele>
        <time>2021-05-28T12:50:50Z</time>
      </trkpt>
      <trkpt lat="37.3032718152" lon="-8.2659371104">
        <ele>128.95</ele>
        <time>2021-05-28T12:50:56Z</time>
      </trkpt>
      <trkpt lat="37.3026708327" lon="-8.2662024815">
        <ele>126.55</ele>
        <time>2021-05-28T12:51:02Z</time>
      </trkpt>
      <trkpt lat="37.3025785480" lon="-8.2662479114">
        <ele>126.55</ele>
        <time>2021-05-28T12:51:03Z</time>
      </trkpt>
      <trkpt lat="37.3024915438" lon="-8.2662794273">
        <ele>127.51</ele>
        <time>2021-05-28T12:51:04Z</time>
      </trkpt>
      <trkpt lat="37.3024091497" lon="-8.2662997115">
        <ele>127.99</ele>
        <time>2021-05-28T12:51:05Z</time>
      </trkpt>
      <trkpt lat="37.3022708483" lon="-8.2663374301">
        <ele>127.99</ele>
        <time>2021-05-28T12:51:07Z</time>
      </trkpt>
      <trkpt lat="37.3022182100" lon="-8.2663643360">
        <ele>127.51</ele>
        <time>2021-05-28T12:51:08Z</time>
      </trkpt>
      <trkpt lat="37.3021816649" lon="-8.2663928345">
        <ele>127.51</ele>
        <time>2021-05-28T12:51:09Z</time>
      </trkpt>
      <trkpt lat="37.3021592852" lon="-8.2664199919">
        <ele>127.99</ele>
        <time>2021-05-28T12:51:10Z</time>
      </trkpt>
      <trkpt lat="37.3021447845" lon="-8.2664404437">
        <ele>127.51</ele>
        <time>2021-05-28T12:51:11Z</time>
      </trkpt>
      <trkpt lat="37.3021312896" lon="-8.2664554473">
        <ele>127.51</ele>
        <time>2021-05-28T12:51:12Z</time>
      </trkpt>
      <trkpt lat="37.3021141905" lon="-8.2664625719">
        <ele>127.51</ele>
        <time>2021-05-28T12:51:13Z</time>
      </trkpt>
      <trkpt lat="37.3020965885" lon="-8.2664598897">
        <ele>127.51</ele>
        <time>2021-05-28T12:51:14Z</time>
      </trkpt>
      <trkpt lat="37.3020762205" lon="-8.2664463110">
        <ele>127.03</ele>
        <time>2021-05-28T12:51:15Z</time>
      </trkpt>
      <trkpt lat="37.3020478059" lon="-8.2664302178">
        <ele>126.55</ele>
        <time>2021-05-28T12:51:16Z</time>
      </trkpt>
      <trkpt lat="37.3020127695" lon="-8.2664195728">
        <ele>126.55</ele>
        <time>2021-05-28T12:51:17Z</time>
      </trkpt>
      <trkpt lat="37.3019730393" lon="-8.2664194889">
        <ele>126.07</ele>
        <time>2021-05-28T12:51:18Z</time>
      </trkpt>
      <trkpt lat="37.3019311298" lon="-8.2664321456">
        <ele>125.59</ele>
        <time>2021-05-28T12:51:19Z</time>
      </trkpt>
      <trkpt lat="37.3018913157" lon="-8.2664551958">
        <ele>125.59</ele>
        <time>2021-05-28T12:51:20Z</time>
      </trkpt>
      <trkpt lat="37.3018534295" lon="-8.2664839458">
        <ele>124.63</ele>
        <time>2021-05-28T12:51:21Z</time>
      </trkpt>
      <trkpt lat="37.3018203210" lon="-8.2665155455">
        <ele>124.63</ele>
        <time>2021-05-28T12:51:22Z</time>
      </trkpt>
      <trkpt lat="37.3017914873" lon="-8.2665475644">
        <ele>124.15</ele>
        <time>2021-05-28T12:51:23Z</time>
      </trkpt>
      <trkpt lat="37.3017389327" lon="-8.2665803377">
        <ele>123.67</ele>
        <time>2021-05-28T12:51:25Z</time>
      </trkpt>
      <trkpt lat="37.3017199896" lon="-8.2665813435">
        <ele>123.19</ele>
        <time>2021-05-28T12:51:26Z</time>
      </trkpt>
      <trkpt lat="37.3016967718" lon="-8.2665829360">
        <ele>122.71</ele>
        <time>2021-05-28T12:51:34Z</time>
      </trkpt>
      <trkpt lat="37.3016821034" lon="-8.2665795833">
        <ele>122.71</ele>
        <time>2021-05-28T12:51:35Z</time>
      </trkpt>
      <trkpt lat="37.3016704526" lon="-8.2665696926">
        <ele>122.71</ele>
        <time>2021-05-28T12:51:36Z</time>
      </trkpt>
      <trkpt lat="37.3016683571" lon="-8.2665571198">
        <ele>122.71</ele>
        <time>2021-05-28T12:51:37Z</time>
      </trkpt>
      <trkpt lat="37.3016719613" lon="-8.2665396016">
        <ele>122.71</ele>
        <time>2021-05-28T12:51:38Z</time>
      </trkpt>
      <trkpt lat="37.3016867973" lon="-8.2665263582">
        <ele>122.71</ele>
        <time>2021-05-28T12:51:39Z</time>
      </trkpt>
      <trkpt lat="37.3017051537" lon="-8.2665251847">
        <ele>122.71</ele>
        <time>2021-05-28T12:51:40Z</time>
      </trkpt>
      <trkpt lat="37.3017266113" lon="-8.2665320579">
        <ele>122.71</ele>
        <time>2021-05-28T12:51:41Z</time>
      </trkpt>
      <trkpt lat="37.3017561994" lon="-8.2665486541">
        <ele>123.19</ele>
        <time>2021-05-28T12:51:42Z</time>
      </trkpt>
      <trkpt lat="37.3017886374" lon="-8.2665547729">
        <ele>124.63</ele>
        <time>2021-05-28T12:51:43Z</time>
      </trkpt>
      <trkpt lat="37.3018231709" lon="-8.2665337343">
        <ele>123.67</ele>
        <time>2021-05-28T12:51:44Z</time>
      </trkpt>
      <trkpt lat="37.3018680140" lon="-8.2664924115">
        <ele>124.15</ele>
        <time>2021-05-28T12:51:45Z</time>
      </trkpt>
      <trkpt lat="37.3019250948" lon="-8.2664499152">
        <ele>125.11</ele>
        <time>2021-05-28T12:51:46Z</time>
      </trkpt>
      <trkpt lat="37.3019871209" lon="-8.2664158009">
        <ele>126.55</ele>
        <time>2021-05-28T12:51:47Z</time>
      </trkpt>
      <trkpt lat="37.3020411003" lon="-8.2663962711">
        <ele>127.03</ele>
        <time>2021-05-28T12:51:48Z</time>
      </trkpt>
      <trkpt lat="37.3020812497" lon="-8.2663877215">
        <ele>127.03</ele>
        <time>2021-05-28T12:51:49Z</time>
      </trkpt>
      <trkpt lat="37.3021084908" lon="-8.2663869672">
        <ele>127.51</ele>
        <time>2021-05-28T12:51:50Z</time>
      </trkpt>
      <trkpt lat="37.3021269310" lon="-8.2663969416">
        <ele>127.51</ele>
        <time>2021-05-28T12:51:59Z</time>
      </trkpt>
      <trkpt lat="37.3021135200" lon="-8.2663892303">
        <ele>127.51</ele>
        <time>2021-05-28T12:52:36Z</time>
      </trkpt>
      <trkpt lat="37.3021472152" lon="-8.2664178126">
        <ele>127.51</ele>
        <time>2021-05-28T12:52:45Z</time>
      </trkpt>
      <trkpt lat="37.3021633923" lon="-8.2664874662">
        <ele>127.99</ele>
        <time>2021-05-28T12:52:46Z</time>
      </trkpt>
      <trkpt lat="37.3021812458" lon="-8.2665890548">
        <ele>129.43</ele>
        <time>2021-05-28T12:52:47Z</time>
      </trkpt>
      <trkpt lat="37.3022089060" lon="-8.2667028811">
        <ele>130.88</ele>
        <time>2021-05-28T12:52:48Z</time>
      </trkpt>
      <trkpt lat="37.3022424337" lon="-8.2668244187">
        <ele>131.84</ele>
        <time>2021-05-28T12:52:49Z</time>
      </trkpt>
      <trkpt lat="37.3023672402" lon="-8.2672539912">
        <ele>135.20</ele>
        <time>2021-05-28T12:52:52Z</time>
      </trkpt>
      <trkpt lat="37.3024115805" lon="-8.2673968188">
        <ele>135.20</ele>
        <time>2021-05-28T12:52:53Z</time>
      </trkpt>
      <trkpt lat="37.3026616964" lon="-8.2681714743">
        <ele>133.76</ele>
        <time>2021-05-28T12:53:01Z</time>
      </trkpt>
      <trkpt lat="37.3026882671" lon="-8.2681976259">
        <ele>132.80</ele>
        <time>2021-05-28T12:53:02Z</time>
      </trkpt>
      <trkpt lat="37.3027145024" lon="-8.2682027388">
        <ele>133.28</ele>
        <time>2021-05-28T12:53:03Z</time>
      </trkpt>
      <trkpt lat="37.3027429171" lon="-8.2681960333">
        <ele>133.28</ele>
        <time>2021-05-28T12:53:13Z</time>
      </trkpt>
      <trkpt lat="37.3027606029" lon="-8.2681924291">
        <ele>133.28</ele>
        <time>2021-05-28T12:53:42Z</time>
      </trkpt>
      <trkpt lat="37.3027516343" lon="-8.2681830414">
        <ele>133.76</ele>
        <time>2021-05-28T12:54:15Z</time>
      </trkpt>
      <trkpt lat="37.3027579207" lon="-8.2681958657">
        <ele>132.80</ele>
        <time>2021-05-28T12:54:47Z</time>
      </trkpt>
      <trkpt lat="37.3027939629" lon="-8.2681588177">
        <ele>136.16</ele>
        <time>2021-05-28T14:07:16Z</time>
      </trkpt>
      <trkpt lat="37.3027992435" lon="-8.2682016492">
        <ele>136.16</ele>
        <time>2021-05-28T14:07:17Z</time>
      </trkpt>
      <trkpt lat="37.3028103914" lon="-8.2682139706">
        <ele>134.24</ele>
        <time>2021-05-28T14:07:32Z</time>
      </trkpt>
      <trkpt lat="37.3027916159" lon="-8.2682260405">
        <ele>131.84</ele>
        <time>2021-05-28T14:07:54Z</time>
      </trkpt>
      <trkpt lat="37.3027991597" lon="-8.2682272978">
        <ele>129.92</ele>
        <time>2021-05-28T14:08:15Z</time>
      </trkpt>
      <trkpt lat="37.3027839884" lon="-8.2682236936">
        <ele>130.40</ele>
        <time>2021-05-28T14:08:43Z</time>
      </trkpt>
      <trkpt lat="37.3027970642" lon="-8.2681967877">
        <ele>130.40</ele>
        <time>2021-05-28T14:09:07Z</time>
      </trkpt>
      <trkpt lat="37.3027670570" lon="-8.2682086062">
        <ele>130.40</ele>
        <time>2021-05-28T14:09:34Z</time>
      </trkpt>
      <trkpt lat="37.3027388100" lon="-8.2681973744">
        <ele>129.92</ele>
        <time>2021-05-28T14:09:40Z</time>
      </trkpt>
      <trkpt lat="37.3027953040" lon="-8.2686219178">
        <ele>131.36</ele>
        <time>2021-05-28T14:09:47Z</time>
      </trkpt>
      <trkpt lat="37.3028208688" lon="-8.2691639755">
        <ele>132.80</ele>
        <time>2021-05-28T14:09:51Z</time>
      </trkpt>
      <trkpt lat="37.3028050270" lon="-8.2693076413">
        <ele>132.32</ele>
        <time>2021-05-28T14:09:52Z</time>
      </trkpt>
      <trkpt lat="37.3027781211" lon="-8.2694548275">
        <ele>131.84</ele>
        <time>2021-05-28T14:09:53Z</time>
      </trkpt>
      <trkpt lat="37.3027430847" lon="-8.2696046121">
        <ele>132.32</ele>
        <time>2021-05-28T14:09:54Z</time>
      </trkpt>
      <trkpt lat="37.3027039412" lon="-8.2697522175">
        <ele>131.84</ele>
        <time>2021-05-28T14:09:55Z</time>
      </trkpt>
      <trkpt lat="37.3026012629" lon="-8.2701229490">
        <ele>129.43</ele>
        <time>2021-05-28T14:09:58Z</time>
      </trkpt>
      <trkpt lat="37.3024247400" lon="-8.2706570439">
        <ele>128.47</ele>
        <time>2021-05-28T14:10:06Z</time>
      </trkpt>
      <trkpt lat="37.3022082355" lon="-8.2714011054">
        <ele>128.95</ele>
        <time>2021-05-28T14:10:15Z</time>
      </trkpt>
      <trkpt lat="37.3020515777" lon="-8.2719524670">
        <ele>124.15</ele>
        <time>2021-05-28T14:10:19Z</time>
      </trkpt>
      <trkpt lat="37.3015174828" lon="-8.2734544203">
        <ele>127.99</ele>
        <time>2021-05-28T14:10:30Z</time>
      </trkpt>
      <trkpt lat="37.3008950427" lon="-8.2746138051">
        <ele>126.55</ele>
        <time>2021-05-28T14:10:37Z</time>
      </trkpt>
      <trkpt lat="37.3008097988" lon="-8.2747827843">
        <ele>127.03</ele>
        <time>2021-05-28T14:10:38Z</time>
      </trkpt>
      <trkpt lat="37.3007346969" lon="-8.2749697845">
        <ele>127.03</ele>
        <time>2021-05-28T14:10:39Z</time>
      </trkpt>
      <trkpt lat="37.3006581701" lon="-8.2751639932">
        <ele>126.07</ele>
        <time>2021-05-28T14:10:40Z</time>
      </trkpt>
      <trkpt lat="37.3003240675" lon="-8.2759880181">
        <ele>128.47</ele>
        <time>2021-05-28T14:10:44Z</time>
      </trkpt>
      <trkpt lat="37.2997097578" lon="-8.2771263644">
        <ele>124.63</ele>
        <time>2021-05-28T14:10:50Z</time>
      </trkpt>
      <trkpt lat="37.2996223345" lon="-8.2772824354">
        <ele>124.63</ele>
        <time>2021-05-28T14:10:51Z</time>
      </trkpt>
      <trkpt lat="37.2995385155" lon="-8.2774446253">
        <ele>127.99</ele>
        <time>2021-05-28T14:10:52Z</time>
      </trkpt>
      <trkpt lat="37.2991005611" lon="-8.2783917803">
        <ele>125.11</ele>
        <time>2021-05-28T14:10:57Z</time>
      </trkpt>
      <trkpt lat="37.2986872494" lon="-8.2793292124">
        <ele>130.40</ele>
        <time>2021-05-28T14:11:02Z</time>
      </trkpt>
      <trkpt lat="37.2985372972" lon="-8.2796620578">
        <ele>131.84</ele>
        <time>2021-05-28T14:11:04Z</time>
      </trkpt>
      <trkpt lat="37.2983062081" lon="-8.2801262476">
        <ele>135.20</ele>
        <time>2021-05-28T14:11:07Z</time>
      </trkpt>
      <trkpt lat="37.2981642187" lon="-8.2804442570">
        <ele>135.68</ele>
        <time>2021-05-28T14:11:09Z</time>
      </trkpt>
      <trkpt lat="37.2975831013" lon="-8.2818218227">
        <ele>137.13</ele>
        <time>2021-05-28T14:11:16Z</time>
      </trkpt>
      <trkpt lat="37.2975171357" lon="-8.2820316218">
        <ele>136.64</ele>
        <time>2021-05-28T14:11:17Z</time>
      </trkpt>
      <trkpt lat="37.2970579751" lon="-8.2833159808">
        <ele>133.28</ele>
        <time>2021-05-28T14:11:23Z</time>
      </trkpt>
      <trkpt lat="37.2968696337" lon="-8.2836964354">
        <ele>132.32</ele>
        <time>2021-05-28T14:11:25Z</time>
      </trkpt>
      <trkpt lat="37.2967652790" lon="-8.2838526741">
        <ele>131.36</ele>
        <time>2021-05-28T14:11:26Z</time>
      </trkpt>
      <trkpt lat="37.2966474295" lon="-8.2839863654">
        <ele>133.28</ele>
        <time>2021-05-28T14:11:27Z</time>
      </trkpt>
      <trkpt lat="37.2965122294" lon="-8.2841105852">
        <ele>132.80</ele>
        <time>2021-05-28T14:11:28Z</time>
      </trkpt>
      <trkpt lat="37.2951075062" lon="-8.2852221932">
        <ele>133.28</ele>
        <time>2021-05-28T14:11:37Z</time>
      </trkpt>
      <trkpt lat="37.2949847952" lon="-8.2853653561">
        <ele>131.84</ele>
        <time>2021-05-28T14:11:38Z</time>
      </trkpt>
      <trkpt lat="37.2946382873" lon="-8.2858078368">
        <ele>129.43</ele>
        <time>2021-05-28T14:11:41Z</time>
      </trkpt>
      <trkpt lat="37.2942502052" lon="-8.2863168698">
        <ele>127.51</ele>
        <time>2021-05-28T14:11:44Z</time>
      </trkpt>
      <trkpt lat="37.2941217106" lon="-8.2864819933">
        <ele>123.19</ele>
        <time>2021-05-28T14:11:45Z</time>
      </trkpt>
      <trkpt lat="37.2938812338" lon="-8.2867517229">
        <ele>120.30</ele>
        <time>2021-05-28T14:11:47Z</time>
      </trkpt>
      <trkpt lat="37.2937652282" lon="-8.2868373021">
        <ele>119.34</ele>
        <time>2021-05-28T14:11:48Z</time>
      </trkpt>
      <trkpt lat="37.2936390806" lon="-8.2868981548">
        <ele>118.86</ele>
        <time>2021-05-28T14:11:49Z</time>
      </trkpt>
      <trkpt lat="37.2927428875" lon="-8.2873657811">
        <ele>119.34</ele>
        <time>2021-05-28T14:11:55Z</time>
      </trkpt>
      <trkpt lat="37.2925383691" lon="-8.2875024900">
        <ele>118.38</ele>
        <time>2021-05-28T14:11:57Z</time>
      </trkpt>
      <trkpt lat="37.2924592439" lon="-8.2875875663">
        <ele>118.86</ele>
        <time>2021-05-28T14:11:58Z</time>
      </trkpt>
      <trkpt lat="37.2923891712" lon="-8.2876930106">
        <ele>119.82</ele>
        <time>2021-05-28T14:11:59Z</time>
      </trkpt>
      <trkpt lat="37.2923268098" lon="-8.2878218405">
        <ele>120.78</ele>
        <time>2021-05-28T14:12:00Z</time>
      </trkpt>
      <trkpt lat="37.2922652029" lon="-8.2879772410">
        <ele>122.71</ele>
        <time>2021-05-28T14:12:01Z</time>
      </trkpt>
      <trkpt lat="37.2922004946" lon="-8.2881535124">
        <ele>123.67</ele>
        <time>2021-05-28T14:12:02Z</time>
      </trkpt>
      <trkpt lat="37.2917765379" lon="-8.2894592453">
        <ele>123.67</ele>
        <time>2021-05-28T14:12:09Z</time>
      </trkpt>
      <trkpt lat="37.2915593628" lon="-8.2901082560">
        <ele>124.63</ele>
        <time>2021-05-28T14:12:13Z</time>
      </trkpt>
      <trkpt lat="37.2913871985" lon="-8.2904801611">
        <ele>121.74</ele>
        <time>2021-05-28T14:12:15Z</time>
      </trkpt>
      <trkpt lat="37.2911878768" lon="-8.2908964064">
        <ele>120.30</ele>
        <time>2021-05-28T14:12:17Z</time>
      </trkpt>
      <trkpt lat="37.2904854733" lon="-8.2923867926">
        <ele>119.82</ele>
        <time>2021-05-28T14:12:24Z</time>
      </trkpt>
      <trkpt lat="37.2903857287" lon="-8.2925280277">
        <ele>119.34</ele>
        <time>2021-05-28T14:12:25Z</time>
      </trkpt>
      <trkpt lat="37.2902744170" lon="-8.2926380821">
        <ele>118.86</ele>
        <time>2021-05-28T14:12:26Z</time>
      </trkpt>
      <trkpt lat="37.2901456710" lon="-8.2927273493">
        <ele>119.82</ele>
        <time>2021-05-28T14:12:27Z</time>
      </trkpt>
      <trkpt lat="37.2899973951" lon="-8.2928129286">
        <ele>120.78</ele>
        <time>2021-05-28T14:12:28Z</time>
      </trkpt>
      <trkpt lat="37.2898342833" lon="-8.2929006871">
        <ele>120.78</ele>
        <time>2021-05-28T14:12:29Z</time>
      </trkpt>
      <trkpt lat="37.2886961885" lon="-8.2936255541">
        <ele>117.42</ele>
        <time>2021-05-28T14:12:36Z</time>
      </trkpt>
      <trkpt lat="37.2885599826" lon="-8.2937243767">
        <ele>116.94</ele>
        <time>2021-05-28T14:12:37Z</time>
      </trkpt>
      <trkpt lat="37.2883244511" lon="-8.2939155679">
        <ele>113.57</ele>
        <time>2021-05-28T14:12:39Z</time>
      </trkpt>
      <trkpt lat="37.2881336790" lon="-8.2941075135">
        <ele>112.61</ele>
        <time>2021-05-28T14:12:41Z</time>
      </trkpt>
      <trkpt lat="37.2878875863" lon="-8.2944032270">
        <ele>109.73</ele>
        <time>2021-05-28T14:12:45Z</time>
      </trkpt>
      <trkpt lat="37.2877771966" lon="-8.2945687696">
        <ele>108.29</ele>
        <time>2021-05-28T14:12:53Z</time>
      </trkpt>
      <trkpt lat="37.2877549008" lon="-8.2946167141">
        <ele>108.77</ele>
        <time>2021-05-28T14:13:17Z</time>
      </trkpt>
      <trkpt lat="37.2877466865" lon="-8.2946272753">
        <ele>108.77</ele>
        <time>2021-05-28T14:13:31Z</time>
      </trkpt>
      <trkpt lat="37.2877197806" lon="-8.2946656644">
        <ele>109.25</ele>
        <time>2021-05-28T14:13:42Z</time>
      </trkpt>
      <trkpt lat="37.2876807209" lon="-8.2946958393">
        <ele>108.77</ele>
        <time>2021-05-28T14:13:43Z</time>
      </trkpt>
      <trkpt lat="37.2876337823" lon="-8.2947203983">
        <ele>108.77</ele>
        <time>2021-05-28T14:13:44Z</time>
      </trkpt>
      <trkpt lat="37.2875950579" lon="-8.2947562728">
        <ele>109.25</ele>
        <time>2021-05-28T14:13:45Z</time>
      </trkpt>
      <trkpt lat="37.2875662241" lon="-8.2948087435">
        <ele>108.77</ele>
        <time>2021-05-28T14:13:46Z</time>
      </trkpt>
      <trkpt lat="37.2875440959" lon="-8.2948765531">
        <ele>108.77</ele>
        <time>2021-05-28T14:13:47Z</time>
      </trkpt>
      <trkpt lat="37.2875227220" lon="-8.2949602883">
        <ele>108.77</ele>
        <time>2021-05-28T14:13:48Z</time>
      </trkpt>
      <trkpt lat="37.2874958161" lon="-8.2950458676">
        <ele>108.77</ele>
        <time>2021-05-28T14:13:49Z</time>
      </trkpt>
      <trkpt lat="37.2874640487" lon="-8.2951156888">
        <ele>108.29</ele>
        <time>2021-05-28T14:13:50Z</time>
      </trkpt>
      <trkpt lat="37.2874277551" lon="-8.2951615378">
        <ele>108.29</ele>
        <time>2021-05-28T14:13:51Z</time>
      </trkpt>
      <trkpt lat="37.2873852588" lon="-8.2951881085">
        <ele>107.81</ele>
        <time>2021-05-28T14:13:52Z</time>
      </trkpt>
      <trkpt lat="37.2873410862" lon="-8.2952000946">
        <ele>107.32</ele>
        <time>2021-05-28T14:13:53Z</time>
      </trkpt>
      <trkpt lat="37.2872943152" lon="-8.2951991726">
        <ele>106.84</ele>
        <time>2021-05-28T14:13:54Z</time>
      </trkpt>
      <trkpt lat="37.2872412577" lon="-8.2951899525">
        <ele>107.81</ele>
        <time>2021-05-28T14:13:55Z</time>
      </trkpt>
      <trkpt lat="37.2871068120" lon="-8.2951688301">
        <ele>108.77</ele>
        <time>2021-05-28T14:13:57Z</time>
      </trkpt>
      <trkpt lat="37.2870301176" lon="-8.2951684110">
        <ele>107.81</ele>
        <time>2021-05-28T14:13:58Z</time>
      </trkpt>
      <trkpt lat="37.2869479749" lon="-8.2951779664">
        <ele>107.81</ele>
        <time>2021-05-28T14:13:59Z</time>
      </trkpt>
      <trkpt lat="37.2868628148" lon="-8.2951967418">
        <ele>107.81</ele>
        <time>2021-05-28T14:14:00Z</time>
      </trkpt>
      <trkpt lat="37.2867747210" lon="-8.2952187024">
        <ele>108.29</ele>
        <time>2021-05-28T14:14:01Z</time>
      </trkpt>
      <trkpt lat="37.2862513550" lon="-8.2953263260">
        <ele>105.88</ele>
        <time>2021-05-28T14:14:08Z</time>
      </trkpt>
      <trkpt lat="37.2856415715" lon="-8.2954976521">
        <ele>104.92</ele>
        <time>2021-05-28T14:14:19Z</time>
      </trkpt>
      <trkpt lat="37.2854046151" lon="-8.2955393102">
        <ele>105.40</ele>
        <time>2021-05-28T14:14:24Z</time>
      </trkpt>
      <trkpt lat="37.2848917264" lon="-8.2956696488">
        <ele>105.40</ele>
        <time>2021-05-28T14:14:34Z</time>
      </trkpt>
      <trkpt lat="37.2848363221" lon="-8.2957047690">
        <ele>105.88</ele>
        <time>2021-05-28T14:14:35Z</time>
      </trkpt>
      <trkpt lat="37.2847846895" lon="-8.2957486063">
        <ele>105.40</ele>
        <time>2021-05-28T14:14:36Z</time>
      </trkpt>
      <trkpt lat="37.2847363260" lon="-8.2957985625">
        <ele>105.40</ele>
        <time>2021-05-28T14:14:37Z</time>
      </trkpt>
      <trkpt lat="37.2846927401" lon="-8.2958536316">
        <ele>105.40</ele>
        <time>2021-05-28T14:14:38Z</time>
      </trkpt>
      <trkpt lat="37.2846537642" lon="-8.2959152386">
        <ele>105.40</ele>
        <time>2021-05-28T14:14:39Z</time>
      </trkpt>
      <trkpt lat="37.2846149560" lon="-8.2959843054">
        <ele>105.40</ele>
        <time>2021-05-28T14:14:40Z</time>
      </trkpt>
      <trkpt lat="37.2845774889" lon="-8.2960584015">
        <ele>105.40</ele>
        <time>2021-05-28T14:14:41Z</time>
      </trkpt>
      <trkpt lat="37.2841420490" lon="-8.2968415227">
        <ele>104.92</ele>
        <time>2021-05-28T14:14:51Z</time>
      </trkpt>
      <trkpt lat="37.2838972136" lon="-8.2972974982">
        <ele>103.96</ele>
        <time>2021-05-28T14:15:03Z</time>
      </trkpt>
      <trkpt lat="37.2838787735" lon="-8.2973143458">
        <ele>104.44</ele>
        <time>2021-05-28T14:15:07Z</time>
      </trkpt>
      <trkpt lat="37.2838595789" lon="-8.2973374799">
        <ele>104.44</ele>
        <time>2021-05-28T14:15:08Z</time>
      </trkpt>
      <trkpt lat="37.2838404682" lon="-8.2973689120">
        <ele>104.44</ele>
        <time>2021-05-28T14:15:09Z</time>
      </trkpt>
      <trkpt lat="37.2838348523" lon="-8.2974005118">
        <ele>104.44</ele>
        <time>2021-05-28T14:15:10Z</time>
      </trkpt>
      <trkpt lat="37.2839100379" lon="-8.2975194510">
        <ele>104.44</ele>
        <time>2021-05-28T14:15:17Z</time>
      </trkpt>
      <trkpt lat="37.2839035839" lon="-8.2975122426">
        <ele>104.92</ele>
        <time>2021-05-28T14:15:39Z</time>
      </trkpt>
      <trkpt lat="37.2838862333" lon="-8.2974895276">
        <ele>103.96</ele>
        <time>2021-05-28T14:15:50Z</time>
      </trkpt>
      <trkpt lat="37.2838905919" lon="-8.2973456103">
        <ele>104.44</ele>
        <time>2021-05-28T14:15:55Z</time>
      </trkpt>
      <trkpt lat="37.2839221079" lon="-8.2972824108">
        <ele>104.44</ele>
        <time>2021-05-28T14:15:56Z</time>
      </trkpt>
      <trkpt lat="37.2844335716" lon="-8.2964116987">
        <ele>104.44</ele>
        <time>2021-05-28T14:16:07Z</time>
      </trkpt>
      <trkpt lat="37.2848012019" lon="-8.2957672141">
        <ele>105.88</ele>
        <time>2021-05-28T14:16:15Z</time>
      </trkpt>
      <trkpt lat="37.2848569416" lon="-8.2957160845">
        <ele>105.88</ele>
        <time>2021-05-28T14:16:16Z</time>
      </trkpt>
      <trkpt lat="37.2849153634" lon="-8.2956776954">
        <ele>105.40</ele>
        <time>2021-05-28T14:16:17Z</time>
      </trkpt>
      <trkpt lat="37.2849783953" lon="-8.2956512086">
        <ele>105.88</ele>
        <time>2021-05-28T14:16:18Z</time>
      </trkpt>
      <trkpt lat="37.2850486357" lon="-8.2956313435">
        <ele>106.36</ele>
        <time>2021-05-28T14:16:19Z</time>
      </trkpt>
      <trkpt lat="37.2851229832" lon="-8.2956140768">
        <ele>106.84</ele>
        <time>2021-05-28T14:16:20Z</time>
      </trkpt>
      <trkpt lat="37.2856613528" lon="-8.2955285814">
        <ele>105.88</ele>
        <time>2021-05-28T14:16:27Z</time>
      </trkpt>
      <trkpt lat="37.2857399751" lon="-8.2955067884">
        <ele>106.36</ele>
        <time>2021-05-28T14:16:28Z</time>
      </trkpt>
      <trkpt lat="37.2867117729" lon="-8.2952539902">
        <ele>109.25</ele>
        <time>2021-05-28T14:16:38Z</time>
      </trkpt>
      <trkpt lat="37.2870229091" lon="-8.2951889466">
        <ele>109.73</ele>
        <time>2021-05-28T14:16:41Z</time>
      </trkpt>
      <trkpt lat="37.2871194687" lon="-8.2951897010">
        <ele>110.21</ele>
        <time>2021-05-28T14:16:42Z</time>
      </trkpt>
      <trkpt lat="37.2872042935" lon="-8.2952001784">
        <ele>109.25</ele>
        <time>2021-05-28T14:16:43Z</time>
      </trkpt>
      <trkpt lat="37.2873430140" lon="-8.2952236477">
        <ele>108.77</ele>
        <time>2021-05-28T14:16:45Z</time>
      </trkpt>
      <trkpt lat="37.2873979155" lon="-8.2952194568">
        <ele>108.29</ele>
        <time>2021-05-28T14:16:46Z</time>
      </trkpt>
      <trkpt lat="37.2874438483" lon="-8.2952023577">
        <ele>107.81</ele>
        <time>2021-05-28T14:16:47Z</time>
      </trkpt>
      <trkpt lat="37.2874789685" lon="-8.2951712608">
        <ele>108.29</ele>
        <time>2021-05-28T14:16:48Z</time>
      </trkpt>
      <trkpt lat="37.2875059582" lon="-8.2951290999">
        <ele>108.77</ele>
        <time>2021-05-28T14:16:49Z</time>
      </trkpt>
      <trkpt lat="37.2875238117" lon="-8.2950894535">
        <ele>107.81</ele>
        <time>2021-05-28T14:16:50Z</time>
      </trkpt>
      <trkpt lat="37.2875388153" lon="-8.2950505614">
        <ele>107.81</ele>
        <time>2021-05-28T14:16:51Z</time>
      </trkpt>
      <trkpt lat="37.2875497956" lon="-8.2950100768">
        <ele>107.81</ele>
        <time>2021-05-28T14:16:52Z</time>
      </trkpt>
      <trkpt lat="37.2876002546" lon="-8.2947551832">
        <ele>108.29</ele>
        <time>2021-05-28T14:17:00Z</time>
      </trkpt>
      <trkpt lat="37.2875433415" lon="-8.2946665864">
        <ele>108.77</ele>
        <time>2021-05-28T14:17:05Z</time>
      </trkpt>
      <trkpt lat="37.2874776274" lon="-8.2946360763">
        <ele>110.21</ele>
        <time>2021-05-28T14:17:06Z</time>
      </trkpt>
      <trkpt lat="37.2873916291" lon="-8.2946106791">
        <ele>110.21</ele>
        <time>2021-05-28T14:17:07Z</time>
      </trkpt>
      <trkpt lat="37.2866517585" lon="-8.2943409495">
        <ele>112.13</ele>
        <time>2021-05-28T14:17:13Z</time>
      </trkpt>
      <trkpt lat="37.2860390414" lon="-8.2941101957">
        <ele>113.09</ele>
        <time>2021-05-28T14:17:17Z</time>
      </trkpt>
      <trkpt lat="37.2848095000" lon="-8.2935626898">
        <ele>113.09</ele>
        <time>2021-05-28T14:17:25Z</time>
      </trkpt>
      <trkpt lat="37.2846682649" lon="-8.2934425771">
        <ele>112.61</ele>
        <time>2021-05-28T14:17:26Z</time>
      </trkpt>
      <trkpt lat="37.2845281195" lon="-8.2933062874">
        <ele>114.05</ele>
        <time>2021-05-28T14:17:27Z</time>
      </trkpt>
      <trkpt lat="37.2842444759" lon="-8.2929954864">
        <ele>115.01</ele>
        <time>2021-05-28T14:17:29Z</time>
      </trkpt>
      <trkpt lat="37.2827172093" lon="-8.2912590075">
        <ele>118.86</ele>
        <time>2021-05-28T14:17:39Z</time>
      </trkpt>
      <trkpt lat="37.2825481463" lon="-8.2911030203">
        <ele>119.34</ele>
        <time>2021-05-28T14:17:40Z</time>
      </trkpt>
      <trkpt lat="37.2818148974" lon="-8.2904859446">
        <ele>123.19</ele>
        <time>2021-05-28T14:17:44Z</time>
      </trkpt>
      <trkpt lat="37.2806349769" lon="-8.2897101156">
        <ele>125.11</ele>
        <time>2021-05-28T14:17:50Z</time>
      </trkpt>
      <trkpt lat="37.2800491657" lon="-8.2893418148">
        <ele>124.15</ele>
        <time>2021-05-28T14:17:53Z</time>
      </trkpt>
      <trkpt lat="37.2784169577" lon="-8.2879035641">
        <ele>120.78</ele>
        <time>2021-05-28T14:18:02Z</time>
      </trkpt>
      <trkpt lat="37.2782421950" lon="-8.2877085172">
        <ele>120.78</ele>
        <time>2021-05-28T14:18:03Z</time>
      </trkpt>
      <trkpt lat="37.2775397077" lon="-8.2868924551">
        <ele>124.63</ele>
        <time>2021-05-28T14:18:07Z</time>
      </trkpt>
      <trkpt lat="37.2773657832" lon="-8.2866901997">
        <ele>124.63</ele>
        <time>2021-05-28T14:18:08Z</time>
      </trkpt>
      <trkpt lat="37.2755527776" lon="-8.2849253900">
        <ele>125.59</ele>
        <time>2021-05-28T14:18:18Z</time>
      </trkpt>
      <trkpt lat="37.2749144118" lon="-8.2845769543">
        <ele>129.43</ele>
        <time>2021-05-28T14:18:21Z</time>
      </trkpt>
      <trkpt lat="37.2738294583" lon="-8.2840432785">
        <ele>132.80</ele>
        <time>2021-05-28T14:18:26Z</time>
      </trkpt>
      <trkpt lat="37.2721226513" lon="-8.2831978798">
        <ele>128.95</ele>
        <time>2021-05-28T14:18:34Z</time>
      </trkpt>
      <trkpt lat="37.2719105892" lon="-8.2830914296">
        <ele>129.43</ele>
        <time>2021-05-28T14:18:35Z</time>
      </trkpt>
      <trkpt lat="37.2712636739" lon="-8.2827657927">
        <ele>131.36</ele>
        <time>2021-05-28T14:18:38Z</time>
      </trkpt>
      <trkpt lat="37.2701698355" lon="-8.2822221424">
        <ele>126.55</ele>
        <time>2021-05-28T14:18:43Z</time>
      </trkpt>
      <trkpt lat="37.2684779484" lon="-8.2812565472">
        <ele>125.59</ele>
        <time>2021-05-28T14:18:52Z</time>
      </trkpt>
      <trkpt lat="37.2683219612" lon="-8.2811366860">
        <ele>122.22</ele>
        <time>2021-05-28T14:18:53Z</time>
      </trkpt>
      <trkpt lat="37.2681746073" lon="-8.2810176630">
        <ele>123.19</ele>
        <time>2021-05-28T14:18:54Z</time>
      </trkpt>
      <trkpt lat="37.2677745391" lon="-8.2806781959">
        <ele>121.74</ele>
        <time>2021-05-28T14:18:57Z</time>
      </trkpt>
      <trkpt lat="37.2670397814" lon="-8.2800343819">
        <ele>124.63</ele>
        <time>2021-05-28T14:19:04Z</time>
      </trkpt>
      <trkpt lat="37.2667879891" lon="-8.2798185479">
        <ele>126.07</ele>
        <time>2021-05-28T14:19:06Z</time>
      </trkpt>
      <trkpt lat="37.2665093746" lon="-8.2795835193">
        <ele>129.43</ele>
        <time>2021-05-28T14:19:08Z</time>
      </trkpt>
      <trkpt lat="37.2660449333" lon="-8.2791873068">
        <ele>133.28</ele>
        <time>2021-05-28T14:19:11Z</time>
      </trkpt>
      <trkpt lat="37.2658868507" lon="-8.2790485024">
        <ele>133.28</ele>
        <time>2021-05-28T14:19:12Z</time>
      </trkpt>
      <trkpt lat="37.2655850183" lon="-8.2787784375">
        <ele>134.72</ele>
        <time>2021-05-28T14:19:14Z</time>
      </trkpt>
      <trkpt lat="37.2649412043" lon="-8.2782243099">
        <ele>140.01</ele>
        <time>2021-05-28T14:19:18Z</time>
      </trkpt>
      <trkpt lat="37.2647749912" lon="-8.2780824043">
        <ele>139.53</ele>
        <time>2021-05-28T14:19:19Z</time>
      </trkpt>
      <trkpt lat="37.2635644767" lon="-8.2770236861">
        <ele>138.09</ele>
        <time>2021-05-28T14:19:27Z</time>
      </trkpt>
      <trkpt lat="37.2625724785" lon="-8.2762618549">
        <ele>140.97</ele>
        <time>2021-05-28T14:19:34Z</time>
      </trkpt>
      <trkpt lat="37.2609927412" lon="-8.2756264228">
        <ele>141.93</ele>
        <time>2021-05-28T14:19:43Z</time>
      </trkpt>
      <trkpt lat="37.2585947625" lon="-8.2749710418">
        <ele>140.97</ele>
        <time>2021-05-28T14:19:56Z</time>
      </trkpt>
      <trkpt lat="37.2579911817" lon="-8.2747901604">
        <ele>138.57</ele>
        <time>2021-05-28T14:19:59Z</time>
      </trkpt>
      <trkpt lat="37.2563807666" lon="-8.2742983103">
        <ele>135.68</ele>
        <time>2021-05-28T14:20:07Z</time>
      </trkpt>
      <trkpt lat="37.2546269372" lon="-8.2737787999">
        <ele>131.84</ele>
        <time>2021-05-28T14:20:16Z</time>
      </trkpt>
      <trkpt lat="37.2542865481" lon="-8.2736959867">
        <ele>130.88</ele>
        <time>2021-05-28T14:20:18Z</time>
      </trkpt>
      <trkpt lat="37.2534951288" lon="-8.2734708488">
        <ele>128.95</ele>
        <time>2021-05-28T14:20:23Z</time>
      </trkpt>
      <trkpt lat="37.2529397439" lon="-8.2733568549">
        <ele>125.11</ele>
        <time>2021-05-28T14:20:27Z</time>
      </trkpt>
      <trkpt lat="37.2524742968" lon="-8.2733052224">
        <ele>121.74</ele>
        <time>2021-05-28T14:20:31Z</time>
      </trkpt>
      <trkpt lat="37.2521492466" lon="-8.2732719462">
        <ele>118.86</ele>
        <time>2021-05-28T14:20:34Z</time>
      </trkpt>
      <trkpt lat="37.2517301515" lon="-8.2732622232">
        <ele>115.01</ele>
        <time>2021-05-28T14:20:38Z</time>
      </trkpt>
      <trkpt lat="37.2516403813" lon="-8.2732944097">
        <ele>113.57</ele>
        <time>2021-05-28T14:20:39Z</time>
      </trkpt>
      <trkpt lat="37.2515674587" lon="-8.2733457070">
        <ele>112.61</ele>
        <time>2021-05-28T14:20:40Z</time>
      </trkpt>
      <trkpt lat="37.2515107971" lon="-8.2734079845">
        <ele>111.65</ele>
        <time>2021-05-28T14:20:41Z</time>
      </trkpt>
      <trkpt lat="37.2514654510" lon="-8.2734810747">
        <ele>112.13</ele>
        <time>2021-05-28T14:20:42Z</time>
      </trkpt>
      <trkpt lat="37.2514279000" lon="-8.2735688332">
        <ele>112.13</ele>
        <time>2021-05-28T14:20:43Z</time>
      </trkpt>
      <trkpt lat="37.2513996530" lon="-8.2736738585">
        <ele>111.65</ele>
        <time>2021-05-28T14:20:44Z</time>
      </trkpt>
      <trkpt lat="37.2513851523" lon="-8.2737953123">
        <ele>111.65</ele>
        <time>2021-05-28T14:20:45Z</time>
      </trkpt>
      <trkpt lat="37.2513917740" lon="-8.2739314344">
        <ele>112.13</ele>
        <time>2021-05-28T14:20:46Z</time>
      </trkpt>
      <trkpt lat="37.2514213622" lon="-8.2740753517">
        <ele>112.13</ele>
        <time>2021-05-28T14:20:47Z</time>
      </trkpt>
      <trkpt lat="37.2514686361" lon="-8.2742207777">
        <ele>112.61</ele>
        <time>2021-05-28T14:20:48Z</time>
      </trkpt>
      <trkpt lat="37.2515237052" lon="-8.2743681315">
        <ele>113.57</ele>
        <time>2021-05-28T14:20:49Z</time>
      </trkpt>
      <trkpt lat="37.2515805345" lon="-8.2745211851">
        <ele>113.57</ele>
        <time>2021-05-28T14:20:50Z</time>
      </trkpt>
      <trkpt lat="37.2519502603" lon="-8.2755807415">
        <ele>115.50</ele>
        <time>2021-05-28T14:20:57Z</time>
      </trkpt>
      <trkpt lat="37.2521897312" lon="-8.2762963884">
        <ele>117.42</ele>
        <time>2021-05-28T14:21:02Z</time>
      </trkpt>
      <trkpt lat="37.2523250990" lon="-8.2767666131">
        <ele>120.78</ele>
        <time>2021-05-28T14:21:05Z</time>
      </trkpt>
      <trkpt lat="37.2523745522" lon="-8.2770881429">
        <ele>123.67</ele>
        <time>2021-05-28T14:21:07Z</time>
      </trkpt>
      <trkpt lat="37.2523806710" lon="-8.2772474829">
        <ele>124.15</ele>
        <time>2021-05-28T14:21:08Z</time>
      </trkpt>
      <trkpt lat="37.2523703612" lon="-8.2774050627">
        <ele>124.63</ele>
        <time>2021-05-28T14:21:09Z</time>
      </trkpt>
      <trkpt lat="37.2523485683" lon="-8.2775593735">
        <ele>125.59</ele>
        <time>2021-05-28T14:21:10Z</time>
      </trkpt>
      <trkpt lat="37.2523179743" lon="-8.2777095772">
        <ele>127.03</ele>
        <time>2021-05-28T14:21:11Z</time>
      </trkpt>
      <trkpt lat="37.2522803396" lon="-8.2778549194">
        <ele>127.51</ele>
        <time>2021-05-28T14:21:12Z</time>
      </trkpt>
      <trkpt lat="37.2522370052" lon="-8.2779964898">
        <ele>128.47</ele>
        <time>2021-05-28T14:21:13Z</time>
      </trkpt>
      <trkpt lat="37.2521867137" lon="-8.2781341206">
        <ele>129.43</ele>
        <time>2021-05-28T14:21:14Z</time>
      </trkpt>
      <trkpt lat="37.2520250268" lon="-8.2785385475">
        <ele>131.84</ele>
        <time>2021-05-28T14:21:17Z</time>
      </trkpt>
      <trkpt lat="37.2518253699" lon="-8.2790184952">
        <ele>134.24</ele>
        <time>2021-05-28T14:21:21Z</time>
      </trkpt>
      <trkpt lat="37.2516708914" lon="-8.2794352435">
        <ele>137.61</ele>
        <time>2021-05-28T14:21:25Z</time>
      </trkpt>
      <trkpt lat="37.2515395470" lon="-8.2798973378">
        <ele>141.45</ele>
        <time>2021-05-28T14:21:29Z</time>
      </trkpt>
      <trkpt lat="37.2514476813" lon="-8.2806776091">
        <ele>144.82</ele>
        <time>2021-05-28T14:21:35Z</time>
      </trkpt>
      <trkpt lat="37.2514148243" lon="-8.2810927648">
        <ele>147.70</ele>
        <time>2021-05-28T14:21:38Z</time>
      </trkpt>
      <trkpt lat="37.2512802947" lon="-8.2817056496">
        <ele>151.06</ele>
        <time>2021-05-28T14:21:43Z</time>
      </trkpt>
      <trkpt lat="37.2512354515" lon="-8.2818212360">
        <ele>151.54</ele>
        <time>2021-05-28T14:21:44Z</time>
      </trkpt>
      <trkpt lat="37.2511342820" lon="-8.2820520736">
        <ele>152.51</ele>
        <time>2021-05-28T14:21:46Z</time>
      </trkpt>
      <trkpt lat="37.2509767022" lon="-8.2824028563">
        <ele>154.43</ele>
        <time>2021-05-28T14:21:49Z</time>
      </trkpt>
      <trkpt lat="37.2504778113" lon="-8.2836180646">
        <ele>154.91</ele>
        <time>2021-05-28T14:22:00Z</time>
      </trkpt>
      <trkpt lat="37.2503946628" lon="-8.2847151719">
        <ele>154.43</ele>
        <time>2021-05-28T14:22:07Z</time>
      </trkpt>
      <trkpt lat="37.2505959962" lon="-8.2855795976">
        <ele>153.47</ele>
        <time>2021-05-28T14:22:14Z</time>
      </trkpt>
      <trkpt lat="37.2509840783" lon="-8.2863127626">
        <ele>152.51</ele>
        <time>2021-05-28T14:22:24Z</time>
      </trkpt>
      <trkpt lat="37.2513003275" lon="-8.2866325323">
        <ele>152.03</ele>
        <time>2021-05-28T14:22:34Z</time>
      </trkpt>
      <trkpt lat="37.2514024191" lon="-8.2866728492">
        <ele>152.99</ele>
        <time>2021-05-28T14:22:36Z</time>
      </trkpt>
      <trkpt lat="37.2514601704" lon="-8.2867214642">
        <ele>152.99</ele>
        <time>2021-05-28T14:22:37Z</time>
      </trkpt>
      <trkpt lat="37.2515146527" lon="-8.2867966499">
        <ele>152.99</ele>
        <time>2021-05-28T14:22:38Z</time>
      </trkpt>
      <trkpt lat="37.2515608370" lon="-8.2868835703">
        <ele>153.95</ele>
        <time>2021-05-28T14:22:39Z</time>
      </trkpt>
      <trkpt lat="37.2516066022" lon="-8.2869706582">
        <ele>153.95</ele>
        <time>2021-05-28T14:22:40Z</time>
      </trkpt>
      <trkpt lat="37.2516630124" lon="-8.2870573271">
        <ele>154.43</ele>
        <time>2021-05-28T14:22:41Z</time>
      </trkpt>
      <trkpt lat="37.2517308220" lon="-8.2871439122">
        <ele>154.91</ele>
        <time>2021-05-28T14:22:42Z</time>
      </trkpt>
      <trkpt lat="37.2518096957" lon="-8.2872340176">
        <ele>154.91</ele>
        <time>2021-05-28T14:22:43Z</time>
      </trkpt>
      <trkpt lat="37.2522789985" lon="-8.2877253648">
        <ele>158.75</ele>
        <time>2021-05-28T14:22:48Z</time>
      </trkpt>
      <trkpt lat="37.2523730434" lon="-8.2878204156">
        <ele>159.24</ele>
        <time>2021-05-28T14:22:49Z</time>
      </trkpt>
      <trkpt lat="37.2527728602" lon="-8.2882192265">
        <ele>163.56</ele>
        <time>2021-05-28T14:22:53Z</time>
      </trkpt>
      <trkpt lat="37.2532250639" lon="-8.2886729389">
        <ele>166.45</ele>
        <time>2021-05-28T14:22:57Z</time>
      </trkpt>
      <trkpt lat="37.2536247130" lon="-8.2891225442">
        <ele>170.29</ele>
        <time>2021-05-28T14:23:01Z</time>
      </trkpt>
      <trkpt lat="37.2539529484" lon="-8.2897459902">
        <ele>173.66</ele>
        <time>2021-05-28T14:23:06Z</time>
      </trkpt>
      <trkpt lat="37.2540961951" lon="-8.2902825158">
        <ele>177.02</ele>
        <time>2021-05-28T14:23:10Z</time>
      </trkpt>
      <trkpt lat="37.2542660125" lon="-8.2918806933">
        <ele>179.42</ele>
        <time>2021-05-28T14:23:22Z</time>
      </trkpt>
      <trkpt lat="37.2543851193" lon="-8.2922671828">
        <ele>179.90</ele>
        <time>2021-05-28T14:23:25Z</time>
      </trkpt>
      <trkpt lat="37.2544478159" lon="-8.2923986111">
        <ele>180.38</ele>
        <time>2021-05-28T14:23:26Z</time>
      </trkpt>
      <trkpt lat="37.2545212414" lon="-8.2925269380">
        <ele>179.42</ele>
        <time>2021-05-28T14:23:27Z</time>
      </trkpt>
      <trkpt lat="37.2546001989" lon="-8.2926487271">
        <ele>179.90</ele>
        <time>2021-05-28T14:23:28Z</time>
      </trkpt>
      <trkpt lat="37.2546794917" lon="-8.2927601226">
        <ele>178.46</ele>
        <time>2021-05-28T14:23:29Z</time>
      </trkpt>
      <trkpt lat="37.2547598742" lon="-8.2928685844">
        <ele>177.98</ele>
        <time>2021-05-28T14:23:30Z</time>
      </trkpt>
      <trkpt lat="37.2557316720" lon="-8.2941236906">
        <ele>175.10</ele>
        <time>2021-05-28T14:23:40Z</time>
      </trkpt>
      <trkpt lat="37.2562796809" lon="-8.2948405948">
        <ele>174.14</ele>
        <time>2021-05-28T14:23:45Z</time>
      </trkpt>
      <trkpt lat="37.2572039533" lon="-8.2964912429">
        <ele>172.21</ele>
        <time>2021-05-28T14:23:55Z</time>
      </trkpt>
      <trkpt lat="37.2575790435" lon="-8.2983046677">
        <ele>170.77</ele>
        <time>2021-05-28T14:24:05Z</time>
      </trkpt>
      <trkpt lat="37.2576758545" lon="-8.2989784889">
        <ele>166.93</ele>
        <time>2021-05-28T14:24:09Z</time>
      </trkpt>
      <trkpt lat="37.2578106355" lon="-8.3000002429">
        <ele>163.56</ele>
        <time>2021-05-28T14:24:14Z</time>
      </trkpt>
      <trkpt lat="37.2578756791" lon="-8.3004050050">
        <ele>162.12</ele>
        <time>2021-05-28T14:24:16Z</time>
      </trkpt>
      <trkpt lat="37.2579699755" lon="-8.3010101784">
        <ele>160.68</ele>
        <time>2021-05-28T14:24:19Z</time>
      </trkpt>
      <trkpt lat="37.2580854781" lon="-8.3017963171">
        <ele>156.83</ele>
        <time>2021-05-28T14:24:23Z</time>
      </trkpt>
      <trkpt lat="37.2581137251" lon="-8.3019730076">
        <ele>156.83</ele>
        <time>2021-05-28T14:24:24Z</time>
      </trkpt>
      <trkpt lat="37.2583319899" lon="-8.3038753644">
        <ele>154.91</ele>
        <time>2021-05-28T14:24:35Z</time>
      </trkpt>
      <trkpt lat="37.2582200076" lon="-8.3048008941">
        <ele>152.99</ele>
        <time>2021-05-28T14:24:41Z</time>
      </trkpt>
      <trkpt lat="37.2577349469" lon="-8.3065814618">
        <ele>153.95</ele>
        <time>2021-05-28T14:24:53Z</time>
      </trkpt>
      <trkpt lat="37.2575195320" lon="-8.3070941828">
        <ele>152.51</ele>
        <time>2021-05-28T14:24:57Z</time>
      </trkpt>
      <trkpt lat="37.2574752755" lon="-8.3071602322">
        <ele>152.51</ele>
        <time>2021-05-28T14:24:58Z</time>
      </trkpt>
      <trkpt lat="37.2574378923" lon="-8.3071838692">
        <ele>152.03</ele>
        <time>2021-05-28T14:24:59Z</time>
      </trkpt>
      <trkpt lat="37.2574105673" lon="-8.3071661834">
        <ele>151.54</ele>
        <time>2021-05-28T14:25:00Z</time>
      </trkpt>
      <trkpt lat="37.2573929653" lon="-8.3071362600">
        <ele>152.03</ele>
        <time>2021-05-28T14:25:01Z</time>
      </trkpt>
      <trkpt lat="37.2573890258" lon="-8.3071038220">
        <ele>151.06</ele>
        <time>2021-05-28T14:25:02Z</time>
      </trkpt>
      <trkpt lat="37.2573908698" lon="-8.3070833702">
        <ele>151.06</ele>
        <time>2021-05-28T14:25:03Z</time>
      </trkpt>
      <trkpt lat="37.2574445978" lon="-8.3070666064">
        <ele>151.06</ele>
        <time>2021-05-28T14:25:16Z</time>
      </trkpt>
      <trkpt lat="37.2574734315" lon="-8.3070387784">
        <ele>151.54</ele>
        <time>2021-05-28T14:25:31Z</time>
      </trkpt>
      <trkpt lat="37.2575310990" lon="-8.3070623316">
        <ele>151.54</ele>
        <time>2021-05-28T14:26:00Z</time>
      </trkpt>
      <trkpt lat="37.2575601842" lon="-8.3070727251">
        <ele>151.06</ele>
        <time>2021-05-28T14:26:30Z</time>
      </trkpt>
      <trkpt lat="37.2575712483" lon="-8.3070521057">
        <ele>151.06</ele>
        <time>2021-05-28T14:26:58Z</time>
      </trkpt>
      <trkpt lat="37.2575353738" lon="-8.3070531115">
        <ele>151.54</ele>
        <time>2021-05-28T14:27:36Z</time>
      </trkpt>
      <trkpt lat="37.2575259022" lon="-8.3070803527">
        <ele>152.51</ele>
        <time>2021-05-28T14:28:20Z</time>
      </trkpt>
      <trkpt lat="37.2575359605" lon="-8.3070717193">
        <ele>152.03</ele>
        <time>2021-05-28T14:29:06Z</time>
      </trkpt>
      <trkpt lat="37.2575368825" lon="-8.3070508484">
        <ele>152.51</ele>
        <time>2021-05-28T14:29:45Z</time>
      </trkpt>
      <trkpt lat="37.2575585917" lon="-8.3070401195">
        <ele>151.54</ele>
        <time>2021-05-28T14:30:28Z</time>
      </trkpt>
      <trkpt lat="37.2575528920" lon="-8.3070466574">
        <ele>151.54</ele>
        <time>2021-05-28T14:31:08Z</time>
      </trkpt>
      <trkpt lat="37.2575440910" lon="-8.3070397004">
        <ele>151.06</ele>
        <time>2021-05-28T14:31:44Z</time>
      </trkpt>
      <trkpt lat="37.2575644590" lon="-8.3070592303">
        <ele>151.06</ele>
        <time>2021-05-28T14:32:23Z</time>
      </trkpt>
      <trkpt lat="37.2575807199" lon="-8.3070446458">
        <ele>151.54</ele>
        <time>2021-05-28T14:33:09Z</time>
      </trkpt>
      <trkpt lat="37.2575821448" lon="-8.3070160635">
        <ele>151.54</ele>
        <time>2021-05-28T14:33:40Z</time>
      </trkpt>
      <trkpt lat="37.2575829830" lon="-8.3070098609">
        <ele>151.54</ele>
        <time>2021-05-28T14:34:13Z</time>
      </trkpt>
      <trkpt lat="37.2575233039" lon="-8.3070119563">
        <ele>152.03</ele>
        <time>2021-05-28T14:34:45Z</time>
      </trkpt>
      <trkpt lat="37.2575395647" lon="-8.3070209250">
        <ele>152.03</ele>
        <time>2021-05-28T14:35:10Z</time>
      </trkpt>
      <trkpt lat="37.2575443424" lon="-8.3070170693">
        <ele>151.54</ele>
        <time>2021-05-28T14:35:39Z</time>
      </trkpt>
      <trkpt lat="37.2574644629" lon="-8.3069693763">
        <ele>152.51</ele>
        <time>2021-05-28T14:36:33Z</time>
      </trkpt>
      <trkpt lat="37.2574422508" lon="-8.3069520257">
        <ele>151.06</ele>
        <time>2021-05-28T14:37:03Z</time>
      </trkpt>
      <trkpt lat="37.2574936319" lon="-8.3068749122">
        <ele>151.54</ele>
        <time>2021-05-28T14:37:21Z</time>
      </trkpt>
      <trkpt lat="37.2575378884" lon="-8.3068439830">
        <ele>151.06</ele>
        <time>2021-05-28T14:37:23Z</time>
      </trkpt>
      <trkpt lat="37.2575569991" lon="-8.3068441506">
        <ele>151.06</ele>
        <time>2021-05-28T14:37:24Z</time>
      </trkpt>
      <trkpt lat="37.2575789597" lon="-8.3068594895">
        <ele>151.06</ele>
        <time>2021-05-28T14:37:26Z</time>
      </trkpt>
      <trkpt lat="37.2575911134" lon="-8.3068693802">
        <ele>151.06</ele>
        <time>2021-05-28T14:37:27Z</time>
      </trkpt>
      <trkpt lat="37.2576013394" lon="-8.3068867307">
        <ele>151.54</ele>
        <time>2021-05-28T14:37:28Z</time>
      </trkpt>
      <trkpt lat="37.2576010041" lon="-8.3069208451">
        <ele>152.51</ele>
        <time>2021-05-28T14:37:29Z</time>
      </trkpt>
      <trkpt lat="37.2575834021" lon="-8.3069713879">
        <ele>152.99</ele>
        <time>2021-05-28T14:37:30Z</time>
      </trkpt>
      <trkpt lat="37.2575569991" lon="-8.3070386946">
        <ele>153.95</ele>
        <time>2021-05-28T14:37:31Z</time>
      </trkpt>
      <trkpt lat="37.2574869264" lon="-8.3072075900">
        <ele>154.43</ele>
        <time>2021-05-28T14:37:33Z</time>
      </trkpt>
      <trkpt lat="37.2570584435" lon="-8.3081051242">
        <ele>156.83</ele>
        <time>2021-05-28T14:37:41Z</time>
      </trkpt>
      <trkpt lat="37.2569692601" lon="-8.3082151785">
        <ele>158.75</ele>
        <time>2021-05-28T14:37:42Z</time>
      </trkpt>
      <trkpt lat="37.2568653245" lon="-8.3083236404">
        <ele>159.24</ele>
        <time>2021-05-28T14:37:43Z</time>
      </trkpt>
      <trkpt lat="37.2567514144" lon="-8.3084329404">
        <ele>159.72</ele>
        <time>2021-05-28T14:37:44Z</time>
      </trkpt>
      <trkpt lat="37.2565093450" lon="-8.3086490259">
        <ele>163.56</ele>
        <time>2021-05-28T14:37:46Z</time>
      </trkpt>
      <trkpt lat="37.2563857120" lon="-8.3087586612">
        <ele>161.16</ele>
        <time>2021-05-28T14:37:47Z</time>
      </trkpt>
      <trkpt lat="37.2561335005" lon="-8.3089629281">
        <ele>162.60</ele>
        <time>2021-05-28T14:37:49Z</time>
      </trkpt>
      <trkpt lat="37.2559977137" lon="-8.3090430591">
        <ele>162.60</ele>
        <time>2021-05-28T14:37:50Z</time>
      </trkpt>
      <trkpt lat="37.2558555566" lon="-8.3091015648">
        <ele>163.08</ele>
        <time>2021-05-28T14:37:51Z</time>
      </trkpt>
      <trkpt lat="37.2557031736" lon="-8.3091424685">
        <ele>164.52</ele>
        <time>2021-05-28T14:37:52Z</time>
      </trkpt>
      <trkpt lat="37.2555393074" lon="-8.3091769181">
        <ele>165.48</ele>
        <time>2021-05-28T14:37:53Z</time>
      </trkpt>
      <trkpt lat="37.2550539114" lon="-8.3092712983">
        <ele>168.85</ele>
        <time>2021-05-28T14:37:56Z</time>
      </trkpt>
      <trkpt lat="37.2547101695" lon="-8.3093426283">
        <ele>172.69</ele>
        <time>2021-05-28T14:37:58Z</time>
      </trkpt>
      <trkpt lat="37.2535660397" lon="-8.3095607255">
        <ele>176.54</ele>
        <time>2021-05-28T14:38:04Z</time>
      </trkpt>
      <trkpt lat="37.2533595096" lon="-8.3095985278">
        <ele>176.54</ele>
        <time>2021-05-28T14:38:05Z</time>
      </trkpt>
      <trkpt lat="37.2526199743" lon="-8.3097542636">
        <ele>176.06</ele>
        <time>2021-05-28T14:38:09Z</time>
      </trkpt>
      <trkpt lat="37.2524699382" lon="-8.3098225761">
        <ele>176.06</ele>
        <time>2021-05-28T14:38:10Z</time>
      </trkpt>
      <trkpt lat="37.2523400187" lon="-8.3099242486">
        <ele>177.02</ele>
        <time>2021-05-28T14:38:11Z</time>
      </trkpt>
      <trkpt lat="37.2522210795" lon="-8.3100600354">
        <ele>177.02</ele>
        <time>2021-05-28T14:38:12Z</time>
      </trkpt>
      <trkpt lat="37.2521059122" lon="-8.3102166932">
        <ele>178.46</ele>
        <time>2021-05-28T14:38:13Z</time>
      </trkpt>
      <trkpt lat="37.2519873083" lon="-8.3103842475">
        <ele>179.90</ele>
        <time>2021-05-28T14:38:14Z</time>
      </trkpt>
      <trkpt lat="37.2516070213" lon="-8.3109252155">
        <ele>182.79</ele>
        <time>2021-05-28T14:38:17Z</time>
      </trkpt>
      <trkpt lat="37.2511986550" lon="-8.3116153814">
        <ele>179.90</ele>
        <time>2021-05-28T14:38:21Z</time>
      </trkpt>
      <trkpt lat="37.2511414904" lon="-8.3117965981">
        <ele>179.90</ele>
        <time>2021-05-28T14:38:22Z</time>
      </trkpt>
      <trkpt lat="37.2511015926" lon="-8.3119940758">
        <ele>178.46</ele>
        <time>2021-05-28T14:38:23Z</time>
      </trkpt>
      <trkpt lat="37.2509584296" lon="-8.3133916743">
        <ele>177.02</ele>
        <time>2021-05-28T14:38:30Z</time>
      </trkpt>
      <trkpt lat="37.2509155981" lon="-8.3135521039">
        <ele>177.50</ele>
        <time>2021-05-28T14:38:31Z</time>
      </trkpt>
      <trkpt lat="37.2508518118" lon="-8.3136968594">
        <ele>177.02</ele>
        <time>2021-05-28T14:38:32Z</time>
      </trkpt>
      <trkpt lat="37.2507687472" lon="-8.3138225041">
        <ele>177.50</ele>
        <time>2021-05-28T14:38:33Z</time>
      </trkpt>
      <trkpt lat="37.2506601177" lon="-8.3139219973">
        <ele>177.50</ele>
        <time>2021-05-28T14:38:34Z</time>
      </trkpt>
      <trkpt lat="37.2505287733" lon="-8.3139886335">
        <ele>177.50</ele>
        <time>2021-05-28T14:38:35Z</time>
      </trkpt>
      <trkpt lat="37.2503859457" lon="-8.3140309621">
        <ele>178.94</ele>
        <time>2021-05-28T14:38:36Z</time>
      </trkpt>
      <trkpt lat="37.2502483148" lon="-8.3140610531">
        <ele>178.46</ele>
        <time>2021-05-28T14:38:37Z</time>
      </trkpt>
      <trkpt lat="37.2499465663" lon="-8.3141271863">
        <ele>176.54</ele>
        <time>2021-05-28T14:38:40Z</time>
      </trkpt>
      <trkpt lat="37.2498927545" lon="-8.3141550142">
        <ele>175.10</ele>
        <time>2021-05-28T14:38:41Z</time>
      </trkpt>
      <trkpt lat="37.2498677764" lon="-8.3141922299">
        <ele>174.14</ele>
        <time>2021-05-28T14:38:42Z</time>
      </trkpt>
      <trkpt lat="37.2498713806" lon="-8.3142335527">
        <ele>173.66</ele>
        <time>2021-05-28T14:38:43Z</time>
      </trkpt>
      <trkpt lat="37.2498986218" lon="-8.3142650686">
        <ele>172.69</ele>
        <time>2021-05-28T14:38:44Z</time>
      </trkpt>
      <trkpt lat="37.2499480750" lon="-8.3142851852">
        <ele>172.21</ele>
        <time>2021-05-28T14:38:45Z</time>
      </trkpt>
      <trkpt lat="37.2500140406" lon="-8.3142959140">
        <ele>172.69</ele>
        <time>2021-05-28T14:38:46Z</time>
      </trkpt>
      <trkpt lat="37.2500933334" lon="-8.3143060561">
        <ele>172.21</ele>
        <time>2021-05-28T14:38:47Z</time>
      </trkpt>
      <trkpt lat="37.2508062143" lon="-8.3144740295">
        <ele>169.33</ele>
        <time>2021-05-28T14:38:53Z</time>
      </trkpt>
      <trkpt lat="37.2509463597" lon="-8.3145684097">
        <ele>169.81</ele>
        <time>2021-05-28T14:38:54Z</time>
      </trkpt>
      <trkpt lat="37.2514007427" lon="-8.3149228804">
        <ele>166.45</ele>
        <time>2021-05-28T14:38:57Z</time>
      </trkpt>
      <trkpt lat="37.2520411201" lon="-8.3154144790">
        <ele>163.08</ele>
        <time>2021-05-28T14:39:01Z</time>
      </trkpt>
      <trkpt lat="37.2524302080" lon="-8.3157242741">
        <ele>159.24</ele>
        <time>2021-05-28T14:39:04Z</time>
      </trkpt>
      <trkpt lat="37.2526165377" lon="-8.3159136213">
        <ele>157.79</ele>
        <time>2021-05-28T14:39:06Z</time>
      </trkpt>
      <trkpt lat="37.2526752111" lon="-8.3160318062">
        <ele>157.31</ele>
        <time>2021-05-28T14:39:07Z</time>
      </trkpt>
      <trkpt lat="37.2527182940" lon="-8.3161733765">
        <ele>157.79</ele>
        <time>2021-05-28T14:39:08Z</time>
      </trkpt>
      <trkpt lat="37.2527540009" lon="-8.3163315430">
        <ele>158.27</ele>
        <time>2021-05-28T14:39:09Z</time>
      </trkpt>
      <trkpt lat="37.2527849302" lon="-8.3164982591">
        <ele>158.75</ele>
        <time>2021-05-28T14:39:10Z</time>
      </trkpt>
      <trkpt lat="37.2531347070" lon="-8.3176346775">
        <ele>161.64</ele>
        <time>2021-05-28T14:39:17Z</time>
      </trkpt>
      <trkpt lat="37.2533484455" lon="-8.3180635795">
        <ele>160.20</ele>
        <time>2021-05-28T14:39:20Z</time>
      </trkpt>
      <trkpt lat="37.2535350267" lon="-8.3184319641">
        <ele>159.72</ele>
        <time>2021-05-28T14:39:23Z</time>
      </trkpt>
      <trkpt lat="37.2536076978" lon="-8.3185252547">
        <ele>159.24</ele>
        <time>2021-05-28T14:39:24Z</time>
      </trkpt>
      <trkpt lat="37.2536935285" lon="-8.3186022006">
        <ele>160.20</ele>
        <time>2021-05-28T14:39:25Z</time>
      </trkpt>
      <trkpt lat="37.2537946980" lon="-8.3186683338">
        <ele>161.16</ele>
        <time>2021-05-28T14:39:26Z</time>
      </trkpt>
      <trkpt lat="37.2539099492" lon="-8.3187244926">
        <ele>161.16</ele>
        <time>2021-05-28T14:39:27Z</time>
      </trkpt>
      <trkpt lat="37.2544296272" lon="-8.3189964853">
        <ele>161.16</ele>
        <time>2021-05-28T14:39:32Z</time>
      </trkpt>
      <trkpt lat="37.2545098420" lon="-8.3190632891">
        <ele>162.12</ele>
        <time>2021-05-28T14:39:33Z</time>
      </trkpt>
      <trkpt lat="37.2546796594" lon="-8.3192351181">
        <ele>162.12</ele>
        <time>2021-05-28T14:39:35Z</time>
      </trkpt>
      <trkpt lat="37.2551212180" lon="-8.3197257109">
        <ele>161.16</ele>
        <time>2021-05-28T14:39:40Z</time>
      </trkpt>
      <trkpt lat="37.2552190349" lon="-8.3197822887">
        <ele>160.68</ele>
        <time>2021-05-28T14:39:41Z</time>
      </trkpt>
      <trkpt lat="37.2553237248" lon="-8.3198054228">
        <ele>160.68</ele>
        <time>2021-05-28T14:39:42Z</time>
      </trkpt>
      <trkpt lat="37.2554367129" lon="-8.3197910897">
        <ele>160.20</ele>
        <time>2021-05-28T14:39:43Z</time>
      </trkpt>
      <trkpt lat="37.2555603459" lon="-8.3197499346">
        <ele>160.20</ele>
        <time>2021-05-28T14:39:44Z</time>
      </trkpt>
      <trkpt lat="37.2556932829" lon="-8.3197010681">
        <ele>160.68</ele>
        <time>2021-05-28T14:39:45Z</time>
      </trkpt>
      <trkpt lat="37.2572125029" lon="-8.3191809710">
        <ele>159.24</ele>
        <time>2021-05-28T14:39:55Z</time>
      </trkpt>
      <trkpt lat="37.2578495275" lon="-8.3189806435">
        <ele>157.31</ele>
        <time>2021-05-28T14:39:59Z</time>
      </trkpt>
      <trkpt lat="37.2585117817" lon="-8.3188995905">
        <ele>153.47</ele>
        <time>2021-05-28T14:40:03Z</time>
      </trkpt>
      <trkpt lat="37.2589463834" lon="-8.3188655600">
        <ele>149.14</ele>
        <time>2021-05-28T14:40:06Z</time>
      </trkpt>
      <trkpt lat="37.2590936534" lon="-8.3188486286">
        <ele>149.14</ele>
        <time>2021-05-28T14:40:07Z</time>
      </trkpt>
      <trkpt lat="37.2598283272" lon="-8.3187674917">
        <ele>145.30</ele>
        <time>2021-05-28T14:40:12Z</time>
      </trkpt>
      <trkpt lat="37.2599548940" lon="-8.3187670726">
        <ele>144.34</ele>
        <time>2021-05-28T14:40:13Z</time>
      </trkpt>
      <trkpt lat="37.2600683849" lon="-8.3188011870">
        <ele>143.37</ele>
        <time>2021-05-28T14:40:14Z</time>
      </trkpt>
      <trkpt lat="37.2601685487" lon="-8.3188734390">
        <ele>141.93</ele>
        <time>2021-05-28T14:40:15Z</time>
      </trkpt>
      <trkpt lat="37.2602555528" lon="-8.3189823199">
        <ele>141.93</ele>
        <time>2021-05-28T14:40:16Z</time>
      </trkpt>
      <trkpt lat="37.2603311576" lon="-8.3191139158">
        <ele>142.89</ele>
        <time>2021-05-28T14:40:17Z</time>
      </trkpt>
      <trkpt lat="37.2604016494" lon="-8.3192525525">
        <ele>142.41</ele>
        <time>2021-05-28T14:40:18Z</time>
      </trkpt>
      <trkpt lat="37.2606739774" lon="-8.3197814506">
        <ele>141.93</ele>
        <time>2021-05-28T14:40:22Z</time>
      </trkpt>
      <trkpt lat="37.2607085947" lon="-8.3199238591">
        <ele>140.97</ele>
        <time>2021-05-28T14:40:23Z</time>
      </trkpt>
      <trkpt lat="37.2607147973" lon="-8.3200657647">
        <ele>139.53</ele>
        <time>2021-05-28T14:40:24Z</time>
      </trkpt>
      <trkpt lat="37.2606995422" lon="-8.3202018868">
        <ele>138.57</ele>
        <time>2021-05-28T14:40:25Z</time>
      </trkpt>
      <trkpt lat="37.2606736422" lon="-8.3203311358">
        <ele>138.09</ele>
        <time>2021-05-28T14:40:26Z</time>
      </trkpt>
      <trkpt lat="37.2605619952" lon="-8.3208470419">
        <ele>134.72</ele>
        <time>2021-05-28T14:40:31Z</time>
      </trkpt>
      <trkpt lat="37.2605295572" lon="-8.3209578507">
        <ele>133.76</ele>
        <time>2021-05-28T14:40:33Z</time>
      </trkpt>
      <trkpt lat="37.2604803555" lon="-8.3212105650">
        <ele>132.32</ele>
        <time>2021-05-28T14:40:44Z</time>
      </trkpt>
      <trkpt lat="37.2604819480" lon="-8.3212440927">
        <ele>132.32</ele>
        <time>2021-05-28T14:40:55Z</time>
      </trkpt>
      <trkpt lat="37.2604898270" lon="-8.3212576713">
        <ele>132.32</ele>
        <time>2021-05-28T14:40:56Z</time>
      </trkpt>
      <trkpt lat="37.2604795173" lon="-8.3212709147">
        <ele>132.80</ele>
        <time>2021-05-28T14:41:08Z</time>
      </trkpt>
      <trkpt lat="37.2604833730" lon="-8.3212747704">
        <ele>132.80</ele>
        <time>2021-05-28T14:41:24Z</time>
      </trkpt>
      <trkpt lat="37.2604738176" lon="-8.3212785423">
        <ele>132.32</ele>
        <time>2021-05-28T14:41:47Z</time>
      </trkpt>
      <trkpt lat="37.2604657710" lon="-8.3212749381">
        <ele>131.84</ele>
        <time>2021-05-28T14:42:08Z</time>
      </trkpt>
      <trkpt lat="37.2604597360" lon="-8.3212686516">
        <ele>132.32</ele>
        <time>2021-05-28T14:42:54Z</time>
      </trkpt>
      <trkpt lat="37.2604558803" lon="-8.3212662209">
        <ele>131.84</ele>
        <time>2021-05-28T14:43:24Z</time>
      </trkpt>
      <trkpt lat="37.2604706325" lon="-8.3212627005">
        <ele>132.80</ele>
        <time>2021-05-28T14:43:59Z</time>
      </trkpt>
      <trkpt lat="37.2604698781" lon="-8.3212621976">
        <ele>132.32</ele>
        <time>2021-05-28T14:44:29Z</time>
      </trkpt>
      <trkpt lat="37.2604573052" lon="-8.3212711662">
        <ele>131.84</ele>
        <time>2021-05-28T14:44:33Z</time>
      </trkpt>
      <trkpt lat="37.2604427207" lon="-8.3212875109">
        <ele>132.80</ele>
        <time>2021-05-28T14:44:34Z</time>
      </trkpt>
      <trkpt lat="37.2604192514" lon="-8.3213282470">
        <ele>133.28</ele>
        <time>2021-05-28T14:44:35Z</time>
      </trkpt>
      <trkpt lat="37.2603900824" lon="-8.3213974815">
        <ele>132.80</ele>
        <time>2021-05-28T14:44:36Z</time>
      </trkpt>
      <trkpt lat="37.2603630926" lon="-8.3214874193">
        <ele>133.28</ele>
        <time>2021-05-28T14:44:37Z</time>
      </trkpt>
      <trkpt lat="37.2603371087" lon="-8.3215897623">
        <ele>133.28</ele>
        <time>2021-05-28T14:44:38Z</time>
      </trkpt>
      <trkpt lat="37.2600677144" lon="-8.3225498255">
        <ele>132.32</ele>
        <time>2021-05-28T14:44:45Z</time>
      </trkpt>
      <trkpt lat="37.2600382101" lon="-8.3226623945">
        <ele>132.32</ele>
        <time>2021-05-28T14:44:46Z</time>
      </trkpt>
      <trkpt lat="37.2598017566" lon="-8.3236041013">
        <ele>132.32</ele>
        <time>2021-05-28T14:44:53Z</time>
      </trkpt>
      <trkpt lat="37.2597918659" lon="-8.3237762656">
        <ele>132.32</ele>
        <time>2021-05-28T14:44:54Z</time>
      </trkpt>
      <trkpt lat="37.2597483639" lon="-8.3254438452">
        <ele>132.32</ele>
        <time>2021-05-28T14:45:02Z</time>
      </trkpt>
      <trkpt lat="37.2597551532" lon="-8.3256545663">
        <ele>132.80</ele>
        <time>2021-05-28T14:45:03Z</time>
      </trkpt>
      <trkpt lat="37.2597771138" lon="-8.3258665446">
        <ele>132.80</ele>
        <time>2021-05-28T14:45:04Z</time>
      </trkpt>
      <trkpt lat="37.2598146647" lon="-8.3260840550">
        <ele>133.76</ele>
        <time>2021-05-28T14:45:05Z</time>
      </trkpt>
      <trkpt lat="37.2600372881" lon="-8.3271340560">
        <ele>132.32</ele>
        <time>2021-05-28T14:45:10Z</time>
      </trkpt>
      <trkpt lat="37.2600609250" lon="-8.3273403347">
        <ele>132.80</ele>
        <time>2021-05-28T14:45:11Z</time>
      </trkpt>
      <trkpt lat="37.2600714024" lon="-8.3275559172">
        <ele>132.80</ele>
        <time>2021-05-28T14:45:12Z</time>
      </trkpt>
      <trkpt lat="37.2600491904" lon="-8.3296801429">
        <ele>133.28</ele>
        <time>2021-05-28T14:45:21Z</time>
      </trkpt>
      <trkpt lat="37.2598059475" lon="-8.3318807278">
        <ele>132.32</ele>
        <time>2021-05-28T14:45:29Z</time>
      </trkpt>
      <trkpt lat="37.2596625332" lon="-8.3329907432">
        <ele>131.36</ele>
        <time>2021-05-28T14:45:33Z</time>
      </trkpt>
      <trkpt lat="37.2591478005" lon="-8.3350447286">
        <ele>127.03</ele>
        <time>2021-05-28T14:45:41Z</time>
      </trkpt>
      <trkpt lat="37.2590550128" lon="-8.3352773264">
        <ele>127.03</ele>
        <time>2021-05-28T14:45:42Z</time>
      </trkpt>
      <trkpt lat="37.2584372666" lon="-8.3366581611">
        <ele>123.19</ele>
        <time>2021-05-28T14:45:48Z</time>
      </trkpt>
      <trkpt lat="37.2581015714" lon="-8.3372255322">
        <ele>119.82</ele>
        <time>2021-05-28T14:45:51Z</time>
      </trkpt>
      <trkpt lat="37.2578232922" lon="-8.3377478924">
        <ele>117.42</ele>
        <time>2021-05-28T14:45:54Z</time>
      </trkpt>
      <trkpt lat="37.2577543929" lon="-8.3379453700">
        <ele>118.86</ele>
        <time>2021-05-28T14:45:55Z</time>
      </trkpt>
      <trkpt lat="37.2576978151" lon="-8.3381543308">
        <ele>118.38</ele>
        <time>2021-05-28T14:45:56Z</time>
      </trkpt>
      <trkpt lat="37.2574277502" lon="-8.3390737418">
        <ele>115.98</ele>
        <time>2021-05-28T14:46:01Z</time>
      </trkpt>
      <trkpt lat="37.2573435958" lon="-8.3392346743">
        <ele>116.46</ele>
        <time>2021-05-28T14:46:02Z</time>
      </trkpt>
      <trkpt lat="37.2567222454" lon="-8.3402839210">
        <ele>111.17</ele>
        <time>2021-05-28T14:46:09Z</time>
      </trkpt>
      <trkpt lat="37.2566543519" lon="-8.3403832465">
        <ele>110.69</ele>
        <time>2021-05-28T14:46:10Z</time>
      </trkpt>
      <trkpt lat="37.2565771546" lon="-8.3404681552">
        <ele>110.21</ele>
        <time>2021-05-28T14:46:11Z</time>
      </trkpt>
      <trkpt lat="37.2564904857" lon="-8.3405466098">
        <ele>110.21</ele>
        <time>2021-05-28T14:46:12Z</time>
      </trkpt>
      <trkpt lat="37.2556346096" lon="-8.3415204193">
        <ele>112.61</ele>
        <time>2021-05-28T14:46:21Z</time>
      </trkpt>
      <trkpt lat="37.2550292686" lon="-8.3424412552">
        <ele>113.09</ele>
        <time>2021-05-28T14:46:27Z</time>
      </trkpt>
      <trkpt lat="37.2542625759" lon="-8.3439374249">
        <ele>114.05</ele>
        <time>2021-05-28T14:46:35Z</time>
      </trkpt>
      <trkpt lat="37.2541719675" lon="-8.3441394288">
        <ele>113.09</ele>
        <time>2021-05-28T14:46:36Z</time>
      </trkpt>
      <trkpt lat="37.2540677804" lon="-8.3443305362">
        <ele>112.13</ele>
        <time>2021-05-28T14:46:37Z</time>
      </trkpt>
      <trkpt lat="37.2539571393" lon="-8.3445130102">
        <ele>112.13</ele>
        <time>2021-05-28T14:46:38Z</time>
      </trkpt>
      <trkpt lat="37.2535600886" lon="-8.3451796230">
        <ele>111.65</ele>
        <time>2021-05-28T14:46:42Z</time>
      </trkpt>
      <trkpt lat="37.2534986492" lon="-8.3453517873">
        <ele>112.13</ele>
        <time>2021-05-28T14:46:43Z</time>
      </trkpt>
      <trkpt lat="37.2534500342" lon="-8.3455206826">
        <ele>110.21</ele>
        <time>2021-05-28T14:46:44Z</time>
      </trkpt>
      <trkpt lat="37.2533614375" lon="-8.3458288852">
        <ele>110.21</ele>
        <time>2021-05-28T14:46:46Z</time>
      </trkpt>
      <trkpt lat="37.2532958072" lon="-8.3459703717">
        <ele>109.73</ele>
        <time>2021-05-28T14:46:47Z</time>
      </trkpt>
      <trkpt lat="37.2532167658" lon="-8.3461024705">
        <ele>109.73</ele>
        <time>2021-05-28T14:46:48Z</time>
      </trkpt>
      <trkpt lat="37.2524426971" lon="-8.3472217061">
        <ele>105.88</ele>
        <time>2021-05-28T14:46:57Z</time>
      </trkpt>
      <trkpt lat="37.2522868775" lon="-8.3474224526">
        <ele>105.40</ele>
        <time>2021-05-28T14:46:59Z</time>
      </trkpt>
      <trkpt lat="37.2517688759" lon="-8.3482011314">
        <ele>103.48</ele>
        <time>2021-05-28T14:47:07Z</time>
      </trkpt>
      <trkpt lat="37.2512196936" lon="-8.3490674850">
        <ele>101.56</ele>
        <time>2021-05-28T14:47:15Z</time>
      </trkpt>
      <trkpt lat="37.2510973178" lon="-8.3493067883">
        <ele>101.56</ele>
        <time>2021-05-28T14:47:17Z</time>
      </trkpt>
      <trkpt lat="37.2510100622" lon="-8.3494235482">
        <ele>102.52</ele>
        <time>2021-05-28T14:47:18Z</time>
      </trkpt>
      <trkpt lat="37.2509172745" lon="-8.3495511208">
        <ele>103.00</ele>
        <time>2021-05-28T14:47:19Z</time>
      </trkpt>
      <trkpt lat="37.2508356348" lon="-8.3496938646">
        <ele>103.96</ele>
        <time>2021-05-28T14:47:20Z</time>
      </trkpt>
      <trkpt lat="37.2507674061" lon="-8.3498532046">
        <ele>104.92</ele>
        <time>2021-05-28T14:47:21Z</time>
      </trkpt>
      <trkpt lat="37.2507118341" lon="-8.3500246145">
        <ele>105.88</ele>
        <time>2021-05-28T14:47:22Z</time>
      </trkpt>
      <trkpt lat="37.2506670747" lon="-8.3501882292">
        <ele>105.88</ele>
        <time>2021-05-28T14:47:23Z</time>
      </trkpt>
      <trkpt lat="37.2506166995" lon="-8.3503377624">
        <ele>105.40</ele>
        <time>2021-05-28T14:47:24Z</time>
      </trkpt>
      <trkpt lat="37.2505482193" lon="-8.3504706156">
        <ele>105.88</ele>
        <time>2021-05-28T14:47:25Z</time>
      </trkpt>
      <trkpt lat="37.2504598740" lon="-8.3505903091">
        <ele>105.40</ele>
        <time>2021-05-28T14:47:26Z</time>
      </trkpt>
      <trkpt lat="37.2503476404" lon="-8.3506892156">
        <ele>106.84</ele>
        <time>2021-05-28T14:47:27Z</time>
      </trkpt>
      <trkpt lat="37.2502303775" lon="-8.3507724479">
        <ele>106.36</ele>
        <time>2021-05-28T14:47:28Z</time>
      </trkpt>
      <trkpt lat="37.2500182316" lon="-8.3509572688">
        <ele>104.92</ele>
        <time>2021-05-28T14:47:30Z</time>
      </trkpt>
      <trkpt lat="37.2499160562" lon="-8.3510803152">
        <ele>105.40</ele>
        <time>2021-05-28T14:47:31Z</time>
      </trkpt>
      <trkpt lat="37.2497078497" lon="-8.3513563313">
        <ele>106.36</ele>
        <time>2021-05-28T14:47:33Z</time>
      </trkpt>
      <trkpt lat="37.2488150094" lon="-8.3522806875">
        <ele>103.48</ele>
        <time>2021-05-28T14:47:40Z</time>
      </trkpt>
      <trkpt lat="37.2487161867" lon="-8.3524479065">
        <ele>103.48</ele>
        <time>2021-05-28T14:47:41Z</time>
      </trkpt>
      <trkpt lat="37.2486321162" lon="-8.3526396006">
        <ele>104.44</ele>
        <time>2021-05-28T14:47:42Z</time>
      </trkpt>
      <trkpt lat="37.2485586908" lon="-8.3528573625">
        <ele>103.96</ele>
        <time>2021-05-28T14:47:43Z</time>
      </trkpt>
      <trkpt lat="37.2484898753" lon="-8.3530819975">
        <ele>106.36</ele>
        <time>2021-05-28T14:47:44Z</time>
      </trkpt>
      <trkpt lat="37.2478749789" lon="-8.3546080906">
        <ele>103.96</ele>
        <time>2021-05-28T14:47:52Z</time>
      </trkpt>
      <trkpt lat="37.2475420497" lon="-8.3553491347">
        <ele>103.48</ele>
        <time>2021-05-28T14:47:58Z</time>
      </trkpt>
      <trkpt lat="37.2475187480" lon="-8.3554592729">
        <ele>102.52</ele>
        <time>2021-05-28T14:47:59Z</time>
      </trkpt>
      <trkpt lat="37.2475039121" lon="-8.3555667289">
        <ele>102.04</ele>
        <time>2021-05-28T14:48:00Z</time>
      </trkpt>
      <trkpt lat="37.2474956978" lon="-8.3556684852">
        <ele>102.52</ele>
        <time>2021-05-28T14:48:01Z</time>
      </trkpt>
      <trkpt lat="37.2474941052" lon="-8.3557616919">
        <ele>102.04</ele>
        <time>2021-05-28T14:48:02Z</time>
      </trkpt>
      <trkpt lat="37.2474956978" lon="-8.3558356203">
        <ele>101.56</ele>
        <time>2021-05-28T14:48:03Z</time>
      </trkpt>
      <trkpt lat="37.2474798560" lon="-8.3561735786">
        <ele>100.60</ele>
        <time>2021-05-28T14:48:09Z</time>
      </trkpt>
      <trkpt lat="37.2474590689" lon="-8.3562698029">
        <ele>101.08</ele>
        <time>2021-05-28T14:48:10Z</time>
      </trkpt>
      <trkpt lat="37.2474237811" lon="-8.3563724812">
        <ele>102.04</ele>
        <time>2021-05-28T14:48:11Z</time>
      </trkpt>
      <trkpt lat="37.2473722324" lon="-8.3564738184">
        <ele>102.04</ele>
        <time>2021-05-28T14:48:12Z</time>
      </trkpt>
      <trkpt lat="37.2473041713" lon="-8.3565769996">
        <ele>102.04</ele>
        <time>2021-05-28T14:48:13Z</time>
      </trkpt>
      <trkpt lat="37.2472226154" lon="-8.3566883113">
        <ele>103.00</ele>
        <time>2021-05-28T14:48:14Z</time>
      </trkpt>
      <trkpt lat="37.2469683923" lon="-8.3570784051">
        <ele>103.00</ele>
        <time>2021-05-28T14:48:17Z</time>
      </trkpt>
      <trkpt lat="37.2468935419" lon="-8.3572435286">
        <ele>104.44</ele>
        <time>2021-05-28T14:48:18Z</time>
      </trkpt>
      <trkpt lat="37.2468252294" lon="-8.3574284334">
        <ele>104.44</ele>
        <time>2021-05-28T14:48:19Z</time>
      </trkpt>
      <trkpt lat="37.2466816474" lon="-8.3577847481">
        <ele>104.44</ele>
        <time>2021-05-28T14:48:21Z</time>
      </trkpt>
      <trkpt lat="37.2465882730" lon="-8.3579419926">
        <ele>103.96</ele>
        <time>2021-05-28T14:48:22Z</time>
      </trkpt>
      <trkpt lat="37.2464824934" lon="-8.3580765221">
        <ele>104.44</ele>
        <time>2021-05-28T14:48:23Z</time>
      </trkpt>
      <trkpt lat="37.2459728736" lon="-8.3586993814">
        <ele>103.96</ele>
        <time>2021-05-28T14:48:28Z</time>
      </trkpt>
      <trkpt lat="37.2458887193" lon="-8.3588537760">
        <ele>104.92</ele>
        <time>2021-05-28T14:48:29Z</time>
      </trkpt>
      <trkpt lat="37.2457185667" lon="-8.3591997810">
        <ele>106.84</ele>
        <time>2021-05-28T14:48:31Z</time>
      </trkpt>
      <trkpt lat="37.2452556342" lon="-8.3601154201">
        <ele>110.69</ele>
        <time>2021-05-28T14:48:36Z</time>
      </trkpt>
      <trkpt lat="37.2451415565" lon="-8.3602709882">
        <ele>111.65</ele>
        <time>2021-05-28T14:48:37Z</time>
      </trkpt>
      <trkpt lat="37.2450133134" lon="-8.3604082838">
        <ele>112.13</ele>
        <time>2021-05-28T14:48:38Z</time>
      </trkpt>
      <trkpt lat="37.2448818851" lon="-8.3605215233">
        <ele>113.09</ele>
        <time>2021-05-28T14:48:39Z</time>
      </trkpt>
      <trkpt lat="37.2447613534" lon="-8.3606185857">
        <ele>112.61</ele>
        <time>2021-05-28T14:48:40Z</time>
      </trkpt>
      <trkpt lat="37.2446497064" lon="-8.3607222699">
        <ele>112.13</ele>
        <time>2021-05-28T14:48:41Z</time>
      </trkpt>
      <trkpt lat="37.2445446812" lon="-8.3608452324">
        <ele>113.57</ele>
        <time>2021-05-28T14:48:42Z</time>
      </trkpt>
      <trkpt lat="37.2444475349" lon="-8.3609882277">
        <ele>116.46</ele>
        <time>2021-05-28T14:48:43Z</time>
      </trkpt>
      <trkpt lat="37.2443612851" lon="-8.3611448016">
        <ele>116.94</ele>
        <time>2021-05-28T14:48:44Z</time>
      </trkpt>
      <trkpt lat="37.2442845069" lon="-8.3613065723">
        <ele>117.90</ele>
        <time>2021-05-28T14:48:45Z</time>
      </trkpt>
      <trkpt lat="37.2440861072" lon="-8.3617612068">
        <ele>118.86</ele>
        <time>2021-05-28T14:48:48Z</time>
      </trkpt>
      <trkpt lat="37.2440456226" lon="-8.3619147632">
        <ele>119.82</ele>
        <time>2021-05-28T14:48:49Z</time>
      </trkpt>
      <trkpt lat="37.2440196387" lon="-8.3620913699">
        <ele>120.78</ele>
        <time>2021-05-28T14:48:50Z</time>
      </trkpt>
      <trkpt lat="37.2440028749" lon="-8.3622800466">
        <ele>120.78</ele>
        <time>2021-05-28T14:48:51Z</time>
      </trkpt>
      <trkpt lat="37.2439418547" lon="-8.3633161336">
        <ele>117.90</ele>
        <time>2021-05-28T14:48:56Z</time>
      </trkpt>
      <trkpt lat="37.2439124342" lon="-8.3637281042">
        <ele>114.05</ele>
        <time>2021-05-28T14:48:58Z</time>
      </trkpt>
      <trkpt lat="37.2438830137" lon="-8.3639213908">
        <ele>112.13</ele>
        <time>2021-05-28T14:48:59Z</time>
      </trkpt>
      <trkpt lat="37.2438292019" lon="-8.3641125821">
        <ele>110.69</ele>
        <time>2021-05-28T14:49:00Z</time>
      </trkpt>
      <trkpt lat="37.2437516693" lon="-8.3643067069">
        <ele>110.69</ele>
        <time>2021-05-28T14:49:01Z</time>
      </trkpt>
      <trkpt lat="37.2433853801" lon="-8.3650977910">
        <ele>105.88</ele>
        <time>2021-05-28T14:49:05Z</time>
      </trkpt>
      <trkpt lat="37.2432257049" lon="-8.3654480707">
        <ele>101.56</ele>
        <time>2021-05-28T14:49:07Z</time>
      </trkpt>
      <trkpt lat="37.2431462444" lon="-8.3655955922">
        <ele>99.63</ele>
        <time>2021-05-28T14:49:08Z</time>
      </trkpt>
      <trkpt lat="37.2430506069" lon="-8.3657198958">
        <ele>97.71</ele>
        <time>2021-05-28T14:49:09Z</time>
      </trkpt>
      <trkpt lat="37.2429275606" lon="-8.3658270165">
        <ele>97.23</ele>
        <time>2021-05-28T14:49:10Z</time>
      </trkpt>
      <trkpt lat="37.2424088046" lon="-8.3661928866">
        <ele>93.39</ele>
        <time>2021-05-28T14:49:14Z</time>
      </trkpt>
      <trkpt lat="37.2423117422" lon="-8.3662576787">
        <ele>91.94</ele>
        <time>2021-05-28T14:49:15Z</time>
      </trkpt>
      <trkpt lat="37.2422286775" lon="-8.3662957326">
        <ele>90.50</ele>
        <time>2021-05-28T14:49:16Z</time>
      </trkpt>
      <trkpt lat="37.2421508096" lon="-8.3662955649">
        <ele>89.06</ele>
        <time>2021-05-28T14:49:17Z</time>
      </trkpt>
      <trkpt lat="37.2420791443" lon="-8.3662605286">
        <ele>88.10</ele>
        <time>2021-05-28T14:49:18Z</time>
      </trkpt>
      <trkpt lat="37.2420099098" lon="-8.3662213851">
        <ele>88.10</ele>
        <time>2021-05-28T14:49:19Z</time>
      </trkpt>
      <trkpt lat="37.2419395857" lon="-8.3662084769">
        <ele>87.14</ele>
        <time>2021-05-28T14:49:20Z</time>
      </trkpt>
      <trkpt lat="37.2418756317" lon="-8.3662342932">
        <ele>86.66</ele>
        <time>2021-05-28T14:49:21Z</time>
      </trkpt>
      <trkpt lat="37.2418344766" lon="-8.3663014323">
        <ele>86.66</ele>
        <time>2021-05-28T14:49:22Z</time>
      </trkpt>
      <trkpt lat="37.2418295313" lon="-8.3663984947">
        <ele>86.18</ele>
        <time>2021-05-28T14:49:23Z</time>
      </trkpt>
      <trkpt lat="37.2418561857" lon="-8.3665031847">
        <ele>87.14</ele>
        <time>2021-05-28T14:49:24Z</time>
      </trkpt>
      <trkpt lat="37.2419002745" lon="-8.3666035999">
        <ele>86.18</ele>
        <time>2021-05-28T14:49:25Z</time>
      </trkpt>
      <trkpt lat="37.2419389989" lon="-8.3667147439">
        <ele>86.18</ele>
        <time>2021-05-28T14:49:26Z</time>
      </trkpt>
      <trkpt lat="37.2419517394" lon="-8.3668543864">
        <ele>85.69</ele>
        <time>2021-05-28T14:49:27Z</time>
      </trkpt>
      <trkpt lat="37.2419424355" lon="-8.3670201804">
        <ele>85.69</ele>
        <time>2021-05-28T14:49:28Z</time>
      </trkpt>
      <trkpt lat="37.2419240791" lon="-8.3672003914">
        <ele>86.18</ele>
        <time>2021-05-28T14:49:29Z</time>
      </trkpt>
      <trkpt lat="37.2417096701" lon="-8.3684389014">
        <ele>80.89</ele>
        <time>2021-05-28T14:49:35Z</time>
      </trkpt>
      <trkpt lat="37.2416775674" lon="-8.3686453477">
        <ele>81.37</ele>
        <time>2021-05-28T14:49:36Z</time>
      </trkpt>
      <trkpt lat="37.2416096739" lon="-8.3692622557">
        <ele>78.00</ele>
        <time>2021-05-28T14:49:39Z</time>
      </trkpt>
      <trkpt lat="37.2415638249" lon="-8.3695377689">
        <ele>74.16</ele>
        <time>2021-05-28T14:49:41Z</time>
      </trkpt>
      <trkpt lat="37.2415245138" lon="-8.3696002979">
        <ele>72.72</ele>
        <time>2021-05-28T14:49:42Z</time>
      </trkpt>
      <trkpt lat="37.2414747253" lon="-8.3696240187">
        <ele>71.76</ele>
        <time>2021-05-28T14:49:43Z</time>
      </trkpt>
      <trkpt lat="37.2414220031" lon="-8.3696294669">
        <ele>71.76</ele>
        <time>2021-05-28T14:49:44Z</time>
      </trkpt>
      <trkpt lat="37.2413639165" lon="-8.3696227614">
        <ele>72.72</ele>
        <time>2021-05-28T14:49:45Z</time>
      </trkpt>
      <trkpt lat="37.2412978671" lon="-8.3696275391">
        <ele>73.68</ele>
        <time>2021-05-28T14:49:46Z</time>
      </trkpt>
      <trkpt lat="37.2412353382" lon="-8.3696657605">
        <ele>75.60</ele>
        <time>2021-05-28T14:49:47Z</time>
      </trkpt>
      <trkpt lat="37.2411936801" lon="-8.3697409462">
        <ele>77.04</ele>
        <time>2021-05-28T14:49:48Z</time>
      </trkpt>
      <trkpt lat="37.2411815263" lon="-8.3698453009">
        <ele>78.48</ele>
        <time>2021-05-28T14:49:49Z</time>
      </trkpt>
      <trkpt lat="37.2411863878" lon="-8.3699745499">
        <ele>78.97</ele>
        <time>2021-05-28T14:49:50Z</time>
      </trkpt>
      <trkpt lat="37.2411786765" lon="-8.3701074030">
        <ele>80.89</ele>
        <time>2021-05-28T14:49:51Z</time>
      </trkpt>
      <trkpt lat="37.2411529440" lon="-8.3702433575">
        <ele>79.93</ele>
        <time>2021-05-28T14:49:52Z</time>
      </trkpt>
      <trkpt lat="37.2411369346" lon="-8.3703954890">
        <ele>80.89</ele>
        <time>2021-05-28T14:49:53Z</time>
      </trkpt>
      <trkpt lat="37.2411371861" lon="-8.3705661446">
        <ele>82.33</ele>
        <time>2021-05-28T14:49:54Z</time>
      </trkpt>
      <trkpt lat="37.2411357611" lon="-8.3707492892">
        <ele>82.81</ele>
        <time>2021-05-28T14:49:55Z</time>
      </trkpt>
      <trkpt lat="37.2411123756" lon="-8.3710821345">
        <ele>83.29</ele>
        <time>2021-05-28T14:49:57Z</time>
      </trkpt>
      <trkpt lat="37.2410750762" lon="-8.3712192625">
        <ele>83.29</ele>
        <time>2021-05-28T14:49:58Z</time>
      </trkpt>
      <trkpt lat="37.2410138045" lon="-8.3713338431">
        <ele>81.85</ele>
        <time>2021-05-28T14:49:59Z</time>
      </trkpt>
      <trkpt lat="37.2409595735" lon="-8.3714446519">
        <ele>81.37</ele>
        <time>2021-05-28T14:50:00Z</time>
      </trkpt>
      <trkpt lat="37.2409331705" lon="-8.3715614956">
        <ele>81.85</ele>
        <time>2021-05-28T14:50:01Z</time>
      </trkpt>
      <trkpt lat="37.2409280576" lon="-8.3716917504">
        <ele>82.33</ele>
        <time>2021-05-28T14:50:02Z</time>
      </trkpt>
      <trkpt lat="37.2409168258" lon="-8.3718216699">
        <ele>82.81</ele>
        <time>2021-05-28T14:50:03Z</time>
      </trkpt>
      <trkpt lat="37.2408763412" lon="-8.3719429560">
        <ele>83.77</ele>
        <time>2021-05-28T14:50:04Z</time>
      </trkpt>
      <trkpt lat="37.2408076096" lon="-8.3720587101">
        <ele>84.73</ele>
        <time>2021-05-28T14:50:05Z</time>
      </trkpt>
      <trkpt lat="37.2407283168" lon="-8.3721775655">
        <ele>85.69</ele>
        <time>2021-05-28T14:50:06Z</time>
      </trkpt>
      <trkpt lat="37.2404870857" lon="-8.3724808227">
        <ele>85.69</ele>
        <time>2021-05-28T14:50:09Z</time>
      </trkpt>
      <trkpt lat="37.2404053621" lon="-8.3725420106">
        <ele>84.25</ele>
        <time>2021-05-28T14:50:10Z</time>
      </trkpt>
      <trkpt lat="37.2403254826" lon="-8.3725581039">
        <ele>83.29</ele>
        <time>2021-05-28T14:50:11Z</time>
      </trkpt>
      <trkpt lat="37.2402493749" lon="-8.3725183737">
        <ele>83.77</ele>
        <time>2021-05-28T14:50:12Z</time>
      </trkpt>
      <trkpt lat="37.2401741054" lon="-8.3724340517">
        <ele>84.25</ele>
        <time>2021-05-28T14:50:13Z</time>
      </trkpt>
      <trkpt lat="37.2400928847" lon="-8.3723181300">
        <ele>86.18</ele>
        <time>2021-05-28T14:50:14Z</time>
      </trkpt>
      <trkpt lat="37.2397989314" lon="-8.3719137870">
        <ele>91.46</ele>
        <time>2021-05-28T14:50:17Z</time>
      </trkpt>
      <trkpt lat="37.2397133522" lon="-8.3717893157">
        <ele>89.54</ele>
        <time>2021-05-28T14:50:18Z</time>
      </trkpt>
      <trkpt lat="37.2396391723" lon="-8.3716708794">
        <ele>89.54</ele>
        <time>2021-05-28T14:50:19Z</time>
      </trkpt>
      <trkpt lat="37.2395745479" lon="-8.3715420496">
        <ele>90.02</ele>
        <time>2021-05-28T14:50:20Z</time>
      </trkpt>
      <trkpt lat="37.2395209875" lon="-8.3713979647">
        <ele>91.46</ele>
        <time>2021-05-28T14:50:21Z</time>
      </trkpt>
      <trkpt lat="37.2394828498" lon="-8.3712407202">
        <ele>92.90</ele>
        <time>2021-05-28T14:50:22Z</time>
      </trkpt>
      <trkpt lat="37.2394537646" lon="-8.3710748423">
        <ele>93.87</ele>
        <time>2021-05-28T14:50:23Z</time>
      </trkpt>
      <trkpt lat="37.2394216619" lon="-8.3709210344">
        <ele>95.31</ele>
        <time>2021-05-28T14:50:24Z</time>
      </trkpt>
      <trkpt lat="37.2393708676" lon="-8.3707916178">
        <ele>94.83</ele>
        <time>2021-05-28T14:50:25Z</time>
      </trkpt>
      <trkpt lat="37.2393018845" lon="-8.3706758637">
        <ele>95.79</ele>
        <time>2021-05-28T14:50:26Z</time>
      </trkpt>
      <trkpt lat="37.2392207477" lon="-8.3705647197">
        <ele>97.23</ele>
        <time>2021-05-28T14:50:27Z</time>
      </trkpt>
      <trkpt lat="37.2391361743" lon="-8.3704700880">
        <ele>98.67</ele>
        <time>2021-05-28T14:50:28Z</time>
      </trkpt>
      <trkpt lat="37.2390557081" lon="-8.3704125881">
        <ele>99.63</ele>
        <time>2021-05-28T14:50:29Z</time>
      </trkpt>
      <trkpt lat="37.2389784269" lon="-8.3704018593">
        <ele>98.67</ele>
        <time>2021-05-28T14:50:30Z</time>
      </trkpt>
      <trkpt lat="37.2389126290" lon="-8.3704373147">
        <ele>98.67</ele>
        <time>2021-05-28T14:50:31Z</time>
      </trkpt>
      <trkpt lat="37.2388728987" lon="-8.3705191221">
        <ele>99.63</ele>
        <time>2021-05-28T14:50:32Z</time>
      </trkpt>
      <trkpt lat="37.2388638463" lon="-8.3706316072">
        <ele>100.60</ele>
        <time>2021-05-28T14:50:33Z</time>
      </trkpt>
      <trkpt lat="37.2388679534" lon="-8.3707667235">
        <ele>101.56</ele>
        <time>2021-05-28T14:50:34Z</time>
      </trkpt>
      <trkpt lat="37.2388572246" lon="-8.3709102217">
        <ele>102.04</ele>
        <time>2021-05-28T14:50:35Z</time>
      </trkpt>
      <trkpt lat="37.2388224397" lon="-8.3710504510">
        <ele>103.00</ele>
        <time>2021-05-28T14:50:36Z</time>
      </trkpt>
      <trkpt lat="37.2387670353" lon="-8.3711794484">
        <ele>103.00</ele>
        <time>2021-05-28T14:50:37Z</time>
      </trkpt>
      <trkpt lat="37.2387121338" lon="-8.3712931070">
        <ele>101.56</ele>
        <time>2021-05-28T14:50:38Z</time>
      </trkpt>
      <trkpt lat="37.2386807017" lon="-8.3714034967">
        <ele>100.11</ele>
        <time>2021-05-28T14:50:39Z</time>
      </trkpt>
      <trkpt lat="37.2386819590" lon="-8.3715236094">
        <ele>100.11</ele>
        <time>2021-05-28T14:50:40Z</time>
      </trkpt>
      <trkpt lat="37.2387138102" lon="-8.3716623299">
        <ele>101.08</ele>
        <time>2021-05-28T14:50:41Z</time>
      </trkpt>
      <trkpt lat="37.2387651075" lon="-8.3718083426">
        <ele>102.04</ele>
        <time>2021-05-28T14:50:42Z</time>
      </trkpt>
      <trkpt lat="37.2388165724" lon="-8.3719611447">
        <ele>102.04</ele>
        <time>2021-05-28T14:50:43Z</time>
      </trkpt>
      <trkpt lat="37.2388628405" lon="-8.3721201494">
        <ele>101.56</ele>
        <time>2021-05-28T14:50:44Z</time>
      </trkpt>
      <trkpt lat="37.2390356753" lon="-8.3725567628">
        <ele>98.19</ele>
        <time>2021-05-28T14:50:47Z</time>
      </trkpt>
      <trkpt lat="37.2391026467" lon="-8.3726901188">
        <ele>98.19</ele>
        <time>2021-05-28T14:50:48Z</time>
      </trkpt>
      <trkpt lat="37.2392816003" lon="-8.3731325157">
        <ele>96.75</ele>
        <time>2021-05-28T14:50:51Z</time>
      </trkpt>
      <trkpt lat="37.2393686045" lon="-8.3733933605">
        <ele>93.39</ele>
        <time>2021-05-28T14:50:53Z</time>
      </trkpt>
      <trkpt lat="37.2393862065" lon="-8.3735019062">
        <ele>92.42</ele>
        <time>2021-05-28T14:50:54Z</time>
      </trkpt>
      <trkpt lat="37.2393727954" lon="-8.3735987172">
        <ele>91.46</ele>
        <time>2021-05-28T14:50:55Z</time>
      </trkpt>
      <trkpt lat="37.2393287905" lon="-8.3736879844">
        <ele>90.50</ele>
        <time>2021-05-28T14:50:56Z</time>
      </trkpt>
      <trkpt lat="37.2392582987" lon="-8.3737768326">
        <ele>90.02</ele>
        <time>2021-05-28T14:50:57Z</time>
      </trkpt>
      <trkpt lat="37.2391686961" lon="-8.3738702070">
        <ele>89.54</ele>
        <time>2021-05-28T14:50:58Z</time>
      </trkpt>
      <trkpt lat="37.2390639223" lon="-8.3739712927">
        <ele>89.06</ele>
        <time>2021-05-28T14:50:59Z</time>
      </trkpt>
      <trkpt lat="37.2387637664" lon="-8.3742471412">
        <ele>84.73</ele>
        <time>2021-05-28T14:51:02Z</time>
      </trkpt>
      <trkpt lat="37.2386248782" lon="-8.3743447904">
        <ele>81.37</ele>
        <time>2021-05-28T14:51:04Z</time>
      </trkpt>
      <trkpt lat="37.2385680489" lon="-8.3743360732">
        <ele>80.41</ele>
        <time>2021-05-28T14:51:05Z</time>
      </trkpt>
      <trkpt lat="37.2385188472" lon="-8.3742953371">
        <ele>79.45</ele>
        <time>2021-05-28T14:51:06Z</time>
      </trkpt>
      <trkpt lat="37.2384626046" lon="-8.3742459677">
        <ele>79.45</ele>
        <time>2021-05-28T14:51:07Z</time>
      </trkpt>
      <trkpt lat="37.2383945435" lon="-8.3742151223">
        <ele>78.97</ele>
        <time>2021-05-28T14:51:08Z</time>
      </trkpt>
      <trkpt lat="37.2383190226" lon="-8.3742183074">
        <ele>78.00</ele>
        <time>2021-05-28T14:51:09Z</time>
      </trkpt>
      <trkpt lat="37.2382491175" lon="-8.3742564451">
        <ele>77.04</ele>
        <time>2021-05-28T14:51:10Z</time>
      </trkpt>
      <trkpt lat="37.2381937131" lon="-8.3743228298">
        <ele>76.56</ele>
        <time>2021-05-28T14:51:11Z</time>
      </trkpt>
      <trkpt lat="37.2381683160" lon="-8.3743995242">
        <ele>76.08</ele>
        <time>2021-05-28T14:51:12Z</time>
      </trkpt>
      <trkpt lat="37.2381824814" lon="-8.3744763024">
        <ele>74.16</ele>
        <time>2021-05-28T14:51:13Z</time>
      </trkpt>
      <trkpt lat="37.2382301744" lon="-8.3745352272">
        <ele>73.20</ele>
        <time>2021-05-28T14:51:14Z</time>
      </trkpt>
      <trkpt lat="37.2383030131" lon="-8.3745728619">
        <ele>72.72</ele>
        <time>2021-05-28T14:51:15Z</time>
      </trkpt>
      <trkpt lat="37.2383945435" lon="-8.3745885361">
        <ele>72.72</ele>
        <time>2021-05-28T14:51:16Z</time>
      </trkpt>
      <trkpt lat="37.2384959646" lon="-8.3745827526">
        <ele>73.20</ele>
        <time>2021-05-28T14:51:17Z</time>
      </trkpt>
      <trkpt lat="37.2386004031" lon="-8.3745523263">
        <ele>73.20</ele>
        <time>2021-05-28T14:51:18Z</time>
      </trkpt>
      <trkpt lat="37.2387035005" lon="-8.3745029569">
        <ele>74.64</ele>
        <time>2021-05-28T14:51:19Z</time>
      </trkpt>
      <trkpt lat="37.2387958691" lon="-8.3744435292">
        <ele>74.16</ele>
        <time>2021-05-28T14:51:20Z</time>
      </trkpt>
      <trkpt lat="37.2388697136" lon="-8.3743918128">
        <ele>73.68</ele>
        <time>2021-05-28T14:51:21Z</time>
      </trkpt>
      <trkpt lat="37.2389260400" lon="-8.3743582014">
        <ele>72.24</ele>
        <time>2021-05-28T14:51:22Z</time>
      </trkpt>
      <trkpt lat="37.2389714699" lon="-8.3743460476">
        <ele>71.27</ele>
        <time>2021-05-28T14:51:23Z</time>
      </trkpt>
      <trkpt lat="37.2390072607" lon="-8.3743592910">
        <ele>70.31</ele>
        <time>2021-05-28T14:51:24Z</time>
      </trkpt>
      <trkpt lat="37.2390353400" lon="-8.3743917290">
        <ele>70.79</ele>
        <time>2021-05-28T14:51:25Z</time>
      </trkpt>
      <trkpt lat="37.2390573006" lon="-8.3744413499">
        <ele>70.31</ele>
        <time>2021-05-28T14:51:26Z</time>
      </trkpt>
      <trkpt lat="37.2390778363" lon="-8.3745102491">
        <ele>70.79</ele>
        <time>2021-05-28T14:51:27Z</time>
      </trkpt>
      <trkpt lat="37.2393369209" lon="-8.3755241241">
        <ele>72.24</ele>
        <time>2021-05-28T14:51:37Z</time>
      </trkpt>
      <trkpt lat="37.2396625578" lon="-8.3768617921">
        <ele>72.72</ele>
        <time>2021-05-28T14:51:48Z</time>
      </trkpt>
      <trkpt lat="37.2396888770" lon="-8.3769242372">
        <ele>72.24</ele>
        <time>2021-05-28T14:51:49Z</time>
      </trkpt>
      <trkpt lat="37.2397232428" lon="-8.3769601956">
        <ele>72.72</ele>
        <time>2021-05-28T14:51:50Z</time>
      </trkpt>
      <trkpt lat="37.2397630569" lon="-8.3769779652">
        <ele>72.24</ele>
        <time>2021-05-28T14:51:51Z</time>
      </trkpt>
      <trkpt lat="37.2398014460" lon="-8.3769947290">
        <ele>72.24</ele>
        <time>2021-05-28T14:51:52Z</time>
      </trkpt>
      <trkpt lat="37.2398292739" lon="-8.3770213835">
        <ele>71.76</ele>
        <time>2021-05-28T14:51:53Z</time>
      </trkpt>
      <trkpt lat="37.2398456186" lon="-8.3770511393">
        <ele>71.76</ele>
        <time>2021-05-28T14:51:54Z</time>
      </trkpt>
      <trkpt lat="37.2398510668" lon="-8.3770817332">
        <ele>71.76</ele>
        <time>2021-05-28T14:51:55Z</time>
      </trkpt>
      <trkpt lat="37.2398470435" lon="-8.3771010116">
        <ele>71.27</ele>
        <time>2021-05-28T14:51:56Z</time>
      </trkpt>
      <trkpt lat="37.2398236580" lon="-8.3771285042">
        <ele>71.76</ele>
        <time>2021-05-28T14:52:12Z</time>
      </trkpt>
      <trkpt lat="37.2398277652" lon="-8.3771289233">
        <ele>72.24</ele>
        <time>2021-05-28T14:52:41Z</time>
      </trkpt>
      <trkpt lat="37.2398135159" lon="-8.3771411609">
        <ele>71.27</ele>
        <time>2021-05-28T14:53:19Z</time>
      </trkpt>
      <trkpt lat="37.2397515737" lon="-8.3773802966">
        <ele>74.64</ele>
        <time>2021-05-28T14:53:43Z</time>
      </trkpt>
      <trkpt lat="37.2397138551" lon="-8.3774622716">
        <ele>76.56</ele>
        <time>2021-05-28T14:53:44Z</time>
      </trkpt>
      <trkpt lat="37.2396709397" lon="-8.3775266446">
        <ele>76.08</ele>
        <time>2021-05-28T14:53:45Z</time>
      </trkpt>
      <trkpt lat="37.2396223247" lon="-8.3775817975">
        <ele>77.04</ele>
        <time>2021-05-28T14:53:46Z</time>
      </trkpt>
      <trkpt lat="37.2395670041" lon="-8.3776324242">
        <ele>77.52</ele>
        <time>2021-05-28T14:53:47Z</time>
      </trkpt>
      <trkpt lat="37.2394996975" lon="-8.3776782732">
        <ele>78.00</ele>
        <time>2021-05-28T14:53:48Z</time>
      </trkpt>
      <trkpt lat="37.2394212428" lon="-8.3777086996">
        <ele>79.93</ele>
        <time>2021-05-28T14:53:49Z</time>
      </trkpt>
      <trkpt lat="37.2393331490" lon="-8.3777309954">
        <ele>80.41</ele>
        <time>2021-05-28T14:53:50Z</time>
      </trkpt>
      <trkpt lat="37.2392551135" lon="-8.3777450770">
        <ele>80.89</ele>
        <time>2021-05-28T14:53:51Z</time>
      </trkpt>
      <trkpt lat="37.2391912434" lon="-8.3777544647">
        <ele>82.33</ele>
        <time>2021-05-28T14:53:52Z</time>
      </trkpt>
      <trkpt lat="37.2391388565" lon="-8.3777697198">
        <ele>81.37</ele>
        <time>2021-05-28T14:53:53Z</time>
      </trkpt>
      <trkpt lat="37.2390997130" lon="-8.3777934406">
        <ele>81.37</ele>
        <time>2021-05-28T14:53:54Z</time>
      </trkpt>
      <trkpt lat="37.2390693706" lon="-8.3778238669">
        <ele>81.85</ele>
        <time>2021-05-28T14:53:55Z</time>
      </trkpt>
      <trkpt lat="37.2390460689" lon="-8.3778633457">
        <ele>81.85</ele>
        <time>2021-05-28T14:53:56Z</time>
      </trkpt>
      <trkpt lat="37.2390311491" lon="-8.3779114578">
        <ele>80.89</ele>
        <time>2021-05-28T14:53:57Z</time>
      </trkpt>
      <trkpt lat="37.2390206717" lon="-8.3779611625">
        <ele>81.37</ele>
        <time>2021-05-28T14:53:58Z</time>
      </trkpt>
      <trkpt lat="37.2390119545" lon="-8.3780170698">
        <ele>80.89</ele>
        <time>2021-05-28T14:53:59Z</time>
      </trkpt>
      <trkpt lat="37.2390032373" lon="-8.3780828677">
        <ele>80.41</ele>
        <time>2021-05-28T14:54:00Z</time>
      </trkpt>
      <trkpt lat="37.2389916703" lon="-8.3781510964">
        <ele>79.93</ele>
        <time>2021-05-28T14:54:01Z</time>
      </trkpt>
      <trkpt lat="37.2389136348" lon="-8.3785949182">
        <ele>76.56</ele>
        <time>2021-05-28T14:54:08Z</time>
      </trkpt>
      <trkpt lat="37.2388892435" lon="-8.3786338940">
        <ele>76.56</ele>
        <time>2021-05-28T14:54:09Z</time>
      </trkpt>
      <trkpt lat="37.2388673667" lon="-8.3786643203">
        <ele>76.08</ele>
        <time>2021-05-28T14:54:10Z</time>
      </trkpt>
      <trkpt lat="37.2386366967" lon="-8.3788907155">
        <ele>75.60</ele>
        <time>2021-05-28T14:54:21Z</time>
      </trkpt>
      <trkpt lat="37.2382179368" lon="-8.3793613594">
        <ele>78.00</ele>
        <time>2021-05-28T14:54:30Z</time>
      </trkpt>
      <trkpt lat="37.2381616943" lon="-8.3794086333">
        <ele>78.00</ele>
        <time>2021-05-28T14:54:31Z</time>
      </trkpt>
      <trkpt lat="37.2381085530" lon="-8.3794430830">
        <ele>78.00</ele>
        <time>2021-05-28T14:54:32Z</time>
      </trkpt>
      <trkpt lat="37.2380550765" lon="-8.3794711623">
        <ele>78.97</ele>
        <time>2021-05-28T14:54:33Z</time>
      </trkpt>
      <trkpt lat="37.2379943077" lon="-8.3794942126">
        <ele>79.45</ele>
        <time>2021-05-28T14:54:34Z</time>
      </trkpt>
      <trkpt lat="37.2379264981" lon="-8.3795134909">
        <ele>80.41</ele>
        <time>2021-05-28T14:54:35Z</time>
      </trkpt>
      <trkpt lat="37.2377028689" lon="-8.3795981482">
        <ele>82.81</ele>
        <time>2021-05-28T14:54:38Z</time>
      </trkpt>
      <trkpt lat="37.2376249172" lon="-8.3796439134">
        <ele>83.77</ele>
        <time>2021-05-28T14:54:39Z</time>
      </trkpt>
      <trkpt lat="37.2375513241" lon="-8.3796983119">
        <ele>84.25</ele>
        <time>2021-05-28T14:54:40Z</time>
      </trkpt>
      <trkpt lat="37.2374814190" lon="-8.3797603380">
        <ele>84.73</ele>
        <time>2021-05-28T14:54:41Z</time>
      </trkpt>
      <trkpt lat="37.2374159563" lon="-8.3798296563">
        <ele>85.21</ele>
        <time>2021-05-28T14:54:42Z</time>
      </trkpt>
      <trkpt lat="37.2373576183" lon="-8.3799057640">
        <ele>86.18</ele>
        <time>2021-05-28T14:54:43Z</time>
      </trkpt>
      <trkpt lat="37.2373094223" lon="-8.3799874876">
        <ele>87.14</ele>
        <time>2021-05-28T14:54:44Z</time>
      </trkpt>
      <trkpt lat="37.2372669261" lon="-8.3800747432">
        <ele>88.58</ele>
        <time>2021-05-28T14:54:45Z</time>
      </trkpt>
      <trkpt lat="37.2371422034" lon="-8.3803478256">
        <ele>91.46</ele>
        <time>2021-05-28T14:54:48Z</time>
      </trkpt>
      <trkpt lat="37.2370927501" lon="-8.3804344945">
        <ele>92.42</ele>
        <time>2021-05-28T14:54:49Z</time>
      </trkpt>
      <trkpt lat="37.2370362561" lon="-8.3805185650">
        <ele>93.39</ele>
        <time>2021-05-28T14:54:50Z</time>
      </trkpt>
      <trkpt lat="37.2369270399" lon="-8.3806829341">
        <ele>95.31</ele>
        <time>2021-05-28T14:54:52Z</time>
      </trkpt>
      <trkpt lat="37.2368904110" lon="-8.3807590418">
        <ele>96.27</ele>
        <time>2021-05-28T14:54:53Z</time>
      </trkpt>
      <trkpt lat="37.2368658520" lon="-8.3808379155">
        <ele>97.23</ele>
        <time>2021-05-28T14:54:54Z</time>
      </trkpt>
      <trkpt lat="37.2368455678" lon="-8.3809220698">
        <ele>98.19</ele>
        <time>2021-05-28T14:54:55Z</time>
      </trkpt>
      <trkpt lat="37.2368308157" lon="-8.3810143545">
        <ele>99.15</ele>
        <time>2021-05-28T14:54:56Z</time>
      </trkpt>
      <trkpt lat="37.2367728967" lon="-8.3812996745">
        <ele>101.56</ele>
        <time>2021-05-28T14:54:59Z</time>
      </trkpt>
      <trkpt lat="37.2367410455" lon="-8.3813858405">
        <ele>102.52</ele>
        <time>2021-05-28T14:55:00Z</time>
      </trkpt>
      <trkpt lat="37.2367078532" lon="-8.3814640436">
        <ele>103.48</ele>
        <time>2021-05-28T14:55:01Z</time>
      </trkpt>
      <trkpt lat="37.2365842201" lon="-8.3817080408">
        <ele>103.96</ele>
        <time>2021-05-28T14:55:08Z</time>
      </trkpt>
      <trkpt lat="37.2365475073" lon="-8.3817208651">
        <ele>104.44</ele>
        <time>2021-05-28T14:55:41Z</time>
      </trkpt>
      <trkpt lat="37.2365624271" lon="-8.3817146625">
        <ele>104.44</ele>
        <time>2021-05-28T14:56:25Z</time>
      </trkpt>
      <trkpt lat="37.2365571465" lon="-8.3817362878">
        <ele>104.44</ele>
        <time>2021-05-28T14:56:26Z</time>
      </trkpt>
      <trkpt lat="37.2365483455" lon="-8.3818380442">
        <ele>105.40</ele>
        <time>2021-05-28T14:56:28Z</time>
      </trkpt>
      <trkpt lat="37.2365523688" lon="-8.3818832226">
        <ele>105.40</ele>
        <time>2021-05-28T14:56:29Z</time>
      </trkpt>
      <trkpt lat="37.2365563083" lon="-8.3819244616">
        <ele>105.40</ele>
        <time>2021-05-28T14:56:30Z</time>
      </trkpt>
      <trkpt lat="37.2365557216" lon="-8.3819650300">
        <ele>105.40</ele>
        <time>2021-05-28T14:56:31Z</time>
      </trkpt>
      <trkpt lat="37.2365488485" lon="-8.3820054308">
        <ele>104.92</ele>
        <time>2021-05-28T14:56:32Z</time>
      </trkpt>
      <trkpt lat="37.2365388740" lon="-8.3820459154">
        <ele>105.88</ele>
        <time>2021-05-28T14:56:33Z</time>
      </trkpt>
      <trkpt lat="37.2365067713" lon="-8.3821913414">
        <ele>104.44</ele>
        <time>2021-05-28T14:56:36Z</time>
      </trkpt>
      <trkpt lat="37.2365023289" lon="-8.3822430577">
        <ele>104.44</ele>
        <time>2021-05-28T14:56:37Z</time>
      </trkpt>
      <trkpt lat="37.2365439031" lon="-8.3825614862">
        <ele>103.00</ele>
        <time>2021-05-28T14:56:44Z</time>
      </trkpt>
      <trkpt lat="37.2368028201" lon="-8.3830198925">
        <ele>101.08</ele>
        <time>2021-05-28T14:56:50Z</time>
      </trkpt>
      <trkpt lat="37.2368271276" lon="-8.3831076510">
        <ele>100.60</ele>
        <time>2021-05-28T14:56:51Z</time>
      </trkpt>
      <trkpt lat="37.2368336655" lon="-8.3832089044">
        <ele>100.60</ele>
        <time>2021-05-28T14:56:52Z</time>
      </trkpt>
      <trkpt lat="37.2368295584" lon="-8.3833210543">
        <ele>100.11</ele>
        <time>2021-05-28T14:56:53Z</time>
      </trkpt>
      <trkpt lat="37.2368210088" lon="-8.3834420051">
        <ele>100.11</ele>
        <time>2021-05-28T14:56:54Z</time>
      </trkpt>
      <trkpt lat="37.2368181590" lon="-8.3838528022">
        <ele>97.23</ele>
        <time>2021-05-28T14:56:58Z</time>
      </trkpt>
      <trkpt lat="37.2368366830" lon="-8.3839317597">
        <ele>96.27</ele>
        <time>2021-05-28T14:56:59Z</time>
      </trkpt>
      <trkpt lat="37.2368684504" lon="-8.3840061072">
        <ele>95.79</ele>
        <time>2021-05-28T14:57:00Z</time>
      </trkpt>
      <trkpt lat="37.2369131260" lon="-8.3840733301">
        <ele>94.83</ele>
        <time>2021-05-28T14:57:01Z</time>
      </trkpt>
      <trkpt lat="37.2369641718" lon="-8.3841393795">
        <ele>94.83</ele>
        <time>2021-05-28T14:57:02Z</time>
      </trkpt>
      <trkpt lat="37.2371547762" lon="-8.3844314888">
        <ele>90.50</ele>
        <time>2021-05-28T14:57:06Z</time>
      </trkpt>
      <trkpt lat="37.2373000346" lon="-8.3846512623">
        <ele>87.14</ele>
        <time>2021-05-28T14:57:09Z</time>
      </trkpt>
      <trkpt lat="37.2374035511" lon="-8.3847942576">
        <ele>84.25</ele>
        <time>2021-05-28T14:57:11Z</time>
      </trkpt>
      <trkpt lat="37.2375747934" lon="-8.3850307949">
        <ele>80.41</ele>
        <time>2021-05-28T14:57:14Z</time>
      </trkpt>
      <trkpt lat="37.2378310282" lon="-8.3853011113">
        <ele>76.56</ele>
        <time>2021-05-28T14:57:18Z</time>
      </trkpt>
      <trkpt lat="37.2378761228" lon="-8.3853622153">
        <ele>76.08</ele>
        <time>2021-05-28T14:57:19Z</time>
      </trkpt>
      <trkpt lat="37.2379062138" lon="-8.3854192961">
        <ele>75.60</ele>
        <time>2021-05-28T14:57:20Z</time>
      </trkpt>
      <trkpt lat="37.2379213013" lon="-8.3854771312">
        <ele>76.08</ele>
        <time>2021-05-28T14:57:21Z</time>
      </trkpt>
      <trkpt lat="37.2379245702" lon="-8.3855393250">
        <ele>75.12</ele>
        <time>2021-05-28T14:57:22Z</time>
      </trkpt>
      <trkpt lat="37.2379255760" lon="-8.3856050391">
        <ele>75.60</ele>
        <time>2021-05-28T14:57:23Z</time>
      </trkpt>
      <trkpt lat="37.2379641328" lon="-8.3859464340">
        <ele>72.72</ele>
        <time>2021-05-28T14:57:27Z</time>
      </trkpt>
      <trkpt lat="37.2379865125" lon="-8.3860311750">
        <ele>72.72</ele>
        <time>2021-05-28T14:57:28Z</time>
      </trkpt>
      <trkpt lat="37.2380025219" lon="-8.3861092106">
        <ele>72.24</ele>
        <time>2021-05-28T14:57:29Z</time>
      </trkpt>
      <trkpt lat="37.2380033601" lon="-8.3861836419">
        <ele>71.76</ele>
        <time>2021-05-28T14:57:30Z</time>
      </trkpt>
      <trkpt lat="37.2379855905" lon="-8.3862494398">
        <ele>71.76</ele>
        <time>2021-05-28T14:57:31Z</time>
      </trkpt>
      <trkpt lat="37.2379523981" lon="-8.3862979710">
        <ele>72.72</ele>
        <time>2021-05-28T14:57:32Z</time>
      </trkpt>
      <trkpt lat="37.2379130870" lon="-8.3863299899">
        <ele>71.76</ele>
        <time>2021-05-28T14:57:33Z</time>
      </trkpt>
      <trkpt lat="37.2378741950" lon="-8.3863400482">
        <ele>71.27</ele>
        <time>2021-05-28T14:57:34Z</time>
      </trkpt>
      <trkpt lat="37.2378177010" lon="-8.3863395452">
        <ele>71.76</ele>
        <time>2021-05-28T14:57:35Z</time>
      </trkpt>
      <trkpt lat="37.2377405036" lon="-8.3863299899">
        <ele>72.24</ele>
        <time>2021-05-28T14:57:36Z</time>
      </trkpt>
      <trkpt lat="37.2376514040" lon="-8.3863092028">
        <ele>72.72</ele>
        <time>2021-05-28T14:57:37Z</time>
      </trkpt>
      <trkpt lat="37.2368819453" lon="-8.3861191012">
        <ele>72.72</ele>
        <time>2021-05-28T14:57:45Z</time>
      </trkpt>
      <trkpt lat="37.2358184494" lon="-8.3857632894">
        <ele>68.87</ele>
        <time>2021-05-28T14:57:56Z</time>
      </trkpt>
      <trkpt lat="37.2355700098" lon="-8.3857156802">
        <ele>65.51</ele>
        <time>2021-05-28T14:57:59Z</time>
      </trkpt>
      <trkpt lat="37.2354032937" lon="-8.3856577612">
        <ele>64.55</ele>
        <time>2021-05-28T14:58:01Z</time>
      </trkpt>
      <trkpt lat="37.2352322191" lon="-8.3855715115">
        <ele>62.14</ele>
        <time>2021-05-28T14:58:03Z</time>
      </trkpt>
      <trkpt lat="37.2351547703" lon="-8.3855196275">
        <ele>62.14</ele>
        <time>2021-05-28T14:58:04Z</time>
      </trkpt>
      <trkpt lat="37.2350710351" lon="-8.3854690846">
        <ele>61.18</ele>
        <time>2021-05-28T14:58:05Z</time>
      </trkpt>
      <trkpt lat="37.2349711228" lon="-8.3854274265">
        <ele>61.18</ele>
        <time>2021-05-28T14:58:06Z</time>
      </trkpt>
      <trkpt lat="37.2348616552" lon="-8.3853964135">
        <ele>60.22</ele>
        <time>2021-05-28T14:58:07Z</time>
      </trkpt>
      <trkpt lat="37.2347561270" lon="-8.3853771351">
        <ele>60.22</ele>
        <time>2021-05-28T14:58:08Z</time>
      </trkpt>
      <trkpt lat="37.2346504312" lon="-8.3853629697">
        <ele>59.26</ele>
        <time>2021-05-28T14:58:09Z</time>
      </trkpt>
      <trkpt lat="37.2342600022" lon="-8.3853012789">
        <ele>57.34</ele>
        <time>2021-05-28T14:58:13Z</time>
      </trkpt>
      <trkpt lat="37.2340103053" lon="-8.3852602076">
        <ele>53.01</ele>
        <time>2021-05-28T14:58:16Z</time>
      </trkpt>
      <trkpt lat="37.2337624524" lon="-8.3851765562">
        <ele>51.57</ele>
        <time>2021-05-28T14:58:19Z</time>
      </trkpt>
      <trkpt lat="37.2330201510" lon="-8.3850995265">
        <ele>50.13</ele>
        <time>2021-05-28T14:58:26Z</time>
      </trkpt>
      <trkpt lat="37.2327247728" lon="-8.3851081599">
        <ele>46.76</ele>
        <time>2021-05-28T14:58:29Z</time>
      </trkpt>
      <trkpt lat="37.2326292191" lon="-8.3851032984">
        <ele>46.76</ele>
        <time>2021-05-28T14:58:30Z</time>
      </trkpt>
      <trkpt lat="37.2323443182" lon="-8.3850914799">
        <ele>46.28</ele>
        <time>2021-05-28T14:58:33Z</time>
      </trkpt>
      <trkpt lat="37.2322591580" lon="-8.3851058967">
        <ele>45.80</ele>
        <time>2021-05-28T14:58:34Z</time>
      </trkpt>
      <trkpt lat="37.2321778536" lon="-8.3851371612">
        <ele>45.80</ele>
        <time>2021-05-28T14:58:35Z</time>
      </trkpt>
      <trkpt lat="37.2321042605" lon="-8.3851865306">
        <ele>45.80</ele>
        <time>2021-05-28T14:58:36Z</time>
      </trkpt>
      <trkpt lat="37.2320448328" lon="-8.3852514904">
        <ele>46.28</ele>
        <time>2021-05-28T14:58:37Z</time>
      </trkpt>
      <trkpt lat="37.2320012469" lon="-8.3853249997">
        <ele>48.68</ele>
        <time>2021-05-28T14:58:38Z</time>
      </trkpt>
      <trkpt lat="37.2319624387" lon="-8.3853949886">
        <ele>50.61</ele>
        <time>2021-05-28T14:58:39Z</time>
      </trkpt>
      <trkpt lat="37.2319176793" lon="-8.3854618762">
        <ele>52.53</ele>
        <time>2021-05-28T14:58:40Z</time>
      </trkpt>
      <trkpt lat="37.2318644542" lon="-8.3855238184">
        <ele>54.45</ele>
        <time>2021-05-28T14:58:41Z</time>
      </trkpt>
      <trkpt lat="37.2318038531" lon="-8.3855788875">
        <ele>55.89</ele>
        <time>2021-05-28T14:58:42Z</time>
      </trkpt>
      <trkpt lat="37.2317350376" lon="-8.3856346272">
        <ele>56.86</ele>
        <time>2021-05-28T14:58:43Z</time>
      </trkpt>
      <trkpt lat="37.2316550743" lon="-8.3856918756">
        <ele>59.74</ele>
        <time>2021-05-28T14:58:44Z</time>
      </trkpt>
      <trkpt lat="37.2315028589" lon="-8.3858084679">
        <ele>62.62</ele>
        <time>2021-05-28T14:58:46Z</time>
      </trkpt>
      <trkpt lat="37.2314478736" lon="-8.3858572505">
        <ele>63.10</ele>
        <time>2021-05-28T14:58:47Z</time>
      </trkpt>
      <trkpt lat="37.2314015217" lon="-8.3858934604">
        <ele>63.58</ele>
        <time>2021-05-28T14:58:48Z</time>
      </trkpt>
      <trkpt lat="37.2313531581" lon="-8.3859058656">
        <ele>63.58</ele>
        <time>2021-05-28T14:58:49Z</time>
      </trkpt>
      <trkpt lat="37.2312999330" lon="-8.3858831506">
        <ele>64.07</ele>
        <time>2021-05-28T14:58:50Z</time>
      </trkpt>
      <trkpt lat="37.2312498093" lon="-8.3858254831">
        <ele>64.07</ele>
        <time>2021-05-28T14:58:51Z</time>
      </trkpt>
      <trkpt lat="37.2312188800" lon="-8.3857466094">
        <ele>64.07</ele>
        <time>2021-05-28T14:58:52Z</time>
      </trkpt>
      <trkpt lat="37.2312222328" lon="-8.3856561687">
        <ele>64.55</ele>
        <time>2021-05-28T14:58:53Z</time>
      </trkpt>
      <trkpt lat="37.2312471271" lon="-8.3855555020">
        <ele>64.55</ele>
        <time>2021-05-28T14:58:54Z</time>
      </trkpt>
      <trkpt lat="37.2312838398" lon="-8.3854474593">
        <ele>65.51</ele>
        <time>2021-05-28T14:58:55Z</time>
      </trkpt>
      <trkpt lat="37.2313266713" lon="-8.3853512350">
        <ele>66.47</ele>
        <time>2021-05-28T14:58:56Z</time>
      </trkpt>
      <trkpt lat="37.2313743643" lon="-8.3852723613">
        <ele>66.47</ele>
        <time>2021-05-28T14:58:57Z</time>
      </trkpt>
      <trkpt lat="37.2314208839" lon="-8.3852097485">
        <ele>66.95</ele>
        <time>2021-05-28T14:58:58Z</time>
      </trkpt>
      <trkpt lat="37.2314601112" lon="-8.3851530869">
        <ele>67.43</ele>
        <time>2021-05-28T14:58:59Z</time>
      </trkpt>
      <trkpt lat="37.2314907052" lon="-8.3850875404">
        <ele>67.43</ele>
        <time>2021-05-28T14:59:00Z</time>
      </trkpt>
      <trkpt lat="37.2315092292" lon="-8.3850042243">
        <ele>67.91</ele>
        <time>2021-05-28T14:59:01Z</time>
      </trkpt>
      <trkpt lat="37.2315154318" lon="-8.3849028870">
        <ele>68.39</ele>
        <time>2021-05-28T14:59:02Z</time>
      </trkpt>
      <trkpt lat="37.2315085586" lon="-8.3847888932">
        <ele>68.39</ele>
        <time>2021-05-28T14:59:03Z</time>
      </trkpt>
      <trkpt lat="37.2314941417" lon="-8.3846765757">
        <ele>68.39</ele>
        <time>2021-05-28T14:59:04Z</time>
      </trkpt>
      <trkpt lat="37.2314721812" lon="-8.3845726401">
        <ele>67.43</ele>
        <time>2021-05-28T14:59:05Z</time>
      </trkpt>
      <trkpt lat="37.2314433474" lon="-8.3844797686">
        <ele>67.43</ele>
        <time>2021-05-28T14:59:06Z</time>
      </trkpt>
      <trkpt lat="37.2314050421" lon="-8.3844041638">
        <ele>66.95</ele>
        <time>2021-05-28T14:59:07Z</time>
      </trkpt>
      <trkpt lat="37.2313563433" lon="-8.3843554650">
        <ele>67.43</ele>
        <time>2021-05-28T14:59:08Z</time>
      </trkpt>
      <trkpt lat="37.2312987596" lon="-8.3843304031">
        <ele>67.91</ele>
        <time>2021-05-28T14:59:09Z</time>
      </trkpt>
      <trkpt lat="37.2312426846" lon="-8.3843265474">
        <ele>68.39</ele>
        <time>2021-05-28T14:59:10Z</time>
      </trkpt>
      <trkpt lat="37.2311923094" lon="-8.3843397070">
        <ele>68.87</ele>
        <time>2021-05-28T14:59:11Z</time>
      </trkpt>
      <trkpt lat="37.2311470471" lon="-8.3843620028">
        <ele>69.83</ele>
        <time>2021-05-28T14:59:12Z</time>
      </trkpt>
      <trkpt lat="37.2311027907" lon="-8.3843920939">
        <ele>69.83</ele>
        <time>2021-05-28T14:59:13Z</time>
      </trkpt>
      <trkpt lat="37.2310594562" lon="-8.3844278846">
        <ele>70.79</ele>
        <time>2021-05-28T14:59:14Z</time>
      </trkpt>
      <trkpt lat="37.2310161218" lon="-8.3844702132">
        <ele>71.76</ele>
        <time>2021-05-28T14:59:15Z</time>
      </trkpt>
      <trkpt lat="37.2309742123" lon="-8.3845183253">
        <ele>73.20</ele>
        <time>2021-05-28T14:59:16Z</time>
      </trkpt>
      <trkpt lat="37.2308023833" lon="-8.3847401105">
        <ele>77.04</ele>
        <time>2021-05-28T14:59:20Z</time>
      </trkpt>
      <trkpt lat="37.2306602262" lon="-8.3849229198">
        <ele>81.85</ele>
        <time>2021-05-28T14:59:23Z</time>
      </trkpt>
      <trkpt lat="37.2306051571" lon="-8.3849797491">
        <ele>83.29</ele>
        <time>2021-05-28T14:59:24Z</time>
      </trkpt>
      <trkpt lat="37.2305496689" lon="-8.3850243408">
        <ele>83.77</ele>
        <time>2021-05-28T14:59:25Z</time>
      </trkpt>
      <trkpt lat="37.2304942645" lon="-8.3850602992">
        <ele>85.21</ele>
        <time>2021-05-28T14:59:26Z</time>
      </trkpt>
      <trkpt lat="37.2304304782" lon="-8.3850851934">
        <ele>85.69</ele>
        <time>2021-05-28T14:59:27Z</time>
      </trkpt>
      <trkpt lat="37.2303605732" lon="-8.3851031307">
        <ele>87.14</ele>
        <time>2021-05-28T14:59:28Z</time>
      </trkpt>
      <trkpt lat="37.2302153986" lon="-8.3851231635">
        <ele>89.06</ele>
        <time>2021-05-28T14:59:30Z</time>
      </trkpt>
      <trkpt lat="37.2300418094" lon="-8.3851536736">
        <ele>92.42</ele>
        <time>2021-05-28T14:59:33Z</time>
      </trkpt>
      <trkpt lat="37.2299855668" lon="-8.3851736225">
        <ele>92.90</ele>
        <time>2021-05-28T14:59:35Z</time>
      </trkpt>
      <trkpt lat="37.2298057750" lon="-8.3853392489">
        <ele>94.35</ele>
        <time>2021-05-28T14:59:42Z</time>
      </trkpt>
      <trkpt lat="37.2297564894" lon="-8.3853602875">
        <ele>94.83</ele>
        <time>2021-05-28T14:59:43Z</time>
      </trkpt>
      <trkpt lat="37.2297051921" lon="-8.3853649814">
        <ele>95.31</ele>
        <time>2021-05-28T14:59:44Z</time>
      </trkpt>
      <trkpt lat="37.2296480276" lon="-8.3853539173">
        <ele>95.31</ele>
        <time>2021-05-28T14:59:45Z</time>
      </trkpt>
      <trkpt lat="37.2295849118" lon="-8.3853227366">
        <ele>95.79</ele>
        <time>2021-05-28T14:59:46Z</time>
      </trkpt>
      <trkpt lat="37.2295197845" lon="-8.3852792345">
        <ele>96.75</ele>
        <time>2021-05-28T14:59:47Z</time>
      </trkpt>
      <trkpt lat="37.2294513043" lon="-8.3852342237">
        <ele>96.75</ele>
        <time>2021-05-28T14:59:48Z</time>
      </trkpt>
      <trkpt lat="37.2293768730" lon="-8.3851934038">
        <ele>97.23</ele>
        <time>2021-05-28T14:59:49Z</time>
      </trkpt>
      <trkpt lat="37.2292959876" lon="-8.3851581998">
        <ele>97.71</ele>
        <time>2021-05-28T14:59:50Z</time>
      </trkpt>
      <trkpt lat="37.2292080615" lon="-8.3851240017">
        <ele>97.71</ele>
        <time>2021-05-28T14:59:51Z</time>
      </trkpt>
      <trkpt lat="37.2290215641" lon="-8.3850307949">
        <ele>98.19</ele>
        <time>2021-05-28T14:59:53Z</time>
      </trkpt>
      <trkpt lat="37.2289358173" lon="-8.3849660028">
        <ele>97.71</ele>
        <time>2021-05-28T14:59:54Z</time>
      </trkpt>
      <trkpt lat="37.2288627271" lon="-8.3848942537">
        <ele>97.23</ele>
        <time>2021-05-28T14:59:55Z</time>
      </trkpt>
      <trkpt lat="37.2285007965" lon="-8.3845398668">
        <ele>93.39</ele>
        <time>2021-05-28T15:00:00Z</time>
      </trkpt>
      <trkpt lat="37.2283750679" lon="-8.3843861427">
        <ele>91.46</ele>
        <time>2021-05-28T15:00:02Z</time>
      </trkpt>
      <trkpt lat="37.2283231840" lon="-8.3843070175">
        <ele>91.46</ele>
        <time>2021-05-28T15:00:03Z</time>
      </trkpt>
      <trkpt lat="37.2280509397" lon="-8.3840063587">
        <ele>89.54</ele>
        <time>2021-05-28T15:00:07Z</time>
      </trkpt>
      <trkpt lat="37.2279726528" lon="-8.3839556482">
        <ele>89.06</ele>
        <time>2021-05-28T15:00:08Z</time>
      </trkpt>
      <trkpt lat="37.2278920189" lon="-8.3839270659">
        <ele>88.58</ele>
        <time>2021-05-28T15:00:09Z</time>
      </trkpt>
      <trkpt lat="37.2278112173" lon="-8.3839172591">
        <ele>88.58</ele>
        <time>2021-05-28T15:00:10Z</time>
      </trkpt>
      <trkpt lat="37.2277317569" lon="-8.3839191031">
        <ele>88.10</ele>
        <time>2021-05-28T15:00:11Z</time>
      </trkpt>
      <trkpt lat="37.2275164258" lon="-8.3839251380">
        <ele>86.18</ele>
        <time>2021-05-28T15:00:14Z</time>
      </trkpt>
      <trkpt lat="37.2274530586" lon="-8.3839146607">
        <ele>85.69</ele>
        <time>2021-05-28T15:00:15Z</time>
      </trkpt>
      <trkpt lat="37.2273937147" lon="-8.3838952146">
        <ele>85.69</ele>
        <time>2021-05-28T15:00:16Z</time>
      </trkpt>
      <trkpt lat="37.2273324430" lon="-8.3838611003">
        <ele>85.21</ele>
        <time>2021-05-28T15:00:17Z</time>
      </trkpt>
      <trkpt lat="37.2272680700" lon="-8.3838190231">
        <ele>84.73</ele>
        <time>2021-05-28T15:00:18Z</time>
      </trkpt>
      <trkpt lat="37.2269591969" lon="-8.3836321067">
        <ele>79.93</ele>
        <time>2021-05-28T15:00:22Z</time>
      </trkpt>
      <trkpt lat="37.2268690076" lon="-8.3836133312">
        <ele>78.48</ele>
        <time>2021-05-28T15:00:23Z</time>
      </trkpt>
      <trkpt lat="37.2267707717" lon="-8.3836070448">
        <ele>77.52</ele>
        <time>2021-05-28T15:00:24Z</time>
      </trkpt>
      <trkpt lat="37.2266624775" lon="-8.3836123254">
        <ele>77.52</ele>
        <time>2021-05-28T15:00:25Z</time>
      </trkpt>
      <trkpt lat="37.2265506629" lon="-8.3836247306">
        <ele>77.52</ele>
        <time>2021-05-28T15:00:26Z</time>
      </trkpt>
      <trkpt lat="37.2262382694" lon="-8.3836569171">
        <ele>73.68</ele>
        <time>2021-05-28T15:00:29Z</time>
      </trkpt>
      <trkpt lat="37.2261396982" lon="-8.3836524747">
        <ele>72.72</ele>
        <time>2021-05-28T15:00:30Z</time>
      </trkpt>
      <trkpt lat="37.2260417137" lon="-8.3836285863">
        <ele>71.76</ele>
        <time>2021-05-28T15:00:31Z</time>
      </trkpt>
      <trkpt lat="37.2259477526" lon="-8.3835863415">
        <ele>71.76</ele>
        <time>2021-05-28T15:00:32Z</time>
      </trkpt>
      <trkpt lat="37.2256957926" lon="-8.3834253252">
        <ele>68.39</ele>
        <time>2021-05-28T15:00:35Z</time>
      </trkpt>
      <trkpt lat="37.2254539747" lon="-8.3832375705">
        <ele>64.55</ele>
        <time>2021-05-28T15:00:38Z</time>
      </trkpt>
      <trkpt lat="37.2252238914" lon="-8.3829862811">
        <ele>60.70</ele>
        <time>2021-05-28T15:00:41Z</time>
      </trkpt>
      <trkpt lat="37.2249857616" lon="-8.3827485703">
        <ele>55.41</ele>
        <time>2021-05-28T15:00:44Z</time>
      </trkpt>
      <trkpt lat="37.2246378288" lon="-8.3825027291">
        <ele>52.05</ele>
        <time>2021-05-28T15:00:48Z</time>
      </trkpt>
      <trkpt lat="37.2245584521" lon="-8.3824717999">
        <ele>51.09</ele>
        <time>2021-05-28T15:00:49Z</time>
      </trkpt>
      <trkpt lat="37.2244771477" lon="-8.3824577183">
        <ele>50.61</ele>
        <time>2021-05-28T15:00:50Z</time>
      </trkpt>
      <trkpt lat="37.2243924066" lon="-8.3824557066">
        <ele>49.65</ele>
        <time>2021-05-28T15:00:51Z</time>
      </trkpt>
      <trkpt lat="37.2243105154" lon="-8.3824598975">
        <ele>49.16</ele>
        <time>2021-05-28T15:00:52Z</time>
      </trkpt>
      <trkpt lat="37.2242347430" lon="-8.3824603166">
        <ele>49.16</ele>
        <time>2021-05-28T15:00:53Z</time>
      </trkpt>
      <trkpt lat="37.2241629940" lon="-8.3824479114">
        <ele>48.20</ele>
        <time>2021-05-28T15:00:54Z</time>
      </trkpt>
      <trkpt lat="37.2240899038" lon="-8.3824188262">
        <ele>47.24</ele>
        <time>2021-05-28T15:00:55Z</time>
      </trkpt>
      <trkpt lat="37.2240189090" lon="-8.3823737316">
        <ele>45.80</ele>
        <time>2021-05-28T15:00:56Z</time>
      </trkpt>
      <trkpt lat="37.2239540331" lon="-8.3823160641">
        <ele>44.84</ele>
        <time>2021-05-28T15:00:57Z</time>
      </trkpt>
      <trkpt lat="37.2238979582" lon="-8.3822497632">
        <ele>43.40</ele>
        <time>2021-05-28T15:00:58Z</time>
      </trkpt>
      <trkpt lat="37.2238478344" lon="-8.3821772598">
        <ele>42.92</ele>
        <time>2021-05-28T15:00:59Z</time>
      </trkpt>
      <trkpt lat="37.2236879915" lon="-8.3819432370">
        <ele>39.07</ele>
        <time>2021-05-28T15:01:02Z</time>
      </trkpt>
      <trkpt lat="37.2235753387" lon="-8.3817733359">
        <ele>37.15</ele>
        <time>2021-05-28T15:01:04Z</time>
      </trkpt>
      <trkpt lat="37.2235104628" lon="-8.3816942107">
        <ele>36.67</ele>
        <time>2021-05-28T15:01:05Z</time>
      </trkpt>
      <trkpt lat="37.2234368697" lon="-8.3816147503">
        <ele>36.19</ele>
        <time>2021-05-28T15:01:06Z</time>
      </trkpt>
      <trkpt lat="37.2233590856" lon="-8.3815424144">
        <ele>35.71</ele>
        <time>2021-05-28T15:01:07Z</time>
      </trkpt>
      <trkpt lat="37.2232799605" lon="-8.3814786281">
        <ele>34.74</ele>
        <time>2021-05-28T15:01:08Z</time>
      </trkpt>
      <trkpt lat="37.2232012544" lon="-8.3814202063">
        <ele>33.78</ele>
        <time>2021-05-28T15:01:09Z</time>
      </trkpt>
      <trkpt lat="37.2230502963" lon="-8.3813210484">
        <ele>32.82</ele>
        <time>2021-05-28T15:01:11Z</time>
      </trkpt>
      <trkpt lat="37.2228472866" lon="-8.3811974153">
        <ele>31.38</ele>
        <time>2021-05-28T15:01:14Z</time>
      </trkpt>
      <trkpt lat="37.2226887010" lon="-8.3811196312">
        <ele>29.94</ele>
        <time>2021-05-28T15:01:17Z</time>
      </trkpt>
      <trkpt lat="37.2226493061" lon="-8.3811105788">
        <ele>29.94</ele>
        <time>2021-05-28T15:01:18Z</time>
      </trkpt>
      <trkpt lat="37.2226187121" lon="-8.3811150212">
        <ele>29.94</ele>
        <time>2021-05-28T15:01:19Z</time>
      </trkpt>
      <trkpt lat="37.2225905489" lon="-8.3811337966">
        <ele>29.94</ele>
        <time>2021-05-28T15:01:20Z</time>
      </trkpt>
      <trkpt lat="37.2225631401" lon="-8.3811824955">
        <ele>30.90</ele>
        <time>2021-05-28T15:01:21Z</time>
      </trkpt>
      <trkpt lat="37.2225378267" lon="-8.3812708408">
        <ele>32.34</ele>
        <time>2021-05-28T15:01:22Z</time>
      </trkpt>
      <trkpt lat="37.2225114238" lon="-8.3813854214">
        <ele>31.86</ele>
        <time>2021-05-28T15:01:23Z</time>
      </trkpt>
      <trkpt lat="37.2223846894" lon="-8.3817797061">
        <ele>31.86</ele>
        <time>2021-05-28T15:01:26Z</time>
      </trkpt>
      <trkpt lat="37.2223223280" lon="-8.3819109667">
        <ele>32.82</ele>
        <time>2021-05-28T15:01:27Z</time>
      </trkpt>
      <trkpt lat="37.2220369242" lon="-8.3823689539">
        <ele>31.86</ele>
        <time>2021-05-28T15:01:31Z</time>
      </trkpt>
      <trkpt lat="37.2219505906" lon="-8.3824605681">
        <ele>32.34</ele>
        <time>2021-05-28T15:01:32Z</time>
      </trkpt>
      <trkpt lat="37.2218538634" lon="-8.3825430460">
        <ele>32.34</ele>
        <time>2021-05-28T15:01:33Z</time>
      </trkpt>
      <trkpt lat="37.2213276476" lon="-8.3829694334">
        <ele>31.86</ele>
        <time>2021-05-28T15:01:38Z</time>
      </trkpt>
      <trkpt lat="37.2212313395" lon="-8.3830927312">
        <ele>32.82</ele>
        <time>2021-05-28T15:01:39Z</time>
      </trkpt>
      <trkpt lat="37.2204193007" lon="-8.3842726517">
        <ele>33.30</ele>
        <time>2021-05-28T15:01:48Z</time>
      </trkpt>
      <trkpt lat="37.2199480701" lon="-8.3852169570">
        <ele>35.23</ele>
        <time>2021-05-28T15:01:54Z</time>
      </trkpt>
      <trkpt lat="37.2198962700" lon="-8.3853853494">
        <ele>35.71</ele>
        <time>2021-05-28T15:01:55Z</time>
      </trkpt>
      <trkpt lat="37.2197920829" lon="-8.3857290912">
        <ele>36.19</ele>
        <time>2021-05-28T15:01:57Z</time>
      </trkpt>
      <trkpt lat="37.2194043361" lon="-8.3866483346">
        <ele>40.03</ele>
        <time>2021-05-28T15:02:03Z</time>
      </trkpt>
      <trkpt lat="37.2191960458" lon="-8.3871536795">
        <ele>43.88</ele>
        <time>2021-05-28T15:02:06Z</time>
      </trkpt>
      <trkpt lat="37.2188814729" lon="-8.3879314363">
        <ele>47.24</ele>
        <time>2021-05-28T15:02:12Z</time>
      </trkpt>
      <trkpt lat="37.2188282479" lon="-8.3880628645">
        <ele>47.24</ele>
        <time>2021-05-28T15:02:13Z</time>
      </trkpt>
      <trkpt lat="37.2186137550" lon="-8.3887165692">
        <ele>47.72</ele>
        <time>2021-05-28T15:02:19Z</time>
      </trkpt>
      <trkpt lat="37.2185998410" lon="-8.3888173196">
        <ele>47.72</ele>
        <time>2021-05-28T15:02:20Z</time>
      </trkpt>
      <trkpt lat="37.2185939737" lon="-8.3889201656">
        <ele>47.72</ele>
        <time>2021-05-28T15:02:21Z</time>
      </trkpt>
      <trkpt lat="37.2185456101" lon="-8.3895166218">
        <ele>48.20</ele>
        <time>2021-05-28T15:02:26Z</time>
      </trkpt>
      <trkpt lat="37.2185089812" lon="-8.3896688372">
        <ele>50.13</ele>
        <time>2021-05-28T15:02:27Z</time>
      </trkpt>
      <trkpt lat="37.2184077278" lon="-8.3899901994">
        <ele>50.61</ele>
        <time>2021-05-28T15:02:29Z</time>
      </trkpt>
      <trkpt lat="37.2181611322" lon="-8.3907811157">
        <ele>50.61</ele>
        <time>2021-05-28T15:02:36Z</time>
      </trkpt>
      <trkpt lat="37.2180675901" lon="-8.3910153899">
        <ele>50.61</ele>
        <time>2021-05-28T15:02:38Z</time>
      </trkpt>
      <trkpt lat="37.2179981880" lon="-8.3911095187">
        <ele>51.09</ele>
        <time>2021-05-28T15:02:39Z</time>
      </trkpt>
      <trkpt lat="37.2179064061" lon="-8.3911806811">
        <ele>52.05</ele>
        <time>2021-05-28T15:02:40Z</time>
      </trkpt>
      <trkpt lat="37.2177993692" lon="-8.3912353311">
        <ele>53.01</ele>
        <time>2021-05-28T15:02:41Z</time>
      </trkpt>
      <trkpt lat="37.2176942602" lon="-8.3912882209">
        <ele>53.97</ele>
        <time>2021-05-28T15:02:42Z</time>
      </trkpt>
      <trkpt lat="37.2176009696" lon="-8.3913524263">
        <ele>54.45</ele>
        <time>2021-05-28T15:02:43Z</time>
      </trkpt>
      <trkpt lat="37.2175110318" lon="-8.3914365806">
        <ele>54.93</ele>
        <time>2021-05-28T15:02:44Z</time>
      </trkpt>
      <trkpt lat="37.2174251173" lon="-8.3915448748">
        <ele>55.89</ele>
        <time>2021-05-28T15:02:45Z</time>
      </trkpt>
      <trkpt lat="37.2173430584" lon="-8.3916644007">
        <ele>57.34</ele>
        <time>2021-05-28T15:02:46Z</time>
      </trkpt>
      <trkpt lat="37.2172688786" lon="-8.3917768858">
        <ele>56.86</ele>
        <time>2021-05-28T15:02:47Z</time>
      </trkpt>
      <trkpt lat="37.2171361092" lon="-8.3919680770">
        <ele>56.37</ele>
        <time>2021-05-28T15:02:49Z</time>
      </trkpt>
      <trkpt lat="37.2164919600" lon="-8.3928851411">
        <ele>53.01</ele>
        <time>2021-05-28T15:02:58Z</time>
      </trkpt>
      <trkpt lat="37.2164208815" lon="-8.3929592371">
        <ele>52.05</ele>
        <time>2021-05-28T15:02:59Z</time>
      </trkpt>
      <trkpt lat="37.2163365595" lon="-8.3929983806">
        <ele>51.57</ele>
        <time>2021-05-28T15:03:00Z</time>
      </trkpt>
      <trkpt lat="37.2162352223" lon="-8.3929977939">
        <ele>51.09</ele>
        <time>2021-05-28T15:03:01Z</time>
      </trkpt>
      <trkpt lat="37.2161265090" lon="-8.3929657750">
        <ele>50.61</ele>
        <time>2021-05-28T15:03:02Z</time>
      </trkpt>
      <trkpt lat="37.2160246689" lon="-8.3929187525">
        <ele>50.13</ele>
        <time>2021-05-28T15:03:03Z</time>
      </trkpt>
      <trkpt lat="37.2159296181" lon="-8.3928703051">
        <ele>49.65</ele>
        <time>2021-05-28T15:03:04Z</time>
      </trkpt>
      <trkpt lat="37.2158373334" lon="-8.3928232826">
        <ele>49.16</ele>
        <time>2021-05-28T15:03:05Z</time>
      </trkpt>
      <trkpt lat="37.2156518418" lon="-8.3927526232">
        <ele>48.20</ele>
        <time>2021-05-28T15:03:07Z</time>
      </trkpt>
      <trkpt lat="37.2155663464" lon="-8.3927391283">
        <ele>47.24</ele>
        <time>2021-05-28T15:03:08Z</time>
      </trkpt>
      <trkpt lat="37.2154841200" lon="-8.3927402180">
        <ele>47.24</ele>
        <time>2021-05-28T15:03:09Z</time>
      </trkpt>
      <trkpt lat="37.2154014744" lon="-8.3927581552">
        <ele>47.24</ele>
        <time>2021-05-28T15:03:10Z</time>
      </trkpt>
      <trkpt lat="37.2153209243" lon="-8.3927959576">
        <ele>46.28</ele>
        <time>2021-05-28T15:03:11Z</time>
      </trkpt>
      <trkpt lat="37.2152388655" lon="-8.3928541280">
        <ele>46.76</ele>
        <time>2021-05-28T15:03:12Z</time>
      </trkpt>
      <trkpt lat="37.2151525319" lon="-8.3929240331">
        <ele>46.76</ele>
        <time>2021-05-28T15:03:13Z</time>
      </trkpt>
      <trkpt lat="37.2148442455" lon="-8.3931794297">
        <ele>46.28</ele>
        <time>2021-05-28T15:03:17Z</time>
      </trkpt>
      <trkpt lat="37.2147859074" lon="-8.3932530228">
        <ele>45.80</ele>
        <time>2021-05-28T15:03:18Z</time>
      </trkpt>
      <trkpt lat="37.2147289943" lon="-8.3933412004">
        <ele>45.80</ele>
        <time>2021-05-28T15:03:19Z</time>
      </trkpt>
      <trkpt lat="37.2146740090" lon="-8.3934429567">
        <ele>46.28</ele>
        <time>2021-05-28T15:03:20Z</time>
      </trkpt>
      <trkpt lat="37.2146212868" lon="-8.3935551066">
        <ele>46.28</ele>
        <time>2021-05-28T15:03:21Z</time>
      </trkpt>
      <trkpt lat="37.2145711631" lon="-8.3936733752">
        <ele>46.28</ele>
        <time>2021-05-28T15:03:22Z</time>
      </trkpt>
      <trkpt lat="37.2144682333" lon="-8.3938860241">
        <ele>44.84</ele>
        <time>2021-05-28T15:03:24Z</time>
      </trkpt>
      <trkpt lat="37.2144101467" lon="-8.3939705137">
        <ele>43.88</ele>
        <time>2021-05-28T15:03:25Z</time>
      </trkpt>
      <trkpt lat="37.2143468633" lon="-8.3940359764">
        <ele>43.40</ele>
        <time>2021-05-28T15:03:26Z</time>
      </trkpt>
      <trkpt lat="37.2142870165" lon="-8.3940772992">
        <ele>42.92</ele>
        <time>2021-05-28T15:03:27Z</time>
      </trkpt>
      <trkpt lat="37.2142368928" lon="-8.3940962423">
        <ele>42.44</ele>
        <time>2021-05-28T15:03:28Z</time>
      </trkpt>
      <trkpt lat="37.2141856793" lon="-8.3940980025">
        <ele>42.44</ele>
        <time>2021-05-28T15:03:29Z</time>
      </trkpt>
      <trkpt lat="37.2141181212" lon="-8.3940921351">
        <ele>42.44</ele>
        <time>2021-05-28T15:03:30Z</time>
      </trkpt>
      <trkpt lat="37.2133804299" lon="-8.3939051349">
        <ele>41.95</ele>
        <time>2021-05-28T15:03:36Z</time>
      </trkpt>
      <trkpt lat="37.2123585921" lon="-8.3936030511">
        <ele>38.59</ele>
        <time>2021-05-28T15:03:43Z</time>
      </trkpt>
      <trkpt lat="37.2115405183" lon="-8.3933706209">
        <ele>35.23</ele>
        <time>2021-05-28T15:03:49Z</time>
      </trkpt>
      <trkpt lat="37.2108768392" lon="-8.3931879792">
        <ele>32.34</ele>
        <time>2021-05-28T15:03:56Z</time>
      </trkpt>
      <trkpt lat="37.2106204368" lon="-8.3931850456">
        <ele>30.90</ele>
        <time>2021-05-28T15:04:03Z</time>
      </trkpt>
      <trkpt lat="37.2105986439" lon="-8.3932225127">
        <ele>31.38</ele>
        <time>2021-05-28T15:04:04Z</time>
      </trkpt>
      <trkpt lat="37.2105776053" lon="-8.3932967763">
        <ele>32.34</ele>
        <time>2021-05-28T15:04:05Z</time>
      </trkpt>
      <trkpt lat="37.2105654515" lon="-8.3934072498">
        <ele>32.34</ele>
        <time>2021-05-28T15:04:06Z</time>
      </trkpt>
      <trkpt lat="37.2105040122" lon="-8.3940239903">
        <ele>36.19</ele>
        <time>2021-05-28T15:04:10Z</time>
      </trkpt>
      <trkpt lat="37.2104830574" lon="-8.3942080569">
        <ele>36.19</ele>
        <time>2021-05-28T15:04:11Z</time>
      </trkpt>
      <trkpt lat="37.2104254737" lon="-8.3946048561">
        <ele>38.59</ele>
        <time>2021-05-28T15:04:13Z</time>
      </trkpt>
      <trkpt lat="37.2103735059" lon="-8.3948057704">
        <ele>38.11</ele>
        <time>2021-05-28T15:04:14Z</time>
      </trkpt>
      <trkpt lat="37.2102980688" lon="-8.3950022422">
        <ele>39.07</ele>
        <time>2021-05-28T15:04:15Z</time>
      </trkpt>
      <trkpt lat="37.2102044430" lon="-8.3951956965">
        <ele>40.03</ele>
        <time>2021-05-28T15:04:16Z</time>
      </trkpt>
      <trkpt lat="37.2101039439" lon="-8.3953842893">
        <ele>40.03</ele>
        <time>2021-05-28T15:04:17Z</time>
      </trkpt>
      <trkpt lat="37.2092958447" lon="-8.3967610169">
        <ele>36.67</ele>
        <time>2021-05-28T15:04:24Z</time>
      </trkpt>
      <trkpt lat="37.2088744864" lon="-8.3975293860">
        <ele>33.78</ele>
        <time>2021-05-28T15:04:28Z</time>
      </trkpt>
      <trkpt lat="37.2088006418" lon="-8.3977319766">
        <ele>32.34</ele>
        <time>2021-05-28T15:04:29Z</time>
      </trkpt>
      <trkpt lat="37.2087456565" lon="-8.3979507443">
        <ele>31.38</ele>
        <time>2021-05-28T15:04:30Z</time>
      </trkpt>
      <trkpt lat="37.2087039985" lon="-8.3981841803">
        <ele>31.38</ele>
        <time>2021-05-28T15:04:31Z</time>
      </trkpt>
      <trkpt lat="37.2085067723" lon="-8.4001406003">
        <ele>34.26</ele>
        <time>2021-05-28T15:04:39Z</time>
      </trkpt>
      <trkpt lat="37.2085195128" lon="-8.4003959130">
        <ele>34.26</ele>
        <time>2021-05-28T15:04:40Z</time>
      </trkpt>
      <trkpt lat="37.2085545491" lon="-8.4009259008">
        <ele>36.19</ele>
        <time>2021-05-28T15:04:42Z</time>
      </trkpt>
      <trkpt lat="37.2087109555" lon="-8.4031659644">
        <ele>37.63</ele>
        <time>2021-05-28T15:04:51Z</time>
      </trkpt>
      <trkpt lat="37.2087497637" lon="-8.4043034725">
        <ele>37.63</ele>
        <time>2021-05-28T15:04:56Z</time>
      </trkpt>
      <trkpt lat="37.2087102849" lon="-8.4045148641">
        <ele>37.63</ele>
        <time>2021-05-28T15:04:57Z</time>
      </trkpt>
      <trkpt lat="37.2086407989" lon="-8.4047249146">
        <ele>36.67</ele>
        <time>2021-05-28T15:04:58Z</time>
      </trkpt>
      <trkpt lat="37.2085506935" lon="-8.4049349651">
        <ele>38.11</ele>
        <time>2021-05-28T15:04:59Z</time>
      </trkpt>
      <trkpt lat="37.2084465902" lon="-8.4051489551">
        <ele>39.07</ele>
        <time>2021-05-28T15:05:00Z</time>
      </trkpt>
      <trkpt lat="37.2081186064" lon="-8.4058246203">
        <ele>40.99</ele>
        <time>2021-05-28T15:05:03Z</time>
      </trkpt>
      <trkpt lat="37.2075405065" lon="-8.4066506568">
        <ele>41.95</ele>
        <time>2021-05-28T15:05:07Z</time>
      </trkpt>
      <trkpt lat="37.2067789268" lon="-8.4076507017">
        <ele>37.63</ele>
        <time>2021-05-28T15:05:13Z</time>
      </trkpt>
      <trkpt lat="37.2063097078" lon="-8.4084270336">
        <ele>37.63</ele>
        <time>2021-05-28T15:05:18Z</time>
      </trkpt>
      <trkpt lat="37.2062372044" lon="-8.4086411912">
        <ele>38.11</ele>
        <time>2021-05-28T15:05:19Z</time>
      </trkpt>
      <trkpt lat="37.2056623735" lon="-8.4105997067">
        <ele>37.63</ele>
        <time>2021-05-28T15:05:28Z</time>
      </trkpt>
      <trkpt lat="37.2053727787" lon="-8.4116168506">
        <ele>41.47</ele>
        <time>2021-05-28T15:05:33Z</time>
      </trkpt>
      <trkpt lat="37.2053048015" lon="-8.4118563216">
        <ele>41.47</ele>
        <time>2021-05-28T15:05:34Z</time>
      </trkpt>
      <trkpt lat="37.2048059106" lon="-8.4135514777">
        <ele>45.32</ele>
        <time>2021-05-28T15:05:41Z</time>
      </trkpt>
      <trkpt lat="37.2042222787" lon="-8.4155800659">
        <ele>48.68</ele>
        <time>2021-05-28T15:05:49Z</time>
      </trkpt>
      <trkpt lat="37.2039211169" lon="-8.4166023228">
        <ele>44.84</ele>
        <time>2021-05-28T15:05:53Z</time>
      </trkpt>
      <trkpt lat="37.2038457636" lon="-8.4168547858">
        <ele>44.84</ele>
        <time>2021-05-28T15:05:54Z</time>
      </trkpt>
      <trkpt lat="37.2036307678" lon="-8.4176109172">
        <ele>42.92</ele>
        <time>2021-05-28T15:05:57Z</time>
      </trkpt>
      <trkpt lat="37.2033473756" lon="-8.4185936116">
        <ele>40.03</ele>
        <time>2021-05-28T15:06:01Z</time>
      </trkpt>
      <trkpt lat="37.2032731958" lon="-8.4188388661">
        <ele>40.51</ele>
        <time>2021-05-28T15:06:02Z</time>
      </trkpt>
      <trkpt lat="37.2029557731" lon="-8.4198229015">
        <ele>38.59</ele>
        <time>2021-05-28T15:06:06Z</time>
      </trkpt>
      <trkpt lat="37.2025207523" lon="-8.4207587410">
        <ele>37.15</ele>
        <time>2021-05-28T15:06:10Z</time>
      </trkpt>
      <trkpt lat="37.2020709794" lon="-8.4222913720">
        <ele>36.19</ele>
        <time>2021-05-28T15:06:16Z</time>
      </trkpt>
      <trkpt lat="37.2014348768" lon="-8.4241481312">
        <ele>33.30</ele>
        <time>2021-05-28T15:06:24Z</time>
      </trkpt>
      <trkpt lat="37.2008177172" lon="-8.4257288743">
        <ele>30.90</ele>
        <time>2021-05-28T15:06:32Z</time>
      </trkpt>
      <trkpt lat="37.2004477400" lon="-8.4268260654">
        <ele>27.05</ele>
        <time>2021-05-28T15:06:38Z</time>
      </trkpt>
      <trkpt lat="37.2003419604" lon="-8.4270905145">
        <ele>26.09</ele>
        <time>2021-05-28T15:06:40Z</time>
      </trkpt>
      <trkpt lat="37.2002631705" lon="-8.4271984734">
        <ele>25.61</ele>
        <time>2021-05-28T15:06:41Z</time>
      </trkpt>
      <trkpt lat="37.2001617495" lon="-8.4272901714">
        <ele>25.13</ele>
        <time>2021-05-28T15:06:42Z</time>
      </trkpt>
      <trkpt lat="37.2000413015" lon="-8.4273730684">
        <ele>26.09</ele>
        <time>2021-05-28T15:06:43Z</time>
      </trkpt>
      <trkpt lat="37.1999110468" lon="-8.4274556302">
        <ele>27.05</ele>
        <time>2021-05-28T15:06:44Z</time>
      </trkpt>
      <trkpt lat="37.1985175554" lon="-8.4283194691">
        <ele>27.05</ele>
        <time>2021-05-28T15:06:54Z</time>
      </trkpt>
      <trkpt lat="37.1976084542" lon="-8.4289256483">
        <ele>23.69</ele>
        <time>2021-05-28T15:07:02Z</time>
      </trkpt>
      <trkpt lat="37.1967466269" lon="-8.4297570493">
        <ele>26.09</ele>
        <time>2021-05-28T15:07:10Z</time>
      </trkpt>
      <trkpt lat="37.1965136938" lon="-8.4299990349">
        <ele>27.05</ele>
        <time>2021-05-28T15:07:12Z</time>
      </trkpt>
      <trkpt lat="37.1952517983" lon="-8.4312766884">
        <ele>24.65</ele>
        <time>2021-05-28T15:07:22Z</time>
      </trkpt>
      <trkpt lat="37.1945722774" lon="-8.4319811035">
        <ele>21.29</ele>
        <time>2021-05-28T15:07:28Z</time>
      </trkpt>
      <trkpt lat="37.1943374164" lon="-8.4322515037">
        <ele>17.44</ele>
        <time>2021-05-28T15:07:31Z</time>
      </trkpt>
      <trkpt lat="37.1942903940" lon="-8.4323189780">
        <ele>17.44</ele>
        <time>2021-05-28T15:07:32Z</time>
      </trkpt>
      <trkpt lat="37.1941959299" lon="-8.4325079061">
        <ele>16.48</ele>
        <time>2021-05-28T15:07:36Z</time>
      </trkpt>
      <trkpt lat="37.1941860393" lon="-8.4325728659">
        <ele>17.44</ele>
        <time>2021-05-28T15:07:37Z</time>
      </trkpt>
      <trkpt lat="37.1941604745" lon="-8.4327368997">
        <ele>16.96</ele>
        <time>2021-05-28T15:07:39Z</time>
      </trkpt>
      <trkpt lat="37.1941176429" lon="-8.4327986743">
        <ele>16.48</ele>
        <time>2021-05-28T15:07:40Z</time>
      </trkpt>
      <trkpt lat="37.1940545272" lon="-8.4328259155">
        <ele>16.48</ele>
        <time>2021-05-28T15:07:41Z</time>
      </trkpt>
      <trkpt lat="37.1939775813" lon="-8.4328177013">
        <ele>16.48</ele>
        <time>2021-05-28T15:07:42Z</time>
      </trkpt>
      <trkpt lat="37.1938865539" lon="-8.4327905439">
        <ele>16.96</ele>
        <time>2021-05-28T15:07:43Z</time>
      </trkpt>
      <trkpt lat="37.1937891562" lon="-8.4327638894">
        <ele>16.96</ele>
        <time>2021-05-28T15:07:44Z</time>
      </trkpt>
      <trkpt lat="37.1936861426" lon="-8.4327636380">
        <ele>16.96</ele>
        <time>2021-05-28T15:07:45Z</time>
      </trkpt>
      <trkpt lat="37.1935764235" lon="-8.4327883646">
        <ele>17.92</ele>
        <time>2021-05-28T15:07:46Z</time>
      </trkpt>
      <trkpt lat="37.1934726555" lon="-8.4328238200">
        <ele>17.44</ele>
        <time>2021-05-28T15:07:47Z</time>
      </trkpt>
      <trkpt lat="37.1921242587" lon="-8.4334248863">
        <ele>18.40</ele>
        <time>2021-05-28T15:07:59Z</time>
      </trkpt>
      <trkpt lat="37.1909611858" lon="-8.4339425527">
        <ele>18.40</ele>
        <time>2021-05-28T15:08:09Z</time>
      </trkpt>
      <trkpt lat="37.1892214380" lon="-8.4349322040">
        <ele>15.52</ele>
        <time>2021-05-28T15:08:24Z</time>
      </trkpt>
      <trkpt lat="37.1887774486" lon="-8.4355340246">
        <ele>14.56</ele>
        <time>2021-05-28T15:08:31Z</time>
      </trkpt>
      <trkpt lat="37.1886676457" lon="-8.4357544687">
        <ele>13.12</ele>
        <time>2021-05-28T15:08:39Z</time>
      </trkpt>
      <trkpt lat="37.1885381453" lon="-8.4359729849">
        <ele>13.60</ele>
        <time>2021-05-28T15:08:58Z</time>
      </trkpt>
      <trkpt lat="37.1880854387" lon="-8.4367871191">
        <ele>15.04</ele>
        <time>2021-05-28T15:09:09Z</time>
      </trkpt>
      <trkpt lat="37.1873490885" lon="-8.4380865656">
        <ele>12.63</ele>
        <time>2021-05-28T15:09:22Z</time>
      </trkpt>
      <trkpt lat="37.1867629420" lon="-8.4391394164">
        <ele>11.67</ele>
        <time>2021-05-28T15:09:35Z</time>
      </trkpt>
      <trkpt lat="37.1862414200" lon="-8.4400635213">
        <ele>11.19</ele>
        <time>2021-05-28T15:09:46Z</time>
      </trkpt>
      <trkpt lat="37.1856352407" lon="-8.4411684237">
        <ele>11.67</ele>
        <time>2021-05-28T15:09:58Z</time>
      </trkpt>
      <trkpt lat="37.1856034733" lon="-8.4412612952">
        <ele>11.19</ele>
        <time>2021-05-28T15:09:59Z</time>
      </trkpt>
      <trkpt lat="37.1855823509" lon="-8.4413571842">
        <ele>12.15</ele>
        <time>2021-05-28T15:10:00Z</time>
      </trkpt>
      <trkpt lat="37.1855712030" lon="-8.4414419252">
        <ele>10.71</ele>
        <time>2021-05-28T15:10:01Z</time>
      </trkpt>
      <trkpt lat="37.1855701972" lon="-8.4415259957">
        <ele>11.19</ele>
        <time>2021-05-28T15:10:02Z</time>
      </trkpt>
      <trkpt lat="37.1855781600" lon="-8.4416173585">
        <ele>11.67</ele>
        <time>2021-05-28T15:10:03Z</time>
      </trkpt>
      <trkpt lat="37.1855909843" lon="-8.4417196177">
        <ele>11.67</ele>
        <time>2021-05-28T15:10:04Z</time>
      </trkpt>
      <trkpt lat="37.1855865419" lon="-8.4424578957">
        <ele>12.63</ele>
        <time>2021-05-28T15:10:10Z</time>
      </trkpt>
      <trkpt lat="37.1855926607" lon="-8.4425728954">
        <ele>12.63</ele>
        <time>2021-05-28T15:10:11Z</time>
      </trkpt>
      <trkpt lat="37.1856125258" lon="-8.4426776692">
        <ele>12.15</ele>
        <time>2021-05-28T15:10:12Z</time>
      </trkpt>
      <trkpt lat="37.1856446285" lon="-8.4427824430">
        <ele>11.67</ele>
        <time>2021-05-28T15:10:13Z</time>
      </trkpt>
      <trkpt lat="37.1856831014" lon="-8.4428819362">
        <ele>12.15</ele>
        <time>2021-05-28T15:10:14Z</time>
      </trkpt>
      <trkpt lat="37.1857250109" lon="-8.4429693595">
        <ele>11.67</ele>
        <time>2021-05-28T15:10:15Z</time>
      </trkpt>
      <trkpt lat="37.1860188805" lon="-8.4435063880">
        <ele>11.67</ele>
        <time>2021-05-28T15:10:21Z</time>
      </trkpt>
      <trkpt lat="37.1865155082" lon="-8.4444268048">
        <ele>12.15</ele>
        <time>2021-05-28T15:10:30Z</time>
      </trkpt>
      <trkpt lat="37.1867795382" lon="-8.4449406154">
        <ele>13.12</ele>
        <time>2021-05-28T15:10:36Z</time>
      </trkpt>
      <trkpt lat="37.1868788637" lon="-8.4451373387">
        <ele>10.23</ele>
        <time>2021-05-28T15:10:40Z</time>
      </trkpt>
      <trkpt lat="37.1870636847" lon="-8.4452686831">
        <ele>10.71</ele>
        <time>2021-05-28T15:10:47Z</time>
      </trkpt>
      <trkpt lat="37.1871072706" lon="-8.4453146998">
        <ele>11.67</ele>
        <time>2021-05-28T15:10:48Z</time>
      </trkpt>
      <trkpt lat="37.1871369425" lon="-8.4453768935">
        <ele>10.71</ele>
        <time>2021-05-28T15:10:49Z</time>
      </trkpt>
      <trkpt lat="37.1871453244" lon="-8.4454512410">
        <ele>10.71</ele>
        <time>2021-05-28T15:10:50Z</time>
      </trkpt>
      <trkpt lat="37.1871371102" lon="-8.4455231577">
        <ele>10.71</ele>
        <time>2021-05-28T15:10:51Z</time>
      </trkpt>
      <trkpt lat="37.1871205140" lon="-8.4455874469">
        <ele>10.71</ele>
        <time>2021-05-28T15:10:52Z</time>
      </trkpt>
      <trkpt lat="37.1870991401" lon="-8.4456553403">
        <ele>10.23</ele>
        <time>2021-05-28T15:10:53Z</time>
      </trkpt>
      <trkpt lat="37.1870833822" lon="-8.4457359742">
        <ele>10.71</ele>
        <time>2021-05-28T15:10:54Z</time>
      </trkpt>
      <trkpt lat="37.1870746650" lon="-8.4458286781">
        <ele>10.71</ele>
        <time>2021-05-28T15:10:55Z</time>
      </trkpt>
      <trkpt lat="37.1870753355" lon="-8.4459311049">
        <ele>11.19</ele>
        <time>2021-05-28T15:10:56Z</time>
      </trkpt>
      <trkpt lat="37.1870813705" lon="-8.4460332803">
        <ele>11.19</ele>
        <time>2021-05-28T15:10:57Z</time>
      </trkpt>
      <trkpt lat="37.1870914288" lon="-8.4461367130">
        <ele>11.67</ele>
        <time>2021-05-28T15:10:58Z</time>
      </trkpt>
      <trkpt lat="37.1871435642" lon="-8.4471739735">
        <ele>10.23</ele>
        <time>2021-05-28T15:11:07Z</time>
      </trkpt>
      <trkpt lat="37.1871848032" lon="-8.4479715116">
        <ele>13.60</ele>
        <time>2021-05-28T15:11:13Z</time>
      </trkpt>
      <trkpt lat="37.1872242820" lon="-8.4490819462">
        <ele>16.00</ele>
        <time>2021-05-28T15:11:19Z</time>
      </trkpt>
      <trkpt lat="37.1872390341" lon="-8.4498659056">
        <ele>17.44</ele>
        <time>2021-05-28T15:11:23Z</time>
      </trkpt>
      <trkpt lat="37.1872873977" lon="-8.4523839969">
        <ele>12.15</ele>
        <time>2021-05-28T15:11:36Z</time>
      </trkpt>
      <trkpt lat="37.1872890741" lon="-8.4525425825">
        <ele>12.63</ele>
        <time>2021-05-28T15:11:37Z</time>
      </trkpt>
      <trkpt lat="37.1873071790" lon="-8.4539109282">
        <ele>16.00</ele>
        <time>2021-05-28T15:11:45Z</time>
      </trkpt>
      <trkpt lat="37.1873096935" lon="-8.4541049693">
        <ele>15.04</ele>
        <time>2021-05-28T15:11:46Z</time>
      </trkpt>
      <trkpt lat="37.1873252839" lon="-8.4547340311">
        <ele>18.40</ele>
        <time>2021-05-28T15:11:49Z</time>
      </trkpt>
      <trkpt lat="37.1873192489" lon="-8.4549615160">
        <ele>18.40</ele>
        <time>2021-05-28T15:11:50Z</time>
      </trkpt>
      <trkpt lat="37.1872975398" lon="-8.4551967960">
        <ele>18.88</ele>
        <time>2021-05-28T15:11:51Z</time>
      </trkpt>
      <trkpt lat="37.1872593183" lon="-8.4554318246">
        <ele>19.36</ele>
        <time>2021-05-28T15:11:52Z</time>
      </trkpt>
      <trkpt lat="37.1869036742" lon="-8.4570609313">
        <ele>17.92</ele>
        <time>2021-05-28T15:12:00Z</time>
      </trkpt>
      <trkpt lat="37.1868275665" lon="-8.4575552121">
        <ele>20.32</ele>
        <time>2021-05-28T15:12:03Z</time>
      </trkpt>
      <trkpt lat="37.1868353616" lon="-8.4577322379">
        <ele>20.32</ele>
        <time>2021-05-28T15:12:04Z</time>
      </trkpt>
      <trkpt lat="37.1868625190" lon="-8.4579228424">
        <ele>21.29</ele>
        <time>2021-05-28T15:12:05Z</time>
      </trkpt>
      <trkpt lat="37.1869844757" lon="-8.4585757926">
        <ele>22.73</ele>
        <time>2021-05-28T15:12:08Z</time>
      </trkpt>
      <trkpt lat="37.1872091945" lon="-8.4597731475">
        <ele>23.69</ele>
        <time>2021-05-28T15:12:13Z</time>
      </trkpt>
      <trkpt lat="37.1875723824" lon="-8.4616130590">
        <ele>19.36</ele>
        <time>2021-05-28T15:12:21Z</time>
      </trkpt>
      <trkpt lat="37.1880133543" lon="-8.4638739098">
        <ele>22.73</ele>
        <time>2021-05-28T15:12:31Z</time>
      </trkpt>
      <trkpt lat="37.1883545816" lon="-8.4658207744">
        <ele>21.29</ele>
        <time>2021-05-28T15:12:39Z</time>
      </trkpt>
      <trkpt lat="37.1883523185" lon="-8.4660666157">
        <ele>20.32</ele>
        <time>2021-05-28T15:12:40Z</time>
      </trkpt>
      <trkpt lat="37.1883361414" lon="-8.4663065895">
        <ele>20.32</ele>
        <time>2021-05-28T15:12:41Z</time>
      </trkpt>
      <trkpt lat="37.1882902924" lon="-8.4671596158">
        <ele>19.36</ele>
        <time>2021-05-28T15:12:45Z</time>
      </trkpt>
      <trkpt lat="37.1883310284" lon="-8.4673584346">
        <ele>19.36</ele>
        <time>2021-05-28T15:12:46Z</time>
      </trkpt>
      <trkpt lat="37.1883995086" lon="-8.4675623663">
        <ele>20.32</ele>
        <time>2021-05-28T15:12:47Z</time>
      </trkpt>
      <trkpt lat="37.1884935535" lon="-8.4677725006">
        <ele>20.81</ele>
        <time>2021-05-28T15:12:48Z</time>
      </trkpt>
      <trkpt lat="37.1886046976" lon="-8.4679890890">
        <ele>22.73</ele>
        <time>2021-05-28T15:12:49Z</time>
      </trkpt>
      <trkpt lat="37.1889368724" lon="-8.4686121158">
        <ele>19.36</ele>
        <time>2021-05-28T15:12:52Z</time>
      </trkpt>
      <trkpt lat="37.1899144538" lon="-8.4700874984">
        <ele>22.25</ele>
        <time>2021-05-28T15:13:01Z</time>
      </trkpt>
      <trkpt lat="37.1907950565" lon="-8.4710166324">
        <ele>25.61</ele>
        <time>2021-05-28T15:13:07Z</time>
      </trkpt>
      <trkpt lat="37.1920538507" lon="-8.4723760094">
        <ele>22.73</ele>
        <time>2021-05-28T15:13:16Z</time>
      </trkpt>
      <trkpt lat="37.1921525057" lon="-8.4725318290">
        <ele>22.25</ele>
        <time>2021-05-28T15:13:17Z</time>
      </trkpt>
      <trkpt lat="37.1925890353" lon="-8.4734581131">
        <ele>22.25</ele>
        <time>2021-05-28T15:13:22Z</time>
      </trkpt>
      <trkpt lat="37.1927090641" lon="-8.4738234803">
        <ele>22.25</ele>
        <time>2021-05-28T15:13:24Z</time>
      </trkpt>
      <trkpt lat="37.1927285939" lon="-8.4740193654">
        <ele>23.21</ele>
        <time>2021-05-28T15:13:25Z</time>
      </trkpt>
      <trkpt lat="37.1927179489" lon="-8.4742105566">
        <ele>22.25</ele>
        <time>2021-05-28T15:13:26Z</time>
      </trkpt>
      <trkpt lat="37.1926740278" lon="-8.4743874986">
        <ele>20.81</ele>
        <time>2021-05-28T15:13:27Z</time>
      </trkpt>
      <trkpt lat="37.1925979201" lon="-8.4745533764">
        <ele>19.84</ele>
        <time>2021-05-28T15:13:28Z</time>
      </trkpt>
      <trkpt lat="37.1924980078" lon="-8.4747178294">
        <ele>21.77</ele>
        <time>2021-05-28T15:13:29Z</time>
      </trkpt>
      <trkpt lat="37.1923774760" lon="-8.4748969506">
        <ele>23.21</ele>
        <time>2021-05-28T15:13:30Z</time>
      </trkpt>
      <trkpt lat="37.1919868793" lon="-8.4754789900">
        <ele>26.09</ele>
        <time>2021-05-28T15:13:33Z</time>
      </trkpt>
      <trkpt lat="37.1918548644" lon="-8.4756775573">
        <ele>26.09</ele>
        <time>2021-05-28T15:13:34Z</time>
      </trkpt>
      <trkpt lat="37.1906050388" lon="-8.4775570314">
        <ele>27.53</ele>
        <time>2021-05-28T15:13:43Z</time>
      </trkpt>
      <trkpt lat="37.1901887096" lon="-8.4781959001">
        <ele>32.34</ele>
        <time>2021-05-28T15:13:46Z</time>
      </trkpt>
      <trkpt lat="37.1897741407" lon="-8.4788251296">
        <ele>36.19</ele>
        <time>2021-05-28T15:13:49Z</time>
      </trkpt>
      <trkpt lat="37.1885768697" lon="-8.4806086309">
        <ele>37.15</ele>
        <time>2021-05-28T15:13:58Z</time>
      </trkpt>
      <trkpt lat="37.1878581215" lon="-8.4816910699">
        <ele>33.78</ele>
        <time>2021-05-28T15:14:03Z</time>
      </trkpt>
      <trkpt lat="37.1875581332" lon="-8.4821392503">
        <ele>30.90</ele>
        <time>2021-05-28T15:14:05Z</time>
      </trkpt>
      <trkpt lat="37.1871232800" lon="-8.4827829804">
        <ele>25.13</ele>
        <time>2021-05-28T15:14:08Z</time>
      </trkpt>
      <trkpt lat="37.1868764330" lon="-8.4831517003">
        <ele>24.17</ele>
        <time>2021-05-28T15:14:10Z</time>
      </trkpt>
      <trkpt lat="37.1865938790" lon="-8.4836216737">
        <ele>21.77</ele>
        <time>2021-05-28T15:14:13Z</time>
      </trkpt>
      <trkpt lat="37.1865422465" lon="-8.4837902337">
        <ele>21.77</ele>
        <time>2021-05-28T15:14:14Z</time>
      </trkpt>
      <trkpt lat="37.1865129936" lon="-8.4839760605">
        <ele>23.21</ele>
        <time>2021-05-28T15:14:15Z</time>
      </trkpt>
      <trkpt lat="37.1865052823" lon="-8.4841788188">
        <ele>23.21</ele>
        <time>2021-05-28T15:14:16Z</time>
      </trkpt>
      <trkpt lat="37.1865046956" lon="-8.4843911324">
        <ele>23.69</ele>
        <time>2021-05-28T15:14:17Z</time>
      </trkpt>
      <trkpt lat="37.1865088027" lon="-8.4862132743">
        <ele>21.77</ele>
        <time>2021-05-28T15:14:26Z</time>
      </trkpt>
      <trkpt lat="37.1865383070" lon="-8.4863815829">
        <ele>21.77</ele>
        <time>2021-05-28T15:14:27Z</time>
      </trkpt>
      <trkpt lat="37.1865854971" lon="-8.4865521546">
        <ele>22.73</ele>
        <time>2021-05-28T15:14:28Z</time>
      </trkpt>
      <trkpt lat="37.1866929531" lon="-8.4868750256">
        <ele>26.09</ele>
        <time>2021-05-28T15:14:30Z</time>
      </trkpt>
      <trkpt lat="37.1867451724" lon="-8.4870140813">
        <ele>24.65</ele>
        <time>2021-05-28T15:14:31Z</time>
      </trkpt>
      <trkpt lat="37.1868041810" lon="-8.4871284105">
        <ele>23.21</ele>
        <time>2021-05-28T15:14:32Z</time>
      </trkpt>
      <trkpt lat="37.1868786961" lon="-8.4872059431">
        <ele>22.25</ele>
        <time>2021-05-28T15:14:33Z</time>
      </trkpt>
      <trkpt lat="37.1869715676" lon="-8.4872533847">
        <ele>22.25</ele>
        <time>2021-05-28T15:14:34Z</time>
      </trkpt>
      <trkpt lat="37.1870838851" lon="-8.4872855712">
        <ele>22.25</ele>
        <time>2021-05-28T15:14:35Z</time>
      </trkpt>
      <trkpt lat="37.1872122120" lon="-8.4873062745">
        <ele>22.73</ele>
        <time>2021-05-28T15:14:36Z</time>
      </trkpt>
      <trkpt lat="37.1873434726" lon="-8.4873185959">
        <ele>22.25</ele>
        <time>2021-05-28T15:14:37Z</time>
      </trkpt>
      <trkpt lat="37.1874699555" lon="-8.4873198532">
        <ele>20.32</ele>
        <time>2021-05-28T15:14:38Z</time>
      </trkpt>
      <trkpt lat="37.1875931695" lon="-8.4872991499">
        <ele>19.84</ele>
        <time>2021-05-28T15:14:39Z</time>
      </trkpt>
      <trkpt lat="37.1877178084" lon="-8.4872494452">
        <ele>19.84</ele>
        <time>2021-05-28T15:14:40Z</time>
      </trkpt>
      <trkpt lat="37.1880763862" lon="-8.4870769456">
        <ele>16.48</ele>
        <time>2021-05-28T15:14:43Z</time>
      </trkpt>
      <trkpt lat="37.1881874464" lon="-8.4870593436">
        <ele>15.52</ele>
        <time>2021-05-28T15:14:44Z</time>
      </trkpt>
      <trkpt lat="37.1883000992" lon="-8.4870782029">
        <ele>15.52</ele>
        <time>2021-05-28T15:14:45Z</time>
      </trkpt>
      <trkpt lat="37.1884102374" lon="-8.4871424921">
        <ele>15.04</ele>
        <time>2021-05-28T15:14:46Z</time>
      </trkpt>
      <trkpt lat="37.1885215491" lon="-8.4872478526">
        <ele>16.96</ele>
        <time>2021-05-28T15:14:47Z</time>
      </trkpt>
      <trkpt lat="37.1886316873" lon="-8.4873671271">
        <ele>17.44</ele>
        <time>2021-05-28T15:14:48Z</time>
      </trkpt>
      <trkpt lat="37.1889806259" lon="-8.4877301473">
        <ele>20.81</ele>
        <time>2021-05-28T15:14:51Z</time>
      </trkpt>
      <trkpt lat="37.1893879864" lon="-8.4881557804">
        <ele>22.25</ele>
        <time>2021-05-28T15:14:54Z</time>
      </trkpt>
      <trkpt lat="37.1910310909" lon="-8.4898392856">
        <ele>23.21</ele>
        <time>2021-05-28T15:15:05Z</time>
      </trkpt>
      <trkpt lat="37.1925875265" lon="-8.4914461803">
        <ele>24.17</ele>
        <time>2021-05-28T15:15:15Z</time>
      </trkpt>
      <trkpt lat="37.1928963996" lon="-8.4917686321">
        <ele>28.50</ele>
        <time>2021-05-28T15:15:17Z</time>
      </trkpt>
      <trkpt lat="37.1933361143" lon="-8.4922277089">
        <ele>24.65</ele>
        <time>2021-05-28T15:15:20Z</time>
      </trkpt>
      <trkpt lat="37.1939484123" lon="-8.4928532504">
        <ele>25.61</ele>
        <time>2021-05-28T15:15:24Z</time>
      </trkpt>
      <trkpt lat="37.1945936512" lon="-8.4935182706">
        <ele>22.73</ele>
        <time>2021-05-28T15:15:29Z</time>
      </trkpt>
      <trkpt lat="37.1950901113" lon="-8.4940133058">
        <ele>19.36</ele>
        <time>2021-05-28T15:15:35Z</time>
      </trkpt>
      <trkpt lat="37.1952924505" lon="-8.4942334983">
        <ele>16.48</ele>
        <time>2021-05-28T15:15:39Z</time>
      </trkpt>
      <trkpt lat="37.1956221107" lon="-8.4945395216">
        <ele>15.04</ele>
        <time>2021-05-28T15:15:50Z</time>
      </trkpt>
      <trkpt lat="37.1956381202" lon="-8.4945548605">
        <ele>14.56</ele>
        <time>2021-05-28T15:16:02Z</time>
      </trkpt>
      <trkpt lat="37.1956348512" lon="-8.4945540223">
        <ele>14.56</ele>
        <time>2021-05-28T15:16:41Z</time>
      </trkpt>
      <trkpt lat="37.1956785209" lon="-8.4945968539">
        <ele>14.56</ele>
        <time>2021-05-28T15:16:45Z</time>
      </trkpt>
      <trkpt lat="37.1957282256" lon="-8.4946365841">
        <ele>15.52</ele>
        <time>2021-05-28T15:16:46Z</time>
      </trkpt>
      <trkpt lat="37.1957842167" lon="-8.4946731292">
        <ele>15.04</ele>
        <time>2021-05-28T15:16:47Z</time>
      </trkpt>
      <trkpt lat="37.1958367713" lon="-8.4946995322">
        <ele>15.04</ele>
        <time>2021-05-28T15:16:48Z</time>
      </trkpt>
      <trkpt lat="37.1958892420" lon="-8.4947205707">
        <ele>15.04</ele>
        <time>2021-05-28T15:16:49Z</time>
      </trkpt>
      <trkpt lat="37.1959500108" lon="-8.4947385080">
        <ele>15.04</ele>
        <time>2021-05-28T15:16:50Z</time>
      </trkpt>
      <trkpt lat="37.1960181557" lon="-8.4947544336">
        <ele>15.04</ele>
        <time>2021-05-28T15:16:51Z</time>
      </trkpt>
      <trkpt lat="37.1967830881" lon="-8.4948644880">
        <ele>14.08</ele>
        <time>2021-05-28T15:17:00Z</time>
      </trkpt>
      <trkpt lat="37.1969011053" lon="-8.4948617220">
        <ele>14.56</ele>
        <time>2021-05-28T15:17:01Z</time>
      </trkpt>
      <trkpt lat="37.1970219724" lon="-8.4948435333">
        <ele>15.52</ele>
        <time>2021-05-28T15:17:02Z</time>
      </trkpt>
      <trkpt lat="37.1971482877" lon="-8.4948080778">
        <ele>15.04</ele>
        <time>2021-05-28T15:17:03Z</time>
      </trkpt>
      <trkpt lat="37.1978010703" lon="-8.4945550282">
        <ele>18.40</ele>
        <time>2021-05-28T15:17:07Z</time>
      </trkpt>
      <trkpt lat="37.1984038968" lon="-8.4943230171">
        <ele>20.81</ele>
        <time>2021-05-28T15:17:10Z</time>
      </trkpt>
      <trkpt lat="37.1990704257" lon="-8.4940697998">
        <ele>23.69</ele>
        <time>2021-05-28T15:17:13Z</time>
      </trkpt>
      <trkpt lat="37.1997436602" lon="-8.4937964659">
        <ele>22.25</ele>
        <time>2021-05-28T15:17:16Z</time>
      </trkpt>
      <trkpt lat="37.2019254696" lon="-8.4929104988">
        <ele>19.36</ele>
        <time>2021-05-28T15:17:26Z</time>
      </trkpt>
      <trkpt lat="37.2021068539" lon="-8.4928053897">
        <ele>21.77</ele>
        <time>2021-05-28T15:17:27Z</time>
      </trkpt>
      <trkpt lat="37.2022838797" lon="-8.4926796611">
        <ele>20.32</ele>
        <time>2021-05-28T15:17:28Z</time>
      </trkpt>
      <trkpt lat="37.2024579719" lon="-8.4925359953">
        <ele>20.81</ele>
        <time>2021-05-28T15:17:29Z</time>
      </trkpt>
      <trkpt lat="37.2035886068" lon="-8.4914211184">
        <ele>20.32</ele>
        <time>2021-05-28T15:17:36Z</time>
      </trkpt>
      <trkpt lat="37.2038036864" lon="-8.4910776280">
        <ele>19.84</ele>
        <time>2021-05-28T15:17:38Z</time>
      </trkpt>
      <trkpt lat="37.2039965540" lon="-8.4908336308">
        <ele>18.40</ele>
        <time>2021-05-28T15:17:40Z</time>
      </trkpt>
      <trkpt lat="37.2041048482" lon="-8.4907688387">
        <ele>17.44</ele>
        <time>2021-05-28T15:17:41Z</time>
      </trkpt>
      <trkpt lat="37.2042292356" lon="-8.4907525778">
        <ele>18.40</ele>
        <time>2021-05-28T15:17:42Z</time>
      </trkpt>
      <trkpt lat="37.2043735720" lon="-8.4907764662">
        <ele>19.84</ele>
        <time>2021-05-28T15:17:43Z</time>
      </trkpt>
      <trkpt lat="37.2045345884" lon="-8.4908315353">
        <ele>22.73</ele>
        <time>2021-05-28T15:17:44Z</time>
      </trkpt>
      <trkpt lat="37.2047091834" lon="-8.4908977523">
        <ele>23.69</ele>
        <time>2021-05-28T15:17:45Z</time>
      </trkpt>
      <trkpt lat="37.2057233937" lon="-8.4912935458">
        <ele>19.36</ele>
        <time>2021-05-28T15:17:51Z</time>
      </trkpt>
      <trkpt lat="37.2058720049" lon="-8.4913524706">
        <ele>19.36</ele>
        <time>2021-05-28T15:17:52Z</time>
      </trkpt>
      <trkpt lat="37.2060154192" lon="-8.4914273210">
        <ele>18.88</ele>
        <time>2021-05-28T15:17:53Z</time>
      </trkpt>
      <trkpt lat="37.2061517928" lon="-8.4915348608">
        <ele>18.88</ele>
        <time>2021-05-28T15:17:54Z</time>
      </trkpt>
      <trkpt lat="37.2062836401" lon="-8.4916781075">
        <ele>19.36</ele>
        <time>2021-05-28T15:17:55Z</time>
      </trkpt>
      <trkpt lat="37.2064123023" lon="-8.4918506071">
        <ele>21.29</ele>
        <time>2021-05-28T15:17:56Z</time>
      </trkpt>
      <trkpt lat="37.2065397073" lon="-8.4920385294">
        <ele>20.81</ele>
        <time>2021-05-28T15:17:57Z</time>
      </trkpt>
      <trkpt lat="37.2071112692" lon="-8.4928695112">
        <ele>17.44</ele>
        <time>2021-05-28T15:18:02Z</time>
      </trkpt>
      <trkpt lat="37.2072928213" lon="-8.4931147657">
        <ele>15.04</ele>
        <time>2021-05-28T15:18:04Z</time>
      </trkpt>
      <trkpt lat="37.2073839325" lon="-8.4931981657">
        <ele>14.08</ele>
        <time>2021-05-28T15:18:05Z</time>
      </trkpt>
      <trkpt lat="37.2074853536" lon="-8.4932445176">
        <ele>13.60</ele>
        <time>2021-05-28T15:18:06Z</time>
      </trkpt>
      <trkpt lat="37.2075953241" lon="-8.4932510555">
        <ele>14.08</ele>
        <time>2021-05-28T15:18:07Z</time>
      </trkpt>
      <trkpt lat="37.2077105753" lon="-8.4932179470">
        <ele>14.08</ele>
        <time>2021-05-28T15:18:08Z</time>
      </trkpt>
      <trkpt lat="37.2078301851" lon="-8.4931593575">
        <ele>14.56</ele>
        <time>2021-05-28T15:18:09Z</time>
      </trkpt>
      <trkpt lat="37.2079625353" lon="-8.4930883627">
        <ele>14.56</ele>
        <time>2021-05-28T15:18:10Z</time>
      </trkpt>
      <trkpt lat="37.2083503660" lon="-8.4929306153">
        <ele>13.12</ele>
        <time>2021-05-28T15:18:13Z</time>
      </trkpt>
      <trkpt lat="37.2084539663" lon="-8.4929439425">
        <ele>12.15</ele>
        <time>2021-05-28T15:18:14Z</time>
      </trkpt>
      <trkpt lat="37.2085452452" lon="-8.4930038732">
        <ele>11.19</ele>
        <time>2021-05-28T15:18:15Z</time>
      </trkpt>
      <trkpt lat="37.2086136416" lon="-8.4931077249">
        <ele>11.67</ele>
        <time>2021-05-28T15:18:16Z</time>
      </trkpt>
      <trkpt lat="37.2086534556" lon="-8.4932466131">
        <ele>13.60</ele>
        <time>2021-05-28T15:18:17Z</time>
      </trkpt>
      <trkpt lat="37.2086718958" lon="-8.4934181906">
        <ele>14.56</ele>
        <time>2021-05-28T15:18:18Z</time>
      </trkpt>
      <trkpt lat="37.2086771764" lon="-8.4936158359">
        <ele>15.52</ele>
        <time>2021-05-28T15:18:19Z</time>
      </trkpt>
      <trkpt lat="37.2086777631" lon="-8.4947341494">
        <ele>19.84</ele>
        <time>2021-05-28T15:18:24Z</time>
      </trkpt>
      <trkpt lat="37.2086770087" lon="-8.4949668311">
        <ele>19.84</ele>
        <time>2021-05-28T15:18:25Z</time>
      </trkpt>
      <trkpt lat="37.2086760029" lon="-8.4959173389">
        <ele>22.25</ele>
        <time>2021-05-28T15:18:29Z</time>
      </trkpt>
      <trkpt lat="37.2086755000" lon="-8.4963594005">
        <ele>19.36</ele>
        <time>2021-05-28T15:18:31Z</time>
      </trkpt>
      <trkpt lat="37.2086736560" lon="-8.4982445743">
        <ele>22.25</ele>
        <time>2021-05-28T15:18:40Z</time>
      </trkpt>
      <trkpt lat="37.2086480912" lon="-8.4999029338">
        <ele>21.77</ele>
        <time>2021-05-28T15:18:48Z</time>
      </trkpt>
      <trkpt lat="37.2086009849" lon="-8.5001023393">
        <ele>20.32</ele>
        <time>2021-05-28T15:18:49Z</time>
      </trkpt>
      <trkpt lat="37.2085325047" lon="-8.5002983082">
        <ele>19.36</ele>
        <time>2021-05-28T15:18:50Z</time>
      </trkpt>
      <trkpt lat="37.2084530443" lon="-8.5004884936">
        <ele>19.84</ele>
        <time>2021-05-28T15:18:51Z</time>
      </trkpt>
      <trkpt lat="37.2083673812" lon="-8.5006744880">
        <ele>18.40</ele>
        <time>2021-05-28T15:18:52Z</time>
      </trkpt>
      <trkpt lat="37.2078133374" lon="-8.5019063763">
        <ele>15.52</ele>
        <time>2021-05-28T15:18:59Z</time>
      </trkpt>
      <trkpt lat="37.2077175323" lon="-8.5021916963">
        <ele>14.08</ele>
        <time>2021-05-28T15:19:01Z</time>
      </trkpt>
      <trkpt lat="37.2077073064" lon="-8.5023247171">
        <ele>12.63</ele>
        <time>2021-05-28T15:19:02Z</time>
      </trkpt>
      <trkpt lat="37.2077300213" lon="-8.5024501104">
        <ele>13.12</ele>
        <time>2021-05-28T15:19:03Z</time>
      </trkpt>
      <trkpt lat="37.2077898681" lon="-8.5025718156">
        <ele>13.60</ele>
        <time>2021-05-28T15:19:04Z</time>
      </trkpt>
      <trkpt lat="37.2078819014" lon="-8.5026890785">
        <ele>13.12</ele>
        <time>2021-05-28T15:19:05Z</time>
      </trkpt>
      <trkpt lat="37.2079975717" lon="-8.5028090235">
        <ele>16.48</ele>
        <time>2021-05-28T15:19:06Z</time>
      </trkpt>
      <trkpt lat="37.2081294190" lon="-8.5029353388">
        <ele>16.48</ele>
        <time>2021-05-28T15:19:07Z</time>
      </trkpt>
      <trkpt lat="37.2087699641" lon="-8.5036413465">
        <ele>17.92</ele>
        <time>2021-05-28T15:19:12Z</time>
      </trkpt>
      <trkpt lat="37.2088615783" lon="-8.5038259160">
        <ele>17.92</ele>
        <time>2021-05-28T15:19:13Z</time>
      </trkpt>
      <trkpt lat="37.2089288011" lon="-8.5040404089">
        <ele>19.36</ele>
        <time>2021-05-28T15:19:14Z</time>
      </trkpt>
      <trkpt lat="37.2089766618" lon="-8.5042767785">
        <ele>19.36</ele>
        <time>2021-05-28T15:19:15Z</time>
      </trkpt>
      <trkpt lat="37.2090188228" lon="-8.5045198537">
        <ele>21.29</ele>
        <time>2021-05-28T15:19:16Z</time>
      </trkpt>
      <trkpt lat="37.2090577148" lon="-8.5047648568">
        <ele>21.29</ele>
        <time>2021-05-28T15:19:17Z</time>
      </trkpt>
      <trkpt lat="37.2091138735" lon="-8.5052689444">
        <ele>23.69</ele>
        <time>2021-05-28T15:19:19Z</time>
      </trkpt>
      <trkpt lat="37.2091210820" lon="-8.5055330582">
        <ele>24.17</ele>
        <time>2021-05-28T15:19:20Z</time>
      </trkpt>
      <trkpt lat="37.2091090959" lon="-8.5058008600">
        <ele>22.73</ele>
        <time>2021-05-28T15:19:21Z</time>
      </trkpt>
      <trkpt lat="37.2089719679" lon="-8.5077871196">
        <ele>22.73</ele>
        <time>2021-05-28T15:19:29Z</time>
      </trkpt>
      <trkpt lat="37.2089926712" lon="-8.5079980921">
        <ele>21.77</ele>
        <time>2021-05-28T15:19:30Z</time>
      </trkpt>
      <trkpt lat="37.2090346646" lon="-8.5082041193">
        <ele>21.77</ele>
        <time>2021-05-28T15:19:31Z</time>
      </trkpt>
      <trkpt lat="37.2090888955" lon="-8.5084089730">
        <ele>21.29</ele>
        <time>2021-05-28T15:19:32Z</time>
      </trkpt>
      <trkpt lat="37.2091501672" lon="-8.5086139105">
        <ele>21.29</ele>
        <time>2021-05-28T15:19:33Z</time>
      </trkpt>
      <trkpt lat="37.2092546057" lon="-8.5090149846">
        <ele>19.36</ele>
        <time>2021-05-28T15:19:35Z</time>
      </trkpt>
      <trkpt lat="37.2092749737" lon="-8.5092140548">
        <ele>19.84</ele>
        <time>2021-05-28T15:19:36Z</time>
      </trkpt>
      <trkpt lat="37.2092739679" lon="-8.5094197467">
        <ele>19.36</ele>
        <time>2021-05-28T15:19:37Z</time>
      </trkpt>
      <trkpt lat="37.2092492413" lon="-8.5096281208">
        <ele>17.92</ele>
        <time>2021-05-28T15:19:38Z</time>
      </trkpt>
      <trkpt lat="37.2092055716" lon="-8.5098354053">
        <ele>17.44</ele>
        <time>2021-05-28T15:19:39Z</time>
      </trkpt>
      <trkpt lat="37.2091547772" lon="-8.5100429412">
        <ele>17.44</ele>
        <time>2021-05-28T15:19:40Z</time>
      </trkpt>
      <trkpt lat="37.2085996438" lon="-8.5123507306">
        <ele>15.52</ele>
        <time>2021-05-28T15:19:51Z</time>
      </trkpt>
      <trkpt lat="37.2081113979" lon="-8.5140355770">
        <ele>13.12</ele>
        <time>2021-05-28T15:20:00Z</time>
      </trkpt>
      <trkpt lat="37.2078150976" lon="-8.5146834981">
        <ele>16.00</ele>
        <time>2021-05-28T15:20:04Z</time>
      </trkpt>
      <trkpt lat="37.2074792348" lon="-8.5154617578">
        <ele>15.04</ele>
        <time>2021-05-28T15:20:09Z</time>
      </trkpt>
      <trkpt lat="37.2074478026" lon="-8.5156104527">
        <ele>15.52</ele>
        <time>2021-05-28T15:20:10Z</time>
      </trkpt>
      <trkpt lat="37.2074370738" lon="-8.5157558788">
        <ele>17.92</ele>
        <time>2021-05-28T15:20:11Z</time>
      </trkpt>
      <trkpt lat="37.2074545920" lon="-8.5159006342">
        <ele>17.92</ele>
        <time>2021-05-28T15:20:12Z</time>
      </trkpt>
      <trkpt lat="37.2075004410" lon="-8.5160389356">
        <ele>17.92</ele>
        <time>2021-05-28T15:20:13Z</time>
      </trkpt>
      <trkpt lat="37.2075747047" lon="-8.5161642451">
        <ele>18.40</ele>
        <time>2021-05-28T15:20:14Z</time>
      </trkpt>
      <trkpt lat="37.2076690011" lon="-8.5162761435">
        <ele>19.36</ele>
        <time>2021-05-28T15:20:15Z</time>
      </trkpt>
      <trkpt lat="37.2077755351" lon="-8.5163864493">
        <ele>20.81</ele>
        <time>2021-05-28T15:20:16Z</time>
      </trkpt>
      <trkpt lat="37.2081618570" lon="-8.5167846736">
        <ele>25.61</ele>
        <time>2021-05-28T15:20:19Z</time>
      </trkpt>
      <trkpt lat="37.2084530443" lon="-8.5170888528">
        <ele>28.98</ele>
        <time>2021-05-28T15:20:21Z</time>
      </trkpt>
      <trkpt lat="37.2085907590" lon="-8.5172348656">
        <ele>31.86</ele>
        <time>2021-05-28T15:20:22Z</time>
      </trkpt>
      <trkpt lat="37.2087285575" lon="-8.5173799563">
        <ele>31.38</ele>
        <time>2021-05-28T15:20:23Z</time>
      </trkpt>
      <trkpt lat="37.2093426157" lon="-8.5180678591">
        <ele>31.86</ele>
        <time>2021-05-28T15:20:28Z</time>
      </trkpt>
      <trkpt lat="37.2094264347" lon="-8.5182123631">
        <ele>31.38</ele>
        <time>2021-05-28T15:20:29Z</time>
      </trkpt>
      <trkpt lat="37.2094870359" lon="-8.5183768161">
        <ele>30.90</ele>
        <time>2021-05-28T15:20:30Z</time>
      </trkpt>
      <trkpt lat="37.2095163725" lon="-8.5185558535">
        <ele>31.86</ele>
        <time>2021-05-28T15:20:31Z</time>
      </trkpt>
      <trkpt lat="37.2095119301" lon="-8.5187465418">
        <ele>33.30</ele>
        <time>2021-05-28T15:20:32Z</time>
      </trkpt>
      <trkpt lat="37.2094798274" lon="-8.5189495515">
        <ele>35.23</ele>
        <time>2021-05-28T15:20:33Z</time>
      </trkpt>
      <trkpt lat="37.2094352357" lon="-8.5191587638">
        <ele>36.19</ele>
        <time>2021-05-28T15:20:34Z</time>
      </trkpt>
      <trkpt lat="37.2093329765" lon="-8.5195394699">
        <ele>33.78</ele>
        <time>2021-05-28T15:20:36Z</time>
      </trkpt>
      <trkpt lat="37.2092566174" lon="-8.5196950380">
        <ele>33.78</ele>
        <time>2021-05-28T15:20:37Z</time>
      </trkpt>
      <trkpt lat="37.2091504186" lon="-8.5198223591">
        <ele>35.71</ele>
        <time>2021-05-28T15:20:38Z</time>
      </trkpt>
      <trkpt lat="37.2090212535" lon="-8.5199202597">
        <ele>38.11</ele>
        <time>2021-05-28T15:20:39Z</time>
      </trkpt>
      <trkpt lat="37.2088668589" lon="-8.5199906677">
        <ele>38.11</ele>
        <time>2021-05-28T15:20:40Z</time>
      </trkpt>
      <trkpt lat="37.2086896654" lon="-8.5200490896">
        <ele>40.99</ele>
        <time>2021-05-28T15:20:41Z</time>
      </trkpt>
      <trkpt lat="37.2082926147" lon="-8.5201791767">
        <ele>43.88</ele>
        <time>2021-05-28T15:20:43Z</time>
      </trkpt>
      <trkpt lat="37.2078814823" lon="-8.5203127842">
        <ele>44.84</ele>
        <time>2021-05-28T15:20:45Z</time>
      </trkpt>
      <trkpt lat="37.2067410406" lon="-8.5207255930">
        <ele>43.88</ele>
        <time>2021-05-28T15:20:52Z</time>
      </trkpt>
      <trkpt lat="37.2066294774" lon="-8.5208174586">
        <ele>44.36</ele>
        <time>2021-05-28T15:20:53Z</time>
      </trkpt>
      <trkpt lat="37.2065385338" lon="-8.5209363978">
        <ele>44.84</ele>
        <time>2021-05-28T15:20:54Z</time>
      </trkpt>
      <trkpt lat="37.2064618394" lon="-8.5210857634">
        <ele>44.84</ele>
        <time>2021-05-28T15:20:55Z</time>
      </trkpt>
      <trkpt lat="37.2063957062" lon="-8.5212599393">
        <ele>46.76</ele>
        <time>2021-05-28T15:20:56Z</time>
      </trkpt>
      <trkpt lat="37.2063387930" lon="-8.5214584228">
        <ele>47.72</ele>
        <time>2021-05-28T15:20:57Z</time>
      </trkpt>
      <trkpt lat="37.2062851489" lon="-8.5216750950">
        <ele>48.68</ele>
        <time>2021-05-28T15:20:58Z</time>
      </trkpt>
      <trkpt lat="37.2061788663" lon="-8.5221317410">
        <ele>49.65</ele>
        <time>2021-05-28T15:21:00Z</time>
      </trkpt>
      <trkpt lat="37.2060669679" lon="-8.5225960147">
        <ele>46.28</ele>
        <time>2021-05-28T15:21:02Z</time>
      </trkpt>
      <trkpt lat="37.2056291811" lon="-8.5244669393">
        <ele>42.44</ele>
        <time>2021-05-28T15:21:09Z</time>
      </trkpt>
      <trkpt lat="37.2055709269" lon="-8.5247208271">
        <ele>42.44</ele>
        <time>2021-05-28T15:21:10Z</time>
      </trkpt>
      <trkpt lat="37.2054304462" lon="-8.5251996014">
        <ele>39.55</ele>
        <time>2021-05-28T15:21:12Z</time>
      </trkpt>
      <trkpt lat="37.2053270135" lon="-8.5254275054">
        <ele>38.59</ele>
        <time>2021-05-28T15:21:13Z</time>
      </trkpt>
      <trkpt lat="37.2049421165" lon="-8.5261124745">
        <ele>32.82</ele>
        <time>2021-05-28T15:21:16Z</time>
      </trkpt>
      <trkpt lat="37.2047038190" lon="-8.5265300609">
        <ele>32.34</ele>
        <time>2021-05-28T15:21:18Z</time>
      </trkpt>
      <trkpt lat="37.2044847999" lon="-8.5268971883">
        <ele>27.53</ele>
        <time>2021-05-28T15:21:20Z</time>
      </trkpt>
      <trkpt lat="37.2041478474" lon="-8.5273441952">
        <ele>23.21</ele>
        <time>2021-05-28T15:21:23Z</time>
      </trkpt>
      <trkpt lat="37.2040232085" lon="-8.5274653975">
        <ele>23.21</ele>
        <time>2021-05-28T15:21:24Z</time>
      </trkpt>
      <trkpt lat="37.2038910259" lon="-8.5275693331">
        <ele>23.21</ele>
        <time>2021-05-28T15:21:25Z</time>
      </trkpt>
      <trkpt lat="37.2037569154" lon="-8.5276544932">
        <ele>22.25</ele>
        <time>2021-05-28T15:21:26Z</time>
      </trkpt>
      <trkpt lat="37.2036183625" lon="-8.5277269129">
        <ele>21.77</ele>
        <time>2021-05-28T15:21:27Z</time>
      </trkpt>
      <trkpt lat="37.2034705896" lon="-8.5277826525">
        <ele>21.29</ele>
        <time>2021-05-28T15:21:28Z</time>
      </trkpt>
      <trkpt lat="37.2033083998" lon="-8.5278177727">
        <ele>22.25</ele>
        <time>2021-05-28T15:21:29Z</time>
      </trkpt>
      <trkpt lat="37.2031310387" lon="-8.5278326925">
        <ele>22.73</ele>
        <time>2021-05-28T15:21:30Z</time>
      </trkpt>
      <trkpt lat="37.2029437032" lon="-8.5278384760">
        <ele>22.73</ele>
        <time>2021-05-28T15:21:31Z</time>
      </trkpt>
      <trkpt lat="37.2017790377" lon="-8.5279189423">
        <ele>21.29</ele>
        <time>2021-05-28T15:21:38Z</time>
      </trkpt>
      <trkpt lat="37.2016445082" lon="-8.5279590078">
        <ele>21.29</ele>
        <time>2021-05-28T15:21:39Z</time>
      </trkpt>
      <trkpt lat="37.2015149239" lon="-8.5280103888">
        <ele>20.81</ele>
        <time>2021-05-28T15:21:40Z</time>
      </trkpt>
      <trkpt lat="37.2012843378" lon="-8.5281311721">
        <ele>19.36</ele>
        <time>2021-05-28T15:21:42Z</time>
      </trkpt>
      <trkpt lat="37.2011839226" lon="-8.5282080341">
        <ele>19.84</ele>
        <time>2021-05-28T15:21:43Z</time>
      </trkpt>
      <trkpt lat="37.2010985948" lon="-8.5283009056">
        <ele>19.84</ele>
        <time>2021-05-28T15:21:44Z</time>
      </trkpt>
      <trkpt lat="37.2010324616" lon="-8.5284046736">
        <ele>19.36</ele>
        <time>2021-05-28T15:21:45Z</time>
      </trkpt>
      <trkpt lat="37.2009787336" lon="-8.5285073519">
        <ele>18.88</ele>
        <time>2021-05-28T15:21:46Z</time>
      </trkpt>
      <trkpt lat="37.2007090040" lon="-8.5290892236">
        <ele>16.96</ele>
        <time>2021-05-28T15:21:54Z</time>
      </trkpt>
      <trkpt lat="37.2006664239" lon="-8.5293038841">
        <ele>16.96</ele>
        <time>2021-05-28T15:22:00Z</time>
      </trkpt>
      <trkpt lat="37.2006359138" lon="-8.5293746274">
        <ele>17.44</ele>
        <time>2021-05-28T15:22:01Z</time>
      </trkpt>
      <trkpt lat="37.2005872149" lon="-8.5294403415">
        <ele>16.96</ele>
        <time>2021-05-28T15:22:02Z</time>
      </trkpt>
      <trkpt lat="37.2005222552" lon="-8.5294857714">
        <ele>16.48</ele>
        <time>2021-05-28T15:22:03Z</time>
      </trkpt>
      <trkpt lat="37.2004407831" lon="-8.5294959135">
        <ele>16.96</ele>
        <time>2021-05-28T15:22:04Z</time>
      </trkpt>
      <trkpt lat="37.2003619093" lon="-8.5294666607">
        <ele>16.96</ele>
        <time>2021-05-28T15:22:05Z</time>
      </trkpt>
      <trkpt lat="37.2002920043" lon="-8.5294028744">
        <ele>16.96</ele>
        <time>2021-05-28T15:22:06Z</time>
      </trkpt>
      <trkpt lat="37.2002262902" lon="-8.5293058958">
        <ele>17.44</ele>
        <time>2021-05-28T15:22:07Z</time>
      </trkpt>
      <trkpt lat="37.2001500987" lon="-8.5291924886">
        <ele>18.40</ele>
        <time>2021-05-28T15:22:08Z</time>
      </trkpt>
      <trkpt lat="37.2000495996" lon="-8.5290846135">
        <ele>18.88</ele>
        <time>2021-05-28T15:22:09Z</time>
      </trkpt>
      <trkpt lat="37.1999317501" lon="-8.5289922450">
        <ele>19.36</ele>
        <time>2021-05-28T15:22:10Z</time>
      </trkpt>
      <trkpt lat="37.1998061892" lon="-8.5289140418">
        <ele>18.88</ele>
        <time>2021-05-28T15:22:11Z</time>
      </trkpt>
      <trkpt lat="37.1996747609" lon="-8.5288533568">
        <ele>18.88</ele>
        <time>2021-05-28T15:22:12Z</time>
      </trkpt>
      <trkpt lat="37.1995408181" lon="-8.5288127884">
        <ele>18.88</ele>
        <time>2021-05-28T15:22:13Z</time>
      </trkpt>
      <trkpt lat="37.1994103957" lon="-8.5287851281">
        <ele>18.40</ele>
        <time>2021-05-28T15:22:14Z</time>
      </trkpt>
      <trkpt lat="37.1992767043" lon="-8.5287602339">
        <ele>19.36</ele>
        <time>2021-05-28T15:22:15Z</time>
      </trkpt>
      <trkpt lat="37.1980497614" lon="-8.5285779275">
        <ele>16.96</ele>
        <time>2021-05-28T15:22:24Z</time>
      </trkpt>
      <trkpt lat="37.1979338396" lon="-8.5285907518">
        <ele>17.44</ele>
        <time>2021-05-28T15:22:25Z</time>
      </trkpt>
      <trkpt lat="37.1969960723" lon="-8.5287397821">
        <ele>20.81</ele>
        <time>2021-05-28T15:22:31Z</time>
      </trkpt>
      <trkpt lat="37.1946066432" lon="-8.5291341506">
        <ele>21.29</ele>
        <time>2021-05-28T15:22:44Z</time>
      </trkpt>
      <trkpt lat="37.1938008908" lon="-8.5292685963">
        <ele>22.25</ele>
        <time>2021-05-28T15:22:48Z</time>
      </trkpt>
      <trkpt lat="37.1932439972" lon="-8.5293576121">
        <ele>20.32</ele>
        <time>2021-05-28T15:22:51Z</time>
      </trkpt>
      <trkpt lat="37.1905072220" lon="-8.5298052058">
        <ele>17.44</ele>
        <time>2021-05-28T15:23:06Z</time>
      </trkpt>
      <trkpt lat="37.1899397671" lon="-8.5299761128">
        <ele>18.40</ele>
        <time>2021-05-28T15:23:09Z</time>
      </trkpt>
      <trkpt lat="37.1897581313" lon="-8.5300696548">
        <ele>18.40</ele>
        <time>2021-05-28T15:23:10Z</time>
      </trkpt>
      <trkpt lat="37.1882830840" lon="-8.5310491640">
        <ele>17.92</ele>
        <time>2021-05-28T15:23:18Z</time>
      </trkpt>
      <trkpt lat="37.1879473049" lon="-8.5312744696">
        <ele>16.96</ele>
        <time>2021-05-28T15:23:20Z</time>
      </trkpt>
      <trkpt lat="37.1874021459" lon="-8.5316198040">
        <ele>18.88</ele>
        <time>2021-05-28T15:23:23Z</time>
      </trkpt>
      <trkpt lat="37.1870591585" lon="-8.5318520665">
        <ele>16.96</ele>
        <time>2021-05-28T15:23:25Z</time>
      </trkpt>
      <trkpt lat="37.1867527161" lon="-8.5320588481">
        <ele>14.08</ele>
        <time>2021-05-28T15:23:27Z</time>
      </trkpt>
      <trkpt lat="37.1866118163" lon="-8.5321509652">
        <ele>15.04</ele>
        <time>2021-05-28T15:23:28Z</time>
      </trkpt>
      <trkpt lat="37.1853123698" lon="-8.5330530256">
        <ele>13.60</ele>
        <time>2021-05-28T15:23:38Z</time>
      </trkpt>
      <trkpt lat="37.1841394063" lon="-8.5336380824">
        <ele>15.52</ele>
        <time>2021-05-28T15:23:45Z</time>
      </trkpt>
      <trkpt lat="37.1834595501" lon="-8.5337912198">
        <ele>11.19</ele>
        <time>2021-05-28T15:23:49Z</time>
      </trkpt>
      <trkpt lat="37.1833009645" lon="-8.5338099953">
        <ele>11.19</ele>
        <time>2021-05-28T15:23:50Z</time>
      </trkpt>
      <trkpt lat="37.1831355896" lon="-8.5338053014">
        <ele>11.67</ele>
        <time>2021-05-28T15:23:51Z</time>
      </trkpt>
      <trkpt lat="37.1829601564" lon="-8.5337686725">
        <ele>12.15</ele>
        <time>2021-05-28T15:23:52Z</time>
      </trkpt>
      <trkpt lat="37.1827773470" lon="-8.5337115079">
        <ele>13.60</ele>
        <time>2021-05-28T15:23:53Z</time>
      </trkpt>
      <trkpt lat="37.1826028358" lon="-8.5336449556">
        <ele>13.12</ele>
        <time>2021-05-28T15:23:54Z</time>
      </trkpt>
      <trkpt lat="37.1822802164" lon="-8.5335152876">
        <ele>11.67</ele>
        <time>2021-05-28T15:23:56Z</time>
      </trkpt>
      <trkpt lat="37.1810655948" lon="-8.5333393514">
        <ele>12.63</ele>
        <time>2021-05-28T15:24:03Z</time>
      </trkpt>
      <trkpt lat="37.1789429616" lon="-8.5332025588">
        <ele>16.00</ele>
        <time>2021-05-28T15:24:14Z</time>
      </trkpt>
      <trkpt lat="37.1778795496" lon="-8.5328433104">
        <ele>13.12</ele>
        <time>2021-05-28T15:24:20Z</time>
      </trkpt>
      <trkpt lat="37.1767760720" lon="-8.5327102896">
        <ele>12.15</ele>
        <time>2021-05-28T15:24:27Z</time>
      </trkpt>
      <trkpt lat="37.1759030130" lon="-8.5327304062">
        <ele>9.75</ele>
        <time>2021-05-28T15:24:34Z</time>
      </trkpt>
      <trkpt lat="37.1754478756" lon="-8.5327337589">
        <ele>10.23</ele>
        <time>2021-05-28T15:24:39Z</time>
      </trkpt>
      <trkpt lat="37.1753679123" lon="-8.5327618383">
        <ele>10.23</ele>
        <time>2021-05-28T15:24:40Z</time>
      </trkpt>
      <trkpt lat="37.1752956603" lon="-8.5328096990">
        <ele>10.23</ele>
        <time>2021-05-28T15:24:41Z</time>
      </trkpt>
      <trkpt lat="37.1752180438" lon="-8.5328656062">
        <ele>9.75</ele>
        <time>2021-05-28T15:24:42Z</time>
      </trkpt>
      <trkpt lat="37.1751253400" lon="-8.5328982957">
        <ele>9.75</ele>
        <time>2021-05-28T15:24:43Z</time>
      </trkpt>
      <trkpt lat="37.1750226617" lon="-8.5328933503">
        <ele>9.75</ele>
        <time>2021-05-28T15:24:44Z</time>
      </trkpt>
      <trkpt lat="37.1749221627" lon="-8.5328511894">
        <ele>10.23</ele>
        <time>2021-05-28T15:24:45Z</time>
      </trkpt>
      <trkpt lat="37.1748225018" lon="-8.5327837151">
        <ele>10.71</ele>
        <time>2021-05-28T15:24:46Z</time>
      </trkpt>
      <trkpt lat="37.1747126989" lon="-8.5327198450">
        <ele>10.71</ele>
        <time>2021-05-28T15:24:47Z</time>
      </trkpt>
      <trkpt lat="37.1745858807" lon="-8.5326848924">
        <ele>11.67</ele>
        <time>2021-05-28T15:24:48Z</time>
      </trkpt>
      <trkpt lat="37.1744426340" lon="-8.5326797795">
        <ele>12.15</ele>
        <time>2021-05-28T15:24:49Z</time>
      </trkpt>
      <trkpt lat="37.1742923465" lon="-8.5326903407">
        <ele>12.63</ele>
        <time>2021-05-28T15:24:50Z</time>
      </trkpt>
      <trkpt lat="37.1734175272" lon="-8.5327211022">
        <ele>16.00</ele>
        <time>2021-05-28T15:24:55Z</time>
      </trkpt>
      <trkpt lat="37.1730478853" lon="-8.5327049252">
        <ele>16.96</ele>
        <time>2021-05-28T15:24:57Z</time>
      </trkpt>
      <trkpt lat="37.1713398211" lon="-8.5322942119">
        <ele>16.96</ele>
        <time>2021-05-28T15:25:06Z</time>
      </trkpt>
      <trkpt lat="37.1709409263" lon="-8.5320939682">
        <ele>17.92</ele>
        <time>2021-05-28T15:25:08Z</time>
      </trkpt>
      <trkpt lat="37.1696421504" lon="-8.5312308837">
        <ele>20.81</ele>
        <time>2021-05-28T15:25:15Z</time>
      </trkpt>
      <trkpt lat="37.1690565068" lon="-8.5309923347">
        <ele>25.61</ele>
        <time>2021-05-28T15:25:18Z</time>
      </trkpt>
      <trkpt lat="37.1684380900" lon="-8.5308857169">
        <ele>30.42</ele>
        <time>2021-05-28T15:25:21Z</time>
      </trkpt>
      <trkpt lat="37.1679064259" lon="-8.5309273750">
        <ele>33.30</ele>
        <time>2021-05-28T15:25:24Z</time>
      </trkpt>
      <trkpt lat="37.1672364604" lon="-8.5311365873">
        <ele>33.30</ele>
        <time>2021-05-28T15:25:30Z</time>
      </trkpt>
      <trkpt lat="37.1671826486" lon="-8.5311669298">
        <ele>33.30</ele>
        <time>2021-05-28T15:25:31Z</time>
      </trkpt>
      <trkpt lat="37.1671529766" lon="-8.5311882198">
        <ele>33.30</ele>
        <time>2021-05-28T15:25:32Z</time>
      </trkpt>
      <trkpt lat="37.1671380568" lon="-8.5312007926">
        <ele>33.30</ele>
        <time>2021-05-28T15:25:33Z</time>
      </trkpt>
      <trkpt lat="37.1671289206" lon="-8.5312172212">
        <ele>33.78</ele>
        <time>2021-05-28T15:25:34Z</time>
      </trkpt>
      <trkpt lat="37.1671162639" lon="-8.5312449653">
        <ele>34.26</ele>
        <time>2021-05-28T15:25:35Z</time>
      </trkpt>
      <trkpt lat="37.1670941357" lon="-8.5312932450">
        <ele>34.74</ele>
        <time>2021-05-28T15:25:36Z</time>
      </trkpt>
      <trkpt lat="37.1670572553" lon="-8.5313545167">
        <ele>35.71</ele>
        <time>2021-05-28T15:25:37Z</time>
      </trkpt>
      <trkpt lat="37.1670005936" lon="-8.5314172972">
        <ele>36.67</ele>
        <time>2021-05-28T15:25:38Z</time>
      </trkpt>
      <trkpt lat="37.1669291798" lon="-8.5314592067">
        <ele>35.23</ele>
        <time>2021-05-28T15:25:39Z</time>
      </trkpt>
      <trkpt lat="37.1668464504" lon="-8.5314673372">
        <ele>36.19</ele>
        <time>2021-05-28T15:25:40Z</time>
      </trkpt>
      <trkpt lat="37.1667560097" lon="-8.5314415209">
        <ele>36.19</ele>
        <time>2021-05-28T15:25:41Z</time>
      </trkpt>
      <trkpt lat="37.1666572709" lon="-8.5313985217">
        <ele>36.19</ele>
        <time>2021-05-28T15:25:42Z</time>
      </trkpt>
      <trkpt lat="37.1665490605" lon="-8.5313682631">
        <ele>35.23</ele>
        <time>2021-05-28T15:25:43Z</time>
      </trkpt>
      <trkpt lat="37.1664326359" lon="-8.5313682631">
        <ele>35.23</ele>
        <time>2021-05-28T15:25:44Z</time>
      </trkpt>
      <trkpt lat="37.1663037222" lon="-8.5313987732">
        <ele>35.71</ele>
        <time>2021-05-28T15:25:45Z</time>
      </trkpt>
      <trkpt lat="37.1661727969" lon="-8.5314458795">
        <ele>37.15</ele>
        <time>2021-05-28T15:25:46Z</time>
      </trkpt>
      <trkpt lat="37.1660448052" lon="-8.5315015353">
        <ele>38.11</ele>
        <time>2021-05-28T15:25:47Z</time>
      </trkpt>
      <trkpt lat="37.1656440664" lon="-8.5317164473">
        <ele>41.47</ele>
        <time>2021-05-28T15:25:50Z</time>
      </trkpt>
      <trkpt lat="37.1652704850" lon="-8.5319711734">
        <ele>42.92</ele>
        <time>2021-05-28T15:25:53Z</time>
      </trkpt>
      <trkpt lat="37.1640333999" lon="-8.5328961164">
        <ele>43.88</ele>
        <time>2021-05-28T15:26:04Z</time>
      </trkpt>
      <trkpt lat="37.1632878296" lon="-8.5334412754">
        <ele>42.44</ele>
        <time>2021-05-28T15:26:10Z</time>
      </trkpt>
      <trkpt lat="37.1630216204" lon="-8.5336246714">
        <ele>40.99</ele>
        <time>2021-05-28T15:26:12Z</time>
      </trkpt>
      <trkpt lat="37.1627718396" lon="-8.5337747075">
        <ele>40.03</ele>
        <time>2021-05-28T15:26:14Z</time>
      </trkpt>
      <trkpt lat="37.1619571187" lon="-8.5341016855">
        <ele>36.19</ele>
        <time>2021-05-28T15:26:21Z</time>
      </trkpt>
      <trkpt lat="37.1617879719" lon="-8.5341629572">
        <ele>31.86</ele>
        <time>2021-05-28T15:26:23Z</time>
      </trkpt>
      <trkpt lat="37.1617246885" lon="-8.5341912042">
        <ele>31.38</ele>
        <time>2021-05-28T15:26:24Z</time>
      </trkpt>
      <trkpt lat="37.1616712958" lon="-8.5342258215">
        <ele>30.42</ele>
        <time>2021-05-28T15:26:25Z</time>
      </trkpt>
      <trkpt lat="37.1616270393" lon="-8.5342732631">
        <ele>29.94</ele>
        <time>2021-05-28T15:26:26Z</time>
      </trkpt>
      <trkpt lat="37.1615943499" lon="-8.5343487840">
        <ele>29.46</ele>
        <time>2021-05-28T15:26:27Z</time>
      </trkpt>
      <trkpt lat="37.1615637559" lon="-8.5344375484">
        <ele>29.46</ele>
        <time>2021-05-28T15:26:28Z</time>
      </trkpt>
      <trkpt lat="37.1615158115" lon="-8.5345144942">
        <ele>29.94</ele>
        <time>2021-05-28T15:26:29Z</time>
      </trkpt>
      <trkpt lat="37.1614418831" lon="-8.5345709883">
        <ele>29.94</ele>
        <time>2021-05-28T15:26:30Z</time>
      </trkpt>
      <trkpt lat="37.1613424737" lon="-8.5346054379">
        <ele>29.46</ele>
        <time>2021-05-28T15:26:31Z</time>
      </trkpt>
      <trkpt lat="37.1612253785" lon="-8.5346412286">
        <ele>29.94</ele>
        <time>2021-05-28T15:26:32Z</time>
      </trkpt>
      <trkpt lat="37.1611089539" lon="-8.5347002372">
        <ele>29.94</ele>
        <time>2021-05-28T15:26:33Z</time>
      </trkpt>
      <trkpt lat="37.1609957144" lon="-8.5347861517">
        <ele>30.90</ele>
        <time>2021-05-28T15:26:34Z</time>
      </trkpt>
      <trkpt lat="37.1608763561" lon="-8.5348781012">
        <ele>31.38</ele>
        <time>2021-05-28T15:26:35Z</time>
      </trkpt>
      <trkpt lat="37.1607425809" lon="-8.5349613335">
        <ele>31.86</ele>
        <time>2021-05-28T15:26:36Z</time>
      </trkpt>
      <trkpt lat="37.1605929639" lon="-8.5350397881">
        <ele>31.38</ele>
        <time>2021-05-28T15:26:37Z</time>
      </trkpt>
      <trkpt lat="37.1602804866" lon="-8.5351997148">
        <ele>34.26</ele>
        <time>2021-05-28T15:26:39Z</time>
      </trkpt>
      <trkpt lat="37.1599572804" lon="-8.5353809316">
        <ele>35.71</ele>
        <time>2021-05-28T15:26:41Z</time>
      </trkpt>
      <trkpt lat="37.1596171428" lon="-8.5355928261">
        <ele>37.15</ele>
        <time>2021-05-28T15:26:43Z</time>
      </trkpt>
      <trkpt lat="37.1584944706" lon="-8.5363461077">
        <ele>37.15</ele>
        <time>2021-05-28T15:26:50Z</time>
      </trkpt>
      <trkpt lat="37.1578894649" lon="-8.5367553122">
        <ele>35.23</ele>
        <time>2021-05-28T15:26:55Z</time>
      </trkpt>
      <trkpt lat="37.1575761493" lon="-8.5369731579">
        <ele>35.71</ele>
        <time>2021-05-28T15:26:58Z</time>
      </trkpt>
      <trkpt lat="37.1574941743" lon="-8.5370785184">
        <ele>36.19</ele>
        <time>2021-05-28T15:26:59Z</time>
      </trkpt>
      <trkpt lat="37.1574349981" lon="-8.5372091923">
        <ele>34.74</ele>
        <time>2021-05-28T15:27:00Z</time>
      </trkpt>
      <trkpt lat="37.1574031468" lon="-8.5373626649">
        <ele>34.74</ele>
        <time>2021-05-28T15:27:01Z</time>
      </trkpt>
      <trkpt lat="37.1573990397" lon="-8.5375277884">
        <ele>35.23</ele>
        <time>2021-05-28T15:27:02Z</time>
      </trkpt>
      <trkpt lat="37.1574114449" lon="-8.5377009585">
        <ele>35.23</ele>
        <time>2021-05-28T15:27:03Z</time>
      </trkpt>
      <trkpt lat="37.1574172284" lon="-8.5378745478">
        <ele>35.71</ele>
        <time>2021-05-28T15:27:04Z</time>
      </trkpt>
      <trkpt lat="37.1573961060" lon="-8.5380426887">
        <ele>35.71</ele>
        <time>2021-05-28T15:27:05Z</time>
      </trkpt>
      <trkpt lat="37.1573453117" lon="-8.5381984245">
        <ele>36.19</ele>
        <time>2021-05-28T15:27:06Z</time>
      </trkpt>
      <trkpt lat="37.1572648454" lon="-8.5383361392">
        <ele>37.15</ele>
        <time>2021-05-28T15:27:07Z</time>
      </trkpt>
      <trkpt lat="37.1571652684" lon="-8.5384560842">
        <ele>37.15</ele>
        <time>2021-05-28T15:27:08Z</time>
      </trkpt>
      <trkpt lat="37.1570640989" lon="-8.5385625344">
        <ele>38.11</ele>
        <time>2021-05-28T15:27:09Z</time>
      </trkpt>
      <trkpt lat="37.1569769271" lon="-8.5386652127">
        <ele>39.07</ele>
        <time>2021-05-28T15:27:10Z</time>
      </trkpt>
      <trkpt lat="37.1569099557" lon="-8.5387734231">
        <ele>38.11</ele>
        <time>2021-05-28T15:27:11Z</time>
      </trkpt>
      <trkpt lat="37.1568648610" lon="-8.5388913564">
        <ele>39.55</ele>
        <time>2021-05-28T15:27:12Z</time>
      </trkpt>
      <trkpt lat="37.1568447445" lon="-8.5390242096">
        <ele>38.59</ele>
        <time>2021-05-28T15:27:13Z</time>
      </trkpt>
      <trkpt lat="37.1568514500" lon="-8.5391702224">
        <ele>38.59</ele>
        <time>2021-05-28T15:27:14Z</time>
      </trkpt>
      <trkpt lat="37.1568838041" lon="-8.5393272992">
        <ele>40.51</ele>
        <time>2021-05-28T15:27:15Z</time>
      </trkpt>
      <trkpt lat="37.1569385380" lon="-8.5394939315">
        <ele>41.95</ele>
        <time>2021-05-28T15:27:16Z</time>
      </trkpt>
      <trkpt lat="37.1570037492" lon="-8.5396595579">
        <ele>42.92</ele>
        <time>2021-05-28T15:27:17Z</time>
      </trkpt>
      <trkpt lat="37.1572211757" lon="-8.5402111709">
        <ele>47.24</ele>
        <time>2021-05-28T15:27:20Z</time>
      </trkpt>
      <trkpt lat="37.1574012190" lon="-8.5406528134">
        <ele>50.61</ele>
        <time>2021-05-28T15:27:22Z</time>
      </trkpt>
      <trkpt lat="37.1577020455" lon="-8.5413422249">
        <ele>53.49</ele>
        <time>2021-05-28T15:27:25Z</time>
      </trkpt>
      <trkpt lat="37.1579934843" lon="-8.5420048144">
        <ele>49.65</ele>
        <time>2021-05-28T15:27:28Z</time>
      </trkpt>
      <trkpt lat="37.1580793988" lon="-8.5422289465">
        <ele>49.16</ele>
        <time>2021-05-28T15:27:29Z</time>
      </trkpt>
      <trkpt lat="37.1585108154" lon="-8.5439842008">
        <ele>47.24</ele>
        <time>2021-05-28T15:27:36Z</time>
      </trkpt>
      <trkpt lat="37.1585822292" lon="-8.5448250733">
        <ele>48.20</ele>
        <time>2021-05-28T15:27:39Z</time>
      </trkpt>
      <trkpt lat="37.1585669741" lon="-8.5460251942">
        <ele>52.53</ele>
        <time>2021-05-28T15:27:43Z</time>
      </trkpt>
      <trkpt lat="37.1585532278" lon="-8.5463294573">
        <ele>51.09</ele>
        <time>2021-05-28T15:27:44Z</time>
      </trkpt>
      <trkpt lat="37.1584104840" lon="-8.5496572405">
        <ele>47.72</ele>
        <time>2021-05-28T15:27:55Z</time>
      </trkpt>
      <trkpt lat="37.1584076341" lon="-8.5499529541">
        <ele>47.72</ele>
        <time>2021-05-28T15:27:56Z</time>
      </trkpt>
      <trkpt lat="37.1585880127" lon="-8.5516316816">
        <ele>45.80</ele>
        <time>2021-05-28T15:28:02Z</time>
      </trkpt>
      <trkpt lat="37.1592249535" lon="-8.5534808971">
        <ele>46.76</ele>
        <time>2021-05-28T15:28:09Z</time>
      </trkpt>
      <trkpt lat="37.1596372593" lon="-8.5542174987">
        <ele>45.32</ele>
        <time>2021-05-28T15:28:12Z</time>
      </trkpt>
      <trkpt lat="37.1599514131" lon="-8.5546819400">
        <ele>48.20</ele>
        <time>2021-05-28T15:28:14Z</time>
      </trkpt>
      <trkpt lat="37.1614303999" lon="-8.5567958560">
        <ele>50.61</ele>
        <time>2021-05-28T15:28:24Z</time>
      </trkpt>
      <trkpt lat="37.1622120123" lon="-8.5587616637">
        <ele>53.97</ele>
        <time>2021-05-28T15:28:32Z</time>
      </trkpt>
      <trkpt lat="37.1623250842" lon="-8.5593232512">
        <ele>54.45</ele>
        <time>2021-05-28T15:28:34Z</time>
      </trkpt>
      <trkpt lat="37.1623918042" lon="-8.5599096492">
        <ele>58.30</ele>
        <time>2021-05-28T15:28:36Z</time>
      </trkpt>
      <trkpt lat="37.1624088194" lon="-8.5602063686">
        <ele>57.34</ele>
        <time>2021-05-28T15:28:37Z</time>
      </trkpt>
      <trkpt lat="37.1624090709" lon="-8.5607657768">
        <ele>53.97</ele>
        <time>2021-05-28T15:28:39Z</time>
      </trkpt>
      <trkpt lat="37.1623799019" lon="-8.5612560343">
        <ele>50.61</ele>
        <time>2021-05-28T15:28:41Z</time>
      </trkpt>
      <trkpt lat="37.1623251680" lon="-8.5617126804">
        <ele>49.16</ele>
        <time>2021-05-28T15:28:43Z</time>
      </trkpt>
      <trkpt lat="37.1620708611" lon="-8.5632192437">
        <ele>50.61</ele>
        <time>2021-05-28T15:28:49Z</time>
      </trkpt>
      <trkpt lat="37.1618023049" lon="-8.5646827240">
        <ele>46.76</ele>
        <time>2021-05-28T15:28:54Z</time>
      </trkpt>
      <trkpt lat="37.1617370937" lon="-8.5649804492">
        <ele>47.72</ele>
        <time>2021-05-28T15:28:55Z</time>
      </trkpt>
      <trkpt lat="37.1615297254" lon="-8.5658440366">
        <ele>43.40</ele>
        <time>2021-05-28T15:28:58Z</time>
      </trkpt>
      <trkpt lat="37.1613956150" lon="-8.5664276686">
        <ele>39.55</ele>
        <time>2021-05-28T15:29:00Z</time>
      </trkpt>
      <trkpt lat="37.1612498537" lon="-8.5672815330">
        <ele>35.23</ele>
        <time>2021-05-28T15:29:03Z</time>
      </trkpt>
      <trkpt lat="37.1612201817" lon="-8.5675626621">
        <ele>32.34</ele>
        <time>2021-05-28T15:29:04Z</time>
      </trkpt>
      <trkpt lat="37.1611940302" lon="-8.5683974996">
        <ele>29.46</ele>
        <time>2021-05-28T15:29:07Z</time>
      </trkpt>
      <trkpt lat="37.1612439025" lon="-8.5692228656">
        <ele>25.61</ele>
        <time>2021-05-28T15:29:10Z</time>
      </trkpt>
      <trkpt lat="37.1613226086" lon="-8.5700541828">
        <ele>21.29</ele>
        <time>2021-05-28T15:29:13Z</time>
      </trkpt>
      <trkpt lat="37.1613926813" lon="-8.5707995854">
        <ele>16.96</ele>
        <time>2021-05-28T15:29:16Z</time>
      </trkpt>
      <trkpt lat="37.1614285558" lon="-8.5712263081">
        <ele>12.63</ele>
        <time>2021-05-28T15:29:18Z</time>
      </trkpt>
      <trkpt lat="37.1614867263" lon="-8.5719211679">
        <ele>8.31</ele>
        <time>2021-05-28T15:29:22Z</time>
      </trkpt>
      <trkpt lat="37.1615657676" lon="-8.5729124118">
        <ele>9.27</ele>
        <time>2021-05-28T15:29:29Z</time>
      </trkpt>
      <trkpt lat="37.1617383510" lon="-8.5748051293">
        <ele>11.19</ele>
        <time>2021-05-28T15:29:38Z</time>
      </trkpt>
      <trkpt lat="37.1617953479" lon="-8.5754726641">
        <ele>12.63</ele>
        <time>2021-05-28T15:29:41Z</time>
      </trkpt>
      <trkpt lat="37.1618826874" lon="-8.5764700267">
        <ele>10.71</ele>
        <time>2021-05-28T15:29:46Z</time>
      </trkpt>
      <trkpt lat="37.1619313862" lon="-8.5769749526">
        <ele>8.79</ele>
        <time>2021-05-28T15:29:49Z</time>
      </trkpt>
      <trkpt lat="37.1619653329" lon="-8.5770991724">
        <ele>8.31</ele>
        <time>2021-05-28T15:29:50Z</time>
      </trkpt>
      <trkpt lat="37.1620214917" lon="-8.5772084724">
        <ele>9.27</ele>
        <time>2021-05-28T15:29:51Z</time>
      </trkpt>
      <trkpt lat="37.1620860323" lon="-8.5773017630">
        <ele>8.31</ele>
        <time>2021-05-28T15:29:52Z</time>
      </trkpt>
      <trkpt lat="37.1621381678" lon="-8.5773928743">
        <ele>7.83</ele>
        <time>2021-05-28T15:29:53Z</time>
      </trkpt>
      <trkpt lat="37.1621582005" lon="-8.5774950497">
        <ele>6.87</ele>
        <time>2021-05-28T15:29:54Z</time>
      </trkpt>
      <trkpt lat="37.1621436998" lon="-8.5775994882">
        <ele>6.87</ele>
        <time>2021-05-28T15:29:55Z</time>
      </trkpt>
      <trkpt lat="37.1621069871" lon="-8.5777063575">
        <ele>6.39</ele>
        <time>2021-05-28T15:29:56Z</time>
      </trkpt>
      <trkpt lat="37.1620685980" lon="-8.5778283142">
        <ele>6.87</ele>
        <time>2021-05-28T15:29:57Z</time>
      </trkpt>
      <trkpt lat="37.1620494034" lon="-8.5779729858">
        <ele>7.35</ele>
        <time>2021-05-28T15:29:58Z</time>
      </trkpt>
      <trkpt lat="37.1620516665" lon="-8.5781403724">
        <ele>7.83</ele>
        <time>2021-05-28T15:29:59Z</time>
      </trkpt>
      <trkpt lat="37.1620628145" lon="-8.5783206671">
        <ele>10.71</ele>
        <time>2021-05-28T15:30:00Z</time>
      </trkpt>
      <trkpt lat="37.1620752197" lon="-8.5785012133">
        <ele>9.75</ele>
        <time>2021-05-28T15:30:01Z</time>
      </trkpt>
      <trkpt lat="37.1621642355" lon="-8.5794818122">
        <ele>13.60</ele>
        <time>2021-05-28T15:30:06Z</time>
      </trkpt>
      <trkpt lat="37.1621793229" lon="-8.5796962213">
        <ele>13.12</ele>
        <time>2021-05-28T15:30:07Z</time>
      </trkpt>
      <trkpt lat="37.1621319652" lon="-8.5817459319">
        <ele>13.60</ele>
        <time>2021-05-28T15:30:16Z</time>
      </trkpt>
      <trkpt lat="37.1620743815" lon="-8.5824909154">
        <ele>11.67</ele>
        <time>2021-05-28T15:30:19Z</time>
      </trkpt>
      <trkpt lat="37.1619503293" lon="-8.5846054181">
        <ele>15.04</ele>
        <time>2021-05-28T15:30:27Z</time>
      </trkpt>
      <trkpt lat="37.1619321406" lon="-8.5848911572">
        <ele>15.52</ele>
        <time>2021-05-28T15:30:28Z</time>
      </trkpt>
      <trkpt lat="37.1617928334" lon="-8.5873060673">
        <ele>13.60</ele>
        <time>2021-05-28T15:30:37Z</time>
      </trkpt>
      <trkpt lat="37.1617552824" lon="-8.5879912041">
        <ele>9.75</ele>
        <time>2021-05-28T15:30:40Z</time>
      </trkpt>
      <trkpt lat="37.1616894845" lon="-8.5891186539">
        <ele>13.60</ele>
        <time>2021-05-28T15:30:45Z</time>
      </trkpt>
      <trkpt lat="37.1616731398" lon="-8.5893548559">
        <ele>13.60</ele>
        <time>2021-05-28T15:30:46Z</time>
      </trkpt>
      <trkpt lat="37.1616274584" lon="-8.5900099017">
        <ele>12.15</ele>
        <time>2021-05-28T15:30:49Z</time>
      </trkpt>
      <trkpt lat="37.1615826152" lon="-8.5908476729">
        <ele>13.12</ele>
        <time>2021-05-28T15:30:53Z</time>
      </trkpt>
      <trkpt lat="37.1615822800" lon="-8.5916333925">
        <ele>17.44</ele>
        <time>2021-05-28T15:30:57Z</time>
      </trkpt>
      <trkpt lat="37.1615957748" lon="-8.5918270145">
        <ele>16.00</ele>
        <time>2021-05-28T15:30:58Z</time>
      </trkpt>
      <trkpt lat="37.1617353335" lon="-8.5930589028">
        <ele>18.40</ele>
        <time>2021-05-28T15:31:06Z</time>
      </trkpt>
      <trkpt lat="37.1617625747" lon="-8.5931533668">
        <ele>17.92</ele>
        <time>2021-05-28T15:31:07Z</time>
      </trkpt>
      <trkpt lat="37.1618028078" lon="-8.5932410415">
        <ele>18.88</ele>
        <time>2021-05-28T15:31:08Z</time>
      </trkpt>
      <trkpt lat="37.1618519258" lon="-8.5933213402">
        <ele>19.36</ele>
        <time>2021-05-28T15:31:09Z</time>
      </trkpt>
      <trkpt lat="37.1618969366" lon="-8.5934058297">
        <ele>18.88</ele>
        <time>2021-05-28T15:31:10Z</time>
      </trkpt>
      <trkpt lat="37.1619204059" lon="-8.5935101006">
        <ele>19.84</ele>
        <time>2021-05-28T15:31:11Z</time>
      </trkpt>
      <trkpt lat="37.1619126946" lon="-8.5936244298">
        <ele>20.32</ele>
        <time>2021-05-28T15:31:12Z</time>
      </trkpt>
      <trkpt lat="37.1618866269" lon="-8.5937433690">
        <ele>21.77</ele>
        <time>2021-05-28T15:31:13Z</time>
      </trkpt>
      <trkpt lat="37.1618677676" lon="-8.5938696004">
        <ele>21.29</ele>
        <time>2021-05-28T15:31:14Z</time>
      </trkpt>
      <trkpt lat="37.1618672647" lon="-8.5940084048">
        <ele>23.21</ele>
        <time>2021-05-28T15:31:15Z</time>
      </trkpt>
      <trkpt lat="37.1618836932" lon="-8.5941581056">
        <ele>23.21</ele>
        <time>2021-05-28T15:31:16Z</time>
      </trkpt>
      <trkpt lat="37.1622004453" lon="-8.5961503163">
        <ele>25.13</ele>
        <time>2021-05-28T15:31:28Z</time>
      </trkpt>
      <trkpt lat="37.1624638885" lon="-8.5979048163">
        <ele>23.69</ele>
        <time>2021-05-28T15:31:37Z</time>
      </trkpt>
      <trkpt lat="37.1624415927" lon="-8.5982833430">
        <ele>23.69</ele>
        <time>2021-05-28T15:31:39Z</time>
      </trkpt>
      <trkpt lat="37.1624089871" lon="-8.5984664038">
        <ele>23.69</ele>
        <time>2021-05-28T15:31:40Z</time>
      </trkpt>
      <trkpt lat="37.1623637248" lon="-8.5986372270">
        <ele>23.69</ele>
        <time>2021-05-28T15:31:41Z</time>
      </trkpt>
      <trkpt lat="37.1623102482" lon="-8.5987901967">
        <ele>22.25</ele>
        <time>2021-05-28T15:31:42Z</time>
      </trkpt>
      <trkpt lat="37.1622498985" lon="-8.5989266541">
        <ele>22.25</ele>
        <time>2021-05-28T15:31:43Z</time>
      </trkpt>
      <trkpt lat="37.1621822566" lon="-8.5990532208">
        <ele>21.29</ele>
        <time>2021-05-28T15:31:44Z</time>
      </trkpt>
      <trkpt lat="37.1621068195" lon="-8.5991758481">
        <ele>21.29</ele>
        <time>2021-05-28T15:31:45Z</time>
      </trkpt>
      <trkpt lat="37.1620247606" lon="-8.5992945358">
        <ele>21.77</ele>
        <time>2021-05-28T15:31:46Z</time>
      </trkpt>
      <trkpt lat="37.1614811104" lon="-8.5998254456">
        <ele>17.92</ele>
        <time>2021-05-28T15:31:52Z</time>
      </trkpt>
      <trkpt lat="37.1614013985" lon="-8.5998935066">
        <ele>17.44</ele>
        <time>2021-05-28T15:31:53Z</time>
      </trkpt>
      <trkpt lat="37.1612180863" lon="-8.6000895593">
        <ele>16.00</ele>
        <time>2021-05-28T15:31:56Z</time>
      </trkpt>
      <trkpt lat="37.1611881629" lon="-8.6001395993">
        <ele>16.00</ele>
        <time>2021-05-28T15:31:57Z</time>
      </trkpt>
      <trkpt lat="37.1611676272" lon="-8.6001839396">
        <ele>15.04</ele>
        <time>2021-05-28T15:31:58Z</time>
      </trkpt>
      <trkpt lat="37.1611501928" lon="-8.6002374161">
        <ele>16.00</ele>
        <time>2021-05-28T15:31:59Z</time>
      </trkpt>
      <trkpt lat="37.1611381229" lon="-8.6003070697">
        <ele>15.04</ele>
        <time>2021-05-28T15:32:00Z</time>
      </trkpt>
      <trkpt lat="37.1611329261" lon="-8.6003872845">
        <ele>15.52</ele>
        <time>2021-05-28T15:32:01Z</time>
      </trkpt>
      <trkpt lat="37.1611211915" lon="-8.6004640628">
        <ele>16.00</ele>
        <time>2021-05-28T15:32:02Z</time>
      </trkpt>
      <trkpt lat="37.1610946208" lon="-8.6005305313">
        <ele>15.04</ele>
        <time>2021-05-28T15:32:03Z</time>
      </trkpt>
      <trkpt lat="37.1610472631" lon="-8.6005800683">
        <ele>15.52</ele>
        <time>2021-05-28T15:32:04Z</time>
      </trkpt>
      <trkpt lat="37.1609823871" lon="-8.6006028671">
        <ele>14.56</ele>
        <time>2021-05-28T15:32:05Z</time>
      </trkpt>
      <trkpt lat="37.1609072853" lon="-8.6005987599">
        <ele>14.56</ele>
        <time>2021-05-28T15:32:06Z</time>
      </trkpt>
      <trkpt lat="37.1608266514" lon="-8.6005933117">
        <ele>14.08</ele>
        <time>2021-05-28T15:32:07Z</time>
      </trkpt>
      <trkpt lat="37.1607401501" lon="-8.6006050464">
        <ele>15.04</ele>
        <time>2021-05-28T15:32:08Z</time>
      </trkpt>
      <trkpt lat="37.1606493741" lon="-8.6006376520">
        <ele>13.60</ele>
        <time>2021-05-28T15:32:09Z</time>
      </trkpt>
      <trkpt lat="37.1605561674" lon="-8.6006903742">
        <ele>13.12</ele>
        <time>2021-05-28T15:32:10Z</time>
      </trkpt>
      <trkpt lat="37.1604586858" lon="-8.6007647216">
        <ele>12.63</ele>
        <time>2021-05-28T15:32:11Z</time>
      </trkpt>
      <trkpt lat="37.1603573486" lon="-8.6008494627">
        <ele>13.12</ele>
        <time>2021-05-28T15:32:12Z</time>
      </trkpt>
      <trkpt lat="37.1595504228" lon="-8.6018267088">
        <ele>10.71</ele>
        <time>2021-05-28T15:32:20Z</time>
      </trkpt>
      <trkpt lat="37.1594691183" lon="-8.6019961908">
        <ele>11.19</ele>
        <time>2021-05-28T15:32:21Z</time>
      </trkpt>
      <trkpt lat="37.1589776874" lon="-8.6032178532">
        <ele>8.31</ele>
        <time>2021-05-28T15:32:29Z</time>
      </trkpt>
      <trkpt lat="37.1585795470" lon="-8.6042329855">
        <ele>11.67</ele>
        <time>2021-05-28T15:32:36Z</time>
      </trkpt>
      <trkpt lat="37.1585105639" lon="-8.6043815129">
        <ele>11.19</ele>
        <time>2021-05-28T15:32:37Z</time>
      </trkpt>
      <trkpt lat="37.1576434560" lon="-8.6057872418">
        <ele>15.04</ele>
        <time>2021-05-28T15:32:46Z</time>
      </trkpt>
      <trkpt lat="37.1571588144" lon="-8.6065254360">
        <ele>16.00</ele>
        <time>2021-05-28T15:32:51Z</time>
      </trkpt>
      <trkpt lat="37.1567315888" lon="-8.6071720999">
        <ele>18.40</ele>
        <time>2021-05-28T15:32:55Z</time>
      </trkpt>
      <trkpt lat="37.1561275888" lon="-8.6082699616">
        <ele>21.77</ele>
        <time>2021-05-28T15:33:01Z</time>
      </trkpt>
      <trkpt lat="37.1554898098" lon="-8.6098943744">
        <ele>25.13</ele>
        <time>2021-05-28T15:33:09Z</time>
      </trkpt>
      <trkpt lat="37.1548046730" lon="-8.6117403209">
        <ele>20.81</ele>
        <time>2021-05-28T15:33:18Z</time>
      </trkpt>
      <trkpt lat="37.1547404677" lon="-8.6119108088">
        <ele>21.29</ele>
        <time>2021-05-28T15:33:19Z</time>
      </trkpt>
      <trkpt lat="37.1545705665" lon="-8.6123654433">
        <ele>17.92</ele>
        <time>2021-05-28T15:33:22Z</time>
      </trkpt>
      <trkpt lat="37.1545195207" lon="-8.6124973744">
        <ele>18.40</ele>
        <time>2021-05-28T15:33:23Z</time>
      </trkpt>
      <trkpt lat="37.1541713364" lon="-8.6134368181">
        <ele>18.88</ele>
        <time>2021-05-28T15:33:32Z</time>
      </trkpt>
      <trkpt lat="37.1541547403" lon="-8.6135457829">
        <ele>17.92</ele>
        <time>2021-05-28T15:33:33Z</time>
      </trkpt>
      <trkpt lat="37.1541546565" lon="-8.6136585195">
        <ele>17.92</ele>
        <time>2021-05-28T15:33:34Z</time>
      </trkpt>
      <trkpt lat="37.1541526448" lon="-8.6137633771">
        <ele>18.40</ele>
        <time>2021-05-28T15:33:35Z</time>
      </trkpt>
      <trkpt lat="37.1541269124" lon="-8.6138520576">
        <ele>18.88</ele>
        <time>2021-05-28T15:33:36Z</time>
      </trkpt>
      <trkpt lat="37.1540696640" lon="-8.6139296740">
        <ele>19.36</ele>
        <time>2021-05-28T15:33:37Z</time>
      </trkpt>
      <trkpt lat="37.1539884433" lon="-8.6140069552">
        <ele>18.88</ele>
        <time>2021-05-28T15:33:38Z</time>
      </trkpt>
      <trkpt lat="37.1539016906" lon="-8.6141038500">
        <ele>19.36</ele>
        <time>2021-05-28T15:33:39Z</time>
      </trkpt>
      <trkpt lat="37.1538211405" lon="-8.6142303329">
        <ele>21.77</ele>
        <time>2021-05-28T15:33:40Z</time>
      </trkpt>
      <trkpt lat="37.1537469607" lon="-8.6143712327">
        <ele>22.25</ele>
        <time>2021-05-28T15:33:41Z</time>
      </trkpt>
      <trkpt lat="37.1536717750" lon="-8.6145255435">
        <ele>22.25</ele>
        <time>2021-05-28T15:33:42Z</time>
      </trkpt>
      <trkpt lat="37.1534126066" lon="-8.6150758993">
        <ele>25.61</ele>
        <time>2021-05-28T15:33:45Z</time>
      </trkpt>
      <trkpt lat="37.1527810302" lon="-8.6168750748">
        <ele>22.73</ele>
        <time>2021-05-28T15:33:53Z</time>
      </trkpt>
      <trkpt lat="37.1525919344" lon="-8.6178020295">
        <ele>21.29</ele>
        <time>2021-05-28T15:33:57Z</time>
      </trkpt>
      <trkpt lat="37.1524636913" lon="-8.6188734882">
        <ele>18.88</ele>
        <time>2021-05-28T15:34:02Z</time>
      </trkpt>
      <trkpt lat="37.1524589136" lon="-8.6202259082">
        <ele>15.52</ele>
        <time>2021-05-28T15:34:08Z</time>
      </trkpt>
      <trkpt lat="37.1524983924" lon="-8.6206545588">
        <ele>11.67</ele>
        <time>2021-05-28T15:34:10Z</time>
      </trkpt>
      <trkpt lat="37.1525468398" lon="-8.6210657749">
        <ele>11.19</ele>
        <time>2021-05-28T15:34:12Z</time>
      </trkpt>
      <trkpt lat="37.1530303918" lon="-8.6231886595">
        <ele>9.75</ele>
        <time>2021-05-28T15:34:23Z</time>
      </trkpt>
      <trkpt lat="37.1531914081" lon="-8.6237480678">
        <ele>11.19</ele>
        <time>2021-05-28T15:34:26Z</time>
      </trkpt>
      <trkpt lat="37.1533791628" lon="-8.6244508903">
        <ele>14.08</ele>
        <time>2021-05-28T15:34:30Z</time>
      </trkpt>
      <trkpt lat="37.1534204856" lon="-8.6246181093">
        <ele>13.12</ele>
        <time>2021-05-28T15:34:31Z</time>
      </trkpt>
      <trkpt lat="37.1535038855" lon="-8.6249362025">
        <ele>12.15</ele>
        <time>2021-05-28T15:34:33Z</time>
      </trkpt>
      <trkpt lat="37.1538434364" lon="-8.6259831022">
        <ele>15.52</ele>
        <time>2021-05-28T15:34:39Z</time>
      </trkpt>
      <trkpt lat="37.1543417405" lon="-8.6269486975">
        <ele>20.32</ele>
        <time>2021-05-28T15:34:44Z</time>
      </trkpt>
      <trkpt lat="37.1544641163" lon="-8.6271459237">
        <ele>20.32</ele>
        <time>2021-05-28T15:34:45Z</time>
      </trkpt>
      <trkpt lat="37.1550232731" lon="-8.6278133746">
        <ele>16.48</ele>
        <time>2021-05-28T15:34:49Z</time>
      </trkpt>
      <trkpt lat="37.1553001273" lon="-8.6280617304">
        <ele>15.04</ele>
        <time>2021-05-28T15:34:51Z</time>
      </trkpt>
      <trkpt lat="37.1565740090" lon="-8.6290554889">
        <ele>11.67</ele>
        <time>2021-05-28T15:35:00Z</time>
      </trkpt>
      <trkpt lat="37.1576627344" lon="-8.6303124391">
        <ele>13.12</ele>
        <time>2021-05-28T15:35:09Z</time>
      </trkpt>
      <trkpt lat="37.1578418557" lon="-8.6306079850">
        <ele>9.27</ele>
        <time>2021-05-28T15:35:11Z</time>
      </trkpt>
      <trkpt lat="37.1580969170" lon="-8.6311095580">
        <ele>7.35</ele>
        <time>2021-05-28T15:35:15Z</time>
      </trkpt>
      <trkpt lat="37.1584259067" lon="-8.6317894142">
        <ele>7.83</ele>
        <time>2021-05-28T15:35:21Z</time>
      </trkpt>
      <trkpt lat="37.1584953088" lon="-8.6318611633">
        <ele>6.87</ele>
        <time>2021-05-28T15:35:22Z</time>
      </trkpt>
      <trkpt lat="37.1585713327" lon="-8.6319031566">
        <ele>7.35</ele>
        <time>2021-05-28T15:35:23Z</time>
      </trkpt>
      <trkpt lat="37.1586520504" lon="-8.6319232732">
        <ele>6.87</ele>
        <time>2021-05-28T15:35:24Z</time>
      </trkpt>
      <trkpt lat="37.1587318461" lon="-8.6319459882">
        <ele>7.35</ele>
        <time>2021-05-28T15:35:25Z</time>
      </trkpt>
      <trkpt lat="37.1588087082" lon="-8.6319896579">
        <ele>7.35</ele>
        <time>2021-05-28T15:35:26Z</time>
      </trkpt>
      <trkpt lat="37.1588766016" lon="-8.6320593115">
        <ele>7.35</ele>
        <time>2021-05-28T15:35:27Z</time>
      </trkpt>
      <trkpt lat="37.1589245461" lon="-8.6321448907">
        <ele>6.87</ele>
        <time>2021-05-28T15:35:28Z</time>
      </trkpt>
      <trkpt lat="37.1589513682" lon="-8.6322371755">
        <ele>6.87</ele>
        <time>2021-05-28T15:35:29Z</time>
      </trkpt>
      <trkpt lat="37.1589593310" lon="-8.6323361658">
        <ele>6.39</ele>
        <time>2021-05-28T15:35:30Z</time>
      </trkpt>
      <trkpt lat="37.1589484345" lon="-8.6324379221">
        <ele>5.91</ele>
        <time>2021-05-28T15:35:31Z</time>
      </trkpt>
      <trkpt lat="37.1589188464" lon="-8.6325396784">
        <ele>5.91</ele>
        <time>2021-05-28T15:35:32Z</time>
      </trkpt>
      <trkpt lat="37.1588703990" lon="-8.6326364893">
        <ele>6.39</ele>
        <time>2021-05-28T15:35:33Z</time>
      </trkpt>
      <trkpt lat="37.1588133182" lon="-8.6327374075">
        <ele>6.39</ele>
        <time>2021-05-28T15:35:34Z</time>
      </trkpt>
      <trkpt lat="37.1587657928" lon="-8.6328529939">
        <ele>5.91</ele>
        <time>2021-05-28T15:35:35Z</time>
      </trkpt>
      <trkpt lat="37.1587382164" lon="-8.6329863500">
        <ele>6.39</ele>
        <time>2021-05-28T15:35:36Z</time>
      </trkpt>
      <trkpt lat="37.1587294154" lon="-8.6331333686">
        <ele>6.87</ele>
        <time>2021-05-28T15:35:37Z</time>
      </trkpt>
      <trkpt lat="37.1587348636" lon="-8.6332958937">
        <ele>7.83</ele>
        <time>2021-05-28T15:35:38Z</time>
      </trkpt>
      <trkpt lat="37.1587490290" lon="-8.6334684771">
        <ele>8.79</ele>
        <time>2021-05-28T15:35:39Z</time>
      </trkpt>
      <trkpt lat="37.1587693132" lon="-8.6350141000">
        <ele>10.23</ele>
        <time>2021-05-28T15:35:47Z</time>
      </trkpt>
      <trkpt lat="37.1586756874" lon="-8.6356709059">
        <ele>15.04</ele>
        <time>2021-05-28T15:35:50Z</time>
      </trkpt>
      <trkpt lat="37.1586329397" lon="-8.6358981393">
        <ele>15.04</ele>
        <time>2021-05-28T15:35:51Z</time>
      </trkpt>
      <trkpt lat="37.1580876131" lon="-8.6382542923">
        <ele>12.15</ele>
        <time>2021-05-28T15:36:01Z</time>
      </trkpt>
      <trkpt lat="37.1576960105" lon="-8.6398042738">
        <ele>11.67</ele>
        <time>2021-05-28T15:36:08Z</time>
      </trkpt>
      <trkpt lat="37.1570034139" lon="-8.6415915471">
        <ele>15.04</ele>
        <time>2021-05-28T15:36:16Z</time>
      </trkpt>
      <trkpt lat="37.1562860068" lon="-8.6428708769">
        <ele>10.71</ele>
        <time>2021-05-28T15:36:23Z</time>
      </trkpt>
      <trkpt lat="37.1554167196" lon="-8.6441895179">
        <ele>7.35</ele>
        <time>2021-05-28T15:36:32Z</time>
      </trkpt>
      <trkpt lat="37.1553274523" lon="-8.6443214491">
        <ele>7.83</ele>
        <time>2021-05-28T15:36:33Z</time>
      </trkpt>
      <trkpt lat="37.1551426314" lon="-8.6445889156">
        <ele>9.75</ele>
        <time>2021-05-28T15:36:35Z</time>
      </trkpt>
      <trkpt lat="37.1542641241" lon="-8.6459094845">
        <ele>9.27</ele>
        <time>2021-05-28T15:36:46Z</time>
      </trkpt>
      <trkpt lat="37.1533256862" lon="-8.6473113578">
        <ele>7.83</ele>
        <time>2021-05-28T15:36:58Z</time>
      </trkpt>
      <trkpt lat="37.1529324912" lon="-8.6478840932">
        <ele>6.39</ele>
        <time>2021-05-28T15:37:03Z</time>
      </trkpt>
      <trkpt lat="37.1526026633" lon="-8.6483664718">
        <ele>11.19</ele>
        <time>2021-05-28T15:37:07Z</time>
      </trkpt>
      <trkpt lat="37.1524327621" lon="-8.6486222036">
        <ele>7.83</ele>
        <time>2021-05-28T15:37:09Z</time>
      </trkpt>
      <trkpt lat="37.1523459256" lon="-8.6487518717">
        <ele>11.67</ele>
        <time>2021-05-28T15:37:10Z</time>
      </trkpt>
      <trkpt lat="37.1516493056" lon="-8.6497949157">
        <ele>7.83</ele>
        <time>2021-05-28T15:37:18Z</time>
      </trkpt>
      <trkpt lat="37.1515700966" lon="-8.6499153636">
        <ele>7.83</ele>
        <time>2021-05-28T15:37:19Z</time>
      </trkpt>
      <trkpt lat="37.1509178169" lon="-8.6511793546">
        <ele>7.83</ele>
        <time>2021-05-28T15:37:29Z</time>
      </trkpt>
      <trkpt lat="37.1505333390" lon="-8.6524227262">
        <ele>11.19</ele>
        <time>2021-05-28T15:37:40Z</time>
      </trkpt>
      <trkpt lat="37.1501961350" lon="-8.6535215098">
        <ele>12.63</ele>
        <time>2021-05-28T15:37:52Z</time>
      </trkpt>
      <trkpt lat="37.1500921156" lon="-8.6538932472">
        <ele>13.12</ele>
        <time>2021-05-28T15:38:02Z</time>
      </trkpt>
      <trkpt lat="37.1499918681" lon="-8.6542182136">
        <ele>12.63</ele>
        <time>2021-05-28T15:38:12Z</time>
      </trkpt>
      <trkpt lat="37.1497793030" lon="-8.6549201980">
        <ele>15.04</ele>
        <time>2021-05-28T15:38:24Z</time>
      </trkpt>
      <trkpt lat="37.1496710088" lon="-8.6552969646">
        <ele>16.48</ele>
        <time>2021-05-28T15:38:29Z</time>
      </trkpt>
      <trkpt lat="37.1492992714" lon="-8.6563173775">
        <ele>17.44</ele>
        <time>2021-05-28T15:38:42Z</time>
      </trkpt>
      <trkpt lat="37.1492307074" lon="-8.6564798187">
        <ele>16.96</ele>
        <time>2021-05-28T15:38:51Z</time>
      </trkpt>
      <trkpt lat="37.1492091659" lon="-8.6565185431">
        <ele>17.44</ele>
        <time>2021-05-28T15:39:06Z</time>
      </trkpt>
      <trkpt lat="37.1491320524" lon="-8.6567264982">
        <ele>18.88</ele>
        <time>2021-05-28T15:39:09Z</time>
      </trkpt>
      <trkpt lat="37.1489684377" lon="-8.6571888439">
        <ele>19.84</ele>
        <time>2021-05-28T15:39:14Z</time>
      </trkpt>
      <trkpt lat="37.1487028152" lon="-8.6577242799">
        <ele>23.21</ele>
        <time>2021-05-28T15:39:19Z</time>
      </trkpt>
      <trkpt lat="37.1478642896" lon="-8.6588338763">
        <ele>23.21</ele>
        <time>2021-05-28T15:39:31Z</time>
      </trkpt>
      <trkpt lat="37.1467115264" lon="-8.6599580571">
        <ele>24.65</ele>
        <time>2021-05-28T15:39:44Z</time>
      </trkpt>
      <trkpt lat="37.1466115303" lon="-8.6600497551">
        <ele>24.65</ele>
        <time>2021-05-28T15:39:45Z</time>
      </trkpt>
      <trkpt lat="37.1451962460" lon="-8.6610531528">
        <ele>23.21</ele>
        <time>2021-05-28T15:39:57Z</time>
      </trkpt>
      <trkpt lat="37.1434055362" lon="-8.6619718093">
        <ele>24.65</ele>
        <time>2021-05-28T15:40:10Z</time>
      </trkpt>
      <trkpt lat="37.1432759520" lon="-8.6620225199">
        <ele>20.81</ele>
        <time>2021-05-28T15:40:11Z</time>
      </trkpt>
      <trkpt lat="37.1431529056" lon="-8.6620679498">
        <ele>21.29</ele>
        <time>2021-05-28T15:40:12Z</time>
      </trkpt>
      <trkpt lat="37.1426418610" lon="-8.6622240208">
        <ele>22.73</ele>
        <time>2021-05-28T15:40:16Z</time>
      </trkpt>
      <trkpt lat="37.1417998150" lon="-8.6624517571">
        <ele>23.21</ele>
        <time>2021-05-28T15:40:22Z</time>
      </trkpt>
      <trkpt lat="37.1408139355" lon="-8.6627236661">
        <ele>21.77</ele>
        <time>2021-05-28T15:40:29Z</time>
      </trkpt>
      <trkpt lat="37.1400498413" lon="-8.6629285198">
        <ele>20.81</ele>
        <time>2021-05-28T15:40:37Z</time>
      </trkpt>
      <trkpt lat="37.1398609132" lon="-8.6630036216">
        <ele>20.81</ele>
        <time>2021-05-28T15:40:40Z</time>
      </trkpt>
      <trkpt lat="37.1398045868" lon="-8.6630490515">
        <ele>21.29</ele>
        <time>2021-05-28T15:40:41Z</time>
      </trkpt>
      <trkpt lat="37.1397524513" lon="-8.6631202977">
        <ele>21.77</ele>
        <time>2021-05-28T15:40:42Z</time>
      </trkpt>
      <trkpt lat="37.1396392956" lon="-8.6632803921">
        <ele>22.25</ele>
        <time>2021-05-28T15:40:44Z</time>
      </trkpt>
      <trkpt lat="37.1395653673" lon="-8.6633311026">
        <ele>21.77</ele>
        <time>2021-05-28T15:40:45Z</time>
      </trkpt>
      <trkpt lat="37.1394823026" lon="-8.6633456033">
        <ele>21.29</ele>
        <time>2021-05-28T15:40:46Z</time>
      </trkpt>
      <trkpt lat="37.1393918619" lon="-8.6633276660">
        <ele>21.77</ele>
        <time>2021-05-28T15:40:47Z</time>
      </trkpt>
      <trkpt lat="37.1393024269" lon="-8.6632775422">
        <ele>22.25</ele>
        <time>2021-05-28T15:40:48Z</time>
      </trkpt>
      <trkpt lat="37.1392134111" lon="-8.6632090621">
        <ele>22.73</ele>
        <time>2021-05-28T15:40:49Z</time>
      </trkpt>
      <trkpt lat="37.1391189471" lon="-8.6631523166">
        <ele>22.25</ele>
        <time>2021-05-28T15:40:50Z</time>
      </trkpt>
      <trkpt lat="37.1390113235" lon="-8.6631228961">
        <ele>22.73</ele>
        <time>2021-05-28T15:40:51Z</time>
      </trkpt>
      <trkpt lat="37.1388898697" lon="-8.6631178670">
        <ele>23.21</ele>
        <time>2021-05-28T15:40:52Z</time>
      </trkpt>
      <trkpt lat="37.1376102045" lon="-8.6632627062">
        <ele>25.61</ele>
        <time>2021-05-28T15:41:01Z</time>
      </trkpt>
      <trkpt lat="37.1359985322" lon="-8.6634974834">
        <ele>25.13</ele>
        <time>2021-05-28T15:41:12Z</time>
      </trkpt>
      <trkpt lat="37.1348700766" lon="-8.6639100406">
        <ele>28.98</ele>
        <time>2021-05-28T15:41:19Z</time>
      </trkpt>
      <trkpt lat="37.1346943080" lon="-8.6640034989">
        <ele>28.02</ele>
        <time>2021-05-28T15:41:20Z</time>
      </trkpt>
      <trkpt lat="37.1337740589" lon="-8.6646810919">
        <ele>25.13</ele>
        <time>2021-05-28T15:41:26Z</time>
      </trkpt>
      <trkpt lat="37.1330976393" lon="-8.6654120777">
        <ele>24.65</ele>
        <time>2021-05-28T15:41:33Z</time>
      </trkpt>
      <trkpt lat="37.1324893646" lon="-8.6661015730">
        <ele>22.25</ele>
        <time>2021-05-28T15:41:41Z</time>
      </trkpt>
      <trkpt lat="37.1321947407" lon="-8.6665409524">
        <ele>20.81</ele>
        <time>2021-05-28T15:41:49Z</time>
      </trkpt>
      <trkpt lat="37.1321607102" lon="-8.6666211672">
        <ele>22.25</ele>
        <time>2021-05-28T15:41:50Z</time>
      </trkpt>
      <trkpt lat="37.1321125980" lon="-8.6666985322">
        <ele>21.77</ele>
        <time>2021-05-28T15:41:51Z</time>
      </trkpt>
      <trkpt lat="37.1320447046" lon="-8.6667623185">
        <ele>21.77</ele>
        <time>2021-05-28T15:41:52Z</time>
      </trkpt>
      <trkpt lat="37.1319653280" lon="-8.6668128613">
        <ele>21.77</ele>
        <time>2021-05-28T15:41:53Z</time>
      </trkpt>
      <trkpt lat="37.1318840235" lon="-8.6668641586">
        <ele>21.29</ele>
        <time>2021-05-28T15:41:54Z</time>
      </trkpt>
      <trkpt lat="37.1318011265" lon="-8.6669340637">
        <ele>21.29</ele>
        <time>2021-05-28T15:41:55Z</time>
      </trkpt>
      <trkpt lat="37.1317129489" lon="-8.6670240853">
        <ele>22.25</ele>
        <time>2021-05-28T15:41:56Z</time>
      </trkpt>
      <trkpt lat="37.1316205803" lon="-8.6671243329">
        <ele>22.25</ele>
        <time>2021-05-28T15:41:57Z</time>
      </trkpt>
      <trkpt lat="37.1305602696" lon="-8.6683414690">
        <ele>22.73</ele>
        <time>2021-05-28T15:42:07Z</time>
      </trkpt>
      <trkpt lat="37.1299855225" lon="-8.6689750571">
        <ele>19.36</ele>
        <time>2021-05-28T15:42:12Z</time>
      </trkpt>
      <trkpt lat="37.1297298744" lon="-8.6692410149">
        <ele>22.73</ele>
        <time>2021-05-28T15:42:14Z</time>
      </trkpt>
      <trkpt lat="37.1291591506" lon="-8.6697724275">
        <ele>19.36</ele>
        <time>2021-05-28T15:42:18Z</time>
      </trkpt>
      <trkpt lat="37.1282823198" lon="-8.6704757530">
        <ele>16.00</ele>
        <time>2021-05-28T15:42:24Z</time>
      </trkpt>
      <trkpt lat="37.1278657392" lon="-8.6707655154">
        <ele>11.67</ele>
        <time>2021-05-28T15:42:27Z</time>
      </trkpt>
      <trkpt lat="37.1267088689" lon="-8.6715279333">
        <ele>8.31</ele>
        <time>2021-05-28T15:42:36Z</time>
      </trkpt>
      <trkpt lat="37.1260902844" lon="-8.6719326954">
        <ele>7.35</ele>
        <time>2021-05-28T15:42:41Z</time>
      </trkpt>
      <trkpt lat="37.1256618015" lon="-8.6722367909">
        <ele>5.42</ele>
        <time>2021-05-28T15:42:45Z</time>
      </trkpt>
      <trkpt lat="37.1255899686" lon="-8.6723088752">
        <ele>4.94</ele>
        <time>2021-05-28T15:42:46Z</time>
      </trkpt>
      <trkpt lat="37.1255354863" lon="-8.6723771039">
        <ele>5.42</ele>
        <time>2021-05-28T15:42:47Z</time>
      </trkpt>
      <trkpt lat="37.1254966781" lon="-8.6724531278">
        <ele>4.94</ele>
        <time>2021-05-28T15:42:48Z</time>
      </trkpt>
      <trkpt lat="37.1254721191" lon="-8.6725416407">
        <ele>5.91</ele>
        <time>2021-05-28T15:42:49Z</time>
      </trkpt>
      <trkpt lat="37.1254488174" lon="-8.6726330034">
        <ele>5.91</ele>
        <time>2021-05-28T15:42:50Z</time>
      </trkpt>
      <trkpt lat="37.1254057344" lon="-8.6727140564">
        <ele>6.39</ele>
        <time>2021-05-28T15:42:51Z</time>
      </trkpt>
      <trkpt lat="37.1253396012" lon="-8.6727673654">
        <ele>5.42</ele>
        <time>2021-05-28T15:42:52Z</time>
      </trkpt>
      <trkpt lat="37.1252605598" lon="-8.6727789324">
        <ele>5.42</ele>
        <time>2021-05-28T15:42:53Z</time>
      </trkpt>
      <trkpt lat="37.1251728013" lon="-8.6727574747">
        <ele>5.42</ele>
        <time>2021-05-28T15:42:54Z</time>
      </trkpt>
      <trkpt lat="37.1250735596" lon="-8.6727262940">
        <ele>5.42</ele>
        <time>2021-05-28T15:42:55Z</time>
      </trkpt>
      <trkpt lat="37.1249596495" lon="-8.6727142241">
        <ele>5.42</ele>
        <time>2021-05-28T15:42:56Z</time>
      </trkpt>
      <trkpt lat="37.1248391178" lon="-8.6727262940">
        <ele>6.87</ele>
        <time>2021-05-28T15:42:57Z</time>
      </trkpt>
      <trkpt lat="37.1247169096" lon="-8.6727580614">
        <ele>7.35</ele>
        <time>2021-05-28T15:42:58Z</time>
      </trkpt>
      <trkpt lat="37.1245917678" lon="-8.6727999710">
        <ele>8.31</ele>
        <time>2021-05-28T15:42:59Z</time>
      </trkpt>
      <trkpt lat="37.1230171435" lon="-8.6731930822">
        <ele>8.79</ele>
        <time>2021-05-28T15:43:10Z</time>
      </trkpt>
      <trkpt lat="37.1227131318" lon="-8.6732054874">
        <ele>7.83</ele>
        <time>2021-05-28T15:43:12Z</time>
      </trkpt>
      <trkpt lat="37.1212695166" lon="-8.6732185632">
        <ele>6.39</ele>
        <time>2021-05-28T15:43:21Z</time>
      </trkpt>
      <trkpt lat="37.1192616317" lon="-8.6732230056">
        <ele>5.91</ele>
        <time>2021-05-28T15:43:34Z</time>
      </trkpt>
      <trkpt lat="37.1189433709" lon="-8.6732141208">
        <ele>6.87</ele>
        <time>2021-05-28T15:43:36Z</time>
      </trkpt>
      <trkpt lat="37.1172457002" lon="-8.6734175496">
        <ele>5.91</ele>
        <time>2021-05-28T15:43:46Z</time>
      </trkpt>
      <trkpt lat="37.1161894128" lon="-8.6741593480">
        <ele>4.94</ele>
        <time>2021-05-28T15:43:54Z</time>
      </trkpt>
      <trkpt lat="37.1154166013" lon="-8.6752558686">
        <ele>5.42</ele>
        <time>2021-05-28T15:44:02Z</time>
      </trkpt>
      <trkpt lat="37.1147434507" lon="-8.6760636326">
        <ele>6.39</ele>
        <time>2021-05-28T15:44:10Z</time>
      </trkpt>
      <trkpt lat="37.1144821029" lon="-8.6763694882">
        <ele>8.79</ele>
        <time>2021-05-28T15:44:13Z</time>
      </trkpt>
      <trkpt lat="37.1137888357" lon="-8.6771228537">
        <ele>8.79</ele>
        <time>2021-05-28T15:44:20Z</time>
      </trkpt>
      <trkpt lat="37.1137085371" lon="-8.6772550363">
        <ele>9.75</ele>
        <time>2021-05-28T15:44:21Z</time>
      </trkpt>
      <trkpt lat="37.1136497799" lon="-8.6774033122">
        <ele>10.71</ele>
        <time>2021-05-28T15:44:22Z</time>
      </trkpt>
      <trkpt lat="37.1136168391" lon="-8.6775523424">
        <ele>9.75</ele>
        <time>2021-05-28T15:44:23Z</time>
      </trkpt>
      <trkpt lat="37.1136045177" lon="-8.6777057312">
        <ele>9.75</ele>
        <time>2021-05-28T15:44:24Z</time>
      </trkpt>
      <trkpt lat="37.1136149950" lon="-8.6778643169">
        <ele>11.19</ele>
        <time>2021-05-28T15:44:25Z</time>
      </trkpt>
      <trkpt lat="37.1136439964" lon="-8.6780223157">
        <ele>11.19</ele>
        <time>2021-05-28T15:44:26Z</time>
      </trkpt>
      <trkpt lat="37.1136869118" lon="-8.6781772971">
        <ele>11.67</ele>
        <time>2021-05-28T15:44:27Z</time>
      </trkpt>
      <trkpt lat="37.1137340181" lon="-8.6783334520">
        <ele>14.08</ele>
        <time>2021-05-28T15:44:28Z</time>
      </trkpt>
      <trkpt lat="37.1137811244" lon="-8.6784922890">
        <ele>13.12</ele>
        <time>2021-05-28T15:44:29Z</time>
      </trkpt>
      <trkpt lat="37.1140953619" lon="-8.6795533542">
        <ele>9.27</ele>
        <time>2021-05-28T15:44:36Z</time>
      </trkpt>
      <trkpt lat="37.1141300630" lon="-8.6796695273">
        <ele>9.27</ele>
        <time>2021-05-28T15:44:37Z</time>
      </trkpt>
      <trkpt lat="37.1143029816" lon="-8.6802485492">
        <ele>5.91</ele>
        <time>2021-05-28T15:44:44Z</time>
      </trkpt>
      <trkpt lat="37.1143318992" lon="-8.6803076416">
        <ele>6.39</ele>
        <time>2021-05-28T15:44:45Z</time>
      </trkpt>
      <trkpt lat="37.1143682767" lon="-8.6803578492">
        <ele>5.91</ele>
        <time>2021-05-28T15:44:46Z</time>
      </trkpt>
      <trkpt lat="37.1144192386" lon="-8.6803975794">
        <ele>5.42</ele>
        <time>2021-05-28T15:44:47Z</time>
      </trkpt>
      <trkpt lat="37.1144807618" lon="-8.6804411653">
        <ele>6.39</ele>
        <time>2021-05-28T15:44:48Z</time>
      </trkpt>
      <trkpt lat="37.1145452186" lon="-8.6804974079">
        <ele>6.87</ele>
        <time>2021-05-28T15:44:49Z</time>
      </trkpt>
      <trkpt lat="37.1145916544" lon="-8.6805746891">
        <ele>6.87</ele>
        <time>2021-05-28T15:44:50Z</time>
      </trkpt>
      <trkpt lat="37.1146170516" lon="-8.6806709971">
        <ele>5.91</ele>
        <time>2021-05-28T15:44:51Z</time>
      </trkpt>
      <trkpt lat="37.1146154590" lon="-8.6807720829">
        <ele>6.39</ele>
        <time>2021-05-28T15:44:52Z</time>
      </trkpt>
      <trkpt lat="37.1145901456" lon="-8.6808613501">
        <ele>5.42</ele>
        <time>2021-05-28T15:44:53Z</time>
      </trkpt>
      <trkpt lat="37.1145391837" lon="-8.6809360329">
        <ele>5.91</ele>
        <time>2021-05-28T15:44:54Z</time>
      </trkpt>
      <trkpt lat="37.1144646686" lon="-8.6809883360">
        <ele>6.39</ele>
        <time>2021-05-28T15:44:55Z</time>
      </trkpt>
      <trkpt lat="37.1143772453" lon="-8.6810029205">
        <ele>6.39</ele>
        <time>2021-05-28T15:44:56Z</time>
      </trkpt>
      <trkpt lat="37.1142835356" lon="-8.6809869111">
        <ele>6.87</ele>
        <time>2021-05-28T15:44:57Z</time>
      </trkpt>
      <trkpt lat="37.1141911671" lon="-8.6809644476">
        <ele>6.39</ele>
        <time>2021-05-28T15:44:58Z</time>
      </trkpt>
      <trkpt lat="37.1141017321" lon="-8.6809648667">
        <ele>6.39</ele>
        <time>2021-05-28T15:44:59Z</time>
      </trkpt>
      <trkpt lat="37.1140094474" lon="-8.6809966341">
        <ele>6.87</ele>
        <time>2021-05-28T15:45:00Z</time>
      </trkpt>
      <trkpt lat="37.1139069367" lon="-8.6810485180">
        <ele>7.83</ele>
        <time>2021-05-28T15:45:01Z</time>
      </trkpt>
      <trkpt lat="37.1137943678" lon="-8.6811079457">
        <ele>7.83</ele>
        <time>2021-05-28T15:45:02Z</time>
      </trkpt>
      <trkpt lat="37.1134892665" lon="-8.6812735721">
        <ele>9.75</ele>
        <time>2021-05-28T15:45:05Z</time>
      </trkpt>
      <trkpt lat="37.1127343085" lon="-8.6816552002">
        <ele>10.23</ele>
        <time>2021-05-28T15:45:13Z</time>
      </trkpt>
      <trkpt lat="37.1126267686" lon="-8.6816748139">
        <ele>10.23</ele>
        <time>2021-05-28T15:45:14Z</time>
      </trkpt>
      <trkpt lat="37.1125246771" lon="-8.6816787533">
        <ele>10.23</ele>
        <time>2021-05-28T15:45:15Z</time>
      </trkpt>
      <trkpt lat="37.1124257706" lon="-8.6816667672">
        <ele>9.75</ele>
        <time>2021-05-28T15:45:16Z</time>
      </trkpt>
      <trkpt lat="37.1123313066" lon="-8.6816467345">
        <ele>9.27</ele>
        <time>2021-05-28T15:45:17Z</time>
      </trkpt>
      <trkpt lat="37.1122435480" lon="-8.6816201638">
        <ele>8.79</ele>
        <time>2021-05-28T15:45:18Z</time>
      </trkpt>
      <trkpt lat="37.1121628303" lon="-8.6815893184">
        <ele>7.83</ele>
        <time>2021-05-28T15:45:19Z</time>
      </trkpt>
      <trkpt lat="37.1119548753" lon="-8.6814976204">
        <ele>5.91</ele>
        <time>2021-05-28T15:45:22Z</time>
      </trkpt>
      <trkpt lat="37.1116752550" lon="-8.6813646834">
        <ele>4.94</ele>
        <time>2021-05-28T15:45:27Z</time>
      </trkpt>
      <trkpt lat="37.1116191801" lon="-8.6813495122">
        <ele>4.94</ele>
        <time>2021-05-28T15:45:28Z</time>
      </trkpt>
      <trkpt lat="37.1115666255" lon="-8.6813459918">
        <ele>4.46</ele>
        <time>2021-05-28T15:45:29Z</time>
      </trkpt>
      <trkpt lat="37.1115128137" lon="-8.6813569721">
        <ele>5.42</ele>
        <time>2021-05-28T15:45:30Z</time>
      </trkpt>
      <trkpt lat="37.1114643663" lon="-8.6813824531">
        <ele>5.42</ele>
        <time>2021-05-28T15:45:31Z</time>
      </trkpt>
      <trkpt lat="37.1114237979" lon="-8.6814306490">
        <ele>6.39</ele>
        <time>2021-05-28T15:45:32Z</time>
      </trkpt>
      <trkpt lat="37.1113880072" lon="-8.6815119535">
        <ele>6.39</ele>
        <time>2021-05-28T15:45:33Z</time>
      </trkpt>
      <trkpt lat="37.1113602631" lon="-8.6816085130">
        <ele>6.87</ele>
        <time>2021-05-28T15:45:34Z</time>
      </trkpt>
      <trkpt lat="37.1113346145" lon="-8.6817201599">
        <ele>6.39</ele>
        <time>2021-05-28T15:45:35Z</time>
      </trkpt>
      <trkpt lat="37.1111966483" lon="-8.6822728626">
        <ele>10.23</ele>
        <time>2021-05-28T15:45:39Z</time>
      </trkpt>
      <trkpt lat="37.1107816603" lon="-8.6837227643">
        <ele>11.67</ele>
        <time>2021-05-28T15:45:49Z</time>
      </trkpt>
      <trkpt lat="37.1104877908" lon="-8.6847328674">
        <ele>15.52</ele>
        <time>2021-05-28T15:45:55Z</time>
      </trkpt>
      <trkpt lat="37.1103612240" lon="-8.6853366997">
        <ele>19.36</ele>
        <time>2021-05-28T15:45:58Z</time>
      </trkpt>
      <trkpt lat="37.1103147045" lon="-8.6857321579">
        <ele>20.32</ele>
        <time>2021-05-28T15:46:00Z</time>
      </trkpt>
      <trkpt lat="37.1103205718" lon="-8.6871545669">
        <ele>21.29</ele>
        <time>2021-05-28T15:46:07Z</time>
      </trkpt>
      <trkpt lat="37.1103993617" lon="-8.6877800245">
        <ele>25.61</ele>
        <time>2021-05-28T15:46:10Z</time>
      </trkpt>
      <trkpt lat="37.1104329731" lon="-8.6879852135">
        <ele>25.13</ele>
        <time>2021-05-28T15:46:11Z</time>
      </trkpt>
      <trkpt lat="37.1106299479" lon="-8.6890389863">
        <ele>25.13</ele>
        <time>2021-05-28T15:46:17Z</time>
      </trkpt>
      <trkpt lat="37.1107502282" lon="-8.6896103807">
        <ele>25.13</ele>
        <time>2021-05-28T15:46:22Z</time>
      </trkpt>
      <trkpt lat="37.1107919700" lon="-8.6896877456">
        <ele>26.09</ele>
        <time>2021-05-28T15:46:23Z</time>
      </trkpt>
      <trkpt lat="37.1108441055" lon="-8.6897582375">
        <ele>26.09</ele>
        <time>2021-05-28T15:46:24Z</time>
      </trkpt>
      <trkpt lat="37.1108923014" lon="-8.6898371950">
        <ele>26.09</ele>
        <time>2021-05-28T15:46:25Z</time>
      </trkpt>
      <trkpt lat="37.1109168604" lon="-8.6899342574">
        <ele>26.09</ele>
        <time>2021-05-28T15:46:26Z</time>
      </trkpt>
      <trkpt lat="37.1109134238" lon="-8.6900431383">
        <ele>26.57</ele>
        <time>2021-05-28T15:46:27Z</time>
      </trkpt>
      <trkpt lat="37.1108917147" lon="-8.6901712976">
        <ele>27.05</ele>
        <time>2021-05-28T15:46:28Z</time>
      </trkpt>
      <trkpt lat="37.1108770464" lon="-8.6903168913">
        <ele>28.50</ele>
        <time>2021-05-28T15:46:29Z</time>
      </trkpt>
      <trkpt lat="37.1108767949" lon="-8.6904793326">
        <ele>28.98</ele>
        <time>2021-05-28T15:46:30Z</time>
      </trkpt>
      <trkpt lat="37.1108951513" lon="-8.6908098310">
        <ele>30.42</ele>
        <time>2021-05-28T15:46:32Z</time>
      </trkpt>
      <trkpt lat="37.1108053811" lon="-8.6917077005">
        <ele>34.26</ele>
        <time>2021-05-28T15:46:37Z</time>
      </trkpt>
      <trkpt lat="37.1107555926" lon="-8.6918978859">
        <ele>33.30</ele>
        <time>2021-05-28T15:46:38Z</time>
      </trkpt>
      <trkpt lat="37.1103213262" lon="-8.6928522494">
        <ele>34.74</ele>
        <time>2021-05-28T15:46:43Z</time>
      </trkpt>
      <trkpt lat="37.1090792958" lon="-8.6949525867">
        <ele>38.11</ele>
        <time>2021-05-28T15:46:55Z</time>
      </trkpt>
      <trkpt lat="37.1087213047" lon="-8.6958271544">
        <ele>40.51</ele>
        <time>2021-05-28T15:47:01Z</time>
      </trkpt>
      <trkpt lat="37.1086254157" lon="-8.6964926776">
        <ele>39.07</ele>
        <time>2021-05-28T15:47:08Z</time>
      </trkpt>
      <trkpt lat="37.1086554229" lon="-8.6965881474">
        <ele>38.59</ele>
        <time>2021-05-28T15:47:09Z</time>
      </trkpt>
      <trkpt lat="37.1087073069" lon="-8.6966785882">
        <ele>38.59</ele>
        <time>2021-05-28T15:47:10Z</time>
      </trkpt>
      <trkpt lat="37.1088200435" lon="-8.6968574580">
        <ele>38.11</ele>
        <time>2021-05-28T15:47:12Z</time>
      </trkpt>
      <trkpt lat="37.1088540740" lon="-8.6969675962">
        <ele>37.63</ele>
        <time>2021-05-28T15:47:13Z</time>
      </trkpt>
      <trkpt lat="37.1088627074" lon="-8.6970811710">
        <ele>37.15</ele>
        <time>2021-05-28T15:47:14Z</time>
      </trkpt>
      <trkpt lat="37.1088489611" lon="-8.6971895490">
        <ele>38.11</ele>
        <time>2021-05-28T15:47:15Z</time>
      </trkpt>
      <trkpt lat="37.1088155173" lon="-8.6972937360">
        <ele>36.67</ele>
        <time>2021-05-28T15:47:16Z</time>
      </trkpt>
      <trkpt lat="37.1087663993" lon="-8.6973926425">
        <ele>36.67</ele>
        <time>2021-05-28T15:47:17Z</time>
      </trkpt>
      <trkpt lat="37.1087130904" lon="-8.6974938959">
        <ele>37.63</ele>
        <time>2021-05-28T15:47:18Z</time>
      </trkpt>
      <trkpt lat="37.1086684987" lon="-8.6976023577">
        <ele>36.19</ele>
        <time>2021-05-28T15:47:19Z</time>
      </trkpt>
      <trkpt lat="37.1086381562" lon="-8.6977217160">
        <ele>36.67</ele>
        <time>2021-05-28T15:47:20Z</time>
      </trkpt>
      <trkpt lat="37.1086197998" lon="-8.6980038509">
        <ele>37.63</ele>
        <time>2021-05-28T15:47:22Z</time>
      </trkpt>
      <trkpt lat="37.1087733563" lon="-8.7002591696">
        <ele>39.07</ele>
        <time>2021-05-28T15:47:35Z</time>
      </trkpt>
      <trkpt lat="37.1087879408" lon="-8.7016771361">
        <ele>42.44</ele>
        <time>2021-05-28T15:47:42Z</time>
      </trkpt>
      <trkpt lat="37.1086075623" lon="-8.7030995451">
        <ele>46.28</ele>
        <time>2021-05-28T15:47:49Z</time>
      </trkpt>
      <trkpt lat="37.1084747929" lon="-8.7037461251">
        <ele>50.13</ele>
        <time>2021-05-28T15:47:52Z</time>
      </trkpt>
      <trkpt lat="37.1084237471" lon="-8.7039607018">
        <ele>50.13</ele>
        <time>2021-05-28T15:47:53Z</time>
      </trkpt>
      <trkpt lat="37.1080727130" lon="-8.7054376770">
        <ele>53.97</ele>
        <time>2021-05-28T15:48:01Z</time>
      </trkpt>
      <trkpt lat="37.1078377683" lon="-8.7062299345">
        <ele>55.89</ele>
        <time>2021-05-28T15:48:07Z</time>
      </trkpt>
      <trkpt lat="37.1076212637" lon="-8.7067092955">
        <ele>55.89</ele>
        <time>2021-05-28T15:48:14Z</time>
      </trkpt>
      <trkpt lat="37.1075974591" lon="-8.7070613354">
        <ele>57.34</ele>
        <time>2021-05-28T15:48:21Z</time>
      </trkpt>
      <trkpt lat="37.1075763367" lon="-8.7071490102">
        <ele>56.86</ele>
        <time>2021-05-28T15:48:22Z</time>
      </trkpt>
      <trkpt lat="37.1075378638" lon="-8.7072332483">
        <ele>55.89</ele>
        <time>2021-05-28T15:48:23Z</time>
      </trkpt>
      <trkpt lat="37.1074781008" lon="-8.7073031534">
        <ele>56.86</ele>
        <time>2021-05-28T15:48:24Z</time>
      </trkpt>
      <trkpt lat="37.1073996462" lon="-8.7073505949">
        <ele>57.34</ele>
        <time>2021-05-28T15:48:25Z</time>
      </trkpt>
      <trkpt lat="37.1073045116" lon="-8.7073683646">
        <ele>56.86</ele>
        <time>2021-05-28T15:48:26Z</time>
      </trkpt>
      <trkpt lat="37.1072037611" lon="-8.7073619943">
        <ele>56.86</ele>
        <time>2021-05-28T15:48:27Z</time>
      </trkpt>
      <trkpt lat="37.1071072854" lon="-8.7073572166">
        <ele>56.37</ele>
        <time>2021-05-28T15:48:28Z</time>
      </trkpt>
      <trkpt lat="37.1070178505" lon="-8.7073691189">
        <ele>56.86</ele>
        <time>2021-05-28T15:48:29Z</time>
      </trkpt>
      <trkpt lat="37.1069393959" lon="-8.7074004672">
        <ele>56.86</ele>
        <time>2021-05-28T15:48:30Z</time>
      </trkpt>
      <trkpt lat="37.1068820637" lon="-8.7074431311">
        <ele>56.86</ele>
        <time>2021-05-28T15:48:31Z</time>
      </trkpt>
      <trkpt lat="37.1068458539" lon="-8.7074841186">
        <ele>56.86</ele>
        <time>2021-05-28T15:48:32Z</time>
      </trkpt>
      <trkpt lat="37.1068281680" lon="-8.7075153831">
        <ele>57.34</ele>
        <time>2021-05-28T15:48:33Z</time>
      </trkpt>
      <trkpt lat="37.1068196185" lon="-8.7075393554">
        <ele>56.37</ele>
        <time>2021-05-28T15:48:34Z</time>
      </trkpt>
      <trkpt lat="37.1067797206" lon="-8.7075930834">
        <ele>55.89</ele>
        <time>2021-05-28T15:48:38Z</time>
      </trkpt>
      <trkpt lat="37.1067883540" lon="-8.7075937539">
        <ele>56.37</ele>
        <time>2021-05-28T15:48:49Z</time>
      </trkpt>
      <trkpt lat="37.1067643818" lon="-8.7075812649">
        <ele>56.37</ele>
        <time>2021-05-28T15:49:17Z</time>
      </trkpt>
      <trkpt lat="37.1067251544" lon="-8.7075490784">
        <ele>56.37</ele>
        <time>2021-05-28T15:49:19Z</time>
      </trkpt>
      <trkpt lat="37.1067169402" lon="-8.7075296324">
        <ele>56.37</ele>
        <time>2021-05-28T15:49:20Z</time>
      </trkpt>
      <trkpt lat="37.1067204606" lon="-8.7075107731">
        <ele>56.37</ele>
        <time>2021-05-28T15:49:21Z</time>
      </trkpt>
      <trkpt lat="37.1067401581" lon="-8.7074937578">
        <ele>56.37</ele>
        <time>2021-05-28T15:49:22Z</time>
      </trkpt>
      <trkpt lat="37.1067756135" lon="-8.7074702885">
        <ele>55.89</ele>
        <time>2021-05-28T15:49:23Z</time>
      </trkpt>
      <trkpt lat="37.1069314331" lon="-8.7073216774">
        <ele>55.89</ele>
        <time>2021-05-28T15:49:26Z</time>
      </trkpt>
      <trkpt lat="37.1069714148" lon="-8.7072650157">
        <ele>55.89</ele>
        <time>2021-05-28T15:49:27Z</time>
      </trkpt>
      <trkpt lat="37.1070005000" lon="-8.7072004750">
        <ele>54.93</ele>
        <time>2021-05-28T15:49:28Z</time>
      </trkpt>
      <trkpt lat="37.1070195269" lon="-8.7071145605">
        <ele>54.93</ele>
        <time>2021-05-28T15:49:29Z</time>
      </trkpt>
      <trkpt lat="37.1070324350" lon="-8.7070190068">
        <ele>54.93</ele>
        <time>2021-05-28T15:49:30Z</time>
      </trkpt>
      <trkpt lat="37.1070480254" lon="-8.7069248781">
        <ele>55.41</ele>
        <time>2021-05-28T15:49:31Z</time>
      </trkpt>
      <trkpt lat="37.1070758533" lon="-8.7068370357">
        <ele>54.93</ele>
        <time>2021-05-28T15:49:32Z</time>
      </trkpt>
      <trkpt lat="37.1071182657" lon="-8.7067633588">
        <ele>54.93</ele>
        <time>2021-05-28T15:49:33Z</time>
      </trkpt>
      <trkpt lat="37.1071775258" lon="-8.7067029253">
        <ele>55.41</ele>
        <time>2021-05-28T15:49:34Z</time>
      </trkpt>
      <trkpt lat="37.1072458383" lon="-8.7066667993">
        <ele>55.41</ele>
        <time>2021-05-28T15:49:35Z</time>
      </trkpt>
      <trkpt lat="37.1073186770" lon="-8.7066604290">
        <ele>55.89</ele>
        <time>2021-05-28T15:49:36Z</time>
      </trkpt>
      <trkpt lat="37.1073946171" lon="-8.7066800427">
        <ele>55.89</ele>
        <time>2021-05-28T15:49:37Z</time>
      </trkpt>
      <trkpt lat="37.1074695513" lon="-8.7067284901">
        <ele>57.82</ele>
        <time>2021-05-28T15:49:38Z</time>
      </trkpt>
      <trkpt lat="37.1075319126" lon="-8.7068017479">
        <ele>58.78</ele>
        <time>2021-05-28T15:49:39Z</time>
      </trkpt>
      <trkpt lat="37.1075709723" lon="-8.7068990618">
        <ele>59.26</ele>
        <time>2021-05-28T15:49:40Z</time>
      </trkpt>
      <trkpt lat="37.1075860597" lon="-8.7070124689">
        <ele>57.82</ele>
        <time>2021-05-28T15:49:41Z</time>
      </trkpt>
      <trkpt lat="37.1075844672" lon="-8.7071435619">
        <ele>58.30</ele>
        <time>2021-05-28T15:49:42Z</time>
      </trkpt>
      <trkpt lat="37.1075847186" lon="-8.7072866410">
        <ele>58.30</ele>
        <time>2021-05-28T15:49:43Z</time>
      </trkpt>
      <trkpt lat="37.1076018177" lon="-8.7074330729">
        <ele>58.78</ele>
        <time>2021-05-28T15:49:44Z</time>
      </trkpt>
      <trkpt lat="37.1076356806" lon="-8.7075838633">
        <ele>59.74</ele>
        <time>2021-05-28T15:49:45Z</time>
      </trkpt>
      <trkpt lat="37.1076805238" lon="-8.7077364139">
        <ele>60.22</ele>
        <time>2021-05-28T15:49:46Z</time>
      </trkpt>
      <trkpt lat="37.1077295579" lon="-8.7078903895">
        <ele>61.18</ele>
        <time>2021-05-28T15:49:47Z</time>
      </trkpt>
      <trkpt lat="37.1078985371" lon="-8.7085736822">
        <ele>64.55</ele>
        <time>2021-05-28T15:49:51Z</time>
      </trkpt>
      <trkpt lat="37.1079598088" lon="-8.7089677155">
        <ele>65.99</ele>
        <time>2021-05-28T15:49:53Z</time>
      </trkpt>
      <trkpt lat="37.1079937555" lon="-8.7093626708">
        <ele>67.43</ele>
        <time>2021-05-28T15:49:55Z</time>
      </trkpt>
      <trkpt lat="37.1079881396" lon="-8.7100141961">
        <ele>69.35</ele>
        <time>2021-05-28T15:49:58Z</time>
      </trkpt>
      <trkpt lat="37.1079445537" lon="-8.7104888633">
        <ele>71.27</ele>
        <time>2021-05-28T15:50:00Z</time>
      </trkpt>
      <trkpt lat="37.1074834652" lon="-8.7121857796">
        <ele>71.27</ele>
        <time>2021-05-28T15:50:07Z</time>
      </trkpt>
      <trkpt lat="37.1066934709" lon="-8.7139602285">
        <ele>74.64</ele>
        <time>2021-05-28T15:50:14Z</time>
      </trkpt>
      <trkpt lat="37.1062183846" lon="-8.7150163483">
        <ele>79.45</ele>
        <time>2021-05-28T15:50:18Z</time>
      </trkpt>
      <trkpt lat="37.1055318229" lon="-8.7164896354">
        <ele>76.08</ele>
        <time>2021-05-28T15:50:24Z</time>
      </trkpt>
      <trkpt lat="37.1053457446" lon="-8.7168799806">
        <ele>79.45</ele>
        <time>2021-05-28T15:50:26Z</time>
      </trkpt>
      <trkpt lat="37.1052556392" lon="-8.7170718424">
        <ele>79.45</ele>
        <time>2021-05-28T15:50:27Z</time>
      </trkpt>
      <trkpt lat="37.1050142404" lon="-8.7176338490">
        <ele>80.89</ele>
        <time>2021-05-28T15:50:30Z</time>
      </trkpt>
      <trkpt lat="37.1048650425" lon="-8.7180130463">
        <ele>84.25</ele>
        <time>2021-05-28T15:50:32Z</time>
      </trkpt>
      <trkpt lat="37.1047274955" lon="-8.7183969375">
        <ele>85.69</ele>
        <time>2021-05-28T15:50:34Z</time>
      </trkpt>
      <trkpt lat="37.1044814866" lon="-8.7191978283">
        <ele>87.62</ele>
        <time>2021-05-28T15:50:38Z</time>
      </trkpt>
      <trkpt lat="37.1042690054" lon="-8.7200507708">
        <ele>90.98</ele>
        <time>2021-05-28T15:50:42Z</time>
      </trkpt>
      <trkpt lat="37.1040144470" lon="-8.7210825831">
        <ele>90.98</ele>
        <time>2021-05-28T15:50:47Z</time>
      </trkpt>
      <trkpt lat="37.1038685180" lon="-8.7216163427">
        <ele>89.06</ele>
        <time>2021-05-28T15:50:50Z</time>
      </trkpt>
      <trkpt lat="37.1033329982" lon="-8.7233027816">
        <ele>85.69</ele>
        <time>2021-05-28T15:50:59Z</time>
      </trkpt>
      <trkpt lat="37.1030701417" lon="-8.7240752578">
        <ele>81.85</ele>
        <time>2021-05-28T15:51:03Z</time>
      </trkpt>
      <trkpt lat="37.1026068740" lon="-8.7254607026">
        <ele>78.48</ele>
        <time>2021-05-28T15:51:10Z</time>
      </trkpt>
      <trkpt lat="37.1024857555" lon="-8.7258274946">
        <ele>78.00</ele>
        <time>2021-05-28T15:51:12Z</time>
      </trkpt>
      <trkpt lat="37.1023803111" lon="-8.7261501979">
        <ele>79.93</ele>
        <time>2021-05-28T15:51:14Z</time>
      </trkpt>
      <trkpt lat="37.1021048818" lon="-8.7270287052">
        <ele>84.25</ele>
        <time>2021-05-28T15:51:19Z</time>
      </trkpt>
      <trkpt lat="37.1020472981" lon="-8.7272330560">
        <ele>83.29</ele>
        <time>2021-05-28T15:51:20Z</time>
      </trkpt>
      <trkpt lat="37.1018898860" lon="-8.7278218009">
        <ele>78.48</ele>
        <time>2021-05-28T15:51:23Z</time>
      </trkpt>
      <trkpt lat="37.1017949190" lon="-8.7281760201">
        <ele>76.56</ele>
        <time>2021-05-28T15:51:25Z</time>
      </trkpt>
      <trkpt lat="37.1014028974" lon="-8.7298917118">
        <ele>75.60</ele>
        <time>2021-05-28T15:51:36Z</time>
      </trkpt>
      <trkpt lat="37.1012220997" lon="-8.7307426427">
        <ele>72.24</ele>
        <time>2021-05-28T15:51:42Z</time>
      </trkpt>
      <trkpt lat="37.1011998039" lon="-8.7308502663">
        <ele>71.76</ele>
        <time>2021-05-28T15:51:43Z</time>
      </trkpt>
      <trkpt lat="37.1011592355" lon="-8.7310350034">
        <ele>68.87</ele>
        <time>2021-05-28T15:51:46Z</time>
      </trkpt>
      <trkpt lat="37.1011526976" lon="-8.7310639210">
        <ele>68.39</ele>
        <time>2021-05-28T15:51:47Z</time>
      </trkpt>
      <trkpt lat="37.1010249574" lon="-8.7316378299">
        <ele>69.35</ele>
        <time>2021-05-28T15:51:58Z</time>
      </trkpt>
      <trkpt lat="37.1007752605" lon="-8.7328304909">
        <ele>69.35</ele>
        <time>2021-05-28T15:52:06Z</time>
      </trkpt>
      <trkpt lat="37.1004802175" lon="-8.7341882754">
        <ele>67.91</ele>
        <time>2021-05-28T15:52:14Z</time>
      </trkpt>
      <trkpt lat="37.1004454326" lon="-8.7343341205">
        <ele>67.43</ele>
        <time>2021-05-28T15:52:15Z</time>
      </trkpt>
      <trkpt lat="37.1000567637" lon="-8.7355932500">
        <ele>64.07</ele>
        <time>2021-05-28T15:52:25Z</time>
      </trkpt>
      <trkpt lat="37.0997680072" lon="-8.7363143452">
        <ele>63.58</ele>
        <time>2021-05-28T15:52:34Z</time>
      </trkpt>
      <trkpt lat="37.0997468010" lon="-8.7364081386">
        <ele>62.62</ele>
        <time>2021-05-28T15:52:35Z</time>
      </trkpt>
      <trkpt lat="37.0997391734" lon="-8.7365030218">
        <ele>62.14</ele>
        <time>2021-05-28T15:52:36Z</time>
      </trkpt>
      <trkpt lat="37.0997417718" lon="-8.7365975697">
        <ele>62.14</ele>
        <time>2021-05-28T15:52:37Z</time>
      </trkpt>
      <trkpt lat="37.0997402631" lon="-8.7366902735">
        <ele>63.10</ele>
        <time>2021-05-28T15:52:38Z</time>
      </trkpt>
      <trkpt lat="37.0997164585" lon="-8.7367776129">
        <ele>62.62</ele>
        <time>2021-05-28T15:52:39Z</time>
      </trkpt>
      <trkpt lat="37.0996647421" lon="-8.7368474342">
        <ele>63.58</ele>
        <time>2021-05-28T15:52:40Z</time>
      </trkpt>
      <trkpt lat="37.0995902270" lon="-8.7369004078">
        <ele>63.58</ele>
        <time>2021-05-28T15:52:41Z</time>
      </trkpt>
      <trkpt lat="37.0995015465" lon="-8.7369486038">
        <ele>64.55</ele>
        <time>2021-05-28T15:52:42Z</time>
      </trkpt>
      <trkpt lat="37.0994050708" lon="-8.7370194308">
        <ele>63.58</ele>
        <time>2021-05-28T15:52:43Z</time>
      </trkpt>
      <trkpt lat="37.0993116125" lon="-8.7371107098">
        <ele>65.03</ele>
        <time>2021-05-28T15:52:44Z</time>
      </trkpt>
      <trkpt lat="37.0992241055" lon="-8.7372190878">
        <ele>64.55</ele>
        <time>2021-05-28T15:52:45Z</time>
      </trkpt>
      <trkpt lat="37.0991364308" lon="-8.7373435590">
        <ele>65.03</ele>
        <time>2021-05-28T15:52:46Z</time>
      </trkpt>
      <trkpt lat="37.0988456625" lon="-8.7377850339">
        <ele>67.91</ele>
        <time>2021-05-28T15:52:49Z</time>
      </trkpt>
      <trkpt lat="37.0986253861" lon="-8.7381271832">
        <ele>70.31</ele>
        <time>2021-05-28T15:52:51Z</time>
      </trkpt>
      <trkpt lat="37.0979705919" lon="-8.7393527851">
        <ele>71.76</ele>
        <time>2021-05-28T15:52:57Z</time>
      </trkpt>
      <trkpt lat="37.0975576993" lon="-8.7410131563">
        <ele>72.24</ele>
        <time>2021-05-28T15:53:04Z</time>
      </trkpt>
      <trkpt lat="37.0975275245" lon="-8.7419849541">
        <ele>75.12</ele>
        <time>2021-05-28T15:53:08Z</time>
      </trkpt>
      <trkpt lat="37.0975449588" lon="-8.7422359921">
        <ele>75.60</ele>
        <time>2021-05-28T15:53:09Z</time>
      </trkpt>
      <trkpt lat="37.0976661611" lon="-8.7429622840">
        <ele>74.16</ele>
        <time>2021-05-28T15:53:12Z</time>
      </trkpt>
      <trkpt lat="37.0978598669" lon="-8.7436462473">
        <ele>69.83</ele>
        <time>2021-05-28T15:53:15Z</time>
      </trkpt>
      <trkpt lat="37.0982414111" lon="-8.7444975134">
        <ele>66.95</ele>
        <time>2021-05-28T15:53:19Z</time>
      </trkpt>
      <trkpt lat="37.0985859074" lon="-8.7450989988">
        <ele>64.07</ele>
        <time>2021-05-28T15:53:22Z</time>
      </trkpt>
      <trkpt lat="37.0989034139" lon="-8.7456334289">
        <ele>60.22</ele>
        <time>2021-05-28T15:53:25Z</time>
      </trkpt>
      <trkpt lat="37.0991126262" lon="-8.7459974550">
        <ele>55.89</ele>
        <time>2021-05-28T15:53:27Z</time>
      </trkpt>
      <trkpt lat="37.0993754826" lon="-8.7465368304">
        <ele>50.13</ele>
        <time>2021-05-28T15:53:30Z</time>
      </trkpt>
      <trkpt lat="37.0995088387" lon="-8.7468748726">
        <ele>45.32</ele>
        <time>2021-05-28T15:53:32Z</time>
      </trkpt>
      <trkpt lat="37.0996108465" lon="-8.7471975759">
        <ele>42.44</ele>
        <time>2021-05-28T15:53:34Z</time>
      </trkpt>
      <trkpt lat="37.0997468848" lon="-8.7477072794">
        <ele>38.11</ele>
        <time>2021-05-28T15:53:38Z</time>
      </trkpt>
      <trkpt lat="37.0997893810" lon="-8.7478019949">
        <ele>38.11</ele>
        <time>2021-05-28T15:53:39Z</time>
      </trkpt>
      <trkpt lat="37.0998390857" lon="-8.7478883285">
        <ele>38.59</ele>
        <time>2021-05-28T15:53:40Z</time>
      </trkpt>
      <trkpt lat="37.0998846833" lon="-8.7479720637">
        <ele>37.15</ele>
        <time>2021-05-28T15:53:41Z</time>
      </trkpt>
      <trkpt lat="37.0999104995" lon="-8.7480651867">
        <ele>37.15</ele>
        <time>2021-05-28T15:53:42Z</time>
      </trkpt>
      <trkpt lat="37.0999119245" lon="-8.7481738999">
        <ele>37.15</ele>
        <time>2021-05-28T15:53:43Z</time>
      </trkpt>
      <trkpt lat="37.0998929814" lon="-8.7482958566">
        <ele>36.19</ele>
        <time>2021-05-28T15:53:44Z</time>
      </trkpt>
      <trkpt lat="37.0998670813" lon="-8.7484357506">
        <ele>37.15</ele>
        <time>2021-05-28T15:53:45Z</time>
      </trkpt>
      <trkpt lat="37.0998510718" lon="-8.7485959288">
        <ele>37.63</ele>
        <time>2021-05-28T15:53:46Z</time>
      </trkpt>
      <trkpt lat="37.0998475514" lon="-8.7487675902">
        <ele>37.15</ele>
        <time>2021-05-28T15:53:47Z</time>
      </trkpt>
      <trkpt lat="37.0998459589" lon="-8.7489421014">
        <ele>36.67</ele>
        <time>2021-05-28T15:53:48Z</time>
      </trkpt>
      <trkpt lat="37.0998236630" lon="-8.7495325226">
        <ele>40.03</ele>
        <time>2021-05-28T15:53:51Z</time>
      </trkpt>
      <trkpt lat="37.0998084918" lon="-8.7497504521">
        <ele>39.55</ele>
        <time>2021-05-28T15:53:52Z</time>
      </trkpt>
      <trkpt lat="37.0996745490" lon="-8.7511498109">
        <ele>40.99</ele>
        <time>2021-05-28T15:53:58Z</time>
      </trkpt>
      <trkpt lat="37.0995106827" lon="-8.7528395187">
        <ele>37.63</ele>
        <time>2021-05-28T15:54:05Z</time>
      </trkpt>
      <trkpt lat="37.0994871296" lon="-8.7530902214">
        <ele>38.11</ele>
        <time>2021-05-28T15:54:06Z</time>
      </trkpt>
      <trkpt lat="37.0992703736" lon="-8.7552767247">
        <ele>35.23</ele>
        <time>2021-05-28T15:54:15Z</time>
      </trkpt>
      <trkpt lat="37.0989802759" lon="-8.7565356866">
        <ele>31.86</ele>
        <time>2021-05-28T15:54:20Z</time>
      </trkpt>
      <trkpt lat="37.0986830536" lon="-8.7572593801">
        <ele>29.94</ele>
        <time>2021-05-28T15:54:23Z</time>
      </trkpt>
      <trkpt lat="37.0984460134" lon="-8.7577185407">
        <ele>28.50</ele>
        <time>2021-05-28T15:54:25Z</time>
      </trkpt>
      <trkpt lat="37.0965528768" lon="-8.7611381058">
        <ele>27.53</ele>
        <time>2021-05-28T15:54:40Z</time>
      </trkpt>
      <trkpt lat="37.0962850749" lon="-8.7619294412">
        <ele>24.65</ele>
        <time>2021-05-28T15:54:43Z</time>
      </trkpt>
      <trkpt lat="37.0961320214" lon="-8.7624280807">
        <ele>20.32</ele>
        <time>2021-05-28T15:54:45Z</time>
      </trkpt>
      <trkpt lat="37.0960629545" lon="-8.7626614328">
        <ele>20.32</ele>
        <time>2021-05-28T15:54:46Z</time>
      </trkpt>
      <trkpt lat="37.0959287602" lon="-8.7631164864">
        <ele>18.40</ele>
        <time>2021-05-28T15:54:48Z</time>
      </trkpt>
      <trkpt lat="37.0958620403" lon="-8.7633424625">
        <ele>22.73</ele>
        <time>2021-05-28T15:54:49Z</time>
      </trkpt>
      <trkpt lat="37.0957963262" lon="-8.7635645829">
        <ele>22.73</ele>
        <time>2021-05-28T15:54:50Z</time>
      </trkpt>
      <trkpt lat="37.0955570228" lon="-8.7644039467">
        <ele>18.40</ele>
        <time>2021-05-28T15:54:54Z</time>
      </trkpt>
      <trkpt lat="37.0953960903" lon="-8.7649688870">
        <ele>14.08</ele>
        <time>2021-05-28T15:54:57Z</time>
      </trkpt>
      <trkpt lat="37.0953448769" lon="-8.7651476730">
        <ele>14.56</ele>
        <time>2021-05-28T15:54:58Z</time>
      </trkpt>
      <trkpt lat="37.0952380914" lon="-8.7655061670">
        <ele>16.00</ele>
        <time>2021-05-28T15:55:00Z</time>
      </trkpt>
      <trkpt lat="37.0949780848" lon="-8.7663959060">
        <ele>14.08</ele>
        <time>2021-05-28T15:55:05Z</time>
      </trkpt>
      <trkpt lat="37.0946168248" lon="-8.7675889023">
        <ele>12.15</ele>
        <time>2021-05-28T15:55:14Z</time>
      </trkpt>
      <trkpt lat="37.0945781842" lon="-8.7678093463">
        <ele>11.67</ele>
        <time>2021-05-28T15:55:16Z</time>
      </trkpt>
      <trkpt lat="37.0945532061" lon="-8.7680184748">
        <ele>10.23</ele>
        <time>2021-05-28T15:55:18Z</time>
      </trkpt>
      <trkpt lat="37.0945243724" lon="-8.7681141123">
        <ele>10.71</ele>
        <time>2021-05-28T15:55:19Z</time>
      </trkpt>
      <trkpt lat="37.0944762602" lon="-8.7682138570">
        <ele>10.71</ele>
        <time>2021-05-28T15:55:20Z</time>
      </trkpt>
      <trkpt lat="37.0944159944" lon="-8.7683320418">
        <ele>11.67</ele>
        <time>2021-05-28T15:55:21Z</time>
      </trkpt>
      <trkpt lat="37.0943574887" lon="-8.7684702594">
        <ele>13.60</ele>
        <time>2021-05-28T15:55:22Z</time>
      </trkpt>
      <trkpt lat="37.0943069458" lon="-8.7686228938">
        <ele>13.60</ele>
        <time>2021-05-28T15:55:23Z</time>
      </trkpt>
      <trkpt lat="37.0942638628" lon="-8.7687782105">
        <ele>12.15</ele>
        <time>2021-05-28T15:55:24Z</time>
      </trkpt>
      <trkpt lat="37.0942221209" lon="-8.7689393107">
        <ele>12.15</ele>
        <time>2021-05-28T15:55:25Z</time>
      </trkpt>
      <trkpt lat="37.0941355359" lon="-8.7692795321">
        <ele>15.52</ele>
        <time>2021-05-28T15:55:27Z</time>
      </trkpt>
      <trkpt lat="37.0940916985" lon="-8.7694506068">
        <ele>15.52</ele>
        <time>2021-05-28T15:55:28Z</time>
      </trkpt>
      <trkpt lat="37.0934132673" lon="-8.7718432210">
        <ele>14.56</ele>
        <time>2021-05-28T15:55:41Z</time>
      </trkpt>
      <trkpt lat="37.0933565218" lon="-8.7720386032">
        <ele>15.04</ele>
        <time>2021-05-28T15:55:42Z</time>
      </trkpt>
      <trkpt lat="37.0932474732" lon="-8.7724314630">
        <ele>16.96</ele>
        <time>2021-05-28T15:55:44Z</time>
      </trkpt>
      <trkpt lat="37.0927073434" lon="-8.7746046390">
        <ele>18.88</ele>
        <time>2021-05-28T15:55:54Z</time>
      </trkpt>
      <trkpt lat="37.0925384481" lon="-8.7753044441">
        <ele>15.52</ele>
        <time>2021-05-28T15:55:57Z</time>
      </trkpt>
      <trkpt lat="37.0923613384" lon="-8.7760250363">
        <ele>17.44</ele>
        <time>2021-05-28T15:56:00Z</time>
      </trkpt>
      <trkpt lat="37.0919211209" lon="-8.7777854875">
        <ele>14.08</ele>
        <time>2021-05-28T15:56:08Z</time>
      </trkpt>
      <trkpt lat="37.0918817259" lon="-8.7779439054">
        <ele>14.56</ele>
        <time>2021-05-28T15:56:09Z</time>
      </trkpt>
      <trkpt lat="37.0915512275" lon="-8.7793408334">
        <ele>17.92</ele>
        <time>2021-05-28T15:56:18Z</time>
      </trkpt>
      <trkpt lat="37.0912200585" lon="-8.7806510087">
        <ele>15.04</ele>
        <time>2021-05-28T15:56:25Z</time>
      </trkpt>
      <trkpt lat="37.0911209006" lon="-8.7810840178">
        <ele>13.60</ele>
        <time>2021-05-28T15:56:28Z</time>
      </trkpt>
      <trkpt lat="37.0909778215" lon="-8.7820263114">
        <ele>12.63</ele>
        <time>2021-05-28T15:56:37Z</time>
      </trkpt>
      <trkpt lat="37.0909511670" lon="-8.7823997252">
        <ele>12.15</ele>
        <time>2021-05-28T15:56:47Z</time>
      </trkpt>
      <trkpt lat="37.0909473952" lon="-8.7824172433">
        <ele>13.12</ele>
        <time>2021-05-28T15:57:19Z</time>
      </trkpt>
      <trkpt lat="37.0909370854" lon="-8.7824822031">
        <ele>13.60</ele>
        <time>2021-05-28T15:57:29Z</time>
      </trkpt>
      <trkpt lat="37.0909281168" lon="-8.7826402858">
        <ele>14.56</ele>
        <time>2021-05-28T15:57:31Z</time>
      </trkpt>
      <trkpt lat="37.0909182262" lon="-8.7831554376">
        <ele>17.92</ele>
        <time>2021-05-28T15:57:36Z</time>
      </trkpt>
      <trkpt lat="37.0909431204" lon="-8.7839190289">
        <ele>21.29</ele>
        <time>2021-05-28T15:57:41Z</time>
      </trkpt>
      <trkpt lat="37.0909681823" lon="-8.7842591666">
        <ele>24.17</ele>
        <time>2021-05-28T15:57:43Z</time>
      </trkpt>
      <trkpt lat="37.0910104271" lon="-8.7846247014">
        <ele>29.46</ele>
        <time>2021-05-28T15:57:45Z</time>
      </trkpt>
      <trkpt lat="37.0910752192" lon="-8.7850268651">
        <ele>31.86</ele>
        <time>2021-05-28T15:57:47Z</time>
      </trkpt>
      <trkpt lat="37.0912457071" lon="-8.7858552486">
        <ele>28.02</ele>
        <time>2021-05-28T15:57:51Z</time>
      </trkpt>
      <trkpt lat="37.0912944898" lon="-8.7860671431">
        <ele>28.02</ele>
        <time>2021-05-28T15:57:52Z</time>
      </trkpt>
      <trkpt lat="37.0915000141" lon="-8.7869549543">
        <ele>31.86</ele>
        <time>2021-05-28T15:57:56Z</time>
      </trkpt>
      <trkpt lat="37.0917777903" lon="-8.7883901875">
        <ele>36.67</ele>
        <time>2021-05-28T15:58:02Z</time>
      </trkpt>
      <trkpt lat="37.0918103121" lon="-8.7886422314">
        <ele>35.71</ele>
        <time>2021-05-28T15:58:03Z</time>
      </trkpt>
      <trkpt lat="37.0918390620" lon="-8.7888972927">
        <ele>39.55</ele>
        <time>2021-05-28T15:58:04Z</time>
      </trkpt>
      <trkpt lat="37.0918632858" lon="-8.7891549524">
        <ele>39.55</ele>
        <time>2021-05-28T15:58:05Z</time>
      </trkpt>
      <trkpt lat="37.0919354539" lon="-8.7901427597">
        <ele>42.92</ele>
        <time>2021-05-28T15:58:09Z</time>
      </trkpt>
      <trkpt lat="37.0919644553" lon="-8.7906201091">
        <ele>46.76</ele>
        <time>2021-05-28T15:58:11Z</time>
      </trkpt>
      <trkpt lat="37.0919776987" lon="-8.7908628490">
        <ele>46.76</ele>
        <time>2021-05-28T15:58:12Z</time>
      </trkpt>
      <trkpt lat="37.0920502860" lon="-8.7920680828">
        <ele>49.16</ele>
        <time>2021-05-28T15:58:17Z</time>
      </trkpt>
      <trkpt lat="37.0921953768" lon="-8.7946254853">
        <ele>47.72</ele>
        <time>2021-05-28T15:58:29Z</time>
      </trkpt>
      <trkpt lat="37.0922263898" lon="-8.7951566465">
        <ele>49.65</ele>
        <time>2021-05-28T15:58:32Z</time>
      </trkpt>
      <trkpt lat="37.0922629349" lon="-8.7956049107">
        <ele>49.65</ele>
        <time>2021-05-28T15:58:35Z</time>
      </trkpt>
      <trkpt lat="37.0922925230" lon="-8.7957359198">
        <ele>46.76</ele>
        <time>2021-05-28T15:58:36Z</time>
      </trkpt>
      <trkpt lat="37.0923349354" lon="-8.7958518416">
        <ele>45.32</ele>
        <time>2021-05-28T15:58:37Z</time>
      </trkpt>
      <trkpt lat="37.0923857298" lon="-8.7959518377">
        <ele>45.32</ele>
        <time>2021-05-28T15:58:38Z</time>
      </trkpt>
      <trkpt lat="37.0924319141" lon="-8.7960445415">
        <ele>46.76</ele>
        <time>2021-05-28T15:58:39Z</time>
      </trkpt>
      <trkpt lat="37.0924577303" lon="-8.7961467169">
        <ele>45.32</ele>
        <time>2021-05-28T15:58:40Z</time>
      </trkpt>
      <trkpt lat="37.0924517792" lon="-8.7962592859">
        <ele>45.32</ele>
        <time>2021-05-28T15:58:41Z</time>
      </trkpt>
      <trkpt lat="37.0924203470" lon="-8.7963792309">
        <ele>44.84</ele>
        <time>2021-05-28T15:58:42Z</time>
      </trkpt>
      <trkpt lat="37.0923817065" lon="-8.7965179514">
        <ele>44.84</ele>
        <time>2021-05-28T15:58:43Z</time>
      </trkpt>
      <trkpt lat="37.0923564769" lon="-8.7966736034">
        <ele>46.28</ele>
        <time>2021-05-28T15:58:44Z</time>
      </trkpt>
      <trkpt lat="37.0923488494" lon="-8.7968347874">
        <ele>46.28</ele>
        <time>2021-05-28T15:58:45Z</time>
      </trkpt>
      <trkpt lat="37.0923532080" lon="-8.7969999947">
        <ele>46.76</ele>
        <time>2021-05-28T15:58:46Z</time>
      </trkpt>
      <trkpt lat="37.0923713129" lon="-8.7973653618">
        <ele>48.20</ele>
        <time>2021-05-28T15:58:48Z</time>
      </trkpt>
      <trkpt lat="37.0923963748" lon="-8.7977782544">
        <ele>51.09</ele>
        <time>2021-05-28T15:58:50Z</time>
      </trkpt>
      <trkpt lat="37.0924114622" lon="-8.7979976926">
        <ele>51.57</ele>
        <time>2021-05-28T15:58:51Z</time>
      </trkpt>
      <trkpt lat="37.0925099496" lon="-8.7995584868">
        <ele>55.41</ele>
        <time>2021-05-28T15:58:58Z</time>
      </trkpt>
      <trkpt lat="37.0925233606" lon="-8.7997842953">
        <ele>55.41</ele>
        <time>2021-05-28T15:58:59Z</time>
      </trkpt>
      <trkpt lat="37.0925640967" lon="-8.8004690129">
        <ele>57.34</ele>
        <time>2021-05-28T15:59:02Z</time>
      </trkpt>
      <trkpt lat="37.0926687028" lon="-8.8016919326">
        <ele>61.18</ele>
        <time>2021-05-28T15:59:07Z</time>
      </trkpt>
      <trkpt lat="37.0927003026" lon="-8.8019385282">
        <ele>61.18</ele>
        <time>2021-05-28T15:59:08Z</time>
      </trkpt>
      <trkpt lat="37.0927816071" lon="-8.8024229184">
        <ele>59.74</ele>
        <time>2021-05-28T15:59:10Z</time>
      </trkpt>
      <trkpt lat="37.0928984508" lon="-8.8029011060">
        <ele>61.18</ele>
        <time>2021-05-28T15:59:12Z</time>
      </trkpt>
      <trkpt lat="37.0932413545" lon="-8.8039886579">
        <ele>56.86</ele>
        <time>2021-05-28T15:59:17Z</time>
      </trkpt>
      <trkpt lat="37.0933027100" lon="-8.8041824475">
        <ele>53.49</ele>
        <time>2021-05-28T15:59:18Z</time>
      </trkpt>
      <trkpt lat="37.0933642332" lon="-8.8043811824">
        <ele>54.93</ele>
        <time>2021-05-28T15:59:19Z</time>
      </trkpt>
      <trkpt lat="37.0934799872" lon="-8.8047993556">
        <ele>52.05</ele>
        <time>2021-05-28T15:59:21Z</time>
      </trkpt>
      <trkpt lat="37.0936682448" lon="-8.8057170063">
        <ele>49.16</ele>
        <time>2021-05-28T15:59:25Z</time>
      </trkpt>
      <trkpt lat="37.0937183686" lon="-8.8062059227">
        <ele>45.32</ele>
        <time>2021-05-28T15:59:27Z</time>
      </trkpt>
      <trkpt lat="37.0937324502" lon="-8.8066784106">
        <ele>40.99</ele>
        <time>2021-05-28T15:59:29Z</time>
      </trkpt>
      <trkpt lat="37.0937106572" lon="-8.8071373198">
        <ele>38.11</ele>
        <time>2021-05-28T15:59:31Z</time>
      </trkpt>
      <trkpt lat="37.0936633833" lon="-8.8075815607">
        <ele>34.74</ele>
        <time>2021-05-28T15:59:33Z</time>
      </trkpt>
      <trkpt lat="37.0933519956" lon="-8.8091830909">
        <ele>31.86</ele>
        <time>2021-05-28T15:59:40Z</time>
      </trkpt>
      <trkpt lat="37.0931691863" lon="-8.8100533001">
        <ele>28.98</ele>
        <time>2021-05-28T15:59:44Z</time>
      </trkpt>
      <trkpt lat="37.0928485785" lon="-8.8115728553">
        <ele>27.05</ele>
        <time>2021-05-28T15:59:53Z</time>
      </trkpt>
      <trkpt lat="37.0928210020" lon="-8.8118186966">
        <ele>25.13</ele>
        <time>2021-05-28T15:59:55Z</time>
      </trkpt>
      <trkpt lat="37.0928272884" lon="-8.8119407371">
        <ele>24.17</ele>
        <time>2021-05-28T15:59:56Z</time>
      </trkpt>
      <trkpt lat="37.0928527694" lon="-8.8120578323">
        <ele>25.61</ele>
        <time>2021-05-28T15:59:57Z</time>
      </trkpt>
      <trkpt lat="37.0928932540" lon="-8.8121668808">
        <ele>27.53</ele>
        <time>2021-05-28T15:59:58Z</time>
      </trkpt>
      <trkpt lat="37.0929288771" lon="-8.8122734986">
        <ele>28.02</ele>
        <time>2021-05-28T15:59:59Z</time>
      </trkpt>
      <trkpt lat="37.0929394383" lon="-8.8123825472">
        <ele>26.57</ele>
        <time>2021-05-28T16:00:00Z</time>
      </trkpt>
      <trkpt lat="37.0929171424" lon="-8.8124907576">
        <ele>25.13</ele>
        <time>2021-05-28T16:00:01Z</time>
      </trkpt>
      <trkpt lat="37.0928622410" lon="-8.8125855569">
        <ele>25.13</ele>
        <time>2021-05-28T16:00:02Z</time>
      </trkpt>
      <trkpt lat="37.0927847922" lon="-8.8126644306">
        <ele>24.17</ele>
        <time>2021-05-28T16:00:03Z</time>
      </trkpt>
      <trkpt lat="37.0927013922" lon="-8.8127463218">
        <ele>23.21</ele>
        <time>2021-05-28T16:00:04Z</time>
      </trkpt>
      <trkpt lat="37.0926284697" lon="-8.8128540292">
        <ele>25.61</ele>
        <time>2021-05-28T16:00:05Z</time>
      </trkpt>
      <trkpt lat="37.0925698802" lon="-8.8129930012">
        <ele>25.61</ele>
        <time>2021-05-28T16:00:06Z</time>
      </trkpt>
      <trkpt lat="37.0925232768" lon="-8.8131496590">
        <ele>30.42</ele>
        <time>2021-05-28T16:00:07Z</time>
      </trkpt>
      <trkpt lat="37.0924819540" lon="-8.8133197278">
        <ele>28.02</ele>
        <time>2021-05-28T16:00:08Z</time>
      </trkpt>
      <trkpt lat="37.0922793634" lon="-8.8142743427">
        <ele>29.94</ele>
        <time>2021-05-28T16:00:13Z</time>
      </trkpt>
      <trkpt lat="37.0921969693" lon="-8.8146744948">
        <ele>31.38</ele>
        <time>2021-05-28T16:00:15Z</time>
      </trkpt>
      <trkpt lat="37.0918781217" lon="-8.8161922060">
        <ele>34.26</ele>
        <time>2021-05-28T16:00:22Z</time>
      </trkpt>
      <trkpt lat="37.0917822327" lon="-8.8166420627">
        <ele>31.38</ele>
        <time>2021-05-28T16:00:24Z</time>
      </trkpt>
      <trkpt lat="37.0917344559" lon="-8.8168744929">
        <ele>31.86</ele>
        <time>2021-05-28T16:00:25Z</time>
      </trkpt>
      <trkpt lat="37.0914642233" lon="-8.8181591872">
        <ele>39.07</ele>
        <time>2021-05-28T16:00:30Z</time>
      </trkpt>
      <trkpt lat="37.0914057177" lon="-8.8184263185">
        <ele>37.63</ele>
        <time>2021-05-28T16:00:31Z</time>
      </trkpt>
      <trkpt lat="37.0912955794" lon="-8.8189491816">
        <ele>35.71</ele>
        <time>2021-05-28T16:00:33Z</time>
      </trkpt>
      <trkpt lat="37.0911851060" lon="-8.8194973581">
        <ele>41.95</ele>
        <time>2021-05-28T16:00:35Z</time>
      </trkpt>
      <trkpt lat="37.0911266003" lon="-8.8197821751">
        <ele>41.47</ele>
        <time>2021-05-28T16:00:36Z</time>
      </trkpt>
      <trkpt lat="37.0904173236" lon="-8.8225336187">
        <ele>42.92</ele>
        <time>2021-05-28T16:00:46Z</time>
      </trkpt>
      <trkpt lat="37.0900796168" lon="-8.8232020754">
        <ele>39.07</ele>
        <time>2021-05-28T16:00:49Z</time>
      </trkpt>
      <trkpt lat="37.0898309257" lon="-8.8236015569">
        <ele>38.11</ele>
        <time>2021-05-28T16:00:51Z</time>
      </trkpt>
      <trkpt lat="37.0891093276" lon="-8.8244921342">
        <ele>35.71</ele>
        <time>2021-05-28T16:00:56Z</time>
      </trkpt>
      <trkpt lat="37.0888235047" lon="-8.8247977383">
        <ele>34.26</ele>
        <time>2021-05-28T16:00:58Z</time>
      </trkpt>
      <trkpt lat="37.0881261304" lon="-8.8255418837">
        <ele>30.90</ele>
        <time>2021-05-28T16:01:03Z</time>
      </trkpt>
      <trkpt lat="37.0876332745" lon="-8.8260677643">
        <ele>29.94</ele>
        <time>2021-05-28T16:01:07Z</time>
      </trkpt>
      <trkpt lat="37.0873993356" lon="-8.8263125997">
        <ele>26.57</ele>
        <time>2021-05-28T16:01:09Z</time>
      </trkpt>
      <trkpt lat="37.0872880239" lon="-8.8264317904">
        <ele>27.53</ele>
        <time>2021-05-28T16:01:10Z</time>
      </trkpt>
      <trkpt lat="37.0870021172" lon="-8.8267435133">
        <ele>24.17</ele>
        <time>2021-05-28T16:01:13Z</time>
      </trkpt>
      <trkpt lat="37.0869223215" lon="-8.8268326968">
        <ele>24.65</ele>
        <time>2021-05-28T16:01:14Z</time>
      </trkpt>
      <trkpt lat="37.0867212396" lon="-8.8270678092">
        <ele>23.69</ele>
        <time>2021-05-28T16:01:17Z</time>
      </trkpt>
      <trkpt lat="37.0866740495" lon="-8.8271535560">
        <ele>23.21</ele>
        <time>2021-05-28T16:01:18Z</time>
      </trkpt>
      <trkpt lat="37.0866427012" lon="-8.8272433262">
        <ele>23.21</ele>
        <time>2021-05-28T16:01:19Z</time>
      </trkpt>
      <trkpt lat="37.0866291225" lon="-8.8273352757">
        <ele>25.13</ele>
        <time>2021-05-28T16:01:20Z</time>
      </trkpt>
      <trkpt lat="37.0866161305" lon="-8.8274262194">
        <ele>24.65</ele>
        <time>2021-05-28T16:01:21Z</time>
      </trkpt>
      <trkpt lat="37.0865865424" lon="-8.8275058474">
        <ele>24.65</ele>
        <time>2021-05-28T16:01:22Z</time>
      </trkpt>
      <trkpt lat="37.0865337364" lon="-8.8275713939">
        <ele>24.17</ele>
        <time>2021-05-28T16:01:23Z</time>
      </trkpt>
      <trkpt lat="37.0864602271" lon="-8.8276141416">
        <ele>24.17</ele>
        <time>2021-05-28T16:01:24Z</time>
      </trkpt>
      <trkpt lat="37.0863712113" lon="-8.8276346773">
        <ele>23.21</ele>
        <time>2021-05-28T16:01:25Z</time>
      </trkpt>
      <trkpt lat="37.0862744842" lon="-8.8276523631">
        <ele>23.21</ele>
        <time>2021-05-28T16:01:26Z</time>
      </trkpt>
      <trkpt lat="37.0861731470" lon="-8.8276892435">
        <ele>24.65</ele>
        <time>2021-05-28T16:01:27Z</time>
      </trkpt>
      <trkpt lat="37.0860713907" lon="-8.8277544547">
        <ele>26.57</ele>
        <time>2021-05-28T16:01:28Z</time>
      </trkpt>
      <trkpt lat="37.0859705564" lon="-8.8278440572">
        <ele>28.98</ele>
        <time>2021-05-28T16:01:29Z</time>
      </trkpt>
      <trkpt lat="37.0858667884" lon="-8.8279529382">
        <ele>28.50</ele>
        <time>2021-05-28T16:01:30Z</time>
      </trkpt>
      <trkpt lat="37.0853232220" lon="-8.8285337202">
        <ele>31.86</ele>
        <time>2021-05-28T16:01:35Z</time>
      </trkpt>
      <trkpt lat="37.0852064621" lon="-8.8286549225">
        <ele>31.38</ele>
        <time>2021-05-28T16:01:36Z</time>
      </trkpt>
      <trkpt lat="37.0848465431" lon="-8.8290108182">
        <ele>32.82</ele>
        <time>2021-05-28T16:01:39Z</time>
      </trkpt>
      <trkpt lat="37.0837625116" lon="-8.8300015591">
        <ele>29.94</ele>
        <time>2021-05-28T16:01:47Z</time>
      </trkpt>
      <trkpt lat="37.0836225338" lon="-8.8301197439">
        <ele>29.46</ele>
        <time>2021-05-28T16:01:48Z</time>
      </trkpt>
      <trkpt lat="37.0823475625" lon="-8.8313846570">
        <ele>31.38</ele>
        <time>2021-05-28T16:01:57Z</time>
      </trkpt>
      <trkpt lat="37.0820666011" lon="-8.8317006547">
        <ele>33.30</ele>
        <time>2021-05-28T16:01:59Z</time>
      </trkpt>
      <trkpt lat="37.0817795210" lon="-8.8320217654">
        <ele>36.67</ele>
        <time>2021-05-28T16:02:01Z</time>
      </trkpt>
      <trkpt lat="37.0814776886" lon="-8.8323608972">
        <ele>39.07</ele>
        <time>2021-05-28T16:02:03Z</time>
      </trkpt>
      <trkpt lat="37.0811658818" lon="-8.8327145297">
        <ele>46.28</ele>
        <time>2021-05-28T16:02:05Z</time>
      </trkpt>
      <trkpt lat="37.0810122415" lon="-8.8328868616">
        <ele>45.32</ele>
        <time>2021-05-28T16:02:06Z</time>
      </trkpt>
      <trkpt lat="37.0801500790" lon="-8.8338481821">
        <ele>49.65</ele>
        <time>2021-05-28T16:02:12Z</time>
      </trkpt>
      <trkpt lat="37.0796012320" lon="-8.8345085923">
        <ele>46.28</ele>
        <time>2021-05-28T16:02:17Z</time>
      </trkpt>
      <trkpt lat="37.0791194402" lon="-8.8352772966">
        <ele>49.16</ele>
        <time>2021-05-28T16:02:24Z</time>
      </trkpt>
      <trkpt lat="37.0790797099" lon="-8.8353839144">
        <ele>48.68</ele>
        <time>2021-05-28T16:02:25Z</time>
      </trkpt>
      <trkpt lat="37.0790553186" lon="-8.8354919571">
        <ele>49.65</ele>
        <time>2021-05-28T16:02:26Z</time>
      </trkpt>
      <trkpt lat="37.0790192764" lon="-8.8357013371">
        <ele>48.68</ele>
        <time>2021-05-28T16:02:28Z</time>
      </trkpt>
      <trkpt lat="37.0789732598" lon="-8.8358021714">
        <ele>48.68</ele>
        <time>2021-05-28T16:02:29Z</time>
      </trkpt>
      <trkpt lat="37.0789072942" lon="-8.8359056041">
        <ele>49.16</ele>
        <time>2021-05-28T16:02:30Z</time>
      </trkpt>
      <trkpt lat="37.0788342040" lon="-8.8360263035">
        <ele>50.13</ele>
        <time>2021-05-28T16:02:31Z</time>
      </trkpt>
      <trkpt lat="37.0787682384" lon="-8.8361742441">
        <ele>50.61</ele>
        <time>2021-05-28T16:02:32Z</time>
      </trkpt>
      <trkpt lat="37.0787128340" lon="-8.8363439776">
        <ele>53.01</ele>
        <time>2021-05-28T16:02:33Z</time>
      </trkpt>
      <trkpt lat="37.0786642190" lon="-8.8365270384">
        <ele>53.49</ele>
        <time>2021-05-28T16:02:34Z</time>
      </trkpt>
      <trkpt lat="37.0785746165" lon="-8.8369512465">
        <ele>56.37</ele>
        <time>2021-05-28T16:02:36Z</time>
      </trkpt>
      <trkpt lat="37.0785139315" lon="-8.8374247402">
        <ele>59.74</ele>
        <time>2021-05-28T16:02:38Z</time>
      </trkpt>
      <trkpt lat="37.0784835890" lon="-8.8379225414">
        <ele>63.10</ele>
        <time>2021-05-28T16:02:40Z</time>
      </trkpt>
      <trkpt lat="37.0784814935" lon="-8.8381698076">
        <ele>61.18</ele>
        <time>2021-05-28T16:02:41Z</time>
      </trkpt>
      <trkpt lat="37.0785299409" lon="-8.8396218885">
        <ele>65.03</ele>
        <time>2021-05-28T16:02:47Z</time>
      </trkpt>
      <trkpt lat="37.0785011072" lon="-8.8411818445">
        <ele>66.47</ele>
        <time>2021-05-28T16:02:53Z</time>
      </trkpt>
      <trkpt lat="37.0783259254" lon="-8.8419340365">
        <ele>64.55</ele>
        <time>2021-05-28T16:02:56Z</time>
      </trkpt>
      <trkpt lat="37.0779216662" lon="-8.8428237755">
        <ele>59.74</ele>
        <time>2021-05-28T16:03:00Z</time>
      </trkpt>
      <trkpt lat="37.0775411278" lon="-8.8433513325">
        <ele>56.37</ele>
        <time>2021-05-28T16:03:03Z</time>
      </trkpt>
      <trkpt lat="37.0770852361" lon="-8.8437920529">
        <ele>51.57</ele>
        <time>2021-05-28T16:03:06Z</time>
      </trkpt>
      <trkpt lat="37.0766216330" lon="-8.8441293407">
        <ele>48.68</ele>
        <time>2021-05-28T16:03:09Z</time>
      </trkpt>
      <trkpt lat="37.0759991091" lon="-8.8445600029">
        <ele>44.36</ele>
        <time>2021-05-28T16:03:13Z</time>
      </trkpt>
      <trkpt lat="37.0758447144" lon="-8.8446724042">
        <ele>44.36</ele>
        <time>2021-05-28T16:03:14Z</time>
      </trkpt>
      <trkpt lat="37.0749028400" lon="-8.8456635643">
        <ele>40.51</ele>
        <time>2021-05-28T16:03:21Z</time>
      </trkpt>
      <trkpt lat="37.0746936277" lon="-8.8460218068">
        <ele>39.55</ele>
        <time>2021-05-28T16:03:23Z</time>
      </trkpt>
      <trkpt lat="37.0744195394" lon="-8.8467062730">
        <ele>36.19</ele>
        <time>2021-05-28T16:03:27Z</time>
      </trkpt>
      <trkpt lat="37.0743741933" lon="-8.8468655292">
        <ele>36.19</ele>
        <time>2021-05-28T16:03:28Z</time>
      </trkpt>
      <trkpt lat="37.0743087307" lon="-8.8471603207">
        <ele>35.71</ele>
        <time>2021-05-28T16:03:30Z</time>
      </trkpt>
      <trkpt lat="37.0742985886" lon="-8.8472852949">
        <ele>34.74</ele>
        <time>2021-05-28T16:03:31Z</time>
      </trkpt>
      <trkpt lat="37.0743045397" lon="-8.8473971933">
        <ele>33.78</ele>
        <time>2021-05-28T16:03:32Z</time>
      </trkpt>
      <trkpt lat="37.0743244886" lon="-8.8475019671">
        <ele>34.74</ele>
        <time>2021-05-28T16:03:33Z</time>
      </trkpt>
      <trkpt lat="37.0743443538" lon="-8.8476082496">
        <ele>35.71</ele>
        <time>2021-05-28T16:03:34Z</time>
      </trkpt>
      <trkpt lat="37.0743421745" lon="-8.8477159571">
        <ele>36.19</ele>
        <time>2021-05-28T16:03:35Z</time>
      </trkpt>
      <trkpt lat="37.0743104070" lon="-8.8478227425">
        <ele>34.26</ele>
        <time>2021-05-28T16:03:36Z</time>
      </trkpt>
      <trkpt lat="37.0742566790" lon="-8.8479349762">
        <ele>36.19</ele>
        <time>2021-05-28T16:03:37Z</time>
      </trkpt>
      <trkpt lat="37.0741977543" lon="-8.8480672427">
        <ele>38.59</ele>
        <time>2021-05-28T16:03:38Z</time>
      </trkpt>
      <trkpt lat="37.0741488878" lon="-8.8482222240">
        <ele>38.59</ele>
        <time>2021-05-28T16:03:39Z</time>
      </trkpt>
      <trkpt lat="37.0741089061" lon="-8.8484005071">
        <ele>37.63</ele>
        <time>2021-05-28T16:03:40Z</time>
      </trkpt>
      <trkpt lat="37.0740783121" lon="-8.8485901896">
        <ele>38.11</ele>
        <time>2021-05-28T16:03:41Z</time>
      </trkpt>
      <trkpt lat="37.0740305353" lon="-8.8489722367">
        <ele>43.88</ele>
        <time>2021-05-28T16:03:43Z</time>
      </trkpt>
      <trkpt lat="37.0739911404" lon="-8.8493827824">
        <ele>44.36</ele>
        <time>2021-05-28T16:03:45Z</time>
      </trkpt>
      <trkpt lat="37.0739670005" lon="-8.8498243410">
        <ele>49.16</ele>
        <time>2021-05-28T16:03:47Z</time>
      </trkpt>
      <trkpt lat="37.0739542600" lon="-8.8502829988">
        <ele>51.57</ele>
        <time>2021-05-28T16:03:49Z</time>
      </trkpt>
      <trkpt lat="37.0741113368" lon="-8.8516408671">
        <ele>58.30</ele>
        <time>2021-05-28T16:03:55Z</time>
      </trkpt>
      <trkpt lat="37.0742348023" lon="-8.8520954177">
        <ele>62.62</ele>
        <time>2021-05-28T16:03:57Z</time>
      </trkpt>
      <trkpt lat="37.0743764564" lon="-8.8525189552">
        <ele>59.26</ele>
        <time>2021-05-28T16:03:59Z</time>
      </trkpt>
      <trkpt lat="37.0744463615" lon="-8.8527023513">
        <ele>55.41</ele>
        <time>2021-05-28T16:04:00Z</time>
      </trkpt>
      <trkpt lat="37.0751539618" lon="-8.8542279415">
        <ele>58.78</ele>
        <time>2021-05-28T16:04:08Z</time>
      </trkpt>
      <trkpt lat="37.0758293755" lon="-8.8555670343">
        <ele>64.55</ele>
        <time>2021-05-28T16:04:14Z</time>
      </trkpt>
      <trkpt lat="37.0759554394" lon="-8.8557892386">
        <ele>63.58</ele>
        <time>2021-05-28T16:04:15Z</time>
      </trkpt>
      <trkpt lat="37.0763820782" lon="-8.8563646562">
        <ele>62.14</ele>
        <time>2021-05-28T16:04:18Z</time>
      </trkpt>
      <trkpt lat="37.0768766105" lon="-8.8568776287">
        <ele>66.47</ele>
        <time>2021-05-28T16:04:21Z</time>
      </trkpt>
      <trkpt lat="37.0782214869" lon="-8.8581174798">
        <ele>67.43</ele>
        <time>2021-05-28T16:04:29Z</time>
      </trkpt>
      <trkpt lat="37.0802768972" lon="-8.8604106009">
        <ele>69.83</ele>
        <time>2021-05-28T16:04:41Z</time>
      </trkpt>
      <trkpt lat="37.0805391669" lon="-8.8608685043">
        <ele>74.16</ele>
        <time>2021-05-28T16:04:43Z</time>
      </trkpt>
      <trkpt lat="37.0806492213" lon="-8.8611011859">
        <ele>72.24</ele>
        <time>2021-05-28T16:04:44Z</time>
      </trkpt>
      <trkpt lat="37.0808362216" lon="-8.8615833968">
        <ele>75.60</ele>
        <time>2021-05-28T16:04:46Z</time>
      </trkpt>
      <trkpt lat="37.0810628682" lon="-8.8623501733">
        <ele>71.76</ele>
        <time>2021-05-28T16:04:49Z</time>
      </trkpt>
      <trkpt lat="37.0811964758" lon="-8.8628590386">
        <ele>70.79</ele>
        <time>2021-05-28T16:04:51Z</time>
      </trkpt>
      <trkpt lat="37.0815962926" lon="-8.8640445750">
        <ele>66.95</ele>
        <time>2021-05-28T16:04:56Z</time>
      </trkpt>
      <trkpt lat="37.0821935032" lon="-8.8651144411">
        <ele>65.51</ele>
        <time>2021-05-28T16:05:01Z</time>
      </trkpt>
      <trkpt lat="37.0824612211" lon="-8.8655349612">
        <ele>62.14</ele>
        <time>2021-05-28T16:05:03Z</time>
      </trkpt>
      <trkpt lat="37.0825986844" lon="-8.8657469396">
        <ele>62.14</ele>
        <time>2021-05-28T16:05:04Z</time>
      </trkpt>
      <trkpt lat="37.0838357694" lon="-8.8680121489">
        <ele>63.10</ele>
        <time>2021-05-28T16:05:14Z</time>
      </trkpt>
      <trkpt lat="37.0840823650" lon="-8.8690634072">
        <ele>66.95</ele>
        <time>2021-05-28T16:05:18Z</time>
      </trkpt>
      <trkpt lat="37.0841373503" lon="-8.8695959933">
        <ele>69.35</ele>
        <time>2021-05-28T16:05:20Z</time>
      </trkpt>
      <trkpt lat="37.0841540303" lon="-8.8698602747">
        <ele>72.72</ele>
        <time>2021-05-28T16:05:21Z</time>
      </trkpt>
      <trkpt lat="37.0841670223" lon="-8.8701208681">
        <ele>71.76</ele>
        <time>2021-05-28T16:05:22Z</time>
      </trkpt>
      <trkpt lat="37.0841888152" lon="-8.8706297334">
        <ele>74.64</ele>
        <time>2021-05-28T16:05:24Z</time>
      </trkpt>
      <trkpt lat="37.0841992926" lon="-8.8708632533">
        <ele>73.20</ele>
        <time>2021-05-28T16:05:25Z</time>
      </trkpt>
      <trkpt lat="37.0842378493" lon="-8.8721608557">
        <ele>72.72</ele>
        <time>2021-05-28T16:05:32Z</time>
      </trkpt>
      <trkpt lat="37.0842579659" lon="-8.8729829527">
        <ele>71.76</ele>
        <time>2021-05-28T16:05:38Z</time>
      </trkpt>
      <trkpt lat="37.0842751488" lon="-8.8730877265">
        <ele>71.27</ele>
        <time>2021-05-28T16:05:39Z</time>
      </trkpt>
      <trkpt lat="37.0843029767" lon="-8.8731763232">
        <ele>71.27</ele>
        <time>2021-05-28T16:05:40Z</time>
      </trkpt>
      <trkpt lat="37.0843598060" lon="-8.8733565342">
        <ele>72.72</ele>
        <time>2021-05-28T16:05:42Z</time>
      </trkpt>
      <trkpt lat="37.0843607280" lon="-8.8734606374">
        <ele>72.72</ele>
        <time>2021-05-28T16:05:43Z</time>
      </trkpt>
      <trkpt lat="37.0843334030" lon="-8.8735736255">
        <ele>71.27</ele>
        <time>2021-05-28T16:05:44Z</time>
      </trkpt>
      <trkpt lat="37.0842852909" lon="-8.8736977614">
        <ele>72.72</ele>
        <time>2021-05-28T16:05:45Z</time>
      </trkpt>
      <trkpt lat="37.0842330717" lon="-8.8738322910">
        <ele>73.20</ele>
        <time>2021-05-28T16:05:46Z</time>
      </trkpt>
      <trkpt lat="37.0841904078" lon="-8.8739783037">
        <ele>73.20</ele>
        <time>2021-05-28T16:05:47Z</time>
      </trkpt>
      <trkpt lat="37.0841555391" lon="-8.8741407450">
        <ele>73.20</ele>
        <time>2021-05-28T16:05:48Z</time>
      </trkpt>
      <trkpt lat="37.0841213409" lon="-8.8743206207">
        <ele>74.16</ele>
        <time>2021-05-28T16:05:49Z</time>
      </trkpt>
      <trkpt lat="37.0839934330" lon="-8.8749397919">
        <ele>76.56</ele>
        <time>2021-05-28T16:05:52Z</time>
      </trkpt>
      <trkpt lat="37.0835928619" lon="-8.8765290845">
        <ele>80.89</ele>
        <time>2021-05-28T16:05:59Z</time>
      </trkpt>
      <trkpt lat="37.0834667142" lon="-8.8770376146">
        <ele>81.85</ele>
        <time>2021-05-28T16:06:01Z</time>
      </trkpt>
      <trkpt lat="37.0833389740" lon="-8.8775621541">
        <ele>84.73</ele>
        <time>2021-05-28T16:06:03Z</time>
      </trkpt>
      <trkpt lat="37.0832737628" lon="-8.8778294530">
        <ele>84.73</ele>
        <time>2021-05-28T16:06:04Z</time>
      </trkpt>
      <trkpt lat="37.0831443463" lon="-8.8783715107">
        <ele>88.10</ele>
        <time>2021-05-28T16:06:06Z</time>
      </trkpt>
      <trkpt lat="37.0830183662" lon="-8.8789027557">
        <ele>89.06</ele>
        <time>2021-05-28T16:06:08Z</time>
      </trkpt>
      <trkpt lat="37.0826895442" lon="-8.8802114222">
        <ele>92.42</ele>
        <time>2021-05-28T16:06:13Z</time>
      </trkpt>
      <trkpt lat="37.0821799245" lon="-8.8819809258">
        <ele>90.98</ele>
        <time>2021-05-28T16:06:21Z</time>
      </trkpt>
      <trkpt lat="37.0817952789" lon="-8.8835901674">
        <ele>92.42</ele>
        <time>2021-05-28T16:06:29Z</time>
      </trkpt>
      <trkpt lat="37.0818123780" lon="-8.8852131553">
        <ele>87.62</ele>
        <time>2021-05-28T16:06:36Z</time>
      </trkpt>
      <trkpt lat="37.0819282159" lon="-8.8859269582">
        <ele>82.33</ele>
        <time>2021-05-28T16:06:40Z</time>
      </trkpt>
      <trkpt lat="37.0820509270" lon="-8.8865975942">
        <ele>78.00</ele>
        <time>2021-05-28T16:06:44Z</time>
      </trkpt>
      <trkpt lat="37.0821323991" lon="-8.8870943058">
        <ele>74.64</ele>
        <time>2021-05-28T16:06:47Z</time>
      </trkpt>
      <trkpt lat="37.0821636636" lon="-8.8873884268">
        <ele>71.76</ele>
        <time>2021-05-28T16:06:49Z</time>
      </trkpt>
      <trkpt lat="37.0822152123" lon="-8.8878198434">
        <ele>68.39</ele>
        <time>2021-05-28T16:06:52Z</time>
      </trkpt>
      <trkpt lat="37.0822585467" lon="-8.8882498350">
        <ele>65.03</ele>
        <time>2021-05-28T16:06:55Z</time>
      </trkpt>
      <trkpt lat="37.0822689403" lon="-8.8883850351">
        <ele>65.03</ele>
        <time>2021-05-28T16:06:56Z</time>
      </trkpt>
      <trkpt lat="37.0822960977" lon="-8.8887704350">
        <ele>63.10</ele>
        <time>2021-05-28T16:06:59Z</time>
      </trkpt>
      <trkpt lat="37.0823192317" lon="-8.8893792126">
        <ele>60.70</ele>
        <time>2021-05-28T16:07:03Z</time>
      </trkpt>
      <trkpt lat="37.0824064035" lon="-8.8905934989">
        <ele>56.37</ele>
        <time>2021-05-28T16:07:10Z</time>
      </trkpt>
      <trkpt lat="37.0825854409" lon="-8.8920575660">
        <ele>61.18</ele>
        <time>2021-05-28T16:07:17Z</time>
      </trkpt>
      <trkpt lat="37.0826401748" lon="-8.8925086800">
        <ele>64.55</ele>
        <time>2021-05-28T16:07:19Z</time>
      </trkpt>
      <trkpt lat="37.0826591179" lon="-8.8941592444">
        <ele>65.03</ele>
        <time>2021-05-28T16:07:26Z</time>
      </trkpt>
      <trkpt lat="37.0826034620" lon="-8.8946532737">
        <ele>69.35</ele>
        <time>2021-05-28T16:07:28Z</time>
      </trkpt>
      <trkpt lat="37.0825299527" lon="-8.8951583672">
        <ele>73.68</ele>
        <time>2021-05-28T16:07:30Z</time>
      </trkpt>
      <trkpt lat="37.0824892167" lon="-8.8954123389">
        <ele>71.76</ele>
        <time>2021-05-28T16:07:31Z</time>
      </trkpt>
      <trkpt lat="37.0823669247" lon="-8.8961952087">
        <ele>75.60</ele>
        <time>2021-05-28T16:07:34Z</time>
      </trkpt>
      <trkpt lat="37.0823058207" lon="-8.8967347518">
        <ele>79.45</ele>
        <time>2021-05-28T16:07:36Z</time>
      </trkpt>
      <trkpt lat="37.0822808426" lon="-8.8975010253">
        <ele>80.89</ele>
        <time>2021-05-28T16:07:39Z</time>
      </trkpt>
      <trkpt lat="37.0823198184" lon="-8.8982621860">
        <ele>83.77</ele>
        <time>2021-05-28T16:07:42Z</time>
      </trkpt>
      <trkpt lat="37.0824183058" lon="-8.8993090019">
        <ele>86.66</ele>
        <time>2021-05-28T16:07:46Z</time>
      </trkpt>
      <trkpt lat="37.0824763086" lon="-8.9006317500">
        <ele>83.29</ele>
        <time>2021-05-28T16:07:51Z</time>
      </trkpt>
      <trkpt lat="37.0824762248" lon="-8.9008687902">
        <ele>83.29</ele>
        <time>2021-05-28T16:07:52Z</time>
      </trkpt>
      <trkpt lat="37.0824404340" lon="-8.9023347851">
        <ele>78.97</ele>
        <time>2021-05-28T16:07:58Z</time>
      </trkpt>
      <trkpt lat="37.0824366622" lon="-8.9025965519">
        <ele>79.93</ele>
        <time>2021-05-28T16:07:59Z</time>
      </trkpt>
      <trkpt lat="37.0824824274" lon="-8.9051575586">
        <ele>82.33</ele>
        <time>2021-05-28T16:08:08Z</time>
      </trkpt>
      <trkpt lat="37.0822899789" lon="-8.9070372004">
        <ele>82.81</ele>
        <time>2021-05-28T16:08:15Z</time>
      </trkpt>
      <trkpt lat="37.0822257735" lon="-8.9073047508">
        <ele>82.81</ele>
        <time>2021-05-28T16:08:16Z</time>
      </trkpt>
      <trkpt lat="37.0819711313" lon="-8.9081067313">
        <ele>86.18</ele>
        <time>2021-05-28T16:08:19Z</time>
      </trkpt>
      <trkpt lat="37.0817599073" lon="-8.9086171053">
        <ele>81.37</ele>
        <time>2021-05-28T16:08:21Z</time>
      </trkpt>
      <trkpt lat="37.0816441532" lon="-8.9088626951">
        <ele>82.33</ele>
        <time>2021-05-28T16:08:22Z</time>
      </trkpt>
      <trkpt lat="37.0809502155" lon="-8.9099841937">
        <ele>84.73</ele>
        <time>2021-05-28T16:08:27Z</time>
      </trkpt>
      <trkpt lat="37.0807949826" lon="-8.9102027100">
        <ele>81.37</ele>
        <time>2021-05-28T16:08:28Z</time>
      </trkpt>
      <trkpt lat="37.0804761350" lon="-8.9106494654">
        <ele>84.25</ele>
        <time>2021-05-28T16:08:30Z</time>
      </trkpt>
      <trkpt lat="37.0803172980" lon="-8.9108723402">
        <ele>83.77</ele>
        <time>2021-05-28T16:08:31Z</time>
      </trkpt>
      <trkpt lat="37.0801609755" lon="-8.9110953826">
        <ele>87.14</ele>
        <time>2021-05-28T16:08:32Z</time>
      </trkpt>
      <trkpt lat="37.0800064132" lon="-8.9113165811">
        <ele>81.37</ele>
        <time>2021-05-28T16:08:33Z</time>
      </trkpt>
      <trkpt lat="37.0792349428" lon="-8.9124209806">
        <ele>84.25</ele>
        <time>2021-05-28T16:08:38Z</time>
      </trkpt>
      <trkpt lat="37.0789216273" lon="-8.9128575101">
        <ele>79.93</ele>
        <time>2021-05-28T16:08:40Z</time>
      </trkpt>
      <trkpt lat="37.0787541568" lon="-8.9130733442">
        <ele>80.41</ele>
        <time>2021-05-28T16:08:41Z</time>
      </trkpt>
      <trkpt lat="37.0773768425" lon="-8.9143018797">
        <ele>83.77</ele>
        <time>2021-05-28T16:08:48Z</time>
      </trkpt>
      <trkpt lat="37.0757287089" lon="-8.9153843187">
        <ele>84.25</ele>
        <time>2021-05-28T16:08:56Z</time>
      </trkpt>
      <trkpt lat="37.0749293268" lon="-8.9159004763">
        <ele>87.62</ele>
        <time>2021-05-28T16:09:00Z</time>
      </trkpt>
      <trkpt lat="37.0745311026" lon="-8.9161591418">
        <ele>91.94</ele>
        <time>2021-05-28T16:09:02Z</time>
      </trkpt>
      <trkpt lat="37.0743366424" lon="-8.9162853733">
        <ele>90.50</ele>
        <time>2021-05-28T16:09:03Z</time>
      </trkpt>
      <trkpt lat="37.0727914385" lon="-8.9172992483">
        <ele>93.87</ele>
        <time>2021-05-28T16:09:11Z</time>
      </trkpt>
      <trkpt lat="37.0710249525" lon="-8.9185163006">
        <ele>94.35</ele>
        <time>2021-05-28T16:09:21Z</time>
      </trkpt>
      <trkpt lat="37.0695406850" lon="-8.9198556449">
        <ele>93.87</ele>
        <time>2021-05-28T16:09:30Z</time>
      </trkpt>
      <trkpt lat="37.0692671835" lon="-8.9201207645">
        <ele>88.58</ele>
        <time>2021-05-28T16:09:32Z</time>
      </trkpt>
      <trkpt lat="37.0691297203" lon="-8.9202539530">
        <ele>89.06</ele>
        <time>2021-05-28T16:09:33Z</time>
      </trkpt>
      <trkpt lat="37.0682409871" lon="-8.9211038779">
        <ele>86.18</ele>
        <time>2021-05-28T16:09:39Z</time>
      </trkpt>
      <trkpt lat="37.0677686669" lon="-8.9215429220">
        <ele>84.73</ele>
        <time>2021-05-28T16:09:42Z</time>
      </trkpt>
      <trkpt lat="37.0674564410" lon="-8.9218076225">
        <ele>81.37</ele>
        <time>2021-05-28T16:09:44Z</time>
      </trkpt>
      <trkpt lat="37.0672976878" lon="-8.9219294954">
        <ele>78.00</ele>
        <time>2021-05-28T16:09:45Z</time>
      </trkpt>
      <trkpt lat="37.0671351627" lon="-8.9220468421">
        <ele>77.52</ele>
        <time>2021-05-28T16:09:46Z</time>
      </trkpt>
      <trkpt lat="37.0666444022" lon="-8.9223347604">
        <ele>74.64</ele>
        <time>2021-05-28T16:09:49Z</time>
      </trkpt>
      <trkpt lat="37.0664770156" lon="-8.9224127121">
        <ele>74.64</ele>
        <time>2021-05-28T16:09:50Z</time>
      </trkpt>
      <trkpt lat="37.0649361704" lon="-8.9228313044">
        <ele>73.68</ele>
        <time>2021-05-28T16:09:58Z</time>
      </trkpt>
      <trkpt lat="37.0644791890" lon="-8.9228550252">
        <ele>70.31</ele>
        <time>2021-05-28T16:10:00Z</time>
      </trkpt>
      <trkpt lat="37.0640082099" lon="-8.9228625689">
        <ele>68.87</ele>
        <time>2021-05-28T16:10:02Z</time>
      </trkpt>
      <trkpt lat="37.0632319618" lon="-8.9228630718">
        <ele>74.64</ele>
        <time>2021-05-28T16:10:05Z</time>
      </trkpt>
      <trkpt lat="37.0611719415" lon="-8.9229431190">
        <ele>74.16</ele>
        <time>2021-05-28T16:10:12Z</time>
      </trkpt>
      <trkpt lat="37.0606011339" lon="-8.9229592122">
        <ele>70.79</ele>
        <time>2021-05-28T16:10:14Z</time>
      </trkpt>
      <trkpt lat="37.0603133831" lon="-8.9229684323">
        <ele>71.27</ele>
        <time>2021-05-28T16:10:15Z</time>
      </trkpt>
      <trkpt lat="37.0569932275" lon="-8.9230434503">
        <ele>72.72</ele>
        <time>2021-05-28T16:10:27Z</time>
      </trkpt>
      <trkpt lat="37.0548402518" lon="-8.9233490545">
        <ele>75.60</ele>
        <time>2021-05-28T16:10:35Z</time>
      </trkpt>
      <trkpt lat="37.0535853971" lon="-8.9240148291">
        <ele>72.24</ele>
        <time>2021-05-28T16:10:40Z</time>
      </trkpt>
      <trkpt lat="37.0533647854" lon="-8.9241890050">
        <ele>72.72</ele>
        <time>2021-05-28T16:10:41Z</time>
      </trkpt>
      <trkpt lat="37.0516306534" lon="-8.9258069638">
        <ele>69.83</ele>
        <time>2021-05-28T16:10:49Z</time>
      </trkpt>
      <trkpt lat="37.0511821378" lon="-8.9262363687">
        <ele>68.87</ele>
        <time>2021-05-28T16:10:51Z</time>
      </trkpt>
      <trkpt lat="37.0502702706" lon="-8.9271048177">
        <ele>70.79</ele>
        <time>2021-05-28T16:10:55Z</time>
      </trkpt>
      <trkpt lat="37.0493799448" lon="-8.9279496297">
        <ele>66.95</ele>
        <time>2021-05-28T16:10:59Z</time>
      </trkpt>
      <trkpt lat="37.0481921453" lon="-8.9288555458">
        <ele>65.51</ele>
        <time>2021-05-28T16:11:04Z</time>
      </trkpt>
      <trkpt lat="37.0457223337" lon="-8.9299042895">
        <ele>61.66</ele>
        <time>2021-05-28T16:11:13Z</time>
      </trkpt>
      <trkpt lat="37.0454466529" lon="-8.9300177805">
        <ele>63.10</ele>
        <time>2021-05-28T16:11:14Z</time>
      </trkpt>
      <trkpt lat="37.0446155872" lon="-8.9303562418">
        <ele>60.70</ele>
        <time>2021-05-28T16:11:17Z</time>
      </trkpt>
      <trkpt lat="37.0437799953" lon="-8.9306960441">
        <ele>64.55</ele>
        <time>2021-05-28T16:11:20Z</time>
      </trkpt>
      <trkpt lat="37.0418245811" lon="-8.9314947557">
        <ele>61.18</ele>
        <time>2021-05-28T16:11:27Z</time>
      </trkpt>
      <trkpt lat="37.0394973457" lon="-8.9324509632">
        <ele>56.86</ele>
        <time>2021-05-28T16:11:35Z</time>
      </trkpt>
      <trkpt lat="37.0392085891" lon="-8.9325684775">
        <ele>57.82</ele>
        <time>2021-05-28T16:11:36Z</time>
      </trkpt>
      <trkpt lat="37.0386263821" lon="-8.9328061882">
        <ele>60.70</ele>
        <time>2021-05-28T16:11:38Z</time>
      </trkpt>
      <trkpt lat="37.0371582918" lon="-8.9334137086">
        <ele>58.30</ele>
        <time>2021-05-28T16:11:43Z</time>
      </trkpt>
      <trkpt lat="37.0365680382" lon="-8.9336539339">
        <ele>61.18</ele>
        <time>2021-05-28T16:11:45Z</time>
      </trkpt>
      <trkpt lat="37.0350970980" lon="-8.9342446066">
        <ele>55.89</ele>
        <time>2021-05-28T16:11:50Z</time>
      </trkpt>
      <trkpt lat="37.0348090958" lon="-8.9343606960">
        <ele>55.89</ele>
        <time>2021-05-28T16:11:51Z</time>
      </trkpt>
      <trkpt lat="37.0339498669" lon="-8.9347147476">
        <ele>52.53</ele>
        <time>2021-05-28T16:11:54Z</time>
      </trkpt>
      <trkpt lat="37.0336640440" lon="-8.9348324295">
        <ele>53.01</ele>
        <time>2021-05-28T16:11:55Z</time>
      </trkpt>
      <trkpt lat="37.0328167174" lon="-8.9351889119">
        <ele>54.93</ele>
        <time>2021-05-28T16:11:58Z</time>
      </trkpt>
      <trkpt lat="37.0317109767" lon="-8.9356437139">
        <ele>50.13</ele>
        <time>2021-05-28T16:12:02Z</time>
      </trkpt>
      <trkpt lat="37.0314404927" lon="-8.9357544389">
        <ele>50.13</ele>
        <time>2021-05-28T16:12:03Z</time>
      </trkpt>
      <trkpt lat="37.0296040177" lon="-8.9364258293">
        <ele>46.28</ele>
        <time>2021-05-28T16:12:10Z</time>
      </trkpt>
      <trkpt lat="37.0288865268" lon="-8.9366445132">
        <ele>42.92</ele>
        <time>2021-05-28T16:12:13Z</time>
      </trkpt>
      <trkpt lat="37.0286532585" lon="-8.9367154241">
        <ele>42.92</ele>
        <time>2021-05-28T16:12:14Z</time>
      </trkpt>
      <trkpt lat="37.0281785075" lon="-8.9368609339">
        <ele>41.47</ele>
        <time>2021-05-28T16:12:16Z</time>
      </trkpt>
      <trkpt lat="37.0267294440" lon="-8.9373010676">
        <ele>39.07</ele>
        <time>2021-05-28T16:12:22Z</time>
      </trkpt>
      <trkpt lat="37.0258537028" lon="-8.9375604037">
        <ele>35.71</ele>
        <time>2021-05-28T16:12:26Z</time>
      </trkpt>
      <trkpt lat="37.0251362119" lon="-8.9377215039">
        <ele>31.86</ele>
        <time>2021-05-28T16:12:30Z</time>
      </trkpt>
      <trkpt lat="37.0243633166" lon="-8.9377835300">
        <ele>28.50</ele>
        <time>2021-05-28T16:12:35Z</time>
      </trkpt>
      <trkpt lat="37.0240839478" lon="-8.9377775788">
        <ele>27.53</ele>
        <time>2021-05-28T16:12:37Z</time>
      </trkpt>
      <trkpt lat="37.0235724002" lon="-8.9377562888">
        <ele>24.65</ele>
        <time>2021-05-28T16:12:41Z</time>
      </trkpt>
      <trkpt lat="37.0234483480" lon="-8.9377519302">
        <ele>24.65</ele>
        <time>2021-05-28T16:12:42Z</time>
      </trkpt>
      <trkpt lat="37.0228556637" lon="-8.9377572108">
        <ele>21.77</ele>
        <time>2021-05-28T16:12:47Z</time>
      </trkpt>
      <trkpt lat="37.0227313600" lon="-8.9377769921">
        <ele>21.29</ele>
        <time>2021-05-28T16:12:48Z</time>
      </trkpt>
      <trkpt lat="37.0217676088" lon="-8.9381513279">
        <ele>24.17</ele>
        <time>2021-05-28T16:12:55Z</time>
      </trkpt>
      <trkpt lat="37.0201281086" lon="-8.9389268216">
        <ele>21.29</ele>
        <time>2021-05-28T16:13:07Z</time>
      </trkpt>
      <trkpt lat="37.0197805949" lon="-8.9390897658">
        <ele>18.88</ele>
        <time>2021-05-28T16:13:10Z</time>
      </trkpt>
      <trkpt lat="37.0195063390" lon="-8.9392230380">
        <ele>15.52</ele>
        <time>2021-05-28T16:13:13Z</time>
      </trkpt>
      <trkpt lat="37.0194260404" lon="-8.9392628521">
        <ele>15.52</ele>
        <time>2021-05-28T16:13:14Z</time>
      </trkpt>
      <trkpt lat="37.0191058517" lon="-8.9394258801">
        <ele>13.12</ele>
        <time>2021-05-28T16:13:19Z</time>
      </trkpt>
      <trkpt lat="37.0189776085" lon="-8.9395069331">
        <ele>11.67</ele>
        <time>2021-05-28T16:13:22Z</time>
      </trkpt>
      <trkpt lat="37.0189416502" lon="-8.9395222720">
        <ele>11.19</ele>
        <time>2021-05-28T16:13:23Z</time>
      </trkpt>
      <trkpt lat="37.0184607804" lon="-8.9397169836">
        <ele>11.19</ele>
        <time>2021-05-28T16:13:31Z</time>
      </trkpt>
      <trkpt lat="37.0175914932" lon="-8.9401336480">
        <ele>11.19</ele>
        <time>2021-05-28T16:13:42Z</time>
      </trkpt>
      <trkpt lat="37.0168484375" lon="-8.9404999372">
        <ele>11.67</ele>
        <time>2021-05-28T16:13:51Z</time>
      </trkpt>
      <trkpt lat="37.0157944970" lon="-8.9410039410">
        <ele>15.04</ele>
        <time>2021-05-28T16:14:01Z</time>
      </trkpt>
      <trkpt lat="37.0148159098" lon="-8.9414797816">
        <ele>17.92</ele>
        <time>2021-05-28T16:14:09Z</time>
      </trkpt>
      <trkpt lat="37.0137369912" lon="-8.9419968612">
        <ele>21.77</ele>
        <time>2021-05-28T16:14:17Z</time>
      </trkpt>
      <trkpt lat="37.0131950174" lon="-8.9422570355">
        <ele>23.21</ele>
        <time>2021-05-28T16:14:21Z</time>
      </trkpt>
      <trkpt lat="37.0126030874" lon="-8.9425328840">
        <ele>26.57</ele>
        <time>2021-05-28T16:14:25Z</time>
      </trkpt>
      <trkpt lat="37.0116255060" lon="-8.9429998398">
        <ele>28.98</ele>
        <time>2021-05-28T16:14:32Z</time>
      </trkpt>
      <trkpt lat="37.0104910992" lon="-8.9435379580">
        <ele>30.42</ele>
        <time>2021-05-28T16:14:42Z</time>
      </trkpt>
      <trkpt lat="37.0098214690" lon="-8.9438677859">
        <ele>31.86</ele>
        <time>2021-05-28T16:14:50Z</time>
      </trkpt>
      <trkpt lat="37.0095191337" lon="-8.9440205041">
        <ele>35.23</ele>
        <time>2021-05-28T16:14:53Z</time>
      </trkpt>
      <trkpt lat="37.0094064809" lon="-8.9440757409">
        <ele>34.74</ele>
        <time>2021-05-28T16:14:54Z</time>
      </trkpt>
      <trkpt lat="37.0089267846" lon="-8.9442971069">
        <ele>37.63</ele>
        <time>2021-05-28T16:14:58Z</time>
      </trkpt>
      <trkpt lat="37.0083125588" lon="-8.9445768110">
        <ele>35.71</ele>
        <time>2021-05-28T16:15:04Z</time>
      </trkpt>
      <trkpt lat="37.0079983212" lon="-8.9447644819">
        <ele>36.19</ele>
        <time>2021-05-28T16:15:08Z</time>
      </trkpt>
      <trkpt lat="37.0079358760" lon="-8.9448345546">
        <ele>35.71</ele>
        <time>2021-05-28T16:15:09Z</time>
      </trkpt>
      <trkpt lat="37.0078798849" lon="-8.9449156076">
        <ele>35.71</ele>
        <time>2021-05-28T16:15:10Z</time>
      </trkpt>
      <trkpt lat="37.0077773742" lon="-8.9450600278">
        <ele>35.71</ele>
        <time>2021-05-28T16:15:12Z</time>
      </trkpt>
      <trkpt lat="37.0077155158" lon="-8.9450873528">
        <ele>35.23</ele>
        <time>2021-05-28T16:15:13Z</time>
      </trkpt>
      <trkpt lat="37.0076527353" lon="-8.9450812340">
        <ele>34.26</ele>
        <time>2021-05-28T16:15:14Z</time>
      </trkpt>
      <trkpt lat="37.0075933076" lon="-8.9450419229">
        <ele>33.78</ele>
        <time>2021-05-28T16:15:15Z</time>
      </trkpt>
      <trkpt lat="37.0075487997" lon="-8.9449748676">
        <ele>34.26</ele>
        <time>2021-05-28T16:15:16Z</time>
      </trkpt>
      <trkpt lat="37.0075337961" lon="-8.9448901266">
        <ele>33.78</ele>
        <time>2021-05-28T16:15:17Z</time>
      </trkpt>
      <trkpt lat="37.0075442735" lon="-8.9447954111">
        <ele>34.74</ele>
        <time>2021-05-28T16:15:18Z</time>
      </trkpt>
      <trkpt lat="37.0075637195" lon="-8.9446979295">
        <ele>35.23</ele>
        <time>2021-05-28T16:15:19Z</time>
      </trkpt>
      <trkpt lat="37.0075732749" lon="-8.9445968438">
        <ele>34.74</ele>
        <time>2021-05-28T16:15:20Z</time>
      </trkpt>
      <trkpt lat="37.0075679943" lon="-8.9444865379">
        <ele>33.30</ele>
        <time>2021-05-28T16:15:21Z</time>
      </trkpt>
      <trkpt lat="37.0074398350" lon="-8.9433378819">
        <ele>35.23</ele>
        <time>2021-05-28T16:15:29Z</time>
      </trkpt>
      <trkpt lat="37.0073312055" lon="-8.9423687663">
        <ele>34.74</ele>
        <time>2021-05-28T16:15:37Z</time>
      </trkpt>
      <trkpt lat="37.0072531700" lon="-8.9416597411">
        <ele>34.26</ele>
        <time>2021-05-28T16:15:44Z</time>
      </trkpt>
      <trkpt lat="37.0072752144" lon="-8.9415599965">
        <ele>34.74</ele>
        <time>2021-05-28T16:15:45Z</time>
      </trkpt>
      <trkpt lat="37.0073184650" lon="-8.9414586592">
        <ele>36.19</ele>
        <time>2021-05-28T16:15:46Z</time>
      </trkpt>
      <trkpt lat="37.0073759649" lon="-8.9413644467">
        <ele>35.71</ele>
        <time>2021-05-28T16:15:47Z</time>
      </trkpt>
      <trkpt lat="37.0074321236" lon="-8.9412784483">
        <ele>36.67</ele>
        <time>2021-05-28T16:15:48Z</time>
      </trkpt>
      <trkpt lat="37.0078766160" lon="-8.9404151961">
        <ele>35.23</ele>
        <time>2021-05-28T16:15:57Z</time>
      </trkpt>
      <trkpt lat="37.0080542285" lon="-8.9396580588">
        <ele>39.07</ele>
        <time>2021-05-28T16:16:04Z</time>
      </trkpt>
      <trkpt lat="37.0081215352" lon="-8.9393269736">
        <ele>37.15</ele>
        <time>2021-05-28T16:16:07Z</time>
      </trkpt>
      <trkpt lat="37.0082870778" lon="-8.9385522343">
        <ele>35.71</ele>
        <time>2021-05-28T16:16:15Z</time>
      </trkpt>
      <trkpt lat="37.0083044283" lon="-8.9384374861">
        <ele>35.71</ele>
        <time>2021-05-28T16:16:18Z</time>
      </trkpt>
      <trkpt lat="37.0082952082" lon="-8.9384157769">
        <ele>35.71</ele>
        <time>2021-05-28T16:16:19Z</time>
      </trkpt>
      <trkpt lat="37.0082781930" lon="-8.9384049643">
        <ele>35.71</ele>
        <time>2021-05-28T16:16:30Z</time>
      </trkpt>
      <trkpt lat="37.0082787797" lon="-8.9384102449">
        <ele>36.19</ele>
        <time>2021-05-28T16:17:02Z</time>
      </trkpt>
      <trkpt lat="37.0082723256" lon="-8.9384187106">
        <ele>36.19</ele>
        <time>2021-05-28T16:17:29Z</time>
      </trkpt>
      <trkpt lat="37.0082670450" lon="-8.9384240750">
        <ele>36.19</ele>
        <time>2021-05-28T16:18:04Z</time>
      </trkpt>
      <trkpt lat="37.0084150694" lon="-8.9386501350">
        <ele>36.19</ele>
        <time>2021-05-28T16:57:12Z</time>
      </trkpt>
      <trkpt lat="37.0082709007" lon="-8.9383809920">
        <ele>37.63</ele>
        <time>2021-05-28T16:57:19Z</time>
      </trkpt>
      <trkpt lat="37.0082766004" lon="-8.9383733645">
        <ele>40.51</ele>
        <time>2021-05-28T16:57:34Z</time>
      </trkpt>
      <trkpt lat="37.0082682185" lon="-8.9383720234">
        <ele>42.44</ele>
        <time>2021-05-28T16:57:53Z</time>
      </trkpt>
      <trkpt lat="37.0082999021" lon="-8.9383191336">
        <ele>43.88</ele>
        <time>2021-05-28T16:57:56Z</time>
      </trkpt>
      <trkpt lat="37.0083135646" lon="-8.9382712729">
        <ele>45.32</ele>
        <time>2021-05-28T16:57:57Z</time>
      </trkpt>
      <trkpt lat="37.0083276462" lon="-8.9382029604">
        <ele>44.36</ele>
        <time>2021-05-28T16:57:58Z</time>
      </trkpt>
      <trkpt lat="37.0083729923" lon="-8.9379946701">
        <ele>43.40</ele>
        <time>2021-05-28T16:58:01Z</time>
      </trkpt>
      <trkpt lat="37.0085463300" lon="-8.9371791948">
        <ele>43.88</ele>
        <time>2021-05-28T16:58:10Z</time>
      </trkpt>
      <trkpt lat="37.0086109545" lon="-8.9369066991">
        <ele>41.95</ele>
        <time>2021-05-28T16:58:13Z</time>
      </trkpt>
      <trkpt lat="37.0088819414" lon="-8.9356279559">
        <ele>41.95</ele>
        <time>2021-05-28T16:58:26Z</time>
      </trkpt>
      <trkpt lat="37.0090220869" lon="-8.9349817112">
        <ele>45.80</ele>
        <time>2021-05-28T16:58:32Z</time>
      </trkpt>
      <trkpt lat="37.0090491604" lon="-8.9348656218">
        <ele>44.84</ele>
        <time>2021-05-28T16:58:33Z</time>
      </trkpt>
      <trkpt lat="37.0093594585" lon="-8.9339170419">
        <ele>44.36</ele>
        <time>2021-05-28T16:58:42Z</time>
      </trkpt>
      <trkpt lat="37.0097018592" lon="-8.9329446573">
        <ele>43.88</ele>
        <time>2021-05-28T16:58:52Z</time>
      </trkpt>
      <trkpt lat="37.0099575073" lon="-8.9324661344">
        <ele>41.47</ele>
        <time>2021-05-28T16:58:59Z</time>
      </trkpt>
      <trkpt lat="37.0099670626" lon="-8.9324059524">
        <ele>40.99</ele>
        <time>2021-05-28T16:59:00Z</time>
      </trkpt>
      <trkpt lat="37.0099550765" lon="-8.9323453512">
        <ele>41.47</ele>
        <time>2021-05-28T16:59:01Z</time>
      </trkpt>
      <trkpt lat="37.0099216327" lon="-8.9322834928">
        <ele>40.51</ele>
        <time>2021-05-28T16:59:02Z</time>
      </trkpt>
      <trkpt lat="37.0098813996" lon="-8.9322158508">
        <ele>39.55</ele>
        <time>2021-05-28T16:59:03Z</time>
      </trkpt>
      <trkpt lat="37.0098347124" lon="-8.9321451914">
        <ele>39.55</ele>
        <time>2021-05-28T16:59:04Z</time>
      </trkpt>
      <trkpt lat="37.0096185431" lon="-8.9318499807">
        <ele>38.59</ele>
        <time>2021-05-28T16:59:08Z</time>
      </trkpt>
      <trkpt lat="37.0095604565" lon="-8.9317982644">
        <ele>38.59</ele>
        <time>2021-05-28T16:59:09Z</time>
      </trkpt>
      <trkpt lat="37.0095034596" lon="-8.9317571092">
        <ele>39.07</ele>
        <time>2021-05-28T16:59:10Z</time>
      </trkpt>
      <trkpt lat="37.0094483905" lon="-8.9317235816">
        <ele>38.59</ele>
        <time>2021-05-28T16:59:11Z</time>
      </trkpt>
      <trkpt lat="37.0093958359" lon="-8.9316949993">
        <ele>38.11</ele>
        <time>2021-05-28T16:59:12Z</time>
      </trkpt>
      <trkpt lat="37.0089607313" lon="-8.9314305503">
        <ele>37.15</ele>
        <time>2021-05-28T16:59:21Z</time>
      </trkpt>
      <trkpt lat="37.0089002140" lon="-8.9314049017">
        <ele>36.67</ele>
        <time>2021-05-28T16:59:22Z</time>
      </trkpt>
      <trkpt lat="37.0088371821" lon="-8.9314022195">
        <ele>36.67</ele>
        <time>2021-05-28T16:59:23Z</time>
      </trkpt>
      <trkpt lat="37.0087003894" lon="-8.9314163849">
        <ele>36.67</ele>
        <time>2021-05-28T16:59:25Z</time>
      </trkpt>
      <trkpt lat="37.0086406264" lon="-8.9313950948">
        <ele>36.19</ele>
        <time>2021-05-28T16:59:26Z</time>
      </trkpt>
      <trkpt lat="37.0085957833" lon="-8.9313494135">
        <ele>36.19</ele>
        <time>2021-05-28T16:59:27Z</time>
      </trkpt>
      <trkpt lat="37.0085713919" lon="-8.9312894829">
        <ele>36.67</ele>
        <time>2021-05-28T16:59:28Z</time>
      </trkpt>
      <trkpt lat="37.0085689612" lon="-8.9312262833">
        <ele>36.19</ele>
        <time>2021-05-28T16:59:29Z</time>
      </trkpt>
      <trkpt lat="37.0085865632" lon="-8.9311666880">
        <ele>36.67</ele>
        <time>2021-05-28T16:59:30Z</time>
      </trkpt>
      <trkpt lat="37.0086209290" lon="-8.9311148040">
        <ele>36.67</ele>
        <time>2021-05-28T16:59:31Z</time>
      </trkpt>
      <trkpt lat="37.0086702984" lon="-8.9310740680">
        <ele>37.63</ele>
        <time>2021-05-28T16:59:32Z</time>
      </trkpt>
      <trkpt lat="37.0087268762" lon="-8.9310314879">
        <ele>38.11</ele>
        <time>2021-05-28T16:59:33Z</time>
      </trkpt>
      <trkpt lat="37.0087794308" lon="-8.9309705514">
        <ele>40.51</ele>
        <time>2021-05-28T16:59:34Z</time>
      </trkpt>
      <trkpt lat="37.0088234358" lon="-8.9308944438">
        <ele>37.63</ele>
        <time>2021-05-28T16:59:35Z</time>
      </trkpt>
      <trkpt lat="37.0088672731" lon="-8.9308215212">
        <ele>36.19</ele>
        <time>2021-05-28T16:59:36Z</time>
      </trkpt>
      <trkpt lat="37.0089238510" lon="-8.9307799470">
        <ele>35.23</ele>
        <time>2021-05-28T16:59:37Z</time>
      </trkpt>
      <trkpt lat="37.0089890622" lon="-8.9307804499">
        <ele>33.78</ele>
        <time>2021-05-28T16:59:38Z</time>
      </trkpt>
      <trkpt lat="37.0090527646" lon="-8.9308179170">
        <ele>33.30</ele>
        <time>2021-05-28T16:59:39Z</time>
      </trkpt>
      <trkpt lat="37.0091105159" lon="-8.9308754168">
        <ele>33.30</ele>
        <time>2021-05-28T16:59:40Z</time>
      </trkpt>
      <trkpt lat="37.0091679320" lon="-8.9309346769">
        <ele>31.86</ele>
        <time>2021-05-28T16:59:41Z</time>
      </trkpt>
      <trkpt lat="37.0092349034" lon="-8.9309844654">
        <ele>31.38</ele>
        <time>2021-05-28T16:59:42Z</time>
      </trkpt>
      <trkpt lat="37.0093136095" lon="-8.9310102817">
        <ele>29.46</ele>
        <time>2021-05-28T16:59:43Z</time>
      </trkpt>
      <trkpt lat="37.0093970094" lon="-8.9310040791">
        <ele>28.02</ele>
        <time>2021-05-28T16:59:44Z</time>
      </trkpt>
      <trkpt lat="37.0094811637" lon="-8.9309717249">
        <ele>26.57</ele>
        <time>2021-05-28T16:59:45Z</time>
      </trkpt>
      <trkpt lat="37.0095652342" lon="-8.9309252892">
        <ele>25.61</ele>
        <time>2021-05-28T16:59:46Z</time>
      </trkpt>
      <trkpt lat="37.0096483827" lon="-8.9308746625">
        <ele>23.69</ele>
        <time>2021-05-28T16:59:47Z</time>
      </trkpt>
      <trkpt lat="37.0097213052" lon="-8.9308210183">
        <ele>21.29</ele>
        <time>2021-05-28T16:59:48Z</time>
      </trkpt>
      <trkpt lat="37.0097766258" lon="-8.9307587408">
        <ele>19.84</ele>
        <time>2021-05-28T16:59:49Z</time>
      </trkpt>
      <trkpt lat="37.0098130871" lon="-8.9306844771">
        <ele>18.40</ele>
        <time>2021-05-28T16:59:50Z</time>
      </trkpt>
      <trkpt lat="37.0098295156" lon="-8.9305983111">
        <ele>17.92</ele>
        <time>2021-05-28T16:59:51Z</time>
      </trkpt>
      <trkpt lat="37.0098300185" lon="-8.9305061102">
        <ele>16.00</ele>
        <time>2021-05-28T16:59:52Z</time>
      </trkpt>
      <trkpt lat="37.0098132547" lon="-8.9304142445">
        <ele>15.04</ele>
        <time>2021-05-28T16:59:53Z</time>
      </trkpt>
      <trkpt lat="37.0097775478" lon="-8.9303308446">
        <ele>13.60</ele>
        <time>2021-05-28T16:59:54Z</time>
      </trkpt>
      <trkpt lat="37.0097274240" lon="-8.9302615263">
        <ele>13.60</ele>
        <time>2021-05-28T16:59:55Z</time>
      </trkpt>
      <trkpt lat="37.0096731093" lon="-8.9302088879">
        <ele>13.12</ele>
        <time>2021-05-28T16:59:56Z</time>
      </trkpt>
      <trkpt lat="37.0096201357" lon="-8.9301688224">
        <ele>13.12</ele>
        <time>2021-05-28T16:59:57Z</time>
      </trkpt>
      <trkpt lat="37.0095700957" lon="-8.9301364683">
        <ele>12.63</ele>
        <time>2021-05-28T16:59:58Z</time>
      </trkpt>
      <trkpt lat="37.0092539303" lon="-8.9298854303">
        <ele>12.63</ele>
        <time>2021-05-28T17:00:09Z</time>
      </trkpt>
      <trkpt lat="37.0092202350" lon="-8.9298549201">
        <ele>13.12</ele>
        <time>2021-05-28T17:00:10Z</time>
      </trkpt>
      <trkpt lat="37.0090194885" lon="-8.9296162035">
        <ele>13.12</ele>
        <time>2021-05-28T17:00:14Z</time>
      </trkpt>
      <trkpt lat="37.0089738909" lon="-8.9295434486">
        <ele>12.63</ele>
        <time>2021-05-28T17:00:15Z</time>
      </trkpt>
      <trkpt lat="37.0089365076" lon="-8.9294639044">
        <ele>12.15</ele>
        <time>2021-05-28T17:00:16Z</time>
      </trkpt>
      <trkpt lat="37.0089049917" lon="-8.9293775707">
        <ele>11.67</ele>
        <time>2021-05-28T17:00:17Z</time>
      </trkpt>
      <trkpt lat="37.0088769961" lon="-8.9292838611">
        <ele>12.15</ele>
        <time>2021-05-28T17:00:18Z</time>
      </trkpt>
      <trkpt lat="37.0088421274" lon="-8.9290863834">
        <ele>13.60</ele>
        <time>2021-05-28T17:00:20Z</time>
      </trkpt>
      <trkpt lat="37.0088448096" lon="-8.9289907459">
        <ele>13.60</ele>
        <time>2021-05-28T17:00:21Z</time>
      </trkpt>
      <trkpt lat="37.0088578854" lon="-8.9288956113">
        <ele>15.04</ele>
        <time>2021-05-28T17:00:22Z</time>
      </trkpt>
      <trkpt lat="37.0088763256" lon="-8.9287996385">
        <ele>15.04</ele>
        <time>2021-05-28T17:00:23Z</time>
      </trkpt>
      <trkpt lat="37.0089051593" lon="-8.9286448248">
        <ele>13.60</ele>
        <time>2021-05-28T17:00:25Z</time>
      </trkpt>
      <trkpt lat="37.0089114457" lon="-8.9286054298">
        <ele>12.15</ele>
        <time>2021-05-28T17:00:26Z</time>
      </trkpt>
      <trkpt lat="37.0089163072" lon="-8.9285816252">
        <ele>11.67</ele>
        <time>2021-05-28T17:00:27Z</time>
      </trkpt>
      <trkpt lat="37.0089230966" lon="-8.9285854809">
        <ele>11.19</ele>
        <time>2021-05-28T17:00:38Z</time>
      </trkpt>
      <trkpt lat="37.0089989528" lon="-8.9282802958">
        <ele>13.12</ele>
        <time>2021-05-28T17:00:44Z</time>
      </trkpt>
      <trkpt lat="37.0090180635" lon="-8.9281791262">
        <ele>13.12</ele>
        <time>2021-05-28T17:00:45Z</time>
      </trkpt>
      <trkpt lat="37.0090291277" lon="-8.9280621987">
        <ele>13.12</ele>
        <time>2021-05-28T17:00:46Z</time>
      </trkpt>
      <trkpt lat="37.0090293791" lon="-8.9279366378">
        <ele>13.12</ele>
        <time>2021-05-28T17:00:47Z</time>
      </trkpt>
      <trkpt lat="37.0089829434" lon="-8.9272995293">
        <ele>12.15</ele>
        <time>2021-05-28T17:00:53Z</time>
      </trkpt>
      <trkpt lat="37.0089598931" lon="-8.9271872956">
        <ele>13.12</ele>
        <time>2021-05-28T17:00:54Z</time>
      </trkpt>
      <trkpt lat="37.0088265371" lon="-8.9265545458">
        <ele>14.56</ele>
        <time>2021-05-28T17:00:59Z</time>
      </trkpt>
      <trkpt lat="37.0087800175" lon="-8.9263428189">
        <ele>12.15</ele>
        <time>2021-05-28T17:01:01Z</time>
      </trkpt>
      <trkpt lat="37.0087227691" lon="-8.9260862488">
        <ele>11.67</ele>
        <time>2021-05-28T17:01:04Z</time>
      </trkpt>
      <trkpt lat="37.0087352581" lon="-8.9260243904">
        <ele>12.63</ele>
        <time>2021-05-28T17:01:05Z</time>
      </trkpt>
      <trkpt lat="37.0087706298" lon="-8.9259900246">
        <ele>12.15</ele>
        <time>2021-05-28T17:01:06Z</time>
      </trkpt>
      <trkpt lat="37.0088143833" lon="-8.9259855822">
        <ele>11.67</ele>
        <time>2021-05-28T17:01:07Z</time>
      </trkpt>
      <trkpt lat="37.0088514313" lon="-8.9260202833">
        <ele>12.15</ele>
        <time>2021-05-28T17:01:08Z</time>
      </trkpt>
      <trkpt lat="37.0088756550" lon="-8.9260759391">
        <ele>11.67</ele>
        <time>2021-05-28T17:01:09Z</time>
      </trkpt>
      <trkpt lat="37.0088888146" lon="-8.9261415694">
        <ele>11.67</ele>
        <time>2021-05-28T17:01:10Z</time>
      </trkpt>
      <trkpt lat="37.0088974480" lon="-8.9262207784">
        <ele>12.63</ele>
        <time>2021-05-28T17:01:11Z</time>
      </trkpt>
      <trkpt lat="37.0089054946" lon="-8.9263139013">
        <ele>13.12</ele>
        <time>2021-05-28T17:01:12Z</time>
      </trkpt>
      <trkpt lat="37.0089357533" lon="-8.9265125524">
        <ele>15.52</ele>
        <time>2021-05-28T17:01:14Z</time>
      </trkpt>
      <trkpt lat="37.0090023056" lon="-8.9268107805">
        <ele>15.52</ele>
        <time>2021-05-28T17:01:17Z</time>
      </trkpt>
      <trkpt lat="37.0090323966" lon="-8.9268945158">
        <ele>14.08</ele>
        <time>2021-05-28T17:01:18Z</time>
      </trkpt>
      <trkpt lat="37.0090618171" lon="-8.9269704558">
        <ele>14.08</ele>
        <time>2021-05-28T17:01:19Z</time>
      </trkpt>
      <trkpt lat="37.0090852026" lon="-8.9270465635">
        <ele>14.56</ele>
        <time>2021-05-28T17:01:20Z</time>
      </trkpt>
      <trkpt lat="37.0090979431" lon="-8.9271208271">
        <ele>14.56</ele>
        <time>2021-05-28T17:01:21Z</time>
      </trkpt>
      <trkpt lat="37.0090971887" lon="-8.9271934982">
        <ele>13.60</ele>
        <time>2021-05-28T17:01:22Z</time>
      </trkpt>
      <trkpt lat="37.0090795029" lon="-8.9272669237">
        <ele>13.12</ele>
        <time>2021-05-28T17:01:23Z</time>
      </trkpt>
      <trkpt lat="37.0090526808" lon="-8.9273415226">
        <ele>13.12</ele>
        <time>2021-05-28T17:01:24Z</time>
      </trkpt>
      <trkpt lat="37.0090296306" lon="-8.9274226595">
        <ele>13.60</ele>
        <time>2021-05-28T17:01:25Z</time>
      </trkpt>
      <trkpt lat="37.0090197399" lon="-8.9275120106">
        <ele>13.60</ele>
        <time>2021-05-28T17:01:26Z</time>
      </trkpt>
      <trkpt lat="37.0090231765" lon="-8.9276054688">
        <ele>15.04</ele>
        <time>2021-05-28T17:01:27Z</time>
      </trkpt>
      <trkpt lat="37.0090461429" lon="-8.9279078040">
        <ele>15.04</ele>
        <time>2021-05-28T17:01:30Z</time>
      </trkpt>
      <trkpt lat="37.0090445504" lon="-8.9280193672">
        <ele>14.08</ele>
        <time>2021-05-28T17:01:31Z</time>
      </trkpt>
      <trkpt lat="37.0090339892" lon="-8.9281327743">
        <ele>13.60</ele>
        <time>2021-05-28T17:01:32Z</time>
      </trkpt>
      <trkpt lat="37.0090136211" lon="-8.9282466844">
        <ele>13.12</ele>
        <time>2021-05-28T17:01:33Z</time>
      </trkpt>
      <trkpt lat="37.0089873858" lon="-8.9283600077">
        <ele>13.12</ele>
        <time>2021-05-28T17:01:34Z</time>
      </trkpt>
      <trkpt lat="37.0088739786" lon="-8.9289080165">
        <ele>13.60</ele>
        <time>2021-05-28T17:01:39Z</time>
      </trkpt>
      <trkpt lat="37.0088624954" lon="-8.9290230162">
        <ele>13.60</ele>
        <time>2021-05-28T17:01:40Z</time>
      </trkpt>
      <trkpt lat="37.0088662673" lon="-8.9291397762">
        <ele>13.60</ele>
        <time>2021-05-28T17:01:41Z</time>
      </trkpt>
      <trkpt lat="37.0088860486" lon="-8.9292550273">
        <ele>14.08</ele>
        <time>2021-05-28T17:01:42Z</time>
      </trkpt>
      <trkpt lat="37.0089207496" lon="-8.9293656684">
        <ele>14.56</ele>
        <time>2021-05-28T17:01:43Z</time>
      </trkpt>
      <trkpt lat="37.0089701191" lon="-8.9294685982">
        <ele>14.56</ele>
        <time>2021-05-28T17:01:44Z</time>
      </trkpt>
      <trkpt lat="37.0090285409" lon="-8.9295655768">
        <ele>13.60</ele>
        <time>2021-05-28T17:01:45Z</time>
      </trkpt>
      <trkpt lat="37.0090905670" lon="-8.9296504017">
        <ele>15.04</ele>
        <time>2021-05-28T17:01:46Z</time>
      </trkpt>
      <trkpt lat="37.0091526769" lon="-8.9297213964">
        <ele>15.04</ele>
        <time>2021-05-28T17:01:47Z</time>
      </trkpt>
      <trkpt lat="37.0092173852" lon="-8.9297858533">
        <ele>15.52</ele>
        <time>2021-05-28T17:01:48Z</time>
      </trkpt>
      <trkpt lat="37.0096086524" lon="-8.9301127475">
        <ele>16.96</ele>
        <time>2021-05-28T17:01:53Z</time>
      </trkpt>
      <trkpt lat="37.0096889511" lon="-8.9301869273">
        <ele>16.96</ele>
        <time>2021-05-28T17:01:54Z</time>
      </trkpt>
      <trkpt lat="37.0097579341" lon="-8.9302735124">
        <ele>17.44</ele>
        <time>2021-05-28T17:01:55Z</time>
      </trkpt>
      <trkpt lat="37.0098065492" lon="-8.9303751010">
        <ele>16.96</ele>
        <time>2021-05-28T17:01:56Z</time>
      </trkpt>
      <trkpt lat="37.0098322816" lon="-8.9304838981">
        <ele>16.96</ele>
        <time>2021-05-28T17:01:57Z</time>
      </trkpt>
      <trkpt lat="37.0098341256" lon="-8.9305902645">
        <ele>17.92</ele>
        <time>2021-05-28T17:01:58Z</time>
      </trkpt>
      <trkpt lat="37.0098120812" lon="-8.9306934457">
        <ele>17.92</ele>
        <time>2021-05-28T17:01:59Z</time>
      </trkpt>
      <trkpt lat="37.0097654779" lon="-8.9307887480">
        <ele>18.88</ele>
        <time>2021-05-28T17:02:00Z</time>
      </trkpt>
      <trkpt lat="37.0097001828" lon="-8.9308707230">
        <ele>20.32</ele>
        <time>2021-05-28T17:02:01Z</time>
      </trkpt>
      <trkpt lat="37.0096223149" lon="-8.9309351798">
        <ele>22.25</ele>
        <time>2021-05-28T17:02:02Z</time>
      </trkpt>
      <trkpt lat="37.0095365681" lon="-8.9309866447">
        <ele>22.25</ele>
        <time>2021-05-28T17:02:03Z</time>
      </trkpt>
      <trkpt lat="37.0094495639" lon="-8.9310313202">
        <ele>22.73</ele>
        <time>2021-05-28T17:02:04Z</time>
      </trkpt>
      <trkpt lat="37.0093587041" lon="-8.9310634229">
        <ele>24.65</ele>
        <time>2021-05-28T17:02:05Z</time>
      </trkpt>
      <trkpt lat="37.0092650782" lon="-8.9310662728">
        <ele>26.57</ele>
        <time>2021-05-28T17:02:06Z</time>
      </trkpt>
      <trkpt lat="37.0091760624" lon="-8.9310275484">
        <ele>27.53</ele>
        <time>2021-05-28T17:02:07Z</time>
      </trkpt>
      <trkpt lat="37.0091016311" lon="-8.9309584815">
        <ele>28.98</ele>
        <time>2021-05-28T17:02:08Z</time>
      </trkpt>
      <trkpt lat="37.0090474840" lon="-8.9308900014">
        <ele>31.38</ele>
        <time>2021-05-28T17:02:09Z</time>
      </trkpt>
      <trkpt lat="37.0090023894" lon="-8.9308462478">
        <ele>31.38</ele>
        <time>2021-05-28T17:02:10Z</time>
      </trkpt>
      <trkpt lat="37.0089564566" lon="-8.9308283105">
        <ele>31.86</ele>
        <time>2021-05-28T17:02:11Z</time>
      </trkpt>
      <trkpt lat="37.0089065842" lon="-8.9308368601">
        <ele>32.34</ele>
        <time>2021-05-28T17:02:12Z</time>
      </trkpt>
      <trkpt lat="37.0088585559" lon="-8.9308790211">
        <ele>33.78</ele>
        <time>2021-05-28T17:02:13Z</time>
      </trkpt>
      <trkpt lat="37.0088239387" lon="-8.9309491776">
        <ele>34.74</ele>
        <time>2021-05-28T17:02:14Z</time>
      </trkpt>
      <trkpt lat="37.0088116173" lon="-8.9310350921">
        <ele>35.23</ele>
        <time>2021-05-28T17:02:15Z</time>
      </trkpt>
      <trkpt lat="37.0088172331" lon="-8.9311217610">
        <ele>36.67</ele>
        <time>2021-05-28T17:02:16Z</time>
      </trkpt>
      <trkpt lat="37.0088334102" lon="-8.9311960246">
        <ele>36.67</ele>
        <time>2021-05-28T17:02:17Z</time>
      </trkpt>
      <trkpt lat="37.0088427979" lon="-8.9312654268">
        <ele>36.19</ele>
        <time>2021-05-28T17:02:18Z</time>
      </trkpt>
      <trkpt lat="37.0088266209" lon="-8.9313354157">
        <ele>36.19</ele>
        <time>2021-05-28T17:02:19Z</time>
      </trkpt>
      <trkpt lat="37.0087837055" lon="-8.9313986152">
        <ele>36.67</ele>
        <time>2021-05-28T17:02:20Z</time>
      </trkpt>
      <trkpt lat="37.0087230206" lon="-8.9314400218">
        <ele>36.19</ele>
        <time>2021-05-28T17:02:21Z</time>
      </trkpt>
      <trkpt lat="37.0086590666" lon="-8.9314466435">
        <ele>36.67</ele>
        <time>2021-05-28T17:02:22Z</time>
      </trkpt>
      <trkpt lat="37.0086054225" lon="-8.9314143732">
        <ele>36.19</ele>
        <time>2021-05-28T17:02:23Z</time>
      </trkpt>
      <trkpt lat="37.0085677877" lon="-8.9313515928">
        <ele>36.19</ele>
        <time>2021-05-28T17:02:24Z</time>
      </trkpt>
      <trkpt lat="37.0085517783" lon="-8.9312717132">
        <ele>36.67</ele>
        <time>2021-05-28T17:02:25Z</time>
      </trkpt>
      <trkpt lat="37.0085640159" lon="-8.9311923366">
        <ele>37.63</ele>
        <time>2021-05-28T17:02:26Z</time>
      </trkpt>
      <trkpt lat="37.0086006448" lon="-8.9311321545">
        <ele>37.63</ele>
        <time>2021-05-28T17:02:27Z</time>
      </trkpt>
      <trkpt lat="37.0086575579" lon="-8.9310983755">
        <ele>37.63</ele>
        <time>2021-05-28T17:02:28Z</time>
      </trkpt>
      <trkpt lat="37.0087280497" lon="-8.9310968667">
        <ele>37.63</ele>
        <time>2021-05-28T17:02:29Z</time>
      </trkpt>
      <trkpt lat="37.0087960269" lon="-8.9311333280">
        <ele>37.15</ele>
        <time>2021-05-28T17:02:30Z</time>
      </trkpt>
      <trkpt lat="37.0088464022" lon="-8.9312054124">
        <ele>36.67</ele>
        <time>2021-05-28T17:02:31Z</time>
      </trkpt>
      <trkpt lat="37.0088900719" lon="-8.9312929194">
        <ele>37.63</ele>
        <time>2021-05-28T17:02:32Z</time>
      </trkpt>
      <trkpt lat="37.0089458115" lon="-8.9313701168">
        <ele>38.11</ele>
        <time>2021-05-28T17:02:33Z</time>
      </trkpt>
      <trkpt lat="37.0090220030" lon="-8.9314323943">
        <ele>39.07</ele>
        <time>2021-05-28T17:02:34Z</time>
      </trkpt>
      <trkpt lat="37.0091968495" lon="-8.9315364975">
        <ele>40.03</ele>
        <time>2021-05-28T17:02:36Z</time>
      </trkpt>
      <trkpt lat="37.0095938165" lon="-8.9317892119">
        <ele>41.95</ele>
        <time>2021-05-28T17:02:41Z</time>
      </trkpt>
      <trkpt lat="37.0096602011" lon="-8.9318543393">
        <ele>40.99</ele>
        <time>2021-05-28T17:02:42Z</time>
      </trkpt>
      <trkpt lat="37.0097188745" lon="-8.9319281001">
        <ele>40.51</ele>
        <time>2021-05-28T17:02:43Z</time>
      </trkpt>
      <trkpt lat="37.0097724348" lon="-8.9320075605">
        <ele>40.99</ele>
        <time>2021-05-28T17:02:44Z</time>
      </trkpt>
      <trkpt lat="37.0098235644" lon="-8.9320897870">
        <ele>41.47</ele>
        <time>2021-05-28T17:02:45Z</time>
      </trkpt>
      <trkpt lat="37.0099520590" lon="-8.9323319402">
        <ele>42.92</ele>
        <time>2021-05-28T17:02:48Z</time>
      </trkpt>
      <trkpt lat="37.0099707507" lon="-8.9324016776">
        <ele>40.99</ele>
        <time>2021-05-28T17:02:49Z</time>
      </trkpt>
      <trkpt lat="37.0099669788" lon="-8.9324678108">
        <ele>41.47</ele>
        <time>2021-05-28T17:02:50Z</time>
      </trkpt>
      <trkpt lat="37.0099423360" lon="-8.9325328544">
        <ele>41.95</ele>
        <time>2021-05-28T17:02:51Z</time>
      </trkpt>
      <trkpt lat="37.0099042822" lon="-8.9326015022">
        <ele>41.95</ele>
        <time>2021-05-28T17:02:52Z</time>
      </trkpt>
      <trkpt lat="37.0098560862" lon="-8.9326791186">
        <ele>42.92</ele>
        <time>2021-05-28T17:02:53Z</time>
      </trkpt>
      <trkpt lat="37.0098047052" lon="-8.9327595010">
        <ele>43.40</ele>
        <time>2021-05-28T17:02:54Z</time>
      </trkpt>
      <trkpt lat="37.0094935689" lon="-8.9335297141">
        <ele>45.80</ele>
        <time>2021-05-28T17:03:01Z</time>
      </trkpt>
      <trkpt lat="37.0093568601" lon="-8.9339382481">
        <ele>43.40</ele>
        <time>2021-05-28T17:03:05Z</time>
      </trkpt>
      <trkpt lat="37.0090701152" lon="-8.9348676335">
        <ele>45.80</ele>
        <time>2021-05-28T17:03:16Z</time>
      </trkpt>
      <trkpt lat="37.0088835340" lon="-8.9357519243">
        <ele>45.80</ele>
        <time>2021-05-28T17:03:23Z</time>
      </trkpt>
      <trkpt lat="37.0088556223" lon="-8.9358948357">
        <ele>45.80</ele>
        <time>2021-05-28T17:03:24Z</time>
      </trkpt>
      <trkpt lat="37.0087987091" lon="-8.9361955784">
        <ele>43.40</ele>
        <time>2021-05-28T17:03:26Z</time>
      </trkpt>
      <trkpt lat="37.0087293908" lon="-8.9365456067">
        <ele>47.24</ele>
        <time>2021-05-28T17:03:28Z</time>
      </trkpt>
      <trkpt lat="37.0086928457" lon="-8.9367377199">
        <ele>46.28</ele>
        <time>2021-05-28T17:03:29Z</time>
      </trkpt>
      <trkpt lat="37.0085304882" lon="-8.9375628345">
        <ele>42.92</ele>
        <time>2021-05-28T17:03:34Z</time>
      </trkpt>
      <trkpt lat="37.0083724894" lon="-8.9383536670">
        <ele>42.92</ele>
        <time>2021-05-28T17:03:42Z</time>
      </trkpt>
      <trkpt lat="37.0083342679" lon="-8.9385498874">
        <ele>43.88</ele>
        <time>2021-05-28T17:03:44Z</time>
      </trkpt>
      <trkpt lat="37.0081907697" lon="-8.9392125607">
        <ele>42.92</ele>
        <time>2021-05-28T17:03:52Z</time>
      </trkpt>
      <trkpt lat="37.0080770273" lon="-8.9397556242">
        <ele>41.95</ele>
        <time>2021-05-28T17:04:00Z</time>
      </trkpt>
      <trkpt lat="37.0079714153" lon="-8.9402901381">
        <ele>40.99</ele>
        <time>2021-05-28T17:04:08Z</time>
      </trkpt>
      <trkpt lat="37.0078861713" lon="-8.9405452833">
        <ele>40.99</ele>
        <time>2021-05-28T17:04:11Z</time>
      </trkpt>
      <trkpt lat="37.0078423340" lon="-8.9406382386">
        <ele>41.47</ele>
        <time>2021-05-28T17:04:12Z</time>
      </trkpt>
      <trkpt lat="37.0076086465" lon="-8.9410613570">
        <ele>44.84</ele>
        <time>2021-05-28T17:04:16Z</time>
      </trkpt>
      <trkpt lat="37.0074902941" lon="-8.9412542246">
        <ele>41.95</ele>
        <time>2021-05-28T17:04:18Z</time>
      </trkpt>
      <trkpt lat="37.0074480493" lon="-8.9413357805">
        <ele>40.51</ele>
        <time>2021-05-28T17:04:19Z</time>
      </trkpt>
      <trkpt lat="37.0074221492" lon="-8.9414125588">
        <ele>40.51</ele>
        <time>2021-05-28T17:04:20Z</time>
      </trkpt>
      <trkpt lat="37.0074134320" lon="-8.9414874092">
        <ele>40.51</ele>
        <time>2021-05-28T17:04:21Z</time>
      </trkpt>
      <trkpt lat="37.0074187126" lon="-8.9415610023">
        <ele>40.99</ele>
        <time>2021-05-28T17:04:22Z</time>
      </trkpt>
      <trkpt lat="37.0074258372" lon="-8.9416311588">
        <ele>40.99</ele>
        <time>2021-05-28T17:04:23Z</time>
      </trkpt>
      <trkpt lat="37.0074170362" lon="-8.9416971244">
        <ele>40.03</ele>
        <time>2021-05-28T17:04:24Z</time>
      </trkpt>
      <trkpt lat="37.0073877834" lon="-8.9417505171">
        <ele>39.55</ele>
        <time>2021-05-28T17:04:25Z</time>
      </trkpt>
      <trkpt lat="37.0073447004" lon="-8.9417811949">
        <ele>39.55</ele>
        <time>2021-05-28T17:04:26Z</time>
      </trkpt>
      <trkpt lat="37.0073001087" lon="-8.9417903312">
        <ele>39.55</ele>
        <time>2021-05-28T17:04:27Z</time>
      </trkpt>
      <trkpt lat="37.0072627254" lon="-8.9417920914">
        <ele>40.03</ele>
        <time>2021-05-28T17:04:28Z</time>
      </trkpt>
      <trkpt lat="37.0072329696" lon="-8.9417953603">
        <ele>39.55</ele>
        <time>2021-05-28T17:04:29Z</time>
      </trkpt>
      <trkpt lat="37.0072072372" lon="-8.9418058377">
        <ele>39.07</ele>
        <time>2021-05-28T17:04:30Z</time>
      </trkpt>
      <trkpt lat="37.0071867015" lon="-8.9418169856">
        <ele>39.07</ele>
        <time>2021-05-28T17:04:31Z</time>
      </trkpt>
      <trkpt lat="37.0071711950" lon="-8.9418283850">
        <ele>38.59</ele>
        <time>2021-05-28T17:04:32Z</time>
      </trkpt>
      <trkpt lat="37.0071296208" lon="-8.9418516029">
        <ele>39.07</ele>
        <time>2021-05-28T17:04:48Z</time>
      </trkpt>
      <trkpt lat="37.0071103424" lon="-8.9418133814">
        <ele>39.07</ele>
        <time>2021-05-28T17:05:18Z</time>
      </trkpt>
      <trkpt lat="37.0070900582" lon="-8.9417930972">
        <ele>38.59</ele>
        <time>2021-05-28T17:06:04Z</time>
      </trkpt>
      <trkpt lat="37.0071006194" lon="-8.9417770877">
        <ele>38.11</ele>
        <time>2021-05-28T17:06:29Z</time>
      </trkpt>
      <trkpt lat="37.0071537606" lon="-8.9418498427">
        <ele>39.07</ele>
        <time>2021-05-28T17:12:54Z</time>
      </trkpt>
      <trkpt lat="37.0071538445" lon="-8.9418569673">
        <ele>38.11</ele>
        <time>2021-05-28T17:12:58Z</time>
      </trkpt>
      <trkpt lat="37.0071551856" lon="-8.9418677799">
        <ele>35.71</ele>
        <time>2021-05-28T17:13:24Z</time>
      </trkpt>
      <trkpt lat="37.0071521681" lon="-8.9418737311">
        <ele>35.71</ele>
        <time>2021-05-28T17:13:49Z</time>
      </trkpt>
      <trkpt lat="37.0071108453" lon="-8.9418781735">
        <ele>34.26</ele>
        <time>2021-05-28T17:14:13Z</time>
      </trkpt>
      <trkpt lat="37.0070710313" lon="-8.9418975357">
        <ele>35.23</ele>
        <time>2021-05-28T17:14:36Z</time>
      </trkpt>
      <trkpt lat="37.0070711989" lon="-8.9419116173">
        <ele>35.23</ele>
        <time>2021-05-28T17:14:47Z</time>
      </trkpt>
      <trkpt lat="37.0069435425" lon="-8.9419872221">
        <ele>36.19</ele>
        <time>2021-05-28T17:14:51Z</time>
      </trkpt>
      <trkpt lat="37.0067918301" lon="-8.9421146270">
        <ele>34.74</ele>
        <time>2021-05-28T17:14:54Z</time>
      </trkpt>
      <trkpt lat="37.0067556202" lon="-8.9421521779">
        <ele>34.74</ele>
        <time>2021-05-28T17:14:55Z</time>
      </trkpt>
      <trkpt lat="37.0067345817" lon="-8.9421898965">
        <ele>35.23</ele>
        <time>2021-05-28T17:14:56Z</time>
      </trkpt>
      <trkpt lat="37.0067313965" lon="-8.9422347397">
        <ele>35.23</ele>
        <time>2021-05-28T17:14:57Z</time>
      </trkpt>
      <trkpt lat="37.0067497529" lon="-8.9422781579">
        <ele>34.74</ele>
        <time>2021-05-28T17:14:58Z</time>
      </trkpt>
      <trkpt lat="37.0067670196" lon="-8.9423222467">
        <ele>35.71</ele>
        <time>2021-05-28T17:14:59Z</time>
      </trkpt>
      <trkpt lat="37.0067751501" lon="-8.9423620608">
        <ele>36.19</ele>
        <time>2021-05-28T17:15:00Z</time>
      </trkpt>
      <trkpt lat="37.0067716297" lon="-8.9423967618">
        <ele>36.19</ele>
        <time>2021-05-28T17:15:01Z</time>
      </trkpt>
      <trkpt lat="37.0067498367" lon="-8.9424244221">
        <ele>36.19</ele>
        <time>2021-05-28T17:15:02Z</time>
      </trkpt>
      <trkpt lat="37.0067088492" lon="-8.9424541779">
        <ele>36.67</ele>
        <time>2021-05-28T17:15:03Z</time>
      </trkpt>
      <trkpt lat="37.0066587254" lon="-8.9424923155">
        <ele>36.67</ele>
        <time>2021-05-28T17:15:04Z</time>
      </trkpt>
      <trkpt lat="37.0064537041" lon="-8.9426396694">
        <ele>36.67</ele>
        <time>2021-05-28T17:15:08Z</time>
      </trkpt>
      <trkpt lat="37.0058777835" lon="-8.9430421684">
        <ele>38.59</ele>
        <time>2021-05-28T17:15:18Z</time>
      </trkpt>
      <trkpt lat="37.0053016953" lon="-8.9436792769">
        <ele>38.11</ele>
        <time>2021-05-28T17:15:29Z</time>
      </trkpt>
      <trkpt lat="37.0047004614" lon="-8.9443129487">
        <ele>38.59</ele>
        <time>2021-05-28T17:15:38Z</time>
      </trkpt>
      <trkpt lat="37.0045009721" lon="-8.9445122704">
        <ele>36.67</ele>
        <time>2021-05-28T17:15:41Z</time>
      </trkpt>
      <trkpt lat="37.0044577215" lon="-8.9445740450">
        <ele>36.67</ele>
        <time>2021-05-28T17:15:42Z</time>
      </trkpt>
      <trkpt lat="37.0044350903" lon="-8.9446384180">
        <ele>38.59</ele>
        <time>2021-05-28T17:15:43Z</time>
      </trkpt>
      <trkpt lat="37.0044364315" lon="-8.9446985163">
        <ele>39.07</ele>
        <time>2021-05-28T17:15:44Z</time>
      </trkpt>
      <trkpt lat="37.0044643432" lon="-8.9447477181">
        <ele>39.55</ele>
        <time>2021-05-28T17:15:45Z</time>
      </trkpt>
      <trkpt lat="37.0045106951" lon="-8.9447896276">
        <ele>38.11</ele>
        <time>2021-05-28T17:15:46Z</time>
      </trkpt>
      <trkpt lat="37.0045742299" lon="-8.9448306151">
        <ele>37.63</ele>
        <time>2021-05-28T17:15:47Z</time>
      </trkpt>
      <trkpt lat="37.0046483260" lon="-8.9448745362">
        <ele>38.59</ele>
        <time>2021-05-28T17:15:48Z</time>
      </trkpt>
      <trkpt lat="37.0050997753" lon="-8.9451636281">
        <ele>37.63</ele>
        <time>2021-05-28T17:15:54Z</time>
      </trkpt>
      <trkpt lat="37.0058675576" lon="-8.9456527960">
        <ele>35.23</ele>
        <time>2021-05-28T17:16:04Z</time>
      </trkpt>
      <trkpt lat="37.0059390552" lon="-8.9456773549">
        <ele>35.71</ele>
        <time>2021-05-28T17:16:05Z</time>
      </trkpt>
      <trkpt lat="37.0060163364" lon="-8.9456785284">
        <ele>35.71</ele>
        <time>2021-05-28T17:16:06Z</time>
      </trkpt>
      <trkpt lat="37.0060978085" lon="-8.9456542209">
        <ele>36.67</ele>
        <time>2021-05-28T17:16:07Z</time>
      </trkpt>
      <trkpt lat="37.0061868243" lon="-8.9456102159">
        <ele>37.63</ele>
        <time>2021-05-28T17:16:08Z</time>
      </trkpt>
      <trkpt lat="37.0062781870" lon="-8.9455611818">
        <ele>37.63</ele>
        <time>2021-05-28T17:16:09Z</time>
      </trkpt>
      <trkpt lat="37.0073286071" lon="-8.9450451080">
        <ele>39.07</ele>
        <time>2021-05-28T17:16:21Z</time>
      </trkpt>
      <trkpt lat="37.0074141026" lon="-8.9449836686">
        <ele>39.07</ele>
        <time>2021-05-28T17:16:22Z</time>
      </trkpt>
      <trkpt lat="37.0074899588" lon="-8.9449120034">
        <ele>39.07</ele>
        <time>2021-05-28T17:16:23Z</time>
      </trkpt>
      <trkpt lat="37.0075488836" lon="-8.9448331296">
        <ele>39.55</ele>
        <time>2021-05-28T17:16:24Z</time>
      </trkpt>
      <trkpt lat="37.0076499693" lon="-8.9446965046">
        <ele>37.63</ele>
        <time>2021-05-28T17:16:26Z</time>
      </trkpt>
      <trkpt lat="37.0077170245" lon="-8.9446631446">
        <ele>37.63</ele>
        <time>2021-05-28T17:16:27Z</time>
      </trkpt>
      <trkpt lat="37.0077825710" lon="-8.9446685929">
        <ele>39.07</ele>
        <time>2021-05-28T17:16:28Z</time>
      </trkpt>
      <trkpt lat="37.0078382269" lon="-8.9447112568">
        <ele>39.55</ele>
        <time>2021-05-28T17:16:29Z</time>
      </trkpt>
      <trkpt lat="37.0078794658" lon="-8.9447864424">
        <ele>40.03</ele>
        <time>2021-05-28T17:16:30Z</time>
      </trkpt>
      <trkpt lat="37.0078967325" lon="-8.9448854327">
        <ele>39.07</ele>
        <time>2021-05-28T17:16:31Z</time>
      </trkpt>
      <trkpt lat="37.0078895241" lon="-8.9450025279">
        <ele>39.55</ele>
        <time>2021-05-28T17:16:32Z</time>
      </trkpt>
      <trkpt lat="37.0078765322" lon="-8.9451347105">
        <ele>40.51</ele>
        <time>2021-05-28T17:16:33Z</time>
      </trkpt>
      <trkpt lat="37.0078767836" lon="-8.9452719223">
        <ele>40.03</ele>
        <time>2021-05-28T17:16:34Z</time>
      </trkpt>
      <trkpt lat="37.0078946371" lon="-8.9454073738">
        <ele>40.99</ele>
        <time>2021-05-28T17:16:35Z</time>
      </trkpt>
      <trkpt lat="37.0079274103" lon="-8.9455441665">
        <ele>41.47</ele>
        <time>2021-05-28T17:16:36Z</time>
      </trkpt>
      <trkpt lat="37.0079710800" lon="-8.9456845634">
        <ele>41.47</ele>
        <time>2021-05-28T17:16:37Z</time>
      </trkpt>
      <trkpt lat="37.0084441546" lon="-8.9467695169">
        <ele>42.44</ele>
        <time>2021-05-28T17:16:45Z</time>
      </trkpt>
      <trkpt lat="37.0092815906" lon="-8.9482155629">
        <ele>38.59</ele>
        <time>2021-05-28T17:16:56Z</time>
      </trkpt>
      <trkpt lat="37.0100810565" lon="-8.9489913080">
        <ele>40.51</ele>
        <time>2021-05-28T17:17:03Z</time>
      </trkpt>
      <trkpt lat="37.0104263071" lon="-8.9492892008">
        <ele>37.63</ele>
        <time>2021-05-28T17:17:06Z</time>
      </trkpt>
      <trkpt lat="37.0110681094" lon="-8.9498355333">
        <ele>40.99</ele>
        <time>2021-05-28T17:17:11Z</time>
      </trkpt>
      <trkpt lat="37.0112065785" lon="-8.9499548916">
        <ele>40.99</ele>
        <time>2021-05-28T17:17:12Z</time>
      </trkpt>
      <trkpt lat="37.0120504685" lon="-8.9506738912">
        <ele>37.63</ele>
        <time>2021-05-28T17:17:18Z</time>
      </trkpt>
      <trkpt lat="37.0121860038" lon="-8.9507896453">
        <ele>38.11</ele>
        <time>2021-05-28T17:17:19Z</time>
      </trkpt>
      <trkpt lat="37.0140552521" lon="-8.9523967076">
        <ele>35.71</ele>
        <time>2021-05-28T17:17:32Z</time>
      </trkpt>
      <trkpt lat="37.0143075474" lon="-8.9526109491">
        <ele>37.63</ele>
        <time>2021-05-28T17:17:34Z</time>
      </trkpt>
      <trkpt lat="37.0148356073" lon="-8.9530585427">
        <ele>39.55</ele>
        <time>2021-05-28T17:17:38Z</time>
      </trkpt>
      <trkpt lat="37.0160945691" lon="-8.9541183505">
        <ele>40.99</ele>
        <time>2021-05-28T17:17:47Z</time>
      </trkpt>
      <trkpt lat="37.0183558390" lon="-8.9560067095">
        <ele>40.99</ele>
        <time>2021-05-28T17:18:02Z</time>
      </trkpt>
      <trkpt lat="37.0192834642" lon="-8.9567439817">
        <ele>42.92</ele>
        <time>2021-05-28T17:18:08Z</time>
      </trkpt>
      <trkpt lat="37.0197443012" lon="-8.9571003802">
        <ele>46.28</ele>
        <time>2021-05-28T17:18:11Z</time>
      </trkpt>
      <trkpt lat="37.0198980253" lon="-8.9572212473">
        <ele>45.80</ele>
        <time>2021-05-28T17:18:12Z</time>
      </trkpt>
      <trkpt lat="37.0208479464" lon="-8.9579625428">
        <ele>49.16</ele>
        <time>2021-05-28T17:18:18Z</time>
      </trkpt>
      <trkpt lat="37.0210050233" lon="-8.9580859244">
        <ele>48.68</ele>
        <time>2021-05-28T17:18:19Z</time>
      </trkpt>
      <trkpt lat="37.0225782227" lon="-8.9593130350">
        <ele>50.61</ele>
        <time>2021-05-28T17:18:29Z</time>
      </trkpt>
      <trkpt lat="37.0249398239" lon="-8.9611691236">
        <ele>53.97</ele>
        <time>2021-05-28T17:18:44Z</time>
      </trkpt>
      <trkpt lat="37.0262448862" lon="-8.9621887822">
        <ele>53.49</ele>
        <time>2021-05-28T17:18:54Z</time>
      </trkpt>
      <trkpt lat="37.0264735445" lon="-8.9623653889">
        <ele>54.45</ele>
        <time>2021-05-28T17:18:56Z</time>
      </trkpt>
      <trkpt lat="37.0267145243" lon="-8.9625516348">
        <ele>58.78</ele>
        <time>2021-05-28T17:18:58Z</time>
      </trkpt>
      <trkpt lat="37.0268394984" lon="-8.9626507927">
        <ele>58.78</ele>
        <time>2021-05-28T17:18:59Z</time>
      </trkpt>
      <trkpt lat="37.0273183566" lon="-8.9630503580">
        <ele>54.93</ele>
        <time>2021-05-28T17:19:03Z</time>
      </trkpt>
      <trkpt lat="37.0274160057" lon="-8.9631633461">
        <ele>54.93</ele>
        <time>2021-05-28T17:19:04Z</time>
      </trkpt>
      <trkpt lat="37.0274977293" lon="-8.9633002225">
        <ele>54.93</ele>
        <time>2021-05-28T17:19:05Z</time>
      </trkpt>
      <trkpt lat="37.0275567379" lon="-8.9634593949">
        <ele>54.45</ele>
        <time>2021-05-28T17:19:06Z</time>
      </trkpt>
      <trkpt lat="37.0275933668" lon="-8.9636391029">
        <ele>56.37</ele>
        <time>2021-05-28T17:19:07Z</time>
      </trkpt>
      <trkpt lat="37.0276121423" lon="-8.9638334792">
        <ele>58.30</ele>
        <time>2021-05-28T17:19:08Z</time>
      </trkpt>
      <trkpt lat="37.0276191831" lon="-8.9640333038">
        <ele>57.82</ele>
        <time>2021-05-28T17:19:09Z</time>
      </trkpt>
      <trkpt lat="37.0276224520" lon="-8.9642334636">
        <ele>60.70</ele>
        <time>2021-05-28T17:19:10Z</time>
      </trkpt>
      <trkpt lat="37.0276260562" lon="-8.9644295163">
        <ele>60.70</ele>
        <time>2021-05-28T17:19:11Z</time>
      </trkpt>
      <trkpt lat="37.0276816282" lon="-8.9672298264">
        <ele>60.70</ele>
        <time>2021-05-28T17:19:24Z</time>
      </trkpt>
      <trkpt lat="37.0277040079" lon="-8.9680924919">
        <ele>58.30</ele>
        <time>2021-05-28T17:19:28Z</time>
      </trkpt>
      <trkpt lat="37.0277055167" lon="-8.9688977413">
        <ele>63.10</ele>
        <time>2021-05-28T17:19:32Z</time>
      </trkpt>
      <trkpt lat="37.0276936982" lon="-8.9691076241">
        <ele>59.26</ele>
        <time>2021-05-28T17:19:33Z</time>
      </trkpt>
      <trkpt lat="37.0276301634" lon="-8.9699948486">
        <ele>64.07</ele>
        <time>2021-05-28T17:19:37Z</time>
      </trkpt>
      <trkpt lat="37.0276156627" lon="-8.9702225849">
        <ele>62.62</ele>
        <time>2021-05-28T17:19:38Z</time>
      </trkpt>
      <trkpt lat="37.0275800396" lon="-8.9709099010">
        <ele>61.18</ele>
        <time>2021-05-28T17:19:41Z</time>
      </trkpt>
      <trkpt lat="37.0275297482" lon="-8.9716071915">
        <ele>65.51</ele>
        <time>2021-05-28T17:19:44Z</time>
      </trkpt>
      <trkpt lat="37.0275106374" lon="-8.9718416333">
        <ele>61.18</ele>
        <time>2021-05-28T17:19:45Z</time>
      </trkpt>
      <trkpt lat="37.0274197776" lon="-8.9730355516">
        <ele>67.43</ele>
        <time>2021-05-28T17:19:50Z</time>
      </trkpt>
      <trkpt lat="37.0274010021" lon="-8.9732743520">
        <ele>64.55</ele>
        <time>2021-05-28T17:19:51Z</time>
      </trkpt>
      <trkpt lat="37.0272531454" lon="-8.9754580054">
        <ele>66.47</ele>
        <time>2021-05-28T17:20:00Z</time>
      </trkpt>
      <trkpt lat="37.0273199491" lon="-8.9761985466">
        <ele>68.39</ele>
        <time>2021-05-28T17:20:03Z</time>
      </trkpt>
      <trkpt lat="37.0274027623" lon="-8.9766994491">
        <ele>69.83</ele>
        <time>2021-05-28T17:20:05Z</time>
      </trkpt>
      <trkpt lat="37.0275382977" lon="-8.9774838276">
        <ele>73.68</ele>
        <time>2021-05-28T17:20:08Z</time>
      </trkpt>
      <trkpt lat="37.0276773535" lon="-8.9782692958">
        <ele>75.60</ele>
        <time>2021-05-28T17:20:11Z</time>
      </trkpt>
      <trkpt lat="37.0277645253" lon="-8.9787533507">
        <ele>77.04</ele>
        <time>2021-05-28T17:20:13Z</time>
      </trkpt>
      <trkpt lat="37.0282004680" lon="-8.9811218251">
        <ele>73.20</ele>
        <time>2021-05-28T17:20:23Z</time>
      </trkpt>
      <trkpt lat="37.0283150487" lon="-8.9819951355">
        <ele>74.16</ele>
        <time>2021-05-28T17:20:27Z</time>
      </trkpt>
      <trkpt lat="37.0283148810" lon="-8.9822139032">
        <ele>72.24</ele>
        <time>2021-05-28T17:20:28Z</time>
      </trkpt>
      <trkpt lat="37.0282603148" lon="-8.9835904632">
        <ele>68.87</ele>
        <time>2021-05-28T17:20:34Z</time>
      </trkpt>
      <trkpt lat="37.0282270387" lon="-8.9838174451">
        <ele>69.83</ele>
        <time>2021-05-28T17:20:35Z</time>
      </trkpt>
      <trkpt lat="37.0281733945" lon="-8.9840430859">
        <ele>68.87</ele>
        <time>2021-05-28T17:20:36Z</time>
      </trkpt>
      <trkpt lat="37.0280976221" lon="-8.9842693135">
        <ele>69.83</ele>
        <time>2021-05-28T17:20:37Z</time>
      </trkpt>
      <trkpt lat="37.0280076843" lon="-8.9844944514">
        <ele>70.79</ele>
        <time>2021-05-28T17:20:38Z</time>
      </trkpt>
      <trkpt lat="37.0279153995" lon="-8.9847122133">
        <ele>72.24</ele>
        <time>2021-05-28T17:20:39Z</time>
      </trkpt>
      <trkpt lat="37.0278252941" lon="-8.9849290531">
        <ele>68.87</ele>
        <time>2021-05-28T17:20:40Z</time>
      </trkpt>
      <trkpt lat="37.0277392957" lon="-8.9851398580">
        <ele>71.76</ele>
        <time>2021-05-28T17:20:41Z</time>
      </trkpt>
      <trkpt lat="37.0275786147" lon="-8.9855309576">
        <ele>68.39</ele>
        <time>2021-05-28T17:20:43Z</time>
      </trkpt>
      <trkpt lat="37.0274275728" lon="-8.9858967438">
        <ele>66.95</ele>
        <time>2021-05-28T17:20:45Z</time>
      </trkpt>
      <trkpt lat="37.0267025381" lon="-8.9876568597">
        <ele>67.91</ele>
        <time>2021-05-28T17:20:55Z</time>
      </trkpt>
      <trkpt lat="37.0259586442" lon="-8.9894583821">
        <ele>72.24</ele>
        <time>2021-05-28T17:21:04Z</time>
      </trkpt>
      <trkpt lat="37.0258713886" lon="-8.9896653313">
        <ele>71.27</ele>
        <time>2021-05-28T17:21:05Z</time>
      </trkpt>
      <trkpt lat="37.0252365433" lon="-8.9911949448">
        <ele>75.60</ele>
        <time>2021-05-28T17:21:12Z</time>
      </trkpt>
      <trkpt lat="37.0250492077" lon="-8.9916523453">
        <ele>71.27</ele>
        <time>2021-05-28T17:21:14Z</time>
      </trkpt>
      <trkpt lat="37.0249536540" lon="-8.9918830153">
        <ele>72.24</ele>
        <time>2021-05-28T17:21:15Z</time>
      </trkpt>
      <trkpt lat="37.0244969241" lon="-8.9929899294">
        <ele>70.79</ele>
        <time>2021-05-28T17:21:20Z</time>
      </trkpt>
      <trkpt lat="37.0239843708" lon="-8.9942071494">
        <ele>69.35</ele>
        <time>2021-05-28T17:21:27Z</time>
      </trkpt>
      <trkpt lat="37.0237808581" lon="-8.9946921263">
        <ele>65.99</ele>
        <time>2021-05-28T17:21:31Z</time>
      </trkpt>
      <trkpt lat="37.0237358473" lon="-8.9947879314">
        <ele>69.35</ele>
        <time>2021-05-28T17:21:32Z</time>
      </trkpt>
      <trkpt lat="37.0236608293" lon="-8.9949644543">
        <ele>70.31</ele>
        <time>2021-05-28T17:21:34Z</time>
      </trkpt>
      <trkpt lat="37.0236379467" lon="-8.9950406458">
        <ele>68.87</ele>
        <time>2021-05-28T17:21:35Z</time>
      </trkpt>
      <trkpt lat="37.0236202609" lon="-8.9951108024">
        <ele>68.87</ele>
        <time>2021-05-28T17:21:36Z</time>
      </trkpt>
      <trkpt lat="37.0236086100" lon="-8.9951773547">
        <ele>68.39</ele>
        <time>2021-05-28T17:21:37Z</time>
      </trkpt>
      <trkpt lat="37.0235988870" lon="-8.9952379558">
        <ele>68.39</ele>
        <time>2021-05-28T17:21:38Z</time>
      </trkpt>
      <trkpt lat="37.0236310735" lon="-8.9954874851">
        <ele>68.39</ele>
        <time>2021-05-28T17:21:46Z</time>
      </trkpt>
      <trkpt lat="37.0236418862" lon="-8.9955020696">
        <ele>68.39</ele>
        <time>2021-05-28T17:22:10Z</time>
      </trkpt>
      <trkpt lat="37.0236412995" lon="-8.9954966214">
        <ele>67.43</ele>
        <time>2021-05-28T17:23:06Z</time>
      </trkpt>
      <trkpt lat="37.0236366056" lon="-8.9954967052">
        <ele>68.39</ele>
        <time>2021-05-28T17:23:25Z</time>
      </trkpt>
      <trkpt lat="37.0236290619" lon="-8.9954946935">
        <ele>69.83</ele>
        <time>2021-05-28T17:28:25Z</time>
      </trkpt>
      <trkpt lat="37.0236216858" lon="-8.9955029078">
        <ele>69.35</ele>
        <time>2021-05-28T17:28:53Z</time>
      </trkpt>
      <trkpt lat="37.0236107055" lon="-8.9955052547">
        <ele>70.31</ele>
        <time>2021-05-28T17:29:15Z</time>
      </trkpt>
      <trkpt lat="37.0236225240" lon="-8.9955053385">
        <ele>69.35</ele>
        <time>2021-05-28T17:29:33Z</time>
      </trkpt>
      <trkpt lat="37.0236208476" lon="-8.9955123793">
        <ele>68.39</ele>
        <time>2021-05-28T17:29:55Z</time>
      </trkpt>
      <trkpt lat="37.0236301515" lon="-8.9955063444">
        <ele>69.83</ele>
        <time>2021-05-28T17:30:23Z</time>
      </trkpt>
      <trkpt lat="37.0236342587" lon="-8.9955048356">
        <ele>70.79</ele>
        <time>2021-05-28T17:30:33Z</time>
      </trkpt>
      <trkpt lat="37.0236214343" lon="-8.9955042489">
        <ele>69.35</ele>
        <time>2021-05-28T17:31:10Z</time>
      </trkpt>
      <trkpt lat="37.0236242842" lon="-8.9955087751">
        <ele>69.35</ele>
        <time>2021-05-28T17:31:37Z</time>
      </trkpt>
      <trkpt lat="37.0236221887" lon="-8.9955141395">
        <ele>68.87</ele>
        <time>2021-05-28T17:32:10Z</time>
      </trkpt>
      <trkpt lat="37.0236235298" lon="-8.9955211803">
        <ele>68.87</ele>
        <time>2021-05-28T17:32:23Z</time>
      </trkpt>
      <trkpt lat="37.0236176625" lon="-8.9955107868">
        <ele>68.87</ele>
        <time>2021-05-28T17:32:48Z</time>
      </trkpt>
      <trkpt lat="37.0236101188" lon="-8.9955149777">
        <ele>69.35</ele>
        <time>2021-05-28T17:33:11Z</time>
      </trkpt>
      <trkpt lat="37.0236020721" lon="-8.9955455717">
        <ele>70.31</ele>
        <time>2021-05-28T17:33:13Z</time>
      </trkpt>
      <trkpt lat="37.0235550497" lon="-8.9955419675">
        <ele>68.39</ele>
        <time>2021-05-28T17:33:15Z</time>
      </trkpt>
      <trkpt lat="37.0235297363" lon="-8.9955011476">
        <ele>67.91</ele>
        <time>2021-05-28T17:33:16Z</time>
      </trkpt>
      <trkpt lat="37.0235143136" lon="-8.9954495989">
        <ele>67.43</ele>
        <time>2021-05-28T17:33:17Z</time>
      </trkpt>
      <trkpt lat="37.0235117991" lon="-8.9953926019">
        <ele>67.91</ele>
        <time>2021-05-28T17:33:18Z</time>
      </trkpt>
      <trkpt lat="37.0235140622" lon="-8.9953215234">
        <ele>69.35</ele>
        <time>2021-05-28T17:33:19Z</time>
      </trkpt>
      <trkpt lat="37.0235278085" lon="-8.9952341001">
        <ele>69.35</ele>
        <time>2021-05-28T17:33:20Z</time>
      </trkpt>
      <trkpt lat="37.0235546306" lon="-8.9951427374">
        <ele>70.79</ele>
        <time>2021-05-28T17:33:21Z</time>
      </trkpt>
      <trkpt lat="37.0235951152" lon="-8.9950458426">
        <ele>70.31</ele>
        <time>2021-05-28T17:33:22Z</time>
      </trkpt>
      <trkpt lat="37.0239233505" lon="-8.9942567702">
        <ele>74.16</ele>
        <time>2021-05-28T17:33:28Z</time>
      </trkpt>
      <trkpt lat="37.0243488159" lon="-8.9932270534">
        <ele>73.68</ele>
        <time>2021-05-28T17:33:34Z</time>
      </trkpt>
      <trkpt lat="37.0246837568" lon="-8.9924104884">
        <ele>73.20</ele>
        <time>2021-05-28T17:33:38Z</time>
      </trkpt>
      <trkpt lat="37.0251358766" lon="-8.9913128782">
        <ele>74.64</ele>
        <time>2021-05-28T17:33:43Z</time>
      </trkpt>
      <trkpt lat="37.0259364322" lon="-8.9893726353">
        <ele>78.00</ele>
        <time>2021-05-28T17:33:51Z</time>
      </trkpt>
      <trkpt lat="37.0260435529" lon="-8.9891152270">
        <ele>77.52</ele>
        <time>2021-05-28T17:33:52Z</time>
      </trkpt>
      <trkpt lat="37.0262555312" lon="-8.9886055235">
        <ele>76.08</ele>
        <time>2021-05-28T17:33:54Z</time>
      </trkpt>
      <trkpt lat="37.0266787335" lon="-8.9875979349">
        <ele>74.16</ele>
        <time>2021-05-28T17:33:58Z</time>
      </trkpt>
      <trkpt lat="37.0273691509" lon="-8.9859427605">
        <ele>71.76</ele>
        <time>2021-05-28T17:34:05Z</time>
      </trkpt>
      <trkpt lat="37.0279099513" lon="-8.9846221916">
        <ele>68.39</ele>
        <time>2021-05-28T17:34:11Z</time>
      </trkpt>
      <trkpt lat="37.0279988833" lon="-8.9844079502">
        <ele>67.91</ele>
        <time>2021-05-28T17:34:12Z</time>
      </trkpt>
      <trkpt lat="37.0281546190" lon="-8.9839776233">
        <ele>69.35</ele>
        <time>2021-05-28T17:34:14Z</time>
      </trkpt>
      <trkpt lat="37.0282032341" lon="-8.9837505575">
        <ele>68.39</ele>
        <time>2021-05-28T17:34:15Z</time>
      </trkpt>
      <trkpt lat="37.0282329060" lon="-8.9835273474">
        <ele>69.35</ele>
        <time>2021-05-28T17:34:16Z</time>
      </trkpt>
      <trkpt lat="37.0282496698" lon="-8.9833138604">
        <ele>67.91</ele>
        <time>2021-05-28T17:34:17Z</time>
      </trkpt>
      <trkpt lat="37.0282590576" lon="-8.9831073303">
        <ele>67.91</ele>
        <time>2021-05-28T17:34:18Z</time>
      </trkpt>
      <trkpt lat="37.0281278808" lon="-8.9807893150">
        <ele>70.79</ele>
        <time>2021-05-28T17:34:29Z</time>
      </trkpt>
      <trkpt lat="37.0280435588" lon="-8.9803368598">
        <ele>71.27</ele>
        <time>2021-05-28T17:34:31Z</time>
      </trkpt>
      <trkpt lat="37.0276192669" lon="-8.9779627696">
        <ele>71.76</ele>
        <time>2021-05-28T17:34:41Z</time>
      </trkpt>
      <trkpt lat="37.0274978969" lon="-8.9772689156">
        <ele>67.91</ele>
        <time>2021-05-28T17:34:44Z</time>
      </trkpt>
      <trkpt lat="37.0274616033" lon="-8.9770586975">
        <ele>67.91</ele>
        <time>2021-05-28T17:34:45Z</time>
      </trkpt>
      <trkpt lat="37.0274005830" lon="-8.9767002035">
        <ele>64.55</ele>
        <time>2021-05-28T17:34:47Z</time>
      </trkpt>
      <trkpt lat="37.0273297559" lon="-8.9763246104">
        <ele>60.70</ele>
        <time>2021-05-28T17:34:50Z</time>
      </trkpt>
      <trkpt lat="37.0272834040" lon="-8.9761330001">
        <ele>58.78</ele>
        <time>2021-05-28T17:34:53Z</time>
      </trkpt>
      <trkpt lat="37.0272644609" lon="-8.9760511927">
        <ele>58.78</ele>
        <time>2021-05-28T17:35:01Z</time>
      </trkpt>
      <trkpt lat="37.0272210427" lon="-8.9759362768">
        <ele>59.26</ele>
        <time>2021-05-28T17:35:26Z</time>
      </trkpt>
      <trkpt lat="37.0272271615" lon="-8.9759006537">
        <ele>59.26</ele>
        <time>2021-05-28T17:35:28Z</time>
      </trkpt>
      <trkpt lat="37.0272387285" lon="-8.9758832194">
        <ele>59.26</ele>
        <time>2021-05-28T17:35:29Z</time>
      </trkpt>
      <trkpt lat="37.0272832364" lon="-8.9758805372">
        <ele>60.22</ele>
        <time>2021-05-28T17:35:31Z</time>
      </trkpt>
      <trkpt lat="37.0273030177" lon="-8.9759112149">
        <ele>60.70</ele>
        <time>2021-05-28T17:35:32Z</time>
      </trkpt>
      <trkpt lat="37.0273114834" lon="-8.9759629313">
        <ele>60.22</ele>
        <time>2021-05-28T17:35:33Z</time>
      </trkpt>
      <trkpt lat="37.0273175184" lon="-8.9760347642">
        <ele>60.70</ele>
        <time>2021-05-28T17:35:34Z</time>
      </trkpt>
      <trkpt lat="37.0273548178" lon="-8.9763496723">
        <ele>64.07</ele>
        <time>2021-05-28T17:35:37Z</time>
      </trkpt>
      <trkpt lat="37.0274371281" lon="-8.9768853597">
        <ele>64.55</ele>
        <time>2021-05-28T17:35:41Z</time>
      </trkpt>
      <trkpt lat="37.0275214501" lon="-8.9773454424">
        <ele>67.91</ele>
        <time>2021-05-28T17:35:44Z</time>
      </trkpt>
      <trkpt lat="37.0276383776" lon="-8.9780051820">
        <ele>69.35</ele>
        <time>2021-05-28T17:35:49Z</time>
      </trkpt>
      <trkpt lat="37.0277170837" lon="-8.9783765841">
        <ele>68.87</ele>
        <time>2021-05-28T17:35:54Z</time>
      </trkpt>
      <trkpt lat="37.0277373679" lon="-8.9784368500">
        <ele>68.39</ele>
        <time>2021-05-28T17:35:55Z</time>
      </trkpt>
      <trkpt lat="37.0277605858" lon="-8.9784858003">
        <ele>68.39</ele>
        <time>2021-05-28T17:35:56Z</time>
      </trkpt>
      <trkpt lat="37.0278009027" lon="-8.9785786718">
        <ele>66.47</ele>
        <time>2021-05-28T17:36:03Z</time>
      </trkpt>
      <trkpt lat="37.0278012380" lon="-8.9786031470">
        <ele>66.95</ele>
        <time>2021-05-28T17:36:05Z</time>
      </trkpt>
      <trkpt lat="37.0277941134" lon="-8.9786230121">
        <ele>66.95</ele>
        <time>2021-05-28T17:36:06Z</time>
      </trkpt>
      <trkpt lat="37.0277772658" lon="-8.9786354173">
        <ele>65.99</ele>
        <time>2021-05-28T17:36:07Z</time>
      </trkpt>
      <trkpt lat="37.0277550537" lon="-8.9786418714">
        <ele>65.51</ele>
        <time>2021-05-28T17:36:08Z</time>
      </trkpt>
      <trkpt lat="37.0277331769" lon="-8.9786295500">
        <ele>65.51</ele>
        <time>2021-05-28T17:36:09Z</time>
      </trkpt>
      <trkpt lat="37.0277188439" lon="-8.9785930049">
        <ele>64.55</ele>
        <time>2021-05-28T17:36:10Z</time>
      </trkpt>
      <trkpt lat="37.0277081989" lon="-8.9785307273">
        <ele>65.99</ele>
        <time>2021-05-28T17:36:11Z</time>
      </trkpt>
      <trkpt lat="37.0276920218" lon="-8.9784405380">
        <ele>66.47</ele>
        <time>2021-05-28T17:36:12Z</time>
      </trkpt>
      <trkpt lat="37.0276740845" lon="-8.9783383626">
        <ele>66.95</ele>
        <time>2021-05-28T17:36:13Z</time>
      </trkpt>
      <trkpt lat="37.0275310893" lon="-8.9775312692">
        <ele>63.10</ele>
        <time>2021-05-28T17:36:20Z</time>
      </trkpt>
      <trkpt lat="37.0275135711" lon="-8.9774555806">
        <ele>63.10</ele>
        <time>2021-05-28T17:36:21Z</time>
      </trkpt>
      <trkpt lat="37.0274963882" lon="-8.9773854241">
        <ele>63.10</ele>
        <time>2021-05-28T17:36:22Z</time>
      </trkpt>
      <trkpt lat="37.0274847373" lon="-8.9773226436">
        <ele>62.14</ele>
        <time>2021-05-28T17:36:23Z</time>
      </trkpt>
      <trkpt lat="37.0274140779" lon="-8.9769263472">
        <ele>60.70</ele>
        <time>2021-05-28T17:36:35Z</time>
      </trkpt>
      <trkpt lat="37.0274035167" lon="-8.9769047219">
        <ele>60.22</ele>
        <time>2021-05-28T17:36:53Z</time>
      </trkpt>
      <trkpt lat="37.0273921173" lon="-8.9769066498">
        <ele>61.18</ele>
        <time>2021-05-28T17:37:29Z</time>
      </trkpt>
      <trkpt lat="37.0273898542" lon="-8.9769064821">
        <ele>59.74</ele>
        <time>2021-05-28T17:38:14Z</time>
      </trkpt>
      <trkpt lat="37.0273823943" lon="-8.9767428674">
        <ele>62.14</ele>
        <time>2021-05-28T17:38:35Z</time>
      </trkpt>
      <trkpt lat="37.0273650438" lon="-8.9765644167">
        <ele>63.10</ele>
        <time>2021-05-28T17:38:37Z</time>
      </trkpt>
      <trkpt lat="37.0272413269" lon="-8.9755875058">
        <ele>61.66</ele>
        <time>2021-05-28T17:38:44Z</time>
      </trkpt>
      <trkpt lat="37.0272709150" lon="-8.9748793188">
        <ele>64.07</ele>
        <time>2021-05-28T17:38:48Z</time>
      </trkpt>
      <trkpt lat="37.0273843221" lon="-8.9733831491">
        <ele>60.70</ele>
        <time>2021-05-28T17:38:56Z</time>
      </trkpt>
      <trkpt lat="37.0274868328" lon="-8.9720449783">
        <ele>59.74</ele>
        <time>2021-05-28T17:39:03Z</time>
      </trkpt>
      <trkpt lat="37.0276701450" lon="-8.9695539605">
        <ele>59.74</ele>
        <time>2021-05-28T17:39:16Z</time>
      </trkpt>
      <trkpt lat="37.0276916027" lon="-8.9691455942">
        <ele>58.78</ele>
        <time>2021-05-28T17:39:18Z</time>
      </trkpt>
      <trkpt lat="37.0277001522" lon="-8.9687397424">
        <ele>59.74</ele>
        <time>2021-05-28T17:39:20Z</time>
      </trkpt>
      <trkpt lat="37.0276971348" lon="-8.9683305379">
        <ele>57.34</ele>
        <time>2021-05-28T17:39:22Z</time>
      </trkpt>
      <trkpt lat="37.0276431553" lon="-8.9657825232">
        <ele>59.26</ele>
        <time>2021-05-28T17:39:34Z</time>
      </trkpt>
      <trkpt lat="37.0276018325" lon="-8.9639558550">
        <ele>55.41</ele>
        <time>2021-05-28T17:39:43Z</time>
      </trkpt>
      <trkpt lat="37.0275714900" lon="-8.9636272006">
        <ele>55.41</ele>
        <time>2021-05-28T17:39:45Z</time>
      </trkpt>
      <trkpt lat="37.0275267307" lon="-8.9634554554">
        <ele>56.37</ele>
        <time>2021-05-28T17:39:46Z</time>
      </trkpt>
      <trkpt lat="37.0274573285" lon="-8.9632921759">
        <ele>55.41</ele>
        <time>2021-05-28T17:39:47Z</time>
      </trkpt>
      <trkpt lat="37.0273702405" lon="-8.9631518628">
        <ele>53.97</ele>
        <time>2021-05-28T17:39:48Z</time>
      </trkpt>
      <trkpt lat="37.0272680651" lon="-8.9630329236">
        <ele>53.01</ele>
        <time>2021-05-28T17:39:49Z</time>
      </trkpt>
      <trkpt lat="37.0271551609" lon="-8.9629304130">
        <ele>53.49</ele>
        <time>2021-05-28T17:39:50Z</time>
      </trkpt>
      <trkpt lat="37.0270318631" lon="-8.9628375415">
        <ele>53.01</ele>
        <time>2021-05-28T17:39:51Z</time>
      </trkpt>
      <trkpt lat="37.0269070566" lon="-8.9627463464">
        <ele>52.53</ele>
        <time>2021-05-28T17:39:52Z</time>
      </trkpt>
      <trkpt lat="37.0257019065" lon="-8.9618099201">
        <ele>51.57</ele>
        <time>2021-05-28T17:40:01Z</time>
      </trkpt>
      <trkpt lat="37.0242352411" lon="-8.9606520440">
        <ele>49.65</ele>
        <time>2021-05-28T17:40:10Z</time>
      </trkpt>
      <trkpt lat="37.0233111363" lon="-8.9599180408">
        <ele>47.24</ele>
        <time>2021-05-28T17:40:15Z</time>
      </trkpt>
      <trkpt lat="37.0215894096" lon="-8.9585662913">
        <ele>44.36</ele>
        <time>2021-05-28T17:40:24Z</time>
      </trkpt>
      <trkpt lat="37.0208930410" lon="-8.9580254070">
        <ele>41.47</ele>
        <time>2021-05-28T17:40:28Z</time>
      </trkpt>
      <trkpt lat="37.0205878559" lon="-8.9577840921">
        <ele>39.07</ele>
        <time>2021-05-28T17:40:30Z</time>
      </trkpt>
      <trkpt lat="37.0192136429" lon="-8.9567091968">
        <ele>37.15</ele>
        <time>2021-05-28T17:40:40Z</time>
      </trkpt>
      <trkpt lat="37.0188170951" lon="-8.9563957136">
        <ele>35.71</ele>
        <time>2021-05-28T17:40:43Z</time>
      </trkpt>
      <trkpt lat="37.0184436813" lon="-8.9561002515">
        <ele>33.78</ele>
        <time>2021-05-28T17:40:46Z</time>
      </trkpt>
      <trkpt lat="37.0177111868" lon="-8.9555100817">
        <ele>32.34</ele>
        <time>2021-05-28T17:40:52Z</time>
      </trkpt>
      <trkpt lat="37.0164725929" lon="-8.9544673730">
        <ele>33.78</ele>
        <time>2021-05-28T17:41:02Z</time>
      </trkpt>
      <trkpt lat="37.0142342057" lon="-8.9525516890">
        <ele>33.78</ele>
        <time>2021-05-28T17:41:16Z</time>
      </trkpt>
      <trkpt lat="37.0122042764" lon="-8.9508183952">
        <ele>33.78</ele>
        <time>2021-05-28T17:41:29Z</time>
      </trkpt>
      <trkpt lat="37.0105143171" lon="-8.9493742771">
        <ele>37.63</ele>
        <time>2021-05-28T17:41:40Z</time>
      </trkpt>
      <trkpt lat="37.0103844814" lon="-8.9492582716">
        <ele>37.15</ele>
        <time>2021-05-28T17:41:41Z</time>
      </trkpt>
      <trkpt lat="37.0093464665" lon="-8.9483158104">
        <ele>39.55</ele>
        <time>2021-05-28T17:41:50Z</time>
      </trkpt>
      <trkpt lat="37.0090491604" lon="-8.9478635229">
        <ele>40.51</ele>
        <time>2021-05-28T17:41:53Z</time>
      </trkpt>
      <trkpt lat="37.0081414841" lon="-8.9462129585">
        <ele>40.51</ele>
        <time>2021-05-28T17:42:03Z</time>
      </trkpt>
      <trkpt lat="37.0080758538" lon="-8.9460487571">
        <ele>41.47</ele>
        <time>2021-05-28T17:42:04Z</time>
      </trkpt>
      <trkpt lat="37.0078135002" lon="-8.9452923741">
        <ele>40.51</ele>
        <time>2021-05-28T17:42:10Z</time>
      </trkpt>
      <trkpt lat="37.0077606104" lon="-8.9452109020">
        <ele>40.99</ele>
        <time>2021-05-28T17:42:11Z</time>
      </trkpt>
      <trkpt lat="37.0077016857" lon="-8.9451403264">
        <ele>40.51</ele>
        <time>2021-05-28T17:42:12Z</time>
      </trkpt>
      <trkpt lat="37.0075886138" lon="-8.9449855965">
        <ele>39.55</ele>
        <time>2021-05-28T17:42:14Z</time>
      </trkpt>
      <trkpt lat="37.0075612050" lon="-8.9448881987">
        <ele>40.03</ele>
        <time>2021-05-28T17:42:15Z</time>
      </trkpt>
      <trkpt lat="37.0075594448" lon="-8.9447850175">
        <ele>40.51</ele>
        <time>2021-05-28T17:42:16Z</time>
      </trkpt>
      <trkpt lat="37.0075705927" lon="-8.9445420261">
        <ele>40.03</ele>
        <time>2021-05-28T17:42:18Z</time>
      </trkpt>
      <trkpt lat="37.0075577684" lon="-8.9444086701">
        <ele>40.03</ele>
        <time>2021-05-28T17:42:19Z</time>
      </trkpt>
      <trkpt lat="37.0074244123" lon="-8.9432222955">
        <ele>39.55</ele>
        <time>2021-05-28T17:42:29Z</time>
      </trkpt>
      <trkpt lat="37.0073064789" lon="-8.9421482384">
        <ele>38.59</ele>
        <time>2021-05-28T17:42:39Z</time>
      </trkpt>
      <trkpt lat="37.0072759688" lon="-8.9419919997">
        <ele>38.11</ele>
        <time>2021-05-28T17:42:41Z</time>
      </trkpt>
      <trkpt lat="37.0072554331" lon="-8.9419431332">
        <ele>37.15</ele>
        <time>2021-05-28T17:42:42Z</time>
      </trkpt>
      <trkpt lat="37.0072359871" lon="-8.9419131260">
        <ele>37.63</ele>
        <time>2021-05-28T17:42:43Z</time>
      </trkpt>
      <trkpt lat="37.0072209835" lon="-8.9418897405">
        <ele>37.63</ele>
        <time>2021-05-28T17:42:44Z</time>
      </trkpt>
      <trkpt lat="37.0072093327" lon="-8.9418749884">
        <ele>37.15</ele>
        <time>2021-05-28T17:42:45Z</time>
      </trkpt>
      <trkpt lat="37.0071904734" lon="-8.9418200869">
        <ele>37.15</ele>
        <time>2021-05-28T17:42:54Z</time>
      </trkpt>
      <trkpt lat="37.0071860310" lon="-8.9417995512">
        <ele>37.15</ele>
        <time>2021-05-28T17:42:55Z</time>
      </trkpt>
      <trkpt lat="37.0071745478" lon="-8.9417300653">
        <ele>36.19</ele>
        <time>2021-05-28T17:43:07Z</time>
      </trkpt>
      <trkpt lat="37.0071771462" lon="-8.9415550511">
        <ele>37.63</ele>
        <time>2021-05-28T17:43:17Z</time>
      </trkpt>
      <trkpt lat="37.0071712788" lon="-8.9415371139">
        <ele>38.11</ele>
        <time>2021-05-28T17:43:18Z</time>
      </trkpt>
      <trkpt lat="37.0071637351" lon="-8.9415216073">
        <ele>38.11</ele>
        <time>2021-05-28T17:43:19Z</time>
      </trkpt>
      <trkpt lat="37.0071549341" lon="-8.9415046759">
        <ele>37.63</ele>
        <time>2021-05-28T17:43:20Z</time>
      </trkpt>
      <trkpt lat="37.0070517529" lon="-8.9414115530">
        <ele>38.11</ele>
        <time>2021-05-28T17:43:27Z</time>
      </trkpt>
      <trkpt lat="37.0070349053" lon="-8.9414191805">
        <ele>38.59</ele>
        <time>2021-05-28T17:43:28Z</time>
      </trkpt>
      <trkpt lat="37.0070192311" lon="-8.9414287359">
        <ele>38.11</ele>
        <time>2021-05-28T17:43:29Z</time>
      </trkpt>
      <trkpt lat="37.0070084184" lon="-8.9414383750">
        <ele>38.59</ele>
        <time>2021-05-28T17:43:30Z</time>
      </trkpt>
      <trkpt lat="37.0069773216" lon="-8.9414793625">
        <ele>38.11</ele>
        <time>2021-05-28T17:43:47Z</time>
      </trkpt>
      <trkpt lat="37.0069521759" lon="-8.9414971322">
        <ele>38.11</ele>
        <time>2021-05-28T17:44:31Z</time>
      </trkpt>
      <trkpt lat="37.0069535170" lon="-8.9414910972">
        <ele>38.59</ele>
        <time>2021-05-28T17:44:46Z</time>
      </trkpt>
      <trkpt lat="37.0069805905" lon="-8.9414781053">
        <ele>38.59</ele>
        <time>2021-05-28T17:48:02Z</time>
      </trkpt>
      <trkpt lat="37.0069706999" lon="-8.9414719027">
        <ele>38.59</ele>
        <time>2021-05-28T17:48:03Z</time>
      </trkpt>
      <trkpt lat="37.0069598034" lon="-8.9414494392">
        <ele>38.59</ele>
        <time>2021-05-28T17:48:06Z</time>
      </trkpt>
      <trkpt lat="37.0068005472" lon="-8.9415906742">
        <ele>37.15</ele>
        <time>2021-05-28T17:48:18Z</time>
      </trkpt>
      <trkpt lat="37.0067799278" lon="-8.9415894169">
        <ele>37.63</ele>
        <time>2021-05-28T17:48:36Z</time>
      </trkpt>
      <trkpt lat="37.0067691151" lon="-8.9415604156">
        <ele>37.63</ele>
        <time>2021-05-28T17:49:07Z</time>
      </trkpt>
      <trkpt lat="37.0067845378" lon="-8.9415801130">
        <ele>37.15</ele>
        <time>2021-05-28T17:49:30Z</time>
      </trkpt>
      <trkpt lat="37.0067941770" lon="-8.9416008163">
        <ele>38.11</ele>
        <time>2021-05-28T17:49:50Z</time>
      </trkpt>
      <trkpt lat="37.0067899022" lon="-8.9415857289">
        <ele>36.67</ele>
        <time>2021-05-28T17:50:16Z</time>
      </trkpt>
      <trkpt lat="37.0071823429" lon="-8.9416068513">
        <ele>30.90</ele>
        <time>2021-05-28T21:28:25Z</time>
      </trkpt>
      <trkpt lat="37.0070879627" lon="-8.9417371061">
        <ele>30.90</ele>
        <time>2021-05-28T21:28:53Z</time>
      </trkpt>
      <trkpt lat="37.0069927443" lon="-8.9419282973">
        <ele>30.90</ele>
        <time>2021-05-28T21:29:24Z</time>
      </trkpt>
      <trkpt lat="37.0069720410" lon="-8.9420070872">
        <ele>30.90</ele>
        <time>2021-05-28T21:29:56Z</time>
      </trkpt>
      <trkpt lat="37.0069883857" lon="-8.9419443905">
        <ele>31.86</ele>
        <time>2021-05-28T21:30:26Z</time>
      </trkpt>
      <trkpt lat="37.0069877151" lon="-8.9419822767">
        <ele>31.86</ele>
        <time>2021-05-28T21:30:51Z</time>
      </trkpt>
      <trkpt lat="37.0069977734" lon="-8.9420018066">
        <ele>30.90</ele>
        <time>2021-05-28T21:31:29Z</time>
      </trkpt>
      <trkpt lat="37.0070140343" lon="-8.9419578016">
        <ele>31.38</ele>
        <time>2021-05-28T21:32:01Z</time>
      </trkpt>
      <trkpt lat="37.0070187282" lon="-8.9418406226">
        <ele>31.38</ele>
        <time>2021-05-28T21:32:33Z</time>
      </trkpt>
      <trkpt lat="37.0070062391" lon="-8.9419201668">
        <ele>31.38</ele>
        <time>2021-05-28T21:33:05Z</time>
      </trkpt>
      <trkpt lat="37.0069816802" lon="-8.9419389423">
        <ele>31.86</ele>
        <time>2021-05-28T21:33:38Z</time>
      </trkpt>
      <trkpt lat="37.0070090052" lon="-8.9418426342">
        <ele>31.86</ele>
        <time>2021-05-28T21:34:20Z</time>
      </trkpt>
      <trkpt lat="37.0069948398" lon="-8.9418801852">
        <ele>32.34</ele>
        <time>2021-05-28T21:34:49Z</time>
      </trkpt>
      <trkpt lat="37.0069708675" lon="-8.9418633375">
        <ele>31.86</ele>
        <time>2021-05-28T21:35:29Z</time>
      </trkpt>
      <trkpt lat="37.0069696940" lon="-8.9418935962">
        <ele>32.34</ele>
        <time>2021-05-28T21:36:12Z</time>
      </trkpt>
      <trkpt lat="37.0069565345" lon="-8.9419369306">
        <ele>33.30</ele>
        <time>2021-05-28T21:37:02Z</time>
      </trkpt>
      <trkpt lat="37.0069827698" lon="-8.9419474080">
        <ele>33.78</ele>
        <time>2021-05-28T21:37:43Z</time>
      </trkpt>
      <trkpt lat="37.0069806743" lon="-8.9419237711">
        <ele>34.26</ele>
        <time>2021-05-28T21:38:17Z</time>
      </trkpt>
      <trkpt lat="37.0069651678" lon="-8.9420192409">
        <ele>34.74</ele>
        <time>2021-05-28T21:38:50Z</time>
      </trkpt>
      <trkpt lat="37.0069472305" lon="-8.9420510922">
        <ele>34.74</ele>
        <time>2021-05-28T21:39:18Z</time>
      </trkpt>
      <trkpt lat="37.0069522597" lon="-8.9420463145">
        <ele>35.71</ele>
        <time>2021-05-28T21:39:49Z</time>
      </trkpt>
      <trkpt lat="37.0069682691" lon="-8.9421417005">
        <ele>35.23</ele>
        <time>2021-05-28T21:40:20Z</time>
      </trkpt>
      <trkpt lat="37.0069245994" lon="-8.9420794230">
        <ele>35.23</ele>
        <time>2021-05-28T21:40:47Z</time>
      </trkpt>
      <trkpt lat="37.0069216657" lon="-8.9418770839">
        <ele>36.19</ele>
        <time>2021-05-28T21:41:14Z</time>
      </trkpt>
      <trkpt lat="37.0069249347" lon="-8.9419305604">
        <ele>35.71</ele>
        <time>2021-05-28T21:41:43Z</time>
      </trkpt>
      <trkpt lat="37.0069541037" lon="-8.9419378527">
        <ele>36.67</ele>
        <time>2021-05-28T21:41:53Z</time>
      </trkpt>
      <trkpt lat="37.0065966994" lon="-8.9415100403">
        <ele>11.19</ele>
        <time>2021-05-29T08:01:56Z</time>
      </trkpt>
      <trkpt lat="37.0066298917" lon="-8.9415718988">
        <ele>12.15</ele>
        <time>2021-05-29T08:02:22Z</time>
      </trkpt>
      <trkpt lat="37.0067474898" lon="-8.9416008163">
        <ele>16.00</ele>
        <time>2021-05-29T08:02:37Z</time>
      </trkpt>
      <trkpt lat="37.0067446399" lon="-8.9416020736">
        <ele>16.00</ele>
        <time>2021-05-29T08:02:38Z</time>
      </trkpt>
      <trkpt lat="37.0067370962" lon="-8.9415987208">
        <ele>19.84</ele>
        <time>2021-05-29T08:02:43Z</time>
      </trkpt>
      <trkpt lat="37.0067391079" lon="-8.9415982179">
        <ele>20.32</ele>
        <time>2021-05-29T08:02:45Z</time>
      </trkpt>
      <trkpt lat="37.0067453105" lon="-8.9416050073">
        <ele>23.21</ele>
        <time>2021-05-29T08:02:50Z</time>
      </trkpt>
      <trkpt lat="37.0067521837" lon="-8.9416147303">
        <ele>26.57</ele>
        <time>2021-05-29T08:02:57Z</time>
      </trkpt>
      <trkpt lat="37.0067516807" lon="-8.9416119643">
        <ele>29.94</ele>
        <time>2021-05-29T08:03:11Z</time>
      </trkpt>
      <trkpt lat="37.0067484118" lon="-8.9416044205">
        <ele>33.30</ele>
        <time>2021-05-29T08:03:32Z</time>
      </trkpt>
      <trkpt lat="37.0067532733" lon="-8.9415940270">
        <ele>34.74</ele>
        <time>2021-05-29T08:03:52Z</time>
      </trkpt>
      <trkpt lat="37.0067794248" lon="-8.9415554702">
        <ele>34.74</ele>
        <time>2021-05-29T08:04:13Z</time>
      </trkpt>
      <trkpt lat="37.0067966916" lon="-8.9415497705">
        <ele>34.74</ele>
        <time>2021-05-29T08:04:20Z</time>
      </trkpt>
      <trkpt lat="37.0069519244" lon="-8.9414532948">
        <ele>33.78</ele>
        <time>2021-05-29T08:04:30Z</time>
      </trkpt>
      <trkpt lat="37.0069941692" lon="-8.9414639398">
        <ele>33.78</ele>
        <time>2021-05-29T08:04:46Z</time>
      </trkpt>
      <trkpt lat="37.0070058201" lon="-8.9414663706">
        <ele>34.26</ele>
        <time>2021-05-29T08:04:50Z</time>
      </trkpt>
      <trkpt lat="37.0070574526" lon="-8.9415169135">
        <ele>35.23</ele>
        <time>2021-05-29T08:04:53Z</time>
      </trkpt>
      <trkpt lat="37.0070760604" lon="-8.9415194280">
        <ele>34.74</ele>
        <time>2021-05-29T08:04:54Z</time>
      </trkpt>
      <trkpt lat="37.0070898905" lon="-8.9415149018">
        <ele>34.74</ele>
        <time>2021-05-29T08:04:55Z</time>
      </trkpt>
      <trkpt lat="37.0071506593" lon="-8.9414665382">
        <ele>35.23</ele>
        <time>2021-05-29T08:05:08Z</time>
      </trkpt>
      <trkpt lat="37.0071881264" lon="-8.9414700586">
        <ele>35.71</ele>
        <time>2021-05-29T08:05:09Z</time>
      </trkpt>
      <trkpt lat="37.0072390884" lon="-8.9414894208">
        <ele>37.15</ele>
        <time>2021-05-29T08:05:10Z</time>
      </trkpt>
      <trkpt lat="37.0072941575" lon="-8.9415303245">
        <ele>38.11</ele>
        <time>2021-05-29T08:05:11Z</time>
      </trkpt>
      <trkpt lat="37.0073370729" lon="-8.9415905066">
        <ele>37.15</ele>
        <time>2021-05-29T08:05:12Z</time>
      </trkpt>
      <trkpt lat="37.0073562674" lon="-8.9416622557">
        <ele>37.15</ele>
        <time>2021-05-29T08:05:13Z</time>
      </trkpt>
      <trkpt lat="37.0073473826" lon="-8.9417393692">
        <ele>36.67</ele>
        <time>2021-05-29T08:05:14Z</time>
      </trkpt>
      <trkpt lat="37.0073211472" lon="-8.9418132976">
        <ele>37.15</ele>
        <time>2021-05-29T08:05:15Z</time>
      </trkpt>
      <trkpt lat="37.0072942413" lon="-8.9418933447">
        <ele>36.67</ele>
        <time>2021-05-29T08:05:16Z</time>
      </trkpt>
      <trkpt lat="37.0072816685" lon="-8.9419895690">
        <ele>35.23</ele>
        <time>2021-05-29T08:05:17Z</time>
      </trkpt>
      <trkpt lat="37.0072855242" lon="-8.9420904033">
        <ele>35.71</ele>
        <time>2021-05-29T08:05:18Z</time>
      </trkpt>
      <trkpt lat="37.0072976779" lon="-8.9421858732">
        <ele>37.15</ele>
        <time>2021-05-29T08:05:19Z</time>
      </trkpt>
      <trkpt lat="37.0073107537" lon="-8.9422784094">
        <ele>36.67</ele>
        <time>2021-05-29T08:05:20Z</time>
      </trkpt>
      <trkpt lat="37.0074265078" lon="-8.9433299191">
        <ele>36.19</ele>
        <time>2021-05-29T08:05:31Z</time>
      </trkpt>
      <trkpt lat="37.0075446926" lon="-8.9442660101">
        <ele>35.71</ele>
        <time>2021-05-29T08:05:39Z</time>
      </trkpt>
      <trkpt lat="37.0075811539" lon="-8.9443969354">
        <ele>36.67</ele>
        <time>2021-05-29T08:05:40Z</time>
      </trkpt>
      <trkpt lat="37.0076314453" lon="-8.9445137791">
        <ele>36.19</ele>
        <time>2021-05-29T08:05:41Z</time>
      </trkpt>
      <trkpt lat="37.0076938905" lon="-8.9446091652">
        <ele>36.19</ele>
        <time>2021-05-29T08:05:42Z</time>
      </trkpt>
      <trkpt lat="37.0077627059" lon="-8.9446745440">
        <ele>36.67</ele>
        <time>2021-05-29T08:05:43Z</time>
      </trkpt>
      <trkpt lat="37.0078425016" lon="-8.9447126817">
        <ele>37.63</ele>
        <time>2021-05-29T08:05:44Z</time>
      </trkpt>
      <trkpt lat="37.0079316851" lon="-8.9447198063">
        <ele>39.07</ele>
        <time>2021-05-29T08:05:45Z</time>
      </trkpt>
      <trkpt lat="37.0080317650" lon="-8.9447011147">
        <ele>39.55</ele>
        <time>2021-05-29T08:05:46Z</time>
      </trkpt>
      <trkpt lat="37.0081385504" lon="-8.9446628094">
        <ele>41.47</ele>
        <time>2021-05-29T08:05:47Z</time>
      </trkpt>
      <trkpt lat="37.0082500298" lon="-8.9446119312">
        <ele>41.47</ele>
        <time>2021-05-29T08:05:48Z</time>
      </trkpt>
      <trkpt lat="37.0090590511" lon="-8.9442380145">
        <ele>42.92</ele>
        <time>2021-05-29T08:05:55Z</time>
      </trkpt>
      <trkpt lat="37.0093059819" lon="-8.9441177342">
        <ele>40.99</ele>
        <time>2021-05-29T08:05:57Z</time>
      </trkpt>
      <trkpt lat="37.0102921128" lon="-8.9436371159">
        <ele>37.15</ele>
        <time>2021-05-29T08:06:04Z</time>
      </trkpt>
      <trkpt lat="37.0104169194" lon="-8.9435760118">
        <ele>37.15</ele>
        <time>2021-05-29T08:06:05Z</time>
      </trkpt>
      <trkpt lat="37.0107354317" lon="-8.9434235450">
        <ele>33.30</ele>
        <time>2021-05-29T08:06:08Z</time>
      </trkpt>
      <trkpt lat="37.0112181455" lon="-8.9431965631">
        <ele>33.30</ele>
        <time>2021-05-29T08:06:13Z</time>
      </trkpt>
      <trkpt lat="37.0118327066" lon="-8.9428970776">
        <ele>30.90</ele>
        <time>2021-05-29T08:06:18Z</time>
      </trkpt>
      <trkpt lat="37.0125891734" lon="-8.9425462950">
        <ele>28.98</ele>
        <time>2021-05-29T08:06:24Z</time>
      </trkpt>
      <trkpt lat="37.0142017677" lon="-8.9417785965">
        <ele>25.61</ele>
        <time>2021-05-29T08:06:36Z</time>
      </trkpt>
      <trkpt lat="37.0143410750" lon="-8.9417127986">
        <ele>25.61</ele>
        <time>2021-05-29T08:06:37Z</time>
      </trkpt>
      <trkpt lat="37.0145975612" lon="-8.9415902551">
        <ele>24.17</ele>
        <time>2021-05-29T08:06:39Z</time>
      </trkpt>
      <trkpt lat="37.0154086780" lon="-8.9412020054">
        <ele>22.73</ele>
        <time>2021-05-29T08:06:45Z</time>
      </trkpt>
      <trkpt lat="37.0165321883" lon="-8.9406664856">
        <ele>19.36</ele>
        <time>2021-05-29T08:06:53Z</time>
      </trkpt>
      <trkpt lat="37.0167586673" lon="-8.9405612089">
        <ele>17.44</ele>
        <time>2021-05-29T08:06:55Z</time>
      </trkpt>
      <trkpt lat="37.0179204829" lon="-8.9399884734">
        <ele>17.44</ele>
        <time>2021-05-29T08:07:05Z</time>
      </trkpt>
      <trkpt lat="37.0186321903" lon="-8.9396491740">
        <ele>20.81</ele>
        <time>2021-05-29T08:07:10Z</time>
      </trkpt>
      <trkpt lat="37.0198374242" lon="-8.9390668832">
        <ele>23.69</ele>
        <time>2021-05-29T08:07:19Z</time>
      </trkpt>
      <trkpt lat="37.0203766320" lon="-8.9388035238">
        <ele>26.57</ele>
        <time>2021-05-29T08:07:23Z</time>
      </trkpt>
      <trkpt lat="37.0212617610" lon="-8.9383812435">
        <ele>30.42</ele>
        <time>2021-05-29T08:07:29Z</time>
      </trkpt>
      <trkpt lat="37.0215740707" lon="-8.9382290281">
        <ele>31.38</ele>
        <time>2021-05-29T08:07:31Z</time>
      </trkpt>
      <trkpt lat="37.0225330442" lon="-8.9377739746">
        <ele>31.38</ele>
        <time>2021-05-29T08:07:37Z</time>
      </trkpt>
      <trkpt lat="37.0226992574" lon="-8.9377374295">
        <ele>31.86</ele>
        <time>2021-05-29T08:07:38Z</time>
      </trkpt>
      <trkpt lat="37.0228689071" lon="-8.9377221745">
        <ele>33.78</ele>
        <time>2021-05-29T08:07:39Z</time>
      </trkpt>
      <trkpt lat="37.0230427478" lon="-8.9377200790">
        <ele>34.26</ele>
        <time>2021-05-29T08:07:40Z</time>
      </trkpt>
      <trkpt lat="37.0232198574" lon="-8.9377266169">
        <ele>34.26</ele>
        <time>2021-05-29T08:07:41Z</time>
      </trkpt>
      <trkpt lat="37.0235786866" lon="-8.9377458114">
        <ele>37.15</ele>
        <time>2021-05-29T08:07:43Z</time>
      </trkpt>
      <trkpt lat="37.0239371806" lon="-8.9377602283">
        <ele>38.59</ele>
        <time>2021-05-29T08:07:45Z</time>
      </trkpt>
      <trkpt lat="37.0242999494" lon="-8.9377663471">
        <ele>40.99</ele>
        <time>2021-05-29T08:07:47Z</time>
      </trkpt>
      <trkpt lat="37.0250788797" lon="-8.9377108589">
        <ele>43.40</ele>
        <time>2021-05-29T08:07:51Z</time>
      </trkpt>
      <trkpt lat="37.0258376934" lon="-8.9375422150">
        <ele>44.36</ele>
        <time>2021-05-29T08:07:55Z</time>
      </trkpt>
      <trkpt lat="37.0266071521" lon="-8.9373123832">
        <ele>48.68</ele>
        <time>2021-05-29T08:07:59Z</time>
      </trkpt>
      <trkpt lat="37.0269953180" lon="-8.9371937793">
        <ele>49.65</ele>
        <time>2021-05-29T08:08:01Z</time>
      </trkpt>
      <trkpt lat="37.0281721372" lon="-8.9368264843">
        <ele>52.05</ele>
        <time>2021-05-29T08:08:07Z</time>
      </trkpt>
      <trkpt lat="37.0308286976" lon="-8.9359773137">
        <ele>56.37</ele>
        <time>2021-05-29T08:08:21Z</time>
      </trkpt>
      <trkpt lat="37.0310231578" lon="-8.9359024633">
        <ele>54.93</ele>
        <time>2021-05-29T08:08:22Z</time>
      </trkpt>
      <trkpt lat="37.0324191637" lon="-8.9353356790">
        <ele>58.30</ele>
        <time>2021-05-29T08:08:29Z</time>
      </trkpt>
      <trkpt lat="37.0338130742" lon="-8.9347690623">
        <ele>58.30</ele>
        <time>2021-05-29T08:08:36Z</time>
      </trkpt>
      <trkpt lat="37.0344145596" lon="-8.9345204551">
        <ele>60.22</ele>
        <time>2021-05-29T08:08:39Z</time>
      </trkpt>
      <trkpt lat="37.0352035481" lon="-8.9341964107">
        <ele>58.30</ele>
        <time>2021-05-29T08:08:43Z</time>
      </trkpt>
      <trkpt lat="37.0361988153" lon="-8.9338007849">
        <ele>57.82</ele>
        <time>2021-05-29T08:08:48Z</time>
      </trkpt>
      <trkpt lat="37.0377261657" lon="-8.9331754949">
        <ele>61.18</ele>
        <time>2021-05-29T08:08:56Z</time>
      </trkpt>
      <trkpt lat="37.0386775956" lon="-8.9327697270">
        <ele>61.18</ele>
        <time>2021-05-29T08:09:01Z</time>
      </trkpt>
      <trkpt lat="37.0390722994" lon="-8.9326041844">
        <ele>59.26</ele>
        <time>2021-05-29T08:09:03Z</time>
      </trkpt>
      <trkpt lat="37.0392753091" lon="-8.9325191081">
        <ele>62.62</ele>
        <time>2021-05-29T08:09:04Z</time>
      </trkpt>
      <trkpt lat="37.0394832641" lon="-8.9324336126">
        <ele>66.95</ele>
        <time>2021-05-29T08:09:05Z</time>
      </trkpt>
      <trkpt lat="37.0396978408" lon="-8.9323435910">
        <ele>64.07</ele>
        <time>2021-05-29T08:09:06Z</time>
      </trkpt>
      <trkpt lat="37.0416692644" lon="-8.9315493219">
        <ele>66.47</ele>
        <time>2021-05-29T08:09:15Z</time>
      </trkpt>
      <trkpt lat="37.0443568379" lon="-8.9304355346">
        <ele>69.83</ele>
        <time>2021-05-29T08:09:27Z</time>
      </trkpt>
      <trkpt lat="37.0445869211" lon="-8.9303414058">
        <ele>69.35</ele>
        <time>2021-05-29T08:09:28Z</time>
      </trkpt>
      <trkpt lat="37.0471537951" lon="-8.9292872977">
        <ele>72.24</ele>
        <time>2021-05-29T08:09:39Z</time>
      </trkpt>
      <trkpt lat="37.0491118077" lon="-8.9281468559">
        <ele>70.79</ele>
        <time>2021-05-29T08:09:48Z</time>
      </trkpt>
      <trkpt lat="37.0514491014" lon="-8.9259243105">
        <ele>76.08</ele>
        <time>2021-05-29T08:10:00Z</time>
      </trkpt>
      <trkpt lat="37.0528213866" lon="-8.9246162307">
        <ele>79.93</ele>
        <time>2021-05-29T08:10:07Z</time>
      </trkpt>
      <trkpt lat="37.0530177746" lon="-8.9244356006">
        <ele>79.93</ele>
        <time>2021-05-29T08:10:08Z</time>
      </trkpt>
      <trkpt lat="37.0536283962" lon="-8.9239341114">
        <ele>81.37</ele>
        <time>2021-05-29T08:10:11Z</time>
      </trkpt>
      <trkpt lat="37.0542846154" lon="-8.9235430956">
        <ele>84.73</ele>
        <time>2021-05-29T08:10:14Z</time>
      </trkpt>
      <trkpt lat="37.0559527818" lon="-8.9230622258">
        <ele>84.25</ele>
        <time>2021-05-29T08:10:21Z</time>
      </trkpt>
      <trkpt lat="37.0582656004" lon="-8.9229877945">
        <ele>85.69</ele>
        <time>2021-05-29T08:10:30Z</time>
      </trkpt>
      <trkpt lat="37.0592479594" lon="-8.9229642414">
        <ele>83.29</ele>
        <time>2021-05-29T08:10:34Z</time>
      </trkpt>
      <trkpt lat="37.0606935024" lon="-8.9229362458">
        <ele>83.77</ele>
        <time>2021-05-29T08:10:40Z</time>
      </trkpt>
      <trkpt lat="37.0611656550" lon="-8.9229205716">
        <ele>84.73</ele>
        <time>2021-05-29T08:10:42Z</time>
      </trkpt>
      <trkpt lat="37.0616342034" lon="-8.9229018800">
        <ele>82.33</ele>
        <time>2021-05-29T08:10:44Z</time>
      </trkpt>
      <trkpt lat="37.0621000696" lon="-8.9228884690">
        <ele>85.69</ele>
        <time>2021-05-29T08:10:46Z</time>
      </trkpt>
      <trkpt lat="37.0632867794" lon="-8.9228665922">
        <ele>89.06</ele>
        <time>2021-05-29T08:10:51Z</time>
      </trkpt>
      <trkpt lat="37.0637710858" lon="-8.9228545222">
        <ele>85.69</ele>
        <time>2021-05-29T08:10:53Z</time>
      </trkpt>
      <trkpt lat="37.0640175138" lon="-8.9228473138">
        <ele>85.69</ele>
        <time>2021-05-29T08:10:54Z</time>
      </trkpt>
      <trkpt lat="37.0647684485" lon="-8.9228130318">
        <ele>89.54</ele>
        <time>2021-05-29T08:10:57Z</time>
      </trkpt>
      <trkpt lat="37.0660296734" lon="-8.9225634187">
        <ele>91.94</ele>
        <time>2021-05-29T08:11:02Z</time>
      </trkpt>
      <trkpt lat="37.0662777778" lon="-8.9224674460">
        <ele>95.79</ele>
        <time>2021-05-29T08:11:03Z</time>
      </trkpt>
      <trkpt lat="37.0667455718" lon="-8.9222340100">
        <ele>96.27</ele>
        <time>2021-05-29T08:11:05Z</time>
      </trkpt>
      <trkpt lat="37.0683312602" lon="-8.9209614694">
        <ele>97.71</ele>
        <time>2021-05-29T08:11:13Z</time>
      </trkpt>
      <trkpt lat="37.0688894950" lon="-8.9204302244">
        <ele>99.63</ele>
        <time>2021-05-29T08:11:16Z</time>
      </trkpt>
      <trkpt lat="37.0698291901" lon="-8.9195255656">
        <ele>103.00</ele>
        <time>2021-05-29T08:11:21Z</time>
      </trkpt>
      <trkpt lat="37.0702128299" lon="-8.9191576000">
        <ele>106.84</ele>
        <time>2021-05-29T08:11:23Z</time>
      </trkpt>
      <trkpt lat="37.0704101399" lon="-8.9189766347">
        <ele>106.84</ele>
        <time>2021-05-29T08:11:24Z</time>
      </trkpt>
      <trkpt lat="37.0714208297" lon="-8.9181807730">
        <ele>104.92</ele>
        <time>2021-05-29T08:11:29Z</time>
      </trkpt>
      <trkpt lat="37.0722269174" lon="-8.9176284056">
        <ele>104.92</ele>
        <time>2021-05-29T08:11:33Z</time>
      </trkpt>
      <trkpt lat="37.0726320986" lon="-8.9173612744">
        <ele>108.29</ele>
        <time>2021-05-29T08:11:35Z</time>
      </trkpt>
      <trkpt lat="37.0728346892" lon="-8.9172274154">
        <ele>107.81</ele>
        <time>2021-05-29T08:11:36Z</time>
      </trkpt>
      <trkpt lat="37.0740804076" lon="-8.9164100122">
        <ele>104.44</ele>
        <time>2021-05-29T08:11:42Z</time>
      </trkpt>
      <trkpt lat="37.0747121517" lon="-8.9159874804">
        <ele>100.60</ele>
        <time>2021-05-29T08:11:45Z</time>
      </trkpt>
      <trkpt lat="37.0749231242" lon="-8.9158469997">
        <ele>101.08</ele>
        <time>2021-05-29T08:11:46Z</time>
      </trkpt>
      <trkpt lat="37.0755650941" lon="-8.9154297486">
        <ele>97.71</ele>
        <time>2021-05-29T08:11:49Z</time>
      </trkpt>
      <trkpt lat="37.0766653866" lon="-8.9147101622">
        <ele>92.90</ele>
        <time>2021-05-29T08:11:54Z</time>
      </trkpt>
      <trkpt lat="37.0770740043" lon="-8.9144425280">
        <ele>89.06</ele>
        <time>2021-05-29T08:11:56Z</time>
      </trkpt>
      <trkpt lat="37.0776295569" lon="-8.9140595589">
        <ele>85.69</ele>
        <time>2021-05-29T08:11:59Z</time>
      </trkpt>
      <trkpt lat="37.0779943373" lon="-8.9137679525">
        <ele>84.25</ele>
        <time>2021-05-29T08:12:01Z</time>
      </trkpt>
      <trkpt lat="37.0784726087" lon="-8.9132921956">
        <ele>80.89</ele>
        <time>2021-05-29T08:12:04Z</time>
      </trkpt>
      <trkpt lat="37.0786106586" lon="-8.9131368790">
        <ele>81.37</ele>
        <time>2021-05-29T08:12:05Z</time>
      </trkpt>
      <trkpt lat="37.0789811388" lon="-8.9126622118">
        <ele>78.48</ele>
        <time>2021-05-29T08:12:08Z</time>
      </trkpt>
      <trkpt lat="37.0794035867" lon="-8.9120639954">
        <ele>76.56</ele>
        <time>2021-05-29T08:12:12Z</time>
      </trkpt>
      <trkpt lat="37.0799726341" lon="-8.9111885894">
        <ele>76.56</ele>
        <time>2021-05-29T08:12:20Z</time>
      </trkpt>
      <trkpt lat="37.0800903998" lon="-8.9109791256">
        <ele>75.12</ele>
        <time>2021-05-29T08:12:22Z</time>
      </trkpt>
      <trkpt lat="37.0801230054" lon="-8.9108782914">
        <ele>74.16</ele>
        <time>2021-05-29T08:12:23Z</time>
      </trkpt>
      <trkpt lat="37.0801365003" lon="-8.9107847493">
        <ele>73.68</ele>
        <time>2021-05-29T08:12:24Z</time>
      </trkpt>
      <trkpt lat="37.0801328123" lon="-8.9106896147">
        <ele>74.16</ele>
        <time>2021-05-29T08:12:25Z</time>
      </trkpt>
      <trkpt lat="37.0801085047" lon="-8.9105986711">
        <ele>73.68</ele>
        <time>2021-05-29T08:12:26Z</time>
      </trkpt>
      <trkpt lat="37.0800682716" lon="-8.9105197135">
        <ele>73.20</ele>
        <time>2021-05-29T08:12:27Z</time>
      </trkpt>
      <trkpt lat="37.0800178126" lon="-8.9104490541">
        <ele>72.72</ele>
        <time>2021-05-29T08:12:28Z</time>
      </trkpt>
      <trkpt lat="37.0799583010" lon="-8.9103778917">
        <ele>73.20</ele>
        <time>2021-05-29T08:12:29Z</time>
      </trkpt>
      <trkpt lat="37.0798342489" lon="-8.9101930708">
        <ele>74.16</ele>
        <time>2021-05-29T08:12:31Z</time>
      </trkpt>
      <trkpt lat="37.0797885675" lon="-8.9100752212">
        <ele>75.60</ele>
        <time>2021-05-29T08:12:32Z</time>
      </trkpt>
      <trkpt lat="37.0797643438" lon="-8.9099452179">
        <ele>76.08</ele>
        <time>2021-05-29T08:12:33Z</time>
      </trkpt>
      <trkpt lat="37.0797623321" lon="-8.9098095149">
        <ele>78.00</ele>
        <time>2021-05-29T08:12:34Z</time>
      </trkpt>
      <trkpt lat="37.0797819458" lon="-8.9096713811">
        <ele>78.48</ele>
        <time>2021-05-29T08:12:35Z</time>
      </trkpt>
      <trkpt lat="37.0798159763" lon="-8.9095304813">
        <ele>79.45</ele>
        <time>2021-05-29T08:12:36Z</time>
      </trkpt>
      <trkpt lat="37.0798584726" lon="-8.9093855582">
        <ele>81.37</ele>
        <time>2021-05-29T08:12:37Z</time>
      </trkpt>
      <trkpt lat="37.0799634140" lon="-8.9091004059">
        <ele>81.85</ele>
        <time>2021-05-29T08:12:39Z</time>
      </trkpt>
      <trkpt lat="37.0800427906" lon="-8.9089764375">
        <ele>82.81</ele>
        <time>2021-05-29T08:12:40Z</time>
      </trkpt>
      <trkpt lat="37.0801433735" lon="-8.9088700712">
        <ele>84.25</ele>
        <time>2021-05-29T08:12:41Z</time>
      </trkpt>
      <trkpt lat="37.0802587084" lon="-8.9087839890">
        <ele>84.73</ele>
        <time>2021-05-29T08:12:42Z</time>
      </trkpt>
      <trkpt lat="37.0803802460" lon="-8.9087112341">
        <ele>82.81</ele>
        <time>2021-05-29T08:12:43Z</time>
      </trkpt>
      <trkpt lat="37.0805083215" lon="-8.9086395688">
        <ele>82.81</ele>
        <time>2021-05-29T08:12:44Z</time>
      </trkpt>
      <trkpt lat="37.0810326096" lon="-8.9083602000">
        <ele>82.81</ele>
        <time>2021-05-29T08:12:48Z</time>
      </trkpt>
      <trkpt lat="37.0811720006" lon="-8.9083446935">
        <ele>83.77</ele>
        <time>2021-05-29T08:12:49Z</time>
      </trkpt>
      <trkpt lat="37.0813127328" lon="-8.9083726890">
        <ele>84.73</ele>
        <time>2021-05-29T08:12:50Z</time>
      </trkpt>
      <trkpt lat="37.0814441610" lon="-8.9084394928">
        <ele>84.25</ele>
        <time>2021-05-29T08:12:51Z</time>
      </trkpt>
      <trkpt lat="37.0815615915" lon="-8.9085260779">
        <ele>84.73</ele>
        <time>2021-05-29T08:12:52Z</time>
      </trkpt>
      <trkpt lat="37.0816612523" lon="-8.9086070471">
        <ele>84.73</ele>
        <time>2021-05-29T08:12:53Z</time>
      </trkpt>
      <trkpt lat="37.0819277968" lon="-8.9088022616">
        <ele>83.29</ele>
        <time>2021-05-29T08:12:58Z</time>
      </trkpt>
      <trkpt lat="37.0819497574" lon="-8.9088062011">
        <ele>83.29</ele>
        <time>2021-05-29T08:12:59Z</time>
      </trkpt>
      <trkpt lat="37.0820404496" lon="-8.9088295866">
        <ele>83.77</ele>
        <time>2021-05-29T08:13:07Z</time>
      </trkpt>
      <trkpt lat="37.0820667688" lon="-8.9088022616">
        <ele>83.77</ele>
        <time>2021-05-29T08:13:08Z</time>
      </trkpt>
      <trkpt lat="37.0820931718" lon="-8.9087368827">
        <ele>83.77</ele>
        <time>2021-05-29T08:13:09Z</time>
      </trkpt>
      <trkpt lat="37.0823524240" lon="-8.9079051465">
        <ele>83.29</ele>
        <time>2021-05-29T08:13:16Z</time>
      </trkpt>
      <trkpt lat="37.0824501570" lon="-8.9076752309">
        <ele>83.29</ele>
        <time>2021-05-29T08:13:18Z</time>
      </trkpt>
      <trkpt lat="37.0825220738" lon="-8.9075862989">
        <ele>82.33</ele>
        <time>2021-05-29T08:13:19Z</time>
      </trkpt>
      <trkpt lat="37.0826116763" lon="-8.9075250272">
        <ele>83.29</ele>
        <time>2021-05-29T08:13:20Z</time>
      </trkpt>
      <trkpt lat="37.0827149414" lon="-8.9074936789">
        <ele>84.73</ele>
        <time>2021-05-29T08:13:21Z</time>
      </trkpt>
      <trkpt lat="37.0828291867" lon="-8.9074925054">
        <ele>86.18</ele>
        <time>2021-05-29T08:13:22Z</time>
      </trkpt>
      <trkpt lat="37.0829550829" lon="-8.9075116161">
        <ele>85.69</ele>
        <time>2021-05-29T08:13:23Z</time>
      </trkpt>
      <trkpt lat="37.0830863435" lon="-8.9075382706">
        <ele>87.62</ele>
        <time>2021-05-29T08:13:24Z</time>
      </trkpt>
      <trkpt lat="37.0838634297" lon="-8.9077260252">
        <ele>86.18</ele>
        <time>2021-05-29T08:13:30Z</time>
      </trkpt>
      <trkpt lat="37.0839908347" lon="-8.9077921584">
        <ele>85.69</ele>
        <time>2021-05-29T08:13:31Z</time>
      </trkpt>
      <trkpt lat="37.0841230173" lon="-8.9078770671">
        <ele>87.62</ele>
        <time>2021-05-29T08:13:32Z</time>
      </trkpt>
      <trkpt lat="37.0842564572" lon="-8.9079804160">
        <ele>87.62</ele>
        <time>2021-05-29T08:13:33Z</time>
      </trkpt>
      <trkpt lat="37.0843829401" lon="-8.9080984332">
        <ele>86.66</ele>
        <time>2021-05-29T08:13:34Z</time>
      </trkpt>
      <trkpt lat="37.0845022146" lon="-8.9082237426">
        <ele>87.14</ele>
        <time>2021-05-29T08:13:35Z</time>
      </trkpt>
      <trkpt lat="37.0847100858" lon="-8.9085080568">
        <ele>86.66</ele>
        <time>2021-05-29T08:13:37Z</time>
      </trkpt>
      <trkpt lat="37.0847978443" lon="-8.9086720068">
        <ele>86.66</ele>
        <time>2021-05-29T08:13:38Z</time>
      </trkpt>
      <trkpt lat="37.0848755445" lon="-8.9088402316">
        <ele>85.69</ele>
        <time>2021-05-29T08:13:39Z</time>
      </trkpt>
      <trkpt lat="37.0852178615" lon="-8.9097800106">
        <ele>89.06</ele>
        <time>2021-05-29T08:13:45Z</time>
      </trkpt>
      <trkpt lat="37.0856496133" lon="-8.9104957413">
        <ele>92.42</ele>
        <time>2021-05-29T08:13:50Z</time>
      </trkpt>
      <trkpt lat="37.0859072730" lon="-8.9107477851">
        <ele>96.75</ele>
        <time>2021-05-29T08:13:52Z</time>
      </trkpt>
      <trkpt lat="37.0860505197" lon="-8.9108552411">
        <ele>98.67</ele>
        <time>2021-05-29T08:13:53Z</time>
      </trkpt>
      <trkpt lat="37.0862058364" lon="-8.9109455980">
        <ele>98.67</ele>
        <time>2021-05-29T08:13:54Z</time>
      </trkpt>
      <trkpt lat="37.0863728877" lon="-8.9110170119">
        <ele>100.11</ele>
        <time>2021-05-29T08:13:55Z</time>
      </trkpt>
      <trkpt lat="37.0865433756" lon="-8.9110642858">
        <ele>100.11</ele>
        <time>2021-05-29T08:13:56Z</time>
      </trkpt>
      <trkpt lat="37.0867021289" lon="-8.9110995736">
        <ele>100.11</ele>
        <time>2021-05-29T08:13:57Z</time>
      </trkpt>
      <trkpt lat="37.0870085713" lon="-8.9111657068">
        <ele>105.40</ele>
        <time>2021-05-29T08:13:59Z</time>
      </trkpt>
      <trkpt lat="37.0873241499" lon="-8.9112369530">
        <ele>108.29</ele>
        <time>2021-05-29T08:14:01Z</time>
      </trkpt>
      <trkpt lat="37.0876449253" lon="-8.9113080315">
        <ele>112.61</ele>
        <time>2021-05-29T08:14:03Z</time>
      </trkpt>
      <trkpt lat="37.0879724901" lon="-8.9113763440">
        <ele>114.05</ele>
        <time>2021-05-29T08:14:05Z</time>
      </trkpt>
      <trkpt lat="37.0884779189" lon="-8.9114844706">
        <ele>115.98</ele>
        <time>2021-05-29T08:14:08Z</time>
      </trkpt>
      <trkpt lat="37.0888279472" lon="-8.9115630090">
        <ele>119.82</ele>
        <time>2021-05-29T08:14:10Z</time>
      </trkpt>
      <trkpt lat="37.0893715974" lon="-8.9116868936">
        <ele>123.19</ele>
        <time>2021-05-29T08:14:13Z</time>
      </trkpt>
      <trkpt lat="37.0897470228" lon="-8.9117666893">
        <ele>126.07</ele>
        <time>2021-05-29T08:14:15Z</time>
      </trkpt>
      <trkpt lat="37.0901183411" lon="-8.9118424617">
        <ele>129.43</ele>
        <time>2021-05-29T08:14:17Z</time>
      </trkpt>
      <trkpt lat="37.0902951155" lon="-8.9118813537">
        <ele>129.43</ele>
        <time>2021-05-29T08:14:18Z</time>
      </trkpt>
      <trkpt lat="37.0908520091" lon="-8.9120100997">
        <ele>132.32</ele>
        <time>2021-05-29T08:14:21Z</time>
      </trkpt>
      <trkpt lat="37.0910453796" lon="-8.9120522607">
        <ele>132.80</ele>
        <time>2021-05-29T08:14:22Z</time>
      </trkpt>
      <trkpt lat="37.0920208655" lon="-8.9122595452">
        <ele>129.43</ele>
        <time>2021-05-29T08:14:27Z</time>
      </trkpt>
      <trkpt lat="37.0921788644" lon="-8.9122809190">
        <ele>129.92</ele>
        <time>2021-05-29T08:14:28Z</time>
      </trkpt>
      <trkpt lat="37.0923146512" lon="-8.9122943301">
        <ele>126.07</ele>
        <time>2021-05-29T08:14:29Z</time>
      </trkpt>
      <trkpt lat="37.0924403798" lon="-8.9123027958">
        <ele>126.07</ele>
        <time>2021-05-29T08:14:30Z</time>
      </trkpt>
      <trkpt lat="37.0931898057" lon="-8.9122641552">
        <ele>128.47</ele>
        <time>2021-05-29T08:14:35Z</time>
      </trkpt>
      <trkpt lat="37.0938892756" lon="-8.9120966848">
        <ele>130.40</ele>
        <time>2021-05-29T08:14:39Z</time>
      </trkpt>
      <trkpt lat="37.0944278967" lon="-8.9119318128">
        <ele>127.51</ele>
        <time>2021-05-29T08:14:42Z</time>
      </trkpt>
      <trkpt lat="37.0946039166" lon="-8.9118785877">
        <ele>127.03</ele>
        <time>2021-05-29T08:14:43Z</time>
      </trkpt>
      <trkpt lat="37.0962990727" lon="-8.9113501087">
        <ele>129.92</ele>
        <time>2021-05-29T08:14:53Z</time>
      </trkpt>
      <trkpt lat="37.0986253861" lon="-8.9104869403">
        <ele>132.80</ele>
        <time>2021-05-29T08:15:06Z</time>
      </trkpt>
      <trkpt lat="37.0992127899" lon="-8.9102459606">
        <ele>134.24</ele>
        <time>2021-05-29T08:15:09Z</time>
      </trkpt>
      <trkpt lat="37.1000302769" lon="-8.9099121094">
        <ele>138.09</ele>
        <time>2021-05-29T08:15:13Z</time>
      </trkpt>
      <trkpt lat="37.1002316102" lon="-8.9098306373">
        <ele>138.09</ele>
        <time>2021-05-29T08:15:14Z</time>
      </trkpt>
      <trkpt lat="37.1006190218" lon="-8.9096728060">
        <ele>134.72</ele>
        <time>2021-05-29T08:15:16Z</time>
      </trkpt>
      <trkpt lat="37.1011785138" lon="-8.9094204269">
        <ele>133.28</ele>
        <time>2021-05-29T08:15:19Z</time>
      </trkpt>
      <trkpt lat="37.1020898782" lon="-8.9087986574">
        <ele>131.84</ele>
        <time>2021-05-29T08:15:24Z</time>
      </trkpt>
      <trkpt lat="37.1038401034" lon="-8.9071202651">
        <ele>134.24</ele>
        <time>2021-05-29T08:15:34Z</time>
      </trkpt>
      <trkpt lat="37.1055336669" lon="-8.9054895658">
        <ele>137.61</ele>
        <time>2021-05-29T08:15:44Z</time>
      </trkpt>
      <trkpt lat="37.1070704889" lon="-8.9040223137">
        <ele>134.72</ele>
        <time>2021-05-29T08:15:53Z</time>
      </trkpt>
      <trkpt lat="37.1072300803" lon="-8.9038710203">
        <ele>134.24</ele>
        <time>2021-05-29T08:15:54Z</time>
      </trkpt>
      <trkpt lat="37.1089991648" lon="-8.9021773729">
        <ele>131.84</ele>
        <time>2021-05-29T08:16:05Z</time>
      </trkpt>
      <trkpt lat="37.1103304625" lon="-8.9009020664">
        <ele>134.24</ele>
        <time>2021-05-29T08:16:13Z</time>
      </trkpt>
      <trkpt lat="37.1107969992" lon="-8.9004518744">
        <ele>136.16</ele>
        <time>2021-05-29T08:16:16Z</time>
      </trkpt>
      <trkpt lat="37.1111067943" lon="-8.9001523051">
        <ele>137.13</ele>
        <time>2021-05-29T08:16:18Z</time>
      </trkpt>
      <trkpt lat="37.1123491600" lon="-8.8989533577">
        <ele>140.01</ele>
        <time>2021-05-29T08:16:26Z</time>
      </trkpt>
      <trkpt lat="37.1143485792" lon="-8.8970368356">
        <ele>140.01</ele>
        <time>2021-05-29T08:16:37Z</time>
      </trkpt>
      <trkpt lat="37.1155347023" lon="-8.8958976511">
        <ele>140.49</ele>
        <time>2021-05-29T08:16:44Z</time>
      </trkpt>
      <trkpt lat="37.1176542342" lon="-8.8938643690">
        <ele>141.45</ele>
        <time>2021-05-29T08:16:57Z</time>
      </trkpt>
      <trkpt lat="37.1186295524" lon="-8.8929176331">
        <ele>145.30</ele>
        <time>2021-05-29T08:17:03Z</time>
      </trkpt>
      <trkpt lat="37.1212887950" lon="-8.8903860468">
        <ele>142.89</ele>
        <time>2021-05-29T08:17:19Z</time>
      </trkpt>
      <trkpt lat="37.1233219933" lon="-8.8881439716">
        <ele>141.93</ele>
        <time>2021-05-29T08:17:32Z</time>
      </trkpt>
      <trkpt lat="37.1242585871" lon="-8.8870748598">
        <ele>140.49</ele>
        <time>2021-05-29T08:17:38Z</time>
      </trkpt>
      <trkpt lat="37.1252062451" lon="-8.8859741483">
        <ele>137.13</ele>
        <time>2021-05-29T08:17:44Z</time>
      </trkpt>
      <trkpt lat="37.1267706435" lon="-8.8846155256">
        <ele>137.61</ele>
        <time>2021-05-29T08:17:53Z</time>
      </trkpt>
      <trkpt lat="37.1271489188" lon="-8.8843864482">
        <ele>140.49</ele>
        <time>2021-05-29T08:17:55Z</time>
      </trkpt>
      <trkpt lat="37.1278450359" lon="-8.8839476556">
        <ele>144.82</ele>
        <time>2021-05-29T08:17:59Z</time>
      </trkpt>
      <trkpt lat="37.1300550923" lon="-8.8825859316">
        <ele>145.78</ele>
        <time>2021-05-29T08:18:11Z</time>
      </trkpt>
      <trkpt lat="37.1302421764" lon="-8.8824710157">
        <ele>145.78</ele>
        <time>2021-05-29T08:18:12Z</time>
      </trkpt>
      <trkpt lat="37.1322690044" lon="-8.8812118862">
        <ele>143.85</ele>
        <time>2021-05-29T08:18:23Z</time>
      </trkpt>
      <trkpt lat="37.1343580261" lon="-8.8798846956">
        <ele>141.93</ele>
        <time>2021-05-29T08:18:34Z</time>
      </trkpt>
      <trkpt lat="37.1355381981" lon="-8.8791367784">
        <ele>140.01</ele>
        <time>2021-05-29T08:18:40Z</time>
      </trkpt>
      <trkpt lat="37.1369224694" lon="-8.8782726042">
        <ele>138.09</ele>
        <time>2021-05-29T08:18:47Z</time>
      </trkpt>
      <trkpt lat="37.1375232842" lon="-8.8778991904">
        <ele>139.53</ele>
        <time>2021-05-29T08:18:50Z</time>
      </trkpt>
      <trkpt lat="37.1381776594" lon="-8.8774976134">
        <ele>136.64</ele>
        <time>2021-05-29T08:18:53Z</time>
      </trkpt>
      <trkpt lat="37.1391083859" lon="-8.8769219443">
        <ele>134.24</ele>
        <time>2021-05-29T08:18:58Z</time>
      </trkpt>
      <trkpt lat="37.1400308143" lon="-8.8763435092">
        <ele>130.88</ele>
        <time>2021-05-29T08:19:03Z</time>
      </trkpt>
      <trkpt lat="37.1402209997" lon="-8.8762259111">
        <ele>131.36</ele>
        <time>2021-05-29T08:19:04Z</time>
      </trkpt>
      <trkpt lat="37.1423831955" lon="-8.8749190047">
        <ele>133.28</ele>
        <time>2021-05-29T08:19:15Z</time>
      </trkpt>
      <trkpt lat="37.1434487030" lon="-8.8745201938">
        <ele>137.13</ele>
        <time>2021-05-29T08:19:20Z</time>
      </trkpt>
      <trkpt lat="37.1447111852" lon="-8.8740621228">
        <ele>134.72</ele>
        <time>2021-05-29T08:19:26Z</time>
      </trkpt>
      <trkpt lat="37.1459804568" lon="-8.8732365891">
        <ele>135.20</ele>
        <time>2021-05-29T08:19:33Z</time>
      </trkpt>
      <trkpt lat="37.1477109846" lon="-8.8716544211">
        <ele>136.16</ele>
        <time>2021-05-29T08:19:44Z</time>
      </trkpt>
      <trkpt lat="37.1478991583" lon="-8.8715643156">
        <ele>135.68</ele>
        <time>2021-05-29T08:19:45Z</time>
      </trkpt>
      <trkpt lat="37.1480916906" lon="-8.8714992721">
        <ele>135.68</ele>
        <time>2021-05-29T08:19:46Z</time>
      </trkpt>
      <trkpt lat="37.1482914314" lon="-8.8714607991">
        <ele>135.68</ele>
        <time>2021-05-29T08:19:47Z</time>
      </trkpt>
      <trkpt lat="37.1484990511" lon="-8.8714509923">
        <ele>136.64</ele>
        <time>2021-05-29T08:19:48Z</time>
      </trkpt>
      <trkpt lat="37.1487127896" lon="-8.8714602962">
        <ele>136.64</ele>
        <time>2021-05-29T08:19:49Z</time>
      </trkpt>
      <trkpt lat="37.1493676677" lon="-8.8715136051">
        <ele>138.09</ele>
        <time>2021-05-29T08:19:52Z</time>
      </trkpt>
      <trkpt lat="37.1502406429" lon="-8.8715727814">
        <ele>136.64</ele>
        <time>2021-05-29T08:19:56Z</time>
      </trkpt>
      <trkpt lat="37.1506586485" lon="-8.8716020342">
        <ele>132.80</ele>
        <time>2021-05-29T08:19:58Z</time>
      </trkpt>
      <trkpt lat="37.1510317270" lon="-8.8716286886">
        <ele>129.43</ele>
        <time>2021-05-29T08:20:00Z</time>
      </trkpt>
      <trkpt lat="37.1513759717" lon="-8.8716239110">
        <ele>126.55</ele>
        <time>2021-05-29T08:20:02Z</time>
      </trkpt>
      <trkpt lat="37.1515349764" lon="-8.8715878688">
        <ele>124.15</ele>
        <time>2021-05-29T08:20:03Z</time>
      </trkpt>
      <trkpt lat="37.1516802348" lon="-8.8715219032">
        <ele>124.15</ele>
        <time>2021-05-29T08:20:04Z</time>
      </trkpt>
      <trkpt lat="37.1518113278" lon="-8.8714250084">
        <ele>123.67</ele>
        <time>2021-05-29T08:20:05Z</time>
      </trkpt>
      <trkpt lat="37.1519394033" lon="-8.8712996151">
        <ele>124.15</ele>
        <time>2021-05-29T08:20:06Z</time>
      </trkpt>
      <trkpt lat="37.1520665567" lon="-8.8711603079">
        <ele>124.63</ele>
        <time>2021-05-29T08:20:07Z</time>
      </trkpt>
      <trkpt lat="37.1525784396" lon="-8.8706122153">
        <ele>121.74</ele>
        <time>2021-05-29T08:20:11Z</time>
      </trkpt>
      <trkpt lat="37.1526899189" lon="-8.8704832178">
        <ele>121.26</ele>
        <time>2021-05-29T08:20:12Z</time>
      </trkpt>
      <trkpt lat="37.1527868975" lon="-8.8703381270">
        <ele>121.26</ele>
        <time>2021-05-29T08:20:13Z</time>
      </trkpt>
      <trkpt lat="37.1528694592" lon="-8.8701750152">
        <ele>120.78</ele>
        <time>2021-05-29T08:20:14Z</time>
      </trkpt>
      <trkpt lat="37.1529360116" lon="-8.8699997496">
        <ele>120.30</ele>
        <time>2021-05-29T08:20:15Z</time>
      </trkpt>
      <trkpt lat="37.1529931761" lon="-8.8698169403">
        <ele>120.78</ele>
        <time>2021-05-29T08:20:16Z</time>
      </trkpt>
      <trkpt lat="37.1531791706" lon="-8.8692379184">
        <ele>120.78</ele>
        <time>2021-05-29T08:20:19Z</time>
      </trkpt>
      <trkpt lat="37.1532775741" lon="-8.8690905645">
        <ele>121.74</ele>
        <time>2021-05-29T08:20:20Z</time>
      </trkpt>
      <trkpt lat="37.1533960104" lon="-8.8689734694">
        <ele>120.30</ele>
        <time>2021-05-29T08:20:21Z</time>
      </trkpt>
      <trkpt lat="37.1535367426" lon="-8.8688884769">
        <ele>121.74</ele>
        <time>2021-05-29T08:20:22Z</time>
      </trkpt>
      <trkpt lat="37.1536930650" lon="-8.8688412029">
        <ele>120.78</ele>
        <time>2021-05-29T08:20:23Z</time>
      </trkpt>
      <trkpt lat="37.1538572665" lon="-8.8688380178">
        <ele>121.74</ele>
        <time>2021-05-29T08:20:24Z</time>
      </trkpt>
      <trkpt lat="37.1540301014" lon="-8.8688686956">
        <ele>122.22</ele>
        <time>2021-05-29T08:20:25Z</time>
      </trkpt>
      <trkpt lat="37.1542087197" lon="-8.8689133711">
        <ele>123.19</ele>
        <time>2021-05-29T08:20:26Z</time>
      </trkpt>
      <trkpt lat="37.1548990533" lon="-8.8690995332">
        <ele>119.82</ele>
        <time>2021-05-29T08:20:30Z</time>
      </trkpt>
      <trkpt lat="37.1560980007" lon="-8.8694027066">
        <ele>116.46</ele>
        <time>2021-05-29T08:20:38Z</time>
      </trkpt>
      <trkpt lat="37.1562226396" lon="-8.8694286905">
        <ele>116.46</ele>
        <time>2021-05-29T08:20:39Z</time>
      </trkpt>
      <trkpt lat="37.1569336765" lon="-8.8694140222">
        <ele>115.50</ele>
        <time>2021-05-29T08:20:45Z</time>
      </trkpt>
      <trkpt lat="37.1578525007" lon="-8.8691437896">
        <ele>115.01</ele>
        <time>2021-05-29T08:20:52Z</time>
      </trkpt>
      <trkpt lat="37.1579989325" lon="-8.8691430353">
        <ele>115.98</ele>
        <time>2021-05-29T08:20:53Z</time>
      </trkpt>
      <trkpt lat="37.1581509802" lon="-8.8691654149">
        <ele>116.46</ele>
        <time>2021-05-29T08:20:54Z</time>
      </trkpt>
      <trkpt lat="37.1583074704" lon="-8.8692098390">
        <ele>115.50</ele>
        <time>2021-05-29T08:20:55Z</time>
      </trkpt>
      <trkpt lat="37.1584677324" lon="-8.8692790736">
        <ele>114.53</ele>
        <time>2021-05-29T08:20:56Z</time>
      </trkpt>
      <trkpt lat="37.1586272400" lon="-8.8693706039">
        <ele>116.46</ele>
        <time>2021-05-29T08:20:57Z</time>
      </trkpt>
      <trkpt lat="37.1587853227" lon="-8.8694734499">
        <ele>115.01</ele>
        <time>2021-05-29T08:20:58Z</time>
      </trkpt>
      <trkpt lat="37.1597691067" lon="-8.8701569103">
        <ele>111.17</ele>
        <time>2021-05-29T08:21:04Z</time>
      </trkpt>
      <trkpt lat="37.1601864416" lon="-8.8706060965">
        <ele>108.77</ele>
        <time>2021-05-29T08:21:07Z</time>
      </trkpt>
      <trkpt lat="37.1603053808" lon="-8.8707874808">
        <ele>108.77</ele>
        <time>2021-05-29T08:21:08Z</time>
      </trkpt>
      <trkpt lat="37.1604194585" lon="-8.8709843718">
        <ele>107.81</ele>
        <time>2021-05-29T08:21:09Z</time>
      </trkpt>
      <trkpt lat="37.1609748434" lon="-8.8720248174">
        <ele>103.96</ele>
        <time>2021-05-29T08:21:14Z</time>
      </trkpt>
      <trkpt lat="37.1615237743" lon="-8.8729301468">
        <ele>97.71</ele>
        <time>2021-05-29T08:21:19Z</time>
      </trkpt>
      <trkpt lat="37.1616578847" lon="-8.8730648439">
        <ele>97.71</ele>
        <time>2021-05-29T08:21:20Z</time>
      </trkpt>
      <trkpt lat="37.1618111059" lon="-8.8731798436">
        <ele>97.23</ele>
        <time>2021-05-29T08:21:21Z</time>
      </trkpt>
      <trkpt lat="37.1619831026" lon="-8.8732724637">
        <ele>97.71</ele>
        <time>2021-05-29T08:21:22Z</time>
      </trkpt>
      <trkpt lat="37.1621682588" lon="-8.8733466435">
        <ele>97.23</ele>
        <time>2021-05-29T08:21:23Z</time>
      </trkpt>
      <trkpt lat="37.1623612102" lon="-8.8734043110">
        <ele>97.23</ele>
        <time>2021-05-29T08:21:24Z</time>
      </trkpt>
      <trkpt lat="37.1629388072" lon="-8.8735815044">
        <ele>94.35</ele>
        <time>2021-05-29T08:21:27Z</time>
      </trkpt>
      <trkpt lat="37.1631171741" lon="-8.8736468833">
        <ele>94.35</ele>
        <time>2021-05-29T08:21:28Z</time>
      </trkpt>
      <trkpt lat="37.1632822976" lon="-8.8737244997">
        <ele>92.90</ele>
        <time>2021-05-29T08:21:29Z</time>
      </trkpt>
      <trkpt lat="37.1634356864" lon="-8.8738260884">
        <ele>92.42</ele>
        <time>2021-05-29T08:21:30Z</time>
      </trkpt>
      <trkpt lat="37.1635759994" lon="-8.8739607017">
        <ele>90.98</ele>
        <time>2021-05-29T08:21:31Z</time>
      </trkpt>
      <trkpt lat="37.1636983752" lon="-8.8741238974">
        <ele>90.98</ele>
        <time>2021-05-29T08:21:32Z</time>
      </trkpt>
      <trkpt lat="37.1638081782" lon="-8.8743089698">
        <ele>90.98</ele>
        <time>2021-05-29T08:21:33Z</time>
      </trkpt>
      <trkpt lat="37.1639132872" lon="-8.8745056093">
        <ele>90.98</ele>
        <time>2021-05-29T08:21:34Z</time>
      </trkpt>
      <trkpt lat="37.1642224956" lon="-8.8750648499">
        <ele>88.10</ele>
        <time>2021-05-29T08:21:37Z</time>
      </trkpt>
      <trkpt lat="37.1643280238" lon="-8.8752176519">
        <ele>87.14</ele>
        <time>2021-05-29T08:21:38Z</time>
      </trkpt>
      <trkpt lat="37.1644423530" lon="-8.8753514271">
        <ele>86.66</ele>
        <time>2021-05-29T08:21:39Z</time>
      </trkpt>
      <trkpt lat="37.1645666566" lon="-8.8754720427">
        <ele>86.66</ele>
        <time>2021-05-29T08:21:40Z</time>
      </trkpt>
      <trkpt lat="37.1647044551" lon="-8.8755738828">
        <ele>86.18</ele>
        <time>2021-05-29T08:21:41Z</time>
      </trkpt>
      <trkpt lat="37.1648677345" lon="-8.8756367471">
        <ele>85.69</ele>
        <time>2021-05-29T08:21:42Z</time>
      </trkpt>
      <trkpt lat="37.1650490351" lon="-8.8756748009">
        <ele>85.69</ele>
        <time>2021-05-29T08:21:43Z</time>
      </trkpt>
      <trkpt lat="37.1652353648" lon="-8.8756951690">
        <ele>85.69</ele>
        <time>2021-05-29T08:21:44Z</time>
      </trkpt>
      <trkpt lat="37.1655935235" lon="-8.8757424429">
        <ele>84.73</ele>
        <time>2021-05-29T08:21:46Z</time>
      </trkpt>
      <trkpt lat="37.1657692082" lon="-8.8757853583">
        <ele>83.77</ele>
        <time>2021-05-29T08:21:47Z</time>
      </trkpt>
      <trkpt lat="37.1659453120" lon="-8.8758555148">
        <ele>83.77</ele>
        <time>2021-05-29T08:21:48Z</time>
      </trkpt>
      <trkpt lat="37.1661205776" lon="-8.8759518228">
        <ele>84.73</ele>
        <time>2021-05-29T08:21:49Z</time>
      </trkpt>
      <trkpt lat="37.1662894730" lon="-8.8760725223">
        <ele>85.21</ele>
        <time>2021-05-29T08:21:50Z</time>
      </trkpt>
      <trkpt lat="37.1664416045" lon="-8.8762075547">
        <ele>83.29</ele>
        <time>2021-05-29T08:21:51Z</time>
      </trkpt>
      <trkpt lat="37.1665695123" lon="-8.8763445150">
        <ele>79.93</ele>
        <time>2021-05-29T08:21:52Z</time>
      </trkpt>
      <trkpt lat="37.1666767169" lon="-8.8764750212">
        <ele>78.97</ele>
        <time>2021-05-29T08:21:53Z</time>
      </trkpt>
      <trkpt lat="37.1669184510" lon="-8.8767841458">
        <ele>74.64</ele>
        <time>2021-05-29T08:21:56Z</time>
      </trkpt>
      <trkpt lat="37.1670864243" lon="-8.8769656979">
        <ele>71.27</ele>
        <time>2021-05-29T08:22:00Z</time>
      </trkpt>
      <trkpt lat="37.1671167668" lon="-8.8769821264">
        <ele>70.31</ele>
        <time>2021-05-29T08:22:02Z</time>
      </trkpt>
      <trkpt lat="37.1671184432" lon="-8.8769673742">
        <ele>71.27</ele>
        <time>2021-05-29T08:22:17Z</time>
      </trkpt>
      <trkpt lat="37.1671160962" lon="-8.8769823778">
        <ele>70.79</ele>
        <time>2021-05-29T08:22:45Z</time>
      </trkpt>
      <trkpt lat="37.1671268251" lon="-8.8769844733">
        <ele>70.79</ele>
        <time>2021-05-29T08:23:04Z</time>
      </trkpt>
      <trkpt lat="37.1671300102" lon="-8.8769745827">
        <ele>70.79</ele>
        <time>2021-05-29T08:23:37Z</time>
      </trkpt>
      <trkpt lat="37.1671574190" lon="-8.8770367764">
        <ele>71.27</ele>
        <time>2021-05-29T08:24:09Z</time>
      </trkpt>
      <trkpt lat="37.1672059502" lon="-8.8771169912">
        <ele>71.27</ele>
        <time>2021-05-29T08:24:11Z</time>
      </trkpt>
      <trkpt lat="37.1676937770" lon="-8.8777461369">
        <ele>72.72</ele>
        <time>2021-05-29T08:24:19Z</time>
      </trkpt>
      <trkpt lat="37.1680361778" lon="-8.8781819958">
        <ele>71.27</ele>
        <time>2021-05-29T08:24:23Z</time>
      </trkpt>
      <trkpt lat="37.1684433706" lon="-8.8786866702">
        <ele>71.27</ele>
        <time>2021-05-29T08:24:27Z</time>
      </trkpt>
      <trkpt lat="37.1694824751" lon="-8.8798090070">
        <ele>69.35</ele>
        <time>2021-05-29T08:24:35Z</time>
      </trkpt>
      <trkpt lat="37.1702967770" lon="-8.8802228216">
        <ele>65.51</ele>
        <time>2021-05-29T08:24:40Z</time>
      </trkpt>
      <trkpt lat="37.1704423707" lon="-8.8802854344">
        <ele>65.51</ele>
        <time>2021-05-29T08:24:41Z</time>
      </trkpt>
      <trkpt lat="37.1709928941" lon="-8.8805648871">
        <ele>63.10</ele>
        <time>2021-05-29T08:24:45Z</time>
      </trkpt>
      <trkpt lat="37.1711195447" lon="-8.8806854188">
        <ele>63.10</ele>
        <time>2021-05-29T08:24:46Z</time>
      </trkpt>
      <trkpt lat="37.1712347958" lon="-8.8808324374">
        <ele>61.66</ele>
        <time>2021-05-29T08:24:47Z</time>
      </trkpt>
      <trkpt lat="37.1713327803" lon="-8.8810078707">
        <ele>61.18</ele>
        <time>2021-05-29T08:24:48Z</time>
      </trkpt>
      <trkpt lat="37.1714185271" lon="-8.8811946195">
        <ele>62.62</ele>
        <time>2021-05-29T08:24:49Z</time>
      </trkpt>
      <trkpt lat="37.1715037711" lon="-8.8813898340">
        <ele>60.70</ele>
        <time>2021-05-29T08:24:50Z</time>
      </trkpt>
      <trkpt lat="37.1722385287" lon="-8.8830061164">
        <ele>56.37</ele>
        <time>2021-05-29T08:24:58Z</time>
      </trkpt>
      <trkpt lat="37.1723988745" lon="-8.8833632693">
        <ele>52.05</ele>
        <time>2021-05-29T08:25:00Z</time>
      </trkpt>
      <trkpt lat="37.1724815201" lon="-8.8835457433">
        <ele>52.53</ele>
        <time>2021-05-29T08:25:01Z</time>
      </trkpt>
      <trkpt lat="37.1725745592" lon="-8.8837233558">
        <ele>51.57</ele>
        <time>2021-05-29T08:25:02Z</time>
      </trkpt>
      <trkpt lat="37.1726838592" lon="-8.8838901557">
        <ele>52.05</ele>
        <time>2021-05-29T08:25:03Z</time>
      </trkpt>
      <trkpt lat="37.1728075761" lon="-8.8840513397">
        <ele>51.09</ele>
        <time>2021-05-29T08:25:04Z</time>
      </trkpt>
      <trkpt lat="37.1729481407" lon="-8.8842082489">
        <ele>50.61</ele>
        <time>2021-05-29T08:25:05Z</time>
      </trkpt>
      <trkpt lat="37.1731064748" lon="-8.8843595423">
        <ele>51.09</ele>
        <time>2021-05-29T08:25:06Z</time>
      </trkpt>
      <trkpt lat="37.1732741967" lon="-8.8844914734">
        <ele>50.61</ele>
        <time>2021-05-29T08:25:07Z</time>
      </trkpt>
      <trkpt lat="37.1734490432" lon="-8.8846164476">
        <ele>50.61</ele>
        <time>2021-05-29T08:25:08Z</time>
      </trkpt>
      <trkpt lat="37.1738156676" lon="-8.8848837465">
        <ele>55.89</ele>
        <time>2021-05-29T08:25:10Z</time>
      </trkpt>
      <trkpt lat="37.1740028355" lon="-8.8850169349">
        <ele>56.37</ele>
        <time>2021-05-29T08:25:11Z</time>
      </trkpt>
      <trkpt lat="37.1761412267" lon="-8.8865778968">
        <ele>60.70</ele>
        <time>2021-05-29T08:25:22Z</time>
      </trkpt>
      <trkpt lat="37.1769204922" lon="-8.8871592656">
        <ele>61.18</ele>
        <time>2021-05-29T08:25:26Z</time>
      </trkpt>
      <trkpt lat="37.1779655479" lon="-8.8879363518">
        <ele>58.78</ele>
        <time>2021-05-29T08:25:32Z</time>
      </trkpt>
      <trkpt lat="37.1784929372" lon="-8.8883843645">
        <ele>56.86</ele>
        <time>2021-05-29T08:25:35Z</time>
      </trkpt>
      <trkpt lat="37.1789815184" lon="-8.8889578544">
        <ele>52.05</ele>
        <time>2021-05-29T08:25:38Z</time>
      </trkpt>
      <trkpt lat="37.1794440318" lon="-8.8895311765">
        <ele>47.24</ele>
        <time>2021-05-29T08:25:41Z</time>
      </trkpt>
      <trkpt lat="37.1801512968" lon="-8.8906193152">
        <ele>41.47</ele>
        <time>2021-05-29T08:25:46Z</time>
      </trkpt>
      <trkpt lat="37.1808343381" lon="-8.8920488488">
        <ele>36.67</ele>
        <time>2021-05-29T08:25:52Z</time>
      </trkpt>
      <trkpt lat="37.1809366811" lon="-8.8922666106">
        <ele>30.42</ele>
        <time>2021-05-29T08:25:53Z</time>
      </trkpt>
      <trkpt lat="37.1812231746" lon="-8.8928640727">
        <ele>25.13</ele>
        <time>2021-05-29T08:25:56Z</time>
      </trkpt>
      <trkpt lat="37.1813110169" lon="-8.8930514082">
        <ele>25.61</ele>
        <time>2021-05-29T08:25:57Z</time>
      </trkpt>
      <trkpt lat="37.1813947521" lon="-8.8932299428">
        <ele>21.77</ele>
        <time>2021-05-29T08:25:58Z</time>
      </trkpt>
      <trkpt lat="37.1814768109" lon="-8.8934023585">
        <ele>23.69</ele>
        <time>2021-05-29T08:25:59Z</time>
      </trkpt>
      <trkpt lat="37.1817153599" lon="-8.8938958012">
        <ele>19.36</ele>
        <time>2021-05-29T08:26:02Z</time>
      </trkpt>
      <trkpt lat="37.1819394082" lon="-8.8942936901">
        <ele>15.04</ele>
        <time>2021-05-29T08:26:05Z</time>
      </trkpt>
      <trkpt lat="37.1820114087" lon="-8.8943992183">
        <ele>15.04</ele>
        <time>2021-05-29T08:26:06Z</time>
      </trkpt>
      <trkpt lat="37.1824708208" lon="-8.8948435429">
        <ele>13.60</ele>
        <time>2021-05-29T08:26:13Z</time>
      </trkpt>
      <trkpt lat="37.1825117245" lon="-8.8948652521">
        <ele>13.60</ele>
        <time>2021-05-29T08:26:14Z</time>
      </trkpt>
      <trkpt lat="37.1830096096" lon="-8.8951229956">
        <ele>16.96</ele>
        <time>2021-05-29T08:26:24Z</time>
      </trkpt>
      <trkpt lat="37.1834405232" lon="-8.8953490555">
        <ele>21.29</ele>
        <time>2021-05-29T08:26:31Z</time>
      </trkpt>
      <trkpt lat="37.1841527335" lon="-8.8957023527">
        <ele>25.13</ele>
        <time>2021-05-29T08:26:40Z</time>
      </trkpt>
      <trkpt lat="37.1842114907" lon="-8.8957183622">
        <ele>25.13</ele>
        <time>2021-05-29T08:26:41Z</time>
      </trkpt>
      <trkpt lat="37.1842571720" lon="-8.8957256544">
        <ele>23.69</ele>
        <time>2021-05-29T08:26:42Z</time>
      </trkpt>
      <trkpt lat="37.1843300946" lon="-8.8957554102">
        <ele>22.25</ele>
        <time>2021-05-29T08:26:45Z</time>
      </trkpt>
      <trkpt lat="37.1843387280" lon="-8.8958031032">
        <ele>21.77</ele>
        <time>2021-05-29T08:26:46Z</time>
      </trkpt>
      <trkpt lat="37.1843373869" lon="-8.8958627824">
        <ele>21.77</ele>
        <time>2021-05-29T08:26:47Z</time>
      </trkpt>
      <trkpt lat="37.1843358781" lon="-8.8959331904">
        <ele>22.25</ele>
        <time>2021-05-29T08:26:48Z</time>
      </trkpt>
      <trkpt lat="37.1843474451" lon="-8.8960061967">
        <ele>22.73</ele>
        <time>2021-05-29T08:26:49Z</time>
      </trkpt>
      <trkpt lat="37.1843693219" lon="-8.8960828912">
        <ele>22.73</ele>
        <time>2021-05-29T08:26:50Z</time>
      </trkpt>
      <trkpt lat="37.1843938809" lon="-8.8961643633">
        <ele>22.73</ele>
        <time>2021-05-29T08:26:51Z</time>
      </trkpt>
      <trkpt lat="37.1845616866" lon="-8.8967806008">
        <ele>23.21</ele>
        <time>2021-05-29T08:26:59Z</time>
      </trkpt>
      <trkpt lat="37.1846634429" lon="-8.8970467262">
        <ele>22.25</ele>
        <time>2021-05-29T08:27:02Z</time>
      </trkpt>
      <trkpt lat="37.1849064343" lon="-8.8975574356">
        <ele>19.84</ele>
        <time>2021-05-29T08:27:07Z</time>
      </trkpt>
      <trkpt lat="37.1850887407" lon="-8.8979031891">
        <ele>18.40</ele>
        <time>2021-05-29T08:27:11Z</time>
      </trkpt>
      <trkpt lat="37.1851308178" lon="-8.8979609404">
        <ele>16.96</ele>
        <time>2021-05-29T08:27:12Z</time>
      </trkpt>
      <trkpt lat="37.1855104342" lon="-8.8984436542">
        <ele>13.60</ele>
        <time>2021-05-29T08:27:20Z</time>
      </trkpt>
      <trkpt lat="37.1857531741" lon="-8.8987292256">
        <ele>9.27</ele>
        <time>2021-05-29T08:27:24Z</time>
      </trkpt>
      <trkpt lat="37.1858104225" lon="-8.8987931795">
        <ele>9.75</ele>
        <time>2021-05-29T08:27:25Z</time>
      </trkpt>
      <trkpt lat="37.1858625580" lon="-8.8988591451">
        <ele>9.27</ele>
        <time>2021-05-29T08:27:26Z</time>
      </trkpt>
      <trkpt lat="37.1858997736" lon="-8.8989321515">
        <ele>8.31</ele>
        <time>2021-05-29T08:27:27Z</time>
      </trkpt>
      <trkpt lat="37.1859241650" lon="-8.8990107737">
        <ele>7.35</ele>
        <time>2021-05-29T08:27:28Z</time>
      </trkpt>
      <trkpt lat="37.1859361511" lon="-8.8990860432">
        <ele>6.39</ele>
        <time>2021-05-29T08:27:29Z</time>
      </trkpt>
      <trkpt lat="37.1859346423" lon="-8.8991530985">
        <ele>6.39</ele>
        <time>2021-05-29T08:27:30Z</time>
      </trkpt>
      <trkpt lat="37.1859195549" lon="-8.8992074132">
        <ele>5.42</ele>
        <time>2021-05-29T08:27:31Z</time>
      </trkpt>
      <trkpt lat="37.1858873684" lon="-8.8992515858">
        <ele>5.91</ele>
        <time>2021-05-29T08:27:32Z</time>
      </trkpt>
      <trkpt lat="37.1858403459" lon="-8.8992845267">
        <ele>6.39</ele>
        <time>2021-05-29T08:27:33Z</time>
      </trkpt>
      <trkpt lat="37.1857828461" lon="-8.8993101753">
        <ele>6.39</ele>
        <time>2021-05-29T08:27:34Z</time>
      </trkpt>
      <trkpt lat="37.1857176349" lon="-8.8993291184">
        <ele>5.91</ele>
        <time>2021-05-29T08:27:35Z</time>
      </trkpt>
      <trkpt lat="37.1856489033" lon="-8.8993453793">
        <ele>6.39</ele>
        <time>2021-05-29T08:27:36Z</time>
      </trkpt>
      <trkpt lat="37.1852156427" lon="-8.8995132688">
        <ele>9.75</ele>
        <time>2021-05-29T08:27:42Z</time>
      </trkpt>
      <trkpt lat="37.1850801911" lon="-8.8995926455">
        <ele>11.19</ele>
        <time>2021-05-29T08:27:44Z</time>
      </trkpt>
      <trkpt lat="37.1848657820" lon="-8.8997382391">
        <ele>12.15</ele>
        <time>2021-05-29T08:27:47Z</time>
      </trkpt>
      <trkpt lat="37.1847973857" lon="-8.8998007681">
        <ele>12.63</ele>
        <time>2021-05-29T08:27:48Z</time>
      </trkpt>
      <trkpt lat="37.1847372036" lon="-8.8998671528">
        <ele>12.15</ele>
        <time>2021-05-29T08:27:49Z</time>
      </trkpt>
      <trkpt lat="37.1846859064" lon="-8.8999420870">
        <ele>13.12</ele>
        <time>2021-05-29T08:27:50Z</time>
      </trkpt>
      <trkpt lat="37.1846457571" lon="-8.9000313543">
        <ele>13.60</ele>
        <time>2021-05-29T08:27:51Z</time>
      </trkpt>
      <trkpt lat="37.1846160013" lon="-8.9001345355">
        <ele>13.60</ele>
        <time>2021-05-29T08:27:52Z</time>
      </trkpt>
      <trkpt lat="37.1845996566" lon="-8.9002502058">
        <ele>14.08</ele>
        <time>2021-05-29T08:27:53Z</time>
      </trkpt>
      <trkpt lat="37.1845975611" lon="-8.9003693126">
        <ele>15.04</ele>
        <time>2021-05-29T08:27:54Z</time>
      </trkpt>
      <trkpt lat="37.1846035961" lon="-8.9004875813">
        <ele>14.08</ele>
        <time>2021-05-29T08:27:55Z</time>
      </trkpt>
      <trkpt lat="37.1846749261" lon="-8.9020082261">
        <ele>16.48</ele>
        <time>2021-05-29T08:28:07Z</time>
      </trkpt>
      <trkpt lat="37.1847550571" lon="-8.9037021250">
        <ele>18.40</ele>
        <time>2021-05-29T08:28:19Z</time>
      </trkpt>
      <trkpt lat="37.1847761795" lon="-8.9041164424">
        <ele>23.69</ele>
        <time>2021-05-29T08:28:22Z</time>
      </trkpt>
      <trkpt lat="37.1847803704" lon="-8.9042449370">
        <ele>23.21</ele>
        <time>2021-05-29T08:28:23Z</time>
      </trkpt>
      <trkpt lat="37.1847760119" lon="-8.9043692406">
        <ele>21.77</ele>
        <time>2021-05-29T08:28:24Z</time>
      </trkpt>
      <trkpt lat="37.1847584099" lon="-8.9044899400">
        <ele>23.69</ele>
        <time>2021-05-29T08:28:25Z</time>
      </trkpt>
      <trkpt lat="37.1847248822" lon="-8.9046038501">
        <ele>23.69</ele>
        <time>2021-05-29T08:28:26Z</time>
      </trkpt>
      <trkpt lat="37.1846760157" lon="-8.9047084562">
        <ele>25.13</ele>
        <time>2021-05-29T08:28:27Z</time>
      </trkpt>
      <trkpt lat="37.1846196894" lon="-8.9048068598">
        <ele>26.09</ele>
        <time>2021-05-29T08:28:28Z</time>
      </trkpt>
      <trkpt lat="37.1845640335" lon="-8.9049061853">
        <ele>26.09</ele>
        <time>2021-05-29T08:28:29Z</time>
      </trkpt>
      <trkpt lat="37.1845178492" lon="-8.9050154854">
        <ele>25.61</ele>
        <time>2021-05-29T08:28:30Z</time>
      </trkpt>
      <trkpt lat="37.1844839863" lon="-8.9051353466">
        <ele>26.09</ele>
        <time>2021-05-29T08:28:31Z</time>
      </trkpt>
      <trkpt lat="37.1844624449" lon="-8.9052599017">
        <ele>27.05</ele>
        <time>2021-05-29T08:28:32Z</time>
      </trkpt>
      <trkpt lat="37.1844537277" lon="-8.9053850435">
        <ele>28.50</ele>
        <time>2021-05-29T08:28:33Z</time>
      </trkpt>
      <trkpt lat="37.1844624449" lon="-8.9055090956">
        <ele>28.98</ele>
        <time>2021-05-29T08:28:34Z</time>
      </trkpt>
      <trkpt lat="37.1844880935" lon="-8.9056308009">
        <ele>29.94</ele>
        <time>2021-05-29T08:28:35Z</time>
      </trkpt>
      <trkpt lat="37.1845299192" lon="-8.9057507459">
        <ele>31.38</ele>
        <time>2021-05-29T08:28:36Z</time>
      </trkpt>
      <trkpt lat="37.1845846530" lon="-8.9058680926">
        <ele>31.86</ele>
        <time>2021-05-29T08:28:37Z</time>
      </trkpt>
      <trkpt lat="37.1846516244" lon="-8.9059858583">
        <ele>33.30</ele>
        <time>2021-05-29T08:28:38Z</time>
      </trkpt>
      <trkpt lat="37.1847238764" lon="-8.9061076473">
        <ele>35.23</ele>
        <time>2021-05-29T08:28:39Z</time>
      </trkpt>
      <trkpt lat="37.1847896744" lon="-8.9062296040">
        <ele>34.74</ele>
        <time>2021-05-29T08:28:40Z</time>
      </trkpt>
      <trkpt lat="37.1848900057" lon="-8.9064649679">
        <ele>35.71</ele>
        <time>2021-05-29T08:28:42Z</time>
      </trkpt>
      <trkpt lat="37.1849275567" lon="-8.9066023473">
        <ele>38.59</ele>
        <time>2021-05-29T08:28:43Z</time>
      </trkpt>
      <trkpt lat="37.1849594917" lon="-8.9067558199">
        <ele>38.11</ele>
        <time>2021-05-29T08:28:44Z</time>
      </trkpt>
      <trkpt lat="37.1851608250" lon="-8.9084032830">
        <ele>37.63</ele>
        <time>2021-05-29T08:28:54Z</time>
      </trkpt>
      <trkpt lat="37.1851404570" lon="-8.9087038580">
        <ele>36.19</ele>
        <time>2021-05-29T08:28:56Z</time>
      </trkpt>
      <trkpt lat="37.1851135511" lon="-8.9090679679">
        <ele>34.26</ele>
        <time>2021-05-29T08:28:59Z</time>
      </trkpt>
      <trkpt lat="37.1851158142" lon="-8.9091673773">
        <ele>33.30</ele>
        <time>2021-05-29T08:29:00Z</time>
      </trkpt>
      <trkpt lat="37.1851335838" lon="-8.9092582371">
        <ele>32.82</ele>
        <time>2021-05-29T08:29:01Z</time>
      </trkpt>
      <trkpt lat="37.1851635911" lon="-8.9093425591">
        <ele>33.30</ele>
        <time>2021-05-29T08:29:02Z</time>
      </trkpt>
      <trkpt lat="37.1852029860" lon="-8.9094154816">
        <ele>31.86</ele>
        <time>2021-05-29T08:29:03Z</time>
      </trkpt>
      <trkpt lat="37.1852457337" lon="-8.9094735682">
        <ele>31.86</ele>
        <time>2021-05-29T08:29:04Z</time>
      </trkpt>
      <trkpt lat="37.1852861345" lon="-8.9095250331">
        <ele>30.90</ele>
        <time>2021-05-29T08:29:05Z</time>
      </trkpt>
      <trkpt lat="37.1853603981" lon="-8.9096053317">
        <ele>31.38</ele>
        <time>2021-05-29T08:29:07Z</time>
      </trkpt>
      <trkpt lat="37.1854610648" lon="-8.9096651785">
        <ele>29.94</ele>
        <time>2021-05-29T08:29:11Z</time>
      </trkpt>
      <trkpt lat="37.1855201572" lon="-8.9096762426">
        <ele>28.50</ele>
        <time>2021-05-29T08:29:23Z</time>
      </trkpt>
      <trkpt lat="37.1856164653" lon="-8.9096681960">
        <ele>30.42</ele>
        <time>2021-05-29T08:29:30Z</time>
      </trkpt>
      <trkpt lat="37.1856650803" lon="-8.9096517675">
        <ele>29.46</ele>
        <time>2021-05-29T08:29:31Z</time>
      </trkpt>
      <trkpt lat="37.1861895360" lon="-8.9094020706">
        <ele>31.86</ele>
        <time>2021-05-29T08:29:40Z</time>
      </trkpt>
      <trkpt lat="37.1870572306" lon="-8.9089787006">
        <ele>33.30</ele>
        <time>2021-05-29T08:29:54Z</time>
      </trkpt>
      <trkpt lat="37.1877492405" lon="-8.9087126590">
        <ele>32.82</ele>
        <time>2021-05-29T08:30:05Z</time>
      </trkpt>
      <trkpt lat="37.1880609635" lon="-8.9086031914">
        <ele>34.74</ele>
        <time>2021-05-29T08:30:09Z</time>
      </trkpt>
      <trkpt lat="37.1890378743" lon="-8.9082208090">
        <ele>36.67</ele>
        <time>2021-05-29T08:30:20Z</time>
      </trkpt>
      <trkpt lat="37.1892185882" lon="-8.9081673324">
        <ele>38.11</ele>
        <time>2021-05-29T08:30:22Z</time>
      </trkpt>
      <trkpt lat="37.1892968751" lon="-8.9081584476">
        <ele>38.59</ele>
        <time>2021-05-29T08:30:23Z</time>
      </trkpt>
      <trkpt lat="37.1893704683" lon="-8.9081600402">
        <ele>38.59</ele>
        <time>2021-05-29T08:30:24Z</time>
      </trkpt>
      <trkpt lat="37.1894443966" lon="-8.9081671648">
        <ele>38.11</ele>
        <time>2021-05-29T08:30:25Z</time>
      </trkpt>
      <trkpt lat="37.1895254496" lon="-8.9081816655">
        <ele>37.15</ele>
        <time>2021-05-29T08:30:26Z</time>
      </trkpt>
      <trkpt lat="37.1898932476" lon="-8.9082804881">
        <ele>38.11</ele>
        <time>2021-05-29T08:30:30Z</time>
      </trkpt>
      <trkpt lat="37.1899812575" lon="-8.9083261695">
        <ele>39.07</ele>
        <time>2021-05-29T08:30:31Z</time>
      </trkpt>
      <trkpt lat="37.1900648251" lon="-8.9083862677">
        <ele>40.51</ele>
        <time>2021-05-29T08:30:32Z</time>
      </trkpt>
      <trkpt lat="37.1901422739" lon="-8.9084627107">
        <ele>40.03</ele>
        <time>2021-05-29T08:30:33Z</time>
      </trkpt>
      <trkpt lat="37.1902164537" lon="-8.9085504692">
        <ele>40.51</ele>
        <time>2021-05-29T08:30:34Z</time>
      </trkpt>
      <trkpt lat="37.1902876161" lon="-8.9086446818">
        <ele>40.51</ele>
        <time>2021-05-29T08:30:35Z</time>
      </trkpt>
      <trkpt lat="37.1909838170" lon="-8.9096805174">
        <ele>41.95</ele>
        <time>2021-05-29T08:30:46Z</time>
      </trkpt>
      <trkpt lat="37.1915883198" lon="-8.9102980122">
        <ele>44.84</ele>
        <time>2021-05-29T08:30:55Z</time>
      </trkpt>
      <trkpt lat="37.1917487495" lon="-8.9104313683">
        <ele>43.40</ele>
        <time>2021-05-29T08:30:57Z</time>
      </trkpt>
      <trkpt lat="37.1920038108" lon="-8.9106384013">
        <ele>41.95</ele>
        <time>2021-05-29T08:31:00Z</time>
      </trkpt>
      <trkpt lat="37.1922580339" lon="-8.9108671434">
        <ele>45.32</ele>
        <time>2021-05-29T08:31:03Z</time>
      </trkpt>
      <trkpt lat="37.1923358180" lon="-8.9109605178">
        <ele>44.84</ele>
        <time>2021-05-29T08:31:04Z</time>
      </trkpt>
      <trkpt lat="37.1928344574" lon="-8.9116578083">
        <ele>44.84</ele>
        <time>2021-05-29T08:31:12Z</time>
      </trkpt>
      <trkpt lat="37.1934665367" lon="-8.9126424305">
        <ele>41.95</ele>
        <time>2021-05-29T08:31:23Z</time>
      </trkpt>
      <trkpt lat="37.1938454825" lon="-8.9132325165">
        <ele>40.51</ele>
        <time>2021-05-29T08:31:29Z</time>
      </trkpt>
      <trkpt lat="37.1944038849" lon="-8.9140864648">
        <ele>39.55</ele>
        <time>2021-05-29T08:31:38Z</time>
      </trkpt>
      <trkpt lat="37.1947363950" lon="-8.9145773929">
        <ele>42.92</ele>
        <time>2021-05-29T08:31:43Z</time>
      </trkpt>
      <trkpt lat="37.1950204577" lon="-8.9150451031">
        <ele>46.76</ele>
        <time>2021-05-29T08:31:48Z</time>
      </trkpt>
      <trkpt lat="37.1950616129" lon="-8.9151429199">
        <ele>46.28</ele>
        <time>2021-05-29T08:31:49Z</time>
      </trkpt>
      <trkpt lat="37.1950953081" lon="-8.9152431674">
        <ele>47.24</ele>
        <time>2021-05-29T08:31:50Z</time>
      </trkpt>
      <trkpt lat="37.1952767763" lon="-8.9158249553">
        <ele>47.24</ele>
        <time>2021-05-29T08:31:57Z</time>
      </trkpt>
      <trkpt lat="37.1953670494" lon="-8.9161403663">
        <ele>43.88</ele>
        <time>2021-05-29T08:32:01Z</time>
      </trkpt>
      <trkpt lat="37.1954843123" lon="-8.9165339805">
        <ele>41.47</ele>
        <time>2021-05-29T08:32:11Z</time>
      </trkpt>
      <trkpt lat="37.1954858210" lon="-8.9165227488">
        <ele>41.47</ele>
        <time>2021-05-29T08:32:45Z</time>
      </trkpt>
      <trkpt lat="37.1954855695" lon="-8.9165182225">
        <ele>41.95</ele>
        <time>2021-05-29T08:33:16Z</time>
      </trkpt>
      <trkpt lat="37.1955011599" lon="-8.9165407699">
        <ele>42.44</ele>
        <time>2021-05-29T08:33:36Z</time>
      </trkpt>
      <trkpt lat="37.1955269761" lon="-8.9165696874">
        <ele>42.92</ele>
        <time>2021-05-29T08:33:37Z</time>
      </trkpt>
      <trkpt lat="37.1955610067" lon="-8.9165973477">
        <ele>42.92</ele>
        <time>2021-05-29T08:33:38Z</time>
      </trkpt>
      <trkpt lat="37.1956006531" lon="-8.9166164584">
        <ele>41.95</ele>
        <time>2021-05-29T08:33:39Z</time>
      </trkpt>
      <trkpt lat="37.1956424788" lon="-8.9166214876">
        <ele>41.95</ele>
        <time>2021-05-29T08:33:40Z</time>
      </trkpt>
      <trkpt lat="37.1956858970" lon="-8.9166084956">
        <ele>41.95</ele>
        <time>2021-05-29T08:33:41Z</time>
      </trkpt>
      <trkpt lat="37.1957286447" lon="-8.9165833499">
        <ele>41.47</ele>
        <time>2021-05-29T08:33:42Z</time>
      </trkpt>
      <trkpt lat="37.1957676206" lon="-8.9165452123">
        <ele>40.99</ele>
        <time>2021-05-29T08:33:43Z</time>
      </trkpt>
      <trkpt lat="37.1958055906" lon="-8.9165071584">
        <ele>42.44</ele>
        <time>2021-05-29T08:33:44Z</time>
      </trkpt>
      <trkpt lat="37.1958863921" lon="-8.9164264407">
        <ele>41.95</ele>
        <time>2021-05-29T08:33:46Z</time>
      </trkpt>
      <trkpt lat="37.1959246974" lon="-8.9163764007">
        <ele>42.44</ele>
        <time>2021-05-29T08:33:47Z</time>
      </trkpt>
      <trkpt lat="37.1959596500" lon="-8.9163216669">
        <ele>42.44</ele>
        <time>2021-05-29T08:33:48Z</time>
      </trkpt>
      <trkpt lat="37.1959899925" lon="-8.9162634127">
        <ele>42.92</ele>
        <time>2021-05-29T08:33:49Z</time>
      </trkpt>
      <trkpt lat="37.1960148867" lon="-8.9162014704">
        <ele>42.44</ele>
        <time>2021-05-29T08:33:50Z</time>
      </trkpt>
      <trkpt lat="37.1960343327" lon="-8.9161392767">
        <ele>41.95</ele>
        <time>2021-05-29T08:33:51Z</time>
      </trkpt>
      <trkpt lat="37.1960486658" lon="-8.9160734788">
        <ele>42.44</ele>
        <time>2021-05-29T08:33:52Z</time>
      </trkpt>
      <trkpt lat="37.1960605681" lon="-8.9160010591">
        <ele>43.40</ele>
        <time>2021-05-29T08:33:53Z</time>
      </trkpt>
      <trkpt lat="37.1960697882" lon="-8.9159205928">
        <ele>43.40</ele>
        <time>2021-05-29T08:33:54Z</time>
      </trkpt>
      <trkpt lat="37.1960729733" lon="-8.9158324152">
        <ele>42.92</ele>
        <time>2021-05-29T08:33:55Z</time>
      </trkpt>
      <trkpt lat="37.1960921679" lon="-8.9153161738">
        <ele>40.03</ele>
        <time>2021-05-29T08:34:01Z</time>
      </trkpt>
      <trkpt lat="37.1960990410" lon="-8.9152274933">
        <ele>40.99</ele>
        <time>2021-05-29T08:34:02Z</time>
      </trkpt>
      <trkpt lat="37.1961014718" lon="-8.9146368206">
        <ele>40.51</ele>
        <time>2021-05-29T08:34:08Z</time>
      </trkpt>
      <trkpt lat="37.1961133741" lon="-8.9145412669">
        <ele>38.59</ele>
        <time>2021-05-29T08:34:09Z</time>
      </trkpt>
      <trkpt lat="37.1961307246" lon="-8.9144503232">
        <ele>38.59</ele>
        <time>2021-05-29T08:34:10Z</time>
      </trkpt>
      <trkpt lat="37.1961475722" lon="-8.9143603854">
        <ele>38.59</ele>
        <time>2021-05-29T08:34:11Z</time>
      </trkpt>
      <trkpt lat="37.1961636655" lon="-8.9142663404">
        <ele>39.07</ele>
        <time>2021-05-29T08:34:12Z</time>
      </trkpt>
      <trkpt lat="37.1961872187" lon="-8.9141717926">
        <ele>40.51</ele>
        <time>2021-05-29T08:34:13Z</time>
      </trkpt>
      <trkpt lat="37.1962202433" lon="-8.9140749816">
        <ele>39.07</ele>
        <time>2021-05-29T08:34:14Z</time>
      </trkpt>
      <trkpt lat="37.1962615661" lon="-8.9139718004">
        <ele>40.03</ele>
        <time>2021-05-29T08:34:15Z</time>
      </trkpt>
      <trkpt lat="37.1963087562" lon="-8.9138788451">
        <ele>39.07</ele>
        <time>2021-05-29T08:34:16Z</time>
      </trkpt>
      <trkpt lat="37.1966219041" lon="-8.9132153336">
        <ele>37.15</ele>
        <time>2021-05-29T08:34:23Z</time>
      </trkpt>
      <trkpt lat="37.1970268339" lon="-8.9123804122">
        <ele>35.71</ele>
        <time>2021-05-29T08:34:32Z</time>
      </trkpt>
      <trkpt lat="37.1972005069" lon="-8.9119035657">
        <ele>34.74</ele>
        <time>2021-05-29T08:34:37Z</time>
      </trkpt>
      <trkpt lat="37.1972186118" lon="-8.9117973670">
        <ele>33.78</ele>
        <time>2021-05-29T08:34:38Z</time>
      </trkpt>
      <trkpt lat="37.1972331125" lon="-8.9116827864">
        <ele>33.78</ele>
        <time>2021-05-29T08:34:39Z</time>
      </trkpt>
      <trkpt lat="37.1973384731" lon="-8.9109269064">
        <ele>32.34</ele>
        <time>2021-05-29T08:34:46Z</time>
      </trkpt>
      <trkpt lat="37.1974890959" lon="-8.9098142087">
        <ele>33.78</ele>
        <time>2021-05-29T08:34:56Z</time>
      </trkpt>
      <trkpt lat="37.1974481922" lon="-8.9086597692">
        <ele>34.74</ele>
        <time>2021-05-29T08:35:07Z</time>
      </trkpt>
      <trkpt lat="37.1974248067" lon="-8.9085787162">
        <ele>34.74</ele>
        <time>2021-05-29T08:35:08Z</time>
      </trkpt>
      <trkpt lat="37.1973899379" lon="-8.9084964897">
        <ele>34.74</ele>
        <time>2021-05-29T08:35:09Z</time>
      </trkpt>
      <trkpt lat="37.1973424964" lon="-8.9084170293">
        <ele>35.23</ele>
        <time>2021-05-29T08:35:10Z</time>
      </trkpt>
      <trkpt lat="37.1972892713" lon="-8.9083446935">
        <ele>34.74</ele>
        <time>2021-05-29T08:35:11Z</time>
      </trkpt>
      <trkpt lat="37.1972294245" lon="-8.9082819130">
        <ele>35.71</ele>
        <time>2021-05-29T08:35:12Z</time>
      </trkpt>
      <trkpt lat="37.1971673146" lon="-8.9082300290">
        <ele>35.23</ele>
        <time>2021-05-29T08:35:13Z</time>
      </trkpt>
      <trkpt lat="37.1971010137" lon="-8.9081813302">
        <ele>36.19</ele>
        <time>2021-05-29T08:35:14Z</time>
      </trkpt>
      <trkpt lat="37.1964103449" lon="-8.9076596405">
        <ele>39.07</ele>
        <time>2021-05-29T08:35:25Z</time>
      </trkpt>
      <trkpt lat="37.1956242062" lon="-8.9070382901">
        <ele>39.55</ele>
        <time>2021-05-29T08:35:36Z</time>
      </trkpt>
      <trkpt lat="37.1953387186" lon="-8.9067974780">
        <ele>39.55</ele>
        <time>2021-05-29T08:35:40Z</time>
      </trkpt>
      <trkpt lat="37.1944069024" lon="-8.9060824178">
        <ele>37.63</ele>
        <time>2021-05-29T08:35:50Z</time>
      </trkpt>
      <trkpt lat="37.1938776691" lon="-8.9056614786">
        <ele>34.26</ele>
        <time>2021-05-29T08:35:56Z</time>
      </trkpt>
      <trkpt lat="37.1938038245" lon="-8.9056058228">
        <ele>34.26</ele>
        <time>2021-05-29T08:35:57Z</time>
      </trkpt>
      <trkpt lat="37.1931148320" lon="-8.9050178323">
        <ele>30.42</ele>
        <time>2021-05-29T08:36:06Z</time>
      </trkpt>
      <trkpt lat="37.1930613555" lon="-8.9049358573">
        <ele>29.46</ele>
        <time>2021-05-29T08:36:07Z</time>
      </trkpt>
      <trkpt lat="37.1930202004" lon="-8.9048464224">
        <ele>28.98</ele>
        <time>2021-05-29T08:36:08Z</time>
      </trkpt>
      <trkpt lat="37.1929953899" lon="-8.9047505334">
        <ele>28.98</ele>
        <time>2021-05-29T08:36:09Z</time>
      </trkpt>
      <trkpt lat="37.1929861698" lon="-8.9046506211">
        <ele>28.50</ele>
        <time>2021-05-29T08:36:10Z</time>
      </trkpt>
      <trkpt lat="37.1929910313" lon="-8.9045532234">
        <ele>27.05</ele>
        <time>2021-05-29T08:36:11Z</time>
      </trkpt>
      <trkpt lat="37.1930075437" lon="-8.9044558257">
        <ele>26.57</ele>
        <time>2021-05-29T08:36:12Z</time>
      </trkpt>
      <trkpt lat="37.1930331923" lon="-8.9043610264">
        <ele>24.65</ele>
        <time>2021-05-29T08:36:13Z</time>
      </trkpt>
      <trkpt lat="37.1930573322" lon="-8.9042730164">
        <ele>23.69</ele>
        <time>2021-05-29T08:36:14Z</time>
      </trkpt>
      <trkpt lat="37.1930707432" lon="-8.9041915443">
        <ele>22.25</ele>
        <time>2021-05-29T08:36:15Z</time>
      </trkpt>
      <trkpt lat="37.1930628642" lon="-8.9041085634">
        <ele>21.29</ele>
        <time>2021-05-29T08:36:16Z</time>
      </trkpt>
      <trkpt lat="37.1930309292" lon="-8.9040300250">
        <ele>20.32</ele>
        <time>2021-05-29T08:36:17Z</time>
      </trkpt>
      <trkpt lat="37.1929734293" lon="-8.9039625507">
        <ele>19.84</ele>
        <time>2021-05-29T08:36:18Z</time>
      </trkpt>
      <trkpt lat="37.1928962320" lon="-8.9038942382">
        <ele>18.40</ele>
        <time>2021-05-29T08:36:19Z</time>
      </trkpt>
      <trkpt lat="37.1928089764" lon="-8.9038173761">
        <ele>17.92</ele>
        <time>2021-05-29T08:36:20Z</time>
      </trkpt>
      <trkpt lat="37.1923121810" lon="-8.9033139590">
        <ele>15.04</ele>
        <time>2021-05-29T08:36:26Z</time>
      </trkpt>
      <trkpt lat="37.1922435332" lon="-8.9032214228">
        <ele>14.08</ele>
        <time>2021-05-29T08:36:27Z</time>
      </trkpt>
      <trkpt lat="37.1921838541" lon="-8.9031280484">
        <ele>13.12</ele>
        <time>2021-05-29T08:36:28Z</time>
      </trkpt>
      <trkpt lat="37.1921297070" lon="-8.9030332491">
        <ele>12.63</ele>
        <time>2021-05-29T08:36:29Z</time>
      </trkpt>
      <trkpt lat="37.1920872945" lon="-8.9029378630">
        <ele>11.67</ele>
        <time>2021-05-29T08:36:30Z</time>
      </trkpt>
      <trkpt lat="37.1920598857" lon="-8.9028460812">
        <ele>11.19</ele>
        <time>2021-05-29T08:36:31Z</time>
      </trkpt>
      <trkpt lat="37.1920590475" lon="-8.9027517010">
        <ele>9.75</ele>
        <time>2021-05-29T08:36:32Z</time>
      </trkpt>
      <trkpt lat="37.1920874622" lon="-8.9026617631">
        <ele>9.75</ele>
        <time>2021-05-29T08:36:33Z</time>
      </trkpt>
      <trkpt lat="37.1921382565" lon="-8.9025877509">
        <ele>8.79</ele>
        <time>2021-05-29T08:36:34Z</time>
      </trkpt>
      <trkpt lat="37.1922065690" lon="-8.9025280718">
        <ele>7.83</ele>
        <time>2021-05-29T08:36:35Z</time>
      </trkpt>
      <trkpt lat="37.1922940761" lon="-8.9024805464">
        <ele>8.79</ele>
        <time>2021-05-29T08:36:36Z</time>
      </trkpt>
      <trkpt lat="37.1923896298" lon="-8.9024430793">
        <ele>8.79</ele>
        <time>2021-05-29T08:36:37Z</time>
      </trkpt>
      <trkpt lat="37.1924761310" lon="-8.9024017565">
        <ele>8.31</ele>
        <time>2021-05-29T08:36:38Z</time>
      </trkpt>
      <trkpt lat="37.1925468743" lon="-8.9023503754">
        <ele>6.39</ele>
        <time>2021-05-29T08:36:39Z</time>
      </trkpt>
      <trkpt lat="37.1925914660" lon="-8.9022854995">
        <ele>6.39</ele>
        <time>2021-05-29T08:36:40Z</time>
      </trkpt>
      <trkpt lat="37.1926118340" lon="-8.9022014290">
        <ele>5.42</ele>
        <time>2021-05-29T08:36:41Z</time>
      </trkpt>
      <trkpt lat="37.1926100738" lon="-8.9021013491">
        <ele>5.42</ele>
        <time>2021-05-29T08:36:42Z</time>
      </trkpt>
      <trkpt lat="37.1925901249" lon="-8.9019902050">
        <ele>5.42</ele>
        <time>2021-05-29T08:36:43Z</time>
      </trkpt>
      <trkpt lat="37.1925625484" lon="-8.9018761273">
        <ele>5.91</ele>
        <time>2021-05-29T08:36:44Z</time>
      </trkpt>
      <trkpt lat="37.1922299545" lon="-8.9005657844">
        <ele>7.83</ele>
        <time>2021-05-29T08:36:54Z</time>
      </trkpt>
      <trkpt lat="37.1920439601" lon="-8.8996899594">
        <ele>7.35</ele>
        <time>2021-05-29T08:37:01Z</time>
      </trkpt>
      <trkpt lat="37.1920501627" lon="-8.8995822519">
        <ele>6.87</ele>
        <time>2021-05-29T08:37:02Z</time>
      </trkpt>
      <trkpt lat="37.1920728777" lon="-8.8994821720">
        <ele>7.35</ele>
        <time>2021-05-29T08:37:03Z</time>
      </trkpt>
      <trkpt lat="37.1921075787" lon="-8.8993924018">
        <ele>7.83</ele>
        <time>2021-05-29T08:37:04Z</time>
      </trkpt>
      <trkpt lat="37.1921489853" lon="-8.8993145339">
        <ele>7.35</ele>
        <time>2021-05-29T08:37:05Z</time>
      </trkpt>
      <trkpt lat="37.1921955887" lon="-8.8992419466">
        <ele>7.35</ele>
        <time>2021-05-29T08:37:06Z</time>
      </trkpt>
      <trkpt lat="37.1922393423" lon="-8.8991690241">
        <ele>8.31</ele>
        <time>2021-05-29T08:37:07Z</time>
      </trkpt>
      <trkpt lat="37.1922783181" lon="-8.8990915753">
        <ele>7.35</ele>
        <time>2021-05-29T08:37:08Z</time>
      </trkpt>
      <trkpt lat="37.1923123486" lon="-8.8990066666">
        <ele>7.83</ele>
        <time>2021-05-29T08:37:09Z</time>
      </trkpt>
      <trkpt lat="37.1923381649" lon="-8.8989119511">
        <ele>7.83</ele>
        <time>2021-05-29T08:37:10Z</time>
      </trkpt>
      <trkpt lat="37.1923506539" lon="-8.8988124579">
        <ele>7.35</ele>
        <time>2021-05-29T08:37:11Z</time>
      </trkpt>
      <trkpt lat="37.1923469659" lon="-8.8987098634">
        <ele>7.35</ele>
        <time>2021-05-29T08:37:12Z</time>
      </trkpt>
      <trkpt lat="37.1923275199" lon="-8.8986041676">
        <ele>6.87</ele>
        <time>2021-05-29T08:37:13Z</time>
      </trkpt>
      <trkpt lat="37.1922972612" lon="-8.8984962087">
        <ele>6.87</ele>
        <time>2021-05-29T08:37:14Z</time>
      </trkpt>
      <trkpt lat="37.1922633145" lon="-8.8983838912">
        <ele>7.83</ele>
        <time>2021-05-29T08:37:15Z</time>
      </trkpt>
      <trkpt lat="37.1918211691" lon="-8.8969289605">
        <ele>8.31</ele>
        <time>2021-05-29T08:37:26Z</time>
      </trkpt>
      <trkpt lat="37.1917001344" lon="-8.8964119647">
        <ele>7.35</ele>
        <time>2021-05-29T08:37:30Z</time>
      </trkpt>
      <trkpt lat="37.1916536987" lon="-8.8962962944">
        <ele>6.39</ele>
        <time>2021-05-29T08:37:31Z</time>
      </trkpt>
      <trkpt lat="37.1915905830" lon="-8.8961900957">
        <ele>6.87</ele>
        <time>2021-05-29T08:37:32Z</time>
      </trkpt>
      <trkpt lat="37.1915103681" lon="-8.8960957993">
        <ele>7.35</ele>
        <time>2021-05-29T08:37:33Z</time>
      </trkpt>
      <trkpt lat="37.1914049238" lon="-8.8960047718">
        <ele>8.79</ele>
        <time>2021-05-29T08:37:34Z</time>
      </trkpt>
      <trkpt lat="37.1912760101" lon="-8.8959123194">
        <ele>9.75</ele>
        <time>2021-05-29T08:37:35Z</time>
      </trkpt>
      <trkpt lat="37.1911493596" lon="-8.8958277460">
        <ele>8.79</ele>
        <time>2021-05-29T08:37:36Z</time>
      </trkpt>
      <trkpt lat="37.1908323560" lon="-8.8956093974">
        <ele>7.35</ele>
        <time>2021-05-29T08:37:39Z</time>
      </trkpt>
      <trkpt lat="37.1902051382" lon="-8.8950763922">
        <ele>10.71</ele>
        <time>2021-05-29T08:37:45Z</time>
      </trkpt>
      <trkpt lat="37.1895754896" lon="-8.8943262957">
        <ele>8.79</ele>
        <time>2021-05-29T08:37:53Z</time>
      </trkpt>
      <trkpt lat="37.1893496811" lon="-8.8941454981">
        <ele>9.75</ele>
        <time>2021-05-29T08:37:56Z</time>
      </trkpt>
      <trkpt lat="37.1892598271" lon="-8.8940991461">
        <ele>10.23</ele>
        <time>2021-05-29T08:37:57Z</time>
      </trkpt>
      <trkpt lat="37.1891619265" lon="-8.8940607570">
        <ele>10.23</ele>
        <time>2021-05-29T08:37:58Z</time>
      </trkpt>
      <trkpt lat="37.1881009452" lon="-8.8937529735">
        <ele>10.71</ele>
        <time>2021-05-29T08:38:07Z</time>
      </trkpt>
      <trkpt lat="37.1875305567" lon="-8.8935819827">
        <ele>11.19</ele>
        <time>2021-05-29T08:38:13Z</time>
      </trkpt>
      <trkpt lat="37.1874365117" lon="-8.8935333677">
        <ele>11.19</ele>
        <time>2021-05-29T08:38:14Z</time>
      </trkpt>
      <trkpt lat="37.1873480827" lon="-8.8934694137">
        <ele>11.19</ele>
        <time>2021-05-29T08:38:15Z</time>
      </trkpt>
      <trkpt lat="37.1872723103" lon="-8.8933987543">
        <ele>10.71</ele>
        <time>2021-05-29T08:38:16Z</time>
      </trkpt>
      <trkpt lat="37.1872057579" lon="-8.8933263347">
        <ele>10.23</ele>
        <time>2021-05-29T08:38:17Z</time>
      </trkpt>
      <trkpt lat="37.1870925184" lon="-8.8931938168">
        <ele>9.27</ele>
        <time>2021-05-29T08:38:19Z</time>
      </trkpt>
      <trkpt lat="37.1869510319" lon="-8.8930384163">
        <ele>8.31</ele>
        <time>2021-05-29T08:38:25Z</time>
      </trkpt>
      <trkpt lat="37.1869459189" lon="-8.8929895498">
        <ele>8.31</ele>
        <time>2021-05-29T08:38:33Z</time>
      </trkpt>
      <trkpt lat="37.1869548038" lon="-8.8929391745">
        <ele>9.75</ele>
        <time>2021-05-29T08:38:34Z</time>
      </trkpt>
      <trkpt lat="37.1869812906" lon="-8.8928831834">
        <ele>10.71</ele>
        <time>2021-05-29T08:38:35Z</time>
      </trkpt>
      <trkpt lat="37.1870224457" lon="-8.8928258512">
        <ele>10.23</ele>
        <time>2021-05-29T08:38:36Z</time>
      </trkpt>
      <trkpt lat="37.1870693844" lon="-8.8927704468">
        <ele>10.23</ele>
        <time>2021-05-29T08:38:37Z</time>
      </trkpt>
      <trkpt lat="37.1871225256" lon="-8.8927069958">
        <ele>11.19</ele>
        <time>2021-05-29T08:38:38Z</time>
      </trkpt>
      <trkpt lat="37.1871786006" lon="-8.8926317263">
        <ele>10.71</ele>
        <time>2021-05-29T08:38:39Z</time>
      </trkpt>
      <trkpt lat="37.1878163796" lon="-8.8918215316">
        <ele>11.67</ele>
        <time>2021-05-29T08:38:50Z</time>
      </trkpt>
      <trkpt lat="37.1884172782" lon="-8.8910426851">
        <ele>15.04</ele>
        <time>2021-05-29T08:38:58Z</time>
      </trkpt>
      <trkpt lat="37.1889788657" lon="-8.8905928284">
        <ele>17.44</ele>
        <time>2021-05-29T08:39:03Z</time>
      </trkpt>
      <trkpt lat="37.1891106293" lon="-8.8905408606">
        <ele>16.96</ele>
        <time>2021-05-29T08:39:04Z</time>
      </trkpt>
      <trkpt lat="37.1892459970" lon="-8.8905007113">
        <ele>16.48</ele>
        <time>2021-05-29T08:39:05Z</time>
      </trkpt>
      <trkpt lat="37.1904234868" lon="-8.8902756572">
        <ele>20.81</ele>
        <time>2021-05-29T08:39:13Z</time>
      </trkpt>
      <trkpt lat="37.1906228922" lon="-8.8902420457">
        <ele>24.65</ele>
        <time>2021-05-29T08:39:14Z</time>
      </trkpt>
      <trkpt lat="37.1908275783" lon="-8.8902044110">
        <ele>24.17</ele>
        <time>2021-05-29T08:39:15Z</time>
      </trkpt>
      <trkpt lat="37.1923014522" lon="-8.8899289817">
        <ele>21.29</ele>
        <time>2021-05-29T08:39:22Z</time>
      </trkpt>
      <trkpt lat="37.1940033138" lon="-8.8896227907">
        <ele>25.13</ele>
        <time>2021-05-29T08:39:30Z</time>
      </trkpt>
      <trkpt lat="37.1944305394" lon="-8.8895465154">
        <ele>21.29</ele>
        <time>2021-05-29T08:39:32Z</time>
      </trkpt>
      <trkpt lat="37.1963420324" lon="-8.8891800586">
        <ele>21.77</ele>
        <time>2021-05-29T08:39:41Z</time>
      </trkpt>
      <trkpt lat="37.1975125652" lon="-8.8887706865">
        <ele>18.40</ele>
        <time>2021-05-29T08:39:47Z</time>
      </trkpt>
      <trkpt lat="37.1992583480" lon="-8.8878573105">
        <ele>21.77</ele>
        <time>2021-05-29T08:39:56Z</time>
      </trkpt>
      <trkpt lat="37.1994583402" lon="-8.8877502736">
        <ele>21.77</ele>
        <time>2021-05-29T08:39:57Z</time>
      </trkpt>
      <trkpt lat="37.2006338183" lon="-8.8871320244">
        <ele>21.29</ele>
        <time>2021-05-29T08:40:03Z</time>
      </trkpt>
      <trkpt lat="37.2009535879" lon="-8.8869584352">
        <ele>16.96</ele>
        <time>2021-05-29T08:40:05Z</time>
      </trkpt>
      <trkpt lat="37.2010876145" lon="-8.8868687488">
        <ele>16.48</ele>
        <time>2021-05-29T08:40:06Z</time>
      </trkpt>
      <trkpt lat="37.2012098227" lon="-8.8867567666">
        <ele>16.00</ele>
        <time>2021-05-29T08:40:07Z</time>
      </trkpt>
      <trkpt lat="37.2013194580" lon="-8.8866175432">
        <ele>16.00</ele>
        <time>2021-05-29T08:40:08Z</time>
      </trkpt>
      <trkpt lat="37.2014139220" lon="-8.8864520844">
        <ele>16.00</ele>
        <time>2021-05-29T08:40:09Z</time>
      </trkpt>
      <trkpt lat="37.2014872637" lon="-8.8862703647">
        <ele>17.92</ele>
        <time>2021-05-29T08:40:10Z</time>
      </trkpt>
      <trkpt lat="37.2015332803" lon="-8.8860748149">
        <ele>15.52</ele>
        <time>2021-05-29T08:40:11Z</time>
      </trkpt>
      <trkpt lat="37.2015522234" lon="-8.8858596515">
        <ele>14.56</ele>
        <time>2021-05-29T08:40:12Z</time>
      </trkpt>
      <trkpt lat="37.2015558276" lon="-8.8856283948">
        <ele>14.56</ele>
        <time>2021-05-29T08:40:13Z</time>
      </trkpt>
      <trkpt lat="37.2015501279" lon="-8.8853894267">
        <ele>14.08</ele>
        <time>2021-05-29T08:40:14Z</time>
      </trkpt>
      <trkpt lat="37.2015544865" lon="-8.8847174495">
        <ele>14.08</ele>
        <time>2021-05-29T08:40:17Z</time>
      </trkpt>
      <trkpt lat="37.2015911154" lon="-8.8844958320">
        <ele>15.52</ele>
        <time>2021-05-29T08:40:18Z</time>
      </trkpt>
      <trkpt lat="37.2016451787" lon="-8.8842664193">
        <ele>16.00</ele>
        <time>2021-05-29T08:40:19Z</time>
      </trkpt>
      <trkpt lat="37.2017383017" lon="-8.8840332348">
        <ele>18.88</ele>
        <time>2021-05-29T08:40:20Z</time>
      </trkpt>
      <trkpt lat="37.2018641979" lon="-8.8837921713">
        <ele>19.84</ele>
        <time>2021-05-29T08:40:21Z</time>
      </trkpt>
      <trkpt lat="37.2020052653" lon="-8.8835468329">
        <ele>20.32</ele>
        <time>2021-05-29T08:40:22Z</time>
      </trkpt>
      <trkpt lat="37.2024791781" lon="-8.8827101514">
        <ele>18.40</ele>
        <time>2021-05-29T08:40:26Z</time>
      </trkpt>
      <trkpt lat="37.2026627418" lon="-8.8823737018">
        <ele>15.52</ele>
        <time>2021-05-29T08:40:28Z</time>
      </trkpt>
      <trkpt lat="37.2027413640" lon="-8.8822045550">
        <ele>15.04</ele>
        <time>2021-05-29T08:40:29Z</time>
      </trkpt>
      <trkpt lat="37.2027986124" lon="-8.8820248470">
        <ele>16.96</ele>
        <time>2021-05-29T08:40:30Z</time>
      </trkpt>
      <trkpt lat="37.2028288711" lon="-8.8818428759">
        <ele>15.52</ele>
        <time>2021-05-29T08:40:31Z</time>
      </trkpt>
      <trkpt lat="37.2028264403" lon="-8.8816599827">
        <ele>13.60</ele>
        <time>2021-05-29T08:40:32Z</time>
      </trkpt>
      <trkpt lat="37.2027922422" lon="-8.8814729825">
        <ele>14.08</ele>
        <time>2021-05-29T08:40:33Z</time>
      </trkpt>
      <trkpt lat="37.2027246002" lon="-8.8812882453">
        <ele>15.04</ele>
        <time>2021-05-29T08:40:34Z</time>
      </trkpt>
      <trkpt lat="37.2026267834" lon="-8.8811072800">
        <ele>15.52</ele>
        <time>2021-05-29T08:40:35Z</time>
      </trkpt>
      <trkpt lat="37.2025107779" lon="-8.8809221238">
        <ele>17.44</ele>
        <time>2021-05-29T08:40:36Z</time>
      </trkpt>
      <trkpt lat="37.2021181695" lon="-8.8803001028">
        <ele>20.32</ele>
        <time>2021-05-29T08:40:39Z</time>
      </trkpt>
      <trkpt lat="37.2018184327" lon="-8.8798295427">
        <ele>24.65</ele>
        <time>2021-05-29T08:40:41Z</time>
      </trkpt>
      <trkpt lat="37.2016712464" lon="-8.8795997109">
        <ele>23.21</ele>
        <time>2021-05-29T08:40:42Z</time>
      </trkpt>
      <trkpt lat="37.2010889556" lon="-8.8786949683">
        <ele>24.65</ele>
        <time>2021-05-29T08:40:46Z</time>
      </trkpt>
      <trkpt lat="37.2006635740" lon="-8.8780286908">
        <ele>28.50</ele>
        <time>2021-05-29T08:40:49Z</time>
      </trkpt>
      <trkpt lat="37.2005208302" lon="-8.8778084144">
        <ele>28.50</ele>
        <time>2021-05-29T08:40:50Z</time>
      </trkpt>
      <trkpt lat="37.1994355414" lon="-8.8757888786">
        <ele>31.38</ele>
        <time>2021-05-29T08:40:59Z</time>
      </trkpt>
      <trkpt lat="37.1993120760" lon="-8.8752701227">
        <ele>31.38</ele>
        <time>2021-05-29T08:41:01Z</time>
      </trkpt>
      <trkpt lat="37.1992968209" lon="-8.8750231918">
        <ele>29.94</ele>
        <time>2021-05-29T08:41:02Z</time>
      </trkpt>
      <trkpt lat="37.1993085556" lon="-8.8747621793">
        <ele>30.90</ele>
        <time>2021-05-29T08:41:03Z</time>
      </trkpt>
      <trkpt lat="37.1993410774" lon="-8.8744860794">
        <ele>34.74</ele>
        <time>2021-05-29T08:41:04Z</time>
      </trkpt>
      <trkpt lat="37.1993854176" lon="-8.8741999213">
        <ele>37.15</ele>
        <time>2021-05-29T08:41:05Z</time>
      </trkpt>
      <trkpt lat="37.1994761098" lon="-8.8736177143">
        <ele>38.11</ele>
        <time>2021-05-29T08:41:07Z</time>
      </trkpt>
      <trkpt lat="37.1995134093" lon="-8.8730851281">
        <ele>36.67</ele>
        <time>2021-05-29T08:41:09Z</time>
      </trkpt>
      <trkpt lat="37.1994937956" lon="-8.8728148118">
        <ele>39.07</ele>
        <time>2021-05-29T08:41:10Z</time>
      </trkpt>
      <trkpt lat="37.1993967332" lon="-8.8720152620">
        <ele>40.99</ele>
        <time>2021-05-29T08:41:13Z</time>
      </trkpt>
      <trkpt lat="37.1993827354" lon="-8.8717777189">
        <ele>41.47</ele>
        <time>2021-05-29T08:41:14Z</time>
      </trkpt>
      <trkpt lat="37.1994008403" lon="-8.8715405110">
        <ele>42.44</ele>
        <time>2021-05-29T08:41:15Z</time>
      </trkpt>
      <trkpt lat="37.1994511317" lon="-8.8712979387">
        <ele>43.88</ele>
        <time>2021-05-29T08:41:16Z</time>
      </trkpt>
      <trkpt lat="37.1995273232" lon="-8.8710538577">
        <ele>46.28</ele>
        <time>2021-05-29T08:41:17Z</time>
      </trkpt>
      <trkpt lat="37.1996175125" lon="-8.8708081841">
        <ele>47.24</ele>
        <time>2021-05-29T08:41:18Z</time>
      </trkpt>
      <trkpt lat="37.1997877490" lon="-8.8703450840">
        <ele>50.61</ele>
        <time>2021-05-29T08:41:20Z</time>
      </trkpt>
      <trkpt lat="37.1999306604" lon="-8.8699142542">
        <ele>52.05</ele>
        <time>2021-05-29T08:41:22Z</time>
      </trkpt>
      <trkpt lat="37.1999756712" lon="-8.8697175309">
        <ele>49.16</ele>
        <time>2021-05-29T08:41:23Z</time>
      </trkpt>
      <trkpt lat="37.1999925189" lon="-8.8695206400">
        <ele>48.68</ele>
        <time>2021-05-29T08:41:24Z</time>
      </trkpt>
      <trkpt lat="37.1999766771" lon="-8.8693094999">
        <ele>47.72</ele>
        <time>2021-05-29T08:41:25Z</time>
      </trkpt>
      <trkpt lat="37.1999341808" lon="-8.8690843619">
        <ele>47.24</ele>
        <time>2021-05-29T08:41:26Z</time>
      </trkpt>
      <trkpt lat="37.1998885833" lon="-8.8688611519">
        <ele>47.24</ele>
        <time>2021-05-29T08:41:27Z</time>
      </trkpt>
      <trkpt lat="37.1998661198" lon="-8.8686262071">
        <ele>45.80</ele>
        <time>2021-05-29T08:41:28Z</time>
      </trkpt>
      <trkpt lat="37.1998691373" lon="-8.8683775999">
        <ele>45.80</ele>
        <time>2021-05-29T08:41:29Z</time>
      </trkpt>
      <trkpt lat="37.1998891700" lon="-8.8681426551">
        <ele>44.36</ele>
        <time>2021-05-29T08:41:30Z</time>
      </trkpt>
      <trkpt lat="37.1999263018" lon="-8.8679333590">
        <ele>42.44</ele>
        <time>2021-05-29T08:41:31Z</time>
      </trkpt>
      <trkpt lat="37.1999940276" lon="-8.8677396532">
        <ele>40.51</ele>
        <time>2021-05-29T08:41:32Z</time>
      </trkpt>
      <trkpt lat="37.2001013998" lon="-8.8675551675">
        <ele>40.99</ele>
        <time>2021-05-29T08:41:33Z</time>
      </trkpt>
      <trkpt lat="37.2002324928" lon="-8.8673864398">
        <ele>40.03</ele>
        <time>2021-05-29T08:41:34Z</time>
      </trkpt>
      <trkpt lat="37.2003525216" lon="-8.8672397565">
        <ele>37.63</ele>
        <time>2021-05-29T08:41:35Z</time>
      </trkpt>
      <trkpt lat="37.2004415374" lon="-8.8670972642">
        <ele>36.67</ele>
        <time>2021-05-29T08:41:36Z</time>
      </trkpt>
      <trkpt lat="37.2004932538" lon="-8.8669390976">
        <ele>34.74</ele>
        <time>2021-05-29T08:41:37Z</time>
      </trkpt>
      <trkpt lat="37.2005096823" lon="-8.8667723816">
        <ele>33.78</ele>
        <time>2021-05-29T08:41:38Z</time>
      </trkpt>
      <trkpt lat="37.2004937567" lon="-8.8666037377">
        <ele>31.86</ele>
        <time>2021-05-29T08:41:39Z</time>
      </trkpt>
      <trkpt lat="37.2004430462" lon="-8.8664461579">
        <ele>32.34</ele>
        <time>2021-05-29T08:41:40Z</time>
      </trkpt>
      <trkpt lat="37.2003521863" lon="-8.8663028274">
        <ele>32.34</ele>
        <time>2021-05-29T08:41:41Z</time>
      </trkpt>
      <trkpt lat="37.2002229374" lon="-8.8661847264">
        <ele>32.34</ele>
        <time>2021-05-29T08:41:42Z</time>
      </trkpt>
      <trkpt lat="37.2000687942" lon="-8.8660930283">
        <ele>32.82</ele>
        <time>2021-05-29T08:41:43Z</time>
      </trkpt>
      <trkpt lat="37.1998962946" lon="-8.8660271466">
        <ele>34.26</ele>
        <time>2021-05-29T08:41:44Z</time>
      </trkpt>
      <trkpt lat="37.1997155808" lon="-8.8659911882">
        <ele>35.23</ele>
        <time>2021-05-29T08:41:45Z</time>
      </trkpt>
      <trkpt lat="37.1995346155" lon="-8.8659807947">
        <ele>33.78</ele>
        <time>2021-05-29T08:41:46Z</time>
      </trkpt>
      <trkpt lat="37.1993615292" lon="-8.8659731671">
        <ele>33.78</ele>
        <time>2021-05-29T08:41:47Z</time>
      </trkpt>
      <trkpt lat="37.1991837490" lon="-8.8659507874">
        <ele>33.30</ele>
        <time>2021-05-29T08:41:48Z</time>
      </trkpt>
      <trkpt lat="37.1990023647" lon="-8.8658824749">
        <ele>33.30</ele>
        <time>2021-05-29T08:41:49Z</time>
      </trkpt>
      <trkpt lat="37.1988385823" lon="-8.8657729235">
        <ele>34.74</ele>
        <time>2021-05-29T08:41:50Z</time>
      </trkpt>
      <trkpt lat="37.1987018734" lon="-8.8656183612">
        <ele>33.78</ele>
        <time>2021-05-29T08:41:51Z</time>
      </trkpt>
      <trkpt lat="37.1985965967" lon="-8.8654426765">
        <ele>32.34</ele>
        <time>2021-05-29T08:41:52Z</time>
      </trkpt>
      <trkpt lat="37.1985165495" lon="-8.8652542513">
        <ele>31.38</ele>
        <time>2021-05-29T08:41:53Z</time>
      </trkpt>
      <trkpt lat="37.1984593850" lon="-8.8650396746">
        <ele>31.86</ele>
        <time>2021-05-29T08:41:54Z</time>
      </trkpt>
      <trkpt lat="37.1984337363" lon="-8.8647988625">
        <ele>32.82</ele>
        <time>2021-05-29T08:41:55Z</time>
      </trkpt>
      <trkpt lat="37.1984267794" lon="-8.8645477407">
        <ele>34.26</ele>
        <time>2021-05-29T08:41:56Z</time>
      </trkpt>
      <trkpt lat="37.1984192356" lon="-8.8643096108">
        <ele>32.34</ele>
        <time>2021-05-29T08:41:57Z</time>
      </trkpt>
      <trkpt lat="37.1984056570" lon="-8.8638968021">
        <ele>28.02</ele>
        <time>2021-05-29T08:41:59Z</time>
      </trkpt>
      <trkpt lat="37.1984021366" lon="-8.8635560777">
        <ele>27.05</ele>
        <time>2021-05-29T08:42:01Z</time>
      </trkpt>
      <trkpt lat="37.1984140389" lon="-8.8634005934">
        <ele>27.05</ele>
        <time>2021-05-29T08:42:02Z</time>
      </trkpt>
      <trkpt lat="37.1984316409" lon="-8.8632531557">
        <ele>25.61</ele>
        <time>2021-05-29T08:42:03Z</time>
      </trkpt>
      <trkpt lat="37.1984555293" lon="-8.8631155249">
        <ele>25.61</ele>
        <time>2021-05-29T08:42:04Z</time>
      </trkpt>
      <trkpt lat="37.1987197269" lon="-8.8620050903">
        <ele>27.05</ele>
        <time>2021-05-29T08:42:13Z</time>
      </trkpt>
      <trkpt lat="37.1987616364" lon="-8.8617060240">
        <ele>27.05</ele>
        <time>2021-05-29T08:42:15Z</time>
      </trkpt>
      <trkpt lat="37.1987628937" lon="-8.8615564071">
        <ele>26.09</ele>
        <time>2021-05-29T08:42:16Z</time>
      </trkpt>
      <trkpt lat="37.1987473033" lon="-8.8614043593">
        <ele>27.53</ele>
        <time>2021-05-29T08:42:17Z</time>
      </trkpt>
      <trkpt lat="37.1987137757" lon="-8.8612536527">
        <ele>27.05</ele>
        <time>2021-05-29T08:42:18Z</time>
      </trkpt>
      <trkpt lat="37.1986586228" lon="-8.8611005992">
        <ele>28.50</ele>
        <time>2021-05-29T08:42:19Z</time>
      </trkpt>
      <trkpt lat="37.1985869575" lon="-8.8609431032">
        <ele>30.90</ele>
        <time>2021-05-29T08:42:20Z</time>
      </trkpt>
      <trkpt lat="37.1985058207" lon="-8.8607840147">
        <ele>30.90</ele>
        <time>2021-05-29T08:42:21Z</time>
      </trkpt>
      <trkpt lat="37.1984381787" lon="-8.8606262673">
        <ele>31.38</ele>
        <time>2021-05-29T08:42:22Z</time>
      </trkpt>
      <trkpt lat="37.1983934194" lon="-8.8604463078">
        <ele>32.82</ele>
        <time>2021-05-29T08:42:23Z</time>
      </trkpt>
      <trkpt lat="37.1983757336" lon="-8.8602355868">
        <ele>32.82</ele>
        <time>2021-05-29T08:42:24Z</time>
      </trkpt>
      <trkpt lat="37.1983738896" lon="-8.8600127958">
        <ele>33.78</ele>
        <time>2021-05-29T08:42:25Z</time>
      </trkpt>
      <trkpt lat="37.1983797569" lon="-8.8597891666">
        <ele>35.23</ele>
        <time>2021-05-29T08:42:26Z</time>
      </trkpt>
      <trkpt lat="37.1984095965" lon="-8.8588723540">
        <ele>38.59</ele>
        <time>2021-05-29T08:42:30Z</time>
      </trkpt>
      <trkpt lat="37.1984530985" lon="-8.8574052695">
        <ele>43.40</ele>
        <time>2021-05-29T08:42:36Z</time>
      </trkpt>
      <trkpt lat="37.1984621510" lon="-8.8571590930">
        <ele>42.92</ele>
        <time>2021-05-29T08:42:37Z</time>
      </trkpt>
      <trkpt lat="37.1984855365" lon="-8.8561682682">
        <ele>44.84</ele>
        <time>2021-05-29T08:42:41Z</time>
      </trkpt>
      <trkpt lat="37.1985005401" lon="-8.8556865603">
        <ele>45.80</ele>
        <time>2021-05-29T08:42:43Z</time>
      </trkpt>
      <trkpt lat="37.1985230874" lon="-8.8549175207">
        <ele>44.36</ele>
        <time>2021-05-29T08:42:46Z</time>
      </trkpt>
      <trkpt lat="37.1985849459" lon="-8.8528419100">
        <ele>41.47</ele>
        <time>2021-05-29T08:42:54Z</time>
      </trkpt>
      <trkpt lat="37.1986194793" lon="-8.8526236452">
        <ele>41.47</ele>
        <time>2021-05-29T08:42:55Z</time>
      </trkpt>
      <trkpt lat="37.1986830980" lon="-8.8524044584">
        <ele>41.95</ele>
        <time>2021-05-29T08:42:56Z</time>
      </trkpt>
      <trkpt lat="37.1987811662" lon="-8.8521870319">
        <ele>43.88</ele>
        <time>2021-05-29T08:42:57Z</time>
      </trkpt>
      <trkpt lat="37.1989043802" lon="-8.8519701082">
        <ele>44.36</ele>
        <time>2021-05-29T08:42:58Z</time>
      </trkpt>
      <trkpt lat="37.1990186255" lon="-8.8517602254">
        <ele>43.40</ele>
        <time>2021-05-29T08:42:59Z</time>
      </trkpt>
      <trkpt lat="37.1991073899" lon="-8.8515536115">
        <ele>42.92</ele>
        <time>2021-05-29T08:43:00Z</time>
      </trkpt>
      <trkpt lat="37.1991731040" lon="-8.8513335027">
        <ele>42.92</ele>
        <time>2021-05-29T08:43:01Z</time>
      </trkpt>
      <trkpt lat="37.1992148459" lon="-8.8510936964">
        <ele>42.44</ele>
        <time>2021-05-29T08:43:02Z</time>
      </trkpt>
      <trkpt lat="37.1992410813" lon="-8.8508369587">
        <ele>43.40</ele>
        <time>2021-05-29T08:43:03Z</time>
      </trkpt>
      <trkpt lat="37.1992589347" lon="-8.8505729288">
        <ele>43.40</ele>
        <time>2021-05-29T08:43:04Z</time>
      </trkpt>
      <trkpt lat="37.1993545722" lon="-8.8496531826">
        <ele>42.92</ele>
        <time>2021-05-29T08:43:08Z</time>
      </trkpt>
      <trkpt lat="37.1994176880" lon="-8.8494762406">
        <ele>42.44</ele>
        <time>2021-05-29T08:43:09Z</time>
      </trkpt>
      <trkpt lat="37.1995145828" lon="-8.8493222650">
        <ele>41.95</ele>
        <time>2021-05-29T08:43:10Z</time>
      </trkpt>
      <trkpt lat="37.1996448375" lon="-8.8491814490">
        <ele>42.44</ele>
        <time>2021-05-29T08:43:11Z</time>
      </trkpt>
      <trkpt lat="37.1997886710" lon="-8.8490442373">
        <ele>43.88</ele>
        <time>2021-05-29T08:43:12Z</time>
      </trkpt>
      <trkpt lat="37.1999328397" lon="-8.8489052653">
        <ele>43.88</ele>
        <time>2021-05-29T08:43:13Z</time>
      </trkpt>
      <trkpt lat="37.2008191422" lon="-8.8476703595">
        <ele>42.92</ele>
        <time>2021-05-29T08:43:20Z</time>
      </trkpt>
      <trkpt lat="37.2017849889" lon="-8.8458664063">
        <ele>42.44</ele>
        <time>2021-05-29T08:43:29Z</time>
      </trkpt>
      <trkpt lat="37.2018505353" lon="-8.8456364069">
        <ele>42.92</ele>
        <time>2021-05-29T08:43:30Z</time>
      </trkpt>
      <trkpt lat="37.2019727435" lon="-8.8451626617">
        <ele>43.88</ele>
        <time>2021-05-29T08:43:32Z</time>
      </trkpt>
      <trkpt lat="37.2023633402" lon="-8.8434621412">
        <ele>44.84</ele>
        <time>2021-05-29T08:43:40Z</time>
      </trkpt>
      <trkpt lat="37.2025566269" lon="-8.8427918404">
        <ele>48.68</ele>
        <time>2021-05-29T08:43:44Z</time>
      </trkpt>
      <trkpt lat="37.2026464809" lon="-8.8426534552">
        <ele>49.16</ele>
        <time>2021-05-29T08:43:45Z</time>
      </trkpt>
      <trkpt lat="37.2027588822" lon="-8.8425370306">
        <ele>51.57</ele>
        <time>2021-05-29T08:43:46Z</time>
      </trkpt>
      <trkpt lat="37.2028895561" lon="-8.8424372859">
        <ele>53.49</ele>
        <time>2021-05-29T08:43:47Z</time>
      </trkpt>
      <trkpt lat="37.2030322161" lon="-8.8423475157">
        <ele>53.97</ele>
        <time>2021-05-29T08:43:48Z</time>
      </trkpt>
      <trkpt lat="37.2031905502" lon="-8.8422584999">
        <ele>58.78</ele>
        <time>2021-05-29T08:43:49Z</time>
      </trkpt>
      <trkpt lat="37.2035339568" lon="-8.8420400675">
        <ele>63.58</ele>
        <time>2021-05-29T08:43:51Z</time>
      </trkpt>
      <trkpt lat="37.2038533911" lon="-8.8418258261">
        <ele>64.55</ele>
        <time>2021-05-29T08:43:53Z</time>
      </trkpt>
      <trkpt lat="37.2044173256" lon="-8.8414233271">
        <ele>66.95</ele>
        <time>2021-05-29T08:43:57Z</time>
      </trkpt>
      <trkpt lat="37.2045288049" lon="-8.8412851095">
        <ele>67.91</ele>
        <time>2021-05-29T08:43:58Z</time>
      </trkpt>
      <trkpt lat="37.2046282142" lon="-8.8411207404">
        <ele>69.35</ele>
        <time>2021-05-29T08:43:59Z</time>
      </trkpt>
      <trkpt lat="37.2047103569" lon="-8.8409335725">
        <ele>70.79</ele>
        <time>2021-05-29T08:44:00Z</time>
      </trkpt>
      <trkpt lat="37.2047705390" lon="-8.8407204207">
        <ele>71.76</ele>
        <time>2021-05-29T08:44:01Z</time>
      </trkpt>
      <trkpt lat="37.2048134543" lon="-8.8404941093">
        <ele>72.24</ele>
        <time>2021-05-29T08:44:02Z</time>
      </trkpt>
      <trkpt lat="37.2048491612" lon="-8.8402797841">
        <ele>72.24</ele>
        <time>2021-05-29T08:44:03Z</time>
      </trkpt>
      <trkpt lat="37.2048919089" lon="-8.8400724996">
        <ele>72.24</ele>
        <time>2021-05-29T08:44:04Z</time>
      </trkpt>
      <trkpt lat="37.2049502470" lon="-8.8398740161">
        <ele>73.20</ele>
        <time>2021-05-29T08:44:05Z</time>
      </trkpt>
      <trkpt lat="37.2051499877" lon="-8.8393919729">
        <ele>72.24</ele>
        <time>2021-05-29T08:44:08Z</time>
      </trkpt>
      <trkpt lat="37.2052474692" lon="-8.8392712735">
        <ele>73.20</ele>
        <time>2021-05-29T08:44:09Z</time>
      </trkpt>
      <trkpt lat="37.2053774726" lon="-8.8391784858">
        <ele>75.12</ele>
        <time>2021-05-29T08:44:10Z</time>
      </trkpt>
      <trkpt lat="37.2055341303" lon="-8.8391018752">
        <ele>79.45</ele>
        <time>2021-05-29T08:44:11Z</time>
      </trkpt>
      <trkpt lat="37.2057113238" lon="-8.8390269410">
        <ele>81.37</ele>
        <time>2021-05-29T08:44:12Z</time>
      </trkpt>
      <trkpt lat="37.2060426604" lon="-8.8388751447">
        <ele>82.33</ele>
        <time>2021-05-29T08:44:14Z</time>
      </trkpt>
      <trkpt lat="37.2063069418" lon="-8.8387757353">
        <ele>82.33</ele>
        <time>2021-05-29T08:44:16Z</time>
      </trkpt>
      <trkpt lat="37.2064297367" lon="-8.8387801778">
        <ele>82.81</ele>
        <time>2021-05-29T08:44:17Z</time>
      </trkpt>
      <trkpt lat="37.2065581474" lon="-8.8388331514">
        <ele>84.25</ele>
        <time>2021-05-29T08:44:18Z</time>
      </trkpt>
      <trkpt lat="37.2066954430" lon="-8.8389205746">
        <ele>85.21</ele>
        <time>2021-05-29T08:44:19Z</time>
      </trkpt>
      <trkpt lat="37.2068469878" lon="-8.8390247617">
        <ele>88.10</ele>
        <time>2021-05-29T08:44:20Z</time>
      </trkpt>
      <trkpt lat="37.2071541846" lon="-8.8392117620">
        <ele>89.54</ele>
        <time>2021-05-29T08:44:22Z</time>
      </trkpt>
      <trkpt lat="37.2074167058" lon="-8.8393377420">
        <ele>88.58</ele>
        <time>2021-05-29T08:44:24Z</time>
      </trkpt>
      <trkpt lat="37.2075484693" lon="-8.8393394183">
        <ele>88.10</ele>
        <time>2021-05-29T08:44:25Z</time>
      </trkpt>
      <trkpt lat="37.2076913808" lon="-8.8392934855">
        <ele>90.98</ele>
        <time>2021-05-29T08:44:26Z</time>
      </trkpt>
      <trkpt lat="37.2079838254" lon="-8.8391652424">
        <ele>92.42</ele>
        <time>2021-05-29T08:44:28Z</time>
      </trkpt>
      <trkpt lat="37.2081186064" lon="-8.8391459640">
        <ele>92.42</ele>
        <time>2021-05-29T08:44:29Z</time>
      </trkpt>
      <trkpt lat="37.2082525492" lon="-8.8391819224">
        <ele>93.87</ele>
        <time>2021-05-29T08:44:30Z</time>
      </trkpt>
      <trkpt lat="37.2083838936" lon="-8.8392718602">
        <ele>95.79</ele>
        <time>2021-05-29T08:44:31Z</time>
      </trkpt>
      <trkpt lat="37.2085092869" lon="-8.8393980078">
        <ele>96.75</ele>
        <time>2021-05-29T08:44:32Z</time>
      </trkpt>
      <trkpt lat="37.2086257115" lon="-8.8395220600">
        <ele>97.71</ele>
        <time>2021-05-29T08:44:33Z</time>
      </trkpt>
      <trkpt lat="37.2087335028" lon="-8.8396279234">
        <ele>97.71</ele>
        <time>2021-05-29T08:44:34Z</time>
      </trkpt>
      <trkpt lat="37.2089158930" lon="-8.8397600222">
        <ele>96.27</ele>
        <time>2021-05-29T08:44:36Z</time>
      </trkpt>
      <trkpt lat="37.2090067528" lon="-8.8397627883">
        <ele>95.79</ele>
        <time>2021-05-29T08:44:37Z</time>
      </trkpt>
      <trkpt lat="37.2090950981" lon="-8.8397133350">
        <ele>95.31</ele>
        <time>2021-05-29T08:44:38Z</time>
      </trkpt>
      <trkpt lat="37.2091630753" lon="-8.8396099862">
        <ele>96.75</ele>
        <time>2021-05-29T08:44:39Z</time>
      </trkpt>
      <trkpt lat="37.2091909871" lon="-8.8394736964">
        <ele>97.71</ele>
        <time>2021-05-29T08:44:40Z</time>
      </trkpt>
      <trkpt lat="37.2091866285" lon="-8.8393254206">
        <ele>99.15</ele>
        <time>2021-05-29T08:44:41Z</time>
      </trkpt>
      <trkpt lat="37.2091852874" lon="-8.8391877897">
        <ele>98.19</ele>
        <time>2021-05-29T08:44:42Z</time>
      </trkpt>
      <trkpt lat="37.2092194855" lon="-8.8390633184">
        <ele>98.67</ele>
        <time>2021-05-29T08:44:43Z</time>
      </trkpt>
      <trkpt lat="37.2092984430" lon="-8.8389615621">
        <ele>100.60</ele>
        <time>2021-05-29T08:44:44Z</time>
      </trkpt>
      <trkpt lat="37.2094177175" lon="-8.8388841134">
        <ele>102.04</ele>
        <time>2021-05-29T08:44:45Z</time>
      </trkpt>
      <trkpt lat="37.2095622215" lon="-8.8388126157">
        <ele>103.48</ele>
        <time>2021-05-29T08:44:46Z</time>
      </trkpt>
      <trkpt lat="37.2097210586" lon="-8.8387440518">
        <ele>104.92</ele>
        <time>2021-05-29T08:44:47Z</time>
      </trkpt>
      <trkpt lat="37.2100323625" lon="-8.8386267889">
        <ele>106.84</ele>
        <time>2021-05-29T08:44:49Z</time>
      </trkpt>
      <trkpt lat="37.2101826500" lon="-8.8386088517">
        <ele>107.81</ele>
        <time>2021-05-29T08:44:50Z</time>
      </trkpt>
      <trkpt lat="37.2103358712" lon="-8.8386279624">
        <ele>108.77</ele>
        <time>2021-05-29T08:44:51Z</time>
      </trkpt>
      <trkpt lat="37.2104881704" lon="-8.8386905752">
        <ele>110.21</ele>
        <time>2021-05-29T08:44:52Z</time>
      </trkpt>
      <trkpt lat="37.2106213588" lon="-8.8387834467">
        <ele>110.21</ele>
        <time>2021-05-29T08:44:53Z</time>
      </trkpt>
      <trkpt lat="37.2107298207" lon="-8.8388722111">
        <ele>109.73</ele>
        <time>2021-05-29T08:44:54Z</time>
      </trkpt>
      <trkpt lat="37.2108308226" lon="-8.8389309682">
        <ele>108.29</ele>
        <time>2021-05-29T08:44:55Z</time>
      </trkpt>
      <trkpt lat="37.2109286394" lon="-8.8389424514">
        <ele>107.81</ele>
        <time>2021-05-29T08:44:56Z</time>
      </trkpt>
      <trkpt lat="37.2110127937" lon="-8.8389032241">
        <ele>107.32</ele>
        <time>2021-05-29T08:44:57Z</time>
      </trkpt>
      <trkpt lat="37.2110747360" lon="-8.8388161361">
        <ele>107.32</ele>
        <time>2021-05-29T08:44:58Z</time>
      </trkpt>
      <trkpt lat="37.2111118678" lon="-8.8386831991">
        <ele>106.36</ele>
        <time>2021-05-29T08:44:59Z</time>
      </trkpt>
      <trkpt lat="37.2111355048" lon="-8.8385152258">
        <ele>108.29</ele>
        <time>2021-05-29T08:45:00Z</time>
      </trkpt>
      <trkpt lat="37.2111634165" lon="-8.8383377809">
        <ele>109.25</ele>
        <time>2021-05-29T08:45:01Z</time>
      </trkpt>
      <trkpt lat="37.2112209164" lon="-8.8381676283">
        <ele>110.21</ele>
        <time>2021-05-29T08:45:02Z</time>
      </trkpt>
      <trkpt lat="37.2113171406" lon="-8.8380128983">
        <ele>112.13</ele>
        <time>2021-05-29T08:45:03Z</time>
      </trkpt>
      <trkpt lat="37.2114408575" lon="-8.8378719985">
        <ele>113.09</ele>
        <time>2021-05-29T08:45:04Z</time>
      </trkpt>
      <trkpt lat="37.2115758900" lon="-8.8377348706">
        <ele>115.98</ele>
        <time>2021-05-29T08:45:05Z</time>
      </trkpt>
      <trkpt lat="37.2121255752" lon="-8.8371546753">
        <ele>119.82</ele>
        <time>2021-05-29T08:45:09Z</time>
      </trkpt>
      <trkpt lat="37.2122505493" lon="-8.8370131887">
        <ele>119.34</ele>
        <time>2021-05-29T08:45:10Z</time>
      </trkpt>
      <trkpt lat="37.2123607714" lon="-8.8368675951">
        <ele>119.34</ele>
        <time>2021-05-29T08:45:11Z</time>
      </trkpt>
      <trkpt lat="37.2124627791" lon="-8.8367065787">
        <ele>122.22</ele>
        <time>2021-05-29T08:45:12Z</time>
      </trkpt>
      <trkpt lat="37.2126593348" lon="-8.8363549579">
        <ele>126.07</ele>
        <time>2021-05-29T08:45:14Z</time>
      </trkpt>
      <trkpt lat="37.2127776872" lon="-8.8361990545">
        <ele>127.99</ele>
        <time>2021-05-29T08:45:15Z</time>
      </trkpt>
      <trkpt lat="37.2129258793" lon="-8.8360631000">
        <ele>128.95</ele>
        <time>2021-05-29T08:45:16Z</time>
      </trkpt>
      <trkpt lat="37.2132621612" lon="-8.8358200248">
        <ele>133.76</ele>
        <time>2021-05-29T08:45:18Z</time>
      </trkpt>
      <trkpt lat="37.2139399219" lon="-8.8352291845">
        <ele>139.53</ele>
        <time>2021-05-29T08:45:23Z</time>
      </trkpt>
      <trkpt lat="37.2140472941" lon="-8.8351055514">
        <ele>139.53</ele>
        <time>2021-05-29T08:45:24Z</time>
      </trkpt>
      <trkpt lat="37.2142509744" lon="-8.8348986022">
        <ele>139.53</ele>
        <time>2021-05-29T08:45:26Z</time>
      </trkpt>
      <trkpt lat="37.2143832408" lon="-8.8348219916">
        <ele>140.97</ele>
        <time>2021-05-29T08:45:27Z</time>
      </trkpt>
      <trkpt lat="37.2145388089" lon="-8.8347799145">
        <ele>142.41</ele>
        <time>2021-05-29T08:45:28Z</time>
      </trkpt>
      <trkpt lat="37.2147099674" lon="-8.8347647432">
        <ele>143.37</ele>
        <time>2021-05-29T08:45:29Z</time>
      </trkpt>
      <trkpt lat="37.2148865741" lon="-8.8347599655">
        <ele>142.89</ele>
        <time>2021-05-29T08:45:30Z</time>
      </trkpt>
      <trkpt lat="37.2158637363" lon="-8.8347365800">
        <ele>141.45</ele>
        <time>2021-05-29T08:45:36Z</time>
      </trkpt>
      <trkpt lat="37.2169153299" lon="-8.8347689342">
        <ele>140.49</ele>
        <time>2021-05-29T08:45:44Z</time>
      </trkpt>
      <trkpt lat="37.2170460876" lon="-8.8348172139">
        <ele>139.05</ele>
        <time>2021-05-29T08:45:45Z</time>
      </trkpt>
      <trkpt lat="37.2171892505" lon="-8.8348834310">
        <ele>138.57</ele>
        <time>2021-05-29T08:45:46Z</time>
      </trkpt>
      <trkpt lat="37.2175039072" lon="-8.8350130990">
        <ele>137.13</ele>
        <time>2021-05-29T08:45:48Z</time>
      </trkpt>
      <trkpt lat="37.2176678572" lon="-8.8350405917">
        <ele>137.61</ele>
        <time>2021-05-29T08:45:49Z</time>
      </trkpt>
      <trkpt lat="37.2178414464" lon="-8.8350348081">
        <ele>135.20</ele>
        <time>2021-05-29T08:45:50Z</time>
      </trkpt>
      <trkpt lat="37.2180317994" lon="-8.8349998556">
        <ele>134.24</ele>
        <time>2021-05-29T08:45:51Z</time>
      </trkpt>
      <trkpt lat="37.2182273492" lon="-8.8349488098">
        <ele>134.24</ele>
        <time>2021-05-29T08:45:52Z</time>
      </trkpt>
      <trkpt lat="37.2188225482" lon="-8.8347823452">
        <ele>130.88</ele>
        <time>2021-05-29T08:45:55Z</time>
      </trkpt>
      <trkpt lat="37.2194208484" lon="-8.8346128631">
        <ele>127.99</ele>
        <time>2021-05-29T08:45:58Z</time>
      </trkpt>
      <trkpt lat="37.2200191487" lon="-8.8344479073">
        <ele>124.63</ele>
        <time>2021-05-29T08:46:01Z</time>
      </trkpt>
      <trkpt lat="37.2206021938" lon="-8.8342821971">
        <ele>121.74</ele>
        <time>2021-05-29T08:46:04Z</time>
      </trkpt>
      <trkpt lat="37.2213511169" lon="-8.8340863958">
        <ele>119.82</ele>
        <time>2021-05-29T08:46:08Z</time>
      </trkpt>
      <trkpt lat="37.2228446044" lon="-8.8336504530">
        <ele>118.86</ele>
        <time>2021-05-29T08:46:16Z</time>
      </trkpt>
      <trkpt lat="37.2236056812" lon="-8.8334329426">
        <ele>117.42</ele>
        <time>2021-05-29T08:46:20Z</time>
      </trkpt>
      <trkpt lat="37.2256014124" lon="-8.8327706046">
        <ele>114.53</ele>
        <time>2021-05-29T08:46:31Z</time>
      </trkpt>
      <trkpt lat="37.2277638596" lon="-8.8314222079">
        <ele>115.01</ele>
        <time>2021-05-29T08:46:43Z</time>
      </trkpt>
      <trkpt lat="37.2281283047" lon="-8.8311914541">
        <ele>114.05</ele>
        <time>2021-05-29T08:46:45Z</time>
      </trkpt>
      <trkpt lat="37.2288297024" lon="-8.8307555951">
        <ele>111.17</ele>
        <time>2021-05-29T08:46:49Z</time>
      </trkpt>
      <trkpt lat="37.2305425443" lon="-8.8296851423">
        <ele>112.61</ele>
        <time>2021-05-29T08:46:59Z</time>
      </trkpt>
      <trkpt lat="37.2312076483" lon="-8.8293037657">
        <ele>115.98</ele>
        <time>2021-05-29T08:47:03Z</time>
      </trkpt>
      <trkpt lat="37.2313806508" lon="-8.8292207848">
        <ele>115.01</ele>
        <time>2021-05-29T08:47:04Z</time>
      </trkpt>
      <trkpt lat="37.2325044125" lon="-8.8287319522">
        <ele>113.09</ele>
        <time>2021-05-29T08:47:10Z</time>
      </trkpt>
      <trkpt lat="37.2330884635" lon="-8.8284782320">
        <ele>109.25</ele>
        <time>2021-05-29T08:47:13Z</time>
      </trkpt>
      <trkpt lat="37.2332821693" lon="-8.8283918984">
        <ele>109.25</ele>
        <time>2021-05-29T08:47:14Z</time>
      </trkpt>
      <trkpt lat="37.2344949469" lon="-8.8278675266">
        <ele>105.88</ele>
        <time>2021-05-29T08:47:20Z</time>
      </trkpt>
      <trkpt lat="37.2346924245" lon="-8.8277813606">
        <ele>105.88</ele>
        <time>2021-05-29T08:47:21Z</time>
      </trkpt>
      <trkpt lat="37.2362362035" lon="-8.8271124847">
        <ele>103.00</ele>
        <time>2021-05-29T08:47:29Z</time>
      </trkpt>
      <trkpt lat="37.2369348351" lon="-8.8268168550">
        <ele>99.63</ele>
        <time>2021-05-29T08:47:33Z</time>
      </trkpt>
      <trkpt lat="37.2370791715" lon="-8.8267554156">
        <ele>99.63</ele>
        <time>2021-05-29T08:47:34Z</time>
      </trkpt>
      <trkpt lat="37.2381887678" lon="-8.8262688462">
        <ele>102.52</ele>
        <time>2021-05-29T08:47:41Z</time>
      </trkpt>
      <trkpt lat="37.2407576535" lon="-8.8251689728">
        <ele>102.52</ele>
        <time>2021-05-29T08:47:54Z</time>
      </trkpt>
      <trkpt lat="37.2419888712" lon="-8.8246352971">
        <ele>99.63</ele>
        <time>2021-05-29T08:48:00Z</time>
      </trkpt>
      <trkpt lat="37.2435241006" lon="-8.8239648286">
        <ele>96.27</ele>
        <time>2021-05-29T08:48:08Z</time>
      </trkpt>
      <trkpt lat="37.2451616731" lon="-8.8231684640">
        <ele>94.83</ele>
        <time>2021-05-29T08:48:17Z</time>
      </trkpt>
      <trkpt lat="37.2474750783" lon="-8.8216685224">
        <ele>94.35</ele>
        <time>2021-05-29T08:48:30Z</time>
      </trkpt>
      <trkpt lat="37.2496360168" lon="-8.8202494662">
        <ele>96.27</ele>
        <time>2021-05-29T08:48:41Z</time>
      </trkpt>
      <trkpt lat="37.2504107561" lon="-8.8197452109">
        <ele>94.83</ele>
        <time>2021-05-29T08:48:45Z</time>
      </trkpt>
      <trkpt lat="37.2524493188" lon="-8.8184261508">
        <ele>97.23</ele>
        <time>2021-05-29T08:48:56Z</time>
      </trkpt>
      <trkpt lat="37.2530041169" lon="-8.8180600293">
        <ele>94.35</ele>
        <time>2021-05-29T08:48:59Z</time>
      </trkpt>
      <trkpt lat="37.2537423950" lon="-8.8175737951">
        <ele>90.98</ele>
        <time>2021-05-29T08:49:03Z</time>
      </trkpt>
      <trkpt lat="37.2539274674" lon="-8.8174515031">
        <ele>90.98</ele>
        <time>2021-05-29T08:49:04Z</time>
      </trkpt>
      <trkpt lat="37.2555697337" lon="-8.8163074572">
        <ele>93.87</ele>
        <time>2021-05-29T08:49:13Z</time>
      </trkpt>
      <trkpt lat="37.2564780805" lon="-8.8156332169">
        <ele>90.50</ele>
        <time>2021-05-29T08:49:18Z</time>
      </trkpt>
      <trkpt lat="37.2577160038" lon="-8.8146969583">
        <ele>87.62</ele>
        <time>2021-05-29T08:49:26Z</time>
      </trkpt>
      <trkpt lat="37.2578285728" lon="-8.8145688828">
        <ele>85.69</ele>
        <time>2021-05-29T08:49:27Z</time>
      </trkpt>
      <trkpt lat="37.2579121403" lon="-8.8144154940">
        <ele>84.25</ele>
        <time>2021-05-29T08:49:28Z</time>
      </trkpt>
      <trkpt lat="37.2579623479" lon="-8.8142434973">
        <ele>84.73</ele>
        <time>2021-05-29T08:49:29Z</time>
      </trkpt>
      <trkpt lat="37.2579814587" lon="-8.8140726741">
        <ele>82.81</ele>
        <time>2021-05-29T08:49:30Z</time>
      </trkpt>
      <trkpt lat="37.2579838056" lon="-8.8139184471">
        <ele>80.89</ele>
        <time>2021-05-29T08:49:31Z</time>
      </trkpt>
      <trkpt lat="37.2579785250" lon="-8.8137856778">
        <ele>79.93</ele>
        <time>2021-05-29T08:49:32Z</time>
      </trkpt>
      <trkpt lat="37.2579708137" lon="-8.8136736955">
        <ele>78.48</ele>
        <time>2021-05-29T08:49:33Z</time>
      </trkpt>
      <trkpt lat="37.2579512838" lon="-8.8134384155">
        <ele>76.56</ele>
        <time>2021-05-29T08:49:36Z</time>
      </trkpt>
      <trkpt lat="37.2579544690" lon="-8.8131743856">
        <ele>77.52</ele>
        <time>2021-05-29T08:49:44Z</time>
      </trkpt>
      <trkpt lat="37.2579652816" lon="-8.8131581247">
        <ele>77.04</ele>
        <time>2021-05-29T08:50:05Z</time>
      </trkpt>
      <trkpt lat="37.2579721548" lon="-8.8131278660">
        <ele>78.97</ele>
        <time>2021-05-29T08:50:06Z</time>
      </trkpt>
      <trkpt lat="37.2579975519" lon="-8.8130814303">
        <ele>79.45</ele>
        <time>2021-05-29T08:50:07Z</time>
      </trkpt>
      <trkpt lat="37.2580405511" lon="-8.8130366709">
        <ele>79.45</ele>
        <time>2021-05-29T08:50:08Z</time>
      </trkpt>
      <trkpt lat="37.2580989730" lon="-8.8130126148">
        <ele>79.93</ele>
        <time>2021-05-29T08:50:09Z</time>
      </trkpt>
      <trkpt lat="37.2581708059" lon="-8.8130079210">
        <ele>79.93</ele>
        <time>2021-05-29T08:50:10Z</time>
      </trkpt>
      <trkpt lat="37.2582494281" lon="-8.8130106870">
        <ele>79.93</ele>
        <time>2021-05-29T08:50:11Z</time>
      </trkpt>
      <trkpt lat="37.2587610595" lon="-8.8130256068">
        <ele>83.77</ele>
        <time>2021-05-29T08:50:16Z</time>
      </trkpt>
      <trkpt lat="37.2588893026" lon="-8.8130272832">
        <ele>83.77</ele>
        <time>2021-05-29T08:50:17Z</time>
      </trkpt>
      <trkpt lat="37.2596071288" lon="-8.8130382635">
        <ele>87.14</ele>
        <time>2021-05-29T08:50:22Z</time>
      </trkpt>
      <trkpt lat="37.2597881779" lon="-8.8129965216">
        <ele>89.06</ele>
        <time>2021-05-29T08:50:23Z</time>
      </trkpt>
      <trkpt lat="37.2599775251" lon="-8.8129280414">
        <ele>90.98</ele>
        <time>2021-05-29T08:50:24Z</time>
      </trkpt>
      <trkpt lat="37.2601662017" lon="-8.8128363434">
        <ele>91.94</ele>
        <time>2021-05-29T08:50:25Z</time>
      </trkpt>
      <trkpt lat="37.2603557166" lon="-8.8127198350">
        <ele>92.90</ele>
        <time>2021-05-29T08:50:26Z</time>
      </trkpt>
      <trkpt lat="37.2605395317" lon="-8.8125861436">
        <ele>93.87</ele>
        <time>2021-05-29T08:50:27Z</time>
      </trkpt>
      <trkpt lat="37.2607246041" lon="-8.8124432322">
        <ele>94.83</ele>
        <time>2021-05-29T08:50:28Z</time>
      </trkpt>
      <trkpt lat="37.2609136160" lon="-8.8122988958">
        <ele>94.35</ele>
        <time>2021-05-29T08:50:29Z</time>
      </trkpt>
      <trkpt lat="37.2631965950" lon="-8.8105036598">
        <ele>91.46</ele>
        <time>2021-05-29T08:50:41Z</time>
      </trkpt>
      <trkpt lat="37.2635729425" lon="-8.8102067728">
        <ele>88.10</ele>
        <time>2021-05-29T08:50:43Z</time>
      </trkpt>
      <trkpt lat="37.2637547459" lon="-8.8100631908">
        <ele>88.10</ele>
        <time>2021-05-29T08:50:44Z</time>
      </trkpt>
      <trkpt lat="37.2652045637" lon="-8.8092010282">
        <ele>87.14</ele>
        <time>2021-05-29T08:50:52Z</time>
      </trkpt>
      <trkpt lat="37.2655941546" lon="-8.8091307040">
        <ele>88.10</ele>
        <time>2021-05-29T08:50:54Z</time>
      </trkpt>
      <trkpt lat="37.2657995112" lon="-8.8091249205">
        <ele>87.62</ele>
        <time>2021-05-29T08:50:55Z</time>
      </trkpt>
      <trkpt lat="37.2660162672" lon="-8.8091348950">
        <ele>89.06</ele>
        <time>2021-05-29T08:50:56Z</time>
      </trkpt>
      <trkpt lat="37.2667071875" lon="-8.8092150260">
        <ele>92.42</ele>
        <time>2021-05-29T08:50:59Z</time>
      </trkpt>
      <trkpt lat="37.2671273723" lon="-8.8092709333">
        <ele>89.06</ele>
        <time>2021-05-29T08:51:01Z</time>
      </trkpt>
      <trkpt lat="37.2673455533" lon="-8.8093029521">
        <ele>89.06</ele>
        <time>2021-05-29T08:51:02Z</time>
      </trkpt>
      <trkpt lat="37.2682233900" lon="-8.8094220590">
        <ele>86.18</ele>
        <time>2021-05-29T08:51:06Z</time>
      </trkpt>
      <trkpt lat="37.2684209514" lon="-8.8094479591">
        <ele>82.81</ele>
        <time>2021-05-29T08:51:07Z</time>
      </trkpt>
      <trkpt lat="37.2688070219" lon="-8.8094617054">
        <ele>81.37</ele>
        <time>2021-05-29T08:51:09Z</time>
      </trkpt>
      <trkpt lat="37.2690050863" lon="-8.8094192930">
        <ele>79.45</ele>
        <time>2021-05-29T08:51:10Z</time>
      </trkpt>
      <trkpt lat="37.2692053299" lon="-8.8093366474">
        <ele>80.89</ele>
        <time>2021-05-29T08:51:11Z</time>
      </trkpt>
      <trkpt lat="37.2694054060" lon="-8.8092193846">
        <ele>82.33</ele>
        <time>2021-05-29T08:51:12Z</time>
      </trkpt>
      <trkpt lat="37.2696081642" lon="-8.8090733718">
        <ele>83.29</ele>
        <time>2021-05-29T08:51:13Z</time>
      </trkpt>
      <trkpt lat="37.2698167898" lon="-8.8089084160">
        <ele>84.25</ele>
        <time>2021-05-29T08:51:14Z</time>
      </trkpt>
      <trkpt lat="37.2702446021" lon="-8.8085789233">
        <ele>86.18</ele>
        <time>2021-05-29T08:51:16Z</time>
      </trkpt>
      <trkpt lat="37.2708361968" lon="-8.8081296533">
        <ele>82.81</ele>
        <time>2021-05-29T08:51:19Z</time>
      </trkpt>
      <trkpt lat="37.2712232731" lon="-8.8078392204">
        <ele>85.69</ele>
        <time>2021-05-29T08:51:21Z</time>
      </trkpt>
      <trkpt lat="37.2716198210" lon="-8.8075425848">
        <ele>90.50</ele>
        <time>2021-05-29T08:51:23Z</time>
      </trkpt>
      <trkpt lat="37.2724252380" lon="-8.8069335558">
        <ele>88.10</ele>
        <time>2021-05-29T08:51:27Z</time>
      </trkpt>
      <trkpt lat="37.2734634206" lon="-8.8061537873">
        <ele>83.29</ele>
        <time>2021-05-29T08:51:32Z</time>
      </trkpt>
      <trkpt lat="37.2736719623" lon="-8.8059976324">
        <ele>83.77</ele>
        <time>2021-05-29T08:51:33Z</time>
      </trkpt>
      <trkpt lat="37.2740809154" lon="-8.8056897651">
        <ele>81.85</ele>
        <time>2021-05-29T08:51:35Z</time>
      </trkpt>
      <trkpt lat="37.2744782176" lon="-8.8053890225">
        <ele>80.41</ele>
        <time>2021-05-29T08:51:37Z</time>
      </trkpt>
      <trkpt lat="37.2766673192" lon="-8.8037311658">
        <ele>76.56</ele>
        <time>2021-05-29T08:51:48Z</time>
      </trkpt>
      <trkpt lat="37.2772402223" lon="-8.8032917865">
        <ele>73.68</ele>
        <time>2021-05-29T08:51:51Z</time>
      </trkpt>
      <trkpt lat="37.2778370976" lon="-8.8029454462">
        <ele>77.52</ele>
        <time>2021-05-29T08:51:54Z</time>
      </trkpt>
      <trkpt lat="37.2780541051" lon="-8.8028687518">
        <ele>77.04</ele>
        <time>2021-05-29T08:51:55Z</time>
      </trkpt>
      <trkpt lat="37.2784700990" lon="-8.8027558476">
        <ele>73.20</ele>
        <time>2021-05-29T08:51:57Z</time>
      </trkpt>
      <trkpt lat="37.2801099345" lon="-8.8023531809">
        <ele>70.31</ele>
        <time>2021-05-29T08:52:05Z</time>
      </trkpt>
      <trkpt lat="37.2807071451" lon="-8.8022004627">
        <ele>66.47</ele>
        <time>2021-05-29T08:52:08Z</time>
      </trkpt>
      <trkpt lat="37.2809011023" lon="-8.8021636661">
        <ele>66.95</ele>
        <time>2021-05-29T08:52:09Z</time>
      </trkpt>
      <trkpt lat="37.2812900227" lon="-8.8021478243">
        <ele>65.51</ele>
        <time>2021-05-29T08:52:11Z</time>
      </trkpt>
      <trkpt lat="37.2814864106" lon="-8.8021718804">
        <ele>64.55</ele>
        <time>2021-05-29T08:52:12Z</time>
      </trkpt>
      <trkpt lat="37.2822511755" lon="-8.8023534324">
        <ele>60.70</ele>
        <time>2021-05-29T08:52:16Z</time>
      </trkpt>
      <trkpt lat="37.2824375052" lon="-8.8023628201">
        <ele>60.70</ele>
        <time>2021-05-29T08:52:17Z</time>
      </trkpt>
      <trkpt lat="37.2826358210" lon="-8.8023365848">
        <ele>61.18</ele>
        <time>2021-05-29T08:52:18Z</time>
      </trkpt>
      <trkpt lat="37.2828401718" lon="-8.8022703677">
        <ele>60.70</ele>
        <time>2021-05-29T08:52:19Z</time>
      </trkpt>
      <trkpt lat="37.2832491249" lon="-8.8020822778">
        <ele>56.86</ele>
        <time>2021-05-29T08:52:21Z</time>
      </trkpt>
      <trkpt lat="37.2836251371" lon="-8.8018598221">
        <ele>55.41</ele>
        <time>2021-05-29T08:52:23Z</time>
      </trkpt>
      <trkpt lat="37.2839641012" lon="-8.8016252965">
        <ele>51.09</ele>
        <time>2021-05-29T08:52:25Z</time>
      </trkpt>
      <trkpt lat="37.2844471503" lon="-8.8012675568">
        <ele>47.72</ele>
        <time>2021-05-29T08:52:28Z</time>
      </trkpt>
      <trkpt lat="37.2845900618" lon="-8.8011212088">
        <ele>47.24</ele>
        <time>2021-05-29T08:52:29Z</time>
      </trkpt>
      <trkpt lat="37.2850267589" lon="-8.8005654886">
        <ele>48.68</ele>
        <time>2021-05-29T08:52:32Z</time>
      </trkpt>
      <trkpt lat="37.2854770347" lon="-8.8000381831">
        <ele>46.28</ele>
        <time>2021-05-29T08:52:35Z</time>
      </trkpt>
      <trkpt lat="37.2856469359" lon="-8.7999132928">
        <ele>46.28</ele>
        <time>2021-05-29T08:52:36Z</time>
      </trkpt>
      <trkpt lat="37.2858367860" lon="-8.7998149730">
        <ele>46.76</ele>
        <time>2021-05-29T08:52:37Z</time>
      </trkpt>
      <trkpt lat="37.2860338446" lon="-8.7997498456">
        <ele>46.28</ele>
        <time>2021-05-29T08:52:38Z</time>
      </trkpt>
      <trkpt lat="37.2862241976" lon="-8.7997104507">
        <ele>44.84</ele>
        <time>2021-05-29T08:52:39Z</time>
      </trkpt>
      <trkpt lat="37.2864110302" lon="-8.7996826228">
        <ele>42.92</ele>
        <time>2021-05-29T08:52:40Z</time>
      </trkpt>
      <trkpt lat="37.2873178683" lon="-8.7995397951">
        <ele>39.07</ele>
        <time>2021-05-29T08:52:45Z</time>
      </trkpt>
      <trkpt lat="37.2879908513" lon="-8.7994361110">
        <ele>37.15</ele>
        <time>2021-05-29T08:52:49Z</time>
      </trkpt>
      <trkpt lat="37.2886947636" lon="-8.7992786150">
        <ele>35.23</ele>
        <time>2021-05-29T08:52:53Z</time>
      </trkpt>
      <trkpt lat="37.2888234258" lon="-8.7992128171">
        <ele>35.71</ele>
        <time>2021-05-29T08:52:54Z</time>
      </trkpt>
      <trkpt lat="37.2889855318" lon="-8.7991094682">
        <ele>35.23</ele>
        <time>2021-05-29T08:52:55Z</time>
      </trkpt>
      <trkpt lat="37.2892822511" lon="-8.7988818157">
        <ele>34.26</ele>
        <time>2021-05-29T08:52:57Z</time>
      </trkpt>
      <trkpt lat="37.2898895200" lon="-8.7984757964">
        <ele>32.82</ele>
        <time>2021-05-29T08:53:01Z</time>
      </trkpt>
      <trkpt lat="37.2900415678" lon="-8.7984164525">
        <ele>32.82</ele>
        <time>2021-05-29T08:53:02Z</time>
      </trkpt>
      <trkpt lat="37.2903465014" lon="-8.7983433623">
        <ele>33.78</ele>
        <time>2021-05-29T08:53:04Z</time>
      </trkpt>
      <trkpt lat="37.2905117925" lon="-8.7983508222">
        <ele>33.78</ele>
        <time>2021-05-29T08:53:05Z</time>
      </trkpt>
      <trkpt lat="37.2906768322" lon="-8.7983723637">
        <ele>32.82</ele>
        <time>2021-05-29T08:53:06Z</time>
      </trkpt>
      <trkpt lat="37.2908422071" lon="-8.7984053046">
        <ele>34.26</ele>
        <time>2021-05-29T08:53:07Z</time>
      </trkpt>
      <trkpt lat="37.2910117730" lon="-8.7984470464">
        <ele>33.30</ele>
        <time>2021-05-29T08:53:08Z</time>
      </trkpt>
      <trkpt lat="37.2928993776" lon="-8.7986591924">
        <ele>34.26</ele>
        <time>2021-05-29T08:53:18Z</time>
      </trkpt>
      <trkpt lat="37.2932771500" lon="-8.7986719329">
        <ele>33.30</ele>
        <time>2021-05-29T08:53:20Z</time>
      </trkpt>
      <trkpt lat="37.2934552655" lon="-8.7986470386">
        <ele>32.82</ele>
        <time>2021-05-29T08:53:21Z</time>
      </trkpt>
      <trkpt lat="37.2936306149" lon="-8.7985922210">
        <ele>32.82</ele>
        <time>2021-05-29T08:53:22Z</time>
      </trkpt>
      <trkpt lat="37.2937997617" lon="-8.7985072285">
        <ele>34.26</ele>
        <time>2021-05-29T08:53:23Z</time>
      </trkpt>
      <trkpt lat="37.2939584311" lon="-8.7983909715">
        <ele>33.78</ele>
        <time>2021-05-29T08:53:24Z</time>
      </trkpt>
      <trkpt lat="37.2941011749" lon="-8.7982478924">
        <ele>34.26</ele>
        <time>2021-05-29T08:53:25Z</time>
      </trkpt>
      <trkpt lat="37.2942284960" lon="-8.7980817631">
        <ele>35.23</ele>
        <time>2021-05-29T08:53:26Z</time>
      </trkpt>
      <trkpt lat="37.2943444178" lon="-8.7978996243">
        <ele>36.67</ele>
        <time>2021-05-29T08:53:27Z</time>
      </trkpt>
      <trkpt lat="37.2944488563" lon="-8.7977150548">
        <ele>35.71</ele>
        <time>2021-05-29T08:53:28Z</time>
      </trkpt>
      <trkpt lat="37.2946784366" lon="-8.7973905075">
        <ele>37.63</ele>
        <time>2021-05-29T08:53:30Z</time>
      </trkpt>
      <trkpt lat="37.2948213480" lon="-8.7972719036">
        <ele>37.15</ele>
        <time>2021-05-29T08:53:31Z</time>
      </trkpt>
      <trkpt lat="37.2949737310" lon="-8.7971909344">
        <ele>36.67</ele>
        <time>2021-05-29T08:53:32Z</time>
      </trkpt>
      <trkpt lat="37.2951355856" lon="-8.7971481029">
        <ele>37.63</ele>
        <time>2021-05-29T08:53:33Z</time>
      </trkpt>
      <trkpt lat="37.2953038104" lon="-8.7971497793">
        <ele>35.71</ele>
        <time>2021-05-29T08:53:34Z</time>
      </trkpt>
      <trkpt lat="37.2954747174" lon="-8.7971972208">
        <ele>35.23</ele>
        <time>2021-05-29T08:53:35Z</time>
      </trkpt>
      <trkpt lat="37.2956449538" lon="-8.7972786929">
        <ele>35.71</ele>
        <time>2021-05-29T08:53:36Z</time>
      </trkpt>
      <trkpt lat="37.2958061378" lon="-8.7973773479">
        <ele>33.78</ele>
        <time>2021-05-29T08:53:37Z</time>
      </trkpt>
      <trkpt lat="37.2959542461" lon="-8.7974851392">
        <ele>32.82</ele>
        <time>2021-05-29T08:53:38Z</time>
      </trkpt>
      <trkpt lat="37.2960896976" lon="-8.7976079341">
        <ele>32.34</ele>
        <time>2021-05-29T08:53:39Z</time>
      </trkpt>
      <trkpt lat="37.2962167673" lon="-8.7977482472">
        <ele>32.82</ele>
        <time>2021-05-29T08:53:40Z</time>
      </trkpt>
      <trkpt lat="37.2963407356" lon="-8.7978961039">
        <ele>32.34</ele>
        <time>2021-05-29T08:53:41Z</time>
      </trkpt>
      <trkpt lat="37.2975971829" lon="-8.7993299123">
        <ele>28.98</ele>
        <time>2021-05-29T08:53:50Z</time>
      </trkpt>
      <trkpt lat="37.2982957307" lon="-8.8000137918">
        <ele>26.57</ele>
        <time>2021-05-29T08:53:55Z</time>
      </trkpt>
      <trkpt lat="37.2984543163" lon="-8.8000827748">
        <ele>27.05</ele>
        <time>2021-05-29T08:53:56Z</time>
      </trkpt>
      <trkpt lat="37.2986217868" lon="-8.8001084235">
        <ele>26.09</ele>
        <time>2021-05-29T08:53:57Z</time>
      </trkpt>
      <trkpt lat="37.2987966333" lon="-8.8000882231">
        <ele>27.05</ele>
        <time>2021-05-29T08:53:58Z</time>
      </trkpt>
      <trkpt lat="37.2989791073" lon="-8.8000347465">
        <ele>27.53</ele>
        <time>2021-05-29T08:53:59Z</time>
      </trkpt>
      <trkpt lat="37.2991623357" lon="-8.7999689486">
        <ele>28.50</ele>
        <time>2021-05-29T08:54:00Z</time>
      </trkpt>
      <trkpt lat="37.3004086409" lon="-8.7995392084">
        <ele>26.57</ele>
        <time>2021-05-29T08:54:07Z</time>
      </trkpt>
      <trkpt lat="37.3016676027" lon="-8.7991463486">
        <ele>25.13</ele>
        <time>2021-05-29T08:54:14Z</time>
      </trkpt>
      <trkpt lat="37.3018346541" lon="-8.7991433311">
        <ele>25.61</ele>
        <time>2021-05-29T08:54:15Z</time>
      </trkpt>
      <trkpt lat="37.3019999452" lon="-8.7991800439">
        <ele>24.65</ele>
        <time>2021-05-29T08:54:16Z</time>
      </trkpt>
      <trkpt lat="37.3021643143" lon="-8.7992616836">
        <ele>23.69</ele>
        <time>2021-05-29T08:54:17Z</time>
      </trkpt>
      <trkpt lat="37.3023254983" lon="-8.7993755098">
        <ele>23.69</ele>
        <time>2021-05-29T08:54:18Z</time>
      </trkpt>
      <trkpt lat="37.3024810664" lon="-8.7995013222">
        <ele>23.69</ele>
        <time>2021-05-29T08:54:19Z</time>
      </trkpt>
      <trkpt lat="37.3043907154" lon="-8.8009563368">
        <ele>25.13</ele>
        <time>2021-05-29T08:54:31Z</time>
      </trkpt>
      <trkpt lat="37.3058092687" lon="-8.8016118016">
        <ele>21.77</ele>
        <time>2021-05-29T08:54:39Z</time>
      </trkpt>
      <trkpt lat="37.3059816007" lon="-8.8016672898">
        <ele>22.73</ele>
        <time>2021-05-29T08:54:40Z</time>
      </trkpt>
      <trkpt lat="37.3061552737" lon="-8.8017040025">
        <ele>22.73</ele>
        <time>2021-05-29T08:54:41Z</time>
      </trkpt>
      <trkpt lat="37.3073616810" lon="-8.8018211816">
        <ele>20.32</ele>
        <time>2021-05-29T08:54:48Z</time>
      </trkpt>
      <trkpt lat="37.3087727744" lon="-8.8019499276">
        <ele>21.77</ele>
        <time>2021-05-29T08:54:57Z</time>
      </trkpt>
      <trkpt lat="37.3103361670" lon="-8.8022073358">
        <ele>19.36</ele>
        <time>2021-05-29T08:55:07Z</time>
      </trkpt>
      <trkpt lat="37.3109912127" lon="-8.8025381695">
        <ele>15.52</ele>
        <time>2021-05-29T08:55:13Z</time>
      </trkpt>
      <trkpt lat="37.3116059415" lon="-8.8029169478">
        <ele>17.92</ele>
        <time>2021-05-29T08:55:19Z</time>
      </trkpt>
      <trkpt lat="37.3127793241" lon="-8.8036299124">
        <ele>16.96</ele>
        <time>2021-05-29T08:55:30Z</time>
      </trkpt>
      <trkpt lat="37.3128860258" lon="-8.8036794495">
        <ele>16.00</ele>
        <time>2021-05-29T08:55:31Z</time>
      </trkpt>
      <trkpt lat="37.3129950743" lon="-8.8037171680">
        <ele>16.00</ele>
        <time>2021-05-29T08:55:32Z</time>
      </trkpt>
      <trkpt lat="37.3131024465" lon="-8.8037434034">
        <ele>16.00</ele>
        <time>2021-05-29T08:55:33Z</time>
      </trkpt>
      <trkpt lat="37.3139599152" lon="-8.8037671242">
        <ele>15.04</ele>
        <time>2021-05-29T08:55:42Z</time>
      </trkpt>
      <trkpt lat="37.3149216548" lon="-8.8037073612">
        <ele>14.08</ele>
        <time>2021-05-29T08:55:53Z</time>
      </trkpt>
      <trkpt lat="37.3155205417" lon="-8.8037045114">
        <ele>13.60</ele>
        <time>2021-05-29T08:56:02Z</time>
      </trkpt>
      <trkpt lat="37.3156295903" lon="-8.8036827184">
        <ele>13.12</ele>
        <time>2021-05-29T08:56:10Z</time>
      </trkpt>
      <trkpt lat="37.3156319372" lon="-8.8036934473">
        <ele>12.63</ele>
        <time>2021-05-29T08:56:28Z</time>
      </trkpt>
      <trkpt lat="37.3156105634" lon="-8.8036275655">
        <ele>13.12</ele>
        <time>2021-05-29T08:56:57Z</time>
      </trkpt>
      <trkpt lat="37.3156150058" lon="-8.8035980612">
        <ele>12.63</ele>
        <time>2021-05-29T08:57:27Z</time>
      </trkpt>
      <trkpt lat="37.3156435043" lon="-8.8035854045">
        <ele>12.63</ele>
        <time>2021-05-29T08:57:57Z</time>
      </trkpt>
      <trkpt lat="37.3156510480" lon="-8.8036175910">
        <ele>13.12</ele>
        <time>2021-05-29T08:58:25Z</time>
      </trkpt>
      <trkpt lat="37.3156567477" lon="-8.8036091253">
        <ele>13.60</ele>
        <time>2021-05-29T08:58:52Z</time>
      </trkpt>
      <trkpt lat="37.3156695720" lon="-8.8036226202">
        <ele>14.08</ele>
        <time>2021-05-29T08:59:35Z</time>
      </trkpt>
      <trkpt lat="37.3156671412" lon="-8.8036435749">
        <ele>14.56</ele>
        <time>2021-05-29T09:00:07Z</time>
      </trkpt>
      <trkpt lat="37.3156683985" lon="-8.8036505319">
        <ele>13.60</ele>
        <time>2021-05-29T09:00:40Z</time>
      </trkpt>
      <trkpt lat="37.3156860843" lon="-8.8036572374">
        <ele>14.08</ele>
        <time>2021-05-29T09:01:16Z</time>
      </trkpt>
      <trkpt lat="37.3156796303" lon="-8.8036626019">
        <ele>13.60</ele>
        <time>2021-05-29T09:01:50Z</time>
      </trkpt>
      <trkpt lat="37.3156655487" lon="-8.8036447484">
        <ele>14.08</ele>
        <time>2021-05-29T09:02:29Z</time>
      </trkpt>
      <trkpt lat="37.3156456836" lon="-8.8036485203">
        <ele>14.08</ele>
        <time>2021-05-29T09:03:09Z</time>
      </trkpt>
      <trkpt lat="37.3156388104" lon="-8.8036478497">
        <ele>14.56</ele>
        <time>2021-05-29T09:03:45Z</time>
      </trkpt>
      <trkpt lat="37.3155979067" lon="-8.8036544714">
        <ele>15.04</ele>
        <time>2021-05-29T09:04:17Z</time>
      </trkpt>
      <trkpt lat="37.3156321887" lon="-8.8036289066">
        <ele>15.04</ele>
        <time>2021-05-29T09:04:45Z</time>
      </trkpt>
      <trkpt lat="37.3156085517" lon="-8.8036490232">
        <ele>15.04</ele>
        <time>2021-05-29T09:05:16Z</time>
      </trkpt>
      <trkpt lat="37.3156041093" lon="-8.8036427367">
        <ele>15.52</ele>
        <time>2021-05-29T09:05:45Z</time>
      </trkpt>
      <trkpt lat="37.3156184424" lon="-8.8036558125">
        <ele>15.52</ele>
        <time>2021-05-29T09:06:16Z</time>
      </trkpt>
      <trkpt lat="37.3156785406" lon="-8.8036552258">
        <ele>16.00</ele>
        <time>2021-05-29T09:06:47Z</time>
      </trkpt>
      <trkpt lat="37.3157041054" lon="-8.8036553096">
        <ele>15.52</ele>
        <time>2021-05-29T09:07:22Z</time>
      </trkpt>
      <trkpt lat="37.3157150857" lon="-8.8036566507">
        <ele>15.52</ele>
        <time>2021-05-29T09:07:57Z</time>
      </trkpt>
      <trkpt lat="37.3157016747" lon="-8.8036390487">
        <ele>15.52</ele>
        <time>2021-05-29T09:08:29Z</time>
      </trkpt>
      <trkpt lat="37.3156621959" lon="-8.8036307506">
        <ele>16.00</ele>
        <time>2021-05-29T09:08:56Z</time>
      </trkpt>
      <trkpt lat="37.3156548198" lon="-8.8036085386">
        <ele>16.96</ele>
        <time>2021-05-29T09:09:23Z</time>
      </trkpt>
      <trkpt lat="37.3156793788" lon="-8.8036024198">
        <ele>16.48</ele>
        <time>2021-05-29T09:09:49Z</time>
      </trkpt>
      <trkpt lat="37.3157911934" lon="-8.8036447484">
        <ele>16.96</ele>
        <time>2021-05-29T09:09:52Z</time>
      </trkpt>
      <trkpt lat="37.3158585001" lon="-8.8036548067">
        <ele>17.92</ele>
        <time>2021-05-29T09:09:53Z</time>
      </trkpt>
      <trkpt lat="37.3160999827" lon="-8.8036521245">
        <ele>18.40</ele>
        <time>2021-05-29T09:09:56Z</time>
      </trkpt>
      <trkpt lat="37.3164355103" lon="-8.8036028389">
        <ele>17.92</ele>
        <time>2021-05-29T09:10:00Z</time>
      </trkpt>
      <trkpt lat="37.3164974526" lon="-8.8035807107">
        <ele>17.44</ele>
        <time>2021-05-29T09:10:01Z</time>
      </trkpt>
      <trkpt lat="37.3165479116" lon="-8.8035465963">
        <ele>16.96</ele>
        <time>2021-05-29T09:10:02Z</time>
      </trkpt>
      <trkpt lat="37.3165842891" lon="-8.8034952991">
        <ele>17.44</ele>
        <time>2021-05-29T09:10:03Z</time>
      </trkpt>
      <trkpt lat="37.3166102730" lon="-8.8034206163">
        <ele>17.92</ele>
        <time>2021-05-29T09:10:04Z</time>
      </trkpt>
      <trkpt lat="37.3166303057" lon="-8.8033175189">
        <ele>18.40</ele>
        <time>2021-05-29T09:10:05Z</time>
      </trkpt>
      <trkpt lat="37.3166509252" lon="-8.8031943049">
        <ele>19.84</ele>
        <time>2021-05-29T09:10:06Z</time>
      </trkpt>
      <trkpt lat="37.3167657573" lon="-8.8024109323">
        <ele>18.40</ele>
        <time>2021-05-29T09:10:13Z</time>
      </trkpt>
      <trkpt lat="37.3166783340" lon="-8.8008973282">
        <ele>18.40</ele>
        <time>2021-05-29T09:10:24Z</time>
      </trkpt>
      <trkpt lat="37.3165150546" lon="-8.7997114565">
        <ele>17.44</ele>
        <time>2021-05-29T09:10:33Z</time>
      </trkpt>
      <trkpt lat="37.3164684512" lon="-8.7992090452">
        <ele>16.48</ele>
        <time>2021-05-29T09:10:39Z</time>
      </trkpt>
      <trkpt lat="37.3164853826" lon="-8.7991380505">
        <ele>16.00</ele>
        <time>2021-05-29T09:10:40Z</time>
      </trkpt>
      <trkpt lat="37.3165201675" lon="-8.7990899384">
        <ele>16.48</ele>
        <time>2021-05-29T09:10:41Z</time>
      </trkpt>
      <trkpt lat="37.3165697046" lon="-8.7990633678">
        <ele>16.96</ele>
        <time>2021-05-29T09:10:42Z</time>
      </trkpt>
      <trkpt lat="37.3166355863" lon="-8.7990611047">
        <ele>16.96</ele>
        <time>2021-05-29T09:10:43Z</time>
      </trkpt>
      <trkpt lat="37.3167169746" lon="-8.7990747672">
        <ele>17.44</ele>
        <time>2021-05-29T09:10:44Z</time>
      </trkpt>
      <trkpt lat="37.3168116063" lon="-8.7990883458">
        <ele>18.40</ele>
        <time>2021-05-29T09:10:45Z</time>
      </trkpt>
      <trkpt lat="37.3169102613" lon="-8.7990869209">
        <ele>18.40</ele>
        <time>2021-05-29T09:10:46Z</time>
      </trkpt>
      <trkpt lat="37.3170079105" lon="-8.7990708277">
        <ele>17.44</ele>
        <time>2021-05-29T09:10:47Z</time>
      </trkpt>
      <trkpt lat="37.3171101697" lon="-8.7990408204">
        <ele>17.92</ele>
        <time>2021-05-29T09:10:48Z</time>
      </trkpt>
      <trkpt lat="37.3172095791" lon="-8.7989998329">
        <ele>18.40</ele>
        <time>2021-05-29T09:10:49Z</time>
      </trkpt>
      <trkpt lat="37.3173007742" lon="-8.7989576720">
        <ele>17.92</ele>
        <time>2021-05-29T09:10:50Z</time>
      </trkpt>
      <trkpt lat="37.3179552332" lon="-8.7986750342">
        <ele>19.36</ele>
        <time>2021-05-29T09:10:58Z</time>
      </trkpt>
      <trkpt lat="37.3180534691" lon="-8.7986473739">
        <ele>20.32</ele>
        <time>2021-05-29T09:10:59Z</time>
      </trkpt>
      <trkpt lat="37.3181630205" lon="-8.7986289337">
        <ele>20.32</ele>
        <time>2021-05-29T09:11:00Z</time>
      </trkpt>
      <trkpt lat="37.3185257893" lon="-8.7985893711">
        <ele>18.88</ele>
        <time>2021-05-29T09:11:03Z</time>
      </trkpt>
      <trkpt lat="37.3190920707" lon="-8.7985419296">
        <ele>21.29</ele>
        <time>2021-05-29T09:11:07Z</time>
      </trkpt>
      <trkpt lat="37.3204888310" lon="-8.7984204758">
        <ele>20.32</ele>
        <time>2021-05-29T09:11:16Z</time>
      </trkpt>
      <trkpt lat="37.3206144758" lon="-8.7983740401">
        <ele>18.40</ele>
        <time>2021-05-29T09:11:17Z</time>
      </trkpt>
      <trkpt lat="37.3207219318" lon="-8.7983055599">
        <ele>17.92</ele>
        <time>2021-05-29T09:11:18Z</time>
      </trkpt>
      <trkpt lat="37.3208209220" lon="-8.7982074078">
        <ele>19.84</ele>
        <time>2021-05-29T09:11:19Z</time>
      </trkpt>
      <trkpt lat="37.3209085129" lon="-8.7980843615">
        <ele>19.36</ele>
        <time>2021-05-29T09:11:20Z</time>
      </trkpt>
      <trkpt lat="37.3209892306" lon="-8.7979446352">
        <ele>19.84</ele>
        <time>2021-05-29T09:11:21Z</time>
      </trkpt>
      <trkpt lat="37.3210776597" lon="-8.7978027295">
        <ele>19.36</ele>
        <time>2021-05-29T09:11:22Z</time>
      </trkpt>
      <trkpt lat="37.3211907316" lon="-8.7976662721">
        <ele>19.36</ele>
        <time>2021-05-29T09:11:23Z</time>
      </trkpt>
      <trkpt lat="37.3213231657" lon="-8.7975342572">
        <ele>21.29</ele>
        <time>2021-05-29T09:11:24Z</time>
      </trkpt>
      <trkpt lat="37.3214656580" lon="-8.7974129710">
        <ele>21.29</ele>
        <time>2021-05-29T09:11:25Z</time>
      </trkpt>
      <trkpt lat="37.3216172867" lon="-8.7972985581">
        <ele>22.25</ele>
        <time>2021-05-29T09:11:26Z</time>
      </trkpt>
      <trkpt lat="37.3219437618" lon="-8.7970585003">
        <ele>23.69</ele>
        <time>2021-05-29T09:11:28Z</time>
      </trkpt>
      <trkpt lat="37.3229911644" lon="-8.7962933164">
        <ele>25.13</ele>
        <time>2021-05-29T09:11:34Z</time>
      </trkpt>
      <trkpt lat="37.3237348907" lon="-8.7957684416">
        <ele>27.05</ele>
        <time>2021-05-29T09:11:38Z</time>
      </trkpt>
      <trkpt lat="37.3246607557" lon="-8.7951285671">
        <ele>28.02</ele>
        <time>2021-05-29T09:11:44Z</time>
      </trkpt>
      <trkpt lat="37.3247832991" lon="-8.7950196024">
        <ele>28.50</ele>
        <time>2021-05-29T09:11:45Z</time>
      </trkpt>
      <trkpt lat="37.3248885758" lon="-8.7948998250">
        <ele>28.98</ele>
        <time>2021-05-29T09:11:46Z</time>
      </trkpt>
      <trkpt lat="37.3249659408" lon="-8.7947635353">
        <ele>28.50</ele>
        <time>2021-05-29T09:11:47Z</time>
      </trkpt>
      <trkpt lat="37.3250155617" lon="-8.7946080510">
        <ele>29.46</ele>
        <time>2021-05-29T09:11:48Z</time>
      </trkpt>
      <trkpt lat="37.3250360135" lon="-8.7944358867">
        <ele>30.42</ele>
        <time>2021-05-29T09:11:49Z</time>
      </trkpt>
      <trkpt lat="37.3250413779" lon="-8.7942527421">
        <ele>31.38</ele>
        <time>2021-05-29T09:11:50Z</time>
      </trkpt>
      <trkpt lat="37.3250612430" lon="-8.7940622214">
        <ele>30.42</ele>
        <time>2021-05-29T09:11:51Z</time>
      </trkpt>
      <trkpt lat="37.3251124565" lon="-8.7938732095">
        <ele>31.38</ele>
        <time>2021-05-29T09:11:52Z</time>
      </trkpt>
      <trkpt lat="37.3251941800" lon="-8.7936887238">
        <ele>32.34</ele>
        <time>2021-05-29T09:11:53Z</time>
      </trkpt>
      <trkpt lat="37.3252936732" lon="-8.7935096025">
        <ele>32.82</ele>
        <time>2021-05-29T09:11:54Z</time>
      </trkpt>
      <trkpt lat="37.3254867923" lon="-8.7932118773">
        <ele>33.78</ele>
        <time>2021-05-29T09:11:56Z</time>
      </trkpt>
      <trkpt lat="37.3255903926" lon="-8.7930983864">
        <ele>32.34</ele>
        <time>2021-05-29T09:11:57Z</time>
      </trkpt>
      <trkpt lat="37.3257146124" lon="-8.7930169981">
        <ele>32.82</ele>
        <time>2021-05-29T09:11:58Z</time>
      </trkpt>
      <trkpt lat="37.3258597869" lon="-8.7929765135">
        <ele>34.26</ele>
        <time>2021-05-29T09:11:59Z</time>
      </trkpt>
      <trkpt lat="37.3260160256" lon="-8.7929720711">
        <ele>38.11</ele>
        <time>2021-05-29T09:12:00Z</time>
      </trkpt>
      <trkpt lat="37.3261843342" lon="-8.7929867394">
        <ele>40.03</ele>
        <time>2021-05-29T09:12:01Z</time>
      </trkpt>
      <trkpt lat="37.3263616953" lon="-8.7930152379">
        <ele>41.95</ele>
        <time>2021-05-29T09:12:02Z</time>
      </trkpt>
      <trkpt lat="37.3265473545" lon="-8.7930641882">
        <ele>44.36</ele>
        <time>2021-05-29T09:12:03Z</time>
      </trkpt>
      <trkpt lat="37.3267306667" lon="-8.7931286450">
        <ele>45.32</ele>
        <time>2021-05-29T09:12:04Z</time>
      </trkpt>
      <trkpt lat="37.3269003164" lon="-8.7932008971">
        <ele>45.80</ele>
        <time>2021-05-29T09:12:05Z</time>
      </trkpt>
      <trkpt lat="37.3277246766" lon="-8.7935964391">
        <ele>49.65</ele>
        <time>2021-05-29T09:12:10Z</time>
      </trkpt>
      <trkpt lat="37.3281964939" lon="-8.7938751373">
        <ele>52.05</ele>
        <time>2021-05-29T09:12:13Z</time>
      </trkpt>
      <trkpt lat="37.3283617850" lon="-8.7939302064">
        <ele>53.01</ele>
        <time>2021-05-29T09:12:14Z</time>
      </trkpt>
      <trkpt lat="37.3285378050" lon="-8.7939620577">
        <ele>55.89</ele>
        <time>2021-05-29T09:12:15Z</time>
      </trkpt>
      <trkpt lat="37.3287228774" lon="-8.7939771451">
        <ele>57.34</ele>
        <time>2021-05-29T09:12:16Z</time>
      </trkpt>
      <trkpt lat="37.3289141525" lon="-8.7939809170">
        <ele>57.82</ele>
        <time>2021-05-29T09:12:17Z</time>
      </trkpt>
      <trkpt lat="37.3292909190" lon="-8.7939483952">
        <ele>60.70</ele>
        <time>2021-05-29T09:12:19Z</time>
      </trkpt>
      <trkpt lat="37.3296175618" lon="-8.7938708626">
        <ele>58.78</ele>
        <time>2021-05-29T09:12:21Z</time>
      </trkpt>
      <trkpt lat="37.3297668435" lon="-8.7937958445">
        <ele>58.78</ele>
        <time>2021-05-29T09:12:22Z</time>
      </trkpt>
      <trkpt lat="37.3299123533" lon="-8.7936904002">
        <ele>60.70</ele>
        <time>2021-05-29T09:12:23Z</time>
      </trkpt>
      <trkpt lat="37.3302118387" lon="-8.7934495043">
        <ele>63.58</ele>
        <time>2021-05-29T09:12:25Z</time>
      </trkpt>
      <trkpt lat="37.3303736094" lon="-8.7933449820">
        <ele>65.99</ele>
        <time>2021-05-29T09:12:26Z</time>
      </trkpt>
      <trkpt lat="37.3305440135" lon="-8.7932629231">
        <ele>65.99</ele>
        <time>2021-05-29T09:12:27Z</time>
      </trkpt>
      <trkpt lat="37.3307256494" lon="-8.7932039145">
        <ele>67.91</ele>
        <time>2021-05-29T09:12:28Z</time>
      </trkpt>
      <trkpt lat="37.3311178386" lon="-8.7931054272">
        <ele>73.20</ele>
        <time>2021-05-29T09:12:30Z</time>
      </trkpt>
      <trkpt lat="37.3313173279" lon="-8.7930558901">
        <ele>72.72</ele>
        <time>2021-05-29T09:12:31Z</time>
      </trkpt>
      <trkpt lat="37.3317024764" lon="-8.7929938640">
        <ele>73.20</ele>
        <time>2021-05-29T09:12:33Z</time>
      </trkpt>
      <trkpt lat="37.3318973556" lon="-8.7929954566">
        <ele>75.12</ele>
        <time>2021-05-29T09:12:34Z</time>
      </trkpt>
      <trkpt lat="37.3320964258" lon="-8.7930222787">
        <ele>77.04</ele>
        <time>2021-05-29T09:12:35Z</time>
      </trkpt>
      <trkpt lat="37.3322932329" lon="-8.7930662837">
        <ele>78.48</ele>
        <time>2021-05-29T09:12:36Z</time>
      </trkpt>
      <trkpt lat="37.3324845918" lon="-8.7931325007">
        <ele>78.48</ele>
        <time>2021-05-29T09:12:37Z</time>
      </trkpt>
      <trkpt lat="37.3326718435" lon="-8.7932234444">
        <ele>80.41</ele>
        <time>2021-05-29T09:12:38Z</time>
      </trkpt>
      <trkpt lat="37.3328580894" lon="-8.7933409587">
        <ele>81.37</ele>
        <time>2021-05-29T09:12:39Z</time>
      </trkpt>
      <trkpt lat="37.3330424912" lon="-8.7934807688">
        <ele>81.85</ele>
        <time>2021-05-29T09:12:40Z</time>
      </trkpt>
      <trkpt lat="37.3332262225" lon="-8.7936351635">
        <ele>83.29</ele>
        <time>2021-05-29T09:12:41Z</time>
      </trkpt>
      <trkpt lat="37.3341386765" lon="-8.7943146005">
        <ele>87.62</ele>
        <time>2021-05-29T09:12:46Z</time>
      </trkpt>
      <trkpt lat="37.3345295247" lon="-8.7945620343">
        <ele>88.58</ele>
        <time>2021-05-29T09:12:48Z</time>
      </trkpt>
      <trkpt lat="37.3357036617" lon="-8.7953071017">
        <ele>91.94</ele>
        <time>2021-05-29T09:12:54Z</time>
      </trkpt>
      <trkpt lat="37.3360923305" lon="-8.7955546193">
        <ele>95.31</ele>
        <time>2021-05-29T09:12:56Z</time>
      </trkpt>
      <trkpt lat="37.3374058586" lon="-8.7963424344">
        <ele>91.94</ele>
        <time>2021-05-29T09:13:03Z</time>
      </trkpt>
      <trkpt lat="37.3375890031" lon="-8.7964020297">
        <ele>93.39</ele>
        <time>2021-05-29T09:13:04Z</time>
      </trkpt>
      <trkpt lat="37.3377791047" lon="-8.7964358088">
        <ele>96.27</ele>
        <time>2021-05-29T09:13:05Z</time>
      </trkpt>
      <trkpt lat="37.3381735571" lon="-8.7964620441">
        <ele>98.67</ele>
        <time>2021-05-29T09:13:07Z</time>
      </trkpt>
      <trkpt lat="37.3387937341" lon="-8.7964358088">
        <ele>103.00</ele>
        <time>2021-05-29T09:13:10Z</time>
      </trkpt>
      <trkpt lat="37.3392208759" lon="-8.7963936478">
        <ele>105.88</ele>
        <time>2021-05-29T09:13:12Z</time>
      </trkpt>
      <trkpt lat="37.3403749801" lon="-8.7962616328">
        <ele>109.25</ele>
        <time>2021-05-29T09:13:18Z</time>
      </trkpt>
      <trkpt lat="37.3405320570" lon="-8.7962979265">
        <ele>111.17</ele>
        <time>2021-05-29T09:13:19Z</time>
      </trkpt>
      <trkpt lat="37.3406716157" lon="-8.7963751238">
        <ele>111.17</ele>
        <time>2021-05-29T09:13:20Z</time>
      </trkpt>
      <trkpt lat="37.3407922313" lon="-8.7964930572">
        <ele>110.69</ele>
        <time>2021-05-29T09:13:21Z</time>
      </trkpt>
      <trkpt lat="37.3408854380" lon="-8.7966425903">
        <ele>112.13</ele>
        <time>2021-05-29T09:13:22Z</time>
      </trkpt>
      <trkpt lat="37.3409466259" lon="-8.7968198676">
        <ele>113.09</ele>
        <time>2021-05-29T09:13:23Z</time>
      </trkpt>
      <trkpt lat="37.3409798183" lon="-8.7970152497">
        <ele>113.57</ele>
        <time>2021-05-29T09:13:24Z</time>
      </trkpt>
      <trkpt lat="37.3409879487" lon="-8.7972278148">
        <ele>113.57</ele>
        <time>2021-05-29T09:13:25Z</time>
      </trkpt>
      <trkpt lat="37.3409722745" lon="-8.7974551320">
        <ele>115.50</ele>
        <time>2021-05-29T09:13:26Z</time>
      </trkpt>
      <trkpt lat="37.3409457877" lon="-8.7976922560">
        <ele>116.46</ele>
        <time>2021-05-29T09:13:27Z</time>
      </trkpt>
      <trkpt lat="37.3408812471" lon="-8.7981789932">
        <ele>119.82</ele>
        <time>2021-05-29T09:13:29Z</time>
      </trkpt>
      <trkpt lat="37.3408046365" lon="-8.7993443292">
        <ele>117.90</ele>
        <time>2021-05-29T09:13:35Z</time>
      </trkpt>
      <trkpt lat="37.3408322129" lon="-8.7996361870">
        <ele>118.38</ele>
        <time>2021-05-29T09:13:37Z</time>
      </trkpt>
      <trkpt lat="37.3408673331" lon="-8.7997799367">
        <ele>119.82</ele>
        <time>2021-05-29T09:13:38Z</time>
      </trkpt>
      <trkpt lat="37.3409188818" lon="-8.7999256141">
        <ele>120.30</ele>
        <time>2021-05-29T09:13:39Z</time>
      </trkpt>
      <trkpt lat="37.3410459515" lon="-8.8002080005">
        <ele>121.26</ele>
        <time>2021-05-29T09:13:41Z</time>
      </trkpt>
      <trkpt lat="37.3413606919" lon="-8.8007887825">
        <ele>123.19</ele>
        <time>2021-05-29T09:13:45Z</time>
      </trkpt>
      <trkpt lat="37.3414764460" lon="-8.8009249046">
        <ele>123.19</ele>
        <time>2021-05-29T09:13:46Z</time>
      </trkpt>
      <trkpt lat="37.3416114785" lon="-8.8010429218">
        <ele>124.63</ele>
        <time>2021-05-29T09:13:47Z</time>
      </trkpt>
      <trkpt lat="37.3417590000" lon="-8.8011467736">
        <ele>125.59</ele>
        <time>2021-05-29T09:13:48Z</time>
      </trkpt>
      <trkpt lat="37.3419151548" lon="-8.8012396451">
        <ele>127.03</ele>
        <time>2021-05-29T09:13:49Z</time>
      </trkpt>
      <trkpt lat="37.3420780152" lon="-8.8013269845">
        <ele>127.03</ele>
        <time>2021-05-29T09:13:50Z</time>
      </trkpt>
      <trkpt lat="37.3429042194" lon="-8.8017249573">
        <ele>126.55</ele>
        <time>2021-05-29T09:13:55Z</time>
      </trkpt>
      <trkpt lat="37.3430835921" lon="-8.8017594907">
        <ele>126.55</ele>
        <time>2021-05-29T09:13:56Z</time>
      </trkpt>
      <trkpt lat="37.3432728555" lon="-8.8017653581">
        <ele>124.63</ele>
        <time>2021-05-29T09:13:57Z</time>
      </trkpt>
      <trkpt lat="37.3434735183" lon="-8.8017492648">
        <ele>124.63</ele>
        <time>2021-05-29T09:13:58Z</time>
      </trkpt>
      <trkpt lat="37.3436823115" lon="-8.8017215207">
        <ele>126.07</ele>
        <time>2021-05-29T09:13:59Z</time>
      </trkpt>
      <trkpt lat="37.3441231158" lon="-8.8016526215">
        <ele>127.03</ele>
        <time>2021-05-29T09:14:01Z</time>
      </trkpt>
      <trkpt lat="37.3465469945" lon="-8.8012489490">
        <ele>123.67</ele>
        <time>2021-05-29T09:14:12Z</time>
      </trkpt>
      <trkpt lat="37.3485682905" lon="-8.8009170257">
        <ele>125.11</ele>
        <time>2021-05-29T09:14:21Z</time>
      </trkpt>
      <trkpt lat="37.3506780155" lon="-8.8005676679">
        <ele>122.22</ele>
        <time>2021-05-29T09:14:30Z</time>
      </trkpt>
      <trkpt lat="37.3509087693" lon="-8.8005392533">
        <ele>122.22</ele>
        <time>2021-05-29T09:14:31Z</time>
      </trkpt>
      <trkpt lat="37.3518338799" lon="-8.8005170412">
        <ele>125.59</ele>
        <time>2021-05-29T09:14:35Z</time>
      </trkpt>
      <trkpt lat="37.3527967930" lon="-8.8005246688">
        <ele>124.63</ele>
        <time>2021-05-29T09:14:39Z</time>
      </trkpt>
      <trkpt lat="37.3542586807" lon="-8.8005444501">
        <ele>120.78</ele>
        <time>2021-05-29T09:14:45Z</time>
      </trkpt>
      <trkpt lat="37.3551355954" lon="-8.8005602919">
        <ele>118.38</ele>
        <time>2021-05-29T09:14:49Z</time>
      </trkpt>
      <trkpt lat="37.3574926704" lon="-8.8005990162">
        <ele>118.38</ele>
        <time>2021-05-29T09:14:59Z</time>
      </trkpt>
      <trkpt lat="37.3599300440" lon="-8.8006353099">
        <ele>117.42</ele>
        <time>2021-05-29T09:15:09Z</time>
      </trkpt>
      <trkpt lat="37.3604090698" lon="-8.8006453682">
        <ele>113.57</ele>
        <time>2021-05-29T09:15:11Z</time>
      </trkpt>
      <trkpt lat="37.3632225394" lon="-8.8006900437">
        <ele>110.69</ele>
        <time>2021-05-29T09:15:24Z</time>
      </trkpt>
      <trkpt lat="37.3635924328" lon="-8.8006950729">
        <ele>109.73</ele>
        <time>2021-05-29T09:15:26Z</time>
      </trkpt>
      <trkpt lat="37.3642623145" lon="-8.8007095736">
        <ele>104.92</ele>
        <time>2021-05-29T09:15:30Z</time>
      </trkpt>
      <trkpt lat="37.3648544960" lon="-8.8007249963">
        <ele>103.96</ele>
        <time>2021-05-29T09:15:34Z</time>
      </trkpt>
      <trkpt lat="37.3651388939" lon="-8.8007309474">
        <ele>104.92</ele>
        <time>2021-05-29T09:15:36Z</time>
      </trkpt>
      <trkpt lat="37.3656821251" lon="-8.8007270917">
        <ele>101.56</ele>
        <time>2021-05-29T09:15:40Z</time>
      </trkpt>
      <trkpt lat="37.3661155533" lon="-8.8007124234">
        <ele>98.19</ele>
        <time>2021-05-29T09:15:44Z</time>
      </trkpt>
      <trkpt lat="37.3661953490" lon="-8.8007078972">
        <ele>98.19</ele>
        <time>2021-05-29T09:15:45Z</time>
      </trkpt>
      <trkpt lat="37.3663649149" lon="-8.8006952405">
        <ele>96.27</ele>
        <time>2021-05-29T09:15:48Z</time>
      </trkpt>
      <trkpt lat="37.3666761350" lon="-8.8006626349">
        <ele>96.27</ele>
        <time>2021-05-29T09:15:56Z</time>
      </trkpt>
      <trkpt lat="37.3675885890" lon="-8.8005202264">
        <ele>96.27</ele>
        <time>2021-05-29T09:16:06Z</time>
      </trkpt>
      <trkpt lat="37.3684716225" lon="-8.8003717829">
        <ele>99.15</ele>
        <time>2021-05-29T09:16:15Z</time>
      </trkpt>
      <trkpt lat="37.3696589191" lon="-8.8001624029">
        <ele>97.71</ele>
        <time>2021-05-29T09:16:24Z</time>
      </trkpt>
      <trkpt lat="37.3707375024" lon="-8.7999858800">
        <ele>96.75</ele>
        <time>2021-05-29T09:16:33Z</time>
      </trkpt>
      <trkpt lat="37.3716279957" lon="-8.7998300605">
        <ele>93.39</ele>
        <time>2021-05-29T09:16:40Z</time>
      </trkpt>
      <trkpt lat="37.3717397265" lon="-8.7998091895">
        <ele>93.39</ele>
        <time>2021-05-29T09:16:41Z</time>
      </trkpt>
      <trkpt lat="37.3741683830" lon="-8.7993908487">
        <ele>92.90</ele>
        <time>2021-05-29T09:17:00Z</time>
      </trkpt>
      <trkpt lat="37.3744144756" lon="-8.7993472628">
        <ele>92.42</ele>
        <time>2021-05-29T09:17:02Z</time>
      </trkpt>
      <trkpt lat="37.3746544495" lon="-8.7993040122">
        <ele>93.87</ele>
        <time>2021-05-29T09:17:04Z</time>
      </trkpt>
      <trkpt lat="37.3761156667" lon="-8.7989849970">
        <ele>94.35</ele>
        <time>2021-05-29T09:17:16Z</time>
      </trkpt>
      <trkpt lat="37.3762495257" lon="-8.7989093084">
        <ele>94.83</ele>
        <time>2021-05-29T09:17:17Z</time>
      </trkpt>
      <trkpt lat="37.3763864860" lon="-8.7988165207">
        <ele>95.79</ele>
        <time>2021-05-29T09:17:18Z</time>
      </trkpt>
      <trkpt lat="37.3765270505" lon="-8.7987119146">
        <ele>95.79</ele>
        <time>2021-05-29T09:17:19Z</time>
      </trkpt>
      <trkpt lat="37.3784584925" lon="-8.7971971370">
        <ele>99.15</ele>
        <time>2021-05-29T09:17:32Z</time>
      </trkpt>
      <trkpt lat="37.3812786676" lon="-8.7949656229">
        <ele>99.63</ele>
        <time>2021-05-29T09:17:49Z</time>
      </trkpt>
      <trkpt lat="37.3819686659" lon="-8.7944225594">
        <ele>103.48</ele>
        <time>2021-05-29T09:17:53Z</time>
      </trkpt>
      <trkpt lat="37.3821358010" lon="-8.7942899577">
        <ele>101.56</ele>
        <time>2021-05-29T09:17:54Z</time>
      </trkpt>
      <trkpt lat="37.3835496604" lon="-8.7931585684">
        <ele>105.40</ele>
        <time>2021-05-29T09:18:02Z</time>
      </trkpt>
      <trkpt lat="37.3840849288" lon="-8.7927304208">
        <ele>103.48</ele>
        <time>2021-05-29T09:18:05Z</time>
      </trkpt>
      <trkpt lat="37.3867970612" lon="-8.7905857433">
        <ele>103.96</ele>
        <time>2021-05-29T09:18:20Z</time>
      </trkpt>
      <trkpt lat="37.3875412904" lon="-8.7900011893">
        <ele>108.29</ele>
        <time>2021-05-29T09:18:24Z</time>
      </trkpt>
      <trkpt lat="37.3877328169" lon="-8.7898493931">
        <ele>107.81</ele>
        <time>2021-05-29T09:18:25Z</time>
      </trkpt>
      <trkpt lat="37.3885052092" lon="-8.7892347481">
        <ele>111.17</ele>
        <time>2021-05-29T09:18:29Z</time>
      </trkpt>
      <trkpt lat="37.3886994179" lon="-8.7890802696">
        <ele>110.69</ele>
        <time>2021-05-29T09:18:30Z</time>
      </trkpt>
      <trkpt lat="37.3888904415" lon="-8.7889304012">
        <ele>114.05</ele>
        <time>2021-05-29T09:18:31Z</time>
      </trkpt>
      <trkpt lat="37.3890686408" lon="-8.7887890823">
        <ele>113.09</ele>
        <time>2021-05-29T09:18:32Z</time>
      </trkpt>
      <trkpt lat="37.3893852253" lon="-8.7885301653">
        <ele>109.73</ele>
        <time>2021-05-29T09:18:34Z</time>
      </trkpt>
      <trkpt lat="37.3903262615" lon="-8.7877784763">
        <ele>110.21</ele>
        <time>2021-05-29T09:18:40Z</time>
      </trkpt>
      <trkpt lat="37.3910124879" lon="-8.7872332335">
        <ele>106.36</ele>
        <time>2021-05-29T09:18:45Z</time>
      </trkpt>
      <trkpt lat="37.3918945156" lon="-8.7865017448">
        <ele>107.81</ele>
        <time>2021-05-29T09:18:54Z</time>
      </trkpt>
      <trkpt lat="37.3929867614" lon="-8.7856271770">
        <ele>108.77</ele>
        <time>2021-05-29T09:19:04Z</time>
      </trkpt>
      <trkpt lat="37.3938060086" lon="-8.7849594746">
        <ele>104.92</ele>
        <time>2021-05-29T09:19:12Z</time>
      </trkpt>
      <trkpt lat="37.3948657326" lon="-8.7841059454">
        <ele>106.36</ele>
        <time>2021-05-29T09:19:22Z</time>
      </trkpt>
      <trkpt lat="37.3960946873" lon="-8.7831138633">
        <ele>103.96</ele>
        <time>2021-05-29T09:19:33Z</time>
      </trkpt>
      <trkpt lat="37.3973924574" lon="-8.7820751779">
        <ele>103.00</ele>
        <time>2021-05-29T09:19:45Z</time>
      </trkpt>
      <trkpt lat="37.3981340881" lon="-8.7814415060">
        <ele>106.36</ele>
        <time>2021-05-29T09:19:51Z</time>
      </trkpt>
      <trkpt lat="37.3985261098" lon="-8.7810452934">
        <ele>102.04</ele>
        <time>2021-05-29T09:19:54Z</time>
      </trkpt>
      <trkpt lat="37.3992088996" lon="-8.7803184986">
        <ele>99.63</ele>
        <time>2021-05-29T09:20:01Z</time>
      </trkpt>
      <trkpt lat="37.3996501230" lon="-8.7798472680">
        <ele>103.96</ele>
        <time>2021-05-29T09:20:05Z</time>
      </trkpt>
      <trkpt lat="37.4000391271" lon="-8.7794244848">
        <ele>107.32</ele>
        <time>2021-05-29T09:20:08Z</time>
      </trkpt>
      <trkpt lat="37.4001739081" lon="-8.7792798970">
        <ele>107.32</ele>
        <time>2021-05-29T09:20:09Z</time>
      </trkpt>
      <trkpt lat="37.4005674385" lon="-8.7788524199">
        <ele>109.25</ele>
        <time>2021-05-29T09:20:12Z</time>
      </trkpt>
      <trkpt lat="37.4013264198" lon="-8.7780159898">
        <ele>111.17</ele>
        <time>2021-05-29T09:20:18Z</time>
      </trkpt>
      <trkpt lat="37.4018930364" lon="-8.7773850001">
        <ele>113.57</ele>
        <time>2021-05-29T09:20:22Z</time>
      </trkpt>
      <trkpt lat="37.4024921749" lon="-8.7767288648">
        <ele>118.38</ele>
        <time>2021-05-29T09:20:26Z</time>
      </trkpt>
      <trkpt lat="37.4027907383" lon="-8.7763951812">
        <ele>119.34</ele>
        <time>2021-05-29T09:20:28Z</time>
      </trkpt>
      <trkpt lat="37.4036979955" lon="-8.7753746845">
        <ele>122.22</ele>
        <time>2021-05-29T09:20:34Z</time>
      </trkpt>
      <trkpt lat="37.4055701774" lon="-8.7732717488">
        <ele>124.15</ele>
        <time>2021-05-29T09:20:45Z</time>
      </trkpt>
      <trkpt lat="37.4064480141" lon="-8.7722221669">
        <ele>123.19</ele>
        <time>2021-05-29T09:20:50Z</time>
      </trkpt>
      <trkpt lat="37.4073682632" lon="-8.7711755186">
        <ele>119.82</ele>
        <time>2021-05-29T09:20:56Z</time>
      </trkpt>
      <trkpt lat="37.4078406673" lon="-8.7706343830">
        <ele>123.19</ele>
        <time>2021-05-29T09:20:59Z</time>
      </trkpt>
      <trkpt lat="37.4087809492" lon="-8.7695738208">
        <ele>121.26</ele>
        <time>2021-05-29T09:21:05Z</time>
      </trkpt>
      <trkpt lat="37.4100738578" lon="-8.7681747135">
        <ele>122.71</ele>
        <time>2021-05-29T09:21:15Z</time>
      </trkpt>
      <trkpt lat="37.4102169368" lon="-8.7680815067">
        <ele>123.19</ele>
        <time>2021-05-29T09:21:16Z</time>
      </trkpt>
      <trkpt lat="37.4103742652" lon="-8.7680067401">
        <ele>123.19</ele>
        <time>2021-05-29T09:21:17Z</time>
      </trkpt>
      <trkpt lat="37.4105439987" lon="-8.7679516710">
        <ele>124.63</ele>
        <time>2021-05-29T09:21:18Z</time>
      </trkpt>
      <trkpt lat="37.4107184261" lon="-8.7679121923">
        <ele>124.63</ele>
        <time>2021-05-29T09:21:19Z</time>
      </trkpt>
      <trkpt lat="37.4108892493" lon="-8.7678829394">
        <ele>123.67</ele>
        <time>2021-05-29T09:21:20Z</time>
      </trkpt>
      <trkpt lat="37.4124228023" lon="-8.7676436361">
        <ele>129.43</ele>
        <time>2021-05-29T09:21:28Z</time>
      </trkpt>
      <trkpt lat="37.4128703959" lon="-8.7675679475">
        <ele>129.92</ele>
        <time>2021-05-29T09:21:30Z</time>
      </trkpt>
      <trkpt lat="37.4133295566" lon="-8.7674787641">
        <ele>127.03</ele>
        <time>2021-05-29T09:21:32Z</time>
      </trkpt>
      <trkpt lat="37.4145321921" lon="-8.7672513630">
        <ele>130.40</ele>
        <time>2021-05-29T09:21:37Z</time>
      </trkpt>
      <trkpt lat="37.4159699399" lon="-8.7669993192">
        <ele>126.55</ele>
        <time>2021-05-29T09:21:43Z</time>
      </trkpt>
      <trkpt lat="37.4175965320" lon="-8.7667098921">
        <ele>123.67</ele>
        <time>2021-05-29T09:21:50Z</time>
      </trkpt>
      <trkpt lat="37.4189645424" lon="-8.7665890250">
        <ele>123.19</ele>
        <time>2021-05-29T09:21:56Z</time>
      </trkpt>
      <trkpt lat="37.4191962183" lon="-8.7666315213">
        <ele>123.19</ele>
        <time>2021-05-29T09:21:57Z</time>
      </trkpt>
      <trkpt lat="37.4203609675" lon="-8.7669454236">
        <ele>120.78</ele>
        <time>2021-05-29T09:22:02Z</time>
      </trkpt>
      <trkpt lat="37.4207754526" lon="-8.7670614291">
        <ele>117.42</ele>
        <time>2021-05-29T09:22:04Z</time>
      </trkpt>
      <trkpt lat="37.4219478294" lon="-8.7673368584">
        <ele>113.09</ele>
        <time>2021-05-29T09:22:10Z</time>
      </trkpt>
      <trkpt lat="37.4221427925" lon="-8.7673243694">
        <ele>113.09</ele>
        <time>2021-05-29T09:22:11Z</time>
      </trkpt>
      <trkpt lat="37.4223360792" lon="-8.7672854774">
        <ele>113.09</ele>
        <time>2021-05-29T09:22:12Z</time>
      </trkpt>
      <trkpt lat="37.4225245044" lon="-8.7672198471">
        <ele>113.57</ele>
        <time>2021-05-29T09:22:13Z</time>
      </trkpt>
      <trkpt lat="37.4227074813" lon="-8.7671259698">
        <ele>113.57</ele>
        <time>2021-05-29T09:22:14Z</time>
      </trkpt>
      <trkpt lat="37.4228869379" lon="-8.7670137361">
        <ele>113.57</ele>
        <time>2021-05-29T09:22:15Z</time>
      </trkpt>
      <trkpt lat="37.4230600242" lon="-8.7668911088">
        <ele>111.65</ele>
        <time>2021-05-29T09:22:16Z</time>
      </trkpt>
      <trkpt lat="37.4232310988" lon="-8.7667664699">
        <ele>112.13</ele>
        <time>2021-05-29T09:22:17Z</time>
      </trkpt>
      <trkpt lat="37.4250358064" lon="-8.7657198217">
        <ele>108.29</ele>
        <time>2021-05-29T09:22:27Z</time>
      </trkpt>
      <trkpt lat="37.4252049532" lon="-8.7656667642">
        <ele>103.48</ele>
        <time>2021-05-29T09:22:28Z</time>
      </trkpt>
      <trkpt lat="37.4253725074" lon="-8.7656391878">
        <ele>104.44</ele>
        <time>2021-05-29T09:22:29Z</time>
      </trkpt>
      <trkpt lat="37.4255428277" lon="-8.7656449713">
        <ele>104.44</ele>
        <time>2021-05-29T09:22:30Z</time>
      </trkpt>
      <trkpt lat="37.4257115554" lon="-8.7656779960">
        <ele>102.04</ele>
        <time>2021-05-29T09:22:31Z</time>
      </trkpt>
      <trkpt lat="37.4258700572" lon="-8.7657288741">
        <ele>100.60</ele>
        <time>2021-05-29T09:22:32Z</time>
      </trkpt>
      <trkpt lat="37.4260133039" lon="-8.7657997850">
        <ele>98.67</ele>
        <time>2021-05-29T09:22:33Z</time>
      </trkpt>
      <trkpt lat="37.4261402898" lon="-8.7658890523">
        <ele>97.71</ele>
        <time>2021-05-29T09:22:34Z</time>
      </trkpt>
      <trkpt lat="37.4262536131" lon="-8.7659884617">
        <ele>96.75</ele>
        <time>2021-05-29T09:22:35Z</time>
      </trkpt>
      <trkpt lat="37.4263608176" lon="-8.7660853565">
        <ele>94.83</ele>
        <time>2021-05-29T09:22:36Z</time>
      </trkpt>
      <trkpt lat="37.4264665972" lon="-8.7661675829">
        <ele>94.35</ele>
        <time>2021-05-29T09:22:37Z</time>
      </trkpt>
      <trkpt lat="37.4265732151" lon="-8.7662279326">
        <ele>93.39</ele>
        <time>2021-05-29T09:22:38Z</time>
      </trkpt>
      <trkpt lat="37.4266796652" lon="-8.7662519049">
        <ele>92.42</ele>
        <time>2021-05-29T09:22:39Z</time>
      </trkpt>
      <trkpt lat="37.4267794937" lon="-8.7662295252">
        <ele>90.50</ele>
        <time>2021-05-29T09:22:40Z</time>
      </trkpt>
      <trkpt lat="37.4268654920" lon="-8.7661669962">
        <ele>89.54</ele>
        <time>2021-05-29T09:22:41Z</time>
      </trkpt>
      <trkpt lat="37.4269455392" lon="-8.7660782319">
        <ele>88.10</ele>
        <time>2021-05-29T09:22:42Z</time>
      </trkpt>
      <trkpt lat="37.4270263407" lon="-8.7659934070">
        <ele>87.62</ele>
        <time>2021-05-29T09:22:43Z</time>
      </trkpt>
      <trkpt lat="37.4271125067" lon="-8.7659402657">
        <ele>87.14</ele>
        <time>2021-05-29T09:22:44Z</time>
      </trkpt>
      <trkpt lat="37.4271996785" lon="-8.7659282796">
        <ele>85.69</ele>
        <time>2021-05-29T09:22:45Z</time>
      </trkpt>
      <trkpt lat="37.4272847548" lon="-8.7659611367">
        <ele>85.69</ele>
        <time>2021-05-29T09:22:46Z</time>
      </trkpt>
      <trkpt lat="37.4273705017" lon="-8.7660268508">
        <ele>85.21</ele>
        <time>2021-05-29T09:22:47Z</time>
      </trkpt>
      <trkpt lat="37.4274607748" lon="-8.7660963368">
        <ele>85.21</ele>
        <time>2021-05-29T09:22:48Z</time>
      </trkpt>
      <trkpt lat="37.4275531434" lon="-8.7661504000">
        <ele>84.73</ele>
        <time>2021-05-29T09:22:49Z</time>
      </trkpt>
      <trkpt lat="37.4276515469" lon="-8.7661835924">
        <ele>83.77</ele>
        <time>2021-05-29T09:22:50Z</time>
      </trkpt>
      <trkpt lat="37.4277621880" lon="-8.7662047148">
        <ele>82.81</ele>
        <time>2021-05-29T09:22:51Z</time>
      </trkpt>
      <trkpt lat="37.4278841447" lon="-8.7662428524">
        <ele>82.33</ele>
        <time>2021-05-29T09:22:52Z</time>
      </trkpt>
      <trkpt lat="37.4280054308" lon="-8.7663137633">
        <ele>81.37</ele>
        <time>2021-05-29T09:22:53Z</time>
      </trkpt>
      <trkpt lat="37.4281228613" lon="-8.7664147653">
        <ele>83.29</ele>
        <time>2021-05-29T09:22:54Z</time>
      </trkpt>
      <trkpt lat="37.4282413814" lon="-8.7665417511">
        <ele>81.85</ele>
        <time>2021-05-29T09:22:55Z</time>
      </trkpt>
      <trkpt lat="37.4285951816" lon="-8.7669771072">
        <ele>78.48</ele>
        <time>2021-05-29T09:22:58Z</time>
      </trkpt>
      <trkpt lat="37.4291266780" lon="-8.7674977910">
        <ele>75.12</ele>
        <time>2021-05-29T09:23:02Z</time>
      </trkpt>
      <trkpt lat="37.4296114035" lon="-8.7677965220">
        <ele>72.24</ele>
        <time>2021-05-29T09:23:05Z</time>
      </trkpt>
      <trkpt lat="37.4300576560" lon="-8.7680540979">
        <ele>67.91</ele>
        <time>2021-05-29T09:23:08Z</time>
      </trkpt>
      <trkpt lat="37.4301941134" lon="-8.7681540940">
        <ele>67.43</ele>
        <time>2021-05-29T09:23:09Z</time>
      </trkpt>
      <trkpt lat="37.4304443970" lon="-8.7683969177">
        <ele>65.51</ele>
        <time>2021-05-29T09:23:11Z</time>
      </trkpt>
      <trkpt lat="37.4307765719" lon="-8.7687875982">
        <ele>63.10</ele>
        <time>2021-05-29T09:23:14Z</time>
      </trkpt>
      <trkpt lat="37.4309079163" lon="-8.7688981555">
        <ele>62.14</ele>
        <time>2021-05-29T09:23:15Z</time>
      </trkpt>
      <trkpt lat="37.4311537575" lon="-8.7690810487">
        <ele>58.30</ele>
        <time>2021-05-29T09:23:17Z</time>
      </trkpt>
      <trkpt lat="37.4314226490" lon="-8.7692773528">
        <ele>54.45</ele>
        <time>2021-05-29T09:23:20Z</time>
      </trkpt>
      <trkpt lat="37.4314913806" lon="-8.7693185080">
        <ele>53.97</ele>
        <time>2021-05-29T09:23:21Z</time>
      </trkpt>
      <trkpt lat="37.4315570947" lon="-8.7693277281">
        <ele>53.01</ele>
        <time>2021-05-29T09:23:22Z</time>
      </trkpt>
      <trkpt lat="37.4316164386" lon="-8.7692957930">
        <ele>53.01</ele>
        <time>2021-05-29T09:23:23Z</time>
      </trkpt>
      <trkpt lat="37.4316568393" lon="-8.7692294922">
        <ele>52.53</ele>
        <time>2021-05-29T09:23:24Z</time>
      </trkpt>
      <trkpt lat="37.4316709209" lon="-8.7691365369">
        <ele>51.09</ele>
        <time>2021-05-29T09:23:25Z</time>
      </trkpt>
      <trkpt lat="37.4316523131" lon="-8.7690318469">
        <ele>51.09</ele>
        <time>2021-05-29T09:23:26Z</time>
      </trkpt>
      <trkpt lat="37.4316124991" lon="-8.7689246424">
        <ele>50.61</ele>
        <time>2021-05-29T09:23:27Z</time>
      </trkpt>
      <trkpt lat="37.4315601122" lon="-8.7688110676">
        <ele>50.13</ele>
        <time>2021-05-29T09:23:28Z</time>
      </trkpt>
      <trkpt lat="37.4314945657" lon="-8.7686922122">
        <ele>49.16</ele>
        <time>2021-05-29T09:23:29Z</time>
      </trkpt>
      <trkpt lat="37.4314188771" lon="-8.7685704231">
        <ele>48.68</ele>
        <time>2021-05-29T09:23:30Z</time>
      </trkpt>
      <trkpt lat="37.4311423581" lon="-8.7681291159">
        <ele>45.32</ele>
        <time>2021-05-29T09:23:34Z</time>
      </trkpt>
      <trkpt lat="37.4310951680" lon="-8.7680334784">
        <ele>45.32</ele>
        <time>2021-05-29T09:23:35Z</time>
      </trkpt>
      <trkpt lat="37.4310637359" lon="-8.7679359131">
        <ele>45.32</ele>
        <time>2021-05-29T09:23:36Z</time>
      </trkpt>
      <trkpt lat="37.4310520012" lon="-8.7678344082">
        <ele>44.84</ele>
        <time>2021-05-29T09:23:37Z</time>
      </trkpt>
      <trkpt lat="37.4310535099" lon="-8.7677325681">
        <ele>44.36</ele>
        <time>2021-05-29T09:23:38Z</time>
      </trkpt>
      <trkpt lat="37.4310778175" lon="-8.7675573025">
        <ele>41.95</ele>
        <time>2021-05-29T09:23:41Z</time>
      </trkpt>
      <trkpt lat="37.4310996942" lon="-8.7675646786">
        <ele>40.99</ele>
        <time>2021-05-29T09:23:42Z</time>
      </trkpt>
      <trkpt lat="37.4311363231" lon="-8.7675986253">
        <ele>41.47</ele>
        <time>2021-05-29T09:23:43Z</time>
      </trkpt>
      <trkpt lat="37.4313281011" lon="-8.7677502539">
        <ele>41.47</ele>
        <time>2021-05-29T09:23:45Z</time>
      </trkpt>
      <trkpt lat="37.4314241577" lon="-8.7678560335">
        <ele>39.55</ele>
        <time>2021-05-29T09:23:46Z</time>
      </trkpt>
      <trkpt lat="37.4315541610" lon="-8.7679619808">
        <ele>38.11</ele>
        <time>2021-05-29T09:23:47Z</time>
      </trkpt>
      <trkpt lat="37.4323553033" lon="-8.7686067168">
        <ele>34.74</ele>
        <time>2021-05-29T09:23:53Z</time>
      </trkpt>
      <trkpt lat="37.4327181559" lon="-8.7689252291">
        <ele>34.26</ele>
        <time>2021-05-29T09:23:56Z</time>
      </trkpt>
      <trkpt lat="37.4328450579" lon="-8.7690182682">
        <ele>32.82</ele>
        <time>2021-05-29T09:23:57Z</time>
      </trkpt>
      <trkpt lat="37.4329743069" lon="-8.7690848205">
        <ele>32.34</ele>
        <time>2021-05-29T09:23:58Z</time>
      </trkpt>
      <trkpt lat="37.4331052322" lon="-8.7691283226">
        <ele>31.86</ele>
        <time>2021-05-29T09:23:59Z</time>
      </trkpt>
      <trkpt lat="37.4332373310" lon="-8.7691551447">
        <ele>30.90</ele>
        <time>2021-05-29T09:24:00Z</time>
      </trkpt>
      <trkpt lat="37.4333644845" lon="-8.7691603415">
        <ele>28.98</ele>
        <time>2021-05-29T09:24:01Z</time>
      </trkpt>
      <trkpt lat="37.4334865250" lon="-8.7691363692">
        <ele>27.53</ele>
        <time>2021-05-29T09:24:02Z</time>
      </trkpt>
      <trkpt lat="37.4336087331" lon="-8.7690826412">
        <ele>26.09</ele>
        <time>2021-05-29T09:24:03Z</time>
      </trkpt>
      <trkpt lat="37.4337223917" lon="-8.7690009177">
        <ele>25.61</ele>
        <time>2021-05-29T09:24:04Z</time>
      </trkpt>
      <trkpt lat="37.4338191189" lon="-8.7688912824">
        <ele>24.65</ele>
        <time>2021-05-29T09:24:05Z</time>
      </trkpt>
      <trkpt lat="37.4338922091" lon="-8.7687644642">
        <ele>23.69</ele>
        <time>2021-05-29T09:24:06Z</time>
      </trkpt>
      <trkpt lat="37.4339453503" lon="-8.7686156854">
        <ele>23.21</ele>
        <time>2021-05-29T09:24:07Z</time>
      </trkpt>
      <trkpt lat="37.4339839909" lon="-8.7684543338">
        <ele>22.25</ele>
        <time>2021-05-29T09:24:08Z</time>
      </trkpt>
      <trkpt lat="37.4340082146" lon="-8.7682870310">
        <ele>21.29</ele>
        <time>2021-05-29T09:24:09Z</time>
      </trkpt>
      <trkpt lat="37.4340148363" lon="-8.7681214884">
        <ele>21.29</ele>
        <time>2021-05-29T09:24:10Z</time>
      </trkpt>
      <trkpt lat="37.4340037722" lon="-8.7679570355">
        <ele>20.81</ele>
        <time>2021-05-29T09:24:11Z</time>
      </trkpt>
      <trkpt lat="37.4339782912" lon="-8.7677974440">
        <ele>19.84</ele>
        <time>2021-05-29T09:24:12Z</time>
      </trkpt>
      <trkpt lat="37.4339412432" lon="-8.7676375173">
        <ele>19.84</ele>
        <time>2021-05-29T09:24:13Z</time>
      </trkpt>
      <trkpt lat="37.4338888563" lon="-8.7674791832">
        <ele>18.40</ele>
        <time>2021-05-29T09:24:14Z</time>
      </trkpt>
      <trkpt lat="37.4338215496" lon="-8.7673287280">
        <ele>17.44</ele>
        <time>2021-05-29T09:24:15Z</time>
      </trkpt>
      <trkpt lat="37.4337482918" lon="-8.7671941146">
        <ele>16.96</ele>
        <time>2021-05-29T09:24:16Z</time>
      </trkpt>
      <trkpt lat="37.4336757883" lon="-8.7670623511">
        <ele>16.48</ele>
        <time>2021-05-29T09:24:17Z</time>
      </trkpt>
      <trkpt lat="37.4336050451" lon="-8.7669274025">
        <ele>16.48</ele>
        <time>2021-05-29T09:24:18Z</time>
      </trkpt>
      <trkpt lat="37.4335526582" lon="-8.7667844072">
        <ele>16.00</ele>
        <time>2021-05-29T09:24:19Z</time>
      </trkpt>
      <trkpt lat="37.4335360620" lon="-8.7666281685">
        <ele>14.56</ele>
        <time>2021-05-29T09:24:20Z</time>
      </trkpt>
      <trkpt lat="37.4335465394" lon="-8.7664707564">
        <ele>13.60</ele>
        <time>2021-05-29T09:24:21Z</time>
      </trkpt>
      <trkpt lat="37.4335817434" lon="-8.7663271744">
        <ele>13.60</ele>
        <time>2021-05-29T09:24:22Z</time>
      </trkpt>
      <trkpt lat="37.4336483795" lon="-8.7662056368">
        <ele>12.63</ele>
        <time>2021-05-29T09:24:23Z</time>
      </trkpt>
      <trkpt lat="37.4337471183" lon="-8.7661001924">
        <ele>12.63</ele>
        <time>2021-05-29T09:24:24Z</time>
      </trkpt>
      <trkpt lat="37.4345998093" lon="-8.7653079350">
        <ele>14.08</ele>
        <time>2021-05-29T09:24:32Z</time>
      </trkpt>
      <trkpt lat="37.4351667613" lon="-8.7647050247">
        <ele>13.12</ele>
        <time>2021-05-29T09:24:38Z</time>
      </trkpt>
      <trkpt lat="37.4352297932" lon="-8.7645972334">
        <ele>13.12</ele>
        <time>2021-05-29T09:24:39Z</time>
      </trkpt>
      <trkpt lat="37.4352696072" lon="-8.7644798029">
        <ele>12.63</ele>
        <time>2021-05-29T09:24:40Z</time>
      </trkpt>
      <trkpt lat="37.4352879636" lon="-8.7643517274">
        <ele>12.63</ele>
        <time>2021-05-29T09:24:41Z</time>
      </trkpt>
      <trkpt lat="37.4352877960" lon="-8.7642193772">
        <ele>13.60</ele>
        <time>2021-05-29T09:24:42Z</time>
      </trkpt>
      <trkpt lat="37.4352687690" lon="-8.7640897091">
        <ele>13.60</ele>
        <time>2021-05-29T09:24:43Z</time>
      </trkpt>
      <trkpt lat="37.4352345709" lon="-8.7639584485">
        <ele>14.56</ele>
        <time>2021-05-29T09:24:44Z</time>
      </trkpt>
      <trkpt lat="37.4351835251" lon="-8.7638176326">
        <ele>15.52</ele>
        <time>2021-05-29T09:24:45Z</time>
      </trkpt>
      <trkpt lat="37.4351184815" lon="-8.7636750564">
        <ele>16.48</ele>
        <time>2021-05-29T09:24:46Z</time>
      </trkpt>
      <trkpt lat="37.4350413680" lon="-8.7635417003">
        <ele>16.48</ele>
        <time>2021-05-29T09:24:47Z</time>
      </trkpt>
      <trkpt lat="37.4349557888" lon="-8.7634181511">
        <ele>16.48</ele>
        <time>2021-05-29T09:24:48Z</time>
      </trkpt>
      <trkpt lat="37.4348635878" lon="-8.7632996310">
        <ele>16.48</ele>
        <time>2021-05-29T09:24:49Z</time>
      </trkpt>
      <trkpt lat="37.4342841469" lon="-8.7621918786">
        <ele>15.52</ele>
        <time>2021-05-29T09:24:57Z</time>
      </trkpt>
      <trkpt lat="37.4340234697" lon="-8.7613011338">
        <ele>18.88</ele>
        <time>2021-05-29T09:25:03Z</time>
      </trkpt>
      <trkpt lat="37.4337758683" lon="-8.7600130029">
        <ele>22.73</ele>
        <time>2021-05-29T09:25:11Z</time>
      </trkpt>
      <trkpt lat="37.4337464478" lon="-8.7597135175">
        <ele>22.25</ele>
        <time>2021-05-29T09:25:13Z</time>
      </trkpt>
      <trkpt lat="37.4337536562" lon="-8.7595574465">
        <ele>24.17</ele>
        <time>2021-05-29T09:25:14Z</time>
      </trkpt>
      <trkpt lat="37.4337802269" lon="-8.7593920715">
        <ele>25.13</ele>
        <time>2021-05-29T09:25:15Z</time>
      </trkpt>
      <trkpt lat="37.4338268302" lon="-8.7592158839">
        <ele>27.05</ele>
        <time>2021-05-29T09:25:16Z</time>
      </trkpt>
      <trkpt lat="37.4338907003" lon="-8.7590284646">
        <ele>29.46</ele>
        <time>2021-05-29T09:25:17Z</time>
      </trkpt>
      <trkpt lat="37.4339665566" lon="-8.7588360161">
        <ele>29.94</ele>
        <time>2021-05-29T09:25:18Z</time>
      </trkpt>
      <trkpt lat="37.4343122263" lon="-8.7581072934">
        <ele>29.94</ele>
        <time>2021-05-29T09:25:22Z</time>
      </trkpt>
      <trkpt lat="37.4349656794" lon="-8.7569339946">
        <ele>34.74</ele>
        <time>2021-05-29T09:25:28Z</time>
      </trkpt>
      <trkpt lat="37.4352446292" lon="-8.7566014007">
        <ele>35.71</ele>
        <time>2021-05-29T09:25:30Z</time>
      </trkpt>
      <trkpt lat="37.4355582800" lon="-8.7563323416">
        <ele>38.11</ele>
        <time>2021-05-29T09:25:32Z</time>
      </trkpt>
      <trkpt lat="37.4357242417" lon="-8.7562252209">
        <ele>38.11</ele>
        <time>2021-05-29T09:25:33Z</time>
      </trkpt>
      <trkpt lat="37.4358969927" lon="-8.7561391387">
        <ele>39.07</ele>
        <time>2021-05-29T09:25:34Z</time>
      </trkpt>
      <trkpt lat="37.4360775389" lon="-8.7560742628">
        <ele>40.99</ele>
        <time>2021-05-29T09:25:35Z</time>
      </trkpt>
      <trkpt lat="37.4362642877" lon="-8.7560312636">
        <ele>42.92</ele>
        <time>2021-05-29T09:25:36Z</time>
      </trkpt>
      <trkpt lat="37.4364525452" lon="-8.7560062017">
        <ele>43.40</ele>
        <time>2021-05-29T09:25:37Z</time>
      </trkpt>
      <trkpt lat="37.4366387073" lon="-8.7559962273">
        <ele>42.44</ele>
        <time>2021-05-29T09:25:38Z</time>
      </trkpt>
      <trkpt lat="37.4368217681" lon="-8.7559924554">
        <ele>42.92</ele>
        <time>2021-05-29T09:25:39Z</time>
      </trkpt>
      <trkpt lat="37.4371826090" lon="-8.7559851632">
        <ele>46.76</ele>
        <time>2021-05-29T09:25:41Z</time>
      </trkpt>
      <trkpt lat="37.4373629875" lon="-8.7559803855">
        <ele>46.28</ele>
        <time>2021-05-29T09:25:42Z</time>
      </trkpt>
      <trkpt lat="37.4377213977" lon="-8.7559689861">
        <ele>48.20</ele>
        <time>2021-05-29T09:25:44Z</time>
      </trkpt>
      <trkpt lat="37.4382680655" lon="-8.7559746858">
        <ele>50.61</ele>
        <time>2021-05-29T09:25:47Z</time>
      </trkpt>
      <trkpt lat="37.4384527188" lon="-8.7560134940">
        <ele>52.05</ele>
        <time>2021-05-29T09:25:48Z</time>
      </trkpt>
      <trkpt lat="37.4386365339" lon="-8.7560808007">
        <ele>54.93</ele>
        <time>2021-05-29T09:25:49Z</time>
      </trkpt>
      <trkpt lat="37.4388172477" lon="-8.7561795395">
        <ele>54.45</ele>
        <time>2021-05-29T09:25:50Z</time>
      </trkpt>
      <trkpt lat="37.4389925972" lon="-8.7562998198">
        <ele>56.37</ele>
        <time>2021-05-29T09:25:51Z</time>
      </trkpt>
      <trkpt lat="37.4391643424" lon="-8.7564237043">
        <ele>56.37</ele>
        <time>2021-05-29T09:25:52Z</time>
      </trkpt>
      <trkpt lat="37.4394971039" lon="-8.7566582300">
        <ele>57.34</ele>
        <time>2021-05-29T09:25:54Z</time>
      </trkpt>
      <trkpt lat="37.4400048796" lon="-8.7570083421">
        <ele>60.70</ele>
        <time>2021-05-29T09:25:57Z</time>
      </trkpt>
      <trkpt lat="37.4401793908" lon="-8.7571080029">
        <ele>59.74</ele>
        <time>2021-05-29T09:25:58Z</time>
      </trkpt>
      <trkpt lat="37.4403577577" lon="-8.7571767345">
        <ele>60.22</ele>
        <time>2021-05-29T09:25:59Z</time>
      </trkpt>
      <trkpt lat="37.4405409861" lon="-8.7572101783">
        <ele>60.70</ele>
        <time>2021-05-29T09:26:00Z</time>
      </trkpt>
      <trkpt lat="37.4407277349" lon="-8.7572083343">
        <ele>59.74</ele>
        <time>2021-05-29T09:26:01Z</time>
      </trkpt>
      <trkpt lat="37.4409158248" lon="-8.7571743876">
        <ele>61.66</ele>
        <time>2021-05-29T09:26:02Z</time>
      </trkpt>
      <trkpt lat="37.4411070161" lon="-8.7571188156">
        <ele>61.66</ele>
        <time>2021-05-29T09:26:03Z</time>
      </trkpt>
      <trkpt lat="37.4412952736" lon="-8.7570478208">
        <ele>63.10</ele>
        <time>2021-05-29T09:26:04Z</time>
      </trkpt>
      <trkpt lat="37.4414724670" lon="-8.7569609843">
        <ele>62.62</ele>
        <time>2021-05-29T09:26:05Z</time>
      </trkpt>
      <trkpt lat="37.4416411109" lon="-8.7568645924">
        <ele>61.66</ele>
        <time>2021-05-29T09:26:06Z</time>
      </trkpt>
      <trkpt lat="37.4419618864" lon="-8.7567070127">
        <ele>65.03</ele>
        <time>2021-05-29T09:26:08Z</time>
      </trkpt>
      <trkpt lat="37.4421224836" lon="-8.7566736527">
        <ele>65.03</ele>
        <time>2021-05-29T09:26:09Z</time>
      </trkpt>
      <trkpt lat="37.4422878586" lon="-8.7566793524">
        <ele>66.95</ele>
        <time>2021-05-29T09:26:10Z</time>
      </trkpt>
      <trkpt lat="37.4424567539" lon="-8.7567205913">
        <ele>66.95</ele>
        <time>2021-05-29T09:26:11Z</time>
      </trkpt>
      <trkpt lat="37.4426222127" lon="-8.7567911670">
        <ele>69.83</ele>
        <time>2021-05-29T09:26:12Z</time>
      </trkpt>
      <trkpt lat="37.4427821394" lon="-8.7568889838">
        <ele>69.83</ele>
        <time>2021-05-29T09:26:13Z</time>
      </trkpt>
      <trkpt lat="37.4429386295" lon="-8.7570154667">
        <ele>69.83</ele>
        <time>2021-05-29T09:26:14Z</time>
      </trkpt>
      <trkpt lat="37.4430896714" lon="-8.7571704481">
        <ele>69.83</ele>
        <time>2021-05-29T09:26:15Z</time>
      </trkpt>
      <trkpt lat="37.4432278052" lon="-8.7573525030">
        <ele>72.72</ele>
        <time>2021-05-29T09:26:16Z</time>
      </trkpt>
      <trkpt lat="37.4433542881" lon="-8.7575519085">
        <ele>73.20</ele>
        <time>2021-05-29T09:26:17Z</time>
      </trkpt>
      <trkpt lat="37.4434687011" lon="-8.7577498052">
        <ele>73.68</ele>
        <time>2021-05-29T09:26:18Z</time>
      </trkpt>
      <trkpt lat="37.4437179789" lon="-8.7581106462">
        <ele>75.12</ele>
        <time>2021-05-29T09:26:20Z</time>
      </trkpt>
      <trkpt lat="37.4438746367" lon="-8.7582720816">
        <ele>77.52</ele>
        <time>2021-05-29T09:26:21Z</time>
      </trkpt>
      <trkpt lat="37.4442224018" lon="-8.7585824635">
        <ele>79.45</ele>
        <time>2021-05-29T09:26:23Z</time>
      </trkpt>
      <trkpt lat="37.4443943985" lon="-8.7587547116">
        <ele>82.33</ele>
        <time>2021-05-29T09:26:24Z</time>
      </trkpt>
      <trkpt lat="37.4445603602" lon="-8.7589573022">
        <ele>87.62</ele>
        <time>2021-05-29T09:26:25Z</time>
      </trkpt>
      <trkpt lat="37.4447252322" lon="-8.7591910735">
        <ele>89.54</ele>
        <time>2021-05-29T09:26:26Z</time>
      </trkpt>
      <trkpt lat="37.4450699799" lon="-8.7597143557">
        <ele>100.60</ele>
        <time>2021-05-29T09:26:28Z</time>
      </trkpt>
      <trkpt lat="37.4452441558" lon="-8.7599749491">
        <ele>100.60</ele>
        <time>2021-05-29T09:26:29Z</time>
      </trkpt>
      <trkpt lat="37.4454199243" lon="-8.7602266576">
        <ele>94.35</ele>
        <time>2021-05-29T09:26:30Z</time>
      </trkpt>
      <trkpt lat="37.4455946870" lon="-8.7604701519">
        <ele>97.71</ele>
        <time>2021-05-29T09:26:31Z</time>
      </trkpt>
      <trkpt lat="37.4462490622" lon="-8.7612775806">
        <ele>98.67</ele>
        <time>2021-05-29T09:26:35Z</time>
      </trkpt>
      <trkpt lat="37.4464197177" lon="-8.7614159659">
        <ele>97.71</ele>
        <time>2021-05-29T09:26:36Z</time>
      </trkpt>
      <trkpt lat="37.4465945642" lon="-8.7615336478">
        <ele>100.11</ele>
        <time>2021-05-29T09:26:37Z</time>
      </trkpt>
      <trkpt lat="37.4467779603" lon="-8.7616272736">
        <ele>101.56</ele>
        <time>2021-05-29T09:26:38Z</time>
      </trkpt>
      <trkpt lat="37.4469823949" lon="-8.7616853602">
        <ele>99.63</ele>
        <time>2021-05-29T09:26:39Z</time>
      </trkpt>
      <trkpt lat="37.4472037610" lon="-8.7617109250">
        <ele>98.19</ele>
        <time>2021-05-29T09:26:40Z</time>
      </trkpt>
      <trkpt lat="37.4474266358" lon="-8.7616980169">
        <ele>99.15</ele>
        <time>2021-05-29T09:26:41Z</time>
      </trkpt>
      <trkpt lat="37.4476485047" lon="-8.7616540957">
        <ele>97.71</ele>
        <time>2021-05-29T09:26:42Z</time>
      </trkpt>
      <trkpt lat="37.4478765763" lon="-8.7615660857">
        <ele>98.19</ele>
        <time>2021-05-29T09:26:43Z</time>
      </trkpt>
      <trkpt lat="37.4481097609" lon="-8.7614589650">
        <ele>100.11</ele>
        <time>2021-05-29T09:26:44Z</time>
      </trkpt>
      <trkpt lat="37.4488231447" lon="-8.7611171510">
        <ele>104.44</ele>
        <time>2021-05-29T09:26:47Z</time>
      </trkpt>
      <trkpt lat="37.4490682315" lon="-8.7610029057">
        <ele>106.36</ele>
        <time>2021-05-29T09:26:48Z</time>
      </trkpt>
      <trkpt lat="37.4501015525" lon="-8.7605397217">
        <ele>109.73</ele>
        <time>2021-05-29T09:26:52Z</time>
      </trkpt>
      <trkpt lat="37.4527529161" lon="-8.7593660876">
        <ele>110.21</ele>
        <time>2021-05-29T09:27:02Z</time>
      </trkpt>
      <trkpt lat="37.4540210981" lon="-8.7587915082">
        <ele>106.84</ele>
        <time>2021-05-29T09:27:07Z</time>
      </trkpt>
      <trkpt lat="37.4558112212" lon="-8.7580012623">
        <ele>107.81</ele>
        <time>2021-05-29T09:27:14Z</time>
      </trkpt>
      <trkpt lat="37.4581651948" lon="-8.7569513451">
        <ele>111.17</ele>
        <time>2021-05-29T09:27:23Z</time>
      </trkpt>
      <trkpt lat="37.4608308077" lon="-8.7557310238">
        <ele>115.98</ele>
        <time>2021-05-29T09:27:33Z</time>
      </trkpt>
      <trkpt lat="37.4610873777" lon="-8.7555845920">
        <ele>115.50</ele>
        <time>2021-05-29T09:27:34Z</time>
      </trkpt>
      <trkpt lat="37.4615784734" lon="-8.7552731205">
        <ele>112.13</ele>
        <time>2021-05-29T09:27:36Z</time>
      </trkpt>
      <trkpt lat="37.4632665049" lon="-8.7538149208">
        <ele>113.57</ele>
        <time>2021-05-29T09:27:44Z</time>
      </trkpt>
      <trkpt lat="37.4636757094" lon="-8.7534310296">
        <ele>111.17</ele>
        <time>2021-05-29T09:27:46Z</time>
      </trkpt>
      <trkpt lat="37.4645234551" lon="-8.7526449747">
        <ele>109.73</ele>
        <time>2021-05-29T09:27:50Z</time>
      </trkpt>
      <trkpt lat="37.4661534838" lon="-8.7511438597">
        <ele>112.61</ele>
        <time>2021-05-29T09:27:59Z</time>
      </trkpt>
      <trkpt lat="37.4669994693" lon="-8.7503647618">
        <ele>114.53</ele>
        <time>2021-05-29T09:28:04Z</time>
      </trkpt>
      <trkpt lat="37.4681091495" lon="-8.7493506353">
        <ele>117.90</ele>
        <time>2021-05-29T09:28:10Z</time>
      </trkpt>
      <trkpt lat="37.4683013465" lon="-8.7491752021">
        <ele>117.90</ele>
        <time>2021-05-29T09:28:11Z</time>
      </trkpt>
      <trkpt lat="37.4688864034" lon="-8.7486397661">
        <ele>121.74</ele>
        <time>2021-05-29T09:28:14Z</time>
      </trkpt>
      <trkpt lat="37.4692848790" lon="-8.7482730579">
        <ele>123.19</ele>
        <time>2021-05-29T09:28:16Z</time>
      </trkpt>
      <trkpt lat="37.4696889706" lon="-8.7478997279">
        <ele>127.99</ele>
        <time>2021-05-29T09:28:18Z</time>
      </trkpt>
      <trkpt lat="37.4704852514" lon="-8.7471667305">
        <ele>129.92</ele>
        <time>2021-05-29T09:28:22Z</time>
      </trkpt>
      <trkpt lat="37.4719283637" lon="-8.7458425574">
        <ele>133.76</ele>
        <time>2021-05-29T09:28:30Z</time>
      </trkpt>
      <trkpt lat="37.4721036293" lon="-8.7456785236">
        <ele>133.28</ele>
        <time>2021-05-29T09:28:31Z</time>
      </trkpt>
      <trkpt lat="37.4738417845" lon="-8.7440088484">
        <ele>131.36</ele>
        <time>2021-05-29T09:28:41Z</time>
      </trkpt>
      <trkpt lat="37.4745476246" lon="-8.7427761219">
        <ele>133.76</ele>
        <time>2021-05-29T09:28:47Z</time>
      </trkpt>
      <trkpt lat="37.4746504705" lon="-8.7425110862">
        <ele>133.76</ele>
        <time>2021-05-29T09:28:48Z</time>
      </trkpt>
      <trkpt lat="37.4748569168" lon="-8.7419444695">
        <ele>139.05</ele>
        <time>2021-05-29T09:28:50Z</time>
      </trkpt>
      <trkpt lat="37.4749625288" lon="-8.7416597363">
        <ele>139.05</ele>
        <time>2021-05-29T09:28:51Z</time>
      </trkpt>
      <trkpt lat="37.4755553808" lon="-8.7399476487">
        <ele>143.37</ele>
        <time>2021-05-29T09:28:57Z</time>
      </trkpt>
      <trkpt lat="37.4757591449" lon="-8.7393527851">
        <ele>147.22</ele>
        <time>2021-05-29T09:28:59Z</time>
      </trkpt>
      <trkpt lat="37.4761899747" lon="-8.7381306197">
        <ele>150.58</ele>
        <time>2021-05-29T09:29:03Z</time>
      </trkpt>
      <trkpt lat="37.4764153641" lon="-8.7375051621">
        <ele>154.91</ele>
        <time>2021-05-29T09:29:05Z</time>
      </trkpt>
      <trkpt lat="37.4765269272" lon="-8.7371905055">
        <ele>154.91</ele>
        <time>2021-05-29T09:29:06Z</time>
      </trkpt>
      <trkpt lat="37.4769680668" lon="-8.7359292805">
        <ele>159.24</ele>
        <time>2021-05-29T09:29:10Z</time>
      </trkpt>
      <trkpt lat="37.4770792946" lon="-8.7356214132">
        <ele>159.24</ele>
        <time>2021-05-29T09:29:11Z</time>
      </trkpt>
      <trkpt lat="37.4778355099" lon="-8.7335059885">
        <ele>161.16</ele>
        <time>2021-05-29T09:29:18Z</time>
      </trkpt>
      <trkpt lat="37.4784929026" lon="-8.7316799909">
        <ele>163.08</ele>
        <time>2021-05-29T09:29:24Z</time>
      </trkpt>
      <trkpt lat="37.4788293522" lon="-8.7307460792">
        <ele>167.41</ele>
        <time>2021-05-29T09:29:27Z</time>
      </trkpt>
      <trkpt lat="37.4795537163" lon="-8.7287138030">
        <ele>172.69</ele>
        <time>2021-05-29T09:29:34Z</time>
      </trkpt>
      <trkpt lat="37.4796555564" lon="-8.7284320034">
        <ele>172.69</ele>
        <time>2021-05-29T09:29:35Z</time>
      </trkpt>
      <trkpt lat="37.4801353365" lon="-8.7270753924">
        <ele>177.02</ele>
        <time>2021-05-29T09:29:40Z</time>
      </trkpt>
      <trkpt lat="37.4802319799" lon="-8.7268029805">
        <ele>176.54</ele>
        <time>2021-05-29T09:29:41Z</time>
      </trkpt>
      <trkpt lat="37.4806198943" lon="-8.7257012632">
        <ele>178.46</ele>
        <time>2021-05-29T09:29:45Z</time>
      </trkpt>
      <trkpt lat="37.4816605914" lon="-8.7227655016">
        <ele>175.58</ele>
        <time>2021-05-29T09:29:56Z</time>
      </trkpt>
      <trkpt lat="37.4817566480" lon="-8.7225488294">
        <ele>175.10</ele>
        <time>2021-05-29T09:29:57Z</time>
      </trkpt>
      <trkpt lat="37.4818724021" lon="-8.7223496754">
        <ele>175.58</ele>
        <time>2021-05-29T09:29:58Z</time>
      </trkpt>
      <trkpt lat="37.4820096139" lon="-8.7221693806">
        <ele>176.54</ele>
        <time>2021-05-29T09:29:59Z</time>
      </trkpt>
      <trkpt lat="37.4821637571" lon="-8.7220144831">
        <ele>176.06</ele>
        <time>2021-05-29T09:30:00Z</time>
      </trkpt>
      <trkpt lat="37.4823340774" lon="-8.7218859047">
        <ele>175.58</ele>
        <time>2021-05-29T09:30:01Z</time>
      </trkpt>
      <trkpt lat="37.4825209938" lon="-8.7217855733">
        <ele>174.62</ele>
        <time>2021-05-29T09:30:02Z</time>
      </trkpt>
      <trkpt lat="37.4827183876" lon="-8.7217163388">
        <ele>174.14</ele>
        <time>2021-05-29T09:30:03Z</time>
      </trkpt>
      <trkpt lat="37.4829286896" lon="-8.7216808833">
        <ele>173.66</ele>
        <time>2021-05-29T09:30:04Z</time>
      </trkpt>
      <trkpt lat="37.4831429310" lon="-8.7216798775">
        <ele>172.21</ele>
        <time>2021-05-29T09:30:05Z</time>
      </trkpt>
      <trkpt lat="37.4833476171" lon="-8.7216987368">
        <ele>170.29</ele>
        <time>2021-05-29T09:30:06Z</time>
      </trkpt>
      <trkpt lat="37.4839226995" lon="-8.7216807157">
        <ele>165.48</ele>
        <time>2021-05-29T09:30:09Z</time>
      </trkpt>
      <trkpt lat="37.4844456464" lon="-8.7215607706">
        <ele>162.60</ele>
        <time>2021-05-29T09:30:12Z</time>
      </trkpt>
      <trkpt lat="37.4846179783" lon="-8.7215730082">
        <ele>161.64</ele>
        <time>2021-05-29T09:30:13Z</time>
      </trkpt>
      <trkpt lat="37.4847951718" lon="-8.7216320168">
        <ele>161.64</ele>
        <time>2021-05-29T09:30:14Z</time>
      </trkpt>
      <trkpt lat="37.4849729519" lon="-8.7217342760">
        <ele>161.16</ele>
        <time>2021-05-29T09:30:15Z</time>
      </trkpt>
      <trkpt lat="37.4851547554" lon="-8.7218662910">
        <ele>160.68</ele>
        <time>2021-05-29T09:30:16Z</time>
      </trkpt>
      <trkpt lat="37.4858981464" lon="-8.7224452291">
        <ele>156.83</ele>
        <time>2021-05-29T09:30:20Z</time>
      </trkpt>
      <trkpt lat="37.4864231888" lon="-8.7228305452">
        <ele>152.51</ele>
        <time>2021-05-29T09:30:23Z</time>
      </trkpt>
      <trkpt lat="37.4865991250" lon="-8.7229307089">
        <ele>151.06</ele>
        <time>2021-05-29T09:30:24Z</time>
      </trkpt>
      <trkpt lat="37.4867836945" lon="-8.7230032124">
        <ele>150.58</ele>
        <time>2021-05-29T09:30:25Z</time>
      </trkpt>
      <trkpt lat="37.4869773164" lon="-8.7230480555">
        <ele>150.58</ele>
        <time>2021-05-29T09:30:26Z</time>
      </trkpt>
      <trkpt lat="37.4871760514" lon="-8.7230671663">
        <ele>149.62</ele>
        <time>2021-05-29T09:30:27Z</time>
      </trkpt>
      <trkpt lat="37.4873800669" lon="-8.7230599578">
        <ele>148.18</ele>
        <time>2021-05-29T09:30:28Z</time>
      </trkpt>
      <trkpt lat="37.4875917938" lon="-8.7230234966">
        <ele>149.14</ele>
        <time>2021-05-29T09:30:29Z</time>
      </trkpt>
      <trkpt lat="37.4878031015" lon="-8.7229667511">
        <ele>148.66</ele>
        <time>2021-05-29T09:30:30Z</time>
      </trkpt>
      <trkpt lat="37.4894766323" lon="-8.7223720551">
        <ele>150.10</ele>
        <time>2021-05-29T09:30:38Z</time>
      </trkpt>
      <trkpt lat="37.4907511845" lon="-8.7219484337">
        <ele>153.95</ele>
        <time>2021-05-29T09:30:46Z</time>
      </trkpt>
      <trkpt lat="37.4909163080" lon="-8.7218983099">
        <ele>157.31</ele>
        <time>2021-05-29T09:30:47Z</time>
      </trkpt>
      <trkpt lat="37.4914602097" lon="-8.7216997426">
        <ele>160.20</ele>
        <time>2021-05-29T09:30:50Z</time>
      </trkpt>
      <trkpt lat="37.4918534886" lon="-8.7215698231">
        <ele>163.56</ele>
        <time>2021-05-29T09:30:52Z</time>
      </trkpt>
      <trkpt lat="37.4920469429" lon="-8.7215077132">
        <ele>163.08</ele>
        <time>2021-05-29T09:30:53Z</time>
      </trkpt>
      <trkpt lat="37.4926451594" lon="-8.7213240657">
        <ele>166.45</ele>
        <time>2021-05-29T09:30:56Z</time>
      </trkpt>
      <trkpt lat="37.4928639270" lon="-8.7212857604">
        <ele>168.37</ele>
        <time>2021-05-29T09:30:57Z</time>
      </trkpt>
      <trkpt lat="37.4930918310" lon="-8.7212747801">
        <ele>170.77</ele>
        <time>2021-05-29T09:30:58Z</time>
      </trkpt>
      <trkpt lat="37.4933182262" lon="-8.7212878559">
        <ele>170.77</ele>
        <time>2021-05-29T09:30:59Z</time>
      </trkpt>
      <trkpt lat="37.4937800691" lon="-8.7213366386">
        <ele>174.62</ele>
        <time>2021-05-29T09:31:01Z</time>
      </trkpt>
      <trkpt lat="37.4946669582" lon="-8.7213934679">
        <ele>177.50</ele>
        <time>2021-05-29T09:31:05Z</time>
      </trkpt>
      <trkpt lat="37.4948828761" lon="-8.7213584315">
        <ele>177.98</ele>
        <time>2021-05-29T09:31:06Z</time>
      </trkpt>
      <trkpt lat="37.4950883165" lon="-8.7212976627">
        <ele>178.94</ele>
        <time>2021-05-29T09:31:07Z</time>
      </trkpt>
      <trkpt lat="37.4952779151" lon="-8.7212175317">
        <ele>177.98</ele>
        <time>2021-05-29T09:31:08Z</time>
      </trkpt>
      <trkpt lat="37.4954562820" lon="-8.7211108301">
        <ele>178.46</ele>
        <time>2021-05-29T09:31:09Z</time>
      </trkpt>
      <trkpt lat="37.4956284463" lon="-8.7209694274">
        <ele>178.46</ele>
        <time>2021-05-29T09:31:10Z</time>
      </trkpt>
      <trkpt lat="37.4957970064" lon="-8.7208030466">
        <ele>179.90</ele>
        <time>2021-05-29T09:31:11Z</time>
      </trkpt>
      <trkpt lat="37.4959680811" lon="-8.7206275295">
        <ele>181.35</ele>
        <time>2021-05-29T09:31:12Z</time>
      </trkpt>
      <trkpt lat="37.4967100471" lon="-8.7199827097">
        <ele>186.15</ele>
        <time>2021-05-29T09:31:16Z</time>
      </trkpt>
      <trkpt lat="37.4969226122" lon="-8.7198597472">
        <ele>185.67</ele>
        <time>2021-05-29T09:31:17Z</time>
      </trkpt>
      <trkpt lat="37.4973905738" lon="-8.7196422368">
        <ele>189.04</ele>
        <time>2021-05-29T09:31:19Z</time>
      </trkpt>
      <trkpt lat="37.4978777301" lon="-8.7194171827">
        <ele>193.84</ele>
        <time>2021-05-29T09:31:21Z</time>
      </trkpt>
      <trkpt lat="37.4983630423" lon="-8.7191803940">
        <ele>197.21</ele>
        <time>2021-05-29T09:31:23Z</time>
      </trkpt>
      <trkpt lat="37.4991145637" lon="-8.7188120931">
        <ele>199.13</ele>
        <time>2021-05-29T09:31:26Z</time>
      </trkpt>
      <trkpt lat="37.4998285342" lon="-8.7184648309">
        <ele>201.53</ele>
        <time>2021-05-29T09:31:29Z</time>
      </trkpt>
      <trkpt lat="37.5009199418" lon="-8.7180748209">
        <ele>204.42</ele>
        <time>2021-05-29T09:31:34Z</time>
      </trkpt>
      <trkpt lat="37.5011465885" lon="-8.7180651817">
        <ele>205.86</ele>
        <time>2021-05-29T09:31:35Z</time>
      </trkpt>
      <trkpt lat="37.5013720617" lon="-8.7180878967">
        <ele>206.82</ele>
        <time>2021-05-29T09:31:36Z</time>
      </trkpt>
      <trkpt lat="37.5015892368" lon="-8.7181438878">
        <ele>207.30</ele>
        <time>2021-05-29T09:31:37Z</time>
      </trkpt>
      <trkpt lat="37.5017961022" lon="-8.7182339095">
        <ele>207.30</ele>
        <time>2021-05-29T09:31:38Z</time>
      </trkpt>
      <trkpt lat="37.5019922387" lon="-8.7183559500">
        <ele>206.82</ele>
        <time>2021-05-29T09:31:39Z</time>
      </trkpt>
      <trkpt lat="37.5021809991" lon="-8.7185041420">
        <ele>207.78</ele>
        <time>2021-05-29T09:31:40Z</time>
      </trkpt>
      <trkpt lat="37.5023632217" lon="-8.7186685111">
        <ele>209.22</ele>
        <time>2021-05-29T09:31:41Z</time>
      </trkpt>
      <trkpt lat="37.5025419239" lon="-8.7188353948">
        <ele>211.63</ele>
        <time>2021-05-29T09:31:42Z</time>
      </trkpt>
      <trkpt lat="37.5035249535" lon="-8.7195875030">
        <ele>214.99</ele>
        <time>2021-05-29T09:31:48Z</time>
      </trkpt>
      <trkpt lat="37.5036775041" lon="-8.7197247148">
        <ele>212.59</ele>
        <time>2021-05-29T09:31:49Z</time>
      </trkpt>
      <trkpt lat="37.5038177334" lon="-8.7198858149">
        <ele>213.55</ele>
        <time>2021-05-29T09:31:50Z</time>
      </trkpt>
      <trkpt lat="37.5039395224" lon="-8.7200612482">
        <ele>213.07</ele>
        <time>2021-05-29T09:31:51Z</time>
      </trkpt>
      <trkpt lat="37.5041496567" lon="-8.7203985360">
        <ele>209.70</ele>
        <time>2021-05-29T09:31:53Z</time>
      </trkpt>
      <trkpt lat="37.5042643212" lon="-8.7205402739">
        <ele>209.70</ele>
        <time>2021-05-29T09:31:54Z</time>
      </trkpt>
      <trkpt lat="37.5043934863" lon="-8.7206473108">
        <ele>208.74</ele>
        <time>2021-05-29T09:31:55Z</time>
      </trkpt>
      <trkpt lat="37.5045312010" lon="-8.7207255140">
        <ele>208.26</ele>
        <time>2021-05-29T09:31:56Z</time>
      </trkpt>
      <trkpt lat="37.5046759564" lon="-8.7207698543">
        <ele>207.78</ele>
        <time>2021-05-29T09:31:57Z</time>
      </trkpt>
      <trkpt lat="37.5048261601" lon="-8.7207756378">
        <ele>206.82</ele>
        <time>2021-05-29T09:31:58Z</time>
      </trkpt>
      <trkpt lat="37.5049741007" lon="-8.7207437027">
        <ele>205.86</ele>
        <time>2021-05-29T09:31:59Z</time>
      </trkpt>
      <trkpt lat="37.5051180180" lon="-8.7206744682">
        <ele>205.38</ele>
        <time>2021-05-29T09:32:00Z</time>
      </trkpt>
      <trkpt lat="37.5052616838" lon="-8.7205576245">
        <ele>206.34</ele>
        <time>2021-05-29T09:32:01Z</time>
      </trkpt>
      <trkpt lat="37.5054004043" lon="-8.7203880586">
        <ele>206.34</ele>
        <time>2021-05-29T09:32:02Z</time>
      </trkpt>
      <trkpt lat="37.5055244565" lon="-8.7202005554">
        <ele>205.86</ele>
        <time>2021-05-29T09:32:03Z</time>
      </trkpt>
      <trkpt lat="37.5057676155" lon="-8.7198978011">
        <ele>203.46</ele>
        <time>2021-05-29T09:32:05Z</time>
      </trkpt>
      <trkpt lat="37.5059082638" lon="-8.7197895069">
        <ele>201.53</ele>
        <time>2021-05-29T09:32:06Z</time>
      </trkpt>
      <trkpt lat="37.5060653407" lon="-8.7197150756">
        <ele>202.98</ele>
        <time>2021-05-29T09:32:07Z</time>
      </trkpt>
      <trkpt lat="37.5062371697" lon="-8.7196790334">
        <ele>202.98</ele>
        <time>2021-05-29T09:32:08Z</time>
      </trkpt>
      <trkpt lat="37.5064214878" lon="-8.7196764350">
        <ele>202.49</ele>
        <time>2021-05-29T09:32:09Z</time>
      </trkpt>
      <trkpt lat="37.5066160318" lon="-8.7196933664">
        <ele>203.46</ele>
        <time>2021-05-29T09:32:10Z</time>
      </trkpt>
      <trkpt lat="37.5070246495" lon="-8.7197530456">
        <ele>203.94</ele>
        <time>2021-05-29T09:32:12Z</time>
      </trkpt>
      <trkpt lat="37.5074183475" lon="-8.7198128924">
        <ele>198.65</ele>
        <time>2021-05-29T09:32:14Z</time>
      </trkpt>
      <trkpt lat="37.5077550486" lon="-8.7198284827">
        <ele>195.77</ele>
        <time>2021-05-29T09:32:16Z</time>
      </trkpt>
      <trkpt lat="37.5079050846" lon="-8.7198044267">
        <ele>194.80</ele>
        <time>2021-05-29T09:32:17Z</time>
      </trkpt>
      <trkpt lat="37.5080491696" lon="-8.7197525427">
        <ele>196.25</ele>
        <time>2021-05-29T09:32:18Z</time>
      </trkpt>
      <trkpt lat="37.5081909075" lon="-8.7196682207">
        <ele>196.25</ele>
        <time>2021-05-29T09:32:19Z</time>
      </trkpt>
      <trkpt lat="37.5083340704" lon="-8.7195436656">
        <ele>196.25</ele>
        <time>2021-05-29T09:32:20Z</time>
      </trkpt>
      <trkpt lat="37.5084717851" lon="-8.7193815596">
        <ele>197.21</ele>
        <time>2021-05-29T09:32:21Z</time>
      </trkpt>
      <trkpt lat="37.5086008664" lon="-8.7191956490">
        <ele>198.17</ele>
        <time>2021-05-29T09:32:22Z</time>
      </trkpt>
      <trkpt lat="37.5087248348" lon="-8.7190087326">
        <ele>197.69</ele>
        <time>2021-05-29T09:32:23Z</time>
      </trkpt>
      <trkpt lat="37.5095345266" lon="-8.7180386949">
        <ele>194.80</ele>
        <time>2021-05-29T09:32:29Z</time>
      </trkpt>
      <trkpt lat="37.5096634403" lon="-8.7179090269">
        <ele>194.80</ele>
        <time>2021-05-29T09:32:30Z</time>
      </trkpt>
      <trkpt lat="37.5098772626" lon="-8.7176921871">
        <ele>191.92</ele>
        <time>2021-05-29T09:32:32Z</time>
      </trkpt>
      <trkpt lat="37.5100371893" lon="-8.7175236270">
        <ele>188.56</ele>
        <time>2021-05-29T09:32:34Z</time>
      </trkpt>
      <trkpt lat="37.5100972038" lon="-8.7174475193">
        <ele>188.08</ele>
        <time>2021-05-29T09:32:35Z</time>
      </trkpt>
      <trkpt lat="37.5101463217" lon="-8.7173703220">
        <ele>187.11</ele>
        <time>2021-05-29T09:32:36Z</time>
      </trkpt>
      <trkpt lat="37.5101988763" lon="-8.7172956392">
        <ele>187.11</ele>
        <time>2021-05-29T09:32:37Z</time>
      </trkpt>
      <trkpt lat="37.5102703739" lon="-8.7172298413">
        <ele>187.11</ele>
        <time>2021-05-29T09:32:38Z</time>
      </trkpt>
      <trkpt lat="37.5103638321" lon="-8.7171710841">
        <ele>187.11</ele>
        <time>2021-05-29T09:32:39Z</time>
      </trkpt>
      <trkpt lat="37.5104709528" lon="-8.7170991674">
        <ele>188.08</ele>
        <time>2021-05-29T09:32:40Z</time>
      </trkpt>
      <trkpt lat="37.5105804205" lon="-8.7170017697">
        <ele>188.56</ele>
        <time>2021-05-29T09:32:41Z</time>
      </trkpt>
      <trkpt lat="37.5106884632" lon="-8.7168915477">
        <ele>188.08</ele>
        <time>2021-05-29T09:32:42Z</time>
      </trkpt>
      <trkpt lat="37.5115311798" lon="-8.7156212702">
        <ele>188.08</ele>
        <time>2021-05-29T09:32:51Z</time>
      </trkpt>
      <trkpt lat="37.5120494328" lon="-8.7141328957">
        <ele>184.71</ele>
        <time>2021-05-29T09:32:58Z</time>
      </trkpt>
      <trkpt lat="37.5121329166" lon="-8.7138847075">
        <ele>184.23</ele>
        <time>2021-05-29T09:32:59Z</time>
      </trkpt>
      <trkpt lat="37.5124622416" lon="-8.7129544839">
        <ele>182.31</ele>
        <time>2021-05-29T09:33:03Z</time>
      </trkpt>
      <trkpt lat="37.5126442127" lon="-8.7125449441">
        <ele>179.90</ele>
        <time>2021-05-29T09:33:05Z</time>
      </trkpt>
      <trkpt lat="37.5127522554" lon="-8.7123713549">
        <ele>178.46</ele>
        <time>2021-05-29T09:33:06Z</time>
      </trkpt>
      <trkpt lat="37.5128697697" lon="-8.7122163735">
        <ele>177.02</ele>
        <time>2021-05-29T09:33:07Z</time>
      </trkpt>
      <trkpt lat="37.5129965879" lon="-8.7120763958">
        <ele>176.06</ele>
        <time>2021-05-29T09:33:08Z</time>
      </trkpt>
      <trkpt lat="37.5131364819" lon="-8.7119463086">
        <ele>175.58</ele>
        <time>2021-05-29T09:33:09Z</time>
      </trkpt>
      <trkpt lat="37.5132889487" lon="-8.7118259445">
        <ele>174.62</ele>
        <time>2021-05-29T09:33:10Z</time>
      </trkpt>
      <trkpt lat="37.5134393200" lon="-8.7117151357">
        <ele>173.17</ele>
        <time>2021-05-29T09:33:11Z</time>
      </trkpt>
      <trkpt lat="37.5137155037" lon="-8.7115172390">
        <ele>168.85</ele>
        <time>2021-05-29T09:33:13Z</time>
      </trkpt>
      <trkpt lat="37.5140303280" lon="-8.7112960406">
        <ele>165.48</ele>
        <time>2021-05-29T09:33:16Z</time>
      </trkpt>
      <trkpt lat="37.5142270513" lon="-8.7111572362">
        <ele>162.12</ele>
        <time>2021-05-29T09:33:19Z</time>
      </trkpt>
      <trkpt lat="37.5143922586" lon="-8.7110515404">
        <ele>160.68</ele>
        <time>2021-05-29T09:33:27Z</time>
      </trkpt>
      <trkpt lat="37.5145204179" lon="-8.7109634466">
        <ele>161.64</ele>
        <time>2021-05-29T09:33:49Z</time>
      </trkpt>
      <trkpt lat="37.5152292755" lon="-8.7104178686">
        <ele>162.12</ele>
        <time>2021-05-29T09:33:56Z</time>
      </trkpt>
      <trkpt lat="37.5158692338" lon="-8.7099448778">
        <ele>158.75</ele>
        <time>2021-05-29T09:34:01Z</time>
      </trkpt>
      <trkpt lat="37.5163418893" lon="-8.7095887307">
        <ele>156.35</ele>
        <time>2021-05-29T09:34:05Z</time>
      </trkpt>
      <trkpt lat="37.5168982800" lon="-8.7090686336">
        <ele>154.43</ele>
        <time>2021-05-29T09:34:10Z</time>
      </trkpt>
      <trkpt lat="37.5171722844" lon="-8.7086364627">
        <ele>152.51</ele>
        <time>2021-05-29T09:34:14Z</time>
      </trkpt>
      <trkpt lat="37.5172104221" lon="-8.7085412443">
        <ele>151.54</ele>
        <time>2021-05-29T09:34:15Z</time>
      </trkpt>
      <trkpt lat="37.5172254257" lon="-8.7084509712">
        <ele>151.54</ele>
        <time>2021-05-29T09:34:16Z</time>
      </trkpt>
      <trkpt lat="37.5172412675" lon="-8.7083691638">
        <ele>151.54</ele>
        <time>2021-05-29T09:34:17Z</time>
      </trkpt>
      <trkpt lat="37.5172754657" lon="-8.7083100714">
        <ele>152.03</ele>
        <time>2021-05-29T09:34:18Z</time>
      </trkpt>
      <trkpt lat="37.5173250865" lon="-8.7082740292">
        <ele>151.06</ele>
        <time>2021-05-29T09:34:19Z</time>
      </trkpt>
      <trkpt lat="37.5173835084" lon="-8.7082374841">
        <ele>151.54</ele>
        <time>2021-05-29T09:34:20Z</time>
      </trkpt>
      <trkpt lat="37.5174490549" lon="-8.7081755418">
        <ele>152.03</ele>
        <time>2021-05-29T09:34:21Z</time>
      </trkpt>
      <trkpt lat="37.5175229833" lon="-8.7080810778">
        <ele>152.99</ele>
        <time>2021-05-29T09:34:22Z</time>
      </trkpt>
      <trkpt lat="37.5175994262" lon="-8.7079667486">
        <ele>153.95</ele>
        <time>2021-05-29T09:34:23Z</time>
      </trkpt>
      <trkpt lat="37.5176788028" lon="-8.7078415230">
        <ele>153.47</ele>
        <time>2021-05-29T09:34:24Z</time>
      </trkpt>
      <trkpt lat="37.5178658869" lon="-8.7075396907">
        <ele>157.31</ele>
        <time>2021-05-29T09:34:26Z</time>
      </trkpt>
      <trkpt lat="37.5179740973" lon="-8.7073620781">
        <ele>156.83</ele>
        <time>2021-05-29T09:34:27Z</time>
      </trkpt>
      <trkpt lat="37.5184348505" lon="-8.7066130713">
        <ele>161.64</ele>
        <time>2021-05-29T09:34:31Z</time>
      </trkpt>
      <trkpt lat="37.5186910853" lon="-8.7061995082">
        <ele>165.00</ele>
        <time>2021-05-29T09:34:33Z</time>
      </trkpt>
      <trkpt lat="37.5188246090" lon="-8.7059820816">
        <ele>165.00</ele>
        <time>2021-05-29T09:34:34Z</time>
      </trkpt>
      <trkpt lat="37.5194964185" lon="-8.7048888300">
        <ele>168.85</ele>
        <time>2021-05-29T09:34:39Z</time>
      </trkpt>
      <trkpt lat="37.5196308643" lon="-8.7046705652">
        <ele>168.85</ele>
        <time>2021-05-29T09:34:40Z</time>
      </trkpt>
      <trkpt lat="37.5198955648" lon="-8.7042362988">
        <ele>171.73</ele>
        <time>2021-05-29T09:34:42Z</time>
      </trkpt>
      <trkpt lat="37.5206501875" lon="-8.7030073442">
        <ele>175.10</ele>
        <time>2021-05-29T09:34:48Z</time>
      </trkpt>
      <trkpt lat="37.5214820076" lon="-8.7017544173">
        <ele>177.50</ele>
        <time>2021-05-29T09:34:55Z</time>
      </trkpt>
      <trkpt lat="37.5216314569" lon="-8.7016006093">
        <ele>177.98</ele>
        <time>2021-05-29T09:34:56Z</time>
      </trkpt>
      <trkpt lat="37.5217914674" lon="-8.7014592905">
        <ele>178.46</ele>
        <time>2021-05-29T09:34:57Z</time>
      </trkpt>
      <trkpt lat="37.5219655596" lon="-8.7013319694">
        <ele>177.98</ele>
        <time>2021-05-29T09:34:58Z</time>
      </trkpt>
      <trkpt lat="37.5221535657" lon="-8.7012195680">
        <ele>178.46</ele>
        <time>2021-05-29T09:34:59Z</time>
      </trkpt>
      <trkpt lat="37.5223472714" lon="-8.7011256907">
        <ele>178.46</ele>
        <time>2021-05-29T09:35:00Z</time>
      </trkpt>
      <trkpt lat="37.5225486048" lon="-8.7010469008">
        <ele>178.94</ele>
        <time>2021-05-29T09:35:01Z</time>
      </trkpt>
      <trkpt lat="37.5247950386" lon="-8.7003007438">
        <ele>179.42</ele>
        <time>2021-05-29T09:35:12Z</time>
      </trkpt>
      <trkpt lat="37.5268954597" lon="-8.6998401582">
        <ele>181.83</ele>
        <time>2021-05-29T09:35:22Z</time>
      </trkpt>
      <trkpt lat="37.5271005649" lon="-8.6998672318">
        <ele>181.83</ele>
        <time>2021-05-29T09:35:23Z</time>
      </trkpt>
      <trkpt lat="37.5276648346" lon="-8.6999249831">
        <ele>182.31</ele>
        <time>2021-05-29T09:35:26Z</time>
      </trkpt>
      <trkpt lat="37.5278457161" lon="-8.6998922937">
        <ele>183.75</ele>
        <time>2021-05-29T09:35:27Z</time>
      </trkpt>
      <trkpt lat="37.5280271843" lon="-8.6998261604">
        <ele>184.71</ele>
        <time>2021-05-29T09:35:28Z</time>
      </trkpt>
      <trkpt lat="37.5284030288" lon="-8.6996500567">
        <ele>188.56</ele>
        <time>2021-05-29T09:35:30Z</time>
      </trkpt>
      <trkpt lat="37.5289937854" lon="-8.6994506512">
        <ele>191.92</ele>
        <time>2021-05-29T09:35:33Z</time>
      </trkpt>
      <trkpt lat="37.5295696221" lon="-8.6993271858">
        <ele>193.36</ele>
        <time>2021-05-29T09:35:36Z</time>
      </trkpt>
      <trkpt lat="37.5297401939" lon="-8.6992670037">
        <ele>193.84</ele>
        <time>2021-05-29T09:35:37Z</time>
      </trkpt>
      <trkpt lat="37.5298979413" lon="-8.6991794966">
        <ele>193.84</ele>
        <time>2021-05-29T09:35:38Z</time>
      </trkpt>
      <trkpt lat="37.5300417747" lon="-8.6990614794">
        <ele>194.32</ele>
        <time>2021-05-29T09:35:39Z</time>
      </trkpt>
      <trkpt lat="37.5301685091" lon="-8.6989130359">
        <ele>194.80</ele>
        <time>2021-05-29T09:35:40Z</time>
      </trkpt>
      <trkpt lat="37.5302766357" lon="-8.6987331603">
        <ele>194.80</ele>
        <time>2021-05-29T09:35:41Z</time>
      </trkpt>
      <trkpt lat="37.5303631369" lon="-8.6985254567">
        <ele>195.28</ele>
        <time>2021-05-29T09:35:42Z</time>
      </trkpt>
      <trkpt lat="37.5304371491" lon="-8.6982987262">
        <ele>195.28</ele>
        <time>2021-05-29T09:35:43Z</time>
      </trkpt>
      <trkpt lat="37.5308243092" lon="-8.6974179558">
        <ele>191.92</ele>
        <time>2021-05-29T09:35:47Z</time>
      </trkpt>
      <trkpt lat="37.5310300849" lon="-8.6970268562">
        <ele>188.56</ele>
        <time>2021-05-29T09:35:49Z</time>
      </trkpt>
      <trkpt lat="37.5311107188" lon="-8.6968277860">
        <ele>187.11</ele>
        <time>2021-05-29T09:35:50Z</time>
      </trkpt>
      <trkpt lat="37.5311717391" lon="-8.6966185737">
        <ele>185.67</ele>
        <time>2021-05-29T09:35:51Z</time>
      </trkpt>
      <trkpt lat="37.5312162470" lon="-8.6964029074">
        <ele>184.71</ele>
        <time>2021-05-29T09:35:52Z</time>
      </trkpt>
      <trkpt lat="37.5312611740" lon="-8.6961928569">
        <ele>183.75</ele>
        <time>2021-05-29T09:35:53Z</time>
      </trkpt>
      <trkpt lat="37.5313201826" lon="-8.6959973071">
        <ele>183.27</ele>
        <time>2021-05-29T09:35:54Z</time>
      </trkpt>
      <trkpt lat="37.5314062648" lon="-8.6958297528">
        <ele>182.79</ele>
        <time>2021-05-29T09:35:55Z</time>
      </trkpt>
      <trkpt lat="37.5315223541" lon="-8.6956930440">
        <ele>181.35</ele>
        <time>2021-05-29T09:35:56Z</time>
      </trkpt>
      <trkpt lat="37.5316505134" lon="-8.6955764517">
        <ele>179.90</ele>
        <time>2021-05-29T09:35:57Z</time>
      </trkpt>
      <trkpt lat="37.5318997074" lon="-8.6953785550">
        <ele>177.02</ele>
        <time>2021-05-29T09:35:59Z</time>
      </trkpt>
      <trkpt lat="37.5320308842" lon="-8.6953034531">
        <ele>175.58</ele>
        <time>2021-05-29T09:36:00Z</time>
      </trkpt>
      <trkpt lat="37.5321789924" lon="-8.6952553410">
        <ele>175.58</ele>
        <time>2021-05-29T09:36:01Z</time>
      </trkpt>
      <trkpt lat="37.5323456246" lon="-8.6952358950">
        <ele>175.58</ele>
        <time>2021-05-29T09:36:02Z</time>
      </trkpt>
      <trkpt lat="37.5326897856" lon="-8.6952044629">
        <ele>175.10</ele>
        <time>2021-05-29T09:36:04Z</time>
      </trkpt>
      <trkpt lat="37.5328589324" lon="-8.6951513216">
        <ele>174.14</ele>
        <time>2021-05-29T09:36:05Z</time>
      </trkpt>
      <trkpt lat="37.5330207869" lon="-8.6950632278">
        <ele>173.17</ele>
        <time>2021-05-29T09:36:06Z</time>
      </trkpt>
      <trkpt lat="37.5331684761" lon="-8.6949455459">
        <ele>172.69</ele>
        <time>2021-05-29T09:36:07Z</time>
      </trkpt>
      <trkpt lat="37.5333066937" lon="-8.6947975215">
        <ele>173.17</ele>
        <time>2021-05-29T09:36:08Z</time>
      </trkpt>
      <trkpt lat="37.5334476773" lon="-8.6946208309">
        <ele>173.66</ele>
        <time>2021-05-29T09:36:09Z</time>
      </trkpt>
      <trkpt lat="37.5339015573" lon="-8.6940259673">
        <ele>176.54</ele>
        <time>2021-05-29T09:36:12Z</time>
      </trkpt>
      <trkpt lat="37.5343849417" lon="-8.6934094783">
        <ele>179.42</ele>
        <time>2021-05-29T09:36:15Z</time>
      </trkpt>
      <trkpt lat="37.5345545076" lon="-8.6931973323">
        <ele>179.42</ele>
        <time>2021-05-29T09:36:16Z</time>
      </trkpt>
      <trkpt lat="37.5354205258" lon="-8.6922412086">
        <ele>179.90</ele>
        <time>2021-05-29T09:36:21Z</time>
      </trkpt>
      <trkpt lat="37.5356128067" lon="-8.6921075173">
        <ele>177.50</ele>
        <time>2021-05-29T09:36:22Z</time>
      </trkpt>
      <trkpt lat="37.5358119607" lon="-8.6920003127">
        <ele>178.46</ele>
        <time>2021-05-29T09:36:23Z</time>
      </trkpt>
      <trkpt lat="37.5367375743" lon="-8.6916393880">
        <ele>176.06</ele>
        <time>2021-05-29T09:36:28Z</time>
      </trkpt>
      <trkpt lat="37.5374403130" lon="-8.6913472787">
        <ele>172.69</ele>
        <time>2021-05-29T09:36:32Z</time>
      </trkpt>
      <trkpt lat="37.5376279000" lon="-8.6912481207">
        <ele>173.17</ele>
        <time>2021-05-29T09:36:33Z</time>
      </trkpt>
      <trkpt lat="37.5384403579" lon="-8.6907244194">
        <ele>175.58</ele>
        <time>2021-05-29T09:36:37Z</time>
      </trkpt>
      <trkpt lat="37.5388742890" lon="-8.6904418655">
        <ele>171.73</ele>
        <time>2021-05-29T09:36:39Z</time>
      </trkpt>
      <trkpt lat="37.5392820686" lon="-8.6901857145">
        <ele>170.29</ele>
        <time>2021-05-29T09:36:41Z</time>
      </trkpt>
      <trkpt lat="37.5402633380" lon="-8.6895825528">
        <ele>172.21</ele>
        <time>2021-05-29T09:36:46Z</time>
      </trkpt>
      <trkpt lat="37.5409439486" lon="-8.6891547404">
        <ele>173.66</ele>
        <time>2021-05-29T09:36:50Z</time>
      </trkpt>
      <trkpt lat="37.5412487146" lon="-8.6889590230">
        <ele>172.69</ele>
        <time>2021-05-29T09:36:52Z</time>
      </trkpt>
      <trkpt lat="37.5421475898" lon="-8.6885201465">
        <ele>176.54</ele>
        <time>2021-05-29T09:36:57Z</time>
      </trkpt>
      <trkpt lat="37.5425951835" lon="-8.6883519217">
        <ele>172.69</ele>
        <time>2021-05-29T09:36:59Z</time>
      </trkpt>
      <trkpt lat="37.5432199705" lon="-8.6880921666">
        <ele>168.85</ele>
        <time>2021-05-29T09:37:02Z</time>
      </trkpt>
      <trkpt lat="37.5434114970" lon="-8.6879841238">
        <ele>168.85</ele>
        <time>2021-05-29T09:37:03Z</time>
      </trkpt>
      <trkpt lat="37.5435947254" lon="-8.6878527794">
        <ele>167.41</ele>
        <time>2021-05-29T09:37:04Z</time>
      </trkpt>
      <trkpt lat="37.5437513832" lon="-8.6876997259">
        <ele>166.93</ele>
        <time>2021-05-29T09:37:05Z</time>
      </trkpt>
      <trkpt lat="37.5438600127" lon="-8.6875249632">
        <ele>166.45</ele>
        <time>2021-05-29T09:37:06Z</time>
      </trkpt>
      <trkpt lat="37.5439263973" lon="-8.6873385496">
        <ele>167.89</ele>
        <time>2021-05-29T09:37:07Z</time>
      </trkpt>
      <trkpt lat="37.5439152494" lon="-8.6871433351">
        <ele>168.37</ele>
        <time>2021-05-29T09:37:08Z</time>
      </trkpt>
      <trkpt lat="37.5439398084" lon="-8.6869592685">
        <ele>167.89</ele>
        <time>2021-05-29T09:37:09Z</time>
      </trkpt>
      <trkpt lat="37.5439724978" lon="-8.6867924687">
        <ele>166.45</ele>
        <time>2021-05-29T09:37:10Z</time>
      </trkpt>
      <trkpt lat="37.5440223701" lon="-8.6866376549">
        <ele>166.93</ele>
        <time>2021-05-29T09:37:11Z</time>
      </trkpt>
      <trkpt lat="37.5441002380" lon="-8.6865050532">
        <ele>166.93</ele>
        <time>2021-05-29T09:37:12Z</time>
      </trkpt>
      <trkpt lat="37.5442312472" lon="-8.6863960046">
        <ele>168.37</ele>
        <time>2021-05-29T09:37:13Z</time>
      </trkpt>
      <trkpt lat="37.5444054231" lon="-8.6863006186">
        <ele>168.85</ele>
        <time>2021-05-29T09:37:14Z</time>
      </trkpt>
      <trkpt lat="37.5445974525" lon="-8.6862065736">
        <ele>170.77</ele>
        <time>2021-05-29T09:37:15Z</time>
      </trkpt>
      <trkpt lat="37.5447961874" lon="-8.6861016322">
        <ele>170.77</ele>
        <time>2021-05-29T09:37:16Z</time>
      </trkpt>
      <trkpt lat="37.5459036883" lon="-8.6853045970">
        <ele>167.89</ele>
        <time>2021-05-29T09:37:22Z</time>
      </trkpt>
      <trkpt lat="37.5462092087" lon="-8.6850160081">
        <ele>167.41</ele>
        <time>2021-05-29T09:37:24Z</time>
      </trkpt>
      <trkpt lat="37.5463434029" lon="-8.6848407425">
        <ele>166.93</ele>
        <time>2021-05-29T09:37:25Z</time>
      </trkpt>
      <trkpt lat="37.5464601628" lon="-8.6846387386">
        <ele>167.89</ele>
        <time>2021-05-29T09:37:26Z</time>
      </trkpt>
      <trkpt lat="37.5465558004" lon="-8.6844161991">
        <ele>167.41</ele>
        <time>2021-05-29T09:37:27Z</time>
      </trkpt>
      <trkpt lat="37.5466469117" lon="-8.6842017062">
        <ele>167.41</ele>
        <time>2021-05-29T09:37:28Z</time>
      </trkpt>
      <trkpt lat="37.5467584748" lon="-8.6840002891">
        <ele>167.41</ele>
        <time>2021-05-29T09:37:29Z</time>
      </trkpt>
      <trkpt lat="37.5468982849" lon="-8.6838121992">
        <ele>169.81</ele>
        <time>2021-05-29T09:37:30Z</time>
      </trkpt>
      <trkpt lat="37.5470542721" lon="-8.6836324073">
        <ele>169.33</ele>
        <time>2021-05-29T09:37:31Z</time>
      </trkpt>
      <trkpt lat="37.5473532546" lon="-8.6832671240">
        <ele>172.21</ele>
        <time>2021-05-29T09:37:33Z</time>
      </trkpt>
      <trkpt lat="37.5480785407" lon="-8.6821492296">
        <ele>169.33</ele>
        <time>2021-05-29T09:37:39Z</time>
      </trkpt>
      <trkpt lat="37.5482055265" lon="-8.6820171308">
        <ele>170.29</ele>
        <time>2021-05-29T09:37:40Z</time>
      </trkpt>
      <trkpt lat="37.5483533833" lon="-8.6819213256">
        <ele>171.25</ele>
        <time>2021-05-29T09:37:41Z</time>
      </trkpt>
      <trkpt lat="37.5485196803" lon="-8.6818572041">
        <ele>170.77</ele>
        <time>2021-05-29T09:37:42Z</time>
      </trkpt>
      <trkpt lat="37.5486930180" lon="-8.6818047334">
        <ele>171.25</ele>
        <time>2021-05-29T09:37:43Z</time>
      </trkpt>
      <trkpt lat="37.5490171462" lon="-8.6816766579">
        <ele>169.33</ele>
        <time>2021-05-29T09:37:45Z</time>
      </trkpt>
      <trkpt lat="37.5491677690" lon="-8.6815711297">
        <ele>169.81</ele>
        <time>2021-05-29T09:37:46Z</time>
      </trkpt>
      <trkpt lat="37.5493012089" lon="-8.6814326607">
        <ele>169.81</ele>
        <time>2021-05-29T09:37:47Z</time>
      </trkpt>
      <trkpt lat="37.5495716929" lon="-8.6811424792">
        <ele>170.29</ele>
        <time>2021-05-29T09:37:49Z</time>
      </trkpt>
      <trkpt lat="37.5497337151" lon="-8.6810227018">
        <ele>170.77</ele>
        <time>2021-05-29T09:37:50Z</time>
      </trkpt>
      <trkpt lat="37.5499140099" lon="-8.6809171736">
        <ele>170.29</ele>
        <time>2021-05-29T09:37:51Z</time>
      </trkpt>
      <trkpt lat="37.5513133686" lon="-8.6799690966">
        <ele>170.77</ele>
        <time>2021-05-29T09:37:58Z</time>
      </trkpt>
      <trkpt lat="37.5517162029" lon="-8.6796289589">
        <ele>166.93</ele>
        <time>2021-05-29T09:38:00Z</time>
      </trkpt>
      <trkpt lat="37.5522970688" lon="-8.6791337561">
        <ele>162.60</ele>
        <time>2021-05-29T09:38:03Z</time>
      </trkpt>
      <trkpt lat="37.5529133901" lon="-8.6787098832">
        <ele>160.68</ele>
        <time>2021-05-29T09:38:06Z</time>
      </trkpt>
      <trkpt lat="37.5537858624" lon="-8.6783492099">
        <ele>156.83</ele>
        <time>2021-05-29T09:38:10Z</time>
      </trkpt>
      <trkpt lat="37.5539897941" lon="-8.6782640498">
        <ele>156.83</ele>
        <time>2021-05-29T09:38:11Z</time>
      </trkpt>
      <trkpt lat="37.5554940943" lon="-8.6776373349">
        <ele>156.35</ele>
        <time>2021-05-29T09:38:19Z</time>
      </trkpt>
      <trkpt lat="37.5556401070" lon="-8.6775284540">
        <ele>156.83</ele>
        <time>2021-05-29T09:38:20Z</time>
      </trkpt>
      <trkpt lat="37.5557665899" lon="-8.6773937568">
        <ele>157.31</ele>
        <time>2021-05-29T09:38:21Z</time>
      </trkpt>
      <trkpt lat="37.5558596291" lon="-8.6772391945">
        <ele>157.79</ele>
        <time>2021-05-29T09:38:22Z</time>
      </trkpt>
      <trkpt lat="37.5559310429" lon="-8.6770790163">
        <ele>158.27</ele>
        <time>2021-05-29T09:38:23Z</time>
      </trkpt>
      <trkpt lat="37.5560063962" lon="-8.6769364402">
        <ele>158.27</ele>
        <time>2021-05-29T09:38:24Z</time>
      </trkpt>
      <trkpt lat="37.5560996868" lon="-8.6768160760">
        <ele>157.79</ele>
        <time>2021-05-29T09:38:25Z</time>
      </trkpt>
      <trkpt lat="37.5562084839" lon="-8.6767099611">
        <ele>158.75</ele>
        <time>2021-05-29T09:38:26Z</time>
      </trkpt>
      <trkpt lat="37.5563374814" lon="-8.6766211130">
        <ele>160.68</ele>
        <time>2021-05-29T09:38:27Z</time>
      </trkpt>
      <trkpt lat="37.5564773753" lon="-8.6765326839">
        <ele>160.68</ele>
        <time>2021-05-29T09:38:28Z</time>
      </trkpt>
      <trkpt lat="37.5569903478" lon="-8.6762124952">
        <ele>159.24</ele>
        <time>2021-05-29T09:38:32Z</time>
      </trkpt>
      <trkpt lat="37.5570833869" lon="-8.6761249043">
        <ele>157.31</ele>
        <time>2021-05-29T09:38:33Z</time>
      </trkpt>
      <trkpt lat="37.5571501907" lon="-8.6760248244">
        <ele>157.31</ele>
        <time>2021-05-29T09:38:34Z</time>
      </trkpt>
      <trkpt lat="37.5571883284" lon="-8.6759007722">
        <ele>156.35</ele>
        <time>2021-05-29T09:38:35Z</time>
      </trkpt>
      <trkpt lat="37.5572038349" lon="-8.6757598724">
        <ele>155.39</ele>
        <time>2021-05-29T09:38:36Z</time>
      </trkpt>
      <trkpt lat="37.5572164077" lon="-8.6756097525">
        <ele>155.87</ele>
        <time>2021-05-29T09:38:37Z</time>
      </trkpt>
      <trkpt lat="37.5572428945" lon="-8.6754538491">
        <ele>155.39</ele>
        <time>2021-05-29T09:38:38Z</time>
      </trkpt>
      <trkpt lat="37.5572826248" lon="-8.6752942577">
        <ele>159.24</ele>
        <time>2021-05-29T09:38:39Z</time>
      </trkpt>
      <trkpt lat="37.5573366880" lon="-8.6751365941">
        <ele>160.20</ele>
        <time>2021-05-29T09:38:40Z</time>
      </trkpt>
      <trkpt lat="37.5574090239" lon="-8.6749785952">
        <ele>158.75</ele>
        <time>2021-05-29T09:38:41Z</time>
      </trkpt>
      <trkpt lat="37.5574919209" lon="-8.6748232786">
        <ele>158.27</ele>
        <time>2021-05-29T09:38:42Z</time>
      </trkpt>
      <trkpt lat="37.5575818587" lon="-8.6746775173">
        <ele>158.75</ele>
        <time>2021-05-29T09:38:43Z</time>
      </trkpt>
      <trkpt lat="37.5576835312" lon="-8.6745456699">
        <ele>159.24</ele>
        <time>2021-05-29T09:38:44Z</time>
      </trkpt>
      <trkpt lat="37.5578006264" lon="-8.6744339392">
        <ele>160.68</ele>
        <time>2021-05-29T09:38:45Z</time>
      </trkpt>
      <trkpt lat="37.5579347368" lon="-8.6743351165">
        <ele>160.20</ele>
        <time>2021-05-29T09:38:46Z</time>
      </trkpt>
      <trkpt lat="37.5580269378" lon="-8.6742734257">
        <ele>160.20</ele>
        <time>2021-05-29T09:38:47Z</time>
      </trkpt>
      <trkpt lat="37.5588593446" lon="-8.6737894546">
        <ele>160.20</ele>
        <time>2021-05-29T09:38:52Z</time>
      </trkpt>
      <trkpt lat="37.5590376277" lon="-8.6737320386">
        <ele>161.64</ele>
        <time>2021-05-29T09:38:53Z</time>
      </trkpt>
      <trkpt lat="37.5605412573" lon="-8.6734388396">
        <ele>160.68</ele>
        <time>2021-05-29T09:39:00Z</time>
      </trkpt>
      <trkpt lat="37.5621306337" lon="-8.6731294636">
        <ele>155.87</ele>
        <time>2021-05-29T09:39:06Z</time>
      </trkpt>
      <trkpt lat="37.5624097511" lon="-8.6730694491">
        <ele>156.83</ele>
        <time>2021-05-29T09:39:07Z</time>
      </trkpt>
      <trkpt lat="37.5648030359" lon="-8.6727506015">
        <ele>156.83</ele>
        <time>2021-05-29T09:39:16Z</time>
      </trkpt>
      <trkpt lat="37.5653087161" lon="-8.6727106199">
        <ele>160.68</ele>
        <time>2021-05-29T09:39:18Z</time>
      </trkpt>
      <trkpt lat="37.5668603741" lon="-8.6725955363">
        <ele>156.83</ele>
        <time>2021-05-29T09:39:24Z</time>
      </trkpt>
      <trkpt lat="37.5675559044" lon="-8.6725418922">
        <ele>153.47</ele>
        <time>2021-05-29T09:39:27Z</time>
      </trkpt>
      <trkpt lat="37.5679771788" lon="-8.6725123879">
        <ele>150.58</ele>
        <time>2021-05-29T09:39:29Z</time>
      </trkpt>
      <trkpt lat="37.5686881319" lon="-8.6724341847">
        <ele>146.26</ele>
        <time>2021-05-29T09:39:33Z</time>
      </trkpt>
      <trkpt lat="37.5688334741" lon="-8.6723771878">
        <ele>144.82</ele>
        <time>2021-05-29T09:39:34Z</time>
      </trkpt>
      <trkpt lat="37.5689683389" lon="-8.6722847354">
        <ele>145.30</ele>
        <time>2021-05-29T09:39:35Z</time>
      </trkpt>
      <trkpt lat="37.5691009406" lon="-8.6721571628">
        <ele>146.74</ele>
        <time>2021-05-29T09:39:36Z</time>
      </trkpt>
      <trkpt lat="37.5692393258" lon="-8.6719995830">
        <ele>148.18</ele>
        <time>2021-05-29T09:39:37Z</time>
      </trkpt>
      <trkpt lat="37.5700019952" lon="-8.6711485684">
        <ele>143.85</ele>
        <time>2021-05-29T09:39:42Z</time>
      </trkpt>
      <trkpt lat="37.5701619219" lon="-8.6710076686">
        <ele>142.89</ele>
        <time>2021-05-29T09:39:43Z</time>
      </trkpt>
      <trkpt lat="37.5703428872" lon="-8.6708945129">
        <ele>142.89</ele>
        <time>2021-05-29T09:39:44Z</time>
      </trkpt>
      <trkpt lat="37.5705509260" lon="-8.6708070897">
        <ele>142.41</ele>
        <time>2021-05-29T09:39:45Z</time>
      </trkpt>
      <trkpt lat="37.5717039406" lon="-8.6704298202">
        <ele>139.05</ele>
        <time>2021-05-29T09:39:50Z</time>
      </trkpt>
      <trkpt lat="37.5734334625" lon="-8.6698568333">
        <ele>136.16</ele>
        <time>2021-05-29T09:39:57Z</time>
      </trkpt>
      <trkpt lat="37.5743084494" lon="-8.6695728544">
        <ele>132.80</ele>
        <time>2021-05-29T09:40:01Z</time>
      </trkpt>
      <trkpt lat="37.5751039758" lon="-8.6693084892">
        <ele>128.95</ele>
        <time>2021-05-29T09:40:05Z</time>
      </trkpt>
      <trkpt lat="37.5757703371" lon="-8.6690938286">
        <ele>125.59</ele>
        <time>2021-05-29T09:40:09Z</time>
      </trkpt>
      <trkpt lat="37.5761567429" lon="-8.6689657532">
        <ele>123.19</ele>
        <time>2021-05-29T09:40:12Z</time>
      </trkpt>
      <trkpt lat="37.5764243770" lon="-8.6688745581">
        <ele>121.26</ele>
        <time>2021-05-29T09:40:15Z</time>
      </trkpt>
      <trkpt lat="37.5765755028" lon="-8.6688273679">
        <ele>121.26</ele>
        <time>2021-05-29T09:40:21Z</time>
      </trkpt>
      <trkpt lat="37.5767873973" lon="-8.6687712092">
        <ele>124.15</ele>
        <time>2021-05-29T09:40:33Z</time>
      </trkpt>
      <trkpt lat="37.5774797425" lon="-8.6685450654">
        <ele>126.55</ele>
        <time>2021-05-29T09:40:39Z</time>
      </trkpt>
      <trkpt lat="37.5788139738" lon="-8.6680978909">
        <ele>125.59</ele>
        <time>2021-05-29T09:40:47Z</time>
      </trkpt>
      <trkpt lat="37.5806638598" lon="-8.6674890295">
        <ele>122.22</ele>
        <time>2021-05-29T09:40:58Z</time>
      </trkpt>
      <trkpt lat="37.5808194280" lon="-8.6674355529">
        <ele>122.22</ele>
        <time>2021-05-29T09:40:59Z</time>
      </trkpt>
      <trkpt lat="37.5823746063" lon="-8.6669144500">
        <ele>124.15</ele>
        <time>2021-05-29T09:41:09Z</time>
      </trkpt>
      <trkpt lat="37.5846140832" lon="-8.6661717296">
        <ele>123.67</ele>
        <time>2021-05-29T09:41:22Z</time>
      </trkpt>
      <trkpt lat="37.5867622811" lon="-8.6654429231">
        <ele>121.74</ele>
        <time>2021-05-29T09:41:34Z</time>
      </trkpt>
      <trkpt lat="37.5884165335" lon="-8.6648906395">
        <ele>117.90</ele>
        <time>2021-05-29T09:41:44Z</time>
      </trkpt>
      <trkpt lat="37.5896200910" lon="-8.6644764058">
        <ele>117.90</ele>
        <time>2021-05-29T09:41:53Z</time>
      </trkpt>
      <trkpt lat="37.5903188903" lon="-8.6642860528">
        <ele>118.38</ele>
        <time>2021-05-29T09:42:01Z</time>
      </trkpt>
      <trkpt lat="37.5907090679" lon="-8.6641961150">
        <ele>119.34</ele>
        <time>2021-05-29T09:42:08Z</time>
      </trkpt>
      <trkpt lat="37.5907886960" lon="-8.6641598213">
        <ele>119.82</ele>
        <time>2021-05-29T09:42:09Z</time>
      </trkpt>
      <trkpt lat="37.5908722635" lon="-8.6641034111">
        <ele>120.30</ele>
        <time>2021-05-29T09:42:10Z</time>
      </trkpt>
      <trkpt lat="37.5909585971" lon="-8.6640376970">
        <ele>121.26</ele>
        <time>2021-05-29T09:42:11Z</time>
      </trkpt>
      <trkpt lat="37.5910622813" lon="-8.6639783531">
        <ele>122.71</ele>
        <time>2021-05-29T09:42:12Z</time>
      </trkpt>
      <trkpt lat="37.5911824778" lon="-8.6639288161">
        <ele>123.19</ele>
        <time>2021-05-29T09:42:13Z</time>
      </trkpt>
      <trkpt lat="37.5913089607" lon="-8.6638851464">
        <ele>124.15</ele>
        <time>2021-05-29T09:42:14Z</time>
      </trkpt>
      <trkpt lat="37.5920810178" lon="-8.6636233795">
        <ele>126.55</ele>
        <time>2021-05-29T09:42:19Z</time>
      </trkpt>
      <trkpt lat="37.5935517065" lon="-8.6631351337">
        <ele>126.07</ele>
        <time>2021-05-29T09:42:28Z</time>
      </trkpt>
      <trkpt lat="37.5948570203" lon="-8.6626538448">
        <ele>125.59</ele>
        <time>2021-05-29T09:42:37Z</time>
      </trkpt>
      <trkpt lat="37.5949552562" lon="-8.6625556089">
        <ele>124.63</ele>
        <time>2021-05-29T09:42:38Z</time>
      </trkpt>
      <trkpt lat="37.5950358901" lon="-8.6624261923">
        <ele>123.67</ele>
        <time>2021-05-29T09:42:39Z</time>
      </trkpt>
      <trkpt lat="37.5951077230" lon="-8.6622713786">
        <ele>123.19</ele>
        <time>2021-05-29T09:42:40Z</time>
      </trkpt>
      <trkpt lat="37.5951727666" lon="-8.6621091049">
        <ele>123.67</ele>
        <time>2021-05-29T09:42:41Z</time>
      </trkpt>
      <trkpt lat="37.5952720921" lon="-8.6618071888">
        <ele>120.30</ele>
        <time>2021-05-29T09:42:43Z</time>
      </trkpt>
      <trkpt lat="37.5952831563" lon="-8.6616646964">
        <ele>118.38</ele>
        <time>2021-05-29T09:42:44Z</time>
      </trkpt>
      <trkpt lat="37.5952601060" lon="-8.6615274847">
        <ele>117.90</ele>
        <time>2021-05-29T09:42:45Z</time>
      </trkpt>
      <trkpt lat="37.5951834116" lon="-8.6614009179">
        <ele>116.94</ele>
        <time>2021-05-29T09:42:46Z</time>
      </trkpt>
      <trkpt lat="37.5950784702" lon="-8.6612770334">
        <ele>117.42</ele>
        <time>2021-05-29T09:42:47Z</time>
      </trkpt>
      <trkpt lat="37.5949608721" lon="-8.6611466110">
        <ele>118.38</ele>
        <time>2021-05-29T09:42:48Z</time>
      </trkpt>
      <trkpt lat="37.5945799984" lon="-8.6607361492">
        <ele>115.01</ele>
        <time>2021-05-29T09:42:51Z</time>
      </trkpt>
      <trkpt lat="37.5944639090" lon="-8.6606106721">
        <ele>115.01</ele>
        <time>2021-05-29T09:42:52Z</time>
      </trkpt>
      <trkpt lat="37.5942514278" lon="-8.6603688542">
        <ele>112.61</ele>
        <time>2021-05-29T09:42:54Z</time>
      </trkpt>
      <trkpt lat="37.5941670220" lon="-8.6602292117">
        <ele>110.69</ele>
        <time>2021-05-29T09:42:55Z</time>
      </trkpt>
      <trkpt lat="37.5941042416" lon="-8.6600659322">
        <ele>110.21</ele>
        <time>2021-05-29T09:42:56Z</time>
      </trkpt>
      <trkpt lat="37.5940563809" lon="-8.6598820332">
        <ele>110.21</ele>
        <time>2021-05-29T09:42:57Z</time>
      </trkpt>
      <trkpt lat="37.5940200873" lon="-8.6596779339">
        <ele>111.17</ele>
        <time>2021-05-29T09:42:58Z</time>
      </trkpt>
      <trkpt lat="37.5939802732" lon="-8.6594685540">
        <ele>109.25</ele>
        <time>2021-05-29T09:42:59Z</time>
      </trkpt>
      <trkpt lat="37.5939220190" lon="-8.6592754349">
        <ele>106.36</ele>
        <time>2021-05-29T09:43:00Z</time>
      </trkpt>
      <trkpt lat="37.5938533712" lon="-8.6591005884">
        <ele>105.40</ele>
        <time>2021-05-29T09:43:01Z</time>
      </trkpt>
      <trkpt lat="37.5937426463" lon="-8.6587812379">
        <ele>103.96</ele>
        <time>2021-05-29T09:43:03Z</time>
      </trkpt>
      <trkpt lat="37.5937245414" lon="-8.6586231552">
        <ele>103.00</ele>
        <time>2021-05-29T09:43:04Z</time>
      </trkpt>
      <trkpt lat="37.5937240385" lon="-8.6584793217">
        <ele>102.04</ele>
        <time>2021-05-29T09:43:05Z</time>
      </trkpt>
      <trkpt lat="37.5937507767" lon="-8.6583577842">
        <ele>101.56</ele>
        <time>2021-05-29T09:43:06Z</time>
      </trkpt>
      <trkpt lat="37.5938275550" lon="-8.6582800001">
        <ele>100.11</ele>
        <time>2021-05-29T09:43:07Z</time>
      </trkpt>
      <trkpt lat="37.5939517748" lon="-8.6582516693">
        <ele>100.11</ele>
        <time>2021-05-29T09:43:08Z</time>
      </trkpt>
      <trkpt lat="37.5942481589" lon="-8.6582164653">
        <ele>98.67</ele>
        <time>2021-05-29T09:43:10Z</time>
      </trkpt>
      <trkpt lat="37.5943902321" lon="-8.6581561994">
        <ele>97.71</ele>
        <time>2021-05-29T09:43:11Z</time>
      </trkpt>
      <trkpt lat="37.5945177209" lon="-8.6580516770">
        <ele>97.23</ele>
        <time>2021-05-29T09:43:12Z</time>
      </trkpt>
      <trkpt lat="37.5946377497" lon="-8.6579115316">
        <ele>96.75</ele>
        <time>2021-05-29T09:43:13Z</time>
      </trkpt>
      <trkpt lat="37.5947462115" lon="-8.6577464920">
        <ele>96.75</ele>
        <time>2021-05-29T09:43:14Z</time>
      </trkpt>
      <trkpt lat="37.5948407594" lon="-8.6575646885">
        <ele>95.79</ele>
        <time>2021-05-29T09:43:15Z</time>
      </trkpt>
      <trkpt lat="37.5949053001" lon="-8.6573605053">
        <ele>94.83</ele>
        <time>2021-05-29T09:43:16Z</time>
      </trkpt>
      <trkpt lat="37.5949436892" lon="-8.6571377143">
        <ele>94.83</ele>
        <time>2021-05-29T09:43:17Z</time>
      </trkpt>
      <trkpt lat="37.5949660689" lon="-8.6569079664">
        <ele>94.83</ele>
        <time>2021-05-29T09:43:18Z</time>
      </trkpt>
      <trkpt lat="37.5950032845" lon="-8.6564770527">
        <ele>90.02</ele>
        <time>2021-05-29T09:43:20Z</time>
      </trkpt>
      <trkpt lat="37.5950676575" lon="-8.6561432853">
        <ele>86.18</ele>
        <time>2021-05-29T09:43:22Z</time>
      </trkpt>
      <trkpt lat="37.5951206312" lon="-8.6560174730">
        <ele>84.73</ele>
        <time>2021-05-29T09:43:23Z</time>
      </trkpt>
      <trkpt lat="37.5951917935" lon="-8.6559321452">
        <ele>83.29</ele>
        <time>2021-05-29T09:43:24Z</time>
      </trkpt>
      <trkpt lat="37.5952869281" lon="-8.6558865476">
        <ele>83.77</ele>
        <time>2021-05-29T09:43:25Z</time>
      </trkpt>
      <trkpt lat="37.5954012573" lon="-8.6558671016">
        <ele>83.77</ele>
        <time>2021-05-29T09:43:26Z</time>
      </trkpt>
      <trkpt lat="37.5955326017" lon="-8.6558471527">
        <ele>82.33</ele>
        <time>2021-05-29T09:43:27Z</time>
      </trkpt>
      <trkpt lat="37.5956577435" lon="-8.6558006331">
        <ele>80.89</ele>
        <time>2021-05-29T09:43:28Z</time>
      </trkpt>
      <trkpt lat="37.5957717374" lon="-8.6557133775">
        <ele>80.41</ele>
        <time>2021-05-29T09:43:29Z</time>
      </trkpt>
      <trkpt lat="37.5958689675" lon="-8.6555769201">
        <ele>79.93</ele>
        <time>2021-05-29T09:43:30Z</time>
      </trkpt>
      <trkpt lat="37.5959363580" lon="-8.6554090306">
        <ele>80.41</ele>
        <time>2021-05-29T09:43:31Z</time>
      </trkpt>
      <trkpt lat="37.5959638506" lon="-8.6552208569">
        <ele>78.48</ele>
        <time>2021-05-29T09:43:32Z</time>
      </trkpt>
      <trkpt lat="37.5959556364" lon="-8.6550187692">
        <ele>77.52</ele>
        <time>2021-05-29T09:43:33Z</time>
      </trkpt>
      <trkpt lat="37.5959223602" lon="-8.6548083834">
        <ele>77.04</ele>
        <time>2021-05-29T09:43:34Z</time>
      </trkpt>
      <trkpt lat="37.5958729070" lon="-8.6545928847">
        <ele>77.04</ele>
        <time>2021-05-29T09:43:35Z</time>
      </trkpt>
      <trkpt lat="37.5957036763" lon="-8.6539696064">
        <ele>73.20</ele>
        <time>2021-05-29T09:43:38Z</time>
      </trkpt>
      <trkpt lat="37.5953619462" lon="-8.6531734094">
        <ele>67.91</ele>
        <time>2021-05-29T09:43:42Z</time>
      </trkpt>
      <trkpt lat="37.5952145923" lon="-8.6528455094">
        <ele>64.07</ele>
        <time>2021-05-29T09:43:44Z</time>
      </trkpt>
      <trkpt lat="37.5951705873" lon="-8.6526870076">
        <ele>63.10</ele>
        <time>2021-05-29T09:43:45Z</time>
      </trkpt>
      <trkpt lat="37.5951601099" lon="-8.6525238957">
        <ele>63.10</ele>
        <time>2021-05-29T09:43:46Z</time>
      </trkpt>
      <trkpt lat="37.5951839145" lon="-8.6523671541">
        <ele>62.62</ele>
        <time>2021-05-29T09:43:47Z</time>
      </trkpt>
      <trkpt lat="37.5952430908" lon="-8.6522303615">
        <ele>62.62</ele>
        <time>2021-05-29T09:43:48Z</time>
      </trkpt>
      <trkpt lat="37.5953396503" lon="-8.6521089077">
        <ele>62.14</ele>
        <time>2021-05-29T09:43:49Z</time>
      </trkpt>
      <trkpt lat="37.5954576675" lon="-8.6520134378">
        <ele>62.62</ele>
        <time>2021-05-29T09:43:50Z</time>
      </trkpt>
      <trkpt lat="37.5955271535" lon="-8.6519630626">
        <ele>62.14</ele>
        <time>2021-05-29T09:43:51Z</time>
      </trkpt>
      <trkpt lat="37.5957960449" lon="-8.6519100051">
        <ele>61.18</ele>
        <time>2021-05-29T09:43:52Z</time>
      </trkpt>
      <trkpt lat="37.5963399466" lon="-8.6518153735">
        <ele>58.30</ele>
        <time>2021-05-29T09:43:55Z</time>
      </trkpt>
      <trkpt lat="37.5967710279" lon="-8.6517271120">
        <ele>54.45</ele>
        <time>2021-05-29T09:43:58Z</time>
      </trkpt>
      <trkpt lat="37.5968991034" lon="-8.6516960151">
        <ele>54.93</ele>
        <time>2021-05-29T09:43:59Z</time>
      </trkpt>
      <trkpt lat="37.5970143545" lon="-8.6516566202">
        <ele>53.97</ele>
        <time>2021-05-29T09:44:00Z</time>
      </trkpt>
      <trkpt lat="37.5971118361" lon="-8.6515973601">
        <ele>53.01</ele>
        <time>2021-05-29T09:44:01Z</time>
      </trkpt>
      <trkpt lat="37.5971877761" lon="-8.6515131220">
        <ele>53.01</ele>
        <time>2021-05-29T09:44:02Z</time>
      </trkpt>
      <trkpt lat="37.5972379837" lon="-8.6514043249">
        <ele>52.53</ele>
        <time>2021-05-29T09:44:03Z</time>
      </trkpt>
      <trkpt lat="37.5972593576" lon="-8.6512720585">
        <ele>52.05</ele>
        <time>2021-05-29T09:44:04Z</time>
      </trkpt>
      <trkpt lat="37.5972526520" lon="-8.6511131376">
        <ele>53.01</ele>
        <time>2021-05-29T09:44:05Z</time>
      </trkpt>
      <trkpt lat="37.5972313620" lon="-8.6509328429">
        <ele>54.45</ele>
        <time>2021-05-29T09:44:06Z</time>
      </trkpt>
      <trkpt lat="37.5971555896" lon="-8.6504300125">
        <ele>51.09</ele>
        <time>2021-05-29T09:44:09Z</time>
      </trkpt>
      <trkpt lat="37.5971075613" lon="-8.6503104866">
        <ele>49.65</ele>
        <time>2021-05-29T09:44:10Z</time>
      </trkpt>
      <trkpt lat="37.5970454514" lon="-8.6502415035">
        <ele>47.72</ele>
        <time>2021-05-29T09:44:11Z</time>
      </trkpt>
      <trkpt lat="37.5969715230" lon="-8.6502244882">
        <ele>46.76</ele>
        <time>2021-05-29T09:44:12Z</time>
      </trkpt>
      <trkpt lat="37.5968941581" lon="-8.6502536573">
        <ele>46.28</ele>
        <time>2021-05-29T09:44:13Z</time>
      </trkpt>
      <trkpt lat="37.5968082435" lon="-8.6503155157">
        <ele>45.80</ele>
        <time>2021-05-29T09:44:14Z</time>
      </trkpt>
      <trkpt lat="37.5967166293" lon="-8.6503729317">
        <ele>45.80</ele>
        <time>2021-05-29T09:44:15Z</time>
      </trkpt>
      <trkpt lat="37.5966239255" lon="-8.6503995024">
        <ele>45.80</ele>
        <time>2021-05-29T09:44:16Z</time>
      </trkpt>
      <trkpt lat="37.5965304673" lon="-8.6503862590">
        <ele>44.84</ele>
        <time>2021-05-29T09:44:17Z</time>
      </trkpt>
      <trkpt lat="37.5964564551" lon="-8.6503269989">
        <ele>44.36</ele>
        <time>2021-05-29T09:44:18Z</time>
      </trkpt>
      <trkpt lat="37.5964065827" lon="-8.6502245720">
        <ele>44.84</ele>
        <time>2021-05-29T09:44:19Z</time>
      </trkpt>
      <trkpt lat="37.5963990390" lon="-8.6500901263">
        <ele>43.88</ele>
        <time>2021-05-29T09:44:20Z</time>
      </trkpt>
      <trkpt lat="37.5964411162" lon="-8.6499493942">
        <ele>44.36</ele>
        <time>2021-05-29T09:44:21Z</time>
      </trkpt>
      <trkpt lat="37.5965146255" lon="-8.6498037167">
        <ele>44.36</ele>
        <time>2021-05-29T09:44:22Z</time>
      </trkpt>
      <trkpt lat="37.5966063235" lon="-8.6496510822">
        <ele>44.36</ele>
        <time>2021-05-29T09:44:23Z</time>
      </trkpt>
      <trkpt lat="37.5967016257" lon="-8.6495002918">
        <ele>42.92</ele>
        <time>2021-05-29T09:44:24Z</time>
      </trkpt>
      <trkpt lat="37.5968720298" lon="-8.6492148042">
        <ele>40.03</ele>
        <time>2021-05-29T09:44:26Z</time>
      </trkpt>
      <trkpt lat="37.5969390851" lon="-8.6490629241">
        <ele>39.55</ele>
        <time>2021-05-29T09:44:27Z</time>
      </trkpt>
      <trkpt lat="37.5969906338" lon="-8.6489007343">
        <ele>39.07</ele>
        <time>2021-05-29T09:44:28Z</time>
      </trkpt>
      <trkpt lat="37.5970141869" lon="-8.6487307493">
        <ele>38.59</ele>
        <time>2021-05-29T09:44:29Z</time>
      </trkpt>
      <trkpt lat="37.5970083196" lon="-8.6485572439">
        <ele>37.63</ele>
        <time>2021-05-29T09:44:30Z</time>
      </trkpt>
      <trkpt lat="37.5969780609" lon="-8.6483848281">
        <ele>37.63</ele>
        <time>2021-05-29T09:44:31Z</time>
      </trkpt>
      <trkpt lat="37.5969268475" lon="-8.6482331995">
        <ele>37.15</ele>
        <time>2021-05-29T09:44:32Z</time>
      </trkpt>
      <trkpt lat="37.5968576130" lon="-8.6481171101">
        <ele>35.23</ele>
        <time>2021-05-29T09:44:33Z</time>
      </trkpt>
      <trkpt lat="37.5967716146" lon="-8.6480358057">
        <ele>33.78</ele>
        <time>2021-05-29T09:44:34Z</time>
      </trkpt>
      <trkpt lat="37.5966722053" lon="-8.6479969975">
        <ele>33.30</ele>
        <time>2021-05-29T09:44:35Z</time>
      </trkpt>
      <trkpt lat="37.5965680182" lon="-8.6480030324">
        <ele>31.86</ele>
        <time>2021-05-29T09:44:36Z</time>
      </trkpt>
      <trkpt lat="37.5964640826" lon="-8.6480454449">
        <ele>32.34</ele>
        <time>2021-05-29T09:44:37Z</time>
      </trkpt>
      <trkpt lat="37.5963664334" lon="-8.6480937246">
        <ele>31.38</ele>
        <time>2021-05-29T09:44:38Z</time>
      </trkpt>
      <trkpt lat="37.5962767471" lon="-8.6481258273">
        <ele>30.42</ele>
        <time>2021-05-29T09:44:39Z</time>
      </trkpt>
      <trkpt lat="37.5961934309" lon="-8.6481208820">
        <ele>28.98</ele>
        <time>2021-05-29T09:44:40Z</time>
      </trkpt>
      <trkpt lat="37.5961199217" lon="-8.6480789725">
        <ele>28.50</ele>
        <time>2021-05-29T09:44:41Z</time>
      </trkpt>
      <trkpt lat="37.5960734859" lon="-8.6480021104">
        <ele>28.02</ele>
        <time>2021-05-29T09:44:42Z</time>
      </trkpt>
      <trkpt lat="37.5960630085" lon="-8.6479010247">
        <ele>28.50</ele>
        <time>2021-05-29T09:44:43Z</time>
      </trkpt>
      <trkpt lat="37.5960748270" lon="-8.6477902159">
        <ele>28.50</ele>
        <time>2021-05-29T09:44:44Z</time>
      </trkpt>
      <trkpt lat="37.5961078517" lon="-8.6476825085">
        <ele>28.98</ele>
        <time>2021-05-29T09:44:45Z</time>
      </trkpt>
      <trkpt lat="37.5961579755" lon="-8.6475776508">
        <ele>29.94</ele>
        <time>2021-05-29T09:44:46Z</time>
      </trkpt>
      <trkpt lat="37.5962229352" lon="-8.6474728771">
        <ele>29.46</ele>
        <time>2021-05-29T09:44:47Z</time>
      </trkpt>
      <trkpt lat="37.5965161342" lon="-8.6470009759">
        <ele>27.53</ele>
        <time>2021-05-29T09:44:53Z</time>
      </trkpt>
      <trkpt lat="37.5965364184" lon="-8.6469226051">
        <ele>27.05</ele>
        <time>2021-05-29T09:44:54Z</time>
      </trkpt>
      <trkpt lat="37.5965406932" lon="-8.6468263809">
        <ele>27.05</ele>
        <time>2021-05-29T09:44:55Z</time>
      </trkpt>
      <trkpt lat="37.5965297129" lon="-8.6467179190">
        <ele>27.05</ele>
        <time>2021-05-29T09:44:56Z</time>
      </trkpt>
      <trkpt lat="37.5965145417" lon="-8.6466014944">
        <ele>26.57</ele>
        <time>2021-05-29T09:44:57Z</time>
      </trkpt>
      <trkpt lat="37.5964779966" lon="-8.6463412363">
        <ele>26.09</ele>
        <time>2021-05-29T09:44:59Z</time>
      </trkpt>
      <trkpt lat="37.5964425411" lon="-8.6462119874">
        <ele>24.65</ele>
        <time>2021-05-29T09:45:00Z</time>
      </trkpt>
      <trkpt lat="37.5963986199" lon="-8.6460838281">
        <ele>24.65</ele>
        <time>2021-05-29T09:45:01Z</time>
      </trkpt>
      <trkpt lat="37.5962461531" lon="-8.6455874518">
        <ele>21.29</ele>
        <time>2021-05-29T09:45:05Z</time>
      </trkpt>
      <trkpt lat="37.5961145572" lon="-8.6450521834">
        <ele>21.77</ele>
        <time>2021-05-29T09:45:09Z</time>
      </trkpt>
      <trkpt lat="37.5961039960" lon="-8.6449262034">
        <ele>20.81</ele>
        <time>2021-05-29T09:45:10Z</time>
      </trkpt>
      <trkpt lat="37.5960721448" lon="-8.6440428346">
        <ele>19.84</ele>
        <time>2021-05-29T09:45:18Z</time>
      </trkpt>
      <trkpt lat="37.5960731506" lon="-8.6439614464">
        <ele>19.84</ele>
        <time>2021-05-29T09:45:19Z</time>
      </trkpt>
      <trkpt lat="37.5960586499" lon="-8.6434214003">
        <ele>18.88</ele>
        <time>2021-05-29T09:45:30Z</time>
      </trkpt>
      <trkpt lat="37.5960565545" lon="-8.6433399282">
        <ele>19.36</ele>
        <time>2021-05-29T09:45:32Z</time>
      </trkpt>
      <trkpt lat="37.5960481726" lon="-8.6430410296">
        <ele>20.32</ele>
        <time>2021-05-29T09:45:38Z</time>
      </trkpt>
      <trkpt lat="37.5960494298" lon="-8.6429815181">
        <ele>20.81</ele>
        <time>2021-05-29T09:45:39Z</time>
      </trkpt>
      <trkpt lat="37.5960436463" lon="-8.6427528597">
        <ele>22.25</ele>
        <time>2021-05-29T09:45:42Z</time>
      </trkpt>
      <trkpt lat="37.5960423891" lon="-8.6426727287">
        <ele>22.73</ele>
        <time>2021-05-29T09:45:43Z</time>
      </trkpt>
      <trkpt lat="37.5960387010" lon="-8.6425937712">
        <ele>23.21</ele>
        <time>2021-05-29T09:45:44Z</time>
      </trkpt>
      <trkpt lat="37.5960250385" lon="-8.6424481776">
        <ele>24.17</ele>
        <time>2021-05-29T09:45:46Z</time>
      </trkpt>
      <trkpt lat="37.5959894992" lon="-8.6422689725">
        <ele>25.13</ele>
        <time>2021-05-29T09:45:49Z</time>
      </trkpt>
      <trkpt lat="37.5959734898" lon="-8.6422255542">
        <ele>25.61</ele>
        <time>2021-05-29T09:45:50Z</time>
      </trkpt>
      <trkpt lat="37.5959603302" lon="-8.6421952955">
        <ele>26.09</ele>
        <time>2021-05-29T09:45:51Z</time>
      </trkpt>
      <trkpt lat="37.5958681293" lon="-8.6419388931">
        <ele>28.98</ele>
        <time>2021-05-29T09:45:57Z</time>
      </trkpt>
      <trkpt lat="37.5958027504" lon="-8.6417290103">
        <ele>30.42</ele>
        <time>2021-05-29T09:46:00Z</time>
      </trkpt>
      <trkpt lat="37.5957741681" lon="-8.6416667327">
        <ele>30.90</ele>
        <time>2021-05-29T09:46:01Z</time>
      </trkpt>
      <trkpt lat="37.5957491063" lon="-8.6416037008">
        <ele>31.86</ele>
        <time>2021-05-29T09:46:02Z</time>
      </trkpt>
      <trkpt lat="37.5957253017" lon="-8.6415434349">
        <ele>31.86</ele>
        <time>2021-05-29T09:46:03Z</time>
      </trkpt>
      <trkpt lat="37.5955483597" lon="-8.6409852002">
        <ele>35.23</ele>
        <time>2021-05-29T09:46:15Z</time>
      </trkpt>
      <trkpt lat="37.5954678096" lon="-8.6408002116">
        <ele>36.19</ele>
        <time>2021-05-29T09:46:20Z</time>
      </trkpt>
      <trkpt lat="37.5954391435" lon="-8.6407458968">
        <ele>36.67</ele>
        <time>2021-05-29T09:46:21Z</time>
      </trkpt>
      <trkpt lat="37.5954023469" lon="-8.6406893190">
        <ele>37.15</ele>
        <time>2021-05-29T09:46:22Z</time>
      </trkpt>
      <trkpt lat="37.5951774605" lon="-8.6404309887">
        <ele>38.59</ele>
        <time>2021-05-29T09:46:29Z</time>
      </trkpt>
      <trkpt lat="37.5950200483" lon="-8.6403772607">
        <ele>40.03</ele>
        <time>2021-05-29T09:46:33Z</time>
      </trkpt>
      <trkpt lat="37.5949211419" lon="-8.6403153185">
        <ele>40.99</ele>
        <time>2021-05-29T09:46:35Z</time>
      </trkpt>
      <trkpt lat="37.5947579462" lon="-8.6401385441">
        <ele>42.44</ele>
        <time>2021-05-29T09:46:41Z</time>
      </trkpt>
      <trkpt lat="37.5947319623" lon="-8.6401400529">
        <ele>42.92</ele>
        <time>2021-05-29T09:46:42Z</time>
      </trkpt>
      <trkpt lat="37.5947151985" lon="-8.6401566491">
        <ele>43.40</ele>
        <time>2021-05-29T09:46:43Z</time>
      </trkpt>
      <trkpt lat="37.5946753006" lon="-8.6402646918">
        <ele>43.40</ele>
        <time>2021-05-29T09:46:48Z</time>
      </trkpt>
      <trkpt lat="37.5946938246" lon="-8.6402906757">
        <ele>44.36</ele>
        <time>2021-05-29T09:46:49Z</time>
      </trkpt>
      <trkpt lat="37.5949046295" lon="-8.6404547933">
        <ele>47.72</ele>
        <time>2021-05-29T09:46:56Z</time>
      </trkpt>
      <trkpt lat="37.5950756203" lon="-8.6406992096">
        <ele>50.13</ele>
        <time>2021-05-29T09:47:02Z</time>
      </trkpt>
      <trkpt lat="37.5951064657" lon="-8.6407722998">
        <ele>50.13</ele>
        <time>2021-05-29T09:47:04Z</time>
      </trkpt>
      <trkpt lat="37.5951244030" lon="-8.6408265308">
        <ele>51.09</ele>
        <time>2021-05-29T09:47:05Z</time>
      </trkpt>
      <trkpt lat="37.5951763708" lon="-8.6410257686">
        <ele>53.01</ele>
        <time>2021-05-29T09:47:08Z</time>
      </trkpt>
      <trkpt lat="37.5951797236" lon="-8.6410879623">
        <ele>53.01</ele>
        <time>2021-05-29T09:47:09Z</time>
      </trkpt>
      <trkpt lat="37.5951766223" lon="-8.6411383376">
        <ele>52.53</ele>
        <time>2021-05-29T09:47:10Z</time>
      </trkpt>
      <trkpt lat="37.5951671507" lon="-8.6411784030">
        <ele>53.01</ele>
        <time>2021-05-29T09:47:11Z</time>
      </trkpt>
      <trkpt lat="37.5951512251" lon="-8.6412137747">
        <ele>53.01</ele>
        <time>2021-05-29T09:47:12Z</time>
      </trkpt>
      <trkpt lat="37.5951213855" lon="-8.6412730347">
        <ele>52.53</ele>
        <time>2021-05-29T09:47:14Z</time>
      </trkpt>
      <trkpt lat="37.5951026101" lon="-8.6413037963">
        <ele>53.01</ele>
        <time>2021-05-29T09:47:15Z</time>
      </trkpt>
      <trkpt lat="37.5949993450" lon="-8.6414513178">
        <ele>52.53</ele>
        <time>2021-05-29T09:47:21Z</time>
      </trkpt>
      <trkpt lat="37.5949880295" lon="-8.6414588615">
        <ele>52.05</ele>
        <time>2021-05-29T09:47:22Z</time>
      </trkpt>
      <trkpt lat="37.5949823298" lon="-8.6414784752">
        <ele>53.01</ele>
        <time>2021-05-29T09:47:23Z</time>
      </trkpt>
      <trkpt lat="37.5949679129" lon="-8.6414621305">
        <ele>52.53</ele>
        <time>2021-05-29T09:47:37Z</time>
      </trkpt>
      <trkpt lat="37.5949238241" lon="-8.6415016931">
        <ele>53.49</ele>
        <time>2021-05-29T09:47:42Z</time>
      </trkpt>
      <trkpt lat="37.5948731136" lon="-8.6415066384">
        <ele>53.97</ele>
        <time>2021-05-29T09:47:43Z</time>
      </trkpt>
      <trkpt lat="37.5947452895" lon="-8.6415117513">
        <ele>55.89</ele>
        <time>2021-05-29T09:47:45Z</time>
      </trkpt>
      <trkpt lat="37.5946894661" lon="-8.6415279284">
        <ele>56.37</ele>
        <time>2021-05-29T09:47:46Z</time>
      </trkpt>
      <trkpt lat="37.5946404319" lon="-8.6415570974">
        <ele>57.82</ele>
        <time>2021-05-29T09:47:47Z</time>
      </trkpt>
      <trkpt lat="37.5945962593" lon="-8.6415933911">
        <ele>58.30</ele>
        <time>2021-05-29T09:47:48Z</time>
      </trkpt>
      <trkpt lat="37.5945551042" lon="-8.6416383181">
        <ele>58.30</ele>
        <time>2021-05-29T09:47:49Z</time>
      </trkpt>
      <trkpt lat="37.5945162121" lon="-8.6416824907">
        <ele>58.78</ele>
        <time>2021-05-29T09:47:50Z</time>
      </trkpt>
      <trkpt lat="37.5943080056" lon="-8.6418940499">
        <ele>61.18</ele>
        <time>2021-05-29T09:47:56Z</time>
      </trkpt>
      <trkpt lat="37.5942536071" lon="-8.6419372167">
        <ele>61.66</ele>
        <time>2021-05-29T09:47:57Z</time>
      </trkpt>
      <trkpt lat="37.5942036510" lon="-8.6419859994">
        <ele>62.62</ele>
        <time>2021-05-29T09:47:58Z</time>
      </trkpt>
      <trkpt lat="37.5941594783" lon="-8.6420444213">
        <ele>62.62</ele>
        <time>2021-05-29T09:47:59Z</time>
      </trkpt>
      <trkpt lat="37.5941112824" lon="-8.6421039328">
        <ele>63.10</ele>
        <time>2021-05-29T09:48:00Z</time>
      </trkpt>
      <trkpt lat="37.5940570515" lon="-8.6421598401">
        <ele>63.58</ele>
        <time>2021-05-29T09:48:01Z</time>
      </trkpt>
      <trkpt lat="37.5940070115" lon="-8.6422159988">
        <ele>63.58</ele>
        <time>2021-05-29T09:48:02Z</time>
      </trkpt>
      <trkpt lat="37.5939656887" lon="-8.6422710679">
        <ele>65.03</ele>
        <time>2021-05-29T09:48:03Z</time>
      </trkpt>
      <trkpt lat="37.5939352624" lon="-8.6423280649">
        <ele>65.51</ele>
        <time>2021-05-29T09:48:04Z</time>
      </trkpt>
      <trkpt lat="37.5939131342" lon="-8.6423850618">
        <ele>65.99</ele>
        <time>2021-05-29T09:48:05Z</time>
      </trkpt>
      <trkpt lat="37.5938983820" lon="-8.6424436513">
        <ele>66.47</ele>
        <time>2021-05-29T09:48:06Z</time>
      </trkpt>
      <trkpt lat="37.5938949455" lon="-8.6425048392">
        <ele>67.43</ele>
        <time>2021-05-29T09:48:07Z</time>
      </trkpt>
      <trkpt lat="37.5939005613" lon="-8.6425679550">
        <ele>67.91</ele>
        <time>2021-05-29T09:48:08Z</time>
      </trkpt>
      <trkpt lat="37.5939046685" lon="-8.6426325794">
        <ele>68.39</ele>
        <time>2021-05-29T09:48:09Z</time>
      </trkpt>
      <trkpt lat="37.5938973762" lon="-8.6426884029">
        <ele>68.87</ele>
        <time>2021-05-29T09:48:10Z</time>
      </trkpt>
      <trkpt lat="37.5938817859" lon="-8.6427236069">
        <ele>69.35</ele>
        <time>2021-05-29T09:48:11Z</time>
      </trkpt>
      <trkpt lat="37.5938617531" lon="-8.6427342519">
        <ele>69.83</ele>
        <time>2021-05-29T09:48:12Z</time>
      </trkpt>
      <trkpt lat="37.5938228611" lon="-8.6427050829">
        <ele>69.35</ele>
        <time>2021-05-29T09:48:14Z</time>
      </trkpt>
      <trkpt lat="37.5938136410" lon="-8.6426680349">
        <ele>69.35</ele>
        <time>2021-05-29T09:48:15Z</time>
      </trkpt>
      <trkpt lat="37.5938172452" lon="-8.6426143907">
        <ele>68.87</ele>
        <time>2021-05-29T09:48:16Z</time>
      </trkpt>
      <trkpt lat="37.5938386191" lon="-8.6425438151">
        <ele>68.87</ele>
        <time>2021-05-29T09:48:17Z</time>
      </trkpt>
      <trkpt lat="37.5938745774" lon="-8.6424687970">
        <ele>68.87</ele>
        <time>2021-05-29T09:48:18Z</time>
      </trkpt>
      <trkpt lat="37.5939120445" lon="-8.6423987243">
        <ele>67.91</ele>
        <time>2021-05-29T09:48:19Z</time>
      </trkpt>
      <trkpt lat="37.5939810276" lon="-8.6422688887">
        <ele>66.95</ele>
        <time>2021-05-29T09:48:21Z</time>
      </trkpt>
      <trkpt lat="37.5940150581" lon="-8.6422126461">
        <ele>65.51</ele>
        <time>2021-05-29T09:48:22Z</time>
      </trkpt>
      <trkpt lat="37.5940571353" lon="-8.6421625223">
        <ele>65.03</ele>
        <time>2021-05-29T09:48:23Z</time>
      </trkpt>
      <trkpt lat="37.5941531919" lon="-8.6420638673">
        <ele>63.10</ele>
        <time>2021-05-29T09:48:25Z</time>
      </trkpt>
      <trkpt lat="37.5941924192" lon="-8.6420118157">
        <ele>62.62</ele>
        <time>2021-05-29T09:48:26Z</time>
      </trkpt>
      <trkpt lat="37.5942301378" lon="-8.6419616081">
        <ele>62.14</ele>
        <time>2021-05-29T09:48:27Z</time>
      </trkpt>
      <trkpt lat="37.5942759868" lon="-8.6419167649">
        <ele>61.66</ele>
        <time>2021-05-29T09:48:28Z</time>
      </trkpt>
      <trkpt lat="37.5943251047" lon="-8.6418746039">
        <ele>60.70</ele>
        <time>2021-05-29T09:48:29Z</time>
      </trkpt>
      <trkpt lat="37.5943694450" lon="-8.6418370530">
        <ele>60.70</ele>
        <time>2021-05-29T09:48:30Z</time>
      </trkpt>
      <trkpt lat="37.5944386795" lon="-8.6417613644">
        <ele>59.74</ele>
        <time>2021-05-29T09:48:32Z</time>
      </trkpt>
      <trkpt lat="37.5944568682" lon="-8.6417180300">
        <ele>59.26</ele>
        <time>2021-05-29T09:48:33Z</time>
      </trkpt>
      <trkpt lat="37.5944627356" lon="-8.6416725162">
        <ele>59.26</ele>
        <time>2021-05-29T09:48:34Z</time>
      </trkpt>
      <trkpt lat="37.5944546890" lon="-8.6416280083">
        <ele>58.30</ele>
        <time>2021-05-29T09:48:35Z</time>
      </trkpt>
      <trkpt lat="37.5944351591" lon="-8.6415877752">
        <ele>58.78</ele>
        <time>2021-05-29T09:48:36Z</time>
      </trkpt>
      <trkpt lat="37.5944127794" lon="-8.6415452790">
        <ele>58.78</ele>
        <time>2021-05-29T09:48:37Z</time>
      </trkpt>
      <trkpt lat="37.5943255238" lon="-8.6414022837">
        <ele>60.22</ele>
        <time>2021-05-29T09:48:42Z</time>
      </trkpt>
      <trkpt lat="37.5943069160" lon="-8.6413451191">
        <ele>60.22</ele>
        <time>2021-05-29T09:48:43Z</time>
      </trkpt>
      <trkpt lat="37.5942966063" lon="-8.6412672512">
        <ele>61.66</ele>
        <time>2021-05-29T09:48:44Z</time>
      </trkpt>
      <trkpt lat="37.5942899846" lon="-8.6408858746">
        <ele>65.03</ele>
        <time>2021-05-29T09:48:48Z</time>
      </trkpt>
      <trkpt lat="37.5942877214" lon="-8.6407981161">
        <ele>65.51</ele>
        <time>2021-05-29T09:48:49Z</time>
      </trkpt>
      <trkpt lat="37.5942658447" lon="-8.6403935216">
        <ele>66.47</ele>
        <time>2021-05-29T09:48:54Z</time>
      </trkpt>
      <trkpt lat="37.5942415372" lon="-8.6403394584">
        <ele>66.47</ele>
        <time>2021-05-29T09:48:55Z</time>
      </trkpt>
      <trkpt lat="37.5941719674" lon="-8.6402318347">
        <ele>66.47</ele>
        <time>2021-05-29T09:48:57Z</time>
      </trkpt>
      <trkpt lat="37.5936833862" lon="-8.6396169383">
        <ele>68.87</ele>
        <time>2021-05-29T09:49:08Z</time>
      </trkpt>
      <trkpt lat="37.5934870820" lon="-8.6393893696">
        <ele>67.91</ele>
        <time>2021-05-29T09:49:13Z</time>
      </trkpt>
      <trkpt lat="37.5933708251" lon="-8.6392941512">
        <ele>65.03</ele>
        <time>2021-05-29T09:49:16Z</time>
      </trkpt>
      <trkpt lat="37.5933385547" lon="-8.6392642278">
        <ele>64.55</ele>
        <time>2021-05-29T09:49:17Z</time>
      </trkpt>
      <trkpt lat="37.5932720862" lon="-8.6391979270">
        <ele>63.10</ele>
        <time>2021-05-29T09:49:19Z</time>
      </trkpt>
      <trkpt lat="37.5932461023" lon="-8.6391615495">
        <ele>63.10</ele>
        <time>2021-05-29T09:49:20Z</time>
      </trkpt>
      <trkpt lat="37.5932316016" lon="-8.6391266808">
        <ele>62.14</ele>
        <time>2021-05-29T09:49:21Z</time>
      </trkpt>
      <trkpt lat="37.5932270754" lon="-8.6391003616">
        <ele>62.14</ele>
        <time>2021-05-29T09:49:22Z</time>
      </trkpt>
      <trkpt lat="37.5932704099" lon="-8.6390881240">
        <ele>61.66</ele>
        <time>2021-05-29T09:49:28Z</time>
      </trkpt>
      <trkpt lat="37.5933027640" lon="-8.6391038820">
        <ele>61.66</ele>
        <time>2021-05-29T09:49:29Z</time>
      </trkpt>
      <trkpt lat="37.5936249644" lon="-8.6392171215">
        <ele>57.34</ele>
        <time>2021-05-29T09:49:34Z</time>
      </trkpt>
      <trkpt lat="37.5937510282" lon="-8.6392438598">
        <ele>55.41</ele>
        <time>2021-05-29T09:49:36Z</time>
      </trkpt>
      <trkpt lat="37.5938074384" lon="-8.6392348073">
        <ele>53.97</ele>
        <time>2021-05-29T09:49:37Z</time>
      </trkpt>
      <trkpt lat="37.5938510243" lon="-8.6392056383">
        <ele>53.49</ele>
        <time>2021-05-29T09:49:38Z</time>
      </trkpt>
      <trkpt lat="37.5938768405" lon="-8.6391574424">
        <ele>53.01</ele>
        <time>2021-05-29T09:49:39Z</time>
      </trkpt>
      <trkpt lat="37.5938976277" lon="-8.6391172931">
        <ele>51.57</ele>
        <time>2021-05-29T09:49:40Z</time>
      </trkpt>
      <trkpt lat="37.5939150620" lon="-8.6390882079">
        <ele>52.05</ele>
        <time>2021-05-29T09:49:41Z</time>
      </trkpt>
      <trkpt lat="37.5939284731" lon="-8.6390704382">
        <ele>51.57</ele>
        <time>2021-05-29T09:49:42Z</time>
      </trkpt>
      <trkpt lat="37.5939759985" lon="-8.6389603838">
        <ele>53.49</ele>
        <time>2021-05-29T09:49:47Z</time>
      </trkpt>
      <trkpt lat="37.5939600728" lon="-8.6389079969">
        <ele>53.49</ele>
        <time>2021-05-29T09:49:48Z</time>
      </trkpt>
      <trkpt lat="37.5939399563" lon="-8.6388453841">
        <ele>54.45</ele>
        <time>2021-05-29T09:49:49Z</time>
      </trkpt>
      <trkpt lat="37.5939262100" lon="-8.6387771554">
        <ele>55.41</ele>
        <time>2021-05-29T09:49:50Z</time>
      </trkpt>
      <trkpt lat="37.5939181633" lon="-8.6387054902">
        <ele>54.93</ele>
        <time>2021-05-29T09:49:51Z</time>
      </trkpt>
      <trkpt lat="37.5938993040" lon="-8.6385567114">
        <ele>55.89</ele>
        <time>2021-05-29T09:49:53Z</time>
      </trkpt>
      <trkpt lat="37.5938714761" lon="-8.6384837888">
        <ele>54.93</ele>
        <time>2021-05-29T09:49:54Z</time>
      </trkpt>
      <trkpt lat="37.5938325003" lon="-8.6384190805">
        <ele>54.45</ele>
        <time>2021-05-29T09:49:55Z</time>
      </trkpt>
      <trkpt lat="37.5937880762" lon="-8.6383655202">
        <ele>53.97</ele>
        <time>2021-05-29T09:49:56Z</time>
      </trkpt>
      <trkpt lat="37.5937411375" lon="-8.6383198388">
        <ele>53.49</ele>
        <time>2021-05-29T09:49:57Z</time>
      </trkpt>
      <trkpt lat="37.5937012397" lon="-8.6382794380">
        <ele>52.53</ele>
        <time>2021-05-29T09:49:58Z</time>
      </trkpt>
      <trkpt lat="37.5936693884" lon="-8.6382462457">
        <ele>52.53</ele>
        <time>2021-05-29T09:49:59Z</time>
      </trkpt>
      <trkpt lat="37.5936484337" lon="-8.6382310744">
        <ele>52.05</ele>
        <time>2021-05-29T09:50:00Z</time>
      </trkpt>
      <trkpt lat="37.5935135689" lon="-8.6381352693">
        <ele>53.01</ele>
        <time>2021-05-29T09:50:09Z</time>
      </trkpt>
      <trkpt lat="37.5934451725" lon="-8.6380839720">
        <ele>53.97</ele>
        <time>2021-05-29T09:50:10Z</time>
      </trkpt>
      <trkpt lat="37.5933827274" lon="-8.6380241252">
        <ele>54.93</ele>
        <time>2021-05-29T09:50:11Z</time>
      </trkpt>
      <trkpt lat="37.5933384709" lon="-8.6379637755">
        <ele>55.89</ele>
        <time>2021-05-29T09:50:12Z</time>
      </trkpt>
      <trkpt lat="37.5933191087" lon="-8.6379067786">
        <ele>56.86</ele>
        <time>2021-05-29T09:50:13Z</time>
      </trkpt>
      <trkpt lat="37.5933227129" lon="-8.6378645338">
        <ele>57.82</ele>
        <time>2021-05-29T09:50:14Z</time>
      </trkpt>
      <trkpt lat="37.5933446735" lon="-8.6378363706">
        <ele>57.82</ele>
        <time>2021-05-29T09:50:15Z</time>
      </trkpt>
      <trkpt lat="37.5933880918" lon="-8.6378131527">
        <ele>59.74</ele>
        <time>2021-05-29T09:50:16Z</time>
      </trkpt>
      <trkpt lat="37.5934500340" lon="-8.6377906892">
        <ele>61.18</ele>
        <time>2021-05-29T09:50:17Z</time>
      </trkpt>
      <trkpt lat="37.5935268123" lon="-8.6377709080">
        <ele>63.58</ele>
        <time>2021-05-29T09:50:18Z</time>
      </trkpt>
      <trkpt lat="37.5936155766" lon="-8.6377562396">
        <ele>65.99</ele>
        <time>2021-05-29T09:50:19Z</time>
      </trkpt>
      <trkpt lat="37.5937056821" lon="-8.6377455108">
        <ele>68.87</ele>
        <time>2021-05-29T09:50:20Z</time>
      </trkpt>
      <trkpt lat="37.5939369388" lon="-8.6377165094">
        <ele>72.24</ele>
        <time>2021-05-29T09:50:23Z</time>
      </trkpt>
      <trkpt lat="37.5940636732" lon="-8.6376841553">
        <ele>75.60</ele>
        <time>2021-05-29T09:50:25Z</time>
      </trkpt>
      <trkpt lat="37.5941209216" lon="-8.6376602668">
        <ele>77.04</ele>
        <time>2021-05-29T09:50:26Z</time>
      </trkpt>
      <trkpt lat="37.5941734761" lon="-8.6376329418">
        <ele>78.00</ele>
        <time>2021-05-29T09:50:27Z</time>
      </trkpt>
      <trkpt lat="37.5942264497" lon="-8.6376035213">
        <ele>78.48</ele>
        <time>2021-05-29T09:50:28Z</time>
      </trkpt>
      <trkpt lat="37.5942869671" lon="-8.6375779565">
        <ele>78.48</ele>
        <time>2021-05-29T09:50:29Z</time>
      </trkpt>
      <trkpt lat="37.5943605602" lon="-8.6375543196">
        <ele>78.97</ele>
        <time>2021-05-29T09:50:30Z</time>
      </trkpt>
      <trkpt lat="37.5949766301" lon="-8.6374411639">
        <ele>76.56</ele>
        <time>2021-05-29T09:50:37Z</time>
      </trkpt>
      <trkpt lat="37.5950581860" lon="-8.6374069657">
        <ele>77.04</ele>
        <time>2021-05-29T09:50:38Z</time>
      </trkpt>
      <trkpt lat="37.5951252412" lon="-8.6373538245">
        <ele>76.08</ele>
        <time>2021-05-29T09:50:39Z</time>
      </trkpt>
      <trkpt lat="37.5951735210" lon="-8.6372910440">
        <ele>75.12</ele>
        <time>2021-05-29T09:50:40Z</time>
      </trkpt>
      <trkpt lat="37.5952110719" lon="-8.6372323707">
        <ele>74.64</ele>
        <time>2021-05-29T09:50:41Z</time>
      </trkpt>
      <trkpt lat="37.5952453539" lon="-8.6371799838">
        <ele>74.16</ele>
        <time>2021-05-29T09:50:42Z</time>
      </trkpt>
      <trkpt lat="37.5952865928" lon="-8.6371309496">
        <ele>73.68</ele>
        <time>2021-05-29T09:50:43Z</time>
      </trkpt>
      <trkpt lat="37.5953359623" lon="-8.6370731145">
        <ele>73.68</ele>
        <time>2021-05-29T09:50:44Z</time>
      </trkpt>
      <trkpt lat="37.5956142414" lon="-8.6366308853">
        <ele>75.12</ele>
        <time>2021-05-29T09:50:52Z</time>
      </trkpt>
      <trkpt lat="37.5957032572" lon="-8.6364764906">
        <ele>76.56</ele>
        <time>2021-05-29T09:50:54Z</time>
      </trkpt>
      <trkpt lat="37.5958802830" lon="-8.6361741554">
        <ele>79.45</ele>
        <time>2021-05-29T09:50:57Z</time>
      </trkpt>
      <trkpt lat="37.5959404651" lon="-8.6360527016">
        <ele>79.45</ele>
        <time>2021-05-29T09:50:58Z</time>
      </trkpt>
      <trkpt lat="37.5960579794" lon="-8.6358418968">
        <ele>79.93</ele>
        <time>2021-05-29T09:51:00Z</time>
      </trkpt>
      <trkpt lat="37.5961274654" lon="-8.6357574910">
        <ele>79.93</ele>
        <time>2021-05-29T09:51:01Z</time>
      </trkpt>
      <trkpt lat="37.5962049980" lon="-8.6356928665">
        <ele>78.97</ele>
        <time>2021-05-29T09:51:02Z</time>
      </trkpt>
      <trkpt lat="37.5962846261" lon="-8.6356500350">
        <ele>78.48</ele>
        <time>2021-05-29T09:51:03Z</time>
      </trkpt>
      <trkpt lat="37.5963713787" lon="-8.6356169265">
        <ele>76.56</ele>
        <time>2021-05-29T09:51:04Z</time>
      </trkpt>
      <trkpt lat="37.5964631606" lon="-8.6355912779">
        <ele>76.08</ele>
        <time>2021-05-29T09:51:05Z</time>
      </trkpt>
      <trkpt lat="37.5965516735" lon="-8.6355691496">
        <ele>75.60</ele>
        <time>2021-05-29T09:51:06Z</time>
      </trkpt>
      <trkpt lat="37.5966323912" lon="-8.6355486978">
        <ele>72.24</ele>
        <time>2021-05-29T09:51:07Z</time>
      </trkpt>
      <trkpt lat="37.5967048947" lon="-8.6355297547">
        <ele>71.27</ele>
        <time>2021-05-29T09:51:08Z</time>
      </trkpt>
      <trkpt lat="37.5967695192" lon="-8.6355103087">
        <ele>69.35</ele>
        <time>2021-05-29T09:51:09Z</time>
      </trkpt>
      <trkpt lat="37.5968260970" lon="-8.6354851630">
        <ele>68.87</ele>
        <time>2021-05-29T09:51:10Z</time>
      </trkpt>
      <trkpt lat="37.5968688447" lon="-8.6354480311">
        <ele>67.43</ele>
        <time>2021-05-29T09:51:11Z</time>
      </trkpt>
      <trkpt lat="37.5968846865" lon="-8.6354049481">
        <ele>67.91</ele>
        <time>2021-05-29T09:51:12Z</time>
      </trkpt>
      <trkpt lat="37.5968743768" lon="-8.6353592668">
        <ele>67.43</ele>
        <time>2021-05-29T09:51:13Z</time>
      </trkpt>
      <trkpt lat="37.5968429446" lon="-8.6353164352">
        <ele>66.47</ele>
        <time>2021-05-29T09:51:14Z</time>
      </trkpt>
      <trkpt lat="37.5967846066" lon="-8.6352761183">
        <ele>65.99</ele>
        <time>2021-05-29T09:51:15Z</time>
      </trkpt>
      <trkpt lat="37.5967127737" lon="-8.6352363881">
        <ele>65.99</ele>
        <time>2021-05-29T09:51:16Z</time>
      </trkpt>
      <trkpt lat="37.5965515058" lon="-8.6351285130">
        <ele>65.51</ele>
        <time>2021-05-29T09:51:18Z</time>
      </trkpt>
      <trkpt lat="37.5964766555" lon="-8.6350630503">
        <ele>64.55</ele>
        <time>2021-05-29T09:51:19Z</time>
      </trkpt>
      <trkpt lat="37.5964061636" lon="-8.6349860206">
        <ele>63.58</ele>
        <time>2021-05-29T09:51:20Z</time>
      </trkpt>
      <trkpt lat="37.5963470712" lon="-8.6348981783">
        <ele>64.07</ele>
        <time>2021-05-29T09:51:21Z</time>
      </trkpt>
      <trkpt lat="37.5962933432" lon="-8.6348029599">
        <ele>62.62</ele>
        <time>2021-05-29T09:51:22Z</time>
      </trkpt>
      <trkpt lat="37.5961853005" lon="-8.6346073262">
        <ele>61.18</ele>
        <time>2021-05-29T09:51:24Z</time>
      </trkpt>
      <trkpt lat="37.5960657746" lon="-8.6344011314">
        <ele>61.18</ele>
        <time>2021-05-29T09:51:26Z</time>
      </trkpt>
      <trkpt lat="37.5957146566" lon="-8.6337242927">
        <ele>57.82</ele>
        <time>2021-05-29T09:51:31Z</time>
      </trkpt>
      <trkpt lat="37.5956463441" lon="-8.6335867457">
        <ele>56.37</ele>
        <time>2021-05-29T09:51:32Z</time>
      </trkpt>
      <trkpt lat="37.5955801271" lon="-8.6334537249">
        <ele>54.93</ele>
        <time>2021-05-29T09:51:33Z</time>
      </trkpt>
      <trkpt lat="37.5954692345" lon="-8.6331933830">
        <ele>53.49</ele>
        <time>2021-05-29T09:51:35Z</time>
      </trkpt>
      <trkpt lat="37.5954318512" lon="-8.6330568418">
        <ele>52.05</ele>
        <time>2021-05-29T09:51:36Z</time>
      </trkpt>
      <trkpt lat="37.5954093039" lon="-8.6329112481">
        <ele>51.57</ele>
        <time>2021-05-29T09:51:37Z</time>
      </trkpt>
      <trkpt lat="37.5952953938" lon="-8.6321446393">
        <ele>49.65</ele>
        <time>2021-05-29T09:51:42Z</time>
      </trkpt>
      <trkpt lat="37.5952462759" lon="-8.6320060864">
        <ele>49.16</ele>
        <time>2021-05-29T09:51:43Z</time>
      </trkpt>
      <trkpt lat="37.5951966550" lon="-8.6318828724">
        <ele>49.16</ele>
        <time>2021-05-29T09:51:44Z</time>
      </trkpt>
      <trkpt lat="37.5951090641" lon="-8.6316912621">
        <ele>47.24</ele>
        <time>2021-05-29T09:51:46Z</time>
      </trkpt>
      <trkpt lat="37.5950758718" lon="-8.6316350196">
        <ele>47.24</ele>
        <time>2021-05-29T09:51:47Z</time>
      </trkpt>
      <trkpt lat="37.5950341299" lon="-8.6315490212">
        <ele>47.72</ele>
        <time>2021-05-29T09:51:54Z</time>
      </trkpt>
      <trkpt lat="37.5950525701" lon="-8.6315910146">
        <ele>48.20</ele>
        <time>2021-05-29T09:52:29Z</time>
      </trkpt>
      <trkpt lat="37.5950559229" lon="-8.6315940320">
        <ele>48.20</ele>
        <time>2021-05-29T09:53:00Z</time>
      </trkpt>
      <trkpt lat="37.5950626284" lon="-8.6315857340">
        <ele>48.20</ele>
        <time>2021-05-29T09:53:32Z</time>
      </trkpt>
      <trkpt lat="37.5950612873" lon="-8.6315828841">
        <ele>48.20</ele>
        <time>2021-05-29T09:53:33Z</time>
      </trkpt>
      <trkpt lat="37.5950438529" lon="-8.6315919366">
        <ele>48.20</ele>
        <time>2021-05-29T09:53:59Z</time>
      </trkpt>
      <trkpt lat="37.5950762071" lon="-8.6316021625">
        <ele>49.16</ele>
        <time>2021-05-29T09:54:46Z</time>
      </trkpt>
      <trkpt lat="37.5950869359" lon="-8.6315776035">
        <ele>49.65</ele>
        <time>2021-05-29T09:55:28Z</time>
      </trkpt>
      <trkpt lat="37.5950700045" lon="-8.6315718200">
        <ele>49.65</ele>
        <time>2021-05-29T09:55:38Z</time>
      </trkpt>
      <trkpt lat="37.5950586889" lon="-8.6315165833">
        <ele>50.13</ele>
        <time>2021-05-29T09:55:40Z</time>
      </trkpt>
      <trkpt lat="37.5950549170" lon="-8.6314168386">
        <ele>51.09</ele>
        <time>2021-05-29T09:55:42Z</time>
      </trkpt>
      <trkpt lat="37.5950365607" lon="-8.6313399766">
        <ele>51.09</ele>
        <time>2021-05-29T09:55:43Z</time>
      </trkpt>
      <trkpt lat="37.5949853472" lon="-8.6311300099">
        <ele>51.57</ele>
        <time>2021-05-29T09:55:45Z</time>
      </trkpt>
      <trkpt lat="37.5949700922" lon="-8.6310025211">
        <ele>52.05</ele>
        <time>2021-05-29T09:55:46Z</time>
      </trkpt>
      <trkpt lat="37.5949625485" lon="-8.6308795586">
        <ele>51.57</ele>
        <time>2021-05-29T09:55:47Z</time>
      </trkpt>
      <trkpt lat="37.5949593633" lon="-8.6307661515">
        <ele>50.61</ele>
        <time>2021-05-29T09:55:48Z</time>
      </trkpt>
      <trkpt lat="37.5949606206" lon="-8.6306652334">
        <ele>50.13</ele>
        <time>2021-05-29T09:55:49Z</time>
      </trkpt>
      <trkpt lat="37.5949659012" lon="-8.6305784807">
        <ele>49.65</ele>
        <time>2021-05-29T09:55:50Z</time>
      </trkpt>
      <trkpt lat="37.5950787216" lon="-8.6300756503">
        <ele>53.01</ele>
        <time>2021-05-29T09:55:55Z</time>
      </trkpt>
      <trkpt lat="37.5951325335" lon="-8.6299568787">
        <ele>53.97</ele>
        <time>2021-05-29T09:55:56Z</time>
      </trkpt>
      <trkpt lat="37.5953324419" lon="-8.6295607500">
        <ele>58.30</ele>
        <time>2021-05-29T09:55:59Z</time>
      </trkpt>
      <trkpt lat="37.5955510419" lon="-8.6291128211">
        <ele>54.45</ele>
        <time>2021-05-29T09:56:02Z</time>
      </trkpt>
      <trkpt lat="37.5957091246" lon="-8.6286686640">
        <ele>49.16</ele>
        <time>2021-05-29T09:56:05Z</time>
      </trkpt>
      <trkpt lat="37.5957121421" lon="-8.6285295244">
        <ele>48.20</ele>
        <time>2021-05-29T09:56:06Z</time>
      </trkpt>
      <trkpt lat="37.5956851523" lon="-8.6283976771">
        <ele>47.24</ele>
        <time>2021-05-29T09:56:07Z</time>
      </trkpt>
      <trkpt lat="37.5956320949" lon="-8.6282816716">
        <ele>46.76</ele>
        <time>2021-05-29T09:56:08Z</time>
      </trkpt>
      <trkpt lat="37.5955471024" lon="-8.6281779874">
        <ele>46.28</ele>
        <time>2021-05-29T09:56:09Z</time>
      </trkpt>
      <trkpt lat="37.5954398140" lon="-8.6280764826">
        <ele>46.76</ele>
        <time>2021-05-29T09:56:10Z</time>
      </trkpt>
      <trkpt lat="37.5953192823" lon="-8.6279675178">
        <ele>47.24</ele>
        <time>2021-05-29T09:56:11Z</time>
      </trkpt>
      <trkpt lat="37.5951272529" lon="-8.6277882289">
        <ele>48.20</ele>
        <time>2021-05-29T09:56:12Z</time>
      </trkpt>
      <trkpt lat="37.5946832635" lon="-8.6273713969">
        <ele>45.32</ele>
        <time>2021-05-29T09:56:16Z</time>
      </trkpt>
      <trkpt lat="37.5939000584" lon="-8.6264470406">
        <ele>40.99</ele>
        <time>2021-05-29T09:56:23Z</time>
      </trkpt>
      <trkpt lat="37.5938266329" lon="-8.6262606271">
        <ele>38.59</ele>
        <time>2021-05-29T09:56:24Z</time>
      </trkpt>
      <trkpt lat="37.5937800296" lon="-8.6260554381">
        <ele>37.15</ele>
        <time>2021-05-29T09:56:25Z</time>
      </trkpt>
      <trkpt lat="37.5937057659" lon="-8.6254168209">
        <ele>33.78</ele>
        <time>2021-05-29T09:56:28Z</time>
      </trkpt>
      <trkpt lat="37.5936851464" lon="-8.6252093688">
        <ele>34.26</ele>
        <time>2021-05-29T09:56:29Z</time>
      </trkpt>
      <trkpt lat="37.5936080329" lon="-8.6245151795">
        <ele>32.82</ele>
        <time>2021-05-29T09:56:33Z</time>
      </trkpt>
      <trkpt lat="37.5936102122" lon="-8.6243817396">
        <ele>31.38</ele>
        <time>2021-05-29T09:56:34Z</time>
      </trkpt>
      <trkpt lat="37.5936387107" lon="-8.6242589448">
        <ele>29.94</ele>
        <time>2021-05-29T09:56:35Z</time>
      </trkpt>
      <trkpt lat="37.5937011559" lon="-8.6241444480">
        <ele>29.94</ele>
        <time>2021-05-29T09:56:36Z</time>
      </trkpt>
      <trkpt lat="37.5937900040" lon="-8.6240355670">
        <ele>29.46</ele>
        <time>2021-05-29T09:56:37Z</time>
      </trkpt>
      <trkpt lat="37.5938925147" lon="-8.6239260156">
        <ele>29.46</ele>
        <time>2021-05-29T09:56:38Z</time>
      </trkpt>
      <trkpt lat="37.5943190698" lon="-8.6234645080">
        <ele>28.50</ele>
        <time>2021-05-29T09:56:42Z</time>
      </trkpt>
      <trkpt lat="37.5945848599" lon="-8.6231070198">
        <ele>23.69</ele>
        <time>2021-05-29T09:56:45Z</time>
      </trkpt>
      <trkpt lat="37.5946965907" lon="-8.6229558103">
        <ele>20.81</ele>
        <time>2021-05-29T09:56:47Z</time>
      </trkpt>
      <trkpt lat="37.5947401766" lon="-8.6228952929">
        <ele>20.81</ele>
        <time>2021-05-29T09:56:48Z</time>
      </trkpt>
      <trkpt lat="37.5950607844" lon="-8.6224223860">
        <ele>24.65</ele>
        <time>2021-05-29T09:56:53Z</time>
      </trkpt>
      <trkpt lat="37.5951376464" lon="-8.6223062128">
        <ele>24.65</ele>
        <time>2021-05-29T09:56:54Z</time>
      </trkpt>
      <trkpt lat="37.5953846611" lon="-8.6219408456">
        <ele>26.57</ele>
        <time>2021-05-29T09:56:57Z</time>
      </trkpt>
      <trkpt lat="37.5956160855" lon="-8.6215854529">
        <ele>28.02</ele>
        <time>2021-05-29T09:57:00Z</time>
      </trkpt>
      <trkpt lat="37.5959487632" lon="-8.6210548785">
        <ele>29.46</ele>
        <time>2021-05-29T09:57:04Z</time>
      </trkpt>
      <trkpt lat="37.5970267598" lon="-8.6193961836">
        <ele>28.50</ele>
        <time>2021-05-29T09:57:14Z</time>
      </trkpt>
      <trkpt lat="37.5973430928" lon="-8.6189196724">
        <ele>26.57</ele>
        <time>2021-05-29T09:57:17Z</time>
      </trkpt>
      <trkpt lat="37.5977980625" lon="-8.6182084680">
        <ele>24.17</ele>
        <time>2021-05-29T09:57:22Z</time>
      </trkpt>
      <trkpt lat="37.5978481863" lon="-8.6180663109">
        <ele>23.21</ele>
        <time>2021-05-29T09:57:23Z</time>
      </trkpt>
      <trkpt lat="37.5978717394" lon="-8.6179234833">
        <ele>23.21</ele>
        <time>2021-05-29T09:57:24Z</time>
      </trkpt>
      <trkpt lat="37.5978597533" lon="-8.6177751236">
        <ele>23.69</ele>
        <time>2021-05-29T09:57:25Z</time>
      </trkpt>
      <trkpt lat="37.5978217833" lon="-8.6176147778">
        <ele>25.13</ele>
        <time>2021-05-29T09:57:26Z</time>
      </trkpt>
      <trkpt lat="37.5977590028" lon="-8.6174445413">
        <ele>25.13</ele>
        <time>2021-05-29T09:57:27Z</time>
      </trkpt>
      <trkpt lat="37.5976802967" lon="-8.6172628216">
        <ele>26.09</ele>
        <time>2021-05-29T09:57:28Z</time>
      </trkpt>
      <trkpt lat="37.5972919632" lon="-8.6163739208">
        <ele>25.61</ele>
        <time>2021-05-29T09:57:33Z</time>
      </trkpt>
      <trkpt lat="37.5972494669" lon="-8.6162148323">
        <ele>24.65</ele>
        <time>2021-05-29T09:57:34Z</time>
      </trkpt>
      <trkpt lat="37.5972287636" lon="-8.6160483677">
        <ele>25.13</ele>
        <time>2021-05-29T09:57:35Z</time>
      </trkpt>
      <trkpt lat="37.5972346310" lon="-8.6158786342">
        <ele>26.57</ele>
        <time>2021-05-29T09:57:36Z</time>
      </trkpt>
      <trkpt lat="37.5972746965" lon="-8.6157156061">
        <ele>26.09</ele>
        <time>2021-05-29T09:57:37Z</time>
      </trkpt>
      <trkpt lat="37.5973485410" lon="-8.6155645642">
        <ele>26.57</ele>
        <time>2021-05-29T09:57:38Z</time>
      </trkpt>
      <trkpt lat="37.5974487886" lon="-8.6154209822">
        <ele>28.02</ele>
        <time>2021-05-29T09:57:39Z</time>
      </trkpt>
      <trkpt lat="37.5975701585" lon="-8.6152851954">
        <ele>30.90</ele>
        <time>2021-05-29T09:57:40Z</time>
      </trkpt>
      <trkpt lat="37.5977039337" lon="-8.6151520070">
        <ele>32.34</ele>
        <time>2021-05-29T09:57:41Z</time>
      </trkpt>
      <trkpt lat="37.5982716400" lon="-8.6145920958">
        <ele>35.71</ele>
        <time>2021-05-29T09:57:45Z</time>
      </trkpt>
      <trkpt lat="37.5988219120" lon="-8.6140422430">
        <ele>34.74</ele>
        <time>2021-05-29T09:57:49Z</time>
      </trkpt>
      <trkpt lat="37.5996758603" lon="-8.6131478939">
        <ele>34.26</ele>
        <time>2021-05-29T09:57:55Z</time>
      </trkpt>
      <trkpt lat="37.5997861661" lon="-8.6129779927">
        <ele>33.30</ele>
        <time>2021-05-29T09:57:56Z</time>
      </trkpt>
      <trkpt lat="37.5998773612" lon="-8.6127931718">
        <ele>33.78</ele>
        <time>2021-05-29T09:57:57Z</time>
      </trkpt>
      <trkpt lat="37.5999451708" lon="-8.6125933472">
        <ele>35.71</ele>
        <time>2021-05-29T09:57:58Z</time>
      </trkpt>
      <trkpt lat="37.5999996532" lon="-8.6123830453">
        <ele>35.71</ele>
        <time>2021-05-29T09:57:59Z</time>
      </trkpt>
      <trkpt lat="37.6000435743" lon="-8.6121657025">
        <ele>36.67</ele>
        <time>2021-05-29T09:58:00Z</time>
      </trkpt>
      <trkpt lat="37.6001858152" lon="-8.6115827411">
        <ele>36.19</ele>
        <time>2021-05-29T09:58:03Z</time>
      </trkpt>
      <trkpt lat="37.6002607495" lon="-8.6114420090">
        <ele>36.19</ele>
        <time>2021-05-29T09:58:04Z</time>
      </trkpt>
      <trkpt lat="37.6003538724" lon="-8.6113338824">
        <ele>34.26</ele>
        <time>2021-05-29T09:58:05Z</time>
      </trkpt>
      <trkpt lat="37.6004698779" lon="-8.6112569366">
        <ele>34.26</ele>
        <time>2021-05-29T09:58:06Z</time>
      </trkpt>
      <trkpt lat="37.6006013900" lon="-8.6112070642">
        <ele>35.71</ele>
        <time>2021-05-29T09:58:07Z</time>
      </trkpt>
      <trkpt lat="37.6007468160" lon="-8.6111853551">
        <ele>36.67</ele>
        <time>2021-05-29T09:58:08Z</time>
      </trkpt>
      <trkpt lat="37.6009081677" lon="-8.6111891270">
        <ele>39.07</ele>
        <time>2021-05-29T09:58:09Z</time>
      </trkpt>
      <trkpt lat="37.6010841876" lon="-8.6112060584">
        <ele>40.03</ele>
        <time>2021-05-29T09:58:10Z</time>
      </trkpt>
      <trkpt lat="37.6012639794" lon="-8.6112276837">
        <ele>41.47</ele>
        <time>2021-05-29T09:58:11Z</time>
      </trkpt>
      <trkpt lat="37.6020487770" lon="-8.6112791486">
        <ele>38.11</ele>
        <time>2021-05-29T09:58:16Z</time>
      </trkpt>
      <trkpt lat="37.6022181753" lon="-8.6112493929">
        <ele>39.07</ele>
        <time>2021-05-29T09:58:17Z</time>
      </trkpt>
      <trkpt lat="37.6023844723" lon="-8.6111991853">
        <ele>38.11</ele>
        <time>2021-05-29T09:58:18Z</time>
      </trkpt>
      <trkpt lat="37.6025429741" lon="-8.6111359857">
        <ele>37.63</ele>
        <time>2021-05-29T09:58:19Z</time>
      </trkpt>
      <trkpt lat="37.6026975363" lon="-8.6110637337">
        <ele>37.15</ele>
        <time>2021-05-29T09:58:20Z</time>
      </trkpt>
      <trkpt lat="37.6036445238" lon="-8.6106334068">
        <ele>36.67</ele>
        <time>2021-05-29T09:58:26Z</time>
      </trkpt>
      <trkpt lat="37.6050039846" lon="-8.6100301612">
        <ele>40.03</ele>
        <time>2021-05-29T09:58:34Z</time>
      </trkpt>
      <trkpt lat="37.6062995754" lon="-8.6094559170">
        <ele>43.88</ele>
        <time>2021-05-29T09:58:41Z</time>
      </trkpt>
      <trkpt lat="37.6068889908" lon="-8.6091962457">
        <ele>45.32</ele>
        <time>2021-05-29T09:58:44Z</time>
      </trkpt>
      <trkpt lat="37.6074980199" lon="-8.6089181341">
        <ele>48.68</ele>
        <time>2021-05-29T09:58:47Z</time>
      </trkpt>
      <trkpt lat="37.6093411166" lon="-8.6080821231">
        <ele>51.57</ele>
        <time>2021-05-29T09:58:56Z</time>
      </trkpt>
      <trkpt lat="37.6113171503" lon="-8.6072552484">
        <ele>51.57</ele>
        <time>2021-05-29T09:59:06Z</time>
      </trkpt>
      <trkpt lat="37.6115095988" lon="-8.6072118301">
        <ele>53.01</ele>
        <time>2021-05-29T09:59:07Z</time>
      </trkpt>
      <trkpt lat="37.6117147040" lon="-8.6071877740">
        <ele>54.45</ele>
        <time>2021-05-29T09:59:08Z</time>
      </trkpt>
      <trkpt lat="37.6121501438" lon="-8.6071696691">
        <ele>56.86</ele>
        <time>2021-05-29T09:59:10Z</time>
      </trkpt>
      <trkpt lat="37.6135462336" lon="-8.6071172822">
        <ele>54.93</ele>
        <time>2021-05-29T09:59:17Z</time>
      </trkpt>
      <trkpt lat="37.6143080648" lon="-8.6069115903">
        <ele>57.82</ele>
        <time>2021-05-29T09:59:21Z</time>
      </trkpt>
      <trkpt lat="37.6147082169" lon="-8.6067804974">
        <ele>58.78</ele>
        <time>2021-05-29T09:59:23Z</time>
      </trkpt>
      <trkpt lat="37.6152496878" lon="-8.6065846123">
        <ele>57.82</ele>
        <time>2021-05-29T09:59:26Z</time>
      </trkpt>
      <trkpt lat="37.6154092792" lon="-8.6064840294">
        <ele>58.30</ele>
        <time>2021-05-29T09:59:27Z</time>
      </trkpt>
      <trkpt lat="37.6155633386" lon="-8.6063551996">
        <ele>59.26</ele>
        <time>2021-05-29T09:59:28Z</time>
      </trkpt>
      <trkpt lat="37.6160500757" lon="-8.6058842205">
        <ele>62.62</ele>
        <time>2021-05-29T09:59:31Z</time>
      </trkpt>
      <trkpt lat="37.6163928956" lon="-8.6055549793">
        <ele>64.07</ele>
        <time>2021-05-29T09:59:33Z</time>
      </trkpt>
      <trkpt lat="37.6167338714" lon="-8.6052346230">
        <ele>67.43</ele>
        <time>2021-05-29T09:59:35Z</time>
      </trkpt>
      <trkpt lat="37.6172069460" lon="-8.6047395878">
        <ele>69.83</ele>
        <time>2021-05-29T09:59:38Z</time>
      </trkpt>
      <trkpt lat="37.6176319085" lon="-8.6041902378">
        <ele>71.76</ele>
        <time>2021-05-29T09:59:41Z</time>
      </trkpt>
      <trkpt lat="37.6180551946" lon="-8.6036241241">
        <ele>75.12</ele>
        <time>2021-05-29T09:59:44Z</time>
      </trkpt>
      <trkpt lat="37.6181982737" lon="-8.6034339387">
        <ele>75.12</ele>
        <time>2021-05-29T09:59:45Z</time>
      </trkpt>
      <trkpt lat="37.6188378129" lon="-8.6025158688">
        <ele>75.60</ele>
        <time>2021-05-29T09:59:50Z</time>
      </trkpt>
      <trkpt lat="37.6189260744" lon="-8.6023125239">
        <ele>74.64</ele>
        <time>2021-05-29T09:59:51Z</time>
      </trkpt>
      <trkpt lat="37.6190766972" lon="-8.6019075103">
        <ele>75.60</ele>
        <time>2021-05-29T09:59:53Z</time>
      </trkpt>
      <trkpt lat="37.6191764418" lon="-8.6017205939">
        <ele>76.56</ele>
        <time>2021-05-29T09:59:54Z</time>
      </trkpt>
      <trkpt lat="37.6193022542" lon="-8.6015440710">
        <ele>78.00</ele>
        <time>2021-05-29T09:59:55Z</time>
      </trkpt>
      <trkpt lat="37.6195971295" lon="-8.6011942942">
        <ele>80.89</ele>
        <time>2021-05-29T09:59:57Z</time>
      </trkpt>
      <trkpt lat="37.6199122053" lon="-8.6008177791">
        <ele>83.77</ele>
        <time>2021-05-29T09:59:59Z</time>
      </trkpt>
      <trkpt lat="37.6202335674" lon="-8.6004272662">
        <ele>85.21</ele>
        <time>2021-05-29T10:00:01Z</time>
      </trkpt>
      <trkpt lat="37.6208956540" lon="-8.5996275488">
        <ele>87.62</ele>
        <time>2021-05-29T10:00:05Z</time>
      </trkpt>
      <trkpt lat="37.6215896755" lon="-8.5985795595">
        <ele>90.98</ele>
        <time>2021-05-29T10:00:10Z</time>
      </trkpt>
      <trkpt lat="37.6219416317" lon="-8.5979359969">
        <ele>92.90</ele>
        <time>2021-05-29T10:00:13Z</time>
      </trkpt>
      <trkpt lat="37.6226597931" lon="-8.5966440104">
        <ele>95.31</ele>
        <time>2021-05-29T10:00:19Z</time>
      </trkpt>
      <trkpt lat="37.6230204664" lon="-8.5959982686">
        <ele>100.11</ele>
        <time>2021-05-29T10:00:22Z</time>
      </trkpt>
      <trkpt lat="37.6235422399" lon="-8.5951339267">
        <ele>103.96</ele>
        <time>2021-05-29T10:00:26Z</time>
      </trkpt>
      <trkpt lat="37.6243662648" lon="-8.5938607156">
        <ele>107.81</ele>
        <time>2021-05-29T10:00:32Z</time>
      </trkpt>
      <trkpt lat="37.6247653272" lon="-8.5932347551">
        <ele>112.13</ele>
        <time>2021-05-29T10:00:35Z</time>
      </trkpt>
      <trkpt lat="37.6251726039" lon="-8.5926073696">
        <ele>115.98</ele>
        <time>2021-05-29T10:00:38Z</time>
      </trkpt>
      <trkpt lat="37.6260395441" lon="-8.5911837034">
        <ele>119.82</ele>
        <time>2021-05-29T10:00:45Z</time>
      </trkpt>
      <trkpt lat="37.6263856329" lon="-8.5905884206">
        <ele>123.19</ele>
        <time>2021-05-29T10:00:48Z</time>
      </trkpt>
      <trkpt lat="37.6267433725" lon="-8.5899835825">
        <ele>125.59</ele>
        <time>2021-05-29T10:00:51Z</time>
      </trkpt>
      <trkpt lat="37.6273888629" lon="-8.5888666101">
        <ele>128.95</ele>
        <time>2021-05-29T10:00:56Z</time>
      </trkpt>
      <trkpt lat="37.6275229733" lon="-8.5886342637">
        <ele>129.43</ele>
        <time>2021-05-29T10:00:57Z</time>
      </trkpt>
      <trkpt lat="37.6281862333" lon="-8.5874983482">
        <ele>132.80</ele>
        <time>2021-05-29T10:01:02Z</time>
      </trkpt>
      <trkpt lat="37.6283158176" lon="-8.5872747190">
        <ele>132.32</ele>
        <time>2021-05-29T10:01:03Z</time>
      </trkpt>
      <trkpt lat="37.6291240845" lon="-8.5858979914">
        <ele>135.20</ele>
        <time>2021-05-29T10:01:09Z</time>
      </trkpt>
      <trkpt lat="37.6292643137" lon="-8.5856617894">
        <ele>135.68</ele>
        <time>2021-05-29T10:01:10Z</time>
      </trkpt>
      <trkpt lat="37.6295437664" lon="-8.5851857811">
        <ele>137.61</ele>
        <time>2021-05-29T10:01:12Z</time>
      </trkpt>
      <trkpt lat="37.6300900988" lon="-8.5842464212">
        <ele>140.97</ele>
        <time>2021-05-29T10:01:16Z</time>
      </trkpt>
      <trkpt lat="37.6303494349" lon="-8.5838064551">
        <ele>144.34</ele>
        <time>2021-05-29T10:01:18Z</time>
      </trkpt>
      <trkpt lat="37.6309542730" lon="-8.5827721283">
        <ele>148.66</ele>
        <time>2021-05-29T10:01:23Z</time>
      </trkpt>
      <trkpt lat="37.6313313749" lon="-8.5821667872">
        <ele>151.54</ele>
        <time>2021-05-29T10:01:26Z</time>
      </trkpt>
      <trkpt lat="37.6317470334" lon="-8.5815627035">
        <ele>154.91</ele>
        <time>2021-05-29T10:01:29Z</time>
      </trkpt>
      <trkpt lat="37.6318920404" lon="-8.5813581850">
        <ele>154.43</ele>
        <time>2021-05-29T10:01:30Z</time>
      </trkpt>
      <trkpt lat="37.6324700564" lon="-8.5805541091">
        <ele>158.75</ele>
        <time>2021-05-29T10:01:34Z</time>
      </trkpt>
      <trkpt lat="37.6327539515" lon="-8.5801480059">
        <ele>162.12</ele>
        <time>2021-05-29T10:01:36Z</time>
      </trkpt>
      <trkpt lat="37.6328901574" lon="-8.5799540486">
        <ele>160.68</ele>
        <time>2021-05-29T10:01:37Z</time>
      </trkpt>
      <trkpt lat="37.6334199775" lon="-8.5792239010">
        <ele>164.04</ele>
        <time>2021-05-29T10:01:41Z</time>
      </trkpt>
      <trkpt lat="37.6337115001" lon="-8.5788714420">
        <ele>165.00</ele>
        <time>2021-05-29T10:01:43Z</time>
      </trkpt>
      <trkpt lat="37.6342295855" lon="-8.5783767421">
        <ele>167.89</ele>
        <time>2021-05-29T10:01:46Z</time>
      </trkpt>
      <trkpt lat="37.6347452402" lon="-8.5779397096">
        <ele>162.60</ele>
        <time>2021-05-29T10:01:49Z</time>
      </trkpt>
      <trkpt lat="37.6350620762" lon="-8.5776022542">
        <ele>161.16</ele>
        <time>2021-05-29T10:01:51Z</time>
      </trkpt>
      <trkpt lat="37.6355029643" lon="-8.5769794788">
        <ele>157.31</ele>
        <time>2021-05-29T10:01:54Z</time>
      </trkpt>
      <trkpt lat="37.6357634738" lon="-8.5766065679">
        <ele>151.54</ele>
        <time>2021-05-29T10:01:56Z</time>
      </trkpt>
      <trkpt lat="37.6359875221" lon="-8.5762931686">
        <ele>146.74</ele>
        <time>2021-05-29T10:01:58Z</time>
      </trkpt>
      <trkpt lat="37.6360771246" lon="-8.5761494190">
        <ele>143.85</ele>
        <time>2021-05-29T10:01:59Z</time>
      </trkpt>
      <trkpt lat="37.6361413300" lon="-8.5759999696">
        <ele>142.41</ele>
        <time>2021-05-29T10:02:00Z</time>
      </trkpt>
      <trkpt lat="37.6361798868" lon="-8.5758361872">
        <ele>142.41</ele>
        <time>2021-05-29T10:02:01Z</time>
      </trkpt>
      <trkpt lat="37.6361941360" lon="-8.5756565630">
        <ele>142.41</ele>
        <time>2021-05-29T10:02:02Z</time>
      </trkpt>
      <trkpt lat="37.6361974049" lon="-8.5754735023">
        <ele>140.97</ele>
        <time>2021-05-29T10:02:03Z</time>
      </trkpt>
      <trkpt lat="37.6362255681" lon="-8.5751514696">
        <ele>136.64</ele>
        <time>2021-05-29T10:02:05Z</time>
      </trkpt>
      <trkpt lat="37.6362898573" lon="-8.5750347096">
        <ele>134.72</ele>
        <time>2021-05-29T10:02:06Z</time>
      </trkpt>
      <trkpt lat="37.6363828126" lon="-8.5749539081">
        <ele>134.24</ele>
        <time>2021-05-29T10:02:07Z</time>
      </trkpt>
      <trkpt lat="37.6364981476" lon="-8.5749171115">
        <ele>133.76</ele>
        <time>2021-05-29T10:02:08Z</time>
      </trkpt>
      <trkpt lat="37.6372932550" lon="-8.5747174546">
        <ele>133.28</ele>
        <time>2021-05-29T10:02:13Z</time>
      </trkpt>
      <trkpt lat="37.6374636590" lon="-8.5746229906">
        <ele>132.32</ele>
        <time>2021-05-29T10:02:14Z</time>
      </trkpt>
      <trkpt lat="37.6376302913" lon="-8.5745054763">
        <ele>132.32</ele>
        <time>2021-05-29T10:02:15Z</time>
      </trkpt>
      <trkpt lat="37.6381622069" lon="-8.5741388518">
        <ele>129.43</ele>
        <time>2021-05-29T10:02:18Z</time>
      </trkpt>
      <trkpt lat="37.6387281530" lon="-8.5738832876">
        <ele>124.63</ele>
        <time>2021-05-29T10:02:21Z</time>
      </trkpt>
      <trkpt lat="37.6389076933" lon="-8.5738428030">
        <ele>122.71</ele>
        <time>2021-05-29T10:02:22Z</time>
      </trkpt>
      <trkpt lat="37.6392397005" lon="-8.5737849679">
        <ele>119.82</ele>
        <time>2021-05-29T10:02:24Z</time>
      </trkpt>
      <trkpt lat="37.6394003816" lon="-8.5737266298">
        <ele>117.90</ele>
        <time>2021-05-29T10:02:25Z</time>
      </trkpt>
      <trkpt lat="37.6395525970" lon="-8.5736294836">
        <ele>117.42</ele>
        <time>2021-05-29T10:02:26Z</time>
      </trkpt>
      <trkpt lat="37.6397002023" lon="-8.5734949540">
        <ele>116.94</ele>
        <time>2021-05-29T10:02:27Z</time>
      </trkpt>
      <trkpt lat="37.6401449461" lon="-8.5730617773">
        <ele>113.57</ele>
        <time>2021-05-29T10:02:30Z</time>
      </trkpt>
      <trkpt lat="37.6404463593" lon="-8.5728383157">
        <ele>110.69</ele>
        <time>2021-05-29T10:02:32Z</time>
      </trkpt>
      <trkpt lat="37.6406082977" lon="-8.5727585200">
        <ele>109.25</ele>
        <time>2021-05-29T10:02:33Z</time>
      </trkpt>
      <trkpt lat="37.6409067772" lon="-8.5725935642">
        <ele>106.84</ele>
        <time>2021-05-29T10:02:35Z</time>
      </trkpt>
      <trkpt lat="37.6410335116" lon="-8.5724732839">
        <ele>105.88</ele>
        <time>2021-05-29T10:02:36Z</time>
      </trkpt>
      <trkpt lat="37.6411480922" lon="-8.5723209009">
        <ele>105.88</ele>
        <time>2021-05-29T10:02:37Z</time>
      </trkpt>
      <trkpt lat="37.6412462443" lon="-8.5721313860">
        <ele>105.40</ele>
        <time>2021-05-29T10:02:38Z</time>
      </trkpt>
      <trkpt lat="37.6413420495" lon="-8.5719296336">
        <ele>105.40</ele>
        <time>2021-05-29T10:02:39Z</time>
      </trkpt>
      <trkpt lat="37.6415628288" lon="-8.5715395398">
        <ele>102.04</ele>
        <time>2021-05-29T10:02:41Z</time>
      </trkpt>
      <trkpt lat="37.6416660938" lon="-8.5713427328">
        <ele>102.04</ele>
        <time>2021-05-29T10:02:42Z</time>
      </trkpt>
      <trkpt lat="37.6417599712" lon="-8.5711330175">
        <ele>100.60</ele>
        <time>2021-05-29T10:02:43Z</time>
      </trkpt>
      <trkpt lat="37.6420801599" lon="-8.5703028738">
        <ele>96.75</ele>
        <time>2021-05-29T10:02:47Z</time>
      </trkpt>
      <trkpt lat="37.6422378235" lon="-8.5699615628">
        <ele>93.39</ele>
        <time>2021-05-29T10:02:49Z</time>
      </trkpt>
      <trkpt lat="37.6423406694" lon="-8.5698173940">
        <ele>92.42</ele>
        <time>2021-05-29T10:02:50Z</time>
      </trkpt>
      <trkpt lat="37.6424515620" lon="-8.5696907435">
        <ele>92.90</ele>
        <time>2021-05-29T10:02:51Z</time>
      </trkpt>
      <trkpt lat="37.6426231395" lon="-8.5695824493">
        <ele>93.39</ele>
        <time>2021-05-29T10:02:52Z</time>
      </trkpt>
      <trkpt lat="37.6440829318" lon="-8.5689306725">
        <ele>90.98</ele>
        <time>2021-05-29T10:03:00Z</time>
      </trkpt>
      <trkpt lat="37.6445678249" lon="-8.5687093064">
        <ele>87.62</ele>
        <time>2021-05-29T10:03:03Z</time>
      </trkpt>
      <trkpt lat="37.6447191183" lon="-8.5686144233">
        <ele>87.62</ele>
        <time>2021-05-29T10:03:04Z</time>
      </trkpt>
      <trkpt lat="37.6455209311" lon="-8.5679641552">
        <ele>91.46</ele>
        <time>2021-05-29T10:03:09Z</time>
      </trkpt>
      <trkpt lat="37.6456948556" lon="-8.5678147059">
        <ele>90.98</ele>
        <time>2021-05-29T10:03:10Z</time>
      </trkpt>
      <trkpt lat="37.6473458391" lon="-8.5665438417">
        <ele>88.58</ele>
        <time>2021-05-29T10:03:20Z</time>
      </trkpt>
      <trkpt lat="37.6474630181" lon="-8.5665049497">
        <ele>88.10</ele>
        <time>2021-05-29T10:03:21Z</time>
      </trkpt>
      <trkpt lat="37.6476725657" lon="-8.5664387327">
        <ele>87.62</ele>
        <time>2021-05-29T10:03:23Z</time>
      </trkpt>
      <trkpt lat="37.6477827039" lon="-8.5663742758">
        <ele>87.14</ele>
        <time>2021-05-29T10:03:24Z</time>
      </trkpt>
      <trkpt lat="37.6478868071" lon="-8.5662761237">
        <ele>87.14</ele>
        <time>2021-05-29T10:03:25Z</time>
      </trkpt>
      <trkpt lat="37.6479749847" lon="-8.5661416780">
        <ele>87.62</ele>
        <time>2021-05-29T10:03:26Z</time>
      </trkpt>
      <trkpt lat="37.6480381843" lon="-8.5659732856">
        <ele>88.10</ele>
        <time>2021-05-29T10:03:27Z</time>
      </trkpt>
      <trkpt lat="37.6480792556" lon="-8.5657730419">
        <ele>89.06</ele>
        <time>2021-05-29T10:03:28Z</time>
      </trkpt>
      <trkpt lat="37.6481106877" lon="-8.5655538552">
        <ele>89.06</ele>
        <time>2021-05-29T10:03:29Z</time>
      </trkpt>
      <trkpt lat="37.6481753122" lon="-8.5650897492">
        <ele>90.50</ele>
        <time>2021-05-29T10:03:31Z</time>
      </trkpt>
      <trkpt lat="37.6483452134" lon="-8.5641942266">
        <ele>91.46</ele>
        <time>2021-05-29T10:03:35Z</time>
      </trkpt>
      <trkpt lat="37.6484220754" lon="-8.5639789794">
        <ele>91.94</ele>
        <time>2021-05-29T10:03:36Z</time>
      </trkpt>
      <trkpt lat="37.6488365605" lon="-8.5630682856">
        <ele>95.31</ele>
        <time>2021-05-29T10:03:40Z</time>
      </trkpt>
      <trkpt lat="37.6497891638" lon="-8.5608406272">
        <ele>95.79</ele>
        <time>2021-05-29T10:03:49Z</time>
      </trkpt>
      <trkpt lat="37.6506064832" lon="-8.5586382821">
        <ele>98.67</ele>
        <time>2021-05-29T10:03:58Z</time>
      </trkpt>
      <trkpt lat="37.6515947934" lon="-8.5561874975">
        <ele>100.11</ele>
        <time>2021-05-29T10:04:08Z</time>
      </trkpt>
      <trkpt lat="37.6529809088" lon="-8.5535761155">
        <ele>98.19</ele>
        <time>2021-05-29T10:04:20Z</time>
      </trkpt>
      <trkpt lat="37.6532385685" lon="-8.5528815072">
        <ele>99.15</ele>
        <time>2021-05-29T10:04:23Z</time>
      </trkpt>
      <trkpt lat="37.6534107327" lon="-8.5521261301">
        <ele>101.56</ele>
        <time>2021-05-29T10:04:26Z</time>
      </trkpt>
      <trkpt lat="37.6535845734" lon="-8.5513601080">
        <ele>103.00</ele>
        <time>2021-05-29T10:04:29Z</time>
      </trkpt>
      <trkpt lat="37.6541123819" lon="-8.5483998712">
        <ele>103.96</ele>
        <time>2021-05-29T10:04:41Z</time>
      </trkpt>
      <trkpt lat="37.6542492583" lon="-8.5474502854">
        <ele>100.60</ele>
        <time>2021-05-29T10:04:45Z</time>
      </trkpt>
      <trkpt lat="37.6543253660" lon="-8.5470497981">
        <ele>100.60</ele>
        <time>2021-05-29T10:04:47Z</time>
      </trkpt>
      <trkpt lat="37.6543862186" lon="-8.5468660668">
        <ele>99.63</ele>
        <time>2021-05-29T10:04:48Z</time>
      </trkpt>
      <trkpt lat="37.6544708759" lon="-8.5466918070">
        <ele>100.11</ele>
        <time>2021-05-29T10:04:49Z</time>
      </trkpt>
      <trkpt lat="37.6545753982" lon="-8.5465239175">
        <ele>100.60</ele>
        <time>2021-05-29T10:04:50Z</time>
      </trkpt>
      <trkpt lat="37.6546954270" lon="-8.5463530943">
        <ele>100.60</ele>
        <time>2021-05-29T10:04:51Z</time>
      </trkpt>
      <trkpt lat="37.6550734509" lon="-8.5459008068">
        <ele>99.63</ele>
        <time>2021-05-29T10:04:54Z</time>
      </trkpt>
      <trkpt lat="37.6552032866" lon="-8.5457874835">
        <ele>99.63</ele>
        <time>2021-05-29T10:04:55Z</time>
      </trkpt>
      <trkpt lat="37.6553638838" lon="-8.5457168240">
        <ele>100.11</ele>
        <time>2021-05-29T10:04:56Z</time>
      </trkpt>
      <trkpt lat="37.6555396523" lon="-8.5456620902">
        <ele>101.56</ele>
        <time>2021-05-29T10:04:57Z</time>
      </trkpt>
      <trkpt lat="37.6557260659" lon="-8.5456110444">
        <ele>102.04</ele>
        <time>2021-05-29T10:04:58Z</time>
      </trkpt>
      <trkpt lat="37.6563657727" lon="-8.5453874990">
        <ele>99.15</ele>
        <time>2021-05-29T10:05:02Z</time>
      </trkpt>
      <trkpt lat="37.6564826164" lon="-8.5453149118">
        <ele>98.67</ele>
        <time>2021-05-29T10:05:03Z</time>
      </trkpt>
      <trkpt lat="37.6565868873" lon="-8.5452135745">
        <ele>99.15</ele>
        <time>2021-05-29T10:05:04Z</time>
      </trkpt>
      <trkpt lat="37.6566831116" lon="-8.5450735129">
        <ele>100.60</ele>
        <time>2021-05-29T10:05:05Z</time>
      </trkpt>
      <trkpt lat="37.6567736361" lon="-8.5448970739">
        <ele>101.56</ele>
        <time>2021-05-29T10:05:06Z</time>
      </trkpt>
      <trkpt lat="37.6568572875" lon="-8.5446964111">
        <ele>102.52</ele>
        <time>2021-05-29T10:05:07Z</time>
      </trkpt>
      <trkpt lat="37.6569323055" lon="-8.5444905516">
        <ele>102.04</ele>
        <time>2021-05-29T10:05:08Z</time>
      </trkpt>
      <trkpt lat="37.6573218126" lon="-8.5434185900">
        <ele>105.40</ele>
        <time>2021-05-29T10:05:13Z</time>
      </trkpt>
      <trkpt lat="37.6578010060" lon="-8.5422276892">
        <ele>104.44</ele>
        <time>2021-05-29T10:05:19Z</time>
      </trkpt>
      <trkpt lat="37.6579140779" lon="-8.5420753900">
        <ele>104.92</ele>
        <time>2021-05-29T10:05:20Z</time>
      </trkpt>
      <trkpt lat="37.6580454223" lon="-8.5419417825">
        <ele>105.88</ele>
        <time>2021-05-29T10:05:21Z</time>
      </trkpt>
      <trkpt lat="37.6581951231" lon="-8.5418235976">
        <ele>106.36</ele>
        <time>2021-05-29T10:05:22Z</time>
      </trkpt>
      <trkpt lat="37.6583565585" lon="-8.5417118669">
        <ele>106.84</ele>
        <time>2021-05-29T10:05:23Z</time>
      </trkpt>
      <trkpt lat="37.6586991269" lon="-8.5414890759">
        <ele>108.29</ele>
        <time>2021-05-29T10:05:25Z</time>
      </trkpt>
      <trkpt lat="37.6593488082" lon="-8.5409944598">
        <ele>107.81</ele>
        <time>2021-05-29T10:05:29Z</time>
      </trkpt>
      <trkpt lat="37.6594851818" lon="-8.5408331919">
        <ele>108.29</ele>
        <time>2021-05-29T10:05:30Z</time>
      </trkpt>
      <trkpt lat="37.6596109103" lon="-8.5406633746">
        <ele>108.29</ele>
        <time>2021-05-29T10:05:31Z</time>
      </trkpt>
      <trkpt lat="37.6601258107" lon="-8.5398800019">
        <ele>108.29</ele>
        <time>2021-05-29T10:05:36Z</time>
      </trkpt>
      <trkpt lat="37.6602485217" lon="-8.5397461429">
        <ele>108.29</ele>
        <time>2021-05-29T10:05:37Z</time>
      </trkpt>
      <trkpt lat="37.6603913493" lon="-8.5396341607">
        <ele>109.25</ele>
        <time>2021-05-29T10:05:38Z</time>
      </trkpt>
      <trkpt lat="37.6605535392" lon="-8.5395381879">
        <ele>109.25</ele>
        <time>2021-05-29T10:05:39Z</time>
      </trkpt>
      <trkpt lat="37.6607323252" lon="-8.5394571349">
        <ele>110.69</ele>
        <time>2021-05-29T10:05:40Z</time>
      </trkpt>
      <trkpt lat="37.6609240193" lon="-8.5393864755">
        <ele>111.17</ele>
        <time>2021-05-29T10:05:41Z</time>
      </trkpt>
      <trkpt lat="37.6613172982" lon="-8.5392484255">
        <ele>112.13</ele>
        <time>2021-05-29T10:05:43Z</time>
      </trkpt>
      <trkpt lat="37.6632944215" lon="-8.5387759376">
        <ele>114.05</ele>
        <time>2021-05-29T10:05:53Z</time>
      </trkpt>
      <trkpt lat="37.6639820728" lon="-8.5386769474">
        <ele>113.09</ele>
        <time>2021-05-29T10:05:57Z</time>
      </trkpt>
      <trkpt lat="37.6641397364" lon="-8.5386114009">
        <ele>113.57</ele>
        <time>2021-05-29T10:05:58Z</time>
      </trkpt>
      <trkpt lat="37.6642937120" lon="-8.5385120753">
        <ele>114.53</ele>
        <time>2021-05-29T10:05:59Z</time>
      </trkpt>
      <trkpt lat="37.6644457597" lon="-8.5383827426">
        <ele>115.01</ele>
        <time>2021-05-29T10:06:00Z</time>
      </trkpt>
      <trkpt lat="37.6645970531" lon="-8.5382284317">
        <ele>116.46</ele>
        <time>2021-05-29T10:06:01Z</time>
      </trkpt>
      <trkpt lat="37.6647513639" lon="-8.5380644817">
        <ele>116.94</ele>
        <time>2021-05-29T10:06:02Z</time>
      </trkpt>
      <trkpt lat="37.6652748976" lon="-8.5376371723">
        <ele>119.82</ele>
        <time>2021-05-29T10:06:05Z</time>
      </trkpt>
      <trkpt lat="37.6656516641" lon="-8.5373700410">
        <ele>121.26</ele>
        <time>2021-05-29T10:06:07Z</time>
      </trkpt>
      <trkpt lat="37.6672734786" lon="-8.5362089798">
        <ele>125.11</ele>
        <time>2021-05-29T10:06:16Z</time>
      </trkpt>
      <trkpt lat="37.6676563639" lon="-8.5359290242">
        <ele>128.47</ele>
        <time>2021-05-29T10:06:18Z</time>
      </trkpt>
      <trkpt lat="37.6678491477" lon="-8.5357862804">
        <ele>128.47</ele>
        <time>2021-05-29T10:06:19Z</time>
      </trkpt>
      <trkpt lat="37.6683764532" lon="-8.5353427101">
        <ele>126.55</ele>
        <time>2021-05-29T10:06:22Z</time>
      </trkpt>
      <trkpt lat="37.6685293391" lon="-8.5351738147">
        <ele>127.03</ele>
        <time>2021-05-29T10:06:23Z</time>
      </trkpt>
      <trkpt lat="37.6686683949" lon="-8.5349913407">
        <ele>127.51</ele>
        <time>2021-05-29T10:06:24Z</time>
      </trkpt>
      <trkpt lat="37.6694552042" lon="-8.5338422656">
        <ele>130.88</ele>
        <time>2021-05-29T10:06:30Z</time>
      </trkpt>
      <trkpt lat="37.6696912386" lon="-8.5334976017">
        <ele>127.99</ele>
        <time>2021-05-29T10:06:32Z</time>
      </trkpt>
      <trkpt lat="37.6698007062" lon="-8.5333236773">
        <ele>128.47</ele>
        <time>2021-05-29T10:06:33Z</time>
      </trkpt>
      <trkpt lat="37.6699017920" lon="-8.5331339948">
        <ele>129.92</ele>
        <time>2021-05-29T10:06:34Z</time>
      </trkpt>
      <trkpt lat="37.6699872874" lon="-8.5329265427">
        <ele>131.36</ele>
        <time>2021-05-29T10:06:35Z</time>
      </trkpt>
      <trkpt lat="37.6700560190" lon="-8.5327024944">
        <ele>133.28</ele>
        <time>2021-05-29T10:06:36Z</time>
      </trkpt>
      <trkpt lat="37.6702827495" lon="-8.5317110829">
        <ele>138.09</ele>
        <time>2021-05-29T10:06:40Z</time>
      </trkpt>
      <trkpt lat="37.6703926362" lon="-8.5312101804">
        <ele>139.05</ele>
        <time>2021-05-29T10:06:42Z</time>
      </trkpt>
      <trkpt lat="37.6705497131" lon="-8.5305756703">
        <ele>139.53</ele>
        <time>2021-05-29T10:06:45Z</time>
      </trkpt>
      <trkpt lat="37.6706245635" lon="-8.5303864069">
        <ele>140.49</ele>
        <time>2021-05-29T10:06:46Z</time>
      </trkpt>
      <trkpt lat="37.6707199495" lon="-8.5302079562">
        <ele>143.37</ele>
        <time>2021-05-29T10:06:47Z</time>
      </trkpt>
      <trkpt lat="37.6708308421" lon="-8.5300395638">
        <ele>143.85</ele>
        <time>2021-05-29T10:06:48Z</time>
      </trkpt>
      <trkpt lat="37.6709584985" lon="-8.5298817325">
        <ele>144.82</ele>
        <time>2021-05-29T10:06:49Z</time>
      </trkpt>
      <trkpt lat="37.6711045112" lon="-8.5297353845">
        <ele>146.26</ele>
        <time>2021-05-29T10:06:50Z</time>
      </trkpt>
      <trkpt lat="37.6712677069" lon="-8.5295996815">
        <ele>147.70</ele>
        <time>2021-05-29T10:06:51Z</time>
      </trkpt>
      <trkpt lat="37.6714461576" lon="-8.5294712707">
        <ele>149.62</ele>
        <time>2021-05-29T10:06:52Z</time>
      </trkpt>
      <trkpt lat="37.6716372650" lon="-8.5293512419">
        <ele>152.03</ele>
        <time>2021-05-29T10:06:53Z</time>
      </trkpt>
      <trkpt lat="37.6722318772" lon="-8.5290275328">
        <ele>155.87</ele>
        <time>2021-05-29T10:06:56Z</time>
      </trkpt>
      <trkpt lat="37.6726342924" lon="-8.5288123693">
        <ele>159.72</ele>
        <time>2021-05-29T10:06:58Z</time>
      </trkpt>
      <trkpt lat="37.6736060064" lon="-8.5282755084">
        <ele>164.04</ele>
        <time>2021-05-29T10:07:03Z</time>
      </trkpt>
      <trkpt lat="37.6741998643" lon="-8.5279687308">
        <ele>167.41</ele>
        <time>2021-05-29T10:07:06Z</time>
      </trkpt>
      <trkpt lat="37.6751604304" lon="-8.5274886154">
        <ele>171.25</ele>
        <time>2021-05-29T10:07:11Z</time>
      </trkpt>
      <trkpt lat="37.6761051547" lon="-8.5269437917">
        <ele>174.62</ele>
        <time>2021-05-29T10:07:16Z</time>
      </trkpt>
      <trkpt lat="37.6762867067" lon="-8.5267941747">
        <ele>174.62</ele>
        <time>2021-05-29T10:07:17Z</time>
      </trkpt>
      <trkpt lat="37.6773664635" lon="-8.5253739450">
        <ele>177.98</ele>
        <time>2021-05-29T10:07:24Z</time>
      </trkpt>
      <trkpt lat="37.6775913499" lon="-8.5248618107">
        <ele>179.42</ele>
        <time>2021-05-29T10:07:26Z</time>
      </trkpt>
      <trkpt lat="37.6782859582" lon="-8.5230529122">
        <ele>182.31</ele>
        <time>2021-05-29T10:07:33Z</time>
      </trkpt>
      <trkpt lat="37.6786839310" lon="-8.5220319964">
        <ele>185.67</ele>
        <time>2021-05-29T10:07:37Z</time>
      </trkpt>
      <trkpt lat="37.6788778882" lon="-8.5215197783">
        <ele>186.63</ele>
        <time>2021-05-29T10:07:39Z</time>
      </trkpt>
      <trkpt lat="37.6791616157" lon="-8.5207811650">
        <ele>183.27</ele>
        <time>2021-05-29T10:07:42Z</time>
      </trkpt>
      <trkpt lat="37.6794909406" lon="-8.5198915098">
        <ele>177.98</ele>
        <time>2021-05-29T10:07:46Z</time>
      </trkpt>
      <trkpt lat="37.6797273941" lon="-8.5192820616">
        <ele>174.14</ele>
        <time>2021-05-29T10:07:49Z</time>
      </trkpt>
      <trkpt lat="37.6800329983" lon="-8.5181193240">
        <ele>170.77</ele>
        <time>2021-05-29T10:07:54Z</time>
      </trkpt>
      <trkpt lat="37.6801505126" lon="-8.5174369533">
        <ele>166.45</ele>
        <time>2021-05-29T10:07:57Z</time>
      </trkpt>
      <trkpt lat="37.6802035701" lon="-8.5172249749">
        <ele>165.96</ele>
        <time>2021-05-29T10:07:58Z</time>
      </trkpt>
      <trkpt lat="37.6802798454" lon="-8.5170179419">
        <ele>166.45</ele>
        <time>2021-05-29T10:07:59Z</time>
      </trkpt>
      <trkpt lat="37.6803771593" lon="-8.5168187879">
        <ele>165.96</ele>
        <time>2021-05-29T10:08:00Z</time>
      </trkpt>
      <trkpt lat="37.6804994512" lon="-8.5166319553">
        <ele>165.48</ele>
        <time>2021-05-29T10:08:01Z</time>
      </trkpt>
      <trkpt lat="37.6806338131" lon="-8.5164643172">
        <ele>164.52</ele>
        <time>2021-05-29T10:08:02Z</time>
      </trkpt>
      <trkpt lat="37.6807800774" lon="-8.5163175501">
        <ele>164.04</ele>
        <time>2021-05-29T10:08:03Z</time>
      </trkpt>
      <trkpt lat="37.6809297781" lon="-8.5161959287">
        <ele>162.60</ele>
        <time>2021-05-29T10:08:04Z</time>
      </trkpt>
      <trkpt lat="37.6810721029" lon="-8.5160871316">
        <ele>161.64</ele>
        <time>2021-05-29T10:08:05Z</time>
      </trkpt>
      <trkpt lat="37.6813049521" lon="-8.5158709623">
        <ele>158.75</ele>
        <time>2021-05-29T10:08:07Z</time>
      </trkpt>
      <trkpt lat="37.6814051159" lon="-8.5157443956">
        <ele>158.27</ele>
        <time>2021-05-29T10:08:08Z</time>
      </trkpt>
      <trkpt lat="37.6814917009" lon="-8.5155905038">
        <ele>158.75</ele>
        <time>2021-05-29T10:08:09Z</time>
      </trkpt>
      <trkpt lat="37.6815503743" lon="-8.5153974686">
        <ele>158.27</ele>
        <time>2021-05-29T10:08:10Z</time>
      </trkpt>
      <trkpt lat="37.6815901883" lon="-8.5151805449">
        <ele>159.24</ele>
        <time>2021-05-29T10:08:11Z</time>
      </trkpt>
      <trkpt lat="37.6816211175" lon="-8.5149560776">
        <ele>159.24</ele>
        <time>2021-05-29T10:08:12Z</time>
      </trkpt>
      <trkpt lat="37.6819398813" lon="-8.5127152596">
        <ele>158.75</ele>
        <time>2021-05-29T10:08:21Z</time>
      </trkpt>
      <trkpt lat="37.6820336748" lon="-8.5122064780">
        <ele>162.12</ele>
        <time>2021-05-29T10:08:23Z</time>
      </trkpt>
      <trkpt lat="37.6820935216" lon="-8.5119582061">
        <ele>162.12</ele>
        <time>2021-05-29T10:08:24Z</time>
      </trkpt>
      <trkpt lat="37.6821667794" lon="-8.5117170587">
        <ele>162.12</ele>
        <time>2021-05-29T10:08:25Z</time>
      </trkpt>
      <trkpt lat="37.6822562981" lon="-8.5114856344">
        <ele>164.04</ele>
        <time>2021-05-29T10:08:26Z</time>
      </trkpt>
      <trkpt lat="37.6823588926" lon="-8.5112625919">
        <ele>165.00</ele>
        <time>2021-05-29T10:08:27Z</time>
      </trkpt>
      <trkpt lat="37.6833207998" lon="-8.5095360037">
        <ele>168.37</ele>
        <time>2021-05-29T10:08:35Z</time>
      </trkpt>
      <trkpt lat="37.6834449358" lon="-8.5093153920">
        <ele>168.37</ele>
        <time>2021-05-29T10:08:36Z</time>
      </trkpt>
      <trkpt lat="37.6846636645" lon="-8.5070275515">
        <ele>167.89</ele>
        <time>2021-05-29T10:08:46Z</time>
      </trkpt>
      <trkpt lat="37.6847424544" lon="-8.5067873262">
        <ele>167.89</ele>
        <time>2021-05-29T10:08:47Z</time>
      </trkpt>
      <trkpt lat="37.6848069951" lon="-8.5065406468">
        <ele>166.93</ele>
        <time>2021-05-29T10:08:48Z</time>
      </trkpt>
      <trkpt lat="37.6849977672" lon="-8.5058121756">
        <ele>166.45</ele>
        <time>2021-05-29T10:08:51Z</time>
      </trkpt>
      <trkpt lat="37.6850940753" lon="-8.5055840202">
        <ele>167.41</ele>
        <time>2021-05-29T10:08:52Z</time>
      </trkpt>
      <trkpt lat="37.6852161996" lon="-8.5053736344">
        <ele>166.93</ele>
        <time>2021-05-29T10:08:53Z</time>
      </trkpt>
      <trkpt lat="37.6853567641" lon="-8.5051817726">
        <ele>166.93</ele>
        <time>2021-05-29T10:08:54Z</time>
      </trkpt>
      <trkpt lat="37.6855062973" lon="-8.5049959458">
        <ele>167.89</ele>
        <time>2021-05-29T10:08:55Z</time>
      </trkpt>
      <trkpt lat="37.6858105604" lon="-8.5046258010">
        <ele>172.21</ele>
        <time>2021-05-29T10:08:57Z</time>
      </trkpt>
      <trkpt lat="37.6859664638" lon="-8.5044430755">
        <ele>171.25</ele>
        <time>2021-05-29T10:08:58Z</time>
      </trkpt>
      <trkpt lat="37.6868895628" lon="-8.5030029807">
        <ele>175.10</ele>
        <time>2021-05-29T10:09:05Z</time>
      </trkpt>
      <trkpt lat="37.6869909838" lon="-8.5027645994">
        <ele>175.58</ele>
        <time>2021-05-29T10:09:06Z</time>
      </trkpt>
      <trkpt lat="37.6873859391" lon="-8.5017922148">
        <ele>174.62</ele>
        <time>2021-05-29T10:09:10Z</time>
      </trkpt>
      <trkpt lat="37.6875180379" lon="-8.5015788116">
        <ele>174.14</ele>
        <time>2021-05-29T10:09:11Z</time>
      </trkpt>
      <trkpt lat="37.6880483609" lon="-8.5007873084">
        <ele>174.62</ele>
        <time>2021-05-29T10:09:15Z</time>
      </trkpt>
      <trkpt lat="37.6881493628" lon="-8.5005786829">
        <ele>175.10</ele>
        <time>2021-05-29T10:09:16Z</time>
      </trkpt>
      <trkpt lat="37.6885749958" lon="-8.4997300152">
        <ele>175.58</ele>
        <time>2021-05-29T10:09:20Z</time>
      </trkpt>
      <trkpt lat="37.6894009486" lon="-8.4982412215">
        <ele>177.50</ele>
        <time>2021-05-29T10:09:27Z</time>
      </trkpt>
      <trkpt lat="37.6895365678" lon="-8.4980358649">
        <ele>177.98</ele>
        <time>2021-05-29T10:09:28Z</time>
      </trkpt>
      <trkpt lat="37.6896833349" lon="-8.4978423268">
        <ele>179.90</ele>
        <time>2021-05-29T10:09:29Z</time>
      </trkpt>
      <trkpt lat="37.6898379810" lon="-8.4976605233">
        <ele>179.42</ele>
        <time>2021-05-29T10:09:30Z</time>
      </trkpt>
      <trkpt lat="37.6902780309" lon="-8.4971355647">
        <ele>182.79</ele>
        <time>2021-05-29T10:09:33Z</time>
      </trkpt>
      <trkpt lat="37.6909405366" lon="-8.4961000644">
        <ele>186.63</ele>
        <time>2021-05-29T10:09:38Z</time>
      </trkpt>
      <trkpt lat="37.6911929157" lon="-8.4956445079">
        <ele>188.08</ele>
        <time>2021-05-29T10:09:40Z</time>
      </trkpt>
      <trkpt lat="37.6914288662" lon="-8.4952046257">
        <ele>187.59</ele>
        <time>2021-05-29T10:09:42Z</time>
      </trkpt>
      <trkpt lat="37.6923011709" lon="-8.4939709771">
        <ele>185.19</ele>
        <time>2021-05-29T10:09:49Z</time>
      </trkpt>
      <trkpt lat="37.6929949410" lon="-8.4927919786">
        <ele>183.27</ele>
        <time>2021-05-29T10:09:57Z</time>
      </trkpt>
      <trkpt lat="37.6932873856" lon="-8.4921547025">
        <ele>186.63</ele>
        <time>2021-05-29T10:10:01Z</time>
      </trkpt>
      <trkpt lat="37.6933530159" lon="-8.4919878189">
        <ele>187.11</ele>
        <time>2021-05-29T10:10:02Z</time>
      </trkpt>
      <trkpt lat="37.6936478913" lon="-8.4910752811">
        <ele>190.96</ele>
        <time>2021-05-29T10:10:08Z</time>
      </trkpt>
      <trkpt lat="37.6937421877" lon="-8.4907885361">
        <ele>191.92</ele>
        <time>2021-05-29T10:10:10Z</time>
      </trkpt>
      <trkpt lat="37.6940630469" lon="-8.4901262820">
        <ele>195.77</ele>
        <time>2021-05-29T10:10:15Z</time>
      </trkpt>
      <trkpt lat="37.6942053717" lon="-8.4898629226">
        <ele>196.25</ele>
        <time>2021-05-29T10:10:17Z</time>
      </trkpt>
      <trkpt lat="37.6944871712" lon="-8.4893516265">
        <ele>198.17</ele>
        <time>2021-05-29T10:10:21Z</time>
      </trkpt>
      <trkpt lat="37.6951075159" lon="-8.4882401023">
        <ele>200.09</ele>
        <time>2021-05-29T10:10:31Z</time>
      </trkpt>
      <trkpt lat="37.6956471428" lon="-8.4870897699">
        <ele>200.09</ele>
        <time>2021-05-29T10:10:42Z</time>
      </trkpt>
      <trkpt lat="37.6958616357" lon="-8.4859283734">
        <ele>203.46</ele>
        <time>2021-05-29T10:10:51Z</time>
      </trkpt>
      <trkpt lat="37.6959791500" lon="-8.4852683824">
        <ele>205.38</ele>
        <time>2021-05-29T10:10:56Z</time>
      </trkpt>
      <trkpt lat="37.6960147731" lon="-8.4851413127">
        <ele>205.86</ele>
        <time>2021-05-29T10:10:57Z</time>
      </trkpt>
      <trkpt lat="37.6960634720" lon="-8.4850092977">
        <ele>205.86</ele>
        <time>2021-05-29T10:10:58Z</time>
      </trkpt>
      <trkpt lat="37.6961207204" lon="-8.4848769475">
        <ele>206.34</ele>
        <time>2021-05-29T10:10:59Z</time>
      </trkpt>
      <trkpt lat="37.6965808868" lon="-8.4838860389">
        <ele>209.70</ele>
        <time>2021-05-29T10:11:06Z</time>
      </trkpt>
      <trkpt lat="37.6967453398" lon="-8.4835206717">
        <ele>211.15</ele>
        <time>2021-05-29T10:11:08Z</time>
      </trkpt>
      <trkpt lat="37.6972785965" lon="-8.4822891187">
        <ele>214.03</ele>
        <time>2021-05-29T10:11:14Z</time>
      </trkpt>
      <trkpt lat="37.6974881440" lon="-8.4818225820">
        <ele>216.91</ele>
        <time>2021-05-29T10:11:16Z</time>
      </trkpt>
      <trkpt lat="37.6978153735" lon="-8.4810898360">
        <ele>219.80</ele>
        <time>2021-05-29T10:11:19Z</time>
      </trkpt>
      <trkpt lat="37.6980317943" lon="-8.4806051105">
        <ele>222.68</ele>
        <time>2021-05-29T10:11:21Z</time>
      </trkpt>
      <trkpt lat="37.6984764542" lon="-8.4796101786">
        <ele>225.57</ele>
        <time>2021-05-29T10:11:25Z</time>
      </trkpt>
      <trkpt lat="37.6986967307" lon="-8.4791127965">
        <ele>228.93</ele>
        <time>2021-05-29T10:11:27Z</time>
      </trkpt>
      <trkpt lat="37.6988102216" lon="-8.4788604174">
        <ele>228.93</ele>
        <time>2021-05-29T10:11:28Z</time>
      </trkpt>
      <trkpt lat="37.6995176543" lon="-8.4772992879">
        <ele>231.33</ele>
        <time>2021-05-29T10:11:34Z</time>
      </trkpt>
      <trkpt lat="37.7003254183" lon="-8.4755137749">
        <ele>235.66</ele>
        <time>2021-05-29T10:11:41Z</time>
      </trkpt>
      <trkpt lat="37.7004385740" lon="-8.4752629045">
        <ele>234.70</ele>
        <time>2021-05-29T10:11:42Z</time>
      </trkpt>
      <trkpt lat="37.7010094654" lon="-8.4739885200">
        <ele>239.51</ele>
        <time>2021-05-29T10:11:47Z</time>
      </trkpt>
      <trkpt lat="37.7012415603" lon="-8.4734669141">
        <ele>242.39</ele>
        <time>2021-05-29T10:11:49Z</time>
      </trkpt>
      <trkpt lat="37.7017210051" lon="-8.4723965451">
        <ele>247.68</ele>
        <time>2021-05-29T10:11:53Z</time>
      </trkpt>
      <trkpt lat="37.7020903118" lon="-8.4715656471">
        <ele>251.52</ele>
        <time>2021-05-29T10:11:56Z</time>
      </trkpt>
      <trkpt lat="37.7023379970" lon="-8.4710098431">
        <ele>256.81</ele>
        <time>2021-05-29T10:11:58Z</time>
      </trkpt>
      <trkpt lat="37.7024591994" lon="-8.4707351681">
        <ele>255.85</ele>
        <time>2021-05-29T10:11:59Z</time>
      </trkpt>
      <trkpt lat="37.7028116584" lon="-8.4699383005">
        <ele>258.25</ele>
        <time>2021-05-29T10:12:02Z</time>
      </trkpt>
      <trkpt lat="37.7030357905" lon="-8.4694351349">
        <ele>261.62</ele>
        <time>2021-05-29T10:12:04Z</time>
      </trkpt>
      <trkpt lat="37.7031402290" lon="-8.4691974241">
        <ele>260.17</ele>
        <time>2021-05-29T10:12:05Z</time>
      </trkpt>
      <trkpt lat="37.7034455817" lon="-8.4685123712">
        <ele>264.50</ele>
        <time>2021-05-29T10:12:08Z</time>
      </trkpt>
      <trkpt lat="37.7035486791" lon="-8.4682813659">
        <ele>264.02</ele>
        <time>2021-05-29T10:12:09Z</time>
      </trkpt>
      <trkpt lat="37.7046665736" lon="-8.4657885879">
        <ele>261.14</ele>
        <time>2021-05-29T10:12:19Z</time>
      </trkpt>
      <trkpt lat="37.7052806318" lon="-8.4644139558">
        <ele>258.25</ele>
        <time>2021-05-29T10:12:24Z</time>
      </trkpt>
      <trkpt lat="37.7056623437" lon="-8.4635664616">
        <ele>254.41</ele>
        <time>2021-05-29T10:12:27Z</time>
      </trkpt>
      <trkpt lat="37.7060444746" lon="-8.4627189673">
        <ele>252.00</ele>
        <time>2021-05-29T10:12:30Z</time>
      </trkpt>
      <trkpt lat="37.7065340616" lon="-8.4616257995">
        <ele>246.23</ele>
        <time>2021-05-29T10:12:34Z</time>
      </trkpt>
      <trkpt lat="37.7070722636" lon="-8.4602707811">
        <ele>241.91</ele>
        <time>2021-05-29T10:12:39Z</time>
      </trkpt>
      <trkpt lat="37.7071453538" lon="-8.4599831142">
        <ele>241.43</ele>
        <time>2021-05-29T10:12:40Z</time>
      </trkpt>
      <trkpt lat="37.7074648719" lon="-8.4578585532">
        <ele>238.54</ele>
        <time>2021-05-29T10:12:47Z</time>
      </trkpt>
      <trkpt lat="37.7075596713" lon="-8.4572564811">
        <ele>235.18</ele>
        <time>2021-05-29T10:12:49Z</time>
      </trkpt>
      <trkpt lat="37.7078262158" lon="-8.4554128814">
        <ele>231.81</ele>
        <time>2021-05-29T10:12:55Z</time>
      </trkpt>
      <trkpt lat="37.7079635952" lon="-8.4544936381">
        <ele>230.37</ele>
        <time>2021-05-29T10:12:58Z</time>
      </trkpt>
      <trkpt lat="37.7080509346" lon="-8.4538714495">
        <ele>228.45</ele>
        <time>2021-05-29T10:13:00Z</time>
      </trkpt>
      <trkpt lat="37.7081396151" lon="-8.4532452375">
        <ele>227.01</ele>
        <time>2021-05-29T10:13:02Z</time>
      </trkpt>
      <trkpt lat="37.7084388491" lon="-8.4511517733">
        <ele>223.16</ele>
        <time>2021-05-29T10:13:09Z</time>
      </trkpt>
      <trkpt lat="37.7086268552" lon="-8.4498761315">
        <ele>223.16</ele>
        <time>2021-05-29T10:13:14Z</time>
      </trkpt>
      <trkpt lat="37.7087537572" lon="-8.4489946067">
        <ele>225.57</ele>
        <time>2021-05-29T10:13:17Z</time>
      </trkpt>
      <trkpt lat="37.7090374008" lon="-8.4471436311">
        <ele>223.16</ele>
        <time>2021-05-29T10:13:23Z</time>
      </trkpt>
      <trkpt lat="37.7096540574" lon="-8.4450997040">
        <ele>222.20</ele>
        <time>2021-05-29T10:13:30Z</time>
      </trkpt>
      <trkpt lat="37.7101932652" lon="-8.4436773788">
        <ele>217.40</ele>
        <time>2021-05-29T10:13:35Z</time>
      </trkpt>
      <trkpt lat="37.7103843726" lon="-8.4431676753">
        <ele>214.03</ele>
        <time>2021-05-29T10:13:37Z</time>
      </trkpt>
      <trkpt lat="37.7105584648" lon="-8.4427017253">
        <ele>210.67</ele>
        <time>2021-05-29T10:13:39Z</time>
      </trkpt>
      <trkpt lat="37.7114586812" lon="-8.4402487613">
        <ele>210.19</ele>
        <time>2021-05-29T10:13:50Z</time>
      </trkpt>
      <trkpt lat="37.7118047699" lon="-8.4389029630">
        <ele>214.03</ele>
        <time>2021-05-29T10:13:55Z</time>
      </trkpt>
      <trkpt lat="37.7123033255" lon="-8.4360774234">
        <ele>210.67</ele>
        <time>2021-05-29T10:14:04Z</time>
      </trkpt>
      <trkpt lat="37.7127043158" lon="-8.4338041674">
        <ele>206.34</ele>
        <time>2021-05-29T10:14:11Z</time>
      </trkpt>
      <trkpt lat="37.7127608098" lon="-8.4334860742">
        <ele>206.82</ele>
        <time>2021-05-29T10:14:12Z</time>
      </trkpt>
      <trkpt lat="37.7131485566" lon="-8.4312590025">
        <ele>203.46</ele>
        <time>2021-05-29T10:14:19Z</time>
      </trkpt>
      <trkpt lat="37.7133140154" lon="-8.4302986879">
        <ele>200.09</ele>
        <time>2021-05-29T10:14:22Z</time>
      </trkpt>
      <trkpt lat="37.7133669052" lon="-8.4299883898">
        <ele>199.61</ele>
        <time>2021-05-29T10:14:23Z</time>
      </trkpt>
      <trkpt lat="37.7135394048" lon="-8.4290787857">
        <ele>198.17</ele>
        <time>2021-05-29T10:14:26Z</time>
      </trkpt>
      <trkpt lat="37.7141050994" lon="-8.4276422113">
        <ele>196.73</ele>
        <time>2021-05-29T10:14:31Z</time>
      </trkpt>
      <trkpt lat="37.7151137777" lon="-8.4260331374">
        <ele>192.40</ele>
        <time>2021-05-29T10:14:37Z</time>
      </trkpt>
      <trkpt lat="37.7152830083" lon="-8.4257639945">
        <ele>191.92</ele>
        <time>2021-05-29T10:14:38Z</time>
      </trkpt>
      <trkpt lat="37.7156233136" lon="-8.4252272174">
        <ele>190.48</ele>
        <time>2021-05-29T10:14:40Z</time>
      </trkpt>
      <trkpt lat="37.7164493501" lon="-8.4239112586">
        <ele>186.63</ele>
        <time>2021-05-29T10:14:45Z</time>
      </trkpt>
      <trkpt lat="37.7167667728" lon="-8.4234052431">
        <ele>183.75</ele>
        <time>2021-05-29T10:14:47Z</time>
      </trkpt>
      <trkpt lat="37.7169257775" lon="-8.4231521934">
        <ele>183.75</ele>
        <time>2021-05-29T10:14:48Z</time>
      </trkpt>
      <trkpt lat="37.7174076531" lon="-8.4223848302">
        <ele>186.15</ele>
        <time>2021-05-29T10:14:51Z</time>
      </trkpt>
      <trkpt lat="37.7185096219" lon="-8.4206302464">
        <ele>189.52</ele>
        <time>2021-05-29T10:14:58Z</time>
      </trkpt>
      <trkpt lat="37.7186677046" lon="-8.4203819744">
        <ele>189.04</ele>
        <time>2021-05-29T10:14:59Z</time>
      </trkpt>
      <trkpt lat="37.7191541065" lon="-8.4196980949">
        <ele>190.96</ele>
        <time>2021-05-29T10:15:02Z</time>
      </trkpt>
      <trkpt lat="37.7207654435" lon="-8.4177104104">
        <ele>189.04</ele>
        <time>2021-05-29T10:15:11Z</time>
      </trkpt>
      <trkpt lat="37.7217934001" lon="-8.4164560586">
        <ele>185.67</ele>
        <time>2021-05-29T10:15:17Z</time>
      </trkpt>
      <trkpt lat="37.7225388866" lon="-8.4155392461">
        <ele>184.71</ele>
        <time>2021-05-29T10:15:21Z</time>
      </trkpt>
      <trkpt lat="37.7247573249" lon="-8.4128332324">
        <ele>181.35</ele>
        <time>2021-05-29T10:15:34Z</time>
      </trkpt>
      <trkpt lat="37.7253117040" lon="-8.4121533763">
        <ele>178.94</ele>
        <time>2021-05-29T10:15:38Z</time>
      </trkpt>
      <trkpt lat="37.7258467209" lon="-8.4114972409">
        <ele>176.06</ele>
        <time>2021-05-29T10:15:43Z</time>
      </trkpt>
      <trkpt lat="37.7264943905" lon="-8.4106622357">
        <ele>176.06</ele>
        <time>2021-05-29T10:15:52Z</time>
      </trkpt>
      <trkpt lat="37.7265384793" lon="-8.4105562046">
        <ele>176.06</ele>
        <time>2021-05-29T10:15:53Z</time>
      </trkpt>
      <trkpt lat="37.7265626192" lon="-8.4104470722">
        <ele>175.10</ele>
        <time>2021-05-29T10:15:54Z</time>
      </trkpt>
      <trkpt lat="37.7265967336" lon="-8.4102277178">
        <ele>175.58</ele>
        <time>2021-05-29T10:15:56Z</time>
      </trkpt>
      <trkpt lat="37.7266383078" lon="-8.4101274703">
        <ele>175.58</ele>
        <time>2021-05-29T10:15:57Z</time>
      </trkpt>
      <trkpt lat="37.7267015073" lon="-8.4100428969">
        <ele>176.54</ele>
        <time>2021-05-29T10:15:58Z</time>
      </trkpt>
      <trkpt lat="37.7267814707" lon="-8.4099880792">
        <ele>176.06</ele>
        <time>2021-05-29T10:15:59Z</time>
      </trkpt>
      <trkpt lat="37.7268749289" lon="-8.4099698067">
        <ele>177.02</ele>
        <time>2021-05-29T10:16:00Z</time>
      </trkpt>
      <trkpt lat="37.7269758470" lon="-8.4099648613">
        <ele>177.02</ele>
        <time>2021-05-29T10:16:01Z</time>
      </trkpt>
      <trkpt lat="37.7270743344" lon="-8.4099385422">
        <ele>177.50</ele>
        <time>2021-05-29T10:16:02Z</time>
      </trkpt>
      <trkpt lat="37.7271630988" lon="-8.4098777734">
        <ele>177.50</ele>
        <time>2021-05-29T10:16:03Z</time>
      </trkpt>
      <trkpt lat="37.7272479236" lon="-8.4097855724">
        <ele>178.46</ele>
        <time>2021-05-29T10:16:04Z</time>
      </trkpt>
      <trkpt lat="37.7273391187" lon="-8.4096718300">
        <ele>179.42</ele>
        <time>2021-05-29T10:16:05Z</time>
      </trkpt>
      <trkpt lat="37.7275356743" lon="-8.4094190318">
        <ele>179.90</ele>
        <time>2021-05-29T10:16:07Z</time>
      </trkpt>
      <trkpt lat="37.7285239846" lon="-8.4079751652">
        <ele>179.42</ele>
        <time>2021-05-29T10:16:17Z</time>
      </trkpt>
      <trkpt lat="37.7291559801" lon="-8.4070137609">
        <ele>175.58</ele>
        <time>2021-05-29T10:16:23Z</time>
      </trkpt>
      <trkpt lat="37.7292608377" lon="-8.4068587795">
        <ele>175.10</ele>
        <time>2021-05-29T10:16:24Z</time>
      </trkpt>
      <trkpt lat="37.7303771395" lon="-8.4051186126">
        <ele>177.02</ele>
        <time>2021-05-29T10:16:34Z</time>
      </trkpt>
      <trkpt lat="37.7309637051" lon="-8.4042241797">
        <ele>173.17</ele>
        <time>2021-05-29T10:16:39Z</time>
      </trkpt>
      <trkpt lat="37.7318183240" lon="-8.4029045328">
        <ele>174.62</ele>
        <time>2021-05-29T10:16:48Z</time>
      </trkpt>
      <trkpt lat="37.7324321307" lon="-8.4019502532">
        <ele>177.98</ele>
        <time>2021-05-29T10:16:53Z</time>
      </trkpt>
      <trkpt lat="37.7339190803" lon="-8.3996583056">
        <ele>178.46</ele>
        <time>2021-05-29T10:17:03Z</time>
      </trkpt>
      <trkpt lat="37.7348367311" lon="-8.3982602879">
        <ele>175.58</ele>
        <time>2021-05-29T10:17:09Z</time>
      </trkpt>
      <trkpt lat="37.7353995759" lon="-8.3973930124">
        <ele>173.17</ele>
        <time>2021-05-29T10:17:13Z</time>
      </trkpt>
      <trkpt lat="37.7361273766" lon="-8.3962755371">
        <ele>169.81</ele>
        <time>2021-05-29T10:17:18Z</time>
      </trkpt>
      <trkpt lat="37.7362780832" lon="-8.3960435260">
        <ele>169.81</ele>
        <time>2021-05-29T10:17:19Z</time>
      </trkpt>
      <trkpt lat="37.7371803951" lon="-8.3946565725">
        <ele>166.93</ele>
        <time>2021-05-29T10:17:25Z</time>
      </trkpt>
      <trkpt lat="37.7377242129" lon="-8.3938213997">
        <ele>163.08</ele>
        <time>2021-05-29T10:17:29Z</time>
      </trkpt>
      <trkpt lat="37.7380035818" lon="-8.3933949284">
        <ele>162.12</ele>
        <time>2021-05-29T10:17:31Z</time>
      </trkpt>
      <trkpt lat="37.7392897848" lon="-8.3919021115">
        <ele>159.72</ele>
        <time>2021-05-29T10:17:39Z</time>
      </trkpt>
      <trkpt lat="37.7409165446" lon="-8.3902831469">
        <ele>162.60</ele>
        <time>2021-05-29T10:17:49Z</time>
      </trkpt>
      <trkpt lat="37.7424318250" lon="-8.3887495939">
        <ele>159.24</ele>
        <time>2021-05-29T10:17:58Z</time>
      </trkpt>
      <trkpt lat="37.7429304644" lon="-8.3882558160">
        <ele>155.87</ele>
        <time>2021-05-29T10:18:01Z</time>
      </trkpt>
      <trkpt lat="37.7436266653" lon="-8.3875628840">
        <ele>152.03</ele>
        <time>2021-05-29T10:18:05Z</time>
      </trkpt>
      <trkpt lat="37.7443416417" lon="-8.3868548647">
        <ele>148.66</ele>
        <time>2021-05-29T10:18:09Z</time>
      </trkpt>
      <trkpt lat="37.7446662728" lon="-8.3865341730">
        <ele>146.74</ele>
        <time>2021-05-29T10:18:11Z</time>
      </trkpt>
      <trkpt lat="37.7454170398" lon="-8.3857764490">
        <ele>145.78</ele>
        <time>2021-05-29T10:18:16Z</time>
      </trkpt>
      <trkpt lat="37.7467404585" lon="-8.3844653517">
        <ele>142.89</ele>
        <time>2021-05-29T10:18:26Z</time>
      </trkpt>
      <trkpt lat="37.7470621560" lon="-8.3841482643">
        <ele>140.49</ele>
        <time>2021-05-29T10:18:30Z</time>
      </trkpt>
      <trkpt lat="37.7474562731" lon="-8.3837422449">
        <ele>142.41</ele>
        <time>2021-05-29T10:18:35Z</time>
      </trkpt>
      <trkpt lat="37.7481929585" lon="-8.3829957526">
        <ele>141.93</ele>
        <time>2021-05-29T10:18:42Z</time>
      </trkpt>
      <trkpt lat="37.7485284023" lon="-8.3826639131">
        <ele>144.82</ele>
        <time>2021-05-29T10:18:45Z</time>
      </trkpt>
      <trkpt lat="37.7492250223" lon="-8.3819609229">
        <ele>141.45</ele>
        <time>2021-05-29T10:18:52Z</time>
      </trkpt>
      <trkpt lat="37.7494173869" lon="-8.3817246370">
        <ele>138.57</ele>
        <time>2021-05-29T10:18:58Z</time>
      </trkpt>
      <trkpt lat="37.7494195662" lon="-8.3817111421">
        <ele>138.57</ele>
        <time>2021-05-29T10:19:11Z</time>
      </trkpt>
      <trkpt lat="37.7494280320" lon="-8.3816983178">
        <ele>138.57</ele>
        <time>2021-05-29T10:19:13Z</time>
      </trkpt>
      <trkpt lat="37.7494349051" lon="-8.3816859964">
        <ele>138.57</ele>
        <time>2021-05-29T10:19:30Z</time>
      </trkpt>
      <trkpt lat="37.7493935823" lon="-8.3817017544">
        <ele>138.57</ele>
        <time>2021-05-29T10:19:47Z</time>
      </trkpt>
      <trkpt lat="37.7493822668" lon="-8.3816982340">
        <ele>138.57</ele>
        <time>2021-05-29T10:20:11Z</time>
      </trkpt>
      <trkpt lat="37.7493749745" lon="-8.3816982340">
        <ele>139.53</ele>
        <time>2021-05-29T10:20:40Z</time>
      </trkpt>
      <trkpt lat="37.7493842784" lon="-8.3817017544">
        <ele>138.09</ele>
        <time>2021-05-29T10:21:15Z</time>
      </trkpt>
      <trkpt lat="37.7493801713" lon="-8.3817072026">
        <ele>138.57</ele>
        <time>2021-05-29T10:21:52Z</time>
      </trkpt>
      <trkpt lat="37.7493954264" lon="-8.3817041852">
        <ele>139.53</ele>
        <time>2021-05-29T10:22:25Z</time>
      </trkpt>
      <trkpt lat="37.7493859548" lon="-8.3817106392">
        <ele>139.05</ele>
        <time>2021-05-29T10:23:14Z</time>
      </trkpt>
      <trkpt lat="37.7493798360" lon="-8.3817128185">
        <ele>139.53</ele>
        <time>2021-05-29T10:24:02Z</time>
      </trkpt>
      <trkpt lat="37.7493829373" lon="-8.3817100525">
        <ele>139.05</ele>
        <time>2021-05-29T10:24:36Z</time>
      </trkpt>
      <trkpt lat="37.7493858710" lon="-8.3817097172">
        <ele>140.01</ele>
        <time>2021-05-29T10:25:13Z</time>
      </trkpt>
      <trkpt lat="37.7493711188" lon="-8.3817220386">
        <ele>140.01</ele>
        <time>2021-05-29T10:25:53Z</time>
      </trkpt>
      <trkpt lat="37.7494077478" lon="-8.3817083761">
        <ele>140.01</ele>
        <time>2021-05-29T10:26:35Z</time>
      </trkpt>
      <trkpt lat="37.7494194824" lon="-8.3817212842">
        <ele>140.01</ele>
        <time>2021-05-29T10:27:03Z</time>
      </trkpt>
      <trkpt lat="37.7494273614" lon="-8.3817312587">
        <ele>140.49</ele>
        <time>2021-05-29T10:27:34Z</time>
      </trkpt>
      <trkpt lat="37.7494098432" lon="-8.3817219548">
        <ele>140.49</ele>
        <time>2021-05-29T10:28:03Z</time>
      </trkpt>
      <trkpt lat="37.7493993659" lon="-8.3817229606">
        <ele>140.97</ele>
        <time>2021-05-29T10:28:40Z</time>
      </trkpt>
      <trkpt lat="37.7494042274" lon="-8.3817101363">
        <ele>140.97</ele>
        <time>2021-05-29T10:29:17Z</time>
      </trkpt>
      <trkpt lat="37.7493809257" lon="-8.3817026764">
        <ele>141.45</ele>
        <time>2021-05-29T10:29:59Z</time>
      </trkpt>
      <trkpt lat="37.7493503317" lon="-8.3817021735">
        <ele>141.45</ele>
        <time>2021-05-29T10:30:45Z</time>
      </trkpt>
      <trkpt lat="37.7493532654" lon="-8.3817076217">
        <ele>140.97</ele>
        <time>2021-05-29T10:31:33Z</time>
      </trkpt>
      <trkpt lat="37.7493572049" lon="-8.3817095496">
        <ele>141.45</ele>
        <time>2021-05-29T10:32:13Z</time>
      </trkpt>
      <trkpt lat="37.7493551094" lon="-8.3817094658">
        <ele>142.41</ele>
        <time>2021-05-29T10:32:42Z</time>
      </trkpt>
      <trkpt lat="37.7493625693" lon="-8.3817117289">
        <ele>141.93</ele>
        <time>2021-05-29T10:33:08Z</time>
      </trkpt>
      <trkpt lat="37.7493736334" lon="-8.3817044366">
        <ele>142.41</ele>
        <time>2021-05-29T10:33:54Z</time>
      </trkpt>
      <trkpt lat="37.7493800037" lon="-8.3816903550">
        <ele>141.93</ele>
        <time>2021-05-29T10:34:28Z</time>
      </trkpt>
      <trkpt lat="37.7493808419" lon="-8.3816947974">
        <ele>142.41</ele>
        <time>2021-05-29T10:35:01Z</time>
      </trkpt>
      <trkpt lat="37.7493878826" lon="-8.3817004971">
        <ele>142.41</ele>
        <time>2021-05-29T10:35:23Z</time>
      </trkpt>
      <trkpt lat="37.7493942529" lon="-8.3817055263">
        <ele>142.41</ele>
        <time>2021-05-29T10:35:47Z</time>
      </trkpt>
      <trkpt lat="37.7493963484" lon="-8.3817043528">
        <ele>141.93</ele>
        <time>2021-05-29T10:36:08Z</time>
      </trkpt>
      <trkpt lat="37.7493971866" lon="-8.3816891816">
        <ele>142.41</ele>
        <time>2021-05-29T10:36:40Z</time>
      </trkpt>
      <trkpt lat="37.7493895590" lon="-8.3816940431">
        <ele>141.93</ele>
        <time>2021-05-29T10:37:08Z</time>
      </trkpt>
      <trkpt lat="37.7493897267" lon="-8.3816953003">
        <ele>141.93</ele>
        <time>2021-05-29T10:37:42Z</time>
      </trkpt>
      <trkpt lat="37.7493826859" lon="-8.3817061130">
        <ele>141.45</ele>
        <time>2021-05-29T10:38:19Z</time>
      </trkpt>
      <trkpt lat="37.7493923251" lon="-8.3817095496">
        <ele>141.93</ele>
        <time>2021-05-29T10:39:10Z</time>
      </trkpt>
      <trkpt lat="37.7493883856" lon="-8.3816984855">
        <ele>141.93</ele>
        <time>2021-05-29T10:40:01Z</time>
      </trkpt>
      <trkpt lat="37.7494001202" lon="-8.3817069512">
        <ele>142.41</ele>
        <time>2021-05-29T10:40:58Z</time>
      </trkpt>
      <trkpt lat="37.7494069096" lon="-8.3817050233">
        <ele>142.89</ele>
        <time>2021-05-29T10:41:59Z</time>
      </trkpt>
      <trkpt lat="37.7494114358" lon="-8.3817105554">
        <ele>141.93</ele>
        <time>2021-05-29T10:42:54Z</time>
      </trkpt>
      <trkpt lat="37.7494152915" lon="-8.3817066159">
        <ele>142.41</ele>
        <time>2021-05-29T10:43:49Z</time>
      </trkpt>
      <trkpt lat="37.7494047303" lon="-8.3816980664">
        <ele>142.89</ele>
        <time>2021-05-29T10:44:31Z</time>
      </trkpt>
      <trkpt lat="37.7494025510" lon="-8.3816906903">
        <ele>142.41</ele>
        <time>2021-05-29T10:45:13Z</time>
      </trkpt>
      <trkpt lat="37.7493981924" lon="-8.3816888463">
        <ele>142.89</ele>
        <time>2021-05-29T10:45:57Z</time>
      </trkpt>
      <trkpt lat="37.7493950073" lon="-8.3816917799">
        <ele>142.41</ele>
        <time>2021-05-29T10:46:21Z</time>
      </trkpt>
      <trkpt lat="37.7493947558" lon="-8.3816950489">
        <ele>142.41</ele>
        <time>2021-05-29T10:46:45Z</time>
      </trkpt>
      <trkpt lat="37.7494221646" lon="-8.3816879243">
        <ele>142.41</ele>
        <time>2021-05-29T10:46:53Z</time>
      </trkpt>
      <trkpt lat="37.7494406048" lon="-8.3816805482">
        <ele>142.89</ele>
        <time>2021-05-29T10:46:54Z</time>
      </trkpt>
      <trkpt lat="37.7494640741" lon="-8.3816594258">
        <ele>142.89</ele>
        <time>2021-05-29T10:46:55Z</time>
      </trkpt>
      <trkpt lat="37.7494827658" lon="-8.3816310950">
        <ele>143.37</ele>
        <time>2021-05-29T10:46:56Z</time>
      </trkpt>
      <trkpt lat="37.7494977694" lon="-8.3816032670">
        <ele>142.89</ele>
        <time>2021-05-29T10:46:57Z</time>
      </trkpt>
      <trkpt lat="37.7495156229" lon="-8.3815884311">
        <ele>142.89</ele>
        <time>2021-05-29T10:46:58Z</time>
      </trkpt>
      <trkpt lat="37.7495312132" lon="-8.3815809712">
        <ele>142.89</ele>
        <time>2021-05-29T10:46:59Z</time>
      </trkpt>
      <trkpt lat="37.7495188918" lon="-8.3815863356">
        <ele>142.41</ele>
        <time>2021-05-29T10:47:09Z</time>
      </trkpt>
      <trkpt lat="37.7495268546" lon="-8.3815890178">
        <ele>142.89</ele>
        <time>2021-05-29T10:47:12Z</time>
      </trkpt>
      <trkpt lat="37.7495379187" lon="-8.3816389740">
        <ele>142.89</ele>
        <time>2021-05-29T10:47:14Z</time>
      </trkpt>
      <trkpt lat="37.7495201491" lon="-8.3816811349">
        <ele>143.37</ele>
        <time>2021-05-29T10:47:15Z</time>
      </trkpt>
      <trkpt lat="37.7494720370" lon="-8.3817346115">
        <ele>143.37</ele>
        <time>2021-05-29T10:47:16Z</time>
      </trkpt>
      <trkpt lat="37.7493981086" lon="-8.3818021696">
        <ele>143.85</ele>
        <time>2021-05-29T10:47:17Z</time>
      </trkpt>
      <trkpt lat="37.7492120303" lon="-8.3819834702">
        <ele>144.82</ele>
        <time>2021-05-29T10:47:19Z</time>
      </trkpt>
      <trkpt lat="37.7487484273" lon="-8.3824416250">
        <ele>147.70</ele>
        <time>2021-05-29T10:47:23Z</time>
      </trkpt>
      <trkpt lat="37.7472715359" lon="-8.3839192707">
        <ele>148.66</ele>
        <time>2021-05-29T10:47:34Z</time>
      </trkpt>
      <trkpt lat="37.7459841594" lon="-8.3852111734">
        <ele>151.54</ele>
        <time>2021-05-29T10:47:43Z</time>
      </trkpt>
      <trkpt lat="37.7443812042" lon="-8.3868073393">
        <ele>147.22</ele>
        <time>2021-05-29T10:47:54Z</time>
      </trkpt>
      <trkpt lat="37.7442346048" lon="-8.3869523462">
        <ele>147.70</ele>
        <time>2021-05-29T10:47:55Z</time>
      </trkpt>
      <trkpt lat="37.7437799703" lon="-8.3874058072">
        <ele>151.54</ele>
        <time>2021-05-29T10:47:58Z</time>
      </trkpt>
      <trkpt lat="37.7436247375" lon="-8.3875602018">
        <ele>151.54</ele>
        <time>2021-05-29T10:47:59Z</time>
      </trkpt>
      <trkpt lat="37.7431575302" lon="-8.3880241401">
        <ele>153.47</ele>
        <time>2021-05-29T10:48:02Z</time>
      </trkpt>
      <trkpt lat="37.7425629180" lon="-8.3886251226">
        <ele>155.87</ele>
        <time>2021-05-29T10:48:06Z</time>
      </trkpt>
      <trkpt lat="37.7421118878" lon="-8.3890691958">
        <ele>159.24</ele>
        <time>2021-05-29T10:48:09Z</time>
      </trkpt>
      <trkpt lat="37.7419602592" lon="-8.3892196510">
        <ele>159.24</ele>
        <time>2021-05-29T10:48:10Z</time>
      </trkpt>
      <trkpt lat="37.7416532300" lon="-8.3895271830">
        <ele>161.64</ele>
        <time>2021-05-29T10:48:12Z</time>
      </trkpt>
      <trkpt lat="37.7410081588" lon="-8.3901817258">
        <ele>164.52</ele>
        <time>2021-05-29T10:48:16Z</time>
      </trkpt>
      <trkpt lat="37.7389820851" lon="-8.3922000881">
        <ele>161.16</ele>
        <time>2021-05-29T10:48:28Z</time>
      </trkpt>
      <trkpt lat="37.7376451716" lon="-8.3939498104">
        <ele>164.04</ele>
        <time>2021-05-29T10:48:37Z</time>
      </trkpt>
      <trkpt lat="37.7370912116" lon="-8.3947983105">
        <ele>167.89</ele>
        <time>2021-05-29T10:48:41Z</time>
      </trkpt>
      <trkpt lat="37.7360194176" lon="-8.3964612801">
        <ele>170.77</ele>
        <time>2021-05-29T10:48:49Z</time>
      </trkpt>
      <trkpt lat="37.7351066284" lon="-8.3978585433">
        <ele>171.73</ele>
        <time>2021-05-29T10:48:56Z</time>
      </trkpt>
      <trkpt lat="37.7347160317" lon="-8.3984612022">
        <ele>174.14</ele>
        <time>2021-05-29T10:48:59Z</time>
      </trkpt>
      <trkpt lat="37.7340486646" lon="-8.3994762506">
        <ele>176.06</ele>
        <time>2021-05-29T10:49:04Z</time>
      </trkpt>
      <trkpt lat="37.7326188795" lon="-8.4016772546">
        <ele>176.54</ele>
        <time>2021-05-29T10:49:15Z</time>
      </trkpt>
      <trkpt lat="37.7315699682" lon="-8.4032805450">
        <ele>176.06</ele>
        <time>2021-05-29T10:49:25Z</time>
      </trkpt>
      <trkpt lat="37.7304042131" lon="-8.4050921258">
        <ele>178.46</ele>
        <time>2021-05-29T10:49:35Z</time>
      </trkpt>
      <trkpt lat="37.7300386783" lon="-8.4056608379">
        <ele>179.90</ele>
        <time>2021-05-29T10:49:38Z</time>
      </trkpt>
      <trkpt lat="37.7292475943" lon="-8.4068771359">
        <ele>181.83</ele>
        <time>2021-05-29T10:49:44Z</time>
      </trkpt>
      <trkpt lat="37.7285627089" lon="-8.4079304896">
        <ele>184.23</ele>
        <time>2021-05-29T10:49:49Z</time>
      </trkpt>
      <trkpt lat="37.7277777437" lon="-8.4091366455">
        <ele>182.79</ele>
        <time>2021-05-29T10:49:56Z</time>
      </trkpt>
      <trkpt lat="37.7273333352" lon="-8.4096932877">
        <ele>178.46</ele>
        <time>2021-05-29T10:50:01Z</time>
      </trkpt>
      <trkpt lat="37.7272575628" lon="-8.4097837284">
        <ele>178.46</ele>
        <time>2021-05-29T10:50:02Z</time>
      </trkpt>
      <trkpt lat="37.7269780263" lon="-8.4102084395">
        <ele>177.02</ele>
        <time>2021-05-29T10:50:07Z</time>
      </trkpt>
      <trkpt lat="37.7269445825" lon="-8.4102962818">
        <ele>176.54</ele>
        <time>2021-05-29T10:50:08Z</time>
      </trkpt>
      <trkpt lat="37.7269066963" lon="-8.4103873931">
        <ele>177.50</ele>
        <time>2021-05-29T10:50:09Z</time>
      </trkpt>
      <trkpt lat="37.7268551476" lon="-8.4104678594">
        <ele>177.02</ele>
        <time>2021-05-29T10:50:10Z</time>
      </trkpt>
      <trkpt lat="37.7267879248" lon="-8.4105267841">
        <ele>176.54</ele>
        <time>2021-05-29T10:50:11Z</time>
      </trkpt>
      <trkpt lat="37.7267156728" lon="-8.4105454758">
        <ele>176.54</ele>
        <time>2021-05-29T10:50:12Z</time>
      </trkpt>
      <trkpt lat="37.7266490366" lon="-8.4105253592">
        <ele>176.54</ele>
        <time>2021-05-29T10:50:13Z</time>
      </trkpt>
      <trkpt lat="37.7266023494" lon="-8.4104638360">
        <ele>177.02</ele>
        <time>2021-05-29T10:50:14Z</time>
      </trkpt>
      <trkpt lat="37.7265772875" lon="-8.4103805199">
        <ele>176.54</ele>
        <time>2021-05-29T10:50:15Z</time>
      </trkpt>
      <trkpt lat="37.7265803050" lon="-8.4102819487">
        <ele>177.50</ele>
        <time>2021-05-29T10:50:16Z</time>
      </trkpt>
      <trkpt lat="37.7266114019" lon="-8.4101744089">
        <ele>177.98</ele>
        <time>2021-05-29T10:50:17Z</time>
      </trkpt>
      <trkpt lat="37.7266621124" lon="-8.4100579005">
        <ele>178.46</ele>
        <time>2021-05-29T10:50:18Z</time>
      </trkpt>
      <trkpt lat="37.7267101407" lon="-8.4099295735">
        <ele>179.42</ele>
        <time>2021-05-29T10:50:19Z</time>
      </trkpt>
      <trkpt lat="37.7267444227" lon="-8.4097840637">
        <ele>179.90</ele>
        <time>2021-05-29T10:50:20Z</time>
      </trkpt>
      <trkpt lat="37.7267596778" lon="-8.4096212033">
        <ele>180.38</ele>
        <time>2021-05-29T10:50:21Z</time>
      </trkpt>
      <trkpt lat="37.7267591748" lon="-8.4094429202">
        <ele>181.83</ele>
        <time>2021-05-29T10:50:22Z</time>
      </trkpt>
      <trkpt lat="37.7267534751" lon="-8.4092573449">
        <ele>182.79</ele>
        <time>2021-05-29T10:50:23Z</time>
      </trkpt>
      <trkpt lat="37.7267110627" lon="-8.4086057357">
        <ele>190.00</ele>
        <time>2021-05-29T10:50:26Z</time>
      </trkpt>
      <trkpt lat="37.7266937122" lon="-8.4083663486">
        <ele>189.52</ele>
        <time>2021-05-29T10:50:27Z</time>
      </trkpt>
      <trkpt lat="37.7266584244" lon="-8.4078857303">
        <ele>191.44</ele>
        <time>2021-05-29T10:50:29Z</time>
      </trkpt>
      <trkpt lat="37.7265334502" lon="-8.4061376005">
        <ele>190.48</ele>
        <time>2021-05-29T10:50:36Z</time>
      </trkpt>
      <trkpt lat="37.7264412493" lon="-8.4047850966">
        <ele>187.11</ele>
        <time>2021-05-29T10:50:41Z</time>
      </trkpt>
      <trkpt lat="37.7262623794" lon="-8.4023786522">
        <ele>186.63</ele>
        <time>2021-05-29T10:50:50Z</time>
      </trkpt>
      <trkpt lat="37.7261670772" lon="-8.4012144897">
        <ele>183.27</ele>
        <time>2021-05-29T10:50:54Z</time>
      </trkpt>
      <trkpt lat="37.7260291111" lon="-8.4000265226">
        <ele>179.42</ele>
        <time>2021-05-29T10:50:58Z</time>
      </trkpt>
      <trkpt lat="37.7259605471" lon="-8.3994345088">
        <ele>176.06</ele>
        <time>2021-05-29T10:51:00Z</time>
      </trkpt>
      <trkpt lat="37.7256182302" lon="-8.3970311657">
        <ele>174.14</ele>
        <time>2021-05-29T10:51:09Z</time>
      </trkpt>
      <trkpt lat="37.7251052577" lon="-8.3954239357">
        <ele>170.29</ele>
        <time>2021-05-29T10:51:15Z</time>
      </trkpt>
      <trkpt lat="37.7250133920" lon="-8.3951432258">
        <ele>170.29</ele>
        <time>2021-05-29T10:51:16Z</time>
      </trkpt>
      <trkpt lat="37.7243996691" lon="-8.3932535257">
        <ele>173.17</ele>
        <time>2021-05-29T10:51:23Z</time>
      </trkpt>
      <trkpt lat="37.7237578668" lon="-8.3913135342">
        <ele>174.62</ele>
        <time>2021-05-29T10:51:30Z</time>
      </trkpt>
      <trkpt lat="37.7231095266" lon="-8.3896275144">
        <ele>171.73</ele>
        <time>2021-05-29T10:51:36Z</time>
      </trkpt>
      <trkpt lat="37.7230070997" lon="-8.3893632330">
        <ele>171.73</ele>
        <time>2021-05-29T10:51:37Z</time>
      </trkpt>
      <trkpt lat="37.7222021855" lon="-8.3872297034">
        <ele>168.37</ele>
        <time>2021-05-29T10:51:45Z</time>
      </trkpt>
      <trkpt lat="37.7220983338" lon="-8.3869565371">
        <ele>167.89</ele>
        <time>2021-05-29T10:51:46Z</time>
      </trkpt>
      <trkpt lat="37.7215307113" lon="-8.3853395842">
        <ele>166.93</ele>
        <time>2021-05-29T10:51:52Z</time>
      </trkpt>
      <trkpt lat="37.7213806752" lon="-8.3844662737">
        <ele>171.25</ele>
        <time>2021-05-29T10:51:55Z</time>
      </trkpt>
      <trkpt lat="37.7212015539" lon="-8.3832600340">
        <ele>174.62</ele>
        <time>2021-05-29T10:51:59Z</time>
      </trkpt>
      <trkpt lat="37.7209092770" lon="-8.3812635485">
        <ele>176.06</ele>
        <time>2021-05-29T10:52:06Z</time>
      </trkpt>
      <trkpt lat="37.7204041835" lon="-8.3790848404">
        <ele>171.25</ele>
        <time>2021-05-29T10:52:14Z</time>
      </trkpt>
      <trkpt lat="37.7197501436" lon="-8.3767731115">
        <ele>168.37</ele>
        <time>2021-05-29T10:52:22Z</time>
      </trkpt>
      <trkpt lat="37.7187755797" lon="-8.3733923547">
        <ele>169.33</ele>
        <time>2021-05-29T10:52:34Z</time>
      </trkpt>
      <trkpt lat="37.7186179161" lon="-8.3728295099">
        <ele>165.48</ele>
        <time>2021-05-29T10:52:36Z</time>
      </trkpt>
      <trkpt lat="37.7185387071" lon="-8.3725490514">
        <ele>165.48</ele>
        <time>2021-05-29T10:52:37Z</time>
      </trkpt>
      <trkpt lat="37.7179772034" lon="-8.3705837466">
        <ele>162.60</ele>
        <time>2021-05-29T10:52:44Z</time>
      </trkpt>
      <trkpt lat="37.7177421749" lon="-8.3697696961">
        <ele>160.68</ele>
        <time>2021-05-29T10:52:47Z</time>
      </trkpt>
      <trkpt lat="37.7173391730" lon="-8.3683673199">
        <ele>162.12</ele>
        <time>2021-05-29T10:52:52Z</time>
      </trkpt>
      <trkpt lat="37.7162542194" lon="-8.3646248002">
        <ele>158.75</ele>
        <time>2021-05-29T10:53:05Z</time>
      </trkpt>
      <trkpt lat="37.7160056122" lon="-8.3637788985">
        <ele>155.39</ele>
        <time>2021-05-29T10:53:08Z</time>
      </trkpt>
      <trkpt lat="37.7156949788" lon="-8.3626920171">
        <ele>152.51</ele>
        <time>2021-05-29T10:53:12Z</time>
      </trkpt>
      <trkpt lat="37.7154162806" lon="-8.3616640605">
        <ele>150.58</ele>
        <time>2021-05-29T10:53:16Z</time>
      </trkpt>
      <trkpt lat="37.7146881446" lon="-8.3589342423">
        <ele>147.22</ele>
        <time>2021-05-29T10:53:26Z</time>
      </trkpt>
      <trkpt lat="37.7144774236" lon="-8.3581422362">
        <ele>149.14</ele>
        <time>2021-05-29T10:53:29Z</time>
      </trkpt>
      <trkpt lat="37.7141446620" lon="-8.3567129541">
        <ele>146.26</ele>
        <time>2021-05-29T10:53:34Z</time>
      </trkpt>
      <trkpt lat="37.7137792110" lon="-8.3547603898">
        <ele>146.26</ele>
        <time>2021-05-29T10:53:41Z</time>
      </trkpt>
      <trkpt lat="37.7135567553" lon="-8.3524558693">
        <ele>142.89</ele>
        <time>2021-05-29T10:53:49Z</time>
      </trkpt>
      <trkpt lat="37.7134558372" lon="-8.3513948880">
        <ele>137.61</ele>
        <time>2021-05-29T10:53:53Z</time>
      </trkpt>
      <trkpt lat="37.7132698428" lon="-8.3494204469">
        <ele>132.80</ele>
        <time>2021-05-29T10:54:01Z</time>
      </trkpt>
      <trkpt lat="37.7132408414" lon="-8.3491799701">
        <ele>133.28</ele>
        <time>2021-05-29T10:54:02Z</time>
      </trkpt>
      <trkpt lat="37.7128530946" lon="-8.3477833774">
        <ele>129.92</ele>
        <time>2021-05-29T10:54:08Z</time>
      </trkpt>
      <trkpt lat="37.7127073333" lon="-8.3473707363">
        <ele>126.55</ele>
        <time>2021-05-29T10:54:10Z</time>
      </trkpt>
      <trkpt lat="37.7120910957" lon="-8.3457220998">
        <ele>126.07</ele>
        <time>2021-05-29T10:54:19Z</time>
      </trkpt>
      <trkpt lat="37.7119703125" lon="-8.3454873227">
        <ele>124.63</ele>
        <time>2021-05-29T10:54:21Z</time>
      </trkpt>
      <trkpt lat="37.7118353639" lon="-8.3451597579">
        <ele>124.15</ele>
        <time>2021-05-29T10:54:24Z</time>
      </trkpt>
      <trkpt lat="37.7118049376" lon="-8.3450239711">
        <ele>124.15</ele>
        <time>2021-05-29T10:54:25Z</time>
      </trkpt>
      <trkpt lat="37.7117885090" lon="-8.3448763657">
        <ele>124.15</ele>
        <time>2021-05-29T10:54:26Z</time>
      </trkpt>
      <trkpt lat="37.7117918618" lon="-8.3447254915">
        <ele>123.19</ele>
        <time>2021-05-29T10:54:27Z</time>
      </trkpt>
      <trkpt lat="37.7118133195" lon="-8.3445736952">
        <ele>123.67</ele>
        <time>2021-05-29T10:54:28Z</time>
      </trkpt>
      <trkpt lat="37.7118460927" lon="-8.3444224857">
        <ele>122.71</ele>
        <time>2021-05-29T10:54:29Z</time>
      </trkpt>
      <trkpt lat="37.7119532973" lon="-8.3439990319">
        <ele>119.34</ele>
        <time>2021-05-29T10:54:32Z</time>
      </trkpt>
      <trkpt lat="37.7121653594" lon="-8.3430111408">
        <ele>115.98</ele>
        <time>2021-05-29T10:54:39Z</time>
      </trkpt>
      <trkpt lat="37.7121662814" lon="-8.3428561594">
        <ele>115.01</ele>
        <time>2021-05-29T10:54:40Z</time>
      </trkpt>
      <trkpt lat="37.7121444046" lon="-8.3427057881">
        <ele>115.50</ele>
        <time>2021-05-29T10:54:41Z</time>
      </trkpt>
      <trkpt lat="37.7121002320" lon="-8.3425578475">
        <ele>115.50</ele>
        <time>2021-05-29T10:54:42Z</time>
      </trkpt>
      <trkpt lat="37.7120429836" lon="-8.3424220607">
        <ele>115.50</ele>
        <time>2021-05-29T10:54:43Z</time>
      </trkpt>
      <trkpt lat="37.7119797841" lon="-8.3422925603">
        <ele>115.50</ele>
        <time>2021-05-29T10:54:44Z</time>
      </trkpt>
      <trkpt lat="37.7112447750" lon="-8.3408446703">
        <ele>116.46</ele>
        <time>2021-05-29T10:54:55Z</time>
      </trkpt>
      <trkpt lat="37.7110172063" lon="-8.3403436001">
        <ele>119.82</ele>
        <time>2021-05-29T10:54:59Z</time>
      </trkpt>
      <trkpt lat="37.7109717764" lon="-8.3402044605">
        <ele>120.30</ele>
        <time>2021-05-29T10:55:00Z</time>
      </trkpt>
      <trkpt lat="37.7109362371" lon="-8.3400570229">
        <ele>121.26</ele>
        <time>2021-05-29T10:55:01Z</time>
      </trkpt>
      <trkpt lat="37.7109100018" lon="-8.3398933243">
        <ele>123.67</ele>
        <time>2021-05-29T10:55:02Z</time>
      </trkpt>
      <trkpt lat="37.7108956687" lon="-8.3397233393">
        <ele>124.63</ele>
        <time>2021-05-29T10:55:03Z</time>
      </trkpt>
      <trkpt lat="37.7108947467" lon="-8.3395573776">
        <ele>125.11</ele>
        <time>2021-05-29T10:55:04Z</time>
      </trkpt>
      <trkpt lat="37.7109048050" lon="-8.3393994626">
        <ele>125.59</ele>
        <time>2021-05-29T10:55:05Z</time>
      </trkpt>
      <trkpt lat="37.7110607922" lon="-8.3383308537">
        <ele>128.95</ele>
        <time>2021-05-29T10:55:13Z</time>
      </trkpt>
      <trkpt lat="37.7111911308" lon="-8.3376137819">
        <ele>131.84</ele>
        <time>2021-05-29T10:55:18Z</time>
      </trkpt>
      <trkpt lat="37.7113291807" lon="-8.3368914295">
        <ele>135.20</ele>
        <time>2021-05-29T10:55:23Z</time>
      </trkpt>
      <trkpt lat="37.7113862615" lon="-8.3366009127">
        <ele>136.16</ele>
        <time>2021-05-29T10:55:25Z</time>
      </trkpt>
      <trkpt lat="37.7115955576" lon="-8.3357648179">
        <ele>140.01</ele>
        <time>2021-05-29T10:55:31Z</time>
      </trkpt>
      <trkpt lat="37.7120759245" lon="-8.3348951116">
        <ele>143.37</ele>
        <time>2021-05-29T10:55:39Z</time>
      </trkpt>
      <trkpt lat="37.7121361904" lon="-8.3347801957">
        <ele>143.37</ele>
        <time>2021-05-29T10:55:40Z</time>
      </trkpt>
      <trkpt lat="37.7121893317" lon="-8.3346580714">
        <ele>144.34</ele>
        <time>2021-05-29T10:55:41Z</time>
      </trkpt>
      <trkpt lat="37.7122321632" lon="-8.3345330134">
        <ele>145.30</ele>
        <time>2021-05-29T10:55:42Z</time>
      </trkpt>
      <trkpt lat="37.7122661099" lon="-8.3344046026">
        <ele>145.78</ele>
        <time>2021-05-29T10:55:43Z</time>
      </trkpt>
      <trkpt lat="37.7123171557" lon="-8.3341369685">
        <ele>146.74</ele>
        <time>2021-05-29T10:55:45Z</time>
      </trkpt>
      <trkpt lat="37.7123832889" lon="-8.3336229064">
        <ele>148.66</ele>
        <time>2021-05-29T10:55:49Z</time>
      </trkpt>
      <trkpt lat="37.7123913355" lon="-8.3332236763">
        <ele>150.10</ele>
        <time>2021-05-29T10:55:52Z</time>
      </trkpt>
      <trkpt lat="37.7123793494" lon="-8.3330821898">
        <ele>151.06</ele>
        <time>2021-05-29T10:55:53Z</time>
      </trkpt>
      <trkpt lat="37.7122894954" lon="-8.3324922714">
        <ele>155.87</ele>
        <time>2021-05-29T10:55:57Z</time>
      </trkpt>
      <trkpt lat="37.7121841349" lon="-8.3319145069">
        <ele>159.72</ele>
        <time>2021-05-29T10:56:00Z</time>
      </trkpt>
      <trkpt lat="37.7121421415" lon="-8.3317034505">
        <ele>163.08</ele>
        <time>2021-05-29T10:56:01Z</time>
      </trkpt>
      <trkpt lat="37.7119430713" lon="-8.3308298048">
        <ele>166.93</ele>
        <time>2021-05-29T10:56:05Z</time>
      </trkpt>
      <trkpt lat="37.7117517963" lon="-8.3299416583">
        <ele>170.29</ele>
        <time>2021-05-29T10:56:09Z</time>
      </trkpt>
      <trkpt lat="37.7116958890" lon="-8.3297452703">
        <ele>170.29</ele>
        <time>2021-05-29T10:56:10Z</time>
      </trkpt>
      <trkpt lat="37.7116251457" lon="-8.3295585215">
        <ele>171.25</ele>
        <time>2021-05-29T10:56:11Z</time>
      </trkpt>
      <trkpt lat="37.7115349565" lon="-8.3293765504">
        <ele>172.21</ele>
        <time>2021-05-29T10:56:12Z</time>
      </trkpt>
      <trkpt lat="37.7114278357" lon="-8.3291949984">
        <ele>174.14</ele>
        <time>2021-05-29T10:56:13Z</time>
      </trkpt>
      <trkpt lat="37.7113028616" lon="-8.3290166315">
        <ele>174.62</ele>
        <time>2021-05-29T10:56:14Z</time>
      </trkpt>
      <trkpt lat="37.7111593634" lon="-8.3288420364">
        <ele>176.54</ele>
        <time>2021-05-29T10:56:15Z</time>
      </trkpt>
      <trkpt lat="37.7110026218" lon="-8.3286743145">
        <ele>177.50</ele>
        <time>2021-05-29T10:56:16Z</time>
      </trkpt>
      <trkpt lat="37.7087094169" lon="-8.3263100311">
        <ele>180.87</ele>
        <time>2021-05-29T10:56:30Z</time>
      </trkpt>
      <trkpt lat="37.7085341513" lon="-8.3261269704">
        <ele>180.87</ele>
        <time>2021-05-29T10:56:31Z</time>
      </trkpt>
      <trkpt lat="37.7073393110" lon="-8.3251503948">
        <ele>184.71</ele>
        <time>2021-05-29T10:56:37Z</time>
      </trkpt>
      <trkpt lat="37.7066432778" lon="-8.3247094229">
        <ele>188.56</ele>
        <time>2021-05-29T10:56:40Z</time>
      </trkpt>
      <trkpt lat="37.7061636653" lon="-8.3244059980">
        <ele>190.00</ele>
        <time>2021-05-29T10:56:42Z</time>
      </trkpt>
      <trkpt lat="37.7050052024" lon="-8.3236652054">
        <ele>193.84</ele>
        <time>2021-05-29T10:56:47Z</time>
      </trkpt>
      <trkpt lat="37.7047717664" lon="-8.3235160075">
        <ele>193.36</ele>
        <time>2021-05-29T10:56:48Z</time>
      </trkpt>
      <trkpt lat="37.7042976860" lon="-8.3232141752">
        <ele>198.65</ele>
        <time>2021-05-29T10:56:50Z</time>
      </trkpt>
      <trkpt lat="37.7040575445" lon="-8.3230596129">
        <ele>198.17</ele>
        <time>2021-05-29T10:56:51Z</time>
      </trkpt>
      <trkpt lat="37.7010826394" lon="-8.3211612795">
        <ele>199.13</ele>
        <time>2021-05-29T10:57:03Z</time>
      </trkpt>
      <trkpt lat="37.7006049547" lon="-8.3208622131">
        <ele>200.09</ele>
        <time>2021-05-29T10:57:05Z</time>
      </trkpt>
      <trkpt lat="37.6987067051" lon="-8.3196474239">
        <ele>199.61</ele>
        <time>2021-05-29T10:57:14Z</time>
      </trkpt>
      <trkpt lat="37.6969524566" lon="-8.3186082356">
        <ele>195.28</ele>
        <time>2021-05-29T10:57:24Z</time>
      </trkpt>
      <trkpt lat="37.6967832260" lon="-8.3185390849">
        <ele>195.28</ele>
        <time>2021-05-29T10:57:25Z</time>
      </trkpt>
      <trkpt lat="37.6962953992" lon="-8.3183614723">
        <ele>193.36</ele>
        <time>2021-05-29T10:57:28Z</time>
      </trkpt>
      <trkpt lat="37.6949075237" lon="-8.3181091771">
        <ele>190.48</ele>
        <time>2021-05-29T10:57:36Z</time>
      </trkpt>
      <trkpt lat="37.6932031475" lon="-8.3178293891">
        <ele>187.59</ele>
        <time>2021-05-29T10:57:44Z</time>
      </trkpt>
      <trkpt lat="37.6925136521" lon="-8.3177195024">
        <ele>184.71</ele>
        <time>2021-05-29T10:57:47Z</time>
      </trkpt>
      <trkpt lat="37.6920591015" lon="-8.3176489267">
        <ele>183.75</ele>
        <time>2021-05-29T10:57:49Z</time>
      </trkpt>
      <trkpt lat="37.6911152154" lon="-8.3174910955">
        <ele>180.38</ele>
        <time>2021-05-29T10:57:53Z</time>
      </trkpt>
      <trkpt lat="37.6904019155" lon="-8.3173698932">
        <ele>177.02</ele>
        <time>2021-05-29T10:57:56Z</time>
      </trkpt>
      <trkpt lat="37.6901616901" lon="-8.3173320908">
        <ele>176.54</ele>
        <time>2021-05-29T10:57:57Z</time>
      </trkpt>
      <trkpt lat="37.6868104376" lon="-8.3165493049">
        <ele>175.58</ele>
        <time>2021-05-29T10:58:11Z</time>
      </trkpt>
      <trkpt lat="37.6857314352" lon="-8.3156683668">
        <ele>175.10</ele>
        <time>2021-05-29T10:58:16Z</time>
      </trkpt>
      <trkpt lat="37.6846937556" lon="-8.3140987717">
        <ele>172.69</ele>
        <time>2021-05-29T10:58:22Z</time>
      </trkpt>
      <trkpt lat="37.6840872411" lon="-8.3129723277">
        <ele>168.85</ele>
        <time>2021-05-29T10:58:26Z</time>
      </trkpt>
      <trkpt lat="37.6835259050" lon="-8.3119379170">
        <ele>165.48</ele>
        <time>2021-05-29T10:58:30Z</time>
      </trkpt>
      <trkpt lat="37.6817327645" lon="-8.3086289093">
        <ele>163.56</ele>
        <time>2021-05-29T10:58:43Z</time>
      </trkpt>
      <trkpt lat="37.6812853385" lon="-8.3078031242">
        <ele>165.96</ele>
        <time>2021-05-29T10:58:46Z</time>
      </trkpt>
      <trkpt lat="37.6808343083" lon="-8.3069628384">
        <ele>167.89</ele>
        <time>2021-05-29T10:58:49Z</time>
      </trkpt>
      <trkpt lat="37.6802229322" lon="-8.3058316167">
        <ele>170.77</ele>
        <time>2021-05-29T10:58:53Z</time>
      </trkpt>
      <trkpt lat="37.6791254058" lon="-8.3038035315">
        <ele>174.14</ele>
        <time>2021-05-29T10:59:00Z</time>
      </trkpt>
      <trkpt lat="37.6786258444" lon="-8.3028972801">
        <ele>171.25</ele>
        <time>2021-05-29T10:59:03Z</time>
      </trkpt>
      <trkpt lat="37.6776237041" lon="-8.3010723721">
        <ele>166.45</ele>
        <time>2021-05-29T10:59:09Z</time>
      </trkpt>
      <trkpt lat="37.6774595026" lon="-8.3007700369">
        <ele>166.45</ele>
        <time>2021-05-29T10:59:10Z</time>
      </trkpt>
      <trkpt lat="37.6764121000" lon="-8.2987613138">
        <ele>162.12</ele>
        <time>2021-05-29T10:59:17Z</time>
      </trkpt>
      <trkpt lat="37.6762043964" lon="-8.2981774304">
        <ele>161.16</ele>
        <time>2021-05-29T10:59:19Z</time>
      </trkpt>
      <trkpt lat="37.6758904103" lon="-8.2962206751">
        <ele>163.56</ele>
        <time>2021-05-29T10:59:25Z</time>
      </trkpt>
      <trkpt lat="37.6761575416" lon="-8.2942229323">
        <ele>165.96</ele>
        <time>2021-05-29T10:59:31Z</time>
      </trkpt>
      <trkpt lat="37.6764710248" lon="-8.2932316884">
        <ele>169.33</ele>
        <time>2021-05-29T10:59:34Z</time>
      </trkpt>
      <trkpt lat="37.6766852662" lon="-8.2925604656">
        <ele>170.77</ele>
        <time>2021-05-29T10:59:36Z</time>
      </trkpt>
      <trkpt lat="37.6781043224" lon="-8.2881973498">
        <ele>174.62</ele>
        <time>2021-05-29T10:59:49Z</time>
      </trkpt>
      <trkpt lat="37.6784357429" lon="-8.2871733326">
        <ele>179.90</ele>
        <time>2021-05-29T10:59:52Z</time>
      </trkpt>
      <trkpt lat="37.6785451267" lon="-8.2868352905">
        <ele>178.46</ele>
        <time>2021-05-29T10:59:53Z</time>
      </trkpt>
      <trkpt lat="37.6791789662" lon="-8.2848642021">
        <ele>181.35</ele>
        <time>2021-05-29T10:59:59Z</time>
      </trkpt>
      <trkpt lat="37.6801340003" lon="-8.2819376606">
        <ele>185.19</ele>
        <time>2021-05-29T11:00:08Z</time>
      </trkpt>
      <trkpt lat="37.6804567035" lon="-8.2809439860">
        <ele>183.27</ele>
        <time>2021-05-29T11:00:11Z</time>
      </trkpt>
      <trkpt lat="37.6807842683" lon="-8.2799331285">
        <ele>180.87</ele>
        <time>2021-05-29T11:00:14Z</time>
      </trkpt>
      <trkpt lat="37.6811111625" lon="-8.2789323293">
        <ele>177.50</ele>
        <time>2021-05-29T11:00:17Z</time>
      </trkpt>
      <trkpt lat="37.6812140085" lon="-8.2786128949">
        <ele>177.98</ele>
        <time>2021-05-29T11:00:18Z</time>
      </trkpt>
      <trkpt lat="37.6813908666" lon="-8.2779659797">
        <ele>178.94</ele>
        <time>2021-05-29T11:00:20Z</time>
      </trkpt>
      <trkpt lat="37.6815786213" lon="-8.2758549135">
        <ele>181.83</ele>
        <time>2021-05-29T11:00:26Z</time>
      </trkpt>
      <trkpt lat="37.6812591031" lon="-8.2737490442">
        <ele>180.38</ele>
        <time>2021-05-29T11:00:32Z</time>
      </trkpt>
      <trkpt lat="37.6804914884" lon="-8.2718259841">
        <ele>177.02</ele>
        <time>2021-05-29T11:00:38Z</time>
      </trkpt>
      <trkpt lat="37.6801137161" lon="-8.2709558588">
        <ele>171.73</ele>
        <time>2021-05-29T11:00:41Z</time>
      </trkpt>
      <trkpt lat="37.6799889095" lon="-8.2706695329">
        <ele>173.66</ele>
        <time>2021-05-29T11:00:42Z</time>
      </trkpt>
      <trkpt lat="37.6793889329" lon="-8.2692826632">
        <ele>171.73</ele>
        <time>2021-05-29T11:00:47Z</time>
      </trkpt>
      <trkpt lat="37.6790463645" lon="-8.2684992068">
        <ele>174.62</ele>
        <time>2021-05-29T11:00:50Z</time>
      </trkpt>
      <trkpt lat="37.6788151916" lon="-8.2679559756">
        <ele>176.06</ele>
        <time>2021-05-29T11:00:52Z</time>
      </trkpt>
      <trkpt lat="37.6770761143" lon="-8.2639201730">
        <ele>175.58</ele>
        <time>2021-05-29T11:01:06Z</time>
      </trkpt>
      <trkpt lat="37.6767184585" lon="-8.2630750258">
        <ele>171.73</ele>
        <time>2021-05-29T11:01:09Z</time>
      </trkpt>
      <trkpt lat="37.6766046323" lon="-8.2628050447">
        <ele>171.73</ele>
        <time>2021-05-29T11:01:10Z</time>
      </trkpt>
      <trkpt lat="37.6762596332" lon="-8.2620039862">
        <ele>168.37</ele>
        <time>2021-05-29T11:01:13Z</time>
      </trkpt>
      <trkpt lat="37.6757906657" lon="-8.2609103154">
        <ele>165.00</ele>
        <time>2021-05-29T11:01:17Z</time>
      </trkpt>
      <trkpt lat="37.6752970554" lon="-8.2597638387">
        <ele>162.60</ele>
        <time>2021-05-29T11:01:21Z</time>
      </trkpt>
      <trkpt lat="37.6750471909" lon="-8.2592045143">
        <ele>161.64</ele>
        <time>2021-05-29T11:01:23Z</time>
      </trkpt>
      <trkpt lat="37.6740919892" lon="-8.2570237108">
        <ele>163.56</ele>
        <time>2021-05-29T11:01:31Z</time>
      </trkpt>
      <trkpt lat="37.6727710851" lon="-8.2539561018">
        <ele>166.45</ele>
        <time>2021-05-29T11:01:42Z</time>
      </trkpt>
      <trkpt lat="37.6720665861" lon="-8.2523265760">
        <ele>169.81</ele>
        <time>2021-05-29T11:01:48Z</time>
      </trkpt>
      <trkpt lat="37.6719498262" lon="-8.2520566788">
        <ele>168.85</ele>
        <time>2021-05-29T11:01:49Z</time>
      </trkpt>
      <trkpt lat="37.6707860827" lon="-8.2493691053">
        <ele>172.21</ele>
        <time>2021-05-29T11:02:00Z</time>
      </trkpt>
      <trkpt lat="37.6706704963" lon="-8.2491606474">
        <ele>172.69</ele>
        <time>2021-05-29T11:02:01Z</time>
      </trkpt>
      <trkpt lat="37.6705375593" lon="-8.2489677798">
        <ele>172.69</ele>
        <time>2021-05-29T11:02:02Z</time>
      </trkpt>
      <trkpt lat="37.6702365652" lon="-8.2486015745">
        <ele>174.14</ele>
        <time>2021-05-29T11:02:04Z</time>
      </trkpt>
      <trkpt lat="37.6699115150" lon="-8.2482252270">
        <ele>175.58</ele>
        <time>2021-05-29T11:02:06Z</time>
      </trkpt>
      <trkpt lat="37.6685994957" lon="-8.2466076873">
        <ele>172.69</ele>
        <time>2021-05-29T11:02:15Z</time>
      </trkpt>
      <trkpt lat="37.6685136650" lon="-8.2463939488">
        <ele>170.77</ele>
        <time>2021-05-29T11:02:16Z</time>
      </trkpt>
      <trkpt lat="37.6684539858" lon="-8.2461667992">
        <ele>170.77</ele>
        <time>2021-05-29T11:02:17Z</time>
      </trkpt>
      <trkpt lat="37.6682958193" lon="-8.2455220632">
        <ele>169.81</ele>
        <time>2021-05-29T11:02:20Z</time>
      </trkpt>
      <trkpt lat="37.6682138443" lon="-8.2453189697">
        <ele>169.33</ele>
        <time>2021-05-29T11:02:21Z</time>
      </trkpt>
      <trkpt lat="37.6681136806" lon="-8.2451214921">
        <ele>169.81</ele>
        <time>2021-05-29T11:02:22Z</time>
      </trkpt>
      <trkpt lat="37.6679042168" lon="-8.2447272912">
        <ele>167.89</ele>
        <time>2021-05-29T11:02:24Z</time>
      </trkpt>
      <trkpt lat="37.6678296179" lon="-8.2445045002">
        <ele>168.37</ele>
        <time>2021-05-29T11:02:25Z</time>
      </trkpt>
      <trkpt lat="37.6677801646" lon="-8.2442710642">
        <ele>168.85</ele>
        <time>2021-05-29T11:02:26Z</time>
      </trkpt>
      <trkpt lat="37.6677020453" lon="-8.2438419107">
        <ele>164.04</ele>
        <time>2021-05-29T11:02:28Z</time>
      </trkpt>
      <trkpt lat="37.6676438749" lon="-8.2436576765">
        <ele>163.56</ele>
        <time>2021-05-29T11:02:29Z</time>
      </trkpt>
      <trkpt lat="37.6675588824" lon="-8.2434933912">
        <ele>163.56</ele>
        <time>2021-05-29T11:02:30Z</time>
      </trkpt>
      <trkpt lat="37.6674432959" lon="-8.2433498930">
        <ele>164.04</ele>
        <time>2021-05-29T11:02:31Z</time>
      </trkpt>
      <trkpt lat="37.6673012227" lon="-8.2432184648">
        <ele>165.48</ele>
        <time>2021-05-29T11:02:32Z</time>
      </trkpt>
      <trkpt lat="37.6671417989" lon="-8.2430865336">
        <ele>166.45</ele>
        <time>2021-05-29T11:02:33Z</time>
      </trkpt>
      <trkpt lat="37.6660102420" lon="-8.2424588967">
        <ele>166.93</ele>
        <time>2021-05-29T11:02:39Z</time>
      </trkpt>
      <trkpt lat="37.6646345202" lon="-8.2418509573">
        <ele>165.96</ele>
        <time>2021-05-29T11:02:46Z</time>
      </trkpt>
      <trkpt lat="37.6644791197" lon="-8.2417186070">
        <ele>166.45</ele>
        <time>2021-05-29T11:02:47Z</time>
      </trkpt>
      <trkpt lat="37.6641671453" lon="-8.2413884439">
        <ele>169.33</ele>
        <time>2021-05-29T11:02:49Z</time>
      </trkpt>
      <trkpt lat="37.6638552547" lon="-8.2410287764">
        <ele>173.17</ele>
        <time>2021-05-29T11:02:51Z</time>
      </trkpt>
      <trkpt lat="37.6635460462" lon="-8.2406242657">
        <ele>176.06</ele>
        <time>2021-05-29T11:02:53Z</time>
      </trkpt>
      <trkpt lat="37.6633955073" lon="-8.2404153887">
        <ele>176.06</ele>
        <time>2021-05-29T11:02:54Z</time>
      </trkpt>
      <trkpt lat="37.6625450794" lon="-8.2391791418">
        <ele>173.17</ele>
        <time>2021-05-29T11:03:01Z</time>
      </trkpt>
      <trkpt lat="37.6624282356" lon="-8.2390385773">
        <ele>173.17</ele>
        <time>2021-05-29T11:03:02Z</time>
      </trkpt>
      <trkpt lat="37.6622994896" lon="-8.2389170397">
        <ele>173.17</ele>
        <time>2021-05-29T11:03:03Z</time>
      </trkpt>
      <trkpt lat="37.6621529739" lon="-8.2388129365">
        <ele>172.69</ele>
        <time>2021-05-29T11:03:04Z</time>
      </trkpt>
      <trkpt lat="37.6619930472" lon="-8.2387204003">
        <ele>172.69</ele>
        <time>2021-05-29T11:03:05Z</time>
      </trkpt>
      <trkpt lat="37.6618317794" lon="-8.2386276126">
        <ele>172.21</ele>
        <time>2021-05-29T11:03:06Z</time>
      </trkpt>
      <trkpt lat="37.6616798993" lon="-8.2385230903">
        <ele>172.21</ele>
        <time>2021-05-29T11:03:07Z</time>
      </trkpt>
      <trkpt lat="37.6615395024" lon="-8.2383981999">
        <ele>171.25</ele>
        <time>2021-05-29T11:03:08Z</time>
      </trkpt>
      <trkpt lat="37.6614065655" lon="-8.2382453140">
        <ele>170.77</ele>
        <time>2021-05-29T11:03:09Z</time>
      </trkpt>
      <trkpt lat="37.6604641881" lon="-8.2367619686">
        <ele>172.21</ele>
        <time>2021-05-29T11:03:17Z</time>
      </trkpt>
      <trkpt lat="37.6596800610" lon="-8.2354359515">
        <ele>171.73</ele>
        <time>2021-05-29T11:03:25Z</time>
      </trkpt>
      <trkpt lat="37.6595742814" lon="-8.2353400625">
        <ele>171.73</ele>
        <time>2021-05-29T11:03:26Z</time>
      </trkpt>
      <trkpt lat="37.6594581082" lon="-8.2352811377">
        <ele>171.73</ele>
        <time>2021-05-29T11:03:27Z</time>
      </trkpt>
      <trkpt lat="37.6593320444" lon="-8.2352575846">
        <ele>171.25</ele>
        <time>2021-05-29T11:03:28Z</time>
      </trkpt>
      <trkpt lat="37.6591949165" lon="-8.2352439221">
        <ele>172.69</ele>
        <time>2021-05-29T11:03:29Z</time>
      </trkpt>
      <trkpt lat="37.6590478979" lon="-8.2352128252">
        <ele>173.17</ele>
        <time>2021-05-29T11:03:30Z</time>
      </trkpt>
      <trkpt lat="37.6588956825" lon="-8.2351541519">
        <ele>173.17</ele>
        <time>2021-05-29T11:03:31Z</time>
      </trkpt>
      <trkpt lat="37.6583982166" lon="-8.2348996773">
        <ele>176.06</ele>
        <time>2021-05-29T11:03:34Z</time>
      </trkpt>
      <trkpt lat="37.6582307462" lon="-8.2348120864">
        <ele>176.06</ele>
        <time>2021-05-29T11:03:35Z</time>
      </trkpt>
      <trkpt lat="37.6575248223" lon="-8.2344604656">
        <ele>178.94</ele>
        <time>2021-05-29T11:03:39Z</time>
      </trkpt>
      <trkpt lat="37.6571572758" lon="-8.2343053166">
        <ele>179.90</ele>
        <time>2021-05-29T11:03:41Z</time>
      </trkpt>
      <trkpt lat="37.6564266253" lon="-8.2341027260">
        <ele>183.75</ele>
        <time>2021-05-29T11:03:45Z</time>
      </trkpt>
      <trkpt lat="37.6558507048" lon="-8.2339780033">
        <ele>187.11</ele>
        <time>2021-05-29T11:03:48Z</time>
      </trkpt>
      <trkpt lat="37.6552544162" lon="-8.2338441443">
        <ele>190.48</ele>
        <time>2021-05-29T11:03:51Z</time>
      </trkpt>
      <trkpt lat="37.6550580282" lon="-8.2338007260">
        <ele>190.00</ele>
        <time>2021-05-29T11:03:52Z</time>
      </trkpt>
      <trkpt lat="37.6546970196" lon="-8.2337175775">
        <ele>189.04</ele>
        <time>2021-05-29T11:03:54Z</time>
      </trkpt>
      <trkpt lat="37.6537781954" lon="-8.2334952895">
        <ele>189.52</ele>
        <time>2021-05-29T11:04:01Z</time>
      </trkpt>
      <trkpt lat="37.6531986706" lon="-8.2333115581">
        <ele>190.48</ele>
        <time>2021-05-29T11:04:09Z</time>
      </trkpt>
      <trkpt lat="37.6531556714" lon="-8.2332994882">
        <ele>190.48</ele>
        <time>2021-05-29T11:04:10Z</time>
      </trkpt>
      <trkpt lat="37.6531201322" lon="-8.2332957163">
        <ele>190.48</ele>
        <time>2021-05-29T11:04:11Z</time>
      </trkpt>
      <trkpt lat="37.6530958246" lon="-8.2332982309">
        <ele>190.48</ele>
        <time>2021-05-29T11:04:12Z</time>
      </trkpt>
      <trkpt lat="37.6530794799" lon="-8.2333035953">
        <ele>190.96</ele>
        <time>2021-05-29T11:04:13Z</time>
      </trkpt>
      <trkpt lat="37.6530655660" lon="-8.2333122287">
        <ele>190.96</ele>
        <time>2021-05-29T11:04:14Z</time>
      </trkpt>
      <trkpt lat="37.6530477963" lon="-8.2333287410">
        <ele>190.96</ele>
        <time>2021-05-29T11:04:15Z</time>
      </trkpt>
      <trkpt lat="37.6530252490" lon="-8.2333651185">
        <ele>190.96</ele>
        <time>2021-05-29T11:04:16Z</time>
      </trkpt>
      <trkpt lat="37.6530094910" lon="-8.2334185112">
        <ele>191.92</ele>
        <time>2021-05-29T11:04:17Z</time>
      </trkpt>
      <trkpt lat="37.6530046295" lon="-8.2334721554">
        <ele>191.44</ele>
        <time>2021-05-29T11:04:18Z</time>
      </trkpt>
      <trkpt lat="37.6530131791" lon="-8.2335224468">
        <ele>191.92</ele>
        <time>2021-05-29T11:04:19Z</time>
      </trkpt>
      <trkpt lat="37.6530296914" lon="-8.2335549686">
        <ele>191.44</ele>
        <time>2021-05-29T11:04:20Z</time>
      </trkpt>
      <trkpt lat="37.6530446950" lon="-8.2335706428">
        <ele>190.48</ele>
        <time>2021-05-29T11:04:21Z</time>
      </trkpt>
      <trkpt lat="37.6530612912" lon="-8.2335839700">
        <ele>190.96</ele>
        <time>2021-05-29T11:04:22Z</time>
      </trkpt>
      <trkpt lat="37.6530740317" lon="-8.2335886639">
        <ele>190.00</ele>
        <time>2021-05-29T11:04:23Z</time>
      </trkpt>
      <trkpt lat="37.6530845929" lon="-8.2335955370">
        <ele>190.00</ele>
        <time>2021-05-29T11:04:24Z</time>
      </trkpt>
      <trkpt lat="37.6530958246" lon="-8.2335983869">
        <ele>190.00</ele>
        <time>2021-05-29T11:04:25Z</time>
      </trkpt>
      <trkpt lat="37.6531090681" lon="-8.2336020749">
        <ele>190.00</ele>
        <time>2021-05-29T11:04:26Z</time>
      </trkpt>
      <trkpt lat="37.6531734411" lon="-8.2336186711">
        <ele>190.48</ele>
        <time>2021-05-29T11:04:40Z</time>
      </trkpt>
      <trkpt lat="37.6532103214" lon="-8.2336234488">
        <ele>190.48</ele>
        <time>2021-05-29T11:04:42Z</time>
      </trkpt>
      <trkpt lat="37.6532236487" lon="-8.2336075231">
        <ele>190.00</ele>
        <time>2021-05-29T11:04:43Z</time>
      </trkpt>
      <trkpt lat="37.6532368083" lon="-8.2335938606">
        <ele>189.52</ele>
        <time>2021-05-29T11:04:44Z</time>
      </trkpt>
      <trkpt lat="37.6532575116" lon="-8.2335956208">
        <ele>189.52</ele>
        <time>2021-05-29T11:04:45Z</time>
      </trkpt>
      <trkpt lat="37.6532741077" lon="-8.2336145639">
        <ele>190.00</ele>
        <time>2021-05-29T11:04:46Z</time>
      </trkpt>
      <trkpt lat="37.6532183681" lon="-8.2336663641">
        <ele>190.00</ele>
        <time>2021-05-29T11:04:51Z</time>
      </trkpt>
      <trkpt lat="37.6531501394" lon="-8.2336113788">
        <ele>189.52</ele>
        <time>2021-05-29T11:05:01Z</time>
      </trkpt>
      <trkpt lat="37.6531365607" lon="-8.2335924357">
        <ele>189.52</ele>
        <time>2021-05-29T11:05:22Z</time>
      </trkpt>
      <trkpt lat="37.6531399973" lon="-8.2335908432">
        <ele>190.00</ele>
        <time>2021-05-29T11:06:00Z</time>
      </trkpt>
      <trkpt lat="37.6531122532" lon="-8.2335837185">
        <ele>189.52</ele>
        <time>2021-05-29T11:06:42Z</time>
      </trkpt>
      <trkpt lat="37.6531303581" lon="-8.2335811201">
        <ele>190.00</ele>
        <time>2021-05-29T11:07:18Z</time>
      </trkpt>
      <trkpt lat="37.6531317830" lon="-8.2336020749">
        <ele>190.96</ele>
        <time>2021-05-29T11:07:47Z</time>
      </trkpt>
      <trkpt lat="37.6531497203" lon="-8.2335925195">
        <ele>191.44</ele>
        <time>2021-05-29T11:08:36Z</time>
      </trkpt>
      <trkpt lat="37.6531442720" lon="-8.2336135581">
        <ele>191.92</ele>
        <time>2021-05-29T11:09:16Z</time>
      </trkpt>
      <trkpt lat="37.6531511452" lon="-8.2336060982">
        <ele>192.40</ele>
        <time>2021-05-29T11:09:53Z</time>
      </trkpt>
      <trkpt lat="37.6531464513" lon="-8.2335971296">
        <ele>191.44</ele>
        <time>2021-05-29T11:10:18Z</time>
      </trkpt>
      <trkpt lat="37.6531219762" lon="-8.2335529570">
        <ele>191.92</ele>
        <time>2021-05-29T11:10:31Z</time>
      </trkpt>
      <trkpt lat="37.6531195454" lon="-8.2335237879">
        <ele>191.92</ele>
        <time>2021-05-29T11:10:32Z</time>
      </trkpt>
      <trkpt lat="37.6531307772" lon="-8.2335060183">
        <ele>192.40</ele>
        <time>2021-05-29T11:10:33Z</time>
      </trkpt>
      <trkpt lat="37.6531473733" lon="-8.2335032523">
        <ele>191.92</ele>
        <time>2021-05-29T11:10:34Z</time>
      </trkpt>
      <trkpt lat="37.6531670708" lon="-8.2335108798">
        <ele>191.92</ele>
        <time>2021-05-29T11:10:35Z</time>
      </trkpt>
      <trkpt lat="37.6532739401" lon="-8.2336772606">
        <ele>191.92</ele>
        <time>2021-05-29T11:10:40Z</time>
      </trkpt>
      <trkpt lat="37.6532591879" lon="-8.2337579783">
        <ele>192.40</ele>
        <time>2021-05-29T11:10:42Z</time>
      </trkpt>
      <trkpt lat="37.6532442681" lon="-8.2337939367">
        <ele>191.44</ele>
        <time>2021-05-29T11:10:43Z</time>
      </trkpt>
      <trkpt lat="37.6531715132" lon="-8.2338707149">
        <ele>191.44</ele>
        <time>2021-05-29T11:10:46Z</time>
      </trkpt>
      <trkpt lat="37.6531322859" lon="-8.2338716369">
        <ele>190.96</ele>
        <time>2021-05-29T11:10:47Z</time>
      </trkpt>
      <trkpt lat="37.6530923042" lon="-8.2338534482">
        <ele>190.96</ele>
        <time>2021-05-29T11:10:48Z</time>
      </trkpt>
      <trkpt lat="37.6530576032" lon="-8.2338119578">
        <ele>190.96</ele>
        <time>2021-05-29T11:10:49Z</time>
      </trkpt>
      <trkpt lat="37.6530275121" lon="-8.2337568887">
        <ele>191.92</ele>
        <time>2021-05-29T11:10:50Z</time>
      </trkpt>
      <trkpt lat="37.6530027855" lon="-8.2336975448">
        <ele>192.40</ele>
        <time>2021-05-29T11:10:51Z</time>
      </trkpt>
      <trkpt lat="37.6529805735" lon="-8.2336353511">
        <ele>191.92</ele>
        <time>2021-05-29T11:10:52Z</time>
      </trkpt>
      <trkpt lat="37.6529555954" lon="-8.2335779350">
        <ele>192.88</ele>
        <time>2021-05-29T11:10:53Z</time>
      </trkpt>
      <trkpt lat="37.6529282704" lon="-8.2335320860">
        <ele>193.36</ele>
        <time>2021-05-29T11:10:54Z</time>
      </trkpt>
      <trkpt lat="37.6528903004" lon="-8.2334967144">
        <ele>192.88</ele>
        <time>2021-05-29T11:10:55Z</time>
      </trkpt>
      <trkpt lat="37.6528424397" lon="-8.2334573194">
        <ele>193.36</ele>
        <time>2021-05-29T11:10:56Z</time>
      </trkpt>
      <trkpt lat="37.6527955011" lon="-8.2334013283">
        <ele>194.32</ele>
        <time>2021-05-29T11:10:57Z</time>
      </trkpt>
      <trkpt lat="37.6527572796" lon="-8.2333300821">
        <ele>194.32</ele>
        <time>2021-05-29T11:10:58Z</time>
      </trkpt>
      <trkpt lat="37.6527337264" lon="-8.2332510408">
        <ele>194.80</ele>
        <time>2021-05-29T11:10:59Z</time>
      </trkpt>
      <trkpt lat="37.6527188905" lon="-8.2331630308">
        <ele>195.28</ele>
        <time>2021-05-29T11:11:00Z</time>
      </trkpt>
      <trkpt lat="37.6527006179" lon="-8.2330722548">
        <ele>195.28</ele>
        <time>2021-05-29T11:11:01Z</time>
      </trkpt>
      <trkpt lat="37.6526691858" lon="-8.2329847477">
        <ele>195.77</ele>
        <time>2021-05-29T11:11:02Z</time>
      </trkpt>
      <trkpt lat="37.6526249293" lon="-8.2329054549">
        <ele>196.25</ele>
        <time>2021-05-29T11:11:03Z</time>
      </trkpt>
      <trkpt lat="37.6525707822" lon="-8.2328330353">
        <ele>196.25</ele>
        <time>2021-05-29T11:11:04Z</time>
      </trkpt>
      <trkpt lat="37.6525082532" lon="-8.2327604480">
        <ele>196.73</ele>
        <time>2021-05-29T11:11:05Z</time>
      </trkpt>
      <trkpt lat="37.6523707900" lon="-8.2325883675">
        <ele>198.65</ele>
        <time>2021-05-29T11:11:07Z</time>
      </trkpt>
      <trkpt lat="37.6523048244" lon="-8.2324851025">
        <ele>199.13</ele>
        <time>2021-05-29T11:11:08Z</time>
      </trkpt>
      <trkpt lat="37.6522417925" lon="-8.2323721144">
        <ele>200.09</ele>
        <time>2021-05-29T11:11:09Z</time>
      </trkpt>
      <trkpt lat="37.6521847956" lon="-8.2322554383">
        <ele>200.09</ele>
        <time>2021-05-29T11:11:10Z</time>
      </trkpt>
      <trkpt lat="37.6521364320" lon="-8.2321345713">
        <ele>201.05</ele>
        <time>2021-05-29T11:11:11Z</time>
      </trkpt>
      <trkpt lat="37.6520932652" lon="-8.2320126146">
        <ele>201.05</ele>
        <time>2021-05-29T11:11:12Z</time>
      </trkpt>
      <trkpt lat="37.6519658603" lon="-8.2315371931">
        <ele>202.49</ele>
        <time>2021-05-29T11:11:16Z</time>
      </trkpt>
      <trkpt lat="37.6518855616" lon="-8.2310995739">
        <ele>204.42</ele>
        <time>2021-05-29T11:11:19Z</time>
      </trkpt>
      <trkpt lat="37.6516740862" lon="-8.2299244311">
        <ele>206.82</ele>
        <time>2021-05-29T11:11:26Z</time>
      </trkpt>
      <trkpt lat="37.6515001617" lon="-8.2289654575">
        <ele>204.42</ele>
        <time>2021-05-29T11:11:34Z</time>
      </trkpt>
      <trkpt lat="37.6514223777" lon="-8.2286565844">
        <ele>204.42</ele>
        <time>2021-05-29T11:11:38Z</time>
      </trkpt>
      <trkpt lat="37.6513963100" lon="-8.2286036946">
        <ele>203.94</ele>
        <time>2021-05-29T11:11:39Z</time>
      </trkpt>
      <trkpt lat="37.6513628662" lon="-8.2285585999">
        <ele>203.94</ele>
        <time>2021-05-29T11:11:40Z</time>
      </trkpt>
      <trkpt lat="37.6513269078" lon="-8.2285106555">
        <ele>204.42</ele>
        <time>2021-05-29T11:11:41Z</time>
      </trkpt>
      <trkpt lat="37.6513031870" lon="-8.2284535747">
        <ele>203.94</ele>
        <time>2021-05-29T11:11:42Z</time>
      </trkpt>
      <trkpt lat="37.6513024326" lon="-8.2283865195">
        <ele>203.46</ele>
        <time>2021-05-29T11:11:43Z</time>
      </trkpt>
      <trkpt lat="37.6513135806" lon="-8.2283058017">
        <ele>204.90</ele>
        <time>2021-05-29T11:11:44Z</time>
      </trkpt>
      <trkpt lat="37.6513617765" lon="-8.2272895798">
        <ele>205.38</ele>
        <time>2021-05-29T11:11:54Z</time>
      </trkpt>
      <trkpt lat="37.6513513830" lon="-8.2269211113">
        <ele>204.90</ele>
        <time>2021-05-29T11:11:59Z</time>
      </trkpt>
      <trkpt lat="37.6513358764" lon="-8.2268525474">
        <ele>204.90</ele>
        <time>2021-05-29T11:12:00Z</time>
      </trkpt>
      <trkpt lat="37.6513151731" lon="-8.2267828099">
        <ele>205.38</ele>
        <time>2021-05-29T11:12:01Z</time>
      </trkpt>
      <trkpt lat="37.6512891054" lon="-8.2267124020">
        <ele>205.38</ele>
        <time>2021-05-29T11:12:02Z</time>
      </trkpt>
      <trkpt lat="37.6512578409" lon="-8.2266434189">
        <ele>205.38</ele>
        <time>2021-05-29T11:12:03Z</time>
      </trkpt>
      <trkpt lat="37.6512243133" lon="-8.2265759446">
        <ele>205.86</ele>
        <time>2021-05-29T11:12:04Z</time>
      </trkpt>
      <trkpt lat="37.6509522367" lon="-8.2259592880">
        <ele>208.26</ele>
        <time>2021-05-29T11:12:13Z</time>
      </trkpt>
      <trkpt lat="37.6505773980" lon="-8.2250527851">
        <ele>212.11</ele>
        <time>2021-05-29T11:12:23Z</time>
      </trkpt>
      <trkpt lat="37.6505757216" lon="-8.2249517832">
        <ele>212.59</ele>
        <time>2021-05-29T11:12:24Z</time>
      </trkpt>
      <trkpt lat="37.6506002806" lon="-8.2248479314">
        <ele>213.07</ele>
        <time>2021-05-29T11:12:25Z</time>
      </trkpt>
      <trkpt lat="37.6506343950" lon="-8.2247433253">
        <ele>213.07</ele>
        <time>2021-05-29T11:12:26Z</time>
      </trkpt>
      <trkpt lat="37.6506820880" lon="-8.2246492803">
        <ele>213.55</ele>
        <time>2021-05-29T11:12:27Z</time>
      </trkpt>
      <trkpt lat="37.6507273503" lon="-8.2245555706">
        <ele>214.51</ele>
        <time>2021-05-29T11:12:28Z</time>
      </trkpt>
      <trkpt lat="37.6508110855" lon="-8.2243647985">
        <ele>214.99</ele>
        <time>2021-05-29T11:12:30Z</time>
      </trkpt>
      <trkpt lat="37.6509218104" lon="-8.2240784727">
        <ele>216.91</ele>
        <time>2021-05-29T11:12:36Z</time>
      </trkpt>
      <trkpt lat="37.6511190366" lon="-8.2235277817">
        <ele>218.84</ele>
        <time>2021-05-29T11:12:44Z</time>
      </trkpt>
      <trkpt lat="37.6511773746" lon="-8.2234268636">
        <ele>218.84</ele>
        <time>2021-05-29T11:12:45Z</time>
      </trkpt>
      <trkpt lat="37.6512572542" lon="-8.2233360875">
        <ele>219.32</ele>
        <time>2021-05-29T11:12:46Z</time>
      </trkpt>
      <trkpt lat="37.6513596810" lon="-8.2232616562">
        <ele>218.84</ele>
        <time>2021-05-29T11:12:47Z</time>
      </trkpt>
      <trkpt lat="37.6514774468" lon="-8.2232086826">
        <ele>218.36</ele>
        <time>2021-05-29T11:12:48Z</time>
      </trkpt>
      <trkpt lat="37.6515982300" lon="-8.2231746521">
        <ele>217.88</ele>
        <time>2021-05-29T11:12:49Z</time>
      </trkpt>
      <trkpt lat="37.6517210249" lon="-8.2231666893">
        <ele>216.91</ele>
        <time>2021-05-29T11:12:50Z</time>
      </trkpt>
      <trkpt lat="37.6518399641" lon="-8.2231879793">
        <ele>216.91</ele>
        <time>2021-05-29T11:12:51Z</time>
      </trkpt>
      <trkpt lat="37.6519462466" lon="-8.2232367620">
        <ele>215.95</ele>
        <time>2021-05-29T11:12:52Z</time>
      </trkpt>
      <trkpt lat="37.6520352624" lon="-8.2232977822">
        <ele>214.51</ele>
        <time>2021-05-29T11:12:53Z</time>
      </trkpt>
      <trkpt lat="37.6521256194" lon="-8.2233535219">
        <ele>214.03</ele>
        <time>2021-05-29T11:12:54Z</time>
      </trkpt>
      <trkpt lat="37.6522263698" lon="-8.2233870495">
        <ele>214.03</ele>
        <time>2021-05-29T11:12:55Z</time>
      </trkpt>
      <trkpt lat="37.6523373462" lon="-8.2233873010">
        <ele>214.03</ele>
        <time>2021-05-29T11:12:56Z</time>
      </trkpt>
      <trkpt lat="37.6524526812" lon="-8.2233510911">
        <ele>211.63</ele>
        <time>2021-05-29T11:12:57Z</time>
      </trkpt>
      <trkpt lat="37.6525655016" lon="-8.2232873887">
        <ele>211.63</ele>
        <time>2021-05-29T11:12:58Z</time>
      </trkpt>
      <trkpt lat="37.6526762266" lon="-8.2232084312">
        <ele>211.63</ele>
        <time>2021-05-29T11:12:59Z</time>
      </trkpt>
      <trkpt lat="37.6527921483" lon="-8.2231400348">
        <ele>211.63</ele>
        <time>2021-05-29T11:13:00Z</time>
      </trkpt>
      <trkpt lat="37.6529189665" lon="-8.2230903301">
        <ele>211.63</ele>
        <time>2021-05-29T11:13:01Z</time>
      </trkpt>
      <trkpt lat="37.6530481316" lon="-8.2230599876">
        <ele>211.15</ele>
        <time>2021-05-29T11:13:02Z</time>
      </trkpt>
      <trkpt lat="37.6531793922" lon="-8.2230541203">
        <ele>210.67</ele>
        <time>2021-05-29T11:13:03Z</time>
      </trkpt>
      <trkpt lat="37.6533072162" lon="-8.2230733987">
        <ele>210.19</ele>
        <time>2021-05-29T11:13:04Z</time>
      </trkpt>
      <trkpt lat="37.6534246467" lon="-8.2231036574">
        <ele>208.74</ele>
        <time>2021-05-29T11:13:05Z</time>
      </trkpt>
      <trkpt lat="37.6535378024" lon="-8.2231367659">
        <ele>208.74</ele>
        <time>2021-05-29T11:13:06Z</time>
      </trkpt>
      <trkpt lat="37.6539315842" lon="-8.2233189885">
        <ele>205.38</ele>
        <time>2021-05-29T11:13:10Z</time>
      </trkpt>
      <trkpt lat="37.6540251262" lon="-8.2233529352">
        <ele>204.42</ele>
        <time>2021-05-29T11:13:11Z</time>
      </trkpt>
      <trkpt lat="37.6541201770" lon="-8.2233691122">
        <ele>204.42</ele>
        <time>2021-05-29T11:13:12Z</time>
      </trkpt>
      <trkpt lat="37.6542118751" lon="-8.2233655080">
        <ele>203.94</ele>
        <time>2021-05-29T11:13:13Z</time>
      </trkpt>
      <trkpt lat="37.6542897429" lon="-8.2233392727">
        <ele>202.49</ele>
        <time>2021-05-29T11:13:14Z</time>
      </trkpt>
      <trkpt lat="37.6543531939" lon="-8.2232950162">
        <ele>201.53</ele>
        <time>2021-05-29T11:13:15Z</time>
      </trkpt>
      <trkpt lat="37.6544008870" lon="-8.2232418749">
        <ele>200.57</ele>
        <time>2021-05-29T11:13:16Z</time>
      </trkpt>
      <trkpt lat="37.6544312295" lon="-8.2231914997">
        <ele>199.61</ele>
        <time>2021-05-29T11:13:17Z</time>
      </trkpt>
      <trkpt lat="37.6544503402" lon="-8.2231469080">
        <ele>199.13</ele>
        <time>2021-05-29T11:13:18Z</time>
      </trkpt>
      <trkpt lat="37.6544606499" lon="-8.2231114525">
        <ele>199.13</ele>
        <time>2021-05-29T11:13:19Z</time>
      </trkpt>
      <trkpt lat="37.6544643380" lon="-8.2230799366">
        <ele>198.65</ele>
        <time>2021-05-29T11:13:20Z</time>
      </trkpt>
      <trkpt lat="37.6544585545" lon="-8.2230473310">
        <ele>198.17</ele>
        <time>2021-05-29T11:13:21Z</time>
      </trkpt>
      <trkpt lat="37.6544432156" lon="-8.2230138872">
        <ele>198.17</ele>
        <time>2021-05-29T11:13:22Z</time>
      </trkpt>
      <trkpt lat="37.6544203330" lon="-8.2229891606">
        <ele>198.17</ele>
        <time>2021-05-29T11:13:23Z</time>
      </trkpt>
      <trkpt lat="37.6543903258" lon="-8.2229755819">
        <ele>197.69</ele>
        <time>2021-05-29T11:13:24Z</time>
      </trkpt>
      <trkpt lat="37.6543553732" lon="-8.2229669485">
        <ele>197.69</ele>
        <time>2021-05-29T11:13:25Z</time>
      </trkpt>
      <trkpt lat="37.6543204207" lon="-8.2229485083">
        <ele>197.69</ele>
        <time>2021-05-29T11:13:26Z</time>
      </trkpt>
      <trkpt lat="37.6542888209" lon="-8.2229044195">
        <ele>197.69</ele>
        <time>2021-05-29T11:13:27Z</time>
      </trkpt>
      <trkpt lat="37.6542619150" lon="-8.2228521165">
        <ele>196.73</ele>
        <time>2021-05-29T11:13:28Z</time>
      </trkpt>
      <trkpt lat="37.6541293133" lon="-8.2225462608">
        <ele>193.84</ele>
        <time>2021-05-29T11:13:33Z</time>
      </trkpt>
      <trkpt lat="37.6539324224" lon="-8.2221061271">
        <ele>190.00</ele>
        <time>2021-05-29T11:13:38Z</time>
      </trkpt>
      <trkpt lat="37.6538976375" lon="-8.2220304385">
        <ele>190.48</ele>
        <time>2021-05-29T11:13:39Z</time>
      </trkpt>
      <trkpt lat="37.6538018323" lon="-8.2218377385">
        <ele>187.11</ele>
        <time>2021-05-29T11:13:43Z</time>
      </trkpt>
      <trkpt lat="37.6537919417" lon="-8.2218061388">
        <ele>186.63</ele>
        <time>2021-05-29T11:13:44Z</time>
      </trkpt>
      <trkpt lat="37.6537914388" lon="-8.2217541710">
        <ele>187.11</ele>
        <time>2021-05-29T11:13:45Z</time>
      </trkpt>
      <trkpt lat="37.6538087055" lon="-8.2216752134">
        <ele>186.63</ele>
        <time>2021-05-29T11:13:46Z</time>
      </trkpt>
      <trkpt lat="37.6539199334" lon="-8.2212490775">
        <ele>186.15</ele>
        <time>2021-05-29T11:13:50Z</time>
      </trkpt>
      <trkpt lat="37.6539724041" lon="-8.2211661804">
        <ele>185.19</ele>
        <time>2021-05-29T11:13:51Z</time>
      </trkpt>
      <trkpt lat="37.6540418901" lon="-8.2211169787">
        <ele>184.71</ele>
        <time>2021-05-29T11:13:52Z</time>
      </trkpt>
      <trkpt lat="37.6541219372" lon="-8.2211024780">
        <ele>184.23</ele>
        <time>2021-05-29T11:13:53Z</time>
      </trkpt>
      <trkpt lat="37.6541998889" lon="-8.2211163919">
        <ele>184.23</ele>
        <time>2021-05-29T11:13:54Z</time>
      </trkpt>
      <trkpt lat="37.6542653516" lon="-8.2211392745">
        <ele>184.71</ele>
        <time>2021-05-29T11:13:55Z</time>
      </trkpt>
      <trkpt lat="37.6543172356" lon="-8.2211593073">
        <ele>184.71</ele>
        <time>2021-05-29T11:13:56Z</time>
      </trkpt>
      <trkpt lat="37.6544272061" lon="-8.2211606484">
        <ele>184.71</ele>
        <time>2021-05-29T11:13:59Z</time>
      </trkpt>
      <trkpt lat="37.6544702891" lon="-8.2211230136">
        <ele>184.71</ele>
        <time>2021-05-29T11:14:00Z</time>
      </trkpt>
      <trkpt lat="37.6545167249" lon="-8.2210541982">
        <ele>185.19</ele>
        <time>2021-05-29T11:14:01Z</time>
      </trkpt>
      <trkpt lat="37.6550053898" lon="-8.2201996632">
        <ele>186.63</ele>
        <time>2021-05-29T11:14:09Z</time>
      </trkpt>
      <trkpt lat="37.6554155163" lon="-8.2197445258">
        <ele>191.44</ele>
        <time>2021-05-29T11:14:13Z</time>
      </trkpt>
      <trkpt lat="37.6556856651" lon="-8.2195293624">
        <ele>194.80</ele>
        <time>2021-05-29T11:14:15Z</time>
      </trkpt>
      <trkpt lat="37.6558324322" lon="-8.2194196433">
        <ele>194.80</ele>
        <time>2021-05-29T11:14:16Z</time>
      </trkpt>
      <trkpt lat="37.6563885715" lon="-8.2190228440">
        <ele>198.65</ele>
        <time>2021-05-29T11:14:20Z</time>
      </trkpt>
      <trkpt lat="37.6565225981" lon="-8.2189339120">
        <ele>198.65</ele>
        <time>2021-05-29T11:14:21Z</time>
      </trkpt>
      <trkpt lat="37.6569895539" lon="-8.2186990511">
        <ele>200.57</ele>
        <time>2021-05-29T11:14:25Z</time>
      </trkpt>
      <trkpt lat="37.6571130194" lon="-8.2186976261">
        <ele>200.57</ele>
        <time>2021-05-29T11:14:26Z</time>
      </trkpt>
      <trkpt lat="37.6572460402" lon="-8.2187324949">
        <ele>202.49</ele>
        <time>2021-05-29T11:14:27Z</time>
      </trkpt>
      <trkpt lat="37.6575461961" lon="-8.2188460696">
        <ele>203.94</ele>
        <time>2021-05-29T11:14:29Z</time>
      </trkpt>
      <trkpt lat="37.6583643537" lon="-8.2191606425">
        <ele>200.57</ele>
        <time>2021-05-29T11:14:34Z</time>
      </trkpt>
      <trkpt lat="37.6586611569" lon="-8.2192697749">
        <ele>196.73</ele>
        <time>2021-05-29T11:14:36Z</time>
      </trkpt>
      <trkpt lat="37.6589514222" lon="-8.2193276938">
        <ele>193.36</ele>
        <time>2021-05-29T11:14:38Z</time>
      </trkpt>
      <trkpt lat="37.6591032185" lon="-8.2193159591">
        <ele>192.88</ele>
        <time>2021-05-29T11:14:39Z</time>
      </trkpt>
      <trkpt lat="37.6592497341" lon="-8.2192715351">
        <ele>192.88</ele>
        <time>2021-05-29T11:14:40Z</time>
      </trkpt>
      <trkpt lat="37.6593864430" lon="-8.2191989478">
        <ele>192.40</ele>
        <time>2021-05-29T11:14:41Z</time>
      </trkpt>
      <trkpt lat="37.6595099084" lon="-8.2191095129">
        <ele>190.96</ele>
        <time>2021-05-29T11:14:42Z</time>
      </trkpt>
      <trkpt lat="37.6596170291" lon="-8.2190188207">
        <ele>190.48</ele>
        <time>2021-05-29T11:14:43Z</time>
      </trkpt>
      <trkpt lat="37.6597115770" lon="-8.2189374324">
        <ele>190.48</ele>
        <time>2021-05-29T11:14:44Z</time>
      </trkpt>
      <trkpt lat="37.6598429214" lon="-8.2188257854">
        <ele>188.08</ele>
        <time>2021-05-29T11:14:46Z</time>
      </trkpt>
      <trkpt lat="37.6603283174" lon="-8.2184436545">
        <ele>193.36</ele>
        <time>2021-05-29T11:14:52Z</time>
      </trkpt>
      <trkpt lat="37.6605700515" lon="-8.2182282396">
        <ele>194.80</ele>
        <time>2021-05-29T11:14:54Z</time>
      </trkpt>
      <trkpt lat="37.6608649269" lon="-8.2179120742">
        <ele>194.32</ele>
        <time>2021-05-29T11:14:57Z</time>
      </trkpt>
      <trkpt lat="37.6609448902" lon="-8.2177944761">
        <ele>194.32</ele>
        <time>2021-05-29T11:14:58Z</time>
      </trkpt>
      <trkpt lat="37.6610137895" lon="-8.2176721003">
        <ele>194.80</ele>
        <time>2021-05-29T11:14:59Z</time>
      </trkpt>
      <trkpt lat="37.6610745583" lon="-8.2175440248">
        <ele>194.80</ele>
        <time>2021-05-29T11:15:00Z</time>
      </trkpt>
      <trkpt lat="37.6611339021" lon="-8.2174044661">
        <ele>195.77</ele>
        <time>2021-05-29T11:15:01Z</time>
      </trkpt>
      <trkpt lat="37.6613308769" lon="-8.2169406954">
        <ele>199.13</ele>
        <time>2021-05-29T11:15:04Z</time>
      </trkpt>
      <trkpt lat="37.6614100020" lon="-8.2167852111">
        <ele>200.57</ele>
        <time>2021-05-29T11:15:05Z</time>
      </trkpt>
      <trkpt lat="37.6615029573" lon="-8.2166354265">
        <ele>201.05</ele>
        <time>2021-05-29T11:15:06Z</time>
      </trkpt>
      <trkpt lat="37.6616029534" lon="-8.2164986338">
        <ele>201.05</ele>
        <time>2021-05-29T11:15:07Z</time>
      </trkpt>
      <trkpt lat="37.6621697377" lon="-8.2159081288">
        <ele>203.94</ele>
        <time>2021-05-29T11:15:12Z</time>
      </trkpt>
      <trkpt lat="37.6629220974" lon="-8.2149941660">
        <ele>205.86</ele>
        <time>2021-05-29T11:15:19Z</time>
      </trkpt>
      <trkpt lat="37.6640328672" lon="-8.2140413113">
        <ele>208.74</ele>
        <time>2021-05-29T11:15:28Z</time>
      </trkpt>
      <trkpt lat="37.6645677164" lon="-8.2135923766">
        <ele>211.15</ele>
        <time>2021-05-29T11:15:33Z</time>
      </trkpt>
      <trkpt lat="37.6648562215" lon="-8.2133368123">
        <ele>213.07</ele>
        <time>2021-05-29T11:15:36Z</time>
      </trkpt>
      <trkpt lat="37.6649259590" lon="-8.2132431865">
        <ele>213.55</ele>
        <time>2021-05-29T11:15:37Z</time>
      </trkpt>
      <trkpt lat="37.6649702154" lon="-8.2131333835">
        <ele>213.55</ele>
        <time>2021-05-29T11:15:38Z</time>
      </trkpt>
      <trkpt lat="37.6649844646" lon="-8.2130073197">
        <ele>213.07</ele>
        <time>2021-05-29T11:15:39Z</time>
      </trkpt>
      <trkpt lat="37.6649736520" lon="-8.2128608041">
        <ele>214.99</ele>
        <time>2021-05-29T11:15:40Z</time>
      </trkpt>
      <trkpt lat="37.6649551280" lon="-8.2126961835">
        <ele>215.47</ele>
        <time>2021-05-29T11:15:41Z</time>
      </trkpt>
      <trkpt lat="37.6648863126" lon="-8.2119582407">
        <ele>219.80</ele>
        <time>2021-05-29T11:15:45Z</time>
      </trkpt>
      <trkpt lat="37.6648488455" lon="-8.2113320287">
        <ele>223.16</ele>
        <time>2021-05-29T11:15:48Z</time>
      </trkpt>
      <trkpt lat="37.6648319140" lon="-8.2108933199">
        <ele>224.12</ele>
        <time>2021-05-29T11:15:50Z</time>
      </trkpt>
      <trkpt lat="37.6648019906" lon="-8.2102226838">
        <ele>228.45</ele>
        <time>2021-05-29T11:15:53Z</time>
      </trkpt>
      <trkpt lat="37.6647434849" lon="-8.2092600223">
        <ele>231.33</ele>
        <time>2021-05-29T11:15:57Z</time>
      </trkpt>
      <trkpt lat="37.6646989770" lon="-8.2087399252">
        <ele>234.22</ele>
        <time>2021-05-29T11:15:59Z</time>
      </trkpt>
      <trkpt lat="37.6644875016" lon="-8.2061367575">
        <ele>232.78</ele>
        <time>2021-05-29T11:16:08Z</time>
      </trkpt>
      <trkpt lat="37.6644406468" lon="-8.2055362780">
        <ele>236.14</ele>
        <time>2021-05-29T11:16:10Z</time>
      </trkpt>
      <trkpt lat="37.6644172613" lon="-8.2052367087">
        <ele>235.66</ele>
        <time>2021-05-29T11:16:11Z</time>
      </trkpt>
      <trkpt lat="37.6643665507" lon="-8.2046342175">
        <ele>239.51</ele>
        <time>2021-05-29T11:16:13Z</time>
      </trkpt>
      <trkpt lat="37.6642065402" lon="-8.2027575932">
        <ele>243.35</ele>
        <time>2021-05-29T11:16:19Z</time>
      </trkpt>
      <trkpt lat="37.6641510520" lon="-8.2021154556">
        <ele>244.79</ele>
        <time>2021-05-29T11:16:21Z</time>
      </trkpt>
      <trkpt lat="37.6637393329" lon="-8.1971427239">
        <ele>248.64</ele>
        <time>2021-05-29T11:16:36Z</time>
      </trkpt>
      <trkpt lat="37.6632441301" lon="-8.1911282055">
        <ele>251.04</ele>
        <time>2021-05-29T11:16:54Z</time>
      </trkpt>
      <trkpt lat="37.6631857082" lon="-8.1904424820">
        <ele>252.48</ele>
        <time>2021-05-29T11:16:56Z</time>
      </trkpt>
      <trkpt lat="37.6631256100" lon="-8.1897441857">
        <ele>253.44</ele>
        <time>2021-05-29T11:16:58Z</time>
      </trkpt>
      <trkpt lat="37.6630676072" lon="-8.1890578754">
        <ele>251.52</ele>
        <time>2021-05-29T11:17:00Z</time>
      </trkpt>
      <trkpt lat="37.6628728118" lon="-8.1866570469">
        <ele>254.89</ele>
        <time>2021-05-29T11:17:07Z</time>
      </trkpt>
      <trkpt lat="37.6627087779" lon="-8.1846401095">
        <ele>253.93</ele>
        <time>2021-05-29T11:17:13Z</time>
      </trkpt>
      <trkpt lat="37.6623761840" lon="-8.1807646528">
        <ele>255.37</ele>
        <time>2021-05-29T11:17:25Z</time>
      </trkpt>
      <trkpt lat="37.6621855795" lon="-8.1785042211">
        <ele>256.33</ele>
        <time>2021-05-29T11:17:34Z</time>
      </trkpt>
      <trkpt lat="37.6621459331" lon="-8.1777057610">
        <ele>258.25</ele>
        <time>2021-05-29T11:17:37Z</time>
      </trkpt>
      <trkpt lat="37.6623104699" lon="-8.1751222908">
        <ele>259.69</ele>
        <time>2021-05-29T11:17:46Z</time>
      </trkpt>
      <trkpt lat="37.6627702173" lon="-8.1732214428">
        <ele>262.58</ele>
        <time>2021-05-29T11:17:52Z</time>
      </trkpt>
      <trkpt lat="37.6628861390" lon="-8.1728966441">
        <ele>262.58</ele>
        <time>2021-05-29T11:17:53Z</time>
      </trkpt>
      <trkpt lat="37.6637711003" lon="-8.1706931256">
        <ele>259.21</ele>
        <time>2021-05-29T11:18:00Z</time>
      </trkpt>
      <trkpt lat="37.6644376293" lon="-8.1690929364">
        <ele>262.10</ele>
        <time>2021-05-29T11:18:05Z</time>
      </trkpt>
      <trkpt lat="37.6655188110" lon="-8.1665146630">
        <ele>263.06</ele>
        <time>2021-05-29T11:18:13Z</time>
      </trkpt>
      <trkpt lat="37.6667895913" lon="-8.1634668354">
        <ele>266.42</ele>
        <time>2021-05-29T11:18:23Z</time>
      </trkpt>
      <trkpt lat="37.6669208519" lon="-8.1631546933">
        <ele>266.42</ele>
        <time>2021-05-29T11:18:24Z</time>
      </trkpt>
      <trkpt lat="37.6671776734" lon="-8.1625427306">
        <ele>268.35</ele>
        <time>2021-05-29T11:18:26Z</time>
      </trkpt>
      <trkpt lat="37.6674199942" lon="-8.1619487889">
        <ele>266.90</ele>
        <time>2021-05-29T11:18:28Z</time>
      </trkpt>
      <trkpt lat="37.6676548552" lon="-8.1613712758">
        <ele>264.98</ele>
        <time>2021-05-29T11:18:30Z</time>
      </trkpt>
      <trkpt lat="37.6681332942" lon="-8.1602208596">
        <ele>267.38</ele>
        <time>2021-05-29T11:18:34Z</time>
      </trkpt>
      <trkpt lat="37.6684875973" lon="-8.1593875308">
        <ele>264.02</ele>
        <time>2021-05-29T11:18:37Z</time>
      </trkpt>
      <trkpt lat="37.6691557188" lon="-8.1577565800">
        <ele>267.38</ele>
        <time>2021-05-29T11:18:43Z</time>
      </trkpt>
      <trkpt lat="37.6692700479" lon="-8.1574757863">
        <ele>266.42</ele>
        <time>2021-05-29T11:18:44Z</time>
      </trkpt>
      <trkpt lat="37.6695058309" lon="-8.1569060683">
        <ele>265.46</ele>
        <time>2021-05-29T11:18:46Z</time>
      </trkpt>
      <trkpt lat="37.6703698374" lon="-8.1548251770">
        <ele>270.27</ele>
        <time>2021-05-29T11:18:53Z</time>
      </trkpt>
      <trkpt lat="37.6719549391" lon="-8.1509997603">
        <ele>267.38</ele>
        <time>2021-05-29T11:19:05Z</time>
      </trkpt>
      <trkpt lat="37.6722206455" lon="-8.1503582094">
        <ele>263.54</ele>
        <time>2021-05-29T11:19:07Z</time>
      </trkpt>
      <trkpt lat="37.6724825799" lon="-8.1497248728">
        <ele>260.17</ele>
        <time>2021-05-29T11:19:09Z</time>
      </trkpt>
      <trkpt lat="37.6726124994" lon="-8.1494149100">
        <ele>260.17</ele>
        <time>2021-05-29T11:19:10Z</time>
      </trkpt>
      <trkpt lat="37.6728753559" lon="-8.1488018576">
        <ele>257.77</ele>
        <time>2021-05-29T11:19:12Z</time>
      </trkpt>
      <trkpt lat="37.6735318266" lon="-8.1472315919">
        <ele>254.41</ele>
        <time>2021-05-29T11:19:17Z</time>
      </trkpt>
      <trkpt lat="37.6740465593" lon="-8.1459869631">
        <ele>251.52</ele>
        <time>2021-05-29T11:19:21Z</time>
      </trkpt>
      <trkpt lat="37.6745902095" lon="-8.1447575893">
        <ele>255.37</ele>
        <time>2021-05-29T11:19:25Z</time>
      </trkpt>
      <trkpt lat="37.6759748161" lon="-8.1421044655">
        <ele>257.77</ele>
        <time>2021-05-29T11:19:34Z</time>
      </trkpt>
      <trkpt lat="37.6764245890" lon="-8.1408667099">
        <ele>253.44</ele>
        <time>2021-05-29T11:19:38Z</time>
      </trkpt>
      <trkpt lat="37.6776183397" lon="-8.1369904149">
        <ele>250.56</ele>
        <time>2021-05-29T11:19:50Z</time>
      </trkpt>
      <trkpt lat="37.6791154314" lon="-8.1321529672">
        <ele>247.68</ele>
        <time>2021-05-29T11:20:04Z</time>
      </trkpt>
      <trkpt lat="37.6794474386" lon="-8.1310702767">
        <ele>243.83</ele>
        <time>2021-05-29T11:20:07Z</time>
      </trkpt>
      <trkpt lat="37.6795619354" lon="-8.1306929234">
        <ele>244.31</ele>
        <time>2021-05-29T11:20:08Z</time>
      </trkpt>
      <trkpt lat="37.6809921395" lon="-8.1262397859">
        <ele>242.87</ele>
        <time>2021-05-29T11:20:20Z</time>
      </trkpt>
      <trkpt lat="37.6825689431" lon="-8.1212828960">
        <ele>245.75</ele>
        <time>2021-05-29T11:20:34Z</time>
      </trkpt>
      <trkpt lat="37.6829628926" lon="-8.1199862994">
        <ele>243.83</ele>
        <time>2021-05-29T11:20:38Z</time>
      </trkpt>
      <trkpt lat="37.6831537485" lon="-8.1193684693">
        <ele>247.68</ele>
        <time>2021-05-29T11:20:40Z</time>
      </trkpt>
      <trkpt lat="37.6834497135" lon="-8.1184461247">
        <ele>250.08</ele>
        <time>2021-05-29T11:20:43Z</time>
      </trkpt>
      <trkpt lat="37.6837164257" lon="-8.1178489979">
        <ele>252.48</ele>
        <time>2021-05-29T11:20:45Z</time>
      </trkpt>
      <trkpt lat="37.6848452166" lon="-8.1162275188">
        <ele>251.52</ele>
        <time>2021-05-29T11:20:51Z</time>
      </trkpt>
      <trkpt lat="37.6859054435" lon="-8.1143575162">
        <ele>254.41</ele>
        <time>2021-05-29T11:20:57Z</time>
      </trkpt>
      <trkpt lat="37.6864165720" lon="-8.1133394502">
        <ele>250.08</ele>
        <time>2021-05-29T11:21:00Z</time>
      </trkpt>
      <trkpt lat="37.6867642533" lon="-8.1126597617">
        <ele>249.12</ele>
        <time>2021-05-29T11:21:02Z</time>
      </trkpt>
      <trkpt lat="37.6872948278" lon="-8.1116313022">
        <ele>251.04</ele>
        <time>2021-05-29T11:21:05Z</time>
      </trkpt>
      <trkpt lat="37.6878268272" lon="-8.1105938740">
        <ele>248.64</ele>
        <time>2021-05-29T11:21:08Z</time>
      </trkpt>
      <trkpt lat="37.6881704014" lon="-8.1099155266">
        <ele>245.27</ele>
        <time>2021-05-29T11:21:10Z</time>
      </trkpt>
      <trkpt lat="37.6890098490" lon="-8.1082614418">
        <ele>241.91</ele>
        <time>2021-05-29T11:21:15Z</time>
      </trkpt>
      <trkpt lat="37.6893423591" lon="-8.1076039653">
        <ele>240.47</ele>
        <time>2021-05-29T11:21:17Z</time>
      </trkpt>
      <trkpt lat="37.6900091395" lon="-8.1062792893">
        <ele>235.66</ele>
        <time>2021-05-29T11:21:21Z</time>
      </trkpt>
      <trkpt lat="37.6903502829" lon="-8.1056191307">
        <ele>233.74</ele>
        <time>2021-05-29T11:21:23Z</time>
      </trkpt>
      <trkpt lat="37.6917301118" lon="-8.1028880551">
        <ele>237.10</ele>
        <time>2021-05-29T11:21:32Z</time>
      </trkpt>
      <trkpt lat="37.6918775495" lon="-8.1026029866">
        <ele>236.14</ele>
        <time>2021-05-29T11:21:33Z</time>
      </trkpt>
      <trkpt lat="37.6923054457" lon="-8.1017971504">
        <ele>233.74</ele>
        <time>2021-05-29T11:21:36Z</time>
      </trkpt>
      <trkpt lat="37.6925667096" lon="-8.1013402529">
        <ele>231.81</ele>
        <time>2021-05-29T11:21:38Z</time>
      </trkpt>
      <trkpt lat="37.6929283049" lon="-8.1007723790">
        <ele>227.97</ele>
        <time>2021-05-29T11:21:41Z</time>
      </trkpt>
      <trkpt lat="37.6938079018" lon="-8.0995484535">
        <ele>222.20</ele>
        <time>2021-05-29T11:21:49Z</time>
      </trkpt>
      <trkpt lat="37.6939578541" lon="-8.0992207211">
        <ele>221.24</ele>
        <time>2021-05-29T11:21:51Z</time>
      </trkpt>
      <trkpt lat="37.6940201316" lon="-8.0990350619">
        <ele>219.80</ele>
        <time>2021-05-29T11:21:52Z</time>
      </trkpt>
      <trkpt lat="37.6940695848" lon="-8.0988302082">
        <ele>219.32</ele>
        <time>2021-05-29T11:21:53Z</time>
      </trkpt>
      <trkpt lat="37.6941078063" lon="-8.0986098479">
        <ele>219.32</ele>
        <time>2021-05-29T11:21:54Z</time>
      </trkpt>
      <trkpt lat="37.6941298507" lon="-8.0983816925">
        <ele>218.36</ele>
        <time>2021-05-29T11:21:55Z</time>
      </trkpt>
      <trkpt lat="37.6941366401" lon="-8.0981580634">
        <ele>216.91</ele>
        <time>2021-05-29T11:21:56Z</time>
      </trkpt>
      <trkpt lat="37.6941297669" lon="-8.0979486834">
        <ele>214.03</ele>
        <time>2021-05-29T11:21:57Z</time>
      </trkpt>
      <trkpt lat="37.6941088121" lon="-8.0977554806">
        <ele>213.55</ele>
        <time>2021-05-29T11:21:58Z</time>
      </trkpt>
      <trkpt lat="37.6940759551" lon="-8.0975778680">
        <ele>212.59</ele>
        <time>2021-05-29T11:21:59Z</time>
      </trkpt>
      <trkpt lat="37.6940379851" lon="-8.0974129960">
        <ele>213.55</ele>
        <time>2021-05-29T11:22:00Z</time>
      </trkpt>
      <trkpt lat="37.6939778030" lon="-8.0970684160">
        <ele>214.03</ele>
        <time>2021-05-29T11:22:02Z</time>
      </trkpt>
      <trkpt lat="37.6939653978" lon="-8.0968737043">
        <ele>214.51</ele>
        <time>2021-05-29T11:22:03Z</time>
      </trkpt>
      <trkpt lat="37.6939675771" lon="-8.0966597982">
        <ele>215.95</ele>
        <time>2021-05-29T11:22:04Z</time>
      </trkpt>
      <trkpt lat="37.6940127555" lon="-8.0959148984">
        <ele>219.32</ele>
        <time>2021-05-29T11:22:07Z</time>
      </trkpt>
      <trkpt lat="37.6941451896" lon="-8.0939510185">
        <ele>222.68</ele>
        <time>2021-05-29T11:22:14Z</time>
      </trkpt>
      <trkpt lat="37.6941166911" lon="-8.0918495916">
        <ele>219.80</ele>
        <time>2021-05-29T11:22:22Z</time>
      </trkpt>
      <trkpt lat="37.6936405152" lon="-8.0902813375">
        <ele>220.28</ele>
        <time>2021-05-29T11:22:30Z</time>
      </trkpt>
      <trkpt lat="37.6930947695" lon="-8.0884312000">
        <ele>223.16</ele>
        <time>2021-05-29T11:22:38Z</time>
      </trkpt>
      <trkpt lat="37.6928526163" lon="-8.0877440516">
        <ele>216.91</ele>
        <time>2021-05-29T11:22:41Z</time>
      </trkpt>
      <trkpt lat="37.6927611697" lon="-8.0875529442">
        <ele>216.91</ele>
        <time>2021-05-29T11:22:42Z</time>
      </trkpt>
      <trkpt lat="37.6925467607" lon="-8.0871931929">
        <ele>213.55</ele>
        <time>2021-05-29T11:22:44Z</time>
      </trkpt>
      <trkpt lat="37.6924235467" lon="-8.0870160833">
        <ele>213.07</ele>
        <time>2021-05-29T11:22:45Z</time>
      </trkpt>
      <trkpt lat="37.6920000091" lon="-8.0865053739">
        <ele>210.19</ele>
        <time>2021-05-29T11:22:48Z</time>
      </trkpt>
      <trkpt lat="37.6908559632" lon="-8.0857303832">
        <ele>207.78</ele>
        <time>2021-05-29T11:22:55Z</time>
      </trkpt>
      <trkpt lat="37.6906758361" lon="-8.0856263638">
        <ele>207.78</ele>
        <time>2021-05-29T11:22:56Z</time>
      </trkpt>
      <trkpt lat="37.6886821166" lon="-8.0845084693">
        <ele>204.42</ele>
        <time>2021-05-29T11:23:07Z</time>
      </trkpt>
      <trkpt lat="37.6881687250" lon="-8.0842767935">
        <ele>200.57</ele>
        <time>2021-05-29T11:23:10Z</time>
      </trkpt>
      <trkpt lat="37.6876879390" lon="-8.0841727741">
        <ele>197.21</ele>
        <time>2021-05-29T11:23:13Z</time>
      </trkpt>
      <trkpt lat="37.6872934867" lon="-8.0841553397">
        <ele>193.84</ele>
        <time>2021-05-29T11:23:16Z</time>
      </trkpt>
      <trkpt lat="37.6871058159" lon="-8.0841703434">
        <ele>192.88</ele>
        <time>2021-05-29T11:23:18Z</time>
      </trkpt>
      <trkpt lat="37.6869023871" lon="-8.0841983389">
        <ele>190.96</ele>
        <time>2021-05-29T11:23:22Z</time>
      </trkpt>
      <trkpt lat="37.6866142172" lon="-8.0842874385">
        <ele>190.48</ele>
        <time>2021-05-29T11:23:34Z</time>
      </trkpt>
      <trkpt lat="37.6864341740" lon="-8.0843791366">
        <ele>190.96</ele>
        <time>2021-05-29T11:23:44Z</time>
      </trkpt>
      <trkpt lat="37.6864173263" lon="-8.0843807291">
        <ele>190.96</ele>
        <time>2021-05-29T11:24:15Z</time>
      </trkpt>
      <trkpt lat="37.6864266302" lon="-8.0843659770">
        <ele>190.48</ele>
        <time>2021-05-29T11:24:59Z</time>
      </trkpt>
      <trkpt lat="37.6864072680" lon="-8.0843651388">
        <ele>190.96</ele>
        <time>2021-05-29T11:25:23Z</time>
      </trkpt>
      <trkpt lat="37.6864406280" lon="-8.0843468662">
        <ele>191.44</ele>
        <time>2021-05-29T11:28:52Z</time>
      </trkpt>
      <trkpt lat="37.6864200085" lon="-8.0843767058">
        <ele>195.28</ele>
        <time>2021-05-29T11:29:07Z</time>
      </trkpt>
      <trkpt lat="37.6864270493" lon="-8.0843670666">
        <ele>196.73</ele>
        <time>2021-05-29T11:29:27Z</time>
      </trkpt>
      <trkpt lat="37.6864263788" lon="-8.0843706708">
        <ele>196.73</ele>
        <time>2021-05-29T11:29:30Z</time>
      </trkpt>
      <trkpt lat="37.6863033324" lon="-8.0842034519">
        <ele>196.25</ele>
        <time>2021-05-29T11:29:41Z</time>
      </trkpt>
      <trkpt lat="37.6863171626" lon="-8.0841394141">
        <ele>196.73</ele>
        <time>2021-05-29T11:29:55Z</time>
      </trkpt>
      <trkpt lat="37.6863403805" lon="-8.0841167830">
        <ele>197.21</ele>
        <time>2021-05-29T11:29:56Z</time>
      </trkpt>
      <trkpt lat="37.6863776799" lon="-8.0841060542">
        <ele>197.21</ele>
        <time>2021-05-29T11:29:57Z</time>
      </trkpt>
      <trkpt lat="37.6869021356" lon="-8.0841044616">
        <ele>200.57</ele>
        <time>2021-05-29T11:30:04Z</time>
      </trkpt>
      <trkpt lat="37.6872612163" lon="-8.0841005221">
        <ele>202.98</ele>
        <time>2021-05-29T11:30:07Z</time>
      </trkpt>
      <trkpt lat="37.6877969876" lon="-8.0841429345">
        <ele>204.42</ele>
        <time>2021-05-29T11:30:11Z</time>
      </trkpt>
      <trkpt lat="37.6882267278" lon="-8.0842648074">
        <ele>206.34</ele>
        <time>2021-05-29T11:30:14Z</time>
      </trkpt>
      <trkpt lat="37.6885070186" lon="-8.0843874346">
        <ele>208.26</ele>
        <time>2021-05-29T11:30:16Z</time>
      </trkpt>
      <trkpt lat="37.6889089309" lon="-8.0846036877">
        <ele>209.70</ele>
        <time>2021-05-29T11:30:19Z</time>
      </trkpt>
      <trkpt lat="37.6899127476" lon="-8.0851723999">
        <ele>213.07</ele>
        <time>2021-05-29T11:30:26Z</time>
      </trkpt>
      <trkpt lat="37.6915583666" lon="-8.0861250870">
        <ele>217.40</ele>
        <time>2021-05-29T11:30:37Z</time>
      </trkpt>
      <trkpt lat="37.6923970599" lon="-8.0869186018">
        <ele>220.28</ele>
        <time>2021-05-29T11:30:43Z</time>
      </trkpt>
      <trkpt lat="37.6925170049" lon="-8.0870900117">
        <ele>220.28</ele>
        <time>2021-05-29T11:30:44Z</time>
      </trkpt>
      <trkpt lat="37.6928349305" lon="-8.0876496714">
        <ele>223.16</ele>
        <time>2021-05-29T11:30:47Z</time>
      </trkpt>
      <trkpt lat="37.6930728927" lon="-8.0882339738">
        <ele>225.09</ele>
        <time>2021-05-29T11:30:50Z</time>
      </trkpt>
      <trkpt lat="37.6934035588" lon="-8.0891503673">
        <ele>223.64</ele>
        <time>2021-05-29T11:30:56Z</time>
      </trkpt>
      <trkpt lat="37.6934621483" lon="-8.0892262235">
        <ele>223.16</ele>
        <time>2021-05-29T11:30:57Z</time>
      </trkpt>
      <trkpt lat="37.6935291197" lon="-8.0892673787">
        <ele>222.20</ele>
        <time>2021-05-29T11:30:58Z</time>
      </trkpt>
      <trkpt lat="37.6936036348" lon="-8.0892787781">
        <ele>222.20</ele>
        <time>2021-05-29T11:30:59Z</time>
      </trkpt>
      <trkpt lat="37.6936861128" lon="-8.0892634392">
        <ele>222.68</ele>
        <time>2021-05-29T11:31:00Z</time>
      </trkpt>
      <trkpt lat="37.6937779784" lon="-8.0892207753">
        <ele>224.61</ele>
        <time>2021-05-29T11:31:01Z</time>
      </trkpt>
      <trkpt lat="37.6938810758" lon="-8.0891574081">
        <ele>226.53</ele>
        <time>2021-05-29T11:31:02Z</time>
      </trkpt>
      <trkpt lat="37.6939933095" lon="-8.0890853237">
        <ele>229.41</ele>
        <time>2021-05-29T11:31:03Z</time>
      </trkpt>
      <trkpt lat="37.6941132545" lon="-8.0890102219">
        <ele>229.89</ele>
        <time>2021-05-29T11:31:04Z</time>
      </trkpt>
      <trkpt lat="37.6945909392" lon="-8.0886832438">
        <ele>233.26</ele>
        <time>2021-05-29T11:31:08Z</time>
      </trkpt>
      <trkpt lat="37.6950331684" lon="-8.0882281903">
        <ele>237.10</ele>
        <time>2021-05-29T11:31:12Z</time>
      </trkpt>
      <trkpt lat="37.6955116913" lon="-8.0876008887">
        <ele>237.10</ele>
        <time>2021-05-29T11:31:19Z</time>
      </trkpt>
      <trkpt lat="37.6955769025" lon="-8.0875542853">
        <ele>236.62</ele>
        <time>2021-05-29T11:31:20Z</time>
      </trkpt>
      <trkpt lat="37.6956529263" lon="-8.0875088554">
        <ele>237.58</ele>
        <time>2021-05-29T11:31:21Z</time>
      </trkpt>
      <trkpt lat="37.6957401820" lon="-8.0874681193">
        <ele>238.06</ele>
        <time>2021-05-29T11:31:22Z</time>
      </trkpt>
      <trkpt lat="37.6958342269" lon="-8.0874388665">
        <ele>238.54</ele>
        <time>2021-05-29T11:31:23Z</time>
      </trkpt>
      <trkpt lat="37.6959337201" lon="-8.0874195043">
        <ele>239.51</ele>
        <time>2021-05-29T11:31:24Z</time>
      </trkpt>
      <trkpt lat="37.6960388292" lon="-8.0874076858">
        <ele>239.51</ele>
        <time>2021-05-29T11:31:25Z</time>
      </trkpt>
      <trkpt lat="37.6965133287" lon="-8.0873737391">
        <ele>237.10</ele>
        <time>2021-05-29T11:31:30Z</time>
      </trkpt>
      <trkpt lat="37.6965795457" lon="-8.0873626750">
        <ele>236.14</ele>
        <time>2021-05-29T11:31:31Z</time>
      </trkpt>
      <trkpt lat="37.6966402307" lon="-8.0873409659">
        <ele>236.14</ele>
        <time>2021-05-29T11:31:32Z</time>
      </trkpt>
      <trkpt lat="37.6966970600" lon="-8.0873113777">
        <ele>235.66</ele>
        <time>2021-05-29T11:31:33Z</time>
      </trkpt>
      <trkpt lat="37.6967509557" lon="-8.0872883275">
        <ele>235.66</ele>
        <time>2021-05-29T11:31:34Z</time>
      </trkpt>
      <trkpt lat="37.6968077850" lon="-8.0872839689">
        <ele>235.66</ele>
        <time>2021-05-29T11:31:35Z</time>
      </trkpt>
      <trkpt lat="37.6968658715" lon="-8.0872883275">
        <ele>236.14</ele>
        <time>2021-05-29T11:31:36Z</time>
      </trkpt>
      <trkpt lat="37.6969264727" lon="-8.0872804485">
        <ele>236.14</ele>
        <time>2021-05-29T11:31:37Z</time>
      </trkpt>
      <trkpt lat="37.6969902590" lon="-8.0872521177">
        <ele>236.62</ele>
        <time>2021-05-29T11:31:38Z</time>
      </trkpt>
      <trkpt lat="37.6971997228" lon="-8.0871203542">
        <ele>238.54</ele>
        <time>2021-05-29T11:31:41Z</time>
      </trkpt>
      <trkpt lat="37.6972699631" lon="-8.0870595016">
        <ele>239.02</ele>
        <time>2021-05-29T11:31:42Z</time>
      </trkpt>
      <trkpt lat="37.6978902239" lon="-8.0865505524">
        <ele>241.43</ele>
        <time>2021-05-29T11:31:52Z</time>
      </trkpt>
      <trkpt lat="37.6981608756" lon="-8.0863399990">
        <ele>242.39</ele>
        <time>2021-05-29T11:31:57Z</time>
      </trkpt>
      <trkpt lat="37.6982114185" lon="-8.0863214750">
        <ele>242.39</ele>
        <time>2021-05-29T11:31:58Z</time>
      </trkpt>
      <trkpt lat="37.6982616261" lon="-8.0863099080">
        <ele>242.39</ele>
        <time>2021-05-29T11:31:59Z</time>
      </trkpt>
      <trkpt lat="37.6983566768" lon="-8.0863023642">
        <ele>241.91</ele>
        <time>2021-05-29T11:32:01Z</time>
      </trkpt>
      <trkpt lat="37.6983884443" lon="-8.0863190442">
        <ele>241.91</ele>
        <time>2021-05-29T11:32:02Z</time>
      </trkpt>
      <trkpt lat="37.6984137576" lon="-8.0863473751">
        <ele>241.43</ele>
        <time>2021-05-29T11:32:03Z</time>
      </trkpt>
      <trkpt lat="37.6984320302" lon="-8.0863709282">
        <ele>241.91</ele>
        <time>2021-05-29T11:32:04Z</time>
      </trkpt>
      <trkpt lat="37.6984433457" lon="-8.0863895360">
        <ele>241.43</ele>
        <time>2021-05-29T11:32:05Z</time>
      </trkpt>
      <trkpt lat="37.6984980796" lon="-8.0864844192">
        <ele>241.91</ele>
        <time>2021-05-29T11:32:15Z</time>
      </trkpt>
      <trkpt lat="37.6985300146" lon="-8.0865397397">
        <ele>242.39</ele>
        <time>2021-05-29T11:32:20Z</time>
      </trkpt>
      <trkpt lat="37.6985513885" lon="-8.0865645502">
        <ele>242.39</ele>
        <time>2021-05-29T11:32:21Z</time>
      </trkpt>
      <trkpt lat="37.6986537315" lon="-8.0866851658">
        <ele>242.39</ele>
        <time>2021-05-29T11:32:30Z</time>
      </trkpt>
      <trkpt lat="37.6987414062" lon="-8.0868170131">
        <ele>243.83</ele>
        <time>2021-05-29T11:32:46Z</time>
      </trkpt>
      <trkpt lat="37.6988745108" lon="-8.0870219506">
        <ele>245.27</ele>
        <time>2021-05-29T11:32:49Z</time>
      </trkpt>
      <trkpt lat="37.6992182527" lon="-8.0875567161">
        <ele>245.75</ele>
        <time>2021-05-29T11:32:57Z</time>
      </trkpt>
      <trkpt lat="37.6992465835" lon="-8.0876287166">
        <ele>245.27</ele>
        <time>2021-05-29T11:33:05Z</time>
      </trkpt>
      <trkpt lat="37.6992698852" lon="-8.0876536109">
        <ele>244.79</ele>
        <time>2021-05-29T11:33:10Z</time>
      </trkpt>
      <trkpt lat="37.6992974617" lon="-8.0876516830">
        <ele>245.75</ele>
        <time>2021-05-29T11:33:11Z</time>
      </trkpt>
      <trkpt lat="37.6993448194" lon="-8.0876303930">
        <ele>246.23</ele>
        <time>2021-05-29T11:33:12Z</time>
      </trkpt>
      <trkpt lat="37.6996901538" lon="-8.0873959512">
        <ele>248.64</ele>
        <time>2021-05-29T11:33:17Z</time>
      </trkpt>
      <trkpt lat="37.7002296969" lon="-8.0870469287">
        <ele>251.52</ele>
        <time>2021-05-29T11:33:26Z</time>
      </trkpt>
      <trkpt lat="37.7005787194" lon="-8.0867881794">
        <ele>253.44</ele>
        <time>2021-05-29T11:33:34Z</time>
      </trkpt>
      <trkpt lat="37.7006487083" lon="-8.0867416598">
        <ele>252.96</ele>
        <time>2021-05-29T11:33:44Z</time>
      </trkpt>
      <trkpt lat="37.7007942181" lon="-8.0866179429">
        <ele>254.89</ele>
        <time>2021-05-29T11:34:04Z</time>
      </trkpt>
      <trkpt lat="37.7009411529" lon="-8.0865167733">
        <ele>256.33</ele>
        <time>2021-05-29T11:34:08Z</time>
      </trkpt>
      <trkpt lat="37.7009916119" lon="-8.0864692479">
        <ele>255.85</ele>
        <time>2021-05-29T11:34:09Z</time>
      </trkpt>
      <trkpt lat="37.7016826998" lon="-8.0858175550">
        <ele>257.77</ele>
        <time>2021-05-29T11:34:19Z</time>
      </trkpt>
      <trkpt lat="37.7020779066" lon="-8.0854481645">
        <ele>254.41</ele>
        <time>2021-05-29T11:34:24Z</time>
      </trkpt>
      <trkpt lat="37.7021636534" lon="-8.0853494257">
        <ele>252.96</ele>
        <time>2021-05-29T11:34:26Z</time>
      </trkpt>
      <trkpt lat="37.7021830995" lon="-8.0853078514">
        <ele>251.52</ele>
        <time>2021-05-29T11:34:27Z</time>
      </trkpt>
      <trkpt lat="37.7021887992" lon="-8.0852723122">
        <ele>251.52</ele>
        <time>2021-05-29T11:34:28Z</time>
      </trkpt>
      <trkpt lat="37.7021853626" lon="-8.0851803627">
        <ele>251.04</ele>
        <time>2021-05-29T11:34:32Z</time>
      </trkpt>
      <trkpt lat="37.7021756396" lon="-8.0851602461">
        <ele>251.04</ele>
        <time>2021-05-29T11:34:33Z</time>
      </trkpt>
      <trkpt lat="37.7021610551" lon="-8.0851384532">
        <ele>251.04</ele>
        <time>2021-05-29T11:34:34Z</time>
      </trkpt>
      <trkpt lat="37.7021378372" lon="-8.0851117149">
        <ele>251.04</ele>
        <time>2021-05-29T11:34:35Z</time>
      </trkpt>
      <trkpt lat="37.7021000348" lon="-8.0850904249">
        <ele>251.04</ele>
        <time>2021-05-29T11:34:36Z</time>
      </trkpt>
      <trkpt lat="37.7020499110" lon="-8.0850827135">
        <ele>251.04</ele>
        <time>2021-05-29T11:34:37Z</time>
      </trkpt>
      <trkpt lat="37.7019893937" lon="-8.0850858986">
        <ele>251.04</ele>
        <time>2021-05-29T11:34:38Z</time>
      </trkpt>
      <trkpt lat="37.7019183990" lon="-8.0850942805">
        <ele>250.56</ele>
        <time>2021-05-29T11:34:39Z</time>
      </trkpt>
      <trkpt lat="37.7015573904" lon="-8.0851528700">
        <ele>251.04</ele>
        <time>2021-05-29T11:34:44Z</time>
      </trkpt>
      <trkpt lat="37.7014995553" lon="-8.0851822067">
        <ele>251.52</ele>
        <time>2021-05-29T11:34:45Z</time>
      </trkpt>
      <trkpt lat="37.7014428936" lon="-8.0852045864">
        <ele>251.04</ele>
        <time>2021-05-29T11:34:46Z</time>
      </trkpt>
      <trkpt lat="37.7013913449" lon="-8.0852138903">
        <ele>251.04</ele>
        <time>2021-05-29T11:34:47Z</time>
      </trkpt>
      <trkpt lat="37.7013446577" lon="-8.0852177460">
        <ele>251.04</ele>
        <time>2021-05-29T11:34:48Z</time>
      </trkpt>
      <trkpt lat="37.7009963058" lon="-8.0851740763">
        <ele>251.52</ele>
        <time>2021-05-29T11:34:58Z</time>
      </trkpt>
      <trkpt lat="37.7009093016" lon="-8.0851834640">
        <ele>251.52</ele>
        <time>2021-05-29T11:35:01Z</time>
      </trkpt>
      <trkpt lat="37.7008907776" lon="-8.0851674546">
        <ele>252.00</ele>
        <time>2021-05-29T11:35:02Z</time>
      </trkpt>
      <trkpt lat="37.7009033505" lon="-8.0851191748">
        <ele>251.52</ele>
        <time>2021-05-29T11:35:04Z</time>
      </trkpt>
      <trkpt lat="37.7009295020" lon="-8.0851092841">
        <ele>251.52</ele>
        <time>2021-05-29T11:35:05Z</time>
      </trkpt>
      <trkpt lat="37.7009751834" lon="-8.0851126369">
        <ele>252.00</ele>
        <time>2021-05-29T11:35:06Z</time>
      </trkpt>
      <trkpt lat="37.7010510396" lon="-8.0851180013">
        <ele>252.96</ele>
        <time>2021-05-29T11:35:07Z</time>
      </trkpt>
      <trkpt lat="37.7011446655" lon="-8.0851144809">
        <ele>253.44</ele>
        <time>2021-05-29T11:35:08Z</time>
      </trkpt>
      <trkpt lat="37.7012486011" lon="-8.0851035006">
        <ele>253.44</ele>
        <time>2021-05-29T11:35:09Z</time>
      </trkpt>
      <trkpt lat="37.7016314864" lon="-8.0850698054">
        <ele>255.37</ele>
        <time>2021-05-29T11:35:12Z</time>
      </trkpt>
      <trkpt lat="37.7019706182" lon="-8.0850482639">
        <ele>252.00</ele>
        <time>2021-05-29T11:35:15Z</time>
      </trkpt>
      <trkpt lat="37.7021083329" lon="-8.0850143172">
        <ele>251.52</ele>
        <time>2021-05-29T11:35:17Z</time>
      </trkpt>
      <trkpt lat="37.7021531761" lon="-8.0849686358">
        <ele>251.52</ele>
        <time>2021-05-29T11:35:18Z</time>
      </trkpt>
      <trkpt lat="37.7021757234" lon="-8.0848990660">
        <ele>251.52</ele>
        <time>2021-05-29T11:35:19Z</time>
      </trkpt>
      <trkpt lat="37.7021732926" lon="-8.0848144088">
        <ele>251.04</ele>
        <time>2021-05-29T11:35:20Z</time>
      </trkpt>
      <trkpt lat="37.7021469735" lon="-8.0847194418">
        <ele>252.00</ele>
        <time>2021-05-29T11:35:21Z</time>
      </trkpt>
      <trkpt lat="37.7021150384" lon="-8.0846134108">
        <ele>252.00</ele>
        <time>2021-05-29T11:35:22Z</time>
      </trkpt>
      <trkpt lat="37.7020935807" lon="-8.0844949745">
        <ele>251.52</ele>
        <time>2021-05-29T11:35:23Z</time>
      </trkpt>
      <trkpt lat="37.7020816784" lon="-8.0843639653">
        <ele>252.00</ele>
        <time>2021-05-29T11:35:24Z</time>
      </trkpt>
      <trkpt lat="37.7020732965" lon="-8.0842347164">
        <ele>251.52</ele>
        <time>2021-05-29T11:35:25Z</time>
      </trkpt>
      <trkpt lat="37.7020499110" lon="-8.0834243540">
        <ele>251.52</ele>
        <time>2021-05-29T11:35:32Z</time>
      </trkpt>
      <trkpt lat="37.7020328119" lon="-8.0833201669">
        <ele>251.04</ele>
        <time>2021-05-29T11:35:33Z</time>
      </trkpt>
      <trkpt lat="37.7020050678" lon="-8.0832262896">
        <ele>251.04</ele>
        <time>2021-05-29T11:35:34Z</time>
      </trkpt>
      <trkpt lat="37.7019732166" lon="-8.0831351783">
        <ele>251.04</ele>
        <time>2021-05-29T11:35:35Z</time>
      </trkpt>
      <trkpt lat="37.7019577939" lon="-8.0830478389">
        <ele>250.08</ele>
        <time>2021-05-29T11:35:36Z</time>
      </trkpt>
      <trkpt lat="37.7019628230" lon="-8.0829570629">
        <ele>250.56</ele>
        <time>2021-05-29T11:35:37Z</time>
      </trkpt>
      <trkpt lat="37.7019821852" lon="-8.0828605033">
        <ele>250.56</ele>
        <time>2021-05-29T11:35:38Z</time>
      </trkpt>
      <trkpt lat="37.7020007093" lon="-8.0827523768">
        <ele>251.04</ele>
        <time>2021-05-29T11:35:39Z</time>
      </trkpt>
      <trkpt lat="37.7020072471" lon="-8.0826287437">
        <ele>251.04</ele>
        <time>2021-05-29T11:35:40Z</time>
      </trkpt>
      <trkpt lat="37.7020043135" lon="-8.0824940465">
        <ele>251.04</ele>
        <time>2021-05-29T11:35:41Z</time>
      </trkpt>
      <trkpt lat="37.7019463107" lon="-8.0808588210">
        <ele>248.16</ele>
        <time>2021-05-29T11:35:53Z</time>
      </trkpt>
      <trkpt lat="37.7018882241" lon="-8.0798712652">
        <ele>246.72</ele>
        <time>2021-05-29T11:36:00Z</time>
      </trkpt>
      <trkpt lat="37.7018599771" lon="-8.0797540862">
        <ele>245.27</ele>
        <time>2021-05-29T11:36:01Z</time>
      </trkpt>
      <trkpt lat="37.7018182352" lon="-8.0796579458">
        <ele>244.31</ele>
        <time>2021-05-29T11:36:02Z</time>
      </trkpt>
      <trkpt lat="37.7017666027" lon="-8.0795815028">
        <ele>243.83</ele>
        <time>2021-05-29T11:36:03Z</time>
      </trkpt>
      <trkpt lat="37.7017162275" lon="-8.0795075744">
        <ele>243.35</ele>
        <time>2021-05-29T11:36:04Z</time>
      </trkpt>
      <trkpt lat="37.7016823646" lon="-8.0794135295">
        <ele>243.35</ele>
        <time>2021-05-29T11:36:05Z</time>
      </trkpt>
      <trkpt lat="37.7016692050" lon="-8.0792909022">
        <ele>244.79</ele>
        <time>2021-05-29T11:36:06Z</time>
      </trkpt>
      <trkpt lat="37.7016630024" lon="-8.0791494995">
        <ele>245.75</ele>
        <time>2021-05-29T11:36:07Z</time>
      </trkpt>
      <trkpt lat="37.7016472444" lon="-8.0790034868">
        <ele>245.27</ele>
        <time>2021-05-29T11:36:08Z</time>
      </trkpt>
      <trkpt lat="37.7016184945" lon="-8.0788568035">
        <ele>245.27</ele>
        <time>2021-05-29T11:36:09Z</time>
      </trkpt>
      <trkpt lat="37.7014371939" lon="-8.0781551544">
        <ele>248.64</ele>
        <time>2021-05-29T11:36:13Z</time>
      </trkpt>
      <trkpt lat="37.7013840526" lon="-8.0779508036">
        <ele>248.64</ele>
        <time>2021-05-29T11:36:14Z</time>
      </trkpt>
      <trkpt lat="37.7009341121" lon="-8.0760108121">
        <ele>247.20</ele>
        <time>2021-05-29T11:36:24Z</time>
      </trkpt>
      <trkpt lat="37.7009348664" lon="-8.0741763487">
        <ele>246.72</ele>
        <time>2021-05-29T11:36:33Z</time>
      </trkpt>
      <trkpt lat="37.7009805478" lon="-8.0716430862">
        <ele>245.75</ele>
        <time>2021-05-29T11:36:43Z</time>
      </trkpt>
      <trkpt lat="37.7009955514" lon="-8.0710742064">
        <ele>244.79</ele>
        <time>2021-05-29T11:36:45Z</time>
      </trkpt>
      <trkpt lat="37.7009455115" lon="-8.0702028237">
        <ele>244.79</ele>
        <time>2021-05-29T11:36:48Z</time>
      </trkpt>
      <trkpt lat="37.7008832339" lon="-8.0699191801">
        <ele>244.31</ele>
        <time>2021-05-29T11:36:49Z</time>
      </trkpt>
      <trkpt lat="37.7007985767" lon="-8.0696430802">
        <ele>243.35</ele>
        <time>2021-05-29T11:36:50Z</time>
      </trkpt>
      <trkpt lat="37.7006047033" lon="-8.0690974183">
        <ele>241.91</ele>
        <time>2021-05-29T11:36:52Z</time>
      </trkpt>
      <trkpt lat="37.7002856880" lon="-8.0679492652">
        <ele>241.43</ele>
        <time>2021-05-29T11:36:56Z</time>
      </trkpt>
      <trkpt lat="37.7002540883" lon="-8.0676496122">
        <ele>241.91</ele>
        <time>2021-05-29T11:36:57Z</time>
      </trkpt>
      <trkpt lat="37.7002480533" lon="-8.0673459359">
        <ele>241.43</ele>
        <time>2021-05-29T11:36:58Z</time>
      </trkpt>
      <trkpt lat="37.7002654877" lon="-8.0670362245">
        <ele>240.47</ele>
        <time>2021-05-29T11:36:59Z</time>
      </trkpt>
      <trkpt lat="37.7003037091" lon="-8.0667241663">
        <ele>239.99</ele>
        <time>2021-05-29T11:37:00Z</time>
      </trkpt>
      <trkpt lat="37.7003538329" lon="-8.0664105155">
        <ele>239.99</ele>
        <time>2021-05-29T11:37:01Z</time>
      </trkpt>
      <trkpt lat="37.7005596086" lon="-8.0651486199">
        <ele>236.62</ele>
        <time>2021-05-29T11:37:05Z</time>
      </trkpt>
      <trkpt lat="37.7006177790" lon="-8.0645100866">
        <ele>236.14</ele>
        <time>2021-05-29T11:37:07Z</time>
      </trkpt>
      <trkpt lat="37.7006088942" lon="-8.0641853716">
        <ele>234.70</ele>
        <time>2021-05-29T11:37:08Z</time>
      </trkpt>
      <trkpt lat="37.7005777974" lon="-8.0638573878">
        <ele>235.66</ele>
        <time>2021-05-29T11:37:09Z</time>
      </trkpt>
      <trkpt lat="37.7003980055" lon="-8.0625684187">
        <ele>231.81</ele>
        <time>2021-05-29T11:37:13Z</time>
      </trkpt>
      <trkpt lat="37.7003087383" lon="-8.0619265325">
        <ele>230.37</ele>
        <time>2021-05-29T11:37:15Z</time>
      </trkpt>
      <trkpt lat="37.7001240011" lon="-8.0605770461">
        <ele>229.89</ele>
        <time>2021-05-29T11:37:19Z</time>
      </trkpt>
      <trkpt lat="37.6997989509" lon="-8.0582187138">
        <ele>226.53</ele>
        <time>2021-05-29T11:37:26Z</time>
      </trkpt>
      <trkpt lat="37.6997492462" lon="-8.0578801688">
        <ele>227.97</ele>
        <time>2021-05-29T11:37:27Z</time>
      </trkpt>
      <trkpt lat="37.6990662050" lon="-8.0528983846">
        <ele>226.05</ele>
        <time>2021-05-29T11:37:42Z</time>
      </trkpt>
      <trkpt lat="37.6988811325" lon="-8.0515389238">
        <ele>223.16</ele>
        <time>2021-05-29T11:37:46Z</time>
      </trkpt>
      <trkpt lat="37.6987839863" lon="-8.0508353468">
        <ele>226.53</ele>
        <time>2021-05-29T11:37:48Z</time>
      </trkpt>
      <trkpt lat="37.6987356227" lon="-8.0504861567">
        <ele>226.53</ele>
        <time>2021-05-29T11:37:49Z</time>
      </trkpt>
      <trkpt lat="37.6982265897" lon="-8.0478897784">
        <ele>225.57</ele>
        <time>2021-05-29T11:37:57Z</time>
      </trkpt>
      <trkpt lat="37.6980487257" lon="-8.0472617224">
        <ele>226.53</ele>
        <time>2021-05-29T11:37:59Z</time>
      </trkpt>
      <trkpt lat="37.6977841929" lon="-8.0463130586">
        <ele>225.09</ele>
        <time>2021-05-29T11:38:02Z</time>
      </trkpt>
      <trkpt lat="37.6976118609" lon="-8.0456876010">
        <ele>221.72</ele>
        <time>2021-05-29T11:38:04Z</time>
      </trkpt>
      <trkpt lat="37.6971095335" lon="-8.0440413952">
        <ele>218.36</ele>
        <time>2021-05-29T11:38:09Z</time>
      </trkpt>
      <trkpt lat="37.6967830583" lon="-8.0430598743">
        <ele>215.95</ele>
        <time>2021-05-29T11:38:12Z</time>
      </trkpt>
      <trkpt lat="37.6956494059" lon="-8.0396003276">
        <ele>210.67</ele>
        <time>2021-05-29T11:38:23Z</time>
      </trkpt>
      <trkpt lat="37.6954805106" lon="-8.0389160290">
        <ele>206.82</ele>
        <time>2021-05-29T11:38:25Z</time>
      </trkpt>
      <trkpt lat="37.6954061631" lon="-8.0385629833">
        <ele>207.30</ele>
        <time>2021-05-29T11:38:26Z</time>
      </trkpt>
      <trkpt lat="37.6952640899" lon="-8.0378702190">
        <ele>203.94</ele>
        <time>2021-05-29T11:38:28Z</time>
      </trkpt>
      <trkpt lat="37.6943599340" lon="-8.0342794955">
        <ele>205.86</ele>
        <time>2021-05-29T11:38:39Z</time>
      </trkpt>
      <trkpt lat="37.6941009331" lon="-8.0336713884">
        <ele>203.94</ele>
        <time>2021-05-29T11:38:41Z</time>
      </trkpt>
      <trkpt lat="37.6935618930" lon="-8.0324169528">
        <ele>199.61</ele>
        <time>2021-05-29T11:38:45Z</time>
      </trkpt>
      <trkpt lat="37.6932992879" lon="-8.0318059959">
        <ele>196.25</ele>
        <time>2021-05-29T11:38:47Z</time>
      </trkpt>
      <trkpt lat="37.6930528600" lon="-8.0312245432">
        <ele>195.28</ele>
        <time>2021-05-29T11:38:49Z</time>
      </trkpt>
      <trkpt lat="37.6924652886" lon="-8.0298203230">
        <ele>191.44</ele>
        <time>2021-05-29T11:38:54Z</time>
      </trkpt>
      <trkpt lat="37.6922982372" lon="-8.0292466655">
        <ele>190.48</ele>
        <time>2021-05-29T11:38:56Z</time>
      </trkpt>
      <trkpt lat="37.6918835007" lon="-8.0271106213">
        <ele>193.84</ele>
        <time>2021-05-29T11:39:03Z</time>
      </trkpt>
      <trkpt lat="37.6918207202" lon="-8.0267972220">
        <ele>193.84</ele>
        <time>2021-05-29T11:39:04Z</time>
      </trkpt>
      <trkpt lat="37.6915402617" lon="-8.0245118961">
        <ele>197.21</ele>
        <time>2021-05-29T11:39:11Z</time>
      </trkpt>
      <trkpt lat="37.6915566064" lon="-8.0237999372">
        <ele>197.69</ele>
        <time>2021-05-29T11:39:13Z</time>
      </trkpt>
      <trkpt lat="37.6915916428" lon="-8.0207794346">
        <ele>198.65</ele>
        <time>2021-05-29T11:39:22Z</time>
      </trkpt>
      <trkpt lat="37.6915472187" lon="-8.0204676278">
        <ele>199.13</ele>
        <time>2021-05-29T11:39:23Z</time>
      </trkpt>
      <trkpt lat="37.6911449712" lon="-8.0185143091">
        <ele>195.77</ele>
        <time>2021-05-29T11:39:29Z</time>
      </trkpt>
      <trkpt lat="37.6904793642" lon="-8.0144370999">
        <ele>196.25</ele>
        <time>2021-05-29T11:39:41Z</time>
      </trkpt>
      <trkpt lat="37.6904005744" lon="-8.0136993248">
        <ele>198.17</ele>
        <time>2021-05-29T11:39:43Z</time>
      </trkpt>
      <trkpt lat="37.6901668869" lon="-8.0114490353">
        <ele>200.09</ele>
        <time>2021-05-29T11:39:49Z</time>
      </trkpt>
      <trkpt lat="37.6899760310" lon="-8.0096033402">
        <ele>205.38</ele>
        <time>2021-05-29T11:39:54Z</time>
      </trkpt>
      <trkpt lat="37.6899378095" lon="-8.0092223827">
        <ele>205.86</ele>
        <time>2021-05-29T11:39:55Z</time>
      </trkpt>
      <trkpt lat="37.6895863563" lon="-8.0059315637">
        <ele>204.90</ele>
        <time>2021-05-29T11:40:04Z</time>
      </trkpt>
      <trkpt lat="37.6895177085" lon="-8.0052561499">
        <ele>208.26</ele>
        <time>2021-05-29T11:40:06Z</time>
      </trkpt>
      <trkpt lat="37.6894496474" lon="-8.0045912974">
        <ele>209.70</ele>
        <time>2021-05-29T11:40:08Z</time>
      </trkpt>
      <trkpt lat="37.6892222464" lon="-8.0023628846">
        <ele>210.67</ele>
        <time>2021-05-29T11:40:15Z</time>
      </trkpt>
      <trkpt lat="37.6891871262" lon="-8.0006068759">
        <ele>207.78</ele>
        <time>2021-05-29T11:40:20Z</time>
      </trkpt>
      <trkpt lat="37.6891574543" lon="-7.9972937610">
        <ele>210.67</ele>
        <time>2021-05-29T11:40:29Z</time>
      </trkpt>
      <trkpt lat="37.6891389303" lon="-7.9951839522">
        <ele>215.95</ele>
        <time>2021-05-29T11:40:35Z</time>
      </trkpt>
      <trkpt lat="37.6891368348" lon="-7.9948320799">
        <ele>215.47</ele>
        <time>2021-05-29T11:40:36Z</time>
      </trkpt>
      <trkpt lat="37.6891272794" lon="-7.9937892873">
        <ele>217.40</ele>
        <time>2021-05-29T11:40:39Z</time>
      </trkpt>
      <trkpt lat="37.6891172212" lon="-7.9927729815">
        <ele>219.32</ele>
        <time>2021-05-29T11:40:42Z</time>
      </trkpt>
      <trkpt lat="37.6891007088" lon="-7.9915530793">
        <ele>218.84</ele>
        <time>2021-05-29T11:40:46Z</time>
      </trkpt>
      <trkpt lat="37.6891323924" lon="-7.9909830261">
        <ele>221.24</ele>
        <time>2021-05-29T11:40:48Z</time>
      </trkpt>
      <trkpt lat="37.6891804207" lon="-7.9906992987">
        <ele>222.68</ele>
        <time>2021-05-29T11:40:49Z</time>
      </trkpt>
      <trkpt lat="37.6893183868" lon="-7.9901201930">
        <ele>227.49</ele>
        <time>2021-05-29T11:40:51Z</time>
      </trkpt>
      <trkpt lat="37.6895333827" lon="-7.9892544262">
        <ele>225.09</ele>
        <time>2021-05-29T11:40:54Z</time>
      </trkpt>
      <trkpt lat="37.6899014320" lon="-7.9878056142">
        <ele>220.76</ele>
        <time>2021-05-29T11:40:59Z</time>
      </trkpt>
      <trkpt lat="37.6900890190" lon="-7.9868955910">
        <ele>217.40</ele>
        <time>2021-05-29T11:41:02Z</time>
      </trkpt>
      <trkpt lat="37.6901999116" lon="-7.9862806108">
        <ele>214.03</ele>
        <time>2021-05-29T11:41:04Z</time>
      </trkpt>
      <trkpt lat="37.6904265583" lon="-7.9850406758">
        <ele>211.63</ele>
        <time>2021-05-29T11:41:08Z</time>
      </trkpt>
      <trkpt lat="37.6905948669" lon="-7.9841289762">
        <ele>207.30</ele>
        <time>2021-05-29T11:41:11Z</time>
      </trkpt>
      <trkpt lat="37.6906546298" lon="-7.9838170856">
        <ele>207.30</ele>
        <time>2021-05-29T11:41:12Z</time>
      </trkpt>
      <trkpt lat="37.6909000520" lon="-7.9825335648">
        <ele>210.19</ele>
        <time>2021-05-29T11:41:16Z</time>
      </trkpt>
      <trkpt lat="37.6909602340" lon="-7.9822131246">
        <ele>210.67</ele>
        <time>2021-05-29T11:41:17Z</time>
      </trkpt>
      <trkpt lat="37.6911831088" lon="-7.9810130876">
        <ele>213.55</ele>
        <time>2021-05-29T11:41:21Z</time>
      </trkpt>
      <trkpt lat="37.6912367530" lon="-7.9807234928">
        <ele>213.55</ele>
        <time>2021-05-29T11:41:22Z</time>
      </trkpt>
      <trkpt lat="37.6913456339" lon="-7.9801417887">
        <ele>214.99</ele>
        <time>2021-05-29T11:41:24Z</time>
      </trkpt>
      <trkpt lat="37.6918006036" lon="-7.9777873959">
        <ele>215.95</ele>
        <time>2021-05-29T11:41:33Z</time>
      </trkpt>
      <trkpt lat="37.6920358837" lon="-7.9770383053">
        <ele>217.88</ele>
        <time>2021-05-29T11:41:36Z</time>
      </trkpt>
      <trkpt lat="37.6923001651" lon="-7.9762413539">
        <ele>221.72</ele>
        <time>2021-05-29T11:41:39Z</time>
      </trkpt>
      <trkpt lat="37.6924905181" lon="-7.9756862205">
        <ele>222.68</ele>
        <time>2021-05-29T11:41:41Z</time>
      </trkpt>
      <trkpt lat="37.6935281139" lon="-7.9726077989">
        <ele>218.36</ele>
        <time>2021-05-29T11:41:52Z</time>
      </trkpt>
      <trkpt lat="37.6936197281" lon="-7.9723272566">
        <ele>218.36</ele>
        <time>2021-05-29T11:41:53Z</time>
      </trkpt>
      <trkpt lat="37.6949895825" lon="-7.9682102334">
        <ele>218.36</ele>
        <time>2021-05-29T11:42:07Z</time>
      </trkpt>
      <trkpt lat="37.6956754737" lon="-7.9661751911">
        <ele>214.03</ele>
        <time>2021-05-29T11:42:14Z</time>
      </trkpt>
      <trkpt lat="37.6969291549" lon="-7.9623847269">
        <ele>217.88</ele>
        <time>2021-05-29T11:42:27Z</time>
      </trkpt>
      <trkpt lat="37.6975396089" lon="-7.9605480842">
        <ele>222.20</ele>
        <time>2021-05-29T11:42:33Z</time>
      </trkpt>
      <trkpt lat="37.6976435445" lon="-7.9602402169">
        <ele>221.72</ele>
        <time>2021-05-29T11:42:34Z</time>
      </trkpt>
      <trkpt lat="37.6982739475" lon="-7.9583636764">
        <ele>223.16</ele>
        <time>2021-05-29T11:42:40Z</time>
      </trkpt>
      <trkpt lat="37.6985904481" lon="-7.9573957343">
        <ele>218.36</ele>
        <time>2021-05-29T11:42:43Z</time>
      </trkpt>
      <trkpt lat="37.6995580550" lon="-7.9544732161">
        <ele>213.07</ele>
        <time>2021-05-29T11:42:52Z</time>
      </trkpt>
      <trkpt lat="37.6997738052" lon="-7.9538340960">
        <ele>212.11</ele>
        <time>2021-05-29T11:42:54Z</time>
      </trkpt>
      <trkpt lat="37.7000850253" lon="-7.9529124219">
        <ele>215.95</ele>
        <time>2021-05-29T11:42:57Z</time>
      </trkpt>
      <trkpt lat="37.7003881149" lon="-7.9520018119">
        <ele>217.88</ele>
        <time>2021-05-29T11:43:00Z</time>
      </trkpt>
      <trkpt lat="37.7010694798" lon="-7.9499405343">
        <ele>214.51</ele>
        <time>2021-05-29T11:43:07Z</time>
      </trkpt>
      <trkpt lat="37.7011646144" lon="-7.9496542085">
        <ele>214.03</ele>
        <time>2021-05-29T11:43:08Z</time>
      </trkpt>
      <trkpt lat="37.7018421236" lon="-7.9476229381">
        <ele>210.67</ele>
        <time>2021-05-29T11:43:15Z</time>
      </trkpt>
      <trkpt lat="37.7022176329" lon="-7.9464831669">
        <ele>206.34</ele>
        <time>2021-05-29T11:43:19Z</time>
      </trkpt>
      <trkpt lat="37.7025993448" lon="-7.9453405458">
        <ele>203.46</ele>
        <time>2021-05-29T11:43:23Z</time>
      </trkpt>
      <trkpt lat="37.7028412465" lon="-7.9445592687">
        <ele>201.05</ele>
        <time>2021-05-29T11:43:26Z</time>
      </trkpt>
      <trkpt lat="37.7040098514" lon="-7.9410736542">
        <ele>199.13</ele>
        <time>2021-05-29T11:43:39Z</time>
      </trkpt>
      <trkpt lat="37.7040989511" lon="-7.9407968838">
        <ele>199.13</ele>
        <time>2021-05-29T11:43:40Z</time>
      </trkpt>
      <trkpt lat="37.7047886141" lon="-7.9385701474">
        <ele>201.05</ele>
        <time>2021-05-29T11:43:49Z</time>
      </trkpt>
      <trkpt lat="37.7053286601" lon="-7.9361319356">
        <ele>204.90</ele>
        <time>2021-05-29T11:43:59Z</time>
      </trkpt>
      <trkpt lat="37.7053553145" lon="-7.9358490463">
        <ele>203.94</ele>
        <time>2021-05-29T11:44:00Z</time>
      </trkpt>
      <trkpt lat="37.7055180073" lon="-7.9341334384">
        <ele>205.86</ele>
        <time>2021-05-29T11:44:06Z</time>
      </trkpt>
      <trkpt lat="37.7057006489" lon="-7.9324445687">
        <ele>210.19</ele>
        <time>2021-05-29T11:44:12Z</time>
      </trkpt>
      <trkpt lat="37.7057822887" lon="-7.9316198733">
        <ele>212.11</ele>
        <time>2021-05-29T11:44:15Z</time>
      </trkpt>
      <trkpt lat="37.7058371902" lon="-7.9310684279">
        <ele>215.47</ele>
        <time>2021-05-29T11:44:17Z</time>
      </trkpt>
      <trkpt lat="37.7059948537" lon="-7.9293678235">
        <ele>218.84</ele>
        <time>2021-05-29T11:44:23Z</time>
      </trkpt>
      <trkpt lat="37.7060225978" lon="-7.9290612135">
        <ele>221.72</ele>
        <time>2021-05-29T11:44:24Z</time>
      </trkpt>
      <trkpt lat="37.7060815226" lon="-7.9284278769">
        <ele>223.16</ele>
        <time>2021-05-29T11:44:26Z</time>
      </trkpt>
      <trkpt lat="37.7064271085" lon="-7.9257279821">
        <ele>222.20</ele>
        <time>2021-05-29T11:44:35Z</time>
      </trkpt>
      <trkpt lat="37.7071727626" lon="-7.9230335355">
        <ele>226.53</ele>
        <time>2021-05-29T11:44:44Z</time>
      </trkpt>
      <trkpt lat="37.7072524745" lon="-7.9227473773">
        <ele>226.05</ele>
        <time>2021-05-29T11:44:45Z</time>
      </trkpt>
      <trkpt lat="37.7074850723" lon="-7.9218949378">
        <ele>229.89</ele>
        <time>2021-05-29T11:44:48Z</time>
      </trkpt>
      <trkpt lat="37.7076351922" lon="-7.9213243816">
        <ele>231.33</ele>
        <time>2021-05-29T11:44:50Z</time>
      </trkpt>
      <trkpt lat="37.7086306270" lon="-7.9176333267">
        <ele>233.26</ele>
        <time>2021-05-29T11:45:02Z</time>
      </trkpt>
      <trkpt lat="37.7088773903" lon="-7.9167308472">
        <ele>227.49</ele>
        <time>2021-05-29T11:45:05Z</time>
      </trkpt>
      <trkpt lat="37.7092818171" lon="-7.9152404610">
        <ele>224.12</ele>
        <time>2021-05-29T11:45:10Z</time>
      </trkpt>
      <trkpt lat="37.7095290832" lon="-7.9143323656">
        <ele>222.20</ele>
        <time>2021-05-29T11:45:13Z</time>
      </trkpt>
      <trkpt lat="37.7096934523" lon="-7.9137276113">
        <ele>218.84</ele>
        <time>2021-05-29T11:45:15Z</time>
      </trkpt>
      <trkpt lat="37.7099335939" lon="-7.9128259700">
        <ele>214.99</ele>
        <time>2021-05-29T11:45:18Z</time>
      </trkpt>
      <trkpt lat="37.7100938559" lon="-7.9122294299">
        <ele>213.55</ele>
        <time>2021-05-29T11:45:20Z</time>
      </trkpt>
      <trkpt lat="37.7104957681" lon="-7.9107428994">
        <ele>210.19</ele>
        <time>2021-05-29T11:45:25Z</time>
      </trkpt>
      <trkpt lat="37.7107412741" lon="-7.9098368157">
        <ele>208.74</ele>
        <time>2021-05-29T11:45:28Z</time>
      </trkpt>
      <trkpt lat="37.7109037153" lon="-7.9092253558">
        <ele>214.99</ele>
        <time>2021-05-29T11:45:30Z</time>
      </trkpt>
      <trkpt lat="37.7109881211" lon="-7.9089220148">
        <ele>214.51</ele>
        <time>2021-05-29T11:45:31Z</time>
      </trkpt>
      <trkpt lat="37.7116646245" lon="-7.9064695537">
        <ele>215.47</ele>
        <time>2021-05-29T11:45:39Z</time>
      </trkpt>
      <trkpt lat="37.7120077796" lon="-7.9052134417">
        <ele>217.88</ele>
        <time>2021-05-29T11:45:43Z</time>
      </trkpt>
      <trkpt lat="37.7125067543" lon="-7.9033503961">
        <ele>222.68</ele>
        <time>2021-05-29T11:45:49Z</time>
      </trkpt>
      <trkpt lat="37.7126684412" lon="-7.9027503356">
        <ele>224.61</ele>
        <time>2021-05-29T11:45:51Z</time>
      </trkpt>
      <trkpt lat="37.7131643984" lon="-7.9009017069">
        <ele>227.97</ele>
        <time>2021-05-29T11:45:57Z</time>
      </trkpt>
      <trkpt lat="37.7135873493" lon="-7.8993495461">
        <ele>227.97</ele>
        <time>2021-05-29T11:46:02Z</time>
      </trkpt>
      <trkpt lat="37.7147101890" lon="-7.8951667249">
        <ele>227.97</ele>
        <time>2021-05-29T11:46:16Z</time>
      </trkpt>
      <trkpt lat="37.7147928346" lon="-7.8948589414">
        <ele>227.49</ele>
        <time>2021-05-29T11:46:17Z</time>
      </trkpt>
      <trkpt lat="37.7153037954" lon="-7.8929659724">
        <ele>229.89</ele>
        <time>2021-05-29T11:46:23Z</time>
      </trkpt>
      <trkpt lat="37.7154702600" lon="-7.8923405148">
        <ele>228.45</ele>
        <time>2021-05-29T11:46:25Z</time>
      </trkpt>
      <trkpt lat="37.7159922011" lon="-7.8904361464">
        <ele>229.41</ele>
        <time>2021-05-29T11:46:31Z</time>
      </trkpt>
      <trkpt lat="37.7162566502" lon="-7.8894656058">
        <ele>232.78</ele>
        <time>2021-05-29T11:46:34Z</time>
      </trkpt>
      <trkpt lat="37.7164271381" lon="-7.8888357896">
        <ele>234.22</ele>
        <time>2021-05-29T11:46:36Z</time>
      </trkpt>
      <trkpt lat="37.7168733906" lon="-7.8870654479">
        <ele>232.78</ele>
        <time>2021-05-29T11:46:42Z</time>
      </trkpt>
      <trkpt lat="37.7171007916" lon="-7.8852283861">
        <ele>230.85</ele>
        <time>2021-05-29T11:46:48Z</time>
      </trkpt>
      <trkpt lat="37.7173459623" lon="-7.8832236864">
        <ele>225.57</ele>
        <time>2021-05-29T11:46:54Z</time>
      </trkpt>
      <trkpt lat="37.7173784003" lon="-7.8829204291">
        <ele>226.05</ele>
        <time>2021-05-29T11:46:55Z</time>
      </trkpt>
      <trkpt lat="37.7174815815" lon="-7.8820144292">
        <ele>223.16</ele>
        <time>2021-05-29T11:46:58Z</time>
      </trkpt>
      <trkpt lat="37.7178588510" lon="-7.8788616601">
        <ele>222.20</ele>
        <time>2021-05-29T11:47:08Z</time>
      </trkpt>
      <trkpt lat="37.7181615215" lon="-7.8762677126">
        <ele>219.32</ele>
        <time>2021-05-29T11:47:16Z</time>
      </trkpt>
      <trkpt lat="37.7182575781" lon="-7.8754567634">
        <ele>215.47</ele>
        <time>2021-05-29T11:47:19Z</time>
      </trkpt>
      <trkpt lat="37.7182887588" lon="-7.8752099164">
        <ele>214.99</ele>
        <time>2021-05-29T11:47:20Z</time>
      </trkpt>
      <trkpt lat="37.7185615059" lon="-7.8729296196">
        <ele>213.07</ele>
        <time>2021-05-29T11:47:29Z</time>
      </trkpt>
      <trkpt lat="37.7187543735" lon="-7.8713053744">
        <ele>210.67</ele>
        <time>2021-05-29T11:47:35Z</time>
      </trkpt>
      <trkpt lat="37.7188368514" lon="-7.8704686090">
        <ele>207.78</ele>
        <time>2021-05-29T11:47:38Z</time>
      </trkpt>
      <trkpt lat="37.7188344207" lon="-7.8701855522">
        <ele>207.78</ele>
        <time>2021-05-29T11:47:39Z</time>
      </trkpt>
      <trkpt lat="37.7188049164" lon="-7.8699004836">
        <ele>207.30</ele>
        <time>2021-05-29T11:47:40Z</time>
      </trkpt>
      <trkpt lat="37.7187506016" lon="-7.8696159180">
        <ele>207.30</ele>
        <time>2021-05-29T11:47:41Z</time>
      </trkpt>
      <trkpt lat="37.7186734043" lon="-7.8693314362">
        <ele>207.30</ele>
        <time>2021-05-29T11:47:42Z</time>
      </trkpt>
      <trkpt lat="37.7185869031" lon="-7.8690434340">
        <ele>206.82</ele>
        <time>2021-05-29T11:47:43Z</time>
      </trkpt>
      <trkpt lat="37.7177035343" lon="-7.8660179023">
        <ele>209.70</ele>
        <time>2021-05-29T11:47:53Z</time>
      </trkpt>
      <trkpt lat="37.7173506562" lon="-7.8648041189">
        <ele>206.82</ele>
        <time>2021-05-29T11:47:57Z</time>
      </trkpt>
      <trkpt lat="37.7172664180" lon="-7.8645069804">
        <ele>206.34</ele>
        <time>2021-05-29T11:47:58Z</time>
      </trkpt>
      <trkpt lat="37.7168590575" lon="-7.8630936239">
        <ele>203.46</ele>
        <time>2021-05-29T11:48:03Z</time>
      </trkpt>
      <trkpt lat="37.7165547106" lon="-7.8620776534">
        <ele>201.05</ele>
        <time>2021-05-29T11:48:07Z</time>
      </trkpt>
      <trkpt lat="37.7164169960" lon="-7.8614494298">
        <ele>199.61</ele>
        <time>2021-05-29T11:48:10Z</time>
      </trkpt>
      <trkpt lat="37.7164045069" lon="-7.8612457495">
        <ele>199.13</ele>
        <time>2021-05-29T11:48:11Z</time>
      </trkpt>
      <trkpt lat="37.7164112963" lon="-7.8610315081">
        <ele>201.53</ele>
        <time>2021-05-29T11:48:12Z</time>
      </trkpt>
      <trkpt lat="37.7164335921" lon="-7.8608052805">
        <ele>201.53</ele>
        <time>2021-05-29T11:48:13Z</time>
      </trkpt>
      <trkpt lat="37.7164706402" lon="-7.8605654743">
        <ele>202.98</ele>
        <time>2021-05-29T11:48:14Z</time>
      </trkpt>
      <trkpt lat="37.7165160701" lon="-7.8603157774">
        <ele>203.46</ele>
        <time>2021-05-29T11:48:15Z</time>
      </trkpt>
      <trkpt lat="37.7167265397" lon="-7.8592584003">
        <ele>205.38</ele>
        <time>2021-05-29T11:48:19Z</time>
      </trkpt>
      <trkpt lat="37.7169630770" lon="-7.8570070211">
        <ele>205.38</ele>
        <time>2021-05-29T11:48:27Z</time>
      </trkpt>
      <trkpt lat="37.7171180584" lon="-7.8541813977">
        <ele>202.49</ele>
        <time>2021-05-29T11:48:36Z</time>
      </trkpt>
      <trkpt lat="37.7171330620" lon="-7.8538452834">
        <ele>202.01</ele>
        <time>2021-05-29T11:48:37Z</time>
      </trkpt>
      <trkpt lat="37.7173188888" lon="-7.8500139154">
        <ele>199.13</ele>
        <time>2021-05-29T11:48:48Z</time>
      </trkpt>
      <trkpt lat="37.7174776420" lon="-7.8465234395">
        <ele>202.98</ele>
        <time>2021-05-29T11:48:58Z</time>
      </trkpt>
      <trkpt lat="37.7176602837" lon="-7.8427470569">
        <ele>201.53</ele>
        <time>2021-05-29T11:49:09Z</time>
      </trkpt>
      <trkpt lat="37.7177335415" lon="-7.8411016054">
        <ele>202.01</ele>
        <time>2021-05-29T11:49:14Z</time>
      </trkpt>
      <trkpt lat="37.7178336214" lon="-7.8390523139">
        <ele>199.61</ele>
        <time>2021-05-29T11:49:20Z</time>
      </trkpt>
      <trkpt lat="37.7179073822" lon="-7.8376103751">
        <ele>196.25</ele>
        <time>2021-05-29T11:49:24Z</time>
      </trkpt>
      <trkpt lat="37.7179418318" lon="-7.8369019367">
        <ele>192.88</ele>
        <time>2021-05-29T11:49:26Z</time>
      </trkpt>
      <trkpt lat="37.7179792151" lon="-7.8361900616">
        <ele>191.92</ele>
        <time>2021-05-29T11:49:28Z</time>
      </trkpt>
      <trkpt lat="37.7181782015" lon="-7.8318649996">
        <ele>194.80</ele>
        <time>2021-05-29T11:49:40Z</time>
      </trkpt>
      <trkpt lat="37.7182463463" lon="-7.8304402437">
        <ele>196.25</ele>
        <time>2021-05-29T11:49:44Z</time>
      </trkpt>
      <trkpt lat="37.7182936203" lon="-7.8293957748">
        <ele>199.61</ele>
        <time>2021-05-29T11:49:47Z</time>
      </trkpt>
      <trkpt lat="37.7183734160" lon="-7.8278609645">
        <ele>195.28</ele>
        <time>2021-05-29T11:49:52Z</time>
      </trkpt>
      <trkpt lat="37.7184126433" lon="-7.8275963478">
        <ele>193.84</ele>
        <time>2021-05-29T11:49:53Z</time>
      </trkpt>
      <trkpt lat="37.7184722386" lon="-7.8273308929">
        <ele>193.84</ele>
        <time>2021-05-29T11:49:54Z</time>
      </trkpt>
      <trkpt lat="37.7189908270" lon="-7.8256466333">
        <ele>190.48</ele>
        <time>2021-05-29T11:50:00Z</time>
      </trkpt>
      <trkpt lat="37.7191689424" lon="-7.8251044918">
        <ele>188.56</ele>
        <time>2021-05-29T11:50:02Z</time>
      </trkpt>
      <trkpt lat="37.7194837667" lon="-7.8241116554">
        <ele>191.44</ele>
        <time>2021-05-29T11:50:06Z</time>
      </trkpt>
      <trkpt lat="37.7195542585" lon="-7.8238809016">
        <ele>191.44</ele>
        <time>2021-05-29T11:50:07Z</time>
      </trkpt>
      <trkpt lat="37.7198434342" lon="-7.8229240235">
        <ele>195.28</ele>
        <time>2021-05-29T11:50:11Z</time>
      </trkpt>
      <trkpt lat="37.7199157700" lon="-7.8226874862">
        <ele>195.28</ele>
        <time>2021-05-29T11:50:12Z</time>
      </trkpt>
      <trkpt lat="37.7203369606" lon="-7.8213428613">
        <ele>197.21</ele>
        <time>2021-05-29T11:50:19Z</time>
      </trkpt>
      <trkpt lat="37.7206377871" lon="-7.8198124934">
        <ele>195.77</ele>
        <time>2021-05-29T11:50:26Z</time>
      </trkpt>
      <trkpt lat="37.7208107058" lon="-7.8187686112">
        <ele>192.40</ele>
        <time>2021-05-29T11:50:31Z</time>
      </trkpt>
      <trkpt lat="37.7210112847" lon="-7.8175768722">
        <ele>195.28</ele>
        <time>2021-05-29T11:50:37Z</time>
      </trkpt>
      <trkpt lat="37.7210490871" lon="-7.8173523210">
        <ele>194.80</ele>
        <time>2021-05-29T11:50:38Z</time>
      </trkpt>
      <trkpt lat="37.7211691998" lon="-7.8166405298">
        <ele>196.25</ele>
        <time>2021-05-29T11:50:41Z</time>
      </trkpt>
      <trkpt lat="37.7213064115" lon="-7.8158094641">
        <ele>191.92</ele>
        <time>2021-05-29T11:50:45Z</time>
      </trkpt>
      <trkpt lat="37.7213687729" lon="-7.8154568374">
        <ele>190.96</ele>
        <time>2021-05-29T11:50:47Z</time>
      </trkpt>
      <trkpt lat="37.7214365825" lon="-7.8148860298">
        <ele>190.48</ele>
        <time>2021-05-29T11:50:50Z</time>
      </trkpt>
      <trkpt lat="37.7214293741" lon="-7.8146801703">
        <ele>190.00</ele>
        <time>2021-05-29T11:50:51Z</time>
      </trkpt>
      <trkpt lat="37.7213960979" lon="-7.8144748136">
        <ele>188.56</ele>
        <time>2021-05-29T11:50:52Z</time>
      </trkpt>
      <trkpt lat="37.7213387657" lon="-7.8142714687">
        <ele>188.56</ele>
        <time>2021-05-29T11:50:53Z</time>
      </trkpt>
      <trkpt lat="37.7212636638" lon="-7.8140620049">
        <ele>188.08</ele>
        <time>2021-05-29T11:50:54Z</time>
      </trkpt>
      <trkpt lat="37.7208589017" lon="-7.8129646461">
        <ele>186.15</ele>
        <time>2021-05-29T11:50:59Z</time>
      </trkpt>
      <trkpt lat="37.7199948952" lon="-7.8105403483">
        <ele>181.35</ele>
        <time>2021-05-29T11:51:10Z</time>
      </trkpt>
      <trkpt lat="37.7196548413" lon="-7.8095151577">
        <ele>177.50</ele>
        <time>2021-05-29T11:51:15Z</time>
      </trkpt>
      <trkpt lat="37.7188479155" lon="-7.8065635543">
        <ele>179.42</ele>
        <time>2021-05-29T11:51:28Z</time>
      </trkpt>
      <trkpt lat="37.7186795231" lon="-7.8058292996">
        <ele>180.87</ele>
        <time>2021-05-29T11:51:31Z</time>
      </trkpt>
      <trkpt lat="37.7183725778" lon="-7.8043386620">
        <ele>183.27</ele>
        <time>2021-05-29T11:51:38Z</time>
      </trkpt>
      <trkpt lat="37.7181372978" lon="-7.8031637706">
        <ele>186.63</ele>
        <time>2021-05-29T11:51:43Z</time>
      </trkpt>
      <trkpt lat="37.7176867705" lon="-7.8009543847">
        <ele>190.96</ele>
        <time>2021-05-29T11:51:51Z</time>
      </trkpt>
      <trkpt lat="37.7171278652" lon="-7.7986428235">
        <ele>192.40</ele>
        <time>2021-05-29T11:52:00Z</time>
      </trkpt>
      <trkpt lat="37.7167126257" lon="-7.7974159643">
        <ele>193.84</ele>
        <time>2021-05-29T11:52:05Z</time>
      </trkpt>
      <trkpt lat="37.7162230387" lon="-7.7959334571">
        <ele>188.56</ele>
        <time>2021-05-29T11:52:11Z</time>
      </trkpt>
      <trkpt lat="37.7159754373" lon="-7.7951727156">
        <ele>185.19</ele>
        <time>2021-05-29T11:52:14Z</time>
      </trkpt>
      <trkpt lat="37.7147199120" lon="-7.7913520765">
        <ele>183.27</ele>
        <time>2021-05-29T11:52:28Z</time>
      </trkpt>
      <trkpt lat="37.7146310639" lon="-7.7910861187">
        <ele>183.75</ele>
        <time>2021-05-29T11:52:29Z</time>
      </trkpt>
      <trkpt lat="37.7144634258" lon="-7.7905667759">
        <ele>179.90</ele>
        <time>2021-05-29T11:52:31Z</time>
      </trkpt>
      <trkpt lat="37.7143809479" lon="-7.7903081104">
        <ele>180.87</ele>
        <time>2021-05-29T11:52:32Z</time>
      </trkpt>
      <trkpt lat="37.7135480382" lon="-7.7877748478">
        <ele>184.23</ele>
        <time>2021-05-29T11:52:42Z</time>
      </trkpt>
      <trkpt lat="37.7128768992" lon="-7.7857465111">
        <ele>183.75</ele>
        <time>2021-05-29T11:52:50Z</time>
      </trkpt>
      <trkpt lat="37.7124080993" lon="-7.7843658440">
        <ele>181.35</ele>
        <time>2021-05-29T11:52:56Z</time>
      </trkpt>
      <trkpt lat="37.7120135631" lon="-7.7833847422">
        <ele>184.71</ele>
        <time>2021-05-29T11:53:01Z</time>
      </trkpt>
      <trkpt lat="37.7119223680" lon="-7.7831636276">
        <ele>184.23</ele>
        <time>2021-05-29T11:53:02Z</time>
      </trkpt>
      <trkpt lat="37.7112628799" lon="-7.7818222716">
        <ele>188.08</ele>
        <time>2021-05-29T11:53:08Z</time>
      </trkpt>
      <trkpt lat="37.7109074872" lon="-7.7811510488">
        <ele>190.48</ele>
        <time>2021-05-29T11:53:11Z</time>
      </trkpt>
      <trkpt lat="37.7104876377" lon="-7.7803050634">
        <ele>195.28</ele>
        <time>2021-05-29T11:53:15Z</time>
      </trkpt>
      <trkpt lat="37.7097973041" lon="-7.7789637074">
        <ele>191.44</ele>
        <time>2021-05-29T11:53:21Z</time>
      </trkpt>
      <trkpt lat="37.7093197871" lon="-7.7780544385">
        <ele>188.08</ele>
        <time>2021-05-29T11:53:25Z</time>
      </trkpt>
      <trkpt lat="37.7084342390" lon="-7.7763612103">
        <ele>184.23</ele>
        <time>2021-05-29T11:53:32Z</time>
      </trkpt>
      <trkpt lat="37.7081222646" lon="-7.7757510077">
        <ele>180.38</ele>
        <time>2021-05-29T11:53:35Z</time>
      </trkpt>
      <trkpt lat="37.7080460731" lon="-7.7755533624">
        <ele>178.46</ele>
        <time>2021-05-29T11:53:36Z</time>
      </trkpt>
      <trkpt lat="37.7079859748" lon="-7.7753345110">
        <ele>178.46</ele>
        <time>2021-05-29T11:53:37Z</time>
      </trkpt>
      <trkpt lat="37.7079392038" lon="-7.7750926092">
        <ele>179.42</ele>
        <time>2021-05-29T11:53:38Z</time>
      </trkpt>
      <trkpt lat="37.7078672033" lon="-7.7745698299">
        <ele>182.79</ele>
        <time>2021-05-29T11:53:40Z</time>
      </trkpt>
      <trkpt lat="37.7077691350" lon="-7.7732846327">
        <ele>188.08</ele>
        <time>2021-05-29T11:53:45Z</time>
      </trkpt>
      <trkpt lat="37.7077556401" lon="-7.7727365401">
        <ele>191.92</ele>
        <time>2021-05-29T11:53:47Z</time>
      </trkpt>
      <trkpt lat="37.7077476773" lon="-7.7724538185">
        <ele>191.92</ele>
        <time>2021-05-29T11:53:48Z</time>
      </trkpt>
      <trkpt lat="37.7077344339" lon="-7.7718771435">
        <ele>197.21</ele>
        <time>2021-05-29T11:53:50Z</time>
      </trkpt>
      <trkpt lat="37.7077164967" lon="-7.7712924220">
        <ele>200.57</ele>
        <time>2021-05-29T11:53:52Z</time>
      </trkpt>
      <trkpt lat="37.7077070251" lon="-7.7710026596">
        <ele>200.57</ele>
        <time>2021-05-29T11:53:53Z</time>
      </trkpt>
      <trkpt lat="37.7076795325" lon="-7.7701576799">
        <ele>203.94</ele>
        <time>2021-05-29T11:53:56Z</time>
      </trkpt>
      <trkpt lat="37.7076605894" lon="-7.7695970982">
        <ele>206.34</ele>
        <time>2021-05-29T11:53:58Z</time>
      </trkpt>
      <trkpt lat="37.7076527104" lon="-7.7687309124">
        <ele>209.22</ele>
        <time>2021-05-29T11:54:01Z</time>
      </trkpt>
      <trkpt lat="37.7076942846" lon="-7.7681213804">
        <ele>212.59</ele>
        <time>2021-05-29T11:54:03Z</time>
      </trkpt>
      <trkpt lat="37.7077393793" lon="-7.7675131056">
        <ele>213.55</ele>
        <time>2021-05-29T11:54:05Z</time>
      </trkpt>
      <trkpt lat="37.7077817917" lon="-7.7669261210">
        <ele>212.11</ele>
        <time>2021-05-29T11:54:07Z</time>
      </trkpt>
      <trkpt lat="37.7078382857" lon="-7.7658937220">
        <ele>210.19</ele>
        <time>2021-05-29T11:54:11Z</time>
      </trkpt>
      <trkpt lat="37.7078181691" lon="-7.7656543348">
        <ele>211.15</ele>
        <time>2021-05-29T11:54:12Z</time>
      </trkpt>
      <trkpt lat="37.7077711467" lon="-7.7654203121">
        <ele>213.55</ele>
        <time>2021-05-29T11:54:13Z</time>
      </trkpt>
      <trkpt lat="37.7077030856" lon="-7.7651876304">
        <ele>216.43</ele>
        <time>2021-05-29T11:54:14Z</time>
      </trkpt>
      <trkpt lat="37.7076247986" lon="-7.7649509255">
        <ele>216.43</ele>
        <time>2021-05-29T11:54:15Z</time>
      </trkpt>
      <trkpt lat="37.7074848209" lon="-7.7644327562">
        <ele>220.28</ele>
        <time>2021-05-29T11:54:17Z</time>
      </trkpt>
      <trkpt lat="37.7073683124" lon="-7.7638876811">
        <ele>222.20</ele>
        <time>2021-05-29T11:54:19Z</time>
      </trkpt>
      <trkpt lat="37.7071992494" lon="-7.7630773187">
        <ele>227.49</ele>
        <time>2021-05-29T11:54:22Z</time>
      </trkpt>
      <trkpt lat="37.7071400732" lon="-7.7627916634">
        <ele>227.49</ele>
        <time>2021-05-29T11:54:23Z</time>
      </trkpt>
      <trkpt lat="37.7068845090" lon="-7.7616113238">
        <ele>224.12</ele>
        <time>2021-05-29T11:54:27Z</time>
      </trkpt>
      <trkpt lat="37.7064068243" lon="-7.7602999751">
        <ele>220.28</ele>
        <time>2021-05-29T11:54:33Z</time>
      </trkpt>
      <trkpt lat="37.7063340694" lon="-7.7601184230">
        <ele>220.28</ele>
        <time>2021-05-29T11:54:34Z</time>
      </trkpt>
      <trkpt lat="37.7060873061" lon="-7.7595097292">
        <ele>223.64</ele>
        <time>2021-05-29T11:54:37Z</time>
      </trkpt>
      <trkpt lat="37.7052637003" lon="-7.7575185243">
        <ele>218.84</ele>
        <time>2021-05-29T11:54:45Z</time>
      </trkpt>
      <trkpt lat="37.7049496304" lon="-7.7567298710">
        <ele>216.91</ele>
        <time>2021-05-29T11:54:48Z</time>
      </trkpt>
      <trkpt lat="37.7044592891" lon="-7.7549395803">
        <ele>214.51</ele>
        <time>2021-05-29T11:54:54Z</time>
      </trkpt>
      <trkpt lat="37.7039278764" lon="-7.7535030060">
        <ele>211.63</ele>
        <time>2021-05-29T11:55:00Z</time>
      </trkpt>
      <trkpt lat="37.7031572443" lon="-7.7520078421">
        <ele>208.26</ele>
        <time>2021-05-29T11:55:07Z</time>
      </trkpt>
      <trkpt lat="37.7030554879" lon="-7.7518108673">
        <ele>207.78</ele>
        <time>2021-05-29T11:55:08Z</time>
      </trkpt>
      <trkpt lat="37.7027565893" lon="-7.7512204461">
        <ele>205.38</ele>
        <time>2021-05-29T11:55:11Z</time>
      </trkpt>
      <trkpt lat="37.7025116701" lon="-7.7505716868">
        <ele>200.57</ele>
        <time>2021-05-29T11:55:14Z</time>
      </trkpt>
      <trkpt lat="37.7023813315" lon="-7.7499468997">
        <ele>197.21</ele>
        <time>2021-05-29T11:55:17Z</time>
      </trkpt>
      <trkpt lat="37.7023468819" lon="-7.7492010780">
        <ele>193.36</ele>
        <time>2021-05-29T11:55:21Z</time>
      </trkpt>
      <trkpt lat="37.7023970895" lon="-7.7486994211">
        <ele>189.52</ele>
        <time>2021-05-29T11:55:24Z</time>
      </trkpt>
      <trkpt lat="37.7024358138" lon="-7.7482359856">
        <ele>186.63</ele>
        <time>2021-05-29T11:55:27Z</time>
      </trkpt>
      <trkpt lat="37.7024298627" lon="-7.7481018752">
        <ele>185.67</ele>
        <time>2021-05-29T11:55:28Z</time>
      </trkpt>
      <trkpt lat="37.7024066448" lon="-7.7479867917">
        <ele>186.63</ele>
        <time>2021-05-29T11:55:29Z</time>
      </trkpt>
      <trkpt lat="37.7023613825" lon="-7.7478878852">
        <ele>185.67</ele>
        <time>2021-05-29T11:55:30Z</time>
      </trkpt>
      <trkpt lat="37.7022927348" lon="-7.7478042338">
        <ele>184.71</ele>
        <time>2021-05-29T11:55:31Z</time>
      </trkpt>
      <trkpt lat="37.7022001147" lon="-7.7477420401">
        <ele>184.71</ele>
        <time>2021-05-29T11:55:32Z</time>
      </trkpt>
      <trkpt lat="37.7020831034" lon="-7.7476863004">
        <ele>187.11</ele>
        <time>2021-05-29T11:55:33Z</time>
      </trkpt>
      <trkpt lat="37.7019546088" lon="-7.7476210054">
        <ele>188.08</ele>
        <time>2021-05-29T11:55:34Z</time>
      </trkpt>
      <trkpt lat="37.7018201631" lon="-7.7475430537">
        <ele>188.08</ele>
        <time>2021-05-29T11:55:35Z</time>
      </trkpt>
      <trkpt lat="37.7006207965" lon="-7.7466580924">
        <ele>190.48</ele>
        <time>2021-05-29T11:55:43Z</time>
      </trkpt>
      <trkpt lat="37.6996759046" lon="-7.7458970994">
        <ele>186.63</ele>
        <time>2021-05-29T11:55:49Z</time>
      </trkpt>
      <trkpt lat="37.6995505113" lon="-7.7457397711">
        <ele>186.63</ele>
        <time>2021-05-29T11:55:50Z</time>
      </trkpt>
      <trkpt lat="37.6994393673" lon="-7.7455546148">
        <ele>186.63</ele>
        <time>2021-05-29T11:55:51Z</time>
      </trkpt>
      <trkpt lat="37.6991537958" lon="-7.7449542191">
        <ele>188.56</ele>
        <time>2021-05-29T11:55:54Z</time>
      </trkpt>
      <trkpt lat="37.6989068650" lon="-7.7444506343">
        <ele>185.19</ele>
        <time>2021-05-29T11:55:57Z</time>
      </trkpt>
      <trkpt lat="37.6988077909" lon="-7.7443200443">
        <ele>183.27</ele>
        <time>2021-05-29T11:55:58Z</time>
      </trkpt>
      <trkpt lat="37.6986934617" lon="-7.7442309447">
        <ele>182.31</ele>
        <time>2021-05-29T11:55:59Z</time>
      </trkpt>
      <trkpt lat="37.6985597704" lon="-7.7441826649">
        <ele>182.31</ele>
        <time>2021-05-29T11:56:00Z</time>
      </trkpt>
      <trkpt lat="37.6984090637" lon="-7.7441556752">
        <ele>181.83</ele>
        <time>2021-05-29T11:56:01Z</time>
      </trkpt>
      <trkpt lat="37.6982406713" lon="-7.7441430185">
        <ele>182.31</ele>
        <time>2021-05-29T11:56:02Z</time>
      </trkpt>
      <trkpt lat="37.6969611738" lon="-7.7439829241">
        <ele>181.35</ele>
        <time>2021-05-29T11:56:09Z</time>
      </trkpt>
      <trkpt lat="37.6966660470" lon="-7.7438380849">
        <ele>180.38</ele>
        <time>2021-05-29T11:56:11Z</time>
      </trkpt>
      <trkpt lat="37.6965527236" lon="-7.7437309641">
        <ele>179.90</ele>
        <time>2021-05-29T11:56:12Z</time>
      </trkpt>
      <trkpt lat="37.6964727603" lon="-7.7435892262">
        <ele>178.94</ele>
        <time>2021-05-29T11:56:13Z</time>
      </trkpt>
      <trkpt lat="37.6964252349" lon="-7.7434181515">
        <ele>178.94</ele>
        <time>2021-05-29T11:56:14Z</time>
      </trkpt>
      <trkpt lat="37.6963992510" lon="-7.7432252001">
        <ele>179.42</ele>
        <time>2021-05-29T11:56:15Z</time>
      </trkpt>
      <trkpt lat="37.6963849179" lon="-7.7430232801">
        <ele>178.94</ele>
        <time>2021-05-29T11:56:16Z</time>
      </trkpt>
      <trkpt lat="37.6963337045" lon="-7.7426238824">
        <ele>177.02</ele>
        <time>2021-05-29T11:56:18Z</time>
      </trkpt>
      <trkpt lat="37.6962662302" lon="-7.7424313501">
        <ele>177.02</ele>
        <time>2021-05-29T11:56:19Z</time>
      </trkpt>
      <trkpt lat="37.6961631328" lon="-7.7422551624">
        <ele>176.06</ele>
        <time>2021-05-29T11:56:20Z</time>
      </trkpt>
      <trkpt lat="37.6960256696" lon="-7.7420985885">
        <ele>177.02</ele>
        <time>2021-05-29T11:56:21Z</time>
      </trkpt>
      <trkpt lat="37.6958649885" lon="-7.7419605386">
        <ele>177.50</ele>
        <time>2021-05-29T11:56:22Z</time>
      </trkpt>
      <trkpt lat="37.6956952550" lon="-7.7418322954">
        <ele>179.90</ele>
        <time>2021-05-29T11:56:23Z</time>
      </trkpt>
      <trkpt lat="37.6955245156" lon="-7.7417018730">
        <ele>179.90</ele>
        <time>2021-05-29T11:56:24Z</time>
      </trkpt>
      <trkpt lat="37.6951042470" lon="-7.7413169760">
        <ele>175.58</ele>
        <time>2021-05-29T11:56:27Z</time>
      </trkpt>
      <trkpt lat="37.6950198412" lon="-7.7411718853">
        <ele>174.62</ele>
        <time>2021-05-29T11:56:28Z</time>
      </trkpt>
      <trkpt lat="37.6949715614" lon="-7.7410064265">
        <ele>174.14</ele>
        <time>2021-05-29T11:56:29Z</time>
      </trkpt>
      <trkpt lat="37.6949589048" lon="-7.7408208512">
        <ele>175.10</ele>
        <time>2021-05-29T11:56:30Z</time>
      </trkpt>
      <trkpt lat="37.6949668676" lon="-7.7406201884">
        <ele>174.62</ele>
        <time>2021-05-29T11:56:31Z</time>
      </trkpt>
      <trkpt lat="37.6949796081" lon="-7.7404189389">
        <ele>173.17</ele>
        <time>2021-05-29T11:56:32Z</time>
      </trkpt>
      <trkpt lat="37.6949804462" lon="-7.7402248979">
        <ele>171.73</ele>
        <time>2021-05-29T11:56:33Z</time>
      </trkpt>
      <trkpt lat="37.6949561387" lon="-7.7400365565">
        <ele>171.25</ele>
        <time>2021-05-29T11:56:34Z</time>
      </trkpt>
      <trkpt lat="37.6948959567" lon="-7.7398684155">
        <ele>170.29</ele>
        <time>2021-05-29T11:56:35Z</time>
      </trkpt>
      <trkpt lat="37.6947988104" lon="-7.7397301141">
        <ele>169.33</ele>
        <time>2021-05-29T11:56:36Z</time>
      </trkpt>
      <trkpt lat="37.6946688071" lon="-7.7396248374">
        <ele>169.33</ele>
        <time>2021-05-29T11:56:37Z</time>
      </trkpt>
      <trkpt lat="37.6945160888" lon="-7.7395402640">
        <ele>169.33</ele>
        <time>2021-05-29T11:56:38Z</time>
      </trkpt>
      <trkpt lat="37.6943452656" lon="-7.7394533437">
        <ele>169.81</ele>
        <time>2021-05-29T11:56:39Z</time>
      </trkpt>
      <trkpt lat="37.6936866157" lon="-7.7391052432">
        <ele>167.41</ele>
        <time>2021-05-29T11:56:43Z</time>
      </trkpt>
      <trkpt lat="37.6935744658" lon="-7.7389853820">
        <ele>165.00</ele>
        <time>2021-05-29T11:56:44Z</time>
      </trkpt>
      <trkpt lat="37.6934882160" lon="-7.7388263773">
        <ele>164.52</ele>
        <time>2021-05-29T11:56:45Z</time>
      </trkpt>
      <trkpt lat="37.6934302133" lon="-7.7386271395">
        <ele>164.52</ele>
        <time>2021-05-29T11:56:46Z</time>
      </trkpt>
      <trkpt lat="37.6933980267" lon="-7.7383971401">
        <ele>164.52</ele>
        <time>2021-05-29T11:56:47Z</time>
      </trkpt>
      <trkpt lat="37.6933832746" lon="-7.7381460182">
        <ele>166.45</ele>
        <time>2021-05-29T11:56:48Z</time>
      </trkpt>
      <trkpt lat="37.6933761500" lon="-7.7378887776">
        <ele>166.93</ele>
        <time>2021-05-29T11:56:49Z</time>
      </trkpt>
      <trkpt lat="37.6933461428" lon="-7.7373955026">
        <ele>163.56</ele>
        <time>2021-05-29T11:56:51Z</time>
      </trkpt>
      <trkpt lat="37.6932950132" lon="-7.7371740527">
        <ele>163.56</ele>
        <time>2021-05-29T11:56:52Z</time>
      </trkpt>
      <trkpt lat="37.6932088472" lon="-7.7369704563">
        <ele>163.56</ele>
        <time>2021-05-29T11:56:53Z</time>
      </trkpt>
      <trkpt lat="37.6930964459" lon="-7.7367667761">
        <ele>164.04</ele>
        <time>2021-05-29T11:56:54Z</time>
      </trkpt>
      <trkpt lat="37.6929687057" lon="-7.7365511097">
        <ele>165.96</ele>
        <time>2021-05-29T11:56:55Z</time>
      </trkpt>
      <trkpt lat="37.6926677115" lon="-7.7361058630">
        <ele>167.89</ele>
        <time>2021-05-29T11:56:57Z</time>
      </trkpt>
      <trkpt lat="37.6924973074" lon="-7.7359019313">
        <ele>167.41</ele>
        <time>2021-05-29T11:56:58Z</time>
      </trkpt>
      <trkpt lat="37.6917714346" lon="-7.7351003699">
        <ele>170.77</ele>
        <time>2021-05-29T11:57:02Z</time>
      </trkpt>
      <trkpt lat="37.6911896467" lon="-7.7344624233">
        <ele>176.06</ele>
        <time>2021-05-29T11:57:05Z</time>
      </trkpt>
      <trkpt lat="37.6909883134" lon="-7.7342429850">
        <ele>175.10</ele>
        <time>2021-05-29T11:57:06Z</time>
      </trkpt>
      <trkpt lat="37.6905765943" lon="-7.7337948885">
        <ele>178.46</ele>
        <time>2021-05-29T11:57:08Z</time>
      </trkpt>
      <trkpt lat="37.6890584640" lon="-7.7321146522">
        <ele>181.35</ele>
        <time>2021-05-29T11:57:16Z</time>
      </trkpt>
      <trkpt lat="37.6883380394" lon="-7.7313213889">
        <ele>184.71</ele>
        <time>2021-05-29T11:57:20Z</time>
      </trkpt>
      <trkpt lat="37.6876420062" lon="-7.7305657603">
        <ele>181.35</ele>
        <time>2021-05-29T11:57:24Z</time>
      </trkpt>
      <trkpt lat="37.6873256732" lon="-7.7302107029">
        <ele>178.46</ele>
        <time>2021-05-29T11:57:26Z</time>
      </trkpt>
      <trkpt lat="37.6871779840" lon="-7.7300164104">
        <ele>177.50</ele>
        <time>2021-05-29T11:57:27Z</time>
      </trkpt>
      <trkpt lat="37.6870380901" lon="-7.7298021689">
        <ele>178.46</ele>
        <time>2021-05-29T11:57:28Z</time>
      </trkpt>
      <trkpt lat="37.6863340102" lon="-7.7286128607">
        <ele>173.66</ele>
        <time>2021-05-29T11:57:34Z</time>
      </trkpt>
      <trkpt lat="37.6861219481" lon="-7.7280982118">
        <ele>171.73</ele>
        <time>2021-05-29T11:57:37Z</time>
      </trkpt>
      <trkpt lat="37.6853217278" lon="-7.7260664385">
        <ele>169.81</ele>
        <time>2021-05-29T11:57:47Z</time>
      </trkpt>
      <trkpt lat="37.6842040848" lon="-7.7231716644">
        <ele>168.85</ele>
        <time>2021-05-29T11:57:59Z</time>
      </trkpt>
      <trkpt lat="37.6836038567" lon="-7.7216441464">
        <ele>166.93</ele>
        <time>2021-05-29T11:58:05Z</time>
      </trkpt>
      <trkpt lat="37.6830931474" lon="-7.7203415148">
        <ele>165.96</ele>
        <time>2021-05-29T11:58:10Z</time>
      </trkpt>
      <trkpt lat="37.6824560389" lon="-7.7187076304">
        <ele>168.37</ele>
        <time>2021-05-29T11:58:16Z</time>
      </trkpt>
      <trkpt lat="37.6820829604" lon="-7.7176741417">
        <ele>163.56</ele>
        <time>2021-05-29T11:58:20Z</time>
      </trkpt>
      <trkpt lat="37.6820021588" lon="-7.7174339164">
        <ele>163.56</ele>
        <time>2021-05-29T11:58:21Z</time>
      </trkpt>
      <trkpt lat="37.6812152658" lon="-7.7151005622">
        <ele>166.45</ele>
        <time>2021-05-29T11:58:30Z</time>
      </trkpt>
      <trkpt lat="37.6808511559" lon="-7.7140275948">
        <ele>163.08</ele>
        <time>2021-05-29T11:58:34Z</time>
      </trkpt>
      <trkpt lat="37.6802435517" lon="-7.7122220490">
        <ele>165.96</ele>
        <time>2021-05-29T11:58:41Z</time>
      </trkpt>
      <trkpt lat="37.6801585592" lon="-7.7119695861">
        <ele>165.96</ele>
        <time>2021-05-29T11:58:42Z</time>
      </trkpt>
      <trkpt lat="37.6798222773" lon="-7.7109691221">
        <ele>168.37</ele>
        <time>2021-05-29T11:58:46Z</time>
      </trkpt>
      <trkpt lat="37.6794162579" lon="-7.7097884472">
        <ele>171.73</ele>
        <time>2021-05-29T11:58:51Z</time>
      </trkpt>
      <trkpt lat="37.6789285988" lon="-7.7083679661">
        <ele>174.14</ele>
        <time>2021-05-29T11:58:57Z</time>
      </trkpt>
      <trkpt lat="37.6786862779" lon="-7.7077112440">
        <ele>172.21</ele>
        <time>2021-05-29T11:59:00Z</time>
      </trkpt>
      <trkpt lat="37.6781490818" lon="-7.7067183238">
        <ele>168.85</ele>
        <time>2021-05-29T11:59:05Z</time>
      </trkpt>
      <trkpt lat="37.6780391950" lon="-7.7065620013">
        <ele>168.37</ele>
        <time>2021-05-29T11:59:06Z</time>
      </trkpt>
      <trkpt lat="37.6779101137" lon="-7.7064325009">
        <ele>165.96</ele>
        <time>2021-05-29T11:59:07Z</time>
      </trkpt>
      <trkpt lat="37.6777615864" lon="-7.7063470893">
        <ele>165.48</ele>
        <time>2021-05-29T11:59:08Z</time>
      </trkpt>
      <trkpt lat="37.6775895059" lon="-7.7063039225">
        <ele>165.96</ele>
        <time>2021-05-29T11:59:09Z</time>
      </trkpt>
      <trkpt lat="37.6773999073" lon="-7.7062884998">
        <ele>167.89</ele>
        <time>2021-05-29T11:59:10Z</time>
      </trkpt>
      <trkpt lat="37.6772018429" lon="-7.7062911820">
        <ele>166.93</ele>
        <time>2021-05-29T11:59:11Z</time>
      </trkpt>
      <trkpt lat="37.6766663231" lon="-7.7062825486">
        <ele>165.00</ele>
        <time>2021-05-29T11:59:14Z</time>
      </trkpt>
      <trkpt lat="37.6765130181" lon="-7.7062430698">
        <ele>164.52</ele>
        <time>2021-05-29T11:59:15Z</time>
      </trkpt>
      <trkpt lat="37.6763790753" lon="-7.7061666269">
        <ele>163.56</ele>
        <time>2021-05-29T11:59:16Z</time>
      </trkpt>
      <trkpt lat="37.6762720384" lon="-7.7060394734">
        <ele>163.56</ele>
        <time>2021-05-29T11:59:17Z</time>
      </trkpt>
      <trkpt lat="37.6761887223" lon="-7.7058689855">
        <ele>164.04</ele>
        <time>2021-05-29T11:59:18Z</time>
      </trkpt>
      <trkpt lat="37.6761214994" lon="-7.7056657244">
        <ele>165.48</ele>
        <time>2021-05-29T11:59:19Z</time>
      </trkpt>
      <trkpt lat="37.6760578807" lon="-7.7054360602">
        <ele>166.93</ele>
        <time>2021-05-29T11:59:20Z</time>
      </trkpt>
      <trkpt lat="37.6759911608" lon="-7.7051999420">
        <ele>166.45</ele>
        <time>2021-05-29T11:59:21Z</time>
      </trkpt>
      <trkpt lat="37.6757115405" lon="-7.7042361908">
        <ele>169.81</ele>
        <time>2021-05-29T11:59:25Z</time>
      </trkpt>
      <trkpt lat="37.6754851453" lon="-7.7036110684">
        <ele>168.37</ele>
        <time>2021-05-29T11:59:28Z</time>
      </trkpt>
      <trkpt lat="37.6753721572" lon="-7.7034298517">
        <ele>168.37</ele>
        <time>2021-05-29T11:59:29Z</time>
      </trkpt>
      <trkpt lat="37.6744204760" lon="-7.7020157408">
        <ele>164.52</ele>
        <time>2021-05-29T11:59:36Z</time>
      </trkpt>
      <trkpt lat="37.6743084937" lon="-7.7017866634">
        <ele>165.00</ele>
        <time>2021-05-29T11:59:37Z</time>
      </trkpt>
      <trkpt lat="37.6738291327" lon="-7.7005888894">
        <ele>160.20</ele>
        <time>2021-05-29T11:59:42Z</time>
      </trkpt>
      <trkpt lat="37.6736316551" lon="-7.7001574729">
        <ele>157.31</ele>
        <time>2021-05-29T11:59:44Z</time>
      </trkpt>
      <trkpt lat="37.6735210139" lon="-7.6999625098">
        <ele>156.35</ele>
        <time>2021-05-29T11:59:45Z</time>
      </trkpt>
      <trkpt lat="37.6733940281" lon="-7.6997969672">
        <ele>154.91</ele>
        <time>2021-05-29T11:59:46Z</time>
      </trkpt>
      <trkpt lat="37.6732451655" lon="-7.6996627729">
        <ele>153.47</ele>
        <time>2021-05-29T11:59:47Z</time>
      </trkpt>
      <trkpt lat="37.6730724145" lon="-7.6995596755">
        <ele>153.95</ele>
        <time>2021-05-29T11:59:48Z</time>
      </trkpt>
      <trkpt lat="37.6728768647" lon="-7.6994702406">
        <ele>154.43</ele>
        <time>2021-05-29T11:59:49Z</time>
      </trkpt>
      <trkpt lat="37.6718396042" lon="-7.6989074796">
        <ele>157.31</ele>
        <time>2021-05-29T11:59:54Z</time>
      </trkpt>
      <trkpt lat="37.6714106183" lon="-7.6986265182">
        <ele>160.68</ele>
        <time>2021-05-29T11:59:56Z</time>
      </trkpt>
      <trkpt lat="37.6707909442" lon="-7.6981587242">
        <ele>162.12</ele>
        <time>2021-05-29T11:59:59Z</time>
      </trkpt>
      <trkpt lat="37.6706234738" lon="-7.6979744900">
        <ele>161.64</ele>
        <time>2021-05-29T12:00:00Z</time>
      </trkpt>
      <trkpt lat="37.6704665646" lon="-7.6977677923">
        <ele>162.12</ele>
        <time>2021-05-29T12:00:01Z</time>
      </trkpt>
      <trkpt lat="37.6692982111" lon="-7.6960210036">
        <ele>161.16</ele>
        <time>2021-05-29T12:00:08Z</time>
      </trkpt>
      <trkpt lat="37.6685042772" lon="-7.6947078109">
        <ele>157.31</ele>
        <time>2021-05-29T12:00:13Z</time>
      </trkpt>
      <trkpt lat="37.6682362240" lon="-7.6942320541">
        <ele>153.95</ele>
        <time>2021-05-29T12:00:15Z</time>
      </trkpt>
      <trkpt lat="37.6680169534" lon="-7.6937906630">
        <ele>151.54</ele>
        <time>2021-05-29T12:00:17Z</time>
      </trkpt>
      <trkpt lat="37.6679306198" lon="-7.6935651898">
        <ele>149.14</ele>
        <time>2021-05-29T12:00:18Z</time>
      </trkpt>
      <trkpt lat="37.6678553503" lon="-7.6933188457">
        <ele>149.62</ele>
        <time>2021-05-29T12:00:19Z</time>
      </trkpt>
      <trkpt lat="37.6677898038" lon="-7.6930496190">
        <ele>149.62</ele>
        <time>2021-05-29T12:00:20Z</time>
      </trkpt>
      <trkpt lat="37.6673945133" lon="-7.6908726711">
        <ele>154.91</ele>
        <time>2021-05-29T12:00:27Z</time>
      </trkpt>
      <trkpt lat="37.6671134681" lon="-7.6893899962">
        <ele>154.43</ele>
        <time>2021-05-29T12:00:32Z</time>
      </trkpt>
      <trkpt lat="37.6670229435" lon="-7.6891482621">
        <ele>153.47</ele>
        <time>2021-05-29T12:00:33Z</time>
      </trkpt>
      <trkpt lat="37.6669028308" lon="-7.6889172569">
        <ele>152.51</ele>
        <time>2021-05-29T12:00:34Z</time>
      </trkpt>
      <trkpt lat="37.6667590812" lon="-7.6886935439">
        <ele>152.99</ele>
        <time>2021-05-29T12:00:35Z</time>
      </trkpt>
      <trkpt lat="37.6666041836" lon="-7.6884643827">
        <ele>153.95</ele>
        <time>2021-05-29T12:00:36Z</time>
      </trkpt>
      <trkpt lat="37.6656384207" lon="-7.6869120542">
        <ele>152.03</ele>
        <time>2021-05-29T12:00:42Z</time>
      </trkpt>
      <trkpt lat="37.6654846128" lon="-7.6866561547">
        <ele>148.66</ele>
        <time>2021-05-29T12:00:43Z</time>
      </trkpt>
      <trkpt lat="37.6651971135" lon="-7.6861791406">
        <ele>143.37</ele>
        <time>2021-05-29T12:00:45Z</time>
      </trkpt>
      <trkpt lat="37.6645753440" lon="-7.6850884873">
        <ele>140.01</ele>
        <time>2021-05-29T12:00:50Z</time>
      </trkpt>
      <trkpt lat="37.6644739229" lon="-7.6848239545">
        <ele>139.53</ele>
        <time>2021-05-29T12:00:51Z</time>
      </trkpt>
      <trkpt lat="37.6643875893" lon="-7.6845406462">
        <ele>139.05</ele>
        <time>2021-05-29T12:00:52Z</time>
      </trkpt>
      <trkpt lat="37.6640474517" lon="-7.6832521800">
        <ele>138.09</ele>
        <time>2021-05-29T12:00:57Z</time>
      </trkpt>
      <trkpt lat="37.6638252474" lon="-7.6824429072">
        <ele>135.68</ele>
        <time>2021-05-29T12:01:01Z</time>
      </trkpt>
      <trkpt lat="37.6637477148" lon="-7.6822657138">
        <ele>136.16</ele>
        <time>2021-05-29T12:01:02Z</time>
      </trkpt>
      <trkpt lat="37.6636397559" lon="-7.6820926275">
        <ele>136.16</ele>
        <time>2021-05-29T12:01:03Z</time>
      </trkpt>
      <trkpt lat="37.6635059807" lon="-7.6819277555">
        <ele>137.61</ele>
        <time>2021-05-29T12:01:04Z</time>
      </trkpt>
      <trkpt lat="37.6633563638" lon="-7.6817612071">
        <ele>138.57</ele>
        <time>2021-05-29T12:01:05Z</time>
      </trkpt>
      <trkpt lat="37.6628532819" lon="-7.6812175568">
        <ele>142.89</ele>
        <time>2021-05-29T12:01:08Z</time>
      </trkpt>
      <trkpt lat="37.6626850571" lon="-7.6810319815">
        <ele>142.41</ele>
        <time>2021-05-29T12:01:09Z</time>
      </trkpt>
      <trkpt lat="37.6621181052" lon="-7.6804661192">
        <ele>143.85</ele>
        <time>2021-05-29T12:01:12Z</time>
      </trkpt>
      <trkpt lat="37.6613035519" lon="-7.6798026077">
        <ele>140.49</ele>
        <time>2021-05-29T12:01:16Z</time>
      </trkpt>
      <trkpt lat="37.6611217484" lon="-7.6796425134">
        <ele>141.45</ele>
        <time>2021-05-29T12:01:17Z</time>
      </trkpt>
      <trkpt lat="37.6609469019" lon="-7.6794548426">
        <ele>142.41</ele>
        <time>2021-05-29T12:01:18Z</time>
      </trkpt>
      <trkpt lat="37.6607790962" lon="-7.6792374160">
        <ele>142.89</ele>
        <time>2021-05-29T12:01:19Z</time>
      </trkpt>
      <trkpt lat="37.6602668781" lon="-7.6785155665">
        <ele>144.82</ele>
        <time>2021-05-29T12:01:22Z</time>
      </trkpt>
      <trkpt lat="37.6597550791" lon="-7.6777844969">
        <ele>141.93</ele>
        <time>2021-05-29T12:01:25Z</time>
      </trkpt>
      <trkpt lat="37.6583530381" lon="-7.6757820603">
        <ele>137.61</ele>
        <time>2021-05-29T12:01:33Z</time>
      </trkpt>
      <trkpt lat="37.6566836983" lon="-7.6733910386">
        <ele>133.28</ele>
        <time>2021-05-29T12:01:42Z</time>
      </trkpt>
      <trkpt lat="37.6563150622" lon="-7.6728664991">
        <ele>129.92</ele>
        <time>2021-05-29T12:01:44Z</time>
      </trkpt>
      <trkpt lat="37.6549334731" lon="-7.6708925609">
        <ele>134.24</ele>
        <time>2021-05-29T12:01:52Z</time>
      </trkpt>
      <trkpt lat="37.6547645777" lon="-7.6706552692">
        <ele>134.24</ele>
        <time>2021-05-29T12:01:53Z</time>
      </trkpt>
      <trkpt lat="37.6541200932" lon="-7.6698603295">
        <ele>132.80</ele>
        <time>2021-05-29T12:01:57Z</time>
      </trkpt>
      <trkpt lat="37.6539436541" lon="-7.6697373670">
        <ele>132.32</ele>
        <time>2021-05-29T12:01:58Z</time>
      </trkpt>
      <trkpt lat="37.6537481882" lon="-7.6696320903">
        <ele>132.80</ele>
        <time>2021-05-29T12:01:59Z</time>
      </trkpt>
      <trkpt lat="37.6530831680" lon="-7.6693898533">
        <ele>132.80</ele>
        <time>2021-05-29T12:02:02Z</time>
      </trkpt>
      <trkpt lat="37.6515911892" lon="-7.6691127475">
        <ele>129.92</ele>
        <time>2021-05-29T12:02:08Z</time>
      </trkpt>
      <trkpt lat="37.6510862634" lon="-7.6690177806">
        <ele>126.55</ele>
        <time>2021-05-29T12:02:10Z</time>
      </trkpt>
      <trkpt lat="37.6508500613" lon="-7.6689759549">
        <ele>126.07</ele>
        <time>2021-05-29T12:02:11Z</time>
      </trkpt>
      <trkpt lat="37.6504115202" lon="-7.6689446904">
        <ele>122.22</ele>
        <time>2021-05-29T12:02:13Z</time>
      </trkpt>
      <trkpt lat="37.6502090972" lon="-7.6689619571">
        <ele>120.78</ele>
        <time>2021-05-29T12:02:14Z</time>
      </trkpt>
      <trkpt lat="37.6496648602" lon="-7.6690345444">
        <ele>116.46</ele>
        <time>2021-05-29T12:02:17Z</time>
      </trkpt>
      <trkpt lat="37.6495020837" lon="-7.6690059621">
        <ele>114.05</ele>
        <time>2021-05-29T12:02:18Z</time>
      </trkpt>
      <trkpt lat="37.6493477728" lon="-7.6689292677">
        <ele>114.05</ele>
        <time>2021-05-29T12:02:19Z</time>
      </trkpt>
      <trkpt lat="37.6491996646" lon="-7.6688109152">
        <ele>114.05</ele>
        <time>2021-05-29T12:02:20Z</time>
      </trkpt>
      <trkpt lat="37.6490515564" lon="-7.6686660759">
        <ele>115.50</ele>
        <time>2021-05-29T12:02:21Z</time>
      </trkpt>
      <trkpt lat="37.6489051245" lon="-7.6684970129">
        <ele>116.94</ele>
        <time>2021-05-29T12:02:22Z</time>
      </trkpt>
      <trkpt lat="37.6487635542" lon="-7.6682946738">
        <ele>116.94</ele>
        <time>2021-05-29T12:02:23Z</time>
      </trkpt>
      <trkpt lat="37.6486234926" lon="-7.6680733077">
        <ele>117.90</ele>
        <time>2021-05-29T12:02:24Z</time>
      </trkpt>
      <trkpt lat="37.6482133660" lon="-7.6674546394">
        <ele>114.05</ele>
        <time>2021-05-29T12:02:27Z</time>
      </trkpt>
      <trkpt lat="37.6479086839" lon="-7.6671128254">
        <ele>110.69</ele>
        <time>2021-05-29T12:02:29Z</time>
      </trkpt>
      <trkpt lat="37.6475248765" lon="-7.6666350570">
        <ele>105.40</ele>
        <time>2021-05-29T12:02:32Z</time>
      </trkpt>
      <trkpt lat="37.6474285685" lon="-7.6664268505">
        <ele>105.40</ele>
        <time>2021-05-29T12:02:33Z</time>
      </trkpt>
      <trkpt lat="37.6473474316" lon="-7.6661960967">
        <ele>105.88</ele>
        <time>2021-05-29T12:02:34Z</time>
      </trkpt>
      <trkpt lat="37.6472836453" lon="-7.6659515966">
        <ele>105.40</ele>
        <time>2021-05-29T12:02:35Z</time>
      </trkpt>
      <trkpt lat="37.6472359523" lon="-7.6656891592">
        <ele>104.44</ele>
        <time>2021-05-29T12:02:36Z</time>
      </trkpt>
      <trkpt lat="37.6472070348" lon="-7.6654190943">
        <ele>104.44</ele>
        <time>2021-05-29T12:02:37Z</time>
      </trkpt>
      <trkpt lat="37.6471920311" lon="-7.6651465148">
        <ele>105.40</ele>
        <time>2021-05-29T12:02:38Z</time>
      </trkpt>
      <trkpt lat="37.6471621078" lon="-7.6643352304">
        <ele>99.63</ele>
        <time>2021-05-29T12:02:41Z</time>
      </trkpt>
      <trkpt lat="37.6470935438" lon="-7.6638779137">
        <ele>96.27</ele>
        <time>2021-05-29T12:02:43Z</time>
      </trkpt>
      <trkpt lat="37.6470568310" lon="-7.6636767481">
        <ele>93.39</ele>
        <time>2021-05-29T12:02:44Z</time>
      </trkpt>
      <trkpt lat="37.6469583437" lon="-7.6631355286">
        <ele>90.02</ele>
        <time>2021-05-29T12:02:47Z</time>
      </trkpt>
      <trkpt lat="37.6469065435" lon="-7.6628234703">
        <ele>87.62</ele>
        <time>2021-05-29T12:02:49Z</time>
      </trkpt>
      <trkpt lat="37.6468161866" lon="-7.6620566100">
        <ele>84.25</ele>
        <time>2021-05-29T12:02:55Z</time>
      </trkpt>
      <trkpt lat="37.6467845030" lon="-7.6619489864">
        <ele>83.29</ele>
        <time>2021-05-29T12:02:56Z</time>
      </trkpt>
      <trkpt lat="37.6467443537" lon="-7.6618449669">
        <ele>83.77</ele>
        <time>2021-05-29T12:02:57Z</time>
      </trkpt>
      <trkpt lat="37.6466926374" lon="-7.6617461443">
        <ele>84.25</ele>
        <time>2021-05-29T12:02:58Z</time>
      </trkpt>
      <trkpt lat="37.6466293540" lon="-7.6616558712">
        <ele>83.77</ele>
        <time>2021-05-29T12:02:59Z</time>
      </trkpt>
      <trkpt lat="37.6465575211" lon="-7.6615736447">
        <ele>84.25</ele>
        <time>2021-05-29T12:03:00Z</time>
      </trkpt>
      <trkpt lat="37.6464780606" lon="-7.6614927594">
        <ele>83.77</ele>
        <time>2021-05-29T12:03:01Z</time>
      </trkpt>
      <trkpt lat="37.6463919785" lon="-7.6614128798">
        <ele>83.29</ele>
        <time>2021-05-29T12:03:02Z</time>
      </trkpt>
      <trkpt lat="37.6454310771" lon="-7.6607709099">
        <ele>83.29</ele>
        <time>2021-05-29T12:03:11Z</time>
      </trkpt>
      <trkpt lat="37.6450279914" lon="-7.6603955682">
        <ele>82.33</ele>
        <time>2021-05-29T12:03:15Z</time>
      </trkpt>
      <trkpt lat="37.6449553203" lon="-7.6602798142">
        <ele>81.85</ele>
        <time>2021-05-29T12:03:16Z</time>
      </trkpt>
      <trkpt lat="37.6448901091" lon="-7.6601602882">
        <ele>82.33</ele>
        <time>2021-05-29T12:03:17Z</time>
      </trkpt>
      <trkpt lat="37.6446094830" lon="-7.6596049033">
        <ele>77.52</ele>
        <time>2021-05-29T12:03:22Z</time>
      </trkpt>
      <trkpt lat="37.6444431022" lon="-7.6592977904">
        <ele>76.08</ele>
        <time>2021-05-29T12:03:25Z</time>
      </trkpt>
      <trkpt lat="37.6443703473" lon="-7.6592091937">
        <ele>74.64</ele>
        <time>2021-05-29T12:03:26Z</time>
      </trkpt>
      <trkpt lat="37.6442804933" lon="-7.6591389533">
        <ele>74.64</ele>
        <time>2021-05-29T12:03:27Z</time>
      </trkpt>
      <trkpt lat="37.6441767253" lon="-7.6590877399">
        <ele>74.64</ele>
        <time>2021-05-29T12:03:28Z</time>
      </trkpt>
      <trkpt lat="37.6440649107" lon="-7.6590476744">
        <ele>75.12</ele>
        <time>2021-05-29T12:03:29Z</time>
      </trkpt>
      <trkpt lat="37.6439541019" lon="-7.6590131409">
        <ele>74.64</ele>
        <time>2021-05-29T12:03:30Z</time>
      </trkpt>
      <trkpt lat="37.6435854658" lon="-7.6588823833">
        <ele>71.27</ele>
        <time>2021-05-29T12:03:34Z</time>
      </trkpt>
      <trkpt lat="37.6430123113" lon="-7.6586956345">
        <ele>67.43</ele>
        <time>2021-05-29T12:03:41Z</time>
      </trkpt>
      <trkpt lat="37.6425602753" lon="-7.6585448440">
        <ele>65.03</ele>
        <time>2021-05-29T12:03:46Z</time>
      </trkpt>
      <trkpt lat="37.6424793899" lon="-7.6585302595">
        <ele>64.07</ele>
        <time>2021-05-29T12:03:47Z</time>
      </trkpt>
      <trkpt lat="37.6424006000" lon="-7.6585294213">
        <ele>63.58</ele>
        <time>2021-05-29T12:03:48Z</time>
      </trkpt>
      <trkpt lat="37.6423303597" lon="-7.6585440058">
        <ele>62.62</ele>
        <time>2021-05-29T12:03:49Z</time>
      </trkpt>
      <trkpt lat="37.6422752067" lon="-7.6585782878">
        <ele>62.14</ele>
        <time>2021-05-29T12:03:50Z</time>
      </trkpt>
      <trkpt lat="37.6422315370" lon="-7.6586306747">
        <ele>62.14</ele>
        <time>2021-05-29T12:03:51Z</time>
      </trkpt>
      <trkpt lat="37.6421959139" lon="-7.6586935390">
        <ele>62.14</ele>
        <time>2021-05-29T12:03:52Z</time>
      </trkpt>
      <trkpt lat="37.6421571057" lon="-7.6587661263">
        <ele>61.18</ele>
        <time>2021-05-29T12:03:53Z</time>
      </trkpt>
      <trkpt lat="37.6421024557" lon="-7.6588363666">
        <ele>61.18</ele>
        <time>2021-05-29T12:03:54Z</time>
      </trkpt>
      <trkpt lat="37.6420285273" lon="-7.6588874124">
        <ele>61.18</ele>
        <time>2021-05-29T12:03:55Z</time>
      </trkpt>
      <trkpt lat="37.6419478934" lon="-7.6589084510">
        <ele>60.70</ele>
        <time>2021-05-29T12:03:56Z</time>
      </trkpt>
      <trkpt lat="37.6418723725" lon="-7.6589036733">
        <ele>59.74</ele>
        <time>2021-05-29T12:03:57Z</time>
      </trkpt>
      <trkpt lat="37.6417961810" lon="-7.6588790305">
        <ele>59.74</ele>
        <time>2021-05-29T12:03:58Z</time>
      </trkpt>
      <trkpt lat="37.6417211629" lon="-7.6588563994">
        <ele>59.26</ele>
        <time>2021-05-29T12:03:59Z</time>
      </trkpt>
      <trkpt lat="37.6416569576" lon="-7.6588441618">
        <ele>58.78</ele>
        <time>2021-05-29T12:04:00Z</time>
      </trkpt>
      <trkpt lat="37.6415948477" lon="-7.6588429045">
        <ele>58.30</ele>
        <time>2021-05-29T12:04:01Z</time>
      </trkpt>
      <trkpt lat="37.6415356714" lon="-7.6588528790">
        <ele>57.82</ele>
        <time>2021-05-29T12:04:02Z</time>
      </trkpt>
      <trkpt lat="37.6414842065" lon="-7.6588694751">
        <ele>57.34</ele>
        <time>2021-05-29T12:04:03Z</time>
      </trkpt>
      <trkpt lat="37.6414349210" lon="-7.6588890050">
        <ele>56.86</ele>
        <time>2021-05-29T12:04:04Z</time>
      </trkpt>
      <trkpt lat="37.6413803548" lon="-7.6589063555">
        <ele>57.34</ele>
        <time>2021-05-29T12:04:05Z</time>
      </trkpt>
      <trkpt lat="37.6413262077" lon="-7.6589259692">
        <ele>56.86</ele>
        <time>2021-05-29T12:04:06Z</time>
      </trkpt>
      <trkpt lat="37.6412775926" lon="-7.6589488517">
        <ele>56.37</ele>
        <time>2021-05-29T12:04:07Z</time>
      </trkpt>
      <trkpt lat="37.6407769416" lon="-7.6592104509">
        <ele>55.41</ele>
        <time>2021-05-29T12:04:16Z</time>
      </trkpt>
      <trkpt lat="37.6407237165" lon="-7.6592599042">
        <ele>54.93</ele>
        <time>2021-05-29T12:04:17Z</time>
      </trkpt>
      <trkpt lat="37.6406756043" lon="-7.6593204215">
        <ele>54.93</ele>
        <time>2021-05-29T12:04:18Z</time>
      </trkpt>
      <trkpt lat="37.6406284142" lon="-7.6593891531">
        <ele>54.93</ele>
        <time>2021-05-29T12:04:19Z</time>
      </trkpt>
      <trkpt lat="37.6405818947" lon="-7.6594576333">
        <ele>53.97</ele>
        <time>2021-05-29T12:04:20Z</time>
      </trkpt>
      <trkpt lat="37.6401773840" lon="-7.6600408461">
        <ele>51.09</ele>
        <time>2021-05-29T12:04:30Z</time>
      </trkpt>
      <trkpt lat="37.6397977676" lon="-7.6607188582">
        <ele>50.61</ele>
        <time>2021-05-29T12:04:40Z</time>
      </trkpt>
      <trkpt lat="37.6396199875" lon="-7.6611621771">
        <ele>53.97</ele>
        <time>2021-05-29T12:04:45Z</time>
      </trkpt>
      <trkpt lat="37.6394678559" lon="-7.6615117025">
        <ele>55.89</ele>
        <time>2021-05-29T12:04:49Z</time>
      </trkpt>
      <trkpt lat="37.6392510161" lon="-7.6620253455">
        <ele>59.26</ele>
        <time>2021-05-29T12:04:55Z</time>
      </trkpt>
      <trkpt lat="37.6391636766" lon="-7.6622702647">
        <ele>59.74</ele>
        <time>2021-05-29T12:04:58Z</time>
      </trkpt>
      <trkpt lat="37.6391481701" lon="-7.6623451151">
        <ele>59.26</ele>
        <time>2021-05-29T12:04:59Z</time>
      </trkpt>
      <trkpt lat="37.6391397882" lon="-7.6624078117">
        <ele>59.74</ele>
        <time>2021-05-29T12:05:00Z</time>
      </trkpt>
      <trkpt lat="37.6391409617" lon="-7.6624597795">
        <ele>59.74</ele>
        <time>2021-05-29T12:05:01Z</time>
      </trkpt>
      <trkpt lat="37.6391455717" lon="-7.6625073049">
        <ele>59.26</ele>
        <time>2021-05-29T12:05:02Z</time>
      </trkpt>
      <trkpt lat="37.6391468290" lon="-7.6625545789">
        <ele>58.78</ele>
        <time>2021-05-29T12:05:03Z</time>
      </trkpt>
      <trkpt lat="37.6391373575" lon="-7.6626052894">
        <ele>59.26</ele>
        <time>2021-05-29T12:05:04Z</time>
      </trkpt>
      <trkpt lat="37.6391143072" lon="-7.6626525633">
        <ele>59.26</ele>
        <time>2021-05-29T12:05:05Z</time>
      </trkpt>
      <trkpt lat="37.6390839648" lon="-7.6626915392">
        <ele>59.26</ele>
        <time>2021-05-29T12:05:06Z</time>
      </trkpt>
      <trkpt lat="37.6389635168" lon="-7.6628655475">
        <ele>58.30</ele>
        <time>2021-05-29T12:05:15Z</time>
      </trkpt>
      <trkpt lat="37.6389408018" lon="-7.6628851611">
        <ele>58.78</ele>
        <time>2021-05-29T12:05:29Z</time>
      </trkpt>
      <trkpt lat="37.6389226131" lon="-7.6628902741">
        <ele>58.78</ele>
        <time>2021-05-29T12:05:30Z</time>
      </trkpt>
      <trkpt lat="37.6389080286" lon="-7.6628889330">
        <ele>58.78</ele>
        <time>2021-05-29T12:05:31Z</time>
      </trkpt>
      <trkpt lat="37.6388827153" lon="-7.6628854126">
        <ele>58.78</ele>
        <time>2021-05-29T12:05:34Z</time>
      </trkpt>
      <trkpt lat="37.6388444100" lon="-7.6629144140">
        <ele>58.78</ele>
        <time>2021-05-29T12:05:47Z</time>
      </trkpt>
      <trkpt lat="37.6388633531" lon="-7.6628980692">
        <ele>59.26</ele>
        <time>2021-05-29T12:06:06Z</time>
      </trkpt>
      <trkpt lat="37.6388525404" lon="-7.6629105583">
        <ele>59.74</ele>
        <time>2021-05-29T12:06:24Z</time>
      </trkpt>
      <trkpt lat="37.6388583239" lon="-7.6628973987">
        <ele>59.26</ele>
        <time>2021-05-29T12:06:44Z</time>
      </trkpt>
      <trkpt lat="37.6388777699" lon="-7.6628932077">
        <ele>59.26</ele>
        <time>2021-05-29T12:07:09Z</time>
      </trkpt>
      <trkpt lat="37.6388641074" lon="-7.6628891844">
        <ele>59.26</ele>
        <time>2021-05-29T12:07:41Z</time>
      </trkpt>
      <trkpt lat="37.6388507802" lon="-7.6628900226">
        <ele>59.74</ele>
        <time>2021-05-29T12:08:13Z</time>
      </trkpt>
      <trkpt lat="37.6388185937" lon="-7.6628780365">
        <ele>59.74</ele>
        <time>2021-05-29T12:08:41Z</time>
      </trkpt>
      <trkpt lat="37.6387964655" lon="-7.6628730912">
        <ele>59.26</ele>
        <time>2021-05-29T12:09:13Z</time>
      </trkpt>
      <trkpt lat="37.6387956273" lon="-7.6628727559">
        <ele>59.74</ele>
        <time>2021-05-29T12:09:17Z</time>
      </trkpt>
      <trkpt lat="37.6389206015" lon="-7.6630956307">
        <ele>69.35</ele>
        <time>2021-05-29T14:15:36Z</time>
      </trkpt>
      <trkpt lat="37.6388397999" lon="-7.6629493665">
        <ele>71.27</ele>
        <time>2021-05-29T14:16:05Z</time>
      </trkpt>
      <trkpt lat="37.6388553903" lon="-7.6629009191">
        <ele>70.79</ele>
        <time>2021-05-29T14:16:30Z</time>
      </trkpt>
      <trkpt lat="37.6388901751" lon="-7.6628311817">
        <ele>71.27</ele>
        <time>2021-05-29T14:16:58Z</time>
      </trkpt>
      <trkpt lat="37.6388967969" lon="-7.6628652960">
        <ele>71.27</ele>
        <time>2021-05-29T14:17:31Z</time>
      </trkpt>
      <trkpt lat="37.6388762612" lon="-7.6628447603">
        <ele>71.27</ele>
        <time>2021-05-29T14:18:03Z</time>
      </trkpt>
      <trkpt lat="37.6388722379" lon="-7.6628367975">
        <ele>71.76</ele>
        <time>2021-05-29T14:18:29Z</time>
      </trkpt>
      <trkpt lat="37.6388793625" lon="-7.6628339477">
        <ele>70.79</ele>
        <time>2021-05-29T14:18:43Z</time>
      </trkpt>
      <trkpt lat="37.6389179192" lon="-7.6628513820">
        <ele>71.27</ele>
        <time>2021-05-29T14:18:47Z</time>
      </trkpt>
      <trkpt lat="37.6390105393" lon="-7.6628750190">
        <ele>71.76</ele>
        <time>2021-05-29T14:18:50Z</time>
      </trkpt>
      <trkpt lat="37.6390713081" lon="-7.6629053615">
        <ele>72.72</ele>
        <time>2021-05-29T14:18:51Z</time>
      </trkpt>
      <trkpt lat="37.6391335856" lon="-7.6629476063">
        <ele>73.20</ele>
        <time>2021-05-29T14:18:52Z</time>
      </trkpt>
      <trkpt lat="37.6391915046" lon="-7.6629936229">
        <ele>74.16</ele>
        <time>2021-05-29T14:18:53Z</time>
      </trkpt>
      <trkpt lat="37.6392448135" lon="-7.6630395558">
        <ele>73.68</ele>
        <time>2021-05-29T14:18:54Z</time>
      </trkpt>
      <trkpt lat="37.6393359248" lon="-7.6631319243">
        <ele>74.16</ele>
        <time>2021-05-29T14:18:56Z</time>
      </trkpt>
      <trkpt lat="37.6394542772" lon="-7.6632644422">
        <ele>73.68</ele>
        <time>2021-05-29T14:19:04Z</time>
      </trkpt>
      <trkpt lat="37.6395028923" lon="-7.6633348502">
        <ele>73.20</ele>
        <time>2021-05-29T14:19:10Z</time>
      </trkpt>
      <trkpt lat="37.6395339053" lon="-7.6633977983">
        <ele>72.72</ele>
        <time>2021-05-29T14:19:11Z</time>
      </trkpt>
      <trkpt lat="37.6395499147" lon="-7.6634793542">
        <ele>72.72</ele>
        <time>2021-05-29T14:19:12Z</time>
      </trkpt>
      <trkpt lat="37.6395422034" lon="-7.6635621674">
        <ele>71.76</ele>
        <time>2021-05-29T14:19:13Z</time>
      </trkpt>
      <trkpt lat="37.6395219192" lon="-7.6636412088">
        <ele>71.27</ele>
        <time>2021-05-29T14:19:14Z</time>
      </trkpt>
      <trkpt lat="37.6395054907" lon="-7.6637163945">
        <ele>70.31</ele>
        <time>2021-05-29T14:19:15Z</time>
      </trkpt>
      <trkpt lat="37.6395040657" lon="-7.6637895685">
        <ele>70.31</ele>
        <time>2021-05-29T14:19:16Z</time>
      </trkpt>
      <trkpt lat="37.6395152975" lon="-7.6638513431">
        <ele>69.35</ele>
        <time>2021-05-29T14:19:17Z</time>
      </trkpt>
      <trkpt lat="37.6395478193" lon="-7.6638920791">
        <ele>69.35</ele>
        <time>2021-05-29T14:19:18Z</time>
      </trkpt>
      <trkpt lat="37.6395914052" lon="-7.6639114413">
        <ele>68.39</ele>
        <time>2021-05-29T14:19:19Z</time>
      </trkpt>
      <trkpt lat="37.6396414451" lon="-7.6639033109">
        <ele>68.87</ele>
        <time>2021-05-29T14:19:20Z</time>
      </trkpt>
      <trkpt lat="37.6396988612" lon="-7.6638769917">
        <ele>68.87</ele>
        <time>2021-05-29T14:19:21Z</time>
      </trkpt>
      <trkpt lat="37.6397598814" lon="-7.6638353337">
        <ele>68.87</ele>
        <time>2021-05-29T14:19:22Z</time>
      </trkpt>
      <trkpt lat="37.6398216560" lon="-7.6637853775">
        <ele>68.87</ele>
        <time>2021-05-29T14:19:23Z</time>
      </trkpt>
      <trkpt lat="37.6398794074" lon="-7.6637298055">
        <ele>68.87</ele>
        <time>2021-05-29T14:19:24Z</time>
      </trkpt>
      <trkpt lat="37.6399410143" lon="-7.6636707131">
        <ele>69.35</ele>
        <time>2021-05-29T14:19:25Z</time>
      </trkpt>
      <trkpt lat="37.6400109194" lon="-7.6636140514">
        <ele>68.39</ele>
        <time>2021-05-29T14:19:26Z</time>
      </trkpt>
      <trkpt lat="37.6400888711" lon="-7.6635644305">
        <ele>68.87</ele>
        <time>2021-05-29T14:19:27Z</time>
      </trkpt>
      <trkpt lat="37.6401711814" lon="-7.6635188330">
        <ele>68.87</ele>
        <time>2021-05-29T14:19:28Z</time>
      </trkpt>
      <trkpt lat="37.6404067129" lon="-7.6634244528">
        <ele>69.83</ele>
        <time>2021-05-29T14:19:31Z</time>
      </trkpt>
      <trkpt lat="37.6404806413" lon="-7.6634126343">
        <ele>68.87</ele>
        <time>2021-05-29T14:19:32Z</time>
      </trkpt>
      <trkpt lat="37.6405565813" lon="-7.6634070184">
        <ele>68.87</ele>
        <time>2021-05-29T14:19:33Z</time>
      </trkpt>
      <trkpt lat="37.6409633551" lon="-7.6634011511">
        <ele>71.76</ele>
        <time>2021-05-29T14:19:38Z</time>
      </trkpt>
      <trkpt lat="37.6416041516" lon="-7.6633931883">
        <ele>75.60</ele>
        <time>2021-05-29T14:19:46Z</time>
      </trkpt>
      <trkpt lat="37.6419805828" lon="-7.6633827947">
        <ele>77.52</ele>
        <time>2021-05-29T14:19:50Z</time>
      </trkpt>
      <trkpt lat="37.6423374005" lon="-7.6632962935">
        <ele>80.89</ele>
        <time>2021-05-29T14:19:54Z</time>
      </trkpt>
      <trkpt lat="37.6425058767" lon="-7.6632102951">
        <ele>81.85</ele>
        <time>2021-05-29T14:19:56Z</time>
      </trkpt>
      <trkpt lat="37.6425808948" lon="-7.6631508674">
        <ele>82.81</ele>
        <time>2021-05-29T14:19:57Z</time>
      </trkpt>
      <trkpt lat="37.6426471118" lon="-7.6630829740">
        <ele>83.29</ele>
        <time>2021-05-29T14:19:58Z</time>
      </trkpt>
      <trkpt lat="37.6427067071" lon="-7.6630088780">
        <ele>84.25</ele>
        <time>2021-05-29T14:19:59Z</time>
      </trkpt>
      <trkpt lat="37.6427614409" lon="-7.6629310101">
        <ele>84.25</ele>
        <time>2021-05-29T14:20:00Z</time>
      </trkpt>
      <trkpt lat="37.6428111456" lon="-7.6628480293">
        <ele>85.21</ele>
        <time>2021-05-29T14:20:01Z</time>
      </trkpt>
      <trkpt lat="37.6428566594" lon="-7.6627647132">
        <ele>85.69</ele>
        <time>2021-05-29T14:20:02Z</time>
      </trkpt>
      <trkpt lat="37.6429935358" lon="-7.6625249069">
        <ele>87.14</ele>
        <time>2021-05-29T14:20:05Z</time>
      </trkpt>
      <trkpt lat="37.6431861520" lon="-7.6622262597">
        <ele>87.14</ele>
        <time>2021-05-29T14:20:10Z</time>
      </trkpt>
      <trkpt lat="37.6432212722" lon="-7.6621409319">
        <ele>87.14</ele>
        <time>2021-05-29T14:20:11Z</time>
      </trkpt>
      <trkpt lat="37.6432533748" lon="-7.6620404329">
        <ele>87.14</ele>
        <time>2021-05-29T14:20:12Z</time>
      </trkpt>
      <trkpt lat="37.6432781015" lon="-7.6619223319">
        <ele>86.18</ele>
        <time>2021-05-29T14:20:13Z</time>
      </trkpt>
      <trkpt lat="37.6432959549" lon="-7.6617967710">
        <ele>84.73</ele>
        <time>2021-05-29T14:20:14Z</time>
      </trkpt>
      <trkpt lat="37.6433097851" lon="-7.6616743952">
        <ele>83.77</ele>
        <time>2021-05-29T14:20:15Z</time>
      </trkpt>
      <trkpt lat="37.6433648542" lon="-7.6613368560">
        <ele>80.89</ele>
        <time>2021-05-29T14:20:18Z</time>
      </trkpt>
      <trkpt lat="37.6434094459" lon="-7.6612351835">
        <ele>80.89</ele>
        <time>2021-05-29T14:20:19Z</time>
      </trkpt>
      <trkpt lat="37.6434686221" lon="-7.6611342654">
        <ele>80.41</ele>
        <time>2021-05-29T14:20:20Z</time>
      </trkpt>
      <trkpt lat="37.6437005494" lon="-7.6607602648">
        <ele>77.04</ele>
        <time>2021-05-29T14:20:24Z</time>
      </trkpt>
      <trkpt lat="37.6437779143" lon="-7.6606114022">
        <ele>74.64</ele>
        <time>2021-05-29T14:20:26Z</time>
      </trkpt>
      <trkpt lat="37.6437930018" lon="-7.6605518907">
        <ele>73.68</ele>
        <time>2021-05-29T14:20:27Z</time>
      </trkpt>
      <trkpt lat="37.6437863801" lon="-7.6604945585">
        <ele>73.20</ele>
        <time>2021-05-29T14:20:28Z</time>
      </trkpt>
      <trkpt lat="37.6437584683" lon="-7.6604403276">
        <ele>72.72</ele>
        <time>2021-05-29T14:20:29Z</time>
      </trkpt>
      <trkpt lat="37.6437097695" lon="-7.6603850909">
        <ele>72.72</ele>
        <time>2021-05-29T14:20:30Z</time>
      </trkpt>
      <trkpt lat="37.6436470728" lon="-7.6603275910">
        <ele>72.72</ele>
        <time>2021-05-29T14:20:31Z</time>
      </trkpt>
      <trkpt lat="37.6427316852" lon="-7.6594334096">
        <ele>72.72</ele>
        <time>2021-05-29T14:20:43Z</time>
      </trkpt>
      <trkpt lat="37.6424213033" lon="-7.6591309905">
        <ele>72.72</ele>
        <time>2021-05-29T14:20:47Z</time>
      </trkpt>
      <trkpt lat="37.6422400028" lon="-7.6589708123">
        <ele>71.76</ele>
        <time>2021-05-29T14:20:50Z</time>
      </trkpt>
      <trkpt lat="37.6421694271" lon="-7.6589335967">
        <ele>71.76</ele>
        <time>2021-05-29T14:20:51Z</time>
      </trkpt>
      <trkpt lat="37.6420945767" lon="-7.6589080319">
        <ele>72.24</ele>
        <time>2021-05-29T14:20:52Z</time>
      </trkpt>
      <trkpt lat="37.6420109253" lon="-7.6588927768">
        <ele>71.76</ele>
        <time>2021-05-29T14:20:53Z</time>
      </trkpt>
      <trkpt lat="37.6419249270" lon="-7.6588765997">
        <ele>71.76</ele>
        <time>2021-05-29T14:20:54Z</time>
      </trkpt>
      <trkpt lat="37.6418455504" lon="-7.6588403899">
        <ele>71.76</ele>
        <time>2021-05-29T14:20:55Z</time>
      </trkpt>
      <trkpt lat="37.6417775732" lon="-7.6587833930">
        <ele>71.27</ele>
        <time>2021-05-29T14:20:56Z</time>
      </trkpt>
      <trkpt lat="37.6417234261" lon="-7.6587075368">
        <ele>70.31</ele>
        <time>2021-05-29T14:20:57Z</time>
      </trkpt>
      <trkpt lat="37.6416881382" lon="-7.6586126536">
        <ele>70.31</ele>
        <time>2021-05-29T14:20:58Z</time>
      </trkpt>
      <trkpt lat="37.6416747272" lon="-7.6585072931">
        <ele>70.79</ele>
        <time>2021-05-29T14:20:59Z</time>
      </trkpt>
      <trkpt lat="37.6416787505" lon="-7.6583965681">
        <ele>70.79</ele>
        <time>2021-05-29T14:21:00Z</time>
      </trkpt>
      <trkpt lat="37.6416875515" lon="-7.6582858432">
        <ele>70.79</ele>
        <time>2021-05-29T14:21:01Z</time>
      </trkpt>
      <trkpt lat="37.6416866295" lon="-7.6581738610">
        <ele>70.31</ele>
        <time>2021-05-29T14:21:02Z</time>
      </trkpt>
      <trkpt lat="37.6416680217" lon="-7.6580538321">
        <ele>70.79</ele>
        <time>2021-05-29T14:21:03Z</time>
      </trkpt>
      <trkpt lat="37.6416266151" lon="-7.6579289418">
        <ele>70.31</ele>
        <time>2021-05-29T14:21:04Z</time>
      </trkpt>
      <trkpt lat="37.6415587217" lon="-7.6578098349">
        <ele>69.83</ele>
        <time>2021-05-29T14:21:05Z</time>
      </trkpt>
      <trkpt lat="37.6414692868" lon="-7.6577011216">
        <ele>69.83</ele>
        <time>2021-05-29T14:21:06Z</time>
      </trkpt>
      <trkpt lat="37.6413647644" lon="-7.6575975213">
        <ele>69.83</ele>
        <time>2021-05-29T14:21:07Z</time>
      </trkpt>
      <trkpt lat="37.6412521955" lon="-7.6574912388">
        <ele>68.87</ele>
        <time>2021-05-29T14:21:08Z</time>
      </trkpt>
      <trkpt lat="37.6410247106" lon="-7.6572629996">
        <ele>67.91</ele>
        <time>2021-05-29T14:21:10Z</time>
      </trkpt>
      <trkpt lat="37.6395886391" lon="-7.6558400877">
        <ele>69.35</ele>
        <time>2021-05-29T14:21:23Z</time>
      </trkpt>
      <trkpt lat="37.6394032314" lon="-7.6556365751">
        <ele>70.79</ele>
        <time>2021-05-29T14:21:25Z</time>
      </trkpt>
      <trkpt lat="37.6393320691" lon="-7.6555222459">
        <ele>70.79</ele>
        <time>2021-05-29T14:21:26Z</time>
      </trkpt>
      <trkpt lat="37.6392766647" lon="-7.6554032229">
        <ele>70.79</ele>
        <time>2021-05-29T14:21:27Z</time>
      </trkpt>
      <trkpt lat="37.6392340008" lon="-7.6552813500">
        <ele>71.76</ele>
        <time>2021-05-29T14:21:28Z</time>
      </trkpt>
      <trkpt lat="37.6392055023" lon="-7.6551527716">
        <ele>72.24</ele>
        <time>2021-05-29T14:21:29Z</time>
      </trkpt>
      <trkpt lat="37.6391925104" lon="-7.6550164819">
        <ele>73.20</ele>
        <time>2021-05-29T14:21:30Z</time>
      </trkpt>
      <trkpt lat="37.6391946897" lon="-7.6548741572">
        <ele>73.68</ele>
        <time>2021-05-29T14:21:31Z</time>
      </trkpt>
      <trkpt lat="37.6392143033" lon="-7.6547069382">
        <ele>74.64</ele>
        <time>2021-05-29T14:21:32Z</time>
      </trkpt>
      <trkpt lat="37.6392415445" lon="-7.6545827184">
        <ele>75.12</ele>
        <time>2021-05-29T14:21:33Z</time>
      </trkpt>
      <trkpt lat="37.6392952725" lon="-7.6544411480">
        <ele>76.08</ele>
        <time>2021-05-29T14:21:34Z</time>
      </trkpt>
      <trkpt lat="37.6393745653" lon="-7.6543045230">
        <ele>77.52</ele>
        <time>2021-05-29T14:21:35Z</time>
      </trkpt>
      <trkpt lat="37.6394770760" lon="-7.6541750226">
        <ele>78.97</ele>
        <time>2021-05-29T14:21:36Z</time>
      </trkpt>
      <trkpt lat="37.6395980269" lon="-7.6540575083">
        <ele>79.45</ele>
        <time>2021-05-29T14:21:37Z</time>
      </trkpt>
      <trkpt lat="37.6397328917" lon="-7.6539591886">
        <ele>80.41</ele>
        <time>2021-05-29T14:21:38Z</time>
      </trkpt>
      <trkpt lat="37.6398767252" lon="-7.6538813207">
        <ele>80.89</ele>
        <time>2021-05-29T14:21:39Z</time>
      </trkpt>
      <trkpt lat="37.6400258392" lon="-7.6538153552">
        <ele>82.81</ele>
        <time>2021-05-29T14:21:40Z</time>
      </trkpt>
      <trkpt lat="37.6403996721" lon="-7.6536001079">
        <ele>82.33</ele>
        <time>2021-05-29T14:21:43Z</time>
      </trkpt>
      <trkpt lat="37.6404813956" lon="-7.6535063144">
        <ele>81.37</ele>
        <time>2021-05-29T14:21:44Z</time>
      </trkpt>
      <trkpt lat="37.6405377220" lon="-7.6533975173">
        <ele>81.85</ele>
        <time>2021-05-29T14:21:45Z</time>
      </trkpt>
      <trkpt lat="37.6405659690" lon="-7.6532722078">
        <ele>82.33</ele>
        <time>2021-05-29T14:21:46Z</time>
      </trkpt>
      <trkpt lat="37.6405670587" lon="-7.6531344932">
        <ele>84.25</ele>
        <time>2021-05-29T14:21:47Z</time>
      </trkpt>
      <trkpt lat="37.6405414101" lon="-7.6529920008">
        <ele>85.21</ele>
        <time>2021-05-29T14:21:48Z</time>
      </trkpt>
      <trkpt lat="37.6404883526" lon="-7.6528539509">
        <ele>86.18</ele>
        <time>2021-05-29T14:21:49Z</time>
      </trkpt>
      <trkpt lat="37.6404086407" lon="-7.6527324971">
        <ele>88.10</ele>
        <time>2021-05-29T14:21:50Z</time>
      </trkpt>
      <trkpt lat="37.6403080579" lon="-7.6526417211">
        <ele>89.54</ele>
        <time>2021-05-29T14:21:51Z</time>
      </trkpt>
      <trkpt lat="37.6401923876" lon="-7.6525777671">
        <ele>91.46</ele>
        <time>2021-05-29T14:21:52Z</time>
      </trkpt>
      <trkpt lat="37.6400716882" lon="-7.6525210217">
        <ele>93.87</ele>
        <time>2021-05-29T14:21:53Z</time>
      </trkpt>
      <trkpt lat="37.6399587002" lon="-7.6524474286">
        <ele>93.87</ele>
        <time>2021-05-29T14:21:54Z</time>
      </trkpt>
      <trkpt lat="37.6398648228" lon="-7.6523428224">
        <ele>95.31</ele>
        <time>2021-05-29T14:21:55Z</time>
      </trkpt>
      <trkpt lat="37.6397939119" lon="-7.6522071194">
        <ele>97.23</ele>
        <time>2021-05-29T14:21:56Z</time>
      </trkpt>
      <trkpt lat="37.6397405192" lon="-7.6520461030">
        <ele>98.67</ele>
        <time>2021-05-29T14:21:57Z</time>
      </trkpt>
      <trkpt lat="37.6396953408" lon="-7.6518643834">
        <ele>101.08</ele>
        <time>2021-05-29T14:21:58Z</time>
      </trkpt>
      <trkpt lat="37.6395935006" lon="-7.6514669973">
        <ele>104.92</ele>
        <time>2021-05-29T14:22:00Z</time>
      </trkpt>
      <trkpt lat="37.6394698676" lon="-7.6510698628">
        <ele>108.29</ele>
        <time>2021-05-29T14:22:02Z</time>
      </trkpt>
      <trkpt lat="37.6393296383" lon="-7.6507098600">
        <ele>109.25</ele>
        <time>2021-05-29T14:22:04Z</time>
      </trkpt>
      <trkpt lat="37.6392414607" lon="-7.6505541243">
        <ele>108.29</ele>
        <time>2021-05-29T14:22:05Z</time>
      </trkpt>
      <trkpt lat="37.6391381118" lon="-7.6504174992">
        <ele>109.25</ele>
        <time>2021-05-29T14:22:06Z</time>
      </trkpt>
      <trkpt lat="37.6390148979" lon="-7.6503082830">
        <ele>110.21</ele>
        <time>2021-05-29T14:22:07Z</time>
      </trkpt>
      <trkpt lat="37.6388751715" lon="-7.6502333488">
        <ele>111.65</ele>
        <time>2021-05-29T14:22:08Z</time>
      </trkpt>
      <trkpt lat="37.6387242135" lon="-7.6501832251">
        <ele>112.61</ele>
        <time>2021-05-29T14:22:09Z</time>
      </trkpt>
      <trkpt lat="37.6385699864" lon="-7.6501371246">
        <ele>113.57</ele>
        <time>2021-05-29T14:22:10Z</time>
      </trkpt>
      <trkpt lat="37.6384183578" lon="-7.6500884257">
        <ele>113.57</ele>
        <time>2021-05-29T14:22:11Z</time>
      </trkpt>
      <trkpt lat="37.6382690761" lon="-7.6500605140">
        <ele>113.57</ele>
        <time>2021-05-29T14:22:12Z</time>
      </trkpt>
      <trkpt lat="37.6381204650" lon="-7.6500598434">
        <ele>114.05</ele>
        <time>2021-05-29T14:22:13Z</time>
      </trkpt>
      <trkpt lat="37.6379730273" lon="-7.6500658784">
        <ele>115.01</ele>
        <time>2021-05-29T14:22:14Z</time>
      </trkpt>
      <trkpt lat="37.6378323790" lon="-7.6500445046">
        <ele>114.53</ele>
        <time>2021-05-29T14:22:15Z</time>
      </trkpt>
      <trkpt lat="37.6377071533" lon="-7.6499834005">
        <ele>114.53</ele>
        <time>2021-05-29T14:22:16Z</time>
      </trkpt>
      <trkpt lat="37.6375998650" lon="-7.6498803869">
        <ele>115.98</ele>
        <time>2021-05-29T14:22:17Z</time>
      </trkpt>
      <trkpt lat="37.6375040598" lon="-7.6497459412">
        <ele>117.42</ele>
        <time>2021-05-29T14:22:18Z</time>
      </trkpt>
      <trkpt lat="37.6374073327" lon="-7.6495969109">
        <ele>118.86</ele>
        <time>2021-05-29T14:22:19Z</time>
      </trkpt>
      <trkpt lat="37.6372053288" lon="-7.6492784824">
        <ele>122.22</ele>
        <time>2021-05-29T14:22:21Z</time>
      </trkpt>
      <trkpt lat="37.6370269619" lon="-7.6489494089">
        <ele>123.19</ele>
        <time>2021-05-29T14:22:23Z</time>
      </trkpt>
      <trkpt lat="37.6369690429" lon="-7.6487671025">
        <ele>124.63</ele>
        <time>2021-05-29T14:22:24Z</time>
      </trkpt>
      <trkpt lat="37.6369138900" lon="-7.6485787611">
        <ele>125.59</ele>
        <time>2021-05-29T14:22:25Z</time>
      </trkpt>
      <trkpt lat="37.6368419733" lon="-7.6484032441">
        <ele>125.59</ele>
        <time>2021-05-29T14:22:26Z</time>
      </trkpt>
      <trkpt lat="37.6367544662" lon="-7.6482423116">
        <ele>126.55</ele>
        <time>2021-05-29T14:22:27Z</time>
      </trkpt>
      <trkpt lat="37.6366697252" lon="-7.6480824687">
        <ele>127.03</ele>
        <time>2021-05-29T14:22:28Z</time>
      </trkpt>
      <trkpt lat="37.6366053522" lon="-7.6479014196">
        <ele>127.03</ele>
        <time>2021-05-29T14:22:29Z</time>
      </trkpt>
      <trkpt lat="37.6365484390" lon="-7.6477046125">
        <ele>127.99</ele>
        <time>2021-05-29T14:22:30Z</time>
      </trkpt>
      <trkpt lat="37.6364781987" lon="-7.6475020219">
        <ele>128.47</ele>
        <time>2021-05-29T14:22:31Z</time>
      </trkpt>
      <trkpt lat="37.6363215409" lon="-7.6470949128">
        <ele>131.36</ele>
        <time>2021-05-29T14:22:33Z</time>
      </trkpt>
      <trkpt lat="37.6362570841" lon="-7.6468904782">
        <ele>129.92</ele>
        <time>2021-05-29T14:22:34Z</time>
      </trkpt>
      <trkpt lat="37.6361888554" lon="-7.6467056572">
        <ele>130.88</ele>
        <time>2021-05-29T14:22:35Z</time>
      </trkpt>
      <trkpt lat="37.6361013483" lon="-7.6465521846">
        <ele>129.92</ele>
        <time>2021-05-29T14:22:36Z</time>
      </trkpt>
      <trkpt lat="37.6359280944" lon="-7.6462823711">
        <ele>127.99</ele>
        <time>2021-05-29T14:22:38Z</time>
      </trkpt>
      <trkpt lat="37.6358832512" lon="-7.6461211871">
        <ele>127.99</ele>
        <time>2021-05-29T14:22:39Z</time>
      </trkpt>
      <trkpt lat="37.6358756237" lon="-7.6459463406">
        <ele>128.95</ele>
        <time>2021-05-29T14:22:40Z</time>
      </trkpt>
      <trkpt lat="37.6358979195" lon="-7.6453700010">
        <ele>132.32</ele>
        <time>2021-05-29T14:22:43Z</time>
      </trkpt>
      <trkpt lat="37.6358859334" lon="-7.6451716851">
        <ele>131.36</ele>
        <time>2021-05-29T14:22:44Z</time>
      </trkpt>
      <trkpt lat="37.6358561777" lon="-7.6449844334">
        <ele>131.36</ele>
        <time>2021-05-29T14:22:45Z</time>
      </trkpt>
      <trkpt lat="37.6358032878" lon="-7.6448078267">
        <ele>132.32</ele>
        <time>2021-05-29T14:22:46Z</time>
      </trkpt>
      <trkpt lat="37.6357253361" lon="-7.6446418650">
        <ele>132.80</ele>
        <time>2021-05-29T14:22:47Z</time>
      </trkpt>
      <trkpt lat="37.6356334705" lon="-7.6444812678">
        <ele>131.84</ele>
        <time>2021-05-29T14:22:48Z</time>
      </trkpt>
      <trkpt lat="37.6355488133" lon="-7.6443149708">
        <ele>130.88</ele>
        <time>2021-05-29T14:22:49Z</time>
      </trkpt>
      <trkpt lat="37.6354904752" lon="-7.6441286411">
        <ele>131.36</ele>
        <time>2021-05-29T14:22:50Z</time>
      </trkpt>
      <trkpt lat="37.6354675926" lon="-7.6439259667">
        <ele>130.88</ele>
        <time>2021-05-29T14:22:51Z</time>
      </trkpt>
      <trkpt lat="37.6354775671" lon="-7.6437146589">
        <ele>132.32</ele>
        <time>2021-05-29T14:22:52Z</time>
      </trkpt>
      <trkpt lat="37.6355058979" lon="-7.6435000822">
        <ele>134.24</ele>
        <time>2021-05-29T14:22:53Z</time>
      </trkpt>
      <trkpt lat="37.6355741266" lon="-7.6430653129">
        <ele>138.57</ele>
        <time>2021-05-29T14:22:55Z</time>
      </trkpt>
      <trkpt lat="37.6356101688" lon="-7.6428476349">
        <ele>138.57</ele>
        <time>2021-05-29T14:22:56Z</time>
      </trkpt>
      <trkpt lat="37.6356612146" lon="-7.6424251031">
        <ele>139.05</ele>
        <time>2021-05-29T14:22:58Z</time>
      </trkpt>
      <trkpt lat="37.6356671657" lon="-7.6422323193">
        <ele>140.49</ele>
        <time>2021-05-29T14:22:59Z</time>
      </trkpt>
      <trkpt lat="37.6356767211" lon="-7.6420534495">
        <ele>140.01</ele>
        <time>2021-05-29T14:23:00Z</time>
      </trkpt>
      <trkpt lat="37.6357110031" lon="-7.6418864820">
        <ele>139.53</ele>
        <time>2021-05-29T14:23:01Z</time>
      </trkpt>
      <trkpt lat="37.6357693411" lon="-7.6417290699">
        <ele>140.49</ele>
        <time>2021-05-29T14:23:02Z</time>
      </trkpt>
      <trkpt lat="37.6358269248" lon="-7.6415745076">
        <ele>140.49</ele>
        <time>2021-05-29T14:23:03Z</time>
      </trkpt>
      <trkpt lat="37.6358621288" lon="-7.6414142456">
        <ele>141.93</ele>
        <time>2021-05-29T14:23:04Z</time>
      </trkpt>
      <trkpt lat="37.6358638052" lon="-7.6412493736">
        <ele>142.89</ele>
        <time>2021-05-29T14:23:05Z</time>
      </trkpt>
      <trkpt lat="37.6358357258" lon="-7.6410809811">
        <ele>143.85</ele>
        <time>2021-05-29T14:23:06Z</time>
      </trkpt>
      <trkpt lat="37.6357854344" lon="-7.6409084816">
        <ele>145.30</ele>
        <time>2021-05-29T14:23:07Z</time>
      </trkpt>
      <trkpt lat="37.6357245818" lon="-7.6407315396">
        <ele>146.26</ele>
        <time>2021-05-29T14:23:08Z</time>
      </trkpt>
      <trkpt lat="37.6356709376" lon="-7.6405437011">
        <ele>148.66</ele>
        <time>2021-05-29T14:23:09Z</time>
      </trkpt>
      <trkpt lat="37.6356354821" lon="-7.6403417811">
        <ele>150.10</ele>
        <time>2021-05-29T14:23:10Z</time>
      </trkpt>
      <trkpt lat="37.6355964225" lon="-7.6399054192">
        <ele>152.03</ele>
        <time>2021-05-29T14:23:12Z</time>
      </trkpt>
      <trkpt lat="37.6355812512" lon="-7.6387400832">
        <ele>156.35</ele>
        <time>2021-05-29T14:23:17Z</time>
      </trkpt>
      <trkpt lat="37.6356555149" lon="-7.6382662542">
        <ele>158.27</ele>
        <time>2021-05-29T14:23:19Z</time>
      </trkpt>
      <trkpt lat="37.6359784696" lon="-7.6362461317">
        <ele>157.31</ele>
        <time>2021-05-29T14:23:28Z</time>
      </trkpt>
      <trkpt lat="37.6359646395" lon="-7.6360603888">
        <ele>157.79</ele>
        <time>2021-05-29T14:23:29Z</time>
      </trkpt>
      <trkpt lat="37.6359282620" lon="-7.6358717121">
        <ele>158.75</ele>
        <time>2021-05-29T14:23:30Z</time>
      </trkpt>
      <trkpt lat="37.6358740311" lon="-7.6356780902">
        <ele>160.68</ele>
        <time>2021-05-29T14:23:31Z</time>
      </trkpt>
      <trkpt lat="37.6358094066" lon="-7.6354781818">
        <ele>160.68</ele>
        <time>2021-05-29T14:23:32Z</time>
      </trkpt>
      <trkpt lat="37.6351543609" lon="-7.6335382741">
        <ele>160.20</ele>
        <time>2021-05-29T14:23:41Z</time>
      </trkpt>
      <trkpt lat="37.6348651852" lon="-7.6326453499">
        <ele>156.83</ele>
        <time>2021-05-29T14:23:45Z</time>
      </trkpt>
      <trkpt lat="37.6342800446" lon="-7.6308771875">
        <ele>160.20</ele>
        <time>2021-05-29T14:23:53Z</time>
      </trkpt>
      <trkpt lat="37.6337490510" lon="-7.6292066742">
        <ele>162.12</ele>
        <time>2021-05-29T14:24:00Z</time>
      </trkpt>
      <trkpt lat="37.6337107457" lon="-7.6289635152">
        <ele>163.56</ele>
        <time>2021-05-29T14:24:01Z</time>
      </trkpt>
      <trkpt lat="37.6336846780" lon="-7.6287075318">
        <ele>163.08</ele>
        <time>2021-05-29T14:24:02Z</time>
      </trkpt>
      <trkpt lat="37.6335288584" lon="-7.6264863275">
        <ele>165.48</ele>
        <time>2021-05-29T14:24:10Z</time>
      </trkpt>
      <trkpt lat="37.6333292853" lon="-7.6250317320">
        <ele>167.89</ele>
        <time>2021-05-29T14:24:15Z</time>
      </trkpt>
      <trkpt lat="37.6331453025" lon="-7.6235675812">
        <ele>172.69</ele>
        <time>2021-05-29T14:24:20Z</time>
      </trkpt>
      <trkpt lat="37.6329958532" lon="-7.6227050833">
        <ele>174.62</ele>
        <time>2021-05-29T14:24:23Z</time>
      </trkpt>
      <trkpt lat="37.6329153031" lon="-7.6224345993">
        <ele>174.62</ele>
        <time>2021-05-29T14:24:24Z</time>
      </trkpt>
      <trkpt lat="37.6326246187" lon="-7.6216577645">
        <ele>179.42</ele>
        <time>2021-05-29T14:24:27Z</time>
      </trkpt>
      <trkpt lat="37.6320196968" lon="-7.6200564858">
        <ele>177.98</ele>
        <time>2021-05-29T14:24:33Z</time>
      </trkpt>
      <trkpt lat="37.6318167709" lon="-7.6195242349">
        <ele>175.58</ele>
        <time>2021-05-29T14:24:35Z</time>
      </trkpt>
      <trkpt lat="37.6315498911" lon="-7.6188263576">
        <ele>173.17</ele>
        <time>2021-05-29T14:24:38Z</time>
      </trkpt>
      <trkpt lat="37.6312188897" lon="-7.6179594174">
        <ele>173.17</ele>
        <time>2021-05-29T14:24:42Z</time>
      </trkpt>
      <trkpt lat="37.6309774909" lon="-7.6173280086">
        <ele>176.54</ele>
        <time>2021-05-29T14:24:45Z</time>
      </trkpt>
      <trkpt lat="37.6308971085" lon="-7.6171151921">
        <ele>176.54</ele>
        <time>2021-05-29T14:24:46Z</time>
      </trkpt>
      <trkpt lat="37.6306777541" lon="-7.6164792571">
        <ele>177.02</ele>
        <time>2021-05-29T14:24:49Z</time>
      </trkpt>
      <trkpt lat="37.6306344196" lon="-7.6162479166">
        <ele>178.46</ele>
        <time>2021-05-29T14:24:50Z</time>
      </trkpt>
      <trkpt lat="37.6306098606" lon="-7.6160007343">
        <ele>179.90</ele>
        <time>2021-05-29T14:24:51Z</time>
      </trkpt>
      <trkpt lat="37.6305836253" lon="-7.6154805534">
        <ele>181.35</ele>
        <time>2021-05-29T14:24:53Z</time>
      </trkpt>
      <trkpt lat="37.6305030752" lon="-7.6137106307">
        <ele>178.46</ele>
        <time>2021-05-29T14:24:59Z</time>
      </trkpt>
      <trkpt lat="37.6304334216" lon="-7.6122010499">
        <ele>175.10</ele>
        <time>2021-05-29T14:25:04Z</time>
      </trkpt>
      <trkpt lat="37.6302967966" lon="-7.6095556375">
        <ele>178.46</ele>
        <time>2021-05-29T14:25:13Z</time>
      </trkpt>
      <trkpt lat="37.6302827988" lon="-7.6092672162">
        <ele>178.46</ele>
        <time>2021-05-29T14:25:14Z</time>
      </trkpt>
      <trkpt lat="37.6302567311" lon="-7.6086992584">
        <ele>181.83</ele>
        <time>2021-05-29T14:25:16Z</time>
      </trkpt>
      <trkpt lat="37.6302597485" lon="-7.6066798903">
        <ele>184.71</ele>
        <time>2021-05-29T14:25:23Z</time>
      </trkpt>
      <trkpt lat="37.6303781848" lon="-7.6052433997">
        <ele>181.35</ele>
        <time>2021-05-29T14:25:28Z</time>
      </trkpt>
      <trkpt lat="37.6304529514" lon="-7.6046258211">
        <ele>177.98</ele>
        <time>2021-05-29T14:25:31Z</time>
      </trkpt>
      <trkpt lat="37.6305097807" lon="-7.6044618711">
        <ele>176.54</ele>
        <time>2021-05-29T14:25:32Z</time>
      </trkpt>
      <trkpt lat="37.6305878162" lon="-7.6042971667">
        <ele>177.50</ele>
        <time>2021-05-29T14:25:33Z</time>
      </trkpt>
      <trkpt lat="37.6306843758" lon="-7.6041540876">
        <ele>178.94</ele>
        <time>2021-05-29T14:25:34Z</time>
      </trkpt>
      <trkpt lat="37.6307852101" lon="-7.6040165406">
        <ele>178.94</ele>
        <time>2021-05-29T14:25:35Z</time>
      </trkpt>
      <trkpt lat="37.6308779139" lon="-7.6038618106">
        <ele>177.98</ele>
        <time>2021-05-29T14:25:36Z</time>
      </trkpt>
      <trkpt lat="37.6309541892" lon="-7.6036831085">
        <ele>178.94</ele>
        <time>2021-05-29T14:25:37Z</time>
      </trkpt>
      <trkpt lat="37.6310127787" lon="-7.6034813561">
        <ele>179.42</ele>
        <time>2021-05-29T14:25:38Z</time>
      </trkpt>
      <trkpt lat="37.6312505733" lon="-7.6024580933">
        <ele>178.94</ele>
        <time>2021-05-29T14:25:43Z</time>
      </trkpt>
      <trkpt lat="37.6313363202" lon="-7.6023047045">
        <ele>178.94</ele>
        <time>2021-05-29T14:25:44Z</time>
      </trkpt>
      <trkpt lat="37.6314435247" lon="-7.6021729410">
        <ele>179.42</ele>
        <time>2021-05-29T14:25:45Z</time>
      </trkpt>
      <trkpt lat="37.6315722708" lon="-7.6020630542">
        <ele>180.38</ele>
        <time>2021-05-29T14:25:46Z</time>
      </trkpt>
      <trkpt lat="37.6317201275" lon="-7.6019690093">
        <ele>181.35</ele>
        <time>2021-05-29T14:25:47Z</time>
      </trkpt>
      <trkpt lat="37.6318727620" lon="-7.6018817537">
        <ele>182.79</ele>
        <time>2021-05-29T14:25:48Z</time>
      </trkpt>
      <trkpt lat="37.6321559865" lon="-7.6016955916">
        <ele>181.35</ele>
        <time>2021-05-29T14:25:50Z</time>
      </trkpt>
      <trkpt lat="37.6322777756" lon="-7.6015655044">
        <ele>179.42</ele>
        <time>2021-05-29T14:25:51Z</time>
      </trkpt>
      <trkpt lat="37.6323847286" lon="-7.6014146302">
        <ele>177.98</ele>
        <time>2021-05-29T14:25:52Z</time>
      </trkpt>
      <trkpt lat="37.6324726548" lon="-7.6012532786">
        <ele>177.50</ele>
        <time>2021-05-29T14:25:53Z</time>
      </trkpt>
      <trkpt lat="37.6325419731" lon="-7.6010895800">
        <ele>176.54</ele>
        <time>2021-05-29T14:25:54Z</time>
      </trkpt>
      <trkpt lat="37.6325896662" lon="-7.6009160746">
        <ele>174.14</ele>
        <time>2021-05-29T14:25:55Z</time>
      </trkpt>
      <trkpt lat="37.6326108724" lon="-7.6007230394">
        <ele>173.66</ele>
        <time>2021-05-29T14:25:56Z</time>
      </trkpt>
      <trkpt lat="37.6326010656" lon="-7.6005189400">
        <ele>173.66</ele>
        <time>2021-05-29T14:25:57Z</time>
      </trkpt>
      <trkpt lat="37.6325792726" lon="-7.6003106497">
        <ele>172.21</ele>
        <time>2021-05-29T14:25:58Z</time>
      </trkpt>
      <trkpt lat="37.6325748302" lon="-7.6000978332">
        <ele>171.25</ele>
        <time>2021-05-29T14:25:59Z</time>
      </trkpt>
      <trkpt lat="37.6326050889" lon="-7.5998813286">
        <ele>170.29</ele>
        <time>2021-05-29T14:26:00Z</time>
      </trkpt>
      <trkpt lat="37.6326618344" lon="-7.5996608846">
        <ele>170.29</ele>
        <time>2021-05-29T14:26:01Z</time>
      </trkpt>
      <trkpt lat="37.6327309012" lon="-7.5994348247">
        <ele>171.25</ele>
        <time>2021-05-29T14:26:02Z</time>
      </trkpt>
      <trkpt lat="37.6328724716" lon="-7.5989935175">
        <ele>172.69</ele>
        <time>2021-05-29T14:26:04Z</time>
      </trkpt>
      <trkpt lat="37.6332069095" lon="-7.5978928059">
        <ele>175.58</ele>
        <time>2021-05-29T14:26:09Z</time>
      </trkpt>
      <trkpt lat="37.6332763955" lon="-7.5976661593">
        <ele>175.58</ele>
        <time>2021-05-29T14:26:10Z</time>
      </trkpt>
      <trkpt lat="37.6338935550" lon="-7.5955394190">
        <ele>178.94</ele>
        <time>2021-05-29T14:26:20Z</time>
      </trkpt>
      <trkpt lat="37.6340326946" lon="-7.5943510327">
        <ele>182.79</ele>
        <time>2021-05-29T14:26:25Z</time>
      </trkpt>
      <trkpt lat="37.6341907773" lon="-7.5916691590">
        <ele>183.75</ele>
        <time>2021-05-29T14:26:36Z</time>
      </trkpt>
      <trkpt lat="37.6342397276" lon="-7.5889543444">
        <ele>187.11</ele>
        <time>2021-05-29T14:26:46Z</time>
      </trkpt>
      <trkpt lat="37.6342580002" lon="-7.5875652954">
        <ele>190.48</ele>
        <time>2021-05-29T14:26:51Z</time>
      </trkpt>
      <trkpt lat="37.6342684776" lon="-7.5870373193">
        <ele>193.84</ele>
        <time>2021-05-29T14:26:53Z</time>
      </trkpt>
      <trkpt lat="37.6342745963" lon="-7.5867830124">
        <ele>193.84</ele>
        <time>2021-05-29T14:26:54Z</time>
      </trkpt>
      <trkpt lat="37.6342999097" lon="-7.5857352745">
        <ele>190.48</ele>
        <time>2021-05-29T14:26:58Z</time>
      </trkpt>
      <trkpt lat="37.6343051065" lon="-7.5854574144">
        <ele>190.96</ele>
        <time>2021-05-29T14:26:59Z</time>
      </trkpt>
      <trkpt lat="37.6343266480" lon="-7.5840087701">
        <ele>187.11</ele>
        <time>2021-05-29T14:27:04Z</time>
      </trkpt>
      <trkpt lat="37.6343311742" lon="-7.5837103743">
        <ele>187.11</ele>
        <time>2021-05-29T14:27:05Z</time>
      </trkpt>
      <trkpt lat="37.6343588345" lon="-7.5819607358">
        <ele>185.67</ele>
        <time>2021-05-29T14:27:11Z</time>
      </trkpt>
      <trkpt lat="37.6343949605" lon="-7.5800096802">
        <ele>189.04</ele>
        <time>2021-05-29T14:27:18Z</time>
      </trkpt>
      <trkpt lat="37.6344412286" lon="-7.5774589833">
        <ele>193.36</ele>
        <time>2021-05-29T14:27:27Z</time>
      </trkpt>
      <trkpt lat="37.6344475988" lon="-7.5769465137">
        <ele>190.48</ele>
        <time>2021-05-29T14:27:29Z</time>
      </trkpt>
      <trkpt lat="37.6344988123" lon="-7.5754301436">
        <ele>193.36</ele>
        <time>2021-05-29T14:27:35Z</time>
      </trkpt>
      <trkpt lat="37.6345211081" lon="-7.5736036431">
        <ele>197.21</ele>
        <time>2021-05-29T14:27:42Z</time>
      </trkpt>
      <trkpt lat="37.6345352735" lon="-7.5725732557">
        <ele>197.69</ele>
        <time>2021-05-29T14:27:46Z</time>
      </trkpt>
      <trkpt lat="37.6345807035" lon="-7.5721034501">
        <ele>197.69</ele>
        <time>2021-05-29T14:27:48Z</time>
      </trkpt>
      <trkpt lat="37.6346338447" lon="-7.5718670804">
        <ele>197.69</ele>
        <time>2021-05-29T14:27:49Z</time>
      </trkpt>
      <trkpt lat="37.6349358447" lon="-7.5708871521">
        <ele>197.21</ele>
        <time>2021-05-29T14:27:53Z</time>
      </trkpt>
      <trkpt lat="37.6353114378" lon="-7.5696729496">
        <ele>197.69</ele>
        <time>2021-05-29T14:27:58Z</time>
      </trkpt>
      <trkpt lat="37.6355195604" lon="-7.5690062530">
        <ele>193.84</ele>
        <time>2021-05-29T14:28:01Z</time>
      </trkpt>
      <trkpt lat="37.6356794033" lon="-7.5686096214">
        <ele>191.92</ele>
        <time>2021-05-29T14:28:03Z</time>
      </trkpt>
      <trkpt lat="37.6357892901" lon="-7.5684354454">
        <ele>192.88</ele>
        <time>2021-05-29T14:28:04Z</time>
      </trkpt>
      <trkpt lat="37.6359222271" lon="-7.5682711601">
        <ele>193.36</ele>
        <time>2021-05-29T14:28:05Z</time>
      </trkpt>
      <trkpt lat="37.6368635148" lon="-7.5672147050">
        <ele>188.56</ele>
        <time>2021-05-29T14:28:11Z</time>
      </trkpt>
      <trkpt lat="37.6378976740" lon="-7.5660689827">
        <ele>185.19</ele>
        <time>2021-05-29T14:28:17Z</time>
      </trkpt>
      <trkpt lat="37.6380825788" lon="-7.5658646319">
        <ele>184.71</ele>
        <time>2021-05-29T14:28:18Z</time>
      </trkpt>
      <trkpt lat="37.6386295818" lon="-7.5652514119">
        <ele>181.83</ele>
        <time>2021-05-29T14:28:21Z</time>
      </trkpt>
      <trkpt lat="37.6391632576" lon="-7.5646674447">
        <ele>178.46</ele>
        <time>2021-05-29T14:28:24Z</time>
      </trkpt>
      <trkpt lat="37.6393345837" lon="-7.5644730683">
        <ele>177.98</ele>
        <time>2021-05-29T14:28:25Z</time>
      </trkpt>
      <trkpt lat="37.6405440085" lon="-7.5630990230">
        <ele>174.14</ele>
        <time>2021-05-29T14:28:32Z</time>
      </trkpt>
      <trkpt lat="37.6416194066" lon="-7.5618983991">
        <ele>170.77</ele>
        <time>2021-05-29T14:28:38Z</time>
      </trkpt>
      <trkpt lat="37.6417907327" lon="-7.5617118180">
        <ele>170.77</ele>
        <time>2021-05-29T14:28:39Z</time>
      </trkpt>
      <trkpt lat="37.6422531623" lon="-7.5611962471">
        <ele>167.41</ele>
        <time>2021-05-29T14:28:42Z</time>
      </trkpt>
      <trkpt lat="37.6432962902" lon="-7.5600631814">
        <ele>163.08</ele>
        <time>2021-05-29T14:28:49Z</time>
      </trkpt>
      <trkpt lat="37.6437640004" lon="-7.5596013386">
        <ele>165.00</ele>
        <time>2021-05-29T14:28:52Z</time>
      </trkpt>
      <trkpt lat="37.6446984988" lon="-7.5587062351">
        <ele>160.68</ele>
        <time>2021-05-29T14:28:58Z</time>
      </trkpt>
      <trkpt lat="37.6449539792" lon="-7.5584624056">
        <ele>159.72</ele>
        <time>2021-05-29T14:29:00Z</time>
      </trkpt>
      <trkpt lat="37.6453064382" lon="-7.5581765827">
        <ele>160.68</ele>
        <time>2021-05-29T14:29:03Z</time>
      </trkpt>
      <trkpt lat="37.6454299036" lon="-7.5581077673">
        <ele>161.16</ele>
        <time>2021-05-29T14:29:04Z</time>
      </trkpt>
      <trkpt lat="37.6455616672" lon="-7.5580550451">
        <ele>161.16</ele>
        <time>2021-05-29T14:29:05Z</time>
      </trkpt>
      <trkpt lat="37.6467942260" lon="-7.5576321781">
        <ele>164.52</ele>
        <time>2021-05-29T14:29:13Z</time>
      </trkpt>
      <trkpt lat="37.6469718385" lon="-7.5575722475">
        <ele>164.52</ele>
        <time>2021-05-29T14:29:14Z</time>
      </trkpt>
      <trkpt lat="37.6488989219" lon="-7.5569311995">
        <ele>162.60</ele>
        <time>2021-05-29T14:29:24Z</time>
      </trkpt>
      <trkpt lat="37.6493035164" lon="-7.5567927305">
        <ele>158.75</ele>
        <time>2021-05-29T14:29:26Z</time>
      </trkpt>
      <trkpt lat="37.6513690688" lon="-7.5560776703">
        <ele>163.08</ele>
        <time>2021-05-29T14:29:36Z</time>
      </trkpt>
      <trkpt lat="37.6515775267" lon="-7.5560038257">
        <ele>163.08</ele>
        <time>2021-05-29T14:29:37Z</time>
      </trkpt>
      <trkpt lat="37.6522210054" lon="-7.5557806157">
        <ele>165.48</ele>
        <time>2021-05-29T14:29:40Z</time>
      </trkpt>
      <trkpt lat="37.6528937370" lon="-7.5555452518">
        <ele>169.33</ele>
        <time>2021-05-29T14:29:43Z</time>
      </trkpt>
      <trkpt lat="37.6533433422" lon="-7.5553883426">
        <ele>171.25</ele>
        <time>2021-05-29T14:29:45Z</time>
      </trkpt>
      <trkpt lat="37.6549093332" lon="-7.5548460335">
        <ele>167.89</ele>
        <time>2021-05-29T14:29:53Z</time>
      </trkpt>
      <trkpt lat="37.6552053820" lon="-7.5546990149">
        <ele>165.48</ele>
        <time>2021-05-29T14:29:55Z</time>
      </trkpt>
      <trkpt lat="37.6553287636" lon="-7.5545862783">
        <ele>165.96</ele>
        <time>2021-05-29T14:29:56Z</time>
      </trkpt>
      <trkpt lat="37.6554343756" lon="-7.5544441212">
        <ele>164.52</ele>
        <time>2021-05-29T14:29:57Z</time>
      </trkpt>
      <trkpt lat="37.6555181947" lon="-7.5542738847">
        <ele>164.52</ele>
        <time>2021-05-29T14:29:58Z</time>
      </trkpt>
      <trkpt lat="37.6555962302" lon="-7.5540825259">
        <ele>164.52</ele>
        <time>2021-05-29T14:29:59Z</time>
      </trkpt>
      <trkpt lat="37.6559264772" lon="-7.5532683078">
        <ele>163.08</ele>
        <time>2021-05-29T14:30:03Z</time>
      </trkpt>
      <trkpt lat="37.6568691898" lon="-7.5510175154">
        <ele>166.45</ele>
        <time>2021-05-29T14:30:13Z</time>
      </trkpt>
      <trkpt lat="37.6570596267" lon="-7.5505438540">
        <ele>168.37</ele>
        <time>2021-05-29T14:30:15Z</time>
      </trkpt>
      <trkpt lat="37.6573658176" lon="-7.5498052407">
        <ele>169.81</ele>
        <time>2021-05-29T14:30:18Z</time>
      </trkpt>
      <trkpt lat="37.6577930432" lon="-7.5487937964">
        <ele>173.17</ele>
        <time>2021-05-29T14:30:22Z</time>
      </trkpt>
      <trkpt lat="37.6580015849" lon="-7.5482840091">
        <ele>176.06</ele>
        <time>2021-05-29T14:30:24Z</time>
      </trkpt>
      <trkpt lat="37.6587105263" lon="-7.5465911999">
        <ele>180.87</ele>
        <time>2021-05-29T14:30:31Z</time>
      </trkpt>
      <trkpt lat="37.6588116959" lon="-7.5463478733">
        <ele>180.38</ele>
        <time>2021-05-29T14:30:32Z</time>
      </trkpt>
      <trkpt lat="37.6590131968" lon="-7.5458691828">
        <ele>183.75</ele>
        <time>2021-05-29T14:30:34Z</time>
      </trkpt>
      <trkpt lat="37.6591119356" lon="-7.5456321426">
        <ele>183.75</ele>
        <time>2021-05-29T14:30:35Z</time>
      </trkpt>
      <trkpt lat="37.6597088110" lon="-7.5441995915">
        <ele>177.02</ele>
        <time>2021-05-29T14:30:41Z</time>
      </trkpt>
      <trkpt lat="37.6599079650" lon="-7.5437241700">
        <ele>176.54</ele>
        <time>2021-05-29T14:30:43Z</time>
      </trkpt>
      <trkpt lat="37.6602420676" lon="-7.5427098759">
        <ele>173.66</ele>
        <time>2021-05-29T14:30:47Z</time>
      </trkpt>
      <trkpt lat="37.6602769364" lon="-7.5424455106">
        <ele>172.69</ele>
        <time>2021-05-29T14:30:48Z</time>
      </trkpt>
      <trkpt lat="37.6602859050" lon="-7.5421771221">
        <ele>170.77</ele>
        <time>2021-05-29T14:30:49Z</time>
      </trkpt>
      <trkpt lat="37.6602728292" lon="-7.5419064704">
        <ele>172.69</ele>
        <time>2021-05-29T14:30:50Z</time>
      </trkpt>
      <trkpt lat="37.6602419000" lon="-7.5416311249">
        <ele>171.73</ele>
        <time>2021-05-29T14:30:51Z</time>
      </trkpt>
      <trkpt lat="37.6602030080" lon="-7.5413509179">
        <ele>170.29</ele>
        <time>2021-05-29T14:30:52Z</time>
      </trkpt>
      <trkpt lat="37.6601603441" lon="-7.5410689507">
        <ele>170.77</ele>
        <time>2021-05-29T14:30:53Z</time>
      </trkpt>
      <trkpt lat="37.6600414049" lon="-7.5402884278">
        <ele>167.41</ele>
        <time>2021-05-29T14:30:56Z</time>
      </trkpt>
      <trkpt lat="37.6599787921" lon="-7.5396114215">
        <ele>165.00</ele>
        <time>2021-05-29T14:30:59Z</time>
      </trkpt>
      <trkpt lat="37.6599994116" lon="-7.5394200627">
        <ele>164.52</ele>
        <time>2021-05-29T14:31:00Z</time>
      </trkpt>
      <trkpt lat="37.6600512117" lon="-7.5392461382">
        <ele>164.52</ele>
        <time>2021-05-29T14:31:01Z</time>
      </trkpt>
      <trkpt lat="37.6601307560" lon="-7.5390878879">
        <ele>165.00</ele>
        <time>2021-05-29T14:31:02Z</time>
      </trkpt>
      <trkpt lat="37.6602329314" lon="-7.5389376841">
        <ele>166.45</ele>
        <time>2021-05-29T14:31:03Z</time>
      </trkpt>
      <trkpt lat="37.6603514515" lon="-7.5387960300">
        <ele>167.41</ele>
        <time>2021-05-29T14:31:04Z</time>
      </trkpt>
      <trkpt lat="37.6604729891" lon="-7.5386595726">
        <ele>168.37</ele>
        <time>2021-05-29T14:31:05Z</time>
      </trkpt>
      <trkpt lat="37.6609716285" lon="-7.5381096359">
        <ele>170.77</ele>
        <time>2021-05-29T14:31:09Z</time>
      </trkpt>
      <trkpt lat="37.6612083334" lon="-7.5377960689">
        <ele>173.66</ele>
        <time>2021-05-29T14:31:11Z</time>
      </trkpt>
      <trkpt lat="37.6613020431" lon="-7.5376049615">
        <ele>173.17</ele>
        <time>2021-05-29T14:31:12Z</time>
      </trkpt>
      <trkpt lat="37.6613824256" lon="-7.5373949111">
        <ele>174.14</ele>
        <time>2021-05-29T14:31:13Z</time>
      </trkpt>
      <trkpt lat="37.6618012693" lon="-7.5361990649">
        <ele>177.02</ele>
        <time>2021-05-29T14:31:18Z</time>
      </trkpt>
      <trkpt lat="37.6626649406" lon="-7.5339941215">
        <ele>181.35</ele>
        <time>2021-05-29T14:31:27Z</time>
      </trkpt>
      <trkpt lat="37.6629236899" lon="-7.5335077196">
        <ele>186.15</ele>
        <time>2021-05-29T14:31:29Z</time>
      </trkpt>
      <trkpt lat="37.6630537771" lon="-7.5332662370">
        <ele>186.15</ele>
        <time>2021-05-29T14:31:30Z</time>
      </trkpt>
      <trkpt lat="37.6634335611" lon="-7.5325528532">
        <ele>189.52</ele>
        <time>2021-05-29T14:31:33Z</time>
      </trkpt>
      <trkpt lat="37.6640230604" lon="-7.5314515550">
        <ele>194.32</ele>
        <time>2021-05-29T14:31:38Z</time>
      </trkpt>
      <trkpt lat="37.6643653773" lon="-7.5308217388">
        <ele>195.77</ele>
        <time>2021-05-29T14:31:41Z</time>
      </trkpt>
      <trkpt lat="37.6654531807" lon="-7.5288188830">
        <ele>200.57</ele>
        <time>2021-05-29T14:31:51Z</time>
      </trkpt>
      <trkpt lat="37.6660195459" lon="-7.5277468376">
        <ele>204.90</ele>
        <time>2021-05-29T14:31:56Z</time>
      </trkpt>
      <trkpt lat="37.6662518922" lon="-7.5273127388">
        <ele>207.78</ele>
        <time>2021-05-29T14:31:58Z</time>
      </trkpt>
      <trkpt lat="37.6663627848" lon="-7.5271037780">
        <ele>207.78</ele>
        <time>2021-05-29T14:31:59Z</time>
      </trkpt>
      <trkpt lat="37.6668812893" lon="-7.5257649366">
        <ele>205.86</ele>
        <time>2021-05-29T14:32:06Z</time>
      </trkpt>
      <trkpt lat="37.6672059204" lon="-7.5244494807">
        <ele>202.49</ele>
        <time>2021-05-29T14:32:12Z</time>
      </trkpt>
      <trkpt lat="37.6673241053" lon="-7.5239774957">
        <ele>200.09</ele>
        <time>2021-05-29T14:32:14Z</time>
      </trkpt>
      <trkpt lat="37.6675007120" lon="-7.5232715718">
        <ele>196.73</ele>
        <time>2021-05-29T14:32:17Z</time>
      </trkpt>
      <trkpt lat="37.6676748041" lon="-7.5225951523">
        <ele>192.88</ele>
        <time>2021-05-29T14:32:20Z</time>
      </trkpt>
      <trkpt lat="37.6678104233" lon="-7.5218794215">
        <ele>190.48</ele>
        <time>2021-05-29T14:32:23Z</time>
      </trkpt>
      <trkpt lat="37.6678058133" lon="-7.5216455664">
        <ele>188.56</ele>
        <time>2021-05-29T14:32:24Z</time>
      </trkpt>
      <trkpt lat="37.6677784044" lon="-7.5214107893">
        <ele>188.56</ele>
        <time>2021-05-29T14:32:25Z</time>
      </trkpt>
      <trkpt lat="37.6674593892" lon="-7.5192932691">
        <ele>183.27</ele>
        <time>2021-05-29T14:32:33Z</time>
      </trkpt>
      <trkpt lat="37.6673408691" lon="-7.5184605271">
        <ele>179.90</ele>
        <time>2021-05-29T14:32:36Z</time>
      </trkpt>
      <trkpt lat="37.6671845466" lon="-7.5176658388">
        <ele>176.54</ele>
        <time>2021-05-29T14:32:39Z</time>
      </trkpt>
      <trkpt lat="37.6670942735" lon="-7.5174258649">
        <ele>176.06</ele>
        <time>2021-05-29T14:32:40Z</time>
      </trkpt>
      <trkpt lat="37.6669919305" lon="-7.5171897467">
        <ele>175.58</ele>
        <time>2021-05-29T14:32:41Z</time>
      </trkpt>
      <trkpt lat="37.6666825544" lon="-7.5164819788">
        <ele>172.21</ele>
        <time>2021-05-29T14:32:44Z</time>
      </trkpt>
      <trkpt lat="37.6665007509" lon="-7.5160558429">
        <ele>167.89</ele>
        <time>2021-05-29T14:32:46Z</time>
      </trkpt>
      <trkpt lat="37.6663616952" lon="-7.5156682637">
        <ele>164.04</ele>
        <time>2021-05-29T14:32:48Z</time>
      </trkpt>
      <trkpt lat="37.6663277484" lon="-7.5154712051">
        <ele>162.60</ele>
        <time>2021-05-29T14:32:49Z</time>
      </trkpt>
      <trkpt lat="37.6663207076" lon="-7.5152610708">
        <ele>162.60</ele>
        <time>2021-05-29T14:32:50Z</time>
      </trkpt>
      <trkpt lat="37.6663678978" lon="-7.5143514667">
        <ele>159.24</ele>
        <time>2021-05-29T14:32:54Z</time>
      </trkpt>
      <trkpt lat="37.6664155908" lon="-7.5137689244">
        <ele>157.31</ele>
        <time>2021-05-29T14:32:57Z</time>
      </trkpt>
      <trkpt lat="37.6664636191" lon="-7.5136125181">
        <ele>157.79</ele>
        <time>2021-05-29T14:32:58Z</time>
      </trkpt>
      <trkpt lat="37.6665382180" lon="-7.5134758931">
        <ele>156.83</ele>
        <time>2021-05-29T14:32:59Z</time>
      </trkpt>
      <trkpt lat="37.6666407287" lon="-7.5133645814">
        <ele>155.87</ele>
        <time>2021-05-29T14:33:00Z</time>
      </trkpt>
      <trkpt lat="37.6667683013" lon="-7.5132764876">
        <ele>155.39</ele>
        <time>2021-05-29T14:33:01Z</time>
      </trkpt>
      <trkpt lat="37.6669123024" lon="-7.5132035650">
        <ele>155.87</ele>
        <time>2021-05-29T14:33:02Z</time>
      </trkpt>
      <trkpt lat="37.6670541242" lon="-7.5131303910">
        <ele>153.47</ele>
        <time>2021-05-29T14:33:03Z</time>
      </trkpt>
      <trkpt lat="37.6671793498" lon="-7.5130428839">
        <ele>152.51</ele>
        <time>2021-05-29T14:33:04Z</time>
      </trkpt>
      <trkpt lat="37.6672808547" lon="-7.5129376911">
        <ele>150.58</ele>
        <time>2021-05-29T14:33:05Z</time>
      </trkpt>
      <trkpt lat="37.6673471555" lon="-7.5128160696">
        <ele>149.62</ele>
        <time>2021-05-29T14:33:06Z</time>
      </trkpt>
      <trkpt lat="37.6673739776" lon="-7.5126804505">
        <ele>148.66</ele>
        <time>2021-05-29T14:33:07Z</time>
      </trkpt>
      <trkpt lat="37.6673665177" lon="-7.5125297438">
        <ele>148.66</ele>
        <time>2021-05-29T14:33:08Z</time>
      </trkpt>
      <trkpt lat="37.6673287991" lon="-7.5123666320">
        <ele>149.14</ele>
        <time>2021-05-29T14:33:09Z</time>
      </trkpt>
      <trkpt lat="37.6672651805" lon="-7.5121876784">
        <ele>149.62</ele>
        <time>2021-05-29T14:33:10Z</time>
      </trkpt>
      <trkpt lat="37.6671861392" lon="-7.5119959004">
        <ele>150.10</ele>
        <time>2021-05-29T14:33:11Z</time>
      </trkpt>
      <trkpt lat="37.6667987276" lon="-7.5109351706">
        <ele>146.26</ele>
        <time>2021-05-29T14:33:16Z</time>
      </trkpt>
      <trkpt lat="37.6667727437" lon="-7.5107223541">
        <ele>144.82</ele>
        <time>2021-05-29T14:33:17Z</time>
      </trkpt>
      <trkpt lat="37.6667762641" lon="-7.5105097890">
        <ele>145.30</ele>
        <time>2021-05-29T14:33:18Z</time>
      </trkpt>
      <trkpt lat="37.6668095402" lon="-7.5103046838">
        <ele>143.85</ele>
        <time>2021-05-29T14:33:19Z</time>
      </trkpt>
      <trkpt lat="37.6668759249" lon="-7.5101117324">
        <ele>143.85</ele>
        <time>2021-05-29T14:33:20Z</time>
      </trkpt>
      <trkpt lat="37.6669692993" lon="-7.5099288393">
        <ele>144.34</ele>
        <time>2021-05-29T14:33:21Z</time>
      </trkpt>
      <trkpt lat="37.6670779288" lon="-7.5097503047">
        <ele>146.26</ele>
        <time>2021-05-29T14:33:22Z</time>
      </trkpt>
      <trkpt lat="37.6673924178" lon="-7.5092766434">
        <ele>143.85</ele>
        <time>2021-05-29T14:33:25Z</time>
      </trkpt>
      <trkpt lat="37.6675125305" lon="-7.5091614760">
        <ele>142.89</ele>
        <time>2021-05-29T14:33:26Z</time>
      </trkpt>
      <trkpt lat="37.6676515024" lon="-7.5090592168">
        <ele>142.89</ele>
        <time>2021-05-29T14:33:27Z</time>
      </trkpt>
      <trkpt lat="37.6681291871" lon="-7.5087354239">
        <ele>146.26</ele>
        <time>2021-05-29T14:33:30Z</time>
      </trkpt>
      <trkpt lat="37.6684606913" lon="-7.5085150637">
        <ele>147.70</ele>
        <time>2021-05-29T14:33:32Z</time>
      </trkpt>
      <trkpt lat="37.6689809561" lon="-7.5081435777">
        <ele>148.66</ele>
        <time>2021-05-29T14:33:36Z</time>
      </trkpt>
      <trkpt lat="37.6690733247" lon="-7.5080317631">
        <ele>148.18</ele>
        <time>2021-05-29T14:33:37Z</time>
      </trkpt>
      <trkpt lat="37.6691479236" lon="-7.5078951381">
        <ele>149.62</ele>
        <time>2021-05-29T14:33:38Z</time>
      </trkpt>
      <trkpt lat="37.6692094468" lon="-7.5077346247">
        <ele>150.58</ele>
        <time>2021-05-29T14:33:39Z</time>
      </trkpt>
      <trkpt lat="37.6692622527" lon="-7.5075617898">
        <ele>151.06</ele>
        <time>2021-05-29T14:33:40Z</time>
      </trkpt>
      <trkpt lat="37.6693072636" lon="-7.5073931459">
        <ele>150.10</ele>
        <time>2021-05-29T14:33:41Z</time>
      </trkpt>
      <trkpt lat="37.6693608239" lon="-7.5070772320">
        <ele>149.62</ele>
        <time>2021-05-29T14:33:43Z</time>
      </trkpt>
      <trkpt lat="37.6693663560" lon="-7.5069187302">
        <ele>149.14</ele>
        <time>2021-05-29T14:33:44Z</time>
      </trkpt>
      <trkpt lat="37.6693652663" lon="-7.5067557022">
        <ele>149.62</ele>
        <time>2021-05-29T14:33:45Z</time>
      </trkpt>
      <trkpt lat="37.6694096904" lon="-7.5050570257">
        <ele>148.66</ele>
        <time>2021-05-29T14:33:55Z</time>
      </trkpt>
      <trkpt lat="37.6695173141" lon="-7.5046353322">
        <ele>150.58</ele>
        <time>2021-05-29T14:33:58Z</time>
      </trkpt>
      <trkpt lat="37.6695745625" lon="-7.5045189075">
        <ele>150.58</ele>
        <time>2021-05-29T14:33:59Z</time>
      </trkpt>
      <trkpt lat="37.6696531009" lon="-7.5044184085">
        <ele>151.06</ele>
        <time>2021-05-29T14:34:00Z</time>
      </trkpt>
      <trkpt lat="37.6697560307" lon="-7.5043285545">
        <ele>152.03</ele>
        <time>2021-05-29T14:34:01Z</time>
      </trkpt>
      <trkpt lat="37.6698737126" lon="-7.5042568054">
        <ele>153.47</ele>
        <time>2021-05-29T14:34:02Z</time>
      </trkpt>
      <trkpt lat="37.6699990220" lon="-7.5041940250">
        <ele>154.43</ele>
        <time>2021-05-29T14:34:03Z</time>
      </trkpt>
      <trkpt lat="37.6701263431" lon="-7.5041348487">
        <ele>154.91</ele>
        <time>2021-05-29T14:34:04Z</time>
      </trkpt>
      <trkpt lat="37.6703807339" lon="-7.5040026661">
        <ele>156.35</ele>
        <time>2021-05-29T14:34:06Z</time>
      </trkpt>
      <trkpt lat="37.6704961527" lon="-7.5039168354">
        <ele>156.83</ele>
        <time>2021-05-29T14:34:07Z</time>
      </trkpt>
      <trkpt lat="37.6705931313" lon="-7.5038113911">
        <ele>156.83</ele>
        <time>2021-05-29T14:34:08Z</time>
      </trkpt>
      <trkpt lat="37.6706744358" lon="-7.5036826450">
        <ele>157.31</ele>
        <time>2021-05-29T14:34:09Z</time>
      </trkpt>
      <trkpt lat="37.6707434189" lon="-7.5035287533">
        <ele>158.27</ele>
        <time>2021-05-29T14:34:10Z</time>
      </trkpt>
      <trkpt lat="37.6708067022" lon="-7.5033524819">
        <ele>158.75</ele>
        <time>2021-05-29T14:34:11Z</time>
      </trkpt>
      <trkpt lat="37.6708665490" lon="-7.5031550881">
        <ele>160.20</ele>
        <time>2021-05-29T14:34:12Z</time>
      </trkpt>
      <trkpt lat="37.6709230430" lon="-7.5029443670">
        <ele>161.64</ele>
        <time>2021-05-29T14:34:13Z</time>
      </trkpt>
      <trkpt lat="37.6709752623" lon="-7.5027321372">
        <ele>161.16</ele>
        <time>2021-05-29T14:34:14Z</time>
      </trkpt>
      <trkpt lat="37.6710453350" lon="-7.5023135450">
        <ele>158.27</ele>
        <time>2021-05-29T14:34:16Z</time>
      </trkpt>
      <trkpt lat="37.6710640267" lon="-7.5021065958">
        <ele>158.27</ele>
        <time>2021-05-29T14:34:17Z</time>
      </trkpt>
      <trkpt lat="37.6711103786" lon="-7.5015535578">
        <ele>155.87</ele>
        <time>2021-05-29T14:34:20Z</time>
      </trkpt>
      <trkpt lat="37.6711373683" lon="-7.5013901945">
        <ele>155.87</ele>
        <time>2021-05-29T14:34:21Z</time>
      </trkpt>
      <trkpt lat="37.6711803675" lon="-7.5012356322">
        <ele>155.39</ele>
        <time>2021-05-29T14:34:22Z</time>
      </trkpt>
      <trkpt lat="37.6712450758" lon="-7.5011007674">
        <ele>155.87</ele>
        <time>2021-05-29T14:34:23Z</time>
      </trkpt>
      <trkpt lat="37.6713270508" lon="-7.5009777211">
        <ele>157.31</ele>
        <time>2021-05-29T14:34:24Z</time>
      </trkpt>
      <trkpt lat="37.6714143064" lon="-7.5008547585">
        <ele>156.35</ele>
        <time>2021-05-29T14:34:25Z</time>
      </trkpt>
      <trkpt lat="37.6721637323" lon="-7.4997420609">
        <ele>159.24</ele>
        <time>2021-05-29T14:34:34Z</time>
      </trkpt>
      <trkpt lat="37.6722226571" lon="-7.4996535480">
        <ele>159.24</ele>
        <time>2021-05-29T14:34:35Z</time>
      </trkpt>
      <trkpt lat="37.6726020221" lon="-7.4990994204">
        <ele>163.08</ele>
        <time>2021-05-29T14:34:41Z</time>
      </trkpt>
      <trkpt lat="37.6727658045" lon="-7.4988469575">
        <ele>164.52</ele>
        <time>2021-05-29T14:34:43Z</time>
      </trkpt>
      <trkpt lat="37.6729286648" lon="-7.4986162875">
        <ele>165.00</ele>
        <time>2021-05-29T14:34:45Z</time>
      </trkpt>
      <trkpt lat="37.6730180997" lon="-7.4985383358">
        <ele>164.52</ele>
        <time>2021-05-29T14:34:46Z</time>
      </trkpt>
      <trkpt lat="37.6731193531" lon="-7.4984876253">
        <ele>165.48</ele>
        <time>2021-05-29T14:34:47Z</time>
      </trkpt>
      <trkpt lat="37.6732362807" lon="-7.4984567799">
        <ele>165.96</ele>
        <time>2021-05-29T14:34:48Z</time>
      </trkpt>
      <trkpt lat="37.6733641885" lon="-7.4984348193">
        <ele>166.93</ele>
        <time>2021-05-29T14:34:49Z</time>
      </trkpt>
      <trkpt lat="37.6734905038" lon="-7.4984131102">
        <ele>166.93</ele>
        <time>2021-05-29T14:34:50Z</time>
      </trkpt>
      <trkpt lat="37.6737137977" lon="-7.4983852822">
        <ele>165.48</ele>
        <time>2021-05-29T14:34:52Z</time>
      </trkpt>
      <trkpt lat="37.6738153864" lon="-7.4984025490">
        <ele>165.48</ele>
        <time>2021-05-29T14:34:53Z</time>
      </trkpt>
      <trkpt lat="37.6739167236" lon="-7.4984423630">
        <ele>165.96</ele>
        <time>2021-05-29T14:34:54Z</time>
      </trkpt>
      <trkpt lat="37.6741361618" lon="-7.4985318817">
        <ele>166.93</ele>
        <time>2021-05-29T14:34:56Z</time>
      </trkpt>
      <trkpt lat="37.6742540114" lon="-7.4985585362">
        <ele>167.41</ele>
        <time>2021-05-29T14:34:57Z</time>
      </trkpt>
      <trkpt lat="37.6743750460" lon="-7.4985703547">
        <ele>167.89</ele>
        <time>2021-05-29T14:34:58Z</time>
      </trkpt>
      <trkpt lat="37.6744983438" lon="-7.4985706061">
        <ele>168.37</ele>
        <time>2021-05-29T14:34:59Z</time>
      </trkpt>
      <trkpt lat="37.6746218931" lon="-7.4985632300">
        <ele>167.89</ele>
        <time>2021-05-29T14:35:00Z</time>
      </trkpt>
      <trkpt lat="37.6753406413" lon="-7.4984975997">
        <ele>171.25</ele>
        <time>2021-05-29T14:35:06Z</time>
      </trkpt>
      <trkpt lat="37.6759891491" lon="-7.4984612223">
        <ele>175.10</ele>
        <time>2021-05-29T14:35:11Z</time>
      </trkpt>
      <trkpt lat="37.6761176437" lon="-7.4984781537">
        <ele>175.10</ele>
        <time>2021-05-29T14:35:12Z</time>
      </trkpt>
      <trkpt lat="37.6762455516" lon="-7.4985136930">
        <ele>175.10</ele>
        <time>2021-05-29T14:35:13Z</time>
      </trkpt>
      <trkpt lat="37.6763734594" lon="-7.4985725340">
        <ele>175.58</ele>
        <time>2021-05-29T14:35:14Z</time>
      </trkpt>
      <trkpt lat="37.6764972601" lon="-7.4986551795">
        <ele>176.54</ele>
        <time>2021-05-29T14:35:15Z</time>
      </trkpt>
      <trkpt lat="37.6766124275" lon="-7.4987485539">
        <ele>176.54</ele>
        <time>2021-05-29T14:35:16Z</time>
      </trkpt>
      <trkpt lat="37.6767257508" lon="-7.4988412578">
        <ele>176.54</ele>
        <time>2021-05-29T14:35:17Z</time>
      </trkpt>
      <trkpt lat="37.6777758356" lon="-7.4994872510">
        <ele>176.54</ele>
        <time>2021-05-29T14:35:25Z</time>
      </trkpt>
      <trkpt lat="37.6779190823" lon="-7.4995192699">
        <ele>175.58</ele>
        <time>2021-05-29T14:35:26Z</time>
      </trkpt>
      <trkpt lat="37.6780686155" lon="-7.4995243829">
        <ele>176.54</ele>
        <time>2021-05-29T14:35:27Z</time>
      </trkpt>
      <trkpt lat="37.6782225072" lon="-7.4995010812">
        <ele>177.02</ele>
        <time>2021-05-29T14:35:28Z</time>
      </trkpt>
      <trkpt lat="37.6783800870" lon="-7.4994534720">
        <ele>177.50</ele>
        <time>2021-05-29T14:35:29Z</time>
      </trkpt>
      <trkpt lat="37.6785419416" lon="-7.4993894342">
        <ele>178.46</ele>
        <time>2021-05-29T14:35:30Z</time>
      </trkpt>
      <trkpt lat="37.6792093087" lon="-7.4991121609">
        <ele>177.02</ele>
        <time>2021-05-29T14:35:34Z</time>
      </trkpt>
      <trkpt lat="37.6804944221" lon="-7.4990115780">
        <ele>177.50</ele>
        <time>2021-05-29T14:35:41Z</time>
      </trkpt>
      <trkpt lat="37.6811023615" lon="-7.4991990812">
        <ele>180.87</ele>
        <time>2021-05-29T14:35:44Z</time>
      </trkpt>
      <trkpt lat="37.6819226984" lon="-7.4994960520">
        <ele>179.42</ele>
        <time>2021-05-29T14:35:48Z</time>
      </trkpt>
      <trkpt lat="37.6839967165" lon="-7.5002299715">
        <ele>182.79</ele>
        <time>2021-05-29T14:35:58Z</time>
      </trkpt>
      <trkpt lat="37.6844275463" lon="-7.5003798399">
        <ele>183.75</ele>
        <time>2021-05-29T14:36:00Z</time>
      </trkpt>
      <trkpt lat="37.6854833309" lon="-7.5007519964">
        <ele>186.15</ele>
        <time>2021-05-29T14:36:05Z</time>
      </trkpt>
      <trkpt lat="37.6858966425" lon="-7.5008985121">
        <ele>187.59</ele>
        <time>2021-05-29T14:36:07Z</time>
      </trkpt>
      <trkpt lat="37.6869062427" lon="-7.5012520608">
        <ele>190.48</ele>
        <time>2021-05-29T14:36:12Z</time>
      </trkpt>
      <trkpt lat="37.6881579962" lon="-7.5016929489">
        <ele>192.88</ele>
        <time>2021-05-29T14:36:18Z</time>
      </trkpt>
      <trkpt lat="37.6900462713" lon="-7.5023562089">
        <ele>190.48</ele>
        <time>2021-05-29T14:36:26Z</time>
      </trkpt>
      <trkpt lat="37.6922020968" lon="-7.5031116698">
        <ele>187.11</ele>
        <time>2021-05-29T14:36:35Z</time>
      </trkpt>
      <trkpt lat="37.6932824403" lon="-7.5034877658">
        <ele>184.71</ele>
        <time>2021-05-29T14:36:40Z</time>
      </trkpt>
      <trkpt lat="37.6943993289" lon="-7.5038874988">
        <ele>188.56</ele>
        <time>2021-05-29T14:36:45Z</time>
      </trkpt>
      <trkpt lat="37.6946232095" lon="-7.5039677974">
        <ele>188.56</ele>
        <time>2021-05-29T14:36:46Z</time>
      </trkpt>
      <trkpt lat="37.6955130324" lon="-7.5042766705">
        <ele>191.92</ele>
        <time>2021-05-29T14:36:50Z</time>
      </trkpt>
      <trkpt lat="37.6968112215" lon="-7.5047285389">
        <ele>193.84</ele>
        <time>2021-05-29T14:36:56Z</time>
      </trkpt>
      <trkpt lat="37.6982270088" lon="-7.5055210479">
        <ele>194.80</ele>
        <time>2021-05-29T14:37:03Z</time>
      </trkpt>
      <trkpt lat="37.6992304903" lon="-7.5061845593">
        <ele>191.44</ele>
        <time>2021-05-29T14:37:08Z</time>
      </trkpt>
      <trkpt lat="37.7015286405" lon="-7.5076961517">
        <ele>188.08</ele>
        <time>2021-05-29T14:37:20Z</time>
      </trkpt>
      <trkpt lat="37.7024348918" lon="-7.5087018125">
        <ele>191.92</ele>
        <time>2021-05-29T14:37:27Z</time>
      </trkpt>
      <trkpt lat="37.7028517239" lon="-7.5096095726">
        <ele>195.77</ele>
        <time>2021-05-29T14:37:31Z</time>
      </trkpt>
      <trkpt lat="37.7030603494" lon="-7.5101046916">
        <ele>199.61</ele>
        <time>2021-05-29T14:37:33Z</time>
      </trkpt>
      <trkpt lat="37.7033870760" lon="-7.5108710490">
        <ele>203.46</ele>
        <time>2021-05-29T14:37:36Z</time>
      </trkpt>
      <trkpt lat="37.7034970466" lon="-7.5111293793">
        <ele>202.98</ele>
        <time>2021-05-29T14:37:37Z</time>
      </trkpt>
      <trkpt lat="37.7037189156" lon="-7.5116486382">
        <ele>205.86</ele>
        <time>2021-05-29T14:37:39Z</time>
      </trkpt>
      <trkpt lat="37.7040541917" lon="-7.5124287419">
        <ele>208.26</ele>
        <time>2021-05-29T14:37:42Z</time>
      </trkpt>
      <trkpt lat="37.7046122588" lon="-7.5137327146">
        <ele>210.19</ele>
        <time>2021-05-29T14:37:47Z</time>
      </trkpt>
      <trkpt lat="37.7055528760" lon="-7.5159170385">
        <ele>213.55</ele>
        <time>2021-05-29T14:37:56Z</time>
      </trkpt>
      <trkpt lat="37.7056443226" lon="-7.5161288492">
        <ele>214.03</ele>
        <time>2021-05-29T14:37:57Z</time>
      </trkpt>
      <trkpt lat="37.7063982747" lon="-7.5174497534">
        <ele>214.03</ele>
        <time>2021-05-29T14:38:04Z</time>
      </trkpt>
      <trkpt lat="37.7075128164" lon="-7.5184138399">
        <ele>212.59</ele>
        <time>2021-05-29T14:38:10Z</time>
      </trkpt>
      <trkpt lat="37.7079277206" lon="-7.5187256467">
        <ele>211.63</ele>
        <time>2021-05-29T14:38:12Z</time>
      </trkpt>
      <trkpt lat="37.7085528430" lon="-7.5191962067">
        <ele>213.07</ele>
        <time>2021-05-29T14:38:15Z</time>
      </trkpt>
      <trkpt lat="37.7093653008" lon="-7.5198153779">
        <ele>210.19</ele>
        <time>2021-05-29T14:38:19Z</time>
      </trkpt>
      <trkpt lat="37.7103375178" lon="-7.5205599423">
        <ele>210.67</ele>
        <time>2021-05-29T14:38:24Z</time>
      </trkpt>
      <trkpt lat="37.7115655504" lon="-7.5214990508">
        <ele>214.03</ele>
        <time>2021-05-29T14:38:30Z</time>
      </trkpt>
      <trkpt lat="37.7125728037" lon="-7.5222691800">
        <ele>214.99</ele>
        <time>2021-05-29T14:38:35Z</time>
      </trkpt>
      <trkpt lat="37.7139331866" lon="-7.5233105477">
        <ele>218.36</ele>
        <time>2021-05-29T14:38:42Z</time>
      </trkpt>
      <trkpt lat="37.7148643322" lon="-7.5240210816">
        <ele>222.20</ele>
        <time>2021-05-29T14:38:47Z</time>
      </trkpt>
      <trkpt lat="37.7150456328" lon="-7.5241598859">
        <ele>222.20</ele>
        <time>2021-05-29T14:38:48Z</time>
      </trkpt>
      <trkpt lat="37.7155823261" lon="-7.5245659892">
        <ele>225.57</ele>
        <time>2021-05-29T14:38:51Z</time>
      </trkpt>
      <trkpt lat="37.7157583460" lon="-7.5247006863">
        <ele>225.57</ele>
        <time>2021-05-29T14:38:52Z</time>
      </trkpt>
      <trkpt lat="37.7161093801" lon="-7.5249719247">
        <ele>229.89</ele>
        <time>2021-05-29T14:38:54Z</time>
      </trkpt>
      <trkpt lat="37.7162865736" lon="-7.5251070410">
        <ele>229.89</ele>
        <time>2021-05-29T14:38:55Z</time>
      </trkpt>
      <trkpt lat="37.7177772950" lon="-7.5262643304">
        <ele>233.26</ele>
        <time>2021-05-29T14:39:03Z</time>
      </trkpt>
      <trkpt lat="37.7196056396" lon="-7.5276643597">
        <ele>230.85</ele>
        <time>2021-05-29T14:39:12Z</time>
      </trkpt>
      <trkpt lat="37.7208035812" lon="-7.5285885483">
        <ele>227.49</ele>
        <time>2021-05-29T14:39:18Z</time>
      </trkpt>
      <trkpt lat="37.7218199708" lon="-7.5293720886">
        <ele>223.64</ele>
        <time>2021-05-29T14:39:23Z</time>
      </trkpt>
      <trkpt lat="37.7220107429" lon="-7.5295213703">
        <ele>223.64</ele>
        <time>2021-05-29T14:39:24Z</time>
      </trkpt>
      <trkpt lat="37.7231524419" lon="-7.5303817727">
        <ele>226.53</ele>
        <time>2021-05-29T14:39:30Z</time>
      </trkpt>
      <trkpt lat="37.7239079867" lon="-7.5309546757">
        <ele>230.37</ele>
        <time>2021-05-29T14:39:34Z</time>
      </trkpt>
      <trkpt lat="37.7246374637" lon="-7.5315251481">
        <ele>229.89</ele>
        <time>2021-05-29T14:39:38Z</time>
      </trkpt>
      <trkpt lat="37.7258820925" lon="-7.5324752368">
        <ele>233.74</ele>
        <time>2021-05-29T14:39:45Z</time>
      </trkpt>
      <trkpt lat="37.7266595140" lon="-7.5330679212">
        <ele>235.66</ele>
        <time>2021-05-29T14:39:49Z</time>
      </trkpt>
      <trkpt lat="37.7270626836" lon="-7.5333757885">
        <ele>236.62</ele>
        <time>2021-05-29T14:39:51Z</time>
      </trkpt>
      <trkpt lat="37.7287580911" lon="-7.5347489119">
        <ele>235.66</ele>
        <time>2021-05-29T14:40:00Z</time>
      </trkpt>
      <trkpt lat="37.7288895193" lon="-7.5349228363">
        <ele>234.70</ele>
        <time>2021-05-29T14:40:01Z</time>
      </trkpt>
      <trkpt lat="37.7290025074" lon="-7.5351160392">
        <ele>235.18</ele>
        <time>2021-05-29T14:40:02Z</time>
      </trkpt>
      <trkpt lat="37.7290999051" lon="-7.5353281852">
        <ele>236.14</ele>
        <time>2021-05-29T14:40:03Z</time>
      </trkpt>
      <trkpt lat="37.7291792817" lon="-7.5355552509">
        <ele>236.14</ele>
        <time>2021-05-29T14:40:04Z</time>
      </trkpt>
      <trkpt lat="37.7292402182" lon="-7.5357961468">
        <ele>236.62</ele>
        <time>2021-05-29T14:40:05Z</time>
      </trkpt>
      <trkpt lat="37.7292865701" lon="-7.5360475201">
        <ele>237.10</ele>
        <time>2021-05-29T14:40:06Z</time>
      </trkpt>
      <trkpt lat="37.7293261327" lon="-7.5363091193">
        <ele>237.58</ele>
        <time>2021-05-29T14:40:07Z</time>
      </trkpt>
      <trkpt lat="37.7294036653" lon="-7.5368500873">
        <ele>239.02</ele>
        <time>2021-05-29T14:40:09Z</time>
      </trkpt>
      <trkpt lat="37.7295322437" lon="-7.5377028622">
        <ele>241.91</ele>
        <time>2021-05-29T14:40:12Z</time>
      </trkpt>
      <trkpt lat="37.7300717868" lon="-7.5407415535">
        <ele>241.43</ele>
        <time>2021-05-29T14:40:23Z</time>
      </trkpt>
      <trkpt lat="37.7301746327" lon="-7.5409795158">
        <ele>240.95</ele>
        <time>2021-05-29T14:40:24Z</time>
      </trkpt>
      <trkpt lat="37.7302999422" lon="-7.5411973614">
        <ele>242.87</ele>
        <time>2021-05-29T14:40:25Z</time>
      </trkpt>
      <trkpt lat="37.7304505650" lon="-7.5413825177">
        <ele>242.39</ele>
        <time>2021-05-29T14:40:26Z</time>
      </trkpt>
      <trkpt lat="37.7306185383" lon="-7.5415392593">
        <ele>242.39</ele>
        <time>2021-05-29T14:40:27Z</time>
      </trkpt>
      <trkpt lat="37.7308004256" lon="-7.5416721124">
        <ele>240.47</ele>
        <time>2021-05-29T14:40:28Z</time>
      </trkpt>
      <trkpt lat="37.7309942152" lon="-7.5417845137">
        <ele>241.43</ele>
        <time>2021-05-29T14:40:29Z</time>
      </trkpt>
      <trkpt lat="37.7311992366" lon="-7.5418730266">
        <ele>241.43</ele>
        <time>2021-05-29T14:40:30Z</time>
      </trkpt>
      <trkpt lat="37.7314136457" lon="-7.5419305265">
        <ele>240.95</ele>
        <time>2021-05-29T14:40:31Z</time>
      </trkpt>
      <trkpt lat="37.7316348441" lon="-7.5419632159">
        <ele>242.39</ele>
        <time>2021-05-29T14:40:32Z</time>
      </trkpt>
      <trkpt lat="37.7318606526" lon="-7.5419778004">
        <ele>242.39</ele>
        <time>2021-05-29T14:40:33Z</time>
      </trkpt>
      <trkpt lat="37.7327689156" lon="-7.5419543311">
        <ele>241.43</ele>
        <time>2021-05-29T14:40:37Z</time>
      </trkpt>
      <trkpt lat="37.7344174683" lon="-7.5417331327">
        <ele>240.47</ele>
        <time>2021-05-29T14:40:44Z</time>
      </trkpt>
      <trkpt lat="37.7354022581" lon="-7.5415960047">
        <ele>237.10</ele>
        <time>2021-05-29T14:40:48Z</time>
      </trkpt>
      <trkpt lat="37.7359053399" lon="-7.5415257644">
        <ele>233.74</ele>
        <time>2021-05-29T14:40:50Z</time>
      </trkpt>
      <trkpt lat="37.7361592278" lon="-7.5414930750">
        <ele>234.70</ele>
        <time>2021-05-29T14:40:51Z</time>
      </trkpt>
      <trkpt lat="37.7371725999" lon="-7.5413613953">
        <ele>232.30</ele>
        <time>2021-05-29T14:40:55Z</time>
      </trkpt>
      <trkpt lat="37.7378791943" lon="-7.5412655063">
        <ele>228.93</ele>
        <time>2021-05-29T14:40:58Z</time>
      </trkpt>
      <trkpt lat="37.7381065954" lon="-7.5412361696">
        <ele>228.93</ele>
        <time>2021-05-29T14:40:59Z</time>
      </trkpt>
      <trkpt lat="37.7394608594" lon="-7.5410469063">
        <ele>232.78</ele>
        <time>2021-05-29T14:41:05Z</time>
      </trkpt>
      <trkpt lat="37.7399066929" lon="-7.5409853831">
        <ele>234.22</ele>
        <time>2021-05-29T14:41:07Z</time>
      </trkpt>
      <trkpt lat="37.7407916542" lon="-7.5408649351">
        <ele>238.06</ele>
        <time>2021-05-29T14:41:11Z</time>
      </trkpt>
      <trkpt lat="37.7418548986" lon="-7.5407045893">
        <ele>235.66</ele>
        <time>2021-05-29T14:41:16Z</time>
      </trkpt>
      <trkpt lat="37.7443829644" lon="-7.5402970612">
        <ele>231.81</ele>
        <time>2021-05-29T14:41:27Z</time>
      </trkpt>
      <trkpt lat="37.7449952625" lon="-7.5401946343">
        <ele>229.41</ele>
        <time>2021-05-29T14:41:30Z</time>
      </trkpt>
      <trkpt lat="37.7464693878" lon="-7.5399570912">
        <ele>231.81</ele>
        <time>2021-05-29T14:41:37Z</time>
      </trkpt>
      <trkpt lat="37.7471387666" lon="-7.5398498867">
        <ele>233.74</ele>
        <time>2021-05-29T14:41:40Z</time>
      </trkpt>
      <trkpt lat="37.7498826664" lon="-7.5394137762">
        <ele>233.74</ele>
        <time>2021-05-29T14:41:52Z</time>
      </trkpt>
      <trkpt lat="37.7505897637" lon="-7.5392981060">
        <ele>232.30</ele>
        <time>2021-05-29T14:41:55Z</time>
      </trkpt>
      <trkpt lat="37.7516877931" lon="-7.5391269475">
        <ele>229.89</ele>
        <time>2021-05-29T14:42:00Z</time>
      </trkpt>
      <trkpt lat="37.7533837873" lon="-7.5388426334">
        <ele>233.26</ele>
        <time>2021-05-29T14:42:08Z</time>
      </trkpt>
      <trkpt lat="37.7549553942" lon="-7.5385872368">
        <ele>235.18</ele>
        <time>2021-05-29T14:42:15Z</time>
      </trkpt>
      <trkpt lat="37.7570048533" lon="-7.5382652041">
        <ele>236.62</ele>
        <time>2021-05-29T14:42:24Z</time>
      </trkpt>
      <trkpt lat="37.7594337612" lon="-7.5378653035">
        <ele>232.78</ele>
        <time>2021-05-29T14:42:35Z</time>
      </trkpt>
      <trkpt lat="37.7603154536" lon="-7.5376996771">
        <ele>228.93</ele>
        <time>2021-05-29T14:42:40Z</time>
      </trkpt>
      <trkpt lat="37.7604821697" lon="-7.5376454461">
        <ele>228.45</ele>
        <time>2021-05-29T14:42:41Z</time>
      </trkpt>
      <trkpt lat="37.7608224750" lon="-7.5375120062">
        <ele>227.01</ele>
        <time>2021-05-29T14:42:43Z</time>
      </trkpt>
      <trkpt lat="37.7621561196" lon="-7.5366260391">
        <ele>225.09</ele>
        <time>2021-05-29T14:42:51Z</time>
      </trkpt>
      <trkpt lat="37.7628870215" lon="-7.5358467735">
        <ele>224.61</ele>
        <time>2021-05-29T14:42:56Z</time>
      </trkpt>
      <trkpt lat="37.7648866922" lon="-7.5335181970">
        <ele>227.49</ele>
        <time>2021-05-29T14:43:10Z</time>
      </trkpt>
      <trkpt lat="37.7658734936" lon="-7.5323697925">
        <ele>230.37</ele>
        <time>2021-05-29T14:43:16Z</time>
      </trkpt>
      <trkpt lat="37.7666145377" lon="-7.5315195322">
        <ele>233.26</ele>
        <time>2021-05-29T14:43:20Z</time>
      </trkpt>
      <trkpt lat="37.7677590027" lon="-7.5301977899">
        <ele>236.62</ele>
        <time>2021-05-29T14:43:26Z</time>
      </trkpt>
      <trkpt lat="37.7679575700" lon="-7.5299677067">
        <ele>236.62</ele>
        <time>2021-05-29T14:43:27Z</time>
      </trkpt>
      <trkpt lat="37.7689139452" lon="-7.5288545061">
        <ele>234.70</ele>
        <time>2021-05-29T14:43:32Z</time>
      </trkpt>
      <trkpt lat="37.7716496307" lon="-7.5256925169">
        <ele>233.74</ele>
        <time>2021-05-29T14:43:47Z</time>
      </trkpt>
      <trkpt lat="37.7718259860" lon="-7.5254895911">
        <ele>233.74</ele>
        <time>2021-05-29T14:43:48Z</time>
      </trkpt>
      <trkpt lat="37.7736565936" lon="-7.5233566482">
        <ele>234.22</ele>
        <time>2021-05-29T14:43:59Z</time>
      </trkpt>
      <trkpt lat="37.7746492624" lon="-7.5222030468">
        <ele>236.62</ele>
        <time>2021-05-29T14:44:05Z</time>
      </trkpt>
      <trkpt lat="37.7757125068" lon="-7.5209714100">
        <ele>232.78</ele>
        <time>2021-05-29T14:44:11Z</time>
      </trkpt>
      <trkpt lat="37.7770452294" lon="-7.5195575505">
        <ele>232.30</ele>
        <time>2021-05-29T14:44:19Z</time>
      </trkpt>
      <trkpt lat="37.7772366721" lon="-7.5194343366">
        <ele>231.81</ele>
        <time>2021-05-29T14:44:20Z</time>
      </trkpt>
      <trkpt lat="37.7774411067" lon="-7.5193276349">
        <ele>232.30</ele>
        <time>2021-05-29T14:44:21Z</time>
      </trkpt>
      <trkpt lat="37.7776563540" lon="-7.5192363560">
        <ele>234.70</ele>
        <time>2021-05-29T14:44:22Z</time>
      </trkpt>
      <trkpt lat="37.7778784744" lon="-7.5191531237">
        <ele>236.14</ele>
        <time>2021-05-29T14:44:23Z</time>
      </trkpt>
      <trkpt lat="37.7790354285" lon="-7.5187169295">
        <ele>239.99</ele>
        <time>2021-05-29T14:44:28Z</time>
      </trkpt>
      <trkpt lat="37.7802189533" lon="-7.5182815734">
        <ele>240.47</ele>
        <time>2021-05-29T14:44:33Z</time>
      </trkpt>
      <trkpt lat="37.7815724630" lon="-7.5177632365">
        <ele>237.10</ele>
        <time>2021-05-29T14:44:39Z</time>
      </trkpt>
      <trkpt lat="37.7817877103" lon="-7.5176811777">
        <ele>237.10</ele>
        <time>2021-05-29T14:44:40Z</time>
      </trkpt>
      <trkpt lat="37.7837655041" lon="-7.5169358589">
        <ele>240.95</ele>
        <time>2021-05-29T14:44:49Z</time>
      </trkpt>
      <trkpt lat="37.7850428224" lon="-7.5164457690">
        <ele>236.62</ele>
        <time>2021-05-29T14:44:55Z</time>
      </trkpt>
      <trkpt lat="37.7866181172" lon="-7.5158531684">
        <ele>231.81</ele>
        <time>2021-05-29T14:45:02Z</time>
      </trkpt>
      <trkpt lat="37.7868459374" lon="-7.5157673378">
        <ele>231.81</ele>
        <time>2021-05-29T14:45:03Z</time>
      </trkpt>
      <trkpt lat="37.7884029597" lon="-7.5151790958">
        <ele>229.41</ele>
        <time>2021-05-29T14:45:10Z</time>
      </trkpt>
      <trkpt lat="37.7898562141" lon="-7.5146353617">
        <ele>231.81</ele>
        <time>2021-05-29T14:45:17Z</time>
      </trkpt>
      <trkpt lat="37.7915391326" lon="-7.5140034501">
        <ele>230.85</ele>
        <time>2021-05-29T14:45:25Z</time>
      </trkpt>
      <trkpt lat="37.7938897535" lon="-7.5131187402">
        <ele>227.49</ele>
        <time>2021-05-29T14:45:36Z</time>
      </trkpt>
      <trkpt lat="37.7972635534" lon="-7.5118457805">
        <ele>226.53</ele>
        <time>2021-05-29T14:45:51Z</time>
      </trkpt>
      <trkpt lat="37.7986909915" lon="-7.5113040581">
        <ele>227.97</ele>
        <time>2021-05-29T14:45:58Z</time>
      </trkpt>
      <trkpt lat="37.7998680621" lon="-7.5105915964">
        <ele>231.81</ele>
        <time>2021-05-29T14:46:04Z</time>
      </trkpt>
      <trkpt lat="37.8018073831" lon="-7.5086632557">
        <ele>232.78</ele>
        <time>2021-05-29T14:46:15Z</time>
      </trkpt>
      <trkpt lat="37.8021606803" lon="-7.5083093718">
        <ele>232.30</ele>
        <time>2021-05-29T14:46:17Z</time>
      </trkpt>
      <trkpt lat="37.8031837754" lon="-7.5073022861">
        <ele>227.97</ele>
        <time>2021-05-29T14:46:23Z</time>
      </trkpt>
      <trkpt lat="37.8036088217" lon="-7.5068783294">
        <ele>224.12</ele>
        <time>2021-05-29T14:46:26Z</time>
      </trkpt>
      <trkpt lat="37.8045232873" lon="-7.5059439149">
        <ele>226.53</ele>
        <time>2021-05-29T14:46:32Z</time>
      </trkpt>
      <trkpt lat="37.8048790153" lon="-7.5055915397">
        <ele>227.97</ele>
        <time>2021-05-29T14:46:34Z</time>
      </trkpt>
      <trkpt lat="37.8062930424" lon="-7.5041850563">
        <ele>229.41</ele>
        <time>2021-05-29T14:46:42Z</time>
      </trkpt>
      <trkpt lat="37.8074919898" lon="-7.5029880367">
        <ele>229.41</ele>
        <time>2021-05-29T14:46:49Z</time>
      </trkpt>
      <trkpt lat="37.8079705965" lon="-7.5025585480">
        <ele>226.05</ele>
        <time>2021-05-29T14:46:52Z</time>
      </trkpt>
      <trkpt lat="37.8081391566" lon="-7.5024462305">
        <ele>225.09</ele>
        <time>2021-05-29T14:46:53Z</time>
      </trkpt>
      <trkpt lat="37.8083243966" lon="-7.5023523532">
        <ele>225.57</ele>
        <time>2021-05-29T14:46:54Z</time>
      </trkpt>
      <trkpt lat="37.8089441545" lon="-7.5021257065">
        <ele>228.93</ele>
        <time>2021-05-29T14:46:57Z</time>
      </trkpt>
      <trkpt lat="37.8091567196" lon="-7.5020643510">
        <ele>228.45</ele>
        <time>2021-05-29T14:46:58Z</time>
      </trkpt>
      <trkpt lat="37.8113966156" lon="-7.5014324393">
        <ele>229.41</ele>
        <time>2021-05-29T14:47:08Z</time>
      </trkpt>
      <trkpt lat="37.8127557412" lon="-7.5013948884">
        <ele>231.81</ele>
        <time>2021-05-29T14:47:14Z</time>
      </trkpt>
      <trkpt lat="37.8131659515" lon="-7.5014180224">
        <ele>228.93</ele>
        <time>2021-05-29T14:47:16Z</time>
      </trkpt>
      <trkpt lat="37.8137025610" lon="-7.5014427491">
        <ele>227.01</ele>
        <time>2021-05-29T14:47:19Z</time>
      </trkpt>
      <trkpt lat="37.8150585014" lon="-7.5013944693">
        <ele>225.09</ele>
        <time>2021-05-29T14:47:28Z</time>
      </trkpt>
      <trkpt lat="37.8156351764" lon="-7.5012466963">
        <ele>228.45</ele>
        <time>2021-05-29T14:47:32Z</time>
      </trkpt>
      <trkpt lat="37.8159935027" lon="-7.5011228118">
        <ele>231.81</ele>
        <time>2021-05-29T14:47:34Z</time>
      </trkpt>
      <trkpt lat="37.8161744680" lon="-7.5010534935">
        <ele>231.81</ele>
        <time>2021-05-29T14:47:35Z</time>
      </trkpt>
      <trkpt lat="37.8168767039" lon="-7.5008003600">
        <ele>235.66</ele>
        <time>2021-05-29T14:47:39Z</time>
      </trkpt>
      <trkpt lat="37.8174378723" lon="-7.5006167963">
        <ele>239.02</ele>
        <time>2021-05-29T14:47:42Z</time>
      </trkpt>
      <trkpt lat="37.8180099372" lon="-7.5004214142">
        <ele>242.39</ele>
        <time>2021-05-29T14:47:45Z</time>
      </trkpt>
      <trkpt lat="37.8184018750" lon="-7.5003148802">
        <ele>243.35</ele>
        <time>2021-05-29T14:47:47Z</time>
      </trkpt>
      <trkpt lat="37.8195606731" lon="-7.5003996212">
        <ele>240.47</ele>
        <time>2021-05-29T14:47:53Z</time>
      </trkpt>
      <trkpt lat="37.8201299720" lon="-7.5006163772">
        <ele>236.14</ele>
        <time>2021-05-29T14:47:58Z</time>
      </trkpt>
      <trkpt lat="37.8202090971" lon="-7.5006012060">
        <ele>235.66</ele>
        <time>2021-05-29T14:47:59Z</time>
      </trkpt>
      <trkpt lat="37.8202704526" lon="-7.5005520880">
        <ele>234.70</ele>
        <time>2021-05-29T14:48:00Z</time>
      </trkpt>
      <trkpt lat="37.8203126136" lon="-7.5004753936">
        <ele>234.70</ele>
        <time>2021-05-29T14:48:01Z</time>
      </trkpt>
      <trkpt lat="37.8203416150" lon="-7.5003660098">
        <ele>235.18</ele>
        <time>2021-05-29T14:48:02Z</time>
      </trkpt>
      <trkpt lat="37.8203644138" lon="-7.5002295524">
        <ele>236.14</ele>
        <time>2021-05-29T14:48:03Z</time>
      </trkpt>
      <trkpt lat="37.8204986919" lon="-7.4995627720">
        <ele>238.54</ele>
        <time>2021-05-29T14:48:07Z</time>
      </trkpt>
      <trkpt lat="37.8208141867" lon="-7.4980663508">
        <ele>239.02</ele>
        <time>2021-05-29T14:48:14Z</time>
      </trkpt>
      <trkpt lat="37.8208287712" lon="-7.4978210963">
        <ele>239.02</ele>
        <time>2021-05-29T14:48:15Z</time>
      </trkpt>
      <trkpt lat="37.8208260052" lon="-7.4975666218">
        <ele>239.51</ele>
        <time>2021-05-29T14:48:16Z</time>
      </trkpt>
      <trkpt lat="37.8207532503" lon="-7.4965136033">
        <ele>242.39</ele>
        <time>2021-05-29T14:48:20Z</time>
      </trkpt>
      <trkpt lat="37.8207291942" lon="-7.4958398659">
        <ele>239.51</ele>
        <time>2021-05-29T14:48:23Z</time>
      </trkpt>
      <trkpt lat="37.8207612969" lon="-7.4956325814">
        <ele>240.95</ele>
        <time>2021-05-29T14:48:24Z</time>
      </trkpt>
      <trkpt lat="37.8208206408" lon="-7.4954241235">
        <ele>241.91</ele>
        <time>2021-05-29T14:48:25Z</time>
      </trkpt>
      <trkpt lat="37.8209868539" lon="-7.4949848279">
        <ele>245.75</ele>
        <time>2021-05-29T14:48:27Z</time>
      </trkpt>
      <trkpt lat="37.8212637082" lon="-7.4942666665">
        <ele>247.68</ele>
        <time>2021-05-29T14:48:30Z</time>
      </trkpt>
      <trkpt lat="37.8213994112" lon="-7.4938297179">
        <ele>245.75</ele>
        <time>2021-05-29T14:48:32Z</time>
      </trkpt>
      <trkpt lat="37.8214290831" lon="-7.4936222658">
        <ele>245.27</ele>
        <time>2021-05-29T14:48:33Z</time>
      </trkpt>
      <trkpt lat="37.8214300051" lon="-7.4934138078">
        <ele>245.75</ele>
        <time>2021-05-29T14:48:34Z</time>
      </trkpt>
      <trkpt lat="37.8214089666" lon="-7.4931949563">
        <ele>246.72</ele>
        <time>2021-05-29T14:48:35Z</time>
      </trkpt>
      <trkpt lat="37.8213715833" lon="-7.4929660466">
        <ele>248.16</ele>
        <time>2021-05-29T14:48:36Z</time>
      </trkpt>
      <trkpt lat="37.8213235550" lon="-7.4927267432">
        <ele>250.08</ele>
        <time>2021-05-29T14:48:37Z</time>
      </trkpt>
      <trkpt lat="37.8211673163" lon="-7.4919411074">
        <ele>253.44</ele>
        <time>2021-05-29T14:48:40Z</time>
      </trkpt>
      <trkpt lat="37.8209249955" lon="-7.4905951414">
        <ele>255.85</ele>
        <time>2021-05-29T14:48:45Z</time>
      </trkpt>
      <trkpt lat="37.8209126741" lon="-7.4903213046">
        <ele>256.81</ele>
        <time>2021-05-29T14:48:46Z</time>
      </trkpt>
      <trkpt lat="37.8209156916" lon="-7.4900366552">
        <ele>257.77</ele>
        <time>2021-05-29T14:48:47Z</time>
      </trkpt>
      <trkpt lat="37.8209243249" lon="-7.4897542689">
        <ele>258.25</ele>
        <time>2021-05-29T14:48:48Z</time>
      </trkpt>
      <trkpt lat="37.8209771309" lon="-7.4876130279">
        <ele>254.89</ele>
        <time>2021-05-29T14:48:56Z</time>
      </trkpt>
      <trkpt lat="37.8210282605" lon="-7.4852484092">
        <ele>255.37</ele>
        <time>2021-05-29T14:49:06Z</time>
      </trkpt>
      <trkpt lat="37.8209038731" lon="-7.4828623328">
        <ele>258.25</ele>
        <time>2021-05-29T14:49:15Z</time>
      </trkpt>
      <trkpt lat="37.8206991032" lon="-7.4814215675">
        <ele>256.33</ele>
        <time>2021-05-29T14:49:21Z</time>
      </trkpt>
      <trkpt lat="37.8207006119" lon="-7.4812121876">
        <ele>255.85</ele>
        <time>2021-05-29T14:49:22Z</time>
      </trkpt>
      <trkpt lat="37.8207289428" lon="-7.4810022209">
        <ele>254.41</ele>
        <time>2021-05-29T14:49:23Z</time>
      </trkpt>
      <trkpt lat="37.8207903821" lon="-7.4807992950">
        <ele>254.89</ele>
        <time>2021-05-29T14:49:24Z</time>
      </trkpt>
      <trkpt lat="37.8208808228" lon="-7.4806086067">
        <ele>253.93</ele>
        <time>2021-05-29T14:49:25Z</time>
      </trkpt>
      <trkpt lat="37.8209969122" lon="-7.4804288149">
        <ele>252.96</ele>
        <time>2021-05-29T14:49:26Z</time>
      </trkpt>
      <trkpt lat="37.8211325314" lon="-7.4802555609">
        <ele>253.44</ele>
        <time>2021-05-29T14:49:27Z</time>
      </trkpt>
      <trkpt lat="37.8212741856" lon="-7.4800872523">
        <ele>252.96</ele>
        <time>2021-05-29T14:49:28Z</time>
      </trkpt>
      <trkpt lat="37.8217293229" lon="-7.4795421772">
        <ele>253.93</ele>
        <time>2021-05-29T14:49:31Z</time>
      </trkpt>
      <trkpt lat="37.8228008654" lon="-7.4781491049">
        <ele>254.41</ele>
        <time>2021-05-29T14:49:39Z</time>
      </trkpt>
      <trkpt lat="37.8228783142" lon="-7.4779717438">
        <ele>256.33</ele>
        <time>2021-05-29T14:49:40Z</time>
      </trkpt>
      <trkpt lat="37.8230202198" lon="-7.4775668979">
        <ele>260.65</ele>
        <time>2021-05-29T14:49:42Z</time>
      </trkpt>
      <trkpt lat="37.8232583497" lon="-7.4768900592">
        <ele>262.10</ele>
        <time>2021-05-29T14:49:45Z</time>
      </trkpt>
      <trkpt lat="37.8235520516" lon="-7.4760243762">
        <ele>261.62</ele>
        <time>2021-05-29T14:49:49Z</time>
      </trkpt>
      <trkpt lat="37.8235893510" lon="-7.4758126494">
        <ele>260.17</ele>
        <time>2021-05-29T14:49:50Z</time>
      </trkpt>
      <trkpt lat="37.8236038517" lon="-7.4755850807">
        <ele>260.65</ele>
        <time>2021-05-29T14:49:51Z</time>
      </trkpt>
      <trkpt lat="37.8235655464" lon="-7.4744201638">
        <ele>258.25</ele>
        <time>2021-05-29T14:49:56Z</time>
      </trkpt>
      <trkpt lat="37.8235440888" lon="-7.4738417286">
        <ele>254.89</ele>
        <time>2021-05-29T14:49:59Z</time>
      </trkpt>
      <trkpt lat="37.8235325217" lon="-7.4732981622">
        <ele>256.81</ele>
        <time>2021-05-29T14:50:02Z</time>
      </trkpt>
      <trkpt lat="37.8235071246" lon="-7.4728640635">
        <ele>255.37</ele>
        <time>2021-05-29T14:50:05Z</time>
      </trkpt>
      <trkpt lat="37.8234774526" lon="-7.4727484770">
        <ele>255.37</ele>
        <time>2021-05-29T14:50:06Z</time>
      </trkpt>
      <trkpt lat="37.8234277479" lon="-7.4726375006">
        <ele>255.37</ele>
        <time>2021-05-29T14:50:07Z</time>
      </trkpt>
      <trkpt lat="37.8233513888" lon="-7.4725375883">
        <ele>254.41</ele>
        <time>2021-05-29T14:50:08Z</time>
      </trkpt>
      <trkpt lat="37.8232509736" lon="-7.4724517576">
        <ele>254.89</ele>
        <time>2021-05-29T14:50:09Z</time>
      </trkpt>
      <trkpt lat="37.8231352195" lon="-7.4723678548">
        <ele>255.37</ele>
        <time>2021-05-29T14:50:10Z</time>
      </trkpt>
      <trkpt lat="37.8225497436" lon="-7.4719623383">
        <ele>258.25</ele>
        <time>2021-05-29T14:50:14Z</time>
      </trkpt>
      <trkpt lat="37.8214967251" lon="-7.4712176062">
        <ele>261.62</ele>
        <time>2021-05-29T14:50:20Z</time>
      </trkpt>
      <trkpt lat="37.8211014345" lon="-7.4709369801">
        <ele>264.02</ele>
        <time>2021-05-29T14:50:22Z</time>
      </trkpt>
      <trkpt lat="37.8196844738" lon="-7.4700596463">
        <ele>267.38</ele>
        <time>2021-05-29T14:50:29Z</time>
      </trkpt>
      <trkpt lat="37.8188461997" lon="-7.4696463346">
        <ele>262.58</ele>
        <time>2021-05-29T14:50:33Z</time>
      </trkpt>
      <trkpt lat="37.8186661564" lon="-7.4695342686">
        <ele>263.06</ele>
        <time>2021-05-29T14:50:34Z</time>
      </trkpt>
      <trkpt lat="37.8184972610" lon="-7.4694028404">
        <ele>262.10</ele>
        <time>2021-05-29T14:50:35Z</time>
      </trkpt>
      <trkpt lat="37.8183395974" lon="-7.4692460150">
        <ele>262.10</ele>
        <time>2021-05-29T14:50:36Z</time>
      </trkpt>
      <trkpt lat="37.8181945067" lon="-7.4690613616">
        <ele>262.10</ele>
        <time>2021-05-29T14:50:37Z</time>
      </trkpt>
      <trkpt lat="37.8180676885" lon="-7.4688513950">
        <ele>262.10</ele>
        <time>2021-05-29T14:50:38Z</time>
      </trkpt>
      <trkpt lat="37.8179582208" lon="-7.4686172884">
        <ele>261.62</ele>
        <time>2021-05-29T14:50:39Z</time>
      </trkpt>
      <trkpt lat="37.8178653494" lon="-7.4683611374">
        <ele>262.10</ele>
        <time>2021-05-29T14:50:40Z</time>
      </trkpt>
      <trkpt lat="37.8177858051" lon="-7.4680850375">
        <ele>262.58</ele>
        <time>2021-05-29T14:50:41Z</time>
      </trkpt>
      <trkpt lat="37.8177176602" lon="-7.4677927606">
        <ele>263.54</ele>
        <time>2021-05-29T14:50:42Z</time>
      </trkpt>
      <trkpt lat="37.8173254710" lon="-7.4659411144">
        <ele>260.17</ele>
        <time>2021-05-29T14:50:48Z</time>
      </trkpt>
      <trkpt lat="37.8172538057" lon="-7.4656641763">
        <ele>260.17</ele>
        <time>2021-05-29T14:50:49Z</time>
      </trkpt>
      <trkpt lat="37.8171640355" lon="-7.4654007331">
        <ele>260.65</ele>
        <time>2021-05-29T14:50:50Z</time>
      </trkpt>
      <trkpt lat="37.8170533106" lon="-7.4651535507">
        <ele>262.58</ele>
        <time>2021-05-29T14:50:51Z</time>
      </trkpt>
      <trkpt lat="37.8169225529" lon="-7.4649248086">
        <ele>263.06</ele>
        <time>2021-05-29T14:50:52Z</time>
      </trkpt>
      <trkpt lat="37.8167713434" lon="-7.4647174403">
        <ele>263.54</ele>
        <time>2021-05-29T14:50:53Z</time>
      </trkpt>
      <trkpt lat="37.8165999334" lon="-7.4645324517">
        <ele>264.50</ele>
        <time>2021-05-29T14:50:54Z</time>
      </trkpt>
      <trkpt lat="37.8164105862" lon="-7.4643697590">
        <ele>264.98</ele>
        <time>2021-05-29T14:50:55Z</time>
      </trkpt>
      <trkpt lat="37.8162103426" lon="-7.4642286077">
        <ele>264.98</ele>
        <time>2021-05-29T14:50:56Z</time>
      </trkpt>
      <trkpt lat="37.8160041478" lon="-7.4641097523">
        <ele>264.50</ele>
        <time>2021-05-29T14:50:57Z</time>
      </trkpt>
      <trkpt lat="37.8157893196" lon="-7.4640142825">
        <ele>263.54</ele>
        <time>2021-05-29T14:50:58Z</time>
      </trkpt>
      <trkpt lat="37.8155633435" lon="-7.4639432877">
        <ele>263.54</ele>
        <time>2021-05-29T14:50:59Z</time>
      </trkpt>
      <trkpt lat="37.8153265547" lon="-7.4638883024">
        <ele>264.50</ele>
        <time>2021-05-29T14:51:00Z</time>
      </trkpt>
      <trkpt lat="37.8143115062" lon="-7.4637074210">
        <ele>267.86</ele>
        <time>2021-05-29T14:51:04Z</time>
      </trkpt>
      <trkpt lat="37.8135020658" lon="-7.4635619950">
        <ele>266.42</ele>
        <time>2021-05-29T14:51:07Z</time>
      </trkpt>
      <trkpt lat="37.8107809648" lon="-7.4630450830">
        <ele>262.58</ele>
        <time>2021-05-29T14:51:17Z</time>
      </trkpt>
      <trkpt lat="37.8102733567" lon="-7.4628309254">
        <ele>262.10</ele>
        <time>2021-05-29T14:51:19Z</time>
      </trkpt>
      <trkpt lat="37.8092337493" lon="-7.4622505624">
        <ele>259.21</ele>
        <time>2021-05-29T14:51:23Z</time>
      </trkpt>
      <trkpt lat="37.8085382190" lon="-7.4618565291">
        <ele>254.41</ele>
        <time>2021-05-29T14:51:26Z</time>
      </trkpt>
      <trkpt lat="37.8083218820" lon="-7.4617515039">
        <ele>254.41</ele>
        <time>2021-05-29T14:51:27Z</time>
      </trkpt>
      <trkpt lat="37.8081090655" lon="-7.4616763182">
        <ele>253.93</ele>
        <time>2021-05-29T14:51:28Z</time>
      </trkpt>
      <trkpt lat="37.8078923095" lon="-7.4616316427">
        <ele>252.48</ele>
        <time>2021-05-29T14:51:29Z</time>
      </trkpt>
      <trkpt lat="37.8076683450" lon="-7.4616141245">
        <ele>251.52</ele>
        <time>2021-05-29T14:51:30Z</time>
      </trkpt>
      <trkpt lat="37.8074345738" lon="-7.4616210815">
        <ele>252.00</ele>
        <time>2021-05-29T14:51:31Z</time>
      </trkpt>
      <trkpt lat="37.8071911633" lon="-7.4616493285">
        <ele>251.52</ele>
        <time>2021-05-29T14:51:32Z</time>
      </trkpt>
      <trkpt lat="37.8061234765" lon="-7.4618315510">
        <ele>253.93</ele>
        <time>2021-05-29T14:51:36Z</time>
      </trkpt>
      <trkpt lat="37.8046708927" lon="-7.4620519951">
        <ele>250.56</ele>
        <time>2021-05-29T14:51:41Z</time>
      </trkpt>
      <trkpt lat="37.8035906330" lon="-7.4622136820">
        <ele>246.72</ele>
        <time>2021-05-29T14:51:45Z</time>
      </trkpt>
      <trkpt lat="37.8031252697" lon="-7.4622096587">
        <ele>245.75</ele>
        <time>2021-05-29T14:51:47Z</time>
      </trkpt>
      <trkpt lat="37.8029019758" lon="-7.4621589482">
        <ele>246.72</ele>
        <time>2021-05-29T14:51:48Z</time>
      </trkpt>
      <trkpt lat="37.8026846331" lon="-7.4620814994">
        <ele>246.23</ele>
        <time>2021-05-29T14:51:49Z</time>
      </trkpt>
      <trkpt lat="37.8024727385" lon="-7.4619703554">
        <ele>247.20</ele>
        <time>2021-05-29T14:51:50Z</time>
      </trkpt>
      <trkpt lat="37.8022678848" lon="-7.4618292879">
        <ele>246.72</ele>
        <time>2021-05-29T14:51:51Z</time>
      </trkpt>
      <trkpt lat="37.8020661324" lon="-7.4616682716">
        <ele>248.16</ele>
        <time>2021-05-29T14:51:52Z</time>
      </trkpt>
      <trkpt lat="37.8018649668" lon="-7.4614918325">
        <ele>249.60</ele>
        <time>2021-05-29T14:51:53Z</time>
      </trkpt>
      <trkpt lat="37.7998740133" lon="-7.4596719537">
        <ele>252.96</ele>
        <time>2021-05-29T14:52:03Z</time>
      </trkpt>
      <trkpt lat="37.7979476843" lon="-7.4577547610">
        <ele>249.60</ele>
        <time>2021-05-29T14:52:14Z</time>
      </trkpt>
      <trkpt lat="37.7977533080" lon="-7.4576521665">
        <ele>249.60</ele>
        <time>2021-05-29T14:52:15Z</time>
      </trkpt>
      <trkpt lat="37.7975469455" lon="-7.4575826805">
        <ele>249.60</ele>
        <time>2021-05-29T14:52:16Z</time>
      </trkpt>
      <trkpt lat="37.7973295189" lon="-7.4575465545">
        <ele>249.12</ele>
        <time>2021-05-29T14:52:17Z</time>
      </trkpt>
      <trkpt lat="37.7971056383" lon="-7.4575476442">
        <ele>248.64</ele>
        <time>2021-05-29T14:52:18Z</time>
      </trkpt>
      <trkpt lat="37.7968867868" lon="-7.4575890508">
        <ele>249.60</ele>
        <time>2021-05-29T14:52:19Z</time>
      </trkpt>
      <trkpt lat="37.7966751438" lon="-7.4576650746">
        <ele>249.60</ele>
        <time>2021-05-29T14:52:20Z</time>
      </trkpt>
      <trkpt lat="37.7964680269" lon="-7.4577709381">
        <ele>249.60</ele>
        <time>2021-05-29T14:52:21Z</time>
      </trkpt>
      <trkpt lat="37.7962637600" lon="-7.4578968342">
        <ele>250.56</ele>
        <time>2021-05-29T14:52:22Z</time>
      </trkpt>
      <trkpt lat="37.7950287703" lon="-7.4586772732">
        <ele>246.23</ele>
        <time>2021-05-29T14:52:28Z</time>
      </trkpt>
      <trkpt lat="37.7948245034" lon="-7.4587917700">
        <ele>246.23</ele>
        <time>2021-05-29T14:52:29Z</time>
      </trkpt>
      <trkpt lat="37.7925874572" lon="-7.4598842673">
        <ele>243.35</ele>
        <time>2021-05-29T14:52:39Z</time>
      </trkpt>
      <trkpt lat="37.7911374718" lon="-7.4601790588">
        <ele>243.35</ele>
        <time>2021-05-29T14:52:45Z</time>
      </trkpt>
      <trkpt lat="37.7894019149" lon="-7.4602955673">
        <ele>241.91</ele>
        <time>2021-05-29T14:52:52Z</time>
      </trkpt>
      <trkpt lat="37.7886876091" lon="-7.4603418354">
        <ele>238.06</ele>
        <time>2021-05-29T14:52:55Z</time>
      </trkpt>
      <trkpt lat="37.7882428654" lon="-7.4603121635">
        <ele>237.58</ele>
        <time>2021-05-29T14:52:57Z</time>
      </trkpt>
      <trkpt lat="37.7880157158" lon="-7.4602503888">
        <ele>237.10</ele>
        <time>2021-05-29T14:52:58Z</time>
      </trkpt>
      <trkpt lat="37.7877851296" lon="-7.4601584394">
        <ele>237.10</ele>
        <time>2021-05-29T14:52:59Z</time>
      </trkpt>
      <trkpt lat="37.7863644809" lon="-7.4594772421">
        <ele>236.14</ele>
        <time>2021-05-29T14:53:05Z</time>
      </trkpt>
      <trkpt lat="37.7852102090" lon="-7.4590118788">
        <ele>232.78</ele>
        <time>2021-05-29T14:53:10Z</time>
      </trkpt>
      <trkpt lat="37.7850028407" lon="-7.4589446560">
        <ele>233.26</ele>
        <time>2021-05-29T14:53:11Z</time>
      </trkpt>
      <trkpt lat="37.7838546038" lon="-7.4586130679">
        <ele>229.89</ele>
        <time>2021-05-29T14:53:17Z</time>
      </trkpt>
      <trkpt lat="37.7834723890" lon="-7.4584745988">
        <ele>228.45</ele>
        <time>2021-05-29T14:53:19Z</time>
      </trkpt>
      <trkpt lat="37.7823000960" lon="-7.4579166993">
        <ele>224.61</ele>
        <time>2021-05-29T14:53:25Z</time>
      </trkpt>
      <trkpt lat="37.7814662643" lon="-7.4575627316">
        <ele>221.24</ele>
        <time>2021-05-29T14:53:29Z</time>
      </trkpt>
      <trkpt lat="37.7812443115" lon="-7.4575198162">
        <ele>221.24</ele>
        <time>2021-05-29T14:53:30Z</time>
      </trkpt>
      <trkpt lat="37.7810141444" lon="-7.4575049803">
        <ele>220.28</ele>
        <time>2021-05-29T14:53:31Z</time>
      </trkpt>
      <trkpt lat="37.7807776071" lon="-7.4575211573">
        <ele>220.76</ele>
        <time>2021-05-29T14:53:32Z</time>
      </trkpt>
      <trkpt lat="37.7805338614" lon="-7.4575561099">
        <ele>219.80</ele>
        <time>2021-05-29T14:53:33Z</time>
      </trkpt>
      <trkpt lat="37.7789806947" lon="-7.4578129314">
        <ele>216.43</ele>
        <time>2021-05-29T14:53:39Z</time>
      </trkpt>
      <trkpt lat="37.7784647048" lon="-7.4578975048">
        <ele>215.47</ele>
        <time>2021-05-29T14:53:41Z</time>
      </trkpt>
      <trkpt lat="37.7779673226" lon="-7.4579793960">
        <ele>211.15</ele>
        <time>2021-05-29T14:53:43Z</time>
      </trkpt>
      <trkpt lat="37.7775286138" lon="-7.4580459483">
        <ele>205.86</ele>
        <time>2021-05-29T14:53:45Z</time>
      </trkpt>
      <trkpt lat="37.7771531045" lon="-7.4580809008">
        <ele>202.98</ele>
        <time>2021-05-29T14:53:47Z</time>
      </trkpt>
      <trkpt lat="37.7769760787" lon="-7.4580524024">
        <ele>202.01</ele>
        <time>2021-05-29T14:53:48Z</time>
      </trkpt>
      <trkpt lat="37.7768033277" lon="-7.4579866044">
        <ele>203.46</ele>
        <time>2021-05-29T14:53:49Z</time>
      </trkpt>
      <trkpt lat="37.7766402997" lon="-7.4578912184">
        <ele>203.94</ele>
        <time>2021-05-29T14:53:50Z</time>
      </trkpt>
      <trkpt lat="37.7764894255" lon="-7.4577740394">
        <ele>203.94</ele>
        <time>2021-05-29T14:53:51Z</time>
      </trkpt>
      <trkpt lat="37.7763536386" lon="-7.4576379173">
        <ele>204.42</ele>
        <time>2021-05-29T14:53:52Z</time>
      </trkpt>
      <trkpt lat="37.7762376331" lon="-7.4574765656">
        <ele>204.42</ele>
        <time>2021-05-29T14:53:53Z</time>
      </trkpt>
      <trkpt lat="37.7761433367" lon="-7.4572814349">
        <ele>204.42</ele>
        <time>2021-05-29T14:53:54Z</time>
      </trkpt>
      <trkpt lat="37.7760686539" lon="-7.4570614100">
        <ele>204.42</ele>
        <time>2021-05-29T14:53:55Z</time>
      </trkpt>
      <trkpt lat="37.7760067955" lon="-7.4568216875">
        <ele>207.78</ele>
        <time>2021-05-29T14:53:56Z</time>
      </trkpt>
      <trkpt lat="37.7758288477" lon="-7.4560083915">
        <ele>211.15</ele>
        <time>2021-05-29T14:53:59Z</time>
      </trkpt>
      <trkpt lat="37.7757078130" lon="-7.4554424454">
        <ele>213.55</ele>
        <time>2021-05-29T14:54:01Z</time>
      </trkpt>
      <trkpt lat="37.7755897120" lon="-7.4548977055">
        <ele>212.59</ele>
        <time>2021-05-29T14:54:03Z</time>
      </trkpt>
      <trkpt lat="37.7749175671" lon="-7.4527226854">
        <ele>209.22</ele>
        <time>2021-05-29T14:54:11Z</time>
      </trkpt>
      <trkpt lat="37.7746526990" lon="-7.4519827310">
        <ele>205.86</ele>
        <time>2021-05-29T14:54:14Z</time>
      </trkpt>
      <trkpt lat="37.7745475899" lon="-7.4517596047">
        <ele>203.94</ele>
        <time>2021-05-29T14:54:15Z</time>
      </trkpt>
      <trkpt lat="37.7744201012" lon="-7.4515444413">
        <ele>203.94</ele>
        <time>2021-05-29T14:54:16Z</time>
      </trkpt>
      <trkpt lat="37.7742681373" lon="-7.4513387494">
        <ele>202.49</ele>
        <time>2021-05-29T14:54:17Z</time>
      </trkpt>
      <trkpt lat="37.7740966436" lon="-7.4511489831">
        <ele>202.98</ele>
        <time>2021-05-29T14:54:18Z</time>
      </trkpt>
      <trkpt lat="37.7739076316" lon="-7.4509816803">
        <ele>201.53</ele>
        <time>2021-05-29T14:54:19Z</time>
      </trkpt>
      <trkpt lat="37.7737062983" lon="-7.4508342426">
        <ele>201.53</ele>
        <time>2021-05-29T14:54:20Z</time>
      </trkpt>
      <trkpt lat="37.7735054679" lon="-7.4506982882">
        <ele>199.13</ele>
        <time>2021-05-29T14:54:21Z</time>
      </trkpt>
      <trkpt lat="37.7733150311" lon="-7.4505716376">
        <ele>193.36</ele>
        <time>2021-05-29T14:54:22Z</time>
      </trkpt>
      <trkpt lat="37.7728341613" lon="-7.4501864053">
        <ele>188.56</ele>
        <time>2021-05-29T14:54:25Z</time>
      </trkpt>
      <trkpt lat="37.7725825366" lon="-7.4498295039">
        <ele>187.11</ele>
        <time>2021-05-29T14:54:27Z</time>
      </trkpt>
      <trkpt lat="37.7723789401" lon="-7.4491504859">
        <ele>183.75</ele>
        <time>2021-05-29T14:54:30Z</time>
      </trkpt>
      <trkpt lat="37.7723662835" lon="-7.4488950893">
        <ele>182.79</ele>
        <time>2021-05-29T14:54:31Z</time>
      </trkpt>
      <trkpt lat="37.7723750006" lon="-7.4486313947">
        <ele>181.83</ele>
        <time>2021-05-29T14:54:32Z</time>
      </trkpt>
      <trkpt lat="37.7724292316" lon="-7.4478555657">
        <ele>176.54</ele>
        <time>2021-05-29T14:54:35Z</time>
      </trkpt>
      <trkpt lat="37.7724539582" lon="-7.4476067908">
        <ele>175.10</ele>
        <time>2021-05-29T14:54:36Z</time>
      </trkpt>
      <trkpt lat="37.7725606598" lon="-7.4471013620">
        <ele>174.14</ele>
        <time>2021-05-29T14:54:38Z</time>
      </trkpt>
      <trkpt lat="37.7726512682" lon="-7.4468562752">
        <ele>172.21</ele>
        <time>2021-05-29T14:54:39Z</time>
      </trkpt>
      <trkpt lat="37.7727606520" lon="-7.4466157146">
        <ele>171.25</ele>
        <time>2021-05-29T14:54:40Z</time>
      </trkpt>
      <trkpt lat="37.7728828602" lon="-7.4463716336">
        <ele>172.69</ele>
        <time>2021-05-29T14:54:41Z</time>
      </trkpt>
      <trkpt lat="37.7732556034" lon="-7.4456074554">
        <ele>175.58</ele>
        <time>2021-05-29T14:54:44Z</time>
      </trkpt>
      <trkpt lat="37.7735637221" lon="-7.4447784852">
        <ele>179.42</ele>
        <time>2021-05-29T14:54:47Z</time>
      </trkpt>
      <trkpt lat="37.7737024426" lon="-7.4441754073">
        <ele>179.90</ele>
        <time>2021-05-29T14:54:49Z</time>
      </trkpt>
      <trkpt lat="37.7738295961" lon="-7.4435495306">
        <ele>185.67</ele>
        <time>2021-05-29T14:54:51Z</time>
      </trkpt>
      <trkpt lat="37.7739585098" lon="-7.4429252464">
        <ele>186.15</ele>
        <time>2021-05-29T14:54:53Z</time>
      </trkpt>
      <trkpt lat="37.7740973141" lon="-7.4420270417">
        <ele>190.00</ele>
        <time>2021-05-29T14:54:56Z</time>
      </trkpt>
      <trkpt lat="37.7740935422" lon="-7.4417356029">
        <ele>190.00</ele>
        <time>2021-05-29T14:54:57Z</time>
      </trkpt>
      <trkpt lat="37.7740653791" lon="-7.4414501991">
        <ele>191.92</ele>
        <time>2021-05-29T14:54:58Z</time>
      </trkpt>
      <trkpt lat="37.7738927957" lon="-7.4402858689">
        <ele>195.28</ele>
        <time>2021-05-29T14:55:02Z</time>
      </trkpt>
      <trkpt lat="37.7738522273" lon="-7.4399876408">
        <ele>195.28</ele>
        <time>2021-05-29T14:55:03Z</time>
      </trkpt>
      <trkpt lat="37.7736806497" lon="-7.4387777131">
        <ele>198.65</ele>
        <time>2021-05-29T14:55:07Z</time>
      </trkpt>
      <trkpt lat="37.7733285259" lon="-7.4362958316">
        <ele>200.09</ele>
        <time>2021-05-29T14:55:15Z</time>
      </trkpt>
      <trkpt lat="37.7732344810" lon="-7.4348274898">
        <ele>196.73</ele>
        <time>2021-05-29T14:55:20Z</time>
      </trkpt>
      <trkpt lat="37.7732766420" lon="-7.4332619179">
        <ele>198.65</ele>
        <time>2021-05-29T14:55:27Z</time>
      </trkpt>
      <trkpt lat="37.7732482273" lon="-7.4330852274">
        <ele>198.65</ele>
        <time>2021-05-29T14:55:28Z</time>
      </trkpt>
      <trkpt lat="37.7731988579" lon="-7.4329181761">
        <ele>198.17</ele>
        <time>2021-05-29T14:55:29Z</time>
      </trkpt>
      <trkpt lat="37.7731340658" lon="-7.4327652901">
        <ele>199.13</ele>
        <time>2021-05-29T14:55:30Z</time>
      </trkpt>
      <trkpt lat="37.7730621491" lon="-7.4326317664">
        <ele>198.65</ele>
        <time>2021-05-29T14:55:31Z</time>
      </trkpt>
      <trkpt lat="37.7729867958" lon="-7.4325164314">
        <ele>198.17</ele>
        <time>2021-05-29T14:55:32Z</time>
      </trkpt>
      <trkpt lat="37.7729082573" lon="-7.4324177764">
        <ele>197.69</ele>
        <time>2021-05-29T14:55:33Z</time>
      </trkpt>
      <trkpt lat="37.7728263661" lon="-7.4323269166">
        <ele>197.21</ele>
        <time>2021-05-29T14:55:34Z</time>
      </trkpt>
      <trkpt lat="37.7721553948" lon="-7.4315921590">
        <ele>200.57</ele>
        <time>2021-05-29T14:55:40Z</time>
      </trkpt>
      <trkpt lat="37.7715313621" lon="-7.4309465010">
        <ele>196.73</ele>
        <time>2021-05-29T14:55:44Z</time>
      </trkpt>
      <trkpt lat="37.7713701781" lon="-7.4308158271">
        <ele>195.77</ele>
        <time>2021-05-29T14:55:45Z</time>
      </trkpt>
      <trkpt lat="37.7711997740" lon="-7.4307138193">
        <ele>195.28</ele>
        <time>2021-05-29T14:55:46Z</time>
      </trkpt>
      <trkpt lat="37.7710165456" lon="-7.4306393880">
        <ele>194.80</ele>
        <time>2021-05-29T14:55:47Z</time>
      </trkpt>
      <trkpt lat="37.7708256058" lon="-7.4305916112">
        <ele>194.80</ele>
        <time>2021-05-29T14:55:48Z</time>
      </trkpt>
      <trkpt lat="37.7706322353" lon="-7.4305678066">
        <ele>194.80</ele>
        <time>2021-05-29T14:55:49Z</time>
      </trkpt>
      <trkpt lat="37.7704340033" lon="-7.4305586703">
        <ele>194.80</ele>
        <time>2021-05-29T14:55:50Z</time>
      </trkpt>
      <trkpt lat="37.7693923004" lon="-7.4304837361">
        <ele>192.40</ele>
        <time>2021-05-29T14:55:55Z</time>
      </trkpt>
      <trkpt lat="37.7691900451" lon="-7.4304098915">
        <ele>192.40</ele>
        <time>2021-05-29T14:55:56Z</time>
      </trkpt>
      <trkpt lat="37.7689966746" lon="-7.4303020164">
        <ele>191.44</ele>
        <time>2021-05-29T14:55:57Z</time>
      </trkpt>
      <trkpt lat="37.7688147873" lon="-7.4301613681">
        <ele>190.96</ele>
        <time>2021-05-29T14:55:58Z</time>
      </trkpt>
      <trkpt lat="37.7686439641" lon="-7.4299932271">
        <ele>189.04</ele>
        <time>2021-05-29T14:55:59Z</time>
      </trkpt>
      <trkpt lat="37.7684857976" lon="-7.4297985155">
        <ele>189.04</ele>
        <time>2021-05-29T14:56:00Z</time>
      </trkpt>
      <trkpt lat="37.7683429699" lon="-7.4295800831">
        <ele>188.56</ele>
        <time>2021-05-29T14:56:01Z</time>
      </trkpt>
      <trkpt lat="37.7682127152" lon="-7.4293421209">
        <ele>187.59</ele>
        <time>2021-05-29T14:56:02Z</time>
      </trkpt>
      <trkpt lat="37.7680858131" lon="-7.4290922564">
        <ele>187.11</ele>
        <time>2021-05-29T14:56:03Z</time>
      </trkpt>
      <trkpt lat="37.7674236428" lon="-7.4277930614">
        <ele>182.79</ele>
        <time>2021-05-29T14:56:08Z</time>
      </trkpt>
      <trkpt lat="37.7671483811" lon="-7.4272720423">
        <ele>178.94</ele>
        <time>2021-05-29T14:56:10Z</time>
      </trkpt>
      <trkpt lat="37.7666878793" lon="-7.4265424814">
        <ele>175.58</ele>
        <time>2021-05-29T14:56:13Z</time>
      </trkpt>
      <trkpt lat="37.7663553692" lon="-7.4261044431">
        <ele>170.77</ele>
        <time>2021-05-29T14:56:15Z</time>
      </trkpt>
      <trkpt lat="37.7660529502" lon="-7.4256946519">
        <ele>165.96</ele>
        <time>2021-05-29T14:56:17Z</time>
      </trkpt>
      <trkpt lat="37.7659200132" lon="-7.4254762195">
        <ele>165.00</ele>
        <time>2021-05-29T14:56:18Z</time>
      </trkpt>
      <trkpt lat="37.7658048458" lon="-7.4252362456">
        <ele>164.52</ele>
        <time>2021-05-29T14:56:19Z</time>
      </trkpt>
      <trkpt lat="37.7657056041" lon="-7.4249764904">
        <ele>164.04</ele>
        <time>2021-05-29T14:56:20Z</time>
      </trkpt>
      <trkpt lat="37.7656237967" lon="-7.4246996362">
        <ele>163.08</ele>
        <time>2021-05-29T14:56:21Z</time>
      </trkpt>
      <trkpt lat="37.7655573282" lon="-7.4244165793">
        <ele>158.27</ele>
        <time>2021-05-29T14:56:22Z</time>
      </trkpt>
      <trkpt lat="37.7655047737" lon="-7.4241329357">
        <ele>156.35</ele>
        <time>2021-05-29T14:56:23Z</time>
      </trkpt>
      <trkpt lat="37.7654725034" lon="-7.4238464423">
        <ele>153.95</ele>
        <time>2021-05-29T14:56:24Z</time>
      </trkpt>
      <trkpt lat="37.7654541470" lon="-7.4235709291">
        <ele>150.58</ele>
        <time>2021-05-29T14:56:25Z</time>
      </trkpt>
      <trkpt lat="37.7654387243" lon="-7.4233202264">
        <ele>147.22</ele>
        <time>2021-05-29T14:56:26Z</time>
      </trkpt>
      <trkpt lat="37.7654115669" lon="-7.4230893049">
        <ele>144.34</ele>
        <time>2021-05-29T14:56:27Z</time>
      </trkpt>
      <trkpt lat="37.7653612755" lon="-7.4228733871">
        <ele>140.97</ele>
        <time>2021-05-29T14:56:28Z</time>
      </trkpt>
      <trkpt lat="37.7652815636" lon="-7.4226733111">
        <ele>140.01</ele>
        <time>2021-05-29T14:56:29Z</time>
      </trkpt>
      <trkpt lat="37.7651710901" lon="-7.4224799406">
        <ele>139.53</ele>
        <time>2021-05-29T14:56:30Z</time>
      </trkpt>
      <trkpt lat="37.7650469542" lon="-7.4222931080">
        <ele>138.09</ele>
        <time>2021-05-29T14:56:31Z</time>
      </trkpt>
      <trkpt lat="37.7648243308" lon="-7.4219433311">
        <ele>133.76</ele>
        <time>2021-05-29T14:56:33Z</time>
      </trkpt>
      <trkpt lat="37.7647472173" lon="-7.4217790458">
        <ele>131.36</ele>
        <time>2021-05-29T14:56:34Z</time>
      </trkpt>
      <trkpt lat="37.7646939084" lon="-7.4216159340">
        <ele>130.88</ele>
        <time>2021-05-29T14:56:35Z</time>
      </trkpt>
      <trkpt lat="37.7646704391" lon="-7.4214535765">
        <ele>129.92</ele>
        <time>2021-05-29T14:56:36Z</time>
      </trkpt>
      <trkpt lat="37.7646820899" lon="-7.4212924764">
        <ele>129.43</ele>
        <time>2021-05-29T14:56:37Z</time>
      </trkpt>
      <trkpt lat="37.7647289447" lon="-7.4211385846">
        <ele>129.92</ele>
        <time>2021-05-29T14:56:38Z</time>
      </trkpt>
      <trkpt lat="37.7648075670" lon="-7.4209944159">
        <ele>130.40</ele>
        <time>2021-05-29T14:56:39Z</time>
      </trkpt>
      <trkpt lat="37.7649006061" lon="-7.4208415300">
        <ele>131.84</ele>
        <time>2021-05-29T14:56:40Z</time>
      </trkpt>
      <trkpt lat="37.7652936336" lon="-7.4200795311">
        <ele>135.20</ele>
        <time>2021-05-29T14:56:44Z</time>
      </trkpt>
      <trkpt lat="37.7653603535" lon="-7.4198677205">
        <ele>134.72</ele>
        <time>2021-05-29T14:56:45Z</time>
      </trkpt>
      <trkpt lat="37.7654020116" lon="-7.4196348712">
        <ele>135.20</ele>
        <time>2021-05-29T14:56:46Z</time>
      </trkpt>
      <trkpt lat="37.7654179372" lon="-7.4193873536">
        <ele>138.09</ele>
        <time>2021-05-29T14:56:47Z</time>
      </trkpt>
      <trkpt lat="37.7654180210" lon="-7.4191410094">
        <ele>138.57</ele>
        <time>2021-05-29T14:56:48Z</time>
      </trkpt>
      <trkpt lat="37.7654088847" lon="-7.4189013708">
        <ele>137.61</ele>
        <time>2021-05-29T14:56:49Z</time>
      </trkpt>
      <trkpt lat="37.7653552406" lon="-7.4181722291">
        <ele>140.49</ele>
        <time>2021-05-29T14:56:52Z</time>
      </trkpt>
      <trkpt lat="37.7652634587" lon="-7.4171187077">
        <ele>142.41</ele>
        <time>2021-05-29T14:56:56Z</time>
      </trkpt>
      <trkpt lat="37.7651638817" lon="-7.4159919284">
        <ele>146.26</ele>
        <time>2021-05-29T14:57:00Z</time>
      </trkpt>
      <trkpt lat="37.7651190385" lon="-7.4154551513">
        <ele>143.37</ele>
        <time>2021-05-29T14:57:02Z</time>
      </trkpt>
      <trkpt lat="37.7650462836" lon="-7.4149689171">
        <ele>138.57</ele>
        <time>2021-05-29T14:57:04Z</time>
      </trkpt>
      <trkpt lat="37.7649692539" lon="-7.4147375766">
        <ele>139.05</ele>
        <time>2021-05-29T14:57:05Z</time>
      </trkpt>
      <trkpt lat="37.7648606244" lon="-7.4145127740">
        <ele>138.57</ele>
        <time>2021-05-29T14:57:06Z</time>
      </trkpt>
      <trkpt lat="37.7647286095" lon="-7.4142995384">
        <ele>139.53</ele>
        <time>2021-05-29T14:57:07Z</time>
      </trkpt>
      <trkpt lat="37.7645826805" lon="-7.4140993785">
        <ele>138.57</ele>
        <time>2021-05-29T14:57:08Z</time>
      </trkpt>
      <trkpt lat="37.7641435526" lon="-7.4135186803">
        <ele>134.24</ele>
        <time>2021-05-29T14:57:11Z</time>
      </trkpt>
      <trkpt lat="37.7638735715" lon="-7.4130907003">
        <ele>130.88</ele>
        <time>2021-05-29T14:57:13Z</time>
      </trkpt>
      <trkpt lat="37.7636075299" lon="-7.4126388319">
        <ele>127.51</ele>
        <time>2021-05-29T14:57:15Z</time>
      </trkpt>
      <trkpt lat="37.7631553262" lon="-7.4119901564">
        <ele>124.63</ele>
        <time>2021-05-29T14:57:18Z</time>
      </trkpt>
      <trkpt lat="37.7629747801" lon="-7.4118063413">
        <ele>122.71</ele>
        <time>2021-05-29T14:57:19Z</time>
      </trkpt>
      <trkpt lat="37.7627814095" lon="-7.4116382003">
        <ele>120.30</ele>
        <time>2021-05-29T14:57:20Z</time>
      </trkpt>
      <trkpt lat="37.7625799924" lon="-7.4114802014">
        <ele>119.82</ele>
        <time>2021-05-29T14:57:21Z</time>
      </trkpt>
      <trkpt lat="37.7619651798" lon="-7.4110350385">
        <ele>115.98</ele>
        <time>2021-05-29T14:57:24Z</time>
      </trkpt>
      <trkpt lat="37.7617631759" lon="-7.4108912051">
        <ele>115.98</ele>
        <time>2021-05-29T14:57:25Z</time>
      </trkpt>
      <trkpt lat="37.7609677333" lon="-7.4103169609">
        <ele>117.90</ele>
        <time>2021-05-29T14:57:29Z</time>
      </trkpt>
      <trkpt lat="37.7605678327" lon="-7.4100233428">
        <ele>122.71</ele>
        <time>2021-05-29T14:57:31Z</time>
      </trkpt>
      <trkpt lat="37.7601748891" lon="-7.4097379390">
        <ele>127.51</ele>
        <time>2021-05-29T14:57:33Z</time>
      </trkpt>
      <trkpt lat="37.7597864717" lon="-7.4094615038">
        <ele>130.88</ele>
        <time>2021-05-29T14:57:35Z</time>
      </trkpt>
      <trkpt lat="37.7593968809" lon="-7.4091864098">
        <ele>135.20</ele>
        <time>2021-05-29T14:57:37Z</time>
      </trkpt>
      <trkpt lat="37.7590090502" lon="-7.4089175183">
        <ele>140.01</ele>
        <time>2021-05-29T14:57:39Z</time>
      </trkpt>
      <trkpt lat="37.7586321160" lon="-7.4086632114">
        <ele>144.34</ele>
        <time>2021-05-29T14:57:41Z</time>
      </trkpt>
      <trkpt lat="37.7582846861" lon="-7.4084066413">
        <ele>147.70</ele>
        <time>2021-05-29T14:57:43Z</time>
      </trkpt>
      <trkpt lat="37.7579599712" lon="-7.4081615545">
        <ele>153.47</ele>
        <time>2021-05-29T14:57:45Z</time>
      </trkpt>
      <trkpt lat="37.7576408722" lon="-7.4079164676">
        <ele>157.79</ele>
        <time>2021-05-29T14:57:47Z</time>
      </trkpt>
      <trkpt lat="37.7574805263" lon="-7.4077787530">
        <ele>162.12</ele>
        <time>2021-05-29T14:57:48Z</time>
      </trkpt>
      <trkpt lat="37.7573205996" lon="-7.4076261185">
        <ele>162.12</ele>
        <time>2021-05-29T14:57:49Z</time>
      </trkpt>
      <trkpt lat="37.7568530571" lon="-7.4070679676">
        <ele>166.93</ele>
        <time>2021-05-29T14:57:52Z</time>
      </trkpt>
      <trkpt lat="37.7564225625" lon="-7.4063785560">
        <ele>170.29</ele>
        <time>2021-05-29T14:57:55Z</time>
      </trkpt>
      <trkpt lat="37.7559310477" lon="-7.4055145495">
        <ele>169.81</ele>
        <time>2021-05-29T14:57:59Z</time>
      </trkpt>
      <trkpt lat="37.7558524255" lon="-7.4053042475">
        <ele>169.81</ele>
        <time>2021-05-29T14:58:00Z</time>
      </trkpt>
      <trkpt lat="37.7557975240" lon="-7.4050792772">
        <ele>169.33</ele>
        <time>2021-05-29T14:58:01Z</time>
      </trkpt>
      <trkpt lat="37.7557681035" lon="-7.4048394710">
        <ele>171.73</ele>
        <time>2021-05-29T14:58:02Z</time>
      </trkpt>
      <trkpt lat="37.7557558659" lon="-7.4045886006">
        <ele>171.73</ele>
        <time>2021-05-29T14:58:03Z</time>
      </trkpt>
      <trkpt lat="37.7557530161" lon="-7.4043270014">
        <ele>173.66</ele>
        <time>2021-05-29T14:58:04Z</time>
      </trkpt>
      <trkpt lat="37.7557714563" lon="-7.4034918286">
        <ele>176.54</ele>
        <time>2021-05-29T14:58:07Z</time>
      </trkpt>
      <trkpt lat="37.7557991166" lon="-7.4025792908">
        <ele>179.90</ele>
        <time>2021-05-29T14:58:10Z</time>
      </trkpt>
      <trkpt lat="37.7557853702" lon="-7.4009557161">
        <ele>182.79</ele>
        <time>2021-05-29T14:58:15Z</time>
      </trkpt>
      <trkpt lat="37.7556271199" lon="-7.3974084947">
        <ele>181.83</ele>
        <time>2021-05-29T14:58:26Z</time>
      </trkpt>
      <trkpt lat="37.7553247008" lon="-7.3946718872">
        <ele>181.83</ele>
        <time>2021-05-29T14:58:34Z</time>
      </trkpt>
      <trkpt lat="37.7547067869" lon="-7.3931843508">
        <ele>184.23</ele>
        <time>2021-05-29T14:58:39Z</time>
      </trkpt>
      <trkpt lat="37.7540964168" lon="-7.3920677137">
        <ele>188.56</ele>
        <time>2021-05-29T14:58:43Z</time>
      </trkpt>
      <trkpt lat="37.7530185040" lon="-7.3898832221">
        <ele>185.19</ele>
        <time>2021-05-29T14:58:51Z</time>
      </trkpt>
      <trkpt lat="37.7528822981" lon="-7.3896774463">
        <ele>187.11</ele>
        <time>2021-05-29T14:58:52Z</time>
      </trkpt>
      <trkpt lat="37.7527296636" lon="-7.3894876800">
        <ele>186.63</ele>
        <time>2021-05-29T14:58:53Z</time>
      </trkpt>
      <trkpt lat="37.7525578346" lon="-7.3893147614">
        <ele>186.63</ele>
        <time>2021-05-29T14:58:54Z</time>
      </trkpt>
      <trkpt lat="37.7523654699" lon="-7.3891566787">
        <ele>187.11</ele>
        <time>2021-05-29T14:58:55Z</time>
      </trkpt>
      <trkpt lat="37.7521595266" lon="-7.3890105821">
        <ele>187.59</ele>
        <time>2021-05-29T14:58:56Z</time>
      </trkpt>
      <trkpt lat="37.7519417647" lon="-7.3888740409">
        <ele>188.56</ele>
        <time>2021-05-29T14:58:57Z</time>
      </trkpt>
      <trkpt lat="37.7510008123" lon="-7.3883457296">
        <ele>188.56</ele>
        <time>2021-05-29T14:59:01Z</time>
      </trkpt>
      <trkpt lat="37.7497745398" lon="-7.3877074476">
        <ele>192.88</ele>
        <time>2021-05-29T14:59:06Z</time>
      </trkpt>
      <trkpt lat="37.7490676939" lon="-7.3872232251">
        <ele>196.73</ele>
        <time>2021-05-29T14:59:09Z</time>
      </trkpt>
      <trkpt lat="37.7481577545" lon="-7.3864184786">
        <ele>200.09</ele>
        <time>2021-05-29T14:59:13Z</time>
      </trkpt>
      <trkpt lat="37.7474883758" lon="-7.3858441506">
        <ele>204.90</ele>
        <time>2021-05-29T14:59:16Z</time>
      </trkpt>
      <trkpt lat="37.7470584679" lon="-7.3854552303">
        <ele>205.38</ele>
        <time>2021-05-29T14:59:18Z</time>
      </trkpt>
      <trkpt lat="37.7468458191" lon="-7.3852407373">
        <ele>201.53</ele>
        <time>2021-05-29T14:59:19Z</time>
      </trkpt>
      <trkpt lat="37.7464281488" lon="-7.3847715184">
        <ele>205.38</ele>
        <time>2021-05-29T14:59:21Z</time>
      </trkpt>
      <trkpt lat="37.7462243848" lon="-7.3845234141">
        <ele>202.01</ele>
        <time>2021-05-29T14:59:22Z</time>
      </trkpt>
      <trkpt lat="37.7460192796" lon="-7.3842741363">
        <ele>202.49</ele>
        <time>2021-05-29T14:59:23Z</time>
      </trkpt>
      <trkpt lat="37.7444035001" lon="-7.3822920676">
        <ele>205.38</ele>
        <time>2021-05-29T14:59:31Z</time>
      </trkpt>
      <trkpt lat="37.7437986620" lon="-7.3815212678">
        <ele>208.74</ele>
        <time>2021-05-29T14:59:34Z</time>
      </trkpt>
      <trkpt lat="37.7425080165" lon="-7.3795251176">
        <ele>213.07</ele>
        <time>2021-05-29T14:59:41Z</time>
      </trkpt>
      <trkpt lat="37.7421314176" lon="-7.3786944710">
        <ele>209.22</ele>
        <time>2021-05-29T14:59:44Z</time>
      </trkpt>
      <trkpt lat="37.7420448326" lon="-7.3784161918">
        <ele>208.26</ele>
        <time>2021-05-29T14:59:45Z</time>
      </trkpt>
      <trkpt lat="37.7419845667" lon="-7.3781245854">
        <ele>208.26</ele>
        <time>2021-05-29T14:59:46Z</time>
      </trkpt>
      <trkpt lat="37.7419470996" lon="-7.3778115213">
        <ele>207.78</ele>
        <time>2021-05-29T14:59:47Z</time>
      </trkpt>
      <trkpt lat="37.7418258972" lon="-7.3752660211">
        <ele>207.30</ele>
        <time>2021-05-29T14:59:54Z</time>
      </trkpt>
      <trkpt lat="37.7417282481" lon="-7.3733463138">
        <ele>202.98</ele>
        <time>2021-05-29T14:59:59Z</time>
      </trkpt>
      <trkpt lat="37.7416733466" lon="-7.3723390605">
        <ele>206.82</ele>
        <time>2021-05-29T15:00:02Z</time>
      </trkpt>
      <trkpt lat="37.7417028509" lon="-7.3713636585">
        <ele>208.26</ele>
        <time>2021-05-29T15:00:05Z</time>
      </trkpt>
      <trkpt lat="37.7418341115" lon="-7.3704009969">
        <ele>207.78</ele>
        <time>2021-05-29T15:00:08Z</time>
      </trkpt>
      <trkpt lat="37.7419214509" lon="-7.3700865917">
        <ele>209.70</ele>
        <time>2021-05-29T15:00:09Z</time>
      </trkpt>
      <trkpt lat="37.7425331622" lon="-7.3684594966">
        <ele>206.34</ele>
        <time>2021-05-29T15:00:14Z</time>
      </trkpt>
      <trkpt lat="37.7427788358" lon="-7.3677710071">
        <ele>204.90</ele>
        <time>2021-05-29T15:00:16Z</time>
      </trkpt>
      <trkpt lat="37.7431366593" lon="-7.3656173609">
        <ele>206.34</ele>
        <time>2021-05-29T15:00:22Z</time>
      </trkpt>
      <trkpt lat="37.7430098411" lon="-7.3634856753">
        <ele>204.42</ele>
        <time>2021-05-29T15:00:28Z</time>
      </trkpt>
      <trkpt lat="37.7429722063" lon="-7.3631572723">
        <ele>204.42</ele>
        <time>2021-05-29T15:00:29Z</time>
      </trkpt>
      <trkpt lat="37.7428629063" lon="-7.3618109711">
        <ele>209.22</ele>
        <time>2021-05-29T15:00:33Z</time>
      </trkpt>
      <trkpt lat="37.7428308036" lon="-7.3611286841">
        <ele>211.15</ele>
        <time>2021-05-29T15:00:35Z</time>
      </trkpt>
      <trkpt lat="37.7428075857" lon="-7.3590702564">
        <ele>214.99</ele>
        <time>2021-05-29T15:00:41Z</time>
      </trkpt>
      <trkpt lat="37.7428183146" lon="-7.3574854061">
        <ele>216.91</ele>
        <time>2021-05-29T15:00:46Z</time>
      </trkpt>
      <trkpt lat="37.7428145427" lon="-7.3569233157">
        <ele>216.91</ele>
        <time>2021-05-29T15:00:48Z</time>
      </trkpt>
      <trkpt lat="37.7427869663" lon="-7.3566385824">
        <ele>216.91</ele>
        <time>2021-05-29T15:00:49Z</time>
      </trkpt>
      <trkpt lat="37.7425862197" lon="-7.3551909439">
        <ele>213.07</ele>
        <time>2021-05-29T15:00:54Z</time>
      </trkpt>
      <trkpt lat="37.7425309829" lon="-7.3549209628">
        <ele>213.55</ele>
        <time>2021-05-29T15:00:55Z</time>
      </trkpt>
      <trkpt lat="37.7418602630" lon="-7.3529193643">
        <ele>212.11</ele>
        <time>2021-05-29T15:01:02Z</time>
      </trkpt>
      <trkpt lat="37.7417574171" lon="-7.3526280094">
        <ele>209.22</ele>
        <time>2021-05-29T15:01:03Z</time>
      </trkpt>
      <trkpt lat="37.7415400743" lon="-7.3521112651">
        <ele>205.38</ele>
        <time>2021-05-29T15:01:05Z</time>
      </trkpt>
      <trkpt lat="37.7408592962" lon="-7.3509595916">
        <ele>203.46</ele>
        <time>2021-05-29T15:01:11Z</time>
      </trkpt>
      <trkpt lat="37.7405949309" lon="-7.3504490498">
        <ele>199.61</ele>
        <time>2021-05-29T15:01:14Z</time>
      </trkpt>
      <trkpt lat="37.7403801028" lon="-7.3500075750">
        <ele>196.73</ele>
        <time>2021-05-29T15:01:17Z</time>
      </trkpt>
      <trkpt lat="37.7403292246" lon="-7.3498624004">
        <ele>196.25</ele>
        <time>2021-05-29T15:01:18Z</time>
      </trkpt>
      <trkpt lat="37.7402993012" lon="-7.3497151304">
        <ele>193.84</ele>
        <time>2021-05-29T15:01:19Z</time>
      </trkpt>
      <trkpt lat="37.7402895782" lon="-7.3495745659">
        <ele>192.88</ele>
        <time>2021-05-29T15:01:20Z</time>
      </trkpt>
      <trkpt lat="37.7402747422" lon="-7.3493584804">
        <ele>190.00</ele>
        <time>2021-05-29T15:01:22Z</time>
      </trkpt>
      <trkpt lat="37.7402415499" lon="-7.3492907546">
        <ele>189.04</ele>
        <time>2021-05-29T15:01:23Z</time>
      </trkpt>
      <trkpt lat="37.7401884925" lon="-7.3492444027">
        <ele>188.08</ele>
        <time>2021-05-29T15:01:24Z</time>
      </trkpt>
      <trkpt lat="37.7401169948" lon="-7.3492039181">
        <ele>187.59</ele>
        <time>2021-05-29T15:01:25Z</time>
      </trkpt>
      <trkpt lat="37.7400330920" lon="-7.3491543811">
        <ele>188.08</ele>
        <time>2021-05-29T15:01:26Z</time>
      </trkpt>
      <trkpt lat="37.7399543859" lon="-7.3490890861">
        <ele>188.08</ele>
        <time>2021-05-29T15:01:27Z</time>
      </trkpt>
      <trkpt lat="37.7398950420" lon="-7.3490037583">
        <ele>187.11</ele>
        <time>2021-05-29T15:01:28Z</time>
      </trkpt>
      <trkpt lat="37.7398553118" lon="-7.3489067797">
        <ele>186.63</ele>
        <time>2021-05-29T15:01:29Z</time>
      </trkpt>
      <trkpt lat="37.7398263104" lon="-7.3488013353">
        <ele>186.63</ele>
        <time>2021-05-29T15:01:30Z</time>
      </trkpt>
      <trkpt lat="37.7398018353" lon="-7.3486814741">
        <ele>186.15</ele>
        <time>2021-05-29T15:01:31Z</time>
      </trkpt>
      <trkpt lat="37.7397802100" lon="-7.3485468607">
        <ele>185.67</ele>
        <time>2021-05-29T15:01:32Z</time>
      </trkpt>
      <trkpt lat="37.7397395577" lon="-7.3475962691">
        <ele>182.79</ele>
        <time>2021-05-29T15:01:38Z</time>
      </trkpt>
      <trkpt lat="37.7397227939" lon="-7.3472709674">
        <ele>179.42</ele>
        <time>2021-05-29T15:01:41Z</time>
      </trkpt>
      <trkpt lat="37.7397044376" lon="-7.3471798562">
        <ele>179.42</ele>
        <time>2021-05-29T15:01:42Z</time>
      </trkpt>
      <trkpt lat="37.7395839058" lon="-7.3468055204">
        <ele>178.46</ele>
        <time>2021-05-29T15:01:46Z</time>
      </trkpt>
      <trkpt lat="37.7395380568" lon="-7.3467162531">
        <ele>178.94</ele>
        <time>2021-05-29T15:01:47Z</time>
      </trkpt>
      <trkpt lat="37.7394551598" lon="-7.3465606850">
        <ele>178.94</ele>
        <time>2021-05-29T15:01:49Z</time>
      </trkpt>
      <trkpt lat="37.7394282538" lon="-7.3464755248">
        <ele>178.46</ele>
        <time>2021-05-29T15:01:50Z</time>
      </trkpt>
      <trkpt lat="37.7394065447" lon="-7.3463794682">
        <ele>177.98</ele>
        <time>2021-05-29T15:01:51Z</time>
      </trkpt>
      <trkpt lat="37.7392950654" lon="-7.3457421921">
        <ele>177.98</ele>
        <time>2021-05-29T15:01:56Z</time>
      </trkpt>
      <trkpt lat="37.7391513158" lon="-7.3445963860">
        <ele>177.98</ele>
        <time>2021-05-29T15:02:05Z</time>
      </trkpt>
      <trkpt lat="37.7390928101" lon="-7.3433821835">
        <ele>176.06</ele>
        <time>2021-05-29T15:02:13Z</time>
      </trkpt>
      <trkpt lat="37.7389661595" lon="-7.3422714137">
        <ele>173.66</ele>
        <time>2021-05-29T15:02:21Z</time>
      </trkpt>
      <trkpt lat="37.7389203943" lon="-7.3421050329">
        <ele>172.69</ele>
        <time>2021-05-29T15:02:23Z</time>
      </trkpt>
      <trkpt lat="37.7389179636" lon="-7.3420402408">
        <ele>172.69</ele>
        <time>2021-05-29T15:02:24Z</time>
      </trkpt>
      <trkpt lat="37.7389384154" lon="-7.3419850878">
        <ele>172.69</ele>
        <time>2021-05-29T15:02:25Z</time>
      </trkpt>
      <trkpt lat="37.7389820851" lon="-7.3419444356">
        <ele>172.21</ele>
        <time>2021-05-29T15:02:26Z</time>
      </trkpt>
      <trkpt lat="37.7390500624" lon="-7.3419167753">
        <ele>172.69</ele>
        <time>2021-05-29T15:02:27Z</time>
      </trkpt>
      <trkpt lat="37.7391326241" lon="-7.3418988381">
        <ele>174.14</ele>
        <time>2021-05-29T15:02:28Z</time>
      </trkpt>
      <trkpt lat="37.7392196283" lon="-7.3418889474">
        <ele>174.14</ele>
        <time>2021-05-29T15:02:29Z</time>
      </trkpt>
      <trkpt lat="37.7396459319" lon="-7.3418675736">
        <ele>178.46</ele>
        <time>2021-05-29T15:02:33Z</time>
      </trkpt>
      <trkpt lat="37.7403491735" lon="-7.3418086488">
        <ele>179.90</ele>
        <time>2021-05-29T15:02:40Z</time>
      </trkpt>
      <trkpt lat="37.7403937653" lon="-7.3417716008">
        <ele>179.42</ele>
        <time>2021-05-29T15:02:41Z</time>
      </trkpt>
      <trkpt lat="37.7404161450" lon="-7.3417109996">
        <ele>179.42</ele>
        <time>2021-05-29T15:02:42Z</time>
      </trkpt>
      <trkpt lat="37.7404229343" lon="-7.3416211456">
        <ele>181.35</ele>
        <time>2021-05-29T15:02:43Z</time>
      </trkpt>
      <trkpt lat="37.7404230181" lon="-7.3415157013">
        <ele>181.35</ele>
        <time>2021-05-29T15:02:44Z</time>
      </trkpt>
      <trkpt lat="37.7405305579" lon="-7.3404566478">
        <ele>180.87</ele>
        <time>2021-05-29T15:02:51Z</time>
      </trkpt>
      <trkpt lat="37.7405642532" lon="-7.3402994871">
        <ele>179.90</ele>
        <time>2021-05-29T15:02:52Z</time>
      </trkpt>
      <trkpt lat="37.7406182326" lon="-7.3401433323">
        <ele>178.94</ele>
        <time>2021-05-29T15:02:53Z</time>
      </trkpt>
      <trkpt lat="37.7407011297" lon="-7.3399912007">
        <ele>178.94</ele>
        <time>2021-05-29T15:02:54Z</time>
      </trkpt>
      <trkpt lat="37.7408129442" lon="-7.3398528155">
        <ele>177.98</ele>
        <time>2021-05-29T15:02:55Z</time>
      </trkpt>
      <trkpt lat="37.7409480605" lon="-7.3397253267">
        <ele>178.46</ele>
        <time>2021-05-29T15:02:56Z</time>
      </trkpt>
      <trkpt lat="37.7410948277" lon="-7.3396047950">
        <ele>178.46</ele>
        <time>2021-05-29T15:02:57Z</time>
      </trkpt>
      <trkpt lat="37.7412493061" lon="-7.3394918907">
        <ele>177.50</ele>
        <time>2021-05-29T15:02:58Z</time>
      </trkpt>
      <trkpt lat="37.7419536375" lon="-7.3389923293">
        <ele>179.42</ele>
        <time>2021-05-29T15:03:02Z</time>
      </trkpt>
      <trkpt lat="37.7425497584" lon="-7.3385517765">
        <ele>181.35</ele>
        <time>2021-05-29T15:03:05Z</time>
      </trkpt>
      <trkpt lat="37.7430768125" lon="-7.3381584976">
        <ele>177.98</ele>
        <time>2021-05-29T15:03:08Z</time>
      </trkpt>
      <trkpt lat="37.7432326321" lon="-7.3380340263">
        <ele>177.98</ele>
        <time>2021-05-29T15:03:09Z</time>
      </trkpt>
      <trkpt lat="37.7435055468" lon="-7.3377612792">
        <ele>177.50</ele>
        <time>2021-05-29T15:03:11Z</time>
      </trkpt>
      <trkpt lat="37.7436219715" lon="-7.3376025259">
        <ele>178.46</ele>
        <time>2021-05-29T15:03:12Z</time>
      </trkpt>
      <trkpt lat="37.7438447624" lon="-7.3372463789">
        <ele>179.42</ele>
        <time>2021-05-29T15:03:14Z</time>
      </trkpt>
      <trkpt lat="37.7451070771" lon="-7.3351605423">
        <ele>181.83</ele>
        <time>2021-05-29T15:03:24Z</time>
      </trkpt>
      <trkpt lat="37.7452328056" lon="-7.3349414393">
        <ele>181.83</ele>
        <time>2021-05-29T15:03:25Z</time>
      </trkpt>
      <trkpt lat="37.7456416748" lon="-7.3340371158">
        <ele>183.27</ele>
        <time>2021-05-29T15:03:29Z</time>
      </trkpt>
      <trkpt lat="37.7457031142" lon="-7.3337963875">
        <ele>184.23</ele>
        <time>2021-05-29T15:03:30Z</time>
      </trkpt>
      <trkpt lat="37.7457467001" lon="-7.3335476965">
        <ele>185.19</ele>
        <time>2021-05-29T15:03:31Z</time>
      </trkpt>
      <trkpt lat="37.7458872646" lon="-7.3320151493">
        <ele>183.75</ele>
        <time>2021-05-29T15:03:37Z</time>
      </trkpt>
      <trkpt lat="37.7460178547" lon="-7.3312549945">
        <ele>182.79</ele>
        <time>2021-05-29T15:03:40Z</time>
      </trkpt>
      <trkpt lat="37.7467737347" lon="-7.3292392306">
        <ele>182.31</ele>
        <time>2021-05-29T15:03:48Z</time>
      </trkpt>
      <trkpt lat="37.7468530275" lon="-7.3289781343">
        <ele>182.31</ele>
        <time>2021-05-29T15:03:49Z</time>
      </trkpt>
      <trkpt lat="37.7469125390" lon="-7.3287077341">
        <ele>179.90</ele>
        <time>2021-05-29T15:03:50Z</time>
      </trkpt>
      <trkpt lat="37.7469548676" lon="-7.3284322210">
        <ele>180.38</ele>
        <time>2021-05-29T15:03:51Z</time>
      </trkpt>
      <trkpt lat="37.7470144629" lon="-7.3278843798">
        <ele>178.46</ele>
        <time>2021-05-29T15:03:53Z</time>
      </trkpt>
      <trkpt lat="37.7473786566" lon="-7.3253607564">
        <ele>177.02</ele>
        <time>2021-05-29T15:04:02Z</time>
      </trkpt>
      <trkpt lat="37.7474150341" lon="-7.3250839859">
        <ele>175.58</ele>
        <time>2021-05-29T15:04:03Z</time>
      </trkpt>
      <trkpt lat="37.7474292833" lon="-7.3247993365">
        <ele>173.66</ele>
        <time>2021-05-29T15:04:04Z</time>
      </trkpt>
      <trkpt lat="37.7474198956" lon="-7.3245120049">
        <ele>173.66</ele>
        <time>2021-05-29T15:04:05Z</time>
      </trkpt>
      <trkpt lat="37.7473908942" lon="-7.3242271878">
        <ele>172.69</ele>
        <time>2021-05-29T15:04:06Z</time>
      </trkpt>
      <trkpt lat="37.7473493200" lon="-7.3239467293">
        <ele>171.25</ele>
        <time>2021-05-29T15:04:07Z</time>
      </trkpt>
      <trkpt lat="37.7472420316" lon="-7.3233870696">
        <ele>166.93</ele>
        <time>2021-05-29T15:04:09Z</time>
      </trkpt>
      <trkpt lat="37.7470551152" lon="-7.3223451152">
        <ele>162.60</ele>
        <time>2021-05-29T15:04:13Z</time>
      </trkpt>
      <trkpt lat="37.7470647544" lon="-7.3221026268">
        <ele>163.56</ele>
        <time>2021-05-29T15:04:14Z</time>
      </trkpt>
      <trkpt lat="37.7471002098" lon="-7.3218546901">
        <ele>165.48</ele>
        <time>2021-05-29T15:04:15Z</time>
      </trkpt>
      <trkpt lat="37.7472089231" lon="-7.3213317432">
        <ele>169.81</ele>
        <time>2021-05-29T15:04:17Z</time>
      </trkpt>
      <trkpt lat="37.7473245934" lon="-7.3207637854">
        <ele>172.21</ele>
        <time>2021-05-29T15:04:19Z</time>
      </trkpt>
      <trkpt lat="37.7474912256" lon="-7.3198452126">
        <ele>176.54</ele>
        <time>2021-05-29T15:04:22Z</time>
      </trkpt>
      <trkpt lat="37.7476042137" lon="-7.3192124628">
        <ele>182.31</ele>
        <time>2021-05-29T15:04:24Z</time>
      </trkpt>
      <trkpt lat="37.7477749530" lon="-7.3182971589">
        <ele>184.23</ele>
        <time>2021-05-29T15:04:27Z</time>
      </trkpt>
      <trkpt lat="37.7479164395" lon="-7.3177073244">
        <ele>187.59</ele>
        <time>2021-05-29T15:04:29Z</time>
      </trkpt>
      <trkpt lat="37.7484707348" lon="-7.3159691691">
        <ele>186.63</ele>
        <time>2021-05-29T15:04:35Z</time>
      </trkpt>
      <trkpt lat="37.7497706003" lon="-7.3125312477">
        <ele>185.67</ele>
        <time>2021-05-29T15:04:47Z</time>
      </trkpt>
      <trkpt lat="37.7508776821" lon="-7.3097322788">
        <ele>182.31</ele>
        <time>2021-05-29T15:04:57Z</time>
      </trkpt>
      <trkpt lat="37.7509609982" lon="-7.3094557598">
        <ele>181.83</ele>
        <time>2021-05-29T15:04:58Z</time>
      </trkpt>
      <trkpt lat="37.7510232758" lon="-7.3091659136">
        <ele>182.31</ele>
        <time>2021-05-29T15:04:59Z</time>
      </trkpt>
      <trkpt lat="37.7510657720" lon="-7.3088662606">
        <ele>184.71</ele>
        <time>2021-05-29T15:05:00Z</time>
      </trkpt>
      <trkpt lat="37.7510949410" lon="-7.3085590638">
        <ele>184.23</ele>
        <time>2021-05-29T15:05:01Z</time>
      </trkpt>
      <trkpt lat="37.7513097692" lon="-7.3059169203">
        <ele>180.87</ele>
        <time>2021-05-29T15:05:09Z</time>
      </trkpt>
      <trkpt lat="37.7513416205" lon="-7.3056074604">
        <ele>180.87</ele>
        <time>2021-05-29T15:05:10Z</time>
      </trkpt>
      <trkpt lat="37.7514516748" lon="-7.3050054722">
        <ele>181.83</ele>
        <time>2021-05-29T15:05:12Z</time>
      </trkpt>
      <trkpt lat="37.7515394334" lon="-7.3047116026">
        <ele>181.83</ele>
        <time>2021-05-29T15:05:13Z</time>
      </trkpt>
      <trkpt lat="37.7517535910" lon="-7.3041213490">
        <ele>183.75</ele>
        <time>2021-05-29T15:05:15Z</time>
      </trkpt>
      <trkpt lat="37.7518680040" lon="-7.3038227018">
        <ele>187.59</ele>
        <time>2021-05-29T15:05:16Z</time>
      </trkpt>
      <trkpt lat="37.7522711735" lon="-7.3029723577">
        <ele>188.08</ele>
        <time>2021-05-29T15:05:19Z</time>
      </trkpt>
      <trkpt lat="37.7524276637" lon="-7.3027382512">
        <ele>186.15</ele>
        <time>2021-05-29T15:05:20Z</time>
      </trkpt>
      <trkpt lat="37.7527377103" lon="-7.3023230955">
        <ele>185.19</ele>
        <time>2021-05-29T15:05:22Z</time>
      </trkpt>
      <trkpt lat="37.7528762631" lon="-7.3021016456">
        <ele>185.67</ele>
        <time>2021-05-29T15:05:23Z</time>
      </trkpt>
      <trkpt lat="37.7529932745" lon="-7.3018694669">
        <ele>184.71</ele>
        <time>2021-05-29T15:05:24Z</time>
      </trkpt>
      <trkpt lat="37.7530853916" lon="-7.3016313370">
        <ele>183.75</ele>
        <time>2021-05-29T15:05:25Z</time>
      </trkpt>
      <trkpt lat="37.7531552128" lon="-7.3013803829">
        <ele>183.27</ele>
        <time>2021-05-29T15:05:26Z</time>
      </trkpt>
      <trkpt lat="37.7532055043" lon="-7.3011123296">
        <ele>182.79</ele>
        <time>2021-05-29T15:05:27Z</time>
      </trkpt>
      <trkpt lat="37.7532373555" lon="-7.3008329608">
        <ele>182.31</ele>
        <time>2021-05-29T15:05:28Z</time>
      </trkpt>
      <trkpt lat="37.7532566339" lon="-7.3005451262">
        <ele>183.27</ele>
        <time>2021-05-29T15:05:29Z</time>
      </trkpt>
      <trkpt lat="37.7533353399" lon="-7.2993476875">
        <ele>185.19</ele>
        <time>2021-05-29T15:05:33Z</time>
      </trkpt>
      <trkpt lat="37.7537034731" lon="-7.2971419897">
        <ele>182.31</ele>
        <time>2021-05-29T15:05:40Z</time>
      </trkpt>
      <trkpt lat="37.7537787426" lon="-7.2968141735">
        <ele>182.31</ele>
        <time>2021-05-29T15:05:41Z</time>
      </trkpt>
      <trkpt lat="37.7544026915" lon="-7.2939151246">
        <ele>178.46</ele>
        <time>2021-05-29T15:05:50Z</time>
      </trkpt>
      <trkpt lat="37.7544795536" lon="-7.2934596520">
        <ele>175.10</ele>
        <time>2021-05-29T15:05:52Z</time>
      </trkpt>
      <trkpt lat="37.7545587625" lon="-7.2928171791">
        <ele>171.73</ele>
        <time>2021-05-29T15:05:56Z</time>
      </trkpt>
      <trkpt lat="37.7545567509" lon="-7.2926248983">
        <ele>169.33</ele>
        <time>2021-05-29T15:05:59Z</time>
      </trkpt>
      <trkpt lat="37.7545135003" lon="-7.2924041189">
        <ele>168.37</ele>
        <time>2021-05-29T15:06:06Z</time>
      </trkpt>
      <trkpt lat="37.7545295935" lon="-7.2923799790">
        <ele>168.85</ele>
        <time>2021-05-29T15:06:07Z</time>
      </trkpt>
      <trkpt lat="37.7545525599" lon="-7.2923625447">
        <ele>169.33</ele>
        <time>2021-05-29T15:06:08Z</time>
      </trkpt>
      <trkpt lat="37.7545710839" lon="-7.2923506424">
        <ele>169.33</ele>
        <time>2021-05-29T15:06:09Z</time>
      </trkpt>
      <trkpt lat="37.7545815613" lon="-7.2923518997">
        <ele>169.81</ele>
        <time>2021-05-29T15:06:20Z</time>
      </trkpt>
      <trkpt lat="37.7545716707" lon="-7.2923546657">
        <ele>169.81</ele>
        <time>2021-05-29T15:06:56Z</time>
      </trkpt>
      <trkpt lat="37.7545717545" lon="-7.2923617065">
        <ele>169.33</ele>
        <time>2021-05-29T15:07:34Z</time>
      </trkpt>
      <trkpt lat="37.7545751072" lon="-7.2923612874">
        <ele>169.33</ele>
        <time>2021-05-29T15:08:32Z</time>
      </trkpt>
      <trkpt lat="37.7545734309" lon="-7.2923490498">
        <ele>170.29</ele>
        <time>2021-05-29T15:09:22Z</time>
      </trkpt>
      <trkpt lat="37.7545712516" lon="-7.2923471220">
        <ele>170.29</ele>
        <time>2021-05-29T15:09:58Z</time>
      </trkpt>
      <trkpt lat="37.7545759454" lon="-7.2923522349">
        <ele>170.29</ele>
        <time>2021-05-29T15:10:24Z</time>
      </trkpt>
      <trkpt lat="37.7545694914" lon="-7.2923537437">
        <ele>170.77</ele>
        <time>2021-05-29T15:11:00Z</time>
      </trkpt>
      <trkpt lat="37.7546023484" lon="-7.2923213895">
        <ele>171.73</ele>
        <time>2021-05-29T15:11:22Z</time>
      </trkpt>
      <trkpt lat="37.7546347864" lon="-7.2922698408">
        <ele>172.69</ele>
        <time>2021-05-29T15:11:23Z</time>
      </trkpt>
      <trkpt lat="37.7546693198" lon="-7.2921896260">
        <ele>173.17</ele>
        <time>2021-05-29T15:11:24Z</time>
      </trkpt>
      <trkpt lat="37.7546989080" lon="-7.2920892108">
        <ele>174.14</ele>
        <time>2021-05-29T15:11:25Z</time>
      </trkpt>
      <trkpt lat="37.7547239698" lon="-7.2919698525">
        <ele>173.66</ele>
        <time>2021-05-29T15:11:26Z</time>
      </trkpt>
      <trkpt lat="37.7549390495" lon="-7.2912257910">
        <ele>176.54</ele>
        <time>2021-05-29T15:11:31Z</time>
      </trkpt>
      <trkpt lat="37.7554683667" lon="-7.2902153526">
        <ele>178.46</ele>
        <time>2021-05-29T15:11:39Z</time>
      </trkpt>
      <trkpt lat="37.7556717955" lon="-7.2897005361">
        <ele>182.31</ele>
        <time>2021-05-29T15:11:42Z</time>
      </trkpt>
      <trkpt lat="37.7557241824" lon="-7.2894862946">
        <ele>183.75</ele>
        <time>2021-05-29T15:11:43Z</time>
      </trkpt>
      <trkpt lat="37.7557681035" lon="-7.2892517690">
        <ele>185.67</ele>
        <time>2021-05-29T15:11:44Z</time>
      </trkpt>
      <trkpt lat="37.7558013797" lon="-7.2890086100">
        <ele>185.67</ele>
        <time>2021-05-29T15:11:45Z</time>
      </trkpt>
      <trkpt lat="37.7558821812" lon="-7.2880095709">
        <ele>187.11</ele>
        <time>2021-05-29T15:11:49Z</time>
      </trkpt>
      <trkpt lat="37.7562379092" lon="-7.2863724176">
        <ele>191.44</ele>
        <time>2021-05-29T15:11:55Z</time>
      </trkpt>
      <trkpt lat="37.7567371354" lon="-7.2842629440">
        <ele>194.32</ele>
        <time>2021-05-29T15:12:03Z</time>
      </trkpt>
      <trkpt lat="37.7569100540" lon="-7.2828293033">
        <ele>190.96</ele>
        <time>2021-05-29T15:12:08Z</time>
      </trkpt>
      <trkpt lat="37.7569486108" lon="-7.2825262975">
        <ele>190.96</ele>
        <time>2021-05-29T15:12:09Z</time>
      </trkpt>
      <trkpt lat="37.7573325858" lon="-7.2800558154">
        <ele>190.00</ele>
        <time>2021-05-29T15:12:17Z</time>
      </trkpt>
      <trkpt lat="37.7578680217" lon="-7.2785677761">
        <ele>192.88</ele>
        <time>2021-05-29T15:12:22Z</time>
      </trkpt>
      <trkpt lat="37.7579986956" lon="-7.2782927658">
        <ele>192.88</ele>
        <time>2021-05-29T15:12:23Z</time>
      </trkpt>
      <trkpt lat="37.7582398430" lon="-7.2777230479">
        <ele>196.73</ele>
        <time>2021-05-29T15:12:25Z</time>
      </trkpt>
      <trkpt lat="37.7583409287" lon="-7.2774220537">
        <ele>196.25</ele>
        <time>2021-05-29T15:12:26Z</time>
      </trkpt>
      <trkpt lat="37.7584214788" lon="-7.2771150246">
        <ele>199.61</ele>
        <time>2021-05-29T15:12:27Z</time>
      </trkpt>
      <trkpt lat="37.7584809903" lon="-7.2768074926">
        <ele>200.09</ele>
        <time>2021-05-29T15:12:28Z</time>
      </trkpt>
      <trkpt lat="37.7587290108" lon="-7.2755638696">
        <ele>204.42</ele>
        <time>2021-05-29T15:12:32Z</time>
      </trkpt>
      <trkpt lat="37.7588326111" lon="-7.2752463631">
        <ele>203.46</ele>
        <time>2021-05-29T15:12:33Z</time>
      </trkpt>
      <trkpt lat="37.7597709652" lon="-7.2727305349">
        <ele>206.82</ele>
        <time>2021-05-29T15:12:41Z</time>
      </trkpt>
      <trkpt lat="37.7599449735" lon="-7.2720857151">
        <ele>207.78</ele>
        <time>2021-05-29T15:12:43Z</time>
      </trkpt>
      <trkpt lat="37.7602163795" lon="-7.2707695886">
        <ele>212.59</ele>
        <time>2021-05-29T15:12:47Z</time>
      </trkpt>
      <trkpt lat="37.7602982707" lon="-7.2704418562">
        <ele>212.59</ele>
        <time>2021-05-29T15:12:48Z</time>
      </trkpt>
      <trkpt lat="37.7608575951" lon="-7.2684666608">
        <ele>213.07</ele>
        <time>2021-05-29T15:12:54Z</time>
      </trkpt>
      <trkpt lat="37.7614320908" lon="-7.2672026698">
        <ele>216.91</ele>
        <time>2021-05-29T15:12:58Z</time>
      </trkpt>
      <trkpt lat="37.7620786708" lon="-7.2653014027">
        <ele>216.43</ele>
        <time>2021-05-29T15:13:04Z</time>
      </trkpt>
      <trkpt lat="37.7621140424" lon="-7.2650097962">
        <ele>215.95</ele>
        <time>2021-05-29T15:13:05Z</time>
      </trkpt>
      <trkpt lat="37.7621166408" lon="-7.2647273261">
        <ele>215.47</ele>
        <time>2021-05-29T15:13:06Z</time>
      </trkpt>
      <trkpt lat="37.7620898187" lon="-7.2644458618">
        <ele>215.95</ele>
        <time>2021-05-29T15:13:07Z</time>
      </trkpt>
      <trkpt lat="37.7620411199" lon="-7.2641616315">
        <ele>217.88</ele>
        <time>2021-05-29T15:13:08Z</time>
      </trkpt>
      <trkpt lat="37.7619805187" lon="-7.2638689354">
        <ele>219.32</ele>
        <time>2021-05-29T15:13:09Z</time>
      </trkpt>
      <trkpt lat="37.7618565504" lon="-7.2632564697">
        <ele>222.20</ele>
        <time>2021-05-29T15:13:11Z</time>
      </trkpt>
      <trkpt lat="37.7617675345" lon="-7.2626015916">
        <ele>225.09</ele>
        <time>2021-05-29T15:13:13Z</time>
      </trkpt>
      <trkpt lat="37.7617404610" lon="-7.2619608790">
        <ele>225.09</ele>
        <time>2021-05-29T15:13:15Z</time>
      </trkpt>
      <trkpt lat="37.7617609967" lon="-7.2616644949">
        <ele>223.16</ele>
        <time>2021-05-29T15:13:16Z</time>
      </trkpt>
      <trkpt lat="37.7618080191" lon="-7.2613730561">
        <ele>223.16</ele>
        <time>2021-05-29T15:13:17Z</time>
      </trkpt>
      <trkpt lat="37.7618739847" lon="-7.2610806953">
        <ele>222.68</ele>
        <time>2021-05-29T15:13:18Z</time>
      </trkpt>
      <trkpt lat="37.7619501762" lon="-7.2607940342">
        <ele>225.09</ele>
        <time>2021-05-29T15:13:19Z</time>
      </trkpt>
      <trkpt lat="37.7621981129" lon="-7.2600710951">
        <ele>220.28</ele>
        <time>2021-05-29T15:13:22Z</time>
      </trkpt>
      <trkpt lat="37.7622884698" lon="-7.2598955780">
        <ele>218.36</ele>
        <time>2021-05-29T15:13:23Z</time>
      </trkpt>
      <trkpt lat="37.7623910643" lon="-7.2597571090">
        <ele>216.91</ele>
        <time>2021-05-29T15:13:24Z</time>
      </trkpt>
      <trkpt lat="37.7625187207" lon="-7.2596481442">
        <ele>215.95</ele>
        <time>2021-05-29T15:13:25Z</time>
      </trkpt>
      <trkpt lat="37.7626740374" lon="-7.2595621459">
        <ele>216.43</ele>
        <time>2021-05-29T15:13:26Z</time>
      </trkpt>
      <trkpt lat="37.7628531586" lon="-7.2594887204">
        <ele>217.40</ele>
        <time>2021-05-29T15:13:27Z</time>
      </trkpt>
      <trkpt lat="37.7630512230" lon="-7.2594279516">
        <ele>218.84</ele>
        <time>2021-05-29T15:13:28Z</time>
      </trkpt>
      <trkpt lat="37.7632637043" lon="-7.2593799233">
        <ele>218.36</ele>
        <time>2021-05-29T15:13:29Z</time>
      </trkpt>
      <trkpt lat="37.7639323287" lon="-7.2592300549">
        <ele>216.91</ele>
        <time>2021-05-29T15:13:32Z</time>
      </trkpt>
      <trkpt lat="37.7641483303" lon="-7.2591405362">
        <ele>215.95</ele>
        <time>2021-05-29T15:13:33Z</time>
      </trkpt>
      <trkpt lat="37.7643572073" lon="-7.2590272129">
        <ele>215.47</ele>
        <time>2021-05-29T15:13:34Z</time>
      </trkpt>
      <trkpt lat="37.7645539306" lon="-7.2588910908">
        <ele>214.99</ele>
        <time>2021-05-29T15:13:35Z</time>
      </trkpt>
      <trkpt lat="37.7647366561" lon="-7.2587309964">
        <ele>214.51</ele>
        <time>2021-05-29T15:13:36Z</time>
      </trkpt>
      <trkpt lat="37.7649045456" lon="-7.2585394699">
        <ele>214.03</ele>
        <time>2021-05-29T15:13:37Z</time>
      </trkpt>
      <trkpt lat="37.7650586050" lon="-7.2583196126">
        <ele>213.07</ele>
        <time>2021-05-29T15:13:38Z</time>
      </trkpt>
      <trkpt lat="37.7652117424" lon="-7.2580791358">
        <ele>212.59</ele>
        <time>2021-05-29T15:13:39Z</time>
      </trkpt>
      <trkpt lat="37.7661732305" lon="-7.2565420624">
        <ele>212.59</ele>
        <time>2021-05-29T15:13:46Z</time>
      </trkpt>
      <trkpt lat="37.7666184772" lon="-7.2558066342">
        <ele>216.91</ele>
        <time>2021-05-29T15:13:49Z</time>
      </trkpt>
      <trkpt lat="37.7667815890" lon="-7.2555449512">
        <ele>216.91</ele>
        <time>2021-05-29T15:13:50Z</time>
      </trkpt>
      <trkpt lat="37.7677014191" lon="-7.2542644478">
        <ele>217.88</ele>
        <time>2021-05-29T15:13:55Z</time>
      </trkpt>
      <trkpt lat="37.7683332469" lon="-7.2534449492">
        <ele>220.28</ele>
        <time>2021-05-29T15:13:58Z</time>
      </trkpt>
      <trkpt lat="37.7691397537" lon="-7.2523503564">
        <ele>215.95</ele>
        <time>2021-05-29T15:14:02Z</time>
      </trkpt>
      <trkpt lat="37.7695389837" lon="-7.2519336920">
        <ele>213.55</ele>
        <time>2021-05-29T15:14:04Z</time>
      </trkpt>
      <trkpt lat="37.7697496209" lon="-7.2517656349">
        <ele>213.55</ele>
        <time>2021-05-29T15:14:05Z</time>
      </trkpt>
      <trkpt lat="37.7699746750" lon="-7.2516296804">
        <ele>214.03</ele>
        <time>2021-05-29T15:14:06Z</time>
      </trkpt>
      <trkpt lat="37.7702198457" lon="-7.2515174467">
        <ele>214.99</ele>
        <time>2021-05-29T15:14:07Z</time>
      </trkpt>
      <trkpt lat="37.7704772539" lon="-7.2514150199">
        <ele>215.47</ele>
        <time>2021-05-29T15:14:08Z</time>
      </trkpt>
      <trkpt lat="37.7709892206" lon="-7.2512063105">
        <ele>219.32</ele>
        <time>2021-05-29T15:14:10Z</time>
      </trkpt>
      <trkpt lat="37.7712238301" lon="-7.2510872874">
        <ele>217.40</ele>
        <time>2021-05-29T15:14:11Z</time>
      </trkpt>
      <trkpt lat="37.7714394126" lon="-7.2509409394">
        <ele>218.36</ele>
        <time>2021-05-29T15:14:12Z</time>
      </trkpt>
      <trkpt lat="37.7716453560" lon="-7.2507650033">
        <ele>220.76</ele>
        <time>2021-05-29T15:14:13Z</time>
      </trkpt>
      <trkpt lat="37.7720532194" lon="-7.2503561340">
        <ele>225.09</ele>
        <time>2021-05-29T15:14:15Z</time>
      </trkpt>
      <trkpt lat="37.7726916689" lon="-7.2497171815">
        <ele>229.41</ele>
        <time>2021-05-29T15:14:18Z</time>
      </trkpt>
      <trkpt lat="37.7731474768" lon="-7.2493254114">
        <ele>232.30</ele>
        <time>2021-05-29T15:14:20Z</time>
      </trkpt>
      <trkpt lat="37.7736129239" lon="-7.2489401791">
        <ele>234.22</ele>
        <time>2021-05-29T15:14:22Z</time>
      </trkpt>
      <trkpt lat="37.7746898308" lon="-7.2480931040">
        <ele>231.33</ele>
        <time>2021-05-29T15:14:27Z</time>
      </trkpt>
      <trkpt lat="37.7752824314" lon="-7.2477776930">
        <ele>228.93</ele>
        <time>2021-05-29T15:14:30Z</time>
      </trkpt>
      <trkpt lat="37.7754881233" lon="-7.2477221210">
        <ele>228.93</ele>
        <time>2021-05-29T15:14:31Z</time>
      </trkpt>
      <trkpt lat="37.7761102282" lon="-7.2475482803">
        <ele>226.05</ele>
        <time>2021-05-29T15:14:34Z</time>
      </trkpt>
      <trkpt lat="37.7763183508" lon="-7.2474283352">
        <ele>225.09</ele>
        <time>2021-05-29T15:14:35Z</time>
      </trkpt>
      <trkpt lat="37.7765215281" lon="-7.2472761199">
        <ele>224.61</ele>
        <time>2021-05-29T15:14:36Z</time>
      </trkpt>
      <trkpt lat="37.7769020665" lon="-7.2469250858">
        <ele>221.24</ele>
        <time>2021-05-29T15:14:38Z</time>
      </trkpt>
      <trkpt lat="37.7770865522" lon="-7.2467319667">
        <ele>221.24</ele>
        <time>2021-05-29T15:14:39Z</time>
      </trkpt>
      <trkpt lat="37.7775723673" lon="-7.2461243626">
        <ele>215.47</ele>
        <time>2021-05-29T15:14:42Z</time>
      </trkpt>
      <trkpt lat="37.7776906360" lon="-7.2458959557">
        <ele>215.95</ele>
        <time>2021-05-29T15:14:43Z</time>
      </trkpt>
      <trkpt lat="37.7777878661" lon="-7.2456458397">
        <ele>217.40</ele>
        <time>2021-05-29T15:14:44Z</time>
      </trkpt>
      <trkpt lat="37.7778697573" lon="-7.2453775350">
        <ele>218.84</ele>
        <time>2021-05-29T15:14:45Z</time>
      </trkpt>
      <trkpt lat="37.7779394947" lon="-7.2450933047">
        <ele>219.32</ele>
        <time>2021-05-29T15:14:46Z</time>
      </trkpt>
      <trkpt lat="37.7780028619" lon="-7.2447956633">
        <ele>219.32</ele>
        <time>2021-05-29T15:14:47Z</time>
      </trkpt>
      <trkpt lat="37.7781181131" lon="-7.2441697866">
        <ele>223.64</ele>
        <time>2021-05-29T15:14:49Z</time>
      </trkpt>
      <trkpt lat="37.7782378905" lon="-7.2435241286">
        <ele>227.97</ele>
        <time>2021-05-29T15:14:51Z</time>
      </trkpt>
      <trkpt lat="37.7784539759" lon="-7.2425800748">
        <ele>230.37</ele>
        <time>2021-05-29T15:14:54Z</time>
      </trkpt>
      <trkpt lat="37.7787737455" lon="-7.2416705545">
        <ele>236.14</ele>
        <time>2021-05-29T15:14:57Z</time>
      </trkpt>
      <trkpt lat="37.7789079398" lon="-7.2413699795">
        <ele>235.66</ele>
        <time>2021-05-29T15:14:58Z</time>
      </trkpt>
      <trkpt lat="37.7795514185" lon="-7.2398939263">
        <ele>239.99</ele>
        <time>2021-05-29T15:15:03Z</time>
      </trkpt>
      <trkpt lat="37.7810646873" lon="-7.2357778251">
        <ele>239.02</ele>
        <time>2021-05-29T15:15:16Z</time>
      </trkpt>
      <trkpt lat="37.7816339023" lon="-7.2344180290">
        <ele>242.39</ele>
        <time>2021-05-29T15:15:21Z</time>
      </trkpt>
      <trkpt lat="37.7825803868" lon="-7.2330232803">
        <ele>245.27</ele>
        <time>2021-05-29T15:15:27Z</time>
      </trkpt>
      <trkpt lat="37.7830661181" lon="-7.2318847664">
        <ele>249.60</ele>
        <time>2021-05-29T15:15:31Z</time>
      </trkpt>
      <trkpt lat="37.7837671805" lon="-7.2300642170">
        <ele>252.48</ele>
        <time>2021-05-29T15:15:37Z</time>
      </trkpt>
      <trkpt lat="37.7840673365" lon="-7.2289404552">
        <ele>252.48</ele>
        <time>2021-05-29T15:15:41Z</time>
      </trkpt>
      <trkpt lat="37.7841809951" lon="-7.2286677919">
        <ele>252.96</ele>
        <time>2021-05-29T15:15:42Z</time>
      </trkpt>
      <trkpt lat="37.7843140159" lon="-7.2283911053">
        <ele>256.81</ele>
        <time>2021-05-29T15:15:43Z</time>
      </trkpt>
      <trkpt lat="37.7844553348" lon="-7.2281155922">
        <ele>256.81</ele>
        <time>2021-05-29T15:15:44Z</time>
      </trkpt>
      <trkpt lat="37.7853395417" lon="-7.2264880780">
        <ele>260.65</ele>
        <time>2021-05-29T15:15:50Z</time>
      </trkpt>
      <trkpt lat="37.7854920086" lon="-7.2262075357">
        <ele>260.17</ele>
        <time>2021-05-29T15:15:51Z</time>
      </trkpt>
      <trkpt lat="37.7871527988" lon="-7.2232327145">
        <ele>264.02</ele>
        <time>2021-05-29T15:16:02Z</time>
      </trkpt>
      <trkpt lat="37.7879595570" lon="-7.2215069644">
        <ele>266.90</ele>
        <time>2021-05-29T15:16:08Z</time>
      </trkpt>
      <trkpt lat="37.7880717069" lon="-7.2212035395">
        <ele>267.38</ele>
        <time>2021-05-29T15:16:09Z</time>
      </trkpt>
      <trkpt lat="37.7887344640" lon="-7.2190954071">
        <ele>270.27</ele>
        <time>2021-05-29T15:16:16Z</time>
      </trkpt>
      <trkpt lat="37.7887948137" lon="-7.2187803313">
        <ele>269.79</ele>
        <time>2021-05-29T15:16:17Z</time>
      </trkpt>
      <trkpt lat="37.7890238911" lon="-7.2175140772">
        <ele>273.15</ele>
        <time>2021-05-29T15:16:21Z</time>
      </trkpt>
      <trkpt lat="37.7890894376" lon="-7.2171871830">
        <ele>273.63</ele>
        <time>2021-05-29T15:16:22Z</time>
      </trkpt>
      <trkpt lat="37.7892467659" lon="-7.2165271919">
        <ele>274.59</ele>
        <time>2021-05-29T15:16:24Z</time>
      </trkpt>
      <trkpt lat="37.7898384444" lon="-7.2142649163">
        <ele>274.59</ele>
        <time>2021-05-29T15:16:31Z</time>
      </trkpt>
      <trkpt lat="37.7902458049" lon="-7.2120302171">
        <ele>276.04</ele>
        <time>2021-05-29T15:16:38Z</time>
      </trkpt>
      <trkpt lat="37.7905638143" lon="-7.2104356438">
        <ele>281.32</ele>
        <time>2021-05-29T15:16:43Z</time>
      </trkpt>
      <trkpt lat="37.7906608768" lon="-7.2101169638">
        <ele>280.84</ele>
        <time>2021-05-29T15:16:44Z</time>
      </trkpt>
      <trkpt lat="37.7909662295" lon="-7.2091474291">
        <ele>284.21</ele>
        <time>2021-05-29T15:16:47Z</time>
      </trkpt>
      <trkpt lat="37.7912477776" lon="-7.2081635613">
        <ele>288.53</ele>
        <time>2021-05-29T15:16:50Z</time>
      </trkpt>
      <trkpt lat="37.7919089422" lon="-7.2056183126">
        <ele>288.53</ele>
        <time>2021-05-29T15:16:58Z</time>
      </trkpt>
      <trkpt lat="37.7920229360" lon="-7.2053353395">
        <ele>289.01</ele>
        <time>2021-05-29T15:16:59Z</time>
      </trkpt>
      <trkpt lat="37.7924335655" lon="-7.2044867557">
        <ele>293.34</ele>
        <time>2021-05-29T15:17:02Z</time>
      </trkpt>
      <trkpt lat="37.7925613895" lon="-7.2042024415">
        <ele>293.34</ele>
        <time>2021-05-29T15:17:03Z</time>
      </trkpt>
      <trkpt lat="37.7929832507" lon="-7.2030423023">
        <ele>296.70</ele>
        <time>2021-05-29T15:17:07Z</time>
      </trkpt>
      <trkpt lat="37.7932703309" lon="-7.2021458577">
        <ele>299.59</ele>
        <time>2021-05-29T15:17:10Z</time>
      </trkpt>
      <trkpt lat="37.7934334427" lon="-7.2013382614">
        <ele>296.22</ele>
        <time>2021-05-29T15:17:13Z</time>
      </trkpt>
      <trkpt lat="37.7934784535" lon="-7.2010915820">
        <ele>296.70</ele>
        <time>2021-05-29T15:17:14Z</time>
      </trkpt>
      <trkpt lat="37.7936005779" lon="-7.2006064374">
        <ele>298.15</ele>
        <time>2021-05-29T15:17:16Z</time>
      </trkpt>
      <trkpt lat="37.7938572317" lon="-7.1998765413">
        <ele>300.07</ele>
        <time>2021-05-29T15:17:19Z</time>
      </trkpt>
      <trkpt lat="37.7943691984" lon="-7.1986775938">
        <ele>303.43</ele>
        <time>2021-05-29T15:17:24Z</time>
      </trkpt>
      <trkpt lat="37.7944788337" lon="-7.1984556410">
        <ele>302.95</ele>
        <time>2021-05-29T15:17:25Z</time>
      </trkpt>
      <trkpt lat="37.7949931473" lon="-7.1974196378">
        <ele>302.95</ele>
        <time>2021-05-29T15:17:30Z</time>
      </trkpt>
      <trkpt lat="37.7953373082" lon="-7.1967204195">
        <ele>302.47</ele>
        <time>2021-05-29T15:17:34Z</time>
      </trkpt>
      <trkpt lat="37.7954498772" lon="-7.1964490134">
        <ele>302.95</ele>
        <time>2021-05-29T15:17:36Z</time>
      </trkpt>
      <trkpt lat="37.7954807226" lon="-7.1963305771">
        <ele>302.95</ele>
        <time>2021-05-29T15:17:37Z</time>
      </trkpt>
      <trkpt lat="37.7954948042" lon="-7.1962276474">
        <ele>302.95</ele>
        <time>2021-05-29T15:17:38Z</time>
      </trkpt>
      <trkpt lat="37.7954938821" lon="-7.1961404756">
        <ele>303.43</ele>
        <time>2021-05-29T15:17:39Z</time>
      </trkpt>
      <trkpt lat="37.7954840753" lon="-7.1960707381">
        <ele>303.43</ele>
        <time>2021-05-29T15:17:40Z</time>
      </trkpt>
      <trkpt lat="37.7954715863" lon="-7.1960180160">
        <ele>303.43</ele>
        <time>2021-05-29T15:17:41Z</time>
      </trkpt>
      <trkpt lat="37.7954559959" lon="-7.1959716640">
        <ele>303.43</ele>
        <time>2021-05-29T15:17:42Z</time>
      </trkpt>
      <trkpt lat="37.7954298444" lon="-7.1959122363">
        <ele>303.43</ele>
        <time>2021-05-29T15:17:43Z</time>
      </trkpt>
      <trkpt lat="37.7953826543" lon="-7.1958330274">
        <ele>304.39</ele>
        <time>2021-05-29T15:17:44Z</time>
      </trkpt>
      <trkpt lat="37.7953190356" lon="-7.1957476996">
        <ele>305.36</ele>
        <time>2021-05-29T15:17:45Z</time>
      </trkpt>
      <trkpt lat="37.7952467836" lon="-7.1956539899">
        <ele>305.36</ele>
        <time>2021-05-29T15:17:46Z</time>
      </trkpt>
      <trkpt lat="37.7949901298" lon="-7.1952642314">
        <ele>308.72</ele>
        <time>2021-05-29T15:17:49Z</time>
      </trkpt>
      <trkpt lat="37.7946020477" lon="-7.1945719700">
        <ele>313.05</ele>
        <time>2021-05-29T15:17:53Z</time>
      </trkpt>
      <trkpt lat="37.7941873111" lon="-7.1934431791">
        <ele>315.93</ele>
        <time>2021-05-29T15:17:58Z</time>
      </trkpt>
      <trkpt lat="37.7941210940" lon="-7.1931814961">
        <ele>315.45</ele>
        <time>2021-05-29T15:17:59Z</time>
      </trkpt>
      <trkpt lat="37.7935750131" lon="-7.1908803284">
        <ele>312.09</ele>
        <time>2021-05-29T15:18:07Z</time>
      </trkpt>
      <trkpt lat="37.7932505496" lon="-7.1900157351">
        <ele>308.24</ele>
        <time>2021-05-29T15:18:10Z</time>
      </trkpt>
      <trkpt lat="37.7928123437" lon="-7.1888662409">
        <ele>306.32</ele>
        <time>2021-05-29T15:18:14Z</time>
      </trkpt>
      <trkpt lat="37.7924685180" lon="-7.1876806207">
        <ele>304.39</ele>
        <time>2021-05-29T15:18:18Z</time>
      </trkpt>
      <trkpt lat="37.7922536060" lon="-7.1868397482">
        <ele>300.55</ele>
        <time>2021-05-29T15:18:21Z</time>
      </trkpt>
      <trkpt lat="37.7921866346" lon="-7.1865806635">
        <ele>300.07</ele>
        <time>2021-05-29T15:18:22Z</time>
      </trkpt>
      <trkpt lat="37.7919506840" lon="-7.1848113276">
        <ele>299.59</ele>
        <time>2021-05-29T15:18:29Z</time>
      </trkpt>
      <trkpt lat="37.7919753268" lon="-7.1840129513">
        <ele>297.18</ele>
        <time>2021-05-29T15:18:32Z</time>
      </trkpt>
      <trkpt lat="37.7919519413" lon="-7.1834453288">
        <ele>294.78</ele>
        <time>2021-05-29T15:18:34Z</time>
      </trkpt>
      <trkpt lat="37.7919066790" lon="-7.1831719950">
        <ele>293.82</ele>
        <time>2021-05-29T15:18:35Z</time>
      </trkpt>
      <trkpt lat="37.7918400429" lon="-7.1829027683">
        <ele>293.34</ele>
        <time>2021-05-29T15:18:36Z</time>
      </trkpt>
      <trkpt lat="37.7911999170" lon="-7.1809390560">
        <ele>289.97</ele>
        <time>2021-05-29T15:18:43Z</time>
      </trkpt>
      <trkpt lat="37.7909343783" lon="-7.1801278554">
        <ele>288.05</ele>
        <time>2021-05-29T15:18:46Z</time>
      </trkpt>
      <trkpt lat="37.7898725588" lon="-7.1769434027">
        <ele>286.13</ele>
        <time>2021-05-29T15:18:57Z</time>
      </trkpt>
      <trkpt lat="37.7894004900" lon="-7.1750315744">
        <ele>289.01</ele>
        <time>2021-05-29T15:19:03Z</time>
      </trkpt>
      <trkpt lat="37.7891819738" lon="-7.1732964367">
        <ele>289.97</ele>
        <time>2021-05-29T15:19:08Z</time>
      </trkpt>
      <trkpt lat="37.7889697440" lon="-7.1715700161">
        <ele>293.34</ele>
        <time>2021-05-29T15:19:13Z</time>
      </trkpt>
      <trkpt lat="37.7887452766" lon="-7.1699482016">
        <ele>290.46</ele>
        <time>2021-05-29T15:19:18Z</time>
      </trkpt>
      <trkpt lat="37.7881374210" lon="-7.1681602579">
        <ele>289.97</ele>
        <time>2021-05-29T15:19:24Z</time>
      </trkpt>
      <trkpt lat="37.7878049109" lon="-7.1676080581">
        <ele>288.53</ele>
        <time>2021-05-29T15:19:26Z</time>
      </trkpt>
      <trkpt lat="37.7869922854" lon="-7.1666420437">
        <ele>287.57</ele>
        <time>2021-05-29T15:19:30Z</time>
      </trkpt>
      <trkpt lat="37.7865518164" lon="-7.1661978029">
        <ele>289.01</ele>
        <time>2021-05-29T15:19:32Z</time>
      </trkpt>
      <trkpt lat="37.7856783383" lon="-7.1653216425">
        <ele>285.65</ele>
        <time>2021-05-29T15:19:36Z</time>
      </trkpt>
      <trkpt lat="37.7852538787" lon="-7.1649010386">
        <ele>283.73</ele>
        <time>2021-05-29T15:19:38Z</time>
      </trkpt>
      <trkpt lat="37.7848330233" lon="-7.1644787584">
        <ele>280.84</ele>
        <time>2021-05-29T15:19:40Z</time>
      </trkpt>
      <trkpt lat="37.7839600481" lon="-7.1636678092">
        <ele>277.48</ele>
        <time>2021-05-29T15:19:44Z</time>
      </trkpt>
      <trkpt lat="37.7834878117" lon="-7.1633227263">
        <ele>273.63</ele>
        <time>2021-05-29T15:19:46Z</time>
      </trkpt>
      <trkpt lat="37.7832576446" lon="-7.1631617099">
        <ele>274.11</ele>
        <time>2021-05-29T15:19:47Z</time>
      </trkpt>
      <trkpt lat="37.7830400504" lon="-7.1630091593">
        <ele>269.79</ele>
        <time>2021-05-29T15:19:48Z</time>
      </trkpt>
      <trkpt lat="37.7826310974" lon="-7.1627177205">
        <ele>265.46</ele>
        <time>2021-05-29T15:19:50Z</time>
      </trkpt>
      <trkpt lat="37.7824387327" lon="-7.1625764854">
        <ele>262.10</ele>
        <time>2021-05-29T15:19:51Z</time>
      </trkpt>
      <trkpt lat="37.7820932306" lon="-7.1623011399">
        <ele>259.69</ele>
        <time>2021-05-29T15:19:53Z</time>
      </trkpt>
      <trkpt lat="37.7819512412" lon="-7.1621594857">
        <ele>258.25</ele>
        <time>2021-05-29T15:19:54Z</time>
      </trkpt>
      <trkpt lat="37.7818318829" lon="-7.1620046720">
        <ele>256.81</ele>
        <time>2021-05-29T15:19:55Z</time>
      </trkpt>
      <trkpt lat="37.7817318868" lon="-7.1618263051">
        <ele>258.25</ele>
        <time>2021-05-29T15:19:56Z</time>
      </trkpt>
      <trkpt lat="37.7816479001" lon="-7.1616221219">
        <ele>257.77</ele>
        <time>2021-05-29T15:19:57Z</time>
      </trkpt>
      <trkpt lat="37.7815759834" lon="-7.1613946371">
        <ele>259.21</ele>
        <time>2021-05-29T15:19:58Z</time>
      </trkpt>
      <trkpt lat="37.7815115266" lon="-7.1611485444">
        <ele>261.62</ele>
        <time>2021-05-29T15:19:59Z</time>
      </trkpt>
      <trkpt lat="37.7813875582" lon="-7.1606115997">
        <ele>264.98</ele>
        <time>2021-05-29T15:20:01Z</time>
      </trkpt>
      <trkpt lat="37.7812549565" lon="-7.1600264590">
        <ele>266.90</ele>
        <time>2021-05-29T15:20:03Z</time>
      </trkpt>
      <trkpt lat="37.7809745818" lon="-7.1587928105">
        <ele>270.75</ele>
        <time>2021-05-29T15:20:07Z</time>
      </trkpt>
      <trkpt lat="37.7805284131" lon="-7.1571160946">
        <ele>274.11</ele>
        <time>2021-05-29T15:20:12Z</time>
      </trkpt>
      <trkpt lat="37.7802286763" lon="-7.1561539359">
        <ele>270.75</ele>
        <time>2021-05-29T15:20:15Z</time>
      </trkpt>
      <trkpt lat="37.7799019497" lon="-7.1553619299">
        <ele>268.35</ele>
        <time>2021-05-29T15:20:18Z</time>
      </trkpt>
      <trkpt lat="37.7797556855" lon="-7.1551286615">
        <ele>270.27</ele>
        <time>2021-05-29T15:20:19Z</time>
      </trkpt>
      <trkpt lat="37.7795865387" lon="-7.1549035236">
        <ele>271.23</ele>
        <time>2021-05-29T15:20:20Z</time>
      </trkpt>
      <trkpt lat="37.7791992109" lon="-7.1544617973">
        <ele>274.59</ele>
        <time>2021-05-29T15:20:22Z</time>
      </trkpt>
      <trkpt lat="37.7787768468" lon="-7.1540059894">
        <ele>270.75</ele>
        <time>2021-05-29T15:20:24Z</time>
      </trkpt>
      <trkpt lat="37.7767259628" lon="-7.1515021473">
        <ele>268.83</ele>
        <time>2021-05-29T15:20:34Z</time>
      </trkpt>
      <trkpt lat="37.7759389021" lon="-7.1503926348">
        <ele>264.50</ele>
        <time>2021-05-29T15:20:38Z</time>
      </trkpt>
      <trkpt lat="37.7755586989" lon="-7.1498516668">
        <ele>268.83</ele>
        <time>2021-05-29T15:20:40Z</time>
      </trkpt>
      <trkpt lat="37.7753709443" lon="-7.1495866310">
        <ele>268.83</ele>
        <time>2021-05-29T15:20:41Z</time>
      </trkpt>
      <trkpt lat="37.7748365980" lon="-7.1487730835">
        <ele>267.38</ele>
        <time>2021-05-29T15:20:44Z</time>
      </trkpt>
      <trkpt lat="37.7744996455" lon="-7.1482138429">
        <ele>272.19</ele>
        <time>2021-05-29T15:20:46Z</time>
      </trkpt>
      <trkpt lat="37.7743378747" lon="-7.1479508188">
        <ele>271.71</ele>
        <time>2021-05-29T15:20:47Z</time>
      </trkpt>
      <trkpt lat="37.7738260757" lon="-7.1472801827">
        <ele>268.35</ele>
        <time>2021-05-29T15:20:50Z</time>
      </trkpt>
      <trkpt lat="37.7732542623" lon="-7.1466941200">
        <ele>272.67</ele>
        <time>2021-05-29T15:20:53Z</time>
      </trkpt>
      <trkpt lat="37.7724979632" lon="-7.1459094062">
        <ele>271.23</ele>
        <time>2021-05-29T15:20:57Z</time>
      </trkpt>
      <trkpt lat="37.7723325044" lon="-7.1456840169">
        <ele>272.67</ele>
        <time>2021-05-29T15:20:58Z</time>
      </trkpt>
      <trkpt lat="37.7721784450" lon="-7.1454332303">
        <ele>270.75</ele>
        <time>2021-05-29T15:20:59Z</time>
      </trkpt>
      <trkpt lat="37.7713475469" lon="-7.1439025272">
        <ele>267.38</ele>
        <time>2021-05-29T15:21:05Z</time>
      </trkpt>
      <trkpt lat="37.7711835969" lon="-7.1436856873">
        <ele>267.86</ele>
        <time>2021-05-29T15:21:06Z</time>
      </trkpt>
      <trkpt lat="37.7709998656" lon="-7.1434786543">
        <ele>268.35</ele>
        <time>2021-05-29T15:21:07Z</time>
      </trkpt>
      <trkpt lat="37.7697720844" lon="-7.1422314271">
        <ele>267.86</ele>
        <time>2021-05-29T15:21:13Z</time>
      </trkpt>
      <trkpt lat="37.7688960079" lon="-7.1413794067">
        <ele>268.83</ele>
        <time>2021-05-29T15:21:17Z</time>
      </trkpt>
      <trkpt lat="37.7684816066" lon="-7.1409831103">
        <ele>265.46</ele>
        <time>2021-05-29T15:21:19Z</time>
      </trkpt>
      <trkpt lat="37.7681298181" lon="-7.1406061761">
        <ele>260.65</ele>
        <time>2021-05-29T15:21:21Z</time>
      </trkpt>
      <trkpt lat="37.7679728251" lon="-7.1403952874">
        <ele>261.14</ele>
        <time>2021-05-29T15:21:22Z</time>
      </trkpt>
      <trkpt lat="37.7678310871" lon="-7.1401664615">
        <ele>259.69</ele>
        <time>2021-05-29T15:21:23Z</time>
      </trkpt>
      <trkpt lat="37.7672952320" lon="-7.1392423566">
        <ele>258.73</ele>
        <time>2021-05-29T15:21:27Z</time>
      </trkpt>
      <trkpt lat="37.7671279293" lon="-7.1390423644">
        <ele>258.25</ele>
        <time>2021-05-29T15:21:28Z</time>
      </trkpt>
      <trkpt lat="37.7669381630" lon="-7.1388588008">
        <ele>257.29</ele>
        <time>2021-05-29T15:21:29Z</time>
      </trkpt>
      <trkpt lat="37.7667288668" lon="-7.1386866365">
        <ele>257.29</ele>
        <time>2021-05-29T15:21:30Z</time>
      </trkpt>
      <trkpt lat="37.7665059082" lon="-7.1385208424">
        <ele>256.81</ele>
        <time>2021-05-29T15:21:31Z</time>
      </trkpt>
      <trkpt lat="37.7658376191" lon="-7.1380496118">
        <ele>254.89</ele>
        <time>2021-05-29T15:21:34Z</time>
      </trkpt>
      <trkpt lat="37.7644475643" lon="-7.1372138523">
        <ele>253.44</ele>
        <time>2021-05-29T15:21:40Z</time>
      </trkpt>
      <trkpt lat="37.7637603320" lon="-7.1369133610">
        <ele>247.20</ele>
        <time>2021-05-29T15:21:43Z</time>
      </trkpt>
      <trkpt lat="37.7631870937" lon="-7.1365608182">
        <ele>246.72</ele>
        <time>2021-05-29T15:21:46Z</time>
      </trkpt>
      <trkpt lat="37.7630074695" lon="-7.1363967843">
        <ele>247.20</ele>
        <time>2021-05-29T15:21:47Z</time>
      </trkpt>
      <trkpt lat="37.7615609206" lon="-7.1347969305">
        <ele>243.35</ele>
        <time>2021-05-29T15:21:55Z</time>
      </trkpt>
      <trkpt lat="37.7613829728" lon="-7.1346336510">
        <ele>242.87</ele>
        <time>2021-05-29T15:21:56Z</time>
      </trkpt>
      <trkpt lat="37.7611958049" lon="-7.1344962716">
        <ele>240.47</ele>
        <time>2021-05-29T15:21:57Z</time>
      </trkpt>
      <trkpt lat="37.7609925438" lon="-7.1343784221">
        <ele>239.99</ele>
        <time>2021-05-29T15:21:58Z</time>
      </trkpt>
      <trkpt lat="37.7607736923" lon="-7.1342771687">
        <ele>241.91</ele>
        <time>2021-05-29T15:21:59Z</time>
      </trkpt>
      <trkpt lat="37.7605420165" lon="-7.1341928467">
        <ele>241.43</ele>
        <time>2021-05-29T15:22:00Z</time>
      </trkpt>
      <trkpt lat="37.7602986060" lon="-7.1341221873">
        <ele>242.39</ele>
        <time>2021-05-29T15:22:01Z</time>
      </trkpt>
      <trkpt lat="37.7598003857" lon="-7.1340003144">
        <ele>242.87</ele>
        <time>2021-05-29T15:22:03Z</time>
      </trkpt>
      <trkpt lat="37.7590803802" lon="-7.1337912697">
        <ele>239.99</ele>
        <time>2021-05-29T15:22:06Z</time>
      </trkpt>
      <trkpt lat="37.7578152996" lon="-7.1329728607">
        <ele>240.47</ele>
        <time>2021-05-29T15:22:12Z</time>
      </trkpt>
      <trkpt lat="37.7570841461" lon="-7.1320662741">
        <ele>238.54</ele>
        <time>2021-05-29T15:22:16Z</time>
      </trkpt>
      <trkpt lat="37.7563875262" lon="-7.1310733538">
        <ele>234.70</ele>
        <time>2021-05-29T15:22:20Z</time>
      </trkpt>
      <trkpt lat="37.7562138531" lon="-7.1308229864">
        <ele>234.70</ele>
        <time>2021-05-29T15:22:21Z</time>
      </trkpt>
      <trkpt lat="37.7556620724" lon="-7.1301342454">
        <ele>235.18</ele>
        <time>2021-05-29T15:22:24Z</time>
      </trkpt>
      <trkpt lat="37.7554517705" lon="-7.1299500111">
        <ele>235.18</ele>
        <time>2021-05-29T15:22:25Z</time>
      </trkpt>
      <trkpt lat="37.7552261297" lon="-7.1297842171">
        <ele>236.14</ele>
        <time>2021-05-29T15:22:26Z</time>
      </trkpt>
      <trkpt lat="37.7535324823" lon="-7.1287031192">
        <ele>235.66</ele>
        <time>2021-05-29T15:22:33Z</time>
      </trkpt>
      <trkpt lat="37.7527346089" lon="-7.1280956827">
        <ele>231.81</ele>
        <time>2021-05-29T15:22:37Z</time>
      </trkpt>
      <trkpt lat="37.7525651269" lon="-7.1278999653">
        <ele>231.81</ele>
        <time>2021-05-29T15:22:38Z</time>
      </trkpt>
      <trkpt lat="37.7524088882" lon="-7.1276796889">
        <ele>232.78</ele>
        <time>2021-05-29T15:22:39Z</time>
      </trkpt>
      <trkpt lat="37.7522663958" lon="-7.1274318360">
        <ele>235.66</ele>
        <time>2021-05-29T15:22:40Z</time>
      </trkpt>
      <trkpt lat="37.7521316987" lon="-7.1271625254">
        <ele>235.18</ele>
        <time>2021-05-29T15:22:41Z</time>
      </trkpt>
      <trkpt lat="37.7517202310" lon="-7.1262820903">
        <ele>238.06</ele>
        <time>2021-05-29T15:22:44Z</time>
      </trkpt>
      <trkpt lat="37.7515789960" lon="-7.1259745583">
        <ele>237.58</ele>
        <time>2021-05-29T15:22:45Z</time>
      </trkpt>
      <trkpt lat="37.7512963582" lon="-7.1253531240">
        <ele>232.78</ele>
        <time>2021-05-29T15:22:47Z</time>
      </trkpt>
      <trkpt lat="37.7511528600" lon="-7.1250415687">
        <ele>233.26</ele>
        <time>2021-05-29T15:22:48Z</time>
      </trkpt>
      <trkpt lat="37.7508624271" lon="-7.1244173683">
        <ele>228.93</ele>
        <time>2021-05-29T15:22:50Z</time>
      </trkpt>
      <trkpt lat="37.7496289462" lon="-7.1217980236">
        <ele>233.26</ele>
        <time>2021-05-29T15:22:59Z</time>
      </trkpt>
      <trkpt lat="37.7493543550" lon="-7.1213039104">
        <ele>234.22</ele>
        <time>2021-05-29T15:23:01Z</time>
      </trkpt>
      <trkpt lat="37.7488399576" lon="-7.1205932088">
        <ele>237.58</ele>
        <time>2021-05-29T15:23:04Z</time>
      </trkpt>
      <trkpt lat="37.7486618422" lon="-7.1203702502">
        <ele>237.10</ele>
        <time>2021-05-29T15:23:05Z</time>
      </trkpt>
      <trkpt lat="37.7481754404" lon="-7.1197618078">
        <ele>235.18</ele>
        <time>2021-05-29T15:23:08Z</time>
      </trkpt>
      <trkpt lat="37.7470420394" lon="-7.1179327928">
        <ele>236.62</ele>
        <time>2021-05-29T15:23:17Z</time>
      </trkpt>
      <trkpt lat="37.7467960306" lon="-7.1174712852">
        <ele>232.78</ele>
        <time>2021-05-29T15:23:19Z</time>
      </trkpt>
      <trkpt lat="37.7459618635" lon="-7.1158674080">
        <ele>237.10</ele>
        <time>2021-05-29T15:23:26Z</time>
      </trkpt>
      <trkpt lat="37.7456977498" lon="-7.1153291222">
        <ele>240.95</ele>
        <time>2021-05-29T15:23:28Z</time>
      </trkpt>
      <trkpt lat="37.7440724149" lon="-7.1122877486">
        <ele>245.27</ele>
        <time>2021-05-29T15:23:39Z</time>
      </trkpt>
      <trkpt lat="37.7439288329" lon="-7.1120139956">
        <ele>243.83</ele>
        <time>2021-05-29T15:23:40Z</time>
      </trkpt>
      <trkpt lat="37.7436510567" lon="-7.1114830021">
        <ele>242.39</ele>
        <time>2021-05-29T15:23:42Z</time>
      </trkpt>
      <trkpt lat="37.7430971805" lon="-7.1104396228">
        <ele>244.31</ele>
        <time>2021-05-29T15:23:46Z</time>
      </trkpt>
      <trkpt lat="37.7425264567" lon="-7.1093497239">
        <ele>239.51</ele>
        <time>2021-05-29T15:23:50Z</time>
      </trkpt>
      <trkpt lat="37.7422381192" lon="-7.1088054031">
        <ele>235.66</ele>
        <time>2021-05-29T15:23:52Z</time>
      </trkpt>
      <trkpt lat="37.7416632883" lon="-7.1077156719">
        <ele>234.22</ele>
        <time>2021-05-29T15:23:56Z</time>
      </trkpt>
      <trkpt lat="37.7406079229" lon="-7.1051514801">
        <ele>238.06</ele>
        <time>2021-05-29T15:24:05Z</time>
      </trkpt>
      <trkpt lat="37.7402377781" lon="-7.1040091943">
        <ele>235.18</ele>
        <time>2021-05-29T15:24:09Z</time>
      </trkpt>
      <trkpt lat="37.7400529571" lon="-7.1034703217">
        <ele>229.41</ele>
        <time>2021-05-29T15:24:11Z</time>
      </trkpt>
      <trkpt lat="37.7398391347" lon="-7.1029938105">
        <ele>227.49</ele>
        <time>2021-05-29T15:24:13Z</time>
      </trkpt>
      <trkpt lat="37.7397098020" lon="-7.1027772222">
        <ele>226.05</ele>
        <time>2021-05-29T15:24:14Z</time>
      </trkpt>
      <trkpt lat="37.7395608556" lon="-7.1025768109">
        <ele>226.05</ele>
        <time>2021-05-29T15:24:15Z</time>
      </trkpt>
      <trkpt lat="37.7393922955" lon="-7.1023930795">
        <ele>225.57</ele>
        <time>2021-05-29T15:24:16Z</time>
      </trkpt>
      <trkpt lat="37.7392035350" lon="-7.1022212505">
        <ele>226.05</ele>
        <time>2021-05-29T15:24:17Z</time>
      </trkpt>
      <trkpt lat="37.7390011959" lon="-7.1020601504">
        <ele>224.61</ele>
        <time>2021-05-29T15:24:18Z</time>
      </trkpt>
      <trkpt lat="37.7387881279" lon="-7.1019060072">
        <ele>225.57</ele>
        <time>2021-05-29T15:24:19Z</time>
      </trkpt>
      <trkpt lat="37.7381350100" lon="-7.1014621854">
        <ele>224.61</ele>
        <time>2021-05-29T15:24:22Z</time>
      </trkpt>
      <trkpt lat="37.7372946404" lon="-7.1009014361">
        <ele>220.28</ele>
        <time>2021-05-29T15:24:26Z</time>
      </trkpt>
      <trkpt lat="37.7367421053" lon="-7.1004708577">
        <ele>216.91</ele>
        <time>2021-05-29T15:24:29Z</time>
      </trkpt>
      <trkpt lat="37.7365739644" lon="-7.1002839413">
        <ele>216.43</ele>
        <time>2021-05-29T15:24:30Z</time>
      </trkpt>
      <trkpt lat="37.7364134509" lon="-7.1000745613">
        <ele>216.91</ele>
        <time>2021-05-29T15:24:31Z</time>
      </trkpt>
      <trkpt lat="37.7361047454" lon="-7.0996113773">
        <ele>218.36</ele>
        <time>2021-05-29T15:24:33Z</time>
      </trkpt>
      <trkpt lat="37.7357964590" lon="-7.0991130732">
        <ele>219.80</ele>
        <time>2021-05-29T15:24:35Z</time>
      </trkpt>
      <trkpt lat="37.7343685180" lon="-7.0968119055">
        <ele>223.16</ele>
        <time>2021-05-29T15:24:44Z</time>
      </trkpt>
      <trkpt lat="37.7331445087" lon="-7.0948575810">
        <ele>219.80</ele>
        <time>2021-05-29T15:24:52Z</time>
      </trkpt>
      <trkpt lat="37.7327016927" lon="-7.0942495577">
        <ele>217.40</ele>
        <time>2021-05-29T15:24:55Z</time>
      </trkpt>
      <trkpt lat="37.7325300314" lon="-7.0940866973">
        <ele>217.40</ele>
        <time>2021-05-29T15:24:56Z</time>
      </trkpt>
      <trkpt lat="37.7323405165" lon="-7.0939447079">
        <ele>216.91</ele>
        <time>2021-05-29T15:24:57Z</time>
      </trkpt>
      <trkpt lat="37.7321367525" lon="-7.0938264392">
        <ele>218.36</ele>
        <time>2021-05-29T15:24:58Z</time>
      </trkpt>
      <trkpt lat="37.7319259476" lon="-7.0937289577">
        <ele>219.32</ele>
        <time>2021-05-29T15:24:59Z</time>
      </trkpt>
      <trkpt lat="37.7317185793" lon="-7.0936453063">
        <ele>219.32</ele>
        <time>2021-05-29T15:25:00Z</time>
      </trkpt>
      <trkpt lat="37.7313404717" lon="-7.0935038198">
        <ele>214.51</ele>
        <time>2021-05-29T15:25:02Z</time>
      </trkpt>
      <trkpt lat="37.7306333743" lon="-7.0932317432">
        <ele>213.07</ele>
        <time>2021-05-29T15:25:07Z</time>
      </trkpt>
      <trkpt lat="37.7304339688" lon="-7.0931382850">
        <ele>211.15</ele>
        <time>2021-05-29T15:25:10Z</time>
      </trkpt>
      <trkpt lat="37.7302760538" lon="-7.0929993130">
        <ele>212.11</ele>
        <time>2021-05-29T15:25:16Z</time>
      </trkpt>
      <trkpt lat="37.7302559372" lon="-7.0929095428">
        <ele>212.11</ele>
        <time>2021-05-29T15:25:17Z</time>
      </trkpt>
      <trkpt lat="37.7302514948" lon="-7.0928013325">
        <ele>213.07</ele>
        <time>2021-05-29T15:25:18Z</time>
      </trkpt>
      <trkpt lat="37.7302644029" lon="-7.0926858298">
        <ele>213.55</ele>
        <time>2021-05-29T15:25:19Z</time>
      </trkpt>
      <trkpt lat="37.7302902192" lon="-7.0925496239">
        <ele>214.51</ele>
        <time>2021-05-29T15:25:20Z</time>
      </trkpt>
      <trkpt lat="37.7303490601" lon="-7.0922174491">
        <ele>217.88</ele>
        <time>2021-05-29T15:25:22Z</time>
      </trkpt>
      <trkpt lat="37.7303612139" lon="-7.0920413453">
        <ele>217.88</ele>
        <time>2021-05-29T15:25:23Z</time>
      </trkpt>
      <trkpt lat="37.7303559333" lon="-7.0918621402">
        <ele>218.36</ele>
        <time>2021-05-29T15:25:24Z</time>
      </trkpt>
      <trkpt lat="37.7303295303" lon="-7.0916752238">
        <ele>219.80</ele>
        <time>2021-05-29T15:25:25Z</time>
      </trkpt>
      <trkpt lat="37.7302847710" lon="-7.0914876368">
        <ele>221.72</ele>
        <time>2021-05-29T15:25:26Z</time>
      </trkpt>
      <trkpt lat="37.7302275226" lon="-7.0913049113">
        <ele>223.16</ele>
        <time>2021-05-29T15:25:27Z</time>
      </trkpt>
      <trkpt lat="37.7301653288" lon="-7.0911280531">
        <ele>224.12</ele>
        <time>2021-05-29T15:25:28Z</time>
      </trkpt>
      <trkpt lat="37.7298713755" lon="-7.0902735181">
        <ele>226.05</ele>
        <time>2021-05-29T15:25:33Z</time>
      </trkpt>
      <trkpt lat="37.7297008876" lon="-7.0887095388">
        <ele>224.61</ele>
        <time>2021-05-29T15:25:41Z</time>
      </trkpt>
      <trkpt lat="37.7297122870" lon="-7.0885583293">
        <ele>223.16</ele>
        <time>2021-05-29T15:25:42Z</time>
      </trkpt>
      <trkpt lat="37.7297583874" lon="-7.0882562455">
        <ele>219.80</ele>
        <time>2021-05-29T15:25:45Z</time>
      </trkpt>
      <trkpt lat="37.7298221737" lon="-7.0880546607">
        <ele>218.84</ele>
        <time>2021-05-29T15:25:50Z</time>
      </trkpt>
      <trkpt lat="37.7298738901" lon="-7.0880306885">
        <ele>219.32</ele>
        <time>2021-05-29T15:25:51Z</time>
      </trkpt>
      <trkpt lat="37.7299412806" lon="-7.0880369749">
        <ele>219.32</ele>
        <time>2021-05-29T15:25:52Z</time>
      </trkpt>
      <trkpt lat="37.7300206572" lon="-7.0880601928">
        <ele>219.80</ele>
        <time>2021-05-29T15:25:53Z</time>
      </trkpt>
      <trkpt lat="37.7301187254" lon="-7.0880915411">
        <ele>219.32</ele>
        <time>2021-05-29T15:25:54Z</time>
      </trkpt>
      <trkpt lat="37.7304851823" lon="-7.0881515555">
        <ele>218.36</ele>
        <time>2021-05-29T15:25:57Z</time>
      </trkpt>
      <trkpt lat="37.7306328714" lon="-7.0881435089">
        <ele>217.88</ele>
        <time>2021-05-29T15:25:58Z</time>
      </trkpt>
      <trkpt lat="37.7307915408" lon="-7.0881040301">
        <ele>217.40</ele>
        <time>2021-05-29T15:25:59Z</time>
      </trkpt>
      <trkpt lat="37.7309488691" lon="-7.0880473685">
        <ele>217.40</ele>
        <time>2021-05-29T15:26:00Z</time>
      </trkpt>
      <trkpt lat="37.7313983068" lon="-7.0878171176">
        <ele>216.43</ele>
        <time>2021-05-29T15:26:03Z</time>
      </trkpt>
      <trkpt lat="37.7315213531" lon="-7.0877061412">
        <ele>216.91</ele>
        <time>2021-05-29T15:26:04Z</time>
      </trkpt>
      <trkpt lat="37.7316300664" lon="-7.0875760540">
        <ele>217.40</ele>
        <time>2021-05-29T15:26:05Z</time>
      </trkpt>
      <trkpt lat="37.7317291405" lon="-7.0874329749">
        <ele>217.88</ele>
        <time>2021-05-29T15:26:06Z</time>
      </trkpt>
      <trkpt lat="37.7318222634" lon="-7.0872738864">
        <ele>217.88</ele>
        <time>2021-05-29T15:26:07Z</time>
      </trkpt>
      <trkpt lat="37.7319105249" lon="-7.0870986208">
        <ele>219.80</ele>
        <time>2021-05-29T15:26:08Z</time>
      </trkpt>
      <trkpt lat="37.7320747264" lon="-7.0867052581">
        <ele>223.16</ele>
        <time>2021-05-29T15:26:10Z</time>
      </trkpt>
      <trkpt lat="37.7325447835" lon="-7.0853141136">
        <ele>227.49</ele>
        <time>2021-05-29T15:26:16Z</time>
      </trkpt>
      <trkpt lat="37.7326714341" lon="-7.0845550485">
        <ele>229.89</ele>
        <time>2021-05-29T15:26:19Z</time>
      </trkpt>
      <trkpt lat="37.7328036167" lon="-7.0839096420">
        <ele>230.37</ele>
        <time>2021-05-29T15:26:22Z</time>
      </trkpt>
      <trkpt lat="37.7328938060" lon="-7.0837218873">
        <ele>231.33</ele>
        <time>2021-05-29T15:26:23Z</time>
      </trkpt>
      <trkpt lat="37.7330087218" lon="-7.0835449453">
        <ele>233.26</ele>
        <time>2021-05-29T15:26:24Z</time>
      </trkpt>
      <trkpt lat="37.7331408206" lon="-7.0833733678">
        <ele>235.18</ele>
        <time>2021-05-29T15:26:25Z</time>
      </trkpt>
      <trkpt lat="37.7332863305" lon="-7.0832104236">
        <ele>235.66</ele>
        <time>2021-05-29T15:26:26Z</time>
      </trkpt>
      <trkpt lat="37.7334483527" lon="-7.0830577053">
        <ele>234.22</ele>
        <time>2021-05-29T15:26:27Z</time>
      </trkpt>
      <trkpt lat="37.7336284798" lon="-7.0829147100">
        <ele>235.18</ele>
        <time>2021-05-29T15:26:28Z</time>
      </trkpt>
      <trkpt lat="37.7338206768" lon="-7.0827818569">
        <ele>234.70</ele>
        <time>2021-05-29T15:26:29Z</time>
      </trkpt>
      <trkpt lat="37.7340168133" lon="-7.0826583914">
        <ele>232.78</ele>
        <time>2021-05-29T15:26:30Z</time>
      </trkpt>
      <trkpt lat="37.7348171175" lon="-7.0822237898">
        <ele>229.41</ele>
        <time>2021-05-29T15:26:34Z</time>
      </trkpt>
      <trkpt lat="37.7350245696" lon="-7.0821705647">
        <ele>228.93</ele>
        <time>2021-05-29T15:26:35Z</time>
      </trkpt>
      <trkpt lat="37.7352381404" lon="-7.0821461733">
        <ele>229.41</ele>
        <time>2021-05-29T15:26:36Z</time>
      </trkpt>
      <trkpt lat="37.7360657696" lon="-7.0820637792">
        <ele>228.45</ele>
        <time>2021-05-29T15:26:40Z</time>
      </trkpt>
      <trkpt lat="37.7362571284" lon="-7.0819828101">
        <ele>228.93</ele>
        <time>2021-05-29T15:26:41Z</time>
      </trkpt>
      <trkpt lat="37.7364446316" lon="-7.0818746835">
        <ele>229.41</ele>
        <time>2021-05-29T15:26:42Z</time>
      </trkpt>
      <trkpt lat="37.7366275247" lon="-7.0817437582">
        <ele>229.89</ele>
        <time>2021-05-29T15:26:43Z</time>
      </trkpt>
      <trkpt lat="37.7368065622" lon="-7.0815905370">
        <ele>229.89</ele>
        <time>2021-05-29T15:26:44Z</time>
      </trkpt>
      <trkpt lat="37.7369758766" lon="-7.0814086497">
        <ele>232.78</ele>
        <time>2021-05-29T15:26:45Z</time>
      </trkpt>
      <trkpt lat="37.7371304389" lon="-7.0811971743">
        <ele>234.70</ele>
        <time>2021-05-29T15:26:46Z</time>
      </trkpt>
      <trkpt lat="37.7372700814" lon="-7.0809645765">
        <ele>233.74</ele>
        <time>2021-05-29T15:26:47Z</time>
      </trkpt>
      <trkpt lat="37.7374017611" lon="-7.0807174779">
        <ele>234.22</ele>
        <time>2021-05-29T15:26:48Z</time>
      </trkpt>
      <trkpt lat="37.7379082795" lon="-7.0797389746">
        <ele>231.33</ele>
        <time>2021-05-29T15:26:52Z</time>
      </trkpt>
      <trkpt lat="37.7387161274" lon="-7.0783174038">
        <ele>231.81</ele>
        <time>2021-05-29T15:26:58Z</time>
      </trkpt>
      <trkpt lat="37.7388902195" lon="-7.0781034976">
        <ele>232.78</ele>
        <time>2021-05-29T15:26:59Z</time>
      </trkpt>
      <trkpt lat="37.7402883209" lon="-7.0769074000">
        <ele>233.74</ele>
        <time>2021-05-29T15:27:06Z</time>
      </trkpt>
      <trkpt lat="37.7405055799" lon="-7.0767639019">
        <ele>234.22</ele>
        <time>2021-05-29T15:27:07Z</time>
      </trkpt>
      <trkpt lat="37.7413390763" lon="-7.0761258714">
        <ele>235.66</ele>
        <time>2021-05-29T15:27:11Z</time>
      </trkpt>
      <trkpt lat="37.7423309907" lon="-7.0752533991">
        <ele>234.70</ele>
        <time>2021-05-29T15:27:16Z</time>
      </trkpt>
      <trkpt lat="37.7425026521" lon="-7.0750347991">
        <ele>235.66</ele>
        <time>2021-05-29T15:27:17Z</time>
      </trkpt>
      <trkpt lat="37.7428344917" lon="-7.0745547675">
        <ele>238.06</ele>
        <time>2021-05-29T15:27:19Z</time>
      </trkpt>
      <trkpt lat="37.7435215563" lon="-7.0735245477">
        <ele>241.43</ele>
        <time>2021-05-29T15:27:23Z</time>
      </trkpt>
      <trkpt lat="37.7438804694" lon="-7.0729934704">
        <ele>242.87</ele>
        <time>2021-05-29T15:27:25Z</time>
      </trkpt>
      <trkpt lat="37.7463140711" lon="-7.0693542995">
        <ele>239.51</ele>
        <time>2021-05-29T15:27:39Z</time>
      </trkpt>
      <trkpt lat="37.7464313339" lon="-7.0690894313">
        <ele>240.95</ele>
        <time>2021-05-29T15:27:40Z</time>
      </trkpt>
      <trkpt lat="37.7465197630" lon="-7.0688078832">
        <ele>241.43</ele>
        <time>2021-05-29T15:27:41Z</time>
      </trkpt>
      <trkpt lat="37.7465829626" lon="-7.0685105771">
        <ele>241.43</ele>
        <time>2021-05-29T15:27:42Z</time>
      </trkpt>
      <trkpt lat="37.7466305718" lon="-7.0681980997">
        <ele>242.39</ele>
        <time>2021-05-29T15:27:43Z</time>
      </trkpt>
      <trkpt lat="37.7467637602" lon="-7.0672145672">
        <ele>246.72</ele>
        <time>2021-05-29T15:27:46Z</time>
      </trkpt>
      <trkpt lat="37.7468129620" lon="-7.0668748487">
        <ele>245.75</ele>
        <time>2021-05-29T15:27:47Z</time>
      </trkpt>
      <trkpt lat="37.7470170613" lon="-7.0654710475">
        <ele>249.60</ele>
        <time>2021-05-29T15:27:51Z</time>
      </trkpt>
      <trkpt lat="37.7473181393" lon="-7.0633499231">
        <ele>246.72</ele>
        <time>2021-05-29T15:27:57Z</time>
      </trkpt>
      <trkpt lat="37.7475322131" lon="-7.0621619560">
        <ele>243.83</ele>
        <time>2021-05-29T15:28:01Z</time>
      </trkpt>
      <trkpt lat="37.7476301976" lon="-7.0619011950">
        <ele>243.83</ele>
        <time>2021-05-29T15:28:02Z</time>
      </trkpt>
      <trkpt lat="37.7477562614" lon="-7.0616466366">
        <ele>245.75</ele>
        <time>2021-05-29T15:28:03Z</time>
      </trkpt>
      <trkpt lat="37.7479056269" lon="-7.0613980293">
        <ele>244.79</ele>
        <time>2021-05-29T15:28:04Z</time>
      </trkpt>
      <trkpt lat="37.7480715048" lon="-7.0611511823">
        <ele>245.27</ele>
        <time>2021-05-29T15:28:05Z</time>
      </trkpt>
      <trkpt lat="37.7484268975" lon="-7.0606344379">
        <ele>247.68</ele>
        <time>2021-05-29T15:28:07Z</time>
      </trkpt>
      <trkpt lat="37.7493646648" lon="-7.0592445508">
        <ele>251.52</ele>
        <time>2021-05-29T15:28:12Z</time>
      </trkpt>
      <trkpt lat="37.7495485637" lon="-7.0589717198">
        <ele>250.08</ele>
        <time>2021-05-29T15:28:13Z</time>
      </trkpt>
      <trkpt lat="37.7517704386" lon="-7.0556456968">
        <ele>253.44</ele>
        <time>2021-05-29T15:28:26Z</time>
      </trkpt>
      <trkpt lat="37.7519405913" lon="-7.0553903840">
        <ele>253.93</ele>
        <time>2021-05-29T15:28:27Z</time>
      </trkpt>
      <trkpt lat="37.7524599340" lon="-7.0546093583">
        <ele>255.37</ele>
        <time>2021-05-29T15:28:30Z</time>
      </trkpt>
      <trkpt lat="37.7536921576" lon="-7.0527756494">
        <ele>256.33</ele>
        <time>2021-05-29T15:28:38Z</time>
      </trkpt>
      <trkpt lat="37.7538452949" lon="-7.0526070055">
        <ele>256.33</ele>
        <time>2021-05-29T15:28:39Z</time>
      </trkpt>
      <trkpt lat="37.7540219855" lon="-7.0524641778">
        <ele>255.85</ele>
        <time>2021-05-29T15:28:40Z</time>
      </trkpt>
      <trkpt lat="37.7542209718" lon="-7.0523426402">
        <ele>256.81</ele>
        <time>2021-05-29T15:28:41Z</time>
      </trkpt>
      <trkpt lat="37.7544373088" lon="-7.0522314962">
        <ele>256.81</ele>
        <time>2021-05-29T15:28:42Z</time>
      </trkpt>
      <trkpt lat="37.7551417239" lon="-7.0518912748">
        <ele>262.10</ele>
        <time>2021-05-29T15:28:45Z</time>
      </trkpt>
      <trkpt lat="37.7553889900" lon="-7.0517702401">
        <ele>262.10</ele>
        <time>2021-05-29T15:28:46Z</time>
      </trkpt>
      <trkpt lat="37.7558927424" lon="-7.0515221357">
        <ele>264.02</ele>
        <time>2021-05-29T15:28:48Z</time>
      </trkpt>
      <trkpt lat="37.7566531487" lon="-7.0511462074">
        <ele>265.94</ele>
        <time>2021-05-29T15:28:51Z</time>
      </trkpt>
      <trkpt lat="37.7572886646" lon="-7.0508302934">
        <ele>262.58</ele>
        <time>2021-05-29T15:28:54Z</time>
      </trkpt>
      <trkpt lat="37.7574507706" lon="-7.0507357456">
        <ele>262.58</ele>
        <time>2021-05-29T15:28:55Z</time>
      </trkpt>
      <trkpt lat="37.7575830370" lon="-7.0506292116">
        <ele>262.58</ele>
        <time>2021-05-29T15:28:56Z</time>
      </trkpt>
      <trkpt lat="37.7576826978" lon="-7.0504978672">
        <ele>262.58</ele>
        <time>2021-05-29T15:28:57Z</time>
      </trkpt>
      <trkpt lat="37.7577542793" lon="-7.0503325760">
        <ele>264.02</ele>
        <time>2021-05-29T15:28:58Z</time>
      </trkpt>
      <trkpt lat="37.7578047384" lon="-7.0501339249">
        <ele>265.94</ele>
        <time>2021-05-29T15:28:59Z</time>
      </trkpt>
      <trkpt lat="37.7578446362" lon="-7.0499056857">
        <ele>266.90</ele>
        <time>2021-05-29T15:29:00Z</time>
      </trkpt>
      <trkpt lat="37.7579727117" lon="-7.0491021127">
        <ele>272.19</ele>
        <time>2021-05-29T15:29:03Z</time>
      </trkpt>
      <trkpt lat="37.7580181416" lon="-7.0488131046">
        <ele>271.71</ele>
        <time>2021-05-29T15:29:04Z</time>
      </trkpt>
      <trkpt lat="37.7581523359" lon="-7.0479522832">
        <ele>268.35</ele>
        <time>2021-05-29T15:29:07Z</time>
      </trkpt>
      <trkpt lat="37.7583241649" lon="-7.0469335467">
        <ele>265.46</ele>
        <time>2021-05-29T15:29:11Z</time>
      </trkpt>
      <trkpt lat="37.7583981771" lon="-7.0467186347">
        <ele>264.50</ele>
        <time>2021-05-29T15:29:12Z</time>
      </trkpt>
      <trkpt lat="37.7585033700" lon="-7.0465154573">
        <ele>263.06</ele>
        <time>2021-05-29T15:29:13Z</time>
      </trkpt>
      <trkpt lat="37.7586375643" lon="-7.0463208295">
        <ele>265.46</ele>
        <time>2021-05-29T15:29:14Z</time>
      </trkpt>
      <trkpt lat="37.7587912045" lon="-7.0461302251">
        <ele>266.90</ele>
        <time>2021-05-29T15:29:15Z</time>
      </trkpt>
      <trkpt lat="37.7591324318" lon="-7.0457357727">
        <ele>270.75</ele>
        <time>2021-05-29T15:29:17Z</time>
      </trkpt>
      <trkpt lat="37.7593129780" lon="-7.0455275662">
        <ele>270.75</ele>
        <time>2021-05-29T15:29:18Z</time>
      </trkpt>
      <trkpt lat="37.7598325722" lon="-7.0449003484">
        <ele>275.07</ele>
        <time>2021-05-29T15:29:21Z</time>
      </trkpt>
      <trkpt lat="37.7605320420" lon="-7.0439818595">
        <ele>279.40</ele>
        <time>2021-05-29T15:29:25Z</time>
      </trkpt>
      <trkpt lat="37.7611507941" lon="-7.0430292562">
        <ele>276.52</ele>
        <time>2021-05-29T15:29:29Z</time>
      </trkpt>
      <trkpt lat="37.7613923606" lon="-7.0425648987">
        <ele>276.04</ele>
        <time>2021-05-29T15:29:31Z</time>
      </trkpt>
      <trkpt lat="37.7614853159" lon="-7.0423010364">
        <ele>277.48</ele>
        <time>2021-05-29T15:29:32Z</time>
      </trkpt>
      <trkpt lat="37.7619899902" lon="-7.0406063832">
        <ele>280.84</ele>
        <time>2021-05-29T15:29:38Z</time>
      </trkpt>
      <trkpt lat="37.7622422017" lon="-7.0400910638">
        <ele>277.48</ele>
        <time>2021-05-29T15:29:40Z</time>
      </trkpt>
      <trkpt lat="37.7624845225" lon="-7.0396347530">
        <ele>275.56</ele>
        <time>2021-05-29T15:29:42Z</time>
      </trkpt>
      <trkpt lat="37.7625977620" lon="-7.0394490939">
        <ele>274.59</ele>
        <time>2021-05-29T15:29:43Z</time>
      </trkpt>
      <trkpt lat="37.7627187967" lon="-7.0393060148">
        <ele>273.15</ele>
        <time>2021-05-29T15:29:44Z</time>
      </trkpt>
      <trkpt lat="37.7628535777" lon="-7.0392117184">
        <ele>271.71</ele>
        <time>2021-05-29T15:29:45Z</time>
      </trkpt>
      <trkpt lat="37.7630063798" lon="-7.0391534641">
        <ele>271.23</ele>
        <time>2021-05-29T15:29:46Z</time>
      </trkpt>
      <trkpt lat="37.7631801367" lon="-7.0391113870">
        <ele>273.15</ele>
        <time>2021-05-29T15:29:47Z</time>
      </trkpt>
      <trkpt lat="37.7633705735" lon="-7.0390765183">
        <ele>276.04</ele>
        <time>2021-05-29T15:29:48Z</time>
      </trkpt>
      <trkpt lat="37.7637898363" lon="-7.0390046015">
        <ele>280.84</ele>
        <time>2021-05-29T15:29:50Z</time>
      </trkpt>
      <trkpt lat="37.7645297907" lon="-7.0388663001">
        <ele>277.96</ele>
        <time>2021-05-29T15:29:54Z</time>
      </trkpt>
      <trkpt lat="37.7646557707" lon="-7.0387940481">
        <ele>277.00</ele>
        <time>2021-05-29T15:29:55Z</time>
      </trkpt>
      <trkpt lat="37.7647642326" lon="-7.0386785455">
        <ele>278.44</ele>
        <time>2021-05-29T15:29:56Z</time>
      </trkpt>
      <trkpt lat="37.7648594510" lon="-7.0385172777">
        <ele>280.36</ele>
        <time>2021-05-29T15:29:57Z</time>
      </trkpt>
      <trkpt lat="37.7649475448" lon="-7.0383210573">
        <ele>283.25</ele>
        <time>2021-05-29T15:29:58Z</time>
      </trkpt>
      <trkpt lat="37.7650358900" lon="-7.0381018706">
        <ele>286.13</ele>
        <time>2021-05-29T15:29:59Z</time>
      </trkpt>
      <trkpt lat="37.7651277557" lon="-7.0378818456">
        <ele>286.61</ele>
        <time>2021-05-29T15:30:00Z</time>
      </trkpt>
      <trkpt lat="37.7654544823" lon="-7.0372309908">
        <ele>290.94</ele>
        <time>2021-05-29T15:30:03Z</time>
      </trkpt>
      <trkpt lat="37.7656015847" lon="-7.0370361116">
        <ele>291.42</ele>
        <time>2021-05-29T15:30:04Z</time>
      </trkpt>
      <trkpt lat="37.7657704800" lon="-7.0368579123">
        <ele>292.86</ele>
        <time>2021-05-29T15:30:05Z</time>
      </trkpt>
      <trkpt lat="37.7662520204" lon="-7.0363667328">
        <ele>292.38</ele>
        <time>2021-05-29T15:30:08Z</time>
      </trkpt>
      <trkpt lat="37.7663625777" lon="-7.0361907966">
        <ele>291.42</ele>
        <time>2021-05-29T15:30:09Z</time>
      </trkpt>
      <trkpt lat="37.7664397750" lon="-7.0359866135">
        <ele>292.38</ele>
        <time>2021-05-29T15:30:10Z</time>
      </trkpt>
      <trkpt lat="37.7664956823" lon="-7.0357545186">
        <ele>293.82</ele>
        <time>2021-05-29T15:30:11Z</time>
      </trkpt>
      <trkpt lat="37.7665409446" lon="-7.0355046540">
        <ele>296.70</ele>
        <time>2021-05-29T15:30:12Z</time>
      </trkpt>
      <trkpt lat="37.7665862907" lon="-7.0352412108">
        <ele>300.07</ele>
        <time>2021-05-29T15:30:13Z</time>
      </trkpt>
      <trkpt lat="37.7666976023" lon="-7.0346790366">
        <ele>302.95</ele>
        <time>2021-05-29T15:30:15Z</time>
      </trkpt>
      <trkpt lat="37.7667572815" lon="-7.0343909506">
        <ele>302.95</ele>
        <time>2021-05-29T15:30:16Z</time>
      </trkpt>
      <trkpt lat="37.7668461297" lon="-7.0338219870">
        <ele>301.03</ele>
        <time>2021-05-29T15:30:18Z</time>
      </trkpt>
      <trkpt lat="37.7668491472" lon="-7.0335280336">
        <ele>302.95</ele>
        <time>2021-05-29T15:30:19Z</time>
      </trkpt>
      <trkpt lat="37.7668214031" lon="-7.0332272910">
        <ele>303.43</ele>
        <time>2021-05-29T15:30:20Z</time>
      </trkpt>
      <trkpt lat="37.7667729557" lon="-7.0329211839">
        <ele>303.91</ele>
        <time>2021-05-29T15:30:21Z</time>
      </trkpt>
      <trkpt lat="37.7667142823" lon="-7.0326079521">
        <ele>305.84</ele>
        <time>2021-05-29T15:30:22Z</time>
      </trkpt>
      <trkpt lat="37.7666524239" lon="-7.0322870091">
        <ele>304.88</ele>
        <time>2021-05-29T15:30:23Z</time>
      </trkpt>
      <trkpt lat="37.7663354203" lon="-7.0305113029">
        <ele>301.99</ele>
        <time>2021-05-29T15:30:29Z</time>
      </trkpt>
      <trkpt lat="37.7663402818" lon="-7.0302730892">
        <ele>300.07</ele>
        <time>2021-05-29T15:30:30Z</time>
      </trkpt>
      <trkpt lat="37.7663847059" lon="-7.0300370548">
        <ele>298.63</ele>
        <time>2021-05-29T15:30:31Z</time>
      </trkpt>
      <trkpt lat="37.7664686088" lon="-7.0298017748">
        <ele>298.63</ele>
        <time>2021-05-29T15:30:32Z</time>
      </trkpt>
      <trkpt lat="37.7665870450" lon="-7.0295730326">
        <ele>298.63</ele>
        <time>2021-05-29T15:30:33Z</time>
      </trkpt>
      <trkpt lat="37.7667293698" lon="-7.0293489005">
        <ele>298.63</ele>
        <time>2021-05-29T15:30:34Z</time>
      </trkpt>
      <trkpt lat="37.7668814175" lon="-7.0291271154">
        <ele>300.07</ele>
        <time>2021-05-29T15:30:35Z</time>
      </trkpt>
      <trkpt lat="37.7675494552" lon="-7.0283147413">
        <ele>298.63</ele>
        <time>2021-05-29T15:30:39Z</time>
      </trkpt>
      <trkpt lat="37.7677545603" lon="-7.0281561557">
        <ele>296.22</ele>
        <time>2021-05-29T15:30:40Z</time>
      </trkpt>
      <trkpt lat="37.7679772675" lon="-7.0280182734">
        <ele>295.74</ele>
        <time>2021-05-29T15:30:41Z</time>
      </trkpt>
      <trkpt lat="37.7682088595" lon="-7.0278970711">
        <ele>295.26</ele>
        <time>2021-05-29T15:30:42Z</time>
      </trkpt>
      <trkpt lat="37.7686532680" lon="-7.0276829135">
        <ele>288.53</ele>
        <time>2021-05-29T15:30:44Z</time>
      </trkpt>
      <trkpt lat="37.7690730337" lon="-7.0274857711">
        <ele>284.69</ele>
        <time>2021-05-29T15:30:46Z</time>
      </trkpt>
      <trkpt lat="37.7696804702" lon="-7.0271882135">
        <ele>280.36</ele>
        <time>2021-05-29T15:30:49Z</time>
      </trkpt>
      <trkpt lat="37.7698574122" lon="-7.0270708669">
        <ele>277.48</ele>
        <time>2021-05-29T15:30:50Z</time>
      </trkpt>
      <trkpt lat="37.7700206917" lon="-7.0269245189">
        <ele>277.96</ele>
        <time>2021-05-29T15:30:51Z</time>
      </trkpt>
      <trkpt lat="37.7701713983" lon="-7.0267480798">
        <ele>277.00</ele>
        <time>2021-05-29T15:30:52Z</time>
      </trkpt>
      <trkpt lat="37.7703050897" lon="-7.0265582297">
        <ele>274.11</ele>
        <time>2021-05-29T15:30:53Z</time>
      </trkpt>
      <trkpt lat="37.7704242803" lon="-7.0263648592">
        <ele>272.67</ele>
        <time>2021-05-29T15:30:54Z</time>
      </trkpt>
      <trkpt lat="37.7705229353" lon="-7.0261693094">
        <ele>271.71</ele>
        <time>2021-05-29T15:30:55Z</time>
      </trkpt>
      <trkpt lat="37.7705910802" lon="-7.0259698201">
        <ele>270.27</ele>
        <time>2021-05-29T15:30:56Z</time>
      </trkpt>
      <trkpt lat="37.7706247754" lon="-7.0257755276">
        <ele>268.83</ele>
        <time>2021-05-29T15:30:57Z</time>
      </trkpt>
      <trkpt lat="37.7706221770" lon="-7.0256043691">
        <ele>266.42</ele>
        <time>2021-05-29T15:30:58Z</time>
      </trkpt>
      <trkpt lat="37.7705951873" lon="-7.0254475437">
        <ele>266.42</ele>
        <time>2021-05-29T15:30:59Z</time>
      </trkpt>
      <trkpt lat="37.7705653477" lon="-7.0252935681">
        <ele>265.46</ele>
        <time>2021-05-29T15:31:00Z</time>
      </trkpt>
      <trkpt lat="37.7705591451" lon="-7.0251369104">
        <ele>264.50</ele>
        <time>2021-05-29T15:31:01Z</time>
      </trkpt>
      <trkpt lat="37.7705904935" lon="-7.0249773189">
        <ele>263.54</ele>
        <time>2021-05-29T15:31:02Z</time>
      </trkpt>
      <trkpt lat="37.7706667688" lon="-7.0248332340">
        <ele>263.06</ele>
        <time>2021-05-29T15:31:03Z</time>
      </trkpt>
      <trkpt lat="37.7707829420" lon="-7.0247192401">
        <ele>264.50</ele>
        <time>2021-05-29T15:31:04Z</time>
      </trkpt>
      <trkpt lat="37.7709351573" lon="-7.0246284641">
        <ele>265.46</ele>
        <time>2021-05-29T15:31:05Z</time>
      </trkpt>
      <trkpt lat="37.7711095009" lon="-7.0245483331">
        <ele>266.90</ele>
        <time>2021-05-29T15:31:06Z</time>
      </trkpt>
      <trkpt lat="37.7714420948" lon="-7.0243831258">
        <ele>263.54</ele>
        <time>2021-05-29T15:31:08Z</time>
      </trkpt>
      <trkpt lat="37.7715837490" lon="-7.0242704730">
        <ele>261.62</ele>
        <time>2021-05-29T15:31:09Z</time>
      </trkpt>
      <trkpt lat="37.7717092261" lon="-7.0241202693">
        <ele>260.65</ele>
        <time>2021-05-29T15:31:10Z</time>
      </trkpt>
      <trkpt lat="37.7718160115" lon="-7.0239312574">
        <ele>260.17</ele>
        <time>2021-05-29T15:31:11Z</time>
      </trkpt>
      <trkpt lat="37.7718963102" lon="-7.0237089694">
        <ele>259.21</ele>
        <time>2021-05-29T15:31:12Z</time>
      </trkpt>
      <trkpt lat="37.7719593421" lon="-7.0234685764">
        <ele>261.14</ele>
        <time>2021-05-29T15:31:13Z</time>
      </trkpt>
      <trkpt lat="37.7720258106" lon="-7.0232317038">
        <ele>260.17</ele>
        <time>2021-05-29T15:31:14Z</time>
      </trkpt>
      <trkpt lat="37.7721130662" lon="-7.0230152830">
        <ele>259.69</ele>
        <time>2021-05-29T15:31:15Z</time>
      </trkpt>
      <trkpt lat="37.7722366154" lon="-7.0228156261">
        <ele>259.21</ele>
        <time>2021-05-29T15:31:16Z</time>
      </trkpt>
      <trkpt lat="37.7723905910" lon="-7.0226225909">
        <ele>260.17</ele>
        <time>2021-05-29T15:31:17Z</time>
      </trkpt>
      <trkpt lat="37.7725527808" lon="-7.0224230178">
        <ele>260.17</ele>
        <time>2021-05-29T15:31:18Z</time>
      </trkpt>
      <trkpt lat="37.7729846165" lon="-7.0217439998">
        <ele>258.25</ele>
        <time>2021-05-29T15:31:21Z</time>
      </trkpt>
      <trkpt lat="37.7733525820" lon="-7.0209391695">
        <ele>259.21</ele>
        <time>2021-05-29T15:31:24Z</time>
      </trkpt>
      <trkpt lat="37.7734417655" lon="-7.0206469763">
        <ele>256.81</ele>
        <time>2021-05-29T15:31:25Z</time>
      </trkpt>
      <trkpt lat="37.7740335278" lon="-7.0180787612">
        <ele>254.41</ele>
        <time>2021-05-29T15:31:33Z</time>
      </trkpt>
      <trkpt lat="37.7741834801" lon="-7.0174243860">
        <ele>251.04</ele>
        <time>2021-05-29T15:31:35Z</time>
      </trkpt>
      <trkpt lat="37.7743275650" lon="-7.0168209728">
        <ele>248.16</ele>
        <time>2021-05-29T15:31:37Z</time>
      </trkpt>
      <trkpt lat="37.7745489310" lon="-7.0159107819">
        <ele>246.23</ele>
        <time>2021-05-29T15:31:40Z</time>
      </trkpt>
      <trkpt lat="37.7748257015" lon="-7.0147579350">
        <ele>242.87</ele>
        <time>2021-05-29T15:31:44Z</time>
      </trkpt>
      <trkpt lat="37.7749484126" lon="-7.0142485667">
        <ele>240.95</ele>
        <time>2021-05-29T15:31:46Z</time>
      </trkpt>
      <trkpt lat="37.7750266995" lon="-7.0140150469">
        <ele>240.47</ele>
        <time>2021-05-29T15:31:47Z</time>
      </trkpt>
      <trkpt lat="37.7751333173" lon="-7.0137940161">
        <ele>241.43</ele>
        <time>2021-05-29T15:31:48Z</time>
      </trkpt>
      <trkpt lat="37.7752679307" lon="-7.0135813672">
        <ele>242.39</ele>
        <time>2021-05-29T15:31:49Z</time>
      </trkpt>
      <trkpt lat="37.7754244208" lon="-7.0133729931">
        <ele>243.35</ele>
        <time>2021-05-29T15:31:50Z</time>
      </trkpt>
      <trkpt lat="37.7755938191" lon="-7.0131633617">
        <ele>244.79</ele>
        <time>2021-05-29T15:31:51Z</time>
      </trkpt>
      <trkpt lat="37.7762274910" lon="-7.0123891253">
        <ele>241.43</ele>
        <time>2021-05-29T15:31:55Z</time>
      </trkpt>
      <trkpt lat="37.7764460072" lon="-7.0120951720">
        <ele>238.06</ele>
        <time>2021-05-29T15:31:57Z</time>
      </trkpt>
      <trkpt lat="37.7765149064" lon="-7.0119476505">
        <ele>238.06</ele>
        <time>2021-05-29T15:31:58Z</time>
      </trkpt>
      <trkpt lat="37.7765564807" lon="-7.0117816888">
        <ele>238.54</ele>
        <time>2021-05-29T15:31:59Z</time>
      </trkpt>
      <trkpt lat="37.7765783574" lon="-7.0115939341">
        <ele>239.51</ele>
        <time>2021-05-29T15:32:00Z</time>
      </trkpt>
      <trkpt lat="37.7765878290" lon="-7.0114100352">
        <ele>238.54</ele>
        <time>2021-05-29T15:32:01Z</time>
      </trkpt>
      <trkpt lat="37.7766314149" lon="-7.0105110761">
        <ele>239.99</ele>
        <time>2021-05-29T15:32:06Z</time>
      </trkpt>
      <trkpt lat="37.7766750846" lon="-7.0103078149">
        <ele>240.47</ele>
        <time>2021-05-29T15:32:07Z</time>
      </trkpt>
      <trkpt lat="37.7767544612" lon="-7.0101011172">
        <ele>240.95</ele>
        <time>2021-05-29T15:32:08Z</time>
      </trkpt>
      <trkpt lat="37.7768633422" lon="-7.0099024661">
        <ele>240.95</ele>
        <time>2021-05-29T15:32:09Z</time>
      </trkpt>
      <trkpt lat="37.7774087526" lon="-7.0090714004">
        <ele>244.31</ele>
        <time>2021-05-29T15:32:13Z</time>
      </trkpt>
      <trkpt lat="37.7776990179" lon="-7.0086089708">
        <ele>246.23</ele>
        <time>2021-05-29T15:32:15Z</time>
      </trkpt>
      <trkpt lat="37.7781320270" lon="-7.0078903064">
        <ele>249.60</ele>
        <time>2021-05-29T15:32:18Z</time>
      </trkpt>
      <trkpt lat="37.7782771178" lon="-7.0076552778">
        <ele>249.12</ele>
        <time>2021-05-29T15:32:19Z</time>
      </trkpt>
      <trkpt lat="37.7787594963" lon="-7.0067004953">
        <ele>252.96</ele>
        <time>2021-05-29T15:32:23Z</time>
      </trkpt>
      <trkpt lat="37.7790588979" lon="-7.0058479719">
        <ele>256.33</ele>
        <time>2021-05-29T15:32:26Z</time>
      </trkpt>
      <trkpt lat="37.7795802522" lon="-7.0043575857">
        <ele>259.69</ele>
        <time>2021-05-29T15:32:31Z</time>
      </trkpt>
      <trkpt lat="37.7797980979" lon="-7.0037603751">
        <ele>261.14</ele>
        <time>2021-05-29T15:32:33Z</time>
      </trkpt>
      <trkpt lat="37.7807621844" lon="-7.0010405313">
        <ele>264.50</ele>
        <time>2021-05-29T15:32:42Z</time>
      </trkpt>
      <trkpt lat="37.7810875699" lon="-7.0001332741">
        <ele>266.90</ele>
        <time>2021-05-29T15:32:45Z</time>
      </trkpt>
      <trkpt lat="37.7816261910" lon="-6.9986364339">
        <ele>270.27</ele>
        <time>2021-05-29T15:32:50Z</time>
      </trkpt>
      <trkpt lat="37.7817325573" lon="-6.9983418938">
        <ele>269.31</ele>
        <time>2021-05-29T15:32:51Z</time>
      </trkpt>
      <trkpt lat="37.7829825506" lon="-6.9948961772">
        <ele>272.19</ele>
        <time>2021-05-29T15:33:03Z</time>
      </trkpt>
      <trkpt lat="37.7831859794" lon="-6.9943225197">
        <ele>276.04</ele>
        <time>2021-05-29T15:33:05Z</time>
      </trkpt>
      <trkpt lat="37.7832867298" lon="-6.9940363616">
        <ele>275.07</ele>
        <time>2021-05-29T15:33:06Z</time>
      </trkpt>
      <trkpt lat="37.7837732993" lon="-6.9926876295">
        <ele>274.11</ele>
        <time>2021-05-29T15:33:11Z</time>
      </trkpt>
      <trkpt lat="37.7839870378" lon="-6.9921981264">
        <ele>272.19</ele>
        <time>2021-05-29T15:33:13Z</time>
      </trkpt>
      <trkpt lat="37.7841227408" lon="-6.9919760060">
        <ele>272.19</ele>
        <time>2021-05-29T15:33:14Z</time>
      </trkpt>
      <trkpt lat="37.7842809912" lon="-6.9917626027">
        <ele>272.67</ele>
        <time>2021-05-29T15:33:15Z</time>
      </trkpt>
      <trkpt lat="37.7851796988" lon="-6.9906758051">
        <ele>276.04</ele>
        <time>2021-05-29T15:33:20Z</time>
      </trkpt>
      <trkpt lat="37.7857246902" lon="-6.9899910875">
        <ele>280.36</ele>
        <time>2021-05-29T15:33:23Z</time>
      </trkpt>
      <trkpt lat="37.7862816676" lon="-6.9892904442">
        <ele>283.73</ele>
        <time>2021-05-29T15:33:26Z</time>
      </trkpt>
      <trkpt lat="37.7873643581" lon="-6.9879127108">
        <ele>283.25</ele>
        <time>2021-05-29T15:33:32Z</time>
      </trkpt>
      <trkpt lat="37.7876576409" lon="-6.9875449128">
        <ele>279.88</ele>
        <time>2021-05-29T15:33:34Z</time>
      </trkpt>
      <trkpt lat="37.7879582997" lon="-6.9872512110">
        <ele>280.36</ele>
        <time>2021-05-29T15:33:36Z</time>
      </trkpt>
      <trkpt lat="37.7881288715" lon="-6.9871402346">
        <ele>279.88</ele>
        <time>2021-05-29T15:33:37Z</time>
      </trkpt>
      <trkpt lat="37.7883060649" lon="-6.9870534819">
        <ele>278.92</ele>
        <time>2021-05-29T15:33:38Z</time>
      </trkpt>
      <trkpt lat="37.7886349708" lon="-6.9868860953">
        <ele>280.36</ele>
        <time>2021-05-29T15:33:40Z</time>
      </trkpt>
      <trkpt lat="37.7887787204" lon="-6.9867632166">
        <ele>279.88</ele>
        <time>2021-05-29T15:33:41Z</time>
      </trkpt>
      <trkpt lat="37.7889005933" lon="-6.9866080675">
        <ele>281.32</ele>
        <time>2021-05-29T15:33:42Z</time>
      </trkpt>
      <trkpt lat="37.7890016790" lon="-6.9864262640">
        <ele>282.28</ele>
        <time>2021-05-29T15:33:43Z</time>
      </trkpt>
      <trkpt lat="37.7890930418" lon="-6.9862344023">
        <ele>282.28</ele>
        <time>2021-05-29T15:33:44Z</time>
      </trkpt>
      <trkpt lat="37.7892923634" lon="-6.9858220126">
        <ele>286.13</ele>
        <time>2021-05-29T15:33:46Z</time>
      </trkpt>
      <trkpt lat="37.7895234525" lon="-6.9853594154">
        <ele>291.42</ele>
        <time>2021-05-29T15:33:48Z</time>
      </trkpt>
      <trkpt lat="37.7896478400" lon="-6.9851090480">
        <ele>290.94</ele>
        <time>2021-05-29T15:33:49Z</time>
      </trkpt>
      <trkpt lat="37.7898957767" lon="-6.9846098218">
        <ele>294.78</ele>
        <time>2021-05-29T15:33:51Z</time>
      </trkpt>
      <trkpt lat="37.7900174819" lon="-6.9843602087">
        <ele>294.30</ele>
        <time>2021-05-29T15:33:52Z</time>
      </trkpt>
      <trkpt lat="37.7903255168" lon="-6.9835213479">
        <ele>298.63</ele>
        <time>2021-05-29T15:33:55Z</time>
      </trkpt>
      <trkpt lat="37.7906757966" lon="-6.9822995178">
        <ele>301.99</ele>
        <time>2021-05-29T15:33:59Z</time>
      </trkpt>
      <trkpt lat="37.7907622978" lon="-6.9820012897">
        <ele>301.99</ele>
        <time>2021-05-29T15:34:00Z</time>
      </trkpt>
      <trkpt lat="37.7909415867" lon="-6.9813952781">
        <ele>305.36</ele>
        <time>2021-05-29T15:34:02Z</time>
      </trkpt>
      <trkpt lat="37.7911256533" lon="-6.9807754364">
        <ele>309.20</ele>
        <time>2021-05-29T15:34:04Z</time>
      </trkpt>
      <trkpt lat="37.7912197821" lon="-6.9804595225">
        <ele>307.76</ele>
        <time>2021-05-29T15:34:05Z</time>
      </trkpt>
      <trkpt lat="37.7913116477" lon="-6.9801368192">
        <ele>311.12</ele>
        <time>2021-05-29T15:34:06Z</time>
      </trkpt>
      <trkpt lat="37.7914474346" lon="-6.9794747327">
        <ele>313.05</ele>
        <time>2021-05-29T15:34:08Z</time>
      </trkpt>
      <trkpt lat="37.7915426530" lon="-6.9784486201">
        <ele>316.41</ele>
        <time>2021-05-29T15:34:11Z</time>
      </trkpt>
      <trkpt lat="37.7915750071" lon="-6.9780945685">
        <ele>315.93</ele>
        <time>2021-05-29T15:34:12Z</time>
      </trkpt>
      <trkpt lat="37.7916991431" lon="-6.9767265581">
        <ele>314.01</ele>
        <time>2021-05-29T15:34:16Z</time>
      </trkpt>
      <trkpt lat="37.7917144820" lon="-6.9761381485">
        <ele>311.12</ele>
        <time>2021-05-29T15:34:18Z</time>
      </trkpt>
      <trkpt lat="37.7916613407" lon="-6.9754047319">
        <ele>305.84</ele>
        <time>2021-05-29T15:34:21Z</time>
      </trkpt>
      <trkpt lat="37.7916589938" lon="-6.9752030633">
        <ele>305.36</ele>
        <time>2021-05-29T15:34:22Z</time>
      </trkpt>
      <trkpt lat="37.7916849777" lon="-6.9750138838">
        <ele>303.91</ele>
        <time>2021-05-29T15:34:23Z</time>
      </trkpt>
      <trkpt lat="37.7917459980" lon="-6.9748314098">
        <ele>303.43</ele>
        <time>2021-05-29T15:34:24Z</time>
      </trkpt>
      <trkpt lat="37.7918411326" lon="-6.9746552221">
        <ele>303.91</ele>
        <time>2021-05-29T15:34:25Z</time>
      </trkpt>
      <trkpt lat="37.7919644304" lon="-6.9744845666">
        <ele>304.88</ele>
        <time>2021-05-29T15:34:26Z</time>
      </trkpt>
      <trkpt lat="37.7921051625" lon="-6.9742983207">
        <ele>305.84</ele>
        <time>2021-05-29T15:34:27Z</time>
      </trkpt>
      <trkpt lat="37.7924029715" lon="-6.9738919660">
        <ele>309.20</ele>
        <time>2021-05-29T15:34:29Z</time>
      </trkpt>
      <trkpt lat="37.7930125035" lon="-6.9730518479">
        <ele>312.57</ele>
        <time>2021-05-29T15:34:33Z</time>
      </trkpt>
      <trkpt lat="37.7931756992" lon="-6.9728236925">
        <ele>315.93</ele>
        <time>2021-05-29T15:34:34Z</time>
      </trkpt>
      <trkpt lat="37.7935179323" lon="-6.9723469298">
        <ele>320.26</ele>
        <time>2021-05-29T15:34:36Z</time>
      </trkpt>
      <trkpt lat="37.7936872467" lon="-6.9721052796">
        <ele>324.10</ele>
        <time>2021-05-29T15:34:37Z</time>
      </trkpt>
      <trkpt lat="37.7938559745" lon="-6.9718637131">
        <ele>324.10</ele>
        <time>2021-05-29T15:34:38Z</time>
      </trkpt>
      <trkpt lat="37.7941805217" lon="-6.9713959191">
        <ele>325.54</ele>
        <time>2021-05-29T15:34:40Z</time>
      </trkpt>
      <trkpt lat="37.7949217334" lon="-6.9703420624">
        <ele>325.54</ele>
        <time>2021-05-29T15:34:46Z</time>
      </trkpt>
      <trkpt lat="37.7952821553" lon="-6.9698148407">
        <ele>323.14</ele>
        <time>2021-05-29T15:34:50Z</time>
      </trkpt>
      <trkpt lat="37.7955701575" lon="-6.9693353958">
        <ele>321.70</ele>
        <time>2021-05-29T15:34:54Z</time>
      </trkpt>
      <trkpt lat="37.7956084628" lon="-6.9692048896">
        <ele>322.18</ele>
        <time>2021-05-29T15:34:55Z</time>
      </trkpt>
      <trkpt lat="37.7956285793" lon="-6.9690660853">
        <ele>322.66</ele>
        <time>2021-05-29T15:34:56Z</time>
      </trkpt>
      <trkpt lat="37.7956357878" lon="-6.9689222518">
        <ele>323.14</ele>
        <time>2021-05-29T15:34:57Z</time>
      </trkpt>
      <trkpt lat="37.7956344467" lon="-6.9687798433">
        <ele>322.18</ele>
        <time>2021-05-29T15:34:58Z</time>
      </trkpt>
      <trkpt lat="37.7956264000" lon="-6.9686471578">
        <ele>322.18</ele>
        <time>2021-05-29T15:34:59Z</time>
      </trkpt>
      <trkpt lat="37.7956699859" lon="-6.9674705900">
        <ele>318.81</ele>
        <time>2021-05-29T15:35:08Z</time>
      </trkpt>
      <trkpt lat="37.7957075369" lon="-6.9672151096">
        <ele>318.33</ele>
        <time>2021-05-29T15:35:10Z</time>
      </trkpt>
      <trkpt lat="37.7957662102" lon="-6.9667844474">
        <ele>315.93</ele>
        <time>2021-05-29T15:35:14Z</time>
      </trkpt>
      <trkpt lat="37.7958368696" lon="-6.9661714789">
        <ele>314.49</ele>
        <time>2021-05-29T15:35:23Z</time>
      </trkpt>
      <trkpt lat="37.7958372887" lon="-6.9660750031">
        <ele>314.01</ele>
        <time>2021-05-29T15:35:27Z</time>
      </trkpt>
      <trkpt lat="37.7958507836" lon="-6.9660593290">
        <ele>314.01</ele>
        <time>2021-05-29T15:35:28Z</time>
      </trkpt>
      <trkpt lat="37.7958817966" lon="-6.9660662021">
        <ele>314.01</ele>
        <time>2021-05-29T15:35:39Z</time>
      </trkpt>
      <trkpt lat="37.7958927769" lon="-6.9660625141">
        <ele>314.49</ele>
        <time>2021-05-29T15:35:41Z</time>
      </trkpt>
      <trkpt lat="37.7959144861" lon="-6.9660620950">
        <ele>314.97</ele>
        <time>2021-05-29T15:35:42Z</time>
      </trkpt>
      <trkpt lat="37.7959422302" lon="-6.9660727400">
        <ele>314.49</ele>
        <time>2021-05-29T15:35:43Z</time>
      </trkpt>
      <trkpt lat="37.7959574014" lon="-6.9661054295">
        <ele>314.97</ele>
        <time>2021-05-29T15:35:44Z</time>
      </trkpt>
      <trkpt lat="37.7959562279" lon="-6.9661618397">
        <ele>314.97</ele>
        <time>2021-05-29T15:35:45Z</time>
      </trkpt>
      <trkpt lat="37.7959440742" lon="-6.9662393723">
        <ele>315.45</ele>
        <time>2021-05-29T15:35:46Z</time>
      </trkpt>
      <trkpt lat="37.7959155757" lon="-6.9663228560">
        <ele>316.41</ele>
        <time>2021-05-29T15:35:47Z</time>
      </trkpt>
      <trkpt lat="37.7958798688" lon="-6.9664132129">
        <ele>316.89</ele>
        <time>2021-05-29T15:35:48Z</time>
      </trkpt>
      <trkpt lat="37.7958467603" lon="-6.9665266201">
        <ele>317.85</ele>
        <time>2021-05-29T15:35:49Z</time>
      </trkpt>
      <trkpt lat="37.7958198544" lon="-6.9666605629">
        <ele>318.81</ele>
        <time>2021-05-29T15:35:50Z</time>
      </trkpt>
      <trkpt lat="37.7957960498" lon="-6.9668046478">
        <ele>318.81</ele>
        <time>2021-05-29T15:35:51Z</time>
      </trkpt>
      <trkpt lat="37.7956328541" lon="-6.9679958001">
        <ele>319.30</ele>
        <time>2021-05-29T15:36:00Z</time>
      </trkpt>
      <trkpt lat="37.7956411522" lon="-6.9681879133">
        <ele>318.81</ele>
        <time>2021-05-29T15:36:02Z</time>
      </trkpt>
      <trkpt lat="37.7956512943" lon="-6.9682560582">
        <ele>318.33</ele>
        <time>2021-05-29T15:36:03Z</time>
      </trkpt>
      <trkpt lat="37.7956682257" lon="-6.9683040027">
        <ele>318.33</ele>
        <time>2021-05-29T15:36:04Z</time>
      </trkpt>
      <trkpt lat="37.7956845704" lon="-6.9683431461">
        <ele>318.33</ele>
        <time>2021-05-29T15:36:05Z</time>
      </trkpt>
      <trkpt lat="37.7956877556" lon="-6.9683781825">
        <ele>318.33</ele>
        <time>2021-05-29T15:36:06Z</time>
      </trkpt>
      <trkpt lat="37.7956840675" lon="-6.9684037473">
        <ele>318.81</ele>
        <time>2021-05-29T15:36:07Z</time>
      </trkpt>
      <trkpt lat="37.7956688963" lon="-6.9684194215">
        <ele>318.81</ele>
        <time>2021-05-29T15:36:08Z</time>
      </trkpt>
      <trkpt lat="37.7956453431" lon="-6.9684246182">
        <ele>318.81</ele>
        <time>2021-05-29T15:36:09Z</time>
      </trkpt>
      <trkpt lat="37.7956145816" lon="-6.9684206787">
        <ele>318.81</ele>
        <time>2021-05-29T15:36:10Z</time>
      </trkpt>
      <trkpt lat="37.7955729235" lon="-6.9684199244">
        <ele>319.30</ele>
        <time>2021-05-29T15:36:11Z</time>
      </trkpt>
      <trkpt lat="37.7955321036" lon="-6.9684113748">
        <ele>318.81</ele>
        <time>2021-05-29T15:36:12Z</time>
      </trkpt>
      <trkpt lat="37.7954986598" lon="-6.9683879055">
        <ele>318.81</ele>
        <time>2021-05-29T15:36:13Z</time>
      </trkpt>
      <trkpt lat="37.7954643779" lon="-6.9683666155">
        <ele>318.33</ele>
        <time>2021-05-29T15:36:14Z</time>
      </trkpt>
      <trkpt lat="37.7954368014" lon="-6.9683501869">
        <ele>318.33</ele>
        <time>2021-05-29T15:36:15Z</time>
      </trkpt>
      <trkpt lat="37.7954254020" lon="-6.9683278911">
        <ele>317.85</ele>
        <time>2021-05-29T15:36:16Z</time>
      </trkpt>
      <trkpt lat="37.7954321913" lon="-6.9683057629">
        <ele>317.37</ele>
        <time>2021-05-29T15:36:17Z</time>
      </trkpt>
      <trkpt lat="37.7954489551" lon="-6.9682974648">
        <ele>317.85</ele>
        <time>2021-05-29T15:36:18Z</time>
      </trkpt>
      <trkpt lat="37.7954662219" lon="-6.9682990573">
        <ele>317.85</ele>
        <time>2021-05-29T15:36:19Z</time>
      </trkpt>
      <trkpt lat="37.7954799682" lon="-6.9683102891">
        <ele>317.85</ele>
        <time>2021-05-29T15:36:20Z</time>
      </trkpt>
      <trkpt lat="37.7954868414" lon="-6.9683242869">
        <ele>317.85</ele>
        <time>2021-05-29T15:36:21Z</time>
      </trkpt>
      <trkpt lat="37.7954896074" lon="-6.9683418050">
        <ele>317.85</ele>
        <time>2021-05-29T15:36:22Z</time>
      </trkpt>
      <trkpt lat="37.7954896074" lon="-6.9683623407">
        <ele>318.33</ele>
        <time>2021-05-29T15:36:23Z</time>
      </trkpt>
      <trkpt lat="37.7954866737" lon="-6.9683817867">
        <ele>318.33</ele>
        <time>2021-05-29T15:36:24Z</time>
      </trkpt>
      <trkpt lat="37.7954866737" lon="-6.9683936052">
        <ele>318.33</ele>
        <time>2021-05-29T15:36:37Z</time>
      </trkpt>
      <trkpt lat="37.7954963129" lon="-6.9683910906">
        <ele>318.81</ele>
        <time>2021-05-29T15:37:18Z</time>
      </trkpt>
      <trkpt lat="37.7955057845" lon="-6.9684186671">
        <ele>318.33</ele>
        <time>2021-05-29T15:38:06Z</time>
      </trkpt>
      <trkpt lat="37.7955770306" lon="-6.9683990534">
        <ele>319.78</ele>
        <time>2021-05-29T15:56:34Z</time>
      </trkpt>
      <trkpt lat="37.7955083828" lon="-6.9684024900">
        <ele>322.66</ele>
        <time>2021-05-29T15:56:44Z</time>
      </trkpt>
      <trkpt lat="37.7955095563" lon="-6.9684033282">
        <ele>323.14</ele>
        <time>2021-05-29T15:56:45Z</time>
      </trkpt>
      <trkpt lat="37.7955155075" lon="-6.9683755003">
        <ele>325.06</ele>
        <time>2021-05-29T15:57:09Z</time>
      </trkpt>
      <trkpt lat="37.7955046948" lon="-6.9683812000">
        <ele>325.06</ele>
        <time>2021-05-29T15:57:39Z</time>
      </trkpt>
      <trkpt lat="37.7954646293" lon="-6.9684235286">
        <ele>325.06</ele>
        <time>2021-05-29T15:58:10Z</time>
      </trkpt>
      <trkpt lat="37.7954428364" lon="-6.9684347603">
        <ele>325.06</ele>
        <time>2021-05-29T15:58:48Z</time>
      </trkpt>
      <trkpt lat="37.7954240609" lon="-6.9683876541">
        <ele>325.06</ele>
        <time>2021-05-29T15:59:17Z</time>
      </trkpt>
      <trkpt lat="37.7954382263" lon="-6.9684286416">
        <ele>324.10</ele>
        <time>2021-05-29T15:59:44Z</time>
      </trkpt>
      <trkpt lat="37.7954528108" lon="-6.9684442319">
        <ele>324.58</ele>
        <time>2021-05-29T16:00:10Z</time>
      </trkpt>
      <trkpt lat="37.7954734303" lon="-6.9684063457">
        <ele>325.06</ele>
        <time>2021-05-29T16:00:41Z</time>
      </trkpt>
      <trkpt lat="37.7954761963" lon="-6.9684155658">
        <ele>324.58</ele>
        <time>2021-05-29T16:01:14Z</time>
      </trkpt>
      <trkpt lat="37.7954814769" lon="-6.9683755841">
        <ele>325.06</ele>
        <time>2021-05-29T16:01:31Z</time>
      </trkpt>
      <trkpt lat="37.7954476140" lon="-6.9682972971">
        <ele>325.06</ele>
        <time>2021-05-29T16:01:34Z</time>
      </trkpt>
      <trkpt lat="37.7954481170" lon="-6.9682182558">
        <ele>326.02</ele>
        <time>2021-05-29T16:01:35Z</time>
      </trkpt>
      <trkpt lat="37.7954564150" lon="-6.9681185950">
        <ele>326.02</ele>
        <time>2021-05-29T16:01:36Z</time>
      </trkpt>
      <trkpt lat="37.7954702452" lon="-6.9680087920">
        <ele>325.06</ele>
        <time>2021-05-29T16:01:37Z</time>
      </trkpt>
      <trkpt lat="37.7956504561" lon="-6.9671631418">
        <ele>322.66</ele>
        <time>2021-05-29T16:01:46Z</time>
      </trkpt>
      <trkpt lat="37.7957436629" lon="-6.9669380877">
        <ele>323.14</ele>
        <time>2021-05-29T16:01:51Z</time>
      </trkpt>
      <trkpt lat="37.7957655396" lon="-6.9668577891">
        <ele>323.62</ele>
        <time>2021-05-29T16:01:52Z</time>
      </trkpt>
      <trkpt lat="37.7957848180" lon="-6.9667601399">
        <ele>324.10</ele>
        <time>2021-05-29T16:01:53Z</time>
      </trkpt>
      <trkpt lat="37.7959309984" lon="-6.9658076204">
        <ele>325.54</ele>
        <time>2021-05-29T16:02:00Z</time>
      </trkpt>
      <trkpt lat="37.7959074453" lon="-6.9656839035">
        <ele>324.58</ele>
        <time>2021-05-29T16:02:01Z</time>
      </trkpt>
      <trkpt lat="37.7958560642" lon="-6.9655704964">
        <ele>324.58</ele>
        <time>2021-05-29T16:02:02Z</time>
      </trkpt>
      <trkpt lat="37.7953491267" lon="-6.9647192303">
        <ele>327.95</ele>
        <time>2021-05-29T16:02:09Z</time>
      </trkpt>
      <trkpt lat="37.7952964883" lon="-6.9645618182">
        <ele>326.99</ele>
        <time>2021-05-29T16:02:10Z</time>
      </trkpt>
      <trkpt lat="37.7952659782" lon="-6.9643899053">
        <ele>326.99</ele>
        <time>2021-05-29T16:02:11Z</time>
      </trkpt>
      <trkpt lat="37.7952520642" lon="-6.9641965348">
        <ele>327.47</ele>
        <time>2021-05-29T16:02:12Z</time>
      </trkpt>
      <trkpt lat="37.7952540759" lon="-6.9639811199">
        <ele>329.39</ele>
        <time>2021-05-29T16:02:13Z</time>
      </trkpt>
      <trkpt lat="37.7952683251" lon="-6.9637485221">
        <ele>329.87</ele>
        <time>2021-05-29T16:02:14Z</time>
      </trkpt>
      <trkpt lat="37.7952852566" lon="-6.9630647264">
        <ele>329.39</ele>
        <time>2021-05-29T16:02:17Z</time>
      </trkpt>
      <trkpt lat="37.7952624578" lon="-6.9628354814">
        <ele>329.39</ele>
        <time>2021-05-29T16:02:18Z</time>
      </trkpt>
      <trkpt lat="37.7949691750" lon="-6.9609714299">
        <ele>326.50</ele>
        <time>2021-05-29T16:02:25Z</time>
      </trkpt>
      <trkpt lat="37.7949186321" lon="-6.9606694300">
        <ele>326.02</ele>
        <time>2021-05-29T16:02:26Z</time>
      </trkpt>
      <trkpt lat="37.7943790052" lon="-6.9568029419">
        <ele>322.66</ele>
        <time>2021-05-29T16:02:38Z</time>
      </trkpt>
      <trkpt lat="37.7942981198" lon="-6.9561106805">
        <ele>322.18</ele>
        <time>2021-05-29T16:02:40Z</time>
      </trkpt>
      <trkpt lat="37.7941178251" lon="-6.9546886068">
        <ele>323.62</ele>
        <time>2021-05-29T16:02:44Z</time>
      </trkpt>
      <trkpt lat="37.7939273044" lon="-6.9523136783">
        <ele>326.02</ele>
        <time>2021-05-29T16:02:51Z</time>
      </trkpt>
      <trkpt lat="37.7939755842" lon="-6.9513430540">
        <ele>329.39</ele>
        <time>2021-05-29T16:02:54Z</time>
      </trkpt>
      <trkpt lat="37.7940512728" lon="-6.9507280737">
        <ele>332.27</ele>
        <time>2021-05-29T16:02:56Z</time>
      </trkpt>
      <trkpt lat="37.7941148914" lon="-6.9504494593">
        <ele>332.27</ele>
        <time>2021-05-29T16:02:57Z</time>
      </trkpt>
      <trkpt lat="37.7941993810" lon="-6.9502040371">
        <ele>331.79</ele>
        <time>2021-05-29T16:02:58Z</time>
      </trkpt>
      <trkpt lat="37.7943128720" lon="-6.9499865267">
        <ele>332.27</ele>
        <time>2021-05-29T16:02:59Z</time>
      </trkpt>
      <trkpt lat="37.7944594715" lon="-6.9497852772">
        <ele>334.68</ele>
        <time>2021-05-29T16:03:00Z</time>
      </trkpt>
      <trkpt lat="37.7946314681" lon="-6.9495933317">
        <ele>336.12</ele>
        <time>2021-05-29T16:03:01Z</time>
      </trkpt>
      <trkpt lat="37.7948159538" lon="-6.9493993744">
        <ele>337.56</ele>
        <time>2021-05-29T16:03:02Z</time>
      </trkpt>
      <trkpt lat="37.7952119149" lon="-6.9489885774">
        <ele>341.89</ele>
        <time>2021-05-29T16:03:04Z</time>
      </trkpt>
      <trkpt lat="37.7956241369" lon="-6.9485543109">
        <ele>345.25</ele>
        <time>2021-05-29T16:03:06Z</time>
      </trkpt>
      <trkpt lat="37.7966461424" lon="-6.9473598059">
        <ele>346.69</ele>
        <time>2021-05-29T16:03:12Z</time>
      </trkpt>
      <trkpt lat="37.7967546880" lon="-6.9471326564">
        <ele>348.13</ele>
        <time>2021-05-29T16:03:13Z</time>
      </trkpt>
      <trkpt lat="37.7968452964" lon="-6.9468814507">
        <ele>350.06</ele>
        <time>2021-05-29T16:03:14Z</time>
      </trkpt>
      <trkpt lat="37.7969220746" lon="-6.9466040097">
        <ele>351.50</ele>
        <time>2021-05-29T16:03:15Z</time>
      </trkpt>
      <trkpt lat="37.7969920635" lon="-6.9463068713">
        <ele>351.50</ele>
        <time>2021-05-29T16:03:16Z</time>
      </trkpt>
      <trkpt lat="37.7972081490" lon="-6.9453304633">
        <ele>353.42</ele>
        <time>2021-05-29T16:03:19Z</time>
      </trkpt>
      <trkpt lat="37.7974414174" lon="-6.9442995731">
        <ele>349.58</ele>
        <time>2021-05-29T16:03:22Z</time>
      </trkpt>
      <trkpt lat="37.7977703232" lon="-6.9428981189">
        <ele>351.50</ele>
        <time>2021-05-29T16:03:26Z</time>
      </trkpt>
      <trkpt lat="37.7980206907" lon="-6.9418132491">
        <ele>353.42</ele>
        <time>2021-05-29T16:03:29Z</time>
      </trkpt>
      <trkpt lat="37.7984491736" lon="-6.9399768580">
        <ele>357.27</ele>
        <time>2021-05-29T16:03:34Z</time>
      </trkpt>
      <trkpt lat="37.7985332441" lon="-6.9396183640">
        <ele>356.79</ele>
        <time>2021-05-29T16:03:35Z</time>
      </trkpt>
      <trkpt lat="37.7988952585" lon="-6.9371204730">
        <ele>358.23</ele>
        <time>2021-05-29T16:03:42Z</time>
      </trkpt>
      <trkpt lat="37.7990012057" lon="-6.9357641134">
        <ele>352.94</ele>
        <time>2021-05-29T16:03:46Z</time>
      </trkpt>
      <trkpt lat="37.7990636509" lon="-6.9354686514">
        <ele>352.46</ele>
        <time>2021-05-29T16:03:47Z</time>
      </trkpt>
      <trkpt lat="37.7991566062" lon="-6.9351861812">
        <ele>352.46</ele>
        <time>2021-05-29T16:03:48Z</time>
      </trkpt>
      <trkpt lat="37.7992780600" lon="-6.9349120930">
        <ele>352.94</ele>
        <time>2021-05-29T16:03:49Z</time>
      </trkpt>
      <trkpt lat="37.8000871651" lon="-6.9333445933">
        <ele>353.42</ele>
        <time>2021-05-29T16:03:55Z</time>
      </trkpt>
      <trkpt lat="37.8001608420" lon="-6.9330959022">
        <ele>352.46</ele>
        <time>2021-05-29T16:03:56Z</time>
      </trkpt>
      <trkpt lat="37.8002070263" lon="-6.9328276813">
        <ele>353.42</ele>
        <time>2021-05-29T16:03:57Z</time>
      </trkpt>
      <trkpt lat="37.8003341798" lon="-6.9316295721">
        <ele>356.79</ele>
        <time>2021-05-29T16:04:01Z</time>
      </trkpt>
      <trkpt lat="37.8004173283" lon="-6.9310540706">
        <ele>352.94</ele>
        <time>2021-05-29T16:04:03Z</time>
      </trkpt>
      <trkpt lat="37.8004867304" lon="-6.9307866041">
        <ele>350.54</ele>
        <time>2021-05-29T16:04:04Z</time>
      </trkpt>
      <trkpt lat="37.8005886544" lon="-6.9305303693">
        <ele>350.06</ele>
        <time>2021-05-29T16:04:05Z</time>
      </trkpt>
      <trkpt lat="37.8007272072" lon="-6.9302950054">
        <ele>349.58</ele>
        <time>2021-05-29T16:04:06Z</time>
      </trkpt>
      <trkpt lat="37.8008951806" lon="-6.9300888944">
        <ele>349.58</ele>
        <time>2021-05-29T16:04:07Z</time>
      </trkpt>
      <trkpt lat="37.8010854498" lon="-6.9299008045">
        <ele>349.58</ele>
        <time>2021-05-29T16:04:08Z</time>
      </trkpt>
      <trkpt lat="37.8018207103" lon="-6.9291816372">
        <ele>345.73</ele>
        <time>2021-05-29T16:04:12Z</time>
      </trkpt>
      <trkpt lat="37.8019639570" lon="-6.9290093891">
        <ele>344.29</ele>
        <time>2021-05-29T16:04:13Z</time>
      </trkpt>
      <trkpt lat="37.8020756040" lon="-6.9288207125">
        <ele>343.81</ele>
        <time>2021-05-29T16:04:14Z</time>
      </trkpt>
      <trkpt lat="37.8021529689" lon="-6.9286099076">
        <ele>344.77</ele>
        <time>2021-05-29T16:04:15Z</time>
      </trkpt>
      <trkpt lat="37.8022044338" lon="-6.9283733703">
        <ele>345.25</ele>
        <time>2021-05-29T16:04:16Z</time>
      </trkpt>
      <trkpt lat="37.8022450022" lon="-6.9281119388">
        <ele>346.69</ele>
        <time>2021-05-29T16:04:17Z</time>
      </trkpt>
      <trkpt lat="37.8022854030" lon="-6.9278298877">
        <ele>346.69</ele>
        <time>2021-05-29T16:04:18Z</time>
      </trkpt>
      <trkpt lat="37.8024633508" lon="-6.9266300183">
        <ele>345.73</ele>
        <time>2021-05-29T16:04:22Z</time>
      </trkpt>
      <trkpt lat="37.8028894030" lon="-6.9242941495">
        <ele>344.77</ele>
        <time>2021-05-29T16:04:29Z</time>
      </trkpt>
      <trkpt lat="37.8031676821" lon="-6.9233345892">
        <ele>341.89</ele>
        <time>2021-05-29T16:04:32Z</time>
      </trkpt>
      <trkpt lat="37.8034306224" lon="-6.9224585965">
        <ele>339.48</ele>
        <time>2021-05-29T16:04:35Z</time>
      </trkpt>
      <trkpt lat="37.8036691714" lon="-6.9216012955">
        <ele>336.12</ele>
        <time>2021-05-29T16:04:38Z</time>
      </trkpt>
      <trkpt lat="37.8037186246" lon="-6.9213122036">
        <ele>336.12</ele>
        <time>2021-05-29T16:04:39Z</time>
      </trkpt>
      <trkpt lat="37.8037490509" lon="-6.9210063480">
        <ele>336.12</ele>
        <time>2021-05-29T16:04:40Z</time>
      </trkpt>
      <trkpt lat="37.8037616238" lon="-6.9206853211">
        <ele>337.08</ele>
        <time>2021-05-29T16:04:41Z</time>
      </trkpt>
      <trkpt lat="37.8037305269" lon="-6.9186688028">
        <ele>342.37</ele>
        <time>2021-05-29T16:04:47Z</time>
      </trkpt>
      <trkpt lat="37.8037233185" lon="-6.9179597776">
        <ele>344.77</ele>
        <time>2021-05-29T16:04:49Z</time>
      </trkpt>
      <trkpt lat="37.8037190437" lon="-6.9172381796">
        <ele>349.10</ele>
        <time>2021-05-29T16:04:51Z</time>
      </trkpt>
      <trkpt lat="37.8037161101" lon="-6.9165074453">
        <ele>353.42</ele>
        <time>2021-05-29T16:04:53Z</time>
      </trkpt>
      <trkpt lat="37.8037118353" lon="-6.9158175308">
        <ele>354.38</ele>
        <time>2021-05-29T16:04:55Z</time>
      </trkpt>
      <trkpt lat="37.8037558403" lon="-6.9146211818">
        <ele>355.34</ele>
        <time>2021-05-29T16:04:59Z</time>
      </trkpt>
      <trkpt lat="37.8038186207" lon="-6.9143240433">
        <ele>356.31</ele>
        <time>2021-05-29T16:05:00Z</time>
      </trkpt>
      <trkpt lat="37.8039068822" lon="-6.9140206184">
        <ele>358.71</ele>
        <time>2021-05-29T16:05:01Z</time>
      </trkpt>
      <trkpt lat="37.8041123226" lon="-6.9133917242">
        <ele>362.07</ele>
        <time>2021-05-29T16:05:03Z</time>
      </trkpt>
      <trkpt lat="37.8042134084" lon="-6.9130785763">
        <ele>362.07</ele>
        <time>2021-05-29T16:05:04Z</time>
      </trkpt>
      <trkpt lat="37.8043671325" lon="-6.9124780968">
        <ele>358.71</ele>
        <time>2021-05-29T16:05:06Z</time>
      </trkpt>
      <trkpt lat="37.8044034261" lon="-6.9121698942">
        <ele>357.75</ele>
        <time>2021-05-29T16:05:07Z</time>
      </trkpt>
      <trkpt lat="37.8044100478" lon="-6.9118458498">
        <ele>359.19</ele>
        <time>2021-05-29T16:05:08Z</time>
      </trkpt>
      <trkpt lat="37.8043944575" lon="-6.9115071371">
        <ele>362.55</ele>
        <time>2021-05-29T16:05:09Z</time>
      </trkpt>
      <trkpt lat="37.8043676354" lon="-6.9111545943">
        <ele>363.04</ele>
        <time>2021-05-29T16:05:10Z</time>
      </trkpt>
      <trkpt lat="37.8041813895" lon="-6.9091896247">
        <ele>363.52</ele>
        <time>2021-05-29T16:05:16Z</time>
      </trkpt>
      <trkpt lat="37.8041107301" lon="-6.9089105912">
        <ele>365.44</ele>
        <time>2021-05-29T16:05:17Z</time>
      </trkpt>
      <trkpt lat="37.8040332813" lon="-6.9086504169">
        <ele>364.48</ele>
        <time>2021-05-29T16:05:18Z</time>
      </trkpt>
      <trkpt lat="37.8039760329" lon="-6.9083939306">
        <ele>364.48</ele>
        <time>2021-05-29T16:05:19Z</time>
      </trkpt>
      <trkpt lat="37.8039434273" lon="-6.9081193395">
        <ele>365.44</ele>
        <time>2021-05-29T16:05:20Z</time>
      </trkpt>
      <trkpt lat="37.8038865142" lon="-6.9072679058">
        <ele>367.84</ele>
        <time>2021-05-29T16:05:23Z</time>
      </trkpt>
      <trkpt lat="37.8038338758" lon="-6.9070059713">
        <ele>367.84</ele>
        <time>2021-05-29T16:05:24Z</time>
      </trkpt>
      <trkpt lat="37.8037533257" lon="-6.9067390915">
        <ele>370.73</ele>
        <time>2021-05-29T16:05:25Z</time>
      </trkpt>
      <trkpt lat="37.8036529105" lon="-6.9064625725">
        <ele>375.53</ele>
        <time>2021-05-29T16:05:26Z</time>
      </trkpt>
      <trkpt lat="37.8034410998" lon="-6.9059098698">
        <ele>376.01</ele>
        <time>2021-05-29T16:05:28Z</time>
      </trkpt>
      <trkpt lat="37.8032402694" lon="-6.9053432532">
        <ele>379.38</ele>
        <time>2021-05-29T16:05:30Z</time>
      </trkpt>
      <trkpt lat="37.8031376749" lon="-6.9050378166">
        <ele>378.90</ele>
        <time>2021-05-29T16:05:31Z</time>
      </trkpt>
      <trkpt lat="37.8025849722" lon="-6.9034271501">
        <ele>384.18</ele>
        <time>2021-05-29T16:05:36Z</time>
      </trkpt>
      <trkpt lat="37.8016398288" lon="-6.9005855173">
        <ele>387.07</ele>
        <time>2021-05-29T16:05:44Z</time>
      </trkpt>
      <trkpt lat="37.8010004573" lon="-6.8986607809">
        <ele>383.70</ele>
        <time>2021-05-29T16:05:49Z</time>
      </trkpt>
      <trkpt lat="37.8002490196" lon="-6.8964728527">
        <ele>379.38</ele>
        <time>2021-05-29T16:05:55Z</time>
      </trkpt>
      <trkpt lat="37.7997730114" lon="-6.8950698059">
        <ele>376.97</ele>
        <time>2021-05-29T16:05:59Z</time>
      </trkpt>
      <trkpt lat="37.7990617231" lon="-6.8929768447">
        <ele>380.82</ele>
        <time>2021-05-29T16:06:05Z</time>
      </trkpt>
      <trkpt lat="37.7989412751" lon="-6.8926238827">
        <ele>381.30</ele>
        <time>2021-05-29T16:06:06Z</time>
      </trkpt>
      <trkpt lat="37.7987028100" lon="-6.8919172883">
        <ele>384.66</ele>
        <time>2021-05-29T16:06:08Z</time>
      </trkpt>
      <trkpt lat="37.7972753718" lon="-6.8876696751">
        <ele>385.63</ele>
        <time>2021-05-29T16:06:20Z</time>
      </trkpt>
      <trkpt lat="37.7970297821" lon="-6.8869330734">
        <ele>381.30</ele>
        <time>2021-05-29T16:06:22Z</time>
      </trkpt>
      <trkpt lat="37.7969045565" lon="-6.8865567259">
        <ele>381.30</ele>
        <time>2021-05-29T16:06:23Z</time>
      </trkpt>
      <trkpt lat="37.7963956073" lon="-6.8850732967">
        <ele>377.94</ele>
        <time>2021-05-29T16:06:27Z</time>
      </trkpt>
      <trkpt lat="37.7954419143" lon="-6.8823001441">
        <ele>381.30</ele>
        <time>2021-05-29T16:06:35Z</time>
      </trkpt>
      <trkpt lat="37.7953269146" lon="-6.8819462601">
        <ele>381.30</ele>
        <time>2021-05-29T16:06:36Z</time>
      </trkpt>
      <trkpt lat="37.7948561870" lon="-6.8804919161">
        <ele>377.94</ele>
        <time>2021-05-29T16:06:40Z</time>
      </trkpt>
      <trkpt lat="37.7946218289" lon="-6.8798161671">
        <ele>374.09</ele>
        <time>2021-05-29T16:06:42Z</time>
      </trkpt>
      <trkpt lat="37.7945100982" lon="-6.8795031868">
        <ele>374.57</ele>
        <time>2021-05-29T16:06:43Z</time>
      </trkpt>
      <trkpt lat="37.7940235287" lon="-6.8779126368">
        <ele>373.13</ele>
        <time>2021-05-29T16:06:49Z</time>
      </trkpt>
      <trkpt lat="37.7937669586" lon="-6.8765240069">
        <ele>367.84</ele>
        <time>2021-05-29T16:06:54Z</time>
      </trkpt>
      <trkpt lat="37.7936638612" lon="-6.8759879842">
        <ele>363.52</ele>
        <time>2021-05-29T16:06:56Z</time>
      </trkpt>
      <trkpt lat="37.7935180999" lon="-6.8752703257">
        <ele>359.19</ele>
        <time>2021-05-29T16:06:59Z</time>
      </trkpt>
      <trkpt lat="37.7933828160" lon="-6.8746339716">
        <ele>357.27</ele>
        <time>2021-05-29T16:07:02Z</time>
      </trkpt>
      <trkpt lat="37.7933010086" lon="-6.8742470630">
        <ele>353.90</ele>
        <time>2021-05-29T16:07:04Z</time>
      </trkpt>
      <trkpt lat="37.7932610270" lon="-6.8740562908">
        <ele>353.90</ele>
        <time>2021-05-29T16:07:05Z</time>
      </trkpt>
      <trkpt lat="37.7931212168" lon="-6.8733758479">
        <ele>351.02</ele>
        <time>2021-05-29T16:07:09Z</time>
      </trkpt>
      <trkpt lat="37.7930663992" lon="-6.8730044458">
        <ele>348.62</ele>
        <time>2021-05-29T16:07:12Z</time>
      </trkpt>
      <trkpt lat="37.7930840850" lon="-6.8729040306">
        <ele>349.10</ele>
        <time>2021-05-29T16:07:13Z</time>
      </trkpt>
      <trkpt lat="37.7931309398" lon="-6.8728111591">
        <ele>350.06</ele>
        <time>2021-05-29T16:07:14Z</time>
      </trkpt>
      <trkpt lat="37.7932062931" lon="-6.8727235682">
        <ele>351.50</ele>
        <time>2021-05-29T16:07:15Z</time>
      </trkpt>
      <trkpt lat="37.7933032718" lon="-6.8726218119">
        <ele>353.42</ele>
        <time>2021-05-29T16:07:16Z</time>
      </trkpt>
      <trkpt lat="37.7935175132" lon="-6.8723700196">
        <ele>353.90</ele>
        <time>2021-05-29T16:07:18Z</time>
      </trkpt>
      <trkpt lat="37.7937517874" lon="-6.8720798381">
        <ele>357.75</ele>
        <time>2021-05-29T16:07:20Z</time>
      </trkpt>
      <trkpt lat="37.7940164041" lon="-6.8717481662">
        <ele>360.15</ele>
        <time>2021-05-29T16:07:22Z</time>
      </trkpt>
      <trkpt lat="37.7947366610" lon="-6.8708409928">
        <ele>362.07</ele>
        <time>2021-05-29T16:07:27Z</time>
      </trkpt>
      <trkpt lat="37.7950441092" lon="-6.8704240769">
        <ele>363.04</ele>
        <time>2021-05-29T16:07:29Z</time>
      </trkpt>
      <trkpt lat="37.7952991705" lon="-6.8699543551">
        <ele>363.04</ele>
        <time>2021-05-29T16:07:31Z</time>
      </trkpt>
      <trkpt lat="37.7955042757" lon="-6.8694312405">
        <ele>364.96</ele>
        <time>2021-05-29T16:07:33Z</time>
      </trkpt>
      <trkpt lat="37.7958123107" lon="-6.8685736880">
        <ele>367.36</ele>
        <time>2021-05-29T16:07:36Z</time>
      </trkpt>
      <trkpt lat="37.7967705298" lon="-6.8658264354">
        <ele>368.32</ele>
        <time>2021-05-29T16:07:45Z</time>
      </trkpt>
      <trkpt lat="37.7971007768" lon="-6.8648872431">
        <ele>371.69</ele>
        <time>2021-05-29T16:07:48Z</time>
      </trkpt>
      <trkpt lat="37.7973293513" lon="-6.8642431777">
        <ele>372.65</ele>
        <time>2021-05-29T16:07:50Z</time>
      </trkpt>
      <trkpt lat="37.7977949660" lon="-6.8629201781">
        <ele>376.49</ele>
        <time>2021-05-29T16:07:54Z</time>
      </trkpt>
      <trkpt lat="37.7979122289" lon="-6.8625905178">
        <ele>376.01</ele>
        <time>2021-05-29T16:07:55Z</time>
      </trkpt>
      <trkpt lat="37.7987787500" lon="-6.8601647113">
        <ele>369.28</ele>
        <time>2021-05-29T16:08:03Z</time>
      </trkpt>
      <trkpt lat="37.7990395110" lon="-6.8594224937">
        <ele>365.92</ele>
        <time>2021-05-29T16:08:06Z</time>
      </trkpt>
      <trkpt lat="37.7992970869" lon="-6.8588075973">
        <ele>366.40</ele>
        <time>2021-05-29T16:08:09Z</time>
      </trkpt>
      <trkpt lat="37.7994219773" lon="-6.8586248718">
        <ele>365.44</ele>
        <time>2021-05-29T16:08:10Z</time>
      </trkpt>
      <trkpt lat="37.7995669842" lon="-6.8584667891">
        <ele>366.40</ele>
        <time>2021-05-29T16:08:11Z</time>
      </trkpt>
      <trkpt lat="37.7997212950" lon="-6.8583372887">
        <ele>366.40</ele>
        <time>2021-05-29T16:08:12Z</time>
      </trkpt>
      <trkpt lat="37.7998859994" lon="-6.8582352810">
        <ele>366.88</ele>
        <time>2021-05-29T16:08:13Z</time>
      </trkpt>
      <trkpt lat="37.8000664618" lon="-6.8581612688">
        <ele>366.88</ele>
        <time>2021-05-29T16:08:14Z</time>
      </trkpt>
      <trkpt lat="37.8002594132" lon="-6.8581175990">
        <ele>367.84</ele>
        <time>2021-05-29T16:08:15Z</time>
      </trkpt>
      <trkpt lat="37.8004566394" lon="-6.8580875918">
        <ele>367.84</ele>
        <time>2021-05-29T16:08:16Z</time>
      </trkpt>
      <trkpt lat="37.8008303046" lon="-6.8579917867">
        <ele>366.40</ele>
        <time>2021-05-29T16:08:18Z</time>
      </trkpt>
      <trkpt lat="37.8010170534" lon="-6.8579105660">
        <ele>365.92</ele>
        <time>2021-05-29T16:08:19Z</time>
      </trkpt>
      <trkpt lat="37.8012089990" lon="-6.8578050379">
        <ele>365.92</ele>
        <time>2021-05-29T16:08:20Z</time>
      </trkpt>
      <trkpt lat="37.8017703351" lon="-6.8573910557">
        <ele>362.55</ele>
        <time>2021-05-29T16:08:23Z</time>
      </trkpt>
      <trkpt lat="37.8019258194" lon="-6.8572270218">
        <ele>360.63</ele>
        <time>2021-05-29T16:08:24Z</time>
      </trkpt>
      <trkpt lat="37.8020600975" lon="-6.8570414465">
        <ele>359.19</ele>
        <time>2021-05-29T16:08:25Z</time>
      </trkpt>
      <trkpt lat="37.8021712415" lon="-6.8568310607">
        <ele>357.75</ele>
        <time>2021-05-29T16:08:26Z</time>
      </trkpt>
      <trkpt lat="37.8022559825" lon="-6.8566006422">
        <ele>355.83</ele>
        <time>2021-05-29T16:08:27Z</time>
      </trkpt>
      <trkpt lat="37.8023159970" lon="-6.8563572317">
        <ele>354.86</ele>
        <time>2021-05-29T16:08:28Z</time>
      </trkpt>
      <trkpt lat="37.8023458365" lon="-6.8561025057">
        <ele>352.46</ele>
        <time>2021-05-29T16:08:29Z</time>
      </trkpt>
      <trkpt lat="37.8023515362" lon="-6.8558365479">
        <ele>353.42</ele>
        <time>2021-05-29T16:08:30Z</time>
      </trkpt>
      <trkpt lat="37.8023371194" lon="-6.8555580173">
        <ele>352.94</ele>
        <time>2021-05-29T16:08:31Z</time>
      </trkpt>
      <trkpt lat="37.8023097105" lon="-6.8552640639">
        <ele>353.42</ele>
        <time>2021-05-29T16:08:32Z</time>
      </trkpt>
      <trkpt lat="37.8021999914" lon="-6.8537464365">
        <ele>350.06</ele>
        <time>2021-05-29T16:08:37Z</time>
      </trkpt>
      <trkpt lat="37.8022281546" lon="-6.8531708512">
        <ele>349.10</ele>
        <time>2021-05-29T16:08:39Z</time>
      </trkpt>
      <trkpt lat="37.8022831399" lon="-6.8528748862">
        <ele>350.54</ele>
        <time>2021-05-29T16:08:40Z</time>
      </trkpt>
      <trkpt lat="37.8023604210" lon="-6.8525738921">
        <ele>350.54</ele>
        <time>2021-05-29T16:08:41Z</time>
      </trkpt>
      <trkpt lat="37.8025194257" lon="-6.8519929424">
        <ele>348.13</ele>
        <time>2021-05-29T16:08:43Z</time>
      </trkpt>
      <trkpt lat="37.8026667796" lon="-6.8514843285">
        <ele>344.29</ele>
        <time>2021-05-29T16:08:45Z</time>
      </trkpt>
      <trkpt lat="37.8027563822" lon="-6.8512519822">
        <ele>343.33</ele>
        <time>2021-05-29T16:08:46Z</time>
      </trkpt>
      <trkpt lat="37.8028714657" lon="-6.8510229886">
        <ele>342.85</ele>
        <time>2021-05-29T16:08:47Z</time>
      </trkpt>
      <trkpt lat="37.8030090965" lon="-6.8508030474">
        <ele>343.81</ele>
        <time>2021-05-29T16:08:48Z</time>
      </trkpt>
      <trkpt lat="37.8033148684" lon="-6.8503735587">
        <ele>339.48</ele>
        <time>2021-05-29T16:08:50Z</time>
      </trkpt>
      <trkpt lat="37.8036151920" lon="-6.8499710597">
        <ele>335.64</ele>
        <time>2021-05-29T16:08:52Z</time>
      </trkpt>
      <trkpt lat="37.8038574290" lon="-6.8495885935">
        <ele>330.83</ele>
        <time>2021-05-29T16:08:54Z</time>
      </trkpt>
      <trkpt lat="37.8039504681" lon="-6.8493860029">
        <ele>330.35</ele>
        <time>2021-05-29T16:08:55Z</time>
      </trkpt>
      <trkpt lat="37.8040226363" lon="-6.8491659779">
        <ele>329.87</ele>
        <time>2021-05-29T16:08:56Z</time>
      </trkpt>
      <trkpt lat="37.8040692396" lon="-6.8489247467">
        <ele>329.87</ele>
        <time>2021-05-29T16:08:57Z</time>
      </trkpt>
      <trkpt lat="37.8040947206" lon="-6.8486638181">
        <ele>331.31</ele>
        <time>2021-05-29T16:08:58Z</time>
      </trkpt>
      <trkpt lat="37.8040996660" lon="-6.8483984470">
        <ele>331.31</ele>
        <time>2021-05-29T16:08:59Z</time>
      </trkpt>
      <trkpt lat="37.8040981572" lon="-6.8481360935">
        <ele>330.35</ele>
        <time>2021-05-29T16:09:00Z</time>
      </trkpt>
      <trkpt lat="37.8041061200" lon="-6.8478665315">
        <ele>331.31</ele>
        <time>2021-05-29T16:09:01Z</time>
      </trkpt>
      <trkpt lat="37.8041362111" lon="-6.8475897610">
        <ele>331.79</ele>
        <time>2021-05-29T16:09:02Z</time>
      </trkpt>
      <trkpt lat="37.8041887656" lon="-6.8473129068">
        <ele>331.31</ele>
        <time>2021-05-29T16:09:03Z</time>
      </trkpt>
      <trkpt lat="37.8043842316" lon="-6.8458834570">
        <ele>327.47</ele>
        <time>2021-05-29T16:09:08Z</time>
      </trkpt>
      <trkpt lat="37.8044279013" lon="-6.8452410679">
        <ele>324.10</ele>
        <time>2021-05-29T16:09:10Z</time>
      </trkpt>
      <trkpt lat="37.8045324236" lon="-6.8445907999">
        <ele>319.78</ele>
        <time>2021-05-29T16:09:12Z</time>
      </trkpt>
      <trkpt lat="37.8045991436" lon="-6.8442547694">
        <ele>319.78</ele>
        <time>2021-05-29T16:09:13Z</time>
      </trkpt>
      <trkpt lat="37.8047340922" lon="-6.8435693812">
        <ele>318.33</ele>
        <time>2021-05-29T16:09:15Z</time>
      </trkpt>
      <trkpt lat="37.8047972918" lon="-6.8432384636">
        <ele>314.49</ele>
        <time>2021-05-29T16:09:16Z</time>
      </trkpt>
      <trkpt lat="37.8049170692" lon="-6.8426102400">
        <ele>310.16</ele>
        <time>2021-05-29T16:09:18Z</time>
      </trkpt>
      <trkpt lat="37.8052917402" lon="-6.8413676228">
        <ele>306.80</ele>
        <time>2021-05-29T16:09:22Z</time>
      </trkpt>
      <trkpt lat="37.8054925706" lon="-6.8407399859">
        <ele>302.47</ele>
        <time>2021-05-29T16:09:24Z</time>
      </trkpt>
      <trkpt lat="37.8055620566" lon="-6.8404238205">
        <ele>299.59</ele>
        <time>2021-05-29T16:09:25Z</time>
      </trkpt>
      <trkpt lat="37.8056193050" lon="-6.8401167914">
        <ele>295.74</ele>
        <time>2021-05-29T16:09:26Z</time>
      </trkpt>
      <trkpt lat="37.8057670780" lon="-6.8395331595">
        <ele>294.78</ele>
        <time>2021-05-29T16:09:28Z</time>
      </trkpt>
      <trkpt lat="37.8058775514" lon="-6.8392384518">
        <ele>295.26</ele>
        <time>2021-05-29T16:09:29Z</time>
      </trkpt>
      <trkpt lat="37.8062797990" lon="-6.8383242376">
        <ele>292.38</ele>
        <time>2021-05-29T16:09:32Z</time>
      </trkpt>
      <trkpt lat="37.8065836430" lon="-6.8377183937">
        <ele>288.05</ele>
        <time>2021-05-29T16:09:34Z</time>
      </trkpt>
      <trkpt lat="37.8072435502" lon="-6.8365408201">
        <ele>282.77</ele>
        <time>2021-05-29T16:09:38Z</time>
      </trkpt>
      <trkpt lat="37.8077053092" lon="-6.8357175495">
        <ele>278.92</ele>
        <time>2021-05-29T16:09:41Z</time>
      </trkpt>
      <trkpt lat="37.8082781285" lon="-6.8346985616">
        <ele>275.56</ele>
        <time>2021-05-29T16:09:45Z</time>
      </trkpt>
      <trkpt lat="37.8086043522" lon="-6.8339072261">
        <ele>277.48</ele>
        <time>2021-05-29T16:09:48Z</time>
      </trkpt>
      <trkpt lat="37.8086749278" lon="-6.8336360715">
        <ele>277.48</ele>
        <time>2021-05-29T16:09:49Z</time>
      </trkpt>
      <trkpt lat="37.8087193519" lon="-6.8333733827">
        <ele>277.00</ele>
        <time>2021-05-29T16:09:50Z</time>
      </trkpt>
      <trkpt lat="37.8087389655" lon="-6.8331214227">
        <ele>276.52</ele>
        <time>2021-05-29T16:09:51Z</time>
      </trkpt>
      <trkpt lat="37.8087373730" lon="-6.8328860588">
        <ele>275.07</ele>
        <time>2021-05-29T16:09:52Z</time>
      </trkpt>
      <trkpt lat="37.8087282367" lon="-6.8326641060">
        <ele>273.63</ele>
        <time>2021-05-29T16:09:53Z</time>
      </trkpt>
      <trkpt lat="37.8087377083" lon="-6.8322906923">
        <ele>269.31</ele>
        <time>2021-05-29T16:09:55Z</time>
      </trkpt>
      <trkpt lat="37.8087812942" lon="-6.8321307655">
        <ele>267.38</ele>
        <time>2021-05-29T16:09:56Z</time>
      </trkpt>
      <trkpt lat="37.8088609222" lon="-6.8319733534">
        <ele>266.90</ele>
        <time>2021-05-29T16:09:57Z</time>
      </trkpt>
      <trkpt lat="37.8089687973" lon="-6.8318153545">
        <ele>266.42</ele>
        <time>2021-05-29T16:09:58Z</time>
      </trkpt>
      <trkpt lat="37.8090943582" lon="-6.8316566851">
        <ele>267.86</ele>
        <time>2021-05-29T16:09:59Z</time>
      </trkpt>
      <trkpt lat="37.8092328273" lon="-6.8314956687">
        <ele>268.35</ele>
        <time>2021-05-29T16:10:00Z</time>
      </trkpt>
      <trkpt lat="37.8098690975" lon="-6.8308948539">
        <ele>270.27</ele>
        <time>2021-05-29T16:10:04Z</time>
      </trkpt>
      <trkpt lat="37.8100406751" lon="-6.8307729810">
        <ele>269.79</ele>
        <time>2021-05-29T16:10:05Z</time>
      </trkpt>
      <trkpt lat="37.8102254122" lon="-6.8306763377">
        <ele>270.75</ele>
        <time>2021-05-29T16:10:06Z</time>
      </trkpt>
      <trkpt lat="37.8104294278" lon="-6.8306094501">
        <ele>271.23</ele>
        <time>2021-05-29T16:10:07Z</time>
      </trkpt>
      <trkpt lat="37.8106496204" lon="-6.8305671215">
        <ele>271.23</ele>
        <time>2021-05-29T16:10:08Z</time>
      </trkpt>
      <trkpt lat="37.8108788654" lon="-6.8305350188">
        <ele>271.23</ele>
        <time>2021-05-29T16:10:09Z</time>
      </trkpt>
      <trkpt lat="37.8113373555" lon="-6.8304698914">
        <ele>274.59</ele>
        <time>2021-05-29T16:10:11Z</time>
      </trkpt>
      <trkpt lat="37.8115533572" lon="-6.8304392975">
        <ele>274.11</ele>
        <time>2021-05-29T16:10:12Z</time>
      </trkpt>
      <trkpt lat="37.8119819239" lon="-6.8304306641">
        <ele>275.07</ele>
        <time>2021-05-29T16:10:14Z</time>
      </trkpt>
      <trkpt lat="37.8121953271" lon="-6.8304734956">
        <ele>275.56</ele>
        <time>2021-05-29T16:10:15Z</time>
      </trkpt>
      <trkpt lat="37.8124082275" lon="-6.8305484299">
        <ele>277.00</ele>
        <time>2021-05-29T16:10:16Z</time>
      </trkpt>
      <trkpt lat="37.8126188647" lon="-6.8306578975">
        <ele>278.92</ele>
        <time>2021-05-29T16:10:17Z</time>
      </trkpt>
      <trkpt lat="37.8128276579" lon="-6.8307996355">
        <ele>279.88</ele>
        <time>2021-05-29T16:10:18Z</time>
      </trkpt>
      <trkpt lat="37.8130341042" lon="-6.8309557065">
        <ele>281.32</ele>
        <time>2021-05-29T16:10:19Z</time>
      </trkpt>
      <trkpt lat="37.8132358566" lon="-6.8311158009">
        <ele>281.80</ele>
        <time>2021-05-29T16:10:20Z</time>
      </trkpt>
      <trkpt lat="37.8138647508" lon="-6.8316134345">
        <ele>286.61</ele>
        <time>2021-05-29T16:10:23Z</time>
      </trkpt>
      <trkpt lat="37.8143105842" lon="-6.8319590203">
        <ele>289.97</ele>
        <time>2021-05-29T16:10:25Z</time>
      </trkpt>
      <trkpt lat="37.8147662245" lon="-6.8323148321">
        <ele>293.82</ele>
        <time>2021-05-29T16:10:27Z</time>
      </trkpt>
      <trkpt lat="37.8149771970" lon="-6.8324841466">
        <ele>291.42</ele>
        <time>2021-05-29T16:10:28Z</time>
      </trkpt>
      <trkpt lat="37.8155641817" lon="-6.8329298962">
        <ele>293.82</ele>
        <time>2021-05-29T16:10:31Z</time>
      </trkpt>
      <trkpt lat="37.8166711796" lon="-6.8334862869">
        <ele>289.49</ele>
        <time>2021-05-29T16:10:36Z</time>
      </trkpt>
      <trkpt lat="37.8171664663" lon="-6.8336044718">
        <ele>285.17</ele>
        <time>2021-05-29T16:10:38Z</time>
      </trkpt>
      <trkpt lat="37.8176811151" lon="-6.8336471356">
        <ele>284.21</ele>
        <time>2021-05-29T16:10:40Z</time>
      </trkpt>
      <trkpt lat="37.8197600786" lon="-6.8335614726">
        <ele>279.88</ele>
        <time>2021-05-29T16:10:48Z</time>
      </trkpt>
      <trkpt lat="37.8208519891" lon="-6.8335827626">
        <ele>280.36</ele>
        <time>2021-05-29T16:10:53Z</time>
      </trkpt>
      <trkpt lat="37.8210503887" lon="-6.8336391728">
        <ele>279.88</ele>
        <time>2021-05-29T16:10:54Z</time>
      </trkpt>
      <trkpt lat="37.8212435078" lon="-6.8337330502">
        <ele>280.84</ele>
        <time>2021-05-29T16:10:55Z</time>
      </trkpt>
      <trkpt lat="37.8214294184" lon="-6.8338668253">
        <ele>280.84</ele>
        <time>2021-05-29T16:10:56Z</time>
      </trkpt>
      <trkpt lat="37.8216130659" lon="-6.8340291828">
        <ele>283.73</ele>
        <time>2021-05-29T16:10:57Z</time>
      </trkpt>
      <trkpt lat="37.8217981383" lon="-6.8342047837">
        <ele>284.69</ele>
        <time>2021-05-29T16:10:58Z</time>
      </trkpt>
      <trkpt lat="37.8227758035" lon="-6.8350699637">
        <ele>284.21</ele>
        <time>2021-05-29T16:11:04Z</time>
      </trkpt>
      <trkpt lat="37.8229127638" lon="-6.8351301458">
        <ele>282.77</ele>
        <time>2021-05-29T16:11:05Z</time>
      </trkpt>
      <trkpt lat="37.8230512328" lon="-6.8351510167">
        <ele>282.28</ele>
        <time>2021-05-29T16:11:06Z</time>
      </trkpt>
      <trkpt lat="37.8232008498" lon="-6.8351303972">
        <ele>282.77</ele>
        <time>2021-05-29T16:11:07Z</time>
      </trkpt>
      <trkpt lat="37.8233628720" lon="-6.8350712210">
        <ele>283.73</ele>
        <time>2021-05-29T16:11:08Z</time>
      </trkpt>
      <trkpt lat="37.8235362098" lon="-6.8349824566">
        <ele>284.21</ele>
        <time>2021-05-29T16:11:09Z</time>
      </trkpt>
      <trkpt lat="37.8237090446" lon="-6.8348734081">
        <ele>284.21</ele>
        <time>2021-05-29T16:11:10Z</time>
      </trkpt>
      <trkpt lat="37.8238694742" lon="-6.8347558100">
        <ele>281.80</ele>
        <time>2021-05-29T16:11:11Z</time>
      </trkpt>
      <trkpt lat="37.8240216896" lon="-6.8346432410">
        <ele>281.80</ele>
        <time>2021-05-29T16:11:12Z</time>
      </trkpt>
      <trkpt lat="37.8241754975" lon="-6.8345532194">
        <ele>280.36</ele>
        <time>2021-05-29T16:11:13Z</time>
      </trkpt>
      <trkpt lat="37.8243408725" lon="-6.8344960548">
        <ele>280.36</ele>
        <time>2021-05-29T16:11:14Z</time>
      </trkpt>
      <trkpt lat="37.8248823434" lon="-6.8344167620">
        <ele>279.88</ele>
        <time>2021-05-29T16:11:17Z</time>
      </trkpt>
      <trkpt lat="37.8250654042" lon="-6.8344411533">
        <ele>279.88</ele>
        <time>2021-05-29T16:11:18Z</time>
      </trkpt>
      <trkpt lat="37.8252431843" lon="-6.8345087115">
        <ele>281.80</ele>
        <time>2021-05-29T16:11:19Z</time>
      </trkpt>
      <trkpt lat="37.8254193719" lon="-6.8346196041">
        <ele>284.21</ele>
        <time>2021-05-29T16:11:20Z</time>
      </trkpt>
      <trkpt lat="37.8255900275" lon="-6.8347565643">
        <ele>286.61</ele>
        <time>2021-05-29T16:11:21Z</time>
      </trkpt>
      <trkpt lat="37.8257543966" lon="-6.8349070195">
        <ele>287.57</ele>
        <time>2021-05-29T16:11:22Z</time>
      </trkpt>
      <trkpt lat="37.8261013236" lon="-6.8352169823">
        <ele>291.90</ele>
        <time>2021-05-29T16:11:24Z</time>
      </trkpt>
      <trkpt lat="37.8269585408" lon="-6.8359680008">
        <ele>295.26</ele>
        <time>2021-05-29T16:11:29Z</time>
      </trkpt>
      <trkpt lat="37.8271176293" lon="-6.8360582739">
        <ele>296.22</ele>
        <time>2021-05-29T16:11:30Z</time>
      </trkpt>
      <trkpt lat="37.8272834234" lon="-6.8361055478">
        <ele>298.63</ele>
        <time>2021-05-29T16:11:31Z</time>
      </trkpt>
      <trkpt lat="37.8274667356" lon="-6.8361113314">
        <ele>300.55</ele>
        <time>2021-05-29T16:11:32Z</time>
      </trkpt>
      <trkpt lat="37.8276637942" lon="-6.8360906281">
        <ele>303.43</ele>
        <time>2021-05-29T16:11:33Z</time>
      </trkpt>
      <trkpt lat="37.8278725874" lon="-6.8360503949">
        <ele>305.84</ele>
        <time>2021-05-29T16:11:34Z</time>
      </trkpt>
      <trkpt lat="37.8280939534" lon="-6.8359969184">
        <ele>309.20</ele>
        <time>2021-05-29T16:11:35Z</time>
      </trkpt>
      <trkpt lat="37.8285572212" lon="-6.8358808290">
        <ele>312.09</ele>
        <time>2021-05-29T16:11:37Z</time>
      </trkpt>
      <trkpt lat="37.8287811857" lon="-6.8358244188">
        <ele>312.57</ele>
        <time>2021-05-29T16:11:38Z</time>
      </trkpt>
      <trkpt lat="37.8291816730" lon="-6.8357461318">
        <ele>312.09</ele>
        <time>2021-05-29T16:11:40Z</time>
      </trkpt>
      <trkpt lat="37.8293696791" lon="-6.8357416894">
        <ele>313.53</ele>
        <time>2021-05-29T16:11:41Z</time>
      </trkpt>
      <trkpt lat="37.8295477945" lon="-6.8357719481">
        <ele>314.97</ele>
        <time>2021-05-29T16:11:42Z</time>
      </trkpt>
      <trkpt lat="37.8297181986" lon="-6.8358463794">
        <ele>316.41</ele>
        <time>2021-05-29T16:11:43Z</time>
      </trkpt>
      <trkpt lat="37.8298744373" lon="-6.8359707668">
        <ele>318.81</ele>
        <time>2021-05-29T16:11:44Z</time>
      </trkpt>
      <trkpt lat="37.8300171811" lon="-6.8361374829">
        <ele>321.70</ele>
        <time>2021-05-29T16:11:45Z</time>
      </trkpt>
      <trkpt lat="37.8301584162" lon="-6.8363319431">
        <ele>323.62</ele>
        <time>2021-05-29T16:11:46Z</time>
      </trkpt>
      <trkpt lat="37.8303083684" lon="-6.8365337793">
        <ele>327.47</ele>
        <time>2021-05-29T16:11:47Z</time>
      </trkpt>
      <trkpt lat="37.8306511045" lon="-6.8369009066">
        <ele>333.71</ele>
        <time>2021-05-29T16:11:49Z</time>
      </trkpt>
      <trkpt lat="37.8308489174" lon="-6.8370552175">
        <ele>334.68</ele>
        <time>2021-05-29T16:11:50Z</time>
      </trkpt>
      <trkpt lat="37.8310582973" lon="-6.8371900823">
        <ele>336.12</ele>
        <time>2021-05-29T16:11:51Z</time>
      </trkpt>
      <trkpt lat="37.8312753886" lon="-6.8373108655">
        <ele>338.52</ele>
        <time>2021-05-29T16:11:52Z</time>
      </trkpt>
      <trkpt lat="37.8315007780" lon="-6.8374127056">
        <ele>341.41</ele>
        <time>2021-05-29T16:11:53Z</time>
      </trkpt>
      <trkpt lat="37.8317277599" lon="-6.8374866340">
        <ele>343.33</ele>
        <time>2021-05-29T16:11:54Z</time>
      </trkpt>
      <trkpt lat="37.8319520596" lon="-6.8375166412">
        <ele>343.81</ele>
        <time>2021-05-29T16:11:55Z</time>
      </trkpt>
      <trkpt lat="37.8321743477" lon="-6.8375011347">
        <ele>345.25</ele>
        <time>2021-05-29T16:11:56Z</time>
      </trkpt>
      <trkpt lat="37.8323981445" lon="-6.8374448083">
        <ele>346.21</ele>
        <time>2021-05-29T16:11:57Z</time>
      </trkpt>
      <trkpt lat="37.8326211032" lon="-6.8373531103">
        <ele>350.54</ele>
        <time>2021-05-29T16:11:58Z</time>
      </trkpt>
      <trkpt lat="37.8328287229" lon="-6.8372321595">
        <ele>353.42</ele>
        <time>2021-05-29T16:11:59Z</time>
      </trkpt>
      <trkpt lat="37.8330148011" lon="-6.8371065985">
        <ele>354.86</ele>
        <time>2021-05-29T16:12:00Z</time>
      </trkpt>
      <trkpt lat="37.8331862949" lon="-6.8370042555">
        <ele>354.86</ele>
        <time>2021-05-29T16:12:01Z</time>
      </trkpt>
      <trkpt lat="37.8333530109" lon="-6.8369418941">
        <ele>354.86</ele>
        <time>2021-05-29T16:12:02Z</time>
      </trkpt>
      <trkpt lat="37.8335206490" lon="-6.8369270582">
        <ele>356.31</ele>
        <time>2021-05-29T16:12:03Z</time>
      </trkpt>
      <trkpt lat="37.8336936515" lon="-6.8369625974">
        <ele>357.75</ele>
        <time>2021-05-29T16:12:04Z</time>
      </trkpt>
      <trkpt lat="37.8338717669" lon="-6.8370453268">
        <ele>360.15</ele>
        <time>2021-05-29T16:12:05Z</time>
      </trkpt>
      <trkpt lat="37.8340549115" lon="-6.8371611647">
        <ele>363.52</ele>
        <time>2021-05-29T16:12:06Z</time>
      </trkpt>
      <trkpt lat="37.8342430852" lon="-6.8373023998">
        <ele>365.92</ele>
        <time>2021-05-29T16:12:07Z</time>
      </trkpt>
      <trkpt lat="37.8344323486" lon="-6.8374719657">
        <ele>369.76</ele>
        <time>2021-05-29T16:12:08Z</time>
      </trkpt>
      <trkpt lat="37.8346187621" lon="-6.8376643304">
        <ele>371.69</ele>
        <time>2021-05-29T16:12:09Z</time>
      </trkpt>
      <trkpt lat="37.8347968776" lon="-6.8378717825">
        <ele>373.13</ele>
        <time>2021-05-29T16:12:10Z</time>
      </trkpt>
      <trkpt lat="37.8349605761" lon="-6.8380882032">
        <ele>376.01</ele>
        <time>2021-05-29T16:12:11Z</time>
      </trkpt>
      <trkpt lat="37.8351086006" lon="-6.8383049592">
        <ele>376.97</ele>
        <time>2021-05-29T16:12:12Z</time>
      </trkpt>
      <trkpt lat="37.8352412861" lon="-6.8385124952">
        <ele>376.49</ele>
        <time>2021-05-29T16:12:13Z</time>
      </trkpt>
      <trkpt lat="37.8355016280" lon="-6.8388729170">
        <ele>377.45</ele>
        <time>2021-05-29T16:12:15Z</time>
      </trkpt>
      <trkpt lat="37.8356430307" lon="-6.8390053511">
        <ele>378.42</ele>
        <time>2021-05-29T16:12:16Z</time>
      </trkpt>
      <trkpt lat="37.8357984312" lon="-6.8391008209">
        <ele>379.38</ele>
        <time>2021-05-29T16:12:17Z</time>
      </trkpt>
      <trkpt lat="37.8359691706" lon="-6.8391560577">
        <ele>380.82</ele>
        <time>2021-05-29T16:12:18Z</time>
      </trkpt>
      <trkpt lat="37.8361505549" lon="-6.8391643558">
        <ele>383.22</ele>
        <time>2021-05-29T16:12:19Z</time>
      </trkpt>
      <trkpt lat="37.8363409918" lon="-6.8391293194">
        <ele>385.15</ele>
        <time>2021-05-29T16:12:20Z</time>
      </trkpt>
      <trkpt lat="37.8365390562" lon="-6.8390536308">
        <ele>387.55</ele>
        <time>2021-05-29T16:12:21Z</time>
      </trkpt>
      <trkpt lat="37.8367444966" lon="-6.8389502820">
        <ele>391.39</ele>
        <time>2021-05-29T16:12:22Z</time>
      </trkpt>
      <trkpt lat="37.8369472548" lon="-6.8388399761">
        <ele>394.28</ele>
        <time>2021-05-29T16:12:23Z</time>
      </trkpt>
      <trkpt lat="37.8373597283" lon="-6.8386253994">
        <ele>398.60</ele>
        <time>2021-05-29T16:12:25Z</time>
      </trkpt>
      <trkpt lat="37.8379333857" lon="-6.8383540772">
        <ele>401.49</ele>
        <time>2021-05-29T16:12:28Z</time>
      </trkpt>
      <trkpt lat="37.8381097410" lon="-6.8383175321">
        <ele>401.49</ele>
        <time>2021-05-29T16:12:29Z</time>
      </trkpt>
      <trkpt lat="37.8382897004" lon="-6.8383305240">
        <ele>403.41</ele>
        <time>2021-05-29T16:12:30Z</time>
      </trkpt>
      <trkpt lat="37.8384767007" lon="-6.8383929692">
        <ele>405.33</ele>
        <time>2021-05-29T16:12:31Z</time>
      </trkpt>
      <trkpt lat="37.8386725858" lon="-6.8384834938">
        <ele>407.26</ele>
        <time>2021-05-29T16:12:32Z</time>
      </trkpt>
      <trkpt lat="37.8388812114" lon="-6.8385880999">
        <ele>410.62</ele>
        <time>2021-05-29T16:12:33Z</time>
      </trkpt>
      <trkpt lat="37.8390960395" lon="-6.8387058657">
        <ele>413.98</ele>
        <time>2021-05-29T16:12:34Z</time>
      </trkpt>
      <trkpt lat="37.8395310603" lon="-6.8389712367">
        <ele>418.79</ele>
        <time>2021-05-29T16:12:36Z</time>
      </trkpt>
      <trkpt lat="37.8399668355" lon="-6.8392803613">
        <ele>422.64</ele>
        <time>2021-05-29T16:12:38Z</time>
      </trkpt>
      <trkpt lat="37.8404108249" lon="-6.8396391906">
        <ele>426.00</ele>
        <time>2021-05-29T16:12:40Z</time>
      </trkpt>
      <trkpt lat="37.8408431634" lon="-6.8400547653">
        <ele>426.96</ele>
        <time>2021-05-29T16:12:42Z</time>
      </trkpt>
      <trkpt lat="37.8422542568" lon="-6.8413315807">
        <ele>423.12</ele>
        <time>2021-05-29T16:12:49Z</time>
      </trkpt>
      <trkpt lat="37.8424374852" lon="-6.8414060120">
        <ele>420.71</ele>
        <time>2021-05-29T16:12:50Z</time>
      </trkpt>
      <trkpt lat="37.8426202945" lon="-6.8414198421">
        <ele>418.79</ele>
        <time>2021-05-29T16:12:51Z</time>
      </trkpt>
      <trkpt lat="37.8427985776" lon="-6.8413790222">
        <ele>414.47</ele>
        <time>2021-05-29T16:12:52Z</time>
      </trkpt>
      <trkpt lat="37.8429844044" lon="-6.8413137272">
        <ele>414.47</ele>
        <time>2021-05-29T16:12:53Z</time>
      </trkpt>
      <trkpt lat="37.8431738354" lon="-6.8412729073">
        <ele>414.47</ele>
        <time>2021-05-29T16:12:54Z</time>
      </trkpt>
      <trkpt lat="37.8433608357" lon="-6.8412692193">
        <ele>414.47</ele>
        <time>2021-05-29T16:12:55Z</time>
      </trkpt>
      <trkpt lat="37.8435434774" lon="-6.8413037527">
        <ele>413.50</ele>
        <time>2021-05-29T16:12:56Z</time>
      </trkpt>
      <trkpt lat="37.8437142167" lon="-6.8413851410">
        <ele>411.58</ele>
        <time>2021-05-29T16:12:57Z</time>
      </trkpt>
      <trkpt lat="37.8438824415" lon="-6.8415138032">
        <ele>411.58</ele>
        <time>2021-05-29T16:12:58Z</time>
      </trkpt>
      <trkpt lat="37.8440500796" lon="-6.8416814413">
        <ele>413.50</ele>
        <time>2021-05-29T16:12:59Z</time>
      </trkpt>
      <trkpt lat="37.8442124370" lon="-6.8418582156">
        <ele>412.54</ele>
        <time>2021-05-29T16:13:00Z</time>
      </trkpt>
      <trkpt lat="37.8445032891" lon="-6.8421696872">
        <ele>408.22</ele>
        <time>2021-05-29T16:13:02Z</time>
      </trkpt>
      <trkpt lat="37.8446353879" lon="-6.8422745448">
        <ele>405.33</ele>
        <time>2021-05-29T16:13:03Z</time>
      </trkpt>
      <trkpt lat="37.8447680734" lon="-6.8423309550">
        <ele>404.37</ele>
        <time>2021-05-29T16:13:04Z</time>
      </trkpt>
      <trkpt lat="37.8449114040" lon="-6.8423345592">
        <ele>402.93</ele>
        <time>2021-05-29T16:13:05Z</time>
      </trkpt>
      <trkpt lat="37.8450618591" lon="-6.8422858603">
        <ele>403.41</ele>
        <time>2021-05-29T16:13:06Z</time>
      </trkpt>
      <trkpt lat="37.8452154156" lon="-6.8421819247">
        <ele>404.37</ele>
        <time>2021-05-29T16:13:07Z</time>
      </trkpt>
      <trkpt lat="37.8453603387" lon="-6.8420434557">
        <ele>406.29</ele>
        <time>2021-05-29T16:13:08Z</time>
      </trkpt>
      <trkpt lat="37.8454985563" lon="-6.8419080880">
        <ele>407.26</ele>
        <time>2021-05-29T16:13:09Z</time>
      </trkpt>
      <trkpt lat="37.8456476703" lon="-6.8418035656">
        <ele>406.29</ele>
        <time>2021-05-29T16:13:10Z</time>
      </trkpt>
      <trkpt lat="37.8458119556" lon="-6.8417372648">
        <ele>407.26</ele>
        <time>2021-05-29T16:13:11Z</time>
      </trkpt>
      <trkpt lat="37.8459857963" lon="-6.8417139631">
        <ele>406.29</ele>
        <time>2021-05-29T16:13:12Z</time>
      </trkpt>
      <trkpt lat="37.8461660072" lon="-6.8417394441">
        <ele>406.29</ele>
        <time>2021-05-29T16:13:13Z</time>
      </trkpt>
      <trkpt lat="37.8463509120" lon="-6.8418151326">
        <ele>406.77</ele>
        <time>2021-05-29T16:13:14Z</time>
      </trkpt>
      <trkpt lat="37.8465347271" lon="-6.8419272825">
        <ele>408.70</ele>
        <time>2021-05-29T16:13:15Z</time>
      </trkpt>
      <trkpt lat="37.8467190452" lon="-6.8420561962">
        <ele>408.70</ele>
        <time>2021-05-29T16:13:16Z</time>
      </trkpt>
      <trkpt lat="37.8472418245" lon="-6.8424724415">
        <ele>408.22</ele>
        <time>2021-05-29T16:13:19Z</time>
      </trkpt>
      <trkpt lat="37.8473683074" lon="-6.8426192924">
        <ele>407.26</ele>
        <time>2021-05-29T16:13:20Z</time>
      </trkpt>
      <trkpt lat="37.8474648669" lon="-6.8427840807">
        <ele>406.77</ele>
        <time>2021-05-29T16:13:21Z</time>
      </trkpt>
      <trkpt lat="37.8475369513" lon="-6.8429758586">
        <ele>407.74</ele>
        <time>2021-05-29T16:13:22Z</time>
      </trkpt>
      <trkpt lat="37.8475886676" lon="-6.8431961350">
        <ele>409.66</ele>
        <time>2021-05-29T16:13:23Z</time>
      </trkpt>
      <trkpt lat="37.8476229496" lon="-6.8434461672">
        <ele>410.62</ele>
        <time>2021-05-29T16:13:24Z</time>
      </trkpt>
      <trkpt lat="37.8476535436" lon="-6.8437225185">
        <ele>413.50</ele>
        <time>2021-05-29T16:13:25Z</time>
      </trkpt>
      <trkpt lat="37.8477274720" lon="-6.8442963436">
        <ele>415.43</ele>
        <time>2021-05-29T16:13:27Z</time>
      </trkpt>
      <trkpt lat="37.8478589840" lon="-6.8454769347">
        <ele>418.79</ele>
        <time>2021-05-29T16:13:31Z</time>
      </trkpt>
      <trkpt lat="37.8478513565" lon="-6.8467489723">
        <ele>424.08</ele>
        <time>2021-05-29T16:13:35Z</time>
      </trkpt>
      <trkpt lat="37.8477659449" lon="-6.8478957843">
        <ele>420.23</ele>
        <time>2021-05-29T16:13:39Z</time>
      </trkpt>
      <trkpt lat="37.8477566410" lon="-6.8481308129">
        <ele>420.23</ele>
        <time>2021-05-29T16:13:40Z</time>
      </trkpt>
      <trkpt lat="37.8477625921" lon="-6.8483442999">
        <ele>419.75</ele>
        <time>2021-05-29T16:13:41Z</time>
      </trkpt>
      <trkpt lat="37.8477849718" lon="-6.8485375028">
        <ele>419.27</ele>
        <time>2021-05-29T16:13:42Z</time>
      </trkpt>
      <trkpt lat="37.8478259593" lon="-6.8487057276">
        <ele>418.79</ele>
        <time>2021-05-29T16:13:43Z</time>
      </trkpt>
      <trkpt lat="37.8478912544" lon="-6.8488500640">
        <ele>417.83</ele>
        <time>2021-05-29T16:13:44Z</time>
      </trkpt>
      <trkpt lat="37.8479821980" lon="-6.8489821628">
        <ele>418.31</ele>
        <time>2021-05-29T16:13:45Z</time>
      </trkpt>
      <trkpt lat="37.8480930068" lon="-6.8491007667">
        <ele>418.79</ele>
        <time>2021-05-29T16:13:46Z</time>
      </trkpt>
      <trkpt lat="37.8482208308" lon="-6.8491892796">
        <ele>417.83</ele>
        <time>2021-05-29T16:13:47Z</time>
      </trkpt>
      <trkpt lat="37.8483660053" lon="-6.8492374755">
        <ele>418.79</ele>
        <time>2021-05-29T16:13:48Z</time>
      </trkpt>
      <trkpt lat="37.8485276923" lon="-6.8492378946">
        <ele>419.75</ele>
        <time>2021-05-29T16:13:49Z</time>
      </trkpt>
      <trkpt lat="37.8487011977" lon="-6.8492052890">
        <ele>420.23</ele>
        <time>2021-05-29T16:13:50Z</time>
      </trkpt>
      <trkpt lat="37.8488847613" lon="-6.8491565064">
        <ele>420.71</ele>
        <time>2021-05-29T16:13:51Z</time>
      </trkpt>
      <trkpt lat="37.8492522240" lon="-6.8490486313">
        <ele>416.87</ele>
        <time>2021-05-29T16:13:53Z</time>
      </trkpt>
      <trkpt lat="37.8495759331" lon="-6.8489351403">
        <ele>413.02</ele>
        <time>2021-05-29T16:13:55Z</time>
      </trkpt>
      <trkpt lat="37.8498190921" lon="-6.8488053046">
        <ele>410.14</ele>
        <time>2021-05-29T16:13:57Z</time>
      </trkpt>
      <trkpt lat="37.8498997260" lon="-6.8487402610">
        <ele>408.70</ele>
        <time>2021-05-29T16:13:58Z</time>
      </trkpt>
      <trkpt lat="37.8499554656" lon="-6.8486816715">
        <ele>407.74</ele>
        <time>2021-05-29T16:13:59Z</time>
      </trkpt>
      <trkpt lat="37.8499875683" lon="-6.8486286979">
        <ele>406.77</ele>
        <time>2021-05-29T16:14:00Z</time>
      </trkpt>
      <trkpt lat="37.8500035778" lon="-6.8485750537">
        <ele>406.77</ele>
        <time>2021-05-29T16:14:01Z</time>
      </trkpt>
      <trkpt lat="37.8500098642" lon="-6.8485101778">
        <ele>406.29</ele>
        <time>2021-05-29T16:14:02Z</time>
      </trkpt>
      <trkpt lat="37.8500019852" lon="-6.8484249339">
        <ele>406.29</ele>
        <time>2021-05-29T16:14:03Z</time>
      </trkpt>
      <trkpt lat="37.8499879036" lon="-6.8483263627">
        <ele>407.26</ele>
        <time>2021-05-29T16:14:04Z</time>
      </trkpt>
      <trkpt lat="37.8499443177" lon="-6.8478429783">
        <ele>406.77</ele>
        <time>2021-05-29T16:14:10Z</time>
      </trkpt>
      <trkpt lat="37.8499537054" lon="-6.8477589916">
        <ele>406.77</ele>
        <time>2021-05-29T16:14:11Z</time>
      </trkpt>
      <trkpt lat="37.8499772586" lon="-6.8476752564">
        <ele>407.26</ele>
        <time>2021-05-29T16:14:12Z</time>
      </trkpt>
      <trkpt lat="37.8500173241" lon="-6.8475944549">
        <ele>407.74</ele>
        <time>2021-05-29T16:14:13Z</time>
      </trkpt>
      <trkpt lat="37.8500632569" lon="-6.8475143239">
        <ele>407.26</ele>
        <time>2021-05-29T16:14:14Z</time>
      </trkpt>
      <trkpt lat="37.8502227645" lon="-6.8472585920">
        <ele>405.81</ele>
        <time>2021-05-29T16:14:17Z</time>
      </trkpt>
      <trkpt lat="37.8502645064" lon="-6.8471459392">
        <ele>406.29</ele>
        <time>2021-05-29T16:14:18Z</time>
      </trkpt>
      <trkpt lat="37.8502888978" lon="-6.8470166903">
        <ele>406.77</ele>
        <time>2021-05-29T16:14:19Z</time>
      </trkpt>
      <trkpt lat="37.8504008800" lon="-6.8459402025">
        <ele>408.70</ele>
        <time>2021-05-29T16:14:26Z</time>
      </trkpt>
      <trkpt lat="37.8504381794" lon="-6.8458124623">
        <ele>408.70</ele>
        <time>2021-05-29T16:14:27Z</time>
      </trkpt>
      <trkpt lat="37.8505022172" lon="-6.8457116280">
        <ele>408.22</ele>
        <time>2021-05-29T16:14:28Z</time>
      </trkpt>
      <trkpt lat="37.8505976032" lon="-6.8456458300">
        <ele>409.18</ele>
        <time>2021-05-29T16:14:29Z</time>
      </trkpt>
      <trkpt lat="37.8507190570" lon="-6.8456148170">
        <ele>410.14</ele>
        <time>2021-05-29T16:14:30Z</time>
      </trkpt>
      <trkpt lat="37.8508629743" lon="-6.8455950357">
        <ele>412.06</ele>
        <time>2021-05-29T16:14:31Z</time>
      </trkpt>
      <trkpt lat="37.8510110825" lon="-6.8455588259">
        <ele>414.47</ele>
        <time>2021-05-29T16:14:32Z</time>
      </trkpt>
      <trkpt lat="37.8511551674" lon="-6.8455002364">
        <ele>415.43</ele>
        <time>2021-05-29T16:14:33Z</time>
      </trkpt>
      <trkpt lat="37.8515898529" lon="-6.8453299999">
        <ele>416.87</ele>
        <time>2021-05-29T16:14:36Z</time>
      </trkpt>
      <trkpt lat="37.8517400566" lon="-6.8453242164">
        <ele>417.83</ele>
        <time>2021-05-29T16:14:37Z</time>
      </trkpt>
      <trkpt lat="37.8518903442" lon="-6.8453568220">
        <ele>418.79</ele>
        <time>2021-05-29T16:14:38Z</time>
      </trkpt>
      <trkpt lat="37.8520322498" lon="-6.8454242125">
        <ele>418.79</ele>
        <time>2021-05-29T16:14:39Z</time>
      </trkpt>
      <trkpt lat="37.8521626722" lon="-6.8455048464">
        <ele>417.83</ele>
        <time>2021-05-29T16:14:40Z</time>
      </trkpt>
      <trkpt lat="37.8522901610" lon="-6.8455826305">
        <ele>416.87</ele>
        <time>2021-05-29T16:14:41Z</time>
      </trkpt>
      <trkpt lat="37.8524276242" lon="-6.8456397112">
        <ele>415.43</ele>
        <time>2021-05-29T16:14:42Z</time>
      </trkpt>
      <trkpt lat="37.8525774926" lon="-6.8456610851">
        <ele>414.95</ele>
        <time>2021-05-29T16:14:43Z</time>
      </trkpt>
      <trkpt lat="37.8527342342" lon="-6.8456365261">
        <ele>413.02</ele>
        <time>2021-05-29T16:14:44Z</time>
      </trkpt>
      <trkpt lat="37.8528986033" lon="-6.8455644418">
        <ele>412.06</ele>
        <time>2021-05-29T16:14:45Z</time>
      </trkpt>
      <trkpt lat="37.8530647326" lon="-6.8454641942">
        <ele>410.62</ele>
        <time>2021-05-29T16:14:46Z</time>
      </trkpt>
      <trkpt lat="37.8533741087" lon="-6.8452636991">
        <ele>407.26</ele>
        <time>2021-05-29T16:14:48Z</time>
      </trkpt>
      <trkpt lat="37.8535066266" lon="-6.8451574165">
        <ele>404.85</ele>
        <time>2021-05-29T16:14:49Z</time>
      </trkpt>
      <trkpt lat="37.8536130767" lon="-6.8450302631">
        <ele>402.93</ele>
        <time>2021-05-29T16:14:50Z</time>
      </trkpt>
      <trkpt lat="37.8536935430" lon="-6.8448801432">
        <ele>402.45</ele>
        <time>2021-05-29T16:14:51Z</time>
      </trkpt>
      <trkpt lat="37.8537497018" lon="-6.8447059672">
        <ele>401.01</ele>
        <time>2021-05-29T16:14:52Z</time>
      </trkpt>
      <trkpt lat="37.8537885100" lon="-6.8445131835">
        <ele>400.53</ele>
        <time>2021-05-29T16:14:53Z</time>
      </trkpt>
      <trkpt lat="37.8538128175" lon="-6.8443056475">
        <ele>400.53</ele>
        <time>2021-05-29T16:14:54Z</time>
      </trkpt>
      <trkpt lat="37.8538251389" lon="-6.8440885562">
        <ele>402.45</ele>
        <time>2021-05-29T16:14:55Z</time>
      </trkpt>
      <trkpt lat="37.8538325150" lon="-6.8438787572">
        <ele>401.01</ele>
        <time>2021-05-29T16:14:56Z</time>
      </trkpt>
      <trkpt lat="37.8538516257" lon="-6.8436816987">
        <ele>399.57</ele>
        <time>2021-05-29T16:14:57Z</time>
      </trkpt>
      <trkpt lat="37.8539060242" lon="-6.8434899207">
        <ele>399.08</ele>
        <time>2021-05-29T16:14:58Z</time>
      </trkpt>
      <trkpt lat="37.8539992310" lon="-6.8432927784">
        <ele>399.57</ele>
        <time>2021-05-29T16:14:59Z</time>
      </trkpt>
      <trkpt lat="37.8546206653" lon="-6.8423337210">
        <ele>393.80</ele>
        <time>2021-05-29T16:15:04Z</time>
      </trkpt>
      <trkpt lat="37.8548209928" lon="-6.8420248479">
        <ele>391.39</ele>
        <time>2021-05-29T16:15:06Z</time>
      </trkpt>
      <trkpt lat="37.8548858687" lon="-6.8418552820">
        <ele>389.47</ele>
        <time>2021-05-29T16:15:07Z</time>
      </trkpt>
      <trkpt lat="37.8549254313" lon="-6.8416668568">
        <ele>389.47</ele>
        <time>2021-05-29T16:15:08Z</time>
      </trkpt>
      <trkpt lat="37.8549324721" lon="-6.8414669484">
        <ele>388.99</ele>
        <time>2021-05-29T16:15:09Z</time>
      </trkpt>
      <trkpt lat="37.8549013752" lon="-6.8412552215">
        <ele>388.51</ele>
        <time>2021-05-29T16:15:10Z</time>
      </trkpt>
      <trkpt lat="37.8548493236" lon="-6.8410353642">
        <ele>387.07</ele>
        <time>2021-05-29T16:15:11Z</time>
      </trkpt>
      <trkpt lat="37.8548088390" lon="-6.8408066221">
        <ele>385.63</ele>
        <time>2021-05-29T16:15:12Z</time>
      </trkpt>
      <trkpt lat="37.8547918238" lon="-6.8405637983">
        <ele>385.63</ele>
        <time>2021-05-29T16:15:13Z</time>
      </trkpt>
      <trkpt lat="37.8547924105" lon="-6.8403227348">
        <ele>384.18</ele>
        <time>2021-05-29T16:15:14Z</time>
      </trkpt>
      <trkpt lat="37.8548126109" lon="-6.8400924001">
        <ele>383.22</ele>
        <time>2021-05-29T16:15:15Z</time>
      </trkpt>
      <trkpt lat="37.8548673447" lon="-6.8398758955">
        <ele>381.78</ele>
        <time>2021-05-29T16:15:16Z</time>
      </trkpt>
      <trkpt lat="37.8549575340" lon="-6.8396712933">
        <ele>379.38</ele>
        <time>2021-05-29T16:15:17Z</time>
      </trkpt>
      <trkpt lat="37.8550562728" lon="-6.8394712172">
        <ele>378.42</ele>
        <time>2021-05-29T16:15:18Z</time>
      </trkpt>
      <trkpt lat="37.8551399242" lon="-6.8392671179">
        <ele>376.49</ele>
        <time>2021-05-29T16:15:19Z</time>
      </trkpt>
      <trkpt lat="37.8552006092" lon="-6.8390513677">
        <ele>375.05</ele>
        <time>2021-05-29T16:15:20Z</time>
      </trkpt>
      <trkpt lat="37.8552340530" lon="-6.8388265651">
        <ele>374.57</ele>
        <time>2021-05-29T16:15:21Z</time>
      </trkpt>
      <trkpt lat="37.8552336339" lon="-6.8385959789">
        <ele>374.09</ele>
        <time>2021-05-29T16:15:22Z</time>
      </trkpt>
      <trkpt lat="37.8551994357" lon="-6.8383644708">
        <ele>374.09</ele>
        <time>2021-05-29T16:15:23Z</time>
      </trkpt>
      <trkpt lat="37.8551357333" lon="-6.8381291069">
        <ele>373.13</ele>
        <time>2021-05-29T16:15:24Z</time>
      </trkpt>
      <trkpt lat="37.8550471365" lon="-6.8378960900">
        <ele>373.13</ele>
        <time>2021-05-29T16:15:25Z</time>
      </trkpt>
      <trkpt lat="37.8549548518" lon="-6.8376813456">
        <ele>370.73</ele>
        <time>2021-05-29T16:15:26Z</time>
      </trkpt>
      <trkpt lat="37.8547750600" lon="-6.8373282999">
        <ele>364.96</ele>
        <time>2021-05-29T16:15:28Z</time>
      </trkpt>
      <trkpt lat="37.8546602279" lon="-6.8371989671">
        <ele>363.04</ele>
        <time>2021-05-29T16:15:29Z</time>
      </trkpt>
      <trkpt lat="37.8545262851" lon="-6.8371026590">
        <ele>361.59</ele>
        <time>2021-05-29T16:15:30Z</time>
      </trkpt>
      <trkpt lat="37.8543805238" lon="-6.8370428123">
        <ele>360.63</ele>
        <time>2021-05-29T16:15:31Z</time>
      </trkpt>
      <trkpt lat="37.8542164899" lon="-6.8370206002">
        <ele>360.63</ele>
        <time>2021-05-29T16:15:32Z</time>
      </trkpt>
      <trkpt lat="37.8540340159" lon="-6.8370319996">
        <ele>359.67</ele>
        <time>2021-05-29T16:15:33Z</time>
      </trkpt>
      <trkpt lat="37.8538433276" lon="-6.8370449916">
        <ele>357.75</ele>
        <time>2021-05-29T16:15:34Z</time>
      </trkpt>
      <trkpt lat="37.8536538128" lon="-6.8370229471">
        <ele>355.83</ele>
        <time>2021-05-29T16:15:35Z</time>
      </trkpt>
      <trkpt lat="37.8534681536" lon="-6.8369643576">
        <ele>353.90</ele>
        <time>2021-05-29T16:15:36Z</time>
      </trkpt>
      <trkpt lat="37.8532814048" lon="-6.8368857354">
        <ele>354.86</ele>
        <time>2021-05-29T16:15:37Z</time>
      </trkpt>
      <trkpt lat="37.8531044628" lon="-6.8367911875">
        <ele>352.94</ele>
        <time>2021-05-29T16:15:38Z</time>
      </trkpt>
      <trkpt lat="37.8529522475" lon="-6.8366700690">
        <ele>350.06</ele>
        <time>2021-05-29T16:15:39Z</time>
      </trkpt>
      <trkpt lat="37.8528283630" lon="-6.8365250621">
        <ele>348.13</ele>
        <time>2021-05-29T16:15:40Z</time>
      </trkpt>
      <trkpt lat="37.8527152911" lon="-6.8363767024">
        <ele>347.65</ele>
        <time>2021-05-29T16:15:41Z</time>
      </trkpt>
      <trkpt lat="37.8525888082" lon="-6.8362463638">
        <ele>346.69</ele>
        <time>2021-05-29T16:15:42Z</time>
      </trkpt>
      <trkpt lat="37.8524351679" lon="-6.8361460324">
        <ele>345.25</ele>
        <time>2021-05-29T16:15:43Z</time>
      </trkpt>
      <trkpt lat="37.8522639256" lon="-6.8360774685">
        <ele>344.77</ele>
        <time>2021-05-29T16:15:44Z</time>
      </trkpt>
      <trkpt lat="37.8520909231" lon="-6.8360275123">
        <ele>342.85</ele>
        <time>2021-05-29T16:15:45Z</time>
      </trkpt>
      <trkpt lat="37.8517980594" lon="-6.8359313719">
        <ele>338.52</ele>
        <time>2021-05-29T16:15:47Z</time>
      </trkpt>
      <trkpt lat="37.8516956326" lon="-6.8358624727">
        <ele>336.12</ele>
        <time>2021-05-29T16:15:48Z</time>
      </trkpt>
      <trkpt lat="37.8516251408" lon="-6.8357725348">
        <ele>334.68</ele>
        <time>2021-05-29T16:15:49Z</time>
      </trkpt>
      <trkpt lat="37.8515921161" lon="-6.8356779031">
        <ele>332.75</ele>
        <time>2021-05-29T16:15:50Z</time>
      </trkpt>
      <trkpt lat="37.8515968099" lon="-6.8355866242">
        <ele>330.83</ele>
        <time>2021-05-29T16:15:51Z</time>
      </trkpt>
      <trkpt lat="37.8516301699" lon="-6.8354897294">
        <ele>330.83</ele>
        <time>2021-05-29T16:15:52Z</time>
      </trkpt>
      <trkpt lat="37.8516794555" lon="-6.8353812676">
        <ele>330.35</ele>
        <time>2021-05-29T16:15:53Z</time>
      </trkpt>
      <trkpt lat="37.8517351113" lon="-6.8352756556">
        <ele>332.27</ele>
        <time>2021-05-29T16:15:54Z</time>
      </trkpt>
      <trkpt lat="37.8518067766" lon="-6.8352056667">
        <ele>332.27</ele>
        <time>2021-05-29T16:15:55Z</time>
      </trkpt>
      <trkpt lat="37.8519009054" lon="-6.8351697922">
        <ele>333.23</ele>
        <time>2021-05-29T16:15:56Z</time>
      </trkpt>
      <trkpt lat="37.8520226944" lon="-6.8351623323">
        <ele>336.12</ele>
        <time>2021-05-29T16:15:57Z</time>
      </trkpt>
      <trkpt lat="37.8521671146" lon="-6.8351763301">
        <ele>336.60</ele>
        <time>2021-05-29T16:15:58Z</time>
      </trkpt>
      <trkpt lat="37.8523200005" lon="-6.8352030683">
        <ele>338.52</ele>
        <time>2021-05-29T16:15:59Z</time>
      </trkpt>
      <trkpt lat="37.8528234176" lon="-6.8353277911">
        <ele>342.37</ele>
        <time>2021-05-29T16:16:02Z</time>
      </trkpt>
      <trkpt lat="37.8529810812" lon="-6.8353630789">
        <ele>342.37</ele>
        <time>2021-05-29T16:16:03Z</time>
      </trkpt>
      <trkpt lat="37.8531278484" lon="-6.8353603128">
        <ele>341.41</ele>
        <time>2021-05-29T16:16:04Z</time>
      </trkpt>
      <trkpt lat="37.8532665689" lon="-6.8353165593">
        <ele>343.33</ele>
        <time>2021-05-29T16:16:05Z</time>
      </trkpt>
      <trkpt lat="37.8535713349" lon="-6.8349506892">
        <ele>348.13</ele>
        <time>2021-05-29T16:16:08Z</time>
      </trkpt>
      <trkpt lat="37.8536240570" lon="-6.8347485177">
        <ele>348.62</ele>
        <time>2021-05-29T16:16:09Z</time>
      </trkpt>
      <trkpt lat="37.8536570817" lon="-6.8345217034">
        <ele>349.58</ele>
        <time>2021-05-29T16:16:10Z</time>
      </trkpt>
      <trkpt lat="37.8536798805" lon="-6.8342803884">
        <ele>351.98</ele>
        <time>2021-05-29T16:16:11Z</time>
      </trkpt>
      <trkpt lat="37.8538125660" lon="-6.8327215221">
        <ele>356.31</ele>
        <time>2021-05-29T16:16:18Z</time>
      </trkpt>
      <trkpt lat="37.8538512904" lon="-6.8323206995">
        <ele>358.71</ele>
        <time>2021-05-29T16:16:20Z</time>
      </trkpt>
      <trkpt lat="37.8538301680" lon="-6.8321115710">
        <ele>360.15</ele>
        <time>2021-05-29T16:16:21Z</time>
      </trkpt>
      <trkpt lat="37.8537788708" lon="-6.8318952341">
        <ele>361.59</ele>
        <time>2021-05-29T16:16:22Z</time>
      </trkpt>
      <trkpt lat="37.8537030146" lon="-6.8316762149">
        <ele>364.48</ele>
        <time>2021-05-29T16:16:23Z</time>
      </trkpt>
      <trkpt lat="37.8536150046" lon="-6.8314507417">
        <ele>365.44</ele>
        <time>2021-05-29T16:16:24Z</time>
      </trkpt>
      <trkpt lat="37.8533340432" lon="-6.8307954445">
        <ele>364.48</ele>
        <time>2021-05-29T16:16:27Z</time>
      </trkpt>
      <trkpt lat="37.8531554248" lon="-6.8304586597">
        <ele>364.48</ele>
        <time>2021-05-29T16:16:29Z</time>
      </trkpt>
      <trkpt lat="37.8531095758" lon="-6.8302591704">
        <ele>366.40</ele>
        <time>2021-05-29T16:16:30Z</time>
      </trkpt>
      <trkpt lat="37.8530862741" lon="-6.8300356250">
        <ele>368.80</ele>
        <time>2021-05-29T16:16:31Z</time>
      </trkpt>
      <trkpt lat="37.8530598711" lon="-6.8298002612">
        <ele>370.73</ele>
        <time>2021-05-29T16:16:32Z</time>
      </trkpt>
      <trkpt lat="37.8530076519" lon="-6.8295608740">
        <ele>371.21</ele>
        <time>2021-05-29T16:16:33Z</time>
      </trkpt>
      <trkpt lat="37.8529273532" lon="-6.8293329701">
        <ele>372.65</ele>
        <time>2021-05-29T16:16:34Z</time>
      </trkpt>
      <trkpt lat="37.8528281953" lon="-6.8291222490">
        <ele>371.69</ele>
        <time>2021-05-29T16:16:35Z</time>
      </trkpt>
      <trkpt lat="37.8527375031" lon="-6.8289209157">
        <ele>372.65</ele>
        <time>2021-05-29T16:16:36Z</time>
      </trkpt>
      <trkpt lat="37.8526686039" lon="-6.8287194148">
        <ele>370.73</ele>
        <time>2021-05-29T16:16:37Z</time>
      </trkpt>
      <trkpt lat="37.8526327293" lon="-6.8285096996">
        <ele>371.21</ele>
        <time>2021-05-29T16:16:38Z</time>
      </trkpt>
      <trkpt lat="37.8526385967" lon="-6.8282934465">
        <ele>372.65</ele>
        <time>2021-05-29T16:16:39Z</time>
      </trkpt>
      <trkpt lat="37.8526893072" lon="-6.8280828930">
        <ele>373.61</ele>
        <time>2021-05-29T16:16:40Z</time>
      </trkpt>
      <trkpt lat="37.8527810052" lon="-6.8278894387">
        <ele>375.53</ele>
        <time>2021-05-29T16:16:41Z</time>
      </trkpt>
      <trkpt lat="37.8529053926" lon="-6.8277193699">
        <ele>376.97</ele>
        <time>2021-05-29T16:16:42Z</time>
      </trkpt>
      <trkpt lat="37.8530429397" lon="-6.8275521509">
        <ele>379.86</ele>
        <time>2021-05-29T16:16:43Z</time>
      </trkpt>
      <trkpt lat="37.8531606216" lon="-6.8273799866">
        <ele>381.30</ele>
        <time>2021-05-29T16:16:44Z</time>
      </trkpt>
      <trkpt lat="37.8532453626" lon="-6.8272012006">
        <ele>381.78</ele>
        <time>2021-05-29T16:16:45Z</time>
      </trkpt>
      <trkpt lat="37.8533005156" lon="-6.8270050641">
        <ele>383.22</ele>
        <time>2021-05-29T16:16:46Z</time>
      </trkpt>
      <trkpt lat="37.8533222247" lon="-6.8267962709">
        <ele>384.18</ele>
        <time>2021-05-29T16:16:47Z</time>
      </trkpt>
      <trkpt lat="37.8533084784" lon="-6.8265757430">
        <ele>385.63</ele>
        <time>2021-05-29T16:16:48Z</time>
      </trkpt>
      <trkpt lat="37.8532655630" lon="-6.8263404630">
        <ele>387.07</ele>
        <time>2021-05-29T16:16:49Z</time>
      </trkpt>
      <trkpt lat="37.8531958256" lon="-6.8260972202">
        <ele>388.99</ele>
        <time>2021-05-29T16:16:50Z</time>
      </trkpt>
      <trkpt lat="37.8531122580" lon="-6.8258472718">
        <ele>388.03</ele>
        <time>2021-05-29T16:16:51Z</time>
      </trkpt>
      <trkpt lat="37.8525069170" lon="-6.8241785187">
        <ele>384.66</ele>
        <time>2021-05-29T16:16:57Z</time>
      </trkpt>
      <trkpt lat="37.8523560427" lon="-6.8239135668">
        <ele>385.15</ele>
        <time>2021-05-29T16:16:58Z</time>
      </trkpt>
      <trkpt lat="37.8521865606" lon="-6.8236591760">
        <ele>382.74</ele>
        <time>2021-05-29T16:16:59Z</time>
      </trkpt>
      <trkpt lat="37.8520049248" lon="-6.8234122451">
        <ele>382.26</ele>
        <time>2021-05-29T16:17:00Z</time>
      </trkpt>
      <trkpt lat="37.8516318463" lon="-6.8229145277">
        <ele>379.38</ele>
        <time>2021-05-29T16:17:02Z</time>
      </trkpt>
      <trkpt lat="37.8512658086" lon="-6.8224043213">
        <ele>378.42</ele>
        <time>2021-05-29T16:17:04Z</time>
      </trkpt>
      <trkpt lat="37.8509234916" lon="-6.8218788598">
        <ele>375.53</ele>
        <time>2021-05-29T16:17:06Z</time>
      </trkpt>
      <trkpt lat="37.8502495028" lon="-6.8205118552">
        <ele>374.57</ele>
        <time>2021-05-29T16:17:11Z</time>
      </trkpt>
      <trkpt lat="37.8501687013" lon="-6.8202343304">
        <ele>373.61</ele>
        <time>2021-05-29T16:17:12Z</time>
      </trkpt>
      <trkpt lat="37.8501066752" lon="-6.8199399579">
        <ele>376.01</ele>
        <time>2021-05-29T16:17:13Z</time>
      </trkpt>
      <trkpt lat="37.8496820480" lon="-6.8180862162">
        <ele>380.34</ele>
        <time>2021-05-29T16:17:19Z</time>
      </trkpt>
      <trkpt lat="37.8496339358" lon="-6.8177689612">
        <ele>381.78</ele>
        <time>2021-05-29T16:17:20Z</time>
      </trkpt>
      <trkpt lat="37.8495954629" lon="-6.8174501974">
        <ele>381.78</ele>
        <time>2021-05-29T16:17:21Z</time>
      </trkpt>
      <trkpt lat="37.8495466802" lon="-6.8163793255">
        <ele>379.86</ele>
        <time>2021-05-29T16:17:25Z</time>
      </trkpt>
      <trkpt lat="37.8495804593" lon="-6.8161618151">
        <ele>380.34</ele>
        <time>2021-05-29T16:17:26Z</time>
      </trkpt>
      <trkpt lat="37.8496468440" lon="-6.8159525190">
        <ele>380.82</ele>
        <time>2021-05-29T16:17:27Z</time>
      </trkpt>
      <trkpt lat="37.8497517854" lon="-6.8157516886">
        <ele>382.74</ele>
        <time>2021-05-29T16:17:28Z</time>
      </trkpt>
      <trkpt lat="37.8498951998" lon="-6.8155673705">
        <ele>384.66</ele>
        <time>2021-05-29T16:17:29Z</time>
      </trkpt>
      <trkpt lat="37.8500679508" lon="-6.8153993133">
        <ele>387.07</ele>
        <time>2021-05-29T16:17:30Z</time>
      </trkpt>
      <trkpt lat="37.8502559569" lon="-6.8152280711">
        <ele>389.47</ele>
        <time>2021-05-29T16:17:31Z</time>
      </trkpt>
      <trkpt lat="37.8506464697" lon="-6.8149162643">
        <ele>390.91</ele>
        <time>2021-05-29T16:17:33Z</time>
      </trkpt>
      <trkpt lat="37.8508583643" lon="-6.8148001749">
        <ele>390.91</ele>
        <time>2021-05-29T16:17:34Z</time>
      </trkpt>
      <trkpt lat="37.8510850947" lon="-6.8147175293">
        <ele>390.43</ele>
        <time>2021-05-29T16:17:35Z</time>
      </trkpt>
      <trkpt lat="37.8519884124" lon="-6.8143918086">
        <ele>391.87</ele>
        <time>2021-05-29T16:17:39Z</time>
      </trkpt>
      <trkpt lat="37.8521805257" lon="-6.8142494839">
        <ele>391.39</ele>
        <time>2021-05-29T16:17:40Z</time>
      </trkpt>
      <trkpt lat="37.8523512650" lon="-6.8140763137">
        <ele>390.91</ele>
        <time>2021-05-29T16:17:41Z</time>
      </trkpt>
      <trkpt lat="37.8525048215" lon="-6.8138940912">
        <ele>389.47</ele>
        <time>2021-05-29T16:17:42Z</time>
      </trkpt>
      <trkpt lat="37.8526431229" lon="-6.8137164786">
        <ele>387.55</ele>
        <time>2021-05-29T16:17:43Z</time>
      </trkpt>
      <trkpt lat="37.8527646605" lon="-6.8135386985">
        <ele>387.07</ele>
        <time>2021-05-29T16:17:44Z</time>
      </trkpt>
      <trkpt lat="37.8528616391" lon="-6.8133456632">
        <ele>386.59</ele>
        <time>2021-05-29T16:17:45Z</time>
      </trkpt>
      <trkpt lat="37.8529302031" lon="-6.8131291587">
        <ele>386.59</ele>
        <time>2021-05-29T16:17:46Z</time>
      </trkpt>
      <trkpt lat="37.8529784828" lon="-6.8129048590">
        <ele>387.07</ele>
        <time>2021-05-29T16:17:47Z</time>
      </trkpt>
      <trkpt lat="37.8530162014" lon="-6.8126986641">
        <ele>386.59</ele>
        <time>2021-05-29T16:17:48Z</time>
      </trkpt>
      <trkpt lat="37.8531057201" lon="-6.8123660702">
        <ele>387.07</ele>
        <time>2021-05-29T16:17:50Z</time>
      </trkpt>
      <trkpt lat="37.8531906288" lon="-6.8122447841">
        <ele>388.03</ele>
        <time>2021-05-29T16:17:51Z</time>
      </trkpt>
      <trkpt lat="37.8533067182" lon="-6.8121560197">
        <ele>388.99</ele>
        <time>2021-05-29T16:17:52Z</time>
      </trkpt>
      <trkpt lat="37.8535767831" lon="-6.8119670078">
        <ele>390.91</ele>
        <time>2021-05-29T16:17:54Z</time>
      </trkpt>
      <trkpt lat="37.8536911123" lon="-6.8118266109">
        <ele>392.36</ele>
        <time>2021-05-29T16:17:55Z</time>
      </trkpt>
      <trkpt lat="37.8537817206" lon="-6.8116551172">
        <ele>392.84</ele>
        <time>2021-05-29T16:17:56Z</time>
      </trkpt>
      <trkpt lat="37.8538489435" lon="-6.8114626687">
        <ele>395.24</ele>
        <time>2021-05-29T16:17:57Z</time>
      </trkpt>
      <trkpt lat="37.8538998216" lon="-6.8112549651">
        <ele>396.68</ele>
        <time>2021-05-29T16:17:58Z</time>
      </trkpt>
      <trkpt lat="37.8539341874" lon="-6.8110388797">
        <ele>399.08</ele>
        <time>2021-05-29T16:17:59Z</time>
      </trkpt>
      <trkpt lat="37.8539543878" lon="-6.8108308408">
        <ele>400.53</ele>
        <time>2021-05-29T16:18:00Z</time>
      </trkpt>
      <trkpt lat="37.8539676312" lon="-6.8106327765">
        <ele>398.12</ele>
        <time>2021-05-29T16:18:01Z</time>
      </trkpt>
      <trkpt lat="37.8539585788" lon="-6.8104484584">
        <ele>397.16</ele>
        <time>2021-05-29T16:18:02Z</time>
      </trkpt>
      <trkpt lat="37.8539435752" lon="-6.8102778867">
        <ele>396.20</ele>
        <time>2021-05-29T16:18:03Z</time>
      </trkpt>
      <trkpt lat="37.8539573215" lon="-6.8101177923">
        <ele>395.72</ele>
        <time>2021-05-29T16:18:04Z</time>
      </trkpt>
      <trkpt lat="37.8540151566" lon="-6.8099594582">
        <ele>396.68</ele>
        <time>2021-05-29T16:18:05Z</time>
      </trkpt>
      <trkpt lat="37.8541078605" lon="-6.8097971007">
        <ele>398.12</ele>
        <time>2021-05-29T16:18:06Z</time>
      </trkpt>
      <trkpt lat="37.8542233631" lon="-6.8096216675">
        <ele>401.01</ele>
        <time>2021-05-29T16:18:07Z</time>
      </trkpt>
      <trkpt lat="37.8544821963" lon="-6.8092563003">
        <ele>403.89</ele>
        <time>2021-05-29T16:18:09Z</time>
      </trkpt>
      <trkpt lat="37.8549092542" lon="-6.8086467683">
        <ele>409.18</ele>
        <time>2021-05-29T16:18:12Z</time>
      </trkpt>
      <trkpt lat="37.8550318815" lon="-6.8084120750">
        <ele>411.10</ele>
        <time>2021-05-29T16:18:13Z</time>
      </trkpt>
      <trkpt lat="37.8551431932" lon="-6.8081544153">
        <ele>412.06</ele>
        <time>2021-05-29T16:18:14Z</time>
      </trkpt>
      <trkpt lat="37.8553466219" lon="-6.8076019641">
        <ele>416.39</ele>
        <time>2021-05-29T16:18:16Z</time>
      </trkpt>
      <trkpt lat="37.8555001784" lon="-6.8070303183">
        <ele>417.83</ele>
        <time>2021-05-29T16:18:18Z</time>
      </trkpt>
      <trkpt lat="37.8556127474" lon="-6.8065127358">
        <ele>416.87</ele>
        <time>2021-05-29T16:18:20Z</time>
      </trkpt>
      <trkpt lat="37.8556892741" lon="-6.8062959798">
        <ele>418.31</ele>
        <time>2021-05-29T16:18:21Z</time>
      </trkpt>
      <trkpt lat="37.8557922039" lon="-6.8061144277">
        <ele>417.35</ele>
        <time>2021-05-29T16:18:22Z</time>
      </trkpt>
      <trkpt lat="37.8559207823" lon="-6.8059719354">
        <ele>417.83</ele>
        <time>2021-05-29T16:18:23Z</time>
      </trkpt>
      <trkpt lat="37.8560732491" lon="-6.8058713526">
        <ele>418.31</ele>
        <time>2021-05-29T16:18:24Z</time>
      </trkpt>
      <trkpt lat="37.8562466707" lon="-6.8058156967">
        <ele>419.27</ele>
        <time>2021-05-29T16:18:25Z</time>
      </trkpt>
      <trkpt lat="37.8564291447" lon="-6.8057926465">
        <ele>421.19</ele>
        <time>2021-05-29T16:18:26Z</time>
      </trkpt>
      <trkpt lat="37.8566005547" lon="-6.8057758827">
        <ele>421.68</ele>
        <time>2021-05-29T16:18:27Z</time>
      </trkpt>
      <trkpt lat="37.8567572124" lon="-6.8057409301">
        <ele>420.71</ele>
        <time>2021-05-29T16:18:28Z</time>
      </trkpt>
      <trkpt lat="37.8569001239" lon="-6.8056726176">
        <ele>422.16</ele>
        <time>2021-05-29T16:18:29Z</time>
      </trkpt>
      <trkpt lat="37.8570284508" lon="-6.8055608030">
        <ele>424.08</ele>
        <time>2021-05-29T16:18:30Z</time>
      </trkpt>
      <trkpt lat="37.8571417741" lon="-6.8054046482">
        <ele>426.48</ele>
        <time>2021-05-29T16:18:31Z</time>
      </trkpt>
      <trkpt lat="37.8572395071" lon="-6.8052085955">
        <ele>429.85</ele>
        <time>2021-05-29T16:18:32Z</time>
      </trkpt>
      <trkpt lat="37.8573268466" lon="-6.8049863912">
        <ele>432.73</ele>
        <time>2021-05-29T16:18:33Z</time>
      </trkpt>
      <trkpt lat="37.8574152756" lon="-6.8047537934">
        <ele>436.10</ele>
        <time>2021-05-29T16:18:34Z</time>
      </trkpt>
      <trkpt lat="37.8575971629" lon="-6.8042823114">
        <ele>437.54</ele>
        <time>2021-05-29T16:18:36Z</time>
      </trkpt>
      <trkpt lat="37.8577819839" lon="-6.8038584385">
        <ele>433.21</ele>
        <time>2021-05-29T16:18:38Z</time>
      </trkpt>
      <trkpt lat="37.8579015937" lon="-6.8036721926">
        <ele>432.25</ele>
        <time>2021-05-29T16:18:39Z</time>
      </trkpt>
      <trkpt lat="37.8580448404" lon="-6.8035038002">
        <ele>432.25</ele>
        <time>2021-05-29T16:18:40Z</time>
      </trkpt>
      <trkpt lat="37.8582027555" lon="-6.8033520877">
        <ele>430.81</ele>
        <time>2021-05-29T16:18:41Z</time>
      </trkpt>
      <trkpt lat="37.8583558928" lon="-6.8032034766">
        <ele>427.92</ele>
        <time>2021-05-29T16:18:42Z</time>
      </trkpt>
      <trkpt lat="37.8584926855" lon="-6.8030361738">
        <ele>427.92</ele>
        <time>2021-05-29T16:18:43Z</time>
      </trkpt>
      <trkpt lat="37.8586054221" lon="-6.8028546218">
        <ele>426.96</ele>
        <time>2021-05-29T16:18:44Z</time>
      </trkpt>
      <trkpt lat="37.8586987127" lon="-6.8026678730">
        <ele>427.92</ele>
        <time>2021-05-29T16:18:45Z</time>
      </trkpt>
      <trkpt lat="37.8587830346" lon="-6.8024838064">
        <ele>428.40</ele>
        <time>2021-05-29T16:18:46Z</time>
      </trkpt>
      <trkpt lat="37.8588666860" lon="-6.8023091275">
        <ele>428.40</ele>
        <time>2021-05-29T16:18:47Z</time>
      </trkpt>
      <trkpt lat="37.8591750562" lon="-6.8017265853">
        <ele>426.96</ele>
        <time>2021-05-29T16:18:51Z</time>
      </trkpt>
      <trkpt lat="37.8592095058" lon="-6.8015845120">
        <ele>426.96</ele>
        <time>2021-05-29T16:18:52Z</time>
      </trkpt>
      <trkpt lat="37.8592206538" lon="-6.8014327995">
        <ele>428.89</ele>
        <time>2021-05-29T16:18:53Z</time>
      </trkpt>
      <trkpt lat="37.8592070751" lon="-6.8012864515">
        <ele>428.89</ele>
        <time>2021-05-29T16:18:54Z</time>
      </trkpt>
      <trkpt lat="37.8591696080" lon="-6.8011525925">
        <ele>429.37</ele>
        <time>2021-05-29T16:18:55Z</time>
      </trkpt>
      <trkpt lat="37.8591053188" lon="-6.8010311387">
        <ele>430.33</ele>
        <time>2021-05-29T16:18:56Z</time>
      </trkpt>
      <trkpt lat="37.8590139560" lon="-6.8009255268">
        <ele>431.29</ele>
        <time>2021-05-29T16:18:57Z</time>
      </trkpt>
      <trkpt lat="37.8589046560" lon="-6.8008329906">
        <ele>432.73</ele>
        <time>2021-05-29T16:18:58Z</time>
      </trkpt>
      <trkpt lat="37.8587773349" lon="-6.8007584754">
        <ele>433.69</ele>
        <time>2021-05-29T16:18:59Z</time>
      </trkpt>
      <trkpt lat="37.8586480860" lon="-6.8007046636">
        <ele>434.17</ele>
        <time>2021-05-29T16:19:00Z</time>
      </trkpt>
      <trkpt lat="37.8585330863" lon="-6.8006612454">
        <ele>433.69</ele>
        <time>2021-05-29T16:19:01Z</time>
      </trkpt>
      <trkpt lat="37.8584349342" lon="-6.8006073497">
        <ele>433.69</ele>
        <time>2021-05-29T16:19:02Z</time>
      </trkpt>
      <trkpt lat="37.8583534621" lon="-6.8005338404">
        <ele>434.17</ele>
        <time>2021-05-29T16:19:03Z</time>
      </trkpt>
      <trkpt lat="37.8583004884" lon="-6.8004438188">
        <ele>433.69</ele>
        <time>2021-05-29T16:19:04Z</time>
      </trkpt>
      <trkpt lat="37.8582848981" lon="-6.8003307469">
        <ele>433.69</ele>
        <time>2021-05-29T16:19:05Z</time>
      </trkpt>
      <trkpt lat="37.8583047632" lon="-6.8002022523">
        <ele>434.65</ele>
        <time>2021-05-29T16:19:06Z</time>
      </trkpt>
      <trkpt lat="37.8583602514" lon="-6.8000807986">
        <ele>435.13</ele>
        <time>2021-05-29T16:19:07Z</time>
      </trkpt>
      <trkpt lat="37.8584510274" lon="-6.7999645416">
        <ele>437.54</ele>
        <time>2021-05-29T16:19:08Z</time>
      </trkpt>
      <trkpt lat="37.8585618362" lon="-6.7998379748">
        <ele>439.46</ele>
        <time>2021-05-29T16:19:09Z</time>
      </trkpt>
      <trkpt lat="37.8586722258" lon="-6.7996874359">
        <ele>440.90</ele>
        <time>2021-05-29T16:19:10Z</time>
      </trkpt>
      <trkpt lat="37.8587742336" lon="-6.7995218094">
        <ele>441.38</ele>
        <time>2021-05-29T16:19:11Z</time>
      </trkpt>
      <trkpt lat="37.8588743974" lon="-6.7993595358">
        <ele>442.34</ele>
        <time>2021-05-29T16:19:12Z</time>
      </trkpt>
      <trkpt lat="37.8589692805" lon="-6.7992042191">
        <ele>440.90</ele>
        <time>2021-05-29T16:19:13Z</time>
      </trkpt>
      <trkpt lat="37.8590425383" lon="-6.7990499921">
        <ele>440.90</ele>
        <time>2021-05-29T16:19:14Z</time>
      </trkpt>
      <trkpt lat="37.8590900637" lon="-6.7988846172">
        <ele>439.94</ele>
        <time>2021-05-29T16:19:15Z</time>
      </trkpt>
      <trkpt lat="37.8591121081" lon="-6.7987028137">
        <ele>441.38</ele>
        <time>2021-05-29T16:19:16Z</time>
      </trkpt>
      <trkpt lat="37.8591202386" lon="-6.7985114548">
        <ele>442.34</ele>
        <time>2021-05-29T16:19:17Z</time>
      </trkpt>
      <trkpt lat="37.8591575380" lon="-6.7981159966">
        <ele>443.31</ele>
        <time>2021-05-29T16:19:19Z</time>
      </trkpt>
      <trkpt lat="37.8592451289" lon="-6.7975690775">
        <ele>441.86</ele>
        <time>2021-05-29T16:19:22Z</time>
      </trkpt>
      <trkpt lat="37.8592421114" lon="-6.7974239867">
        <ele>440.42</ele>
        <time>2021-05-29T16:19:23Z</time>
      </trkpt>
      <trkpt lat="37.8592142835" lon="-6.7972974200">
        <ele>440.42</ele>
        <time>2021-05-29T16:19:24Z</time>
      </trkpt>
      <trkpt lat="37.8591550235" lon="-6.7970534228">
        <ele>442.34</ele>
        <time>2021-05-29T16:19:26Z</time>
      </trkpt>
      <trkpt lat="37.8591652494" lon="-6.7969342321">
        <ele>441.86</ele>
        <time>2021-05-29T16:19:27Z</time>
      </trkpt>
      <trkpt lat="37.8592000343" lon="-6.7968131974">
        <ele>443.31</ele>
        <time>2021-05-29T16:19:28Z</time>
      </trkpt>
      <trkpt lat="37.8592617251" lon="-6.7966882233">
        <ele>444.27</ele>
        <time>2021-05-29T16:19:29Z</time>
      </trkpt>
      <trkpt lat="37.8593496513" lon="-6.7965592258">
        <ele>445.23</ele>
        <time>2021-05-29T16:19:30Z</time>
      </trkpt>
      <trkpt lat="37.8594530001" lon="-6.7964287195">
        <ele>447.15</ele>
        <time>2021-05-29T16:19:31Z</time>
      </trkpt>
      <trkpt lat="37.8595586959" lon="-6.7962790187">
        <ele>447.15</ele>
        <time>2021-05-29T16:19:32Z</time>
      </trkpt>
      <trkpt lat="37.8596431017" lon="-6.7961093690">
        <ele>448.11</ele>
        <time>2021-05-29T16:19:33Z</time>
      </trkpt>
      <trkpt lat="37.8597055469" lon="-6.7959244642">
        <ele>448.59</ele>
        <time>2021-05-29T16:19:34Z</time>
      </trkpt>
      <trkpt lat="37.8598133381" lon="-6.7955338676">
        <ele>450.52</ele>
        <time>2021-05-29T16:19:36Z</time>
      </trkpt>
      <trkpt lat="37.8598844167" lon="-6.7953441013">
        <ele>452.44</ele>
        <time>2021-05-29T16:19:37Z</time>
      </trkpt>
      <trkpt lat="37.8599741869" lon="-6.7951633874">
        <ele>453.88</ele>
        <time>2021-05-29T16:19:38Z</time>
      </trkpt>
      <trkpt lat="37.8600834031" lon="-6.7949949950">
        <ele>454.84</ele>
        <time>2021-05-29T16:19:39Z</time>
      </trkpt>
      <trkpt lat="37.8601871710" lon="-6.7948369961">
        <ele>455.32</ele>
        <time>2021-05-29T16:19:40Z</time>
      </trkpt>
      <trkpt lat="37.8602616861" lon="-6.7946778238">
        <ele>455.80</ele>
        <time>2021-05-29T16:19:41Z</time>
      </trkpt>
      <trkpt lat="37.8603106365" lon="-6.7945199087">
        <ele>456.28</ele>
        <time>2021-05-29T16:19:42Z</time>
      </trkpt>
      <trkpt lat="37.8603595868" lon="-6.7943813559">
        <ele>455.80</ele>
        <time>2021-05-29T16:19:43Z</time>
      </trkpt>
      <trkpt lat="37.8604282346" lon="-6.7942661885">
        <ele>456.28</ele>
        <time>2021-05-29T16:19:44Z</time>
      </trkpt>
      <trkpt lat="37.8605257999" lon="-6.7941609956">
        <ele>459.17</ele>
        <time>2021-05-29T16:19:45Z</time>
      </trkpt>
      <trkpt lat="37.8606397938" lon="-6.7940530367">
        <ele>460.61</ele>
        <time>2021-05-29T16:19:46Z</time>
      </trkpt>
      <trkpt lat="37.8608631715" lon="-6.7938597500">
        <ele>461.57</ele>
        <time>2021-05-29T16:19:48Z</time>
      </trkpt>
      <trkpt lat="37.8609661013" lon="-6.7938078661">
        <ele>461.09</ele>
        <time>2021-05-29T16:19:49Z</time>
      </trkpt>
      <trkpt lat="37.8610555362" lon="-6.7937630229">
        <ele>462.05</ele>
        <time>2021-05-29T16:19:50Z</time>
      </trkpt>
      <trkpt lat="37.8611271176" lon="-6.7936848197">
        <ele>462.05</ele>
        <time>2021-05-29T16:19:51Z</time>
      </trkpt>
      <trkpt lat="37.8611670155" lon="-6.7935811356">
        <ele>462.05</ele>
        <time>2021-05-29T16:19:52Z</time>
      </trkpt>
      <trkpt lat="37.8611926641" lon="-6.7934737634">
        <ele>463.01</ele>
        <time>2021-05-29T16:19:53Z</time>
      </trkpt>
      <trkpt lat="37.8612348251" lon="-6.7933760304">
        <ele>463.49</ele>
        <time>2021-05-29T16:19:54Z</time>
      </trkpt>
      <trkpt lat="37.8613092564" lon="-6.7933026887">
        <ele>464.45</ele>
        <time>2021-05-29T16:19:55Z</time>
      </trkpt>
      <trkpt lat="37.8614128567" lon="-6.7932466138">
        <ele>466.86</ele>
        <time>2021-05-29T16:19:56Z</time>
      </trkpt>
      <trkpt lat="37.8615310416" lon="-6.7932093143">
        <ele>468.78</ele>
        <time>2021-05-29T16:19:57Z</time>
      </trkpt>
      <trkpt lat="37.8616640624" lon="-6.7932000104">
        <ele>470.22</ele>
        <time>2021-05-29T16:19:58Z</time>
      </trkpt>
      <trkpt lat="37.8618135117" lon="-6.7931988370">
        <ele>470.70</ele>
        <time>2021-05-29T16:19:59Z</time>
      </trkpt>
      <trkpt lat="37.8619679064" lon="-6.7931822408">
        <ele>472.63</ele>
        <time>2021-05-29T16:20:00Z</time>
      </trkpt>
      <trkpt lat="37.8624310903" lon="-6.7931128386">
        <ele>476.47</ele>
        <time>2021-05-29T16:20:03Z</time>
      </trkpt>
      <trkpt lat="37.8625532147" lon="-6.7930816580">
        <ele>475.03</ele>
        <time>2021-05-29T16:20:04Z</time>
      </trkpt>
      <trkpt lat="37.8626455832" lon="-6.7930312827">
        <ele>474.07</ele>
        <time>2021-05-29T16:20:05Z</time>
      </trkpt>
      <trkpt lat="37.8627072740" lon="-6.7929637246">
        <ele>473.11</ele>
        <time>2021-05-29T16:20:06Z</time>
      </trkpt>
      <trkpt lat="37.8627305757" lon="-6.7928848509">
        <ele>472.14</ele>
        <time>2021-05-29T16:20:07Z</time>
      </trkpt>
      <trkpt lat="37.8627147339" lon="-6.7928090785">
        <ele>472.14</ele>
        <time>2021-05-29T16:20:08Z</time>
      </trkpt>
      <trkpt lat="37.8626610897" lon="-6.7927411851">
        <ele>473.59</ele>
        <time>2021-05-29T16:20:09Z</time>
      </trkpt>
      <trkpt lat="37.8625762649" lon="-6.7926830985">
        <ele>475.03</ele>
        <time>2021-05-29T16:20:10Z</time>
      </trkpt>
      <trkpt lat="37.8624787834" lon="-6.7926420271">
        <ele>476.47</ele>
        <time>2021-05-29T16:20:11Z</time>
      </trkpt>
      <trkpt lat="37.8623724170" lon="-6.7926109303">
        <ele>476.95</ele>
        <time>2021-05-29T16:20:12Z</time>
      </trkpt>
      <trkpt lat="37.8622721694" lon="-6.7925872095">
        <ele>477.43</ele>
        <time>2021-05-29T16:20:13Z</time>
      </trkpt>
      <trkpt lat="37.8621941339" lon="-6.7925455514">
        <ele>476.95</ele>
        <time>2021-05-29T16:20:14Z</time>
      </trkpt>
      <trkpt lat="37.8621446807" lon="-6.7924876325">
        <ele>477.43</ele>
        <time>2021-05-29T16:20:15Z</time>
      </trkpt>
      <trkpt lat="37.8621274978" lon="-6.7924354132">
        <ele>477.91</ele>
        <time>2021-05-29T16:20:16Z</time>
      </trkpt>
      <trkpt lat="37.8621625341" lon="-6.7923893128">
        <ele>478.39</ele>
        <time>2021-05-29T16:20:17Z</time>
      </trkpt>
      <trkpt lat="37.8622487001" lon="-6.7923582159">
        <ele>479.35</ele>
        <time>2021-05-29T16:20:18Z</time>
      </trkpt>
      <trkpt lat="37.8623594251" lon="-6.7923424579">
        <ele>481.28</ele>
        <time>2021-05-29T16:20:19Z</time>
      </trkpt>
      <trkpt lat="37.8626277298" lon="-6.7922910769">
        <ele>485.60</ele>
        <time>2021-05-29T16:20:21Z</time>
      </trkpt>
      <trkpt lat="37.8627765086" lon="-6.7922464851">
        <ele>487.05</ele>
        <time>2021-05-29T16:20:22Z</time>
      </trkpt>
      <trkpt lat="37.8629357647" lon="-6.7921764962">
        <ele>488.49</ele>
        <time>2021-05-29T16:20:23Z</time>
      </trkpt>
      <trkpt lat="37.8630827833" lon="-6.7921195831">
        <ele>488.49</ele>
        <time>2021-05-29T16:20:24Z</time>
      </trkpt>
      <trkpt lat="37.8632414527" lon="-6.7920832895">
        <ele>489.45</ele>
        <time>2021-05-29T16:20:25Z</time>
      </trkpt>
      <trkpt lat="37.8634132817" lon="-6.7920718901">
        <ele>492.33</ele>
        <time>2021-05-29T16:20:26Z</time>
      </trkpt>
      <trkpt lat="37.8635860328" lon="-6.7920728959">
        <ele>493.77</ele>
        <time>2021-05-29T16:20:27Z</time>
      </trkpt>
      <trkpt lat="37.8637483064" lon="-6.7920613289">
        <ele>494.74</ele>
        <time>2021-05-29T16:20:28Z</time>
      </trkpt>
      <trkpt lat="37.8639009409" lon="-6.7920125462">
        <ele>493.77</ele>
        <time>2021-05-29T16:20:29Z</time>
      </trkpt>
      <trkpt lat="37.8640500549" lon="-6.7919219378">
        <ele>494.26</ele>
        <time>2021-05-29T16:20:30Z</time>
      </trkpt>
      <trkpt lat="37.8643778712" lon="-6.7916848976">
        <ele>498.58</ele>
        <time>2021-05-29T16:20:32Z</time>
      </trkpt>
      <trkpt lat="37.8647315875" lon="-6.7914527189">
        <ele>500.50</ele>
        <time>2021-05-29T16:20:34Z</time>
      </trkpt>
      <trkpt lat="37.8650304861" lon="-6.7913073767">
        <ele>498.10</ele>
        <time>2021-05-29T16:20:36Z</time>
      </trkpt>
      <trkpt lat="37.8652673587" lon="-6.7912156787">
        <ele>497.14</ele>
        <time>2021-05-29T16:20:38Z</time>
      </trkpt>
      <trkpt lat="37.8653676063" lon="-6.7911199573">
        <ele>498.10</ele>
        <time>2021-05-29T16:20:39Z</time>
      </trkpt>
      <trkpt lat="37.8655510861" lon="-6.7909034528">
        <ele>499.54</ele>
        <time>2021-05-29T16:20:41Z</time>
      </trkpt>
      <trkpt lat="37.8656478971" lon="-6.7908214778">
        <ele>499.06</ele>
        <time>2021-05-29T16:20:42Z</time>
      </trkpt>
      <trkpt lat="37.8657488152" lon="-6.7907750420">
        <ele>499.06</ele>
        <time>2021-05-29T16:20:43Z</time>
      </trkpt>
      <trkpt lat="37.8658535890" lon="-6.7907623854">
        <ele>500.02</ele>
        <time>2021-05-29T16:20:44Z</time>
      </trkpt>
      <trkpt lat="37.8659527469" lon="-6.7907484714">
        <ele>500.02</ele>
        <time>2021-05-29T16:20:45Z</time>
      </trkpt>
      <trkpt lat="37.8660385776" lon="-6.7906952463">
        <ele>500.02</ele>
        <time>2021-05-29T16:20:46Z</time>
      </trkpt>
      <trkpt lat="37.8661056329" lon="-6.7906015366">
        <ele>500.98</ele>
        <time>2021-05-29T16:20:47Z</time>
      </trkpt>
      <trkpt lat="37.8661690839" lon="-6.7904995289">
        <ele>501.95</ele>
        <time>2021-05-29T16:20:48Z</time>
      </trkpt>
      <trkpt lat="37.8662451915" lon="-6.7904237565">
        <ele>501.95</ele>
        <time>2021-05-29T16:20:49Z</time>
      </trkpt>
      <trkpt lat="37.8663356323" lon="-6.7903812602">
        <ele>502.91</ele>
        <time>2021-05-29T16:20:50Z</time>
      </trkpt>
      <trkpt lat="37.8664357122" lon="-6.7903772369">
        <ele>502.91</ele>
        <time>2021-05-29T16:20:51Z</time>
      </trkpt>
      <trkpt lat="37.8665321041" lon="-6.7904180568">
        <ele>503.39</ele>
        <time>2021-05-29T16:20:52Z</time>
      </trkpt>
      <trkpt lat="37.8666136600" lon="-6.7905080784">
        <ele>503.39</ele>
        <time>2021-05-29T16:20:53Z</time>
      </trkpt>
      <trkpt lat="37.8666774463" lon="-6.7906378303">
        <ele>504.83</ele>
        <time>2021-05-29T16:20:54Z</time>
      </trkpt>
      <trkpt lat="37.8667369578" lon="-6.7907954939">
        <ele>506.27</ele>
        <time>2021-05-29T16:20:55Z</time>
      </trkpt>
      <trkpt lat="37.8668072820" lon="-6.7909664009">
        <ele>507.23</ele>
        <time>2021-05-29T16:20:56Z</time>
      </trkpt>
      <trkpt lat="37.8669571504" lon="-6.7912542354">
        <ele>508.67</ele>
        <time>2021-05-29T16:20:58Z</time>
      </trkpt>
      <trkpt lat="37.8670482617" lon="-6.7913541477">
        <ele>507.71</ele>
        <time>2021-05-29T16:20:59Z</time>
      </trkpt>
      <trkpt lat="37.8671594057" lon="-6.7914130725">
        <ele>509.16</ele>
        <time>2021-05-29T16:21:00Z</time>
      </trkpt>
      <trkpt lat="37.8672826197" lon="-6.7914269865">
        <ele>510.12</ele>
        <time>2021-05-29T16:21:01Z</time>
      </trkpt>
      <trkpt lat="37.8674137127" lon="-6.7914251424">
        <ele>512.04</ele>
        <time>2021-05-29T16:21:02Z</time>
      </trkpt>
      <trkpt lat="37.8675519302" lon="-6.7914369609">
        <ele>513.48</ele>
        <time>2021-05-29T16:21:03Z</time>
      </trkpt>
      <trkpt lat="37.8676814307" lon="-6.7914707400">
        <ele>514.44</ele>
        <time>2021-05-29T16:21:04Z</time>
      </trkpt>
      <trkpt lat="37.8677895572" lon="-6.7915201094">
        <ele>514.44</ele>
        <time>2021-05-29T16:21:05Z</time>
      </trkpt>
      <trkpt lat="37.8678856138" lon="-6.7916019168">
        <ele>514.92</ele>
        <time>2021-05-29T16:21:06Z</time>
      </trkpt>
      <trkpt lat="37.8679692652" lon="-6.7917254660">
        <ele>516.37</ele>
        <time>2021-05-29T16:21:07Z</time>
      </trkpt>
      <trkpt lat="37.8680450376" lon="-6.7918726522">
        <ele>517.81</ele>
        <time>2021-05-29T16:21:08Z</time>
      </trkpt>
      <trkpt lat="37.8681174573" lon="-6.7920191679">
        <ele>518.29</ele>
        <time>2021-05-29T16:21:09Z</time>
      </trkpt>
      <trkpt lat="37.8682459518" lon="-6.7922333255">
        <ele>518.29</ele>
        <time>2021-05-29T16:21:11Z</time>
      </trkpt>
      <trkpt lat="37.8683078941" lon="-6.7922852933">
        <ele>518.29</ele>
        <time>2021-05-29T16:21:12Z</time>
      </trkpt>
      <trkpt lat="37.8683769610" lon="-6.7922744807">
        <ele>518.77</ele>
        <time>2021-05-29T16:21:13Z</time>
      </trkpt>
      <trkpt lat="37.8684417531" lon="-6.7921974510">
        <ele>519.73</ele>
        <time>2021-05-29T16:21:14Z</time>
      </trkpt>
      <trkpt lat="37.8684931342" lon="-6.7920962814">
        <ele>520.69</ele>
        <time>2021-05-29T16:21:15Z</time>
      </trkpt>
      <trkpt lat="37.8685483709" lon="-6.7920141388">
        <ele>521.65</ele>
        <time>2021-05-29T16:21:16Z</time>
      </trkpt>
      <trkpt lat="37.8686155099" lon="-6.7919638474">
        <ele>522.13</ele>
        <time>2021-05-29T16:21:17Z</time>
      </trkpt>
      <trkpt lat="37.8686969820" lon="-6.7919482570">
        <ele>522.61</ele>
        <time>2021-05-29T16:21:18Z</time>
      </trkpt>
      <trkpt lat="37.8687984031" lon="-6.7919539567">
        <ele>524.54</ele>
        <time>2021-05-29T16:21:19Z</time>
      </trkpt>
      <trkpt lat="37.8689069487" lon="-6.7919551302">
        <ele>524.54</ele>
        <time>2021-05-29T16:21:20Z</time>
      </trkpt>
      <trkpt lat="37.8690026700" lon="-6.7919279728">
        <ele>524.06</ele>
        <time>2021-05-29T16:21:21Z</time>
      </trkpt>
      <trkpt lat="37.8690692224" lon="-6.7918602470">
        <ele>524.06</ele>
        <time>2021-05-29T16:21:22Z</time>
      </trkpt>
      <trkpt lat="37.8691054322" lon="-6.7917578202">
        <ele>523.58</ele>
        <time>2021-05-29T16:21:23Z</time>
      </trkpt>
      <trkpt lat="37.8691095393" lon="-6.7916310020">
        <ele>525.02</ele>
        <time>2021-05-29T16:21:24Z</time>
      </trkpt>
      <trkpt lat="37.8690852318" lon="-6.7914889287">
        <ele>525.98</ele>
        <time>2021-05-29T16:21:25Z</time>
      </trkpt>
      <trkpt lat="37.8690482676" lon="-6.7913249787">
        <ele>527.42</ele>
        <time>2021-05-29T16:21:26Z</time>
      </trkpt>
      <trkpt lat="37.8689833917" lon="-6.7909627967">
        <ele>531.27</ele>
        <time>2021-05-29T16:21:28Z</time>
      </trkpt>
      <trkpt lat="37.8689692263" lon="-6.7907878663">
        <ele>531.75</ele>
        <time>2021-05-29T16:21:29Z</time>
      </trkpt>
      <trkpt lat="37.8689742554" lon="-6.7906292807">
        <ele>530.79</ele>
        <time>2021-05-29T16:21:30Z</time>
      </trkpt>
      <trkpt lat="37.8690016642" lon="-6.7904830165">
        <ele>531.75</ele>
        <time>2021-05-29T16:21:31Z</time>
      </trkpt>
      <trkpt lat="37.8690502793" lon="-6.7903498281">
        <ele>532.23</ele>
        <time>2021-05-29T16:21:32Z</time>
      </trkpt>
      <trkpt lat="37.8691147361" lon="-6.7902362533">
        <ele>533.19</ele>
        <time>2021-05-29T16:21:33Z</time>
      </trkpt>
      <trkpt lat="37.8691936936" lon="-6.7901505902">
        <ele>533.19</ele>
        <time>2021-05-29T16:21:34Z</time>
      </trkpt>
      <trkpt lat="37.8692982160" lon="-6.7901012208">
        <ele>534.63</ele>
        <time>2021-05-29T16:21:35Z</time>
      </trkpt>
      <trkpt lat="37.8694240283" lon="-6.7900779191">
        <ele>536.07</ele>
        <time>2021-05-29T16:21:36Z</time>
      </trkpt>
      <trkpt lat="37.8695678618" lon="-6.7900721356">
        <ele>537.51</ele>
        <time>2021-05-29T16:21:37Z</time>
      </trkpt>
      <trkpt lat="37.8697174788" lon="-6.7900729738">
        <ele>538.96</ele>
        <time>2021-05-29T16:21:38Z</time>
      </trkpt>
      <trkpt lat="37.8698479012" lon="-6.7900778353">
        <ele>538.96</ele>
        <time>2021-05-29T16:21:39Z</time>
      </trkpt>
      <trkpt lat="37.8699582070" lon="-6.7901013885">
        <ele>538.96</ele>
        <time>2021-05-29T16:21:40Z</time>
      </trkpt>
      <trkpt lat="37.8700608853" lon="-6.7901609000">
        <ele>539.92</ele>
        <time>2021-05-29T16:21:41Z</time>
      </trkpt>
      <trkpt lat="37.8702632245" lon="-6.7902872991">
        <ele>539.92</ele>
        <time>2021-05-29T16:21:43Z</time>
      </trkpt>
      <trkpt lat="37.8703591134" lon="-6.7902940046">
        <ele>539.44</ele>
        <time>2021-05-29T16:21:44Z</time>
      </trkpt>
      <trkpt lat="37.8704431839" lon="-6.7902489938">
        <ele>540.40</ele>
        <time>2021-05-29T16:21:45Z</time>
      </trkpt>
      <trkpt lat="37.8705135919" lon="-6.7901426274">
        <ele>540.88</ele>
        <time>2021-05-29T16:21:46Z</time>
      </trkpt>
      <trkpt lat="37.8705875203" lon="-6.7900078464">
        <ele>541.36</ele>
        <time>2021-05-29T16:21:47Z</time>
      </trkpt>
      <trkpt lat="37.8706789669" lon="-6.7898669466">
        <ele>543.28</ele>
        <time>2021-05-29T16:21:48Z</time>
      </trkpt>
      <trkpt lat="37.8708663024" lon="-6.7895995639">
        <ele>545.69</ele>
        <time>2021-05-29T16:21:50Z</time>
      </trkpt>
      <trkpt lat="37.8709320165" lon="-6.7894791998">
        <ele>545.69</ele>
        <time>2021-05-29T16:21:51Z</time>
      </trkpt>
      <trkpt lat="37.8709867503" lon="-6.7893790361">
        <ele>545.69</ele>
        <time>2021-05-29T16:21:52Z</time>
      </trkpt>
      <trkpt lat="37.8710440826" lon="-6.7893155850">
        <ele>546.17</ele>
        <time>2021-05-29T16:21:53Z</time>
      </trkpt>
      <trkpt lat="37.8711095452" lon="-6.7893009167">
        <ele>546.17</ele>
        <time>2021-05-29T16:21:54Z</time>
      </trkpt>
      <trkpt lat="37.8711848147" lon="-6.7893294152">
        <ele>547.13</ele>
        <time>2021-05-29T16:21:55Z</time>
      </trkpt>
      <trkpt lat="37.8712666221" lon="-6.7893866636">
        <ele>548.09</ele>
        <time>2021-05-29T16:21:56Z</time>
      </trkpt>
      <trkpt lat="37.8713575657" lon="-6.7894564010">
        <ele>550.01</ele>
        <time>2021-05-29T16:21:57Z</time>
      </trkpt>
      <trkpt lat="37.8715381958" lon="-6.7895855661">
        <ele>550.97</ele>
        <time>2021-05-29T16:21:59Z</time>
      </trkpt>
      <trkpt lat="37.8716133814" lon="-6.7896240391">
        <ele>550.97</ele>
        <time>2021-05-29T16:22:00Z</time>
      </trkpt>
      <trkpt lat="37.8716746531" lon="-6.7896257155">
        <ele>551.45</ele>
        <time>2021-05-29T16:22:01Z</time>
      </trkpt>
      <trkpt lat="37.8717226814" lon="-6.7895946186">
        <ele>551.45</ele>
        <time>2021-05-29T16:22:02Z</time>
      </trkpt>
      <trkpt lat="37.8717584722" lon="-6.7895452492">
        <ele>551.45</ele>
        <time>2021-05-29T16:22:03Z</time>
      </trkpt>
      <trkpt lat="37.8717898205" lon="-6.7894888390">
        <ele>551.45</ele>
        <time>2021-05-29T16:22:04Z</time>
      </trkpt>
      <trkpt lat="37.8718148824" lon="-6.7894301657">
        <ele>551.93</ele>
        <time>2021-05-29T16:22:05Z</time>
      </trkpt>
      <trkpt lat="37.8718374297" lon="-6.7893652897">
        <ele>552.41</ele>
        <time>2021-05-29T16:22:06Z</time>
      </trkpt>
      <trkpt lat="37.8718945943" lon="-6.7892341129">
        <ele>553.38</ele>
        <time>2021-05-29T16:22:08Z</time>
      </trkpt>
      <trkpt lat="37.8719339054" lon="-6.7891823966">
        <ele>553.86</ele>
        <time>2021-05-29T16:22:09Z</time>
      </trkpt>
      <trkpt lat="37.8719772398" lon="-6.7891470250">
        <ele>554.82</ele>
        <time>2021-05-29T16:22:10Z</time>
      </trkpt>
      <trkpt lat="37.8720214125" lon="-6.7891248129">
        <ele>555.30</ele>
        <time>2021-05-29T16:22:11Z</time>
      </trkpt>
      <trkpt lat="37.8720730450" lon="-6.7891054507">
        <ele>555.30</ele>
        <time>2021-05-29T16:22:12Z</time>
      </trkpt>
      <trkpt lat="37.8721277788" lon="-6.7890892737">
        <ele>555.78</ele>
        <time>2021-05-29T16:22:13Z</time>
      </trkpt>
      <trkpt lat="37.8721739631" lon="-6.7890803888">
        <ele>556.26</ele>
        <time>2021-05-29T16:22:14Z</time>
      </trkpt>
      <trkpt lat="37.8722123522" lon="-6.7890775390">
        <ele>556.26</ele>
        <time>2021-05-29T16:22:15Z</time>
      </trkpt>
      <trkpt lat="37.8722488973" lon="-6.7890817299">
        <ele>556.74</ele>
        <time>2021-05-29T16:22:16Z</time>
      </trkpt>
      <trkpt lat="37.8722890466" lon="-6.7891003378">
        <ele>556.26</ele>
        <time>2021-05-29T16:22:17Z</time>
      </trkpt>
      <trkpt lat="37.8723440319" lon="-6.7891359609">
        <ele>557.70</ele>
        <time>2021-05-29T16:22:18Z</time>
      </trkpt>
      <trkpt lat="37.8724077344" lon="-6.7891700752">
        <ele>558.66</ele>
        <time>2021-05-29T16:22:19Z</time>
      </trkpt>
      <trkpt lat="37.8724654019" lon="-6.7891977355">
        <ele>558.66</ele>
        <time>2021-05-29T16:22:20Z</time>
      </trkpt>
      <trkpt lat="37.8726073075" lon="-6.7892575823">
        <ele>559.62</ele>
        <time>2021-05-29T16:22:23Z</time>
      </trkpt>
      <trkpt lat="37.8729534801" lon="-6.7894618493">
        <ele>562.99</ele>
        <time>2021-05-29T16:22:28Z</time>
      </trkpt>
      <trkpt lat="37.8730076272" lon="-6.7895306647">
        <ele>563.95</ele>
        <time>2021-05-29T16:22:29Z</time>
      </trkpt>
      <trkpt lat="37.8732241318" lon="-6.7898065969">
        <ele>567.80</ele>
        <time>2021-05-29T16:22:33Z</time>
      </trkpt>
      <trkpt lat="37.8732809611" lon="-6.7898590676">
        <ele>568.28</ele>
        <time>2021-05-29T16:22:34Z</time>
      </trkpt>
      <trkpt lat="37.8733335994" lon="-6.7898944393">
        <ele>568.76</ele>
        <time>2021-05-29T16:22:35Z</time>
      </trkpt>
      <trkpt lat="37.8733813763" lon="-6.7899186630">
        <ele>568.28</ele>
        <time>2021-05-29T16:22:36Z</time>
      </trkpt>
      <trkpt lat="37.8734282311" lon="-6.7899322417">
        <ele>568.28</ele>
        <time>2021-05-29T16:22:37Z</time>
      </trkpt>
      <trkpt lat="37.8734763432" lon="-6.7899347562">
        <ele>568.76</ele>
        <time>2021-05-29T16:22:38Z</time>
      </trkpt>
      <trkpt lat="37.8735271376" lon="-6.7899350077">
        <ele>568.28</ele>
        <time>2021-05-29T16:22:39Z</time>
      </trkpt>
      <trkpt lat="37.8735806979" lon="-6.7899405397">
        <ele>568.76</ele>
        <time>2021-05-29T16:22:40Z</time>
      </trkpt>
      <trkpt lat="37.8736330848" lon="-6.7899630871">
        <ele>569.72</ele>
        <time>2021-05-29T16:22:41Z</time>
      </trkpt>
      <trkpt lat="37.8736800235" lon="-6.7900104448">
        <ele>569.72</ele>
        <time>2021-05-29T16:22:42Z</time>
      </trkpt>
      <trkpt lat="37.8737228550" lon="-6.7900813557">
        <ele>570.20</ele>
        <time>2021-05-29T16:22:43Z</time>
      </trkpt>
      <trkpt lat="37.8737674467" lon="-6.7901676893">
        <ele>570.20</ele>
        <time>2021-05-29T16:22:44Z</time>
      </trkpt>
      <trkpt lat="37.8739574645" lon="-6.7905597948">
        <ele>574.04</ele>
        <time>2021-05-29T16:22:48Z</time>
      </trkpt>
      <trkpt lat="37.8741305508" lon="-6.7909972463">
        <ele>577.89</ele>
        <time>2021-05-29T16:22:52Z</time>
      </trkpt>
      <trkpt lat="37.8741691913" lon="-6.7911083065">
        <ele>579.33</ele>
        <time>2021-05-29T16:22:53Z</time>
      </trkpt>
      <trkpt lat="37.8742085025" lon="-6.7912212946">
        <ele>579.81</ele>
        <time>2021-05-29T16:22:54Z</time>
      </trkpt>
      <trkpt lat="37.8742560279" lon="-6.7913275771">
        <ele>581.25</ele>
        <time>2021-05-29T16:22:55Z</time>
      </trkpt>
      <trkpt lat="37.8744700179" lon="-6.7917127255">
        <ele>585.10</ele>
        <time>2021-05-29T16:22:59Z</time>
      </trkpt>
      <trkpt lat="37.8746614605" lon="-6.7919400427">
        <ele>588.95</ele>
        <time>2021-05-29T16:23:02Z</time>
      </trkpt>
      <trkpt lat="37.8747249115" lon="-6.7919852212">
        <ele>589.43</ele>
        <time>2021-05-29T16:23:03Z</time>
      </trkpt>
      <trkpt lat="37.8747806512" lon="-6.7920126300">
        <ele>589.43</ele>
        <time>2021-05-29T16:23:04Z</time>
      </trkpt>
      <trkpt lat="37.8748258296" lon="-6.7920255382">
        <ele>589.91</ele>
        <time>2021-05-29T16:23:05Z</time>
      </trkpt>
      <trkpt lat="37.8748586867" lon="-6.7920133006">
        <ele>590.39</ele>
        <time>2021-05-29T16:23:06Z</time>
      </trkpt>
      <trkpt lat="37.8748761211" lon="-6.7919851374">
        <ele>590.87</ele>
        <time>2021-05-29T16:23:07Z</time>
      </trkpt>
      <trkpt lat="37.8748790547" lon="-6.7919547111">
        <ele>590.87</ele>
        <time>2021-05-29T16:23:08Z</time>
      </trkpt>
      <trkpt lat="37.8748699185" lon="-6.7919201776">
        <ele>590.87</ele>
        <time>2021-05-29T16:23:09Z</time>
      </trkpt>
      <trkpt lat="37.8748437669" lon="-6.7918733228">
        <ele>590.87</ele>
        <time>2021-05-29T16:23:10Z</time>
      </trkpt>
      <trkpt lat="37.8747974150" lon="-6.7918136436">
        <ele>591.35</ele>
        <time>2021-05-29T16:23:11Z</time>
      </trkpt>
      <trkpt lat="37.8747410886" lon="-6.7917361110">
        <ele>592.31</ele>
        <time>2021-05-29T16:23:12Z</time>
      </trkpt>
      <trkpt lat="37.8746878635" lon="-6.7916394677">
        <ele>591.83</ele>
        <time>2021-05-29T16:23:13Z</time>
      </trkpt>
      <trkpt lat="37.8746355604" lon="-6.7915244680">
        <ele>591.35</ele>
        <time>2021-05-29T16:23:14Z</time>
      </trkpt>
      <trkpt lat="37.8745922260" lon="-6.7913801316">
        <ele>591.83</ele>
        <time>2021-05-29T16:23:15Z</time>
      </trkpt>
      <trkpt lat="37.8745094966" lon="-6.7910660617">
        <ele>590.39</ele>
        <time>2021-05-29T16:23:17Z</time>
      </trkpt>
      <trkpt lat="37.8742265236" lon="-6.7899884842">
        <ele>586.06</ele>
        <time>2021-05-29T16:23:23Z</time>
      </trkpt>
      <trkpt lat="37.8741001245" lon="-6.7894942034">
        <ele>584.14</ele>
        <time>2021-05-29T16:23:26Z</time>
      </trkpt>
      <trkpt lat="37.8736783471" lon="-6.7880122829">
        <ele>583.66</ele>
        <time>2021-05-29T16:23:36Z</time>
      </trkpt>
      <trkpt lat="37.8735927679" lon="-6.7874211911">
        <ele>580.29</ele>
        <time>2021-05-29T16:23:41Z</time>
      </trkpt>
      <trkpt lat="37.8735353518" lon="-6.7870901059">
        <ele>578.85</ele>
        <time>2021-05-29T16:23:44Z</time>
      </trkpt>
      <trkpt lat="37.8734821267" lon="-6.7866378184">
        <ele>575.97</ele>
        <time>2021-05-29T16:23:48Z</time>
      </trkpt>
      <trkpt lat="37.8734480124" lon="-6.7861696891">
        <ele>572.60</ele>
        <time>2021-05-29T16:23:52Z</time>
      </trkpt>
      <trkpt lat="37.8734033369" lon="-6.7854732368">
        <ele>569.24</ele>
        <time>2021-05-29T16:23:58Z</time>
      </trkpt>
      <trkpt lat="37.8733646963" lon="-6.7847675644">
        <ele>566.35</ele>
        <time>2021-05-29T16:24:04Z</time>
      </trkpt>
      <trkpt lat="37.8733563144" lon="-6.7846360523">
        <ele>566.35</ele>
        <time>2021-05-29T16:24:05Z</time>
      </trkpt>
      <trkpt lat="37.8732999880" lon="-6.7839219142">
        <ele>564.43</ele>
        <time>2021-05-29T16:24:10Z</time>
      </trkpt>
      <trkpt lat="37.8732675500" lon="-6.7837904859">
        <ele>564.43</ele>
        <time>2021-05-29T16:24:11Z</time>
      </trkpt>
      <trkpt lat="37.8732253890" lon="-6.7836612370">
        <ele>563.95</ele>
        <time>2021-05-29T16:24:12Z</time>
      </trkpt>
      <trkpt lat="37.8731760196" lon="-6.7835349217">
        <ele>563.95</ele>
        <time>2021-05-29T16:24:13Z</time>
      </trkpt>
      <trkpt lat="37.8731190227" lon="-6.7834206764">
        <ele>563.47</ele>
        <time>2021-05-29T16:24:14Z</time>
      </trkpt>
      <trkpt lat="37.8730552364" lon="-6.7833233625">
        <ele>562.99</ele>
        <time>2021-05-29T16:24:15Z</time>
      </trkpt>
      <trkpt lat="37.8729836550" lon="-6.7832502723">
        <ele>562.51</ele>
        <time>2021-05-29T16:24:16Z</time>
      </trkpt>
      <trkpt lat="37.8729044460" lon="-6.7832073569">
        <ele>562.99</ele>
        <time>2021-05-29T16:24:17Z</time>
      </trkpt>
      <trkpt lat="37.8728156816" lon="-6.7832057644">
        <ele>562.99</ele>
        <time>2021-05-29T16:24:18Z</time>
      </trkpt>
      <trkpt lat="37.8727234807" lon="-6.7832413036">
        <ele>563.95</ele>
        <time>2021-05-29T16:24:19Z</time>
      </trkpt>
      <trkpt lat="37.8726279270" lon="-6.7833024077">
        <ele>564.91</ele>
        <time>2021-05-29T16:24:20Z</time>
      </trkpt>
      <trkpt lat="37.8725270927" lon="-6.7833868973">
        <ele>566.35</ele>
        <time>2021-05-29T16:24:21Z</time>
      </trkpt>
      <trkpt lat="37.8724222351" lon="-6.7834832892">
        <ele>567.32</ele>
        <time>2021-05-29T16:24:22Z</time>
      </trkpt>
      <trkpt lat="37.8722245060" lon="-6.7836746480">
        <ele>568.76</ele>
        <time>2021-05-29T16:24:24Z</time>
      </trkpt>
      <trkpt lat="37.8720481507" lon="-6.7838194035">
        <ele>569.72</ele>
        <time>2021-05-29T16:24:26Z</time>
      </trkpt>
      <trkpt lat="37.8719479032" lon="-6.7838471476">
        <ele>569.72</ele>
        <time>2021-05-29T16:24:27Z</time>
      </trkpt>
      <trkpt lat="37.8718475718" lon="-6.7838481534">
        <ele>569.72</ele>
        <time>2021-05-29T16:24:28Z</time>
      </trkpt>
      <trkpt lat="37.8717578016" lon="-6.7838236783">
        <ele>570.20</ele>
        <time>2021-05-29T16:24:29Z</time>
      </trkpt>
      <trkpt lat="37.8716799337" lon="-6.7837784998">
        <ele>569.72</ele>
        <time>2021-05-29T16:24:30Z</time>
      </trkpt>
      <trkpt lat="37.8716118727" lon="-6.7837207485">
        <ele>569.24</ele>
        <time>2021-05-29T16:24:31Z</time>
      </trkpt>
      <trkpt lat="37.8715496790" lon="-6.7836565431">
        <ele>569.24</ele>
        <time>2021-05-29T16:24:32Z</time>
      </trkpt>
      <trkpt lat="37.8714397084" lon="-6.7835174035">
        <ele>568.76</ele>
        <time>2021-05-29T16:24:34Z</time>
      </trkpt>
      <trkpt lat="37.8713973798" lon="-6.7834386136">
        <ele>568.76</ele>
        <time>2021-05-29T16:24:35Z</time>
      </trkpt>
      <trkpt lat="37.8709250595" lon="-6.7824223917">
        <ele>569.72</ele>
        <time>2021-05-29T16:24:46Z</time>
      </trkpt>
      <trkpt lat="37.8708581720" lon="-6.7823248263">
        <ele>570.20</ele>
        <time>2021-05-29T16:24:47Z</time>
      </trkpt>
      <trkpt lat="37.8707768675" lon="-6.7822442763">
        <ele>570.20</ele>
        <time>2021-05-29T16:24:48Z</time>
      </trkpt>
      <trkpt lat="37.8706795536" lon="-6.7821857706">
        <ele>569.72</ele>
        <time>2021-05-29T16:24:49Z</time>
      </trkpt>
      <trkpt lat="37.8705782164" lon="-6.7821405083">
        <ele>569.72</ele>
        <time>2021-05-29T16:24:50Z</time>
      </trkpt>
      <trkpt lat="37.8704857640" lon="-6.7820881214">
        <ele>570.20</ele>
        <time>2021-05-29T16:24:51Z</time>
      </trkpt>
      <trkpt lat="37.8704050463" lon="-6.7820115946">
        <ele>569.72</ele>
        <time>2021-05-29T16:24:52Z</time>
      </trkpt>
      <trkpt lat="37.8703431878" lon="-6.7819070723">
        <ele>570.20</ele>
        <time>2021-05-29T16:24:53Z</time>
      </trkpt>
      <trkpt lat="37.8703015298" lon="-6.7817771528">
        <ele>570.20</ele>
        <time>2021-05-29T16:24:54Z</time>
      </trkpt>
      <trkpt lat="37.8702742048" lon="-6.7816291284">
        <ele>569.72</ele>
        <time>2021-05-29T16:24:55Z</time>
      </trkpt>
      <trkpt lat="37.8702564351" lon="-6.7814761586">
        <ele>569.24</ele>
        <time>2021-05-29T16:24:56Z</time>
      </trkpt>
      <trkpt lat="37.8702403419" lon="-6.7813299783">
        <ele>568.28</ele>
        <time>2021-05-29T16:24:57Z</time>
      </trkpt>
      <trkpt lat="37.8701055609" lon="-6.7804142553">
        <ele>566.83</ele>
        <time>2021-05-29T16:25:03Z</time>
      </trkpt>
      <trkpt lat="37.8699939139" lon="-6.7795621511">
        <ele>566.83</ele>
        <time>2021-05-29T16:25:08Z</time>
      </trkpt>
      <trkpt lat="37.8699958418" lon="-6.7793837842">
        <ele>567.32</ele>
        <time>2021-05-29T16:25:09Z</time>
      </trkpt>
      <trkpt lat="37.8700120188" lon="-6.7791970354">
        <ele>568.28</ele>
        <time>2021-05-29T16:25:10Z</time>
      </trkpt>
      <trkpt lat="37.8700384218" lon="-6.7790121306">
        <ele>567.80</ele>
        <time>2021-05-29T16:25:11Z</time>
      </trkpt>
      <trkpt lat="37.8700716142" lon="-6.7788219452">
        <ele>567.32</ele>
        <time>2021-05-29T16:25:12Z</time>
      </trkpt>
      <trkpt lat="37.8701504041" lon="-6.7781768739">
        <ele>569.72</ele>
        <time>2021-05-29T16:25:15Z</time>
      </trkpt>
      <trkpt lat="37.8701468837" lon="-6.7779460363">
        <ele>569.24</ele>
        <time>2021-05-29T16:25:16Z</time>
      </trkpt>
      <trkpt lat="37.8700119350" lon="-6.7764746770">
        <ele>565.39</ele>
        <time>2021-05-29T16:25:23Z</time>
      </trkpt>
      <trkpt lat="37.8699565306" lon="-6.7763393093">
        <ele>564.43</ele>
        <time>2021-05-29T16:25:24Z</time>
      </trkpt>
      <trkpt lat="37.8698751424" lon="-6.7762285005">
        <ele>563.95</ele>
        <time>2021-05-29T16:25:25Z</time>
      </trkpt>
      <trkpt lat="37.8697705362" lon="-6.7761328630">
        <ele>563.95</ele>
        <time>2021-05-29T16:25:26Z</time>
      </trkpt>
      <trkpt lat="37.8696562070" lon="-6.7760469485">
        <ele>564.43</ele>
        <time>2021-05-29T16:25:27Z</time>
      </trkpt>
      <trkpt lat="37.8695505951" lon="-6.7759524845">
        <ele>562.99</ele>
        <time>2021-05-29T16:25:28Z</time>
      </trkpt>
      <trkpt lat="37.8694657702" lon="-6.7758398317">
        <ele>561.55</ele>
        <time>2021-05-29T16:25:29Z</time>
      </trkpt>
      <trkpt lat="37.8694120422" lon="-6.7756992672">
        <ele>560.11</ele>
        <time>2021-05-29T16:25:30Z</time>
      </trkpt>
      <trkpt lat="37.8693840466" lon="-6.7755313776">
        <ele>560.11</ele>
        <time>2021-05-29T16:25:31Z</time>
      </trkpt>
      <trkpt lat="37.8693663608" lon="-6.7753600515">
        <ele>559.62</ele>
        <time>2021-05-29T16:25:32Z</time>
      </trkpt>
      <trkpt lat="37.8693143930" lon="-6.7747144774">
        <ele>561.07</ele>
        <time>2021-05-29T16:25:35Z</time>
      </trkpt>
      <trkpt lat="37.8692896664" lon="-6.7729996238">
        <ele>557.22</ele>
        <time>2021-05-29T16:25:43Z</time>
      </trkpt>
      <trkpt lat="37.8693222720" lon="-6.7727780063">
        <ele>558.18</ele>
        <time>2021-05-29T16:25:44Z</time>
      </trkpt>
      <trkpt lat="37.8693689592" lon="-6.7725528684">
        <ele>556.26</ele>
        <time>2021-05-29T16:25:45Z</time>
      </trkpt>
      <trkpt lat="37.8694277164" lon="-6.7723286524">
        <ele>555.30</ele>
        <time>2021-05-29T16:25:46Z</time>
      </trkpt>
      <trkpt lat="37.8696881421" lon="-6.7714584433">
        <ele>554.34</ele>
        <time>2021-05-29T16:25:50Z</time>
      </trkpt>
      <trkpt lat="37.8699111007" lon="-6.7704951949">
        <ele>550.97</ele>
        <time>2021-05-29T16:25:55Z</time>
      </trkpt>
      <trkpt lat="37.8699415270" lon="-6.7701729946">
        <ele>548.09</ele>
        <time>2021-05-29T16:25:57Z</time>
      </trkpt>
      <trkpt lat="37.8699670918" lon="-6.7700331006">
        <ele>546.17</ele>
        <time>2021-05-29T16:25:58Z</time>
      </trkpt>
      <trkpt lat="37.8700173832" lon="-6.7699135747">
        <ele>544.72</ele>
        <time>2021-05-29T16:25:59Z</time>
      </trkpt>
      <trkpt lat="37.8700993583" lon="-6.7698206194">
        <ele>544.72</ele>
        <time>2021-05-29T16:26:00Z</time>
      </trkpt>
      <trkpt lat="37.8701951634" lon="-6.7697445955">
        <ele>544.24</ele>
        <time>2021-05-29T16:26:01Z</time>
      </trkpt>
      <trkpt lat="37.8702860232" lon="-6.7696585972">
        <ele>542.80</ele>
        <time>2021-05-29T16:26:02Z</time>
      </trkpt>
      <trkpt lat="37.8703653160" lon="-6.7695433460">
        <ele>542.80</ele>
        <time>2021-05-29T16:26:03Z</time>
      </trkpt>
      <trkpt lat="37.8704280127" lon="-6.7693982553">
        <ele>542.32</ele>
        <time>2021-05-29T16:26:04Z</time>
      </trkpt>
      <trkpt lat="37.8704678267" lon="-6.7692418490">
        <ele>542.32</ele>
        <time>2021-05-29T16:26:05Z</time>
      </trkpt>
      <trkpt lat="37.8704814892" lon="-6.7690932378">
        <ele>542.32</ele>
        <time>2021-05-29T16:26:06Z</time>
      </trkpt>
      <trkpt lat="37.8704653960" lon="-6.7689594626">
        <ele>541.84</ele>
        <time>2021-05-29T16:26:07Z</time>
      </trkpt>
      <trkpt lat="37.8704185411" lon="-6.7688567843">
        <ele>541.36</ele>
        <time>2021-05-29T16:26:08Z</time>
      </trkpt>
      <trkpt lat="37.8703440260" lon="-6.7687825207">
        <ele>541.36</ele>
        <time>2021-05-29T16:26:09Z</time>
      </trkpt>
      <trkpt lat="37.8702375758" lon="-6.7687307205">
        <ele>543.76</ele>
        <time>2021-05-29T16:26:10Z</time>
      </trkpt>
      <trkpt lat="37.8701074887" lon="-6.7686936725">
        <ele>545.20</ele>
        <time>2021-05-29T16:26:11Z</time>
      </trkpt>
      <trkpt lat="37.8698122781" lon="-6.7685897369">
        <ele>548.57</ele>
        <time>2021-05-29T16:26:13Z</time>
      </trkpt>
      <trkpt lat="37.8696598113" lon="-6.7685257830">
        <ele>547.61</ele>
        <time>2021-05-29T16:26:14Z</time>
      </trkpt>
      <trkpt lat="37.8690600861" lon="-6.7683299817">
        <ele>549.05</ele>
        <time>2021-05-29T16:26:18Z</time>
      </trkpt>
      <trkpt lat="37.8687529732" lon="-6.7682757508">
        <ele>549.53</ele>
        <time>2021-05-29T16:26:20Z</time>
      </trkpt>
      <trkpt lat="37.8686054517" lon="-6.7682262138">
        <ele>549.53</ele>
        <time>2021-05-29T16:26:21Z</time>
      </trkpt>
      <trkpt lat="37.8684721794" lon="-6.7681615055">
        <ele>548.57</ele>
        <time>2021-05-29T16:26:22Z</time>
      </trkpt>
      <trkpt lat="37.8683519829" lon="-6.7680871580">
        <ele>548.09</ele>
        <time>2021-05-29T16:26:23Z</time>
      </trkpt>
      <trkpt lat="37.8682457004" lon="-6.7680040095">
        <ele>547.61</ele>
        <time>2021-05-29T16:26:24Z</time>
      </trkpt>
      <trkpt lat="37.8681526612" lon="-6.7679181788">
        <ele>547.13</ele>
        <time>2021-05-29T16:26:25Z</time>
      </trkpt>
      <trkpt lat="37.8680671658" lon="-6.7678351142">
        <ele>547.13</ele>
        <time>2021-05-29T16:26:26Z</time>
      </trkpt>
      <trkpt lat="37.8679913934" lon="-6.7677514628">
        <ele>546.65</ele>
        <time>2021-05-29T16:26:27Z</time>
      </trkpt>
      <trkpt lat="37.8679237515" lon="-6.7676513828">
        <ele>546.17</ele>
        <time>2021-05-29T16:26:28Z</time>
      </trkpt>
      <trkpt lat="37.8678563610" lon="-6.7675282527">
        <ele>547.61</ele>
        <time>2021-05-29T16:26:29Z</time>
      </trkpt>
      <trkpt lat="37.8677869588" lon="-6.7673864309">
        <ele>547.61</ele>
        <time>2021-05-29T16:26:30Z</time>
      </trkpt>
      <trkpt lat="37.8677099291" lon="-6.7672271747">
        <ele>549.05</ele>
        <time>2021-05-29T16:26:31Z</time>
      </trkpt>
      <trkpt lat="37.8676458076" lon="-6.7670280207">
        <ele>550.49</ele>
        <time>2021-05-29T16:26:32Z</time>
      </trkpt>
      <trkpt lat="37.8675059136" lon="-6.7665986996">
        <ele>552.90</ele>
        <time>2021-05-29T16:26:34Z</time>
      </trkpt>
      <trkpt lat="37.8672856372" lon="-6.7660155706">
        <ele>549.53</ele>
        <time>2021-05-29T16:26:37Z</time>
      </trkpt>
      <trkpt lat="37.8671840485" lon="-6.7658719048">
        <ele>548.09</ele>
        <time>2021-05-29T16:26:38Z</time>
      </trkpt>
      <trkpt lat="37.8670589905" lon="-6.7657501996">
        <ele>549.05</ele>
        <time>2021-05-29T16:26:39Z</time>
      </trkpt>
      <trkpt lat="37.8667975590" lon="-6.7655212898">
        <ele>547.61</ele>
        <time>2021-05-29T16:26:41Z</time>
      </trkpt>
      <trkpt lat="37.8666844871" lon="-6.7653717566">
        <ele>547.61</ele>
        <time>2021-05-29T16:26:42Z</time>
      </trkpt>
      <trkpt lat="37.8665784560" lon="-6.7651840858">
        <ele>549.05</ele>
        <time>2021-05-29T16:26:43Z</time>
      </trkpt>
      <trkpt lat="37.8656271938" lon="-6.7634905223">
        <ele>551.93</ele>
        <time>2021-05-29T16:26:51Z</time>
      </trkpt>
      <trkpt lat="37.8653059155" lon="-6.7630945612">
        <ele>548.57</ele>
        <time>2021-05-29T16:26:53Z</time>
      </trkpt>
      <trkpt lat="37.8649050929" lon="-6.7625898868">
        <ele>544.24</ele>
        <time>2021-05-29T16:26:56Z</time>
      </trkpt>
      <trkpt lat="37.8648127243" lon="-6.7624432035">
        <ele>542.80</ele>
        <time>2021-05-29T16:26:57Z</time>
      </trkpt>
      <trkpt lat="37.8647513688" lon="-6.7623029742">
        <ele>541.36</ele>
        <time>2021-05-29T16:26:58Z</time>
      </trkpt>
      <trkpt lat="37.8647257201" lon="-6.7621550336">
        <ele>540.88</ele>
        <time>2021-05-29T16:26:59Z</time>
      </trkpt>
      <trkpt lat="37.8647334315" lon="-6.7619847134">
        <ele>541.84</ele>
        <time>2021-05-29T16:27:00Z</time>
      </trkpt>
      <trkpt lat="37.8647600859" lon="-6.7617982998">
        <ele>542.80</ele>
        <time>2021-05-29T16:27:01Z</time>
      </trkpt>
      <trkpt lat="37.8647888359" lon="-6.7616022471">
        <ele>542.80</ele>
        <time>2021-05-29T16:27:02Z</time>
      </trkpt>
      <trkpt lat="37.8648413904" lon="-6.7611884326">
        <ele>543.76</ele>
        <time>2021-05-29T16:27:04Z</time>
      </trkpt>
      <trkpt lat="37.8648418933" lon="-6.7609726824">
        <ele>543.28</ele>
        <time>2021-05-29T16:27:05Z</time>
      </trkpt>
      <trkpt lat="37.8648267221" lon="-6.7605369911">
        <ele>543.28</ele>
        <time>2021-05-29T16:27:07Z</time>
      </trkpt>
      <trkpt lat="37.8648410551" lon="-6.7603068240">
        <ele>544.24</ele>
        <time>2021-05-29T16:27:08Z</time>
      </trkpt>
      <trkpt lat="37.8648844734" lon="-6.7600587197">
        <ele>545.20</ele>
        <time>2021-05-29T16:27:09Z</time>
      </trkpt>
      <trkpt lat="37.8649532050" lon="-6.7598057538">
        <ele>545.20</ele>
        <time>2021-05-29T16:27:10Z</time>
      </trkpt>
      <trkpt lat="37.8650433943" lon="-6.7595527042">
        <ele>547.13</ele>
        <time>2021-05-29T16:27:11Z</time>
      </trkpt>
      <trkpt lat="37.8651460726" lon="-6.7593005765">
        <ele>547.13</ele>
        <time>2021-05-29T16:27:12Z</time>
      </trkpt>
      <trkpt lat="37.8655468114" lon="-6.7584279366">
        <ele>544.72</ele>
        <time>2021-05-29T16:27:16Z</time>
      </trkpt>
      <trkpt lat="37.8659307025" lon="-6.7577914149">
        <ele>543.28</ele>
        <time>2021-05-29T16:27:20Z</time>
      </trkpt>
      <trkpt lat="37.8659763001" lon="-6.7576538678">
        <ele>541.84</ele>
        <time>2021-05-29T16:27:21Z</time>
      </trkpt>
      <trkpt lat="37.8659813292" lon="-6.7575185001">
        <ele>540.88</ele>
        <time>2021-05-29T16:27:22Z</time>
      </trkpt>
      <trkpt lat="37.8659441136" lon="-6.7573869880">
        <ele>540.88</ele>
        <time>2021-05-29T16:27:23Z</time>
      </trkpt>
      <trkpt lat="37.8658724483" lon="-6.7572615109">
        <ele>542.80</ele>
        <time>2021-05-29T16:27:24Z</time>
      </trkpt>
      <trkpt lat="37.8657846060" lon="-6.7571240477">
        <ele>544.24</ele>
        <time>2021-05-29T16:27:25Z</time>
      </trkpt>
      <trkpt lat="37.8657041397" lon="-6.7569556553">
        <ele>544.72</ele>
        <time>2021-05-29T16:27:26Z</time>
      </trkpt>
      <trkpt lat="37.8656357434" lon="-6.7567608599">
        <ele>545.20</ele>
        <time>2021-05-29T16:27:27Z</time>
      </trkpt>
      <trkpt lat="37.8655858710" lon="-6.7565468699">
        <ele>546.17</ele>
        <time>2021-05-29T16:27:28Z</time>
      </trkpt>
      <trkpt lat="37.8655491583" lon="-6.7563261744">
        <ele>546.65</ele>
        <time>2021-05-29T16:27:29Z</time>
      </trkpt>
      <trkpt lat="37.8654612321" lon="-6.7557400279">
        <ele>543.28</ele>
        <time>2021-05-29T16:27:32Z</time>
      </trkpt>
      <trkpt lat="37.8654061630" lon="-6.7556033190">
        <ele>542.32</ele>
        <time>2021-05-29T16:27:33Z</time>
      </trkpt>
      <trkpt lat="37.8653210029" lon="-6.7554896604">
        <ele>540.88</ele>
        <time>2021-05-29T16:27:34Z</time>
      </trkpt>
      <trkpt lat="37.8652055841" lon="-6.7553839646">
        <ele>542.32</ele>
        <time>2021-05-29T16:27:35Z</time>
      </trkpt>
      <trkpt lat="37.8650762513" lon="-6.7552790232">
        <ele>542.32</ele>
        <time>2021-05-29T16:27:36Z</time>
      </trkpt>
      <trkpt lat="37.8648356907" lon="-6.7550558131">
        <ele>540.88</ele>
        <time>2021-05-29T16:27:38Z</time>
      </trkpt>
      <trkpt lat="37.8647519555" lon="-6.7549013346">
        <ele>540.40</ele>
        <time>2021-05-29T16:27:39Z</time>
      </trkpt>
      <trkpt lat="37.8646889236" lon="-6.7547089700">
        <ele>541.84</ele>
        <time>2021-05-29T16:27:40Z</time>
      </trkpt>
      <trkpt lat="37.8642925434" lon="-6.7531109601">
        <ele>544.24</ele>
        <time>2021-05-29T16:27:47Z</time>
      </trkpt>
      <trkpt lat="37.8642624523" lon="-6.7516757268">
        <ele>543.28</ele>
        <time>2021-05-29T16:27:53Z</time>
      </trkpt>
      <trkpt lat="37.8642448504" lon="-6.7514649220">
        <ele>543.28</ele>
        <time>2021-05-29T16:27:54Z</time>
      </trkpt>
      <trkpt lat="37.8642104845" lon="-6.7512551229">
        <ele>543.76</ele>
        <time>2021-05-29T16:27:55Z</time>
      </trkpt>
      <trkpt lat="37.8639869392" lon="-6.7502423376">
        <ele>543.28</ele>
        <time>2021-05-29T16:28:00Z</time>
      </trkpt>
      <trkpt lat="37.8640061338" lon="-6.7500525713">
        <ele>543.76</ele>
        <time>2021-05-29T16:28:01Z</time>
      </trkpt>
      <trkpt lat="37.8640555032" lon="-6.7498634756">
        <ele>543.28</ele>
        <time>2021-05-29T16:28:02Z</time>
      </trkpt>
      <trkpt lat="37.8641233128" lon="-6.7496937420">
        <ele>542.80</ele>
        <time>2021-05-29T16:28:03Z</time>
      </trkpt>
      <trkpt lat="37.8642066289" lon="-6.7495534290">
        <ele>542.32</ele>
        <time>2021-05-29T16:28:04Z</time>
      </trkpt>
      <trkpt lat="37.8643101454" lon="-6.7494499125">
        <ele>541.84</ele>
        <time>2021-05-29T16:28:05Z</time>
      </trkpt>
      <trkpt lat="37.8644329403" lon="-6.7493962683">
        <ele>541.84</ele>
        <time>2021-05-29T16:28:06Z</time>
      </trkpt>
      <trkpt lat="37.8645652067" lon="-6.7493914068">
        <ele>542.32</ele>
        <time>2021-05-29T16:28:07Z</time>
      </trkpt>
      <trkpt lat="37.8647078667" lon="-6.7494354956">
        <ele>543.28</ele>
        <time>2021-05-29T16:28:08Z</time>
      </trkpt>
      <trkpt lat="37.8648570646" lon="-6.7495152075">
        <ele>543.76</ele>
        <time>2021-05-29T16:28:09Z</time>
      </trkpt>
      <trkpt lat="37.8650148120" lon="-6.7496170476">
        <ele>545.20</ele>
        <time>2021-05-29T16:28:10Z</time>
      </trkpt>
      <trkpt lat="37.8656592965" lon="-6.7501758691">
        <ele>545.69</ele>
        <time>2021-05-29T16:28:14Z</time>
      </trkpt>
      <trkpt lat="37.8661849257" lon="-6.7508467566">
        <ele>542.32</ele>
        <time>2021-05-29T16:28:18Z</time>
      </trkpt>
      <trkpt lat="37.8664785437" lon="-6.7512270436">
        <ele>538.48</ele>
        <time>2021-05-29T16:28:21Z</time>
      </trkpt>
      <trkpt lat="37.8665637877" lon="-6.7513099406">
        <ele>537.03</ele>
        <time>2021-05-29T16:28:22Z</time>
      </trkpt>
      <trkpt lat="37.8666517138" lon="-6.7513503414">
        <ele>537.03</ele>
        <time>2021-05-29T16:28:23Z</time>
      </trkpt>
      <trkpt lat="37.8667396400" lon="-6.7513392773">
        <ele>536.07</ele>
        <time>2021-05-29T16:28:24Z</time>
      </trkpt>
      <trkpt lat="37.8668309189" lon="-6.7512847111">
        <ele>537.03</ele>
        <time>2021-05-29T16:28:25Z</time>
      </trkpt>
      <trkpt lat="37.8669287357" lon="-6.7511868943">
        <ele>537.99</ele>
        <time>2021-05-29T16:28:26Z</time>
      </trkpt>
      <trkpt lat="37.8670330904" lon="-6.7510632612">
        <ele>539.44</ele>
        <time>2021-05-29T16:28:27Z</time>
      </trkpt>
      <trkpt lat="37.8671452403" lon="-6.7509253789">
        <ele>543.28</ele>
        <time>2021-05-29T16:28:28Z</time>
      </trkpt>
      <trkpt lat="37.8672605753" lon="-6.7507858202">
        <ele>543.28</ele>
        <time>2021-05-29T16:28:29Z</time>
      </trkpt>
      <trkpt lat="37.8674893174" lon="-6.7505545635">
        <ele>542.32</ele>
        <time>2021-05-29T16:28:31Z</time>
      </trkpt>
      <trkpt lat="37.8676235117" lon="-6.7504791263">
        <ele>542.80</ele>
        <time>2021-05-29T16:28:32Z</time>
      </trkpt>
      <trkpt lat="37.8677790798" lon="-6.7504420783">
        <ele>543.76</ele>
        <time>2021-05-29T16:28:33Z</time>
      </trkpt>
      <trkpt lat="37.8683211375" lon="-6.7504527234">
        <ele>545.69</ele>
        <time>2021-05-29T16:28:36Z</time>
      </trkpt>
      <trkpt lat="37.8685108200" lon="-6.7504965607">
        <ele>545.69</ele>
        <time>2021-05-29T16:28:37Z</time>
      </trkpt>
      <trkpt lat="37.8692061827" lon="-6.7507146578">
        <ele>546.17</ele>
        <time>2021-05-29T16:28:41Z</time>
      </trkpt>
      <trkpt lat="37.8693520278" lon="-6.7507947050">
        <ele>544.72</ele>
        <time>2021-05-29T16:28:42Z</time>
      </trkpt>
      <trkpt lat="37.8694819473" lon="-6.7508895043">
        <ele>544.24</ele>
        <time>2021-05-29T16:28:43Z</time>
      </trkpt>
      <trkpt lat="37.8695935942" lon="-6.7510111257">
        <ele>543.28</ele>
        <time>2021-05-29T16:28:44Z</time>
      </trkpt>
      <trkpt lat="37.8696813527" lon="-6.7511709686">
        <ele>542.32</ele>
        <time>2021-05-29T16:28:45Z</time>
      </trkpt>
      <trkpt lat="37.8697474860" lon="-6.7513704579">
        <ele>542.32</ele>
        <time>2021-05-29T16:28:46Z</time>
      </trkpt>
      <trkpt lat="37.8698083386" lon="-6.7515825201">
        <ele>542.80</ele>
        <time>2021-05-29T16:28:47Z</time>
      </trkpt>
      <trkpt lat="37.8699460533" lon="-6.7519767210">
        <ele>541.36</ele>
        <time>2021-05-29T16:28:49Z</time>
      </trkpt>
      <trkpt lat="37.8700339794" lon="-6.7521488853">
        <ele>540.40</ele>
        <time>2021-05-29T16:28:50Z</time>
      </trkpt>
      <trkpt lat="37.8702126816" lon="-6.7524367198">
        <ele>536.55</ele>
        <time>2021-05-29T16:28:52Z</time>
      </trkpt>
      <trkpt lat="37.8702897951" lon="-6.7525408231">
        <ele>535.11</ele>
        <time>2021-05-29T16:28:53Z</time>
      </trkpt>
      <trkpt lat="37.8703651484" lon="-6.7526068725">
        <ele>535.11</ele>
        <time>2021-05-29T16:28:54Z</time>
      </trkpt>
      <trkpt lat="37.8704397473" lon="-6.7526242230">
        <ele>534.15</ele>
        <time>2021-05-29T16:28:55Z</time>
      </trkpt>
      <trkpt lat="37.8705122508" lon="-6.7525929585">
        <ele>534.15</ele>
        <time>2021-05-29T16:28:56Z</time>
      </trkpt>
      <trkpt lat="37.8705757856" lon="-6.7525194492">
        <ele>534.63</ele>
        <time>2021-05-29T16:28:57Z</time>
      </trkpt>
      <trkpt lat="37.8706252389" lon="-6.7524124123">
        <ele>535.11</ele>
        <time>2021-05-29T16:28:58Z</time>
      </trkpt>
      <trkpt lat="37.8706504684" lon="-6.7522798944">
        <ele>536.07</ele>
        <time>2021-05-29T16:28:59Z</time>
      </trkpt>
      <trkpt lat="37.8706494626" lon="-6.7521179561">
        <ele>537.99</ele>
        <time>2021-05-29T16:29:00Z</time>
      </trkpt>
      <trkpt lat="37.8706376441" lon="-6.7519406788">
        <ele>539.44</ele>
        <time>2021-05-29T16:29:01Z</time>
      </trkpt>
      <trkpt lat="37.8706344590" lon="-6.7515977751">
        <ele>540.40</ele>
        <time>2021-05-29T16:29:03Z</time>
      </trkpt>
      <trkpt lat="37.8706678189" lon="-6.7514344119">
        <ele>540.88</ele>
        <time>2021-05-29T16:29:04Z</time>
      </trkpt>
      <trkpt lat="37.8707324434" lon="-6.7512810230">
        <ele>541.36</ele>
        <time>2021-05-29T16:29:05Z</time>
      </trkpt>
      <trkpt lat="37.8708222974" lon="-6.7511361837">
        <ele>542.80</ele>
        <time>2021-05-29T16:29:06Z</time>
      </trkpt>
      <trkpt lat="37.8709255625" lon="-6.7510004807">
        <ele>544.24</ele>
        <time>2021-05-29T16:29:07Z</time>
      </trkpt>
      <trkpt lat="37.8710424900" lon="-6.7508699745">
        <ele>544.72</ele>
        <time>2021-05-29T16:29:08Z</time>
      </trkpt>
      <trkpt lat="37.8711728286" lon="-6.7507463414">
        <ele>546.65</ele>
        <time>2021-05-29T16:29:09Z</time>
      </trkpt>
      <trkpt lat="37.8713105433" lon="-6.7506357003">
        <ele>546.65</ele>
        <time>2021-05-29T16:29:10Z</time>
      </trkpt>
      <trkpt lat="37.8714533709" lon="-6.7505478580">
        <ele>548.09</ele>
        <time>2021-05-29T16:29:11Z</time>
      </trkpt>
      <trkpt lat="37.8716034070" lon="-6.7504942138">
        <ele>549.05</ele>
        <time>2021-05-29T16:29:12Z</time>
      </trkpt>
      <trkpt lat="37.8717545327" lon="-6.7504668888">
        <ele>548.57</ele>
        <time>2021-05-29T16:29:13Z</time>
      </trkpt>
      <trkpt lat="37.8718951810" lon="-6.7504349537">
        <ele>548.57</ele>
        <time>2021-05-29T16:29:14Z</time>
      </trkpt>
      <trkpt lat="37.8720134497" lon="-6.7503769509">
        <ele>548.09</ele>
        <time>2021-05-29T16:29:15Z</time>
      </trkpt>
      <trkpt lat="37.8721085843" lon="-6.7502804752">
        <ele>547.61</ele>
        <time>2021-05-29T16:29:16Z</time>
      </trkpt>
      <trkpt lat="37.8721894696" lon="-6.7501415033">
        <ele>549.53</ele>
        <time>2021-05-29T16:29:17Z</time>
      </trkpt>
      <trkpt lat="37.8722674213" lon="-6.7499742005">
        <ele>550.49</ele>
        <time>2021-05-29T16:29:18Z</time>
      </trkpt>
      <trkpt lat="37.8724295273" lon="-6.7496315483">
        <ele>552.41</ele>
        <time>2021-05-29T16:29:20Z</time>
      </trkpt>
      <trkpt lat="37.8724975884" lon="-6.7494699452">
        <ele>552.41</ele>
        <time>2021-05-29T16:29:21Z</time>
      </trkpt>
      <trkpt lat="37.8725370672" lon="-6.7493104376">
        <ele>553.38</ele>
        <time>2021-05-29T16:29:22Z</time>
      </trkpt>
      <trkpt lat="37.8725431859" lon="-6.7491418775">
        <ele>553.38</ele>
        <time>2021-05-29T16:29:23Z</time>
      </trkpt>
      <trkpt lat="37.8725132626" lon="-6.7489681207">
        <ele>554.82</ele>
        <time>2021-05-29T16:29:24Z</time>
      </trkpt>
      <trkpt lat="37.8724608757" lon="-6.7487872392">
        <ele>555.78</ele>
        <time>2021-05-29T16:29:25Z</time>
      </trkpt>
      <trkpt lat="37.8723920602" lon="-6.7485916894">
        <ele>556.74</ele>
        <time>2021-05-29T16:29:26Z</time>
      </trkpt>
      <trkpt lat="37.8721490689" lon="-6.7480156012">
        <ele>558.18</ele>
        <time>2021-05-29T16:29:29Z</time>
      </trkpt>
      <trkpt lat="37.8720440436" lon="-6.7478547525">
        <ele>559.14</ele>
        <time>2021-05-29T16:29:30Z</time>
      </trkpt>
      <trkpt lat="37.8719134536" lon="-6.7477057222">
        <ele>561.55</ele>
        <time>2021-05-29T16:29:31Z</time>
      </trkpt>
      <trkpt lat="37.8716069274" lon="-6.7474169657">
        <ele>564.91</ele>
        <time>2021-05-29T16:29:33Z</time>
      </trkpt>
      <trkpt lat="37.8713072743" lon="-6.7471171450">
        <ele>566.83</ele>
        <time>2021-05-29T16:29:35Z</time>
      </trkpt>
      <trkpt lat="37.8711820487" lon="-6.7469474114">
        <ele>566.83</ele>
        <time>2021-05-29T16:29:36Z</time>
      </trkpt>
      <trkpt lat="37.8710665461" lon="-6.7467501853">
        <ele>566.83</ele>
        <time>2021-05-29T16:29:37Z</time>
      </trkpt>
      <trkpt lat="37.8708427493" lon="-6.7463217024">
        <ele>571.16</ele>
        <time>2021-05-29T16:29:39Z</time>
      </trkpt>
      <trkpt lat="37.8707383107" lon="-6.7461186927">
        <ele>570.68</ele>
        <time>2021-05-29T16:29:40Z</time>
      </trkpt>
      <trkpt lat="37.8705876879" lon="-6.7457619589">
        <ele>569.72</ele>
        <time>2021-05-29T16:29:42Z</time>
      </trkpt>
      <trkpt lat="37.8705572616" lon="-6.7455845140">
        <ele>568.76</ele>
        <time>2021-05-29T16:29:43Z</time>
      </trkpt>
      <trkpt lat="37.8705534898" lon="-6.7453818396">
        <ele>570.20</ele>
        <time>2021-05-29T16:29:44Z</time>
      </trkpt>
      <trkpt lat="37.8706573416" lon="-6.7444432341">
        <ele>572.12</ele>
        <time>2021-05-29T16:29:48Z</time>
      </trkpt>
      <trkpt lat="37.8707274143" lon="-6.7441998236">
        <ele>572.60</ele>
        <time>2021-05-29T16:29:49Z</time>
      </trkpt>
      <trkpt lat="37.8709779494" lon="-6.7434730288">
        <ele>575.49</ele>
        <time>2021-05-29T16:29:52Z</time>
      </trkpt>
      <trkpt lat="37.8710890934" lon="-6.7432473041">
        <ele>575.97</ele>
        <time>2021-05-29T16:29:53Z</time>
      </trkpt>
      <trkpt lat="37.8712107986" lon="-6.7430359125">
        <ele>575.97</ele>
        <time>2021-05-29T16:29:54Z</time>
      </trkpt>
      <trkpt lat="37.8713361081" lon="-6.7428492475">
        <ele>575.97</ele>
        <time>2021-05-29T16:29:55Z</time>
      </trkpt>
      <trkpt lat="37.8714736551" lon="-6.7426811904">
        <ele>576.93</ele>
        <time>2021-05-29T16:29:56Z</time>
      </trkpt>
      <trkpt lat="37.8716267925" lon="-6.7425226886">
        <ele>577.89</ele>
        <time>2021-05-29T16:29:57Z</time>
      </trkpt>
      <trkpt lat="37.8717866354" lon="-6.7423692998">
        <ele>578.37</ele>
        <time>2021-05-29T16:29:58Z</time>
      </trkpt>
      <trkpt lat="37.8722831793" lon="-6.7419383861">
        <ele>577.89</ele>
        <time>2021-05-29T16:30:01Z</time>
      </trkpt>
      <trkpt lat="37.8724613786" lon="-6.7418313492">
        <ele>576.93</ele>
        <time>2021-05-29T16:30:02Z</time>
      </trkpt>
      <trkpt lat="37.8731478564" lon="-6.7413224000">
        <ele>574.04</ele>
        <time>2021-05-29T16:30:07Z</time>
      </trkpt>
      <trkpt lat="37.8732346930" lon="-6.7412003595">
        <ele>573.56</ele>
        <time>2021-05-29T16:30:08Z</time>
      </trkpt>
      <trkpt lat="37.8732948750" lon="-6.7410569452">
        <ele>573.08</ele>
        <time>2021-05-29T16:30:09Z</time>
      </trkpt>
      <trkpt lat="37.8733207751" lon="-6.7409043945">
        <ele>573.08</ele>
        <time>2021-05-29T16:30:10Z</time>
      </trkpt>
      <trkpt lat="37.8733112197" lon="-6.7407474015">
        <ele>572.60</ele>
        <time>2021-05-29T16:30:11Z</time>
      </trkpt>
      <trkpt lat="37.8732559830" lon="-6.7405939288">
        <ele>572.60</ele>
        <time>2021-05-29T16:30:12Z</time>
      </trkpt>
      <trkpt lat="37.8731784504" lon="-6.7404533643">
        <ele>573.08</ele>
        <time>2021-05-29T16:30:13Z</time>
      </trkpt>
      <trkpt lat="37.8731176816" lon="-6.7403193377">
        <ele>573.08</ele>
        <time>2021-05-29T16:30:14Z</time>
      </trkpt>
      <trkpt lat="37.8730896860" lon="-6.7401722353">
        <ele>573.08</ele>
        <time>2021-05-29T16:30:15Z</time>
      </trkpt>
      <trkpt lat="37.8730854113" lon="-6.7400066927">
        <ele>574.53</ele>
        <time>2021-05-29T16:30:16Z</time>
      </trkpt>
      <trkpt lat="37.8730934579" lon="-6.7398282420">
        <ele>575.97</ele>
        <time>2021-05-29T16:30:17Z</time>
      </trkpt>
      <trkpt lat="37.8731015883" lon="-6.7390879523">
        <ele>579.33</ele>
        <time>2021-05-29T16:30:21Z</time>
      </trkpt>
      <trkpt lat="37.8730758559" lon="-6.7387850303">
        <ele>578.85</ele>
        <time>2021-05-29T16:30:23Z</time>
      </trkpt>
      <trkpt lat="37.8730324376" lon="-6.7386646662">
        <ele>579.81</ele>
        <time>2021-05-29T16:30:24Z</time>
      </trkpt>
      <trkpt lat="37.8729619458" lon="-6.7385708727">
        <ele>580.29</ele>
        <time>2021-05-29T16:30:25Z</time>
      </trkpt>
      <trkpt lat="37.8728700802" lon="-6.7384990398">
        <ele>580.77</ele>
        <time>2021-05-29T16:30:26Z</time>
      </trkpt>
      <trkpt lat="37.8727609478" lon="-6.7384344153">
        <ele>582.22</ele>
        <time>2021-05-29T16:30:27Z</time>
      </trkpt>
      <trkpt lat="37.8726439364" lon="-6.7383675277">
        <ele>583.66</ele>
        <time>2021-05-29T16:30:28Z</time>
      </trkpt>
      <trkpt lat="37.8725296073" lon="-6.7382790986">
        <ele>584.14</ele>
        <time>2021-05-29T16:30:29Z</time>
      </trkpt>
      <trkpt lat="37.8724271804" lon="-6.7381623387">
        <ele>584.62</ele>
        <time>2021-05-29T16:30:30Z</time>
      </trkpt>
      <trkpt lat="37.8723451216" lon="-6.7380325031">
        <ele>585.10</ele>
        <time>2021-05-29T16:30:31Z</time>
      </trkpt>
      <trkpt lat="37.8722781502" lon="-6.7379099596">
        <ele>584.62</ele>
        <time>2021-05-29T16:30:32Z</time>
      </trkpt>
      <trkpt lat="37.8720283695" lon="-6.7374056205">
        <ele>584.62</ele>
        <time>2021-05-29T16:30:38Z</time>
      </trkpt>
      <trkpt lat="37.8720150422" lon="-6.7373617832">
        <ele>585.10</ele>
        <time>2021-05-29T16:30:39Z</time>
      </trkpt>
      <trkpt lat="37.8719438799" lon="-6.7371524870">
        <ele>585.58</ele>
        <time>2021-05-29T16:30:47Z</time>
      </trkpt>
      <trkpt lat="37.8719137050" lon="-6.7369672470">
        <ele>586.54</ele>
        <time>2021-05-29T16:30:49Z</time>
      </trkpt>
      <trkpt lat="37.8718746454" lon="-6.7368767224">
        <ele>587.02</ele>
        <time>2021-05-29T16:30:50Z</time>
      </trkpt>
      <trkpt lat="37.8718096018" lon="-6.7367982678">
        <ele>588.46</ele>
        <time>2021-05-29T16:30:51Z</time>
      </trkpt>
      <trkpt lat="37.8717197478" lon="-6.7367445398">
        <ele>588.95</ele>
        <time>2021-05-29T16:30:52Z</time>
      </trkpt>
      <trkpt lat="37.8716153093" lon="-6.7367141973">
        <ele>589.91</ele>
        <time>2021-05-29T16:30:53Z</time>
      </trkpt>
      <trkpt lat="37.8715019859" lon="-6.7366877943">
        <ele>590.39</ele>
        <time>2021-05-29T16:30:54Z</time>
      </trkpt>
      <trkpt lat="37.8713848069" lon="-6.7366394307">
        <ele>592.31</ele>
        <time>2021-05-29T16:30:55Z</time>
      </trkpt>
      <trkpt lat="37.8712701425" lon="-6.7365613952">
        <ele>591.83</ele>
        <time>2021-05-29T16:30:56Z</time>
      </trkpt>
      <trkpt lat="37.8711644467" lon="-6.7364478204">
        <ele>592.79</ele>
        <time>2021-05-29T16:30:57Z</time>
      </trkpt>
      <trkpt lat="37.8710654564" lon="-6.7363054119">
        <ele>594.23</ele>
        <time>2021-05-29T16:30:58Z</time>
      </trkpt>
      <trkpt lat="37.8709741775" lon="-6.7361385282">
        <ele>596.15</ele>
        <time>2021-05-29T16:30:59Z</time>
      </trkpt>
      <trkpt lat="37.8708934598" lon="-6.7359632626">
        <ele>597.12</ele>
        <time>2021-05-29T16:31:00Z</time>
      </trkpt>
      <trkpt lat="37.8708191123" lon="-6.7357976362">
        <ele>597.12</ele>
        <time>2021-05-29T16:31:01Z</time>
      </trkpt>
      <trkpt lat="37.8704891168" lon="-6.7351921275">
        <ele>599.04</ele>
        <time>2021-05-29T16:31:05Z</time>
      </trkpt>
      <trkpt lat="37.8701587021" lon="-6.7347783130">
        <ele>601.92</ele>
        <time>2021-05-29T16:31:08Z</time>
      </trkpt>
      <trkpt lat="37.8697929997" lon="-6.7343348265">
        <ele>606.25</ele>
        <time>2021-05-29T16:31:11Z</time>
      </trkpt>
      <trkpt lat="37.8693722282" lon="-6.7337731551">
        <ele>607.69</ele>
        <time>2021-05-29T16:31:15Z</time>
      </trkpt>
      <trkpt lat="37.8692964558" lon="-6.7336002365">
        <ele>608.65</ele>
        <time>2021-05-29T16:31:16Z</time>
      </trkpt>
      <trkpt lat="37.8692301549" lon="-6.7334083747">
        <ele>610.57</ele>
        <time>2021-05-29T16:31:17Z</time>
      </trkpt>
      <trkpt lat="37.8691625968" lon="-6.7332041077">
        <ele>610.57</ele>
        <time>2021-05-29T16:31:18Z</time>
      </trkpt>
      <trkpt lat="37.8688429948" lon="-6.7323918175">
        <ele>613.94</ele>
        <time>2021-05-29T16:31:22Z</time>
      </trkpt>
      <trkpt lat="37.8686578386" lon="-6.7319577187">
        <ele>617.30</ele>
        <time>2021-05-29T16:31:24Z</time>
      </trkpt>
      <trkpt lat="37.8684462793" lon="-6.7315038387">
        <ele>620.19</ele>
        <time>2021-05-29T16:31:26Z</time>
      </trkpt>
      <trkpt lat="37.8680933174" lon="-6.7307893652">
        <ele>624.03</ele>
        <time>2021-05-29T16:31:29Z</time>
      </trkpt>
      <trkpt lat="37.8674965259" lon="-6.7294681258">
        <ele>626.92</ele>
        <time>2021-05-29T16:31:35Z</time>
      </trkpt>
      <trkpt lat="37.8671788517" lon="-6.7289367132">
        <ele>629.80</ele>
        <time>2021-05-29T16:31:38Z</time>
      </trkpt>
      <trkpt lat="37.8671007324" lon="-6.7287573405">
        <ele>628.36</ele>
        <time>2021-05-29T16:31:39Z</time>
      </trkpt>
      <trkpt lat="37.8670309950" lon="-6.7285937257">
        <ele>628.36</ele>
        <time>2021-05-29T16:31:40Z</time>
      </trkpt>
      <trkpt lat="37.8669467568" lon="-6.7284519877">
        <ele>627.88</ele>
        <time>2021-05-29T16:31:41Z</time>
      </trkpt>
      <trkpt lat="37.8668325953" lon="-6.7283351440">
        <ele>629.32</ele>
        <time>2021-05-29T16:31:42Z</time>
      </trkpt>
      <trkpt lat="37.8666949645" lon="-6.7282329686">
        <ele>631.24</ele>
        <time>2021-05-29T16:31:43Z</time>
      </trkpt>
      <trkpt lat="37.8665355407" lon="-6.7281416897">
        <ele>633.17</ele>
        <time>2021-05-29T16:31:44Z</time>
      </trkpt>
      <trkpt lat="37.8663621191" lon="-6.7280582897">
        <ele>634.61</ele>
        <time>2021-05-29T16:31:45Z</time>
      </trkpt>
      <trkpt lat="37.8661876917" lon="-6.7279695254">
        <ele>634.61</ele>
        <time>2021-05-29T16:31:46Z</time>
      </trkpt>
      <trkpt lat="37.8656582907" lon="-6.7277571280">
        <ele>637.49</ele>
        <time>2021-05-29T16:31:49Z</time>
      </trkpt>
      <trkpt lat="37.8653655108" lon="-6.7276641726">
        <ele>637.97</ele>
        <time>2021-05-29T16:31:51Z</time>
      </trkpt>
      <trkpt lat="37.8652391117" lon="-6.7275960278">
        <ele>637.97</ele>
        <time>2021-05-29T16:31:52Z</time>
      </trkpt>
      <trkpt lat="37.8651170712" lon="-6.7275096942">
        <ele>638.93</ele>
        <time>2021-05-29T16:31:53Z</time>
      </trkpt>
      <trkpt lat="37.8650071844" lon="-6.7274143081">
        <ele>640.38</ele>
        <time>2021-05-29T16:31:54Z</time>
      </trkpt>
      <trkpt lat="37.8649176657" lon="-6.7273101211">
        <ele>640.86</ele>
        <time>2021-05-29T16:31:55Z</time>
      </trkpt>
      <trkpt lat="37.8648437373" lon="-6.7271866556">
        <ele>640.86</ele>
        <time>2021-05-29T16:31:56Z</time>
      </trkpt>
      <trkpt lat="37.8647767659" lon="-6.7270465102">
        <ele>641.82</ele>
        <time>2021-05-29T16:31:57Z</time>
      </trkpt>
      <trkpt lat="37.8646432422" lon="-6.7267332785">
        <ele>642.30</ele>
        <time>2021-05-29T16:31:59Z</time>
      </trkpt>
      <trkpt lat="37.8643998317" lon="-6.7259632330">
        <ele>638.93</ele>
        <time>2021-05-29T16:32:04Z</time>
      </trkpt>
      <trkpt lat="37.8643880133" lon="-6.7258426175">
        <ele>638.45</ele>
        <time>2021-05-29T16:32:05Z</time>
      </trkpt>
      <trkpt lat="37.8644056991" lon="-6.7257335689">
        <ele>637.97</ele>
        <time>2021-05-29T16:32:06Z</time>
      </trkpt>
      <trkpt lat="37.8644498717" lon="-6.7256440502">
        <ele>637.97</ele>
        <time>2021-05-29T16:32:07Z</time>
      </trkpt>
      <trkpt lat="37.8645182680" lon="-6.7255764082">
        <ele>637.97</ele>
        <time>2021-05-29T16:32:08Z</time>
      </trkpt>
      <trkpt lat="37.8646022547" lon="-6.7255234346">
        <ele>638.45</ele>
        <time>2021-05-29T16:32:09Z</time>
      </trkpt>
      <trkpt lat="37.8646952938" lon="-6.7254726402">
        <ele>638.93</ele>
        <time>2021-05-29T16:32:10Z</time>
      </trkpt>
      <trkpt lat="37.8649794403" lon="-6.7252918426">
        <ele>637.01</ele>
        <time>2021-05-29T16:32:13Z</time>
      </trkpt>
      <trkpt lat="37.8652153071" lon="-6.7251092847">
        <ele>634.61</ele>
        <time>2021-05-29T16:32:16Z</time>
      </trkpt>
      <trkpt lat="37.8656975180" lon="-6.7247272376">
        <ele>630.76</ele>
        <time>2021-05-29T16:32:22Z</time>
      </trkpt>
      <trkpt lat="37.8660291061" lon="-6.7244281713">
        <ele>627.88</ele>
        <time>2021-05-29T16:32:27Z</time>
      </trkpt>
      <trkpt lat="37.8665207885" lon="-6.7238939926">
        <ele>626.44</ele>
        <time>2021-05-29T16:32:33Z</time>
      </trkpt>
      <trkpt lat="37.8665873408" lon="-6.7237853631">
        <ele>625.96</ele>
        <time>2021-05-29T16:32:34Z</time>
      </trkpt>
      <trkpt lat="37.8666275740" lon="-6.7236647476">
        <ele>625.47</ele>
        <time>2021-05-29T16:32:35Z</time>
      </trkpt>
      <trkpt lat="37.8666315135" lon="-6.7235386837">
        <ele>625.96</ele>
        <time>2021-05-29T16:32:36Z</time>
      </trkpt>
      <trkpt lat="37.8666007519" lon="-6.7234065011">
        <ele>625.96</ele>
        <time>2021-05-29T16:32:37Z</time>
      </trkpt>
      <trkpt lat="37.8665573336" lon="-6.7232547048">
        <ele>626.44</ele>
        <time>2021-05-29T16:32:38Z</time>
      </trkpt>
      <trkpt lat="37.8665210400" lon="-6.7230771761">
        <ele>626.44</ele>
        <time>2021-05-29T16:32:39Z</time>
      </trkpt>
      <trkpt lat="37.8664992470" lon="-6.7228904273">
        <ele>625.47</ele>
        <time>2021-05-29T16:32:40Z</time>
      </trkpt>
      <trkpt lat="37.8664885182" lon="-6.7226999905">
        <ele>624.03</ele>
        <time>2021-05-29T16:32:41Z</time>
      </trkpt>
      <trkpt lat="37.8664906975" lon="-6.7224970646">
        <ele>624.51</ele>
        <time>2021-05-29T16:32:42Z</time>
      </trkpt>
      <trkpt lat="37.8665087186" lon="-6.7222841643">
        <ele>624.03</ele>
        <time>2021-05-29T16:32:43Z</time>
      </trkpt>
      <trkpt lat="37.8665369656" lon="-6.7220653128">
        <ele>623.55</ele>
        <time>2021-05-29T16:32:44Z</time>
      </trkpt>
      <trkpt lat="37.8666099720" lon="-6.7214692757">
        <ele>620.19</ele>
        <time>2021-05-29T16:32:47Z</time>
      </trkpt>
      <trkpt lat="37.8666040208" lon="-6.7213130370">
        <ele>618.75</ele>
        <time>2021-05-29T16:32:48Z</time>
      </trkpt>
      <trkpt lat="37.8665654641" lon="-6.7211744003">
        <ele>618.26</ele>
        <time>2021-05-29T16:32:49Z</time>
      </trkpt>
      <trkpt lat="37.8664944693" lon="-6.7210474145">
        <ele>618.75</ele>
        <time>2021-05-29T16:32:50Z</time>
      </trkpt>
      <trkpt lat="37.8663942218" lon="-6.7209233623">
        <ele>619.71</ele>
        <time>2021-05-29T16:32:51Z</time>
      </trkpt>
      <trkpt lat="37.8662777971" lon="-6.7207929399">
        <ele>619.71</ele>
        <time>2021-05-29T16:32:52Z</time>
      </trkpt>
      <trkpt lat="37.8659844305" lon="-6.7203495372">
        <ele>616.34</ele>
        <time>2021-05-29T16:32:55Z</time>
      </trkpt>
      <trkpt lat="37.8659385815" lon="-6.7201511376">
        <ele>616.82</ele>
        <time>2021-05-29T16:32:56Z</time>
      </trkpt>
      <trkpt lat="37.8658508230" lon="-6.7195031326">
        <ele>613.94</ele>
        <time>2021-05-29T16:32:59Z</time>
      </trkpt>
      <trkpt lat="37.8658348974" lon="-6.7191080935">
        <ele>610.57</ele>
        <time>2021-05-29T16:33:01Z</time>
      </trkpt>
      <trkpt lat="37.8658445366" lon="-6.7189050838">
        <ele>610.57</ele>
        <time>2021-05-29T16:33:02Z</time>
      </trkpt>
      <trkpt lat="37.8658670839" lon="-6.7186895013">
        <ele>609.61</ele>
        <time>2021-05-29T16:33:03Z</time>
      </trkpt>
      <trkpt lat="37.8659840953" lon="-6.7178432643">
        <ele>605.29</ele>
        <time>2021-05-29T16:33:07Z</time>
      </trkpt>
      <trkpt lat="37.8659773897" lon="-6.7176597845">
        <ele>604.33</ele>
        <time>2021-05-29T16:33:08Z</time>
      </trkpt>
      <trkpt lat="37.8659401741" lon="-6.7174799088">
        <ele>603.36</ele>
        <time>2021-05-29T16:33:09Z</time>
      </trkpt>
      <trkpt lat="37.8656514175" lon="-6.7167204246">
        <ele>603.85</ele>
        <time>2021-05-29T16:33:13Z</time>
      </trkpt>
      <trkpt lat="37.8655530140" lon="-6.7165642697">
        <ele>603.85</ele>
        <time>2021-05-29T16:33:14Z</time>
      </trkpt>
      <trkpt lat="37.8654607292" lon="-6.7164193466">
        <ele>601.92</ele>
        <time>2021-05-29T16:33:15Z</time>
      </trkpt>
      <trkpt lat="37.8653869685" lon="-6.7162750103">
        <ele>600.96</ele>
        <time>2021-05-29T16:33:16Z</time>
      </trkpt>
      <trkpt lat="37.8653455619" lon="-6.7161204480">
        <ele>600.96</ele>
        <time>2021-05-29T16:33:17Z</time>
      </trkpt>
      <trkpt lat="37.8653376829" lon="-6.7159476131">
        <ele>600.96</ele>
        <time>2021-05-29T16:33:18Z</time>
      </trkpt>
      <trkpt lat="37.8653567936" lon="-6.7157554999">
        <ele>601.44</ele>
        <time>2021-05-29T16:33:19Z</time>
      </trkpt>
      <trkpt lat="37.8653904051" lon="-6.7155467905">
        <ele>601.92</ele>
        <time>2021-05-29T16:33:20Z</time>
      </trkpt>
      <trkpt lat="37.8654645849" lon="-6.7148611508">
        <ele>600.48</ele>
        <time>2021-05-29T16:33:23Z</time>
      </trkpt>
      <trkpt lat="37.8654131200" lon="-6.7138622794">
        <ele>597.60</ele>
        <time>2021-05-29T16:33:27Z</time>
      </trkpt>
      <trkpt lat="37.8653074242" lon="-6.7131629772">
        <ele>592.79</ele>
        <time>2021-05-29T16:33:30Z</time>
      </trkpt>
      <trkpt lat="37.8652475774" lon="-6.7129555251">
        <ele>592.31</ele>
        <time>2021-05-29T16:33:31Z</time>
      </trkpt>
      <trkpt lat="37.8651738167" lon="-6.7127573770">
        <ele>592.31</ele>
        <time>2021-05-29T16:33:32Z</time>
      </trkpt>
      <trkpt lat="37.8650646843" lon="-6.7123626731">
        <ele>590.39</ele>
        <time>2021-05-29T16:33:34Z</time>
      </trkpt>
      <trkpt lat="37.8650450706" lon="-6.7121452466">
        <ele>589.43</ele>
        <time>2021-05-29T16:33:35Z</time>
      </trkpt>
      <trkpt lat="37.8650425561" lon="-6.7119139060">
        <ele>589.91</ele>
        <time>2021-05-29T16:33:36Z</time>
      </trkpt>
      <trkpt lat="37.8650892433" lon="-6.7112555075">
        <ele>586.06</ele>
        <time>2021-05-29T16:33:39Z</time>
      </trkpt>
      <trkpt lat="37.8651296441" lon="-6.7110826727">
        <ele>583.66</ele>
        <time>2021-05-29T16:33:40Z</time>
      </trkpt>
      <trkpt lat="37.8652003873" lon="-6.7109344807">
        <ele>582.70</ele>
        <time>2021-05-29T16:33:41Z</time>
      </trkpt>
      <trkpt lat="37.8653078433" lon="-6.7107976042">
        <ele>583.18</ele>
        <time>2021-05-29T16:33:42Z</time>
      </trkpt>
      <trkpt lat="37.8657884616" lon="-6.7102236953">
        <ele>579.33</ele>
        <time>2021-05-29T16:33:46Z</time>
      </trkpt>
      <trkpt lat="37.8658903018" lon="-6.7100655288">
        <ele>578.85</ele>
        <time>2021-05-29T16:33:47Z</time>
      </trkpt>
      <trkpt lat="37.8659742884" lon="-6.7098869942">
        <ele>578.85</ele>
        <time>2021-05-29T16:33:48Z</time>
      </trkpt>
      <trkpt lat="37.8660406731" lon="-6.7096982338">
        <ele>577.89</ele>
        <time>2021-05-29T16:33:49Z</time>
      </trkpt>
      <trkpt lat="37.8661647253" lon="-6.7093512230">
        <ele>575.01</ele>
        <time>2021-05-29T16:33:51Z</time>
      </trkpt>
      <trkpt lat="37.8662484605" lon="-6.7092078924">
        <ele>574.04</ele>
        <time>2021-05-29T16:33:52Z</time>
      </trkpt>
      <trkpt lat="37.8663536534" lon="-6.7090933956">
        <ele>573.08</ele>
        <time>2021-05-29T16:33:53Z</time>
      </trkpt>
      <trkpt lat="37.8664781246" lon="-6.7090177070">
        <ele>571.64</ele>
        <time>2021-05-29T16:33:54Z</time>
      </trkpt>
      <trkpt lat="37.8666200303" lon="-6.7089767195">
        <ele>571.16</ele>
        <time>2021-05-29T16:33:55Z</time>
      </trkpt>
      <trkpt lat="37.8667847347" lon="-6.7089527473">
        <ele>572.12</ele>
        <time>2021-05-29T16:33:56Z</time>
      </trkpt>
      <trkpt lat="37.8674871381" lon="-6.7087852769">
        <ele>567.32</ele>
        <time>2021-05-29T16:34:00Z</time>
      </trkpt>
      <trkpt lat="37.8676513396" lon="-6.7087635677">
        <ele>566.83</ele>
        <time>2021-05-29T16:34:01Z</time>
      </trkpt>
      <trkpt lat="37.8678224143" lon="-6.7087644897">
        <ele>566.83</ele>
        <time>2021-05-29T16:34:02Z</time>
      </trkpt>
      <trkpt lat="37.8679999430" lon="-6.7087895516">
        <ele>566.83</ele>
        <time>2021-05-29T16:34:03Z</time>
      </trkpt>
      <trkpt lat="37.8681756277" lon="-6.7088360712">
        <ele>565.39</ele>
        <time>2021-05-29T16:34:04Z</time>
      </trkpt>
      <trkpt lat="37.8683361411" lon="-6.7088989355">
        <ele>563.95</ele>
        <time>2021-05-29T16:34:05Z</time>
      </trkpt>
      <trkpt lat="37.8684791364" lon="-6.7089829221">
        <ele>562.51</ele>
        <time>2021-05-29T16:34:06Z</time>
      </trkpt>
      <trkpt lat="37.8686033562" lon="-6.7090843432">
        <ele>561.55</ele>
        <time>2021-05-29T16:34:07Z</time>
      </trkpt>
      <trkpt lat="37.8687109798" lon="-6.7091806512">
        <ele>559.14</ele>
        <time>2021-05-29T16:34:08Z</time>
      </trkpt>
      <trkpt lat="37.8688073717" lon="-6.7092552502">
        <ele>557.22</ele>
        <time>2021-05-29T16:34:09Z</time>
      </trkpt>
      <trkpt lat="37.8688978124" lon="-6.7092972435">
        <ele>555.78</ele>
        <time>2021-05-29T16:34:10Z</time>
      </trkpt>
      <trkpt lat="37.8689963836" lon="-6.7092968244">
        <ele>555.78</ele>
        <time>2021-05-29T16:34:11Z</time>
      </trkpt>
      <trkpt lat="37.8690970503" lon="-6.7092415038">
        <ele>554.34</ele>
        <time>2021-05-29T16:34:12Z</time>
      </trkpt>
      <trkpt lat="37.8691894189" lon="-6.7091433518">
        <ele>554.82</ele>
        <time>2021-05-29T16:34:13Z</time>
      </trkpt>
      <trkpt lat="37.8692733217" lon="-6.7090441938">
        <ele>554.34</ele>
        <time>2021-05-29T16:34:14Z</time>
      </trkpt>
      <trkpt lat="37.8695104457" lon="-6.7087743804">
        <ele>552.90</ele>
        <time>2021-05-29T16:34:17Z</time>
      </trkpt>
      <trkpt lat="37.8696407843" lon="-6.7086051498">
        <ele>551.93</ele>
        <time>2021-05-29T16:34:19Z</time>
      </trkpt>
      <trkpt lat="37.8696702048" lon="-6.7085099313">
        <ele>550.97</ele>
        <time>2021-05-29T16:34:20Z</time>
      </trkpt>
      <trkpt lat="37.8696642537" lon="-6.7084051576">
        <ele>551.45</ele>
        <time>2021-05-29T16:34:21Z</time>
      </trkpt>
      <trkpt lat="37.8696126211" lon="-6.7082957737">
        <ele>551.93</ele>
        <time>2021-05-29T16:34:22Z</time>
      </trkpt>
      <trkpt lat="37.8695322387" lon="-6.7081839591">
        <ele>552.90</ele>
        <time>2021-05-29T16:34:23Z</time>
      </trkpt>
      <trkpt lat="37.8694322426" lon="-6.7080671992">
        <ele>554.34</ele>
        <time>2021-05-29T16:34:24Z</time>
      </trkpt>
      <trkpt lat="37.8693194222" lon="-6.7079472542">
        <ele>554.82</ele>
        <time>2021-05-29T16:34:25Z</time>
      </trkpt>
      <trkpt lat="37.8689744230" lon="-6.7075989861">
        <ele>554.82</ele>
        <time>2021-05-29T16:34:28Z</time>
      </trkpt>
      <trkpt lat="37.8688333556" lon="-6.7075103894">
        <ele>554.34</ele>
        <time>2021-05-29T16:34:29Z</time>
      </trkpt>
      <trkpt lat="37.8685446829" lon="-6.7073711660">
        <ele>554.34</ele>
        <time>2021-05-29T16:34:31Z</time>
      </trkpt>
      <trkpt lat="37.8684025258" lon="-6.7072646320">
        <ele>555.30</ele>
        <time>2021-05-29T16:34:32Z</time>
      </trkpt>
      <trkpt lat="37.8682602011" lon="-6.7071169429">
        <ele>556.26</ele>
        <time>2021-05-29T16:34:33Z</time>
      </trkpt>
      <trkpt lat="37.8681235760" lon="-6.7069458682">
        <ele>557.22</ele>
        <time>2021-05-29T16:34:34Z</time>
      </trkpt>
      <trkpt lat="37.8679948300" lon="-6.7067637295">
        <ele>556.26</ele>
        <time>2021-05-29T16:34:35Z</time>
      </trkpt>
      <trkpt lat="37.8678758070" lon="-6.7065608874">
        <ele>556.26</ele>
        <time>2021-05-29T16:34:36Z</time>
      </trkpt>
      <trkpt lat="37.8677667584" lon="-6.7063430417">
        <ele>557.22</ele>
        <time>2021-05-29T16:34:37Z</time>
      </trkpt>
      <trkpt lat="37.8675029799" lon="-6.7057486810">
        <ele>551.93</ele>
        <time>2021-05-29T16:34:40Z</time>
      </trkpt>
      <trkpt lat="37.8674565442" lon="-6.7055758461">
        <ele>550.97</ele>
        <time>2021-05-29T16:34:41Z</time>
      </trkpt>
      <trkpt lat="37.8674455639" lon="-6.7053926177">
        <ele>552.41</ele>
        <time>2021-05-29T16:34:42Z</time>
      </trkpt>
      <trkpt lat="37.8674491681" lon="-6.7049907893">
        <ele>552.41</ele>
        <time>2021-05-29T16:34:44Z</time>
      </trkpt>
      <trkpt lat="37.8674274590" lon="-6.7047796492">
        <ele>551.45</ele>
        <time>2021-05-29T16:34:45Z</time>
      </trkpt>
      <trkpt lat="37.8673877288" lon="-6.7045657430">
        <ele>551.45</ele>
        <time>2021-05-29T16:34:46Z</time>
      </trkpt>
      <trkpt lat="37.8673360124" lon="-6.7043626495">
        <ele>550.49</ele>
        <time>2021-05-29T16:34:47Z</time>
      </trkpt>
      <trkpt lat="37.8672721423" lon="-6.7041790020">
        <ele>549.05</ele>
        <time>2021-05-29T16:34:48Z</time>
      </trkpt>
      <trkpt lat="37.8671972081" lon="-6.7040199134">
        <ele>548.09</ele>
        <time>2021-05-29T16:34:49Z</time>
      </trkpt>
      <trkpt lat="37.8671078570" lon="-6.7038973700">
        <ele>546.65</ele>
        <time>2021-05-29T16:34:50Z</time>
      </trkpt>
      <trkpt lat="37.8669983055" lon="-6.7038086895">
        <ele>547.13</ele>
        <time>2021-05-29T16:34:51Z</time>
      </trkpt>
      <trkpt lat="37.8668688890" lon="-6.7037403770">
        <ele>549.05</ele>
        <time>2021-05-29T16:34:52Z</time>
      </trkpt>
      <trkpt lat="37.8667219542" lon="-6.7036791053">
        <ele>550.49</ele>
        <time>2021-05-29T16:34:53Z</time>
      </trkpt>
      <trkpt lat="37.8663124144" lon="-6.7034717370">
        <ele>551.45</ele>
        <time>2021-05-29T16:34:56Z</time>
      </trkpt>
      <trkpt lat="37.8662029468" lon="-6.7033493612">
        <ele>551.93</ele>
        <time>2021-05-29T16:34:57Z</time>
      </trkpt>
      <trkpt lat="37.8660949878" lon="-6.7031875905">
        <ele>553.38</ele>
        <time>2021-05-29T16:34:58Z</time>
      </trkpt>
      <trkpt lat="37.8658485599" lon="-6.7028219718">
        <ele>556.74</ele>
        <time>2021-05-29T16:35:00Z</time>
      </trkpt>
      <trkpt lat="37.8652686998" lon="-6.7021363322">
        <ele>558.66</ele>
        <time>2021-05-29T16:35:04Z</time>
      </trkpt>
      <trkpt lat="37.8650025744" lon="-6.7017985415">
        <ele>556.26</ele>
        <time>2021-05-29T16:35:06Z</time>
      </trkpt>
      <trkpt lat="37.8648926876" lon="-6.7016003095">
        <ele>556.26</ele>
        <time>2021-05-29T16:35:07Z</time>
      </trkpt>
      <trkpt lat="37.8647984751" lon="-6.7013770156">
        <ele>557.70</ele>
        <time>2021-05-29T16:35:08Z</time>
      </trkpt>
      <trkpt lat="37.8644414898" lon="-6.7002670839">
        <ele>556.74</ele>
        <time>2021-05-29T16:35:13Z</time>
      </trkpt>
      <trkpt lat="37.8644067049" lon="-6.7000534292">
        <ele>558.18</ele>
        <time>2021-05-29T16:35:14Z</time>
      </trkpt>
      <trkpt lat="37.8642531484" lon="-6.6987678129">
        <ele>561.55</ele>
        <time>2021-05-29T16:35:19Z</time>
      </trkpt>
      <trkpt lat="37.8641792201" lon="-6.6981953289">
        <ele>564.91</ele>
        <time>2021-05-29T16:35:21Z</time>
      </trkpt>
      <trkpt lat="37.8640464507" lon="-6.6966129933">
        <ele>568.28</ele>
        <time>2021-05-29T16:35:27Z</time>
      </trkpt>
      <trkpt lat="37.8640059661" lon="-6.6955370922">
        <ele>567.32</ele>
        <time>2021-05-29T16:35:31Z</time>
      </trkpt>
      <trkpt lat="37.8640462831" lon="-6.6945233848">
        <ele>566.35</ele>
        <time>2021-05-29T16:35:35Z</time>
      </trkpt>
      <trkpt lat="37.8640871029" lon="-6.6942683235">
        <ele>566.35</ele>
        <time>2021-05-29T16:35:36Z</time>
      </trkpt>
      <trkpt lat="37.8641465306" lon="-6.6940070596">
        <ele>567.80</ele>
        <time>2021-05-29T16:35:37Z</time>
      </trkpt>
      <trkpt lat="37.8644335270" lon="-6.6927961260">
        <ele>566.83</ele>
        <time>2021-05-29T16:35:42Z</time>
      </trkpt>
      <trkpt lat="37.8644512966" lon="-6.6925797891">
        <ele>566.83</ele>
        <time>2021-05-29T16:35:43Z</time>
      </trkpt>
      <trkpt lat="37.8644744307" lon="-6.6921942215">
        <ele>564.91</ele>
        <time>2021-05-29T16:35:45Z</time>
      </trkpt>
      <trkpt lat="37.8645148315" lon="-6.6920212191">
        <ele>564.43</ele>
        <time>2021-05-29T16:35:46Z</time>
      </trkpt>
      <trkpt lat="37.8645887598" lon="-6.6918513179">
        <ele>564.91</ele>
        <time>2021-05-29T16:35:47Z</time>
      </trkpt>
      <trkpt lat="37.8646892589" lon="-6.6916757170">
        <ele>565.87</ele>
        <time>2021-05-29T16:35:48Z</time>
      </trkpt>
      <trkpt lat="37.8647992294" lon="-6.6914931592">
        <ele>566.35</ele>
        <time>2021-05-29T16:35:49Z</time>
      </trkpt>
      <trkpt lat="37.8654916584" lon="-6.6899402440">
        <ele>562.99</ele>
        <time>2021-05-29T16:35:57Z</time>
      </trkpt>
      <trkpt lat="37.8656665888" lon="-6.6893928219">
        <ele>559.14</ele>
        <time>2021-05-29T16:36:00Z</time>
      </trkpt>
      <trkpt lat="37.8657343984" lon="-6.6892216634">
        <ele>558.18</ele>
        <time>2021-05-29T16:36:01Z</time>
      </trkpt>
      <trkpt lat="37.8658272699" lon="-6.6890615690">
        <ele>558.18</ele>
        <time>2021-05-29T16:36:02Z</time>
      </trkpt>
      <trkpt lat="37.8659507353" lon="-6.6889132932">
        <ele>558.18</ele>
        <time>2021-05-29T16:36:03Z</time>
      </trkpt>
      <trkpt lat="37.8668071143" lon="-6.6881546471">
        <ele>556.26</ele>
        <time>2021-05-29T16:36:09Z</time>
      </trkpt>
      <trkpt lat="37.8669720702" lon="-6.6880677268">
        <ele>555.78</ele>
        <time>2021-05-29T16:36:10Z</time>
      </trkpt>
      <trkpt lat="37.8675908223" lon="-6.6877199616">
        <ele>553.86</ele>
        <time>2021-05-29T16:36:14Z</time>
      </trkpt>
      <trkpt lat="37.8677153774" lon="-6.6875953227">
        <ele>553.38</ele>
        <time>2021-05-29T16:36:15Z</time>
      </trkpt>
      <trkpt lat="37.8678270243" lon="-6.6874485556">
        <ele>552.90</ele>
        <time>2021-05-29T16:36:16Z</time>
      </trkpt>
      <trkpt lat="37.8679235000" lon="-6.6872829292">
        <ele>552.41</ele>
        <time>2021-05-29T16:36:17Z</time>
      </trkpt>
      <trkpt lat="37.8680115938" lon="-6.6871085018">
        <ele>551.45</ele>
        <time>2021-05-29T16:36:18Z</time>
      </trkpt>
      <trkpt lat="37.8680824209" lon="-6.6869335715">
        <ele>551.93</ele>
        <time>2021-05-29T16:36:19Z</time>
      </trkpt>
      <trkpt lat="37.8681224864" lon="-6.6867614910">
        <ele>552.41</ele>
        <time>2021-05-29T16:36:20Z</time>
      </trkpt>
      <trkpt lat="37.8681239113" lon="-6.6865924280">
        <ele>551.93</ele>
        <time>2021-05-29T16:36:21Z</time>
      </trkpt>
      <trkpt lat="37.8680945747" lon="-6.6862297431">
        <ele>553.38</ele>
        <time>2021-05-29T16:36:23Z</time>
      </trkpt>
      <trkpt lat="37.8681003582" lon="-6.6860207822">
        <ele>554.34</ele>
        <time>2021-05-29T16:36:24Z</time>
      </trkpt>
      <trkpt lat="37.8681260068" lon="-6.6857948899">
        <ele>554.82</ele>
        <time>2021-05-29T16:36:25Z</time>
      </trkpt>
      <trkpt lat="37.8681871947" lon="-6.6853525769">
        <ele>554.82</ele>
        <time>2021-05-29T16:36:27Z</time>
      </trkpt>
      <trkpt lat="37.8681944031" lon="-6.6851389222">
        <ele>554.34</ele>
        <time>2021-05-29T16:36:28Z</time>
      </trkpt>
      <trkpt lat="37.8682115022" lon="-6.6847104393">
        <ele>554.82</ele>
        <time>2021-05-29T16:36:30Z</time>
      </trkpt>
      <trkpt lat="37.8682504781" lon="-6.6844879836">
        <ele>555.30</ele>
        <time>2021-05-29T16:36:31Z</time>
      </trkpt>
      <trkpt lat="37.8685356304" lon="-6.6833134275">
        <ele>551.93</ele>
        <time>2021-05-29T16:36:37Z</time>
      </trkpt>
      <trkpt lat="37.8686039429" lon="-6.6831540037">
        <ele>551.45</ele>
        <time>2021-05-29T16:36:38Z</time>
      </trkpt>
      <trkpt lat="37.8687022626" lon="-6.6830070689">
        <ele>551.45</ele>
        <time>2021-05-29T16:36:39Z</time>
      </trkpt>
      <trkpt lat="37.8689251374" lon="-6.6827145405">
        <ele>551.93</ele>
        <time>2021-05-29T16:36:41Z</time>
      </trkpt>
      <trkpt lat="37.8690149914" lon="-6.6825461481">
        <ele>552.41</ele>
        <time>2021-05-29T16:36:42Z</time>
      </trkpt>
      <trkpt lat="37.8690762632" lon="-6.6823625006">
        <ele>552.90</ele>
        <time>2021-05-29T16:36:43Z</time>
      </trkpt>
      <trkpt lat="37.8694618307" lon="-6.6811644752">
        <ele>555.78</ele>
        <time>2021-05-29T16:36:50Z</time>
      </trkpt>
      <trkpt lat="37.8695467394" lon="-6.6810385790">
        <ele>556.26</ele>
        <time>2021-05-29T16:36:51Z</time>
      </trkpt>
      <trkpt lat="37.8696577996" lon="-6.6809256747">
        <ele>558.18</ele>
        <time>2021-05-29T16:36:52Z</time>
      </trkpt>
      <trkpt lat="37.8697771579" lon="-6.6808076575">
        <ele>558.66</ele>
        <time>2021-05-29T16:36:53Z</time>
      </trkpt>
      <trkpt lat="37.8703004401" lon="-6.6802837886">
        <ele>559.62</ele>
        <time>2021-05-29T16:36:58Z</time>
      </trkpt>
      <trkpt lat="37.8703964129" lon="-6.6802194156">
        <ele>559.14</ele>
        <time>2021-05-29T16:36:59Z</time>
      </trkpt>
      <trkpt lat="37.8704916313" lon="-6.6801759973">
        <ele>559.14</ele>
        <time>2021-05-29T16:37:00Z</time>
      </trkpt>
      <trkpt lat="37.8705871850" lon="-6.6801252868">
        <ele>558.66</ele>
        <time>2021-05-29T16:37:01Z</time>
      </trkpt>
      <trkpt lat="37.8706703335" lon="-6.6800478380">
        <ele>558.18</ele>
        <time>2021-05-29T16:37:02Z</time>
      </trkpt>
      <trkpt lat="37.8707248997" lon="-6.6799485125">
        <ele>557.22</ele>
        <time>2021-05-29T16:37:03Z</time>
      </trkpt>
      <trkpt lat="37.8707456030" lon="-6.6798260529">
        <ele>556.74</ele>
        <time>2021-05-29T16:37:04Z</time>
      </trkpt>
      <trkpt lat="37.8707257379" lon="-6.6796861589">
        <ele>557.22</ele>
        <time>2021-05-29T16:37:05Z</time>
      </trkpt>
      <trkpt lat="37.8706597723" lon="-6.6795439180">
        <ele>556.74</ele>
        <time>2021-05-29T16:37:06Z</time>
      </trkpt>
      <trkpt lat="37.8705703374" lon="-6.6794054490">
        <ele>557.22</ele>
        <time>2021-05-29T16:37:07Z</time>
      </trkpt>
      <trkpt lat="37.8704737779" lon="-6.6792726796">
        <ele>556.26</ele>
        <time>2021-05-29T16:37:08Z</time>
      </trkpt>
      <trkpt lat="37.8703705128" lon="-6.6791454423">
        <ele>556.74</ele>
        <time>2021-05-29T16:37:09Z</time>
      </trkpt>
      <trkpt lat="37.8702601232" lon="-6.6790362261">
        <ele>556.74</ele>
        <time>2021-05-29T16:37:10Z</time>
      </trkpt>
      <trkpt lat="37.8700358234" lon="-6.6788360663">
        <ele>557.22</ele>
        <time>2021-05-29T16:37:12Z</time>
      </trkpt>
      <trkpt lat="37.8699487355" lon="-6.6786866169">
        <ele>558.18</ele>
        <time>2021-05-29T16:37:13Z</time>
      </trkpt>
      <trkpt lat="37.8698869608" lon="-6.6785144527">
        <ele>557.22</ele>
        <time>2021-05-29T16:37:14Z</time>
      </trkpt>
      <trkpt lat="37.8698416147" lon="-6.6783389356">
        <ele>557.22</ele>
        <time>2021-05-29T16:37:15Z</time>
      </trkpt>
      <trkpt lat="37.8698144574" lon="-6.6781498399">
        <ele>558.18</ele>
        <time>2021-05-29T16:37:16Z</time>
      </trkpt>
      <trkpt lat="37.8698049020" lon="-6.6779512726">
        <ele>558.18</ele>
        <time>2021-05-29T16:37:17Z</time>
      </trkpt>
      <trkpt lat="37.8698091768" lon="-6.6777633503">
        <ele>558.66</ele>
        <time>2021-05-29T16:37:18Z</time>
      </trkpt>
      <trkpt lat="37.8698288742" lon="-6.6775950417">
        <ele>558.18</ele>
        <time>2021-05-29T16:37:19Z</time>
      </trkpt>
      <trkpt lat="37.8698670957" lon="-6.6774428263">
        <ele>558.18</ele>
        <time>2021-05-29T16:37:20Z</time>
      </trkpt>
      <trkpt lat="37.8699217457" lon="-6.6773111466">
        <ele>558.66</ele>
        <time>2021-05-29T16:37:21Z</time>
      </trkpt>
      <trkpt lat="37.8699929919" lon="-6.6772040259">
        <ele>558.66</ele>
        <time>2021-05-29T16:37:22Z</time>
      </trkpt>
      <trkpt lat="37.8700781520" lon="-6.6771084722">
        <ele>559.14</ele>
        <time>2021-05-29T16:37:23Z</time>
      </trkpt>
      <trkpt lat="37.8701743763" lon="-6.6770174447">
        <ele>559.62</ele>
        <time>2021-05-29T16:37:24Z</time>
      </trkpt>
      <trkpt lat="37.8702779766" lon="-6.6769288480">
        <ele>560.59</ele>
        <time>2021-05-29T16:37:25Z</time>
      </trkpt>
      <trkpt lat="37.8707011789" lon="-6.6765603796">
        <ele>564.43</ele>
        <time>2021-05-29T16:37:29Z</time>
      </trkpt>
      <trkpt lat="37.8709930368" lon="-6.6763090063">
        <ele>567.32</ele>
        <time>2021-05-29T16:37:32Z</time>
      </trkpt>
      <trkpt lat="37.8710773587" lon="-6.6762198228">
        <ele>567.80</ele>
        <time>2021-05-29T16:37:33Z</time>
      </trkpt>
      <trkpt lat="37.8711481020" lon="-6.6761190724">
        <ele>568.76</ele>
        <time>2021-05-29T16:37:34Z</time>
      </trkpt>
      <trkpt lat="37.8712053504" lon="-6.6760035697">
        <ele>569.24</ele>
        <time>2021-05-29T16:37:35Z</time>
      </trkpt>
      <trkpt lat="37.8713281453" lon="-6.6757649370">
        <ele>571.64</ele>
        <time>2021-05-29T16:37:37Z</time>
      </trkpt>
      <trkpt lat="37.8714003973" lon="-6.6756542120">
        <ele>572.12</ele>
        <time>2021-05-29T16:37:38Z</time>
      </trkpt>
      <trkpt lat="37.8714748286" lon="-6.6755480133">
        <ele>572.12</ele>
        <time>2021-05-29T16:37:39Z</time>
      </trkpt>
      <trkpt lat="37.8717787564" lon="-6.6751288343">
        <ele>575.97</ele>
        <time>2021-05-29T16:37:43Z</time>
      </trkpt>
      <trkpt lat="37.8718518466" lon="-6.6750429198">
        <ele>575.97</ele>
        <time>2021-05-29T16:37:44Z</time>
      </trkpt>
      <trkpt lat="37.8719308879" lon="-6.6749757808">
        <ele>575.97</ele>
        <time>2021-05-29T16:37:45Z</time>
      </trkpt>
      <trkpt lat="37.8720204905" lon="-6.6749154311">
        <ele>575.97</ele>
        <time>2021-05-29T16:37:46Z</time>
      </trkpt>
      <trkpt lat="37.8721190616" lon="-6.6748598590">
        <ele>575.97</ele>
        <time>2021-05-29T16:37:47Z</time>
      </trkpt>
      <trkpt lat="37.8722198959" lon="-6.6748146806">
        <ele>574.53</ele>
        <time>2021-05-29T16:37:48Z</time>
      </trkpt>
      <trkpt lat="37.8723146114" lon="-6.6747662332">
        <ele>573.56</ele>
        <time>2021-05-29T16:37:49Z</time>
      </trkpt>
      <trkpt lat="37.8723986819" lon="-6.6746953223">
        <ele>572.12</ele>
        <time>2021-05-29T16:37:50Z</time>
      </trkpt>
      <trkpt lat="37.8724704310" lon="-6.6745971702">
        <ele>571.16</ele>
        <time>2021-05-29T16:37:51Z</time>
      </trkpt>
      <trkpt lat="37.8725279309" lon="-6.6744647361">
        <ele>571.16</ele>
        <time>2021-05-29T16:37:52Z</time>
      </trkpt>
      <trkpt lat="37.8725706786" lon="-6.6743078269">
        <ele>571.64</ele>
        <time>2021-05-29T16:37:53Z</time>
      </trkpt>
      <trkpt lat="37.8725980036" lon="-6.6741428711">
        <ele>572.12</ele>
        <time>2021-05-29T16:37:54Z</time>
      </trkpt>
      <trkpt lat="37.8726113308" lon="-6.6739717964">
        <ele>572.12</ele>
        <time>2021-05-29T16:37:55Z</time>
      </trkpt>
      <trkpt lat="37.8726144321" lon="-6.6737919208">
        <ele>573.56</ele>
        <time>2021-05-29T16:37:56Z</time>
      </trkpt>
      <trkpt lat="37.8726100735" lon="-6.6736148950">
        <ele>573.56</ele>
        <time>2021-05-29T16:37:57Z</time>
      </trkpt>
      <trkpt lat="37.8726265859" lon="-6.6731057782">
        <ele>574.04</ele>
        <time>2021-05-29T16:38:00Z</time>
      </trkpt>
      <trkpt lat="37.8726768773" lon="-6.6729344521">
        <ele>574.53</ele>
        <time>2021-05-29T16:38:01Z</time>
      </trkpt>
      <trkpt lat="37.8727565054" lon="-6.6727642994">
        <ele>575.97</ele>
        <time>2021-05-29T16:38:02Z</time>
      </trkpt>
      <trkpt lat="37.8731395584" lon="-6.6720934957">
        <ele>579.81</ele>
        <time>2021-05-29T16:38:06Z</time>
      </trkpt>
      <trkpt lat="37.8736004792" lon="-6.6714174952">
        <ele>580.29</ele>
        <time>2021-05-29T16:38:11Z</time>
      </trkpt>
      <trkpt lat="37.8740006313" lon="-6.6709023435">
        <ele>583.18</ele>
        <time>2021-05-29T16:38:18Z</time>
      </trkpt>
      <trkpt lat="37.8742457181" lon="-6.6705892794">
        <ele>585.10</ele>
        <time>2021-05-29T16:38:21Z</time>
      </trkpt>
      <trkpt lat="37.8746141028" lon="-6.6701001115">
        <ele>586.54</ele>
        <time>2021-05-29T16:38:25Z</time>
      </trkpt>
      <trkpt lat="37.8746838402" lon="-6.6699531768">
        <ele>586.54</ele>
        <time>2021-05-29T16:38:26Z</time>
      </trkpt>
      <trkpt lat="37.8747307789" lon="-6.6697883885">
        <ele>587.50</ele>
        <time>2021-05-29T16:38:27Z</time>
      </trkpt>
      <trkpt lat="37.8747608699" lon="-6.6696112789">
        <ele>587.98</ele>
        <time>2021-05-29T16:38:28Z</time>
      </trkpt>
      <trkpt lat="37.8747795615" lon="-6.6694261227">
        <ele>589.43</ele>
        <time>2021-05-29T16:38:29Z</time>
      </trkpt>
      <trkpt lat="37.8747898713" lon="-6.6692362726">
        <ele>589.91</ele>
        <time>2021-05-29T16:38:30Z</time>
      </trkpt>
      <trkpt lat="37.8747918829" lon="-6.6690568160">
        <ele>589.91</ele>
        <time>2021-05-29T16:38:31Z</time>
      </trkpt>
      <trkpt lat="37.8747864347" lon="-6.6688926145">
        <ele>589.91</ele>
        <time>2021-05-29T16:38:32Z</time>
      </trkpt>
      <trkpt lat="37.8747832496" lon="-6.6687392257">
        <ele>590.39</ele>
        <time>2021-05-29T16:38:33Z</time>
      </trkpt>
      <trkpt lat="37.8748004325" lon="-6.6685865074">
        <ele>591.35</ele>
        <time>2021-05-29T16:38:34Z</time>
      </trkpt>
      <trkpt lat="37.8748490475" lon="-6.6684338730">
        <ele>591.83</ele>
        <time>2021-05-29T16:38:35Z</time>
      </trkpt>
      <trkpt lat="37.8749280050" lon="-6.6682871059">
        <ele>593.75</ele>
        <time>2021-05-29T16:38:36Z</time>
      </trkpt>
      <trkpt lat="37.8750302643" lon="-6.6681365669">
        <ele>595.67</ele>
        <time>2021-05-29T16:38:37Z</time>
      </trkpt>
      <trkpt lat="37.8751375526" lon="-6.6679732874">
        <ele>597.12</ele>
        <time>2021-05-29T16:38:38Z</time>
      </trkpt>
      <trkpt lat="37.8752410691" lon="-6.6677898914">
        <ele>599.04</ele>
        <time>2021-05-29T16:38:39Z</time>
      </trkpt>
      <trkpt lat="37.8753386345" lon="-6.6675936710">
        <ele>600.00</ele>
        <time>2021-05-29T16:38:40Z</time>
      </trkpt>
      <trkpt lat="37.8754329309" lon="-6.6673903260">
        <ele>601.44</ele>
        <time>2021-05-29T16:38:41Z</time>
      </trkpt>
      <trkpt lat="37.8755297419" lon="-6.6671835445">
        <ele>601.44</ele>
        <time>2021-05-29T16:38:42Z</time>
      </trkpt>
      <trkpt lat="37.8758407105" lon="-6.6666149162">
        <ele>604.33</ele>
        <time>2021-05-29T16:38:45Z</time>
      </trkpt>
      <trkpt lat="37.8759616613" lon="-6.6664584260">
        <ele>605.29</ele>
        <time>2021-05-29T16:38:46Z</time>
      </trkpt>
      <trkpt lat="37.8760955203" lon="-6.6663193703">
        <ele>607.21</ele>
        <time>2021-05-29T16:38:47Z</time>
      </trkpt>
      <trkpt lat="37.8763743863" lon="-6.6660672426">
        <ele>610.57</ele>
        <time>2021-05-29T16:38:49Z</time>
      </trkpt>
      <trkpt lat="37.8770022746" lon="-6.6654739715">
        <ele>612.50</ele>
        <time>2021-05-29T16:38:54Z</time>
      </trkpt>
      <trkpt lat="37.8770794719" lon="-6.6653536074">
        <ele>612.98</ele>
        <time>2021-05-29T16:38:55Z</time>
      </trkpt>
      <trkpt lat="37.8771398216" lon="-6.6652168147">
        <ele>613.94</ele>
        <time>2021-05-29T16:38:56Z</time>
      </trkpt>
      <trkpt lat="37.8771877661" lon="-6.6650617495">
        <ele>615.38</ele>
        <time>2021-05-29T16:38:57Z</time>
      </trkpt>
      <trkpt lat="37.8772288375" lon="-6.6648907587">
        <ele>616.82</ele>
        <time>2021-05-29T16:38:58Z</time>
      </trkpt>
      <trkpt lat="37.8772691544" lon="-6.6647040937">
        <ele>617.78</ele>
        <time>2021-05-29T16:38:59Z</time>
      </trkpt>
      <trkpt lat="37.8773613553" lon="-6.6643093899">
        <ele>621.15</ele>
        <time>2021-05-29T16:39:01Z</time>
      </trkpt>
      <trkpt lat="37.8775039315" lon="-6.6637001093">
        <ele>625.96</ele>
        <time>2021-05-29T16:39:04Z</time>
      </trkpt>
      <trkpt lat="37.8776562307" lon="-6.6630581394">
        <ele>628.36</ele>
        <time>2021-05-29T16:39:07Z</time>
      </trkpt>
      <trkpt lat="37.8777541313" lon="-6.6622065380">
        <ele>624.51</ele>
        <time>2021-05-29T16:39:12Z</time>
      </trkpt>
      <trkpt lat="37.8777626809" lon="-6.6620910354">
        <ele>624.03</ele>
        <time>2021-05-29T16:39:13Z</time>
      </trkpt>
      <trkpt lat="37.8778137267" lon="-6.6618558392">
        <ele>624.51</ele>
        <time>2021-05-29T16:39:15Z</time>
      </trkpt>
      <trkpt lat="37.8778775129" lon="-6.6617359780">
        <ele>625.47</ele>
        <time>2021-05-29T16:39:16Z</time>
      </trkpt>
      <trkpt lat="37.8779612482" lon="-6.6616207268">
        <ele>625.96</ele>
        <time>2021-05-29T16:39:17Z</time>
      </trkpt>
      <trkpt lat="37.8780459054" lon="-6.6615048889">
        <ele>625.96</ele>
        <time>2021-05-29T16:39:18Z</time>
      </trkpt>
      <trkpt lat="37.8781178221" lon="-6.6613842733">
        <ele>626.44</ele>
        <time>2021-05-29T16:39:19Z</time>
      </trkpt>
      <trkpt lat="37.8781783395" lon="-6.6612515878">
        <ele>625.47</ele>
        <time>2021-05-29T16:39:20Z</time>
      </trkpt>
      <trkpt lat="37.8782279603" lon="-6.6611032281">
        <ele>626.44</ele>
        <time>2021-05-29T16:39:21Z</time>
      </trkpt>
      <trkpt lat="37.8782702889" lon="-6.6609378532">
        <ele>627.88</ele>
        <time>2021-05-29T16:39:22Z</time>
      </trkpt>
      <trkpt lat="37.8783111088" lon="-6.6607552115">
        <ele>628.84</ele>
        <time>2021-05-29T16:39:23Z</time>
      </trkpt>
      <trkpt lat="37.8784610610" lon="-6.6601673886">
        <ele>632.20</ele>
        <time>2021-05-29T16:39:26Z</time>
      </trkpt>
      <trkpt lat="37.8786483128" lon="-6.6595395841">
        <ele>634.13</ele>
        <time>2021-05-29T16:39:29Z</time>
      </trkpt>
      <trkpt lat="37.8788895439" lon="-6.6586561315">
        <ele>638.93</ele>
        <time>2021-05-29T16:39:33Z</time>
      </trkpt>
      <trkpt lat="37.8789505642" lon="-6.6584410518">
        <ele>638.93</ele>
        <time>2021-05-29T16:39:34Z</time>
      </trkpt>
      <trkpt lat="37.8790489677" lon="-6.6580216214">
        <ele>639.41</ele>
        <time>2021-05-29T16:39:36Z</time>
      </trkpt>
      <trkpt lat="37.8790718503" lon="-6.6578077152">
        <ele>640.38</ele>
        <time>2021-05-29T16:39:37Z</time>
      </trkpt>
      <trkpt lat="37.8790791426" lon="-6.6575914621">
        <ele>640.38</ele>
        <time>2021-05-29T16:39:38Z</time>
      </trkpt>
      <trkpt lat="37.8790855967" lon="-6.6571984347">
        <ele>641.34</ele>
        <time>2021-05-29T16:39:40Z</time>
      </trkpt>
      <trkpt lat="37.8791215550" lon="-6.6570080817">
        <ele>642.30</ele>
        <time>2021-05-29T16:39:41Z</time>
      </trkpt>
      <trkpt lat="37.8791938908" lon="-6.6568207461">
        <ele>643.74</ele>
        <time>2021-05-29T16:39:42Z</time>
      </trkpt>
      <trkpt lat="37.8792958148" lon="-6.6566493362">
        <ele>644.70</ele>
        <time>2021-05-29T16:39:43Z</time>
      </trkpt>
      <trkpt lat="37.8794074617" lon="-6.6564864758">
        <ele>645.18</ele>
        <time>2021-05-29T16:39:44Z</time>
      </trkpt>
      <trkpt lat="37.8795105591" lon="-6.6563217714">
        <ele>645.18</ele>
        <time>2021-05-29T16:39:45Z</time>
      </trkpt>
      <trkpt lat="37.8795926180" lon="-6.6561465897">
        <ele>645.18</ele>
        <time>2021-05-29T16:39:46Z</time>
      </trkpt>
      <trkpt lat="37.8796580806" lon="-6.6559537221">
        <ele>646.62</ele>
        <time>2021-05-29T16:39:47Z</time>
      </trkpt>
      <trkpt lat="37.8797105514" lon="-6.6557484493">
        <ele>648.07</ele>
        <time>2021-05-29T16:39:48Z</time>
      </trkpt>
      <trkpt lat="37.8797548078" lon="-6.6555459425">
        <ele>648.55</ele>
        <time>2021-05-29T16:39:49Z</time>
      </trkpt>
      <trkpt lat="37.8798506130" lon="-6.6551996861">
        <ele>646.14</ele>
        <time>2021-05-29T16:39:51Z</time>
      </trkpt>
      <trkpt lat="37.8799173329" lon="-6.6550832614">
        <ele>645.66</ele>
        <time>2021-05-29T16:39:52Z</time>
      </trkpt>
      <trkpt lat="37.8800148144" lon="-6.6550335567">
        <ele>647.10</ele>
        <time>2021-05-29T16:39:53Z</time>
      </trkpt>
      <trkpt lat="37.8801310714" lon="-6.6549999453">
        <ele>648.07</ele>
        <time>2021-05-29T16:39:54Z</time>
      </trkpt>
      <trkpt lat="37.8802421317" lon="-6.6549417749">
        <ele>649.03</ele>
        <time>2021-05-29T16:39:55Z</time>
      </trkpt>
      <trkpt lat="37.8803386074" lon="-6.6548458021">
        <ele>650.47</ele>
        <time>2021-05-29T16:39:56Z</time>
      </trkpt>
      <trkpt lat="37.8804103564" lon="-6.6547186486">
        <ele>651.43</ele>
        <time>2021-05-29T16:39:57Z</time>
      </trkpt>
      <trkpt lat="37.8804614861" lon="-6.6545517650">
        <ele>653.83</ele>
        <time>2021-05-29T16:39:58Z</time>
      </trkpt>
      <trkpt lat="37.8805111907" lon="-6.6543564666">
        <ele>655.76</ele>
        <time>2021-05-29T16:39:59Z</time>
      </trkpt>
      <trkpt lat="37.8807717003" lon="-6.6533212177">
        <ele>659.12</ele>
        <time>2021-05-29T16:40:05Z</time>
      </trkpt>
      <trkpt lat="37.8808444552" lon="-6.6532021947">
        <ele>660.08</ele>
        <time>2021-05-29T16:40:06Z</time>
      </trkpt>
      <trkpt lat="37.8809396736" lon="-6.6531109158">
        <ele>661.52</ele>
        <time>2021-05-29T16:40:07Z</time>
      </trkpt>
      <trkpt lat="37.8810400888" lon="-6.6530358978">
        <ele>661.52</ele>
        <time>2021-05-29T16:40:08Z</time>
      </trkpt>
      <trkpt lat="37.8811361454" lon="-6.6529783141">
        <ele>661.52</ele>
        <time>2021-05-29T16:40:09Z</time>
      </trkpt>
      <trkpt lat="37.8812211379" lon="-6.6529188864">
        <ele>662.01</ele>
        <time>2021-05-29T16:40:10Z</time>
      </trkpt>
      <trkpt lat="37.8812811524" lon="-6.6528369952">
        <ele>663.45</ele>
        <time>2021-05-29T16:40:11Z</time>
      </trkpt>
      <trkpt lat="37.8813073039" lon="-6.6527291201">
        <ele>663.93</ele>
        <time>2021-05-29T16:40:12Z</time>
      </trkpt>
      <trkpt lat="37.8812921327" lon="-6.6526069120">
        <ele>664.41</ele>
        <time>2021-05-29T16:40:13Z</time>
      </trkpt>
      <trkpt lat="37.8812322021" lon="-6.6525064129">
        <ele>664.41</ele>
        <time>2021-05-29T16:40:14Z</time>
      </trkpt>
      <trkpt lat="37.8811358102" lon="-6.6524449736">
        <ele>665.85</ele>
        <time>2021-05-29T16:40:15Z</time>
      </trkpt>
      <trkpt lat="37.8810375743" lon="-6.6524054948">
        <ele>666.81</ele>
        <time>2021-05-29T16:40:16Z</time>
      </trkpt>
      <trkpt lat="37.8809498157" lon="-6.6523591429">
        <ele>667.29</ele>
        <time>2021-05-29T16:40:17Z</time>
      </trkpt>
      <trkpt lat="37.8808714449" lon="-6.6522891540">
        <ele>667.29</ele>
        <time>2021-05-29T16:40:18Z</time>
      </trkpt>
      <trkpt lat="37.8808139451" lon="-6.6521998867">
        <ele>667.77</ele>
        <time>2021-05-29T16:40:19Z</time>
      </trkpt>
      <trkpt lat="37.8807794116" lon="-6.6521053389">
        <ele>667.77</ele>
        <time>2021-05-29T16:40:20Z</time>
      </trkpt>
      <trkpt lat="37.8807690181" lon="-6.6520046722">
        <ele>669.22</ele>
        <time>2021-05-29T16:40:21Z</time>
      </trkpt>
      <trkpt lat="37.8807777353" lon="-6.6518926062">
        <ele>670.18</ele>
        <time>2021-05-29T16:40:22Z</time>
      </trkpt>
      <trkpt lat="37.8808358219" lon="-6.6517429892">
        <ele>670.18</ele>
        <time>2021-05-29T16:40:23Z</time>
      </trkpt>
      <trkpt lat="37.8808721155" lon="-6.6515820567">
        <ele>670.18</ele>
        <time>2021-05-29T16:40:24Z</time>
      </trkpt>
      <trkpt lat="37.8808664996" lon="-6.6514276620">
        <ele>671.62</ele>
        <time>2021-05-29T16:40:25Z</time>
      </trkpt>
      <trkpt lat="37.8808240872" lon="-6.6513014305">
        <ele>672.10</ele>
        <time>2021-05-29T16:40:26Z</time>
      </trkpt>
      <trkpt lat="37.8807188943" lon="-6.6509851813">
        <ele>672.58</ele>
        <time>2021-05-29T16:40:29Z</time>
      </trkpt>
      <trkpt lat="37.8807521705" lon="-6.6508405097">
        <ele>673.54</ele>
        <time>2021-05-29T16:40:30Z</time>
      </trkpt>
      <trkpt lat="37.8808106761" lon="-6.6507224925">
        <ele>673.54</ele>
        <time>2021-05-29T16:40:31Z</time>
      </trkpt>
      <trkpt lat="37.8808921482" lon="-6.6506307945">
        <ele>674.50</ele>
        <time>2021-05-29T16:40:32Z</time>
      </trkpt>
      <trkpt lat="37.8809904680" lon="-6.6505569499">
        <ele>675.46</ele>
        <time>2021-05-29T16:40:33Z</time>
      </trkpt>
      <trkpt lat="37.8810930625" lon="-6.6504920740">
        <ele>675.46</ele>
        <time>2021-05-29T16:40:34Z</time>
      </trkpt>
      <trkpt lat="37.8811788931" lon="-6.6504215822">
        <ele>674.98</ele>
        <time>2021-05-29T16:40:35Z</time>
      </trkpt>
      <trkpt lat="37.8812374827" lon="-6.6503294650">
        <ele>674.98</ele>
        <time>2021-05-29T16:40:36Z</time>
      </trkpt>
      <trkpt lat="37.8812630475" lon="-6.6502217576">
        <ele>674.98</ele>
        <time>2021-05-29T16:40:37Z</time>
      </trkpt>
      <trkpt lat="37.8812636342" lon="-6.6500982083">
        <ele>675.94</ele>
        <time>2021-05-29T16:40:38Z</time>
      </trkpt>
      <trkpt lat="37.8812447749" lon="-6.6499547940">
        <ele>676.91</ele>
        <time>2021-05-29T16:40:39Z</time>
      </trkpt>
      <trkpt lat="37.8812127560" lon="-6.6497972142">
        <ele>678.35</ele>
        <time>2021-05-29T16:40:40Z</time>
      </trkpt>
      <trkpt lat="37.8811703436" lon="-6.6496285703">
        <ele>678.35</ele>
        <time>2021-05-29T16:40:41Z</time>
      </trkpt>
      <trkpt lat="37.8810636420" lon="-6.6491558310">
        <ele>678.83</ele>
        <time>2021-05-29T16:40:44Z</time>
      </trkpt>
      <trkpt lat="37.8810655698" lon="-6.6489845049">
        <ele>678.83</ele>
        <time>2021-05-29T16:40:45Z</time>
      </trkpt>
      <trkpt lat="37.8810728621" lon="-6.6486497317">
        <ele>680.27</ele>
        <time>2021-05-29T16:40:47Z</time>
      </trkpt>
      <trkpt lat="37.8810457047" lon="-6.6484961752">
        <ele>681.23</ele>
        <time>2021-05-29T16:40:48Z</time>
      </trkpt>
      <trkpt lat="37.8809906356" lon="-6.6483668424">
        <ele>680.75</ele>
        <time>2021-05-29T16:40:49Z</time>
      </trkpt>
      <trkpt lat="37.8809049726" lon="-6.6482608952">
        <ele>681.23</ele>
        <time>2021-05-29T16:40:50Z</time>
      </trkpt>
      <trkpt lat="37.8808072396" lon="-6.6481586359">
        <ele>682.19</ele>
        <time>2021-05-29T16:40:51Z</time>
      </trkpt>
      <trkpt lat="37.8807204869" lon="-6.6480351705">
        <ele>682.67</ele>
        <time>2021-05-29T16:40:52Z</time>
      </trkpt>
      <trkpt lat="37.8806532640" lon="-6.6478950251">
        <ele>684.12</ele>
        <time>2021-05-29T16:40:53Z</time>
      </trkpt>
      <trkpt lat="37.8806125280" lon="-6.6477425583">
        <ele>684.60</ele>
        <time>2021-05-29T16:40:54Z</time>
      </trkpt>
      <trkpt lat="37.8806091752" lon="-6.6475799493">
        <ele>685.56</ele>
        <time>2021-05-29T16:40:55Z</time>
      </trkpt>
      <trkpt lat="37.8806421161" lon="-6.6474184301">
        <ele>687.96</ele>
        <time>2021-05-29T16:40:56Z</time>
      </trkpt>
      <trkpt lat="37.8806968499" lon="-6.6472629458">
        <ele>689.40</ele>
        <time>2021-05-29T16:40:57Z</time>
      </trkpt>
      <trkpt lat="37.8807502426" lon="-6.6471180227">
        <ele>689.40</ele>
        <time>2021-05-29T16:40:58Z</time>
      </trkpt>
      <trkpt lat="37.8807898052" lon="-6.6469822358">
        <ele>689.88</ele>
        <time>2021-05-29T16:40:59Z</time>
      </trkpt>
      <trkpt lat="37.8808200639" lon="-6.6468411684">
        <ele>689.88</ele>
        <time>2021-05-29T16:41:00Z</time>
      </trkpt>
      <trkpt lat="37.8808379173" lon="-6.6466977540">
        <ele>689.88</ele>
        <time>2021-05-29T16:41:01Z</time>
      </trkpt>
      <trkpt lat="37.8808437008" lon="-6.6465685051">
        <ele>690.36</ele>
        <time>2021-05-29T16:41:02Z</time>
      </trkpt>
      <trkpt lat="37.8808454610" lon="-6.6464540083">
        <ele>690.36</ele>
        <time>2021-05-29T16:41:03Z</time>
      </trkpt>
      <trkpt lat="37.8808574472" lon="-6.6461126134">
        <ele>691.33</ele>
        <time>2021-05-29T16:41:06Z</time>
      </trkpt>
      <trkpt lat="37.8808979318" lon="-6.6459831968">
        <ele>691.81</ele>
        <time>2021-05-29T16:41:07Z</time>
      </trkpt>
      <trkpt lat="37.8809663281" lon="-6.6458708793">
        <ele>691.33</ele>
        <time>2021-05-29T16:41:08Z</time>
      </trkpt>
      <trkpt lat="37.8810587805" lon="-6.6457839590">
        <ele>691.33</ele>
        <time>2021-05-29T16:41:09Z</time>
      </trkpt>
      <trkpt lat="37.8811705951" lon="-6.6457081866">
        <ele>691.81</ele>
        <time>2021-05-29T16:41:10Z</time>
      </trkpt>
      <trkpt lat="37.8812934738" lon="-6.6456407122">
        <ele>692.77</ele>
        <time>2021-05-29T16:41:11Z</time>
      </trkpt>
      <trkpt lat="37.8814151790" lon="-6.6455703042">
        <ele>691.33</ele>
        <time>2021-05-29T16:41:12Z</time>
      </trkpt>
      <trkpt lat="37.8815207072" lon="-6.6454792768">
        <ele>689.40</ele>
        <time>2021-05-29T16:41:13Z</time>
      </trkpt>
      <trkpt lat="37.8816079628" lon="-6.6453527939">
        <ele>688.44</ele>
        <time>2021-05-29T16:41:14Z</time>
      </trkpt>
      <trkpt lat="37.8816814721" lon="-6.6451865807">
        <ele>687.96</ele>
        <time>2021-05-29T16:41:15Z</time>
      </trkpt>
      <trkpt lat="37.8817486949" lon="-6.6450118180">
        <ele>688.44</ele>
        <time>2021-05-29T16:41:16Z</time>
      </trkpt>
      <trkpt lat="37.8817991540" lon="-6.6448426712">
        <ele>687.00</ele>
        <time>2021-05-29T16:41:17Z</time>
      </trkpt>
      <trkpt lat="37.8818175942" lon="-6.6446715128">
        <ele>686.04</ele>
        <time>2021-05-29T16:41:18Z</time>
      </trkpt>
      <trkpt lat="37.8817967232" lon="-6.6444984265">
        <ele>684.12</ele>
        <time>2021-05-29T16:41:19Z</time>
      </trkpt>
      <trkpt lat="37.8817419894" lon="-6.6443304531">
        <ele>684.12</ele>
        <time>2021-05-29T16:41:20Z</time>
      </trkpt>
      <trkpt lat="37.8816796280" lon="-6.6441720352">
        <ele>682.67</ele>
        <time>2021-05-29T16:41:21Z</time>
      </trkpt>
      <trkpt lat="37.8816439211" lon="-6.6440147907">
        <ele>681.23</ele>
        <time>2021-05-29T16:41:22Z</time>
      </trkpt>
      <trkpt lat="37.8816515487" lon="-6.6438458953">
        <ele>680.27</ele>
        <time>2021-05-29T16:41:23Z</time>
      </trkpt>
      <trkpt lat="37.8816998284" lon="-6.6436666064">
        <ele>680.75</ele>
        <time>2021-05-29T16:41:24Z</time>
      </trkpt>
      <trkpt lat="37.8817776963" lon="-6.6434766725">
        <ele>681.23</ele>
        <time>2021-05-29T16:41:25Z</time>
      </trkpt>
      <trkpt lat="37.8818648681" lon="-6.6432895046">
        <ele>679.31</ele>
        <time>2021-05-29T16:41:26Z</time>
      </trkpt>
      <trkpt lat="37.8819322586" lon="-6.6431074496">
        <ele>677.39</ele>
        <time>2021-05-29T16:41:27Z</time>
      </trkpt>
      <trkpt lat="37.8819602542" lon="-6.6429223772">
        <ele>675.46</ele>
        <time>2021-05-29T16:41:28Z</time>
      </trkpt>
      <trkpt lat="37.8819520399" lon="-6.6427304316">
        <ele>675.46</ele>
        <time>2021-05-29T16:41:29Z</time>
      </trkpt>
      <trkpt lat="37.8819216974" lon="-6.6421724483">
        <ele>672.58</ele>
        <time>2021-05-29T16:41:32Z</time>
      </trkpt>
      <trkpt lat="37.8819648642" lon="-6.6420027986">
        <ele>671.14</ele>
        <time>2021-05-29T16:41:33Z</time>
      </trkpt>
      <trkpt lat="37.8820492700" lon="-6.6418563668">
        <ele>670.66</ele>
        <time>2021-05-29T16:41:34Z</time>
      </trkpt>
      <trkpt lat="37.8821553010" lon="-6.6417251062">
        <ele>670.18</ele>
        <time>2021-05-29T16:41:35Z</time>
      </trkpt>
      <trkpt lat="37.8822502680" lon="-6.6415997129">
        <ele>668.73</ele>
        <time>2021-05-29T16:41:36Z</time>
      </trkpt>
      <trkpt lat="37.8823108692" lon="-6.6414610762">
        <ele>667.29</ele>
        <time>2021-05-29T16:41:37Z</time>
      </trkpt>
      <trkpt lat="37.8823372722" lon="-6.6413107887">
        <ele>665.85</ele>
        <time>2021-05-29T16:41:38Z</time>
      </trkpt>
      <trkpt lat="37.8823282197" lon="-6.6411501076">
        <ele>665.85</ele>
        <time>2021-05-29T16:41:39Z</time>
      </trkpt>
      <trkpt lat="37.8823101986" lon="-6.6409740038">
        <ele>664.89</ele>
        <time>2021-05-29T16:41:40Z</time>
      </trkpt>
      <trkpt lat="37.8823202569" lon="-6.6407830641">
        <ele>665.85</ele>
        <time>2021-05-29T16:41:41Z</time>
      </trkpt>
      <trkpt lat="37.8823631722" lon="-6.6405783780">
        <ele>665.85</ele>
        <time>2021-05-29T16:41:42Z</time>
      </trkpt>
      <trkpt lat="37.8824243601" lon="-6.6403600294">
        <ele>666.33</ele>
        <time>2021-05-29T16:41:43Z</time>
      </trkpt>
      <trkpt lat="37.8826195747" lon="-6.6396862920">
        <ele>662.97</ele>
        <time>2021-05-29T16:41:46Z</time>
      </trkpt>
      <trkpt lat="37.8826595563" lon="-6.6394676082">
        <ele>661.52</ele>
        <time>2021-05-29T16:41:47Z</time>
      </trkpt>
      <trkpt lat="37.8826709557" lon="-6.6392398719">
        <ele>661.04</ele>
        <time>2021-05-29T16:41:48Z</time>
      </trkpt>
      <trkpt lat="37.8826558683" lon="-6.6390086990">
        <ele>661.04</ele>
        <time>2021-05-29T16:41:49Z</time>
      </trkpt>
      <trkpt lat="37.8826207481" lon="-6.6387780290">
        <ele>659.60</ele>
        <time>2021-05-29T16:41:50Z</time>
      </trkpt>
      <trkpt lat="37.8825650085" lon="-6.6385584231">
        <ele>657.20</ele>
        <time>2021-05-29T16:41:51Z</time>
      </trkpt>
      <trkpt lat="37.8824889846" lon="-6.6383637954">
        <ele>655.28</ele>
        <time>2021-05-29T16:41:52Z</time>
      </trkpt>
      <trkpt lat="37.8824101947" lon="-6.6381939780">
        <ele>652.87</ele>
        <time>2021-05-29T16:41:53Z</time>
      </trkpt>
      <trkpt lat="37.8823509347" lon="-6.6380400863">
        <ele>651.43</ele>
        <time>2021-05-29T16:41:54Z</time>
      </trkpt>
      <trkpt lat="37.8823265433" lon="-6.6378965881">
        <ele>650.47</ele>
        <time>2021-05-29T16:41:55Z</time>
      </trkpt>
      <trkpt lat="37.8823498450" lon="-6.6377561912">
        <ele>649.99</ele>
        <time>2021-05-29T16:41:56Z</time>
      </trkpt>
      <trkpt lat="37.8824158944" lon="-6.6376195662">
        <ele>650.47</ele>
        <time>2021-05-29T16:41:57Z</time>
      </trkpt>
      <trkpt lat="37.8825182375" lon="-6.6374795046">
        <ele>651.43</ele>
        <time>2021-05-29T16:41:58Z</time>
      </trkpt>
      <trkpt lat="37.8826237656" lon="-6.6373156384">
        <ele>650.95</ele>
        <time>2021-05-29T16:41:59Z</time>
      </trkpt>
      <trkpt lat="37.8827122785" lon="-6.6371399537">
        <ele>650.47</ele>
        <time>2021-05-29T16:42:00Z</time>
      </trkpt>
      <trkpt lat="37.8827636596" lon="-6.6369531211">
        <ele>648.55</ele>
        <time>2021-05-29T16:42:01Z</time>
      </trkpt>
      <trkpt lat="37.8827790823" lon="-6.6367486026">
        <ele>647.59</ele>
        <time>2021-05-29T16:42:02Z</time>
      </trkpt>
      <trkpt lat="37.8827736340" lon="-6.6365305893">
        <ele>647.59</ele>
        <time>2021-05-29T16:42:03Z</time>
      </trkpt>
      <trkpt lat="37.8827603068" lon="-6.6363150068">
        <ele>647.10</ele>
        <time>2021-05-29T16:42:04Z</time>
      </trkpt>
      <trkpt lat="37.8827332333" lon="-6.6359113343">
        <ele>643.74</ele>
        <time>2021-05-29T16:42:06Z</time>
      </trkpt>
      <trkpt lat="37.8827385139" lon="-6.6353547759">
        <ele>640.38</ele>
        <time>2021-05-29T16:42:09Z</time>
      </trkpt>
      <trkpt lat="37.8827624861" lon="-6.6351663508">
        <ele>640.38</ele>
        <time>2021-05-29T16:42:10Z</time>
      </trkpt>
      <trkpt lat="37.8827999532" lon="-6.6349770874">
        <ele>639.41</ele>
        <time>2021-05-29T16:42:11Z</time>
      </trkpt>
      <trkpt lat="37.8829454631" lon="-6.6342946328">
        <ele>636.05</ele>
        <time>2021-05-29T16:42:15Z</time>
      </trkpt>
      <trkpt lat="37.8830184694" lon="-6.6339021083">
        <ele>632.20</ele>
        <time>2021-05-29T16:42:18Z</time>
      </trkpt>
      <trkpt lat="37.8830196429" lon="-6.6337825824">
        <ele>631.24</ele>
        <time>2021-05-29T16:42:19Z</time>
      </trkpt>
      <trkpt lat="37.8829913121" lon="-6.6336726118">
        <ele>630.76</ele>
        <time>2021-05-29T16:42:20Z</time>
      </trkpt>
      <trkpt lat="37.8829327226" lon="-6.6335869487">
        <ele>630.76</ele>
        <time>2021-05-29T16:42:21Z</time>
      </trkpt>
      <trkpt lat="37.8828494903" lon="-6.6335221566">
        <ele>630.28</ele>
        <time>2021-05-29T16:42:22Z</time>
      </trkpt>
      <trkpt lat="37.8827608097" lon="-6.6334608011">
        <ele>629.32</ele>
        <time>2021-05-29T16:42:23Z</time>
      </trkpt>
      <trkpt lat="37.8826877195" lon="-6.6333817597">
        <ele>628.36</ele>
        <time>2021-05-29T16:42:24Z</time>
      </trkpt>
      <trkpt lat="37.8826443013" lon="-6.6332817636">
        <ele>627.40</ele>
        <time>2021-05-29T16:42:25Z</time>
      </trkpt>
      <trkpt lat="37.8826386854" lon="-6.6331660096">
        <ele>626.44</ele>
        <time>2021-05-29T16:42:26Z</time>
      </trkpt>
      <trkpt lat="37.8826697823" lon="-6.6330514289">
        <ele>626.44</ele>
        <time>2021-05-29T16:42:27Z</time>
      </trkpt>
      <trkpt lat="37.8827249352" lon="-6.6329593118">
        <ele>625.47</ele>
        <time>2021-05-29T16:42:28Z</time>
      </trkpt>
      <trkpt lat="37.8827960137" lon="-6.6328933463">
        <ele>624.99</ele>
        <time>2021-05-29T16:42:29Z</time>
      </trkpt>
      <trkpt lat="37.8828705288" lon="-6.6328434739">
        <ele>624.03</ele>
        <time>2021-05-29T16:42:30Z</time>
      </trkpt>
      <trkpt lat="37.8829421103" lon="-6.6327891592">
        <ele>624.03</ele>
        <time>2021-05-29T16:42:31Z</time>
      </trkpt>
      <trkpt lat="37.8830050584" lon="-6.6327178292">
        <ele>623.55</ele>
        <time>2021-05-29T16:42:32Z</time>
      </trkpt>
      <trkpt lat="37.8830523323" lon="-6.6326289810">
        <ele>624.03</ele>
        <time>2021-05-29T16:42:33Z</time>
      </trkpt>
      <trkpt lat="37.8830786515" lon="-6.6325216088">
        <ele>623.55</ele>
        <time>2021-05-29T16:42:34Z</time>
      </trkpt>
      <trkpt lat="37.8830747958" lon="-6.6323905997">
        <ele>623.07</ele>
        <time>2021-05-29T16:42:35Z</time>
      </trkpt>
      <trkpt lat="37.8830351494" lon="-6.6322518792">
        <ele>622.59</ele>
        <time>2021-05-29T16:42:36Z</time>
      </trkpt>
      <trkpt lat="37.8829768952" lon="-6.6321224626">
        <ele>621.63</ele>
        <time>2021-05-29T16:42:37Z</time>
      </trkpt>
      <trkpt lat="37.8829160426" lon="-6.6319989972">
        <ele>621.15</ele>
        <time>2021-05-29T16:42:38Z</time>
      </trkpt>
      <trkpt lat="37.8828636557" lon="-6.6318747774">
        <ele>620.19</ele>
        <time>2021-05-29T16:42:39Z</time>
      </trkpt>
      <trkpt lat="37.8828322235" lon="-6.6317505576">
        <ele>619.71</ele>
        <time>2021-05-29T16:42:40Z</time>
      </trkpt>
      <trkpt lat="37.8828287870" lon="-6.6316216439">
        <ele>618.26</ele>
        <time>2021-05-29T16:42:41Z</time>
      </trkpt>
      <trkpt lat="37.8828475624" lon="-6.6314943228">
        <ele>618.26</ele>
        <time>2021-05-29T16:42:42Z</time>
      </trkpt>
      <trkpt lat="37.8828747198" lon="-6.6313752998">
        <ele>616.34</ele>
        <time>2021-05-29T16:42:43Z</time>
      </trkpt>
      <trkpt lat="37.8829516657" lon="-6.6310377605">
        <ele>614.90</ele>
        <time>2021-05-29T16:42:46Z</time>
      </trkpt>
      <trkpt lat="37.8829508275" lon="-6.6309137084">
        <ele>614.90</ele>
        <time>2021-05-29T16:42:47Z</time>
      </trkpt>
      <trkpt lat="37.8829234187" lon="-6.6307875607">
        <ele>614.90</ele>
        <time>2021-05-29T16:42:48Z</time>
      </trkpt>
      <trkpt lat="37.8828732111" lon="-6.6306703817">
        <ele>613.94</ele>
        <time>2021-05-29T16:42:49Z</time>
      </trkpt>
      <trkpt lat="37.8828159627" lon="-6.6305650212">
        <ele>612.98</ele>
        <time>2021-05-29T16:42:50Z</time>
      </trkpt>
      <trkpt lat="37.8827354964" lon="-6.6303623468">
        <ele>612.02</ele>
        <time>2021-05-29T16:42:52Z</time>
      </trkpt>
      <trkpt lat="37.8827407770" lon="-6.6302304994">
        <ele>611.06</ele>
        <time>2021-05-29T16:42:53Z</time>
      </trkpt>
      <trkpt lat="37.8827769030" lon="-6.6300809663">
        <ele>610.57</ele>
        <time>2021-05-29T16:42:54Z</time>
      </trkpt>
      <trkpt lat="37.8828468081" lon="-6.6298052855">
        <ele>608.17</ele>
        <time>2021-05-29T16:42:56Z</time>
      </trkpt>
      <trkpt lat="37.8828607220" lon="-6.6296789702">
        <ele>606.73</ele>
        <time>2021-05-29T16:42:57Z</time>
      </trkpt>
      <trkpt lat="37.8828550223" lon="-6.6295655631">
        <ele>605.77</ele>
        <time>2021-05-29T16:42:58Z</time>
      </trkpt>
      <trkpt lat="37.8828328103" lon="-6.6294709314">
        <ele>604.81</ele>
        <time>2021-05-29T16:42:59Z</time>
      </trkpt>
      <trkpt lat="37.8827980254" lon="-6.6293902136">
        <ele>603.85</ele>
        <time>2021-05-29T16:43:00Z</time>
      </trkpt>
      <trkpt lat="37.8827534337" lon="-6.6293179616">
        <ele>603.36</ele>
        <time>2021-05-29T16:43:01Z</time>
      </trkpt>
      <trkpt lat="37.8827045672" lon="-6.6292531695">
        <ele>603.36</ele>
        <time>2021-05-29T16:43:02Z</time>
      </trkpt>
      <trkpt lat="37.8826562874" lon="-6.6291920654">
        <ele>602.88</ele>
        <time>2021-05-29T16:43:03Z</time>
      </trkpt>
      <trkpt lat="37.8823031578" lon="-6.6286670230">
        <ele>601.92</ele>
        <time>2021-05-29T16:43:09Z</time>
      </trkpt>
      <trkpt lat="37.8822723124" lon="-6.6285403725">
        <ele>601.92</ele>
        <time>2021-05-29T16:43:10Z</time>
      </trkpt>
      <trkpt lat="37.8822664451" lon="-6.6283932701">
        <ele>601.44</ele>
        <time>2021-05-29T16:43:11Z</time>
      </trkpt>
      <trkpt lat="37.8822842147" lon="-6.6282328404">
        <ele>600.96</ele>
        <time>2021-05-29T16:43:12Z</time>
      </trkpt>
      <trkpt lat="37.8823287226" lon="-6.6280728299">
        <ele>600.96</ele>
        <time>2021-05-29T16:43:13Z</time>
      </trkpt>
      <trkpt lat="37.8824007232" lon="-6.6279228777">
        <ele>601.44</ele>
        <time>2021-05-29T16:43:14Z</time>
      </trkpt>
      <trkpt lat="37.8824894037" lon="-6.6277908627">
        <ele>600.96</ele>
        <time>2021-05-29T16:43:15Z</time>
      </trkpt>
      <trkpt lat="37.8825811017" lon="-6.6276704147">
        <ele>600.00</ele>
        <time>2021-05-29T16:43:16Z</time>
      </trkpt>
      <trkpt lat="37.8826578800" lon="-6.6275443509">
        <ele>598.56</ele>
        <time>2021-05-29T16:43:17Z</time>
      </trkpt>
      <trkpt lat="37.8827097639" lon="-6.6274079774">
        <ele>598.56</ele>
        <time>2021-05-29T16:43:18Z</time>
      </trkpt>
      <trkpt lat="37.8827338200" lon="-6.6272534989">
        <ele>599.04</ele>
        <time>2021-05-29T16:43:19Z</time>
      </trkpt>
      <trkpt lat="37.8827334009" lon="-6.6270851064">
        <ele>598.56</ele>
        <time>2021-05-29T16:43:20Z</time>
      </trkpt>
      <trkpt lat="37.8827188164" lon="-6.6269092541">
        <ele>599.04</ele>
        <time>2021-05-29T16:43:21Z</time>
      </trkpt>
      <trkpt lat="37.8825671040" lon="-6.6256060358">
        <ele>595.19</ele>
        <time>2021-05-29T16:43:28Z</time>
      </trkpt>
      <trkpt lat="37.8824180737" lon="-6.6238350235">
        <ele>592.79</ele>
        <time>2021-05-29T16:43:37Z</time>
      </trkpt>
      <trkpt lat="37.8824293893" lon="-6.6236311756">
        <ele>592.79</ele>
        <time>2021-05-29T16:43:38Z</time>
      </trkpt>
      <trkpt lat="37.8824544512" lon="-6.6234144196">
        <ele>593.75</ele>
        <time>2021-05-29T16:43:39Z</time>
      </trkpt>
      <trkpt lat="37.8827448841" lon="-6.6218805313">
        <ele>590.39</ele>
        <time>2021-05-29T16:43:46Z</time>
      </trkpt>
      <trkpt lat="37.8828959260" lon="-6.6213353723">
        <ele>588.95</ele>
        <time>2021-05-29T16:43:49Z</time>
      </trkpt>
      <trkpt lat="37.8829255980" lon="-6.6211461928">
        <ele>589.43</ele>
        <time>2021-05-29T16:43:50Z</time>
      </trkpt>
      <trkpt lat="37.8830023762" lon="-6.6204033047">
        <ele>588.95</ele>
        <time>2021-05-29T16:43:54Z</time>
      </trkpt>
      <trkpt lat="37.8830436990" lon="-6.6202257760">
        <ele>588.95</ele>
        <time>2021-05-29T16:43:55Z</time>
      </trkpt>
      <trkpt lat="37.8831120115" lon="-6.6200475767">
        <ele>589.91</ele>
        <time>2021-05-29T16:43:56Z</time>
      </trkpt>
      <trkpt lat="37.8831992671" lon="-6.6198733170">
        <ele>590.87</ele>
        <time>2021-05-29T16:43:57Z</time>
      </trkpt>
      <trkpt lat="37.8832828347" lon="-6.6197137255">
        <ele>590.39</ele>
        <time>2021-05-29T16:43:58Z</time>
      </trkpt>
      <trkpt lat="37.8833494708" lon="-6.6195627674">
        <ele>590.39</ele>
        <time>2021-05-29T16:43:59Z</time>
      </trkpt>
      <trkpt lat="37.8833994269" lon="-6.6194027569">
        <ele>589.43</ele>
        <time>2021-05-29T16:44:00Z</time>
      </trkpt>
      <trkpt lat="37.8834327869" lon="-6.6192300897">
        <ele>588.95</ele>
        <time>2021-05-29T16:44:01Z</time>
      </trkpt>
      <trkpt lat="37.8834964056" lon="-6.6186321247">
        <ele>591.83</ele>
        <time>2021-05-29T16:44:04Z</time>
      </trkpt>
      <trkpt lat="37.8835632931" lon="-6.6182038933">
        <ele>590.87</ele>
        <time>2021-05-29T16:44:06Z</time>
      </trkpt>
      <trkpt lat="37.8836180270" lon="-6.6179941781">
        <ele>590.39</ele>
        <time>2021-05-29T16:44:07Z</time>
      </trkpt>
      <trkpt lat="37.8838394769" lon="-6.6173012462">
        <ele>589.91</ele>
        <time>2021-05-29T16:44:11Z</time>
      </trkpt>
      <trkpt lat="37.8839111421" lon="-6.6171618551">
        <ele>589.91</ele>
        <time>2021-05-29T16:44:12Z</time>
      </trkpt>
      <trkpt lat="37.8839875851" lon="-6.6170460172">
        <ele>589.43</ele>
        <time>2021-05-29T16:44:13Z</time>
      </trkpt>
      <trkpt lat="37.8840677999" lon="-6.6169544030">
        <ele>589.43</ele>
        <time>2021-05-29T16:44:14Z</time>
      </trkpt>
      <trkpt lat="37.8841574024" lon="-6.6169010103">
        <ele>589.43</ele>
        <time>2021-05-29T16:44:15Z</time>
      </trkpt>
      <trkpt lat="37.8842549678" lon="-6.6168985795">
        <ele>589.91</ele>
        <time>2021-05-29T16:44:16Z</time>
      </trkpt>
      <trkpt lat="37.8843514435" lon="-6.6169372201">
        <ele>589.43</ele>
        <time>2021-05-29T16:44:17Z</time>
      </trkpt>
      <trkpt lat="37.8844480868" lon="-6.6170180216">
        <ele>590.39</ele>
        <time>2021-05-29T16:44:18Z</time>
      </trkpt>
      <trkpt lat="37.8845462389" lon="-6.6171538923">
        <ele>590.87</ele>
        <time>2021-05-29T16:44:19Z</time>
      </trkpt>
      <trkpt lat="37.8852642328" lon="-6.6183387581">
        <ele>587.98</ele>
        <time>2021-05-29T16:44:27Z</time>
      </trkpt>
      <trkpt lat="37.8856471181" lon="-6.6189140081">
        <ele>584.14</ele>
        <time>2021-05-29T16:44:31Z</time>
      </trkpt>
      <trkpt lat="37.8859867528" lon="-6.6195095424">
        <ele>581.25</ele>
        <time>2021-05-29T16:44:35Z</time>
      </trkpt>
      <trkpt lat="37.8860735893" lon="-6.6196750011">
        <ele>580.77</ele>
        <time>2021-05-29T16:44:36Z</time>
      </trkpt>
      <trkpt lat="37.8864799440" lon="-6.6204674263">
        <ele>577.41</ele>
        <time>2021-05-29T16:44:41Z</time>
      </trkpt>
      <trkpt lat="37.8867065907" lon="-6.6209012736">
        <ele>575.49</ele>
        <time>2021-05-29T16:44:44Z</time>
      </trkpt>
      <trkpt lat="37.8870585468" lon="-6.6216332652">
        <ele>572.12</ele>
        <time>2021-05-29T16:44:49Z</time>
      </trkpt>
      <trkpt lat="37.8871135321" lon="-6.6217578202">
        <ele>571.64</ele>
        <time>2021-05-29T16:44:50Z</time>
      </trkpt>
      <trkpt lat="37.8871779889" lon="-6.6218650248">
        <ele>570.68</ele>
        <time>2021-05-29T16:44:51Z</time>
      </trkpt>
      <trkpt lat="37.8872605506" lon="-6.6219376121">
        <ele>569.72</ele>
        <time>2021-05-29T16:44:52Z</time>
      </trkpt>
      <trkpt lat="37.8873524163" lon="-6.6219764203">
        <ele>569.24</ele>
        <time>2021-05-29T16:44:53Z</time>
      </trkpt>
      <trkpt lat="37.8874602076" lon="-6.6219699662">
        <ele>569.24</ele>
        <time>2021-05-29T16:44:54Z</time>
      </trkpt>
      <trkpt lat="37.8875885345" lon="-6.6219290625">
        <ele>570.68</ele>
        <time>2021-05-29T16:44:55Z</time>
      </trkpt>
      <trkpt lat="37.8877266683" lon="-6.6218841355">
        <ele>570.68</ele>
        <time>2021-05-29T16:44:56Z</time>
      </trkpt>
      <trkpt lat="37.8880749363" lon="-6.6217679624">
        <ele>569.72</ele>
        <time>2021-05-29T16:44:59Z</time>
      </trkpt>
      <trkpt lat="37.8881497029" lon="-6.6216997337">
        <ele>570.20</ele>
        <time>2021-05-29T16:45:00Z</time>
      </trkpt>
      <trkpt lat="37.8881894331" lon="-6.6216093767">
        <ele>570.20</ele>
        <time>2021-05-29T16:45:01Z</time>
      </trkpt>
      <trkpt lat="37.8881895170" lon="-6.6215026751">
        <ele>570.20</ele>
        <time>2021-05-29T16:45:02Z</time>
      </trkpt>
      <trkpt lat="37.8881476074" lon="-6.6214020923">
        <ele>571.16</ele>
        <time>2021-05-29T16:45:03Z</time>
      </trkpt>
      <trkpt lat="37.8880788758" lon="-6.6213138308">
        <ele>572.12</ele>
        <time>2021-05-29T16:45:04Z</time>
      </trkpt>
      <trkpt lat="37.8880040254" lon="-6.6212236416">
        <ele>573.56</ele>
        <time>2021-05-29T16:45:05Z</time>
      </trkpt>
      <trkpt lat="37.8879505489" lon="-6.6211154312">
        <ele>574.04</ele>
        <time>2021-05-29T16:45:06Z</time>
      </trkpt>
      <trkpt lat="37.8879342042" lon="-6.6209851764">
        <ele>575.49</ele>
        <time>2021-05-29T16:45:07Z</time>
      </trkpt>
      <trkpt lat="37.8879610263" lon="-6.6208485514">
        <ele>576.45</ele>
        <time>2021-05-29T16:45:08Z</time>
      </trkpt>
      <trkpt lat="37.8880305123" lon="-6.6207242478">
        <ele>577.41</ele>
        <time>2021-05-29T16:45:09Z</time>
      </trkpt>
      <trkpt lat="37.8881360404" lon="-6.6206173785">
        <ele>578.37</ele>
        <time>2021-05-29T16:45:10Z</time>
      </trkpt>
      <trkpt lat="37.8882530518" lon="-6.6205169633">
        <ele>580.77</ele>
        <time>2021-05-29T16:45:11Z</time>
      </trkpt>
      <trkpt lat="37.8883522935" lon="-6.6204051487">
        <ele>582.22</ele>
        <time>2021-05-29T16:45:12Z</time>
      </trkpt>
      <trkpt lat="37.8884141520" lon="-6.6202867124">
        <ele>582.22</ele>
        <time>2021-05-29T16:45:13Z</time>
      </trkpt>
      <trkpt lat="37.8884311672" lon="-6.6201595590">
        <ele>581.25</ele>
        <time>2021-05-29T16:45:14Z</time>
      </trkpt>
      <trkpt lat="37.8884010762" lon="-6.6200392786">
        <ele>580.77</ele>
        <time>2021-05-29T16:45:15Z</time>
      </trkpt>
      <trkpt lat="37.8883253038" lon="-6.6199428868">
        <ele>582.22</ele>
        <time>2021-05-29T16:45:16Z</time>
      </trkpt>
      <trkpt lat="37.8882211167" lon="-6.6198721435">
        <ele>584.62</ele>
        <time>2021-05-29T16:45:17Z</time>
      </trkpt>
      <trkpt lat="37.8881022613" lon="-6.6198044177">
        <ele>586.54</ele>
        <time>2021-05-29T16:45:18Z</time>
      </trkpt>
      <trkpt lat="37.8879834898" lon="-6.6197135579">
        <ele>587.98</ele>
        <time>2021-05-29T16:45:19Z</time>
      </trkpt>
      <trkpt lat="37.8878807276" lon="-6.6195931938">
        <ele>587.98</ele>
        <time>2021-05-29T16:45:20Z</time>
      </trkpt>
      <trkpt lat="37.8878028598" lon="-6.6194412299">
        <ele>589.43</ele>
        <time>2021-05-29T16:45:21Z</time>
      </trkpt>
      <trkpt lat="37.8877353854" lon="-6.6192632820">
        <ele>591.35</ele>
        <time>2021-05-29T16:45:22Z</time>
      </trkpt>
      <trkpt lat="37.8876764607" lon="-6.6190668102">
        <ele>592.79</ele>
        <time>2021-05-29T16:45:23Z</time>
      </trkpt>
      <trkpt lat="37.8876340482" lon="-6.6188547481">
        <ele>594.23</ele>
        <time>2021-05-29T16:45:24Z</time>
      </trkpt>
      <trkpt lat="37.8876117524" lon="-6.6186244972">
        <ele>596.15</ele>
        <time>2021-05-29T16:45:25Z</time>
      </trkpt>
      <trkpt lat="37.8875972517" lon="-6.6183789913">
        <ele>598.08</ele>
        <time>2021-05-29T16:45:26Z</time>
      </trkpt>
      <trkpt lat="37.8875742853" lon="-6.6177227721">
        <ele>599.04</ele>
        <time>2021-05-29T16:45:29Z</time>
      </trkpt>
      <trkpt lat="37.8875863552" lon="-6.6175371967">
        <ele>598.08</ele>
        <time>2021-05-29T16:45:30Z</time>
      </trkpt>
      <trkpt lat="37.8876032028" lon="-6.6171874199">
        <ele>600.00</ele>
        <time>2021-05-29T16:45:32Z</time>
      </trkpt>
      <trkpt lat="37.8875623830" lon="-6.6170246433">
        <ele>600.48</ele>
        <time>2021-05-29T16:45:33Z</time>
      </trkpt>
      <trkpt lat="37.8874854371" lon="-6.6168745235">
        <ele>600.96</ele>
        <time>2021-05-29T16:45:34Z</time>
      </trkpt>
      <trkpt lat="37.8874035459" lon="-6.6167257447">
        <ele>601.44</ele>
        <time>2021-05-29T16:45:35Z</time>
      </trkpt>
      <trkpt lat="37.8873435315" lon="-6.6165791452">
        <ele>601.44</ele>
        <time>2021-05-29T16:45:36Z</time>
      </trkpt>
      <trkpt lat="37.8873164579" lon="-6.6164294444">
        <ele>600.96</ele>
        <time>2021-05-29T16:45:37Z</time>
      </trkpt>
      <trkpt lat="37.8873338085" lon="-6.6162817553">
        <ele>600.00</ele>
        <time>2021-05-29T16:45:38Z</time>
      </trkpt>
      <trkpt lat="37.8873915598" lon="-6.6161617264">
        <ele>600.00</ele>
        <time>2021-05-29T16:45:39Z</time>
      </trkpt>
      <trkpt lat="37.8874839284" lon="-6.6160828527">
        <ele>600.00</ele>
        <time>2021-05-29T16:45:40Z</time>
      </trkpt>
      <trkpt lat="37.8875987604" lon="-6.6160561144">
        <ele>600.00</ele>
        <time>2021-05-29T16:45:41Z</time>
      </trkpt>
      <trkpt lat="37.8877224773" lon="-6.6160626523">
        <ele>600.00</ele>
        <time>2021-05-29T16:45:42Z</time>
      </trkpt>
      <trkpt lat="37.8878423385" lon="-6.6160653345">
        <ele>599.52</ele>
        <time>2021-05-29T16:45:43Z</time>
      </trkpt>
      <trkpt lat="37.8879476152" lon="-6.6160344053">
        <ele>598.56</ele>
        <time>2021-05-29T16:45:44Z</time>
      </trkpt>
      <trkpt lat="37.8880358767" lon="-6.6159534361">
        <ele>599.04</ele>
        <time>2021-05-29T16:45:45Z</time>
      </trkpt>
      <trkpt lat="37.8880992439" lon="-6.6158282943">
        <ele>600.48</ele>
        <time>2021-05-29T16:45:46Z</time>
      </trkpt>
      <trkpt lat="37.8881346155" lon="-6.6156679485">
        <ele>602.40</ele>
        <time>2021-05-29T16:45:47Z</time>
      </trkpt>
      <trkpt lat="37.8881362081" lon="-6.6154837981">
        <ele>603.36</ele>
        <time>2021-05-29T16:45:48Z</time>
      </trkpt>
      <trkpt lat="37.8881010041" lon="-6.6153014917">
        <ele>604.33</ele>
        <time>2021-05-29T16:45:49Z</time>
      </trkpt>
      <trkpt lat="37.8880408220" lon="-6.6151410621">
        <ele>604.33</ele>
        <time>2021-05-29T16:45:50Z</time>
      </trkpt>
      <trkpt lat="37.8879925422" lon="-6.6149981506">
        <ele>605.29</ele>
        <time>2021-05-29T16:45:51Z</time>
      </trkpt>
      <trkpt lat="37.8879827354" lon="-6.6148562450">
        <ele>604.81</ele>
        <time>2021-05-29T16:45:52Z</time>
      </trkpt>
      <trkpt lat="37.8880174365" lon="-6.6147194523">
        <ele>606.25</ele>
        <time>2021-05-29T16:45:53Z</time>
      </trkpt>
      <trkpt lat="37.8880971484" lon="-6.6145974118">
        <ele>607.21</ele>
        <time>2021-05-29T16:45:54Z</time>
      </trkpt>
      <trkpt lat="37.8882115614" lon="-6.6144866031">
        <ele>608.65</ele>
        <time>2021-05-29T16:45:55Z</time>
      </trkpt>
      <trkpt lat="37.8883340210" lon="-6.6143670771">
        <ele>609.61</ele>
        <time>2021-05-29T16:45:56Z</time>
      </trkpt>
      <trkpt lat="37.8884464223" lon="-6.6142209806">
        <ele>611.06</ele>
        <time>2021-05-29T16:45:57Z</time>
      </trkpt>
      <trkpt lat="37.8885266371" lon="-6.6140553541">
        <ele>611.06</ele>
        <time>2021-05-29T16:45:58Z</time>
      </trkpt>
      <trkpt lat="37.8885803651" lon="-6.6138749756">
        <ele>612.50</ele>
        <time>2021-05-29T16:45:59Z</time>
      </trkpt>
      <trkpt lat="37.8886407986" lon="-6.6136915796">
        <ele>613.46</ele>
        <time>2021-05-29T16:46:00Z</time>
      </trkpt>
      <trkpt lat="37.8887274675" lon="-6.6135205887">
        <ele>614.90</ele>
        <time>2021-05-29T16:46:01Z</time>
      </trkpt>
      <trkpt lat="37.8888378572" lon="-6.6133860592">
        <ele>615.86</ele>
        <time>2021-05-29T16:46:02Z</time>
      </trkpt>
      <trkpt lat="37.8889701236" lon="-6.6132974625">
        <ele>615.86</ele>
        <time>2021-05-29T16:46:03Z</time>
      </trkpt>
      <trkpt lat="37.8891146276" lon="-6.6132511105">
        <ele>617.30</ele>
        <time>2021-05-29T16:46:04Z</time>
      </trkpt>
      <trkpt lat="37.8892496601" lon="-6.6132165771">
        <ele>616.82</ele>
        <time>2021-05-29T16:46:05Z</time>
      </trkpt>
      <trkpt lat="37.8893597145" lon="-6.6131583229">
        <ele>616.82</ele>
        <time>2021-05-29T16:46:06Z</time>
      </trkpt>
      <trkpt lat="37.8894327208" lon="-6.6130694747">
        <ele>615.86</ele>
        <time>2021-05-29T16:46:07Z</time>
      </trkpt>
      <trkpt lat="37.8894623928" lon="-6.6129585821">
        <ele>616.34</ele>
        <time>2021-05-29T16:46:08Z</time>
      </trkpt>
      <trkpt lat="37.8894726187" lon="-6.6128507908">
        <ele>618.26</ele>
        <time>2021-05-29T16:46:09Z</time>
      </trkpt>
      <trkpt lat="37.8894334752" lon="-6.6126653831">
        <ele>620.19</ele>
        <time>2021-05-29T16:46:10Z</time>
      </trkpt>
      <trkpt lat="37.8894166276" lon="-6.6124789696">
        <ele>622.59</ele>
        <time>2021-05-29T16:46:11Z</time>
      </trkpt>
      <trkpt lat="37.8894251771" lon="-6.6122739483">
        <ele>624.51</ele>
        <time>2021-05-29T16:46:12Z</time>
      </trkpt>
      <trkpt lat="37.8894479759" lon="-6.6120763868">
        <ele>624.51</ele>
        <time>2021-05-29T16:46:13Z</time>
      </trkpt>
      <trkpt lat="37.8894815035" lon="-6.6118997801">
        <ele>624.03</ele>
        <time>2021-05-29T16:46:14Z</time>
      </trkpt>
      <trkpt lat="37.8895473015" lon="-6.6117347404">
        <ele>624.51</ele>
        <time>2021-05-29T16:46:15Z</time>
      </trkpt>
      <trkpt lat="37.8896516562" lon="-6.6116118617">
        <ele>625.47</ele>
        <time>2021-05-29T16:46:16Z</time>
      </trkpt>
      <trkpt lat="37.8897892032" lon="-6.6115222592">
        <ele>627.88</ele>
        <time>2021-05-29T16:46:17Z</time>
      </trkpt>
      <trkpt lat="37.8899352998" lon="-6.6114474926">
        <ele>629.80</ele>
        <time>2021-05-29T16:46:18Z</time>
      </trkpt>
      <trkpt lat="37.8901778720" lon="-6.6112809442">
        <ele>629.80</ele>
        <time>2021-05-29T16:46:20Z</time>
      </trkpt>
      <trkpt lat="37.8902529739" lon="-6.6111740749">
        <ele>629.80</ele>
        <time>2021-05-29T16:46:21Z</time>
      </trkpt>
      <trkpt lat="37.8902915306" lon="-6.6110444069">
        <ele>628.84</ele>
        <time>2021-05-29T16:46:22Z</time>
      </trkpt>
      <trkpt lat="37.8902939614" lon="-6.6108839773">
        <ele>629.32</ele>
        <time>2021-05-29T16:46:23Z</time>
      </trkpt>
      <trkpt lat="37.8902704082" lon="-6.6106970608">
        <ele>630.28</ele>
        <time>2021-05-29T16:46:24Z</time>
      </trkpt>
      <trkpt lat="37.8902356233" lon="-6.6104965657">
        <ele>631.72</ele>
        <time>2021-05-29T16:46:25Z</time>
      </trkpt>
      <trkpt lat="37.8901804704" lon="-6.6101274267">
        <ele>631.72</ele>
        <time>2021-05-29T16:46:27Z</time>
      </trkpt>
      <trkpt lat="37.8901914507" lon="-6.6099525802">
        <ele>631.24</ele>
        <time>2021-05-29T16:46:28Z</time>
      </trkpt>
      <trkpt lat="37.8902426641" lon="-6.6097818408">
        <ele>631.24</ele>
        <time>2021-05-29T16:46:29Z</time>
      </trkpt>
      <trkpt lat="37.8903210349" lon="-6.6096266080">
        <ele>632.68</ele>
        <time>2021-05-29T16:46:30Z</time>
      </trkpt>
      <trkpt lat="37.8903905209" lon="-6.6094813496">
        <ele>631.24</ele>
        <time>2021-05-29T16:46:31Z</time>
      </trkpt>
      <trkpt lat="37.8904193547" lon="-6.6093355045">
        <ele>630.76</ele>
        <time>2021-05-29T16:46:32Z</time>
      </trkpt>
      <trkpt lat="37.8904003277" lon="-6.6091951076">
        <ele>630.28</ele>
        <time>2021-05-29T16:46:33Z</time>
      </trkpt>
      <trkpt lat="37.8903307579" lon="-6.6090661101">
        <ele>631.24</ele>
        <time>2021-05-29T16:46:34Z</time>
      </trkpt>
      <trkpt lat="37.8902168479" lon="-6.6089568101">
        <ele>633.17</ele>
        <time>2021-05-29T16:46:35Z</time>
      </trkpt>
      <trkpt lat="37.8900761157" lon="-6.6088652797">
        <ele>634.61</ele>
        <time>2021-05-29T16:46:36Z</time>
      </trkpt>
      <trkpt lat="37.8899259958" lon="-6.6087750904">
        <ele>636.05</ele>
        <time>2021-05-29T16:46:37Z</time>
      </trkpt>
      <trkpt lat="37.8897802345" lon="-6.6086712386">
        <ele>636.53</ele>
        <time>2021-05-29T16:46:38Z</time>
      </trkpt>
      <trkpt lat="37.8896450344" lon="-6.6085391399">
        <ele>637.49</ele>
        <time>2021-05-29T16:46:39Z</time>
      </trkpt>
      <trkpt lat="37.8895190544" lon="-6.6083720047">
        <ele>638.93</ele>
        <time>2021-05-29T16:46:40Z</time>
      </trkpt>
      <trkpt lat="37.8893141169" lon="-6.6080131754">
        <ele>639.41</ele>
        <time>2021-05-29T16:46:42Z</time>
      </trkpt>
      <trkpt lat="37.8892496601" lon="-6.6078409273">
        <ele>638.93</ele>
        <time>2021-05-29T16:46:43Z</time>
      </trkpt>
      <trkpt lat="37.8892126121" lon="-6.6076710261">
        <ele>638.45</ele>
        <time>2021-05-29T16:46:44Z</time>
      </trkpt>
      <trkpt lat="37.8892036434" lon="-6.6074849479">
        <ele>640.86</ele>
        <time>2021-05-29T16:46:45Z</time>
      </trkpt>
      <trkpt lat="37.8892246820" lon="-6.6072781663">
        <ele>643.26</ele>
        <time>2021-05-29T16:46:46Z</time>
      </trkpt>
      <trkpt lat="37.8892739676" lon="-6.6070679482">
        <ele>644.70</ele>
        <time>2021-05-29T16:46:47Z</time>
      </trkpt>
      <trkpt lat="37.8893436212" lon="-6.6068707220">
        <ele>646.14</ele>
        <time>2021-05-29T16:46:48Z</time>
      </trkpt>
      <trkpt lat="37.8894389234" lon="-6.6066970490">
        <ele>645.66</ele>
        <time>2021-05-29T16:46:49Z</time>
      </trkpt>
      <trkpt lat="37.8895381652" lon="-6.6065409780">
        <ele>646.62</ele>
        <time>2021-05-29T16:46:50Z</time>
      </trkpt>
      <trkpt lat="37.8896130994" lon="-6.6063889302">
        <ele>646.62</ele>
        <time>2021-05-29T16:46:51Z</time>
      </trkpt>
      <trkpt lat="37.8896517400" lon="-6.6062303446">
        <ele>647.10</ele>
        <time>2021-05-29T16:46:52Z</time>
      </trkpt>
      <trkpt lat="37.8896514885" lon="-6.6060560010">
        <ele>646.62</ele>
        <time>2021-05-29T16:46:53Z</time>
      </trkpt>
      <trkpt lat="37.8896231577" lon="-6.6058646422">
        <ele>648.07</ele>
        <time>2021-05-29T16:46:54Z</time>
      </trkpt>
      <trkpt lat="37.8895815834" lon="-6.6056567710">
        <ele>650.47</ele>
        <time>2021-05-29T16:46:55Z</time>
      </trkpt>
      <trkpt lat="37.8895364888" lon="-6.6054357402">
        <ele>653.35</ele>
        <time>2021-05-29T16:46:56Z</time>
      </trkpt>
      <trkpt lat="37.8894946631" lon="-6.6052228399">
        <ele>653.35</ele>
        <time>2021-05-29T16:46:57Z</time>
      </trkpt>
      <trkpt lat="37.8893379215" lon="-6.6047226079">
        <ele>652.39</ele>
        <time>2021-05-29T16:47:00Z</time>
      </trkpt>
      <trkpt lat="37.8892396018" lon="-6.6046060994">
        <ele>653.83</ele>
        <time>2021-05-29T16:47:01Z</time>
      </trkpt>
      <trkpt lat="37.8888976201" lon="-6.6042540595">
        <ele>656.24</ele>
        <time>2021-05-29T16:47:04Z</time>
      </trkpt>
      <trkpt lat="37.8888163995" lon="-6.6041260678">
        <ele>656.24</ele>
        <time>2021-05-29T16:47:05Z</time>
      </trkpt>
      <trkpt lat="37.8887638450" lon="-6.6039757803">
        <ele>656.72</ele>
        <time>2021-05-29T16:47:06Z</time>
      </trkpt>
      <trkpt lat="37.8887350950" lon="-6.6037959885">
        <ele>658.64</ele>
        <time>2021-05-29T16:47:07Z</time>
      </trkpt>
      <trkpt lat="37.8887198400" lon="-6.6035983432">
        <ele>660.56</ele>
        <time>2021-05-29T16:47:08Z</time>
      </trkpt>
      <trkpt lat="37.8887141403" lon="-6.6033813357">
        <ele>662.49</ele>
        <time>2021-05-29T16:47:09Z</time>
      </trkpt>
      <trkpt lat="37.8887147270" lon="-6.6031484026">
        <ele>665.85</ele>
        <time>2021-05-29T16:47:10Z</time>
      </trkpt>
      <trkpt lat="37.8887324128" lon="-6.6024535429">
        <ele>667.29</ele>
        <time>2021-05-29T16:47:13Z</time>
      </trkpt>
      <trkpt lat="37.8887702152" lon="-6.6020590905">
        <ele>668.73</ele>
        <time>2021-05-29T16:47:15Z</time>
      </trkpt>
      <trkpt lat="37.8888209257" lon="-6.6018994153">
        <ele>668.25</ele>
        <time>2021-05-29T16:47:16Z</time>
      </trkpt>
      <trkpt lat="37.8888944350" lon="-6.6017703339">
        <ele>668.73</ele>
        <time>2021-05-29T16:47:17Z</time>
      </trkpt>
      <trkpt lat="37.8889899049" lon="-6.6016594414">
        <ele>669.22</ele>
        <time>2021-05-29T16:47:18Z</time>
      </trkpt>
      <trkpt lat="37.8890851233" lon="-6.6015489679">
        <ele>671.14</ele>
        <time>2021-05-29T16:47:19Z</time>
      </trkpt>
      <trkpt lat="37.8891588002" lon="-6.6014288552">
        <ele>671.62</ele>
        <time>2021-05-29T16:47:20Z</time>
      </trkpt>
      <trkpt lat="37.8892074991" lon="-6.6012796573">
        <ele>672.10</ele>
        <time>2021-05-29T16:47:21Z</time>
      </trkpt>
      <trkpt lat="37.8892321419" lon="-6.6010964289">
        <ele>674.50</ele>
        <time>2021-05-29T16:47:22Z</time>
      </trkpt>
      <trkpt lat="37.8892355785" lon="-6.6008941736">
        <ele>676.91</ele>
        <time>2021-05-29T16:47:23Z</time>
      </trkpt>
      <trkpt lat="37.8892313875" lon="-6.6006822791">
        <ele>678.35</ele>
        <time>2021-05-29T16:47:24Z</time>
      </trkpt>
      <trkpt lat="37.8892378416" lon="-6.6004601587">
        <ele>679.31</ele>
        <time>2021-05-29T16:47:25Z</time>
      </trkpt>
      <trkpt lat="37.8892678488" lon="-6.6002340149">
        <ele>681.71</ele>
        <time>2021-05-29T16:47:26Z</time>
      </trkpt>
      <trkpt lat="37.8893261869" lon="-6.6000072844">
        <ele>684.12</ele>
        <time>2021-05-29T16:47:27Z</time>
      </trkpt>
      <trkpt lat="37.8894990217" lon="-6.5994006023">
        <ele>683.63</ele>
        <time>2021-05-29T16:47:30Z</time>
      </trkpt>
      <trkpt lat="37.8895009495" lon="-6.5992253367">
        <ele>683.63</ele>
        <time>2021-05-29T16:47:31Z</time>
      </trkpt>
      <trkpt lat="37.8894632310" lon="-6.5990480594">
        <ele>684.60</ele>
        <time>2021-05-29T16:47:32Z</time>
      </trkpt>
      <trkpt lat="37.8893298749" lon="-6.5986712091">
        <ele>688.92</ele>
        <time>2021-05-29T16:47:34Z</time>
      </trkpt>
      <trkpt lat="37.8892401047" lon="-6.5984986257">
        <ele>688.44</ele>
        <time>2021-05-29T16:47:35Z</time>
      </trkpt>
      <trkpt lat="37.8891295474" lon="-6.5983552951">
        <ele>689.40</ele>
        <time>2021-05-29T16:47:36Z</time>
      </trkpt>
      <trkpt lat="37.8889965266" lon="-6.5982364397">
        <ele>690.84</ele>
        <time>2021-05-29T16:47:37Z</time>
      </trkpt>
      <trkpt lat="37.8888459038" lon="-6.5981368627">
        <ele>692.29</ele>
        <time>2021-05-29T16:47:38Z</time>
      </trkpt>
      <trkpt lat="37.8886937723" lon="-6.5980496071">
        <ele>693.73</ele>
        <time>2021-05-29T16:47:39Z</time>
      </trkpt>
      <trkpt lat="37.8885592427" lon="-6.5979679674">
        <ele>693.73</ele>
        <time>2021-05-29T16:47:40Z</time>
      </trkpt>
      <trkpt lat="37.8883426543" lon="-6.5977667179">
        <ele>694.21</ele>
        <time>2021-05-29T16:47:42Z</time>
      </trkpt>
      <trkpt lat="37.8882801253" lon="-6.5976011753">
        <ele>695.65</ele>
        <time>2021-05-29T16:47:43Z</time>
      </trkpt>
      <trkpt lat="37.8882413171" lon="-6.5973969083">
        <ele>697.57</ele>
        <time>2021-05-29T16:47:44Z</time>
      </trkpt>
      <trkpt lat="37.8881970607" lon="-6.5969530027">
        <ele>701.42</ele>
        <time>2021-05-29T16:47:46Z</time>
      </trkpt>
      <trkpt lat="37.8882031795" lon="-6.5964765754">
        <ele>702.86</ele>
        <time>2021-05-29T16:47:48Z</time>
      </trkpt>
      <trkpt lat="37.8882530518" lon="-6.5958253853">
        <ele>699.50</ele>
        <time>2021-05-29T16:47:51Z</time>
      </trkpt>
      <trkpt lat="37.8882510401" lon="-6.5954648796">
        <ele>696.61</ele>
        <time>2021-05-29T16:47:53Z</time>
      </trkpt>
      <trkpt lat="37.8882118966" lon="-6.5953042824">
        <ele>696.61</ele>
        <time>2021-05-29T16:47:54Z</time>
      </trkpt>
      <trkpt lat="37.8881436680" lon="-6.5951676574">
        <ele>696.13</ele>
        <time>2021-05-29T16:47:55Z</time>
      </trkpt>
      <trkpt lat="37.8880524728" lon="-6.5950727742">
        <ele>695.65</ele>
        <time>2021-05-29T16:47:56Z</time>
      </trkpt>
      <trkpt lat="37.8879482020" lon="-6.5950343013">
        <ele>694.69</ele>
        <time>2021-05-29T16:47:57Z</time>
      </trkpt>
      <trkpt lat="37.8878363036" lon="-6.5950519033">
        <ele>695.17</ele>
        <time>2021-05-29T16:47:58Z</time>
      </trkpt>
      <trkpt lat="37.8877169453" lon="-6.5951130074">
        <ele>696.13</ele>
        <time>2021-05-29T16:47:59Z</time>
      </trkpt>
      <trkpt lat="37.8875826672" lon="-6.5951895341">
        <ele>696.61</ele>
        <time>2021-05-29T16:48:00Z</time>
      </trkpt>
      <trkpt lat="37.8874351457" lon="-6.5952502191">
        <ele>696.61</ele>
        <time>2021-05-29T16:48:01Z</time>
      </trkpt>
      <trkpt lat="37.8872798290" lon="-6.5952789690">
        <ele>695.65</ele>
        <time>2021-05-29T16:48:02Z</time>
      </trkpt>
      <trkpt lat="37.8871279489" lon="-6.5952696651">
        <ele>694.21</ele>
        <time>2021-05-29T16:48:03Z</time>
      </trkpt>
      <trkpt lat="37.8869839478" lon="-6.5952191222">
        <ele>693.73</ele>
        <time>2021-05-29T16:48:04Z</time>
      </trkpt>
      <trkpt lat="37.8868416231" lon="-6.5951237362">
        <ele>693.73</ele>
        <time>2021-05-29T16:48:05Z</time>
      </trkpt>
      <trkpt lat="37.8866943531" lon="-6.5949943196">
        <ele>693.73</ele>
        <time>2021-05-29T16:48:06Z</time>
      </trkpt>
      <trkpt lat="37.8865400422" lon="-6.5948497318">
        <ele>694.69</ele>
        <time>2021-05-29T16:48:07Z</time>
      </trkpt>
      <trkpt lat="37.8859959729" lon="-6.5943030640">
        <ele>693.25</ele>
        <time>2021-05-29T16:48:11Z</time>
      </trkpt>
      <trkpt lat="37.8858956415" lon="-6.5941359289">
        <ele>692.77</ele>
        <time>2021-05-29T16:48:12Z</time>
      </trkpt>
      <trkpt lat="37.8858181089" lon="-6.5939448215">
        <ele>693.25</ele>
        <time>2021-05-29T16:48:13Z</time>
      </trkpt>
      <trkpt lat="37.8857650515" lon="-6.5937290713">
        <ele>692.29</ele>
        <time>2021-05-29T16:48:14Z</time>
      </trkpt>
      <trkpt lat="37.8857388161" lon="-6.5934861638">
        <ele>693.25</ele>
        <time>2021-05-29T16:48:15Z</time>
      </trkpt>
      <trkpt lat="37.8857347090" lon="-6.5932266600">
        <ele>694.69</ele>
        <time>2021-05-29T16:48:16Z</time>
      </trkpt>
      <trkpt lat="37.8857389838" lon="-6.5929627977">
        <ele>694.21</ele>
        <time>2021-05-29T16:48:17Z</time>
      </trkpt>
      <trkpt lat="37.8857396543" lon="-6.5921765752">
        <ele>692.77</ele>
        <time>2021-05-29T16:48:20Z</time>
      </trkpt>
      <trkpt lat="37.8857049532" lon="-6.5916926879">
        <ele>689.40</ele>
        <time>2021-05-29T16:48:22Z</time>
      </trkpt>
      <trkpt lat="37.8856674023" lon="-6.5914857388">
        <ele>687.96</ele>
        <time>2021-05-29T16:48:23Z</time>
      </trkpt>
      <trkpt lat="37.8855855949" lon="-6.5911145881">
        <ele>687.48</ele>
        <time>2021-05-29T16:48:25Z</time>
      </trkpt>
      <trkpt lat="37.8855642211" lon="-6.5909088124">
        <ele>688.92</ele>
        <time>2021-05-29T16:48:26Z</time>
      </trkpt>
      <trkpt lat="37.8854964115" lon="-6.5902442113">
        <ele>687.00</ele>
        <time>2021-05-29T16:48:29Z</time>
      </trkpt>
      <trkpt lat="37.8854348883" lon="-6.5900166426">
        <ele>689.40</ele>
        <time>2021-05-29T16:48:30Z</time>
      </trkpt>
      <trkpt lat="37.8852988500" lon="-6.5895386226">
        <ele>689.40</ele>
        <time>2021-05-29T16:48:32Z</time>
      </trkpt>
      <trkpt lat="37.8851649072" lon="-6.5888166893">
        <ele>685.56</ele>
        <time>2021-05-29T16:48:35Z</time>
      </trkpt>
      <trkpt lat="37.8849099297" lon="-6.5877438895">
        <ele>682.67</ele>
        <time>2021-05-29T16:48:40Z</time>
      </trkpt>
      <trkpt lat="37.8849056549" lon="-6.5875395387">
        <ele>681.71</ele>
        <time>2021-05-29T16:48:41Z</time>
      </trkpt>
      <trkpt lat="37.8849229217" lon="-6.5873553045">
        <ele>681.23</ele>
        <time>2021-05-29T16:48:42Z</time>
      </trkpt>
      <trkpt lat="37.8849577066" lon="-6.5871871635">
        <ele>680.27</ele>
        <time>2021-05-29T16:48:43Z</time>
      </trkpt>
      <trkpt lat="37.8849986102" lon="-6.5870235488">
        <ele>679.31</ele>
        <time>2021-05-29T16:48:44Z</time>
      </trkpt>
      <trkpt lat="37.8850201517" lon="-6.5868520550">
        <ele>678.83</ele>
        <time>2021-05-29T16:48:45Z</time>
      </trkpt>
      <trkpt lat="37.8850101773" lon="-6.5866628755">
        <ele>678.83</ele>
        <time>2021-05-29T16:48:46Z</time>
      </trkpt>
      <trkpt lat="37.8849727102" lon="-6.5864762105">
        <ele>679.79</ele>
        <time>2021-05-29T16:48:47Z</time>
      </trkpt>
      <trkpt lat="37.8849063255" lon="-6.5861076582">
        <ele>677.87</ele>
        <time>2021-05-29T16:48:49Z</time>
      </trkpt>
      <trkpt lat="37.8849035595" lon="-6.5859050676">
        <ele>678.35</ele>
        <time>2021-05-29T16:48:50Z</time>
      </trkpt>
      <trkpt lat="37.8849302139" lon="-6.5856893174">
        <ele>677.87</ele>
        <time>2021-05-29T16:48:51Z</time>
      </trkpt>
      <trkpt lat="37.8849782422" lon="-6.5854650177">
        <ele>678.35</ele>
        <time>2021-05-29T16:48:52Z</time>
      </trkpt>
      <trkpt lat="37.8850338981" lon="-6.5852335934">
        <ele>679.79</ele>
        <time>2021-05-29T16:48:53Z</time>
      </trkpt>
      <trkpt lat="37.8850857820" lon="-6.5850057732">
        <ele>679.31</ele>
        <time>2021-05-29T16:48:54Z</time>
      </trkpt>
      <trkpt lat="37.8852136899" lon="-6.5845960658">
        <ele>676.91</ele>
        <time>2021-05-29T16:48:56Z</time>
      </trkpt>
      <trkpt lat="37.8853173740" lon="-6.5844151005">
        <ele>677.39</ele>
        <time>2021-05-29T16:48:57Z</time>
      </trkpt>
      <trkpt lat="37.8854462039" lon="-6.5842381585">
        <ele>677.87</ele>
        <time>2021-05-29T16:48:58Z</time>
      </trkpt>
      <trkpt lat="37.8857054561" lon="-6.5838418622">
        <ele>678.35</ele>
        <time>2021-05-29T16:49:00Z</time>
      </trkpt>
      <trkpt lat="37.8858167678" lon="-6.5836207476">
        <ele>678.83</ele>
        <time>2021-05-29T16:49:01Z</time>
      </trkpt>
      <trkpt lat="37.8861183487" lon="-6.5830141492">
        <ele>674.98</ele>
        <time>2021-05-29T16:49:04Z</time>
      </trkpt>
      <trkpt lat="37.8869177308" lon="-6.5816867910">
        <ele>672.10</ele>
        <time>2021-05-29T16:49:12Z</time>
      </trkpt>
      <trkpt lat="37.8871090896" lon="-6.5813739784">
        <ele>671.14</ele>
        <time>2021-05-29T16:49:14Z</time>
      </trkpt>
      <trkpt lat="37.8873545118" lon="-6.5809414722">
        <ele>669.70</ele>
        <time>2021-05-29T16:49:17Z</time>
      </trkpt>
      <trkpt lat="37.8874136880" lon="-6.5807849821">
        <ele>669.70</ele>
        <time>2021-05-29T16:49:18Z</time>
      </trkpt>
      <trkpt lat="37.8874584474" lon="-6.5806083754">
        <ele>669.70</ele>
        <time>2021-05-29T16:49:19Z</time>
      </trkpt>
      <trkpt lat="37.8874943219" lon="-6.5804149210">
        <ele>669.70</ele>
        <time>2021-05-29T16:49:20Z</time>
      </trkpt>
      <trkpt lat="37.8876289353" lon="-6.5795301273">
        <ele>666.33</ele>
        <time>2021-05-29T16:49:25Z</time>
      </trkpt>
      <trkpt lat="37.8877162747" lon="-6.5790003911">
        <ele>663.45</ele>
        <time>2021-05-29T16:49:29Z</time>
      </trkpt>
      <trkpt lat="37.8878817335" lon="-6.5778874420">
        <ele>663.45</ele>
        <time>2021-05-29T16:49:38Z</time>
      </trkpt>
      <trkpt lat="37.8879557457" lon="-6.5774294548">
        <ele>662.01</ele>
        <time>2021-05-29T16:49:43Z</time>
      </trkpt>
      <trkpt lat="37.8879502974" lon="-6.5773589630">
        <ele>662.49</ele>
        <time>2021-05-29T16:49:44Z</time>
      </trkpt>
      <trkpt lat="37.8879400715" lon="-6.5772060771">
        <ele>661.52</ele>
        <time>2021-05-29T16:49:46Z</time>
      </trkpt>
      <trkpt lat="37.8879704140" lon="-6.5771184023">
        <ele>662.01</ele>
        <time>2021-05-29T16:49:47Z</time>
      </trkpt>
      <trkpt lat="37.8880514670" lon="-6.5769158117">
        <ele>663.45</ele>
        <time>2021-05-29T16:49:49Z</time>
      </trkpt>
      <trkpt lat="37.8880802169" lon="-6.5767853055">
        <ele>664.41</ele>
        <time>2021-05-29T16:49:50Z</time>
      </trkpt>
      <trkpt lat="37.8882315103" lon="-6.5761319362">
        <ele>662.97</ele>
        <time>2021-05-29T16:49:55Z</time>
      </trkpt>
      <trkpt lat="37.8884873260" lon="-6.5753203165">
        <ele>659.60</ele>
        <time>2021-05-29T16:50:03Z</time>
      </trkpt>
      <trkpt lat="37.8889608197" lon="-6.5738756955">
        <ele>659.60</ele>
        <time>2021-05-29T16:50:15Z</time>
      </trkpt>
      <trkpt lat="37.8890950140" lon="-6.5734615456">
        <ele>658.64</ele>
        <time>2021-05-29T16:50:18Z</time>
      </trkpt>
      <trkpt lat="37.8895056434" lon="-6.5722185932">
        <ele>656.72</ele>
        <time>2021-05-29T16:50:29Z</time>
      </trkpt>
      <trkpt lat="37.8897085693" lon="-6.5715422574">
        <ele>655.28</ele>
        <time>2021-05-29T16:50:37Z</time>
      </trkpt>
      <trkpt lat="37.8897132631" lon="-6.5714936424">
        <ele>655.28</ele>
        <time>2021-05-29T16:50:38Z</time>
      </trkpt>
      <trkpt lat="37.8897128440" lon="-6.5714482125">
        <ele>655.76</ele>
        <time>2021-05-29T16:50:39Z</time>
      </trkpt>
      <trkpt lat="37.8896715213" lon="-6.5712115914">
        <ele>654.31</ele>
        <time>2021-05-29T16:50:43Z</time>
      </trkpt>
      <trkpt lat="37.8896436095" lon="-6.5711507387">
        <ele>653.83</ele>
        <time>2021-05-29T16:50:44Z</time>
      </trkpt>
      <trkpt lat="37.8896053042" lon="-6.5710912272">
        <ele>653.83</ele>
        <time>2021-05-29T16:50:45Z</time>
      </trkpt>
      <trkpt lat="37.8892438766" lon="-6.5706220921">
        <ele>650.47</ele>
        <time>2021-05-29T16:50:52Z</time>
      </trkpt>
      <trkpt lat="37.8890390228" lon="-6.5703009814">
        <ele>647.59</ele>
        <time>2021-05-29T16:50:57Z</time>
      </trkpt>
      <trkpt lat="37.8890109435" lon="-6.5702231973">
        <ele>647.59</ele>
        <time>2021-05-29T16:50:58Z</time>
      </trkpt>
      <trkpt lat="37.8889892343" lon="-6.5701464191">
        <ele>647.10</ele>
        <time>2021-05-29T16:50:59Z</time>
      </trkpt>
      <trkpt lat="37.8889712133" lon="-6.5700669587">
        <ele>646.14</ele>
        <time>2021-05-29T16:51:00Z</time>
      </trkpt>
      <trkpt lat="37.8889526054" lon="-6.5699827205">
        <ele>645.66</ele>
        <time>2021-05-29T16:51:01Z</time>
      </trkpt>
      <trkpt lat="37.8889274597" lon="-6.5699011646">
        <ele>645.18</ele>
        <time>2021-05-29T16:51:02Z</time>
      </trkpt>
      <trkpt lat="37.8888945188" lon="-6.5698184352">
        <ele>644.70</ele>
        <time>2021-05-29T16:51:03Z</time>
      </trkpt>
      <trkpt lat="37.8888529446" lon="-6.5697405674">
        <ele>644.70</ele>
        <time>2021-05-29T16:51:04Z</time>
      </trkpt>
      <trkpt lat="37.8888082691" lon="-6.5696777869">
        <ele>643.74</ele>
        <time>2021-05-29T16:51:05Z</time>
      </trkpt>
      <trkpt lat="37.8887617495" lon="-6.5696331952">
        <ele>643.74</ele>
        <time>2021-05-29T16:51:06Z</time>
      </trkpt>
      <trkpt lat="37.8887116257" lon="-6.5696083847">
        <ele>642.78</ele>
        <time>2021-05-29T16:51:07Z</time>
      </trkpt>
      <trkpt lat="37.8886646032" lon="-6.5695902798">
        <ele>642.78</ele>
        <time>2021-05-29T16:51:08Z</time>
      </trkpt>
      <trkpt lat="37.8886273038" lon="-6.5695660561">
        <ele>642.30</ele>
        <time>2021-05-29T16:51:09Z</time>
      </trkpt>
      <trkpt lat="37.8886055108" lon="-6.5695320256">
        <ele>641.34</ele>
        <time>2021-05-29T16:51:10Z</time>
      </trkpt>
      <trkpt lat="37.8885953687" lon="-6.5694900323">
        <ele>641.82</ele>
        <time>2021-05-29T16:51:11Z</time>
      </trkpt>
      <trkpt lat="37.8885905072" lon="-6.5694458596">
        <ele>641.82</ele>
        <time>2021-05-29T16:51:12Z</time>
      </trkpt>
      <trkpt lat="37.8885834664" lon="-6.5693871025">
        <ele>641.82</ele>
        <time>2021-05-29T16:51:13Z</time>
      </trkpt>
      <trkpt lat="37.8885689657" lon="-6.5693107434">
        <ele>641.82</ele>
        <time>2021-05-29T16:51:14Z</time>
      </trkpt>
      <trkpt lat="37.8885472566" lon="-6.5692230687">
        <ele>642.30</ele>
        <time>2021-05-29T16:51:15Z</time>
      </trkpt>
      <trkpt lat="37.8883130662" lon="-6.5683158115">
        <ele>640.86</ele>
        <time>2021-05-29T16:51:25Z</time>
      </trkpt>
      <trkpt lat="37.8880476952" lon="-6.5674754418">
        <ele>639.41</ele>
        <time>2021-05-29T16:51:33Z</time>
      </trkpt>
      <trkpt lat="37.8880040254" lon="-6.5673828218">
        <ele>638.93</ele>
        <time>2021-05-29T16:51:34Z</time>
      </trkpt>
      <trkpt lat="37.8879477829" lon="-6.5672882739">
        <ele>638.93</ele>
        <time>2021-05-29T16:51:35Z</time>
      </trkpt>
      <trkpt lat="37.8878831584" lon="-6.5672002640">
        <ele>638.45</ele>
        <time>2021-05-29T16:51:36Z</time>
      </trkpt>
      <trkpt lat="37.8876150213" lon="-6.5669309534">
        <ele>636.53</ele>
        <time>2021-05-29T16:51:40Z</time>
      </trkpt>
      <trkpt lat="37.8875555098" lon="-6.5669078194">
        <ele>635.57</ele>
        <time>2021-05-29T16:51:41Z</time>
      </trkpt>
      <trkpt lat="37.8874606267" lon="-6.5668744594">
        <ele>635.09</ele>
        <time>2021-05-29T16:51:43Z</time>
      </trkpt>
      <trkpt lat="37.8874393366" lon="-6.5668260958">
        <ele>635.57</ele>
        <time>2021-05-29T16:51:44Z</time>
      </trkpt>
      <trkpt lat="37.8874480538" lon="-6.5667690150">
        <ele>635.09</ele>
        <time>2021-05-29T16:51:45Z</time>
      </trkpt>
      <trkpt lat="37.8874887060" lon="-6.5667266864">
        <ele>635.57</ele>
        <time>2021-05-29T16:51:46Z</time>
      </trkpt>
      <trkpt lat="37.8875481337" lon="-6.5667029656">
        <ele>636.05</ele>
        <time>2021-05-29T16:51:47Z</time>
      </trkpt>
      <trkpt lat="37.8876172844" lon="-6.5666736290">
        <ele>636.53</ele>
        <time>2021-05-29T16:51:48Z</time>
      </trkpt>
      <trkpt lat="37.8876897879" lon="-6.5666214097">
        <ele>637.01</ele>
        <time>2021-05-29T16:51:49Z</time>
      </trkpt>
      <trkpt lat="37.8877631295" lon="-6.5665518399">
        <ele>637.49</ele>
        <time>2021-05-29T16:51:50Z</time>
      </trkpt>
      <trkpt lat="37.8878385667" lon="-6.5664773248">
        <ele>638.93</ele>
        <time>2021-05-29T16:51:51Z</time>
      </trkpt>
      <trkpt lat="37.8879124112" lon="-6.5664076712">
        <ele>638.93</ele>
        <time>2021-05-29T16:51:52Z</time>
      </trkpt>
      <trkpt lat="37.8881173488" lon="-6.5662191622">
        <ele>639.41</ele>
        <time>2021-05-29T16:51:55Z</time>
      </trkpt>
      <trkpt lat="37.8881502897" lon="-6.5661475807">
        <ele>639.89</ele>
        <time>2021-05-29T16:51:56Z</time>
      </trkpt>
      <trkpt lat="37.8881663829" lon="-6.5660626721">
        <ele>639.89</ele>
        <time>2021-05-29T16:51:57Z</time>
      </trkpt>
      <trkpt lat="37.8881638683" lon="-6.5659621730">
        <ele>640.86</ele>
        <time>2021-05-29T16:51:58Z</time>
      </trkpt>
      <trkpt lat="37.8881423268" lon="-6.5658507776">
        <ele>640.86</ele>
        <time>2021-05-29T16:51:59Z</time>
      </trkpt>
      <trkpt lat="37.8881146666" lon="-6.5657293238">
        <ele>642.30</ele>
        <time>2021-05-29T16:52:00Z</time>
      </trkpt>
      <trkpt lat="37.8879915364" lon="-6.5644619800">
        <ele>642.30</ele>
        <time>2021-05-29T16:52:08Z</time>
      </trkpt>
      <trkpt lat="37.8878290951" lon="-6.5633060317">
        <ele>645.66</ele>
        <time>2021-05-29T16:52:15Z</time>
      </trkpt>
      <trkpt lat="37.8877349664" lon="-6.5628987551">
        <ele>648.07</ele>
        <time>2021-05-29T16:52:18Z</time>
      </trkpt>
      <trkpt lat="37.8877264168" lon="-6.5627964959">
        <ele>649.03</ele>
        <time>2021-05-29T16:52:19Z</time>
      </trkpt>
      <trkpt lat="37.8877297696" lon="-6.5627089050">
        <ele>649.03</ele>
        <time>2021-05-29T16:52:20Z</time>
      </trkpt>
      <trkpt lat="37.8877345473" lon="-6.5626361500">
        <ele>649.03</ele>
        <time>2021-05-29T16:52:21Z</time>
      </trkpt>
      <trkpt lat="37.8877344634" lon="-6.5625712741">
        <ele>649.51</ele>
        <time>2021-05-29T16:52:22Z</time>
      </trkpt>
      <trkpt lat="37.8877315298" lon="-6.5625043027">
        <ele>649.99</ele>
        <time>2021-05-29T16:52:23Z</time>
      </trkpt>
      <trkpt lat="37.8877209686" lon="-6.5624281112">
        <ele>649.51</ele>
        <time>2021-05-29T16:52:24Z</time>
      </trkpt>
      <trkpt lat="37.8875736147" lon="-6.5616422240">
        <ele>650.47</ele>
        <time>2021-05-29T16:52:30Z</time>
      </trkpt>
      <trkpt lat="37.8874867782" lon="-6.5611961391">
        <ele>649.51</ele>
        <time>2021-05-29T16:52:33Z</time>
      </trkpt>
      <trkpt lat="37.8873012029" lon="-6.5601653326">
        <ele>648.55</ele>
        <time>2021-05-29T16:52:40Z</time>
      </trkpt>
      <trkpt lat="37.8873039689" lon="-6.5600276180">
        <ele>648.07</ele>
        <time>2021-05-29T16:52:41Z</time>
      </trkpt>
      <trkpt lat="37.8873262648" lon="-6.5598883107">
        <ele>648.55</ele>
        <time>2021-05-29T16:52:42Z</time>
      </trkpt>
      <trkpt lat="37.8873675875" lon="-6.5597478300">
        <ele>648.55</ele>
        <time>2021-05-29T16:52:43Z</time>
      </trkpt>
      <trkpt lat="37.8874259256" lon="-6.5596154798">
        <ele>648.07</ele>
        <time>2021-05-29T16:52:44Z</time>
      </trkpt>
      <trkpt lat="37.8874913044" lon="-6.5594993066">
        <ele>647.59</ele>
        <time>2021-05-29T16:52:45Z</time>
      </trkpt>
      <trkpt lat="37.8875596169" lon="-6.5593951195">
        <ele>647.10</ele>
        <time>2021-05-29T16:52:46Z</time>
      </trkpt>
      <trkpt lat="37.8876186255" lon="-6.5593112167">
        <ele>647.10</ele>
        <time>2021-05-29T16:52:47Z</time>
      </trkpt>
      <trkpt lat="37.8877558373" lon="-6.5590894315">
        <ele>649.03</ele>
        <time>2021-05-29T16:52:49Z</time>
      </trkpt>
      <trkpt lat="37.8878023569" lon="-6.5589747671">
        <ele>649.03</ele>
        <time>2021-05-29T16:52:50Z</time>
      </trkpt>
      <trkpt lat="37.8878367227" lon="-6.5588513017">
        <ele>649.51</ele>
        <time>2021-05-29T16:52:51Z</time>
      </trkpt>
      <trkpt lat="37.8878565878" lon="-6.5587193705">
        <ele>649.99</ele>
        <time>2021-05-29T16:52:52Z</time>
      </trkpt>
      <trkpt lat="37.8878583480" lon="-6.5585829969">
        <ele>650.95</ele>
        <time>2021-05-29T16:52:53Z</time>
      </trkpt>
      <trkpt lat="37.8878399916" lon="-6.5584430192">
        <ele>651.91</ele>
        <time>2021-05-29T16:52:54Z</time>
      </trkpt>
      <trkpt lat="37.8878119960" lon="-6.5583010297">
        <ele>652.39</ele>
        <time>2021-05-29T16:52:55Z</time>
      </trkpt>
      <trkpt lat="37.8877772950" lon="-6.5581613872">
        <ele>653.35</ele>
        <time>2021-05-29T16:52:56Z</time>
      </trkpt>
      <trkpt lat="37.8877391573" lon="-6.5580211580">
        <ele>653.83</ele>
        <time>2021-05-29T16:52:57Z</time>
      </trkpt>
      <trkpt lat="37.8876656480" lon="-6.5577531885">
        <ele>655.28</ele>
        <time>2021-05-29T16:52:59Z</time>
      </trkpt>
      <trkpt lat="37.8875408415" lon="-6.5573627595">
        <ele>656.72</ele>
        <time>2021-05-29T16:53:03Z</time>
      </trkpt>
      <trkpt lat="37.8875045478" lon="-6.5572873224">
        <ele>656.72</ele>
        <time>2021-05-29T16:53:04Z</time>
      </trkpt>
      <trkpt lat="37.8874685057" lon="-6.5572187584">
        <ele>656.72</ele>
        <time>2021-05-29T16:53:05Z</time>
      </trkpt>
      <trkpt lat="37.8871638235" lon="-6.5568105597">
        <ele>657.68</ele>
        <time>2021-05-29T16:53:14Z</time>
      </trkpt>
      <trkpt lat="37.8871276136" lon="-6.5567521378">
        <ele>658.64</ele>
        <time>2021-05-29T16:53:15Z</time>
      </trkpt>
      <trkpt lat="37.8871049825" lon="-6.5566808917">
        <ele>658.64</ele>
        <time>2021-05-29T16:53:16Z</time>
      </trkpt>
      <trkpt lat="37.8871065751" lon="-6.5566024370">
        <ele>658.64</ele>
        <time>2021-05-29T16:53:17Z</time>
      </trkpt>
      <trkpt lat="37.8871326428" lon="-6.5565304365">
        <ele>658.64</ele>
        <time>2021-05-29T16:53:18Z</time>
      </trkpt>
      <trkpt lat="37.8871793300" lon="-6.5564814024">
        <ele>658.64</ele>
        <time>2021-05-29T16:53:19Z</time>
      </trkpt>
      <trkpt lat="37.8872356564" lon="-6.5564599447">
        <ele>659.12</ele>
        <time>2021-05-29T16:53:20Z</time>
      </trkpt>
      <trkpt lat="37.8872950841" lon="-6.5564627107">
        <ele>659.60</ele>
        <time>2021-05-29T16:53:21Z</time>
      </trkpt>
      <trkpt lat="37.8873592056" lon="-6.5564812347">
        <ele>660.08</ele>
        <time>2021-05-29T16:53:22Z</time>
      </trkpt>
      <trkpt lat="37.8874297813" lon="-6.5565075539">
        <ele>659.60</ele>
        <time>2021-05-29T16:53:23Z</time>
      </trkpt>
      <trkpt lat="37.8875052184" lon="-6.5565259941">
        <ele>659.60</ele>
        <time>2021-05-29T16:53:24Z</time>
      </trkpt>
      <trkpt lat="37.8875856847" lon="-6.5565255750">
        <ele>661.04</ele>
        <time>2021-05-29T16:53:25Z</time>
      </trkpt>
      <trkpt lat="37.8876684979" lon="-6.5565093141">
        <ele>660.56</ele>
        <time>2021-05-29T16:53:26Z</time>
      </trkpt>
      <trkpt lat="37.8881345317" lon="-6.5563667379">
        <ele>663.45</ele>
        <time>2021-05-29T16:53:31Z</time>
      </trkpt>
      <trkpt lat="37.8885729890" lon="-6.5562062245">
        <ele>667.29</ele>
        <time>2021-05-29T16:53:35Z</time>
      </trkpt>
      <trkpt lat="37.8891452216" lon="-6.5559709445">
        <ele>671.14</ele>
        <time>2021-05-29T16:53:40Z</time>
      </trkpt>
      <trkpt lat="37.8895784821" lon="-6.5557271987">
        <ele>674.02</ele>
        <time>2021-05-29T16:53:44Z</time>
      </trkpt>
      <trkpt lat="37.8898912948" lon="-6.5554742329">
        <ele>677.87</ele>
        <time>2021-05-29T16:53:47Z</time>
      </trkpt>
      <trkpt lat="37.8903158382" lon="-6.5551077761">
        <ele>681.71</ele>
        <time>2021-05-29T16:53:51Z</time>
      </trkpt>
      <trkpt lat="37.8904354479" lon="-6.5550423134">
        <ele>683.63</ele>
        <time>2021-05-29T16:53:52Z</time>
      </trkpt>
      <trkpt lat="37.8905660380" lon="-6.5550091211">
        <ele>685.56</ele>
        <time>2021-05-29T16:53:53Z</time>
      </trkpt>
      <trkpt lat="37.8907022439" lon="-6.5550148208">
        <ele>686.52</ele>
        <time>2021-05-29T16:53:54Z</time>
      </trkpt>
      <trkpt lat="37.8908328339" lon="-6.5550637711">
        <ele>687.00</ele>
        <time>2021-05-29T16:53:55Z</time>
      </trkpt>
      <trkpt lat="37.8909490071" lon="-6.5551560558">
        <ele>687.96</ele>
        <time>2021-05-29T16:53:56Z</time>
      </trkpt>
      <trkpt lat="37.8910503443" lon="-6.5552840475">
        <ele>688.92</ele>
        <time>2021-05-29T16:53:57Z</time>
      </trkpt>
      <trkpt lat="37.8911422938" lon="-6.5554347541">
        <ele>690.84</ele>
        <time>2021-05-29T16:53:58Z</time>
      </trkpt>
      <trkpt lat="37.8912325669" lon="-6.5555972792">
        <ele>691.81</ele>
        <time>2021-05-29T16:53:59Z</time>
      </trkpt>
      <trkpt lat="37.8915119357" lon="-6.5561043844">
        <ele>695.17</ele>
        <time>2021-05-29T16:54:02Z</time>
      </trkpt>
      <trkpt lat="37.8917702660" lon="-6.5565849189">
        <ele>697.57</ele>
        <time>2021-05-29T16:54:05Z</time>
      </trkpt>
      <trkpt lat="37.8920154367" lon="-6.5569579136">
        <ele>699.02</ele>
        <time>2021-05-29T16:54:08Z</time>
      </trkpt>
      <trkpt lat="37.8921128344" lon="-6.5570573229">
        <ele>699.02</ele>
        <time>2021-05-29T16:54:09Z</time>
      </trkpt>
      <trkpt lat="37.8922224697" lon="-6.5571445785">
        <ele>698.53</ele>
        <time>2021-05-29T16:54:10Z</time>
      </trkpt>
      <trkpt lat="37.8923435044" lon="-6.5572214406">
        <ele>698.53</ele>
        <time>2021-05-29T16:54:11Z</time>
      </trkpt>
      <trkpt lat="37.8924703225" lon="-6.5572981350">
        <ele>698.05</ele>
        <time>2021-05-29T16:54:12Z</time>
      </trkpt>
      <trkpt lat="37.8932220954" lon="-6.5577723831">
        <ele>695.17</ele>
        <time>2021-05-29T16:54:18Z</time>
      </trkpt>
      <trkpt lat="37.8938378301" lon="-6.5581532568">
        <ele>698.05</ele>
        <time>2021-05-29T16:54:23Z</time>
      </trkpt>
      <trkpt lat="37.8939629719" lon="-6.5582222398">
        <ele>698.53</ele>
        <time>2021-05-29T16:54:24Z</time>
      </trkpt>
      <trkpt lat="37.8940944839" lon="-6.5582690947">
        <ele>698.53</ele>
        <time>2021-05-29T16:54:25Z</time>
      </trkpt>
      <trkpt lat="37.8942319471" lon="-6.5582885407">
        <ele>699.50</ele>
        <time>2021-05-29T16:54:26Z</time>
      </trkpt>
      <trkpt lat="37.8943734337" lon="-6.5582776442">
        <ele>699.98</ele>
        <time>2021-05-29T16:54:27Z</time>
      </trkpt>
      <trkpt lat="37.8945164289" lon="-6.5582462959">
        <ele>700.94</ele>
        <time>2021-05-29T16:54:28Z</time>
      </trkpt>
      <trkpt lat="37.8946578316" lon="-6.5582025424">
        <ele>700.94</ele>
        <time>2021-05-29T16:54:29Z</time>
      </trkpt>
      <trkpt lat="37.8960016184" lon="-6.5578341577">
        <ele>699.02</ele>
        <time>2021-05-29T16:54:38Z</time>
      </trkpt>
      <trkpt lat="37.8966015112" lon="-6.5577834472">
        <ele>693.25</ele>
        <time>2021-05-29T16:54:43Z</time>
      </trkpt>
      <trkpt lat="37.8967700712" lon="-6.5577825252">
        <ele>689.40</ele>
        <time>2021-05-29T16:54:45Z</time>
      </trkpt>
      <trkpt lat="37.8969184309" lon="-6.5577253606">
        <ele>685.56</ele>
        <time>2021-05-29T16:54:48Z</time>
      </trkpt>
      <trkpt lat="37.8969609272" lon="-6.5576962754">
        <ele>685.56</ele>
        <time>2021-05-29T16:54:49Z</time>
      </trkpt>
      <trkpt lat="37.8970094584" lon="-6.5576910786">
        <ele>685.56</ele>
        <time>2021-05-29T16:54:50Z</time>
      </trkpt>
      <trkpt lat="37.8970530443" lon="-6.5577158052">
        <ele>685.56</ele>
        <time>2021-05-29T16:54:51Z</time>
      </trkpt>
      <trkpt lat="37.8970789444" lon="-6.5577715449">
        <ele>685.56</ele>
        <time>2021-05-29T16:54:52Z</time>
      </trkpt>
      <trkpt lat="37.8970789444" lon="-6.5578428749">
        <ele>686.04</ele>
        <time>2021-05-29T16:54:53Z</time>
      </trkpt>
      <trkpt lat="37.8970456682" lon="-6.5579136182">
        <ele>687.48</ele>
        <time>2021-05-29T16:54:54Z</time>
      </trkpt>
      <trkpt lat="37.8969971370" lon="-6.5579826850">
        <ele>688.44</ele>
        <time>2021-05-29T16:54:55Z</time>
      </trkpt>
      <trkpt lat="37.8969463427" lon="-6.5580572840">
        <ele>688.44</ele>
        <time>2021-05-29T16:54:56Z</time>
      </trkpt>
      <trkpt lat="37.8968122322" lon="-6.5582931507">
        <ele>689.40</ele>
        <time>2021-05-29T16:54:59Z</time>
      </trkpt>
      <trkpt lat="37.8967943788" lon="-6.5583642293">
        <ele>689.88</ele>
        <time>2021-05-29T16:55:00Z</time>
      </trkpt>
      <trkpt lat="37.8967574146" lon="-6.5585010219">
        <ele>689.88</ele>
        <time>2021-05-29T16:55:02Z</time>
      </trkpt>
      <trkpt lat="37.8967116494" lon="-6.5585362259">
        <ele>690.84</ele>
        <time>2021-05-29T16:55:03Z</time>
      </trkpt>
      <trkpt lat="37.8966585919" lon="-6.5585249942">
        <ele>691.33</ele>
        <time>2021-05-29T16:55:04Z</time>
      </trkpt>
      <trkpt lat="37.8966189455" lon="-6.5584736969">
        <ele>691.33</ele>
        <time>2021-05-29T16:55:05Z</time>
      </trkpt>
      <trkpt lat="37.8966004215" lon="-6.5583923087">
        <ele>691.81</ele>
        <time>2021-05-29T16:55:06Z</time>
      </trkpt>
      <trkpt lat="37.8965698276" lon="-6.5583049692">
        <ele>692.29</ele>
        <time>2021-05-29T16:55:07Z</time>
      </trkpt>
      <trkpt lat="37.8965178598" lon="-6.5582246706">
        <ele>692.77</ele>
        <time>2021-05-29T16:55:08Z</time>
      </trkpt>
      <trkpt lat="37.8964503016" lon="-6.5581653267">
        <ele>693.73</ele>
        <time>2021-05-29T16:55:09Z</time>
      </trkpt>
      <trkpt lat="37.8963791393" lon="-6.5581264347">
        <ele>694.21</ele>
        <time>2021-05-29T16:55:10Z</time>
      </trkpt>
      <trkpt lat="37.8963015229" lon="-6.5580974333">
        <ele>695.17</ele>
        <time>2021-05-29T16:55:11Z</time>
      </trkpt>
      <trkpt lat="37.8962135129" lon="-6.5580723714">
        <ele>696.13</ele>
        <time>2021-05-29T16:55:12Z</time>
      </trkpt>
      <trkpt lat="37.8961164504" lon="-6.5580494050">
        <ele>697.09</ele>
        <time>2021-05-29T16:55:13Z</time>
      </trkpt>
      <trkpt lat="37.8958046436" lon="-6.5580119379">
        <ele>698.53</ele>
        <time>2021-05-29T16:55:16Z</time>
      </trkpt>
      <trkpt lat="37.8956969362" lon="-6.5580232535">
        <ele>699.02</ele>
        <time>2021-05-29T16:55:17Z</time>
      </trkpt>
      <trkpt lat="37.8947903495" lon="-6.5582093317">
        <ele>702.38</ele>
        <time>2021-05-29T16:55:24Z</time>
      </trkpt>
      <trkpt lat="37.8946527187" lon="-6.5582443681">
        <ele>702.38</ele>
        <time>2021-05-29T16:55:25Z</time>
      </trkpt>
      <trkpt lat="37.8942378145" lon="-6.5583005268">
        <ele>701.90</ele>
        <time>2021-05-29T16:55:28Z</time>
      </trkpt>
      <trkpt lat="37.8941026982" lon="-6.5582784824">
        <ele>700.94</ele>
        <time>2021-05-29T16:55:29Z</time>
      </trkpt>
      <trkpt lat="37.8939757124" lon="-6.5582348127">
        <ele>699.50</ele>
        <time>2021-05-29T16:55:30Z</time>
      </trkpt>
      <trkpt lat="37.8938554320" lon="-6.5581742115">
        <ele>698.53</ele>
        <time>2021-05-29T16:55:31Z</time>
      </trkpt>
      <trkpt lat="37.8937378339" lon="-6.5581021272">
        <ele>698.05</ele>
        <time>2021-05-29T16:55:32Z</time>
      </trkpt>
      <trkpt lat="37.8933018912" lon="-6.5578238480">
        <ele>695.65</ele>
        <time>2021-05-29T16:55:36Z</time>
      </trkpt>
      <trkpt lat="37.8925766051" lon="-6.5573664475">
        <ele>695.65</ele>
        <time>2021-05-29T16:55:45Z</time>
      </trkpt>
      <trkpt lat="37.8921454400" lon="-6.5571024176">
        <ele>697.57</ele>
        <time>2021-05-29T16:55:54Z</time>
      </trkpt>
      <trkpt lat="37.8920182027" lon="-6.5569854062">
        <ele>698.05</ele>
        <time>2021-05-29T16:55:56Z</time>
      </trkpt>
      <trkpt lat="37.8919529077" lon="-6.5569081251">
        <ele>698.05</ele>
        <time>2021-05-29T16:55:57Z</time>
      </trkpt>
      <trkpt lat="37.8914518375" lon="-6.5560033824">
        <ele>695.17</ele>
        <time>2021-05-29T16:56:05Z</time>
      </trkpt>
      <trkpt lat="37.8912809305" lon="-6.5556781646">
        <ele>692.29</ele>
        <time>2021-05-29T16:56:08Z</time>
      </trkpt>
      <trkpt lat="37.8909736499" lon="-6.5551740769">
        <ele>688.44</ele>
        <time>2021-05-29T16:56:13Z</time>
      </trkpt>
      <trkpt lat="37.8908957820" lon="-6.5551002324">
        <ele>687.48</ele>
        <time>2021-05-29T16:56:14Z</time>
      </trkpt>
      <trkpt lat="37.8908032458" lon="-6.5550439060">
        <ele>687.00</ele>
        <time>2021-05-29T16:56:15Z</time>
      </trkpt>
      <trkpt lat="37.8906956222" lon="-6.5550075285">
        <ele>686.52</ele>
        <time>2021-05-29T16:56:16Z</time>
      </trkpt>
      <trkpt lat="37.8905784432" lon="-6.5549993981">
        <ele>685.56</ele>
        <time>2021-05-29T16:56:17Z</time>
      </trkpt>
      <trkpt lat="37.8904625215" lon="-6.5550246276">
        <ele>684.60</ele>
        <time>2021-05-29T16:56:18Z</time>
      </trkpt>
      <trkpt lat="37.8903578315" lon="-6.5550763439">
        <ele>683.63</ele>
        <time>2021-05-29T16:56:19Z</time>
      </trkpt>
      <trkpt lat="37.8902659658" lon="-6.5551480930">
        <ele>682.67</ele>
        <time>2021-05-29T16:56:20Z</time>
      </trkpt>
      <trkpt lat="37.8901818953" lon="-6.5552299004">
        <ele>681.23</ele>
        <time>2021-05-29T16:56:21Z</time>
      </trkpt>
      <trkpt lat="37.8900113236" lon="-6.5553992987">
        <ele>679.79</ele>
        <time>2021-05-29T16:56:23Z</time>
      </trkpt>
      <trkpt lat="37.8897915501" lon="-6.5556015540">
        <ele>676.42</ele>
        <time>2021-05-29T16:56:26Z</time>
      </trkpt>
      <trkpt lat="37.8896565177" lon="-6.5557708684">
        <ele>673.54</ele>
        <time>2021-05-29T16:56:32Z</time>
      </trkpt>
      <trkpt lat="37.8896545060" lon="-6.5557866264">
        <ele>673.54</ele>
        <time>2021-05-29T16:56:33Z</time>
      </trkpt>
      <trkpt lat="37.8896488063" lon="-6.5558011271">
        <ele>673.54</ele>
        <time>2021-05-29T16:56:34Z</time>
      </trkpt>
      <trkpt lat="37.8896448668" lon="-6.5558151249">
        <ele>673.06</ele>
        <time>2021-05-29T16:56:35Z</time>
      </trkpt>
      <trkpt lat="37.8896088246" lon="-6.5557892248">
        <ele>673.06</ele>
        <time>2021-05-29T16:56:52Z</time>
      </trkpt>
      <trkpt lat="37.8895476367" lon="-6.5558051504">
        <ele>673.06</ele>
        <time>2021-05-29T16:57:25Z</time>
      </trkpt>
      <trkpt lat="37.8896636423" lon="-6.5558057372">
        <ele>673.06</ele>
        <time>2021-05-29T16:58:05Z</time>
      </trkpt>
      <trkpt lat="37.8896517400" lon="-6.5557394363">
        <ele>673.06</ele>
        <time>2021-05-29T16:58:44Z</time>
      </trkpt>
      <trkpt lat="37.8896494769" lon="-6.5559279453">
        <ele>673.54</ele>
        <time>2021-05-29T16:59:03Z</time>
      </trkpt>
      <trkpt lat="37.8896529134" lon="-6.5559571981">
        <ele>673.06</ele>
        <time>2021-05-29T16:59:34Z</time>
      </trkpt>
      <trkpt lat="37.8896581940" lon="-6.5559820924">
        <ele>673.06</ele>
        <time>2021-05-29T17:00:02Z</time>
      </trkpt>
      <trkpt lat="37.8896529134" lon="-6.5559665021">
        <ele>673.54</ele>
        <time>2021-05-29T17:00:30Z</time>
      </trkpt>
      <trkpt lat="37.8896383289" lon="-6.5559620596">
        <ele>673.54</ele>
        <time>2021-05-29T17:00:54Z</time>
      </trkpt>
      <trkpt lat="37.8896391671" lon="-6.5559437033">
        <ele>673.54</ele>
        <time>2021-05-29T17:01:23Z</time>
      </trkpt>
      <trkpt lat="37.8896331321" lon="-6.5559437033">
        <ele>673.06</ele>
        <time>2021-05-29T17:01:48Z</time>
      </trkpt>
      <trkpt lat="37.8896095790" lon="-6.5559970960">
        <ele>672.58</ele>
        <time>2021-05-29T17:02:13Z</time>
      </trkpt>
      <trkpt lat="37.8895891272" lon="-6.5559894685">
        <ele>672.58</ele>
        <time>2021-05-29T17:02:41Z</time>
      </trkpt>
      <trkpt lat="37.8895773925" lon="-6.5560530871">
        <ele>672.58</ele>
        <time>2021-05-29T17:03:20Z</time>
      </trkpt>
      <trkpt lat="37.8895873670" lon="-6.5560649894">
        <ele>673.06</ele>
        <time>2021-05-29T17:03:54Z</time>
      </trkpt>
      <trkpt lat="37.8896141052" lon="-6.5560400952">
        <ele>672.10</ele>
        <time>2021-05-29T17:04:19Z</time>
      </trkpt>
      <trkpt lat="37.8896341380" lon="-6.5560405981">
        <ele>672.58</ele>
        <time>2021-05-29T17:04:51Z</time>
      </trkpt>
      <trkpt lat="37.8896050528" lon="-6.5560421068">
        <ele>672.58</ele>
        <time>2021-05-29T17:05:26Z</time>
      </trkpt>
      <trkpt lat="37.8896140214" lon="-6.5560044721">
        <ele>673.06</ele>
        <time>2021-05-29T17:05:49Z</time>
      </trkpt>
      <trkpt lat="37.8896222357" lon="-6.5560065676">
        <ele>672.58</ele>
        <time>2021-05-29T17:06:12Z</time>
      </trkpt>
      <trkpt lat="37.8896449506" lon="-6.5560140274">
        <ele>672.10</ele>
        <time>2021-05-29T17:06:49Z</time>
      </trkpt>
      <trkpt lat="37.8896549251" lon="-6.5560186375">
        <ele>672.10</ele>
        <time>2021-05-29T17:07:23Z</time>
      </trkpt>
      <trkpt lat="37.8896617144" lon="-6.5560099203">
        <ele>673.06</ele>
        <time>2021-05-29T17:07:53Z</time>
      </trkpt>
      <trkpt lat="37.8896431904" lon="-6.5560099203">
        <ele>672.58</ele>
        <time>2021-05-29T17:08:16Z</time>
      </trkpt>
      <trkpt lat="37.8896308690" lon="-6.5560107585">
        <ele>672.58</ele>
        <time>2021-05-29T17:08:17Z</time>
      </trkpt>
      <trkpt lat="37.8895371594" lon="-6.5560019575">
        <ele>672.10</ele>
        <time>2021-05-29T17:08:21Z</time>
      </trkpt>
      <trkpt lat="37.8895138577" lon="-6.5559825953">
        <ele>671.62</ele>
        <time>2021-05-29T17:08:22Z</time>
      </trkpt>
      <trkpt lat="37.8893842734" lon="-6.5559398476">
        <ele>671.14</ele>
        <time>2021-05-29T17:08:30Z</time>
      </trkpt>
      <trkpt lat="37.8888910823" lon="-6.5561442822">
        <ele>668.25</ele>
        <time>2021-05-29T17:08:39Z</time>
      </trkpt>
      <trkpt lat="37.8881965578" lon="-6.5563657321">
        <ele>667.29</ele>
        <time>2021-05-29T17:08:46Z</time>
      </trkpt>
      <trkpt lat="37.8877379000" lon="-6.5565057099">
        <ele>663.93</ele>
        <time>2021-05-29T17:08:50Z</time>
      </trkpt>
      <trkpt lat="37.8876432683" lon="-6.5565420035">
        <ele>663.45</ele>
        <time>2021-05-29T17:08:51Z</time>
      </trkpt>
      <trkpt lat="37.8875623830" lon="-6.5565886069">
        <ele>662.49</ele>
        <time>2021-05-29T17:08:52Z</time>
      </trkpt>
      <trkpt lat="37.8874958307" lon="-6.5566456039">
        <ele>661.52</ele>
        <time>2021-05-29T17:08:53Z</time>
      </trkpt>
      <trkpt lat="37.8874431923" lon="-6.5567155089">
        <ele>660.56</ele>
        <time>2021-05-29T17:08:54Z</time>
      </trkpt>
      <trkpt lat="37.8874058928" lon="-6.5567978192">
        <ele>660.56</ele>
        <time>2021-05-29T17:08:55Z</time>
      </trkpt>
      <trkpt lat="37.8873881232" lon="-6.5568904392">
        <ele>660.56</ele>
        <time>2021-05-29T17:08:56Z</time>
      </trkpt>
      <trkpt lat="37.8873957507" lon="-6.5569717437">
        <ele>659.12</ele>
        <time>2021-05-29T17:08:57Z</time>
      </trkpt>
      <trkpt lat="37.8874238301" lon="-6.5570502821">
        <ele>658.64</ele>
        <time>2021-05-29T17:08:58Z</time>
      </trkpt>
      <trkpt lat="37.8874623869" lon="-6.5571427345">
        <ele>659.12</ele>
        <time>2021-05-29T17:08:59Z</time>
      </trkpt>
      <trkpt lat="37.8875571024" lon="-6.5573773440">
        <ele>660.08</ele>
        <time>2021-05-29T17:09:01Z</time>
      </trkpt>
      <trkpt lat="37.8878231440" lon="-6.5582848527">
        <ele>656.72</ele>
        <time>2021-05-29T17:09:07Z</time>
      </trkpt>
      <trkpt lat="37.8878677357" lon="-6.5585973300">
        <ele>654.31</ele>
        <time>2021-05-29T17:09:09Z</time>
      </trkpt>
      <trkpt lat="37.8878674004" lon="-6.5587436780">
        <ele>653.83</ele>
        <time>2021-05-29T17:09:10Z</time>
      </trkpt>
      <trkpt lat="37.8878461942" lon="-6.5588805545">
        <ele>652.39</ele>
        <time>2021-05-29T17:09:11Z</time>
      </trkpt>
      <trkpt lat="37.8878052067" lon="-6.5590126533">
        <ele>651.91</ele>
        <time>2021-05-29T17:09:12Z</time>
      </trkpt>
      <trkpt lat="37.8877468687" lon="-6.5591361187">
        <ele>651.43</ele>
        <time>2021-05-29T17:09:13Z</time>
      </trkpt>
      <trkpt lat="37.8876776341" lon="-6.5592515375">
        <ele>650.47</ele>
        <time>2021-05-29T17:09:14Z</time>
      </trkpt>
      <trkpt lat="37.8876001853" lon="-6.5593651962">
        <ele>649.99</ele>
        <time>2021-05-29T17:09:15Z</time>
      </trkpt>
      <trkpt lat="37.8873738740" lon="-6.5597433038">
        <ele>650.47</ele>
        <time>2021-05-29T17:09:18Z</time>
      </trkpt>
      <trkpt lat="37.8873245046" lon="-6.5598940104">
        <ele>650.95</ele>
        <time>2021-05-29T17:09:19Z</time>
      </trkpt>
      <trkpt lat="37.8873016220" lon="-6.5600566193">
        <ele>649.99</ele>
        <time>2021-05-29T17:09:20Z</time>
      </trkpt>
      <trkpt lat="37.8873045556" lon="-6.5602217428">
        <ele>650.47</ele>
        <time>2021-05-29T17:09:21Z</time>
      </trkpt>
      <trkpt lat="37.8873257618" lon="-6.5603892133">
        <ele>650.47</ele>
        <time>2021-05-29T17:09:22Z</time>
      </trkpt>
      <trkpt lat="37.8873547632" lon="-6.5605576057">
        <ele>650.47</ele>
        <time>2021-05-29T17:09:23Z</time>
      </trkpt>
      <trkpt lat="37.8875219822" lon="-6.5614240430">
        <ele>652.39</ele>
        <time>2021-05-29T17:09:28Z</time>
      </trkpt>
      <trkpt lat="37.8877809830" lon="-6.5626300313">
        <ele>653.83</ele>
        <time>2021-05-29T17:09:36Z</time>
      </trkpt>
      <trkpt lat="37.8880653810" lon="-6.5634059440">
        <ele>656.24</ele>
        <time>2021-05-29T17:09:41Z</time>
      </trkpt>
      <trkpt lat="37.8883118927" lon="-6.5643264446">
        <ele>658.16</ele>
        <time>2021-05-29T17:09:46Z</time>
      </trkpt>
      <trkpt lat="37.8884054348" lon="-6.5650913771">
        <ele>661.04</ele>
        <time>2021-05-29T17:09:50Z</time>
      </trkpt>
      <trkpt lat="37.8884350229" lon="-6.5652498789">
        <ele>660.56</ele>
        <time>2021-05-29T17:09:51Z</time>
      </trkpt>
      <trkpt lat="37.8884859849" lon="-6.5653823130">
        <ele>660.08</ele>
        <time>2021-05-29T17:09:52Z</time>
      </trkpt>
      <trkpt lat="37.8885520343" lon="-6.5654946305">
        <ele>660.08</ele>
        <time>2021-05-29T17:09:53Z</time>
      </trkpt>
      <trkpt lat="37.8886359371" lon="-6.5655931178">
        <ele>660.56</ele>
        <time>2021-05-29T17:09:54Z</time>
      </trkpt>
      <trkpt lat="37.8887350112" lon="-6.5656880848">
        <ele>661.52</ele>
        <time>2021-05-29T17:09:55Z</time>
      </trkpt>
      <trkpt lat="37.8888412099" lon="-6.5657828003">
        <ele>662.97</ele>
        <time>2021-05-29T17:09:56Z</time>
      </trkpt>
      <trkpt lat="37.8893406037" lon="-6.5661670268">
        <ele>663.45</ele>
        <time>2021-05-29T17:10:01Z</time>
      </trkpt>
      <trkpt lat="37.8894424438" lon="-6.5662024822">
        <ele>662.49</ele>
        <time>2021-05-29T17:10:02Z</time>
      </trkpt>
      <trkpt lat="37.8895386681" lon="-6.5662199166">
        <ele>662.49</ele>
        <time>2021-05-29T17:10:03Z</time>
      </trkpt>
      <trkpt lat="37.8896282706" lon="-6.5662236046">
        <ele>662.01</ele>
        <time>2021-05-29T17:10:04Z</time>
      </trkpt>
      <trkpt lat="37.8897117544" lon="-6.5662211739">
        <ele>661.04</ele>
        <time>2021-05-29T17:10:05Z</time>
      </trkpt>
      <trkpt lat="37.8898565099" lon="-6.5662420448">
        <ele>659.60</ele>
        <time>2021-05-29T17:10:07Z</time>
      </trkpt>
      <trkpt lat="37.8899249900" lon="-6.5662697889">
        <ele>659.60</ele>
        <time>2021-05-29T17:10:08Z</time>
      </trkpt>
      <trkpt lat="37.8899912909" lon="-6.5663095191">
        <ele>659.12</ele>
        <time>2021-05-29T17:10:09Z</time>
      </trkpt>
      <trkpt lat="37.8901311848" lon="-6.5664204955">
        <ele>655.76</ele>
        <time>2021-05-29T17:10:12Z</time>
      </trkpt>
      <trkpt lat="37.8901404887" lon="-6.5664604772">
        <ele>654.80</ele>
        <time>2021-05-29T17:10:13Z</time>
      </trkpt>
      <trkpt lat="37.8901384771" lon="-6.5665020514">
        <ele>654.80</ele>
        <time>2021-05-29T17:10:14Z</time>
      </trkpt>
      <trkpt lat="37.8901270777" lon="-6.5665365010">
        <ele>654.31</ele>
        <time>2021-05-29T17:10:15Z</time>
      </trkpt>
      <trkpt lat="37.8900588490" lon="-6.5666540992">
        <ele>654.31</ele>
        <time>2021-05-29T17:10:25Z</time>
      </trkpt>
      <trkpt lat="37.8900528140" lon="-6.5666436218">
        <ele>654.31</ele>
        <time>2021-05-29T17:10:45Z</time>
      </trkpt>
      <trkpt lat="37.8900349606" lon="-6.5666556079">
        <ele>654.80</ele>
        <time>2021-05-29T17:11:03Z</time>
      </trkpt>
      <trkpt lat="37.8900217172" lon="-6.5666609723">
        <ele>654.31</ele>
        <time>2021-05-29T17:11:39Z</time>
      </trkpt>
      <trkpt lat="37.8900635429" lon="-6.5666388441">
        <ele>654.80</ele>
        <time>2021-05-29T17:12:23Z</time>
      </trkpt>
      <trkpt lat="37.8900715895" lon="-6.5666224156">
        <ele>655.28</ele>
        <time>2021-05-29T17:12:59Z</time>
      </trkpt>
      <trkpt lat="37.8900469467" lon="-6.5666237567">
        <ele>655.76</ele>
        <time>2021-05-29T17:13:40Z</time>
      </trkpt>
      <trkpt lat="37.8900369722" lon="-6.5666300431">
        <ele>655.76</ele>
        <time>2021-05-29T17:14:13Z</time>
      </trkpt>
      <trkpt lat="37.8900338709" lon="-6.5666433703">
        <ele>655.28</ele>
        <time>2021-05-29T17:14:52Z</time>
      </trkpt>
      <trkpt lat="37.8899611998" lon="-6.5667710267">
        <ele>656.24</ele>
        <time>2021-05-29T17:15:21Z</time>
      </trkpt>
      <trkpt lat="37.8897066414" lon="-6.5671133436">
        <ele>653.83</ele>
        <time>2021-05-29T17:15:26Z</time>
      </trkpt>
      <trkpt lat="37.8896623850" lon="-6.5671980008">
        <ele>652.87</ele>
        <time>2021-05-29T17:15:27Z</time>
      </trkpt>
      <trkpt lat="37.8896341380" lon="-6.5672779642">
        <ele>652.39</ele>
        <time>2021-05-29T17:15:28Z</time>
      </trkpt>
      <trkpt lat="37.8896187153" lon="-6.5673525631">
        <ele>650.95</ele>
        <time>2021-05-29T17:15:29Z</time>
      </trkpt>
      <trkpt lat="37.8896101657" lon="-6.5674312692">
        <ele>650.95</ele>
        <time>2021-05-29T17:15:30Z</time>
      </trkpt>
      <trkpt lat="37.8896108363" lon="-6.5675124060">
        <ele>649.99</ele>
        <time>2021-05-29T17:15:31Z</time>
      </trkpt>
      <trkpt lat="37.8896242473" lon="-6.5675911959">
        <ele>648.55</ele>
        <time>2021-05-29T17:15:32Z</time>
      </trkpt>
      <trkpt lat="37.8896445315" lon="-6.5676651243">
        <ele>647.59</ele>
        <time>2021-05-29T17:15:33Z</time>
      </trkpt>
      <trkpt lat="37.8897233214" lon="-6.5679086186">
        <ele>645.66</ele>
        <time>2021-05-29T17:15:37Z</time>
      </trkpt>
      <trkpt lat="37.8898669034" lon="-6.5682168212">
        <ele>646.14</ele>
        <time>2021-05-29T17:15:43Z</time>
      </trkpt>
      <trkpt lat="37.8898922168" lon="-6.5682171565">
        <ele>646.14</ele>
        <time>2021-05-29T17:15:44Z</time>
      </trkpt>
      <trkpt lat="37.8899262473" lon="-6.5681970399">
        <ele>646.62</ele>
        <time>2021-05-29T17:15:45Z</time>
      </trkpt>
      <trkpt lat="37.8903332725" lon="-6.5678194351">
        <ele>648.55</ele>
        <time>2021-05-29T17:15:51Z</time>
      </trkpt>
      <trkpt lat="37.8904321790" lon="-6.5677415673">
        <ele>648.55</ele>
        <time>2021-05-29T17:15:52Z</time>
      </trkpt>
      <trkpt lat="37.8906384576" lon="-6.5676004160">
        <ele>649.99</ele>
        <time>2021-05-29T17:15:54Z</time>
      </trkpt>
      <trkpt lat="37.8912672680" lon="-6.5670508146">
        <ele>651.91</ele>
        <time>2021-05-29T17:16:03Z</time>
      </trkpt>
      <trkpt lat="37.8917024564" lon="-6.5663558710">
        <ele>653.35</ele>
        <time>2021-05-29T17:16:11Z</time>
      </trkpt>
      <trkpt lat="37.8919888660" lon="-6.5658115502">
        <ele>654.31</ele>
        <time>2021-05-29T17:16:20Z</time>
      </trkpt>
      <trkpt lat="37.8921956476" lon="-6.5652817301">
        <ele>656.24</ele>
        <time>2021-05-29T17:16:29Z</time>
      </trkpt>
      <trkpt lat="37.8924080450" lon="-6.5646359045">
        <ele>658.16</ele>
        <time>2021-05-29T17:16:39Z</time>
      </trkpt>
      <trkpt lat="37.8925025091" lon="-6.5642351657">
        <ele>659.12</ele>
        <time>2021-05-29T17:16:45Z</time>
      </trkpt>
      <trkpt lat="37.8925346956" lon="-6.5642062481">
        <ele>659.12</ele>
        <time>2021-05-29T17:16:46Z</time>
      </trkpt>
      <trkpt lat="37.8925805446" lon="-6.5642040689">
        <ele>659.12</ele>
        <time>2021-05-29T17:16:47Z</time>
      </trkpt>
      <trkpt lat="37.8926757630" lon="-6.5642344113">
        <ele>659.12</ele>
        <time>2021-05-29T17:16:49Z</time>
      </trkpt>
      <trkpt lat="37.8927249648" lon="-6.5642629936">
        <ele>659.12</ele>
        <time>2021-05-29T17:16:50Z</time>
      </trkpt>
      <trkpt lat="37.8930273838" lon="-6.5644405223">
        <ele>658.64</ele>
        <time>2021-05-29T17:16:55Z</time>
      </trkpt>
      <trkpt lat="37.8930770885" lon="-6.5644307993">
        <ele>657.68</ele>
        <time>2021-05-29T17:16:56Z</time>
      </trkpt>
      <trkpt lat="37.8931216802" lon="-6.5644036420">
        <ele>657.68</ele>
        <time>2021-05-29T17:16:57Z</time>
      </trkpt>
      <trkpt lat="37.8931518551" lon="-6.5643705335">
        <ele>658.16</ele>
        <time>2021-05-29T17:16:58Z</time>
      </trkpt>
      <trkpt lat="37.8931750730" lon="-6.5643105190">
        <ele>658.16</ele>
        <time>2021-05-29T17:16:59Z</time>
      </trkpt>
      <trkpt lat="37.8931962792" lon="-6.5642265324">
        <ele>658.64</ele>
        <time>2021-05-29T17:17:00Z</time>
      </trkpt>
      <trkpt lat="37.8933168110" lon="-6.5638370253">
        <ele>660.08</ele>
        <time>2021-05-29T17:17:04Z</time>
      </trkpt>
      <trkpt lat="37.8933467343" lon="-6.5637436509">
        <ele>660.08</ele>
        <time>2021-05-29T17:17:05Z</time>
      </trkpt>
      <trkpt lat="37.8934295475" lon="-6.5635760128">
        <ele>660.08</ele>
        <time>2021-05-29T17:17:08Z</time>
      </trkpt>
      <trkpt lat="37.8934693616" lon="-6.5635744203">
        <ele>660.08</ele>
        <time>2021-05-29T17:17:09Z</time>
      </trkpt>
      <trkpt lat="37.8935172223" lon="-6.5635911841">
        <ele>661.04</ele>
        <time>2021-05-29T17:17:10Z</time>
      </trkpt>
      <trkpt lat="37.8937091678" lon="-6.5636993106">
        <ele>662.01</ele>
        <time>2021-05-29T17:17:18Z</time>
      </trkpt>
      <trkpt lat="37.8937236685" lon="-6.5637932718">
        <ele>662.01</ele>
        <time>2021-05-29T17:17:22Z</time>
      </trkpt>
      <trkpt lat="37.8937163763" lon="-6.5638242010">
        <ele>662.01</ele>
        <time>2021-05-29T17:17:23Z</time>
      </trkpt>
      <trkpt lat="37.8937097546" lon="-6.5638563037">
        <ele>662.01</ele>
        <time>2021-05-29T17:17:24Z</time>
      </trkpt>
      <trkpt lat="37.8936954215" lon="-6.5640521888">
        <ele>662.01</ele>
        <time>2021-05-29T17:17:30Z</time>
      </trkpt>
      <trkpt lat="37.8936994448" lon="-6.5640783403">
        <ele>662.49</ele>
        <time>2021-05-29T17:17:31Z</time>
      </trkpt>
      <trkpt lat="37.8937163763" lon="-6.5640940983">
        <ele>661.52</ele>
        <time>2021-05-29T17:17:43Z</time>
      </trkpt>
      <trkpt lat="37.8937468026" lon="-6.5640557930">
        <ele>661.52</ele>
        <time>2021-05-29T17:18:04Z</time>
      </trkpt>
      <trkpt lat="37.8937397618" lon="-6.5640922543">
        <ele>662.49</ele>
        <time>2021-05-29T17:18:33Z</time>
      </trkpt>
      <trkpt lat="37.8937346488" lon="-6.5641042404">
        <ele>662.49</ele>
        <time>2021-05-29T17:18:43Z</time>
      </trkpt>
      <trkpt lat="37.8939082380" lon="-6.5643783286">
        <ele>662.97</ele>
        <time>2021-05-29T17:36:02Z</time>
      </trkpt>
      <trkpt lat="37.8936759755" lon="-6.5641355887">
        <ele>663.93</ele>
        <time>2021-05-29T17:36:13Z</time>
      </trkpt>
      <trkpt lat="37.8936493210" lon="-6.5642388538">
        <ele>665.37</ele>
        <time>2021-05-29T17:36:16Z</time>
      </trkpt>
      <trkpt lat="37.8936213255" lon="-6.5644264407">
        <ele>666.81</ele>
        <time>2021-05-29T17:36:18Z</time>
      </trkpt>
      <trkpt lat="37.8935919888" lon="-6.5645987727">
        <ele>666.81</ele>
        <time>2021-05-29T17:36:20Z</time>
      </trkpt>
      <trkpt lat="37.8935629036" lon="-6.5646443702">
        <ele>665.37</ele>
        <time>2021-05-29T17:36:21Z</time>
      </trkpt>
      <trkpt lat="37.8935132828" lon="-6.5646613855">
        <ele>665.37</ele>
        <time>2021-05-29T17:36:22Z</time>
      </trkpt>
      <trkpt lat="37.8934465628" lon="-6.5646547638">
        <ele>666.33</ele>
        <time>2021-05-29T17:36:23Z</time>
      </trkpt>
      <trkpt lat="37.8933735564" lon="-6.5646399278">
        <ele>666.81</ele>
        <time>2021-05-29T17:36:24Z</time>
      </trkpt>
      <trkpt lat="37.8932998795" lon="-6.5646220744">
        <ele>666.81</ele>
        <time>2021-05-29T17:36:25Z</time>
      </trkpt>
      <trkpt lat="37.8932353389" lon="-6.5646027960">
        <ele>665.85</ele>
        <time>2021-05-29T17:36:26Z</time>
      </trkpt>
      <trkpt lat="37.8931769170" lon="-6.5645783208">
        <ele>665.37</ele>
        <time>2021-05-29T17:36:27Z</time>
      </trkpt>
      <trkpt lat="37.8931366839" lon="-6.5645369980">
        <ele>665.37</ele>
        <time>2021-05-29T17:36:28Z</time>
      </trkpt>
      <trkpt lat="37.8931206744" lon="-6.5644857846">
        <ele>664.89</ele>
        <time>2021-05-29T17:36:29Z</time>
      </trkpt>
      <trkpt lat="37.8931237757" lon="-6.5644344874">
        <ele>665.37</ele>
        <time>2021-05-29T17:36:30Z</time>
      </trkpt>
      <trkpt lat="37.8931371868" lon="-6.5643650014">
        <ele>665.85</ele>
        <time>2021-05-29T17:36:31Z</time>
      </trkpt>
      <trkpt lat="37.8931534477" lon="-6.5642757341">
        <ele>666.33</ele>
        <time>2021-05-29T17:36:32Z</time>
      </trkpt>
      <trkpt lat="37.8931707144" lon="-6.5641909093">
        <ele>666.33</ele>
        <time>2021-05-29T17:36:33Z</time>
      </trkpt>
      <trkpt lat="37.8932197485" lon="-6.5639829542">
        <ele>666.81</ele>
        <time>2021-05-29T17:36:36Z</time>
      </trkpt>
      <trkpt lat="37.8933276236" lon="-6.5636823792">
        <ele>667.77</ele>
        <time>2021-05-29T17:36:43Z</time>
      </trkpt>
      <trkpt lat="37.8933492489" lon="-6.5636770986">
        <ele>668.25</ele>
        <time>2021-05-29T17:36:44Z</time>
      </trkpt>
      <trkpt lat="37.8933677729" lon="-6.5637159068">
        <ele>669.22</ele>
        <time>2021-05-29T17:36:56Z</time>
      </trkpt>
      <trkpt lat="37.8933794238" lon="-6.5637747478">
        <ele>669.22</ele>
        <time>2021-05-29T17:37:15Z</time>
      </trkpt>
      <trkpt lat="37.8934627399" lon="-6.5635104664">
        <ele>668.73</ele>
        <time>2021-05-29T17:37:32Z</time>
      </trkpt>
      <trkpt lat="37.8934811801" lon="-6.5635564830">
        <ele>661.52</ele>
        <time>2021-05-30T06:09:20Z</time>
      </trkpt>
      <trkpt lat="37.8934566211" lon="-6.5635641944">
        <ele>661.52</ele>
        <time>2021-05-30T06:09:22Z</time>
      </trkpt>
      <trkpt lat="37.8933885600" lon="-6.5636254661">
        <ele>662.01</ele>
        <time>2021-05-30T06:09:48Z</time>
      </trkpt>
      <trkpt lat="37.8934550285" lon="-6.5637258813">
        <ele>661.52</ele>
        <time>2021-05-30T06:10:11Z</time>
      </trkpt>
      <trkpt lat="37.8934466466" lon="-6.5637314133">
        <ele>661.52</ele>
        <time>2021-05-30T06:10:35Z</time>
      </trkpt>
      <trkpt lat="37.8934364207" lon="-6.5637350176">
        <ele>662.01</ele>
        <time>2021-05-30T06:10:45Z</time>
      </trkpt>
      <trkpt lat="37.8934588004" lon="-6.5636924375">
        <ele>662.49</ele>
        <time>2021-05-30T06:10:47Z</time>
      </trkpt>
      <trkpt lat="37.8934708703" lon="-6.5636656154">
        <ele>662.01</ele>
        <time>2021-05-30T06:10:48Z</time>
      </trkpt>
      <trkpt lat="37.8934780788" lon="-6.5636439063">
        <ele>662.01</ele>
        <time>2021-05-30T06:10:49Z</time>
      </trkpt>
      <trkpt lat="37.8934878856" lon="-6.5636351053">
        <ele>664.41</ele>
        <time>2021-05-30T06:10:52Z</time>
      </trkpt>
      <trkpt lat="37.8935085051" lon="-6.5636584070">
        <ele>664.41</ele>
        <time>2021-05-30T06:10:53Z</time>
      </trkpt>
      <trkpt lat="37.8935757279" lon="-6.5637076925">
        <ele>664.89</ele>
        <time>2021-05-30T06:10:57Z</time>
      </trkpt>
      <trkpt lat="37.8937768936" lon="-6.5637208521">
        <ele>666.33</ele>
        <time>2021-05-30T06:11:02Z</time>
      </trkpt>
      <trkpt lat="37.8939551767" lon="-6.5637364425">
        <ele>666.33</ele>
        <time>2021-05-30T06:11:05Z</time>
      </trkpt>
      <trkpt lat="37.8940228187" lon="-6.5637408011">
        <ele>666.81</ele>
        <time>2021-05-30T06:11:06Z</time>
      </trkpt>
      <trkpt lat="37.8940870240" lon="-6.5637496021">
        <ele>667.77</ele>
        <time>2021-05-30T06:11:07Z</time>
      </trkpt>
      <trkpt lat="37.8941566776" lon="-6.5637614205">
        <ele>667.77</ele>
        <time>2021-05-30T06:11:08Z</time>
      </trkpt>
      <trkpt lat="37.8942294326" lon="-6.5637768432">
        <ele>667.77</ele>
        <time>2021-05-30T06:11:09Z</time>
      </trkpt>
      <trkpt lat="37.8944279999" lon="-6.5638361871">
        <ele>669.70</ele>
        <time>2021-05-30T06:11:12Z</time>
      </trkpt>
      <trkpt lat="37.8944759443" lon="-6.5638200939">
        <ele>671.14</ele>
        <time>2021-05-30T06:11:13Z</time>
      </trkpt>
      <trkpt lat="37.8946070373" lon="-6.5637473390">
        <ele>672.58</ele>
        <time>2021-05-30T06:11:15Z</time>
      </trkpt>
      <trkpt lat="37.8946867492" lon="-6.5637340117">
        <ele>674.50</ele>
        <time>2021-05-30T06:11:16Z</time>
      </trkpt>
      <trkpt lat="37.8947675508" lon="-6.5637504403">
        <ele>675.46</ele>
        <time>2021-05-30T06:11:17Z</time>
      </trkpt>
      <trkpt lat="37.8948362824" lon="-6.5637850575">
        <ele>675.94</ele>
        <time>2021-05-30T06:11:18Z</time>
      </trkpt>
      <trkpt lat="37.8949007392" lon="-6.5638268832">
        <ele>677.39</ele>
        <time>2021-05-30T06:11:19Z</time>
      </trkpt>
      <trkpt lat="37.8951084428" lon="-6.5639561322">
        <ele>680.75</ele>
        <time>2021-05-30T06:11:22Z</time>
      </trkpt>
      <trkpt lat="37.8952863067" lon="-6.5640595648">
        <ele>683.15</ele>
        <time>2021-05-30T06:11:25Z</time>
      </trkpt>
      <trkpt lat="37.8953166492" lon="-6.5640969481">
        <ele>683.63</ele>
        <time>2021-05-30T06:11:26Z</time>
      </trkpt>
      <trkpt lat="37.8953185771" lon="-6.5641385224">
        <ele>684.60</ele>
        <time>2021-05-30T06:11:27Z</time>
      </trkpt>
      <trkpt lat="37.8953236062" lon="-6.5641878080">
        <ele>684.60</ele>
        <time>2021-05-30T06:11:28Z</time>
      </trkpt>
      <trkpt lat="37.8952862229" lon="-6.5642816853">
        <ele>685.08</ele>
        <time>2021-05-30T06:11:30Z</time>
      </trkpt>
      <trkpt lat="37.8949432354" lon="-6.5649002697">
        <ele>682.19</ele>
        <time>2021-05-30T06:11:39Z</time>
      </trkpt>
      <trkpt lat="37.8947978094" lon="-6.5651059616">
        <ele>678.83</ele>
        <time>2021-05-30T06:11:43Z</time>
      </trkpt>
      <trkpt lat="37.8946642857" lon="-6.5653143357">
        <ele>674.98</ele>
        <time>2021-05-30T06:11:47Z</time>
      </trkpt>
      <trkpt lat="37.8946367092" lon="-6.5653668065">
        <ele>674.50</ele>
        <time>2021-05-30T06:11:48Z</time>
      </trkpt>
      <trkpt lat="37.8944629524" lon="-6.5658619255">
        <ele>671.14</ele>
        <time>2021-05-30T06:11:55Z</time>
      </trkpt>
      <trkpt lat="37.8940758761" lon="-6.5669037960">
        <ele>669.22</ele>
        <time>2021-05-30T06:12:03Z</time>
      </trkpt>
      <trkpt lat="37.8940125927" lon="-6.5670346376">
        <ele>669.22</ele>
        <time>2021-05-30T06:12:04Z</time>
      </trkpt>
      <trkpt lat="37.8939400893" lon="-6.5671553370">
        <ele>669.70</ele>
        <time>2021-05-30T06:12:05Z</time>
      </trkpt>
      <trkpt lat="37.8935297113" lon="-6.5677745081">
        <ele>673.54</ele>
        <time>2021-05-30T06:12:10Z</time>
      </trkpt>
      <trkpt lat="37.8932079300" lon="-6.5682621673">
        <ele>677.39</ele>
        <time>2021-05-30T06:12:14Z</time>
      </trkpt>
      <trkpt lat="37.8931413777" lon="-6.5683645103">
        <ele>676.91</ele>
        <time>2021-05-30T06:12:15Z</time>
      </trkpt>
      <trkpt lat="37.8928644396" lon="-6.5689185541">
        <ele>676.42</ele>
        <time>2021-05-30T06:12:20Z</time>
      </trkpt>
      <trkpt lat="37.8928278107" lon="-6.5690164547">
        <ele>675.94</ele>
        <time>2021-05-30T06:12:21Z</time>
      </trkpt>
      <trkpt lat="37.8927536309" lon="-6.5691916365">
        <ele>673.54</ele>
        <time>2021-05-30T06:12:24Z</time>
      </trkpt>
      <trkpt lat="37.8927242942" lon="-6.5692241583">
        <ele>672.58</ele>
        <time>2021-05-30T06:12:26Z</time>
      </trkpt>
      <trkpt lat="37.8927086201" lon="-6.5692320373">
        <ele>672.58</ele>
        <time>2021-05-30T06:12:27Z</time>
      </trkpt>
      <trkpt lat="37.8926871624" lon="-6.5692348871">
        <ele>673.06</ele>
        <time>2021-05-30T06:12:28Z</time>
      </trkpt>
      <trkpt lat="37.8926584963" lon="-6.5692314506">
        <ele>672.10</ele>
        <time>2021-05-30T06:12:29Z</time>
      </trkpt>
      <trkpt lat="37.8926256392" lon="-6.5692148544">
        <ele>671.62</ele>
        <time>2021-05-30T06:12:30Z</time>
      </trkpt>
      <trkpt lat="37.8925836459" lon="-6.5691870265">
        <ele>671.14</ele>
        <time>2021-05-30T06:12:31Z</time>
      </trkpt>
      <trkpt lat="37.8924740106" lon="-6.5691150259">
        <ele>670.18</ele>
        <time>2021-05-30T06:12:33Z</time>
      </trkpt>
      <trkpt lat="37.8920980822" lon="-6.5688729566">
        <ele>666.81</ele>
        <time>2021-05-30T06:12:38Z</time>
      </trkpt>
      <trkpt lat="37.8918656521" lon="-6.5687109344">
        <ele>663.93</ele>
        <time>2021-05-30T06:12:41Z</time>
      </trkpt>
      <trkpt lat="37.8915827628" lon="-6.5685131215">
        <ele>660.08</ele>
        <time>2021-05-30T06:12:45Z</time>
      </trkpt>
      <trkpt lat="37.8914642427" lon="-6.5684284642">
        <ele>659.12</ele>
        <time>2021-05-30T06:12:47Z</time>
      </trkpt>
      <trkpt lat="37.8910231870" lon="-6.5682062600">
        <ele>655.28</ele>
        <time>2021-05-30T06:12:53Z</time>
      </trkpt>
      <trkpt lat="37.8908440657" lon="-6.5681375284">
        <ele>652.39</ele>
        <time>2021-05-30T06:12:59Z</time>
      </trkpt>
      <trkpt lat="37.8908262122" lon="-6.5681584831">
        <ele>652.87</ele>
        <time>2021-05-30T06:13:00Z</time>
      </trkpt>
      <trkpt lat="37.8908102028" lon="-6.5681957826">
        <ele>652.87</ele>
        <time>2021-05-30T06:13:01Z</time>
      </trkpt>
      <trkpt lat="37.8908016533" lon="-6.5682376921">
        <ele>652.39</ele>
        <time>2021-05-30T06:13:02Z</time>
      </trkpt>
      <trkpt lat="37.8907950316" lon="-6.5682760812">
        <ele>652.87</ele>
        <time>2021-05-30T06:13:03Z</time>
      </trkpt>
      <trkpt lat="37.8907280602" lon="-6.5685598925">
        <ele>653.83</ele>
        <time>2021-05-30T06:13:12Z</time>
      </trkpt>
      <trkpt lat="37.8907097876" lon="-6.5685748961">
        <ele>653.83</ele>
        <time>2021-05-30T06:13:13Z</time>
      </trkpt>
      <trkpt lat="37.8906920180" lon="-6.5685826074">
        <ele>653.35</ele>
        <time>2021-05-30T06:13:14Z</time>
      </trkpt>
      <trkpt lat="37.8906724043" lon="-6.5685822722">
        <ele>654.31</ele>
        <time>2021-05-30T06:13:15Z</time>
      </trkpt>
      <trkpt lat="37.8906257171" lon="-6.5685722977">
        <ele>654.31</ele>
        <time>2021-05-30T06:13:27Z</time>
      </trkpt>
      <trkpt lat="37.8906251304" lon="-6.5686090942">
        <ele>653.83</ele>
        <time>2021-05-30T06:14:01Z</time>
      </trkpt>
      <trkpt lat="37.8906044271" lon="-6.5686100163">
        <ele>652.39</ele>
        <time>2021-05-30T06:14:44Z</time>
      </trkpt>
      <trkpt lat="37.8906024154" lon="-6.5686120279">
        <ele>652.39</ele>
        <time>2021-05-30T06:14:57Z</time>
      </trkpt>
      <trkpt lat="37.8905851487" lon="-6.5684936754">
        <ele>653.83</ele>
        <time>2021-05-30T06:38:42Z</time>
      </trkpt>
      <trkpt lat="37.8905988950" lon="-6.5684925020">
        <ele>653.35</ele>
        <time>2021-05-30T06:38:43Z</time>
      </trkpt>
      <trkpt lat="37.8905290738" lon="-6.5686621517">
        <ele>656.72</ele>
        <time>2021-05-30T06:39:01Z</time>
      </trkpt>
      <trkpt lat="37.8905243799" lon="-6.5686663426">
        <ele>656.72</ele>
        <time>2021-05-30T06:39:02Z</time>
      </trkpt>
      <trkpt lat="37.8905094601" lon="-6.5686807595">
        <ele>660.56</ele>
        <time>2021-05-30T06:39:08Z</time>
      </trkpt>
      <trkpt lat="37.8905118909" lon="-6.5686700307">
        <ele>661.52</ele>
        <time>2021-05-30T06:39:10Z</time>
      </trkpt>
      <trkpt lat="37.8905025031" lon="-6.5686682705">
        <ele>665.37</ele>
        <time>2021-05-30T06:39:16Z</time>
      </trkpt>
      <trkpt lat="37.8904993180" lon="-6.5686740540">
        <ele>667.29</ele>
        <time>2021-05-30T06:39:20Z</time>
      </trkpt>
      <trkpt lat="37.8905103821" lon="-6.5686795022">
        <ele>669.70</ele>
        <time>2021-05-30T06:39:24Z</time>
      </trkpt>
      <trkpt lat="37.8905292414" lon="-6.5686878003">
        <ele>673.54</ele>
        <time>2021-05-30T06:39:36Z</time>
      </trkpt>
      <trkpt lat="37.8905020840" lon="-6.5686810110">
        <ele>676.42</ele>
        <time>2021-05-30T06:39:53Z</time>
      </trkpt>
      <trkpt lat="37.8905284032" lon="-6.5686510038">
        <ele>677.87</ele>
        <time>2021-05-30T06:40:19Z</time>
      </trkpt>
      <trkpt lat="37.8905774374" lon="-6.5685848705">
        <ele>678.35</ele>
        <time>2021-05-30T06:40:46Z</time>
      </trkpt>
      <trkpt lat="37.8905901778" lon="-6.5685725491">
        <ele>678.35</ele>
        <time>2021-05-30T06:41:08Z</time>
      </trkpt>
      <trkpt lat="37.8905609250" lon="-6.5685950126">
        <ele>677.87</ele>
        <time>2021-05-30T06:41:42Z</time>
      </trkpt>
      <trkpt lat="37.8905822989" lon="-6.5686098486">
        <ele>677.39</ele>
        <time>2021-05-30T06:42:11Z</time>
      </trkpt>
      <trkpt lat="37.8905988112" lon="-6.5685322322">
        <ele>677.87</ele>
        <time>2021-05-30T06:42:37Z</time>
      </trkpt>
      <trkpt lat="37.8906128928" lon="-6.5684928373">
        <ele>676.91</ele>
        <time>2021-05-30T06:43:05Z</time>
      </trkpt>
      <trkpt lat="37.8905875795" lon="-6.5685260296">
        <ele>676.91</ele>
        <time>2021-05-30T06:43:32Z</time>
      </trkpt>
      <trkpt lat="37.8905918542" lon="-6.5685647540">
        <ele>676.91</ele>
        <time>2021-05-30T06:43:49Z</time>
      </trkpt>
      <trkpt lat="37.8906343505" lon="-6.5686018020">
        <ele>676.42</ele>
        <time>2021-05-30T06:44:03Z</time>
      </trkpt>
      <trkpt lat="37.8906486835" lon="-6.5686319768">
        <ele>676.91</ele>
        <time>2021-05-30T06:44:05Z</time>
      </trkpt>
      <trkpt lat="37.8906490188" lon="-6.5686702821">
        <ele>677.39</ele>
        <time>2021-05-30T06:44:06Z</time>
      </trkpt>
      <trkpt lat="37.8906333447" lon="-6.5687311348">
        <ele>677.87</ele>
        <time>2021-05-30T06:44:07Z</time>
      </trkpt>
      <trkpt lat="37.8906092886" lon="-6.5688087512">
        <ele>677.87</ele>
        <time>2021-05-30T06:44:08Z</time>
      </trkpt>
      <trkpt lat="37.8904191032" lon="-6.5694382321">
        <ele>678.35</ele>
        <time>2021-05-30T06:44:17Z</time>
      </trkpt>
      <trkpt lat="37.8903167602" lon="-6.5697626956">
        <ele>677.87</ele>
        <time>2021-05-30T06:44:23Z</time>
      </trkpt>
      <trkpt lat="37.8903174307" lon="-6.5698221233">
        <ele>677.87</ele>
        <time>2021-05-30T06:44:25Z</time>
      </trkpt>
      <trkpt lat="37.8902818076" lon="-6.5698642004">
        <ele>677.39</ele>
        <time>2021-05-30T06:44:37Z</time>
      </trkpt>
      <trkpt lat="37.8902899381" lon="-6.5698952973">
        <ele>677.39</ele>
        <time>2021-05-30T06:45:08Z</time>
      </trkpt>
      <trkpt lat="37.8902837355" lon="-6.5699054394">
        <ele>677.39</ele>
        <time>2021-05-30T06:45:13Z</time>
      </trkpt>
      <trkpt lat="37.8902674746" lon="-6.5699226223">
        <ele>677.87</ele>
        <time>2021-05-30T06:45:14Z</time>
      </trkpt>
      <trkpt lat="37.8902463522" lon="-6.5699622687">
        <ele>677.87</ele>
        <time>2021-05-30T06:45:15Z</time>
      </trkpt>
      <trkpt lat="37.8902233019" lon="-6.5700226184">
        <ele>677.87</ele>
        <time>2021-05-30T06:45:16Z</time>
      </trkpt>
      <trkpt lat="37.8901998326" lon="-6.5700953733">
        <ele>678.35</ele>
        <time>2021-05-30T06:45:17Z</time>
      </trkpt>
      <trkpt lat="37.8898567613" lon="-6.5711587854">
        <ele>680.27</ele>
        <time>2021-05-30T06:45:32Z</time>
      </trkpt>
      <trkpt lat="37.8898569290" lon="-6.5712361503">
        <ele>680.75</ele>
        <time>2021-05-30T06:45:34Z</time>
      </trkpt>
      <trkpt lat="37.8898709267" lon="-6.5712880343">
        <ele>681.71</ele>
        <time>2021-05-30T06:45:35Z</time>
      </trkpt>
      <trkpt lat="37.8898938093" lon="-6.5713830851">
        <ele>681.71</ele>
        <time>2021-05-30T06:45:37Z</time>
      </trkpt>
      <trkpt lat="37.8898842540" lon="-6.5714349691">
        <ele>682.19</ele>
        <time>2021-05-30T06:45:38Z</time>
      </trkpt>
      <trkpt lat="37.8898576833" lon="-6.5714809019">
        <ele>682.67</ele>
        <time>2021-05-30T06:45:39Z</time>
      </trkpt>
      <trkpt lat="37.8898220602" lon="-6.5715121664">
        <ele>682.67</ele>
        <time>2021-05-30T06:45:40Z</time>
      </trkpt>
      <trkpt lat="37.8897873592" lon="-6.5715390723">
        <ele>682.19</ele>
        <time>2021-05-30T06:45:41Z</time>
      </trkpt>
      <trkpt lat="37.8897588607" lon="-6.5715692472">
        <ele>682.67</ele>
        <time>2021-05-30T06:45:42Z</time>
      </trkpt>
      <trkpt lat="37.8897381574" lon="-6.5716016851">
        <ele>682.67</ele>
        <time>2021-05-30T06:45:43Z</time>
      </trkpt>
      <trkpt lat="37.8897222318" lon="-6.5716336202">
        <ele>682.67</ele>
        <time>2021-05-30T06:45:44Z</time>
      </trkpt>
      <trkpt lat="37.8896945715" lon="-6.5717627015">
        <ele>683.15</ele>
        <time>2021-05-30T06:45:49Z</time>
      </trkpt>
      <trkpt lat="37.8896886203" lon="-6.5717831533">
        <ele>683.15</ele>
        <time>2021-05-30T06:45:50Z</time>
      </trkpt>
      <trkpt lat="37.8896627203" lon="-6.5718649607">
        <ele>683.15</ele>
        <time>2021-05-30T06:45:58Z</time>
      </trkpt>
      <trkpt lat="37.8896417655" lon="-6.5718782879">
        <ele>683.15</ele>
        <time>2021-05-30T06:45:59Z</time>
      </trkpt>
      <trkpt lat="37.8896193858" lon="-6.5718704090">
        <ele>683.15</ele>
        <time>2021-05-30T06:46:00Z</time>
      </trkpt>
      <trkpt lat="37.8896062262" lon="-6.5718455147">
        <ele>683.15</ele>
        <time>2021-05-30T06:46:01Z</time>
      </trkpt>
      <trkpt lat="37.8896132670" lon="-6.5718079638">
        <ele>683.15</ele>
        <time>2021-05-30T06:46:02Z</time>
      </trkpt>
      <trkpt lat="37.8896358982" lon="-6.5717592649">
        <ele>683.15</ele>
        <time>2021-05-30T06:46:03Z</time>
      </trkpt>
      <trkpt lat="37.8896648157" lon="-6.5716932155">
        <ele>683.15</ele>
        <time>2021-05-30T06:46:04Z</time>
      </trkpt>
      <trkpt lat="37.8896876145" lon="-6.5716083907">
        <ele>683.63</ele>
        <time>2021-05-30T06:46:05Z</time>
      </trkpt>
      <trkpt lat="37.8896963317" lon="-6.5715142619">
        <ele>683.15</ele>
        <time>2021-05-30T06:46:06Z</time>
      </trkpt>
      <trkpt lat="37.8896887880" lon="-6.5714169480">
        <ele>682.67</ele>
        <time>2021-05-30T06:46:07Z</time>
      </trkpt>
      <trkpt lat="37.8896693420" lon="-6.5713130124">
        <ele>682.19</ele>
        <time>2021-05-30T06:46:08Z</time>
      </trkpt>
      <trkpt lat="37.8896368202" lon="-6.5712022036">
        <ele>682.19</ele>
        <time>2021-05-30T06:46:09Z</time>
      </trkpt>
      <trkpt lat="37.8895851038" lon="-6.5710929874">
        <ele>682.19</ele>
        <time>2021-05-30T06:46:10Z</time>
      </trkpt>
      <trkpt lat="37.8895184677" lon="-6.5709885489">
        <ele>681.71</ele>
        <time>2021-05-30T06:46:11Z</time>
      </trkpt>
      <trkpt lat="37.8894398455" lon="-6.5708817635">
        <ele>680.75</ele>
        <time>2021-05-30T06:46:12Z</time>
      </trkpt>
      <trkpt lat="37.8893539310" lon="-6.5707671829">
        <ele>680.75</ele>
        <time>2021-05-30T06:46:13Z</time>
      </trkpt>
      <trkpt lat="37.8891015518" lon="-6.5704334993">
        <ele>677.39</ele>
        <time>2021-05-30T06:46:16Z</time>
      </trkpt>
      <trkpt lat="37.8890344128" lon="-6.5703188349">
        <ele>675.46</ele>
        <time>2021-05-30T06:46:17Z</time>
      </trkpt>
      <trkpt lat="37.8889865521" lon="-6.5701996442">
        <ele>674.50</ele>
        <time>2021-05-30T06:46:18Z</time>
      </trkpt>
      <trkpt lat="37.8888804372" lon="-6.5698623564">
        <ele>672.10</ele>
        <time>2021-05-30T06:46:21Z</time>
      </trkpt>
      <trkpt lat="37.8888449818" lon="-6.5697725862">
        <ele>671.14</ele>
        <time>2021-05-30T06:46:22Z</time>
      </trkpt>
      <trkpt lat="37.8887986299" lon="-6.5697030164">
        <ele>670.18</ele>
        <time>2021-05-30T06:46:23Z</time>
      </trkpt>
      <trkpt lat="37.8887461592" lon="-6.5696518030">
        <ele>669.22</ele>
        <time>2021-05-30T06:46:24Z</time>
      </trkpt>
      <trkpt lat="37.8886948619" lon="-6.5696205385">
        <ele>669.22</ele>
        <time>2021-05-30T06:46:25Z</time>
      </trkpt>
      <trkpt lat="37.8886453249" lon="-6.5696004219">
        <ele>668.25</ele>
        <time>2021-05-30T06:46:26Z</time>
      </trkpt>
      <trkpt lat="37.8886018228" lon="-6.5695738513">
        <ele>667.77</ele>
        <time>2021-05-30T06:46:27Z</time>
      </trkpt>
      <trkpt lat="37.8885786049" lon="-6.5695294272">
        <ele>667.77</ele>
        <time>2021-05-30T06:46:28Z</time>
      </trkpt>
      <trkpt lat="37.8885724023" lon="-6.5694801416">
        <ele>667.29</ele>
        <time>2021-05-30T06:46:29Z</time>
      </trkpt>
      <trkpt lat="37.8885633498" lon="-6.5693536587">
        <ele>667.29</ele>
        <time>2021-05-30T06:46:31Z</time>
      </trkpt>
      <trkpt lat="37.8885449097" lon="-6.5692695882">
        <ele>667.29</ele>
        <time>2021-05-30T06:46:32Z</time>
      </trkpt>
      <trkpt lat="37.8882171772" lon="-6.5681580640">
        <ele>667.77</ele>
        <time>2021-05-30T06:46:42Z</time>
      </trkpt>
      <trkpt lat="37.8880383912" lon="-6.5676402301">
        <ele>664.41</ele>
        <time>2021-05-30T06:46:47Z</time>
      </trkpt>
      <trkpt lat="37.8879414126" lon="-6.5673992503">
        <ele>663.93</ele>
        <time>2021-05-30T06:46:50Z</time>
      </trkpt>
      <trkpt lat="37.8878943902" lon="-6.5673202090">
        <ele>663.93</ele>
        <time>2021-05-30T06:46:51Z</time>
      </trkpt>
      <trkpt lat="37.8875681665" lon="-6.5669314563">
        <ele>661.04</ele>
        <time>2021-05-30T06:46:58Z</time>
      </trkpt>
      <trkpt lat="37.8875177912" lon="-6.5669111721">
        <ele>660.56</ele>
        <time>2021-05-30T06:46:59Z</time>
      </trkpt>
      <trkpt lat="37.8874757979" lon="-6.5669058077">
        <ele>660.08</ele>
        <time>2021-05-30T06:47:00Z</time>
      </trkpt>
      <trkpt lat="37.8874460422" lon="-6.5669085737">
        <ele>660.08</ele>
        <time>2021-05-30T06:47:01Z</time>
      </trkpt>
      <trkpt lat="37.8874229919" lon="-6.5669071488">
        <ele>660.08</ele>
        <time>2021-05-30T06:47:02Z</time>
      </trkpt>
      <trkpt lat="37.8874016181" lon="-6.5668965876">
        <ele>660.08</ele>
        <time>2021-05-30T06:47:03Z</time>
      </trkpt>
      <trkpt lat="37.8873877041" lon="-6.5668675024">
        <ele>660.08</ele>
        <time>2021-05-30T06:47:04Z</time>
      </trkpt>
      <trkpt lat="37.8873861115" lon="-6.5668199770">
        <ele>660.08</ele>
        <time>2021-05-30T06:47:05Z</time>
      </trkpt>
      <trkpt lat="37.8874070663" lon="-6.5667715296">
        <ele>660.08</ele>
        <time>2021-05-30T06:47:06Z</time>
      </trkpt>
      <trkpt lat="37.8874485567" lon="-6.5667393431">
        <ele>660.56</ele>
        <time>2021-05-30T06:47:07Z</time>
      </trkpt>
      <trkpt lat="37.8875079006" lon="-6.5667164605">
        <ele>661.04</ele>
        <time>2021-05-30T06:47:08Z</time>
      </trkpt>
      <trkpt lat="37.8875757102" lon="-6.5666789096">
        <ele>661.52</ele>
        <time>2021-05-30T06:47:09Z</time>
      </trkpt>
      <trkpt lat="37.8876428492" lon="-6.5666283667">
        <ele>662.01</ele>
        <time>2021-05-30T06:47:10Z</time>
      </trkpt>
      <trkpt lat="37.8878425900" lon="-6.5664626565">
        <ele>663.45</ele>
        <time>2021-05-30T06:47:13Z</time>
      </trkpt>
      <trkpt lat="37.8880785406" lon="-6.5662443079">
        <ele>663.93</ele>
        <time>2021-05-30T06:47:18Z</time>
      </trkpt>
      <trkpt lat="37.8881051950" lon="-6.5662054997">
        <ele>663.45</ele>
        <time>2021-05-30T06:47:19Z</time>
      </trkpt>
      <trkpt lat="37.8881262336" lon="-6.5661550406">
        <ele>663.45</ele>
        <time>2021-05-30T06:47:20Z</time>
      </trkpt>
      <trkpt lat="37.8881398123" lon="-6.5660840459">
        <ele>664.41</ele>
        <time>2021-05-30T06:47:21Z</time>
      </trkpt>
      <trkpt lat="37.8881393932" lon="-6.5659952816">
        <ele>664.41</ele>
        <time>2021-05-30T06:47:22Z</time>
      </trkpt>
      <trkpt lat="37.8881216235" lon="-6.5658976324">
        <ele>664.89</ele>
        <time>2021-05-30T06:47:23Z</time>
      </trkpt>
      <trkpt lat="37.8880958911" lon="-6.5658009052">
        <ele>665.37</ele>
        <time>2021-05-30T06:47:24Z</time>
      </trkpt>
      <trkpt lat="37.8879456036" lon="-6.5646615531">
        <ele>666.81</ele>
        <time>2021-05-30T06:47:33Z</time>
      </trkpt>
      <trkpt lat="37.8879096452" lon="-6.5639695432">
        <ele>669.22</ele>
        <time>2021-05-30T06:47:37Z</time>
      </trkpt>
      <trkpt lat="37.8877166100" lon="-6.5630116593">
        <ele>673.54</ele>
        <time>2021-05-30T06:47:43Z</time>
      </trkpt>
      <trkpt lat="37.8876980022" lon="-6.5628913790">
        <ele>674.02</ele>
        <time>2021-05-30T06:47:44Z</time>
      </trkpt>
      <trkpt lat="37.8876880277" lon="-6.5627781395">
        <ele>674.50</ele>
        <time>2021-05-30T06:47:45Z</time>
      </trkpt>
      <trkpt lat="37.8876865190" lon="-6.5626731981">
        <ele>675.94</ele>
        <time>2021-05-30T06:47:46Z</time>
      </trkpt>
      <trkpt lat="37.8876894526" lon="-6.5625742078">
        <ele>675.46</ele>
        <time>2021-05-30T06:47:47Z</time>
      </trkpt>
      <trkpt lat="37.8876829147" lon="-6.5624714456">
        <ele>675.94</ele>
        <time>2021-05-30T06:47:48Z</time>
      </trkpt>
      <trkpt lat="37.8876621276" lon="-6.5623544343">
        <ele>675.46</ele>
        <time>2021-05-30T06:47:49Z</time>
      </trkpt>
      <trkpt lat="37.8875674959" lon="-6.5618912503">
        <ele>677.39</ele>
        <time>2021-05-30T06:47:52Z</time>
      </trkpt>
      <trkpt lat="37.8873695992" lon="-6.5608923789">
        <ele>673.54</ele>
        <time>2021-05-30T06:47:58Z</time>
      </trkpt>
      <trkpt lat="37.8873422742" lon="-6.5607534070">
        <ele>673.54</ele>
        <time>2021-05-30T06:47:59Z</time>
      </trkpt>
      <trkpt lat="37.8872323036" lon="-6.5601568669">
        <ele>674.02</ele>
        <time>2021-05-30T06:48:03Z</time>
      </trkpt>
      <trkpt lat="37.8872245923" lon="-6.5600071661">
        <ele>673.54</ele>
        <time>2021-05-30T06:48:04Z</time>
      </trkpt>
      <trkpt lat="37.8872375004" lon="-6.5598658472">
        <ele>673.06</ele>
        <time>2021-05-30T06:48:05Z</time>
      </trkpt>
      <trkpt lat="37.8872768953" lon="-6.5597293898">
        <ele>673.54</ele>
        <time>2021-05-30T06:48:06Z</time>
      </trkpt>
      <trkpt lat="37.8873368260" lon="-6.5595927648">
        <ele>674.02</ele>
        <time>2021-05-30T06:48:07Z</time>
      </trkpt>
      <trkpt lat="37.8874110058" lon="-6.5594605822">
        <ele>674.02</ele>
        <time>2021-05-30T06:48:08Z</time>
      </trkpt>
      <trkpt lat="37.8874904662" lon="-6.5593416430">
        <ele>673.06</ele>
        <time>2021-05-30T06:48:09Z</time>
      </trkpt>
      <trkpt lat="37.8875686694" lon="-6.5592341032">
        <ele>672.10</ele>
        <time>2021-05-30T06:48:10Z</time>
      </trkpt>
      <trkpt lat="37.8876398318" lon="-6.5591283236">
        <ele>673.54</ele>
        <time>2021-05-30T06:48:11Z</time>
      </trkpt>
      <trkpt lat="37.8877069708" lon="-6.5590123180">
        <ele>673.54</ele>
        <time>2021-05-30T06:48:12Z</time>
      </trkpt>
      <trkpt lat="37.8877608664" lon="-6.5588827338">
        <ele>674.50</ele>
        <time>2021-05-30T06:48:13Z</time>
      </trkpt>
      <trkpt lat="37.8877928853" lon="-6.5587408282">
        <ele>675.46</ele>
        <time>2021-05-30T06:48:14Z</time>
      </trkpt>
      <trkpt lat="37.8877996746" lon="-6.5585898701">
        <ele>675.94</ele>
        <time>2021-05-30T06:48:15Z</time>
      </trkpt>
      <trkpt lat="37.8877852578" lon="-6.5584337153">
        <ele>676.91</ele>
        <time>2021-05-30T06:48:16Z</time>
      </trkpt>
      <trkpt lat="37.8877562564" lon="-6.5582702681">
        <ele>678.35</ele>
        <time>2021-05-30T06:48:17Z</time>
      </trkpt>
      <trkpt lat="37.8877208848" lon="-6.5581019595">
        <ele>679.31</ele>
        <time>2021-05-30T06:48:18Z</time>
      </trkpt>
      <trkpt lat="37.8875443619" lon="-6.5574980434">
        <ele>682.19</ele>
        <time>2021-05-30T06:48:22Z</time>
      </trkpt>
      <trkpt lat="37.8874549270" lon="-6.5572874062">
        <ele>681.71</ele>
        <time>2021-05-30T06:48:24Z</time>
      </trkpt>
      <trkpt lat="37.8874043841" lon="-6.5572065208">
        <ele>681.71</ele>
        <time>2021-05-30T06:48:25Z</time>
      </trkpt>
      <trkpt lat="37.8871970158" lon="-6.5569251403">
        <ele>682.67</ele>
        <time>2021-05-30T06:48:29Z</time>
      </trkpt>
      <trkpt lat="37.8870877996" lon="-6.5568094701">
        <ele>683.15</ele>
        <time>2021-05-30T06:48:31Z</time>
      </trkpt>
      <trkpt lat="37.8870357480" lon="-6.5567364637">
        <ele>682.67</ele>
        <time>2021-05-30T06:48:32Z</time>
      </trkpt>
      <trkpt lat="37.8870016336" lon="-6.5566524770">
        <ele>683.15</ele>
        <time>2021-05-30T06:48:33Z</time>
      </trkpt>
      <trkpt lat="37.8870003764" lon="-6.5565741900">
        <ele>683.15</ele>
        <time>2021-05-30T06:48:34Z</time>
      </trkpt>
      <trkpt lat="37.8870362509" lon="-6.5565121640">
        <ele>683.15</ele>
        <time>2021-05-30T06:48:35Z</time>
      </trkpt>
      <trkpt lat="37.8871114366" lon="-6.5564788878">
        <ele>683.63</ele>
        <time>2021-05-30T06:48:36Z</time>
      </trkpt>
      <trkpt lat="37.8872004524" lon="-6.5564794745">
        <ele>684.12</ele>
        <time>2021-05-30T06:48:37Z</time>
      </trkpt>
      <trkpt lat="37.8873067349" lon="-6.5565062966">
        <ele>685.56</ele>
        <time>2021-05-30T06:48:38Z</time>
      </trkpt>
      <trkpt lat="37.8874107543" lon="-6.5565306880">
        <ele>685.56</ele>
        <time>2021-05-30T06:48:39Z</time>
      </trkpt>
      <trkpt lat="37.8875261731" lon="-6.5565314423">
        <ele>686.52</ele>
        <time>2021-05-30T06:48:40Z</time>
      </trkpt>
      <trkpt lat="37.8876468726" lon="-6.5565068834">
        <ele>687.00</ele>
        <time>2021-05-30T06:48:41Z</time>
      </trkpt>
      <trkpt lat="37.8877695836" lon="-6.5564709250">
        <ele>688.44</ele>
        <time>2021-05-30T06:48:42Z</time>
      </trkpt>
      <trkpt lat="37.8878919594" lon="-6.5564328711">
        <ele>688.92</ele>
        <time>2021-05-30T06:48:43Z</time>
      </trkpt>
      <trkpt lat="37.8881569114" lon="-6.5563462861">
        <ele>692.29</ele>
        <time>2021-05-30T06:48:45Z</time>
      </trkpt>
      <trkpt lat="37.8886220232" lon="-6.5561736189">
        <ele>695.65</ele>
        <time>2021-05-30T06:48:48Z</time>
      </trkpt>
      <trkpt lat="37.8889595624" lon="-6.5560348146">
        <ele>698.53</ele>
        <time>2021-05-30T06:48:50Z</time>
      </trkpt>
      <trkpt lat="37.8894628957" lon="-6.5557964332">
        <ele>702.38</ele>
        <time>2021-05-30T06:48:53Z</time>
      </trkpt>
      <trkpt lat="37.8897820786" lon="-6.5555741452">
        <ele>704.78</ele>
        <time>2021-05-30T06:48:55Z</time>
      </trkpt>
      <trkpt lat="37.8900816478" lon="-6.5553071816">
        <ele>708.15</ele>
        <time>2021-05-30T06:48:57Z</time>
      </trkpt>
      <trkpt lat="37.8903763555" lon="-6.5550743323">
        <ele>710.55</ele>
        <time>2021-05-30T06:48:59Z</time>
      </trkpt>
      <trkpt lat="37.8905286547" lon="-6.5550083667">
        <ele>711.03</ele>
        <time>2021-05-30T06:49:00Z</time>
      </trkpt>
      <trkpt lat="37.8906816244" lon="-6.5549931116">
        <ele>711.03</ele>
        <time>2021-05-30T06:49:01Z</time>
      </trkpt>
      <trkpt lat="37.8908298165" lon="-6.5550313331">
        <ele>711.99</ele>
        <time>2021-05-30T06:49:02Z</time>
      </trkpt>
      <trkpt lat="37.8909704648" lon="-6.5551221929">
        <ele>713.44</ele>
        <time>2021-05-30T06:49:03Z</time>
      </trkpt>
      <trkpt lat="37.8910946846" lon="-6.5552591532">
        <ele>714.88</ele>
        <time>2021-05-30T06:49:04Z</time>
      </trkpt>
      <trkpt lat="37.8911996260" lon="-6.5554315690">
        <ele>716.32</ele>
        <time>2021-05-30T06:49:05Z</time>
      </trkpt>
      <trkpt lat="37.8913003765" lon="-6.5556189884">
        <ele>718.72</ele>
        <time>2021-05-30T06:49:06Z</time>
      </trkpt>
      <trkpt lat="37.8915076610" lon="-6.5560167097">
        <ele>722.09</ele>
        <time>2021-05-30T06:49:08Z</time>
      </trkpt>
      <trkpt lat="37.8917195555" lon="-6.5564148501">
        <ele>725.45</ele>
        <time>2021-05-30T06:49:10Z</time>
      </trkpt>
      <trkpt lat="37.8919249959" lon="-6.5567851625">
        <ele>726.41</ele>
        <time>2021-05-30T06:49:12Z</time>
      </trkpt>
      <trkpt lat="37.8920333739" lon="-6.5569447540">
        <ele>725.45</ele>
        <time>2021-05-30T06:49:13Z</time>
      </trkpt>
      <trkpt lat="37.8921571746" lon="-6.5570802893">
        <ele>725.93</ele>
        <time>2021-05-30T06:49:14Z</time>
      </trkpt>
      <trkpt lat="37.8923026007" lon="-6.5571959596">
        <ele>726.41</ele>
        <time>2021-05-30T06:49:15Z</time>
      </trkpt>
      <trkpt lat="37.8926320933" lon="-6.5574094467">
        <ele>727.37</ele>
        <time>2021-05-30T06:49:17Z</time>
      </trkpt>
      <trkpt lat="37.8939593676" lon="-6.5582453739">
        <ele>725.93</ele>
        <time>2021-05-30T06:49:25Z</time>
      </trkpt>
      <trkpt lat="37.8941230662" lon="-6.5583000239">
        <ele>725.45</ele>
        <time>2021-05-30T06:49:26Z</time>
      </trkpt>
      <trkpt lat="37.8942929674" lon="-6.5583175421">
        <ele>726.41</ele>
        <time>2021-05-30T06:49:27Z</time>
      </trkpt>
      <trkpt lat="37.8944649640" lon="-6.5583011974">
        <ele>726.89</ele>
        <time>2021-05-30T06:49:28Z</time>
      </trkpt>
      <trkpt lat="37.8946375474" lon="-6.5582628082">
        <ele>727.86</ele>
        <time>2021-05-30T06:49:29Z</time>
      </trkpt>
      <trkpt lat="37.8948128968" lon="-6.5582171269">
        <ele>728.34</ele>
        <time>2021-05-30T06:49:30Z</time>
      </trkpt>
      <trkpt lat="37.8949911799" lon="-6.5581701882">
        <ele>728.82</ele>
        <time>2021-05-30T06:49:31Z</time>
      </trkpt>
      <trkpt lat="37.8960537538" lon="-6.5579375066">
        <ele>725.45</ele>
        <time>2021-05-30T06:49:37Z</time>
      </trkpt>
      <trkpt lat="37.8962219786" lon="-6.5579468105">
        <ele>725.45</ele>
        <time>2021-05-30T06:49:38Z</time>
      </trkpt>
      <trkpt lat="37.8963885270" lon="-6.5579814278">
        <ele>725.93</ele>
        <time>2021-05-30T06:49:39Z</time>
      </trkpt>
      <trkpt lat="37.8965497110" lon="-6.5580401849">
        <ele>724.97</ele>
        <time>2021-05-30T06:49:40Z</time>
      </trkpt>
      <trkpt lat="37.8967054468" lon="-6.5581186395">
        <ele>724.97</ele>
        <time>2021-05-30T06:49:41Z</time>
      </trkpt>
      <trkpt lat="37.8968499508" lon="-6.5582152829">
        <ele>724.49</ele>
        <time>2021-05-30T06:49:42Z</time>
      </trkpt>
      <trkpt lat="37.8969780263" lon="-6.5583262593">
        <ele>724.49</ele>
        <time>2021-05-30T06:49:43Z</time>
      </trkpt>
      <trkpt lat="37.8970921878" lon="-6.5584491380">
        <ele>724.01</ele>
        <time>2021-05-30T06:49:44Z</time>
      </trkpt>
      <trkpt lat="37.8971972130" lon="-6.5585865173">
        <ele>724.97</ele>
        <time>2021-05-30T06:49:45Z</time>
      </trkpt>
      <trkpt lat="37.8972933535" lon="-6.5587389842">
        <ele>724.49</ele>
        <time>2021-05-30T06:49:46Z</time>
      </trkpt>
      <trkpt lat="37.8973759990" lon="-6.5589051973">
        <ele>724.97</ele>
        <time>2021-05-30T06:49:47Z</time>
      </trkpt>
      <trkpt lat="37.8974461555" lon="-6.5590877552">
        <ele>724.49</ele>
        <time>2021-05-30T06:49:48Z</time>
      </trkpt>
      <trkpt lat="37.8975029849" lon="-6.5592828859">
        <ele>724.97</ele>
        <time>2021-05-30T06:49:49Z</time>
      </trkpt>
      <trkpt lat="37.8975442238" lon="-6.5594894998">
        <ele>725.93</ele>
        <time>2021-05-30T06:49:50Z</time>
      </trkpt>
      <trkpt lat="37.8975672740" lon="-6.5597101953">
        <ele>728.82</ele>
        <time>2021-05-30T06:49:51Z</time>
      </trkpt>
      <trkpt lat="37.8975717165" lon="-6.5599404462">
        <ele>728.34</ele>
        <time>2021-05-30T06:49:52Z</time>
      </trkpt>
      <trkpt lat="37.8975609038" lon="-6.5601774026">
        <ele>728.82</ele>
        <time>2021-05-30T06:49:53Z</time>
      </trkpt>
      <trkpt lat="37.8975391947" lon="-6.5604191367">
        <ele>728.82</ele>
        <time>2021-05-30T06:49:54Z</time>
      </trkpt>
      <trkpt lat="37.8974894062" lon="-6.5608902834">
        <ele>730.26</ele>
        <time>2021-05-30T06:49:56Z</time>
      </trkpt>
      <trkpt lat="37.8974194173" lon="-6.5617293119">
        <ele>730.26</ele>
        <time>2021-05-30T06:50:00Z</time>
      </trkpt>
      <trkpt lat="37.8974290565" lon="-6.5619369317">
        <ele>730.26</ele>
        <time>2021-05-30T06:50:01Z</time>
      </trkpt>
      <trkpt lat="37.8974588960" lon="-6.5621489100">
        <ele>731.22</ele>
        <time>2021-05-30T06:50:02Z</time>
      </trkpt>
      <trkpt lat="37.8977238480" lon="-6.5632157587">
        <ele>729.30</ele>
        <time>2021-05-30T06:50:07Z</time>
      </trkpt>
      <trkpt lat="37.8978599701" lon="-6.5638956148">
        <ele>731.70</ele>
        <time>2021-05-30T06:50:10Z</time>
      </trkpt>
      <trkpt lat="37.8978718724" lon="-6.5641357563">
        <ele>732.18</ele>
        <time>2021-05-30T06:50:11Z</time>
      </trkpt>
      <trkpt lat="37.8978468943" lon="-6.5648321249">
        <ele>733.62</ele>
        <time>2021-05-30T06:50:14Z</time>
      </trkpt>
      <trkpt lat="37.8977856226" lon="-6.5661291406">
        <ele>735.55</ele>
        <time>2021-05-30T06:50:20Z</time>
      </trkpt>
      <trkpt lat="37.8977673501" lon="-6.5674570017">
        <ele>733.14</ele>
        <time>2021-05-30T06:50:28Z</time>
      </trkpt>
      <trkpt lat="37.8977804258" lon="-6.5675078798">
        <ele>732.66</ele>
        <time>2021-05-30T06:50:29Z</time>
      </trkpt>
      <trkpt lat="37.8977940883" lon="-6.5675365459">
        <ele>733.14</ele>
        <time>2021-05-30T06:50:30Z</time>
      </trkpt>
      <trkpt lat="37.8978732135" lon="-6.5676967241">
        <ele>733.62</ele>
        <time>2021-05-30T06:50:34Z</time>
      </trkpt>
      <trkpt lat="37.8978948388" lon="-6.5677743405">
        <ele>733.62</ele>
        <time>2021-05-30T06:50:35Z</time>
      </trkpt>
      <trkpt lat="37.8978917375" lon="-6.5678554773">
        <ele>734.10</ele>
        <time>2021-05-30T06:50:36Z</time>
      </trkpt>
      <trkpt lat="37.8978617303" lon="-6.5679332614">
        <ele>734.10</ele>
        <time>2021-05-30T06:50:37Z</time>
      </trkpt>
      <trkpt lat="37.8978079185" lon="-6.5679952875">
        <ele>734.58</ele>
        <time>2021-05-30T06:50:38Z</time>
      </trkpt>
      <trkpt lat="37.8977485746" lon="-6.5680435672">
        <ele>734.58</ele>
        <time>2021-05-30T06:50:39Z</time>
      </trkpt>
      <trkpt lat="37.8976931702" lon="-6.5681072697">
        <ele>734.58</ele>
        <time>2021-05-30T06:50:40Z</time>
      </trkpt>
      <trkpt lat="37.8976427950" lon="-6.5682002250">
        <ele>735.07</ele>
        <time>2021-05-30T06:50:41Z</time>
      </trkpt>
      <trkpt lat="37.8975992091" lon="-6.5683204215">
        <ele>735.55</ele>
        <time>2021-05-30T06:50:42Z</time>
      </trkpt>
      <trkpt lat="37.8974314872" lon="-6.5689241700">
        <ele>738.91</ele>
        <time>2021-05-30T06:50:46Z</time>
      </trkpt>
      <trkpt lat="37.8973797709" lon="-6.5690980107">
        <ele>738.91</ele>
        <time>2021-05-30T06:50:47Z</time>
      </trkpt>
      <trkpt lat="37.8972673696" lon="-6.5694689099">
        <ele>742.28</ele>
        <time>2021-05-30T06:50:49Z</time>
      </trkpt>
      <trkpt lat="37.8972166590" lon="-6.5696637891">
        <ele>742.28</ele>
        <time>2021-05-30T06:50:50Z</time>
      </trkpt>
      <trkpt lat="37.8971767612" lon="-6.5698703192">
        <ele>743.24</ele>
        <time>2021-05-30T06:50:51Z</time>
      </trkpt>
      <trkpt lat="37.8971563932" lon="-6.5700876620">
        <ele>743.24</ele>
        <time>2021-05-30T06:50:52Z</time>
      </trkpt>
      <trkpt lat="37.8971168306" lon="-6.5709789097">
        <ele>745.16</ele>
        <time>2021-05-30T06:50:56Z</time>
      </trkpt>
      <trkpt lat="37.8970774356" lon="-6.5718716662">
        <ele>748.04</ele>
        <time>2021-05-30T06:51:00Z</time>
      </trkpt>
      <trkpt lat="37.8970478475" lon="-6.5725944377">
        <ele>749.97</ele>
        <time>2021-05-30T06:51:03Z</time>
      </trkpt>
      <trkpt lat="37.8967394773" lon="-6.5756680816">
        <ele>747.56</ele>
        <time>2021-05-30T06:51:15Z</time>
      </trkpt>
      <trkpt lat="37.8966804687" lon="-6.5759332851">
        <ele>747.56</ele>
        <time>2021-05-30T06:51:16Z</time>
      </trkpt>
      <trkpt lat="37.8965164348" lon="-6.5773918200">
        <ele>744.20</ele>
        <time>2021-05-30T06:51:21Z</time>
      </trkpt>
      <trkpt lat="37.8965798859" lon="-6.5788264666">
        <ele>739.39</ele>
        <time>2021-05-30T06:51:26Z</time>
      </trkpt>
      <trkpt lat="37.8966470249" lon="-6.5803829022">
        <ele>737.95</ele>
        <time>2021-05-30T06:51:33Z</time>
      </trkpt>
      <trkpt lat="37.8965863399" lon="-6.5811604913">
        <ele>740.83</ele>
        <time>2021-05-30T06:51:36Z</time>
      </trkpt>
      <trkpt lat="37.8965246491" lon="-6.5814324003">
        <ele>741.31</ele>
        <time>2021-05-30T06:51:37Z</time>
      </trkpt>
      <trkpt lat="37.8964419197" lon="-6.5817024652">
        <ele>743.24</ele>
        <time>2021-05-30T06:51:38Z</time>
      </trkpt>
      <trkpt lat="37.8963393252" lon="-6.5819656570">
        <ele>743.72</ele>
        <time>2021-05-30T06:51:39Z</time>
      </trkpt>
      <trkpt lat="37.8962176200" lon="-6.5822222270">
        <ele>744.68</ele>
        <time>2021-05-30T06:51:40Z</time>
      </trkpt>
      <trkpt lat="37.8960809112" lon="-6.5824726783">
        <ele>745.16</ele>
        <time>2021-05-30T06:51:41Z</time>
      </trkpt>
      <trkpt lat="37.8957975190" lon="-6.5829620976">
        <ele>747.56</ele>
        <time>2021-05-30T06:51:43Z</time>
      </trkpt>
      <trkpt lat="37.8955466487" lon="-6.5834547859">
        <ele>748.04</ele>
        <time>2021-05-30T06:51:45Z</time>
      </trkpt>
      <trkpt lat="37.8954531066" lon="-6.5837085061">
        <ele>747.56</ele>
        <time>2021-05-30T06:51:46Z</time>
      </trkpt>
      <trkpt lat="37.8953840397" lon="-6.5839677583">
        <ele>749.49</ele>
        <time>2021-05-30T06:51:47Z</time>
      </trkpt>
      <trkpt lat="37.8953343350" lon="-6.5842324588">
        <ele>750.45</ele>
        <time>2021-05-30T06:51:48Z</time>
      </trkpt>
      <trkpt lat="37.8953041602" lon="-6.5845045354">
        <ele>749.49</ele>
        <time>2021-05-30T06:51:49Z</time>
      </trkpt>
      <trkpt lat="37.8952940181" lon="-6.5847808868">
        <ele>749.97</ele>
        <time>2021-05-30T06:51:50Z</time>
      </trkpt>
      <trkpt lat="37.8953058366" lon="-6.5850580763">
        <ele>750.45</ele>
        <time>2021-05-30T06:51:51Z</time>
      </trkpt>
      <trkpt lat="37.8953381069" lon="-6.5853323322">
        <ele>750.93</ele>
        <time>2021-05-30T06:51:52Z</time>
      </trkpt>
      <trkpt lat="37.8953931760" lon="-6.5856015589">
        <ele>751.89</ele>
        <time>2021-05-30T06:51:53Z</time>
      </trkpt>
      <trkpt lat="37.8954684455" lon="-6.5858650859">
        <ele>752.85</ele>
        <time>2021-05-30T06:51:54Z</time>
      </trkpt>
      <trkpt lat="37.8955630772" lon="-6.5861255955">
        <ele>753.33</ele>
        <time>2021-05-30T06:51:55Z</time>
      </trkpt>
      <trkpt lat="37.8956225049" lon="-6.5862729494">
        <ele>754.29</ele>
        <time>2021-05-30T06:51:56Z</time>
      </trkpt>
      <trkpt lat="37.8963829111" lon="-6.5883338079">
        <ele>750.93</ele>
        <time>2021-05-30T06:52:03Z</time>
      </trkpt>
      <trkpt lat="37.8968124837" lon="-6.5898608230">
        <ele>747.56</ele>
        <time>2021-05-30T06:52:08Z</time>
      </trkpt>
      <trkpt lat="37.8973426390" lon="-6.5914175939">
        <ele>743.72</ele>
        <time>2021-05-30T06:52:13Z</time>
      </trkpt>
      <trkpt lat="37.8974500950" lon="-6.5917299036">
        <ele>743.72</ele>
        <time>2021-05-30T06:52:14Z</time>
      </trkpt>
      <trkpt lat="37.8982667439" lon="-6.5938972961">
        <ele>740.83</ele>
        <time>2021-05-30T06:52:21Z</time>
      </trkpt>
      <trkpt lat="37.8987647127" lon="-6.5950618777">
        <ele>737.47</ele>
        <time>2021-05-30T06:52:25Z</time>
      </trkpt>
      <trkpt lat="37.8988942970" lon="-6.5956893470">
        <ele>736.51</ele>
        <time>2021-05-30T06:52:27Z</time>
      </trkpt>
      <trkpt lat="37.8989125695" lon="-6.5960128047">
        <ele>736.99</ele>
        <time>2021-05-30T06:52:28Z</time>
      </trkpt>
      <trkpt lat="37.8989104740" lon="-6.5963420458">
        <ele>736.03</ele>
        <time>2021-05-30T06:52:29Z</time>
      </trkpt>
      <trkpt lat="37.8987533972" lon="-6.5983170737">
        <ele>734.58</ele>
        <time>2021-05-30T06:52:35Z</time>
      </trkpt>
      <trkpt lat="37.8987264074" lon="-6.5992508177">
        <ele>734.58</ele>
        <time>2021-05-30T06:52:38Z</time>
      </trkpt>
      <trkpt lat="37.8987624496" lon="-6.5995529853">
        <ele>733.62</ele>
        <time>2021-05-30T06:52:39Z</time>
      </trkpt>
      <trkpt lat="37.8988221288" lon="-6.5998493694">
        <ele>733.14</ele>
        <time>2021-05-30T06:52:40Z</time>
      </trkpt>
      <trkpt lat="37.8989066184" lon="-6.6001364496">
        <ele>732.66</ele>
        <time>2021-05-30T06:52:41Z</time>
      </trkpt>
      <trkpt lat="37.8990144096" lon="-6.6004150640">
        <ele>734.10</ele>
        <time>2021-05-30T06:52:42Z</time>
      </trkpt>
      <trkpt lat="37.8991434071" lon="-6.6006880626">
        <ele>735.07</ele>
        <time>2021-05-30T06:52:43Z</time>
      </trkpt>
      <trkpt lat="37.8992857318" lon="-6.6009596363">
        <ele>736.03</ele>
        <time>2021-05-30T06:52:44Z</time>
      </trkpt>
      <trkpt lat="37.9003716074" lon="-6.6030782461">
        <ele>734.58</ele>
        <time>2021-05-30T06:52:52Z</time>
      </trkpt>
      <trkpt lat="37.9004584439" lon="-6.6033644881">
        <ele>733.62</ele>
        <time>2021-05-30T06:52:53Z</time>
      </trkpt>
      <trkpt lat="37.9005197156" lon="-6.6036598664">
        <ele>733.14</ele>
        <time>2021-05-30T06:52:54Z</time>
      </trkpt>
      <trkpt lat="37.9005617928" lon="-6.6039645486">
        <ele>734.58</ele>
        <time>2021-05-30T06:52:55Z</time>
      </trkpt>
      <trkpt lat="37.9005878605" lon="-6.6042737570">
        <ele>735.55</ele>
        <time>2021-05-30T06:52:56Z</time>
      </trkpt>
      <trkpt lat="37.9006047081" lon="-6.6045869049">
        <ele>736.51</ele>
        <time>2021-05-30T06:52:57Z</time>
      </trkpt>
      <trkpt lat="37.9006935563" lon="-6.6062131617">
        <ele>738.91</ele>
        <time>2021-05-30T06:53:02Z</time>
      </trkpt>
      <trkpt lat="37.9010119010" lon="-6.6081217211">
        <ele>740.83</ele>
        <time>2021-05-30T06:53:08Z</time>
      </trkpt>
      <trkpt lat="37.9014729057" lon="-6.6092811059">
        <ele>744.20</ele>
        <time>2021-05-30T06:53:12Z</time>
      </trkpt>
      <trkpt lat="37.9027146846" lon="-6.6125809774">
        <ele>746.12</ele>
        <time>2021-05-30T06:53:24Z</time>
      </trkpt>
      <trkpt lat="37.9029996693" lon="-6.6140456311">
        <ele>742.28</ele>
        <time>2021-05-30T06:53:29Z</time>
      </trkpt>
      <trkpt lat="37.9030592646" lon="-6.6143099125">
        <ele>742.28</ele>
        <time>2021-05-30T06:53:30Z</time>
      </trkpt>
      <trkpt lat="37.9032468516" lon="-6.6154880729">
        <ele>744.68</ele>
        <time>2021-05-30T06:53:35Z</time>
      </trkpt>
      <trkpt lat="37.9033236299" lon="-6.6160066612">
        <ele>743.72</ele>
        <time>2021-05-30T06:53:38Z</time>
      </trkpt>
      <trkpt lat="37.9033672158" lon="-6.6161323059">
        <ele>744.68</ele>
        <time>2021-05-30T06:53:39Z</time>
      </trkpt>
      <trkpt lat="37.9035739973" lon="-6.6166601982">
        <ele>743.24</ele>
        <time>2021-05-30T06:53:43Z</time>
      </trkpt>
      <trkpt lat="37.9036400467" lon="-6.6168500483">
        <ele>742.28</ele>
        <time>2021-05-30T06:53:44Z</time>
      </trkpt>
      <trkpt lat="37.9036662821" lon="-6.6169704124">
        <ele>742.28</ele>
        <time>2021-05-30T06:53:45Z</time>
      </trkpt>
      <trkpt lat="37.9036874883" lon="-6.6171343625">
        <ele>740.83</ele>
        <time>2021-05-30T06:53:46Z</time>
      </trkpt>
      <trkpt lat="37.9037074372" lon="-6.6174581554">
        <ele>737.47</ele>
        <time>2021-05-30T06:53:48Z</time>
      </trkpt>
      <trkpt lat="37.9037174117" lon="-6.6178984568">
        <ele>734.58</ele>
        <time>2021-05-30T06:53:51Z</time>
      </trkpt>
      <trkpt lat="37.9037290625" lon="-6.6181102674">
        <ele>731.22</ele>
        <time>2021-05-30T06:53:53Z</time>
      </trkpt>
      <trkpt lat="37.9037525319" lon="-6.6181698628">
        <ele>731.22</ele>
        <time>2021-05-30T06:53:54Z</time>
      </trkpt>
      <trkpt lat="37.9037889931" lon="-6.6181954276">
        <ele>730.26</ele>
        <time>2021-05-30T06:53:55Z</time>
      </trkpt>
      <trkpt lat="37.9038314894" lon="-6.6181875486">
        <ele>730.26</ele>
        <time>2021-05-30T06:53:56Z</time>
      </trkpt>
      <trkpt lat="37.9038758297" lon="-6.6181519255">
        <ele>730.74</ele>
        <time>2021-05-30T06:53:57Z</time>
      </trkpt>
      <trkpt lat="37.9039290547" lon="-6.6180893965">
        <ele>731.22</ele>
        <time>2021-05-30T06:53:58Z</time>
      </trkpt>
      <trkpt lat="37.9039917514" lon="-6.6180040687">
        <ele>732.66</ele>
        <time>2021-05-30T06:53:59Z</time>
      </trkpt>
      <trkpt lat="37.9046939034" lon="-6.6172751784">
        <ele>732.66</ele>
        <time>2021-05-30T06:54:06Z</time>
      </trkpt>
      <trkpt lat="37.9050828237" lon="-6.6168820672">
        <ele>729.78</ele>
        <time>2021-05-30T06:54:09Z</time>
      </trkpt>
      <trkpt lat="37.9052019306" lon="-6.6167826578">
        <ele>728.34</ele>
        <time>2021-05-30T06:54:10Z</time>
      </trkpt>
      <trkpt lat="37.9053165950" lon="-6.6167264152">
        <ele>725.45</ele>
        <time>2021-05-30T06:54:11Z</time>
      </trkpt>
      <trkpt lat="37.9054228775" lon="-6.6167233139">
        <ele>723.53</ele>
        <time>2021-05-30T06:54:12Z</time>
      </trkpt>
      <trkpt lat="37.9055290762" lon="-6.6167823225">
        <ele>721.61</ele>
        <time>2021-05-30T06:54:13Z</time>
      </trkpt>
      <trkpt lat="37.9056440759" lon="-6.6168785468">
        <ele>722.09</ele>
        <time>2021-05-30T06:54:14Z</time>
      </trkpt>
      <trkpt lat="37.9066251777" lon="-6.6177578084">
        <ele>723.53</ele>
        <time>2021-05-30T06:54:20Z</time>
      </trkpt>
      <trkpt lat="37.9071125854" lon="-6.6182280332">
        <ele>721.13</ele>
        <time>2021-05-30T06:54:23Z</time>
      </trkpt>
      <trkpt lat="37.9072927963" lon="-6.6183541808">
        <ele>721.13</ele>
        <time>2021-05-30T06:54:24Z</time>
      </trkpt>
      <trkpt lat="37.9074860830" lon="-6.6184660792">
        <ele>721.13</ele>
        <time>2021-05-30T06:54:25Z</time>
      </trkpt>
      <trkpt lat="37.9082697909" lon="-6.6188492998">
        <ele>715.84</ele>
        <time>2021-05-30T06:54:29Z</time>
      </trkpt>
      <trkpt lat="37.9084685259" lon="-6.6189000104">
        <ele>715.84</ele>
        <time>2021-05-30T06:54:30Z</time>
      </trkpt>
      <trkpt lat="37.9086721223" lon="-6.6189337056">
        <ele>715.36</ele>
        <time>2021-05-30T06:54:31Z</time>
      </trkpt>
      <trkpt lat="37.9095316026" lon="-6.6190113220">
        <ele>711.99</ele>
        <time>2021-05-30T06:54:35Z</time>
      </trkpt>
      <trkpt lat="37.9099713173" lon="-6.6190369707">
        <ele>707.19</ele>
        <time>2021-05-30T06:54:37Z</time>
      </trkpt>
      <trkpt lat="37.9104163125" lon="-6.6190020181">
        <ele>702.38</ele>
        <time>2021-05-30T06:54:39Z</time>
      </trkpt>
      <trkpt lat="37.9108579550" lon="-6.6189336218">
        <ele>698.05</ele>
        <time>2021-05-30T06:54:41Z</time>
      </trkpt>
      <trkpt lat="37.9110571928" lon="-6.6188995913">
        <ele>695.17</ele>
        <time>2021-05-30T06:54:42Z</time>
      </trkpt>
      <trkpt lat="37.9112377390" lon="-6.6188562568">
        <ele>692.77</ele>
        <time>2021-05-30T06:54:43Z</time>
      </trkpt>
      <trkpt lat="37.9114030302" lon="-6.6187874414">
        <ele>690.36</ele>
        <time>2021-05-30T06:54:44Z</time>
      </trkpt>
      <trkpt lat="37.9115648009" lon="-6.6186793987">
        <ele>689.88</ele>
        <time>2021-05-30T06:54:45Z</time>
      </trkpt>
      <trkpt lat="37.9117320199" lon="-6.6185342241">
        <ele>690.36</ele>
        <time>2021-05-30T06:54:46Z</time>
      </trkpt>
      <trkpt lat="37.9119035136" lon="-6.6183663346">
        <ele>691.81</ele>
        <time>2021-05-30T06:54:47Z</time>
      </trkpt>
      <trkpt lat="37.9122436512" lon="-6.6180288792">
        <ele>693.25</ele>
        <time>2021-05-30T06:54:49Z</time>
      </trkpt>
      <trkpt lat="37.9125795979" lon="-6.6177526955">
        <ele>690.84</ele>
        <time>2021-05-30T06:54:51Z</time>
      </trkpt>
      <trkpt lat="37.9127643351" lon="-6.6176713072">
        <ele>691.33</ele>
        <time>2021-05-30T06:54:52Z</time>
      </trkpt>
      <trkpt lat="37.9129561968" lon="-6.6176245362">
        <ele>691.33</ele>
        <time>2021-05-30T06:54:53Z</time>
      </trkpt>
      <trkpt lat="37.9131418560" lon="-6.6176032461">
        <ele>690.84</ele>
        <time>2021-05-30T06:54:54Z</time>
      </trkpt>
      <trkpt lat="37.9133184627" lon="-6.6175993066">
        <ele>690.36</ele>
        <time>2021-05-30T06:54:55Z</time>
      </trkpt>
      <trkpt lat="37.9134917166" lon="-6.6176204290">
        <ele>690.84</ele>
        <time>2021-05-30T06:54:56Z</time>
      </trkpt>
      <trkpt lat="37.9136683233" lon="-6.6176724806">
        <ele>691.33</ele>
        <time>2021-05-30T06:54:57Z</time>
      </trkpt>
      <trkpt lat="37.9138434213" lon="-6.6177546233">
        <ele>692.77</ele>
        <time>2021-05-30T06:54:58Z</time>
      </trkpt>
      <trkpt lat="37.9140188545" lon="-6.6178491712">
        <ele>693.25</ele>
        <time>2021-05-30T06:54:59Z</time>
      </trkpt>
      <trkpt lat="37.9146984592" lon="-6.6181895602">
        <ele>689.88</ele>
        <time>2021-05-30T06:55:03Z</time>
      </trkpt>
      <trkpt lat="37.9148738086" lon="-6.6182429530">
        <ele>688.92</ele>
        <time>2021-05-30T06:55:04Z</time>
      </trkpt>
      <trkpt lat="37.9150563665" lon="-6.6182684340">
        <ele>687.00</ele>
        <time>2021-05-30T06:55:05Z</time>
      </trkpt>
      <trkpt lat="37.9152362421" lon="-6.6182715353">
        <ele>685.56</ele>
        <time>2021-05-30T06:55:06Z</time>
      </trkpt>
      <trkpt lat="37.9154412635" lon="-6.6182701103">
        <ele>680.27</ele>
        <time>2021-05-30T06:55:07Z</time>
      </trkpt>
      <trkpt lat="37.9155579396" lon="-6.6182802524">
        <ele>679.31</ele>
        <time>2021-05-30T06:55:08Z</time>
      </trkpt>
      <trkpt lat="37.9156890325" lon="-6.6183190607">
        <ele>677.87</ele>
        <time>2021-05-30T06:55:09Z</time>
      </trkpt>
      <trkpt lat="37.9158085585" lon="-6.6184033826">
        <ele>675.94</ele>
        <time>2021-05-30T06:55:10Z</time>
      </trkpt>
      <trkpt lat="37.9159149248" lon="-6.6185276024">
        <ele>674.98</ele>
        <time>2021-05-30T06:55:11Z</time>
      </trkpt>
      <trkpt lat="37.9160098918" lon="-6.6186747048">
        <ele>673.54</ele>
        <time>2021-05-30T06:55:12Z</time>
      </trkpt>
      <trkpt lat="37.9161153361" lon="-6.6188114136">
        <ele>672.10</ele>
        <time>2021-05-30T06:55:13Z</time>
      </trkpt>
      <trkpt lat="37.9162386339" lon="-6.6189202107">
        <ele>671.14</ele>
        <time>2021-05-30T06:55:14Z</time>
      </trkpt>
      <trkpt lat="37.9163740855" lon="-6.6190089751">
        <ele>672.10</ele>
        <time>2021-05-30T06:55:15Z</time>
      </trkpt>
      <trkpt lat="37.9167997185" lon="-6.6192633659">
        <ele>676.42</ele>
        <time>2021-05-30T06:55:18Z</time>
      </trkpt>
      <trkpt lat="37.9171320610" lon="-6.6194330156">
        <ele>679.79</ele>
        <time>2021-05-30T06:55:20Z</time>
      </trkpt>
      <trkpt lat="37.9176113382" lon="-6.6196945310">
        <ele>682.67</ele>
        <time>2021-05-30T06:55:23Z</time>
      </trkpt>
      <trkpt lat="37.9179194570" lon="-6.6198280547">
        <ele>684.60</ele>
        <time>2021-05-30T06:55:25Z</time>
      </trkpt>
      <trkpt lat="37.9180702474" lon="-6.6198499314">
        <ele>684.60</ele>
        <time>2021-05-30T06:55:26Z</time>
      </trkpt>
      <trkpt lat="37.9182067048" lon="-6.6198339220">
        <ele>684.60</ele>
        <time>2021-05-30T06:55:27Z</time>
      </trkpt>
      <trkpt lat="37.9183232971" lon="-6.6197727341">
        <ele>684.60</ele>
        <time>2021-05-30T06:55:28Z</time>
      </trkpt>
      <trkpt lat="37.9184175096" lon="-6.6196703911">
        <ele>685.08</ele>
        <time>2021-05-30T06:55:29Z</time>
      </trkpt>
      <trkpt lat="37.9184866603" lon="-6.6195276473">
        <ele>686.04</ele>
        <time>2021-05-30T06:55:30Z</time>
      </trkpt>
      <trkpt lat="37.9185235407" lon="-6.6193564050">
        <ele>687.48</ele>
        <time>2021-05-30T06:55:31Z</time>
      </trkpt>
      <trkpt lat="37.9185315035" lon="-6.6191621963">
        <ele>688.92</ele>
        <time>2021-05-30T06:55:32Z</time>
      </trkpt>
      <trkpt lat="37.9185346048" lon="-6.6189761180">
        <ele>690.84</ele>
        <time>2021-05-30T06:55:33Z</time>
      </trkpt>
      <trkpt lat="37.9185524583" lon="-6.6188109107">
        <ele>691.33</ele>
        <time>2021-05-30T06:55:34Z</time>
      </trkpt>
      <trkpt lat="37.9185967147" lon="-6.6186680831">
        <ele>691.81</ele>
        <time>2021-05-30T06:55:35Z</time>
      </trkpt>
      <trkpt lat="37.9186796118" lon="-6.6185480542">
        <ele>692.29</ele>
        <time>2021-05-30T06:55:36Z</time>
      </trkpt>
      <trkpt lat="37.9188004788" lon="-6.6184539255">
        <ele>693.73</ele>
        <time>2021-05-30T06:55:37Z</time>
      </trkpt>
      <trkpt lat="37.9189407080" lon="-6.6183771472">
        <ele>695.65</ele>
        <time>2021-05-30T06:55:38Z</time>
      </trkpt>
      <trkpt lat="37.9190799315" lon="-6.6182833537">
        <ele>697.09</ele>
        <time>2021-05-30T06:55:39Z</time>
      </trkpt>
      <trkpt lat="37.9192084260" lon="-6.6181483213">
        <ele>698.53</ele>
        <time>2021-05-30T06:55:40Z</time>
      </trkpt>
      <trkpt lat="37.9193238448" lon="-6.6179918312">
        <ele>701.90</ele>
        <time>2021-05-30T06:55:41Z</time>
      </trkpt>
      <trkpt lat="37.9194400180" lon="-6.6178460699">
        <ele>702.86</ele>
        <time>2021-05-30T06:55:42Z</time>
      </trkpt>
      <trkpt lat="37.9195727035" lon="-6.6177364346">
        <ele>704.78</ele>
        <time>2021-05-30T06:55:43Z</time>
      </trkpt>
      <trkpt lat="37.9197269306" lon="-6.6176635120">
        <ele>706.23</ele>
        <time>2021-05-30T06:55:44Z</time>
      </trkpt>
      <trkpt lat="37.9199031182" lon="-6.6176245362">
        <ele>709.11</ele>
        <time>2021-05-30T06:55:45Z</time>
      </trkpt>
      <trkpt lat="37.9200911243" lon="-6.6176110413">
        <ele>711.51</ele>
        <time>2021-05-30T06:55:46Z</time>
      </trkpt>
      <trkpt lat="37.9202815611" lon="-6.6176182497">
        <ele>712.95</ele>
        <time>2021-05-30T06:55:47Z</time>
      </trkpt>
      <trkpt lat="37.9204776138" lon="-6.6176570579">
        <ele>714.40</ele>
        <time>2021-05-30T06:55:48Z</time>
      </trkpt>
      <trkpt lat="37.9206803720" lon="-6.6177283879">
        <ele>717.28</ele>
        <time>2021-05-30T06:55:49Z</time>
      </trkpt>
      <trkpt lat="37.9208716471" lon="-6.6178201698">
        <ele>717.76</ele>
        <time>2021-05-30T06:55:50Z</time>
      </trkpt>
      <trkpt lat="37.9210469965" lon="-6.6179196630">
        <ele>718.24</ele>
        <time>2021-05-30T06:55:51Z</time>
      </trkpt>
      <trkpt lat="37.9212070908" lon="-6.6179995425">
        <ele>718.24</ele>
        <time>2021-05-30T06:55:52Z</time>
      </trkpt>
      <trkpt lat="37.9213538580" lon="-6.6180372611">
        <ele>717.76</ele>
        <time>2021-05-30T06:55:53Z</time>
      </trkpt>
      <trkpt lat="37.9216422793" lon="-6.6179813538">
        <ele>721.13</ele>
        <time>2021-05-30T06:55:55Z</time>
      </trkpt>
      <trkpt lat="37.9218063131" lon="-6.6178916674">
        <ele>724.97</ele>
        <time>2021-05-30T06:55:56Z</time>
      </trkpt>
      <trkpt lat="37.9219863564" lon="-6.6178229358">
        <ele>725.93</ele>
        <time>2021-05-30T06:55:57Z</time>
      </trkpt>
      <trkpt lat="37.9221820738" lon="-6.6177819483">
        <ele>728.82</ele>
        <time>2021-05-30T06:55:58Z</time>
      </trkpt>
      <trkpt lat="37.9223820660" lon="-6.6177712195">
        <ele>731.22</ele>
        <time>2021-05-30T06:55:59Z</time>
      </trkpt>
      <trkpt lat="37.9225688986" lon="-6.6177774221">
        <ele>732.66</ele>
        <time>2021-05-30T06:56:00Z</time>
      </trkpt>
      <trkpt lat="37.9227317590" lon="-6.6178017296">
        <ele>734.10</ele>
        <time>2021-05-30T06:56:01Z</time>
      </trkpt>
      <trkpt lat="37.9228635225" lon="-6.6178583913">
        <ele>733.14</ele>
        <time>2021-05-30T06:56:02Z</time>
      </trkpt>
      <trkpt lat="37.9229581542" lon="-6.6179572977">
        <ele>733.62</ele>
        <time>2021-05-30T06:56:03Z</time>
      </trkpt>
      <trkpt lat="37.9230169952" lon="-6.6181003768">
        <ele>733.14</ele>
        <time>2021-05-30T06:56:04Z</time>
      </trkpt>
      <trkpt lat="37.9230470024" lon="-6.6182784084">
        <ele>736.51</ele>
        <time>2021-05-30T06:56:05Z</time>
      </trkpt>
      <trkpt lat="37.9230572283" lon="-6.6184820887">
        <ele>738.43</ele>
        <time>2021-05-30T06:56:06Z</time>
      </trkpt>
      <trkpt lat="37.9230493493" lon="-6.6187031195">
        <ele>742.76</ele>
        <time>2021-05-30T06:56:07Z</time>
      </trkpt>
      <trkpt lat="37.9230196774" lon="-6.6189366393">
        <ele>746.12</ele>
        <time>2021-05-30T06:56:08Z</time>
      </trkpt>
      <trkpt lat="37.9229644407" lon="-6.6191739310">
        <ele>749.49</ele>
        <time>2021-05-30T06:56:09Z</time>
      </trkpt>
      <trkpt lat="37.9228910990" lon="-6.6194129828">
        <ele>751.89</ele>
        <time>2021-05-30T06:56:10Z</time>
      </trkpt>
      <trkpt lat="37.9228195176" lon="-6.6196450777">
        <ele>753.81</ele>
        <time>2021-05-30T06:56:11Z</time>
      </trkpt>
      <trkpt lat="37.9227646161" lon="-6.6198625043">
        <ele>754.29</ele>
        <time>2021-05-30T06:56:12Z</time>
      </trkpt>
      <trkpt lat="37.9227353632" lon="-6.6200692859">
        <ele>754.77</ele>
        <time>2021-05-30T06:56:13Z</time>
      </trkpt>
      <trkpt lat="37.9227350280" lon="-6.6202675179">
        <ele>755.73</ele>
        <time>2021-05-30T06:56:14Z</time>
      </trkpt>
      <trkpt lat="37.9227601737" lon="-6.6204443760">
        <ele>755.73</ele>
        <time>2021-05-30T06:56:15Z</time>
      </trkpt>
      <trkpt lat="37.9228098784" lon="-6.6205899697">
        <ele>754.77</ele>
        <time>2021-05-30T06:56:16Z</time>
      </trkpt>
      <trkpt lat="37.9228914343" lon="-6.6207082383">
        <ele>755.73</ele>
        <time>2021-05-30T06:56:17Z</time>
      </trkpt>
      <trkpt lat="37.9230025783" lon="-6.6208095755">
        <ele>758.14</ele>
        <time>2021-05-30T06:56:18Z</time>
      </trkpt>
      <trkpt lat="37.9232084379" lon="-6.6208775528">
        <ele>761.02</ele>
        <time>2021-05-30T06:56:19Z</time>
      </trkpt>
      <trkpt lat="37.9233956896" lon="-6.6209574323">
        <ele>762.46</ele>
        <time>2021-05-30T06:56:20Z</time>
      </trkpt>
      <trkpt lat="37.9235509224" lon="-6.6210490465">
        <ele>761.98</ele>
        <time>2021-05-30T06:56:21Z</time>
      </trkpt>
      <trkpt lat="37.9236978572" lon="-6.6211528983">
        <ele>761.50</ele>
        <time>2021-05-30T06:56:22Z</time>
      </trkpt>
      <trkpt lat="37.9238263518" lon="-6.6212947201">
        <ele>760.54</ele>
        <time>2021-05-30T06:56:23Z</time>
      </trkpt>
      <trkpt lat="37.9239350650" lon="-6.6214809660">
        <ele>761.02</ele>
        <time>2021-05-30T06:56:24Z</time>
      </trkpt>
      <trkpt lat="37.9240371566" lon="-6.6216887534">
        <ele>761.50</ele>
        <time>2021-05-30T06:56:25Z</time>
      </trkpt>
      <trkpt lat="37.9241472110" lon="-6.6218947805">
        <ele>760.06</ele>
        <time>2021-05-30T06:56:26Z</time>
      </trkpt>
      <trkpt lat="37.9242750350" lon="-6.6220856365">
        <ele>759.10</ele>
        <time>2021-05-30T06:56:27Z</time>
      </trkpt>
      <trkpt lat="37.9244186170" lon="-6.6222637519">
        <ele>758.14</ele>
        <time>2021-05-30T06:56:28Z</time>
      </trkpt>
      <trkpt lat="37.9245654680" lon="-6.6224264447">
        <ele>756.21</ele>
        <time>2021-05-30T06:56:29Z</time>
      </trkpt>
      <trkpt lat="37.9247173481" lon="-6.6225563642">
        <ele>756.21</ele>
        <time>2021-05-30T06:56:30Z</time>
      </trkpt>
      <trkpt lat="37.9248846509" lon="-6.6226520017">
        <ele>752.37</ele>
        <time>2021-05-30T06:56:31Z</time>
      </trkpt>
      <trkpt lat="37.9250764288" lon="-6.6227221582">
        <ele>752.85</ele>
        <time>2021-05-30T06:56:32Z</time>
      </trkpt>
      <trkpt lat="37.9252787679" lon="-6.6227998585">
        <ele>754.29</ele>
        <time>2021-05-30T06:56:33Z</time>
      </trkpt>
      <trkpt lat="37.9254848789" lon="-6.6229037941">
        <ele>755.25</ele>
        <time>2021-05-30T06:56:34Z</time>
      </trkpt>
      <trkpt lat="37.9256849550" lon="-6.6230342165">
        <ele>754.77</ele>
        <time>2021-05-30T06:56:35Z</time>
      </trkpt>
      <trkpt lat="37.9258753080" lon="-6.6231912933">
        <ele>756.21</ele>
        <time>2021-05-30T06:56:36Z</time>
      </trkpt>
      <trkpt lat="37.9260552675" lon="-6.6233812273">
        <ele>755.73</ele>
        <time>2021-05-30T06:56:37Z</time>
      </trkpt>
      <trkpt lat="37.9262196366" lon="-6.6235868353">
        <ele>754.77</ele>
        <time>2021-05-30T06:56:38Z</time>
      </trkpt>
      <trkpt lat="37.9268056992" lon="-6.6242675297">
        <ele>751.89</ele>
        <time>2021-05-30T06:56:42Z</time>
      </trkpt>
      <trkpt lat="37.9269512091" lon="-6.6243800148">
        <ele>750.93</ele>
        <time>2021-05-30T06:56:43Z</time>
      </trkpt>
      <trkpt lat="37.9270942882" lon="-6.6244634986">
        <ele>750.45</ele>
        <time>2021-05-30T06:56:44Z</time>
      </trkpt>
      <trkpt lat="37.9272408877" lon="-6.6245051567">
        <ele>749.97</ele>
        <time>2021-05-30T06:56:45Z</time>
      </trkpt>
      <trkpt lat="37.9273939412" lon="-6.6244954336">
        <ele>749.00</ele>
        <time>2021-05-30T06:56:46Z</time>
      </trkpt>
      <trkpt lat="37.9275495093" lon="-6.6244408675">
        <ele>748.52</ele>
        <time>2021-05-30T06:56:47Z</time>
      </trkpt>
      <trkpt lat="37.9277071729" lon="-6.6243635863">
        <ele>746.60</ele>
        <time>2021-05-30T06:56:48Z</time>
      </trkpt>
      <trkpt lat="37.9278630763" lon="-6.6243003868">
        <ele>746.60</ele>
        <time>2021-05-30T06:56:49Z</time>
      </trkpt>
      <trkpt lat="37.9280136991" lon="-6.6242814437">
        <ele>743.24</ele>
        <time>2021-05-30T06:56:50Z</time>
      </trkpt>
      <trkpt lat="37.9281599633" lon="-6.6243100259">
        <ele>741.79</ele>
        <time>2021-05-30T06:56:51Z</time>
      </trkpt>
      <trkpt lat="37.9283054732" lon="-6.6243850440">
        <ele>742.28</ele>
        <time>2021-05-30T06:56:52Z</time>
      </trkpt>
      <trkpt lat="37.9284585267" lon="-6.6244982835">
        <ele>741.31</ele>
        <time>2021-05-30T06:56:53Z</time>
      </trkpt>
      <trkpt lat="37.9286183696" lon="-6.6246407758">
        <ele>739.39</ele>
        <time>2021-05-30T06:56:54Z</time>
      </trkpt>
      <trkpt lat="37.9289571662" lon="-6.6249168757">
        <ele>735.55</ele>
        <time>2021-05-30T06:56:56Z</time>
      </trkpt>
      <trkpt lat="37.9292603396" lon="-6.6250850167">
        <ele>730.74</ele>
        <time>2021-05-30T06:56:58Z</time>
      </trkpt>
      <trkpt lat="37.9293922707" lon="-6.6251073964">
        <ele>730.26</ele>
        <time>2021-05-30T06:56:59Z</time>
      </trkpt>
      <trkpt lat="37.9295122158" lon="-6.6250777245">
        <ele>728.34</ele>
        <time>2021-05-30T06:57:00Z</time>
      </trkpt>
      <trkpt lat="37.9296146426" lon="-6.6249891277">
        <ele>727.37</ele>
        <time>2021-05-30T06:57:01Z</time>
      </trkpt>
      <trkpt lat="37.9296991322" lon="-6.6248587053">
        <ele>729.30</ele>
        <time>2021-05-30T06:57:02Z</time>
      </trkpt>
      <trkpt lat="37.9297528602" lon="-6.6247016285">
        <ele>728.34</ele>
        <time>2021-05-30T06:57:03Z</time>
      </trkpt>
      <trkpt lat="37.9297790118" lon="-6.6245228425">
        <ele>727.86</ele>
        <time>2021-05-30T06:57:04Z</time>
      </trkpt>
      <trkpt lat="37.9297929257" lon="-6.6243188269">
        <ele>729.30</ele>
        <time>2021-05-30T06:57:05Z</time>
      </trkpt>
      <trkpt lat="37.9298266210" lon="-6.6232969053">
        <ele>725.93</ele>
        <time>2021-05-30T06:57:10Z</time>
      </trkpt>
      <trkpt lat="37.9298427142" lon="-6.6229402553">
        <ele>722.57</ele>
        <time>2021-05-30T06:57:12Z</time>
      </trkpt>
      <trkpt lat="37.9298868030" lon="-6.6227820888">
        <ele>721.13</ele>
        <time>2021-05-30T06:57:13Z</time>
      </trkpt>
      <trkpt lat="37.9299602285" lon="-6.6226450447">
        <ele>719.68</ele>
        <time>2021-05-30T06:57:14Z</time>
      </trkpt>
      <trkpt lat="37.9300686903" lon="-6.6225349065">
        <ele>719.20</ele>
        <time>2021-05-30T06:57:15Z</time>
      </trkpt>
      <trkpt lat="37.9302027170" lon="-6.6224681865">
        <ele>717.28</ele>
        <time>2021-05-30T06:57:16Z</time>
      </trkpt>
      <trkpt lat="37.9303332232" lon="-6.6224624868">
        <ele>715.84</ele>
        <time>2021-05-30T06:57:17Z</time>
      </trkpt>
      <trkpt lat="37.9304429423" lon="-6.6225184780">
        <ele>713.44</ele>
        <time>2021-05-30T06:57:18Z</time>
      </trkpt>
      <trkpt lat="37.9305284377" lon="-6.6226340644">
        <ele>712.47</ele>
        <time>2021-05-30T06:57:19Z</time>
      </trkpt>
      <trkpt lat="37.9305916373" lon="-6.6228139400">
        <ele>714.40</ele>
        <time>2021-05-30T06:57:20Z</time>
      </trkpt>
      <trkpt lat="37.9306361452" lon="-6.6230374016">
        <ele>715.36</ele>
        <time>2021-05-30T06:57:21Z</time>
      </trkpt>
      <trkpt lat="37.9306738637" lon="-6.6232410818">
        <ele>714.88</ele>
        <time>2021-05-30T06:57:22Z</time>
      </trkpt>
      <trkpt lat="37.9307295196" lon="-6.6235353705">
        <ele>712.95</ele>
        <time>2021-05-30T06:57:23Z</time>
      </trkpt>
      <trkpt lat="37.9308447707" lon="-6.6240148991">
        <ele>709.11</ele>
        <time>2021-05-30T06:57:25Z</time>
      </trkpt>
      <trkpt lat="37.9309886042" lon="-6.6244240198">
        <ele>704.30</ele>
        <time>2021-05-30T06:57:27Z</time>
      </trkpt>
      <trkpt lat="37.9310848285" lon="-6.6245698649">
        <ele>703.34</ele>
        <time>2021-05-30T06:57:28Z</time>
      </trkpt>
      <trkpt lat="37.9311962239" lon="-6.6246885527">
        <ele>700.94</ele>
        <time>2021-05-30T06:57:29Z</time>
      </trkpt>
      <trkpt lat="37.9313170910" lon="-6.6247879621">
        <ele>699.50</ele>
        <time>2021-05-30T06:57:30Z</time>
      </trkpt>
      <trkpt lat="37.9314425681" lon="-6.6248732898">
        <ele>698.05</ele>
        <time>2021-05-30T06:57:31Z</time>
      </trkpt>
      <trkpt lat="37.9316255450" lon="-6.6249970067">
        <ele>696.61</ele>
        <time>2021-05-30T06:57:32Z</time>
      </trkpt>
      <trkpt lat="37.9319353402" lon="-6.6253301036">
        <ele>692.77</ele>
        <time>2021-05-30T06:57:35Z</time>
      </trkpt>
      <trkpt lat="37.9321190715" lon="-6.6257268190">
        <ele>688.44</ele>
        <time>2021-05-30T06:57:37Z</time>
      </trkpt>
      <trkpt lat="37.9322925769" lon="-6.6261264682">
        <ele>684.12</ele>
        <time>2021-05-30T06:57:39Z</time>
      </trkpt>
      <trkpt lat="37.9324777331" lon="-6.6264989600">
        <ele>679.79</ele>
        <time>2021-05-30T06:57:41Z</time>
      </trkpt>
      <trkpt lat="37.9326809105" lon="-6.6268422827">
        <ele>674.98</ele>
        <time>2021-05-30T06:57:43Z</time>
      </trkpt>
      <trkpt lat="37.9329969920" lon="-6.6273047961">
        <ele>670.66</ele>
        <time>2021-05-30T06:57:46Z</time>
      </trkpt>
      <trkpt lat="37.9331088904" lon="-6.6274310276">
        <ele>669.22</ele>
        <time>2021-05-30T06:57:47Z</time>
      </trkpt>
      <trkpt lat="37.9332194477" lon="-6.6275255755">
        <ele>666.33</ele>
        <time>2021-05-30T06:57:48Z</time>
      </trkpt>
      <trkpt lat="37.9333315976" lon="-6.6275774594">
        <ele>665.37</ele>
        <time>2021-05-30T06:57:49Z</time>
      </trkpt>
      <trkpt lat="37.9334519617" lon="-6.6275917087">
        <ele>664.41</ele>
        <time>2021-05-30T06:57:50Z</time>
      </trkpt>
      <trkpt lat="37.9335693922" lon="-6.6275560018">
        <ele>662.97</ele>
        <time>2021-05-30T06:57:51Z</time>
      </trkpt>
      <trkpt lat="37.9336863197" lon="-6.6274612863">
        <ele>662.49</ele>
        <time>2021-05-30T06:57:52Z</time>
      </trkpt>
      <trkpt lat="37.9338017385" lon="-6.6273210570">
        <ele>662.97</ele>
        <time>2021-05-30T06:57:53Z</time>
      </trkpt>
      <trkpt lat="37.9338988848" lon="-6.6271442827">
        <ele>662.49</ele>
        <time>2021-05-30T06:57:54Z</time>
      </trkpt>
      <trkpt lat="37.9339683708" lon="-6.6269631498">
        <ele>660.56</ele>
        <time>2021-05-30T06:57:55Z</time>
      </trkpt>
      <trkpt lat="37.9340256192" lon="-6.6267899796">
        <ele>658.16</ele>
        <time>2021-05-30T06:57:56Z</time>
      </trkpt>
      <trkpt lat="37.9340859689" lon="-6.6266354173">
        <ele>657.68</ele>
        <time>2021-05-30T06:57:57Z</time>
      </trkpt>
      <trkpt lat="37.9341572151" lon="-6.6265116166">
        <ele>654.80</ele>
        <time>2021-05-30T06:57:58Z</time>
      </trkpt>
      <trkpt lat="37.9342396930" lon="-6.6264245287">
        <ele>653.35</ele>
        <time>2021-05-30T06:57:59Z</time>
      </trkpt>
      <trkpt lat="37.9343227576" lon="-6.6263721418">
        <ele>652.39</ele>
        <time>2021-05-30T06:58:00Z</time>
      </trkpt>
      <trkpt lat="37.9343907349" lon="-6.6263474151">
        <ele>650.95</ele>
        <time>2021-05-30T06:58:01Z</time>
      </trkpt>
      <trkpt lat="37.9344521742" lon="-6.6263399553">
        <ele>650.47</ele>
        <time>2021-05-30T06:58:02Z</time>
      </trkpt>
      <trkpt lat="37.9345173016" lon="-6.6263324115">
        <ele>649.99</ele>
        <time>2021-05-30T06:58:03Z</time>
      </trkpt>
      <trkpt lat="37.9345867876" lon="-6.6263139714">
        <ele>649.99</ele>
        <time>2021-05-30T06:58:04Z</time>
      </trkpt>
      <trkpt lat="37.9346537590" lon="-6.6262922622">
        <ele>649.51</ele>
        <time>2021-05-30T06:58:05Z</time>
      </trkpt>
      <trkpt lat="37.9347119294" lon="-6.6262553819">
        <ele>648.55</ele>
        <time>2021-05-30T06:58:06Z</time>
      </trkpt>
      <trkpt lat="37.9347642325" lon="-6.6262020729">
        <ele>649.03</ele>
        <time>2021-05-30T06:58:07Z</time>
      </trkpt>
      <trkpt lat="37.9348124284" lon="-6.6261365265">
        <ele>648.55</ele>
        <time>2021-05-30T06:58:08Z</time>
      </trkpt>
      <trkpt lat="37.9348540865" lon="-6.6260621790">
        <ele>648.07</ele>
        <time>2021-05-30T06:58:09Z</time>
      </trkpt>
      <trkpt lat="37.9348837584" lon="-6.6259871610">
        <ele>648.55</ele>
        <time>2021-05-30T06:58:10Z</time>
      </trkpt>
      <trkpt lat="37.9349082336" lon="-6.6259140708">
        <ele>646.62</ele>
        <time>2021-05-30T06:58:11Z</time>
      </trkpt>
      <trkpt lat="37.9349577706" lon="-6.6258065309">
        <ele>645.66</ele>
        <time>2021-05-30T06:58:13Z</time>
      </trkpt>
      <trkpt lat="37.9349910468" lon="-6.6257723328">
        <ele>645.18</ele>
        <time>2021-05-30T06:58:14Z</time>
      </trkpt>
      <trkpt lat="37.9350342974" lon="-6.6257476900">
        <ele>645.18</ele>
        <time>2021-05-30T06:58:15Z</time>
      </trkpt>
      <trkpt lat="37.9350776318" lon="-6.6257206164">
        <ele>644.70</ele>
        <time>2021-05-30T06:58:16Z</time>
      </trkpt>
      <trkpt lat="37.9351192061" lon="-6.6256846581">
        <ele>644.22</ele>
        <time>2021-05-30T06:58:17Z</time>
      </trkpt>
      <trkpt lat="37.9351651389" lon="-6.6256590933">
        <ele>643.26</ele>
        <time>2021-05-30T06:58:18Z</time>
      </trkpt>
      <trkpt lat="37.9352140892" lon="-6.6256602667">
        <ele>642.30</ele>
        <time>2021-05-30T06:58:19Z</time>
      </trkpt>
      <trkpt lat="37.9352642968" lon="-6.6256756894">
        <ele>642.30</ele>
        <time>2021-05-30T06:58:20Z</time>
      </trkpt>
      <trkpt lat="37.9353244789" lon="-6.6256996617">
        <ele>641.82</ele>
        <time>2021-05-30T06:58:21Z</time>
      </trkpt>
      <trkpt lat="37.9353886843" lon="-6.6257301718">
        <ele>640.86</ele>
        <time>2021-05-30T06:58:22Z</time>
      </trkpt>
      <trkpt lat="37.9356345255" lon="-6.6258709878">
        <ele>637.49</ele>
        <time>2021-05-30T06:58:27Z</time>
      </trkpt>
      <trkpt lat="37.9356775247" lon="-6.6259108018">
        <ele>637.97</ele>
        <time>2021-05-30T06:58:28Z</time>
      </trkpt>
      <trkpt lat="37.9357054364" lon="-6.6259443294">
        <ele>637.49</ele>
        <time>2021-05-30T06:58:29Z</time>
      </trkpt>
      <trkpt lat="37.9357332643" lon="-6.6259869095">
        <ele>637.01</ele>
        <time>2021-05-30T06:58:30Z</time>
      </trkpt>
      <trkpt lat="37.9357611760" lon="-6.6260280646">
        <ele>636.05</ele>
        <time>2021-05-30T06:58:31Z</time>
      </trkpt>
      <trkpt lat="37.9358825460" lon="-6.6261807829">
        <ele>635.57</ele>
        <time>2021-05-30T06:58:34Z</time>
      </trkpt>
      <trkpt lat="37.9359339271" lon="-6.6262580641">
        <ele>635.57</ele>
        <time>2021-05-30T06:58:35Z</time>
      </trkpt>
      <trkpt lat="37.9359715618" lon="-6.6263309866">
        <ele>634.61</ele>
        <time>2021-05-30T06:58:36Z</time>
      </trkpt>
      <trkpt lat="37.9360993020" lon="-6.6265637521">
        <ele>634.13</ele>
        <time>2021-05-30T06:58:40Z</time>
      </trkpt>
      <trkpt lat="37.9361415468" lon="-6.6266134568">
        <ele>633.65</ele>
        <time>2021-05-30T06:58:41Z</time>
      </trkpt>
      <trkpt lat="37.9361878987" lon="-6.6266515106">
        <ele>633.65</ele>
        <time>2021-05-30T06:58:42Z</time>
      </trkpt>
      <trkpt lat="37.9362377711" lon="-6.6266790032">
        <ele>633.65</ele>
        <time>2021-05-30T06:58:43Z</time>
      </trkpt>
      <trkpt lat="37.9362962767" lon="-6.6266999580">
        <ele>633.65</ele>
        <time>2021-05-30T06:58:44Z</time>
      </trkpt>
      <trkpt lat="37.9363589734" lon="-6.6267116927">
        <ele>633.65</ele>
        <time>2021-05-30T06:58:45Z</time>
      </trkpt>
      <trkpt lat="37.9364241008" lon="-6.6267171409">
        <ele>632.68</ele>
        <time>2021-05-30T06:58:46Z</time>
      </trkpt>
      <trkpt lat="37.9369151127" lon="-6.6268404387">
        <ele>629.80</ele>
        <time>2021-05-30T06:58:54Z</time>
      </trkpt>
      <trkpt lat="37.9370327946" lon="-6.6268520057">
        <ele>629.32</ele>
        <time>2021-05-30T06:58:56Z</time>
      </trkpt>
      <trkpt lat="37.9370954074" lon="-6.6268443782">
        <ele>628.36</ele>
        <time>2021-05-30T06:58:57Z</time>
      </trkpt>
      <trkpt lat="37.9371602833" lon="-6.6268237587">
        <ele>628.36</ele>
        <time>2021-05-30T06:58:58Z</time>
      </trkpt>
      <trkpt lat="37.9372271709" lon="-6.6267867945">
        <ele>627.88</ele>
        <time>2021-05-30T06:58:59Z</time>
      </trkpt>
      <trkpt lat="37.9372949805" lon="-6.6267371736">
        <ele>627.88</ele>
        <time>2021-05-30T06:59:00Z</time>
      </trkpt>
      <trkpt lat="37.9373588506" lon="-6.6266777460">
        <ele>627.88</ele>
        <time>2021-05-30T06:59:01Z</time>
      </trkpt>
      <trkpt lat="37.9374264088" lon="-6.6266080085">
        <ele>627.40</ele>
        <time>2021-05-30T06:59:02Z</time>
      </trkpt>
      <trkpt lat="37.9374772869" lon="-6.6265391931">
        <ele>627.40</ele>
        <time>2021-05-30T06:59:03Z</time>
      </trkpt>
      <trkpt lat="37.9375080485" lon="-6.6264679469">
        <ele>626.92</ele>
        <time>2021-05-30T06:59:04Z</time>
      </trkpt>
      <trkpt lat="37.9375285842" lon="-6.6263956111">
        <ele>627.40</ele>
        <time>2021-05-30T06:59:05Z</time>
      </trkpt>
      <trkpt lat="37.9375405703" lon="-6.6263209283">
        <ele>626.44</ele>
        <time>2021-05-30T06:59:06Z</time>
      </trkpt>
      <trkpt lat="37.9375466052" lon="-6.6262516938">
        <ele>625.96</ele>
        <time>2021-05-30T06:59:07Z</time>
      </trkpt>
      <trkpt lat="37.9375505447" lon="-6.6261889972">
        <ele>625.96</ele>
        <time>2021-05-30T06:59:08Z</time>
      </trkpt>
      <trkpt lat="37.9375595972" lon="-6.6260683816">
        <ele>625.47</ele>
        <time>2021-05-30T06:59:10Z</time>
      </trkpt>
      <trkpt lat="37.9375613574" lon="-6.6260079481">
        <ele>624.99</ele>
        <time>2021-05-30T06:59:11Z</time>
      </trkpt>
      <trkpt lat="37.9375632014" lon="-6.6259432398">
        <ele>624.51</ele>
        <time>2021-05-30T06:59:12Z</time>
      </trkpt>
      <trkpt lat="37.9375674762" lon="-6.6258688923">
        <ele>624.51</ele>
        <time>2021-05-30T06:59:13Z</time>
      </trkpt>
      <trkpt lat="37.9375653807" lon="-6.6257891804">
        <ele>624.03</ele>
        <time>2021-05-30T06:59:14Z</time>
      </trkpt>
      <trkpt lat="37.9375532269" lon="-6.6257074568">
        <ele>624.03</ele>
        <time>2021-05-30T06:59:15Z</time>
      </trkpt>
      <trkpt lat="37.9375306796" lon="-6.6256221291">
        <ele>623.55</ele>
        <time>2021-05-30T06:59:16Z</time>
      </trkpt>
      <trkpt lat="37.9375019297" lon="-6.6255350411">
        <ele>622.59</ele>
        <time>2021-05-30T06:59:17Z</time>
      </trkpt>
      <trkpt lat="37.9374706652" lon="-6.6254477017">
        <ele>622.59</ele>
        <time>2021-05-30T06:59:18Z</time>
      </trkpt>
      <trkpt lat="37.9373451881" lon="-6.6250971705">
        <ele>619.71</ele>
        <time>2021-05-30T06:59:22Z</time>
      </trkpt>
      <trkpt lat="37.9373256583" lon="-6.6250024550">
        <ele>618.75</ele>
        <time>2021-05-30T06:59:23Z</time>
      </trkpt>
      <trkpt lat="37.9373194557" lon="-6.6249022912">
        <ele>618.75</ele>
        <time>2021-05-30T06:59:24Z</time>
      </trkpt>
      <trkpt lat="37.9373283405" lon="-6.6248036362">
        <ele>618.26</ele>
        <time>2021-05-30T06:59:25Z</time>
      </trkpt>
      <trkpt lat="37.9373495467" lon="-6.6247135308">
        <ele>618.26</ele>
        <time>2021-05-30T06:59:26Z</time>
      </trkpt>
      <trkpt lat="37.9373767879" lon="-6.6246274486">
        <ele>618.26</ele>
        <time>2021-05-30T06:59:27Z</time>
      </trkpt>
      <trkpt lat="37.9374111537" lon="-6.6245419532">
        <ele>618.26</ele>
        <time>2021-05-30T06:59:28Z</time>
      </trkpt>
      <trkpt lat="37.9374492913" lon="-6.6244570445">
        <ele>617.78</ele>
        <time>2021-05-30T06:59:29Z</time>
      </trkpt>
      <trkpt lat="37.9375476949" lon="-6.6242411267">
        <ele>616.82</ele>
        <time>2021-05-30T06:59:32Z</time>
      </trkpt>
      <trkpt lat="37.9375762772" lon="-6.6241916735">
        <ele>616.82</ele>
        <time>2021-05-30T06:59:33Z</time>
      </trkpt>
      <trkpt lat="37.9376043566" lon="-6.6241506860">
        <ele>616.82</ele>
        <time>2021-05-30T06:59:34Z</time>
      </trkpt>
      <trkpt lat="37.9378115572" lon="-6.6239957884">
        <ele>616.82</ele>
        <time>2021-05-30T06:59:43Z</time>
      </trkpt>
      <trkpt lat="37.9378330987" lon="-6.6240123007">
        <ele>616.82</ele>
        <time>2021-05-30T06:59:44Z</time>
      </trkpt>
      <trkpt lat="37.9378717393" lon="-6.6240951139">
        <ele>616.82</ele>
        <time>2021-05-30T06:59:46Z</time>
      </trkpt>
      <trkpt lat="37.9379332624" lon="-6.6242490057">
        <ele>615.38</ele>
        <time>2021-05-30T06:59:48Z</time>
      </trkpt>
      <trkpt lat="37.9379841406" lon="-6.6243288014">
        <ele>615.38</ele>
        <time>2021-05-30T06:59:49Z</time>
      </trkpt>
      <trkpt lat="37.9380547162" lon="-6.6243906599">
        <ele>614.42</ele>
        <time>2021-05-30T06:59:50Z</time>
      </trkpt>
      <trkpt lat="37.9381333385" lon="-6.6244338267">
        <ele>613.46</ele>
        <time>2021-05-30T06:59:51Z</time>
      </trkpt>
      <trkpt lat="37.9382057581" lon="-6.6244619898">
        <ele>612.98</ele>
        <time>2021-05-30T06:59:52Z</time>
      </trkpt>
      <trkpt lat="37.9382754955" lon="-6.6244729701">
        <ele>611.06</ele>
        <time>2021-05-30T06:59:53Z</time>
      </trkpt>
      <trkpt lat="37.9383519385" lon="-6.6244564578">
        <ele>609.61</ele>
        <time>2021-05-30T06:59:54Z</time>
      </trkpt>
      <trkpt lat="37.9385324009" lon="-6.6243406199">
        <ele>608.17</ele>
        <time>2021-05-30T06:59:55Z</time>
      </trkpt>
      <trkpt lat="37.9386284575" lon="-6.6242306493">
        <ele>608.17</ele>
        <time>2021-05-30T06:59:56Z</time>
      </trkpt>
      <trkpt lat="37.9386802576" lon="-6.6241189186">
        <ele>607.69</ele>
        <time>2021-05-30T06:59:57Z</time>
      </trkpt>
      <trkpt lat="37.9387016315" lon="-6.6239900887">
        <ele>607.21</ele>
        <time>2021-05-30T06:59:58Z</time>
      </trkpt>
      <trkpt lat="37.9387175571" lon="-6.6238543019">
        <ele>606.25</ele>
        <time>2021-05-30T06:59:59Z</time>
      </trkpt>
      <trkpt lat="37.9387391824" lon="-6.6237341054">
        <ele>604.33</ele>
        <time>2021-05-30T07:00:00Z</time>
      </trkpt>
      <trkpt lat="37.9387911502" lon="-6.6236208659">
        <ele>603.85</ele>
        <time>2021-05-30T07:00:01Z</time>
      </trkpt>
      <trkpt lat="37.9388681799" lon="-6.6235124040">
        <ele>604.33</ele>
        <time>2021-05-30T07:00:02Z</time>
      </trkpt>
      <trkpt lat="37.9389716964" lon="-6.6234072112">
        <ele>603.36</ele>
        <time>2021-05-30T07:00:03Z</time>
      </trkpt>
      <trkpt lat="37.9390888754" lon="-6.6233039461">
        <ele>603.36</ele>
        <time>2021-05-30T07:00:04Z</time>
      </trkpt>
      <trkpt lat="37.9393121693" lon="-6.6231146827">
        <ele>599.52</ele>
        <time>2021-05-30T07:00:06Z</time>
      </trkpt>
      <trkpt lat="37.9395038635" lon="-6.6229432728">
        <ele>597.12</ele>
        <time>2021-05-30T07:00:08Z</time>
      </trkpt>
      <trkpt lat="37.9395714216" lon="-6.6228378285">
        <ele>594.71</ele>
        <time>2021-05-30T07:00:09Z</time>
      </trkpt>
      <trkpt lat="37.9396045301" lon="-6.6227087472">
        <ele>594.23</ele>
        <time>2021-05-30T07:00:10Z</time>
      </trkpt>
      <trkpt lat="37.9396039434" lon="-6.6225618962">
        <ele>593.27</ele>
        <time>2021-05-30T07:00:11Z</time>
      </trkpt>
      <trkpt lat="37.9395829886" lon="-6.6224106867">
        <ele>592.79</ele>
        <time>2021-05-30T07:00:12Z</time>
      </trkpt>
      <trkpt lat="37.9395674821" lon="-6.6222748999">
        <ele>591.83</ele>
        <time>2021-05-30T07:00:13Z</time>
      </trkpt>
      <trkpt lat="37.9395735171" lon="-6.6221614089">
        <ele>589.91</ele>
        <time>2021-05-30T07:00:14Z</time>
      </trkpt>
      <trkpt lat="37.9396141693" lon="-6.6220679507">
        <ele>588.46</ele>
        <time>2021-05-30T07:00:15Z</time>
      </trkpt>
      <trkpt lat="37.9396897741" lon="-6.6219894961">
        <ele>587.02</ele>
        <time>2021-05-30T07:00:16Z</time>
      </trkpt>
      <trkpt lat="37.9397906084" lon="-6.6219151486">
        <ele>588.95</ele>
        <time>2021-05-30T07:00:17Z</time>
      </trkpt>
      <trkpt lat="37.9399029259" lon="-6.6218419746">
        <ele>588.46</ele>
        <time>2021-05-30T07:00:18Z</time>
      </trkpt>
      <trkpt lat="37.9400194343" lon="-6.6217803676">
        <ele>586.54</ele>
        <time>2021-05-30T07:00:19Z</time>
      </trkpt>
      <trkpt lat="37.9401337635" lon="-6.6217449959">
        <ele>584.62</ele>
        <time>2021-05-30T07:00:20Z</time>
      </trkpt>
      <trkpt lat="37.9402301554" lon="-6.6217423975">
        <ele>584.14</ele>
        <time>2021-05-30T07:00:21Z</time>
      </trkpt>
      <trkpt lat="37.9403090291" lon="-6.6217765119">
        <ele>582.70</ele>
        <time>2021-05-30T07:00:22Z</time>
      </trkpt>
      <trkpt lat="37.9403943568" lon="-6.6218422260">
        <ele>582.22</ele>
        <time>2021-05-30T07:00:23Z</time>
      </trkpt>
      <trkpt lat="37.9404941853" lon="-6.6218960378">
        <ele>580.77</ele>
        <time>2021-05-30T07:00:24Z</time>
      </trkpt>
      <trkpt lat="37.9405958578" lon="-6.6218993068">
        <ele>580.29</ele>
        <time>2021-05-30T07:00:25Z</time>
      </trkpt>
      <trkpt lat="37.9406968597" lon="-6.6218547989">
        <ele>579.81</ele>
        <time>2021-05-30T07:00:26Z</time>
      </trkpt>
      <trkpt lat="37.9408924095" lon="-6.6217418946">
        <ele>577.41</ele>
        <time>2021-05-30T07:00:28Z</time>
      </trkpt>
      <trkpt lat="37.9409857001" lon="-6.6217275616">
        <ele>575.49</ele>
        <time>2021-05-30T07:00:29Z</time>
      </trkpt>
      <trkpt lat="37.9410836007" lon="-6.6217502765">
        <ele>575.97</ele>
        <time>2021-05-30T07:00:30Z</time>
      </trkpt>
      <trkpt lat="37.9411966726" lon="-6.6218178347">
        <ele>576.93</ele>
        <time>2021-05-30T07:00:31Z</time>
      </trkpt>
      <trkpt lat="37.9413173720" lon="-6.6219169926">
        <ele>576.93</ele>
        <time>2021-05-30T07:00:32Z</time>
      </trkpt>
      <trkpt lat="37.9414398316" lon="-6.6220378596">
        <ele>575.97</ele>
        <time>2021-05-30T07:00:33Z</time>
      </trkpt>
      <trkpt lat="37.9418047797" lon="-6.6223825235">
        <ele>571.16</ele>
        <time>2021-05-30T07:00:36Z</time>
      </trkpt>
      <trkpt lat="37.9419390578" lon="-6.6224584635">
        <ele>569.72</ele>
        <time>2021-05-30T07:00:37Z</time>
      </trkpt>
      <trkpt lat="37.9420720786" lon="-6.6225008760">
        <ele>568.28</ele>
        <time>2021-05-30T07:00:38Z</time>
      </trkpt>
      <trkpt lat="37.9422901757" lon="-6.6225514188">
        <ele>563.95</ele>
        <time>2021-05-30T07:00:40Z</time>
      </trkpt>
      <trkpt lat="37.9423786886" lon="-6.6226124391">
        <ele>562.99</ele>
        <time>2021-05-30T07:00:41Z</time>
      </trkpt>
      <trkpt lat="37.9424495995" lon="-6.6227087472">
        <ele>562.51</ele>
        <time>2021-05-30T07:00:42Z</time>
      </trkpt>
      <trkpt lat="37.9426058382" lon="-6.6229376569">
        <ele>561.07</ele>
        <time>2021-05-30T07:00:44Z</time>
      </trkpt>
      <trkpt lat="37.9427090194" lon="-6.6230309475">
        <ele>560.59</ele>
        <time>2021-05-30T07:00:45Z</time>
      </trkpt>
      <trkpt lat="37.9428335745" lon="-6.6230944823">
        <ele>561.55</ele>
        <time>2021-05-30T07:00:46Z</time>
      </trkpt>
      <trkpt lat="37.9429777432" lon="-6.6231314465">
        <ele>559.62</ele>
        <time>2021-05-30T07:00:47Z</time>
      </trkpt>
      <trkpt lat="37.9431339819" lon="-6.6231579334">
        <ele>560.11</ele>
        <time>2021-05-30T07:00:48Z</time>
      </trkpt>
      <trkpt lat="37.9434409272" lon="-6.6231867671">
        <ele>557.22</ele>
        <time>2021-05-30T07:00:50Z</time>
      </trkpt>
      <trkpt lat="37.9435830843" lon="-6.6231726855">
        <ele>554.82</ele>
        <time>2021-05-30T07:00:51Z</time>
      </trkpt>
      <trkpt lat="37.9438330326" lon="-6.6231213044">
        <ele>550.97</ele>
        <time>2021-05-30T07:00:53Z</time>
      </trkpt>
      <trkpt lat="37.9439368006" lon="-6.6231185384">
        <ele>550.01</ele>
        <time>2021-05-30T07:00:54Z</time>
      </trkpt>
      <trkpt lat="37.9440242238" lon="-6.6231394093">
        <ele>548.57</ele>
        <time>2021-05-30T07:00:55Z</time>
      </trkpt>
      <trkpt lat="37.9440985713" lon="-6.6231806483">
        <ele>546.65</ele>
        <time>2021-05-30T07:00:56Z</time>
      </trkpt>
      <trkpt lat="37.9441544786" lon="-6.6232408304">
        <ele>545.69</ele>
        <time>2021-05-30T07:00:57Z</time>
      </trkpt>
      <trkpt lat="37.9441962205" lon="-6.6233124118">
        <ele>545.20</ele>
        <time>2021-05-30T07:00:58Z</time>
      </trkpt>
      <trkpt lat="37.9442350287" lon="-6.6233907826">
        <ele>544.72</ele>
        <time>2021-05-30T07:00:59Z</time>
      </trkpt>
      <trkpt lat="37.9442737531" lon="-6.6234779544">
        <ele>544.24</ele>
        <time>2021-05-30T07:01:00Z</time>
      </trkpt>
      <trkpt lat="37.9443090409" lon="-6.6235833988">
        <ele>543.76</ele>
        <time>2021-05-30T07:01:01Z</time>
      </trkpt>
      <trkpt lat="37.9443359468" lon="-6.6237081215">
        <ele>543.76</ele>
        <time>2021-05-30T07:01:02Z</time>
      </trkpt>
      <trkpt lat="37.9443417303" lon="-6.6238484345">
        <ele>543.28</ele>
        <time>2021-05-30T07:01:03Z</time>
      </trkpt>
      <trkpt lat="37.9443271458" lon="-6.6239848081">
        <ele>542.32</ele>
        <time>2021-05-30T07:01:04Z</time>
      </trkpt>
      <trkpt lat="37.9442973062" lon="-6.6241077706">
        <ele>541.84</ele>
        <time>2021-05-30T07:01:05Z</time>
      </trkpt>
      <trkpt lat="37.9442452546" lon="-6.6242195852">
        <ele>541.84</ele>
        <time>2021-05-30T07:01:06Z</time>
      </trkpt>
      <trkpt lat="37.9441710748" lon="-6.6243327409">
        <ele>541.84</ele>
        <time>2021-05-30T07:01:07Z</time>
      </trkpt>
      <trkpt lat="37.9439665563" lon="-6.6245883889">
        <ele>539.44</ele>
        <time>2021-05-30T07:01:09Z</time>
      </trkpt>
      <trkpt lat="37.9438421689" lon="-6.6247083340">
        <ele>539.44</ele>
        <time>2021-05-30T07:01:10Z</time>
      </trkpt>
      <trkpt lat="37.9433094990" lon="-6.6251137666">
        <ele>534.15</ele>
        <time>2021-05-30T07:01:14Z</time>
      </trkpt>
      <trkpt lat="37.9430727102" lon="-6.6252834164">
        <ele>531.27</ele>
        <time>2021-05-30T07:01:16Z</time>
      </trkpt>
      <trkpt lat="37.9428712931" lon="-6.6254599392">
        <ele>528.38</ele>
        <time>2021-05-30T07:01:18Z</time>
      </trkpt>
      <trkpt lat="37.9427967779" lon="-6.6255683172">
        <ele>527.90</ele>
        <time>2021-05-30T07:01:19Z</time>
      </trkpt>
      <trkpt lat="37.9427370150" lon="-6.6256839875">
        <ele>526.46</ele>
        <time>2021-05-30T07:01:20Z</time>
      </trkpt>
      <trkpt lat="37.9426827841" lon="-6.6258004960">
        <ele>525.98</ele>
        <time>2021-05-30T07:01:21Z</time>
      </trkpt>
      <trkpt lat="37.9426381923" lon="-6.6259190161">
        <ele>525.02</ele>
        <time>2021-05-30T07:01:22Z</time>
      </trkpt>
      <trkpt lat="37.9426168185" lon="-6.6260377038">
        <ele>524.06</ele>
        <time>2021-05-30T07:01:23Z</time>
      </trkpt>
      <trkpt lat="37.9426177405" lon="-6.6261480097">
        <ele>523.09</ele>
        <time>2021-05-30T07:01:24Z</time>
      </trkpt>
      <trkpt lat="37.9426401202" lon="-6.6262311582">
        <ele>522.61</ele>
        <time>2021-05-30T07:01:25Z</time>
      </trkpt>
      <trkpt lat="37.9426924232" lon="-6.6262737382">
        <ele>521.65</ele>
        <time>2021-05-30T07:01:26Z</time>
      </trkpt>
      <trkpt lat="37.9427467380" lon="-6.6262913402">
        <ele>522.61</ele>
        <time>2021-05-30T07:01:27Z</time>
      </trkpt>
      <trkpt lat="37.9427981190" lon="-6.6262878198">
        <ele>524.54</ele>
        <time>2021-05-30T07:01:28Z</time>
      </trkpt>
      <trkpt lat="37.9428638332" lon="-6.6262607463">
        <ele>525.02</ele>
        <time>2021-05-30T07:01:29Z</time>
      </trkpt>
      <trkpt lat="37.9429454729" lon="-6.6262126341">
        <ele>525.02</ele>
        <time>2021-05-30T07:01:30Z</time>
      </trkpt>
      <trkpt lat="37.9432132747" lon="-6.6260446608">
        <ele>524.54</ele>
        <time>2021-05-30T07:01:32Z</time>
      </trkpt>
      <trkpt lat="37.9433259275" lon="-6.6260202695">
        <ele>523.58</ele>
        <time>2021-05-30T07:01:33Z</time>
      </trkpt>
      <trkpt lat="37.9434255883" lon="-6.6260405537">
        <ele>523.58</ele>
        <time>2021-05-30T07:01:34Z</time>
      </trkpt>
      <trkpt lat="37.9435159452" lon="-6.6261109617">
        <ele>524.54</ele>
        <time>2021-05-30T07:01:35Z</time>
      </trkpt>
      <trkpt lat="37.9435880296" lon="-6.6262194235">
        <ele>524.54</ele>
        <time>2021-05-30T07:01:36Z</time>
      </trkpt>
      <trkpt lat="37.9436554201" lon="-6.6263284720">
        <ele>523.58</ele>
        <time>2021-05-30T07:01:37Z</time>
      </trkpt>
      <trkpt lat="37.9437408317" lon="-6.6264128778">
        <ele>523.58</ele>
        <time>2021-05-30T07:01:38Z</time>
      </trkpt>
      <trkpt lat="37.9438623693" lon="-6.6264744848">
        <ele>525.02</ele>
        <time>2021-05-30T07:01:39Z</time>
      </trkpt>
      <trkpt lat="37.9439977370" lon="-6.6265258659">
        <ele>525.50</ele>
        <time>2021-05-30T07:01:40Z</time>
      </trkpt>
      <trkpt lat="37.9443950392" lon="-6.6266470682">
        <ele>523.09</ele>
        <time>2021-05-30T07:01:43Z</time>
      </trkpt>
      <trkpt lat="37.9445044231" lon="-6.6266242694">
        <ele>522.13</ele>
        <time>2021-05-30T07:01:44Z</time>
      </trkpt>
      <trkpt lat="37.9446124658" lon="-6.6265623271">
        <ele>522.61</ele>
        <time>2021-05-30T07:01:45Z</time>
      </trkpt>
      <trkpt lat="37.9447261244" lon="-6.6264949366">
        <ele>522.13</ele>
        <time>2021-05-30T07:01:46Z</time>
      </trkpt>
      <trkpt lat="37.9448535293" lon="-6.6264419630">
        <ele>521.65</ele>
        <time>2021-05-30T07:01:47Z</time>
      </trkpt>
      <trkpt lat="37.9449816048" lon="-6.6264086869">
        <ele>521.65</ele>
        <time>2021-05-30T07:01:48Z</time>
      </trkpt>
      <trkpt lat="37.9450950120" lon="-6.6263923422">
        <ele>520.69</ele>
        <time>2021-05-30T07:01:49Z</time>
      </trkpt>
      <trkpt lat="37.9451894760" lon="-6.6264046635">
        <ele>518.29</ele>
        <time>2021-05-30T07:01:50Z</time>
      </trkpt>
      <trkpt lat="37.9452680144" lon="-6.6264650971">
        <ele>517.81</ele>
        <time>2021-05-30T07:01:51Z</time>
      </trkpt>
      <trkpt lat="37.9453281127" lon="-6.6265774146">
        <ele>517.33</ele>
        <time>2021-05-30T07:01:52Z</time>
      </trkpt>
      <trkpt lat="37.9453776497" lon="-6.6267263610">
        <ele>517.81</ele>
        <time>2021-05-30T07:01:53Z</time>
      </trkpt>
      <trkpt lat="37.9454212356" lon="-6.6268972680">
        <ele>516.85</ele>
        <time>2021-05-30T07:01:54Z</time>
      </trkpt>
      <trkpt lat="37.9454566911" lon="-6.6270716116">
        <ele>516.85</ele>
        <time>2021-05-30T07:01:55Z</time>
      </trkpt>
      <trkpt lat="37.9454814177" lon="-6.6272387467">
        <ele>514.92</ele>
        <time>2021-05-30T07:01:56Z</time>
      </trkpt>
      <trkpt lat="37.9454895481" lon="-6.6274045408">
        <ele>513.96</ele>
        <time>2021-05-30T07:01:57Z</time>
      </trkpt>
      <trkpt lat="37.9454728682" lon="-6.6275684908">
        <ele>512.52</ele>
        <time>2021-05-30T07:01:58Z</time>
      </trkpt>
      <trkpt lat="37.9454314616" lon="-6.6277311835">
        <ele>511.56</ele>
        <time>2021-05-30T07:01:59Z</time>
      </trkpt>
      <trkpt lat="37.9453812540" lon="-6.6278845724">
        <ele>510.12</ele>
        <time>2021-05-30T07:02:00Z</time>
      </trkpt>
      <trkpt lat="37.9453112651" lon="-6.6281523742">
        <ele>507.23</ele>
        <time>2021-05-30T07:02:02Z</time>
      </trkpt>
      <trkpt lat="37.9453166295" lon="-6.6282649431">
        <ele>505.31</ele>
        <time>2021-05-30T07:02:03Z</time>
      </trkpt>
      <trkpt lat="37.9453377519" lon="-6.6283573955">
        <ele>504.35</ele>
        <time>2021-05-30T07:02:04Z</time>
      </trkpt>
      <trkpt lat="37.9453787394" lon="-6.6284103692">
        <ele>503.87</ele>
        <time>2021-05-30T07:02:05Z</time>
      </trkpt>
      <trkpt lat="37.9454476386" lon="-6.6284143925">
        <ele>503.39</ele>
        <time>2021-05-30T07:02:06Z</time>
      </trkpt>
      <trkpt lat="37.9455304518" lon="-6.6283785179">
        <ele>503.39</ele>
        <time>2021-05-30T07:02:07Z</time>
      </trkpt>
      <trkpt lat="37.9456317052" lon="-6.6283181682">
        <ele>503.87</ele>
        <time>2021-05-30T07:02:08Z</time>
      </trkpt>
      <trkpt lat="37.9457672406" lon="-6.6282543819">
        <ele>504.35</ele>
        <time>2021-05-30T07:02:09Z</time>
      </trkpt>
      <trkpt lat="37.9459175281" lon="-6.6281941161">
        <ele>503.39</ele>
        <time>2021-05-30T07:02:10Z</time>
      </trkpt>
      <trkpt lat="37.9460623674" lon="-6.6281218641">
        <ele>501.95</ele>
        <time>2021-05-30T07:02:11Z</time>
      </trkpt>
      <trkpt lat="37.9461997468" lon="-6.6280285735">
        <ele>500.50</ele>
        <time>2021-05-30T07:02:12Z</time>
      </trkpt>
      <trkpt lat="37.9463282414" lon="-6.6279016715">
        <ele>499.54</ele>
        <time>2021-05-30T07:02:13Z</time>
      </trkpt>
      <trkpt lat="37.9464491084" lon="-6.6277583409">
        <ele>499.06</ele>
        <time>2021-05-30T07:02:14Z</time>
      </trkpt>
      <trkpt lat="37.9465610068" lon="-6.6276113223">
        <ele>497.14</ele>
        <time>2021-05-30T07:02:15Z</time>
      </trkpt>
      <trkpt lat="37.9466575664" lon="-6.6274607833">
        <ele>495.22</ele>
        <time>2021-05-30T07:02:16Z</time>
      </trkpt>
      <trkpt lat="37.9468304850" lon="-6.6271828394">
        <ele>491.85</ele>
        <time>2021-05-30T07:02:18Z</time>
      </trkpt>
      <trkpt lat="37.9469194170" lon="-6.6270819213">
        <ele>490.41</ele>
        <time>2021-05-30T07:02:19Z</time>
      </trkpt>
      <trkpt lat="37.9470253643" lon="-6.6270123515">
        <ele>488.49</ele>
        <time>2021-05-30T07:02:20Z</time>
      </trkpt>
      <trkpt lat="37.9471421242" lon="-6.6269775666">
        <ele>488.01</ele>
        <time>2021-05-30T07:02:21Z</time>
      </trkpt>
      <trkpt lat="37.9472561181" lon="-6.6269716993">
        <ele>487.05</ele>
        <time>2021-05-30T07:02:22Z</time>
      </trkpt>
      <trkpt lat="37.9473606404" lon="-6.6270016227">
        <ele>485.12</ele>
        <time>2021-05-30T07:02:23Z</time>
      </trkpt>
      <trkpt lat="37.9474494047" lon="-6.6270804964">
        <ele>484.16</ele>
        <time>2021-05-30T07:02:24Z</time>
      </trkpt>
      <trkpt lat="37.9475219920" lon="-6.6272004414">
        <ele>484.16</ele>
        <time>2021-05-30T07:02:25Z</time>
      </trkpt>
      <trkpt lat="37.9475892149" lon="-6.6273473762">
        <ele>484.16</ele>
        <time>2021-05-30T07:02:26Z</time>
      </trkpt>
      <trkpt lat="37.9476720281" lon="-6.6275013518">
        <ele>483.68</ele>
        <time>2021-05-30T07:02:27Z</time>
      </trkpt>
      <trkpt lat="37.9477778077" lon="-6.6276424192">
        <ele>483.20</ele>
        <time>2021-05-30T07:02:28Z</time>
      </trkpt>
      <trkpt lat="37.9483015090" lon="-6.6281939484">
        <ele>480.32</ele>
        <time>2021-05-30T07:02:32Z</time>
      </trkpt>
      <trkpt lat="37.9484202806" lon="-6.6283359379">
        <ele>478.39</ele>
        <time>2021-05-30T07:02:33Z</time>
      </trkpt>
      <trkpt lat="37.9485199414" lon="-6.6284967028">
        <ele>476.95</ele>
        <time>2021-05-30T07:02:34Z</time>
      </trkpt>
      <trkpt lat="37.9486085381" lon="-6.6286745667">
        <ele>475.99</ele>
        <time>2021-05-30T07:02:35Z</time>
      </trkpt>
      <trkpt lat="37.9488460813" lon="-6.6292633116">
        <ele>471.66</ele>
        <time>2021-05-30T07:02:38Z</time>
      </trkpt>
      <trkpt lat="37.9489882383" lon="-6.6296467837">
        <ele>468.78</ele>
        <time>2021-05-30T07:02:40Z</time>
      </trkpt>
      <trkpt lat="37.9491209239" lon="-6.6300116479">
        <ele>464.93</ele>
        <time>2021-05-30T07:02:42Z</time>
      </trkpt>
      <trkpt lat="37.9492174834" lon="-6.6303818766">
        <ele>461.09</ele>
        <time>2021-05-30T07:02:44Z</time>
      </trkpt>
      <trkpt lat="37.9492441379" lon="-6.6305589862">
        <ele>459.17</ele>
        <time>2021-05-30T07:02:45Z</time>
      </trkpt>
      <trkpt lat="37.9492813535" lon="-6.6308724694">
        <ele>456.28</ele>
        <time>2021-05-30T07:02:47Z</time>
      </trkpt>
      <trkpt lat="37.9492933396" lon="-6.6309887264">
        <ele>454.36</ele>
        <time>2021-05-30T07:02:48Z</time>
      </trkpt>
      <trkpt lat="37.9493133724" lon="-6.6310684383">
        <ele>452.44</ele>
        <time>2021-05-30T07:02:49Z</time>
      </trkpt>
      <trkpt lat="37.9493463133" lon="-6.6311119404">
        <ele>451.96</ele>
        <time>2021-05-30T07:02:50Z</time>
      </trkpt>
      <trkpt lat="37.9493935034" lon="-6.6311308835">
        <ele>451.48</ele>
        <time>2021-05-30T07:02:51Z</time>
      </trkpt>
      <trkpt lat="37.9494465608" lon="-6.6311234236">
        <ele>451.96</ele>
        <time>2021-05-30T07:02:52Z</time>
      </trkpt>
      <trkpt lat="37.9495010432" lon="-6.6310775746">
        <ele>452.92</ele>
        <time>2021-05-30T07:02:53Z</time>
      </trkpt>
      <trkpt lat="37.9495437071" lon="-6.6310007125">
        <ele>453.40</ele>
        <time>2021-05-30T07:02:54Z</time>
      </trkpt>
      <trkpt lat="37.9495535977" lon="-6.6308919992">
        <ele>454.36</ele>
        <time>2021-05-30T07:02:55Z</time>
      </trkpt>
      <trkpt lat="37.9495459702" lon="-6.6307640914">
        <ele>455.32</ele>
        <time>2021-05-30T07:02:56Z</time>
      </trkpt>
      <trkpt lat="37.9495396838" lon="-6.6306237783">
        <ele>455.80</ele>
        <time>2021-05-30T07:02:57Z</time>
      </trkpt>
      <trkpt lat="37.9495427012" lon="-6.6302894242">
        <ele>459.17</ele>
        <time>2021-05-30T07:02:59Z</time>
      </trkpt>
      <trkpt lat="37.9495278653" lon="-6.6299227998">
        <ele>461.57</ele>
        <time>2021-05-30T07:03:01Z</time>
      </trkpt>
      <trkpt lat="37.9494980257" lon="-6.6297249869">
        <ele>463.01</ele>
        <time>2021-05-30T07:03:02Z</time>
      </trkpt>
      <trkpt lat="37.9493815172" lon="-6.6291022953">
        <ele>464.93</ele>
        <time>2021-05-30T07:03:05Z</time>
      </trkpt>
      <trkpt lat="37.9493385181" lon="-6.6287557036">
        <ele>463.49</ele>
        <time>2021-05-30T07:03:07Z</time>
      </trkpt>
      <trkpt lat="37.9493424576" lon="-6.6286163963">
        <ele>463.01</ele>
        <time>2021-05-30T07:03:08Z</time>
      </trkpt>
      <trkpt lat="37.9493738059" lon="-6.6285025701">
        <ele>462.53</ele>
        <time>2021-05-30T07:03:09Z</time>
      </trkpt>
      <trkpt lat="37.9494358320" lon="-6.6284096148">
        <ele>462.05</ele>
        <time>2021-05-30T07:03:10Z</time>
      </trkpt>
      <trkpt lat="37.9495325591" lon="-6.6283280589">
        <ele>463.01</ele>
        <time>2021-05-30T07:03:11Z</time>
      </trkpt>
      <trkpt lat="37.9496593773" lon="-6.6282487661">
        <ele>463.49</ele>
        <time>2021-05-30T07:03:12Z</time>
      </trkpt>
      <trkpt lat="37.9497903027" lon="-6.6281546373">
        <ele>464.45</ele>
        <time>2021-05-30T07:03:13Z</time>
      </trkpt>
      <trkpt lat="37.9499088228" lon="-6.6280372068">
        <ele>463.97</ele>
        <time>2021-05-30T07:03:14Z</time>
      </trkpt>
      <trkpt lat="37.9500097409" lon="-6.6279000789">
        <ele>463.01</ele>
        <time>2021-05-30T07:03:15Z</time>
      </trkpt>
      <trkpt lat="37.9501918796" lon="-6.6276637930">
        <ele>460.13</ele>
        <time>2021-05-30T07:03:17Z</time>
      </trkpt>
      <trkpt lat="37.9502991680" lon="-6.6275824048">
        <ele>459.17</ele>
        <time>2021-05-30T07:03:18Z</time>
      </trkpt>
      <trkpt lat="37.9504015949" lon="-6.6274929699">
        <ele>457.72</ele>
        <time>2021-05-30T07:03:19Z</time>
      </trkpt>
      <trkpt lat="37.9504764453" lon="-6.6273692530">
        <ele>457.24</ele>
        <time>2021-05-30T07:03:20Z</time>
      </trkpt>
      <trkpt lat="37.9505201988" lon="-6.6272061411">
        <ele>458.69</ele>
        <time>2021-05-30T07:03:21Z</time>
      </trkpt>
      <trkpt lat="37.9505436681" lon="-6.6270058975">
        <ele>460.13</ele>
        <time>2021-05-30T07:03:22Z</time>
      </trkpt>
      <trkpt lat="37.9505575821" lon="-6.6267801728">
        <ele>461.57</ele>
        <time>2021-05-30T07:03:23Z</time>
      </trkpt>
      <trkpt lat="37.9506016709" lon="-6.6260735784">
        <ele>460.61</ele>
        <time>2021-05-30T07:03:26Z</time>
      </trkpt>
      <trkpt lat="37.9505885113" lon="-6.6258803755">
        <ele>458.69</ele>
        <time>2021-05-30T07:03:27Z</time>
      </trkpt>
      <trkpt lat="37.9505409021" lon="-6.6257121507">
        <ele>457.72</ele>
        <time>2021-05-30T07:03:28Z</time>
      </trkpt>
      <trkpt lat="37.9504670575" lon="-6.6255544033">
        <ele>457.72</ele>
        <time>2021-05-30T07:03:29Z</time>
      </trkpt>
      <trkpt lat="37.9503921233" lon="-6.6254057083">
        <ele>458.69</ele>
        <time>2021-05-30T07:03:30Z</time>
      </trkpt>
      <trkpt lat="37.9503330309" lon="-6.6252682451">
        <ele>456.76</ele>
        <time>2021-05-30T07:03:31Z</time>
      </trkpt>
      <trkpt lat="37.9503024369" lon="-6.6251216456">
        <ele>456.76</ele>
        <time>2021-05-30T07:03:32Z</time>
      </trkpt>
      <trkpt lat="37.9503012635" lon="-6.6249576118">
        <ele>457.24</ele>
        <time>2021-05-30T07:03:33Z</time>
      </trkpt>
      <trkpt lat="37.9503227212" lon="-6.6247938294">
        <ele>457.72</ele>
        <time>2021-05-30T07:03:34Z</time>
      </trkpt>
      <trkpt lat="37.9503730964" lon="-6.6246435419">
        <ele>457.24</ele>
        <time>2021-05-30T07:03:35Z</time>
      </trkpt>
      <trkpt lat="37.9504618607" lon="-6.6245094314">
        <ele>456.28</ele>
        <time>2021-05-30T07:03:36Z</time>
      </trkpt>
      <trkpt lat="37.9505790398" lon="-6.6243878938">
        <ele>455.80</ele>
        <time>2021-05-30T07:03:37Z</time>
      </trkpt>
      <trkpt lat="37.9507064447" lon="-6.6242590640">
        <ele>456.28</ele>
        <time>2021-05-30T07:03:38Z</time>
      </trkpt>
      <trkpt lat="37.9508234560" lon="-6.6241257079">
        <ele>455.32</ele>
        <time>2021-05-30T07:03:39Z</time>
      </trkpt>
      <trkpt lat="37.9509295709" lon="-6.6240080260">
        <ele>453.88</ele>
        <time>2021-05-30T07:03:40Z</time>
      </trkpt>
      <trkpt lat="37.9510321654" lon="-6.6239268053">
        <ele>451.48</ele>
        <time>2021-05-30T07:03:41Z</time>
      </trkpt>
      <trkpt lat="37.9511438124" lon="-6.6238782741">
        <ele>449.55</ele>
        <time>2021-05-30T07:03:42Z</time>
      </trkpt>
      <trkpt lat="37.9512681998" lon="-6.6238542181">
        <ele>451.00</ele>
        <time>2021-05-30T07:03:43Z</time>
      </trkpt>
      <trkpt lat="37.9513925035" lon="-6.6238519549">
        <ele>450.52</ele>
        <time>2021-05-30T07:03:44Z</time>
      </trkpt>
      <trkpt lat="37.9515139572" lon="-6.6238791961">
        <ele>450.03</ele>
        <time>2021-05-30T07:03:45Z</time>
      </trkpt>
      <trkpt lat="37.9516386800" lon="-6.6239380371">
        <ele>450.52</ele>
        <time>2021-05-30T07:03:46Z</time>
      </trkpt>
      <trkpt lat="37.9517585412" lon="-6.6240240354">
        <ele>450.03</ele>
        <time>2021-05-30T07:03:47Z</time>
      </trkpt>
      <trkpt lat="37.9518623929" lon="-6.6241410468">
        <ele>450.03</ele>
        <time>2021-05-30T07:03:48Z</time>
      </trkpt>
      <trkpt lat="37.9519519955" lon="-6.6242878139">
        <ele>449.55</ele>
        <time>2021-05-30T07:03:49Z</time>
      </trkpt>
      <trkpt lat="37.9520496447" lon="-6.6244503390">
        <ele>450.03</ele>
        <time>2021-05-30T07:03:50Z</time>
      </trkpt>
      <trkpt lat="37.9525327776" lon="-6.6250607092">
        <ele>446.67</ele>
        <time>2021-05-30T07:03:54Z</time>
      </trkpt>
      <trkpt lat="37.9527523834" lon="-6.6253208835">
        <ele>442.82</ele>
        <time>2021-05-30T07:03:56Z</time>
      </trkpt>
      <trkpt lat="37.9532826226" lon="-6.6258975584">
        <ele>447.15</ele>
        <time>2021-05-30T07:04:00Z</time>
      </trkpt>
      <trkpt lat="37.9535671882" lon="-6.6261726525">
        <ele>448.11</ele>
        <time>2021-05-30T07:04:02Z</time>
      </trkpt>
      <trkpt lat="37.9537146259" lon="-6.6262626741">
        <ele>447.15</ele>
        <time>2021-05-30T07:04:03Z</time>
      </trkpt>
      <trkpt lat="37.9541956633" lon="-6.6264969483">
        <ele>451.00</ele>
        <time>2021-05-30T07:04:06Z</time>
      </trkpt>
      <trkpt lat="37.9543548357" lon="-6.6265801806">
        <ele>451.00</ele>
        <time>2021-05-30T07:04:07Z</time>
      </trkpt>
      <trkpt lat="37.9545095656" lon="-6.6266463976">
        <ele>450.03</ele>
        <time>2021-05-30T07:04:08Z</time>
      </trkpt>
      <trkpt lat="37.9546524771" lon="-6.6267036460">
        <ele>448.11</ele>
        <time>2021-05-30T07:04:09Z</time>
      </trkpt>
      <trkpt lat="37.9547743499" lon="-6.6267774906">
        <ele>446.19</ele>
        <time>2021-05-30T07:04:10Z</time>
      </trkpt>
      <trkpt lat="37.9548763577" lon="-6.6268644948">
        <ele>445.71</ele>
        <time>2021-05-30T07:04:11Z</time>
      </trkpt>
      <trkpt lat="37.9549818020" lon="-6.6269379202">
        <ele>446.19</ele>
        <time>2021-05-30T07:04:12Z</time>
      </trkpt>
      <trkpt lat="37.9551074468" lon="-6.6269790754">
        <ele>447.63</ele>
        <time>2021-05-30T07:04:13Z</time>
      </trkpt>
      <trkpt lat="37.9552491009" lon="-6.6269867867">
        <ele>449.55</ele>
        <time>2021-05-30T07:04:14Z</time>
      </trkpt>
      <trkpt lat="37.9553854745" lon="-6.6269810870">
        <ele>450.03</ele>
        <time>2021-05-30T07:04:15Z</time>
      </trkpt>
      <trkpt lat="37.9555015638" lon="-6.6269848589">
        <ele>450.03</ele>
        <time>2021-05-30T07:04:16Z</time>
      </trkpt>
      <trkpt lat="37.9555969499" lon="-6.6270159557">
        <ele>450.03</ele>
        <time>2021-05-30T07:04:17Z</time>
      </trkpt>
      <trkpt lat="37.9556729738" lon="-6.6270874534">
        <ele>449.55</ele>
        <time>2021-05-30T07:04:18Z</time>
      </trkpt>
      <trkpt lat="37.9558049887" lon="-6.6272316221">
        <ele>449.07</ele>
        <time>2021-05-30T07:04:20Z</time>
      </trkpt>
      <trkpt lat="37.9558806773" lon="-6.6272380762">
        <ele>449.07</ele>
        <time>2021-05-30T07:04:21Z</time>
      </trkpt>
      <trkpt lat="37.9559514206" lon="-6.6271881200">
        <ele>448.59</ele>
        <time>2021-05-30T07:04:22Z</time>
      </trkpt>
      <trkpt lat="37.9560045619" lon="-6.6270917282">
        <ele>449.55</ele>
        <time>2021-05-30T07:04:23Z</time>
      </trkpt>
      <trkpt lat="37.9560479801" lon="-6.6269742139">
        <ele>451.00</ele>
        <time>2021-05-30T07:04:24Z</time>
      </trkpt>
      <trkpt lat="37.9561071564" lon="-6.6268676799">
        <ele>451.00</ele>
        <time>2021-05-30T07:04:25Z</time>
      </trkpt>
      <trkpt lat="37.9561865330" lon="-6.6267758980">
        <ele>451.48</ele>
        <time>2021-05-30T07:04:26Z</time>
      </trkpt>
      <trkpt lat="37.9562794045" lon="-6.6267006285">
        <ele>452.92</ele>
        <time>2021-05-30T07:04:27Z</time>
      </trkpt>
      <trkpt lat="37.9563803226" lon="-6.6266569588">
        <ele>452.44</ele>
        <time>2021-05-30T07:04:28Z</time>
      </trkpt>
      <trkpt lat="37.9564804863" lon="-6.6266469844">
        <ele>453.40</ele>
        <time>2021-05-30T07:04:29Z</time>
      </trkpt>
      <trkpt lat="37.9565743636" lon="-6.6266752314">
        <ele>454.36</ele>
        <time>2021-05-30T07:04:30Z</time>
      </trkpt>
      <trkpt lat="37.9566685762" lon="-6.6267449688">
        <ele>454.36</ele>
        <time>2021-05-30T07:04:31Z</time>
      </trkpt>
      <trkpt lat="37.9567600228" lon="-6.6268362477">
        <ele>453.88</ele>
        <time>2021-05-30T07:04:32Z</time>
      </trkpt>
      <trkpt lat="37.9568451829" lon="-6.6269333940">
        <ele>453.88</ele>
        <time>2021-05-30T07:04:33Z</time>
      </trkpt>
      <trkpt lat="37.9570107255" lon="-6.6271650698">
        <ele>452.92</ele>
        <time>2021-05-30T07:04:35Z</time>
      </trkpt>
      <trkpt lat="37.9574244563" lon="-6.6279635299">
        <ele>454.36</ele>
        <time>2021-05-30T07:04:40Z</time>
      </trkpt>
      <trkpt lat="37.9577218462" lon="-6.6285190824">
        <ele>457.72</ele>
        <time>2021-05-30T07:04:43Z</time>
      </trkpt>
      <trkpt lat="37.9578285478" lon="-6.6287142131">
        <ele>457.24</ele>
        <time>2021-05-30T07:04:44Z</time>
      </trkpt>
      <trkpt lat="37.9586906265" lon="-6.6303095408">
        <ele>458.69</ele>
        <time>2021-05-30T07:04:52Z</time>
      </trkpt>
      <trkpt lat="37.9587712605" lon="-6.6305262130">
        <ele>459.17</ele>
        <time>2021-05-30T07:04:53Z</time>
      </trkpt>
      <trkpt lat="37.9589191172" lon="-6.6309802607">
        <ele>460.13</ele>
        <time>2021-05-30T07:04:55Z</time>
      </trkpt>
      <trkpt lat="37.9591310956" lon="-6.6315724421">
        <ele>459.17</ele>
        <time>2021-05-30T07:04:58Z</time>
      </trkpt>
      <trkpt lat="37.9592226259" lon="-6.6317220591">
        <ele>458.21</ele>
        <time>2021-05-30T07:04:59Z</time>
      </trkpt>
      <trkpt lat="37.9593429901" lon="-6.6318596900">
        <ele>458.69</ele>
        <time>2021-05-30T07:05:00Z</time>
      </trkpt>
      <trkpt lat="37.9600451421" lon="-6.6325351037">
        <ele>458.21</ele>
        <time>2021-05-30T07:05:05Z</time>
      </trkpt>
      <trkpt lat="37.9601526819" lon="-6.6327084415">
        <ele>458.69</ele>
        <time>2021-05-30T07:05:06Z</time>
      </trkpt>
      <trkpt lat="37.9605274368" lon="-6.6333726235">
        <ele>454.36</ele>
        <time>2021-05-30T07:05:10Z</time>
      </trkpt>
      <trkpt lat="37.9606348928" lon="-6.6334833484">
        <ele>452.92</ele>
        <time>2021-05-30T07:05:11Z</time>
      </trkpt>
      <trkpt lat="37.9607596155" lon="-6.6335823387">
        <ele>452.44</ele>
        <time>2021-05-30T07:05:12Z</time>
      </trkpt>
      <trkpt lat="37.9608881939" lon="-6.6336830892">
        <ele>452.44</ele>
        <time>2021-05-30T07:05:13Z</time>
      </trkpt>
      <trkpt lat="37.9610109888" lon="-6.6338071413">
        <ele>451.48</ele>
        <time>2021-05-30T07:05:14Z</time>
      </trkpt>
      <trkpt lat="37.9611308500" lon="-6.6339582670">
        <ele>451.96</ele>
        <time>2021-05-30T07:05:15Z</time>
      </trkpt>
      <trkpt lat="37.9612535611" lon="-6.6341254022">
        <ele>452.44</ele>
        <time>2021-05-30T07:05:16Z</time>
      </trkpt>
      <trkpt lat="37.9617675394" lon="-6.6348506883">
        <ele>449.07</ele>
        <time>2021-05-30T07:05:20Z</time>
      </trkpt>
      <trkpt lat="37.9619042482" lon="-6.6350415442">
        <ele>449.07</ele>
        <time>2021-05-30T07:05:21Z</time>
      </trkpt>
      <trkpt lat="37.9623817652" lon="-6.6357653216">
        <ele>448.11</ele>
        <time>2021-05-30T07:05:25Z</time>
      </trkpt>
      <trkpt lat="37.9625053145" lon="-6.6359086521">
        <ele>449.55</ele>
        <time>2021-05-30T07:05:26Z</time>
      </trkpt>
      <trkpt lat="37.9626455437" lon="-6.6360369790">
        <ele>450.03</ele>
        <time>2021-05-30T07:05:27Z</time>
      </trkpt>
      <trkpt lat="37.9629432689" lon="-6.6363075469">
        <ele>452.44</ele>
        <time>2021-05-30T07:05:29Z</time>
      </trkpt>
      <trkpt lat="37.9633670580" lon="-6.6368155740">
        <ele>456.28</ele>
        <time>2021-05-30T07:05:32Z</time>
      </trkpt>
      <trkpt lat="37.9634943791" lon="-6.6369930189">
        <ele>456.76</ele>
        <time>2021-05-30T07:05:33Z</time>
      </trkpt>
      <trkpt lat="37.9636093788" lon="-6.6371862218">
        <ele>457.72</ele>
        <time>2021-05-30T07:05:34Z</time>
      </trkpt>
      <trkpt lat="37.9639181681" lon="-6.6378307901">
        <ele>461.57</ele>
        <time>2021-05-30T07:05:37Z</time>
      </trkpt>
      <trkpt lat="37.9644805100" lon="-6.6389643587">
        <ele>462.05</ele>
        <time>2021-05-30T07:05:43Z</time>
      </trkpt>
      <trkpt lat="37.9645974375" lon="-6.6390908416">
        <ele>463.49</ele>
        <time>2021-05-30T07:05:44Z</time>
      </trkpt>
      <trkpt lat="37.9647235852" lon="-6.6391979624">
        <ele>463.97</ele>
        <time>2021-05-30T07:05:45Z</time>
      </trkpt>
      <trkpt lat="37.9648385011" lon="-6.6392998025">
        <ele>464.93</ele>
        <time>2021-05-30T07:05:46Z</time>
      </trkpt>
      <trkpt lat="37.9649286065" lon="-6.6394204181">
        <ele>464.45</ele>
        <time>2021-05-30T07:05:47Z</time>
      </trkpt>
      <trkpt lat="37.9649914708" lon="-6.6395732202">
        <ele>466.86</ele>
        <time>2021-05-30T07:05:48Z</time>
      </trkpt>
      <trkpt lat="37.9650318716" lon="-6.6397498269">
        <ele>468.78</ele>
        <time>2021-05-30T07:05:49Z</time>
      </trkpt>
      <trkpt lat="37.9650633037" lon="-6.6399265174">
        <ele>469.26</ele>
        <time>2021-05-30T07:05:50Z</time>
      </trkpt>
      <trkpt lat="37.9650981724" lon="-6.6400864441">
        <ele>469.74</ele>
        <time>2021-05-30T07:05:51Z</time>
      </trkpt>
      <trkpt lat="37.9651470389" lon="-6.6402273439">
        <ele>469.74</ele>
        <time>2021-05-30T07:05:52Z</time>
      </trkpt>
      <trkpt lat="37.9652233981" lon="-6.6403535753">
        <ele>470.70</ele>
        <time>2021-05-30T07:05:53Z</time>
      </trkpt>
      <trkpt lat="37.9653233942" lon="-6.6404762864">
        <ele>471.18</ele>
        <time>2021-05-30T07:05:54Z</time>
      </trkpt>
      <trkpt lat="37.9655404855" lon="-6.6407043580">
        <ele>470.70</ele>
        <time>2021-05-30T07:05:56Z</time>
      </trkpt>
      <trkpt lat="37.9656598438" lon="-6.6407854948">
        <ele>470.22</ele>
        <time>2021-05-30T07:05:57Z</time>
      </trkpt>
      <trkpt lat="37.9657965526" lon="-6.6408422403">
        <ele>469.74</ele>
        <time>2021-05-30T07:05:58Z</time>
      </trkpt>
      <trkpt lat="37.9660415556" lon="-6.6409299988">
        <ele>467.34</ele>
        <time>2021-05-30T07:06:00Z</time>
      </trkpt>
      <trkpt lat="37.9661200102" lon="-6.6409911029">
        <ele>465.90</ele>
        <time>2021-05-30T07:06:01Z</time>
      </trkpt>
      <trkpt lat="37.9661636800" lon="-6.6410788614">
        <ele>464.93</ele>
        <time>2021-05-30T07:06:02Z</time>
      </trkpt>
      <trkpt lat="37.9661700502" lon="-6.6411914304">
        <ele>464.45</ele>
        <time>2021-05-30T07:06:03Z</time>
      </trkpt>
      <trkpt lat="37.9661543760" lon="-6.6413211823">
        <ele>464.93</ele>
        <time>2021-05-30T07:06:04Z</time>
      </trkpt>
      <trkpt lat="37.9661449883" lon="-6.6414641775">
        <ele>465.90</ele>
        <time>2021-05-30T07:06:05Z</time>
      </trkpt>
      <trkpt lat="37.9661585670" lon="-6.6416108608">
        <ele>465.90</ele>
        <time>2021-05-30T07:06:06Z</time>
      </trkpt>
      <trkpt lat="37.9662058409" lon="-6.6417513415">
        <ele>465.90</ele>
        <time>2021-05-30T07:06:07Z</time>
      </trkpt>
      <trkpt lat="37.9662853014" lon="-6.6418792494">
        <ele>466.38</ele>
        <time>2021-05-30T07:06:08Z</time>
      </trkpt>
      <trkpt lat="37.9663904104" lon="-6.6420043074">
        <ele>466.38</ele>
        <time>2021-05-30T07:06:09Z</time>
      </trkpt>
      <trkpt lat="37.9665067513" lon="-6.6421338916">
        <ele>467.82</ele>
        <time>2021-05-30T07:06:10Z</time>
      </trkpt>
      <trkpt lat="37.9667324759" lon="-6.6424341314">
        <ele>470.22</ele>
        <time>2021-05-30T07:06:12Z</time>
      </trkpt>
      <trkpt lat="37.9668292031" lon="-6.6426178627">
        <ele>470.22</ele>
        <time>2021-05-30T07:06:13Z</time>
      </trkpt>
      <trkpt lat="37.9669122677" lon="-6.6428228840">
        <ele>474.07</ele>
        <time>2021-05-30T07:06:14Z</time>
      </trkpt>
      <trkpt lat="37.9670620523" lon="-6.6432491038">
        <ele>475.51</ele>
        <time>2021-05-30T07:06:16Z</time>
      </trkpt>
      <trkpt lat="37.9671731126" lon="-6.6436851304">
        <ele>476.47</ele>
        <time>2021-05-30T07:06:18Z</time>
      </trkpt>
      <trkpt lat="37.9672166146" lon="-6.6440492403">
        <ele>476.47</ele>
        <time>2021-05-30T07:06:20Z</time>
      </trkpt>
      <trkpt lat="37.9672563449" lon="-6.6441993602">
        <ele>475.99</ele>
        <time>2021-05-30T07:06:21Z</time>
      </trkpt>
      <trkpt lat="37.9673146829" lon="-6.6443291958">
        <ele>476.47</ele>
        <time>2021-05-30T07:06:22Z</time>
      </trkpt>
      <trkpt lat="37.9673901200" lon="-6.6444324609">
        <ele>476.95</ele>
        <time>2021-05-30T07:06:23Z</time>
      </trkpt>
      <trkpt lat="37.9674863443" lon="-6.6445038747">
        <ele>476.95</ele>
        <time>2021-05-30T07:06:24Z</time>
      </trkpt>
      <trkpt lat="37.9676028527" lon="-6.6445477959">
        <ele>478.39</ele>
        <time>2021-05-30T07:06:25Z</time>
      </trkpt>
      <trkpt lat="37.9677357059" lon="-6.6445830837">
        <ele>479.35</ele>
        <time>2021-05-30T07:06:26Z</time>
      </trkpt>
      <trkpt lat="37.9678699840" lon="-6.6446477082">
        <ele>480.32</ele>
        <time>2021-05-30T07:06:27Z</time>
      </trkpt>
      <trkpt lat="37.9679913539" lon="-6.6447420884">
        <ele>481.76</ele>
        <time>2021-05-30T07:06:28Z</time>
      </trkpt>
      <trkpt lat="37.9680963792" lon="-6.6448300984">
        <ele>481.76</ele>
        <time>2021-05-30T07:06:29Z</time>
      </trkpt>
      <trkpt lat="37.9681915976" lon="-6.6448777914">
        <ele>479.84</ele>
        <time>2021-05-30T07:06:30Z</time>
      </trkpt>
      <trkpt lat="37.9682815354" lon="-6.6448789649">
        <ele>478.87</ele>
        <time>2021-05-30T07:06:31Z</time>
      </trkpt>
      <trkpt lat="37.9683720600" lon="-6.6448420007">
        <ele>478.87</ele>
        <time>2021-05-30T07:06:32Z</time>
      </trkpt>
      <trkpt lat="37.9684739001" lon="-6.6447830759">
        <ele>479.84</ele>
        <time>2021-05-30T07:06:33Z</time>
      </trkpt>
      <trkpt lat="37.9688626528" lon="-6.6445753723">
        <ele>483.68</ele>
        <time>2021-05-30T07:06:36Z</time>
      </trkpt>
      <trkpt lat="37.9693260044" lon="-6.6444302816">
        <ele>488.01</ele>
        <time>2021-05-30T07:06:39Z</time>
      </trkpt>
      <trkpt lat="37.9694838356" lon="-6.6443957482">
        <ele>488.01</ele>
        <time>2021-05-30T07:06:40Z</time>
      </trkpt>
      <trkpt lat="37.9697686527" lon="-6.6443606280">
        <ele>488.49</ele>
        <time>2021-05-30T07:06:42Z</time>
      </trkpt>
      <trkpt lat="37.9699085467" lon="-6.6443878692">
        <ele>488.97</ele>
        <time>2021-05-30T07:06:43Z</time>
      </trkpt>
      <trkpt lat="37.9700476862" lon="-6.6444471292">
        <ele>490.89</ele>
        <time>2021-05-30T07:06:44Z</time>
      </trkpt>
      <trkpt lat="37.9701763485" lon="-6.6445192974">
        <ele>491.37</ele>
        <time>2021-05-30T07:06:45Z</time>
      </trkpt>
      <trkpt lat="37.9703872371" lon="-6.6446158569">
        <ele>489.45</ele>
        <time>2021-05-30T07:06:47Z</time>
      </trkpt>
      <trkpt lat="37.9704777617" lon="-6.6446120013">
        <ele>489.45</ele>
        <time>2021-05-30T07:06:48Z</time>
      </trkpt>
      <trkpt lat="37.9705622513" lon="-6.6445646435">
        <ele>490.41</ele>
        <time>2021-05-30T07:06:49Z</time>
      </trkpt>
      <trkpt lat="37.9706437234" lon="-6.6444820818">
        <ele>491.85</ele>
        <time>2021-05-30T07:06:50Z</time>
      </trkpt>
      <trkpt lat="37.9707151372" lon="-6.6443686746">
        <ele>492.33</ele>
        <time>2021-05-30T07:06:51Z</time>
      </trkpt>
      <trkpt lat="37.9707700387" lon="-6.6442226619">
        <ele>493.29</ele>
        <time>2021-05-30T07:06:52Z</time>
      </trkpt>
      <trkpt lat="37.9708132055" lon="-6.6440487374">
        <ele>494.26</ele>
        <time>2021-05-30T07:06:53Z</time>
      </trkpt>
      <trkpt lat="37.9708529357" lon="-6.6438652575">
        <ele>496.18</ele>
        <time>2021-05-30T07:06:54Z</time>
      </trkpt>
      <trkpt lat="37.9708938394" lon="-6.6436829511">
        <ele>495.70</ele>
        <time>2021-05-30T07:06:55Z</time>
      </trkpt>
      <trkpt lat="37.9710236751" lon="-6.6430037655">
        <ele>495.22</ele>
        <time>2021-05-30T07:06:59Z</time>
      </trkpt>
      <trkpt lat="37.9710199870" lon="-6.6428251471">
        <ele>495.22</ele>
        <time>2021-05-30T07:07:00Z</time>
      </trkpt>
      <trkpt lat="37.9709790833" lon="-6.6422224883">
        <ele>497.62</ele>
        <time>2021-05-30T07:07:03Z</time>
      </trkpt>
      <trkpt lat="37.9709802568" lon="-6.6420159582">
        <ele>498.10</ele>
        <time>2021-05-30T07:07:04Z</time>
      </trkpt>
      <trkpt lat="37.9709979426" lon="-6.6418090090">
        <ele>499.06</ele>
        <time>2021-05-30T07:07:05Z</time>
      </trkpt>
      <trkpt lat="37.9710307997" lon="-6.6416028142">
        <ele>500.50</ele>
        <time>2021-05-30T07:07:06Z</time>
      </trkpt>
      <trkpt lat="37.9710824322" lon="-6.6413993016">
        <ele>501.46</ele>
        <time>2021-05-30T07:07:07Z</time>
      </trkpt>
      <trkpt lat="37.9711506609" lon="-6.6411992256">
        <ele>502.43</ele>
        <time>2021-05-30T07:07:08Z</time>
      </trkpt>
      <trkpt lat="37.9712266009" lon="-6.6410011612">
        <ele>503.87</ele>
        <time>2021-05-30T07:07:09Z</time>
      </trkpt>
      <trkpt lat="37.9712990206" lon="-6.6408130713">
        <ele>503.39</ele>
        <time>2021-05-30T07:07:10Z</time>
      </trkpt>
      <trkpt lat="37.9714126792" lon="-6.6404798906">
        <ele>503.39</ele>
        <time>2021-05-30T07:07:12Z</time>
      </trkpt>
      <trkpt lat="37.9714407586" lon="-6.6403223109">
        <ele>502.91</ele>
        <time>2021-05-30T07:07:13Z</time>
      </trkpt>
      <trkpt lat="37.9714503139" lon="-6.6401539184">
        <ele>503.39</ele>
        <time>2021-05-30T07:07:14Z</time>
      </trkpt>
      <trkpt lat="37.9714491405" lon="-6.6396324802">
        <ele>503.87</ele>
        <time>2021-05-30T07:07:17Z</time>
      </trkpt>
      <trkpt lat="37.9714742862" lon="-6.6395022254">
        <ele>503.39</ele>
        <time>2021-05-30T07:07:18Z</time>
      </trkpt>
      <trkpt lat="37.9715311155" lon="-6.6393928416">
        <ele>502.43</ele>
        <time>2021-05-30T07:07:19Z</time>
      </trkpt>
      <trkpt lat="37.9716120847" lon="-6.6392976232">
        <ele>502.91</ele>
        <time>2021-05-30T07:07:20Z</time>
      </trkpt>
      <trkpt lat="37.9716958199" lon="-6.6391939390">
        <ele>503.87</ele>
        <time>2021-05-30T07:07:21Z</time>
      </trkpt>
      <trkpt lat="37.9717633780" lon="-6.6390634328">
        <ele>503.87</ele>
        <time>2021-05-30T07:07:22Z</time>
      </trkpt>
      <trkpt lat="37.9718151782" lon="-6.6389059369">
        <ele>505.31</ele>
        <time>2021-05-30T07:07:23Z</time>
      </trkpt>
      <trkpt lat="37.9718611948" lon="-6.6387235466">
        <ele>507.23</ele>
        <time>2021-05-30T07:07:24Z</time>
      </trkpt>
      <trkpt lat="37.9719547369" lon="-6.6383109894">
        <ele>510.12</ele>
        <time>2021-05-30T07:07:26Z</time>
      </trkpt>
      <trkpt lat="37.9721971415" lon="-6.6372723039">
        <ele>509.64</ele>
        <time>2021-05-30T07:07:31Z</time>
      </trkpt>
      <trkpt lat="37.9722636938" lon="-6.6371233575">
        <ele>508.67</ele>
        <time>2021-05-30T07:07:32Z</time>
      </trkpt>
      <trkpt lat="37.9723567329" lon="-6.6369988024">
        <ele>509.64</ele>
        <time>2021-05-30T07:07:33Z</time>
      </trkpt>
      <trkpt lat="37.9724730738" lon="-6.6368886642">
        <ele>511.08</ele>
        <time>2021-05-30T07:07:34Z</time>
      </trkpt>
      <trkpt lat="37.9726045020" lon="-6.6367838066">
        <ele>511.56</ele>
        <time>2021-05-30T07:07:35Z</time>
      </trkpt>
      <trkpt lat="37.9727381095" lon="-6.6366866603">
        <ele>512.04</ele>
        <time>2021-05-30T07:07:36Z</time>
      </trkpt>
      <trkpt lat="37.9729669355" lon="-6.6365448385">
        <ele>510.12</ele>
        <time>2021-05-30T07:07:38Z</time>
      </trkpt>
      <trkpt lat="37.9730688594" lon="-6.6365279071">
        <ele>509.16</ele>
        <time>2021-05-30T07:07:39Z</time>
      </trkpt>
      <trkpt lat="37.9731665086" lon="-6.6365578305">
        <ele>509.16</ele>
        <time>2021-05-30T07:07:40Z</time>
      </trkpt>
      <trkpt lat="37.9732639063" lon="-6.6366380453">
        <ele>510.60</ele>
        <time>2021-05-30T07:07:41Z</time>
      </trkpt>
      <trkpt lat="37.9733640701" lon="-6.6367610916">
        <ele>511.56</ele>
        <time>2021-05-30T07:07:42Z</time>
      </trkpt>
      <trkpt lat="37.9734660778" lon="-6.6368953697">
        <ele>513.00</ele>
        <time>2021-05-30T07:07:43Z</time>
      </trkpt>
      <trkpt lat="37.9737922177" lon="-6.6373001318">
        <ele>516.37</ele>
        <time>2021-05-30T07:07:46Z</time>
      </trkpt>
      <trkpt lat="37.9738813173" lon="-6.6374270339">
        <ele>515.88</ele>
        <time>2021-05-30T07:07:47Z</time>
      </trkpt>
      <trkpt lat="37.9739496298" lon="-6.6375763994">
        <ele>516.85</ele>
        <time>2021-05-30T07:07:48Z</time>
      </trkpt>
      <trkpt lat="37.9739986639" lon="-6.6377441213">
        <ele>518.29</ele>
        <time>2021-05-30T07:07:49Z</time>
      </trkpt>
      <trkpt lat="37.9740577564" lon="-6.6379047185">
        <ele>519.25</ele>
        <time>2021-05-30T07:07:50Z</time>
      </trkpt>
      <trkpt lat="37.9741458502" lon="-6.6380432714">
        <ele>520.21</ele>
        <time>2021-05-30T07:07:51Z</time>
      </trkpt>
      <trkpt lat="37.9742597602" lon="-6.6381724365">
        <ele>522.13</ele>
        <time>2021-05-30T07:07:52Z</time>
      </trkpt>
      <trkpt lat="37.9743791185" lon="-6.6383115761">
        <ele>523.09</ele>
        <time>2021-05-30T07:07:53Z</time>
      </trkpt>
      <trkpt lat="37.9744870774" lon="-6.6384658031">
        <ele>523.58</ele>
        <time>2021-05-30T07:07:54Z</time>
      </trkpt>
      <trkpt lat="37.9745846428" lon="-6.6386192758">
        <ele>524.06</ele>
        <time>2021-05-30T07:07:55Z</time>
      </trkpt>
      <trkpt lat="37.9746774305" lon="-6.6387546435">
        <ele>525.02</ele>
        <time>2021-05-30T07:07:56Z</time>
      </trkpt>
      <trkpt lat="37.9747729003" lon="-6.6388517898">
        <ele>523.58</ele>
        <time>2021-05-30T07:07:57Z</time>
      </trkpt>
      <trkpt lat="37.9748796858" lon="-6.6389038414">
        <ele>523.58</ele>
        <time>2021-05-30T07:07:58Z</time>
      </trkpt>
      <trkpt lat="37.9749961942" lon="-6.6389198508">
        <ele>524.06</ele>
        <time>2021-05-30T07:07:59Z</time>
      </trkpt>
      <trkpt lat="37.9751137085" lon="-6.6389480978">
        <ele>524.54</ele>
        <time>2021-05-30T07:08:00Z</time>
      </trkpt>
      <trkpt lat="37.9752251878" lon="-6.6390200984">
        <ele>526.46</ele>
        <time>2021-05-30T07:08:01Z</time>
      </trkpt>
      <trkpt lat="37.9753271118" lon="-6.6391215194">
        <ele>526.94</ele>
        <time>2021-05-30T07:08:02Z</time>
      </trkpt>
      <trkpt lat="37.9754169658" lon="-6.6392206773">
        <ele>526.94</ele>
        <time>2021-05-30T07:08:03Z</time>
      </trkpt>
      <trkpt lat="37.9755025450" lon="-6.6392853856">
        <ele>526.94</ele>
        <time>2021-05-30T07:08:04Z</time>
      </trkpt>
      <trkpt lat="37.9755861964" lon="-6.6393081006">
        <ele>527.42</ele>
        <time>2021-05-30T07:08:05Z</time>
      </trkpt>
      <trkpt lat="37.9756691772" lon="-6.6392872296">
        <ele>528.38</ele>
        <time>2021-05-30T07:08:06Z</time>
      </trkpt>
      <trkpt lat="37.9757566843" lon="-6.6392210964">
        <ele>529.82</ele>
        <time>2021-05-30T07:08:07Z</time>
      </trkpt>
      <trkpt lat="37.9758500587" lon="-6.6391191725">
        <ele>532.71</ele>
        <time>2021-05-30T07:08:08Z</time>
      </trkpt>
      <trkpt lat="37.9759501386" lon="-6.6390002333">
        <ele>533.67</ele>
        <time>2021-05-30T07:08:09Z</time>
      </trkpt>
      <trkpt lat="37.9761426710" lon="-6.6388091259">
        <ele>534.15</ele>
        <time>2021-05-30T07:08:11Z</time>
      </trkpt>
      <trkpt lat="37.9762422480" lon="-6.6387706529">
        <ele>533.67</ele>
        <time>2021-05-30T07:08:12Z</time>
      </trkpt>
      <trkpt lat="37.9763600975" lon="-6.6387688927">
        <ele>536.55</ele>
        <time>2021-05-30T07:08:13Z</time>
      </trkpt>
      <trkpt lat="37.9765965510" lon="-6.6388137359">
        <ele>537.99</ele>
        <time>2021-05-30T07:08:15Z</time>
      </trkpt>
      <trkpt lat="37.9766830523" lon="-6.6388812102">
        <ele>538.48</ele>
        <time>2021-05-30T07:08:16Z</time>
      </trkpt>
      <trkpt lat="37.9767350201" lon="-6.6389957909">
        <ele>538.96</ele>
        <time>2021-05-30T07:08:17Z</time>
      </trkpt>
      <trkpt lat="37.9767607525" lon="-6.6391293146">
        <ele>540.40</ele>
        <time>2021-05-30T07:08:18Z</time>
      </trkpt>
      <trkpt lat="37.9767879099" lon="-6.6392457392">
        <ele>540.88</ele>
        <time>2021-05-30T07:08:19Z</time>
      </trkpt>
      <trkpt lat="37.9768440686" lon="-6.6393343359">
        <ele>539.92</ele>
        <time>2021-05-30T07:08:20Z</time>
      </trkpt>
      <trkpt lat="37.9769306537" lon="-6.6393949371">
        <ele>540.40</ele>
        <time>2021-05-30T07:08:21Z</time>
      </trkpt>
      <trkpt lat="37.9770443961" lon="-6.6394308954">
        <ele>542.32</ele>
        <time>2021-05-30T07:08:22Z</time>
      </trkpt>
      <trkpt lat="37.9771761596" lon="-6.6394549515">
        <ele>544.72</ele>
        <time>2021-05-30T07:08:23Z</time>
      </trkpt>
      <trkpt lat="37.9773246869" lon="-6.6394808516">
        <ele>548.09</ele>
        <time>2021-05-30T07:08:24Z</time>
      </trkpt>
      <trkpt lat="37.9774769023" lon="-6.6395215038">
        <ele>549.05</ele>
        <time>2021-05-30T07:08:25Z</time>
      </trkpt>
      <trkpt lat="37.9776156228" lon="-6.6395881400">
        <ele>549.53</ele>
        <time>2021-05-30T07:08:26Z</time>
      </trkpt>
      <trkpt lat="37.9778291099" lon="-6.6397197358">
        <ele>549.05</ele>
        <time>2021-05-30T07:08:28Z</time>
      </trkpt>
      <trkpt lat="37.9779179581" lon="-6.6397372540">
        <ele>548.57</ele>
        <time>2021-05-30T07:08:29Z</time>
      </trkpt>
      <trkpt lat="37.9779919703" lon="-6.6397111025">
        <ele>549.05</ele>
        <time>2021-05-30T07:08:30Z</time>
      </trkpt>
      <trkpt lat="37.9780476261" lon="-6.6396411974">
        <ele>550.01</ele>
        <time>2021-05-30T07:08:31Z</time>
      </trkpt>
      <trkpt lat="37.9780895356" lon="-6.6395394411">
        <ele>551.45</ele>
        <time>2021-05-30T07:08:32Z</time>
      </trkpt>
      <trkpt lat="37.9781476222" lon="-6.6394411214">
        <ele>551.45</ele>
        <time>2021-05-30T07:08:33Z</time>
      </trkpt>
      <trkpt lat="37.9782275856" lon="-6.6393773351">
        <ele>552.90</ele>
        <time>2021-05-30T07:08:34Z</time>
      </trkpt>
      <trkpt lat="37.9783254862" lon="-6.6393679474">
        <ele>554.82</ele>
        <time>2021-05-30T07:08:35Z</time>
      </trkpt>
      <trkpt lat="37.9784226324" lon="-6.6394121200">
        <ele>554.82</ele>
        <time>2021-05-30T07:08:36Z</time>
      </trkpt>
      <trkpt lat="37.9784989078" lon="-6.6395098530">
        <ele>555.78</ele>
        <time>2021-05-30T07:08:37Z</time>
      </trkpt>
      <trkpt lat="37.9785528034" lon="-6.6396509204">
        <ele>557.70</ele>
        <time>2021-05-30T07:08:38Z</time>
      </trkpt>
      <trkpt lat="37.9786028434" lon="-6.6398079973">
        <ele>558.66</ele>
        <time>2021-05-30T07:08:39Z</time>
      </trkpt>
      <trkpt lat="37.9786621034" lon="-6.6399577819">
        <ele>560.11</ele>
        <time>2021-05-30T07:08:40Z</time>
      </trkpt>
      <trkpt lat="37.9787351936" lon="-6.6400823370">
        <ele>559.62</ele>
        <time>2021-05-30T07:08:41Z</time>
      </trkpt>
      <trkpt lat="37.9788176715" lon="-6.6401712690">
        <ele>560.11</ele>
        <time>2021-05-30T07:08:42Z</time>
      </trkpt>
      <trkpt lat="37.9789109621" lon="-6.6402151063">
        <ele>559.62</ele>
        <time>2021-05-30T07:08:43Z</time>
      </trkpt>
      <trkpt lat="37.9790214356" lon="-6.6402162798">
        <ele>560.11</ele>
        <time>2021-05-30T07:08:44Z</time>
      </trkpt>
      <trkpt lat="37.9791428894" lon="-6.6401738673">
        <ele>561.55</ele>
        <time>2021-05-30T07:08:45Z</time>
      </trkpt>
      <trkpt lat="37.9792718869" lon="-6.6400982626">
        <ele>564.43</ele>
        <time>2021-05-30T07:08:46Z</time>
      </trkpt>
      <trkpt lat="37.9793916643" lon="-6.6400032956">
        <ele>566.35</ele>
        <time>2021-05-30T07:08:47Z</time>
      </trkpt>
      <trkpt lat="37.9794968572" lon="-6.6398940794">
        <ele>566.83</ele>
        <time>2021-05-30T07:08:48Z</time>
      </trkpt>
      <trkpt lat="37.9795810953" lon="-6.6397770680">
        <ele>566.83</ele>
        <time>2021-05-30T07:08:49Z</time>
      </trkpt>
      <trkpt lat="37.9796628188" lon="-6.6396803409">
        <ele>565.87</ele>
        <time>2021-05-30T07:08:50Z</time>
      </trkpt>
      <trkpt lat="37.9797592945" lon="-6.6396313068">
        <ele>567.32</ele>
        <time>2021-05-30T07:08:51Z</time>
      </trkpt>
      <trkpt lat="37.9798690975" lon="-6.6396210808">
        <ele>568.28</ele>
        <time>2021-05-30T07:08:52Z</time>
      </trkpt>
      <trkpt lat="37.9799725302" lon="-6.6396460589">
        <ele>567.80</ele>
        <time>2021-05-30T07:08:53Z</time>
      </trkpt>
      <trkpt lat="37.9800622165" lon="-6.6397152096">
        <ele>567.80</ele>
        <time>2021-05-30T07:08:54Z</time>
      </trkpt>
      <trkpt lat="37.9801363125" lon="-6.6398338135">
        <ele>570.20</ele>
        <time>2021-05-30T07:08:55Z</time>
      </trkpt>
      <trkpt lat="37.9802011047" lon="-6.6399877053">
        <ele>571.16</ele>
        <time>2021-05-30T07:08:56Z</time>
      </trkpt>
      <trkpt lat="37.9802624602" lon="-6.6401666589">
        <ele>573.08</ele>
        <time>2021-05-30T07:08:57Z</time>
      </trkpt>
      <trkpt lat="37.9803005140" lon="-6.6403659806">
        <ele>574.04</ele>
        <time>2021-05-30T07:08:58Z</time>
      </trkpt>
      <trkpt lat="37.9803321138" lon="-6.6405701637">
        <ele>575.49</ele>
        <time>2021-05-30T07:08:59Z</time>
      </trkpt>
      <trkpt lat="37.9803871829" lon="-6.6407673061">
        <ele>575.49</ele>
        <time>2021-05-30T07:09:00Z</time>
      </trkpt>
      <trkpt lat="37.9804579262" lon="-6.6409719083">
        <ele>577.41</ele>
        <time>2021-05-30T07:09:01Z</time>
      </trkpt>
      <trkpt lat="37.9805892706" lon="-6.6414329968">
        <ele>581.73</ele>
        <time>2021-05-30T07:09:03Z</time>
      </trkpt>
      <trkpt lat="37.9806327727" lon="-6.6416583024">
        <ele>581.73</ele>
        <time>2021-05-30T07:09:04Z</time>
      </trkpt>
      <trkpt lat="37.9806479439" lon="-6.6418641619">
        <ele>581.73</ele>
        <time>2021-05-30T07:09:05Z</time>
      </trkpt>
      <trkpt lat="37.9806641210" lon="-6.6420441214">
        <ele>580.77</ele>
        <time>2021-05-30T07:09:06Z</time>
      </trkpt>
      <trkpt lat="37.9807042703" lon="-6.6422174592">
        <ele>580.77</ele>
        <time>2021-05-30T07:09:07Z</time>
      </trkpt>
      <trkpt lat="37.9807744268" lon="-6.6423900425">
        <ele>583.18</ele>
        <time>2021-05-30T07:09:08Z</time>
      </trkpt>
      <trkpt lat="37.9808532167" lon="-6.6425565910">
        <ele>584.62</ele>
        <time>2021-05-30T07:09:09Z</time>
      </trkpt>
      <trkpt lat="37.9809076991" lon="-6.6427228041">
        <ele>584.14</ele>
        <time>2021-05-30T07:09:10Z</time>
      </trkpt>
      <trkpt lat="37.9809444118" lon="-6.6428801324">
        <ele>585.10</ele>
        <time>2021-05-30T07:09:11Z</time>
      </trkpt>
      <trkpt lat="37.9809830524" lon="-6.6430106387">
        <ele>585.58</ele>
        <time>2021-05-30T07:09:12Z</time>
      </trkpt>
      <trkpt lat="37.9810455814" lon="-6.6431005765">
        <ele>585.58</ele>
        <time>2021-05-30T07:09:13Z</time>
      </trkpt>
      <trkpt lat="37.9811337590" lon="-6.6431505326">
        <ele>586.06</ele>
        <time>2021-05-30T07:09:14Z</time>
      </trkpt>
      <trkpt lat="37.9812353477" lon="-6.6431547236">
        <ele>586.06</ele>
        <time>2021-05-30T07:09:15Z</time>
      </trkpt>
      <trkpt lat="37.9813226033" lon="-6.6431129817">
        <ele>586.54</ele>
        <time>2021-05-30T07:09:16Z</time>
      </trkpt>
      <trkpt lat="37.9813834559" lon="-6.6430387180">
        <ele>586.54</ele>
        <time>2021-05-30T07:09:17Z</time>
      </trkpt>
      <trkpt lat="37.9814209230" lon="-6.6429323517">
        <ele>587.98</ele>
        <time>2021-05-30T07:09:18Z</time>
      </trkpt>
      <trkpt lat="37.9814415425" lon="-6.6427875124">
        <ele>590.39</ele>
        <time>2021-05-30T07:09:19Z</time>
      </trkpt>
      <trkpt lat="37.9814544506" lon="-6.6426140908">
        <ele>592.31</ele>
        <time>2021-05-30T07:09:20Z</time>
      </trkpt>
      <trkpt lat="37.9814681970" lon="-6.6422461253">
        <ele>593.27</ele>
        <time>2021-05-30T07:09:22Z</time>
      </trkpt>
      <trkpt lat="37.9814483318" lon="-6.6420743801">
        <ele>593.27</ele>
        <time>2021-05-30T07:09:23Z</time>
      </trkpt>
      <trkpt lat="37.9814075120" lon="-6.6419016290">
        <ele>594.23</ele>
        <time>2021-05-30T07:09:24Z</time>
      </trkpt>
      <trkpt lat="37.9812974576" lon="-6.6414222680">
        <ele>594.23</ele>
        <time>2021-05-30T07:09:27Z</time>
      </trkpt>
      <trkpt lat="37.9813043308" lon="-6.6412769258">
        <ele>594.23</ele>
        <time>2021-05-30T07:09:28Z</time>
      </trkpt>
      <trkpt lat="37.9813481681" lon="-6.6411335114">
        <ele>594.71</ele>
        <time>2021-05-30T07:09:29Z</time>
      </trkpt>
      <trkpt lat="37.9814184923" lon="-6.6409964673">
        <ele>596.64</ele>
        <time>2021-05-30T07:09:30Z</time>
      </trkpt>
      <trkpt lat="37.9815017246" lon="-6.6408726666">
        <ele>597.60</ele>
        <time>2021-05-30T07:09:31Z</time>
      </trkpt>
      <trkpt lat="37.9816030618" lon="-6.6407711618">
        <ele>597.60</ele>
        <time>2021-05-30T07:09:32Z</time>
      </trkpt>
      <trkpt lat="37.9817269463" lon="-6.6406972334">
        <ele>599.04</ele>
        <time>2021-05-30T07:09:33Z</time>
      </trkpt>
      <trkpt lat="37.9818651639" lon="-6.6406340338">
        <ele>601.44</ele>
        <time>2021-05-30T07:09:34Z</time>
      </trkpt>
      <trkpt lat="37.9819987714" lon="-6.6405569203">
        <ele>601.92</ele>
        <time>2021-05-30T07:09:35Z</time>
      </trkpt>
      <trkpt lat="37.9821188003" lon="-6.6404510569">
        <ele>602.88</ele>
        <time>2021-05-30T07:09:36Z</time>
      </trkpt>
      <trkpt lat="37.9822201375" lon="-6.6403237358">
        <ele>603.85</ele>
        <time>2021-05-30T07:09:37Z</time>
      </trkpt>
      <trkpt lat="37.9823026154" lon="-6.6401965823">
        <ele>604.81</ele>
        <time>2021-05-30T07:09:38Z</time>
      </trkpt>
      <trkpt lat="37.9823537450" lon="-6.6400771402">
        <ele>603.85</ele>
        <time>2021-05-30T07:09:39Z</time>
      </trkpt>
      <trkpt lat="37.9823620431" lon="-6.6399541777">
        <ele>603.85</ele>
        <time>2021-05-30T07:09:40Z</time>
      </trkpt>
      <trkpt lat="37.9823351372" lon="-6.6398203187">
        <ele>606.25</ele>
        <time>2021-05-30T07:09:41Z</time>
      </trkpt>
      <trkpt lat="37.9822919704" lon="-6.6396681871">
        <ele>608.65</ele>
        <time>2021-05-30T07:09:42Z</time>
      </trkpt>
      <trkpt lat="37.9822569340" lon="-6.6394956037">
        <ele>610.09</ele>
        <time>2021-05-30T07:09:43Z</time>
      </trkpt>
      <trkpt lat="37.9822341353" lon="-6.6393277142">
        <ele>610.57</ele>
        <time>2021-05-30T07:09:44Z</time>
      </trkpt>
      <trkpt lat="37.9822299443" lon="-6.6391656082">
        <ele>611.54</ele>
        <time>2021-05-30T07:09:45Z</time>
      </trkpt>
      <trkpt lat="37.9822493903" lon="-6.6390062682">
        <ele>612.02</ele>
        <time>2021-05-30T07:09:46Z</time>
      </trkpt>
      <trkpt lat="37.9822875280" lon="-6.6388633568">
        <ele>613.46</ele>
        <time>2021-05-30T07:09:47Z</time>
      </trkpt>
      <trkpt lat="37.9823490512" lon="-6.6387413163">
        <ele>612.98</ele>
        <time>2021-05-30T07:09:48Z</time>
      </trkpt>
      <trkpt lat="37.9824353009" lon="-6.6386386380">
        <ele>613.94</ele>
        <time>2021-05-30T07:09:49Z</time>
      </trkpt>
      <trkpt lat="37.9825296812" lon="-6.6385718342">
        <ele>613.94</ele>
        <time>2021-05-30T07:09:50Z</time>
      </trkpt>
      <trkpt lat="37.9826354608" lon="-6.6385497060">
        <ele>614.90</ele>
        <time>2021-05-30T07:09:51Z</time>
      </trkpt>
      <trkpt lat="37.9827559087" lon="-6.6385626979">
        <ele>616.34</ele>
        <time>2021-05-30T07:09:52Z</time>
      </trkpt>
      <trkpt lat="37.9828896839" lon="-6.6385952197">
        <ele>618.75</ele>
        <time>2021-05-30T07:09:53Z</time>
      </trkpt>
      <trkpt lat="37.9830382112" lon="-6.6386227123">
        <ele>619.23</ele>
        <time>2021-05-30T07:09:54Z</time>
      </trkpt>
      <trkpt lat="37.9831938632" lon="-6.6386200301">
        <ele>620.67</ele>
        <time>2021-05-30T07:09:55Z</time>
      </trkpt>
      <trkpt lat="37.9834853020" lon="-6.6385945491">
        <ele>619.23</ele>
        <time>2021-05-30T07:09:57Z</time>
      </trkpt>
      <trkpt lat="37.9836115334" lon="-6.6386168450">
        <ele>617.78</ele>
        <time>2021-05-30T07:09:58Z</time>
      </trkpt>
      <trkpt lat="37.9837160558" lon="-6.6386603471">
        <ele>616.34</ele>
        <time>2021-05-30T07:09:59Z</time>
      </trkpt>
      <trkpt lat="37.9838007130" lon="-6.6387438308">
        <ele>615.86</ele>
        <time>2021-05-30T07:10:00Z</time>
      </trkpt>
      <trkpt lat="37.9838783294" lon="-6.6388634406">
        <ele>616.82</ele>
        <time>2021-05-30T07:10:01Z</time>
      </trkpt>
      <trkpt lat="37.9840363283" lon="-6.6390835494">
        <ele>617.78</ele>
        <time>2021-05-30T07:10:03Z</time>
      </trkpt>
      <trkpt lat="37.9841144476" lon="-6.6391498502">
        <ele>615.38</ele>
        <time>2021-05-30T07:10:04Z</time>
      </trkpt>
      <trkpt lat="37.9841940757" lon="-6.6391740739">
        <ele>615.38</ele>
        <time>2021-05-30T07:10:05Z</time>
      </trkpt>
      <trkpt lat="37.9842770565" lon="-6.6391469166">
        <ele>615.38</ele>
        <time>2021-05-30T07:10:06Z</time>
      </trkpt>
      <trkpt lat="37.9843661562" lon="-6.6390719824">
        <ele>616.82</ele>
        <time>2021-05-30T07:10:07Z</time>
      </trkpt>
      <trkpt lat="37.9844672419" lon="-6.6389745008">
        <ele>618.26</ele>
        <time>2021-05-30T07:10:08Z</time>
      </trkpt>
      <trkpt lat="37.9845722672" lon="-6.6388854012">
        <ele>618.26</ele>
        <time>2021-05-30T07:10:09Z</time>
      </trkpt>
      <trkpt lat="37.9846829083" lon="-6.6388265602">
        <ele>619.23</ele>
        <time>2021-05-30T07:10:10Z</time>
      </trkpt>
      <trkpt lat="37.9848108999" lon="-6.6387994029">
        <ele>620.19</ele>
        <time>2021-05-30T07:10:11Z</time>
      </trkpt>
      <trkpt lat="37.9849478602" lon="-6.6387817170">
        <ele>621.15</ele>
        <time>2021-05-30T07:10:12Z</time>
      </trkpt>
      <trkpt lat="37.9850717448" lon="-6.6387467645">
        <ele>621.15</ele>
        <time>2021-05-30T07:10:13Z</time>
      </trkpt>
      <trkpt lat="37.9851766862" lon="-6.6386823077">
        <ele>621.63</ele>
        <time>2021-05-30T07:10:14Z</time>
      </trkpt>
      <trkpt lat="37.9852620140" lon="-6.6385870054">
        <ele>621.15</ele>
        <time>2021-05-30T07:10:15Z</time>
      </trkpt>
      <trkpt lat="37.9853251297" lon="-6.6384585947">
        <ele>621.15</ele>
        <time>2021-05-30T07:10:16Z</time>
      </trkpt>
      <trkpt lat="37.9853719007" lon="-6.6383012664">
        <ele>621.63</ele>
        <time>2021-05-30T07:10:17Z</time>
      </trkpt>
      <trkpt lat="37.9854198452" lon="-6.6381399985">
        <ele>621.15</ele>
        <time>2021-05-30T07:10:18Z</time>
      </trkpt>
      <trkpt lat="37.9854783509" lon="-6.6380026191">
        <ele>619.71</ele>
        <time>2021-05-30T07:10:19Z</time>
      </trkpt>
      <trkpt lat="37.9855449870" lon="-6.6379036289">
        <ele>616.82</ele>
        <time>2021-05-30T07:10:20Z</time>
      </trkpt>
      <trkpt lat="37.9856137186" lon="-6.6378494818">
        <ele>614.90</ele>
        <time>2021-05-30T07:10:21Z</time>
      </trkpt>
      <trkpt lat="37.9856783431" lon="-6.6378438659">
        <ele>614.42</ele>
        <time>2021-05-30T07:10:22Z</time>
      </trkpt>
      <trkpt lat="37.9857285507" lon="-6.6378628090">
        <ele>613.94</ele>
        <time>2021-05-30T07:10:23Z</time>
      </trkpt>
      <trkpt lat="37.9857598152" lon="-6.6378833447">
        <ele>613.46</ele>
        <time>2021-05-30T07:10:24Z</time>
      </trkpt>
      <trkpt lat="37.9857744835" lon="-6.6379014496">
        <ele>612.50</ele>
        <time>2021-05-30T07:10:25Z</time>
      </trkpt>
      <trkpt lat="37.9857546184" lon="-6.6379362345">
        <ele>612.98</ele>
        <time>2021-05-30T07:10:41Z</time>
      </trkpt>
      <trkpt lat="37.9857819434" lon="-6.6379669122">
        <ele>612.50</ele>
        <time>2021-05-30T07:11:07Z</time>
      </trkpt>
      <trkpt lat="37.9858210031" lon="-6.6380248312">
        <ele>612.50</ele>
        <time>2021-05-30T07:11:08Z</time>
      </trkpt>
      <trkpt lat="37.9860861227" lon="-6.6384429205">
        <ele>616.82</ele>
        <time>2021-05-30T07:11:12Z</time>
      </trkpt>
      <trkpt lat="37.9862841032" lon="-6.6387033463">
        <ele>620.19</ele>
        <time>2021-05-30T07:11:14Z</time>
      </trkpt>
      <trkpt lat="37.9866002686" lon="-6.6391253751">
        <ele>623.55</ele>
        <time>2021-05-30T07:11:17Z</time>
      </trkpt>
      <trkpt lat="37.9867882747" lon="-6.6394488327">
        <ele>624.99</ele>
        <time>2021-05-30T07:11:19Z</time>
      </trkpt>
      <trkpt lat="37.9869506322" lon="-6.6397008765">
        <ele>623.55</ele>
        <time>2021-05-30T07:11:21Z</time>
      </trkpt>
      <trkpt lat="37.9870252311" lon="-6.6397636570">
        <ele>624.03</ele>
        <time>2021-05-30T07:11:22Z</time>
      </trkpt>
      <trkpt lat="37.9870896041" lon="-6.6397769004">
        <ele>624.03</ele>
        <time>2021-05-30T07:11:23Z</time>
      </trkpt>
      <trkpt lat="37.9871507082" lon="-6.6397453006">
        <ele>624.99</ele>
        <time>2021-05-30T07:11:24Z</time>
      </trkpt>
      <trkpt lat="37.9872201104" lon="-6.6396784969">
        <ele>626.44</ele>
        <time>2021-05-30T07:11:25Z</time>
      </trkpt>
      <trkpt lat="37.9872992355" lon="-6.6395937558">
        <ele>627.40</ele>
        <time>2021-05-30T07:11:26Z</time>
      </trkpt>
      <trkpt lat="37.9873764329" lon="-6.6394899040">
        <ele>628.84</ele>
        <time>2021-05-30T07:11:27Z</time>
      </trkpt>
      <trkpt lat="37.9874399677" lon="-6.6393594816">
        <ele>629.80</ele>
        <time>2021-05-30T07:11:28Z</time>
      </trkpt>
      <trkpt lat="37.9874938633" lon="-6.6392047517">
        <ele>631.72</ele>
        <time>2021-05-30T07:11:29Z</time>
      </trkpt>
      <trkpt lat="37.9875393771" lon="-6.6390299052">
        <ele>632.68</ele>
        <time>2021-05-30T07:11:30Z</time>
      </trkpt>
      <trkpt lat="37.9875790235" lon="-6.6388469283">
        <ele>634.13</ele>
        <time>2021-05-30T07:11:31Z</time>
      </trkpt>
      <trkpt lat="37.9876884073" lon="-6.6383038647">
        <ele>637.01</ele>
        <time>2021-05-30T07:11:34Z</time>
      </trkpt>
      <trkpt lat="37.9878157284" lon="-6.6376261041">
        <ele>637.49</ele>
        <time>2021-05-30T07:11:40Z</time>
      </trkpt>
      <trkpt lat="37.9878604878" lon="-6.6374456417">
        <ele>637.01</ele>
        <time>2021-05-30T07:11:43Z</time>
      </trkpt>
      <trkpt lat="37.9878811073" lon="-6.6374025587">
        <ele>636.53</ele>
        <time>2021-05-30T07:11:44Z</time>
      </trkpt>
      <trkpt lat="37.9879074264" lon="-6.6373692825">
        <ele>637.01</ele>
        <time>2021-05-30T07:11:45Z</time>
      </trkpt>
      <trkpt lat="37.9879353382" lon="-6.6373506747">
        <ele>637.01</ele>
        <time>2021-05-30T07:11:46Z</time>
      </trkpt>
      <trkpt lat="37.9879630823" lon="-6.6373488307">
        <ele>636.05</ele>
        <time>2021-05-30T07:11:47Z</time>
      </trkpt>
      <trkpt lat="37.9879925866" lon="-6.6373554524">
        <ele>637.01</ele>
        <time>2021-05-30T07:11:48Z</time>
      </trkpt>
      <trkpt lat="37.9880333226" lon="-6.6373678576">
        <ele>637.49</ele>
        <time>2021-05-30T07:11:49Z</time>
      </trkpt>
      <trkpt lat="37.9880836140" lon="-6.6373878904">
        <ele>637.49</ele>
        <time>2021-05-30T07:11:50Z</time>
      </trkpt>
      <trkpt lat="37.9881300498" lon="-6.6374142934">
        <ele>637.49</ele>
        <time>2021-05-30T07:11:51Z</time>
      </trkpt>
      <trkpt lat="37.9882660881" lon="-6.6374884732">
        <ele>638.45</ele>
        <time>2021-05-30T07:11:55Z</time>
      </trkpt>
      <trkpt lat="37.9883131105" lon="-6.6374832764">
        <ele>638.45</ele>
        <time>2021-05-30T07:11:56Z</time>
      </trkpt>
      <trkpt lat="37.9883657489" lon="-6.6374619026">
        <ele>639.41</ele>
        <time>2021-05-30T07:11:57Z</time>
      </trkpt>
      <trkpt lat="37.9884212371" lon="-6.6374267824">
        <ele>639.41</ele>
        <time>2021-05-30T07:11:58Z</time>
      </trkpt>
      <trkpt lat="37.9884746298" lon="-6.6373821069">
        <ele>639.89</ele>
        <time>2021-05-30T07:11:59Z</time>
      </trkpt>
      <trkpt lat="37.9885279387" lon="-6.6373308096">
        <ele>639.89</ele>
        <time>2021-05-30T07:12:00Z</time>
      </trkpt>
      <trkpt lat="37.9886998516" lon="-6.6371956933">
        <ele>640.38</ele>
        <time>2021-05-30T07:12:03Z</time>
      </trkpt>
      <trkpt lat="37.9887554236" lon="-6.6371890716">
        <ele>640.38</ele>
        <time>2021-05-30T07:12:04Z</time>
      </trkpt>
      <trkpt lat="37.9888026137" lon="-6.6372052487">
        <ele>639.89</ele>
        <time>2021-05-30T07:12:05Z</time>
      </trkpt>
      <trkpt lat="37.9888550006" lon="-6.6372378543">
        <ele>640.86</ele>
        <time>2021-05-30T07:12:06Z</time>
      </trkpt>
      <trkpt lat="37.9889285099" lon="-6.6372789256">
        <ele>641.82</ele>
        <time>2021-05-30T07:12:07Z</time>
      </trkpt>
      <trkpt lat="37.9890147597" lon="-6.6373085976">
        <ele>642.78</ele>
        <time>2021-05-30T07:12:08Z</time>
      </trkpt>
      <trkpt lat="37.9891112354" lon="-6.6373120341">
        <ele>643.74</ele>
        <time>2021-05-30T07:12:09Z</time>
      </trkpt>
      <trkpt lat="37.9892232176" lon="-6.6372871399">
        <ele>645.18</ele>
        <time>2021-05-30T07:12:10Z</time>
      </trkpt>
      <trkpt lat="37.9893492814" lon="-6.6372445598">
        <ele>647.10</ele>
        <time>2021-05-30T07:12:11Z</time>
      </trkpt>
      <trkpt lat="37.9894807935" lon="-6.6372134630">
        <ele>647.59</ele>
        <time>2021-05-30T07:12:12Z</time>
      </trkpt>
      <trkpt lat="37.9896027502" lon="-6.6371993814">
        <ele>647.59</ele>
        <time>2021-05-30T07:12:13Z</time>
      </trkpt>
      <trkpt lat="37.9897061829" lon="-6.6371881496">
        <ele>646.62</ele>
        <time>2021-05-30T07:12:14Z</time>
      </trkpt>
      <trkpt lat="37.9897870682" lon="-6.6371566337">
        <ele>647.10</ele>
        <time>2021-05-30T07:12:15Z</time>
      </trkpt>
      <trkpt lat="37.9898422211" lon="-6.6370930988">
        <ele>647.10</ele>
        <time>2021-05-30T07:12:16Z</time>
      </trkpt>
      <trkpt lat="37.9898698814" lon="-6.6370002273">
        <ele>648.07</ele>
        <time>2021-05-30T07:12:17Z</time>
      </trkpt>
      <trkpt lat="37.9898765869" lon="-6.6368770134">
        <ele>649.03</ele>
        <time>2021-05-30T07:12:18Z</time>
      </trkpt>
      <trkpt lat="37.9898692947" lon="-6.6367226187">
        <ele>650.95</ele>
        <time>2021-05-30T07:12:19Z</time>
      </trkpt>
      <trkpt lat="37.9898550455" lon="-6.6365339421">
        <ele>652.39</ele>
        <time>2021-05-30T07:12:20Z</time>
      </trkpt>
      <trkpt lat="37.9898442328" lon="-6.6363306809">
        <ele>652.87</ele>
        <time>2021-05-30T07:12:21Z</time>
      </trkpt>
      <trkpt lat="37.9898336716" lon="-6.6358563490">
        <ele>651.91</ele>
        <time>2021-05-30T07:12:24Z</time>
      </trkpt>
      <trkpt lat="37.9898639303" lon="-6.6357848514">
        <ele>650.47</ele>
        <time>2021-05-30T07:12:25Z</time>
      </trkpt>
      <trkpt lat="37.9899184965" lon="-6.6357618850">
        <ele>650.47</ele>
        <time>2021-05-30T07:12:26Z</time>
      </trkpt>
      <trkpt lat="37.9899917543" lon="-6.6357868630">
        <ele>649.99</ele>
        <time>2021-05-30T07:12:27Z</time>
      </trkpt>
      <trkpt lat="37.9900682811" lon="-6.6358667426">
        <ele>651.91</ele>
        <time>2021-05-30T07:12:28Z</time>
      </trkpt>
      <trkpt lat="37.9901546985" lon="-6.6359788086">
        <ele>652.87</ele>
        <time>2021-05-30T07:12:29Z</time>
      </trkpt>
      <trkpt lat="37.9903546907" lon="-6.6362279188">
        <ele>656.24</ele>
        <time>2021-05-30T07:12:31Z</time>
      </trkpt>
      <trkpt lat="37.9904515855" lon="-6.6363354586">
        <ele>656.24</ele>
        <time>2021-05-30T07:12:32Z</time>
      </trkpt>
      <trkpt lat="37.9905456305" lon="-6.6364112310">
        <ele>655.76</ele>
        <time>2021-05-30T07:12:33Z</time>
      </trkpt>
      <trkpt lat="37.9906389210" lon="-6.6364473570">
        <ele>656.24</ele>
        <time>2021-05-30T07:12:34Z</time>
      </trkpt>
      <trkpt lat="37.9907266796" lon="-6.6364399809">
        <ele>656.72</ele>
        <time>2021-05-30T07:12:35Z</time>
      </trkpt>
      <trkpt lat="37.9907950759" lon="-6.6363910306">
        <ele>657.20</ele>
        <time>2021-05-30T07:12:36Z</time>
      </trkpt>
      <trkpt lat="37.9908434395" lon="-6.6363033559">
        <ele>658.64</ele>
        <time>2021-05-30T07:12:37Z</time>
      </trkpt>
      <trkpt lat="37.9908829182" lon="-6.6361869313">
        <ele>659.60</ele>
        <time>2021-05-30T07:12:38Z</time>
      </trkpt>
      <trkpt lat="37.9909425974" lon="-6.6360580176">
        <ele>662.01</ele>
        <time>2021-05-30T07:12:39Z</time>
      </trkpt>
      <trkpt lat="37.9910361394" lon="-6.6359343007">
        <ele>664.41</ele>
        <time>2021-05-30T07:12:40Z</time>
      </trkpt>
      <trkpt lat="37.9911513906" lon="-6.6358203068">
        <ele>665.85</ele>
        <time>2021-05-30T07:12:41Z</time>
      </trkpt>
      <trkpt lat="37.9912610259" lon="-6.6357103363">
        <ele>665.85</ele>
        <time>2021-05-30T07:12:42Z</time>
      </trkpt>
      <trkpt lat="37.9913509637" lon="-6.6356048081">
        <ele>666.33</ele>
        <time>2021-05-30T07:12:43Z</time>
      </trkpt>
      <trkpt lat="37.9914321005" lon="-6.6355197318">
        <ele>666.33</ele>
        <time>2021-05-30T07:12:44Z</time>
      </trkpt>
      <trkpt lat="37.9915108066" lon="-6.6354851983">
        <ele>665.85</ele>
        <time>2021-05-30T07:12:45Z</time>
      </trkpt>
      <trkpt lat="37.9915880039" lon="-6.6355106793">
        <ele>665.85</ele>
        <time>2021-05-30T07:12:46Z</time>
      </trkpt>
      <trkpt lat="37.9916556459" lon="-6.6355932411">
        <ele>666.81</ele>
        <time>2021-05-30T07:12:47Z</time>
      </trkpt>
      <trkpt lat="37.9917030875" lon="-6.6357229929">
        <ele>667.77</ele>
        <time>2021-05-30T07:12:48Z</time>
      </trkpt>
      <trkpt lat="37.9917347711" lon="-6.6358774714">
        <ele>669.22</ele>
        <time>2021-05-30T07:12:49Z</time>
      </trkpt>
      <trkpt lat="37.9917654488" lon="-6.6360346321">
        <ele>670.66</ele>
        <time>2021-05-30T07:12:50Z</time>
      </trkpt>
      <trkpt lat="37.9918101244" lon="-6.6361881047">
        <ele>670.66</ele>
        <time>2021-05-30T07:12:51Z</time>
      </trkpt>
      <trkpt lat="37.9918815382" lon="-6.6363399010">
        <ele>672.58</ele>
        <time>2021-05-30T07:12:52Z</time>
      </trkpt>
      <trkpt lat="37.9919837974" lon="-6.6364858299">
        <ele>674.98</ele>
        <time>2021-05-30T07:12:53Z</time>
      </trkpt>
      <trkpt lat="37.9921078496" lon="-6.6366175935">
        <ele>676.42</ele>
        <time>2021-05-30T07:12:54Z</time>
      </trkpt>
      <trkpt lat="37.9922350030" lon="-6.6367283184">
        <ele>677.39</ele>
        <time>2021-05-30T07:12:55Z</time>
      </trkpt>
      <trkpt lat="37.9923552833" lon="-6.6368103772">
        <ele>677.39</ele>
        <time>2021-05-30T07:12:56Z</time>
      </trkpt>
      <trkpt lat="37.9924796708" lon="-6.6368641052">
        <ele>678.83</ele>
        <time>2021-05-30T07:12:57Z</time>
      </trkpt>
      <trkpt lat="37.9926043935" lon="-6.6368998960">
        <ele>678.83</ele>
        <time>2021-05-30T07:12:58Z</time>
      </trkpt>
      <trkpt lat="37.9927279428" lon="-6.6369152348">
        <ele>679.31</ele>
        <time>2021-05-30T07:12:59Z</time>
      </trkpt>
      <trkpt lat="37.9928572755" lon="-6.6369012371">
        <ele>680.27</ele>
        <time>2021-05-30T07:13:00Z</time>
      </trkpt>
      <trkpt lat="37.9929882847" lon="-6.6368910111">
        <ele>681.23</ele>
        <time>2021-05-30T07:13:01Z</time>
      </trkpt>
      <trkpt lat="37.9931178689" lon="-6.6369241197">
        <ele>682.19</ele>
        <time>2021-05-30T07:13:02Z</time>
      </trkpt>
      <trkpt lat="37.9932405800" lon="-6.6369957011">
        <ele>683.15</ele>
        <time>2021-05-30T07:13:03Z</time>
      </trkpt>
      <trkpt lat="37.9933438450" lon="-6.6370874830">
        <ele>682.67</ele>
        <time>2021-05-30T07:13:04Z</time>
      </trkpt>
      <trkpt lat="37.9934153426" lon="-6.6371992137">
        <ele>682.67</ele>
        <time>2021-05-30T07:13:05Z</time>
      </trkpt>
      <trkpt lat="37.9934471101" lon="-6.6373385210">
        <ele>682.67</ele>
        <time>2021-05-30T07:13:06Z</time>
      </trkpt>
      <trkpt lat="37.9934368841" lon="-6.6375090089">
        <ele>684.12</ele>
        <time>2021-05-30T07:13:07Z</time>
      </trkpt>
      <trkpt lat="37.9934067931" lon="-6.6377029661">
        <ele>685.56</ele>
        <time>2021-05-30T07:13:08Z</time>
      </trkpt>
      <trkpt lat="37.9933042824" lon="-6.6383455228">
        <ele>689.40</ele>
        <time>2021-05-30T07:13:11Z</time>
      </trkpt>
      <trkpt lat="37.9932028614" lon="-6.6387125663">
        <ele>691.81</ele>
        <time>2021-05-30T07:13:13Z</time>
      </trkpt>
      <trkpt lat="37.9931812361" lon="-6.6388504487">
        <ele>690.36</ele>
        <time>2021-05-30T07:13:14Z</time>
      </trkpt>
      <trkpt lat="37.9931929708" lon="-6.6389692202">
        <ele>689.88</ele>
        <time>2021-05-30T07:13:15Z</time>
      </trkpt>
      <trkpt lat="37.9932354670" lon="-6.6390761733">
        <ele>688.92</ele>
        <time>2021-05-30T07:13:16Z</time>
      </trkpt>
      <trkpt lat="37.9933109879" lon="-6.6391769238">
        <ele>688.92</ele>
        <time>2021-05-30T07:13:17Z</time>
      </trkpt>
      <trkpt lat="37.9934199527" lon="-6.6392708849">
        <ele>690.84</ele>
        <time>2021-05-30T07:13:18Z</time>
      </trkpt>
      <trkpt lat="37.9935558233" lon="-6.6393612418">
        <ele>692.29</ele>
        <time>2021-05-30T07:13:19Z</time>
      </trkpt>
      <trkpt lat="37.9938339349" lon="-6.6395877209">
        <ele>695.17</ele>
        <time>2021-05-30T07:13:21Z</time>
      </trkpt>
      <trkpt lat="37.9939339310" lon="-6.6397380922">
        <ele>695.17</ele>
        <time>2021-05-30T07:13:22Z</time>
      </trkpt>
      <trkpt lat="37.9939918499" lon="-6.6399030481">
        <ele>695.17</ele>
        <time>2021-05-30T07:13:23Z</time>
      </trkpt>
      <trkpt lat="37.9940776806" lon="-6.6401871108">
        <ele>695.17</ele>
        <time>2021-05-30T07:13:25Z</time>
      </trkpt>
      <trkpt lat="37.9941507708" lon="-6.6402817424">
        <ele>695.17</ele>
        <time>2021-05-30T07:13:26Z</time>
      </trkpt>
      <trkpt lat="37.9942403734" lon="-6.6403402481">
        <ele>696.13</ele>
        <time>2021-05-30T07:13:27Z</time>
      </trkpt>
      <trkpt lat="37.9943323229" lon="-6.6403489653">
        <ele>696.61</ele>
        <time>2021-05-30T07:13:28Z</time>
      </trkpt>
      <trkpt lat="37.9944338277" lon="-6.6403103247">
        <ele>698.53</ele>
        <time>2021-05-30T07:13:29Z</time>
      </trkpt>
      <trkpt lat="37.9945562873" lon="-6.6402457003">
        <ele>699.50</ele>
        <time>2021-05-30T07:13:30Z</time>
      </trkpt>
      <trkpt lat="37.9946921580" lon="-6.6401799023">
        <ele>700.94</ele>
        <time>2021-05-30T07:13:31Z</time>
      </trkpt>
      <trkpt lat="37.9948270228" lon="-6.6401485540">
        <ele>700.46</ele>
        <time>2021-05-30T07:13:32Z</time>
      </trkpt>
      <trkpt lat="37.9949569423" lon="-6.6401584446">
        <ele>699.50</ele>
        <time>2021-05-30T07:13:33Z</time>
      </trkpt>
      <trkpt lat="37.9951944016" lon="-6.6401998512">
        <ele>699.50</ele>
        <time>2021-05-30T07:13:35Z</time>
      </trkpt>
      <trkpt lat="37.9953232314" lon="-6.6401732806">
        <ele>699.98</ele>
        <time>2021-05-30T07:13:36Z</time>
      </trkpt>
      <trkpt lat="37.9954650532" lon="-6.6401136015">
        <ele>701.90</ele>
        <time>2021-05-30T07:13:37Z</time>
      </trkpt>
      <trkpt lat="37.9955997504" lon="-6.6400321294">
        <ele>702.86</ele>
        <time>2021-05-30T07:13:38Z</time>
      </trkpt>
      <trkpt lat="37.9957206175" lon="-6.6399203986">
        <ele>702.38</ele>
        <time>2021-05-30T07:13:39Z</time>
      </trkpt>
      <trkpt lat="37.9958307557" lon="-6.6397731286">
        <ele>703.82</ele>
        <time>2021-05-30T07:13:40Z</time>
      </trkpt>
      <trkpt lat="37.9959346913" lon="-6.6395985335">
        <ele>706.23</ele>
        <time>2021-05-30T07:13:41Z</time>
      </trkpt>
      <trkpt lat="37.9960366990" lon="-6.6394025646">
        <ele>708.15</ele>
        <time>2021-05-30T07:13:42Z</time>
      </trkpt>
      <trkpt lat="37.9961319175" lon="-6.6392014828">
        <ele>708.63</ele>
        <time>2021-05-30T07:13:43Z</time>
      </trkpt>
      <trkpt lat="37.9962681234" lon="-6.6388108861">
        <ele>706.23</ele>
        <time>2021-05-30T07:13:45Z</time>
      </trkpt>
      <trkpt lat="37.9962969571" lon="-6.6386147495">
        <ele>706.23</ele>
        <time>2021-05-30T07:13:46Z</time>
      </trkpt>
      <trkpt lat="37.9963401239" lon="-6.6382608656">
        <ele>702.86</ele>
        <time>2021-05-30T07:13:48Z</time>
      </trkpt>
      <trkpt lat="37.9964024853" lon="-6.6381203011">
        <ele>701.42</ele>
        <time>2021-05-30T07:13:49Z</time>
      </trkpt>
      <trkpt lat="37.9965041578" lon="-6.6380045470">
        <ele>700.46</ele>
        <time>2021-05-30T07:13:50Z</time>
      </trkpt>
      <trkpt lat="37.9966355860" lon="-6.6379055567">
        <ele>701.42</ele>
        <time>2021-05-30T07:13:51Z</time>
      </trkpt>
      <trkpt lat="37.9967764020" lon="-6.6377954185">
        <ele>701.42</ele>
        <time>2021-05-30T07:13:52Z</time>
      </trkpt>
      <trkpt lat="37.9969029687" lon="-6.6376615595">
        <ele>700.94</ele>
        <time>2021-05-30T07:13:53Z</time>
      </trkpt>
      <trkpt lat="37.9970203154" lon="-6.6375251021">
        <ele>699.02</ele>
        <time>2021-05-30T07:13:54Z</time>
      </trkpt>
      <trkpt lat="37.9971468821" lon="-6.6374165565">
        <ele>696.61</ele>
        <time>2021-05-30T07:13:55Z</time>
      </trkpt>
      <trkpt lat="37.9972916376" lon="-6.6373427957">
        <ele>697.09</ele>
        <time>2021-05-30T07:13:56Z</time>
      </trkpt>
      <trkpt lat="37.9974493850" lon="-6.6372881457">
        <ele>697.57</ele>
        <time>2021-05-30T07:13:57Z</time>
      </trkpt>
      <trkpt lat="37.9976117425" lon="-6.6372575518">
        <ele>697.09</ele>
        <time>2021-05-30T07:13:58Z</time>
      </trkpt>
      <trkpt lat="37.9977844935" lon="-6.6372657660">
        <ele>697.09</ele>
        <time>2021-05-30T07:13:59Z</time>
      </trkpt>
      <trkpt lat="37.9979718290" lon="-6.6373122018">
        <ele>698.05</ele>
        <time>2021-05-30T07:14:00Z</time>
      </trkpt>
      <trkpt lat="37.9981698934" lon="-6.6373779159">
        <ele>700.46</ele>
        <time>2021-05-30T07:14:01Z</time>
      </trkpt>
      <trkpt lat="37.9987583868" lon="-6.6375867929">
        <ele>702.38</ele>
        <time>2021-05-30T07:14:04Z</time>
      </trkpt>
      <trkpt lat="37.9990905616" lon="-6.6376926564">
        <ele>700.46</ele>
        <time>2021-05-30T07:14:06Z</time>
      </trkpt>
      <trkpt lat="37.9992367420" lon="-6.6377039719">
        <ele>700.46</ele>
        <time>2021-05-30T07:14:07Z</time>
      </trkpt>
      <trkpt lat="37.9993687570" lon="-6.6376684327">
        <ele>699.50</ele>
        <time>2021-05-30T07:14:08Z</time>
      </trkpt>
      <trkpt lat="37.9994893726" lon="-6.6375921573">
        <ele>699.98</ele>
        <time>2021-05-30T07:14:09Z</time>
      </trkpt>
      <trkpt lat="37.9996006843" lon="-6.6375059914">
        <ele>700.46</ele>
        <time>2021-05-30T07:14:10Z</time>
      </trkpt>
      <trkpt lat="37.9997084755" lon="-6.6374442168">
        <ele>700.46</ele>
        <time>2021-05-30T07:14:11Z</time>
      </trkpt>
      <trkpt lat="37.9998162668" lon="-6.6374240164">
        <ele>699.02</ele>
        <time>2021-05-30T07:14:12Z</time>
      </trkpt>
      <trkpt lat="37.9999286681" lon="-6.6374494135">
        <ele>699.50</ele>
        <time>2021-05-30T07:14:13Z</time>
      </trkpt>
      <trkpt lat="38.0000545643" lon="-6.6375079192">
        <ele>699.02</ele>
        <time>2021-05-30T07:14:14Z</time>
      </trkpt>
      <trkpt lat="38.0001903512" lon="-6.6375769861">
        <ele>699.02</ele>
        <time>2021-05-30T07:14:15Z</time>
      </trkpt>
      <trkpt lat="38.0005837977" lon="-6.6377892997">
        <ele>696.13</ele>
        <time>2021-05-30T07:14:18Z</time>
      </trkpt>
      <trkpt lat="38.0006948579" lon="-6.6378816683">
        <ele>694.21</ele>
        <time>2021-05-30T07:14:19Z</time>
      </trkpt>
      <trkpt lat="38.0007851310" lon="-6.6379789822">
        <ele>692.29</ele>
        <time>2021-05-30T07:14:20Z</time>
      </trkpt>
      <trkpt lat="38.0008432176" lon="-6.6380894557">
        <ele>690.36</ele>
        <time>2021-05-30T07:14:21Z</time>
      </trkpt>
      <trkpt lat="38.0008755717" lon="-6.6382309422">
        <ele>689.88</ele>
        <time>2021-05-30T07:14:22Z</time>
      </trkpt>
      <trkpt lat="38.0008903239" lon="-6.6383938026">
        <ele>690.36</ele>
        <time>2021-05-30T07:14:23Z</time>
      </trkpt>
      <trkpt lat="38.0009119492" lon="-6.6385554895">
        <ele>689.40</ele>
        <time>2021-05-30T07:14:24Z</time>
      </trkpt>
      <trkpt lat="38.0009509251" lon="-6.6387077887">
        <ele>687.96</ele>
        <time>2021-05-30T07:14:25Z</time>
      </trkpt>
      <trkpt lat="38.0010105204" lon="-6.6388504487">
        <ele>687.48</ele>
        <time>2021-05-30T07:14:26Z</time>
      </trkpt>
      <trkpt lat="38.0010924116" lon="-6.6389849782">
        <ele>686.52</ele>
        <time>2021-05-30T07:14:27Z</time>
      </trkpt>
      <trkpt lat="38.0011954252" lon="-6.6391151492">
        <ele>686.04</ele>
        <time>2021-05-30T07:14:28Z</time>
      </trkpt>
      <trkpt lat="38.0013151187" lon="-6.6392363515">
        <ele>685.56</ele>
        <time>2021-05-30T07:14:29Z</time>
      </trkpt>
      <trkpt lat="38.0014442839" lon="-6.6393342521">
        <ele>685.56</ele>
        <time>2021-05-30T07:14:30Z</time>
      </trkpt>
      <trkpt lat="38.0015739519" lon="-6.6394047439">
        <ele>683.15</ele>
        <time>2021-05-30T07:14:31Z</time>
      </trkpt>
      <trkpt lat="38.0017047934" lon="-6.6394410376">
        <ele>681.23</ele>
        <time>2021-05-30T07:14:32Z</time>
      </trkpt>
      <trkpt lat="38.0018358026" lon="-6.6394453123">
        <ele>679.79</ele>
        <time>2021-05-30T07:14:33Z</time>
      </trkpt>
      <trkpt lat="38.0019571725" lon="-6.6394587234">
        <ele>677.87</ele>
        <time>2021-05-30T07:14:34Z</time>
      </trkpt>
      <trkpt lat="38.0020640418" lon="-6.6395002138">
        <ele>677.39</ele>
        <time>2021-05-30T07:14:35Z</time>
      </trkpt>
      <trkpt lat="38.0021493696" lon="-6.6395690292">
        <ele>676.91</ele>
        <time>2021-05-30T07:14:36Z</time>
      </trkpt>
      <trkpt lat="38.0022137426" lon="-6.6396716237">
        <ele>676.91</ele>
        <time>2021-05-30T07:14:37Z</time>
      </trkpt>
      <trkpt lat="38.0022673029" lon="-6.6397969332">
        <ele>677.87</ele>
        <time>2021-05-30T07:14:38Z</time>
      </trkpt>
      <trkpt lat="38.0023262277" lon="-6.6399153695">
        <ele>676.42</ele>
        <time>2021-05-30T07:14:39Z</time>
      </trkpt>
      <trkpt lat="38.0024035089" lon="-6.6400086600">
        <ele>675.94</ele>
        <time>2021-05-30T07:14:40Z</time>
      </trkpt>
      <trkpt lat="38.0025104620" lon="-6.6400754638">
        <ele>676.91</ele>
        <time>2021-05-30T07:14:41Z</time>
      </trkpt>
      <trkpt lat="38.0026369449" lon="-6.6401137691">
        <ele>676.42</ele>
        <time>2021-05-30T07:14:42Z</time>
      </trkpt>
      <trkpt lat="38.0027586501" lon="-6.6401519906">
        <ele>675.94</ele>
        <time>2021-05-30T07:14:43Z</time>
      </trkpt>
      <trkpt lat="38.0028645974" lon="-6.6402160283">
        <ele>674.02</ele>
        <time>2021-05-30T07:14:44Z</time>
      </trkpt>
      <trkpt lat="38.0029556248" lon="-6.6403044574">
        <ele>674.02</ele>
        <time>2021-05-30T07:14:45Z</time>
      </trkpt>
      <trkpt lat="38.0030373484" lon="-6.6404178645">
        <ele>674.98</ele>
        <time>2021-05-30T07:14:46Z</time>
      </trkpt>
      <trkpt lat="38.0031108577" lon="-6.6405618656">
        <ele>674.98</ele>
        <time>2021-05-30T07:14:47Z</time>
      </trkpt>
      <trkpt lat="38.0031733867" lon="-6.6407320183">
        <ele>675.46</ele>
        <time>2021-05-30T07:14:48Z</time>
      </trkpt>
      <trkpt lat="38.0032298807" lon="-6.6409197729">
        <ele>675.46</ele>
        <time>2021-05-30T07:14:49Z</time>
      </trkpt>
      <trkpt lat="38.0034623109" lon="-6.6418068297">
        <ele>677.39</ele>
        <time>2021-05-30T07:14:53Z</time>
      </trkpt>
      <trkpt lat="38.0036140233" lon="-6.6424203850">
        <ele>674.02</ele>
        <time>2021-05-30T07:14:56Z</time>
      </trkpt>
      <trkpt lat="38.0036932323" lon="-6.6425791383">
        <ele>674.02</ele>
        <time>2021-05-30T07:14:57Z</time>
      </trkpt>
      <trkpt lat="38.0037914682" lon="-6.6427198704">
        <ele>673.06</ele>
        <time>2021-05-30T07:14:58Z</time>
      </trkpt>
      <trkpt lat="38.0041337851" lon="-6.6430652887">
        <ele>671.14</ele>
        <time>2021-05-30T07:15:01Z</time>
      </trkpt>
      <trkpt lat="38.0042549036" lon="-6.6431213636">
        <ele>669.22</ele>
        <time>2021-05-30T07:15:02Z</time>
      </trkpt>
      <trkpt lat="38.0043803807" lon="-6.6431408934">
        <ele>668.25</ele>
        <time>2021-05-30T07:15:03Z</time>
      </trkpt>
      <trkpt lat="38.0045029242" lon="-6.6431225371">
        <ele>667.77</ele>
        <time>2021-05-30T07:15:04Z</time>
      </trkpt>
      <trkpt lat="38.0046173371" lon="-6.6430665459">
        <ele>667.29</ele>
        <time>2021-05-30T07:15:05Z</time>
      </trkpt>
      <trkpt lat="38.0047183391" lon="-6.6429729201">
        <ele>667.29</ele>
        <time>2021-05-30T07:15:06Z</time>
      </trkpt>
      <trkpt lat="38.0047923513" lon="-6.6428398993">
        <ele>667.77</ele>
        <time>2021-05-30T07:15:07Z</time>
      </trkpt>
      <trkpt lat="38.0048300698" lon="-6.6426756978">
        <ele>668.25</ele>
        <time>2021-05-30T07:15:08Z</time>
      </trkpt>
      <trkpt lat="38.0048369430" lon="-6.6424857639">
        <ele>669.22</ele>
        <time>2021-05-30T07:15:09Z</time>
      </trkpt>
      <trkpt lat="38.0048354343" lon="-6.6422885377">
        <ele>669.22</ele>
        <time>2021-05-30T07:15:10Z</time>
      </trkpt>
      <trkpt lat="38.0048471689" lon="-6.6420924012">
        <ele>669.22</ele>
        <time>2021-05-30T07:15:11Z</time>
      </trkpt>
      <trkpt lat="38.0048815347" lon="-6.6418926604">
        <ele>668.25</ele>
        <time>2021-05-30T07:15:12Z</time>
      </trkpt>
      <trkpt lat="38.0049394537" lon="-6.6416824423">
        <ele>668.25</ele>
        <time>2021-05-30T07:15:13Z</time>
      </trkpt>
      <trkpt lat="38.0051446427" lon="-6.6410174221">
        <ele>664.89</ele>
        <time>2021-05-30T07:15:16Z</time>
      </trkpt>
      <trkpt lat="38.0052623246" lon="-6.6406106483">
        <ele>660.08</ele>
        <time>2021-05-30T07:15:18Z</time>
      </trkpt>
      <trkpt lat="38.0053779110" lon="-6.6402945668">
        <ele>654.80</ele>
        <time>2021-05-30T07:15:20Z</time>
      </trkpt>
      <trkpt lat="38.0054429546" lon="-6.6401932295">
        <ele>652.39</ele>
        <time>2021-05-30T07:15:21Z</time>
      </trkpt>
      <trkpt lat="38.0055218283" lon="-6.6401327960">
        <ele>651.43</ele>
        <time>2021-05-30T07:15:22Z</time>
      </trkpt>
      <trkpt lat="38.0056246743" lon="-6.6401105002">
        <ele>651.43</ele>
        <time>2021-05-30T07:15:23Z</time>
      </trkpt>
      <trkpt lat="38.0057533365" lon="-6.6401141044">
        <ele>651.91</ele>
        <time>2021-05-30T07:15:24Z</time>
      </trkpt>
      <trkpt lat="38.0058952421" lon="-6.6401325446">
        <ele>652.87</ele>
        <time>2021-05-30T07:15:25Z</time>
      </trkpt>
      <trkpt lat="38.0060365610" lon="-6.6401607078">
        <ele>650.95</ele>
        <time>2021-05-30T07:15:26Z</time>
      </trkpt>
      <trkpt lat="38.0061702523" lon="-6.6401875298">
        <ele>648.55</ele>
        <time>2021-05-30T07:15:27Z</time>
      </trkpt>
      <trkpt lat="38.0063000880" lon="-6.6401809920">
        <ele>649.03</ele>
        <time>2021-05-30T07:15:28Z</time>
      </trkpt>
      <trkpt lat="38.0064228829" lon="-6.6401458718">
        <ele>646.14</ele>
        <time>2021-05-30T07:15:29Z</time>
      </trkpt>
      <trkpt lat="38.0065434985" lon="-6.6401057225">
        <ele>644.70</ele>
        <time>2021-05-30T07:15:30Z</time>
      </trkpt>
      <trkpt lat="38.0066710711" lon="-6.6400860250">
        <ele>644.70</ele>
        <time>2021-05-30T07:15:31Z</time>
      </trkpt>
      <trkpt lat="38.0068030022" lon="-6.6400939878">
        <ele>644.70</ele>
        <time>2021-05-30T07:15:32Z</time>
      </trkpt>
      <trkpt lat="38.0069382023" lon="-6.6401319578">
        <ele>643.26</ele>
        <time>2021-05-30T07:15:33Z</time>
      </trkpt>
      <trkpt lat="38.0070690438" lon="-6.6401959118">
        <ele>642.78</ele>
        <time>2021-05-30T07:15:34Z</time>
      </trkpt>
      <trkpt lat="38.0071860552" lon="-6.6402850952">
        <ele>641.82</ele>
        <time>2021-05-30T07:15:35Z</time>
      </trkpt>
      <trkpt lat="38.0072868895" lon="-6.6404061299">
        <ele>641.34</ele>
        <time>2021-05-30T07:15:36Z</time>
      </trkpt>
      <trkpt lat="38.0073750671" lon="-6.6405589320">
        <ele>640.86</ele>
        <time>2021-05-30T07:15:37Z</time>
      </trkpt>
      <trkpt lat="38.0074546952" lon="-6.6407254804">
        <ele>638.45</ele>
        <time>2021-05-30T07:15:38Z</time>
      </trkpt>
      <trkpt lat="38.0075204093" lon="-6.6408926155">
        <ele>637.01</ele>
        <time>2021-05-30T07:15:39Z</time>
      </trkpt>
      <trkpt lat="38.0075655878" lon="-6.6410662886">
        <ele>636.05</ele>
        <time>2021-05-30T07:15:40Z</time>
      </trkpt>
      <trkpt lat="38.0075836927" lon="-6.6412493493">
        <ele>636.05</ele>
        <time>2021-05-30T07:15:41Z</time>
      </trkpt>
      <trkpt lat="38.0075760651" lon="-6.6414300632">
        <ele>635.57</ele>
        <time>2021-05-30T07:15:42Z</time>
      </trkpt>
      <trkpt lat="38.0075451359" lon="-6.6416055802">
        <ele>634.13</ele>
        <time>2021-05-30T07:15:43Z</time>
      </trkpt>
      <trkpt lat="38.0074899830" lon="-6.6417720448">
        <ele>632.68</ele>
        <time>2021-05-30T07:15:44Z</time>
      </trkpt>
      <trkpt lat="38.0074194074" lon="-6.6419252660">
        <ele>631.72</ele>
        <time>2021-05-30T07:15:45Z</time>
      </trkpt>
      <trkpt lat="38.0073619913" lon="-6.6420652438">
        <ele>630.28</ele>
        <time>2021-05-30T07:15:46Z</time>
      </trkpt>
      <trkpt lat="38.0073329899" lon="-6.6421992704">
        <ele>628.84</ele>
        <time>2021-05-30T07:15:47Z</time>
      </trkpt>
      <trkpt lat="38.0073379353" lon="-6.6423306148">
        <ele>627.40</ele>
        <time>2021-05-30T07:15:48Z</time>
      </trkpt>
      <trkpt lat="38.0073813535" lon="-6.6424412560">
        <ele>626.44</ele>
        <time>2021-05-30T07:15:49Z</time>
      </trkpt>
      <trkpt lat="38.0074567907" lon="-6.6425211355">
        <ele>624.51</ele>
        <time>2021-05-30T07:15:50Z</time>
      </trkpt>
      <trkpt lat="38.0075672641" lon="-6.6425606143">
        <ele>624.51</ele>
        <time>2021-05-30T07:15:51Z</time>
      </trkpt>
      <trkpt lat="38.0077089183" lon="-6.6425562557">
        <ele>624.99</ele>
        <time>2021-05-30T07:15:52Z</time>
      </trkpt>
      <trkpt lat="38.0078700185" lon="-6.6425349656">
        <ele>625.47</ele>
        <time>2021-05-30T07:15:53Z</time>
      </trkpt>
      <trkpt lat="38.0084003415" lon="-6.6425088141">
        <ele>622.11</ele>
        <time>2021-05-30T07:15:56Z</time>
      </trkpt>
      <trkpt lat="38.0085666385" lon="-6.6424974147">
        <ele>619.71</ele>
        <time>2021-05-30T07:15:57Z</time>
      </trkpt>
      <trkpt lat="38.0087267328" lon="-6.6424538288">
        <ele>619.23</ele>
        <time>2021-05-30T07:15:58Z</time>
      </trkpt>
      <trkpt lat="38.0088863242" lon="-6.6423690040">
        <ele>618.75</ele>
        <time>2021-05-30T07:15:59Z</time>
      </trkpt>
      <trkpt lat="38.0093785096" lon="-6.6420495696">
        <ele>615.38</ele>
        <time>2021-05-30T07:16:02Z</time>
      </trkpt>
      <trkpt lat="38.0096500833" lon="-6.6418551095">
        <ele>611.06</ele>
        <time>2021-05-30T07:16:04Z</time>
      </trkpt>
      <trkpt lat="38.0097435415" lon="-6.6417470668">
        <ele>608.65</ele>
        <time>2021-05-30T07:16:05Z</time>
      </trkpt>
      <trkpt lat="38.0098053161" lon="-6.6416193265">
        <ele>607.21</ele>
        <time>2021-05-30T07:16:06Z</time>
      </trkpt>
      <trkpt lat="38.0098251812" lon="-6.6414829530">
        <ele>606.73</ele>
        <time>2021-05-30T07:16:07Z</time>
      </trkpt>
      <trkpt lat="38.0098015442" lon="-6.6413315758">
        <ele>606.73</ele>
        <time>2021-05-30T07:16:08Z</time>
      </trkpt>
      <trkpt lat="38.0097482353" lon="-6.6411668714">
        <ele>607.21</ele>
        <time>2021-05-30T07:16:09Z</time>
      </trkpt>
      <trkpt lat="38.0096720438" lon="-6.6409822181">
        <ele>608.17</ele>
        <time>2021-05-30T07:16:10Z</time>
      </trkpt>
      <trkpt lat="38.0095920805" lon="-6.6407812200">
        <ele>608.65</ele>
        <time>2021-05-30T07:16:11Z</time>
      </trkpt>
      <trkpt lat="38.0095258635" lon="-6.6405688226">
        <ele>608.65</ele>
        <time>2021-05-30T07:16:12Z</time>
      </trkpt>
      <trkpt lat="38.0094774161" lon="-6.6403403319">
        <ele>608.65</ele>
        <time>2021-05-30T07:16:13Z</time>
      </trkpt>
      <trkpt lat="38.0094420444" lon="-6.6400959156">
        <ele>609.13</ele>
        <time>2021-05-30T07:16:14Z</time>
      </trkpt>
      <trkpt lat="38.0093569681" lon="-6.6393841244">
        <ele>605.77</ele>
        <time>2021-05-30T07:16:17Z</time>
      </trkpt>
      <trkpt lat="38.0093486700" lon="-6.6391760018">
        <ele>604.33</ele>
        <time>2021-05-30T07:16:18Z</time>
      </trkpt>
      <trkpt lat="38.0093566328" lon="-6.6389795300">
        <ele>602.88</ele>
        <time>2021-05-30T07:16:19Z</time>
      </trkpt>
      <trkpt lat="38.0093594827" lon="-6.6388023365">
        <ele>600.96</ele>
        <time>2021-05-30T07:16:20Z</time>
      </trkpt>
      <trkpt lat="38.0093352590" lon="-6.6386495344">
        <ele>600.96</ele>
        <time>2021-05-30T07:16:21Z</time>
      </trkpt>
      <trkpt lat="38.0092767533" lon="-6.6385046113">
        <ele>601.92</ele>
        <time>2021-05-30T07:16:22Z</time>
      </trkpt>
      <trkpt lat="38.0092036631" lon="-6.6383617837">
        <ele>602.88</ele>
        <time>2021-05-30T07:16:23Z</time>
      </trkpt>
      <trkpt lat="38.0091489293" lon="-6.6382218897">
        <ele>601.92</ele>
        <time>2021-05-30T07:16:24Z</time>
      </trkpt>
      <trkpt lat="38.0091252085" lon="-6.6380783077">
        <ele>601.44</ele>
        <time>2021-05-30T07:16:25Z</time>
      </trkpt>
      <trkpt lat="38.0091238674" lon="-6.6379213147">
        <ele>602.40</ele>
        <time>2021-05-30T07:16:26Z</time>
      </trkpt>
      <trkpt lat="38.0091387872" lon="-6.6377642378">
        <ele>601.44</ele>
        <time>2021-05-30T07:16:27Z</time>
      </trkpt>
      <trkpt lat="38.0091744941" lon="-6.6376161296">
        <ele>600.96</ele>
        <time>2021-05-30T07:16:28Z</time>
      </trkpt>
      <trkpt lat="38.0092448182" lon="-6.6374698654">
        <ele>600.96</ele>
        <time>2021-05-30T07:16:29Z</time>
      </trkpt>
      <trkpt lat="38.0093459878" lon="-6.6373232659">
        <ele>602.40</ele>
        <time>2021-05-30T07:16:30Z</time>
      </trkpt>
      <trkpt lat="38.0094643403" lon="-6.6371842101">
        <ele>603.36</ele>
        <time>2021-05-30T07:16:31Z</time>
      </trkpt>
      <trkpt lat="38.0095793400" lon="-6.6370544583">
        <ele>603.36</ele>
        <time>2021-05-30T07:16:32Z</time>
      </trkpt>
      <trkpt lat="38.0097882170" lon="-6.6368195973">
        <ele>602.40</ele>
        <time>2021-05-30T07:16:34Z</time>
      </trkpt>
      <trkpt lat="38.0099007860" lon="-6.6367274802">
        <ele>601.92</ele>
        <time>2021-05-30T07:16:35Z</time>
      </trkpt>
      <trkpt lat="38.0101568531" lon="-6.6365274880">
        <ele>601.92</ele>
        <time>2021-05-30T07:16:37Z</time>
      </trkpt>
      <trkpt lat="38.0102782231" lon="-6.6363825649">
        <ele>601.92</ele>
        <time>2021-05-30T07:16:38Z</time>
      </trkpt>
      <trkpt lat="38.0103834160" lon="-6.6362062097">
        <ele>599.52</ele>
        <time>2021-05-30T07:16:39Z</time>
      </trkpt>
      <trkpt lat="38.0105679855" lon="-6.6358176246">
        <ele>596.64</ele>
        <time>2021-05-30T07:16:41Z</time>
      </trkpt>
      <trkpt lat="38.0106289219" lon="-6.6356106754">
        <ele>596.15</ele>
        <time>2021-05-30T07:16:42Z</time>
      </trkpt>
      <trkpt lat="38.0106637068" lon="-6.6353790835">
        <ele>596.64</ele>
        <time>2021-05-30T07:16:43Z</time>
      </trkpt>
      <trkpt lat="38.0107273255" lon="-6.6346932761">
        <ele>592.31</ele>
        <time>2021-05-30T07:16:46Z</time>
      </trkpt>
      <trkpt lat="38.0107588414" lon="-6.6344917752">
        <ele>590.39</ele>
        <time>2021-05-30T07:16:47Z</time>
      </trkpt>
      <trkpt lat="38.0108052772" lon="-6.6343081277">
        <ele>590.39</ele>
        <time>2021-05-30T07:16:48Z</time>
      </trkpt>
      <trkpt lat="38.0108687282" lon="-6.6341444291">
        <ele>588.46</ele>
        <time>2021-05-30T07:16:49Z</time>
      </trkpt>
      <trkpt lat="38.0110024195" lon="-6.6338304430">
        <ele>586.06</ele>
        <time>2021-05-30T07:16:51Z</time>
      </trkpt>
      <trkpt lat="38.0110342707" lon="-6.6336446162">
        <ele>584.62</ele>
        <time>2021-05-30T07:16:52Z</time>
      </trkpt>
      <trkpt lat="38.0110429879" lon="-6.6334408522">
        <ele>585.10</ele>
        <time>2021-05-30T07:16:53Z</time>
      </trkpt>
      <trkpt lat="38.0110248830" lon="-6.6330457292">
        <ele>581.25</ele>
        <time>2021-05-30T07:16:55Z</time>
      </trkpt>
      <trkpt lat="38.0110030901" lon="-6.6327168234">
        <ele>577.89</ele>
        <time>2021-05-30T07:16:57Z</time>
      </trkpt>
      <trkpt lat="38.0110225361" lon="-6.6325797793">
        <ele>576.93</ele>
        <time>2021-05-30T07:16:58Z</time>
      </trkpt>
      <trkpt lat="38.0110698100" lon="-6.6324685514">
        <ele>575.97</ele>
        <time>2021-05-30T07:16:59Z</time>
      </trkpt>
      <trkpt lat="38.0111475103" lon="-6.6323849838">
        <ele>575.49</ele>
        <time>2021-05-30T07:17:00Z</time>
      </trkpt>
      <trkpt lat="38.0112315807" lon="-6.6323100496">
        <ele>575.01</ele>
        <time>2021-05-30T07:17:01Z</time>
      </trkpt>
      <trkpt lat="38.0112913437" lon="-6.6322144959">
        <ele>574.53</ele>
        <time>2021-05-30T07:17:02Z</time>
      </trkpt>
      <trkpt lat="38.0113203451" lon="-6.6321010049">
        <ele>574.53</ele>
        <time>2021-05-30T07:17:03Z</time>
      </trkpt>
      <trkpt lat="38.0113366060" lon="-6.6319775395">
        <ele>575.01</ele>
        <time>2021-05-30T07:17:04Z</time>
      </trkpt>
      <trkpt lat="38.0113770068" lon="-6.6318450216">
        <ele>576.93</ele>
        <time>2021-05-30T07:17:05Z</time>
      </trkpt>
      <trkpt lat="38.0114456546" lon="-6.6317007691">
        <ele>577.89</ele>
        <time>2021-05-30T07:17:06Z</time>
      </trkpt>
      <trkpt lat="38.0115254503" lon="-6.6315437760">
        <ele>578.37</ele>
        <time>2021-05-30T07:17:07Z</time>
      </trkpt>
      <trkpt lat="38.0115962774" lon="-6.6313855257">
        <ele>579.33</ele>
        <time>2021-05-30T07:17:08Z</time>
      </trkpt>
      <trkpt lat="38.0116439704" lon="-6.6312266048">
        <ele>578.85</ele>
        <time>2021-05-30T07:17:09Z</time>
      </trkpt>
      <trkpt lat="38.0116612371" lon="-6.6310591344">
        <ele>578.85</ele>
        <time>2021-05-30T07:17:10Z</time>
      </trkpt>
      <trkpt lat="38.0116575491" lon="-6.6308865510">
        <ele>579.33</ele>
        <time>2021-05-30T07:17:11Z</time>
      </trkpt>
      <trkpt lat="38.0116458144" lon="-6.6307267919">
        <ele>578.85</ele>
        <time>2021-05-30T07:17:12Z</time>
      </trkpt>
      <trkpt lat="38.0116132926" lon="-6.6304846387">
        <ele>577.89</ele>
        <time>2021-05-30T07:17:14Z</time>
      </trkpt>
      <trkpt lat="38.0115817767" lon="-6.6304074414">
        <ele>577.41</ele>
        <time>2021-05-30T07:17:15Z</time>
      </trkpt>
      <trkpt lat="38.0115307309" lon="-6.6303614248">
        <ele>577.41</ele>
        <time>2021-05-30T07:17:16Z</time>
      </trkpt>
      <trkpt lat="38.0114635918" lon="-6.6303413082">
        <ele>577.89</ele>
        <time>2021-05-30T07:17:17Z</time>
      </trkpt>
      <trkpt lat="38.0113883223" lon="-6.6303444095">
        <ele>578.85</ele>
        <time>2021-05-30T07:17:18Z</time>
      </trkpt>
      <trkpt lat="38.0113201775" lon="-6.6303773504">
        <ele>579.33</ele>
        <time>2021-05-30T07:17:19Z</time>
      </trkpt>
      <trkpt lat="38.0112749990" lon="-6.6304480098">
        <ele>579.81</ele>
        <time>2021-05-30T07:17:20Z</time>
      </trkpt>
      <trkpt lat="38.0112512782" lon="-6.6305518616">
        <ele>580.29</ele>
        <time>2021-05-30T07:17:21Z</time>
      </trkpt>
      <trkpt lat="38.0112325866" lon="-6.6306824517">
        <ele>581.25</ele>
        <time>2021-05-30T07:17:22Z</time>
      </trkpt>
      <trkpt lat="38.0111619271" lon="-6.6309692804">
        <ele>583.66</ele>
        <time>2021-05-30T07:17:24Z</time>
      </trkpt>
      <trkpt lat="38.0110939499" lon="-6.6311082523">
        <ele>585.10</ele>
        <time>2021-05-30T07:17:25Z</time>
      </trkpt>
      <trkpt lat="38.0109948758" lon="-6.6312433686">
        <ele>586.06</ele>
        <time>2021-05-30T07:17:26Z</time>
      </trkpt>
      <trkpt lat="38.0108740088" lon="-6.6313810833">
        <ele>589.43</ele>
        <time>2021-05-30T07:17:27Z</time>
      </trkpt>
      <trkpt lat="38.0106407404" lon="-6.6316744499">
        <ele>591.83</ele>
        <time>2021-05-30T07:17:29Z</time>
      </trkpt>
      <trkpt lat="38.0104273371" lon="-6.6320274957">
        <ele>596.64</ele>
        <time>2021-05-30T07:17:31Z</time>
      </trkpt>
      <trkpt lat="38.0102170352" lon="-6.6324153263">
        <ele>598.56</ele>
        <time>2021-05-30T07:17:33Z</time>
      </trkpt>
      <trkpt lat="38.0101488065" lon="-6.6326110438">
        <ele>598.08</ele>
        <time>2021-05-30T07:17:34Z</time>
      </trkpt>
      <trkpt lat="38.0099693500" lon="-6.6331873834">
        <ele>597.12</ele>
        <time>2021-05-30T07:17:38Z</time>
      </trkpt>
      <trkpt lat="38.0099077430" lon="-6.6332480684">
        <ele>597.12</ele>
        <time>2021-05-30T07:17:39Z</time>
      </trkpt>
      <trkpt lat="38.0098364968" lon="-6.6332591325">
        <ele>596.64</ele>
        <time>2021-05-30T07:17:40Z</time>
      </trkpt>
      <trkpt lat="38.0097613111" lon="-6.6332183965">
        <ele>597.12</ele>
        <time>2021-05-30T07:17:41Z</time>
      </trkpt>
      <trkpt lat="38.0096792523" lon="-6.6331272013">
        <ele>598.56</ele>
        <time>2021-05-30T07:17:42Z</time>
      </trkpt>
      <trkpt lat="38.0095882248" lon="-6.6330448072">
        <ele>598.08</ele>
        <time>2021-05-30T07:17:43Z</time>
      </trkpt>
      <trkpt lat="38.0094832834" lon="-6.6330116987">
        <ele>597.60</ele>
        <time>2021-05-30T07:17:44Z</time>
      </trkpt>
      <trkpt lat="38.0093640089" lon="-6.6330239363">
        <ele>597.60</ele>
        <time>2021-05-30T07:17:45Z</time>
      </trkpt>
      <trkpt lat="38.0092261266" lon="-6.6330585536">
        <ele>600.00</ele>
        <time>2021-05-30T07:17:46Z</time>
      </trkpt>
      <trkpt lat="38.0086539779" lon="-6.6332460567">
        <ele>601.44</ele>
        <time>2021-05-30T07:17:50Z</time>
      </trkpt>
      <trkpt lat="38.0085319374" lon="-6.6332608927">
        <ele>600.96</ele>
        <time>2021-05-30T07:17:51Z</time>
      </trkpt>
      <trkpt lat="38.0084125791" lon="-6.6332416981">
        <ele>601.44</ele>
        <time>2021-05-30T07:17:52Z</time>
      </trkpt>
      <trkpt lat="38.0083034467" lon="-6.6331913229">
        <ele>600.96</ele>
        <time>2021-05-30T07:17:53Z</time>
      </trkpt>
      <trkpt lat="38.0082078930" lon="-6.6331108566">
        <ele>601.92</ele>
        <time>2021-05-30T07:17:54Z</time>
      </trkpt>
      <trkpt lat="38.0081182066" lon="-6.6329909116">
        <ele>603.36</ele>
        <time>2021-05-30T07:17:55Z</time>
      </trkpt>
      <trkpt lat="38.0080321245" lon="-6.6328419652">
        <ele>604.33</ele>
        <time>2021-05-30T07:17:56Z</time>
      </trkpt>
      <trkpt lat="38.0079509877" lon="-6.6326797754">
        <ele>605.77</ele>
        <time>2021-05-30T07:17:57Z</time>
      </trkpt>
      <trkpt lat="38.0078800768" lon="-6.6325061023">
        <ele>606.25</ele>
        <time>2021-05-30T07:17:58Z</time>
      </trkpt>
      <trkpt lat="38.0078268517" lon="-6.6323310044">
        <ele>606.25</ele>
        <time>2021-05-30T07:17:59Z</time>
      </trkpt>
      <trkpt lat="38.0077928212" lon="-6.6321570799">
        <ele>606.25</ele>
        <time>2021-05-30T07:18:00Z</time>
      </trkpt>
      <trkpt lat="38.0077781528" lon="-6.6319683194">
        <ele>606.25</ele>
        <time>2021-05-30T07:18:01Z</time>
      </trkpt>
      <trkpt lat="38.0077729560" lon="-6.6317632981">
        <ele>607.69</ele>
        <time>2021-05-30T07:18:02Z</time>
      </trkpt>
      <trkpt lat="38.0077240057" lon="-6.6310659237">
        <ele>605.29</ele>
        <time>2021-05-30T07:18:06Z</time>
      </trkpt>
      <trkpt lat="38.0076783244" lon="-6.6309774946">
        <ele>604.33</ele>
        <time>2021-05-30T07:18:07Z</time>
      </trkpt>
      <trkpt lat="38.0076085869" lon="-6.6309314780">
        <ele>604.33</ele>
        <time>2021-05-30T07:18:08Z</time>
      </trkpt>
      <trkpt lat="38.0075220857" lon="-6.6309319809">
        <ele>604.33</ele>
        <time>2021-05-30T07:18:09Z</time>
      </trkpt>
      <trkpt lat="38.0074284598" lon="-6.6309814341">
        <ele>605.29</ele>
        <time>2021-05-30T07:18:10Z</time>
      </trkpt>
      <trkpt lat="38.0073293019" lon="-6.6310441308">
        <ele>605.77</ele>
        <time>2021-05-30T07:18:11Z</time>
      </trkpt>
      <trkpt lat="38.0072291382" lon="-6.6310741380">
        <ele>607.69</ele>
        <time>2021-05-30T07:18:12Z</time>
      </trkpt>
      <trkpt lat="38.0071371049" lon="-6.6310587991">
        <ele>607.21</ele>
        <time>2021-05-30T07:18:13Z</time>
      </trkpt>
      <trkpt lat="38.0070564710" lon="-6.6309992038">
        <ele>607.21</ele>
        <time>2021-05-30T07:18:14Z</time>
      </trkpt>
      <trkpt lat="38.0070026591" lon="-6.6309080925">
        <ele>607.69</ele>
        <time>2021-05-30T07:18:15Z</time>
      </trkpt>
      <trkpt lat="38.0069855601" lon="-6.6307943501">
        <ele>607.69</ele>
        <time>2021-05-30T07:18:16Z</time>
      </trkpt>
      <trkpt lat="38.0069982167" lon="-6.6306645144">
        <ele>608.65</ele>
        <time>2021-05-30T07:18:17Z</time>
      </trkpt>
      <trkpt lat="38.0070259608" lon="-6.6305209324">
        <ele>608.65</ele>
        <time>2021-05-30T07:18:18Z</time>
      </trkpt>
      <trkpt lat="38.0070938542" lon="-6.6300160903">
        <ele>610.57</ele>
        <time>2021-05-30T07:18:21Z</time>
      </trkpt>
      <trkpt lat="38.0070851371" lon="-6.6298227198">
        <ele>612.02</ele>
        <time>2021-05-30T07:18:22Z</time>
      </trkpt>
      <trkpt lat="38.0070589855" lon="-6.6296259966">
        <ele>612.02</ele>
        <time>2021-05-30T07:18:23Z</time>
      </trkpt>
      <trkpt lat="38.0069747474" lon="-6.6292073205">
        <ele>612.98</ele>
        <time>2021-05-30T07:18:25Z</time>
      </trkpt>
      <trkpt lat="38.0067105498" lon="-6.6282920167">
        <ele>616.34</ele>
        <time>2021-05-30T07:18:29Z</time>
      </trkpt>
      <trkpt lat="38.0065776128" lon="-6.6278319340">
        <ele>613.94</ele>
        <time>2021-05-30T07:18:31Z</time>
      </trkpt>
      <trkpt lat="38.0060023628" lon="-6.6262851376">
        <ele>612.50</ele>
        <time>2021-05-30T07:18:38Z</time>
      </trkpt>
      <trkpt lat="38.0058879498" lon="-6.6259283200">
        <ele>610.09</ele>
        <time>2021-05-30T07:18:40Z</time>
      </trkpt>
      <trkpt lat="38.0058698449" lon="-6.6257598437">
        <ele>609.13</ele>
        <time>2021-05-30T07:18:41Z</time>
      </trkpt>
      <trkpt lat="38.0058425199" lon="-6.6254145931">
        <ele>608.17</ele>
        <time>2021-05-30T07:18:43Z</time>
      </trkpt>
      <trkpt lat="38.0057807453" lon="-6.6252520680">
        <ele>607.21</ele>
        <time>2021-05-30T07:18:44Z</time>
      </trkpt>
      <trkpt lat="38.0056921486" lon="-6.6250975057">
        <ele>607.21</ele>
        <time>2021-05-30T07:18:45Z</time>
      </trkpt>
      <trkpt lat="38.0056058150" lon="-6.6249402612">
        <ele>608.17</ele>
        <time>2021-05-30T07:18:46Z</time>
      </trkpt>
      <trkpt lat="38.0055390950" lon="-6.6247620620">
        <ele>607.69</ele>
        <time>2021-05-30T07:18:47Z</time>
      </trkpt>
      <trkpt lat="38.0054910667" lon="-6.6245525982">
        <ele>608.17</ele>
        <time>2021-05-30T07:18:48Z</time>
      </trkpt>
      <trkpt lat="38.0054475646" lon="-6.6243245266">
        <ele>608.65</ele>
        <time>2021-05-30T07:18:49Z</time>
      </trkpt>
      <trkpt lat="38.0052194092" lon="-6.6233949736">
        <ele>604.81</ele>
        <time>2021-05-30T07:18:53Z</time>
      </trkpt>
      <trkpt lat="38.0051178206" lon="-6.6230400838">
        <ele>599.04</ele>
        <time>2021-05-30T07:18:55Z</time>
      </trkpt>
      <trkpt lat="38.0050529446" lon="-6.6229208093">
        <ele>597.12</ele>
        <time>2021-05-30T07:18:56Z</time>
      </trkpt>
      <trkpt lat="38.0049704667" lon="-6.6228423547">
        <ele>596.15</ele>
        <time>2021-05-30T07:18:57Z</time>
      </trkpt>
      <trkpt lat="38.0048846360" lon="-6.6227763053">
        <ele>595.67</ele>
        <time>2021-05-30T07:18:58Z</time>
      </trkpt>
      <trkpt lat="38.0048175808" lon="-6.6226854455">
        <ele>595.19</ele>
        <time>2021-05-30T07:18:59Z</time>
      </trkpt>
      <trkpt lat="38.0047758389" lon="-6.6225658357">
        <ele>594.23</ele>
        <time>2021-05-30T07:19:00Z</time>
      </trkpt>
      <trkpt lat="38.0047614221" lon="-6.6224180628">
        <ele>594.23</ele>
        <time>2021-05-30T07:19:01Z</time>
      </trkpt>
      <trkpt lat="38.0047775991" lon="-6.6222546995">
        <ele>593.75</ele>
        <time>2021-05-30T07:19:02Z</time>
      </trkpt>
      <trkpt lat="38.0048107076" lon="-6.6220900789">
        <ele>593.27</ele>
        <time>2021-05-30T07:19:03Z</time>
      </trkpt>
      <trkpt lat="38.0048273038" lon="-6.6219234467">
        <ele>591.83</ele>
        <time>2021-05-30T07:19:04Z</time>
      </trkpt>
      <trkpt lat="38.0048159882" lon="-6.6217517015">
        <ele>590.87</ele>
        <time>2021-05-30T07:19:05Z</time>
      </trkpt>
      <trkpt lat="38.0047791079" lon="-6.6215963010">
        <ele>589.43</ele>
        <time>2021-05-30T07:19:06Z</time>
      </trkpt>
      <trkpt lat="38.0047146510" lon="-6.6214697342">
        <ele>587.98</ele>
        <time>2021-05-30T07:19:07Z</time>
      </trkpt>
      <trkpt lat="38.0046224501" lon="-6.6213759407">
        <ele>587.02</ele>
        <time>2021-05-30T07:19:08Z</time>
      </trkpt>
      <trkpt lat="38.0045216158" lon="-6.6213020962">
        <ele>586.54</ele>
        <time>2021-05-30T07:19:09Z</time>
      </trkpt>
      <trkpt lat="38.0044364557" lon="-6.6212122422">
        <ele>585.58</ele>
        <time>2021-05-30T07:19:10Z</time>
      </trkpt>
      <trkpt lat="38.0043730047" lon="-6.6210938059">
        <ele>586.06</ele>
        <time>2021-05-30T07:19:11Z</time>
      </trkpt>
      <trkpt lat="38.0043362081" lon="-6.6209506430">
        <ele>584.62</ele>
        <time>2021-05-30T07:19:12Z</time>
      </trkpt>
      <trkpt lat="38.0043351185" lon="-6.6208060551">
        <ele>584.14</ele>
        <time>2021-05-30T07:19:13Z</time>
      </trkpt>
      <trkpt lat="38.0043680593" lon="-6.6206829250">
        <ele>583.66</ele>
        <time>2021-05-30T07:19:14Z</time>
      </trkpt>
      <trkpt lat="38.0044128187" lon="-6.6205737088">
        <ele>582.22</ele>
        <time>2021-05-30T07:19:15Z</time>
      </trkpt>
      <trkpt lat="38.0044320971" lon="-6.6204696056">
        <ele>580.29</ele>
        <time>2021-05-30T07:19:16Z</time>
      </trkpt>
      <trkpt lat="38.0044150818" lon="-6.6203724593">
        <ele>579.33</ele>
        <time>2021-05-30T07:19:17Z</time>
      </trkpt>
      <trkpt lat="38.0043577496" lon="-6.6202953458">
        <ele>579.33</ele>
        <time>2021-05-30T07:19:18Z</time>
      </trkpt>
      <trkpt lat="38.0042797979" lon="-6.6202344093">
        <ele>579.81</ele>
        <time>2021-05-30T07:19:19Z</time>
      </trkpt>
      <trkpt lat="38.0042176880" lon="-6.6201620735">
        <ele>579.81</ele>
        <time>2021-05-30T07:19:20Z</time>
      </trkpt>
      <trkpt lat="38.0041971523" lon="-6.6200794280">
        <ele>580.29</ele>
        <time>2021-05-30T07:19:21Z</time>
      </trkpt>
      <trkpt lat="38.0042213760" lon="-6.6199971177">
        <ele>580.77</ele>
        <time>2021-05-30T07:19:22Z</time>
      </trkpt>
      <trkpt lat="38.0042773671" lon="-6.6199127957">
        <ele>580.77</ele>
        <time>2021-05-30T07:19:23Z</time>
      </trkpt>
      <trkpt lat="38.0043479428" lon="-6.6198177449">
        <ele>581.25</ele>
        <time>2021-05-30T07:19:24Z</time>
      </trkpt>
      <trkpt lat="38.0044032633" lon="-6.6197139770">
        <ele>580.77</ele>
        <time>2021-05-30T07:19:25Z</time>
      </trkpt>
      <trkpt lat="38.0044195242" lon="-6.6196088679">
        <ele>580.29</ele>
        <time>2021-05-30T07:19:26Z</time>
      </trkpt>
      <trkpt lat="38.0043939594" lon="-6.6195107996">
        <ele>580.77</ele>
        <time>2021-05-30T07:19:27Z</time>
      </trkpt>
      <trkpt lat="38.0043325201" lon="-6.6194201913">
        <ele>581.73</ele>
        <time>2021-05-30T07:19:28Z</time>
      </trkpt>
      <trkpt lat="38.0042455997" lon="-6.6193326004">
        <ele>582.70</ele>
        <time>2021-05-30T07:19:29Z</time>
      </trkpt>
      <trkpt lat="38.0041653011" lon="-6.6192332748">
        <ele>583.66</ele>
        <time>2021-05-30T07:19:30Z</time>
      </trkpt>
      <trkpt lat="38.0041120760" lon="-6.6191238072">
        <ele>583.18</ele>
        <time>2021-05-30T07:19:31Z</time>
      </trkpt>
      <trkpt lat="38.0040920433" lon="-6.6190044489">
        <ele>583.66</ele>
        <time>2021-05-30T07:19:32Z</time>
      </trkpt>
      <trkpt lat="38.0041060410" lon="-6.6188919637">
        <ele>583.66</ele>
        <time>2021-05-30T07:19:33Z</time>
      </trkpt>
      <trkpt lat="38.0041572545" lon="-6.6187995952">
        <ele>583.18</ele>
        <time>2021-05-30T07:19:34Z</time>
      </trkpt>
      <trkpt lat="38.0042325240" lon="-6.6187185422">
        <ele>584.14</ele>
        <time>2021-05-30T07:19:35Z</time>
      </trkpt>
      <trkpt lat="38.0043186899" lon="-6.6186355613">
        <ele>584.62</ele>
        <time>2021-05-30T07:19:36Z</time>
      </trkpt>
      <trkpt lat="38.0043978989" lon="-6.6185421031">
        <ele>586.06</ele>
        <time>2021-05-30T07:19:37Z</time>
      </trkpt>
      <trkpt lat="38.0044548959" lon="-6.6184339765">
        <ele>586.54</ele>
        <time>2021-05-30T07:19:38Z</time>
      </trkpt>
      <trkpt lat="38.0044703186" lon="-6.6183100082">
        <ele>587.02</ele>
        <time>2021-05-30T07:19:39Z</time>
      </trkpt>
      <trkpt lat="38.0044434965" lon="-6.6181715392">
        <ele>587.98</ele>
        <time>2021-05-30T07:19:40Z</time>
      </trkpt>
      <trkpt lat="38.0043865833" lon="-6.6180205811">
        <ele>589.43</ele>
        <time>2021-05-30T07:19:41Z</time>
      </trkpt>
      <trkpt lat="38.0043104757" lon="-6.6178594809">
        <ele>590.87</ele>
        <time>2021-05-30T07:19:42Z</time>
      </trkpt>
      <trkpt lat="38.0041782930" lon="-6.6175225284">
        <ele>593.27</ele>
        <time>2021-05-30T07:19:44Z</time>
      </trkpt>
      <trkpt lat="38.0041383114" lon="-6.6173428204">
        <ele>594.71</ele>
        <time>2021-05-30T07:19:45Z</time>
      </trkpt>
      <trkpt lat="38.0041145068" lon="-6.6171708237">
        <ele>595.19</ele>
        <time>2021-05-30T07:19:46Z</time>
      </trkpt>
      <trkpt lat="38.0041099805" lon="-6.6170304269">
        <ele>593.75</ele>
        <time>2021-05-30T07:19:47Z</time>
      </trkpt>
      <trkpt lat="38.0041369703" lon="-6.6169161815">
        <ele>593.27</ele>
        <time>2021-05-30T07:19:48Z</time>
      </trkpt>
      <trkpt lat="38.0041898601" lon="-6.6168021876">
        <ele>594.23</ele>
        <time>2021-05-30T07:19:49Z</time>
      </trkpt>
      <trkpt lat="38.0042489525" lon="-6.6166616231">
        <ele>596.15</ele>
        <time>2021-05-30T07:19:50Z</time>
      </trkpt>
      <trkpt lat="38.0042800494" lon="-6.6164944042">
        <ele>598.08</ele>
        <time>2021-05-30T07:19:51Z</time>
      </trkpt>
      <trkpt lat="38.0042828992" lon="-6.6163145285">
        <ele>599.04</ele>
        <time>2021-05-30T07:19:52Z</time>
      </trkpt>
      <trkpt lat="38.0042544007" lon="-6.6161308810">
        <ele>600.00</ele>
        <time>2021-05-30T07:19:53Z</time>
      </trkpt>
      <trkpt lat="38.0041982420" lon="-6.6159468144">
        <ele>601.92</ele>
        <time>2021-05-30T07:19:54Z</time>
      </trkpt>
      <trkpt lat="38.0041255709" lon="-6.6157581378">
        <ele>604.33</ele>
        <time>2021-05-30T07:19:55Z</time>
      </trkpt>
      <trkpt lat="38.0039851740" lon="-6.6153434850">
        <ele>608.17</ele>
        <time>2021-05-30T07:19:57Z</time>
      </trkpt>
      <trkpt lat="38.0039254948" lon="-6.6151589155">
        <ele>607.69</ele>
        <time>2021-05-30T07:19:58Z</time>
      </trkpt>
      <trkpt lat="38.0038812384" lon="-6.6149874218">
        <ele>607.21</ele>
        <time>2021-05-30T07:19:59Z</time>
      </trkpt>
      <trkpt lat="38.0038581043" lon="-6.6148112342">
        <ele>607.69</ele>
        <time>2021-05-30T07:20:00Z</time>
      </trkpt>
      <trkpt lat="38.0038523208" lon="-6.6146209650">
        <ele>608.65</ele>
        <time>2021-05-30T07:20:01Z</time>
      </trkpt>
      <trkpt lat="38.0038645584" lon="-6.6142038815">
        <ele>612.02</ele>
        <time>2021-05-30T07:20:03Z</time>
      </trkpt>
      <trkpt lat="38.0038999300" lon="-6.6137576289">
        <ele>615.38</ele>
        <time>2021-05-30T07:20:05Z</time>
      </trkpt>
      <trkpt lat="38.0039524008" lon="-6.6132957861">
        <ele>618.26</ele>
        <time>2021-05-30T07:20:07Z</time>
      </trkpt>
      <trkpt lat="38.0039648060" lon="-6.6130665410">
        <ele>618.75</ele>
        <time>2021-05-30T07:20:08Z</time>
      </trkpt>
      <trkpt lat="38.0039604474" lon="-6.6128511261">
        <ele>619.71</ele>
        <time>2021-05-30T07:20:09Z</time>
      </trkpt>
      <trkpt lat="38.0039545801" lon="-6.6124861781">
        <ele>617.30</ele>
        <time>2021-05-30T07:20:11Z</time>
      </trkpt>
      <trkpt lat="38.0039779656" lon="-6.6123249102">
        <ele>617.78</ele>
        <time>2021-05-30T07:20:12Z</time>
      </trkpt>
      <trkpt lat="38.0040279217" lon="-6.6121758800">
        <ele>618.26</ele>
        <time>2021-05-30T07:20:13Z</time>
      </trkpt>
      <trkpt lat="38.0041092262" lon="-6.6120385844">
        <ele>618.75</ele>
        <time>2021-05-30T07:20:14Z</time>
      </trkpt>
      <trkpt lat="38.0042111501" lon="-6.6119053122">
        <ele>621.15</ele>
        <time>2021-05-30T07:20:15Z</time>
      </trkpt>
      <trkpt lat="38.0043218751" lon="-6.6117654182">
        <ele>622.11</ele>
        <time>2021-05-30T07:20:16Z</time>
      </trkpt>
      <trkpt lat="38.0046568159" lon="-6.6113121249">
        <ele>624.51</ele>
        <time>2021-05-30T07:20:19Z</time>
      </trkpt>
      <trkpt lat="38.0047388747" lon="-6.6111657768">
        <ele>623.55</ele>
        <time>2021-05-30T07:20:20Z</time>
      </trkpt>
      <trkpt lat="38.0047926027" lon="-6.6110076103">
        <ele>623.55</ele>
        <time>2021-05-30T07:20:21Z</time>
      </trkpt>
      <trkpt lat="38.0048134737" lon="-6.6108337697">
        <ele>624.51</ele>
        <time>2021-05-30T07:20:22Z</time>
      </trkpt>
      <trkpt lat="38.0048037507" lon="-6.6106488649">
        <ele>625.47</ele>
        <time>2021-05-30T07:20:23Z</time>
      </trkpt>
      <trkpt lat="38.0047859810" lon="-6.6104745213">
        <ele>625.47</ele>
        <time>2021-05-30T07:20:24Z</time>
      </trkpt>
      <trkpt lat="38.0047850590" lon="-6.6103209648">
        <ele>626.44</ele>
        <time>2021-05-30T07:20:25Z</time>
      </trkpt>
      <trkpt lat="38.0048169103" lon="-6.6101836693">
        <ele>626.44</ele>
        <time>2021-05-30T07:20:26Z</time>
      </trkpt>
      <trkpt lat="38.0048843846" lon="-6.6100613773">
        <ele>626.44</ele>
        <time>2021-05-30T07:20:27Z</time>
      </trkpt>
      <trkpt lat="38.0050395336" lon="-6.6098062322">
        <ele>628.84</ele>
        <time>2021-05-30T07:20:29Z</time>
      </trkpt>
      <trkpt lat="38.0050770007" lon="-6.6096421145">
        <ele>629.32</ele>
        <time>2021-05-30T07:20:30Z</time>
      </trkpt>
      <trkpt lat="38.0050819460" lon="-6.6094558686">
        <ele>631.72</ele>
        <time>2021-05-30T07:20:31Z</time>
      </trkpt>
      <trkpt lat="38.0050695408" lon="-6.6092541162">
        <ele>633.65</ele>
        <time>2021-05-30T07:20:32Z</time>
      </trkpt>
      <trkpt lat="38.0050531123" lon="-6.6090398747">
        <ele>636.53</ele>
        <time>2021-05-30T07:20:33Z</time>
      </trkpt>
      <trkpt lat="38.0050506815" lon="-6.6085901856">
        <ele>641.82</ele>
        <time>2021-05-30T07:20:35Z</time>
      </trkpt>
      <trkpt lat="38.0050779227" lon="-6.6083575878">
        <ele>642.30</ele>
        <time>2021-05-30T07:20:36Z</time>
      </trkpt>
      <trkpt lat="38.0051583890" lon="-6.6079046298">
        <ele>644.22</ele>
        <time>2021-05-30T07:20:38Z</time>
      </trkpt>
      <trkpt lat="38.0051999632" lon="-6.6075006220">
        <ele>642.78</ele>
        <time>2021-05-30T07:20:40Z</time>
      </trkpt>
      <trkpt lat="38.0051954370" lon="-6.6073128674">
        <ele>643.26</ele>
        <time>2021-05-30T07:20:41Z</time>
      </trkpt>
      <trkpt lat="38.0051870551" lon="-6.6069559660">
        <ele>642.30</ele>
        <time>2021-05-30T07:20:43Z</time>
      </trkpt>
      <trkpt lat="38.0052189901" lon="-6.6067783535">
        <ele>642.78</ele>
        <time>2021-05-30T07:20:44Z</time>
      </trkpt>
      <trkpt lat="38.0052704550" lon="-6.6065921076">
        <ele>644.22</ele>
        <time>2021-05-30T07:20:45Z</time>
      </trkpt>
      <trkpt lat="38.0054073315" lon="-6.6061930452">
        <ele>646.14</ele>
        <time>2021-05-30T07:20:47Z</time>
      </trkpt>
      <trkpt lat="38.0055012926" lon="-6.6059949808">
        <ele>646.62</ele>
        <time>2021-05-30T07:20:48Z</time>
      </trkpt>
      <trkpt lat="38.0056090001" lon="-6.6058083996">
        <ele>648.55</ele>
        <time>2021-05-30T07:20:49Z</time>
      </trkpt>
      <trkpt lat="38.0058292765" lon="-6.6054853611">
        <ele>649.51</ele>
        <time>2021-05-30T07:20:51Z</time>
      </trkpt>
      <trkpt lat="38.0059451982" lon="-6.6053488199">
        <ele>649.51</ele>
        <time>2021-05-30T07:20:52Z</time>
      </trkpt>
      <trkpt lat="38.0060763750" lon="-6.6052229237">
        <ele>651.43</ele>
        <time>2021-05-30T07:20:53Z</time>
      </trkpt>
      <trkpt lat="38.0063538998" lon="-6.6049723048">
        <ele>656.24</ele>
        <time>2021-05-30T07:20:55Z</time>
      </trkpt>
      <trkpt lat="38.0066176783" lon="-6.6046939418">
        <ele>658.16</ele>
        <time>2021-05-30T07:20:57Z</time>
      </trkpt>
      <trkpt lat="38.0069124699" lon="-6.6042480245">
        <ele>659.12</ele>
        <time>2021-05-30T07:21:00Z</time>
      </trkpt>
      <trkpt lat="38.0069803633" lon="-6.6040806379">
        <ele>659.12</ele>
        <time>2021-05-30T07:21:01Z</time>
      </trkpt>
      <trkpt lat="38.0072769150" lon="-6.6031907313">
        <ele>656.24</ele>
        <time>2021-05-30T07:21:06Z</time>
      </trkpt>
      <trkpt lat="38.0073262844" lon="-6.6030250210">
        <ele>654.31</ele>
        <time>2021-05-30T07:21:07Z</time>
      </trkpt>
      <trkpt lat="38.0073598959" lon="-6.6028601490">
        <ele>652.39</ele>
        <time>2021-05-30T07:21:08Z</time>
      </trkpt>
      <trkpt lat="38.0073783360" lon="-6.6026939359">
        <ele>651.43</ele>
        <time>2021-05-30T07:21:09Z</time>
      </trkpt>
      <trkpt lat="38.0074207485" lon="-6.6020687297">
        <ele>647.10</ele>
        <time>2021-05-30T07:21:13Z</time>
      </trkpt>
      <trkpt lat="38.0074386857" lon="-6.6017911211">
        <ele>645.66</ele>
        <time>2021-05-30T07:21:15Z</time>
      </trkpt>
      <trkpt lat="38.0075307190" lon="-6.6010294575">
        <ele>643.74</ele>
        <time>2021-05-30T07:21:21Z</time>
      </trkpt>
      <trkpt lat="38.0075218342" lon="-6.6009073332">
        <ele>642.78</ele>
        <time>2021-05-30T07:21:22Z</time>
      </trkpt>
      <trkpt lat="38.0074898992" lon="-6.6008002125">
        <ele>642.30</ele>
        <time>2021-05-30T07:21:23Z</time>
      </trkpt>
      <trkpt lat="38.0074344948" lon="-6.6007116158">
        <ele>641.34</ele>
        <time>2021-05-30T07:21:24Z</time>
      </trkpt>
      <trkpt lat="38.0073622428" lon="-6.6006337479">
        <ele>641.82</ele>
        <time>2021-05-30T07:21:25Z</time>
      </trkpt>
      <trkpt lat="38.0072914995" lon="-6.6005604900">
        <ele>640.86</ele>
        <time>2021-05-30T07:21:26Z</time>
      </trkpt>
      <trkpt lat="38.0072283000" lon="-6.6004817002">
        <ele>640.38</ele>
        <time>2021-05-30T07:21:27Z</time>
      </trkpt>
      <trkpt lat="38.0071719736" lon="-6.6003889125">
        <ele>640.38</ele>
        <time>2021-05-30T07:21:28Z</time>
      </trkpt>
      <trkpt lat="38.0071252864" lon="-6.6002809536">
        <ele>639.89</ele>
        <time>2021-05-30T07:21:29Z</time>
      </trkpt>
      <trkpt lat="38.0070904177" lon="-6.6001613438">
        <ele>639.41</ele>
        <time>2021-05-30T07:21:30Z</time>
      </trkpt>
      <trkpt lat="38.0070625897" lon="-6.6000334360">
        <ele>638.93</ele>
        <time>2021-05-30T07:21:31Z</time>
      </trkpt>
      <trkpt lat="38.0070367735" lon="-6.5998978168">
        <ele>638.93</ele>
        <time>2021-05-30T07:21:32Z</time>
      </trkpt>
      <trkpt lat="38.0069024116" lon="-6.5990902204">
        <ele>638.45</ele>
        <time>2021-05-30T07:21:38Z</time>
      </trkpt>
      <trkpt lat="38.0069085304" lon="-6.5989615582">
        <ele>637.97</ele>
        <time>2021-05-30T07:21:39Z</time>
      </trkpt>
      <trkpt lat="38.0069294013" lon="-6.5987280384">
        <ele>637.01</ele>
        <time>2021-05-30T07:21:41Z</time>
      </trkpt>
      <trkpt lat="38.0070353486" lon="-6.5980305802">
        <ele>638.93</ele>
        <time>2021-05-30T07:21:48Z</time>
      </trkpt>
      <trkpt lat="38.0071086064" lon="-6.5977184381">
        <ele>639.41</ele>
        <time>2021-05-30T07:21:50Z</time>
      </trkpt>
      <trkpt lat="38.0071930122" lon="-6.5963029023">
        <ele>638.45</ele>
        <time>2021-05-30T07:21:57Z</time>
      </trkpt>
      <trkpt lat="38.0072825309" lon="-6.5956554841">
        <ele>635.09</ele>
        <time>2021-05-30T07:22:00Z</time>
      </trkpt>
      <trkpt lat="38.0074679386" lon="-6.5948277712">
        <ele>631.72</ele>
        <time>2021-05-30T07:22:04Z</time>
      </trkpt>
      <trkpt lat="38.0075984448" lon="-6.5941810235">
        <ele>627.40</ele>
        <time>2021-05-30T07:22:07Z</time>
      </trkpt>
      <trkpt lat="38.0076779891" lon="-6.5937517863">
        <ele>623.07</ele>
        <time>2021-05-30T07:22:09Z</time>
      </trkpt>
      <trkpt lat="38.0077554379" lon="-6.5933299251">
        <ele>621.63</ele>
        <time>2021-05-30T07:22:11Z</time>
      </trkpt>
      <trkpt lat="38.0078572780" lon="-6.5925520845">
        <ele>618.26</ele>
        <time>2021-05-30T07:22:15Z</time>
      </trkpt>
      <trkpt lat="38.0079128500" lon="-6.5919915028">
        <ele>615.38</ele>
        <time>2021-05-30T07:22:19Z</time>
      </trkpt>
      <trkpt lat="38.0079707690" lon="-6.5914569050">
        <ele>612.98</ele>
        <time>2021-05-30T07:22:27Z</time>
      </trkpt>
      <trkpt lat="38.0079576094" lon="-6.5914264787">
        <ele>612.98</ele>
        <time>2021-05-30T07:22:41Z</time>
      </trkpt>
      <trkpt lat="38.0079584476" lon="-6.5914211981">
        <ele>613.46</ele>
        <time>2021-05-30T07:23:05Z</time>
      </trkpt>
      <trkpt lat="38.0079584476" lon="-6.5914145764">
        <ele>612.98</ele>
        <time>2021-05-30T07:23:39Z</time>
      </trkpt>
      <trkpt lat="38.0079542566" lon="-6.5914056916">
        <ele>612.50</ele>
        <time>2021-05-30T07:24:14Z</time>
      </trkpt>
      <trkpt lat="38.0079578608" lon="-6.5913892630">
        <ele>612.98</ele>
        <time>2021-05-30T07:24:15Z</time>
      </trkpt>
      <trkpt lat="38.0079746246" lon="-6.5913574956">
        <ele>613.46</ele>
        <time>2021-05-30T07:24:16Z</time>
      </trkpt>
      <trkpt lat="38.0080123432" lon="-6.5913251415">
        <ele>613.46</ele>
        <time>2021-05-30T07:24:17Z</time>
      </trkpt>
      <trkpt lat="38.0080659036" lon="-6.5913012531">
        <ele>613.46</ele>
        <time>2021-05-30T07:24:18Z</time>
      </trkpt>
      <trkpt lat="38.0081299413" lon="-6.5912973974">
        <ele>614.42</ele>
        <time>2021-05-30T07:24:19Z</time>
      </trkpt>
      <trkpt lat="38.0082022771" lon="-6.5913080424">
        <ele>614.90</ele>
        <time>2021-05-30T07:24:20Z</time>
      </trkpt>
      <trkpt lat="38.0082805641" lon="-6.5913172625">
        <ele>615.86</ele>
        <time>2021-05-30T07:24:21Z</time>
      </trkpt>
      <trkpt lat="38.0084435921" lon="-6.5913181845">
        <ele>616.82</ele>
        <time>2021-05-30T07:24:23Z</time>
      </trkpt>
      <trkpt lat="38.0086816382" lon="-6.5912906080">
        <ele>617.78</ele>
        <time>2021-05-30T07:24:27Z</time>
      </trkpt>
      <trkpt lat="38.0087556504" lon="-6.5912677255">
        <ele>618.26</ele>
        <time>2021-05-30T07:24:30Z</time>
      </trkpt>
      <trkpt lat="38.0087624397" lon="-6.5912414901">
        <ele>618.75</ele>
        <time>2021-05-30T07:24:31Z</time>
      </trkpt>
      <trkpt lat="38.0087636970" lon="-6.5912027657">
        <ele>618.26</ele>
        <time>2021-05-30T07:24:32Z</time>
      </trkpt>
      <trkpt lat="38.0087595060" lon="-6.5911500435">
        <ele>618.75</ele>
        <time>2021-05-30T07:24:33Z</time>
      </trkpt>
      <trkpt lat="38.0087517947" lon="-6.5910824854">
        <ele>618.75</ele>
        <time>2021-05-30T07:24:34Z</time>
      </trkpt>
      <trkpt lat="38.0087458435" lon="-6.5910025220">
        <ele>619.23</ele>
        <time>2021-05-30T07:24:35Z</time>
      </trkpt>
      <trkpt lat="38.0087174289" lon="-6.5906922240">
        <ele>620.67</ele>
        <time>2021-05-30T07:24:38Z</time>
      </trkpt>
      <trkpt lat="38.0086763576" lon="-6.5899355896">
        <ele>622.59</ele>
        <time>2021-05-30T07:24:46Z</time>
      </trkpt>
      <trkpt lat="38.0086404830" lon="-6.5897238627">
        <ele>621.63</ele>
        <time>2021-05-30T07:24:51Z</time>
      </trkpt>
      <trkpt lat="38.0086582527" lon="-6.5897113737">
        <ele>621.63</ele>
        <time>2021-05-30T07:24:52Z</time>
      </trkpt>
      <trkpt lat="38.0086837336" lon="-6.5897093620">
        <ele>621.15</ele>
        <time>2021-05-30T07:24:53Z</time>
      </trkpt>
      <trkpt lat="38.0087119807" lon="-6.5897269640">
        <ele>621.63</ele>
        <time>2021-05-30T07:24:54Z</time>
      </trkpt>
      <trkpt lat="38.0087567400" lon="-6.5897615813">
        <ele>621.63</ele>
        <time>2021-05-30T07:24:55Z</time>
      </trkpt>
      <trkpt lat="38.0093387794" lon="-6.5901002102">
        <ele>624.51</ele>
        <time>2021-05-30T07:25:01Z</time>
      </trkpt>
      <trkpt lat="38.0096000433" lon="-6.5902172215">
        <ele>627.88</ele>
        <time>2021-05-30T07:25:03Z</time>
      </trkpt>
      <trkpt lat="38.0098455492" lon="-6.5903205704">
        <ele>628.84</ele>
        <time>2021-05-30T07:25:05Z</time>
      </trkpt>
      <trkpt lat="38.0101042986" lon="-6.5904240031">
        <ele>628.36</ele>
        <time>2021-05-30T07:25:08Z</time>
      </trkpt>
      <trkpt lat="38.0101685040" lon="-6.5904261824">
        <ele>628.36</ele>
        <time>2021-05-30T07:25:09Z</time>
      </trkpt>
      <trkpt lat="38.0102192145" lon="-6.5904083289">
        <ele>628.84</ele>
        <time>2021-05-30T07:25:10Z</time>
      </trkpt>
      <trkpt lat="38.0102570169" lon="-6.5903721191">
        <ele>629.32</ele>
        <time>2021-05-30T07:25:11Z</time>
      </trkpt>
      <trkpt lat="38.0102805700" lon="-6.5903136134">
        <ele>629.80</ele>
        <time>2021-05-30T07:25:12Z</time>
      </trkpt>
      <trkpt lat="38.0102804862" lon="-6.5902323090">
        <ele>629.80</ele>
        <time>2021-05-30T07:25:13Z</time>
      </trkpt>
      <trkpt lat="38.0102599505" lon="-6.5901344921">
        <ele>630.28</ele>
        <time>2021-05-30T07:25:14Z</time>
      </trkpt>
      <trkpt lat="38.0102273449" lon="-6.5900277067">
        <ele>629.80</ele>
        <time>2021-05-30T07:25:15Z</time>
      </trkpt>
      <trkpt lat="38.0102000199" lon="-6.5899039898">
        <ele>629.80</ele>
        <time>2021-05-30T07:25:16Z</time>
      </trkpt>
      <trkpt lat="38.0101876147" lon="-6.5897640958">
        <ele>629.80</ele>
        <time>2021-05-30T07:25:17Z</time>
      </trkpt>
      <trkpt lat="38.0101977568" lon="-6.5896119643">
        <ele>628.84</ele>
        <time>2021-05-30T07:25:18Z</time>
      </trkpt>
      <trkpt lat="38.0102260038" lon="-6.5894450806">
        <ele>629.80</ele>
        <time>2021-05-30T07:25:19Z</time>
      </trkpt>
      <trkpt lat="38.0102673266" lon="-6.5892640315">
        <ele>629.32</ele>
        <time>2021-05-30T07:25:20Z</time>
      </trkpt>
      <trkpt lat="38.0104071368" lon="-6.5887133405">
        <ele>625.96</ele>
        <time>2021-05-30T07:25:23Z</time>
      </trkpt>
      <trkpt lat="38.0105746072" lon="-6.5880195703">
        <ele>622.11</ele>
        <time>2021-05-30T07:25:27Z</time>
      </trkpt>
      <trkpt lat="38.0105964001" lon="-6.5878529381">
        <ele>620.67</ele>
        <time>2021-05-30T07:25:28Z</time>
      </trkpt>
      <trkpt lat="38.0106025189" lon="-6.5876711346">
        <ele>620.19</ele>
        <time>2021-05-30T07:25:29Z</time>
      </trkpt>
      <trkpt lat="38.0105782952" lon="-6.5868714172">
        <ele>616.82</ele>
        <time>2021-05-30T07:25:33Z</time>
      </trkpt>
      <trkpt lat="38.0105378944" lon="-6.5860204864">
        <ele>612.50</ele>
        <time>2021-05-30T07:25:37Z</time>
      </trkpt>
      <trkpt lat="38.0105067138" lon="-6.5851256344">
        <ele>606.25</ele>
        <time>2021-05-30T07:25:41Z</time>
      </trkpt>
      <trkpt lat="38.0105249025" lon="-6.5846736822">
        <ele>603.36</ele>
        <time>2021-05-30T07:25:43Z</time>
      </trkpt>
      <trkpt lat="38.0105652194" lon="-6.5844337922">
        <ele>602.88</ele>
        <time>2021-05-30T07:25:44Z</time>
      </trkpt>
      <trkpt lat="38.0107288342" lon="-6.5837028064">
        <ele>600.48</ele>
        <time>2021-05-30T07:25:47Z</time>
      </trkpt>
      <trkpt lat="38.0108972266" lon="-6.5829880815">
        <ele>597.12</ele>
        <time>2021-05-30T07:25:50Z</time>
      </trkpt>
      <trkpt lat="38.0110388808" lon="-6.5823635459">
        <ele>593.27</ele>
        <time>2021-05-30T07:25:53Z</time>
      </trkpt>
      <trkpt lat="38.0110849813" lon="-6.5821658168">
        <ele>593.75</ele>
        <time>2021-05-30T07:25:54Z</time>
      </trkpt>
      <trkpt lat="38.0111721531" lon="-6.5817885473">
        <ele>592.31</ele>
        <time>2021-05-30T07:25:56Z</time>
      </trkpt>
      <trkpt lat="38.0112222768" lon="-6.5816230886">
        <ele>590.87</ele>
        <time>2021-05-30T07:25:57Z</time>
      </trkpt>
      <trkpt lat="38.0112973787" lon="-6.5814767405">
        <ele>591.35</ele>
        <time>2021-05-30T07:25:58Z</time>
      </trkpt>
      <trkpt lat="38.0114006437" lon="-6.5813378524">
        <ele>591.83</ele>
        <time>2021-05-30T07:25:59Z</time>
      </trkpt>
      <trkpt lat="38.0116572138" lon="-6.5810578968">
        <ele>592.79</ele>
        <time>2021-05-30T07:26:01Z</time>
      </trkpt>
      <trkpt lat="38.0122134369" lon="-6.5804513823">
        <ele>589.43</ele>
        <time>2021-05-30T07:26:05Z</time>
      </trkpt>
      <trkpt lat="38.0123405904" lon="-6.5803025197">
        <ele>589.43</ele>
        <time>2021-05-30T07:26:06Z</time>
      </trkpt>
      <trkpt lat="38.0125612859" lon="-6.5799959935">
        <ele>587.50</ele>
        <time>2021-05-30T07:26:08Z</time>
      </trkpt>
      <trkpt lat="38.0126509722" lon="-6.5798221529">
        <ele>587.02</ele>
        <time>2021-05-30T07:26:09Z</time>
      </trkpt>
      <trkpt lat="38.0127270799" lon="-6.5796238370">
        <ele>587.50</ele>
        <time>2021-05-30T07:26:10Z</time>
      </trkpt>
      <trkpt lat="38.0130529683" lon="-6.5785460081">
        <ele>585.10</ele>
        <time>2021-05-30T07:26:15Z</time>
      </trkpt>
      <trkpt lat="38.0132357776" lon="-6.5779757034">
        <ele>581.25</ele>
        <time>2021-05-30T07:26:18Z</time>
      </trkpt>
      <trkpt lat="38.0133844726" lon="-6.5774031356">
        <ele>580.29</ele>
        <time>2021-05-30T07:26:21Z</time>
      </trkpt>
      <trkpt lat="38.0135651026" lon="-6.5759223048">
        <ele>576.93</ele>
        <time>2021-05-30T07:26:27Z</time>
      </trkpt>
      <trkpt lat="38.0136305653" lon="-6.5754291974">
        <ele>573.08</ele>
        <time>2021-05-30T07:26:29Z</time>
      </trkpt>
      <trkpt lat="38.0137595627" lon="-6.5744205192">
        <ele>568.76</ele>
        <time>2021-05-30T07:26:33Z</time>
      </trkpt>
      <trkpt lat="38.0137804337" lon="-6.5739013441">
        <ele>565.87</ele>
        <time>2021-05-30T07:26:35Z</time>
      </trkpt>
      <trkpt lat="38.0137903243" lon="-6.5734037943">
        <ele>561.55</ele>
        <time>2021-05-30T07:26:37Z</time>
      </trkpt>
      <trkpt lat="38.0137987062" lon="-6.5729392692">
        <ele>558.18</ele>
        <time>2021-05-30T07:26:39Z</time>
      </trkpt>
      <trkpt lat="38.0137849599" lon="-6.5727142990">
        <ele>556.74</ele>
        <time>2021-05-30T07:26:40Z</time>
      </trkpt>
      <trkpt lat="38.0137501750" lon="-6.5724829584">
        <ele>556.74</ele>
        <time>2021-05-30T07:26:41Z</time>
      </trkpt>
      <trkpt lat="38.0136961956" lon="-6.5722377878">
        <ele>557.22</ele>
        <time>2021-05-30T07:26:42Z</time>
      </trkpt>
      <trkpt lat="38.0134359375" lon="-6.5712229069">
        <ele>553.38</ele>
        <time>2021-05-30T07:26:46Z</time>
      </trkpt>
      <trkpt lat="38.0132325087" lon="-6.5703970380">
        <ele>556.74</ele>
        <time>2021-05-30T07:26:49Z</time>
      </trkpt>
      <trkpt lat="38.0128282495" lon="-6.5687349904">
        <ele>553.38</ele>
        <time>2021-05-30T07:26:55Z</time>
      </trkpt>
      <trkpt lat="38.0127455201" lon="-6.5682853851">
        <ele>552.41</ele>
        <time>2021-05-30T07:26:57Z</time>
      </trkpt>
      <trkpt lat="38.0127437599" lon="-6.5680688806">
        <ele>551.93</ele>
        <time>2021-05-30T07:26:58Z</time>
      </trkpt>
      <trkpt lat="38.0127746891" lon="-6.5678522084">
        <ele>550.97</ele>
        <time>2021-05-30T07:26:59Z</time>
      </trkpt>
      <trkpt lat="38.0128310993" lon="-6.5676299203">
        <ele>552.90</ele>
        <time>2021-05-30T07:27:00Z</time>
      </trkpt>
      <trkpt lat="38.0129011720" lon="-6.5673995856">
        <ele>553.38</ele>
        <time>2021-05-30T07:27:01Z</time>
      </trkpt>
      <trkpt lat="38.0131205264" lon="-6.5666695219">
        <ele>555.78</ele>
        <time>2021-05-30T07:27:04Z</time>
      </trkpt>
      <trkpt lat="38.0136056710" lon="-6.5652073827">
        <ele>556.74</ele>
        <time>2021-05-30T07:27:11Z</time>
      </trkpt>
      <trkpt lat="38.0140763987" lon="-6.5640334971">
        <ele>552.90</ele>
        <time>2021-05-30T07:27:16Z</time>
      </trkpt>
      <trkpt lat="38.0141662527" lon="-6.5638024919">
        <ele>552.90</ele>
        <time>2021-05-30T07:27:17Z</time>
      </trkpt>
      <trkpt lat="38.0142472219" lon="-6.5635592490">
        <ele>552.41</ele>
        <time>2021-05-30T07:27:18Z</time>
      </trkpt>
      <trkpt lat="38.0143054761" lon="-6.5633036848">
        <ele>551.93</ele>
        <time>2021-05-30T07:27:19Z</time>
      </trkpt>
      <trkpt lat="38.0143405963" lon="-6.5630372241">
        <ele>551.45</ele>
        <time>2021-05-30T07:27:20Z</time>
      </trkpt>
      <trkpt lat="38.0143738724" lon="-6.5624825936">
        <ele>550.01</ele>
        <time>2021-05-30T07:27:22Z</time>
      </trkpt>
      <trkpt lat="38.0143970065" lon="-6.5619508456">
        <ele>546.17</ele>
        <time>2021-05-30T07:27:24Z</time>
      </trkpt>
      <trkpt lat="38.0144289415" lon="-6.5614609234">
        <ele>544.24</ele>
        <time>2021-05-30T07:27:26Z</time>
      </trkpt>
      <trkpt lat="38.0144655704" lon="-6.5612216201">
        <ele>544.72</ele>
        <time>2021-05-30T07:27:27Z</time>
      </trkpt>
      <trkpt lat="38.0145181250" lon="-6.5609920397">
        <ele>544.24</ele>
        <time>2021-05-30T07:27:28Z</time>
      </trkpt>
      <trkpt lat="38.0145842582" lon="-6.5607781336">
        <ele>543.76</ele>
        <time>2021-05-30T07:27:29Z</time>
      </trkpt>
      <trkpt lat="38.0148846656" lon="-6.5599270351">
        <ele>540.40</ele>
        <time>2021-05-30T07:27:33Z</time>
      </trkpt>
      <trkpt lat="38.0149353761" lon="-6.5597241931">
        <ele>538.48</ele>
        <time>2021-05-30T07:27:34Z</time>
      </trkpt>
      <trkpt lat="38.0149574205" lon="-6.5595189203">
        <ele>536.55</ele>
        <time>2021-05-30T07:27:35Z</time>
      </trkpt>
      <trkpt lat="38.0149484519" lon="-6.5592994820">
        <ele>534.63</ele>
        <time>2021-05-30T07:27:36Z</time>
      </trkpt>
      <trkpt lat="38.0149138346" lon="-6.5590612683">
        <ele>535.11</ele>
        <time>2021-05-30T07:27:37Z</time>
      </trkpt>
      <trkpt lat="38.0148658901" lon="-6.5588078834">
        <ele>535.11</ele>
        <time>2021-05-30T07:27:38Z</time>
      </trkpt>
      <trkpt lat="38.0147719290" lon="-6.5582892951">
        <ele>533.67</ele>
        <time>2021-05-30T07:27:40Z</time>
      </trkpt>
      <trkpt lat="38.0147311091" lon="-6.5580401849">
        <ele>529.34</ele>
        <time>2021-05-30T07:27:41Z</time>
      </trkpt>
      <trkpt lat="38.0146381538" lon="-6.5575867239">
        <ele>525.02</ele>
        <time>2021-05-30T07:27:43Z</time>
      </trkpt>
      <trkpt lat="38.0145614594" lon="-6.5573949460">
        <ele>523.09</ele>
        <time>2021-05-30T07:27:44Z</time>
      </trkpt>
      <trkpt lat="38.0144567695" lon="-6.5572237875">
        <ele>522.13</ele>
        <time>2021-05-30T07:27:45Z</time>
      </trkpt>
      <trkpt lat="38.0143323820" lon="-6.5570579935">
        <ele>522.13</ele>
        <time>2021-05-30T07:27:46Z</time>
      </trkpt>
      <trkpt lat="38.0136270449" lon="-6.5561792348">
        <ele>522.13</ele>
        <time>2021-05-30T07:27:51Z</time>
      </trkpt>
      <trkpt lat="38.0131916888" lon="-6.5556145459">
        <ele>516.85</ele>
        <time>2021-05-30T07:27:54Z</time>
      </trkpt>
      <trkpt lat="38.0130784493" lon="-6.5554390289">
        <ele>515.40</ele>
        <time>2021-05-30T07:27:55Z</time>
      </trkpt>
      <trkpt lat="38.0129896011" lon="-6.5552495141">
        <ele>516.37</ele>
        <time>2021-05-30T07:27:56Z</time>
      </trkpt>
      <trkpt lat="38.0129163433" lon="-6.5550352726">
        <ele>518.29</ele>
        <time>2021-05-30T07:27:57Z</time>
      </trkpt>
      <trkpt lat="38.0127352104" lon="-6.5543503873">
        <ele>521.65</ele>
        <time>2021-05-30T07:28:00Z</time>
      </trkpt>
      <trkpt lat="38.0126914568" lon="-6.5541532449">
        <ele>522.13</ele>
        <time>2021-05-30T07:28:01Z</time>
      </trkpt>
      <trkpt lat="38.0126681551" lon="-6.5539660770">
        <ele>521.17</ele>
        <time>2021-05-30T07:28:02Z</time>
      </trkpt>
      <trkpt lat="38.0126742739" lon="-6.5537862014">
        <ele>520.69</ele>
        <time>2021-05-30T07:28:03Z</time>
      </trkpt>
      <trkpt lat="38.0127103999" lon="-6.5536039788">
        <ele>520.69</ele>
        <time>2021-05-30T07:28:04Z</time>
      </trkpt>
      <trkpt lat="38.0127676483" lon="-6.5534084290">
        <ele>520.69</ele>
        <time>2021-05-30T07:28:05Z</time>
      </trkpt>
      <trkpt lat="38.0131371226" lon="-6.5522448532">
        <ele>524.54</ele>
        <time>2021-05-30T07:28:10Z</time>
      </trkpt>
      <trkpt lat="38.0132936127" lon="-6.5517291985">
        <ele>527.90</ele>
        <time>2021-05-30T07:28:12Z</time>
      </trkpt>
      <trkpt lat="38.0135395378" lon="-6.5509412996">
        <ele>530.30</ele>
        <time>2021-05-30T07:28:15Z</time>
      </trkpt>
      <trkpt lat="38.0137031525" lon="-6.5504167601">
        <ele>531.75</ele>
        <time>2021-05-30T07:28:17Z</time>
      </trkpt>
      <trkpt lat="38.0141793285" lon="-6.5488708857">
        <ele>532.71</ele>
        <time>2021-05-30T07:28:24Z</time>
      </trkpt>
      <trkpt lat="38.0142580345" lon="-6.5487089474">
        <ele>534.15</ele>
        <time>2021-05-30T07:28:25Z</time>
      </trkpt>
      <trkpt lat="38.0143563543" lon="-6.5485563129">
        <ele>534.63</ele>
        <time>2021-05-30T07:28:26Z</time>
      </trkpt>
      <trkpt lat="38.0144767184" lon="-6.5484092105">
        <ele>535.59</ele>
        <time>2021-05-30T07:28:27Z</time>
      </trkpt>
      <trkpt lat="38.0156749953" lon="-6.5471966844">
        <ele>538.96</ele>
        <time>2021-05-30T07:28:35Z</time>
      </trkpt>
      <trkpt lat="38.0160107743" lon="-6.5468593128">
        <ele>542.32</ele>
        <time>2021-05-30T07:28:37Z</time>
      </trkpt>
      <trkpt lat="38.0163535941" lon="-6.5465055965">
        <ele>546.65</ele>
        <time>2021-05-30T07:28:39Z</time>
      </trkpt>
      <trkpt lat="38.0166978389" lon="-6.5461564064">
        <ele>550.01</ele>
        <time>2021-05-30T07:28:41Z</time>
      </trkpt>
      <trkpt lat="38.0175528768" lon="-6.5452657454">
        <ele>553.86</ele>
        <time>2021-05-30T07:28:47Z</time>
      </trkpt>
      <trkpt lat="38.0176606681" lon="-6.5451349877">
        <ele>553.38</ele>
        <time>2021-05-30T07:28:48Z</time>
      </trkpt>
      <trkpt lat="38.0177524500" lon="-6.5449826885">
        <ele>555.30</ele>
        <time>2021-05-30T07:28:49Z</time>
      </trkpt>
      <trkpt lat="38.0178283062" lon="-6.5448049922">
        <ele>557.70</ele>
        <time>2021-05-30T07:28:50Z</time>
      </trkpt>
      <trkpt lat="38.0178916734" lon="-6.5446189139">
        <ele>559.14</ele>
        <time>2021-05-30T07:28:51Z</time>
      </trkpt>
      <trkpt lat="38.0179390311" lon="-6.5444433130">
        <ele>558.66</ele>
        <time>2021-05-30T07:28:52Z</time>
      </trkpt>
      <trkpt lat="38.0179589801" lon="-6.5442798659">
        <ele>559.14</ele>
        <time>2021-05-30T07:28:53Z</time>
      </trkpt>
      <trkpt lat="38.0179482512" lon="-6.5441208612">
        <ele>558.18</ele>
        <time>2021-05-30T07:28:54Z</time>
      </trkpt>
      <trkpt lat="38.0179091077" lon="-6.5439605992">
        <ele>560.11</ele>
        <time>2021-05-30T07:28:55Z</time>
      </trkpt>
      <trkpt lat="38.0178529490" lon="-6.5437998343">
        <ele>561.55</ele>
        <time>2021-05-30T07:28:56Z</time>
      </trkpt>
      <trkpt lat="38.0176655296" lon="-6.5433104988">
        <ele>564.91</ele>
        <time>2021-05-30T07:28:59Z</time>
      </trkpt>
      <trkpt lat="38.0173932016" lon="-6.5425706282">
        <ele>567.80</ele>
        <time>2021-05-30T07:29:04Z</time>
      </trkpt>
      <trkpt lat="38.0173358694" lon="-6.5424164012">
        <ele>567.80</ele>
        <time>2021-05-30T07:29:05Z</time>
      </trkpt>
      <trkpt lat="38.0172248092" lon="-6.5420582425">
        <ele>567.80</ele>
        <time>2021-05-30T07:29:07Z</time>
      </trkpt>
      <trkpt lat="38.0171923712" lon="-6.5418420732">
        <ele>568.28</ele>
        <time>2021-05-30T07:29:08Z</time>
      </trkpt>
      <trkpt lat="38.0171758588" lon="-6.5416127443">
        <ele>568.28</ele>
        <time>2021-05-30T07:29:09Z</time>
      </trkpt>
      <trkpt lat="38.0171276629" lon="-6.5406309720">
        <ele>566.35</ele>
        <time>2021-05-30T07:29:13Z</time>
      </trkpt>
      <trkpt lat="38.0170427542" lon="-6.5391280968">
        <ele>564.43</ele>
        <time>2021-05-30T07:29:19Z</time>
      </trkpt>
      <trkpt lat="38.0169939715" lon="-6.5388940740">
        <ele>565.87</ele>
        <time>2021-05-30T07:29:20Z</time>
      </trkpt>
      <trkpt lat="38.0164629780" lon="-6.5366547648">
        <ele>567.80</ele>
        <time>2021-05-30T07:29:29Z</time>
      </trkpt>
      <trkpt lat="38.0163375009" lon="-6.5359212644">
        <ele>564.43</ele>
        <time>2021-05-30T07:29:32Z</time>
      </trkpt>
      <trkpt lat="38.0162166338" lon="-6.5349838324">
        <ele>560.11</ele>
        <time>2021-05-30T07:29:36Z</time>
      </trkpt>
      <trkpt lat="38.0162017141" lon="-6.5347538330">
        <ele>560.11</ele>
        <time>2021-05-30T07:29:37Z</time>
      </trkpt>
      <trkpt lat="38.0161414482" lon="-6.5336641856">
        <ele>556.74</ele>
        <time>2021-05-30T07:29:42Z</time>
      </trkpt>
      <trkpt lat="38.0159622431" lon="-6.5322112665">
        <ele>555.30</ele>
        <time>2021-05-30T07:29:51Z</time>
      </trkpt>
      <trkpt lat="38.0157863069" lon="-6.5315925144">
        <ele>551.93</ele>
        <time>2021-05-30T07:29:57Z</time>
      </trkpt>
      <trkpt lat="38.0157537851" lon="-6.5314268041">
        <ele>551.93</ele>
        <time>2021-05-30T07:30:01Z</time>
      </trkpt>
      <trkpt lat="38.0157744046" lon="-6.5314094536">
        <ele>550.97</ele>
        <time>2021-05-30T07:30:02Z</time>
      </trkpt>
      <trkpt lat="38.0157989636" lon="-6.5313953720">
        <ele>551.45</ele>
        <time>2021-05-30T07:30:03Z</time>
      </trkpt>
      <trkpt lat="38.0158242770" lon="-6.5313851461">
        <ele>550.97</ele>
        <time>2021-05-30T07:30:04Z</time>
      </trkpt>
      <trkpt lat="38.0158496741" lon="-6.5313760098">
        <ele>550.97</ele>
        <time>2021-05-30T07:30:05Z</time>
      </trkpt>
      <trkpt lat="38.0158726405" lon="-6.5313670412">
        <ele>551.45</ele>
        <time>2021-05-30T07:30:06Z</time>
      </trkpt>
      <trkpt lat="38.0158913322" lon="-6.5313556418">
        <ele>551.45</ele>
        <time>2021-05-30T07:30:07Z</time>
      </trkpt>
      <trkpt lat="38.0161945056" lon="-6.5311583318">
        <ele>553.86</ele>
        <time>2021-05-30T07:30:19Z</time>
      </trkpt>
      <trkpt lat="38.0168907903" lon="-6.5306146815">
        <ele>556.74</ele>
        <time>2021-05-30T07:30:28Z</time>
      </trkpt>
      <trkpt lat="38.0171533115" lon="-6.5304071456">
        <ele>558.18</ele>
        <time>2021-05-30T07:30:31Z</time>
      </trkpt>
      <trkpt lat="38.0175072793" lon="-6.5301758051">
        <ele>559.14</ele>
        <time>2021-05-30T07:30:35Z</time>
      </trkpt>
      <trkpt lat="38.0175880808" lon="-6.5301817562">
        <ele>558.66</ele>
        <time>2021-05-30T07:30:36Z</time>
      </trkpt>
      <trkpt lat="38.0176622607" lon="-6.5302284434">
        <ele>558.18</ele>
        <time>2021-05-30T07:30:37Z</time>
      </trkpt>
      <trkpt lat="38.0177290644" lon="-6.5303172916">
        <ele>559.14</ele>
        <time>2021-05-30T07:30:38Z</time>
      </trkpt>
      <trkpt lat="38.0177877378" lon="-6.5304331295">
        <ele>559.62</ele>
        <time>2021-05-30T07:30:39Z</time>
      </trkpt>
      <trkpt lat="38.0178426392" lon="-6.5305646416">
        <ele>560.59</ele>
        <time>2021-05-30T07:30:40Z</time>
      </trkpt>
      <trkpt lat="38.0179487541" lon="-6.5308457706">
        <ele>561.07</ele>
        <time>2021-05-30T07:30:42Z</time>
      </trkpt>
      <trkpt lat="38.0180000514" lon="-6.5309642907">
        <ele>560.11</ele>
        <time>2021-05-30T07:30:43Z</time>
      </trkpt>
      <trkpt lat="38.0180606525" lon="-6.5310523007">
        <ele>560.11</ele>
        <time>2021-05-30T07:30:44Z</time>
      </trkpt>
      <trkpt lat="38.0181352515" lon="-6.5311073698">
        <ele>560.11</ele>
        <time>2021-05-30T07:30:45Z</time>
      </trkpt>
      <trkpt lat="38.0182261113" lon="-6.5311294142">
        <ele>561.07</ele>
        <time>2021-05-30T07:30:46Z</time>
      </trkpt>
      <trkpt lat="38.0183286220" lon="-6.5311257262">
        <ele>562.03</ele>
        <time>2021-05-30T07:30:47Z</time>
      </trkpt>
      <trkpt lat="38.0184348207" lon="-6.5311109740">
        <ele>562.99</ele>
        <time>2021-05-30T07:30:48Z</time>
      </trkpt>
      <trkpt lat="38.0186561868" lon="-6.5310699865">
        <ele>564.43</ele>
        <time>2021-05-30T07:30:50Z</time>
      </trkpt>
      <trkpt lat="38.0187558476" lon="-6.5310437512">
        <ele>564.43</ele>
        <time>2021-05-30T07:30:51Z</time>
      </trkpt>
      <trkpt lat="38.0188474618" lon="-6.5309964772">
        <ele>565.39</ele>
        <time>2021-05-30T07:30:52Z</time>
      </trkpt>
      <trkpt lat="38.0189240724" lon="-6.5309169330">
        <ele>566.83</ele>
        <time>2021-05-30T07:30:53Z</time>
      </trkpt>
      <trkpt lat="38.0189806502" lon="-6.5308058728">
        <ele>567.80</ele>
        <time>2021-05-30T07:30:54Z</time>
      </trkpt>
      <trkpt lat="38.0190198775" lon="-6.5306763723">
        <ele>569.24</ele>
        <time>2021-05-30T07:30:55Z</time>
      </trkpt>
      <trkpt lat="38.0190534890" lon="-6.5305374842">
        <ele>570.68</ele>
        <time>2021-05-30T07:30:56Z</time>
      </trkpt>
      <trkpt lat="38.0191124137" lon="-6.5302254260">
        <ele>573.56</ele>
        <time>2021-05-30T07:30:58Z</time>
      </trkpt>
      <trkpt lat="38.0191257410" lon="-6.5300592128">
        <ele>575.49</ele>
        <time>2021-05-30T07:30:59Z</time>
      </trkpt>
      <trkpt lat="38.0191284232" lon="-6.5298977774">
        <ele>575.97</ele>
        <time>2021-05-30T07:31:00Z</time>
      </trkpt>
      <trkpt lat="38.0191228911" lon="-6.5297340788">
        <ele>577.41</ele>
        <time>2021-05-30T07:31:01Z</time>
      </trkpt>
      <trkpt lat="38.0191101506" lon="-6.5295676142">
        <ele>578.85</ele>
        <time>2021-05-30T07:31:02Z</time>
      </trkpt>
      <trkpt lat="38.0190895312" lon="-6.5293998923">
        <ele>579.81</ele>
        <time>2021-05-30T07:31:03Z</time>
      </trkpt>
      <trkpt lat="38.0190482922" lon="-6.5290452540">
        <ele>583.18</ele>
        <time>2021-05-30T07:31:05Z</time>
      </trkpt>
      <trkpt lat="38.0190377310" lon="-6.5286561660">
        <ele>587.02</ele>
        <time>2021-05-30T07:31:07Z</time>
      </trkpt>
      <trkpt lat="38.0190410838" lon="-6.5282375738">
        <ele>590.87</ele>
        <time>2021-05-30T07:31:09Z</time>
      </trkpt>
      <trkpt lat="38.0190466158" lon="-6.5277940873">
        <ele>594.23</ele>
        <time>2021-05-30T07:31:11Z</time>
      </trkpt>
      <trkpt lat="38.0190045387" lon="-6.5269558970">
        <ele>597.60</ele>
        <time>2021-05-30T07:31:15Z</time>
      </trkpt>
      <trkpt lat="38.0190011859" lon="-6.5267573297">
        <ele>599.52</ele>
        <time>2021-05-30T07:31:16Z</time>
      </trkpt>
      <trkpt lat="38.0190197937" lon="-6.5265478659">
        <ele>601.92</ele>
        <time>2021-05-30T07:31:17Z</time>
      </trkpt>
      <trkpt lat="38.0190948118" lon="-6.5261043794">
        <ele>605.29</ele>
        <time>2021-05-30T07:31:19Z</time>
      </trkpt>
      <trkpt lat="38.0191898625" lon="-6.5256479848">
        <ele>609.13</ele>
        <time>2021-05-30T07:31:21Z</time>
      </trkpt>
      <trkpt lat="38.0192344543" lon="-6.5254341625">
        <ele>609.13</ele>
        <time>2021-05-30T07:31:22Z</time>
      </trkpt>
      <trkpt lat="38.0193652958" lon="-6.5248117223">
        <ele>612.98</ele>
        <time>2021-05-30T07:31:25Z</time>
      </trkpt>
      <trkpt lat="38.0194341950" lon="-6.5243812278">
        <ele>615.86</ele>
        <time>2021-05-30T07:31:27Z</time>
      </trkpt>
      <trkpt lat="38.0194748472" lon="-6.5239251684">
        <ele>619.23</ele>
        <time>2021-05-30T07:31:29Z</time>
      </trkpt>
      <trkpt lat="38.0195522960" lon="-6.5234541893">
        <ele>623.07</ele>
        <time>2021-05-30T07:31:31Z</time>
      </trkpt>
      <trkpt lat="38.0196957104" lon="-6.5227770992">
        <ele>627.88</ele>
        <time>2021-05-30T07:31:34Z</time>
      </trkpt>
      <trkpt lat="38.0199284758" lon="-6.5220789704">
        <ele>631.24</ele>
        <time>2021-05-30T07:31:37Z</time>
      </trkpt>
      <trkpt lat="38.0202704575" lon="-6.5214201529">
        <ele>634.61</ele>
        <time>2021-05-30T07:31:40Z</time>
      </trkpt>
      <trkpt lat="38.0205356609" lon="-6.5210111998">
        <ele>637.97</ele>
        <time>2021-05-30T07:31:42Z</time>
      </trkpt>
      <trkpt lat="38.0207770597" lon="-6.5206201840">
        <ele>639.89</ele>
        <time>2021-05-30T07:31:44Z</time>
      </trkpt>
      <trkpt lat="38.0211111624" lon="-6.5198379848">
        <ele>641.82</ele>
        <time>2021-05-30T07:31:49Z</time>
      </trkpt>
      <trkpt lat="38.0211740267" lon="-6.5197619610">
        <ele>641.34</ele>
        <time>2021-05-30T07:31:50Z</time>
      </trkpt>
      <trkpt lat="38.0212391540" lon="-6.5197316185">
        <ele>641.34</ele>
        <time>2021-05-30T07:31:51Z</time>
      </trkpt>
      <trkpt lat="38.0213086400" lon="-6.5197448619">
        <ele>641.34</ele>
        <time>2021-05-30T07:31:52Z</time>
      </trkpt>
      <trkpt lat="38.0213816464" lon="-6.5197906271">
        <ele>642.30</ele>
        <time>2021-05-30T07:31:53Z</time>
      </trkpt>
      <trkpt lat="38.0214580894" lon="-6.5198550839">
        <ele>643.26</ele>
        <time>2021-05-30T07:31:54Z</time>
      </trkpt>
      <trkpt lat="38.0215371307" lon="-6.5199334547">
        <ele>644.70</ele>
        <time>2021-05-30T07:31:55Z</time>
      </trkpt>
      <trkpt lat="38.0216107238" lon="-6.5200176928">
        <ele>646.14</ele>
        <time>2021-05-30T07:31:56Z</time>
      </trkpt>
      <trkpt lat="38.0216764379" lon="-6.5200849995">
        <ele>646.62</ele>
        <time>2021-05-30T07:31:57Z</time>
      </trkpt>
      <trkpt lat="38.0217415653" lon="-6.5201216284">
        <ele>646.14</ele>
        <time>2021-05-30T07:31:58Z</time>
      </trkpt>
      <trkpt lat="38.0218102131" lon="-6.5201258194">
        <ele>645.18</ele>
        <time>2021-05-30T07:31:59Z</time>
      </trkpt>
      <trkpt lat="38.0218864884" lon="-6.5201080497">
        <ele>644.70</ele>
        <time>2021-05-30T07:32:00Z</time>
      </trkpt>
      <trkpt lat="38.0219707265" lon="-6.5200798865">
        <ele>644.70</ele>
        <time>2021-05-30T07:32:01Z</time>
      </trkpt>
      <trkpt lat="38.0220568925" lon="-6.5200600214">
        <ele>643.74</ele>
        <time>2021-05-30T07:32:02Z</time>
      </trkpt>
      <trkpt lat="38.0221415497" lon="-6.5200791322">
        <ele>642.78</ele>
        <time>2021-05-30T07:32:03Z</time>
      </trkpt>
      <trkpt lat="38.0222236086" lon="-6.5201368835">
        <ele>643.26</ele>
        <time>2021-05-30T07:32:04Z</time>
      </trkpt>
      <trkpt lat="38.0226181448" lon="-6.5205502789">
        <ele>639.89</ele>
        <time>2021-05-30T07:32:08Z</time>
      </trkpt>
      <trkpt lat="38.0229307897" lon="-6.5209108684">
        <ele>636.05</ele>
        <time>2021-05-30T07:32:11Z</time>
      </trkpt>
      <trkpt lat="38.0230213981" lon="-6.5210586414">
        <ele>635.09</ele>
        <time>2021-05-30T07:32:12Z</time>
      </trkpt>
      <trkpt lat="38.0232793093" lon="-6.5215394273">
        <ele>632.68</ele>
        <time>2021-05-30T07:32:15Z</time>
      </trkpt>
      <trkpt lat="38.0235922057" lon="-6.5219978336">
        <ele>628.84</ele>
        <time>2021-05-30T07:32:18Z</time>
      </trkpt>
      <trkpt lat="38.0237010028" lon="-6.5221420862">
        <ele>628.36</ele>
        <time>2021-05-30T07:32:19Z</time>
      </trkpt>
      <trkpt lat="38.0238202773" lon="-6.5222746041">
        <ele>627.88</ele>
        <time>2021-05-30T07:32:20Z</time>
      </trkpt>
      <trkpt lat="38.0240693036" lon="-6.5225152485">
        <ele>623.55</ele>
        <time>2021-05-30T07:32:22Z</time>
      </trkpt>
      <trkpt lat="38.0243174918" lon="-6.5227397997">
        <ele>620.19</ele>
        <time>2021-05-30T07:32:24Z</time>
      </trkpt>
      <trkpt lat="38.0246668495" lon="-6.5231232718">
        <ele>615.86</ele>
        <time>2021-05-30T07:32:27Z</time>
      </trkpt>
      <trkpt lat="38.0247676000" lon="-6.5232943464">
        <ele>614.90</ele>
        <time>2021-05-30T07:32:28Z</time>
      </trkpt>
      <trkpt lat="38.0251675844" lon="-6.5241133422">
        <ele>612.02</ele>
        <time>2021-05-30T07:32:32Z</time>
      </trkpt>
      <trkpt lat="38.0254684109" lon="-6.5247344412">
        <ele>608.65</ele>
        <time>2021-05-30T07:32:35Z</time>
      </trkpt>
      <trkpt lat="38.0258030165" lon="-6.5255654231">
        <ele>607.21</ele>
        <time>2021-05-30T07:32:39Z</time>
      </trkpt>
      <trkpt lat="38.0259055272" lon="-6.5258922335">
        <ele>604.33</ele>
        <time>2021-05-30T07:32:41Z</time>
      </trkpt>
      <trkpt lat="38.0259565730" lon="-6.5259918105">
        <ele>603.85</ele>
        <time>2021-05-30T07:32:42Z</time>
      </trkpt>
      <trkpt lat="38.0260153301" lon="-6.5260425210">
        <ele>602.88</ele>
        <time>2021-05-30T07:32:43Z</time>
      </trkpt>
      <trkpt lat="38.0260831397" lon="-6.5260493103">
        <ele>603.36</ele>
        <time>2021-05-30T07:32:44Z</time>
      </trkpt>
      <trkpt lat="38.0261625163" lon="-6.5260198899">
        <ele>603.85</ele>
        <time>2021-05-30T07:32:45Z</time>
      </trkpt>
      <trkpt lat="38.0262558907" lon="-6.5259793214">
        <ele>605.77</ele>
        <time>2021-05-30T07:32:46Z</time>
      </trkpt>
      <trkpt lat="38.0264825374" lon="-6.5258999448">
        <ele>609.13</ele>
        <time>2021-05-30T07:32:48Z</time>
      </trkpt>
      <trkpt lat="38.0267542787" lon="-6.5258112643">
        <ele>612.50</ele>
        <time>2021-05-30T07:32:50Z</time>
      </trkpt>
      <trkpt lat="38.0271515809" lon="-6.5257230029">
        <ele>615.86</ele>
        <time>2021-05-30T07:32:53Z</time>
      </trkpt>
      <trkpt lat="38.0272786506" lon="-6.5257489868">
        <ele>616.82</ele>
        <time>2021-05-30T07:32:54Z</time>
      </trkpt>
      <trkpt lat="38.0274060555" lon="-6.5258129407">
        <ele>618.75</ele>
        <time>2021-05-30T07:32:55Z</time>
      </trkpt>
      <trkpt lat="38.0275345501" lon="-6.5259054769">
        <ele>620.67</ele>
        <time>2021-05-30T07:32:56Z</time>
      </trkpt>
      <trkpt lat="38.0276634637" lon="-6.5260119271">
        <ele>622.59</ele>
        <time>2021-05-30T07:32:57Z</time>
      </trkpt>
      <trkpt lat="38.0280912761" lon="-6.5264128335">
        <ele>624.51</ele>
        <time>2021-05-30T07:33:01Z</time>
      </trkpt>
      <trkpt lat="38.0281636119" lon="-6.5265454352">
        <ele>624.99</ele>
        <time>2021-05-30T07:33:02Z</time>
      </trkpt>
      <trkpt lat="38.0282202736" lon="-6.5267082956">
        <ele>625.47</ele>
        <time>2021-05-30T07:33:03Z</time>
      </trkpt>
      <trkpt lat="38.0282675475" lon="-6.5268942062">
        <ele>625.96</ele>
        <time>2021-05-30T07:33:04Z</time>
      </trkpt>
      <trkpt lat="38.0283245444" lon="-6.5270774346">
        <ele>625.47</ele>
        <time>2021-05-30T07:33:05Z</time>
      </trkpt>
      <trkpt lat="38.0284066871" lon="-6.5272475034">
        <ele>625.47</ele>
        <time>2021-05-30T07:33:06Z</time>
      </trkpt>
      <trkpt lat="38.0285111256" lon="-6.5274122916">
        <ele>624.03</ele>
        <time>2021-05-30T07:33:07Z</time>
      </trkpt>
      <trkpt lat="38.0288630817" lon="-6.5279153734">
        <ele>621.15</ele>
        <time>2021-05-30T07:33:10Z</time>
      </trkpt>
      <trkpt lat="38.0292017944" lon="-6.5284502227">
        <ele>614.42</ele>
        <time>2021-05-30T07:33:13Z</time>
      </trkpt>
      <trkpt lat="38.0294223223" lon="-6.5287953056">
        <ele>610.57</ele>
        <time>2021-05-30T07:33:15Z</time>
      </trkpt>
      <trkpt lat="38.0296562612" lon="-6.5291266423">
        <ele>607.69</ele>
        <time>2021-05-30T07:33:17Z</time>
      </trkpt>
      <trkpt lat="38.0297649745" lon="-6.5293066017">
        <ele>606.25</ele>
        <time>2021-05-30T07:33:18Z</time>
      </trkpt>
      <trkpt lat="38.0299585965" lon="-6.5296909958">
        <ele>601.92</ele>
        <time>2021-05-30T07:33:20Z</time>
      </trkpt>
      <trkpt lat="38.0301230494" lon="-6.5300546866">
        <ele>598.08</ele>
        <time>2021-05-30T07:33:22Z</time>
      </trkpt>
      <trkpt lat="38.0302408990" lon="-6.5303785633">
        <ele>593.27</ele>
        <time>2021-05-30T07:33:24Z</time>
      </trkpt>
      <trkpt lat="38.0302640330" lon="-6.5305593610">
        <ele>593.27</ele>
        <time>2021-05-30T07:33:25Z</time>
      </trkpt>
      <trkpt lat="38.0302710738" lon="-6.5307557490">
        <ele>591.83</ele>
        <time>2021-05-30T07:33:26Z</time>
      </trkpt>
      <trkpt lat="38.0302804615" lon="-6.5313818771">
        <ele>587.02</ele>
        <time>2021-05-30T07:33:29Z</time>
      </trkpt>
      <trkpt lat="38.0302890949" lon="-6.5317615774">
        <ele>583.66</ele>
        <time>2021-05-30T07:33:31Z</time>
      </trkpt>
      <trkpt lat="38.0303206947" lon="-6.5320323128">
        <ele>580.29</ele>
        <time>2021-05-30T07:33:33Z</time>
      </trkpt>
      <trkpt lat="38.0311830249" lon="-6.5325991809">
        <ele>582.22</ele>
        <time>2021-05-30T07:33:42Z</time>
      </trkpt>
      <trkpt lat="38.0313016288" lon="-6.5326755401">
        <ele>579.33</ele>
        <time>2021-05-30T07:33:43Z</time>
      </trkpt>
      <trkpt lat="38.0314113479" lon="-6.5327816550">
        <ele>579.33</ele>
        <time>2021-05-30T07:33:44Z</time>
      </trkpt>
      <trkpt lat="38.0315208994" lon="-6.5329104010">
        <ele>577.41</ele>
        <time>2021-05-30T07:33:45Z</time>
      </trkpt>
      <trkpt lat="38.0327604152" lon="-6.5338087734">
        <ele>579.81</ele>
        <time>2021-05-30T07:33:54Z</time>
      </trkpt>
      <trkpt lat="38.0329114571" lon="-6.5338486712">
        <ele>577.89</ele>
        <time>2021-05-30T07:33:55Z</time>
      </trkpt>
      <trkpt lat="38.0330503453" lon="-6.5338743199">
        <ele>571.64</ele>
        <time>2021-05-30T07:33:56Z</time>
      </trkpt>
      <trkpt lat="38.0331676919" lon="-6.5338848811">
        <ele>569.72</ele>
        <time>2021-05-30T07:33:57Z</time>
      </trkpt>
      <trkpt lat="38.0332647543" lon="-6.5338666085">
        <ele>569.24</ele>
        <time>2021-05-30T07:33:58Z</time>
      </trkpt>
      <trkpt lat="38.0333453044" lon="-6.5338110365">
        <ele>568.28</ele>
        <time>2021-05-30T07:33:59Z</time>
      </trkpt>
      <trkpt lat="38.0334074982" lon="-6.5337165724">
        <ele>572.12</ele>
        <time>2021-05-30T07:34:00Z</time>
      </trkpt>
      <trkpt lat="38.0334503297" lon="-6.5335921850">
        <ele>573.08</ele>
        <time>2021-05-30T07:34:01Z</time>
      </trkpt>
      <trkpt lat="38.0334865395" lon="-6.5334479325">
        <ele>574.53</ele>
        <time>2021-05-30T07:34:02Z</time>
      </trkpt>
      <trkpt lat="38.0335917324" lon="-6.5331383888">
        <ele>578.37</ele>
        <time>2021-05-30T07:34:04Z</time>
      </trkpt>
      <trkpt lat="38.0336650740" lon="-6.5329891071">
        <ele>579.33</ele>
        <time>2021-05-30T07:34:05Z</time>
      </trkpt>
      <trkpt lat="38.0337463785" lon="-6.5328603610">
        <ele>578.85</ele>
        <time>2021-05-30T07:34:06Z</time>
      </trkpt>
      <trkpt lat="38.0338281021" lon="-6.5327489655">
        <ele>579.81</ele>
        <time>2021-05-30T07:34:07Z</time>
      </trkpt>
      <trkpt lat="38.0339086521" lon="-6.5326604526">
        <ele>580.29</ele>
        <time>2021-05-30T07:34:08Z</time>
      </trkpt>
      <trkpt lat="38.0339915492" lon="-6.5326032043">
        <ele>579.81</ele>
        <time>2021-05-30T07:34:09Z</time>
      </trkpt>
      <trkpt lat="38.0340819899" lon="-6.5325902961">
        <ele>580.77</ele>
        <time>2021-05-30T07:34:10Z</time>
      </trkpt>
      <trkpt lat="38.0341784656" lon="-6.5326283500">
        <ele>581.73</ele>
        <time>2021-05-30T07:34:11Z</time>
      </trkpt>
      <trkpt lat="38.0342738517" lon="-6.5327125881">
        <ele>583.18</ele>
        <time>2021-05-30T07:34:12Z</time>
      </trkpt>
      <trkpt lat="38.0343683995" lon="-6.5328226425">
        <ele>585.10</ele>
        <time>2021-05-30T07:34:13Z</time>
      </trkpt>
      <trkpt lat="38.0344623607" lon="-6.5329465270">
        <ele>587.02</ele>
        <time>2021-05-30T07:34:14Z</time>
      </trkpt>
      <trkpt lat="38.0345450900" lon="-6.5330837388">
        <ele>588.95</ele>
        <time>2021-05-30T07:34:15Z</time>
      </trkpt>
      <trkpt lat="38.0346043501" lon="-6.5332248900">
        <ele>589.43</ele>
        <time>2021-05-30T07:34:16Z</time>
      </trkpt>
      <trkpt lat="38.0346320942" lon="-6.5333684720">
        <ele>590.39</ele>
        <time>2021-05-30T07:34:17Z</time>
      </trkpt>
      <trkpt lat="38.0346305016" lon="-6.5335235372">
        <ele>591.35</ele>
        <time>2021-05-30T07:34:18Z</time>
      </trkpt>
      <trkpt lat="38.0346051883" lon="-6.5336858947">
        <ele>592.79</ele>
        <time>2021-05-30T07:34:19Z</time>
      </trkpt>
      <trkpt lat="38.0345576629" lon="-6.5338510182">
        <ele>594.23</ele>
        <time>2021-05-30T07:34:20Z</time>
      </trkpt>
      <trkpt lat="38.0345006660" lon="-6.5340072569">
        <ele>596.15</ele>
        <time>2021-05-30T07:34:21Z</time>
      </trkpt>
      <trkpt lat="38.0344545655" lon="-6.5341493301">
        <ele>595.67</ele>
        <time>2021-05-30T07:34:22Z</time>
      </trkpt>
      <trkpt lat="38.0344310123" lon="-6.5342883021">
        <ele>595.19</ele>
        <time>2021-05-30T07:34:23Z</time>
      </trkpt>
      <trkpt lat="38.0344335269" lon="-6.5344342310">
        <ele>594.71</ele>
        <time>2021-05-30T07:34:24Z</time>
      </trkpt>
      <trkpt lat="38.0344590079" lon="-6.5345881227">
        <ele>595.19</ele>
        <time>2021-05-30T07:34:25Z</time>
      </trkpt>
      <trkpt lat="38.0344984028" lon="-6.5347398352">
        <ele>595.19</ele>
        <time>2021-05-30T07:34:26Z</time>
      </trkpt>
      <trkpt lat="38.0345421564" lon="-6.5348747000">
        <ele>593.27</ele>
        <time>2021-05-30T07:34:27Z</time>
      </trkpt>
      <trkpt lat="38.0345968902" lon="-6.5349855926">
        <ele>592.31</ele>
        <time>2021-05-30T07:34:28Z</time>
      </trkpt>
      <trkpt lat="38.0346711539" lon="-6.5350673161">
        <ele>591.35</ele>
        <time>2021-05-30T07:34:29Z</time>
      </trkpt>
      <trkpt lat="38.0347660370" lon="-6.5351212118">
        <ele>590.87</ele>
        <time>2021-05-30T07:34:30Z</time>
      </trkpt>
      <trkpt lat="38.0348842219" lon="-6.5351523086">
        <ele>589.91</ele>
        <time>2021-05-30T07:34:31Z</time>
      </trkpt>
      <trkpt lat="38.0350169912" lon="-6.5351681504">
        <ele>589.91</ele>
        <time>2021-05-30T07:34:32Z</time>
      </trkpt>
      <trkpt lat="38.0358012021" lon="-6.5351545718">
        <ele>585.58</ele>
        <time>2021-05-30T07:34:37Z</time>
      </trkpt>
      <trkpt lat="38.0361227319" lon="-6.5351458546">
        <ele>582.22</ele>
        <time>2021-05-30T07:34:39Z</time>
      </trkpt>
      <trkpt lat="38.0362599436" lon="-6.5351062920">
        <ele>579.33</ele>
        <time>2021-05-30T07:34:40Z</time>
      </trkpt>
      <trkpt lat="38.0363805592" lon="-6.5350280050">
        <ele>577.89</ele>
        <time>2021-05-30T07:34:41Z</time>
      </trkpt>
      <trkpt lat="38.0364927929" lon="-6.5349435154">
        <ele>576.45</ele>
        <time>2021-05-30T07:34:42Z</time>
      </trkpt>
      <trkpt lat="38.0366164260" lon="-6.5348785557">
        <ele>575.49</ele>
        <time>2021-05-30T07:34:43Z</time>
      </trkpt>
      <trkpt lat="38.0367621034" lon="-6.5348441899">
        <ele>575.49</ele>
        <time>2021-05-30T07:34:44Z</time>
      </trkpt>
      <trkpt lat="38.0369210243" lon="-6.5348358918">
        <ele>575.97</ele>
        <time>2021-05-30T07:34:45Z</time>
      </trkpt>
      <trkpt lat="38.0370894168" lon="-6.5348370653">
        <ele>575.01</ele>
        <time>2021-05-30T07:34:46Z</time>
      </trkpt>
      <trkpt lat="38.0377767328" lon="-6.5348361433">
        <ele>571.64</ele>
        <time>2021-05-30T07:34:50Z</time>
      </trkpt>
      <trkpt lat="38.0380463786" lon="-6.5348755382">
        <ele>568.28</ele>
        <time>2021-05-30T07:34:52Z</time>
      </trkpt>
      <trkpt lat="38.0381696764" lon="-6.5349603631">
        <ele>568.28</ele>
        <time>2021-05-30T07:34:53Z</time>
      </trkpt>
      <trkpt lat="38.0382926390" lon="-6.5350798052">
        <ele>568.28</ele>
        <time>2021-05-30T07:34:54Z</time>
      </trkpt>
      <trkpt lat="38.0387090519" lon="-6.5354857408">
        <ele>564.91</ele>
        <time>2021-05-30T07:34:57Z</time>
      </trkpt>
      <trkpt lat="38.0389708187" lon="-6.5357633494">
        <ele>562.99</ele>
        <time>2021-05-30T07:34:59Z</time>
      </trkpt>
      <trkpt lat="38.0390883330" lon="-6.5359324962">
        <ele>562.51</ele>
        <time>2021-05-30T07:35:00Z</time>
      </trkpt>
      <trkpt lat="38.0391909275" lon="-6.5361236036">
        <ele>562.03</ele>
        <time>2021-05-30T07:35:01Z</time>
      </trkpt>
      <trkpt lat="38.0395248625" lon="-6.5367232449">
        <ele>562.03</ele>
        <time>2021-05-30T07:35:04Z</time>
      </trkpt>
      <trkpt lat="38.0396678578" lon="-6.5369003545">
        <ele>563.47</ele>
        <time>2021-05-30T07:35:05Z</time>
      </trkpt>
      <trkpt lat="38.0398143735" lon="-6.5370653104">
        <ele>562.99</ele>
        <time>2021-05-30T07:35:06Z</time>
      </trkpt>
      <trkpt lat="38.0402089935" lon="-6.5375207830">
        <ele>562.03</ele>
        <time>2021-05-30T07:35:09Z</time>
      </trkpt>
      <trkpt lat="38.0403218139" lon="-6.5377028380">
        <ele>562.99</ele>
        <time>2021-05-30T07:35:10Z</time>
      </trkpt>
      <trkpt lat="38.0406414159" lon="-6.5383060835">
        <ele>567.32</ele>
        <time>2021-05-30T07:35:13Z</time>
      </trkpt>
      <trkpt lat="38.0408538971" lon="-6.5386831015">
        <ele>568.28</ele>
        <time>2021-05-30T07:35:15Z</time>
      </trkpt>
      <trkpt lat="38.0409670528" lon="-6.5388409328">
        <ele>567.80</ele>
        <time>2021-05-30T07:35:16Z</time>
      </trkpt>
      <trkpt lat="38.0413250439" lon="-6.5392519813">
        <ele>569.72</ele>
        <time>2021-05-30T07:35:19Z</time>
      </trkpt>
      <trkpt lat="38.0416109506" lon="-6.5395598486">
        <ele>567.80</ele>
        <time>2021-05-30T07:35:22Z</time>
      </trkpt>
      <trkpt lat="38.0416936800" lon="-6.5396098047">
        <ele>566.35</ele>
        <time>2021-05-30T07:35:23Z</time>
      </trkpt>
      <trkpt lat="38.0417866353" lon="-6.5396171808">
        <ele>565.87</ele>
        <time>2021-05-30T07:35:24Z</time>
      </trkpt>
      <trkpt lat="38.0418941751" lon="-6.5395823959">
        <ele>565.87</ele>
        <time>2021-05-30T07:35:25Z</time>
      </trkpt>
      <trkpt lat="38.0420199875" lon="-6.5395295899">
        <ele>566.35</ele>
        <time>2021-05-30T07:35:26Z</time>
      </trkpt>
      <trkpt lat="38.0431736726" lon="-6.5390650649">
        <ele>569.24</ele>
        <time>2021-05-30T07:35:33Z</time>
      </trkpt>
      <trkpt lat="38.0435203481" lon="-6.5389717743">
        <ele>570.20</ele>
        <time>2021-05-30T07:35:35Z</time>
      </trkpt>
      <trkpt lat="38.0438154750" lon="-6.5388765559">
        <ele>570.20</ele>
        <time>2021-05-30T07:35:37Z</time>
      </trkpt>
      <trkpt lat="38.0440864619" lon="-6.5387543477">
        <ele>570.20</ele>
        <time>2021-05-30T07:35:39Z</time>
      </trkpt>
      <trkpt lat="38.0442292057" lon="-6.5387358237">
        <ele>571.16</ele>
        <time>2021-05-30T07:35:40Z</time>
      </trkpt>
      <trkpt lat="38.0446462054" lon="-6.5387324709">
        <ele>571.16</ele>
        <time>2021-05-30T07:35:43Z</time>
      </trkpt>
      <trkpt lat="38.0447841715" lon="-6.5386825148">
        <ele>571.64</ele>
        <time>2021-05-30T07:35:44Z</time>
      </trkpt>
      <trkpt lat="38.0449249875" lon="-6.5386017133">
        <ele>572.60</ele>
        <time>2021-05-30T07:35:45Z</time>
      </trkpt>
      <trkpt lat="38.0452063680" lon="-6.5384197421">
        <ele>573.56</ele>
        <time>2021-05-30T07:35:47Z</time>
      </trkpt>
      <trkpt lat="38.0453321803" lon="-6.5383484960">
        <ele>573.56</ele>
        <time>2021-05-30T07:35:48Z</time>
      </trkpt>
      <trkpt lat="38.0454593338" lon="-6.5383160580">
        <ele>573.56</ele>
        <time>2021-05-30T07:35:49Z</time>
      </trkpt>
      <trkpt lat="38.0455994792" lon="-6.5383217577">
        <ele>575.49</ele>
        <time>2021-05-30T07:35:50Z</time>
      </trkpt>
      <trkpt lat="38.0459172372" lon="-6.5383695345">
        <ele>578.37</ele>
        <time>2021-05-30T07:35:52Z</time>
      </trkpt>
      <trkpt lat="38.0464136135" lon="-6.5384924132">
        <ele>582.22</ele>
        <time>2021-05-30T07:35:55Z</time>
      </trkpt>
      <trkpt lat="38.0465574469" lon="-6.5385180619">
        <ele>582.70</ele>
        <time>2021-05-30T07:35:56Z</time>
      </trkpt>
      <trkpt lat="38.0467073154" lon="-6.5385126974">
        <ele>584.62</ele>
        <time>2021-05-30T07:35:57Z</time>
      </trkpt>
      <trkpt lat="38.0468607880" lon="-6.5384826902">
        <ele>586.54</ele>
        <time>2021-05-30T07:35:58Z</time>
      </trkpt>
      <trkpt lat="38.0470138416" lon="-6.5384601429">
        <ele>588.46</ele>
        <time>2021-05-30T07:35:59Z</time>
      </trkpt>
      <trkpt lat="38.0471719243" lon="-6.5384681057">
        <ele>589.91</ele>
        <time>2021-05-30T07:36:00Z</time>
      </trkpt>
      <trkpt lat="38.0473378859" lon="-6.5385050699">
        <ele>591.83</ele>
        <time>2021-05-30T07:36:01Z</time>
      </trkpt>
      <trkpt lat="38.0475081224" lon="-6.5385595523">
        <ele>593.75</ele>
        <time>2021-05-30T07:36:02Z</time>
      </trkpt>
      <trkpt lat="38.0478506070" lon="-6.5387179703">
        <ele>597.12</ele>
        <time>2021-05-30T07:36:04Z</time>
      </trkpt>
      <trkpt lat="38.0483300518" lon="-6.5390757099">
        <ele>601.92</ele>
        <time>2021-05-30T07:36:07Z</time>
      </trkpt>
      <trkpt lat="38.0484709516" lon="-6.5392224770">
        <ele>603.85</ele>
        <time>2021-05-30T07:36:08Z</time>
      </trkpt>
      <trkpt lat="38.0485989433" lon="-6.5393927973">
        <ele>605.77</ele>
        <time>2021-05-30T07:36:09Z</time>
      </trkpt>
      <trkpt lat="38.0488347262" lon="-6.5397640318">
        <ele>609.13</ele>
        <time>2021-05-30T07:36:11Z</time>
      </trkpt>
      <trkpt lat="38.0491629615" lon="-6.5402862243">
        <ele>611.54</ele>
        <time>2021-05-30T07:36:14Z</time>
      </trkpt>
      <trkpt lat="38.0493559968" lon="-6.5405301377">
        <ele>613.94</ele>
        <time>2021-05-30T07:36:16Z</time>
      </trkpt>
      <trkpt lat="38.0494671408" lon="-6.5406090952">
        <ele>614.42</ele>
        <time>2021-05-30T07:36:17Z</time>
      </trkpt>
      <trkpt lat="38.0495958868" lon="-6.5406531002">
        <ele>614.90</ele>
        <time>2021-05-30T07:36:18Z</time>
      </trkpt>
      <trkpt lat="38.0497415643" lon="-6.5406588838">
        <ele>615.86</ele>
        <time>2021-05-30T07:36:19Z</time>
      </trkpt>
      <trkpt lat="38.0498993117" lon="-6.5406326484">
        <ele>615.86</ele>
        <time>2021-05-30T07:36:20Z</time>
      </trkpt>
      <trkpt lat="38.0500606634" lon="-6.5405741427">
        <ele>617.78</ele>
        <time>2021-05-30T07:36:21Z</time>
      </trkpt>
      <trkpt lat="38.0502137169" lon="-6.5404863842">
        <ele>618.26</ele>
        <time>2021-05-30T07:36:22Z</time>
      </trkpt>
      <trkpt lat="38.0503508449" lon="-6.5403705463">
        <ele>617.78</ele>
        <time>2021-05-30T07:36:23Z</time>
      </trkpt>
      <trkpt lat="38.0504686944" lon="-6.5402265452">
        <ele>616.82</ele>
        <time>2021-05-30T07:36:24Z</time>
      </trkpt>
      <trkpt lat="38.0505739711" lon="-6.5400700551">
        <ele>616.82</ele>
        <time>2021-05-30T07:36:25Z</time>
      </trkpt>
      <trkpt lat="38.0506912339" lon="-6.5399282333">
        <ele>615.86</ele>
        <time>2021-05-30T07:36:26Z</time>
      </trkpt>
      <trkpt lat="38.0508279428" lon="-6.5398087073">
        <ele>618.26</ele>
        <time>2021-05-30T07:36:27Z</time>
      </trkpt>
      <trkpt lat="38.0512962397" lon="-6.5394849144">
        <ele>621.63</ele>
        <time>2021-05-30T07:36:30Z</time>
      </trkpt>
      <trkpt lat="38.0514625367" lon="-6.5394098125">
        <ele>622.11</ele>
        <time>2021-05-30T07:36:31Z</time>
      </trkpt>
      <trkpt lat="38.0518281553" lon="-6.5393218026">
        <ele>625.47</ele>
        <time>2021-05-30T07:36:33Z</time>
      </trkpt>
      <trkpt lat="38.0522016529" lon="-6.5392723493">
        <ele>626.44</ele>
        <time>2021-05-30T07:36:35Z</time>
      </trkpt>
      <trkpt lat="38.0527294613" lon="-6.5392005164">
        <ele>632.20</ele>
        <time>2021-05-30T07:36:38Z</time>
      </trkpt>
      <trkpt lat="38.0532540847" lon="-6.5391480457">
        <ele>636.53</ele>
        <time>2021-05-30T07:36:41Z</time>
      </trkpt>
      <trkpt lat="38.0534298532" lon="-6.5391592775">
        <ele>637.49</ele>
        <time>2021-05-30T07:36:42Z</time>
      </trkpt>
      <trkpt lat="38.0537733436" lon="-6.5391993430">
        <ele>640.38</ele>
        <time>2021-05-30T07:36:44Z</time>
      </trkpt>
      <trkpt lat="38.0539280735" lon="-6.5391960740">
        <ele>640.38</ele>
        <time>2021-05-30T07:36:45Z</time>
      </trkpt>
      <trkpt lat="38.0542291515" lon="-6.5391912963">
        <ele>642.78</ele>
        <time>2021-05-30T07:36:47Z</time>
      </trkpt>
      <trkpt lat="38.0543825403" lon="-6.5392299369">
        <ele>644.22</ele>
        <time>2021-05-30T07:36:48Z</time>
      </trkpt>
      <trkpt lat="38.0545394495" lon="-6.5392948128">
        <ele>646.14</ele>
        <time>2021-05-30T07:36:49Z</time>
      </trkpt>
      <trkpt lat="38.0550214928" lon="-6.5395376366">
        <ele>651.43</ele>
        <time>2021-05-30T07:36:52Z</time>
      </trkpt>
      <trkpt lat="38.0555459484" lon="-6.5397072863">
        <ele>655.28</ele>
        <time>2021-05-30T07:36:55Z</time>
      </trkpt>
      <trkpt lat="38.0566289742" lon="-6.5399496071">
        <ele>653.35</ele>
        <time>2021-05-30T07:37:01Z</time>
      </trkpt>
      <trkpt lat="38.0567652639" lon="-6.5399373695">
        <ele>653.35</ele>
        <time>2021-05-30T07:37:02Z</time>
      </trkpt>
      <trkpt lat="38.0569000449" lon="-6.5398910176">
        <ele>654.31</ele>
        <time>2021-05-30T07:37:03Z</time>
      </trkpt>
      <trkpt lat="38.0573191401" lon="-6.5396774467">
        <ele>658.64</ele>
        <time>2021-05-30T07:37:06Z</time>
      </trkpt>
      <trkpt lat="38.0574565195" lon="-6.5395704098">
        <ele>660.56</ele>
        <time>2021-05-30T07:37:07Z</time>
      </trkpt>
      <trkpt lat="38.0577283446" lon="-6.5393191203">
        <ele>664.41</ele>
        <time>2021-05-30T07:37:09Z</time>
      </trkpt>
      <trkpt lat="38.0579709169" lon="-6.5390830860">
        <ele>665.85</ele>
        <time>2021-05-30T07:37:11Z</time>
      </trkpt>
      <trkpt lat="38.0581552349" lon="-6.5389179625">
        <ele>665.85</ele>
        <time>2021-05-30T07:37:13Z</time>
      </trkpt>
      <trkpt lat="38.0582408980" lon="-6.5388809144">
        <ele>665.37</ele>
        <time>2021-05-30T07:37:14Z</time>
      </trkpt>
      <trkpt lat="38.0583340209" lon="-6.5388898831">
        <ele>666.81</ele>
        <time>2021-05-30T07:37:15Z</time>
      </trkpt>
      <trkpt lat="38.0584318377" lon="-6.5389428567">
        <ele>667.77</ele>
        <time>2021-05-30T07:37:16Z</time>
      </trkpt>
      <trkpt lat="38.0585320853" lon="-6.5390298609">
        <ele>669.70</ele>
        <time>2021-05-30T07:37:17Z</time>
      </trkpt>
      <trkpt lat="38.0586288124" lon="-6.5391515661">
        <ele>671.62</ele>
        <time>2021-05-30T07:37:18Z</time>
      </trkpt>
      <trkpt lat="38.0587138887" lon="-6.5393099841">
        <ele>673.06</ele>
        <time>2021-05-30T07:37:19Z</time>
      </trkpt>
      <trkpt lat="38.0587877333" lon="-6.5394870099">
        <ele>675.46</ele>
        <time>2021-05-30T07:37:20Z</time>
      </trkpt>
      <trkpt lat="38.0590222590" lon="-6.5400280617">
        <ele>680.27</ele>
        <time>2021-05-30T07:37:23Z</time>
      </trkpt>
      <trkpt lat="38.0592270289" lon="-6.5403690375">
        <ele>683.63</ele>
        <time>2021-05-30T07:37:25Z</time>
      </trkpt>
      <trkpt lat="38.0594858620" lon="-6.5409100056">
        <ele>687.96</ele>
        <time>2021-05-30T07:37:28Z</time>
      </trkpt>
      <trkpt lat="38.0595771410" lon="-6.5410689265">
        <ele>687.96</ele>
        <time>2021-05-30T07:37:29Z</time>
      </trkpt>
      <trkpt lat="38.0597819109" lon="-6.5413448587">
        <ele>691.33</ele>
        <time>2021-05-30T07:37:31Z</time>
      </trkpt>
      <trkpt lat="38.0598779675" lon="-6.5414550807">
        <ele>691.81</ele>
        <time>2021-05-30T07:37:32Z</time>
      </trkpt>
      <trkpt lat="38.0599803105" lon="-6.5415370557">
        <ele>692.29</ele>
        <time>2021-05-30T07:37:33Z</time>
      </trkpt>
      <trkpt lat="38.0601014290" lon="-6.5415938012">
        <ele>693.25</ele>
        <time>2021-05-30T07:37:34Z</time>
      </trkpt>
      <trkpt lat="38.0603899341" lon="-6.5416711662">
        <ele>698.05</ele>
        <time>2021-05-30T07:37:36Z</time>
      </trkpt>
      <trkpt lat="38.0607134756" lon="-6.5417673904">
        <ele>701.90</ele>
        <time>2021-05-30T07:37:38Z</time>
      </trkpt>
      <trkpt lat="38.0608718097" lon="-6.5418540593">
        <ele>704.30</ele>
        <time>2021-05-30T07:37:39Z</time>
      </trkpt>
      <trkpt lat="38.0610189121" lon="-6.5419640299">
        <ele>706.71</ele>
        <time>2021-05-30T07:37:40Z</time>
      </trkpt>
      <trkpt lat="38.0611468200" lon="-6.5420878306">
        <ele>706.71</ele>
        <time>2021-05-30T07:37:41Z</time>
      </trkpt>
      <trkpt lat="38.0612578802" lon="-6.5422365256">
        <ele>706.71</ele>
        <time>2021-05-30T07:37:42Z</time>
      </trkpt>
      <trkpt lat="38.0613552779" lon="-6.5424042474">
        <ele>708.63</ele>
        <time>2021-05-30T07:37:43Z</time>
      </trkpt>
      <trkpt lat="38.0614411086" lon="-6.5425618272">
        <ele>709.11</ele>
        <time>2021-05-30T07:37:44Z</time>
      </trkpt>
      <trkpt lat="38.0615251791" lon="-6.5426847059">
        <ele>707.67</ele>
        <time>2021-05-30T07:37:45Z</time>
      </trkpt>
      <trkpt lat="38.0616156198" lon="-6.5427737217">
        <ele>707.19</ele>
        <time>2021-05-30T07:37:46Z</time>
      </trkpt>
      <trkpt lat="38.0617222376" lon="-6.5428370889">
        <ele>706.71</ele>
        <time>2021-05-30T07:37:47Z</time>
      </trkpt>
      <trkpt lat="38.0618452001" lon="-6.5428815968">
        <ele>708.15</ele>
        <time>2021-05-30T07:37:48Z</time>
      </trkpt>
      <trkpt lat="38.0619763769" lon="-6.5429080836">
        <ele>710.07</ele>
        <time>2021-05-30T07:37:49Z</time>
      </trkpt>
      <trkpt lat="38.0621047877" lon="-6.5429079998">
        <ele>710.55</ele>
        <time>2021-05-30T07:37:50Z</time>
      </trkpt>
      <trkpt lat="38.0622283369" lon="-6.5428759810">
        <ele>711.03</ele>
        <time>2021-05-30T07:37:51Z</time>
      </trkpt>
      <trkpt lat="38.0623476114" lon="-6.5428109374">
        <ele>712.47</ele>
        <time>2021-05-30T07:37:52Z</time>
      </trkpt>
      <trkpt lat="38.0624628626" lon="-6.5427255258">
        <ele>713.44</ele>
        <time>2021-05-30T07:37:53Z</time>
      </trkpt>
      <trkpt lat="38.0625711568" lon="-6.5426507592">
        <ele>714.40</ele>
        <time>2021-05-30T07:37:54Z</time>
      </trkpt>
      <trkpt lat="38.0626714043" lon="-6.5426050778">
        <ele>714.40</ele>
        <time>2021-05-30T07:37:55Z</time>
      </trkpt>
      <trkpt lat="38.0627703946" lon="-6.5425898228">
        <ele>714.88</ele>
        <time>2021-05-30T07:37:56Z</time>
      </trkpt>
      <trkpt lat="38.0628693849" lon="-6.5426159743">
        <ele>715.36</ele>
        <time>2021-05-30T07:37:57Z</time>
      </trkpt>
      <trkpt lat="38.0629594903" lon="-6.5426928364">
        <ele>716.32</ele>
        <time>2021-05-30T07:37:58Z</time>
      </trkpt>
      <trkpt lat="38.0630338378" lon="-6.5428138711">
        <ele>716.32</ele>
        <time>2021-05-30T07:37:59Z</time>
      </trkpt>
      <trkpt lat="38.0630971212" lon="-6.5429698583">
        <ele>717.28</ele>
        <time>2021-05-30T07:38:00Z</time>
      </trkpt>
      <trkpt lat="38.0632977840" lon="-6.5434837528">
        <ele>720.16</ele>
        <time>2021-05-30T07:38:03Z</time>
      </trkpt>
      <trkpt lat="38.0633715447" lon="-6.5436199587">
        <ele>720.65</ele>
        <time>2021-05-30T07:38:04Z</time>
      </trkpt>
      <trkpt lat="38.0634593870" lon="-6.5437348746">
        <ele>721.13</ele>
        <time>2021-05-30T07:38:05Z</time>
      </trkpt>
      <trkpt lat="38.0637093354" lon="-6.5439996589">
        <ele>722.09</ele>
        <time>2021-05-30T07:38:08Z</time>
      </trkpt>
      <trkpt lat="38.0637821741" lon="-6.5440338571">
        <ele>722.57</ele>
        <time>2021-05-30T07:38:09Z</time>
      </trkpt>
      <trkpt lat="38.0638556834" lon="-6.5440262295">
        <ele>722.57</ele>
        <time>2021-05-30T07:38:10Z</time>
      </trkpt>
      <trkpt lat="38.0639325455" lon="-6.5439861640">
        <ele>723.53</ele>
        <time>2021-05-30T07:38:11Z</time>
      </trkpt>
      <trkpt lat="38.0640172027" lon="-6.5439398121">
        <ele>724.49</ele>
        <time>2021-05-30T07:38:12Z</time>
      </trkpt>
      <trkpt lat="38.0643503834" lon="-6.5437760297">
        <ele>726.89</ele>
        <time>2021-05-30T07:38:16Z</time>
      </trkpt>
      <trkpt lat="38.0644761957" lon="-6.5437310189">
        <ele>727.37</ele>
        <time>2021-05-30T07:38:18Z</time>
      </trkpt>
      <trkpt lat="38.0645389762" lon="-6.5437276661">
        <ele>727.37</ele>
        <time>2021-05-30T07:38:19Z</time>
      </trkpt>
      <trkpt lat="38.0648970511" lon="-6.5437026042">
        <ele>730.74</ele>
        <time>2021-05-30T07:38:24Z</time>
      </trkpt>
      <trkpt lat="38.0651731510" lon="-6.5436567552">
        <ele>733.14</ele>
        <time>2021-05-30T07:38:28Z</time>
      </trkpt>
      <trkpt lat="38.0652238615" lon="-6.5436417516">
        <ele>733.14</ele>
        <time>2021-05-30T07:38:29Z</time>
      </trkpt>
      <trkpt lat="38.0652668606" lon="-6.5436242335">
        <ele>732.66</ele>
        <time>2021-05-30T07:38:30Z</time>
      </trkpt>
      <trkpt lat="38.0653570499" lon="-6.5435451921">
        <ele>731.22</ele>
        <time>2021-05-30T07:38:34Z</time>
      </trkpt>
      <trkpt lat="38.0653705448" lon="-6.5435046237">
        <ele>731.22</ele>
        <time>2021-05-30T07:38:35Z</time>
      </trkpt>
      <trkpt lat="38.0653955229" lon="-6.5434682462">
        <ele>730.74</ele>
        <time>2021-05-30T07:38:36Z</time>
      </trkpt>
      <trkpt lat="38.0654353369" lon="-6.5434470400">
        <ele>730.26</ele>
        <time>2021-05-30T07:38:37Z</time>
      </trkpt>
      <trkpt lat="38.0654811859" lon="-6.5434390772">
        <ele>729.78</ele>
        <time>2021-05-30T07:38:38Z</time>
      </trkpt>
      <trkpt lat="38.0655704532" lon="-6.5434385743">
        <ele>728.82</ele>
        <time>2021-05-30T07:38:40Z</time>
      </trkpt>
      <trkpt lat="38.0658984371" lon="-6.5435145143">
        <ele>729.30</ele>
        <time>2021-05-30T07:38:49Z</time>
      </trkpt>
      <trkpt lat="38.0659598764" lon="-6.5435450245">
        <ele>729.78</ele>
        <time>2021-05-30T07:38:50Z</time>
      </trkpt>
      <trkpt lat="38.0660269316" lon="-6.5435902867">
        <ele>730.74</ele>
        <time>2021-05-30T07:38:51Z</time>
      </trkpt>
      <trkpt lat="38.0663353857" lon="-6.5438222140">
        <ele>734.10</ele>
        <time>2021-05-30T07:38:55Z</time>
      </trkpt>
      <trkpt lat="38.0666020140" lon="-6.5439780336">
        <ele>733.14</ele>
        <time>2021-05-30T07:38:58Z</time>
      </trkpt>
      <trkpt lat="38.0666966457" lon="-6.5440103039">
        <ele>732.66</ele>
        <time>2021-05-30T07:38:59Z</time>
      </trkpt>
      <trkpt lat="38.0667916965" lon="-6.5440270677">
        <ele>730.74</ele>
        <time>2021-05-30T07:39:00Z</time>
      </trkpt>
      <trkpt lat="38.0670373701" lon="-6.5440574940">
        <ele>727.37</ele>
        <time>2021-05-30T07:39:03Z</time>
      </trkpt>
      <trkpt lat="38.0671146512" lon="-6.5440878365">
        <ele>727.37</ele>
        <time>2021-05-30T07:39:04Z</time>
      </trkpt>
      <trkpt lat="38.0671941955" lon="-6.5441270638">
        <ele>727.37</ele>
        <time>2021-05-30T07:39:05Z</time>
      </trkpt>
      <trkpt lat="38.0672744941" lon="-6.5441786125">
        <ele>727.37</ele>
        <time>2021-05-30T07:39:06Z</time>
      </trkpt>
      <trkpt lat="38.0673646834" lon="-6.5442496911">
        <ele>726.89</ele>
        <time>2021-05-30T07:39:07Z</time>
      </trkpt>
      <trkpt lat="38.0676174816" lon="-6.5444869827">
        <ele>724.49</ele>
        <time>2021-05-30T07:39:10Z</time>
      </trkpt>
      <trkpt lat="38.0676820222" lon="-6.5445724782">
        <ele>724.01</ele>
        <time>2021-05-30T07:39:11Z</time>
      </trkpt>
      <trkpt lat="38.0677399412" lon="-6.5446675289">
        <ele>724.01</ele>
        <time>2021-05-30T07:39:12Z</time>
      </trkpt>
      <trkpt lat="38.0679713655" lon="-6.5451545175">
        <ele>720.65</ele>
        <time>2021-05-30T07:39:17Z</time>
      </trkpt>
      <trkpt lat="38.0680451263" lon="-6.5453488939">
        <ele>719.20</ele>
        <time>2021-05-30T07:39:19Z</time>
      </trkpt>
      <trkpt lat="38.0681624729" lon="-6.5456359740">
        <ele>716.32</ele>
        <time>2021-05-30T07:39:22Z</time>
      </trkpt>
      <trkpt lat="38.0683041271" lon="-6.5460076276">
        <ele>712.47</ele>
        <time>2021-05-30T07:39:26Z</time>
      </trkpt>
      <trkpt lat="38.0683732778" lon="-6.5461565740">
        <ele>710.55</ele>
        <time>2021-05-30T07:39:28Z</time>
      </trkpt>
      <trkpt lat="38.0684182886" lon="-6.5462227073">
        <ele>709.59</ele>
        <time>2021-05-30T07:39:29Z</time>
      </trkpt>
      <trkpt lat="38.0685448553" lon="-6.5463848971">
        <ele>706.23</ele>
        <time>2021-05-30T07:39:32Z</time>
      </trkpt>
      <trkpt lat="38.0686124135" lon="-6.5464442410">
        <ele>703.82</ele>
        <time>2021-05-30T07:39:35Z</time>
      </trkpt>
      <trkpt lat="38.0686226394" lon="-6.5464207716">
        <ele>703.82</ele>
        <time>2021-05-30T07:39:46Z</time>
      </trkpt>
      <trkpt lat="38.0686243158" lon="-6.5464138146">
        <ele>704.30</ele>
        <time>2021-05-30T07:40:13Z</time>
      </trkpt>
      <trkpt lat="38.0686874315" lon="-6.5464013256">
        <ele>704.30</ele>
        <time>2021-05-30T07:40:16Z</time>
      </trkpt>
      <trkpt lat="38.0687076319" lon="-6.5463696420">
        <ele>704.78</ele>
        <time>2021-05-30T07:40:17Z</time>
      </trkpt>
      <trkpt lat="38.0687241443" lon="-6.5463177580">
        <ele>704.30</ele>
        <time>2021-05-30T07:40:18Z</time>
      </trkpt>
      <trkpt lat="38.0687316880" lon="-6.5462452546">
        <ele>705.75</ele>
        <time>2021-05-30T07:40:19Z</time>
      </trkpt>
      <trkpt lat="38.0687288381" lon="-6.5461550653">
        <ele>706.71</ele>
        <time>2021-05-30T07:40:20Z</time>
      </trkpt>
      <trkpt lat="38.0687189475" lon="-6.5460540634">
        <ele>706.71</ele>
        <time>2021-05-30T07:40:21Z</time>
      </trkpt>
      <trkpt lat="38.0687074643" lon="-6.5459476970">
        <ele>707.19</ele>
        <time>2021-05-30T07:40:22Z</time>
      </trkpt>
      <trkpt lat="38.0686989147" lon="-6.5458262432">
        <ele>707.19</ele>
        <time>2021-05-30T07:40:23Z</time>
      </trkpt>
      <trkpt lat="38.0686799716" lon="-6.5455503110">
        <ele>709.11</ele>
        <time>2021-05-30T07:40:25Z</time>
      </trkpt>
      <trkpt lat="38.0686406605" lon="-6.5449655894">
        <ele>710.07</ele>
        <time>2021-05-30T07:40:29Z</time>
      </trkpt>
      <trkpt lat="38.0686565861" lon="-6.5448153019">
        <ele>710.07</ele>
        <time>2021-05-30T07:40:30Z</time>
      </trkpt>
      <trkpt lat="38.0686906166" lon="-6.5446627513">
        <ele>710.55</ele>
        <time>2021-05-30T07:40:31Z</time>
      </trkpt>
      <trkpt lat="38.0688657984" lon="-6.5440641996">
        <ele>712.95</ele>
        <time>2021-05-30T07:40:35Z</time>
      </trkpt>
      <trkpt lat="38.0690354481" lon="-6.5436005127">
        <ele>712.47</ele>
        <time>2021-05-30T07:40:39Z</time>
      </trkpt>
      <trkpt lat="38.0691050179" lon="-6.5435098205">
        <ele>711.99</ele>
        <time>2021-05-30T07:40:40Z</time>
      </trkpt>
      <trkpt lat="38.0692420620" lon="-6.5433431882">
        <ele>711.99</ele>
        <time>2021-05-30T07:40:42Z</time>
      </trkpt>
      <trkpt lat="38.0692793615" lon="-6.5432490595">
        <ele>712.47</ele>
        <time>2021-05-30T07:40:43Z</time>
      </trkpt>
      <trkpt lat="38.0692957900" lon="-6.5431487281">
        <ele>713.44</ele>
        <time>2021-05-30T07:40:44Z</time>
      </trkpt>
      <trkpt lat="38.0692932755" lon="-6.5430366620">
        <ele>713.92</ele>
        <time>2021-05-30T07:40:45Z</time>
      </trkpt>
      <trkpt lat="38.0692840554" lon="-6.5429196507">
        <ele>714.88</ele>
        <time>2021-05-30T07:40:46Z</time>
      </trkpt>
      <trkpt lat="38.0692864861" lon="-6.5427932516">
        <ele>714.88</ele>
        <time>2021-05-30T07:40:47Z</time>
      </trkpt>
      <trkpt lat="38.0693134759" lon="-6.5426554531">
        <ele>717.28</ele>
        <time>2021-05-30T07:40:48Z</time>
      </trkpt>
      <trkpt lat="38.0693569779" lon="-6.5425192472">
        <ele>718.24</ele>
        <time>2021-05-30T07:40:49Z</time>
      </trkpt>
      <trkpt lat="38.0694075208" lon="-6.5423914231">
        <ele>717.76</ele>
        <time>2021-05-30T07:40:50Z</time>
      </trkpt>
      <trkpt lat="38.0695218500" lon="-6.5421464201">
        <ele>718.72</ele>
        <time>2021-05-30T07:40:52Z</time>
      </trkpt>
      <trkpt lat="38.0695917550" lon="-6.5420405567">
        <ele>719.68</ele>
        <time>2021-05-30T07:40:53Z</time>
      </trkpt>
      <trkpt lat="38.0696684495" lon="-6.5419489425">
        <ele>719.20</ele>
        <time>2021-05-30T07:40:54Z</time>
      </trkpt>
      <trkpt lat="38.0697536096" lon="-6.5418631956">
        <ele>719.20</ele>
        <time>2021-05-30T07:40:55Z</time>
      </trkpt>
      <trkpt lat="38.0698432960" lon="-6.5417787060">
        <ele>720.65</ele>
        <time>2021-05-30T07:40:56Z</time>
      </trkpt>
      <trkpt lat="38.0699247681" lon="-6.5416871756">
        <ele>721.61</ele>
        <time>2021-05-30T07:40:57Z</time>
      </trkpt>
      <trkpt lat="38.0699876323" lon="-6.5415823180">
        <ele>722.57</ele>
        <time>2021-05-30T07:40:58Z</time>
      </trkpt>
      <trkpt lat="38.0700295419" lon="-6.5414640494">
        <ele>723.05</ele>
        <time>2021-05-30T07:40:59Z</time>
      </trkpt>
      <trkpt lat="38.0700519215" lon="-6.5413332917">
        <ele>724.01</ele>
        <time>2021-05-30T07:41:00Z</time>
      </trkpt>
      <trkpt lat="38.0700691044" lon="-6.5411997680">
        <ele>724.97</ele>
        <time>2021-05-30T07:41:01Z</time>
      </trkpt>
      <trkpt lat="38.0701171327" lon="-6.5409262665">
        <ele>726.89</ele>
        <time>2021-05-30T07:41:03Z</time>
      </trkpt>
      <trkpt lat="38.0701526720" lon="-6.5407914855">
        <ele>728.34</ele>
        <time>2021-05-30T07:41:04Z</time>
      </trkpt>
      <trkpt lat="38.0701964255" lon="-6.5406583808">
        <ele>728.34</ele>
        <time>2021-05-30T07:41:05Z</time>
      </trkpt>
      <trkpt lat="38.0703537539" lon="-6.5402830392">
        <ele>731.22</ele>
        <time>2021-05-30T07:41:08Z</time>
      </trkpt>
      <trkpt lat="38.0705990084" lon="-6.5397348627">
        <ele>735.07</ele>
        <time>2021-05-30T07:41:13Z</time>
      </trkpt>
      <trkpt lat="38.0706370622" lon="-6.5396152530">
        <ele>736.03</ele>
        <time>2021-05-30T07:41:14Z</time>
      </trkpt>
      <trkpt lat="38.0706580169" lon="-6.5394849144">
        <ele>737.47</ele>
        <time>2021-05-30T07:41:15Z</time>
      </trkpt>
      <trkpt lat="38.0706550833" lon="-6.5393459424">
        <ele>738.43</ele>
        <time>2021-05-30T07:41:16Z</time>
      </trkpt>
      <trkpt lat="38.0706292670" lon="-6.5392062161">
        <ele>740.35</ele>
        <time>2021-05-30T07:41:17Z</time>
      </trkpt>
      <trkpt lat="38.0705938116" lon="-6.5390705131">
        <ele>742.28</ele>
        <time>2021-05-30T07:41:18Z</time>
      </trkpt>
      <trkpt lat="38.0705570150" lon="-6.5389442816">
        <ele>742.76</ele>
        <time>2021-05-30T07:41:19Z</time>
      </trkpt>
      <trkpt lat="38.0703802407" lon="-6.5383416228">
        <ele>746.12</ele>
        <time>2021-05-30T07:41:24Z</time>
      </trkpt>
      <trkpt lat="38.0703333858" lon="-6.5382231865">
        <ele>746.12</ele>
        <time>2021-05-30T07:41:25Z</time>
      </trkpt>
      <trkpt lat="38.0701893847" lon="-6.5378706437">
        <ele>748.52</ele>
        <time>2021-05-30T07:41:28Z</time>
      </trkpt>
      <trkpt lat="38.0701618083" lon="-6.5377616789">
        <ele>750.45</ele>
        <time>2021-05-30T07:41:29Z</time>
      </trkpt>
      <trkpt lat="38.0701540131" lon="-6.5376510378">
        <ele>750.45</ele>
        <time>2021-05-30T07:41:30Z</time>
      </trkpt>
      <trkpt lat="38.0701716151" lon="-6.5375363734">
        <ele>750.93</ele>
        <time>2021-05-30T07:41:31Z</time>
      </trkpt>
      <trkpt lat="38.0702110101" lon="-6.5374171827">
        <ele>750.93</ele>
        <time>2021-05-30T07:41:32Z</time>
      </trkpt>
      <trkpt lat="38.0702635646" lon="-6.5373002551">
        <ele>751.89</ele>
        <time>2021-05-30T07:41:33Z</time>
      </trkpt>
      <trkpt lat="38.0703234952" lon="-6.5371935535">
        <ele>752.85</ele>
        <time>2021-05-30T07:41:34Z</time>
      </trkpt>
      <trkpt lat="38.0703859404" lon="-6.5370922163">
        <ele>753.33</ele>
        <time>2021-05-30T07:41:35Z</time>
      </trkpt>
      <trkpt lat="38.0705180392" lon="-6.5368814114">
        <ele>754.77</ele>
        <time>2021-05-30T07:41:37Z</time>
      </trkpt>
      <trkpt lat="38.0707399081" lon="-6.5365307126">
        <ele>758.14</ele>
        <time>2021-05-30T07:41:40Z</time>
      </trkpt>
      <trkpt lat="38.0711020064" lon="-6.5360828675">
        <ele>761.50</ele>
        <time>2021-05-30T07:41:44Z</time>
      </trkpt>
      <trkpt lat="38.0715495162" lon="-6.5356254671">
        <ele>762.94</ele>
        <time>2021-05-30T07:41:49Z</time>
      </trkpt>
      <trkpt lat="38.0717454012" lon="-6.5355004929">
        <ele>763.90</ele>
        <time>2021-05-30T07:41:51Z</time>
      </trkpt>
      <trkpt lat="38.0721877143" lon="-6.5352185257">
        <ele>766.79</ele>
        <time>2021-05-30T07:41:55Z</time>
      </trkpt>
      <trkpt lat="38.0724270176" lon="-6.5350676514">
        <ele>768.23</ele>
        <time>2021-05-30T07:41:57Z</time>
      </trkpt>
      <trkpt lat="38.0728240684" lon="-6.5348133445">
        <ele>771.60</ele>
        <time>2021-05-30T07:42:00Z</time>
      </trkpt>
      <trkpt lat="38.0731113162" lon="-6.5346248355">
        <ele>774.48</ele>
        <time>2021-05-30T07:42:02Z</time>
      </trkpt>
      <trkpt lat="38.0734130647" lon="-6.5343871247">
        <ele>777.84</ele>
        <time>2021-05-30T07:42:04Z</time>
      </trkpt>
      <trkpt lat="38.0737077724" lon="-6.5341230109">
        <ele>779.29</ele>
        <time>2021-05-30T07:42:06Z</time>
      </trkpt>
      <trkpt lat="38.0741536897" lon="-6.5337031614">
        <ele>782.17</ele>
        <time>2021-05-30T07:42:09Z</time>
      </trkpt>
      <trkpt lat="38.0754628591" lon="-6.5327808168">
        <ele>785.05</ele>
        <time>2021-05-30T07:42:17Z</time>
      </trkpt>
      <trkpt lat="38.0756704789" lon="-6.5327249933">
        <ele>785.05</ele>
        <time>2021-05-30T07:42:18Z</time>
      </trkpt>
      <trkpt lat="38.0774611048" lon="-6.5325133502">
        <ele>784.09</ele>
        <time>2021-05-30T07:42:26Z</time>
      </trkpt>
      <trkpt lat="38.0783728883" lon="-6.5325988457">
        <ele>781.69</ele>
        <time>2021-05-30T07:42:30Z</time>
      </trkpt>
      <trkpt lat="38.0786003731" lon="-6.5326831676">
        <ele>780.73</ele>
        <time>2021-05-30T07:42:31Z</time>
      </trkpt>
      <trkpt lat="38.0788205657" lon="-6.5327973291">
        <ele>779.77</ele>
        <time>2021-05-30T07:42:32Z</time>
      </trkpt>
      <trkpt lat="38.0790361483" lon="-6.5329327807">
        <ele>778.32</ele>
        <time>2021-05-30T07:42:33Z</time>
      </trkpt>
      <trkpt lat="38.0792505573" lon="-6.5330833197">
        <ele>777.84</ele>
        <time>2021-05-30T07:42:34Z</time>
      </trkpt>
      <trkpt lat="38.0799038429" lon="-6.5335594956">
        <ele>774.00</ele>
        <time>2021-05-30T07:42:37Z</time>
      </trkpt>
      <trkpt lat="38.0803426355" lon="-6.5338349249">
        <ele>769.67</ele>
        <time>2021-05-30T07:42:39Z</time>
      </trkpt>
      <trkpt lat="38.0807816796" lon="-6.5340645052">
        <ele>766.79</ele>
        <time>2021-05-30T07:42:41Z</time>
      </trkpt>
      <trkpt lat="38.0814052932" lon="-6.5343174711">
        <ele>762.46</ele>
        <time>2021-05-30T07:42:44Z</time>
      </trkpt>
      <trkpt lat="38.0817567464" lon="-6.5344234183">
        <ele>758.62</ele>
        <time>2021-05-30T07:42:46Z</time>
      </trkpt>
      <trkpt lat="38.0830251798" lon="-6.5346149448">
        <ele>757.18</ele>
        <time>2021-05-30T07:42:53Z</time>
      </trkpt>
      <trkpt lat="38.0839448422" lon="-6.5345681738">
        <ele>756.21</ele>
        <time>2021-05-30T07:42:57Z</time>
      </trkpt>
      <trkpt lat="38.0859078001" lon="-6.5346212313">
        <ele>755.25</ele>
        <time>2021-05-30T07:43:05Z</time>
      </trkpt>
      <trkpt lat="38.0866667815" lon="-6.5347952396">
        <ele>756.69</ele>
        <time>2021-05-30T07:43:08Z</time>
      </trkpt>
      <trkpt lat="38.0876912177" lon="-6.5347845107">
        <ele>760.06</ele>
        <time>2021-05-30T07:43:12Z</time>
      </trkpt>
      <trkpt lat="38.0902083032" lon="-6.5346012823">
        <ele>757.66</ele>
        <time>2021-05-30T07:43:21Z</time>
      </trkpt>
      <trkpt lat="38.0910998024" lon="-6.5345387533">
        <ele>753.33</ele>
        <time>2021-05-30T07:43:24Z</time>
      </trkpt>
      <trkpt lat="38.0913925823" lon="-6.5345172118">
        <ele>754.29</ele>
        <time>2021-05-30T07:43:25Z</time>
      </trkpt>
      <trkpt lat="38.0919550080" lon="-6.5344456304">
        <ele>750.45</ele>
        <time>2021-05-30T07:43:27Z</time>
      </trkpt>
      <trkpt lat="38.0935067497" lon="-6.5338626690">
        <ele>747.56</ele>
        <time>2021-05-30T07:43:33Z</time>
      </trkpt>
      <trkpt lat="38.0939879548" lon="-6.5336563066">
        <ele>746.60</ele>
        <time>2021-05-30T07:43:35Z</time>
      </trkpt>
      <trkpt lat="38.0947237182" lon="-6.5334311686">
        <ele>747.08</ele>
        <time>2021-05-30T07:43:38Z</time>
      </trkpt>
      <trkpt lat="38.0949812103" lon="-6.5334040951">
        <ele>747.08</ele>
        <time>2021-05-30T07:43:39Z</time>
      </trkpt>
      <trkpt lat="38.0952454079" lon="-6.5334016643">
        <ele>745.64</ele>
        <time>2021-05-30T07:43:40Z</time>
      </trkpt>
      <trkpt lat="38.0963341333" lon="-6.5334981401">
        <ele>743.72</ele>
        <time>2021-05-30T07:43:44Z</time>
      </trkpt>
      <trkpt lat="38.0968611874" lon="-6.5335860662">
        <ele>739.87</ele>
        <time>2021-05-30T07:43:46Z</time>
      </trkpt>
      <trkpt lat="38.0971178412" lon="-6.5336739086">
        <ele>739.87</ele>
        <time>2021-05-30T07:43:47Z</time>
      </trkpt>
      <trkpt lat="38.0973684601" lon="-6.5337979607">
        <ele>738.43</ele>
        <time>2021-05-30T07:43:48Z</time>
      </trkpt>
      <trkpt lat="38.0976163968" lon="-6.5339456499">
        <ele>738.43</ele>
        <time>2021-05-30T07:43:49Z</time>
      </trkpt>
      <trkpt lat="38.0981015414" lon="-6.5342748910">
        <ele>736.99</ele>
        <time>2021-05-30T07:43:51Z</time>
      </trkpt>
      <trkpt lat="38.0985704251" lon="-6.5346273500">
        <ele>735.07</ele>
        <time>2021-05-30T07:43:53Z</time>
      </trkpt>
      <trkpt lat="38.0997210927" lon="-6.5356097091">
        <ele>731.70</ele>
        <time>2021-05-30T07:43:58Z</time>
      </trkpt>
      <trkpt lat="38.1002055667" lon="-6.5359756630">
        <ele>730.74</ele>
        <time>2021-05-30T07:44:00Z</time>
      </trkpt>
      <trkpt lat="38.1012241356" lon="-6.5365877096">
        <ele>728.82</ele>
        <time>2021-05-30T07:44:04Z</time>
      </trkpt>
      <trkpt lat="38.1017126329" lon="-6.5368937328">
        <ele>724.49</ele>
        <time>2021-05-30T07:44:06Z</time>
      </trkpt>
      <trkpt lat="38.1019456498" lon="-6.5370513126">
        <ele>724.49</ele>
        <time>2021-05-30T07:44:07Z</time>
      </trkpt>
      <trkpt lat="38.1024009548" lon="-6.5373666398">
        <ele>721.61</ele>
        <time>2021-05-30T07:44:09Z</time>
      </trkpt>
      <trkpt lat="38.1028511468" lon="-6.5376525465">
        <ele>719.68</ele>
        <time>2021-05-30T07:44:11Z</time>
      </trkpt>
      <trkpt lat="38.1030839123" lon="-6.5377656184">
        <ele>720.16</ele>
        <time>2021-05-30T07:44:12Z</time>
      </trkpt>
      <trkpt lat="38.1033243053" lon="-6.5378475934">
        <ele>719.20</ele>
        <time>2021-05-30T07:44:13Z</time>
      </trkpt>
      <trkpt lat="38.1035739183" lon="-6.5379018243">
        <ele>720.16</ele>
        <time>2021-05-30T07:44:14Z</time>
      </trkpt>
      <trkpt lat="38.1048809085" lon="-6.5380613320">
        <ele>718.24</ele>
        <time>2021-05-30T07:44:19Z</time>
      </trkpt>
      <trkpt lat="38.1059392076" lon="-6.5379931033">
        <ele>714.88</ele>
        <time>2021-05-30T07:44:23Z</time>
      </trkpt>
      <trkpt lat="38.1064652558" lon="-6.5378512815">
        <ele>713.44</ele>
        <time>2021-05-30T07:44:25Z</time>
      </trkpt>
      <trkpt lat="38.1080583204" lon="-6.5374285821">
        <ele>711.03</ele>
        <time>2021-05-30T07:44:31Z</time>
      </trkpt>
      <trkpt lat="38.1088208221" lon="-6.5371748619">
        <ele>708.63</ele>
        <time>2021-05-30T07:44:34Z</time>
      </trkpt>
      <trkpt lat="38.1093037035" lon="-6.5369846765">
        <ele>704.78</ele>
        <time>2021-05-30T07:44:36Z</time>
      </trkpt>
      <trkpt lat="38.1097618584" lon="-6.5367857739">
        <ele>702.38</ele>
        <time>2021-05-30T07:44:38Z</time>
      </trkpt>
      <trkpt lat="38.1104332488" lon="-6.5364145394">
        <ele>699.02</ele>
        <time>2021-05-30T07:44:41Z</time>
      </trkpt>
      <trkpt lat="38.1112559326" lon="-6.5356522892">
        <ele>694.69</ele>
        <time>2021-05-30T07:44:45Z</time>
      </trkpt>
      <trkpt lat="38.1114505604" lon="-6.5354422387">
        <ele>695.17</ele>
        <time>2021-05-30T07:44:46Z</time>
      </trkpt>
      <trkpt lat="38.1118211243" lon="-6.5350398235">
        <ele>690.36</ele>
        <time>2021-05-30T07:44:48Z</time>
      </trkpt>
      <trkpt lat="38.1121662911" lon="-6.5346664935">
        <ele>685.08</ele>
        <time>2021-05-30T07:44:50Z</time>
      </trkpt>
      <trkpt lat="38.1126325764" lon="-6.5340567101">
        <ele>683.15</ele>
        <time>2021-05-30T07:44:53Z</time>
      </trkpt>
      <trkpt lat="38.1131330598" lon="-6.5330374707">
        <ele>679.31</ele>
        <time>2021-05-30T07:44:57Z</time>
      </trkpt>
      <trkpt lat="38.1133716926" lon="-6.5325202234">
        <ele>674.50</ele>
        <time>2021-05-30T07:44:59Z</time>
      </trkpt>
      <trkpt lat="38.1138370559" lon="-6.5315935202">
        <ele>671.62</ele>
        <time>2021-05-30T07:45:03Z</time>
      </trkpt>
      <trkpt lat="38.1139566656" lon="-6.5313854814">
        <ele>668.25</ele>
        <time>2021-05-30T07:45:04Z</time>
      </trkpt>
      <trkpt lat="38.1144024990" lon="-6.5306079760">
        <ele>665.37</ele>
        <time>2021-05-30T07:45:08Z</time>
      </trkpt>
      <trkpt lat="38.1144874077" lon="-6.5304067265">
        <ele>666.33</ele>
        <time>2021-05-30T07:45:09Z</time>
      </trkpt>
      <trkpt lat="38.1145521160" lon="-6.5301927365">
        <ele>666.81</ele>
        <time>2021-05-30T07:45:10Z</time>
      </trkpt>
      <trkpt lat="38.1145962048" lon="-6.5299783275">
        <ele>666.33</ele>
        <time>2021-05-30T07:45:11Z</time>
      </trkpt>
      <trkpt lat="38.1146283075" lon="-6.5297759045">
        <ele>666.33</ele>
        <time>2021-05-30T07:45:12Z</time>
      </trkpt>
      <trkpt lat="38.1147318240" lon="-6.5292609204">
        <ele>665.37</ele>
        <time>2021-05-30T07:45:15Z</time>
      </trkpt>
      <trkpt lat="38.1147899106" lon="-6.5291237924">
        <ele>665.85</ele>
        <time>2021-05-30T07:45:16Z</time>
      </trkpt>
      <trkpt lat="38.1148640066" lon="-6.5290084574">
        <ele>665.85</ele>
        <time>2021-05-30T07:45:17Z</time>
      </trkpt>
      <trkpt lat="38.1149510108" lon="-6.5289181005">
        <ele>666.33</ele>
        <time>2021-05-30T07:45:18Z</time>
      </trkpt>
      <trkpt lat="38.1150449719" lon="-6.5288523864">
        <ele>667.77</ele>
        <time>2021-05-30T07:45:19Z</time>
      </trkpt>
      <trkpt lat="38.1151365861" lon="-6.5288058668">
        <ele>667.29</ele>
        <time>2021-05-30T07:45:20Z</time>
      </trkpt>
      <trkpt lat="38.1152202375" lon="-6.5287674777">
        <ele>666.81</ele>
        <time>2021-05-30T07:45:21Z</time>
      </trkpt>
      <trkpt lat="38.1152869575" lon="-6.5287238918">
        <ele>666.33</ele>
        <time>2021-05-30T07:45:22Z</time>
      </trkpt>
      <trkpt lat="38.1153316330" lon="-6.5286731813">
        <ele>666.33</ele>
        <time>2021-05-30T07:45:23Z</time>
      </trkpt>
      <trkpt lat="38.1153523363" lon="-6.5286180284">
        <ele>666.81</ele>
        <time>2021-05-30T07:45:24Z</time>
      </trkpt>
      <trkpt lat="38.1153571978" lon="-6.5285714250">
        <ele>666.33</ele>
        <time>2021-05-30T07:45:25Z</time>
      </trkpt>
      <trkpt lat="38.1153507438" lon="-6.5285281744">
        <ele>667.29</ele>
        <time>2021-05-30T07:45:26Z</time>
      </trkpt>
      <trkpt lat="38.1153307948" lon="-6.5284852590">
        <ele>667.77</ele>
        <time>2021-05-30T07:45:27Z</time>
      </trkpt>
      <trkpt lat="38.1152981892" lon="-6.5284430142">
        <ele>668.25</ele>
        <time>2021-05-30T07:45:28Z</time>
      </trkpt>
      <trkpt lat="38.1152421143" lon="-6.5284078103">
        <ele>668.73</ele>
        <time>2021-05-30T07:45:29Z</time>
      </trkpt>
      <trkpt lat="38.1151682697" lon="-6.5283757914">
        <ele>669.70</ele>
        <time>2021-05-30T07:45:30Z</time>
      </trkpt>
      <trkpt lat="38.1150824390" lon="-6.5283429343">
        <ele>670.66</ele>
        <time>2021-05-30T07:45:31Z</time>
      </trkpt>
      <trkpt lat="38.1148976181" lon="-6.5282702632">
        <ele>671.62</ele>
        <time>2021-05-30T07:45:33Z</time>
      </trkpt>
      <trkpt lat="38.1145594083" lon="-6.5281545930">
        <ele>675.46</ele>
        <time>2021-05-30T07:45:36Z</time>
      </trkpt>
      <trkpt lat="38.1140662171" lon="-6.5281128511">
        <ele>677.87</ele>
        <time>2021-05-30T07:45:40Z</time>
      </trkpt>
      <trkpt lat="38.1133950781" lon="-6.5280338097">
        <ele>682.19</ele>
        <time>2021-05-30T07:45:46Z</time>
      </trkpt>
      <trkpt lat="38.1131731253" lon="-6.5279946662">
        <ele>678.83</ele>
        <time>2021-05-30T07:45:48Z</time>
      </trkpt>
      <trkpt lat="38.1130378414" lon="-6.5279748850">
        <ele>675.46</ele>
        <time>2021-05-30T07:45:52Z</time>
      </trkpt>
      <trkpt lat="38.1130301300" lon="-6.5279545169">
        <ele>676.42</ele>
        <time>2021-05-30T07:45:58Z</time>
      </trkpt>
      <trkpt lat="38.1130251009" lon="-6.5279300418">
        <ele>676.91</ele>
        <time>2021-05-30T07:45:59Z</time>
      </trkpt>
      <trkpt lat="38.1130394340" lon="-6.5279064886">
        <ele>676.42</ele>
        <time>2021-05-30T07:46:00Z</time>
      </trkpt>
      <trkpt lat="38.1130697764" lon="-6.5278973524">
        <ele>675.46</ele>
        <time>2021-05-30T07:46:01Z</time>
      </trkpt>
      <trkpt lat="38.1131195650" lon="-6.5279083326">
        <ele>675.46</ele>
        <time>2021-05-30T07:46:02Z</time>
      </trkpt>
      <trkpt lat="38.1131903920" lon="-6.5279340651">
        <ele>675.94</ele>
        <time>2021-05-30T07:46:03Z</time>
      </trkpt>
      <trkpt lat="38.1132804137" lon="-6.5279600490">
        <ele>676.91</ele>
        <time>2021-05-30T07:46:04Z</time>
      </trkpt>
      <trkpt lat="38.1133832596" lon="-6.5279735439">
        <ele>676.91</ele>
        <time>2021-05-30T07:46:05Z</time>
      </trkpt>
      <trkpt lat="38.1134976726" lon="-6.5279758070">
        <ele>677.87</ele>
        <time>2021-05-30T07:46:06Z</time>
      </trkpt>
      <trkpt lat="38.1137566734" lon="-6.5279569477">
        <ele>678.83</ele>
        <time>2021-05-30T07:46:08Z</time>
      </trkpt>
      <trkpt lat="38.1140227150" lon="-6.5279008728">
        <ele>678.83</ele>
        <time>2021-05-30T07:46:10Z</time>
      </trkpt>
      <trkpt lat="38.1141480245" lon="-6.5278499108">
        <ele>679.79</ele>
        <time>2021-05-30T07:46:11Z</time>
      </trkpt>
      <trkpt lat="38.1142665446" lon="-6.5277883876">
        <ele>680.75</ele>
        <time>2021-05-30T07:46:12Z</time>
      </trkpt>
      <trkpt lat="38.1144924369" lon="-6.5276712924">
        <ele>683.15</ele>
        <time>2021-05-30T07:46:14Z</time>
      </trkpt>
      <trkpt lat="38.1146147288" lon="-6.5276389383">
        <ele>684.12</ele>
        <time>2021-05-30T07:46:15Z</time>
      </trkpt>
      <trkpt lat="38.1147464085" lon="-6.5276229288">
        <ele>684.12</ele>
        <time>2021-05-30T07:46:16Z</time>
      </trkpt>
      <trkpt lat="38.1148824468" lon="-6.5276131220">
        <ele>684.60</ele>
        <time>2021-05-30T07:46:17Z</time>
      </trkpt>
      <trkpt lat="38.1156373210" lon="-6.5273952764">
        <ele>684.60</ele>
        <time>2021-05-30T07:46:23Z</time>
      </trkpt>
      <trkpt lat="38.1157484651" lon="-6.5273152292">
        <ele>685.08</ele>
        <time>2021-05-30T07:46:24Z</time>
      </trkpt>
      <trkpt lat="38.1158504728" lon="-6.5272188373">
        <ele>685.08</ele>
        <time>2021-05-30T07:46:25Z</time>
      </trkpt>
      <trkpt lat="38.1159396563" lon="-6.5271092858">
        <ele>685.56</ele>
        <time>2021-05-30T07:46:26Z</time>
      </trkpt>
      <trkpt lat="38.1160166021" lon="-6.5269916039">
        <ele>686.04</ele>
        <time>2021-05-30T07:46:27Z</time>
      </trkpt>
      <trkpt lat="38.1160875130" lon="-6.5268733352">
        <ele>687.48</ele>
        <time>2021-05-30T07:46:28Z</time>
      </trkpt>
      <trkpt lat="38.1163882557" lon="-6.5263475385">
        <ele>691.33</ele>
        <time>2021-05-30T07:46:32Z</time>
      </trkpt>
      <trkpt lat="38.1165444106" lon="-6.5260513220">
        <ele>691.81</ele>
        <time>2021-05-30T07:46:34Z</time>
      </trkpt>
      <trkpt lat="38.1170017272" lon="-6.5251589008">
        <ele>689.40</ele>
        <time>2021-05-30T07:46:40Z</time>
      </trkpt>
      <trkpt lat="38.1170501746" lon="-6.5249945316">
        <ele>688.92</ele>
        <time>2021-05-30T07:46:41Z</time>
      </trkpt>
      <trkpt lat="38.1172409467" lon="-6.5243215486">
        <ele>684.60</ele>
        <time>2021-05-30T07:46:45Z</time>
      </trkpt>
      <trkpt lat="38.1173262745" lon="-6.5241404995">
        <ele>683.63</ele>
        <time>2021-05-30T07:46:46Z</time>
      </trkpt>
      <trkpt lat="38.1174246781" lon="-6.5239589475">
        <ele>683.15</ele>
        <time>2021-05-30T07:46:47Z</time>
      </trkpt>
      <trkpt lat="38.1176278554" lon="-6.5236179717">
        <ele>679.79</ele>
        <time>2021-05-30T07:46:49Z</time>
      </trkpt>
      <trkpt lat="38.1178736128" lon="-6.5231735632">
        <ele>673.54</ele>
        <time>2021-05-30T07:46:52Z</time>
      </trkpt>
      <trkpt lat="38.1180318631" lon="-6.5227967128">
        <ele>669.70</ele>
        <time>2021-05-30T07:46:55Z</time>
      </trkpt>
      <trkpt lat="38.1180525664" lon="-6.5226802044">
        <ele>668.73</ele>
        <time>2021-05-30T07:46:56Z</time>
      </trkpt>
      <trkpt lat="38.1180584338" lon="-6.5225723293">
        <ele>667.77</ele>
        <time>2021-05-30T07:46:57Z</time>
      </trkpt>
      <trkpt lat="38.1180586852" lon="-6.5224670526">
        <ele>667.77</ele>
        <time>2021-05-30T07:46:58Z</time>
      </trkpt>
      <trkpt lat="38.1180643849" lon="-6.5223517176">
        <ele>667.77</ele>
        <time>2021-05-30T07:46:59Z</time>
      </trkpt>
      <trkpt lat="38.1180631276" lon="-6.5222168528">
        <ele>668.25</ele>
        <time>2021-05-30T07:47:00Z</time>
      </trkpt>
      <trkpt lat="38.1180451903" lon="-6.5220629610">
        <ele>667.77</ele>
        <time>2021-05-30T07:47:01Z</time>
      </trkpt>
      <trkpt lat="38.1180244032" lon="-6.5218985081">
        <ele>668.25</ele>
        <time>2021-05-30T07:47:02Z</time>
      </trkpt>
      <trkpt lat="38.1180146802" lon="-6.5217232425">
        <ele>666.81</ele>
        <time>2021-05-30T07:47:03Z</time>
      </trkpt>
      <trkpt lat="38.1180135906" lon="-6.5215374995">
        <ele>666.81</ele>
        <time>2021-05-30T07:47:04Z</time>
      </trkpt>
      <trkpt lat="38.1180369761" lon="-6.5211644210">
        <ele>663.93</ele>
        <time>2021-05-30T07:47:06Z</time>
      </trkpt>
      <trkpt lat="38.1180768739" lon="-6.5209888201">
        <ele>662.97</ele>
        <time>2021-05-30T07:47:07Z</time>
      </trkpt>
      <trkpt lat="38.1181521434" lon="-6.5208249539">
        <ele>661.52</ele>
        <time>2021-05-30T07:47:08Z</time>
      </trkpt>
      <trkpt lat="38.1182573363" lon="-6.5206792764">
        <ele>661.04</ele>
        <time>2021-05-30T07:47:09Z</time>
      </trkpt>
      <trkpt lat="38.1183865014" lon="-6.5205475129">
        <ele>660.08</ele>
        <time>2021-05-30T07:47:10Z</time>
      </trkpt>
      <trkpt lat="38.1185341068" lon="-6.5204159170">
        <ele>661.04</ele>
        <time>2021-05-30T07:47:11Z</time>
      </trkpt>
      <trkpt lat="38.1194833573" lon="-6.5195975080">
        <ele>665.85</ele>
        <time>2021-05-30T07:47:16Z</time>
      </trkpt>
      <trkpt lat="38.1199120916" lon="-6.5192239266">
        <ele>662.49</ele>
        <time>2021-05-30T07:47:18Z</time>
      </trkpt>
      <trkpt lat="38.1202883553" lon="-6.5188920870">
        <ele>657.20</ele>
        <time>2021-05-30T07:47:20Z</time>
      </trkpt>
      <trkpt lat="38.1207893416" lon="-6.5184513666">
        <ele>653.83</ele>
        <time>2021-05-30T07:47:23Z</time>
      </trkpt>
      <trkpt lat="38.1209515315" lon="-6.5183361992">
        <ele>652.39</ele>
        <time>2021-05-30T07:47:24Z</time>
      </trkpt>
      <trkpt lat="38.1211228576" lon="-6.5182491951">
        <ele>651.91</ele>
        <time>2021-05-30T07:47:25Z</time>
      </trkpt>
      <trkpt lat="38.1213071756" lon="-6.5181772783">
        <ele>652.39</ele>
        <time>2021-05-30T07:47:26Z</time>
      </trkpt>
      <trkpt lat="38.1218407676" lon="-6.5180518012">
        <ele>649.03</ele>
        <time>2021-05-30T07:47:29Z</time>
      </trkpt>
      <trkpt lat="38.1220012810" lon="-6.5180588420">
        <ele>647.59</ele>
        <time>2021-05-30T07:47:30Z</time>
      </trkpt>
      <trkpt lat="38.1225480326" lon="-6.5181422420">
        <ele>644.70</ele>
        <time>2021-05-30T07:47:34Z</time>
      </trkpt>
      <trkpt lat="38.1227973942" lon="-6.5181421582">
        <ele>642.78</ele>
        <time>2021-05-30T07:47:36Z</time>
      </trkpt>
      <trkpt lat="38.1229181774" lon="-6.5181180183">
        <ele>642.30</ele>
        <time>2021-05-30T07:47:37Z</time>
      </trkpt>
      <trkpt lat="38.1230367813" lon="-6.5180678107">
        <ele>641.34</ele>
        <time>2021-05-30T07:47:38Z</time>
      </trkpt>
      <trkpt lat="38.1231535412" lon="-6.5179868415">
        <ele>640.38</ele>
        <time>2021-05-30T07:47:39Z</time>
      </trkpt>
      <trkpt lat="38.1232686248" lon="-6.5178761166">
        <ele>640.38</ele>
        <time>2021-05-30T07:47:40Z</time>
      </trkpt>
      <trkpt lat="38.1233816966" lon="-6.5177464485">
        <ele>639.41</ele>
        <time>2021-05-30T07:47:41Z</time>
      </trkpt>
      <trkpt lat="38.1234933436" lon="-6.5176063031">
        <ele>639.41</ele>
        <time>2021-05-30T07:47:42Z</time>
      </trkpt>
      <trkpt lat="38.1239062361" lon="-6.5170072485">
        <ele>634.61</ele>
        <time>2021-05-30T07:47:46Z</time>
      </trkpt>
      <trkpt lat="38.1240029633" lon="-6.5168763231">
        <ele>633.65</ele>
        <time>2021-05-30T07:47:47Z</time>
      </trkpt>
      <trkpt lat="38.1241079886" lon="-6.5167795122">
        <ele>631.72</ele>
        <time>2021-05-30T07:47:48Z</time>
      </trkpt>
      <trkpt lat="38.1242259219" lon="-6.5167202521">
        <ele>631.72</ele>
        <time>2021-05-30T07:47:49Z</time>
      </trkpt>
      <trkpt lat="38.1243573502" lon="-6.5166956931">
        <ele>630.76</ele>
        <time>2021-05-30T07:47:50Z</time>
      </trkpt>
      <trkpt lat="38.1244993396" lon="-6.5167162288">
        <ele>629.80</ele>
        <time>2021-05-30T07:47:51Z</time>
      </trkpt>
      <trkpt lat="38.1246372219" lon="-6.5167672746">
        <ele>630.28</ele>
        <time>2021-05-30T07:47:52Z</time>
      </trkpt>
      <trkpt lat="38.1247645430" lon="-6.5168124530">
        <ele>629.80</ele>
        <time>2021-05-30T07:47:53Z</time>
      </trkpt>
      <trkpt lat="38.1248795427" lon="-6.5168202482">
        <ele>627.88</ele>
        <time>2021-05-30T07:47:54Z</time>
      </trkpt>
      <trkpt lat="38.1249777786" lon="-6.5167882293">
        <ele>627.40</ele>
        <time>2021-05-30T07:47:55Z</time>
      </trkpt>
      <trkpt lat="38.1250546407" lon="-6.5167273767">
        <ele>627.40</ele>
        <time>2021-05-30T07:47:56Z</time>
      </trkpt>
      <trkpt lat="38.1251045130" lon="-6.5166402888">
        <ele>627.40</ele>
        <time>2021-05-30T07:47:57Z</time>
      </trkpt>
      <trkpt lat="38.1251289044" lon="-6.5165376104">
        <ele>626.44</ele>
        <time>2021-05-30T07:47:58Z</time>
      </trkpt>
      <trkpt lat="38.1251492724" lon="-6.5164244547">
        <ele>627.40</ele>
        <time>2021-05-30T07:47:59Z</time>
      </trkpt>
      <trkpt lat="38.1251941994" lon="-6.5163097065">
        <ele>626.44</ele>
        <time>2021-05-30T07:48:00Z</time>
      </trkpt>
      <trkpt lat="38.1252608355" lon="-6.5162014123">
        <ele>627.40</ele>
        <time>2021-05-30T07:48:01Z</time>
      </trkpt>
      <trkpt lat="38.1253270525" lon="-6.5160850715">
        <ele>626.92</ele>
        <time>2021-05-30T07:48:02Z</time>
      </trkpt>
      <trkpt lat="38.1253738236" lon="-6.5159478597">
        <ele>626.92</ele>
        <time>2021-05-30T07:48:03Z</time>
      </trkpt>
      <trkpt lat="38.1253971253" lon="-6.5157983266">
        <ele>625.96</ele>
        <time>2021-05-30T07:48:04Z</time>
      </trkpt>
      <trkpt lat="38.1254017353" lon="-6.5156560019">
        <ele>625.47</ele>
        <time>2021-05-30T07:48:05Z</time>
      </trkpt>
      <trkpt lat="38.1253851391" lon="-6.5155299380">
        <ele>626.44</ele>
        <time>2021-05-30T07:48:06Z</time>
      </trkpt>
      <trkpt lat="38.1253423914" lon="-6.5154181235">
        <ele>626.44</ele>
        <time>2021-05-30T07:48:07Z</time>
      </trkpt>
      <trkpt lat="38.1252936088" lon="-6.5153145231">
        <ele>626.44</ele>
        <time>2021-05-30T07:48:08Z</time>
      </trkpt>
      <trkpt lat="38.1252621766" lon="-6.5152075700">
        <ele>625.96</ele>
        <time>2021-05-30T07:48:09Z</time>
      </trkpt>
      <trkpt lat="38.1252664514" lon="-6.5150903072">
        <ele>626.92</ele>
        <time>2021-05-30T07:48:10Z</time>
      </trkpt>
      <trkpt lat="38.1253097858" lon="-6.5149703622">
        <ele>627.40</ele>
        <time>2021-05-30T07:48:11Z</time>
      </trkpt>
      <trkpt lat="38.1253809482" lon="-6.5148536023">
        <ele>627.88</ele>
        <time>2021-05-30T07:48:12Z</time>
      </trkpt>
      <trkpt lat="38.1254492607" lon="-6.5147275385">
        <ele>628.36</ele>
        <time>2021-05-30T07:48:13Z</time>
      </trkpt>
      <trkpt lat="38.1254996359" lon="-6.5145857166">
        <ele>628.84</ele>
        <time>2021-05-30T07:48:14Z</time>
      </trkpt>
      <trkpt lat="38.1255499274" lon="-6.5144347586">
        <ele>629.80</ele>
        <time>2021-05-30T07:48:15Z</time>
      </trkpt>
      <trkpt lat="38.1256158091" lon="-6.5142730717">
        <ele>631.72</ele>
        <time>2021-05-30T07:48:16Z</time>
      </trkpt>
      <trkpt lat="38.1256883126" lon="-6.5140942018">
        <ele>632.20</ele>
        <time>2021-05-30T07:48:17Z</time>
      </trkpt>
      <trkpt lat="38.1259662565" lon="-6.5131205600">
        <ele>629.80</ele>
        <time>2021-05-30T07:48:22Z</time>
      </trkpt>
      <trkpt lat="38.1265143491" lon="-6.5105704498">
        <ele>632.20</ele>
        <time>2021-05-30T07:48:33Z</time>
      </trkpt>
      <trkpt lat="38.1267294288" lon="-6.5095785353">
        <ele>636.53</ele>
        <time>2021-05-30T07:48:37Z</time>
      </trkpt>
      <trkpt lat="38.1268696580" lon="-6.5088440292">
        <ele>640.38</ele>
        <time>2021-05-30T07:48:40Z</time>
      </trkpt>
      <trkpt lat="38.1269321032" lon="-6.5083572920">
        <ele>643.74</ele>
        <time>2021-05-30T07:48:42Z</time>
      </trkpt>
      <trkpt lat="38.1271037646" lon="-6.5062151290">
        <ele>646.14</ele>
        <time>2021-05-30T07:48:51Z</time>
      </trkpt>
      <trkpt lat="38.1271611806" lon="-6.5060231835">
        <ele>646.62</ele>
        <time>2021-05-30T07:48:52Z</time>
      </trkpt>
      <trkpt lat="38.1272447482" lon="-6.5058346745">
        <ele>646.62</ele>
        <time>2021-05-30T07:48:53Z</time>
      </trkpt>
      <trkpt lat="38.1273496058" lon="-6.5056459978">
        <ele>647.10</ele>
        <time>2021-05-30T07:48:54Z</time>
      </trkpt>
      <trkpt lat="38.1274695508" lon="-6.5054494422">
        <ele>649.03</ele>
        <time>2021-05-30T07:48:55Z</time>
      </trkpt>
      <trkpt lat="38.1280054897" lon="-6.5045746230">
        <ele>652.39</ele>
        <time>2021-05-30T07:48:59Z</time>
      </trkpt>
      <trkpt lat="38.1285784766" lon="-6.5036407113">
        <ele>649.51</ele>
        <time>2021-05-30T07:49:03Z</time>
      </trkpt>
      <trkpt lat="38.1287307758" lon="-6.5034194291">
        <ele>650.47</ele>
        <time>2021-05-30T07:49:04Z</time>
      </trkpt>
      <trkpt lat="38.1293836422" lon="-6.5025818255">
        <ele>647.10</ele>
        <time>2021-05-30T07:49:08Z</time>
      </trkpt>
      <trkpt lat="38.1299015600" lon="-6.5019368380">
        <ele>643.74</ele>
        <time>2021-05-30T07:49:11Z</time>
      </trkpt>
      <trkpt lat="38.1305907201" lon="-6.5010853205">
        <ele>639.41</ele>
        <time>2021-05-30T07:49:15Z</time>
      </trkpt>
      <trkpt lat="38.1307524070" lon="-6.5008844901">
        <ele>639.41</ele>
        <time>2021-05-30T07:49:16Z</time>
      </trkpt>
      <trkpt lat="38.1313849892" lon="-6.5000913106">
        <ele>635.57</ele>
        <time>2021-05-30T07:49:20Z</time>
      </trkpt>
      <trkpt lat="38.1316568144" lon="-6.4997307211">
        <ele>631.24</ele>
        <time>2021-05-30T07:49:22Z</time>
      </trkpt>
      <trkpt lat="38.1318906695" lon="-6.4993506018">
        <ele>630.76</ele>
        <time>2021-05-30T07:49:24Z</time>
      </trkpt>
      <trkpt lat="38.1319851335" lon="-6.4991315827">
        <ele>630.28</ele>
        <time>2021-05-30T07:49:25Z</time>
      </trkpt>
      <trkpt lat="38.1320673600" lon="-6.4988928661">
        <ele>630.76</ele>
        <time>2021-05-30T07:49:26Z</time>
      </trkpt>
      <trkpt lat="38.1323552784" lon="-6.4979246724">
        <ele>626.44</ele>
        <time>2021-05-30T07:49:30Z</time>
      </trkpt>
      <trkpt lat="38.1324596331" lon="-6.4977177233">
        <ele>623.55</ele>
        <time>2021-05-30T07:49:31Z</time>
      </trkpt>
      <trkpt lat="38.1325931568" lon="-6.4975224249">
        <ele>624.03</ele>
        <time>2021-05-30T07:49:32Z</time>
      </trkpt>
      <trkpt lat="38.1337878294" lon="-6.4960605372">
        <ele>618.26</ele>
        <time>2021-05-30T07:49:39Z</time>
      </trkpt>
      <trkpt lat="38.1339601614" lon="-6.4958380815">
        <ele>619.71</ele>
        <time>2021-05-30T07:49:40Z</time>
      </trkpt>
      <trkpt lat="38.1346511655" lon="-6.4949159045">
        <ele>616.34</ele>
        <time>2021-05-30T07:49:44Z</time>
      </trkpt>
      <trkpt lat="38.1350023672" lon="-6.4944590069">
        <ele>612.50</ele>
        <time>2021-05-30T07:49:46Z</time>
      </trkpt>
      <trkpt lat="38.1351738609" lon="-6.4942331985">
        <ele>612.50</ele>
        <time>2021-05-30T07:49:47Z</time>
      </trkpt>
      <trkpt lat="38.1356563233" lon="-6.4935965091">
        <ele>609.61</ele>
        <time>2021-05-30T07:49:50Z</time>
      </trkpt>
      <trkpt lat="38.1361589860" lon="-6.4929355122">
        <ele>606.25</ele>
        <time>2021-05-30T07:49:53Z</time>
      </trkpt>
      <trkpt lat="38.1363259535" lon="-6.4927133918">
        <ele>605.77</ele>
        <time>2021-05-30T07:49:54Z</time>
      </trkpt>
      <trkpt lat="38.1371280178" lon="-6.4912492409">
        <ele>606.25</ele>
        <time>2021-05-30T07:50:00Z</time>
      </trkpt>
      <trkpt lat="38.1376768649" lon="-6.4902580809">
        <ele>601.92</ele>
        <time>2021-05-30T07:50:04Z</time>
      </trkpt>
      <trkpt lat="38.1379268970" lon="-6.4898331184">
        <ele>598.56</ele>
        <time>2021-05-30T07:50:06Z</time>
      </trkpt>
      <trkpt lat="38.1380561460" lon="-6.4896587748">
        <ele>597.60</ele>
        <time>2021-05-30T07:50:07Z</time>
      </trkpt>
      <trkpt lat="38.1382061820" lon="-6.4895054698">
        <ele>597.12</ele>
        <time>2021-05-30T07:50:08Z</time>
      </trkpt>
      <trkpt lat="38.1389480643" lon="-6.4888883103">
        <ele>598.56</ele>
        <time>2021-05-30T07:50:12Z</time>
      </trkpt>
      <trkpt lat="38.1393220648" lon="-6.4885749109">
        <ele>594.23</ele>
        <time>2021-05-30T07:50:14Z</time>
      </trkpt>
      <trkpt lat="38.1396505516" lon="-6.4882838074">
        <ele>591.35</ele>
        <time>2021-05-30T07:50:16Z</time>
      </trkpt>
      <trkpt lat="38.1399118993" lon="-6.4879905246">
        <ele>589.43</ele>
        <time>2021-05-30T07:50:18Z</time>
      </trkpt>
      <trkpt lat="38.1400126498" lon="-6.4878197853">
        <ele>588.95</ele>
        <time>2021-05-30T07:50:19Z</time>
      </trkpt>
      <trkpt lat="38.1403841358" lon="-6.4870017953">
        <ele>592.79</ele>
        <time>2021-05-30T07:50:23Z</time>
      </trkpt>
      <trkpt lat="38.1404886581" lon="-6.4867738914">
        <ele>592.31</ele>
        <time>2021-05-30T07:50:24Z</time>
      </trkpt>
      <trkpt lat="38.1407004688" lon="-6.4862696361">
        <ele>596.15</ele>
        <time>2021-05-30T07:50:26Z</time>
      </trkpt>
      <trkpt lat="38.1407882273" lon="-6.4859938715">
        <ele>595.19</ele>
        <time>2021-05-30T07:50:27Z</time>
      </trkpt>
      <trkpt lat="38.1415576022" lon="-6.4830178767">
        <ele>596.15</ele>
        <time>2021-05-30T07:50:37Z</time>
      </trkpt>
      <trkpt lat="38.1418746058" lon="-6.4818247128">
        <ele>593.27</ele>
        <time>2021-05-30T07:50:41Z</time>
      </trkpt>
      <trkpt lat="38.1419492047" lon="-6.4815474395">
        <ele>593.27</ele>
        <time>2021-05-30T07:50:42Z</time>
      </trkpt>
      <trkpt lat="38.1421730854" lon="-6.4807218220">
        <ele>595.19</ele>
        <time>2021-05-30T07:50:45Z</time>
      </trkpt>
      <trkpt lat="38.1428775005" lon="-6.4775703941">
        <ele>591.35</ele>
        <time>2021-05-30T07:50:56Z</time>
      </trkpt>
      <trkpt lat="38.1429536082" lon="-6.4772828110">
        <ele>591.35</ele>
        <time>2021-05-30T07:50:57Z</time>
      </trkpt>
      <trkpt lat="38.1431402732" lon="-6.4767270070">
        <ele>589.91</ele>
        <time>2021-05-30T07:50:59Z</time>
      </trkpt>
      <trkpt lat="38.1434461288" lon="-6.4759947639">
        <ele>586.54</ele>
        <time>2021-05-30T07:51:02Z</time>
      </trkpt>
      <trkpt lat="38.1435423531" lon="-6.4757775050">
        <ele>587.02</ele>
        <time>2021-05-30T07:51:03Z</time>
      </trkpt>
      <trkpt lat="38.1436505634" lon="-6.4755729865">
        <ele>586.06</ele>
        <time>2021-05-30T07:51:04Z</time>
      </trkpt>
      <trkpt lat="38.1437787227" lon="-6.4753799513">
        <ele>586.06</ele>
        <time>2021-05-30T07:51:05Z</time>
      </trkpt>
      <trkpt lat="38.1439258251" lon="-6.4752058592">
        <ele>585.58</ele>
        <time>2021-05-30T07:51:06Z</time>
      </trkpt>
      <trkpt lat="38.1440917030" lon="-6.4750545658">
        <ele>585.58</ele>
        <time>2021-05-30T07:51:07Z</time>
      </trkpt>
      <trkpt lat="38.1442698184" lon="-6.4749228023">
        <ele>585.58</ele>
        <time>2021-05-30T07:51:08Z</time>
      </trkpt>
      <trkpt lat="38.1446200982" lon="-6.4746372309">
        <ele>584.14</ele>
        <time>2021-05-30T07:51:10Z</time>
      </trkpt>
      <trkpt lat="38.1447863113" lon="-6.4744564332">
        <ele>583.66</ele>
        <time>2021-05-30T07:51:11Z</time>
      </trkpt>
      <trkpt lat="38.1449452322" lon="-6.4742475562">
        <ele>582.70</ele>
        <time>2021-05-30T07:51:12Z</time>
      </trkpt>
      <trkpt lat="38.1450920831" lon="-6.4740189817">
        <ele>582.22</ele>
        <time>2021-05-30T07:51:13Z</time>
      </trkpt>
      <trkpt lat="38.1452220865" lon="-6.4737833664">
        <ele>581.25</ele>
        <time>2021-05-30T07:51:14Z</time>
      </trkpt>
      <trkpt lat="38.1455816701" lon="-6.4730944578">
        <ele>575.97</ele>
        <time>2021-05-30T07:51:17Z</time>
      </trkpt>
      <trkpt lat="38.1457468774" lon="-6.4726635441">
        <ele>574.53</ele>
        <time>2021-05-30T07:51:19Z</time>
      </trkpt>
      <trkpt lat="38.1459223107" lon="-6.4722618833">
        <ele>574.53</ele>
        <time>2021-05-30T07:51:21Z</time>
      </trkpt>
      <trkpt lat="38.1460516434" lon="-6.4720970951">
        <ele>575.97</ele>
        <time>2021-05-30T07:51:22Z</time>
      </trkpt>
      <trkpt lat="38.1462026015" lon="-6.4719613083">
        <ele>576.93</ele>
        <time>2021-05-30T07:51:23Z</time>
      </trkpt>
      <trkpt lat="38.1466042623" lon="-6.4716166444">
        <ele>576.93</ele>
        <time>2021-05-30T07:51:26Z</time>
      </trkpt>
      <trkpt lat="38.1466844771" lon="-6.4714806061">
        <ele>577.41</ele>
        <time>2021-05-30T07:51:27Z</time>
      </trkpt>
      <trkpt lat="38.1467289012" lon="-6.4713195059">
        <ele>578.37</ele>
        <time>2021-05-30T07:51:28Z</time>
      </trkpt>
      <trkpt lat="38.1467397138" lon="-6.4711378701">
        <ele>579.81</ele>
        <time>2021-05-30T07:51:29Z</time>
      </trkpt>
      <trkpt lat="38.1467356067" lon="-6.4709460083">
        <ele>581.73</ele>
        <time>2021-05-30T07:51:30Z</time>
      </trkpt>
      <trkpt lat="38.1467532925" lon="-6.4707502909">
        <ele>582.22</ele>
        <time>2021-05-30T07:51:31Z</time>
      </trkpt>
      <trkpt lat="38.1468128040" lon="-6.4705671463">
        <ele>583.66</ele>
        <time>2021-05-30T07:51:32Z</time>
      </trkpt>
      <trkpt lat="38.1469138060" lon="-6.4704138413">
        <ele>584.14</ele>
        <time>2021-05-30T07:51:33Z</time>
      </trkpt>
      <trkpt lat="38.1470505148" lon="-6.4702900406">
        <ele>586.54</ele>
        <time>2021-05-30T07:51:34Z</time>
      </trkpt>
      <trkpt lat="38.1472067535" lon="-6.4701789804">
        <ele>588.46</ele>
        <time>2021-05-30T07:51:35Z</time>
      </trkpt>
      <trkpt lat="38.1473615672" lon="-6.4700540900">
        <ele>590.39</ele>
        <time>2021-05-30T07:51:36Z</time>
      </trkpt>
      <trkpt lat="38.1474994496" lon="-6.4699004497">
        <ele>592.31</ele>
        <time>2021-05-30T07:51:37Z</time>
      </trkpt>
      <trkpt lat="38.1476209033" lon="-6.4697196521">
        <ele>593.27</ele>
        <time>2021-05-30T07:51:38Z</time>
      </trkpt>
      <trkpt lat="38.1478381623" lon="-6.4693277143">
        <ele>596.64</ele>
        <time>2021-05-30T07:51:40Z</time>
      </trkpt>
      <trkpt lat="38.1480689999" lon="-6.4689242933">
        <ele>598.08</ele>
        <time>2021-05-30T07:51:42Z</time>
      </trkpt>
      <trkpt lat="38.1483125780" lon="-6.4685031865">
        <ele>596.15</ele>
        <time>2021-05-30T07:51:44Z</time>
      </trkpt>
      <trkpt lat="38.1487341877" lon="-6.4677941613">
        <ele>593.75</ele>
        <time>2021-05-30T07:51:47Z</time>
      </trkpt>
      <trkpt lat="38.1490509398" lon="-6.4673567098">
        <ele>590.39</ele>
        <time>2021-05-30T07:51:49Z</time>
      </trkpt>
      <trkpt lat="38.1495713722" lon="-6.4668487664">
        <ele>590.39</ele>
        <time>2021-05-30T07:51:52Z</time>
      </trkpt>
      <trkpt lat="38.1497489847" lon="-6.4667302463">
        <ele>590.87</ele>
        <time>2021-05-30T07:51:53Z</time>
      </trkpt>
      <trkpt lat="38.1502038706" lon="-6.4664043579">
        <ele>592.31</ele>
        <time>2021-05-30T07:51:56Z</time>
      </trkpt>
      <trkpt lat="38.1503253244" lon="-6.4662519749">
        <ele>592.31</ele>
        <time>2021-05-30T07:51:57Z</time>
      </trkpt>
      <trkpt lat="38.1504319422" lon="-6.4660610352">
        <ele>594.23</ele>
        <time>2021-05-30T07:51:58Z</time>
      </trkpt>
      <trkpt lat="38.1505282503" lon="-6.4658407588">
        <ele>593.75</ele>
        <time>2021-05-30T07:51:59Z</time>
      </trkpt>
      <trkpt lat="38.1509667076" lon="-6.4649296459">
        <ele>592.31</ele>
        <time>2021-05-30T07:52:03Z</time>
      </trkpt>
      <trkpt lat="38.1511111278" lon="-6.4647283964">
        <ele>591.35</ele>
        <time>2021-05-30T07:52:04Z</time>
      </trkpt>
      <trkpt lat="38.1512661930" lon="-6.4645418990">
        <ele>592.31</ele>
        <time>2021-05-30T07:52:05Z</time>
      </trkpt>
      <trkpt lat="38.1517553609" lon="-6.4640513901">
        <ele>595.67</ele>
        <time>2021-05-30T07:52:08Z</time>
      </trkpt>
      <trkpt lat="38.1520681735" lon="-6.4638058841">
        <ele>594.23</ele>
        <time>2021-05-30T07:52:10Z</time>
      </trkpt>
      <trkpt lat="38.1522226520" lon="-6.4637433551">
        <ele>593.27</ele>
        <time>2021-05-30T07:52:11Z</time>
      </trkpt>
      <trkpt lat="38.1523827463" lon="-6.4637293573">
        <ele>592.31</ele>
        <time>2021-05-30T07:52:12Z</time>
      </trkpt>
      <trkpt lat="38.1525521446" lon="-6.4637572691">
        <ele>592.79</ele>
        <time>2021-05-30T07:52:13Z</time>
      </trkpt>
      <trkpt lat="38.1527225487" lon="-6.4638094045">
        <ele>592.79</ele>
        <time>2021-05-30T07:52:14Z</time>
      </trkpt>
      <trkpt lat="38.1528813858" lon="-6.4638656471">
        <ele>590.87</ele>
        <time>2021-05-30T07:52:15Z</time>
      </trkpt>
      <trkpt lat="38.1530227885" lon="-6.4639068861">
        <ele>588.95</ele>
        <time>2021-05-30T07:52:16Z</time>
      </trkpt>
      <trkpt lat="38.1531461701" lon="-6.4639200456">
        <ele>587.02</ele>
        <time>2021-05-30T07:52:17Z</time>
      </trkpt>
      <trkpt lat="38.1532532908" lon="-6.4638961572">
        <ele>585.58</ele>
        <time>2021-05-30T07:52:18Z</time>
      </trkpt>
      <trkpt lat="38.1533441506" lon="-6.4638293535">
        <ele>584.14</ele>
        <time>2021-05-30T07:52:19Z</time>
      </trkpt>
      <trkpt lat="38.1534056738" lon="-6.4637266751">
        <ele>584.14</ele>
        <time>2021-05-30T07:52:20Z</time>
      </trkpt>
      <trkpt lat="38.1534294784" lon="-6.4635904692">
        <ele>584.14</ele>
        <time>2021-05-30T07:52:21Z</time>
      </trkpt>
      <trkpt lat="38.1534178276" lon="-6.4634258486">
        <ele>584.62</ele>
        <time>2021-05-30T07:52:22Z</time>
      </trkpt>
      <trkpt lat="38.1533779297" lon="-6.4632400218">
        <ele>585.10</ele>
        <time>2021-05-30T07:52:23Z</time>
      </trkpt>
      <trkpt lat="38.1533164904" lon="-6.4630364254">
        <ele>586.54</ele>
        <time>2021-05-30T07:52:24Z</time>
      </trkpt>
      <trkpt lat="38.1532247923" lon="-6.4628294762">
        <ele>586.54</ele>
        <time>2021-05-30T07:52:25Z</time>
      </trkpt>
      <trkpt lat="38.1531172525" lon="-6.4626347646">
        <ele>585.58</ele>
        <time>2021-05-30T07:52:26Z</time>
      </trkpt>
      <trkpt lat="38.1529971398" lon="-6.4624567330">
        <ele>584.14</ele>
        <time>2021-05-30T07:52:27Z</time>
      </trkpt>
      <trkpt lat="38.1528751832" lon="-6.4622965548">
        <ele>582.22</ele>
        <time>2021-05-30T07:52:28Z</time>
      </trkpt>
      <trkpt lat="38.1526711676" lon="-6.4619901124">
        <ele>577.41</ele>
        <time>2021-05-30T07:52:30Z</time>
      </trkpt>
      <trkpt lat="38.1526154280" lon="-6.4618308563">
        <ele>575.97</ele>
        <time>2021-05-30T07:52:31Z</time>
      </trkpt>
      <trkpt lat="38.1526022684" lon="-6.4616592787">
        <ele>573.56</ele>
        <time>2021-05-30T07:52:32Z</time>
      </trkpt>
      <trkpt lat="38.1526311021" lon="-6.4614764694">
        <ele>572.60</ele>
        <time>2021-05-30T07:52:33Z</time>
      </trkpt>
      <trkpt lat="38.1526986603" lon="-6.4612936601">
        <ele>573.56</ele>
        <time>2021-05-30T07:52:34Z</time>
      </trkpt>
      <trkpt lat="38.1528022606" lon="-6.4611133654">
        <ele>574.04</ele>
        <time>2021-05-30T07:52:35Z</time>
      </trkpt>
      <trkpt lat="38.1529315095" lon="-6.4609322324">
        <ele>573.56</ele>
        <time>2021-05-30T07:52:36Z</time>
      </trkpt>
      <trkpt lat="38.1530730799" lon="-6.4607451484">
        <ele>575.01</ele>
        <time>2021-05-30T07:52:37Z</time>
      </trkpt>
      <trkpt lat="38.1532175001" lon="-6.4605553821">
        <ele>575.01</ele>
        <time>2021-05-30T07:52:38Z</time>
      </trkpt>
      <trkpt lat="38.1536600646" lon="-6.4599616919">
        <ele>578.37</ele>
        <time>2021-05-30T07:52:41Z</time>
      </trkpt>
      <trkpt lat="38.1538125314" lon="-6.4597622864">
        <ele>578.37</ele>
        <time>2021-05-30T07:52:42Z</time>
      </trkpt>
      <trkpt lat="38.1543236598" lon="-6.4590077475">
        <ele>575.97</ele>
        <time>2021-05-30T07:52:46Z</time>
      </trkpt>
      <trkpt lat="38.1549054477" lon="-6.4578668866">
        <ele>572.60</ele>
        <time>2021-05-30T07:52:51Z</time>
      </trkpt>
      <trkpt lat="38.1551237963" lon="-6.4574106596">
        <ele>572.12</ele>
        <time>2021-05-30T07:52:53Z</time>
      </trkpt>
      <trkpt lat="38.1552162487" lon="-6.4571720269">
        <ele>572.12</ele>
        <time>2021-05-30T07:52:54Z</time>
      </trkpt>
      <trkpt lat="38.1552939489" lon="-6.4569238387">
        <ele>573.56</ele>
        <time>2021-05-30T07:52:55Z</time>
      </trkpt>
      <trkpt lat="38.1554818712" lon="-6.4562345110">
        <ele>571.16</ele>
        <time>2021-05-30T07:52:58Z</time>
      </trkpt>
      <trkpt lat="38.1555165723" lon="-6.4560299087">
        <ele>570.20</ele>
        <time>2021-05-30T07:52:59Z</time>
      </trkpt>
      <trkpt lat="38.1555207632" lon="-6.4558294974">
        <ele>570.68</ele>
        <time>2021-05-30T07:53:00Z</time>
      </trkpt>
      <trkpt lat="38.1554925162" lon="-6.4556267392">
        <ele>571.64</ele>
        <time>2021-05-30T07:53:01Z</time>
      </trkpt>
      <trkpt lat="38.1554503553" lon="-6.4554201253">
        <ele>571.64</ele>
        <time>2021-05-30T07:53:02Z</time>
      </trkpt>
      <trkpt lat="38.1554149836" lon="-6.4552077278">
        <ele>571.64</ele>
        <time>2021-05-30T07:53:03Z</time>
      </trkpt>
      <trkpt lat="38.1554060150" lon="-6.4549865294">
        <ele>573.56</ele>
        <time>2021-05-30T07:53:04Z</time>
      </trkpt>
      <trkpt lat="38.1554287300" lon="-6.4547540154">
        <ele>575.01</ele>
        <time>2021-05-30T07:53:05Z</time>
      </trkpt>
      <trkpt lat="38.1554725673" lon="-6.4545118622">
        <ele>576.45</ele>
        <time>2021-05-30T07:53:06Z</time>
      </trkpt>
      <trkpt lat="38.1555194221" lon="-6.4542631712">
        <ele>577.41</ele>
        <time>2021-05-30T07:53:07Z</time>
      </trkpt>
      <trkpt lat="38.1555520277" lon="-6.4540128037">
        <ele>576.93</ele>
        <time>2021-05-30T07:53:08Z</time>
      </trkpt>
      <trkpt lat="38.1555636786" lon="-6.4537646156">
        <ele>575.97</ele>
        <time>2021-05-30T07:53:09Z</time>
      </trkpt>
      <trkpt lat="38.1555540394" lon="-6.4535173494">
        <ele>576.93</ele>
        <time>2021-05-30T07:53:10Z</time>
      </trkpt>
      <trkpt lat="38.1555125490" lon="-6.4530242421">
        <ele>580.29</ele>
        <time>2021-05-30T07:53:12Z</time>
      </trkpt>
      <trkpt lat="38.1554466672" lon="-6.4522767439">
        <ele>585.10</ele>
        <time>2021-05-30T07:53:15Z</time>
      </trkpt>
      <trkpt lat="38.1554384530" lon="-6.4520266280">
        <ele>586.54</ele>
        <time>2021-05-30T07:53:16Z</time>
      </trkpt>
      <trkpt lat="38.1554500200" lon="-6.4517684653">
        <ele>588.46</ele>
        <time>2021-05-30T07:53:17Z</time>
      </trkpt>
      <trkpt lat="38.1554796081" lon="-6.4514994901">
        <ele>590.39</ele>
        <time>2021-05-30T07:53:18Z</time>
      </trkpt>
      <trkpt lat="38.1555614155" lon="-6.4509430993">
        <ele>593.75</ele>
        <time>2021-05-30T07:53:20Z</time>
      </trkpt>
      <trkpt lat="38.1559629086" lon="-6.4483429492">
        <ele>590.87</ele>
        <time>2021-05-30T07:53:30Z</time>
      </trkpt>
      <trkpt lat="38.1560203247" lon="-6.4481430408">
        <ele>591.83</ele>
        <time>2021-05-30T07:53:31Z</time>
      </trkpt>
      <trkpt lat="38.1561091729" lon="-6.4479681104">
        <ele>591.35</ele>
        <time>2021-05-30T07:53:32Z</time>
      </trkpt>
      <trkpt lat="38.1562334765" lon="-6.4478290547">
        <ele>592.31</ele>
        <time>2021-05-30T07:53:33Z</time>
      </trkpt>
      <trkpt lat="38.1563900504" lon="-6.4477223530">
        <ele>593.27</ele>
        <time>2021-05-30T07:53:34Z</time>
      </trkpt>
      <trkpt lat="38.1565669086" lon="-6.4476335049">
        <ele>595.19</ele>
        <time>2021-05-30T07:53:35Z</time>
      </trkpt>
      <trkpt lat="38.1567518134" lon="-6.4475438185">
        <ele>598.56</ele>
        <time>2021-05-30T07:53:36Z</time>
      </trkpt>
      <trkpt lat="38.1572684739" lon="-6.4472589176">
        <ele>597.60</ele>
        <time>2021-05-30T07:53:39Z</time>
      </trkpt>
      <trkpt lat="38.1573978905" lon="-6.4471280761">
        <ele>598.56</ele>
        <time>2021-05-30T07:53:40Z</time>
      </trkpt>
      <trkpt lat="38.1575090345" lon="-6.4469652157">
        <ele>600.00</ele>
        <time>2021-05-30T07:53:41Z</time>
      </trkpt>
      <trkpt lat="38.1577205937" lon="-6.4465760440">
        <ele>603.85</ele>
        <time>2021-05-30T07:53:43Z</time>
      </trkpt>
      <trkpt lat="38.1582569517" lon="-6.4455931820">
        <ele>599.52</ele>
        <time>2021-05-30T07:53:48Z</time>
      </trkpt>
      <trkpt lat="38.1584525015" lon="-6.4452693053">
        <ele>597.12</ele>
        <time>2021-05-30T07:53:50Z</time>
      </trkpt>
      <trkpt lat="38.1585741229" lon="-6.4451341052">
        <ele>597.12</ele>
        <time>2021-05-30T07:53:51Z</time>
      </trkpt>
      <trkpt lat="38.1587223988" lon="-6.4450194407">
        <ele>598.08</ele>
        <time>2021-05-30T07:53:52Z</time>
      </trkpt>
      <trkpt lat="38.1594538875" lon="-6.4445954841">
        <ele>601.92</ele>
        <time>2021-05-30T07:53:56Z</time>
      </trkpt>
      <trkpt lat="38.1605373323" lon="-6.4438436273">
        <ele>599.52</ele>
        <time>2021-05-30T07:54:02Z</time>
      </trkpt>
      <trkpt lat="38.1607050542" lon="-6.4437690284">
        <ele>598.08</ele>
        <time>2021-05-30T07:54:03Z</time>
      </trkpt>
      <trkpt lat="38.1608907972" lon="-6.4437306393">
        <ele>598.56</ele>
        <time>2021-05-30T07:54:04Z</time>
      </trkpt>
      <trkpt lat="38.1616681349" lon="-6.4436265361">
        <ele>596.64</ele>
        <time>2021-05-30T07:54:08Z</time>
      </trkpt>
      <trkpt lat="38.1618431490" lon="-6.4435378555">
        <ele>595.67</ele>
        <time>2021-05-30T07:54:09Z</time>
      </trkpt>
      <trkpt lat="38.1620172411" lon="-6.4434107020">
        <ele>596.15</ele>
        <time>2021-05-30T07:54:10Z</time>
      </trkpt>
      <trkpt lat="38.1621885672" lon="-6.4432598278">
        <ele>596.64</ele>
        <time>2021-05-30T07:54:11Z</time>
      </trkpt>
      <trkpt lat="38.1623584684" lon="-6.4431013260">
        <ele>596.64</ele>
        <time>2021-05-30T07:54:12Z</time>
      </trkpt>
      <trkpt lat="38.1634466909" lon="-6.4419519994">
        <ele>593.27</ele>
        <time>2021-05-30T07:54:19Z</time>
      </trkpt>
      <trkpt lat="38.1637297478" lon="-6.4415557031">
        <ele>589.43</ele>
        <time>2021-05-30T07:54:21Z</time>
      </trkpt>
      <trkpt lat="38.1640729029" lon="-6.4409662038">
        <ele>586.54</ele>
        <time>2021-05-30T07:54:24Z</time>
      </trkpt>
      <trkpt lat="38.1642274652" lon="-6.4405717514">
        <ele>581.73</ele>
        <time>2021-05-30T07:54:26Z</time>
      </trkpt>
      <trkpt lat="38.1643199176" lon="-6.4403980784">
        <ele>580.29</ele>
        <time>2021-05-30T07:54:27Z</time>
      </trkpt>
      <trkpt lat="38.1644381024" lon="-6.4402486291">
        <ele>578.85</ele>
        <time>2021-05-30T07:54:28Z</time>
      </trkpt>
      <trkpt lat="38.1645851210" lon="-6.4401229843">
        <ele>578.37</ele>
        <time>2021-05-30T07:54:29Z</time>
      </trkpt>
      <trkpt lat="38.1647456344" lon="-6.4400275145">
        <ele>576.93</ele>
        <time>2021-05-30T07:54:30Z</time>
      </trkpt>
      <trkpt lat="38.1649075728" lon="-6.4399709366">
        <ele>575.01</ele>
        <time>2021-05-30T07:54:31Z</time>
      </trkpt>
      <trkpt lat="38.1650715228" lon="-6.4399641473">
        <ele>573.08</ele>
        <time>2021-05-30T07:54:32Z</time>
      </trkpt>
      <trkpt lat="38.1652292702" lon="-6.4399886224">
        <ele>571.16</ele>
        <time>2021-05-30T07:54:33Z</time>
      </trkpt>
      <trkpt lat="38.1653798092" lon="-6.4400100801">
        <ele>570.20</ele>
        <time>2021-05-30T07:54:34Z</time>
      </trkpt>
      <trkpt lat="38.1655269954" lon="-6.4399954118">
        <ele>568.76</ele>
        <time>2021-05-30T07:54:35Z</time>
      </trkpt>
      <trkpt lat="38.1656729244" lon="-6.4399391692">
        <ele>568.28</ele>
        <time>2021-05-30T07:54:36Z</time>
      </trkpt>
      <trkpt lat="38.1658095494" lon="-6.4398405980">
        <ele>566.35</ele>
        <time>2021-05-30T07:54:37Z</time>
      </trkpt>
      <trkpt lat="38.1659309193" lon="-6.4397126902">
        <ele>566.35</ele>
        <time>2021-05-30T07:54:38Z</time>
      </trkpt>
      <trkpt lat="38.1660537980" lon="-6.4396003727">
        <ele>565.39</ele>
        <time>2021-05-30T07:54:39Z</time>
      </trkpt>
      <trkpt lat="38.1662031636" lon="-6.4395251032">
        <ele>564.91</ele>
        <time>2021-05-30T07:54:40Z</time>
      </trkpt>
      <trkpt lat="38.1663777586" lon="-6.4394812658">
        <ele>563.95</ele>
        <time>2021-05-30T07:54:41Z</time>
      </trkpt>
      <trkpt lat="38.1665701233" lon="-6.4394492470">
        <ele>564.91</ele>
        <time>2021-05-30T07:54:42Z</time>
      </trkpt>
      <trkpt lat="38.1676171068" lon="-6.4391901623">
        <ele>561.07</ele>
        <time>2021-05-30T07:54:47Z</time>
      </trkpt>
      <trkpt lat="38.1680094637" lon="-6.4390392881">
        <ele>556.26</ele>
        <time>2021-05-30T07:54:49Z</time>
      </trkpt>
      <trkpt lat="38.1683824584" lon="-6.4389007352">
        <ele>554.82</ele>
        <time>2021-05-30T07:54:51Z</time>
      </trkpt>
      <trkpt lat="38.1685688719" lon="-6.4388095401">
        <ele>554.34</ele>
        <time>2021-05-30T07:54:52Z</time>
      </trkpt>
      <trkpt lat="38.1687458977" lon="-6.4386973064">
        <ele>552.90</ele>
        <time>2021-05-30T07:54:53Z</time>
      </trkpt>
      <trkpt lat="38.1689074170" lon="-6.4385694824">
        <ele>550.97</ele>
        <time>2021-05-30T07:54:54Z</time>
      </trkpt>
      <trkpt lat="38.1690569501" lon="-6.4384255651">
        <ele>550.01</ele>
        <time>2021-05-30T07:54:55Z</time>
      </trkpt>
      <trkpt lat="38.1691944133" lon="-6.4382600226">
        <ele>548.09</ele>
        <time>2021-05-30T07:54:56Z</time>
      </trkpt>
      <trkpt lat="38.1693103351" lon="-6.4380739443">
        <ele>547.13</ele>
        <time>2021-05-30T07:54:57Z</time>
      </trkpt>
      <trkpt lat="38.1694034580" lon="-6.4378695935">
        <ele>546.65</ele>
        <time>2021-05-30T07:54:58Z</time>
      </trkpt>
      <trkpt lat="38.1694783922" lon="-6.4376466349">
        <ele>544.72</ele>
        <time>2021-05-30T07:54:59Z</time>
      </trkpt>
      <trkpt lat="38.1695378199" lon="-6.4374069124">
        <ele>543.76</ele>
        <time>2021-05-30T07:55:00Z</time>
      </trkpt>
      <trkpt lat="38.1695831660" lon="-6.4371510968">
        <ele>541.84</ele>
        <time>2021-05-30T07:55:01Z</time>
      </trkpt>
      <trkpt lat="38.1696182862" lon="-6.4368868992">
        <ele>540.40</ele>
        <time>2021-05-30T07:55:02Z</time>
      </trkpt>
      <trkpt lat="38.1696858443" lon="-6.4363885112">
        <ele>536.55</ele>
        <time>2021-05-30T07:55:04Z</time>
      </trkpt>
      <trkpt lat="38.1697285920" lon="-6.4361690730">
        <ele>534.15</ele>
        <time>2021-05-30T07:55:05Z</time>
      </trkpt>
      <trkpt lat="38.1697937194" lon="-6.4359751996">
        <ele>531.27</ele>
        <time>2021-05-30T07:55:06Z</time>
      </trkpt>
      <trkpt lat="38.1698882673" lon="-6.4358176198">
        <ele>529.82</ele>
        <time>2021-05-30T07:55:07Z</time>
      </trkpt>
      <trkpt lat="38.1700102240" lon="-6.4356996026">
        <ele>528.38</ele>
        <time>2021-05-30T07:55:08Z</time>
      </trkpt>
      <trkpt lat="38.1701489445" lon="-6.4356219023">
        <ele>527.42</ele>
        <time>2021-05-30T07:55:09Z</time>
      </trkpt>
      <trkpt lat="38.1702844799" lon="-6.4355680067">
        <ele>525.50</ele>
        <time>2021-05-30T07:55:10Z</time>
      </trkpt>
      <trkpt lat="38.1704019941" lon="-6.4355034661">
        <ele>524.06</ele>
        <time>2021-05-30T07:55:11Z</time>
      </trkpt>
      <trkpt lat="38.1705001462" lon="-6.4353995305">
        <ele>523.09</ele>
        <time>2021-05-30T07:55:12Z</time>
      </trkpt>
      <trkpt lat="38.1705797743" lon="-6.4352496620">
        <ele>523.58</ele>
        <time>2021-05-30T07:55:13Z</time>
      </trkpt>
      <trkpt lat="38.1706362683" lon="-6.4350623265">
        <ele>523.09</ele>
        <time>2021-05-30T07:55:14Z</time>
      </trkpt>
      <trkpt lat="38.1706796866" lon="-6.4348539524">
        <ele>522.61</ele>
        <time>2021-05-30T07:55:15Z</time>
      </trkpt>
      <trkpt lat="38.1709092669" lon="-6.4335789811">
        <ele>519.25</ele>
        <time>2021-05-30T07:55:20Z</time>
      </trkpt>
      <trkpt lat="38.1709562056" lon="-6.4330077544">
        <ele>517.81</ele>
        <time>2021-05-30T07:55:22Z</time>
      </trkpt>
      <trkpt lat="38.1709558703" lon="-6.4324506931">
        <ele>513.00</ele>
        <time>2021-05-30T07:55:24Z</time>
      </trkpt>
      <trkpt lat="38.1709447224" lon="-6.4316541608">
        <ele>508.19</ele>
        <time>2021-05-30T07:55:27Z</time>
      </trkpt>
      <trkpt lat="38.1708951853" lon="-6.4311748836">
        <ele>503.87</ele>
        <time>2021-05-30T07:55:29Z</time>
      </trkpt>
      <trkpt lat="38.1708306447" lon="-6.4309555292">
        <ele>502.43</ele>
        <time>2021-05-30T07:55:30Z</time>
      </trkpt>
      <trkpt lat="38.1707414612" lon="-6.4307532739">
        <ele>500.50</ele>
        <time>2021-05-30T07:55:31Z</time>
      </trkpt>
      <trkpt lat="38.1705586519" lon="-6.4303581510">
        <ele>497.14</ele>
        <time>2021-05-30T07:55:33Z</time>
      </trkpt>
      <trkpt lat="38.1705100369" lon="-6.4301325940">
        <ele>498.58</ele>
        <time>2021-05-30T07:55:34Z</time>
      </trkpt>
      <trkpt lat="38.1704924349" lon="-6.4298860822">
        <ele>498.58</ele>
        <time>2021-05-30T07:55:35Z</time>
      </trkpt>
      <trkpt lat="38.1704924349" lon="-6.4293364808">
        <ele>500.02</ele>
        <time>2021-05-30T07:55:37Z</time>
      </trkpt>
      <trkpt lat="38.1704819575" lon="-6.4287722949">
        <ele>496.18</ele>
        <time>2021-05-30T07:55:39Z</time>
      </trkpt>
      <trkpt lat="38.1704691332" lon="-6.4282540418">
        <ele>492.81</ele>
        <time>2021-05-30T07:55:41Z</time>
      </trkpt>
      <trkpt lat="38.1704632659" lon="-6.4280202705">
        <ele>489.45</ele>
        <time>2021-05-30T07:55:42Z</time>
      </trkpt>
      <trkpt lat="38.1704779342" lon="-6.4276250638">
        <ele>485.12</ele>
        <time>2021-05-30T07:55:44Z</time>
      </trkpt>
      <trkpt lat="38.1705234479" lon="-6.4274674840">
        <ele>482.72</ele>
        <time>2021-05-30T07:55:45Z</time>
      </trkpt>
      <trkpt lat="38.1705988012" lon="-6.4273422584">
        <ele>482.24</ele>
        <time>2021-05-30T07:55:46Z</time>
      </trkpt>
      <trkpt lat="38.1707017310" lon="-6.4272580203">
        <ele>481.28</ele>
        <time>2021-05-30T07:55:47Z</time>
      </trkpt>
      <trkpt lat="38.1708339974" lon="-6.4272169489">
        <ele>481.76</ele>
        <time>2021-05-30T07:55:48Z</time>
      </trkpt>
      <trkpt lat="38.1709928345" lon="-6.4272133447">
        <ele>483.20</ele>
        <time>2021-05-30T07:55:49Z</time>
      </trkpt>
      <trkpt lat="38.1711704470" lon="-6.4272317849">
        <ele>484.64</ele>
        <time>2021-05-30T07:55:50Z</time>
      </trkpt>
      <trkpt lat="38.1715561822" lon="-6.4273045398">
        <ele>485.60</ele>
        <time>2021-05-30T07:55:52Z</time>
      </trkpt>
      <trkpt lat="38.1717487983" lon="-6.4273715112">
        <ele>485.12</ele>
        <time>2021-05-30T07:55:53Z</time>
      </trkpt>
      <trkpt lat="38.1722528860" lon="-6.4276000019">
        <ele>482.72</ele>
        <time>2021-05-30T07:55:56Z</time>
      </trkpt>
      <trkpt lat="38.1729166489" lon="-6.4277080446">
        <ele>480.80</ele>
        <time>2021-05-30T07:56:00Z</time>
      </trkpt>
      <trkpt lat="38.1730535254" lon="-6.4276713319">
        <ele>480.32</ele>
        <time>2021-05-30T07:56:01Z</time>
      </trkpt>
      <trkpt lat="38.1731815170" lon="-6.4275887702">
        <ele>481.28</ele>
        <time>2021-05-30T07:56:02Z</time>
      </trkpt>
      <trkpt lat="38.1733043958" lon="-6.4274680708">
        <ele>481.76</ele>
        <time>2021-05-30T07:56:03Z</time>
      </trkpt>
      <trkpt lat="38.1734219939" lon="-6.4273074735">
        <ele>482.72</ele>
        <time>2021-05-30T07:56:04Z</time>
      </trkpt>
      <trkpt lat="38.1735347304" lon="-6.4271110017">
        <ele>483.20</ele>
        <time>2021-05-30T07:56:05Z</time>
      </trkpt>
      <trkpt lat="38.1736395042" lon="-6.4268957544">
        <ele>482.72</ele>
        <time>2021-05-30T07:56:06Z</time>
      </trkpt>
      <trkpt lat="38.1742782891" lon="-6.4254275803">
        <ele>477.91</ele>
        <time>2021-05-30T07:56:12Z</time>
      </trkpt>
      <trkpt lat="38.1745600048" lon="-6.4247933216">
        <ele>473.11</ele>
        <time>2021-05-30T07:56:15Z</time>
      </trkpt>
      <trkpt lat="38.1746682990" lon="-6.4246311318">
        <ele>471.18</ele>
        <time>2021-05-30T07:56:16Z</time>
      </trkpt>
      <trkpt lat="38.1747984700" lon="-6.4245001227">
        <ele>470.22</ele>
        <time>2021-05-30T07:56:17Z</time>
      </trkpt>
      <trkpt lat="38.1749564689" lon="-6.4243996236">
        <ele>470.22</ele>
        <time>2021-05-30T07:56:18Z</time>
      </trkpt>
      <trkpt lat="38.1751298904" lon="-6.4243226778">
        <ele>469.74</ele>
        <time>2021-05-30T07:56:19Z</time>
      </trkpt>
      <trkpt lat="38.1753008813" lon="-6.4242521860">
        <ele>468.30</ele>
        <time>2021-05-30T07:56:20Z</time>
      </trkpt>
      <trkpt lat="38.1754567008" lon="-6.4241752401">
        <ele>465.90</ele>
        <time>2021-05-30T07:56:21Z</time>
      </trkpt>
      <trkpt lat="38.1755927391" lon="-6.4240788482">
        <ele>463.01</ele>
        <time>2021-05-30T07:56:22Z</time>
      </trkpt>
      <trkpt lat="38.1757053081" lon="-6.4239544608">
        <ele>461.09</ele>
        <time>2021-05-30T07:56:23Z</time>
      </trkpt>
      <trkpt lat="38.1757871155" lon="-6.4237952884">
        <ele>461.09</ele>
        <time>2021-05-30T07:56:24Z</time>
      </trkpt>
      <trkpt lat="38.1758430228" lon="-6.4236082043">
        <ele>461.09</ele>
        <time>2021-05-30T07:56:25Z</time>
      </trkpt>
      <trkpt lat="38.1758773886" lon="-6.4234040212">
        <ele>462.05</ele>
        <time>2021-05-30T07:56:26Z</time>
      </trkpt>
      <trkpt lat="38.1759027857" lon="-6.4231943060">
        <ele>462.05</ele>
        <time>2021-05-30T07:56:27Z</time>
      </trkpt>
      <trkpt lat="38.1759379059" lon="-6.4229960740">
        <ele>460.61</ele>
        <time>2021-05-30T07:56:28Z</time>
      </trkpt>
      <trkpt lat="38.1759955734" lon="-6.4228192158">
        <ele>460.61</ele>
        <time>2021-05-30T07:56:29Z</time>
      </trkpt>
      <trkpt lat="38.1760849245" lon="-6.4226592891">
        <ele>461.57</ele>
        <time>2021-05-30T07:56:30Z</time>
      </trkpt>
      <trkpt lat="38.1764530577" lon="-6.4221233502">
        <ele>465.90</ele>
        <time>2021-05-30T07:56:33Z</time>
      </trkpt>
      <trkpt lat="38.1765704043" lon="-6.4219195023">
        <ele>464.93</ele>
        <time>2021-05-30T07:56:34Z</time>
      </trkpt>
      <trkpt lat="38.1770861428" lon="-6.4211233892">
        <ele>466.86</ele>
        <time>2021-05-30T07:56:38Z</time>
      </trkpt>
      <trkpt lat="38.1775958464" lon="-6.4203416929">
        <ele>468.30</ele>
        <time>2021-05-30T07:56:42Z</time>
      </trkpt>
      <trkpt lat="38.1776806712" lon="-6.4201220870">
        <ele>469.26</ele>
        <time>2021-05-30T07:56:43Z</time>
      </trkpt>
      <trkpt lat="38.1777475588" lon="-6.4198871423">
        <ele>471.66</ele>
        <time>2021-05-30T07:56:44Z</time>
      </trkpt>
      <trkpt lat="38.1778050587" lon="-6.4196397923">
        <ele>472.63</ele>
        <time>2021-05-30T07:56:45Z</time>
      </trkpt>
      <trkpt lat="38.1778506562" lon="-6.4193815459">
        <ele>474.55</ele>
        <time>2021-05-30T07:56:46Z</time>
      </trkpt>
      <trkpt lat="38.1778869499" lon="-6.4191224612">
        <ele>475.99</ele>
        <time>2021-05-30T07:56:47Z</time>
      </trkpt>
      <trkpt lat="38.1779169571" lon="-6.4188694116">
        <ele>475.51</ele>
        <time>2021-05-30T07:56:48Z</time>
      </trkpt>
      <trkpt lat="38.1780291069" lon="-6.4181897230">
        <ele>477.91</ele>
        <time>2021-05-30T07:56:51Z</time>
      </trkpt>
      <trkpt lat="38.1781099085" lon="-6.4179671835">
        <ele>479.35</ele>
        <time>2021-05-30T07:56:52Z</time>
      </trkpt>
      <trkpt lat="38.1783067156" lon="-6.4175335038">
        <ele>480.80</ele>
        <time>2021-05-30T07:56:54Z</time>
      </trkpt>
      <trkpt lat="38.1784073822" lon="-6.4173480961">
        <ele>480.80</ele>
        <time>2021-05-30T07:56:55Z</time>
      </trkpt>
      <trkpt lat="38.1785242260" lon="-6.4171924442">
        <ele>482.24</ele>
        <time>2021-05-30T07:56:56Z</time>
      </trkpt>
      <trkpt lat="38.1786717474" lon="-6.4170701522">
        <ele>484.16</ele>
        <time>2021-05-30T07:56:57Z</time>
      </trkpt>
      <trkpt lat="38.1788488571" lon="-6.4169672225">
        <ele>487.05</ele>
        <time>2021-05-30T07:56:58Z</time>
      </trkpt>
      <trkpt lat="38.1790384557" lon="-6.4168621134">
        <ele>488.97</ele>
        <time>2021-05-30T07:56:59Z</time>
      </trkpt>
      <trkpt lat="38.1794331595" lon="-6.4166396577">
        <ele>492.33</ele>
        <time>2021-05-30T07:57:01Z</time>
      </trkpt>
      <trkpt lat="38.1798351556" lon="-6.4164056350">
        <ele>496.18</ele>
        <time>2021-05-30T07:57:03Z</time>
      </trkpt>
      <trkpt lat="38.1800148636" lon="-6.4162660763">
        <ele>495.70</ele>
        <time>2021-05-30T07:57:04Z</time>
      </trkpt>
      <trkpt lat="38.1801809091" lon="-6.4160978515">
        <ele>495.70</ele>
        <time>2021-05-30T07:57:05Z</time>
      </trkpt>
      <trkpt lat="38.1804940570" lon="-6.4157068357">
        <ele>500.98</ele>
        <time>2021-05-30T07:57:07Z</time>
      </trkpt>
      <trkpt lat="38.1808279082" lon="-6.4153259620">
        <ele>503.87</ele>
        <time>2021-05-30T07:57:09Z</time>
      </trkpt>
      <trkpt lat="38.1811781880" lon="-6.4149754308">
        <ele>506.27</ele>
        <time>2021-05-30T07:57:11Z</time>
      </trkpt>
      <trkpt lat="38.1815431360" lon="-6.4146231394">
        <ele>507.71</ele>
        <time>2021-05-30T07:57:13Z</time>
      </trkpt>
      <trkpt lat="38.1822680030" lon="-6.4139349014">
        <ele>511.08</ele>
        <time>2021-05-30T07:57:17Z</time>
      </trkpt>
      <trkpt lat="38.1831717398" lon="-6.4131609164">
        <ele>517.33</ele>
        <time>2021-05-30T07:57:22Z</time>
      </trkpt>
      <trkpt lat="38.1833609194" lon="-6.4130623452">
        <ele>516.37</ele>
        <time>2021-05-30T07:57:23Z</time>
      </trkpt>
      <trkpt lat="38.1836911663" lon="-6.4128825534">
        <ele>517.81</ele>
        <time>2021-05-30T07:57:25Z</time>
      </trkpt>
      <trkpt lat="38.1838257797" lon="-6.4127680566">
        <ele>517.81</ele>
        <time>2021-05-30T07:57:26Z</time>
      </trkpt>
      <trkpt lat="38.1839463115" lon="-6.4126240555">
        <ele>519.25</ele>
        <time>2021-05-30T07:57:27Z</time>
      </trkpt>
      <trkpt lat="38.1840493251" lon="-6.4124583453">
        <ele>520.69</ele>
        <time>2021-05-30T07:57:28Z</time>
      </trkpt>
      <trkpt lat="38.1841435377" lon="-6.4122753683">
        <ele>523.58</ele>
        <time>2021-05-30T07:57:29Z</time>
      </trkpt>
      <trkpt lat="38.1842417736" lon="-6.4120778069">
        <ele>525.02</ele>
        <time>2021-05-30T07:57:30Z</time>
      </trkpt>
      <trkpt lat="38.1844802387" lon="-6.4116692729">
        <ele>529.34</ele>
        <time>2021-05-30T07:57:32Z</time>
      </trkpt>
      <trkpt lat="38.1847740244" lon="-6.4112886507">
        <ele>533.19</ele>
        <time>2021-05-30T07:57:34Z</time>
      </trkpt>
      <trkpt lat="38.1850406528" lon="-6.4109164104">
        <ele>534.15</ele>
        <time>2021-05-30T07:57:36Z</time>
      </trkpt>
      <trkpt lat="38.1855199300" lon="-6.4100415073">
        <ele>530.30</ele>
        <time>2021-05-30T07:57:40Z</time>
      </trkpt>
      <trkpt lat="38.1856537051" lon="-6.4098529145">
        <ele>528.86</ele>
        <time>2021-05-30T07:57:41Z</time>
      </trkpt>
      <trkpt lat="38.1858061720" lon="-6.4097012859">
        <ele>527.90</ele>
        <time>2021-05-30T07:57:42Z</time>
      </trkpt>
      <trkpt lat="38.1859835330" lon="-6.4095788263">
        <ele>529.34</ele>
        <time>2021-05-30T07:57:43Z</time>
      </trkpt>
      <trkpt lat="38.1866079848" lon="-6.4092339110">
        <ele>532.23</ele>
        <time>2021-05-30T07:57:46Z</time>
      </trkpt>
      <trkpt lat="38.1870476995" lon="-6.4090234414">
        <ele>529.82</ele>
        <time>2021-05-30T07:57:48Z</time>
      </trkpt>
      <trkpt lat="38.1872769445" lon="-6.4089523628">
        <ele>529.82</ele>
        <time>2021-05-30T07:57:49Z</time>
      </trkpt>
      <trkpt lat="38.1879892386" lon="-6.4088025782">
        <ele>526.46</ele>
        <time>2021-05-30T07:57:52Z</time>
      </trkpt>
      <trkpt lat="38.1896190997" lon="-6.4084764384">
        <ele>522.61</ele>
        <time>2021-05-30T07:57:59Z</time>
      </trkpt>
      <trkpt lat="38.1898200139" lon="-6.4084523823">
        <ele>521.17</ele>
        <time>2021-05-30T07:58:00Z</time>
      </trkpt>
      <trkpt lat="38.1900078524" lon="-6.4084569924">
        <ele>519.25</ele>
        <time>2021-05-30T07:58:01Z</time>
      </trkpt>
      <trkpt lat="38.1901873928" lon="-6.4084926154">
        <ele>519.73</ele>
        <time>2021-05-30T07:58:02Z</time>
      </trkpt>
      <trkpt lat="38.1905541848" lon="-6.4085913543">
        <ele>523.09</ele>
        <time>2021-05-30T07:58:04Z</time>
      </trkpt>
      <trkpt lat="38.1907497346" lon="-6.4086057711">
        <ele>524.06</ele>
        <time>2021-05-30T07:58:05Z</time>
      </trkpt>
      <trkpt lat="38.1909491401" lon="-6.4085936174">
        <ele>525.50</ele>
        <time>2021-05-30T07:58:06Z</time>
      </trkpt>
      <trkpt lat="38.1911402475" lon="-6.4085590839">
        <ele>525.98</ele>
        <time>2021-05-30T07:58:07Z</time>
      </trkpt>
      <trkpt lat="38.1913187820" lon="-6.4084933698">
        <ele>525.98</ele>
        <time>2021-05-30T07:58:08Z</time>
      </trkpt>
      <trkpt lat="38.1914882641" lon="-6.4083902724">
        <ele>527.42</ele>
        <time>2021-05-30T07:58:09Z</time>
      </trkpt>
      <trkpt lat="38.1916516274" lon="-6.4082521386">
        <ele>528.86</ele>
        <time>2021-05-30T07:58:10Z</time>
      </trkpt>
      <trkpt lat="38.1918145716" lon="-6.4080922119">
        <ele>529.82</ele>
        <time>2021-05-30T07:58:11Z</time>
      </trkpt>
      <trkpt lat="38.1919833831" lon="-6.4079225622">
        <ele>533.19</ele>
        <time>2021-05-30T07:58:12Z</time>
      </trkpt>
      <trkpt lat="38.1921585649" lon="-6.4077488054">
        <ele>533.19</ele>
        <time>2021-05-30T07:58:13Z</time>
      </trkpt>
      <trkpt lat="38.1928640697" lon="-6.4071044046">
        <ele>536.07</ele>
        <time>2021-05-30T07:58:17Z</time>
      </trkpt>
      <trkpt lat="38.1930628046" lon="-6.4069870580">
        <ele>536.55</ele>
        <time>2021-05-30T07:58:18Z</time>
      </trkpt>
      <trkpt lat="38.1932725199" lon="-6.4068909176">
        <ele>536.55</ele>
        <time>2021-05-30T07:58:19Z</time>
      </trkpt>
      <trkpt lat="38.1945717148" lon="-6.4063539729">
        <ele>539.92</ele>
        <time>2021-05-30T07:58:25Z</time>
      </trkpt>
      <trkpt lat="38.1951386668" lon="-6.4061119873">
        <ele>536.55</ele>
        <time>2021-05-30T07:58:28Z</time>
      </trkpt>
      <trkpt lat="38.1953050476" lon="-6.4060191996">
        <ele>537.51</ele>
        <time>2021-05-30T07:58:29Z</time>
      </trkpt>
      <trkpt lat="38.1954602804" lon="-6.4059026912">
        <ele>537.99</ele>
        <time>2021-05-30T07:58:30Z</time>
      </trkpt>
      <trkpt lat="38.1956031919" lon="-6.4057516493">
        <ele>538.96</ele>
        <time>2021-05-30T07:58:31Z</time>
      </trkpt>
      <trkpt lat="38.1957294233" lon="-6.4055667445">
        <ele>538.96</ele>
        <time>2021-05-30T07:58:32Z</time>
      </trkpt>
      <trkpt lat="38.1958476081" lon="-6.4053582866">
        <ele>539.92</ele>
        <time>2021-05-30T07:58:33Z</time>
      </trkpt>
      <trkpt lat="38.1962259673" lon="-6.4046699647">
        <ele>545.69</ele>
        <time>2021-05-30T07:58:36Z</time>
      </trkpt>
      <trkpt lat="38.1964941882" lon="-6.4041865803">
        <ele>547.61</ele>
        <time>2021-05-30T07:58:38Z</time>
      </trkpt>
      <trkpt lat="38.1967596430" lon="-6.4037111588">
        <ele>551.93</ele>
        <time>2021-05-30T07:58:40Z</time>
      </trkpt>
      <trkpt lat="38.1968914904" lon="-6.4034768008">
        <ele>550.49</ele>
        <time>2021-05-30T07:58:41Z</time>
      </trkpt>
      <trkpt lat="38.1974125095" lon="-6.4025640953">
        <ele>555.30</ele>
        <time>2021-05-30T07:58:45Z</time>
      </trkpt>
      <trkpt lat="38.1975467876" lon="-6.4023263846">
        <ele>555.30</ele>
        <time>2021-05-30T07:58:46Z</time>
      </trkpt>
      <trkpt lat="38.1982017495" lon="-6.4011704363">
        <ele>551.93</ele>
        <time>2021-05-30T07:58:51Z</time>
      </trkpt>
      <trkpt lat="38.1983340159" lon="-6.4009447116">
        <ele>551.45</ele>
        <time>2021-05-30T07:58:52Z</time>
      </trkpt>
      <trkpt lat="38.1987469085" lon="-6.4002242871">
        <ele>546.17</ele>
        <time>2021-05-30T07:58:55Z</time>
      </trkpt>
      <trkpt lat="38.1990135368" lon="-6.3997492008">
        <ele>545.20</ele>
        <time>2021-05-30T07:58:57Z</time>
      </trkpt>
      <trkpt lat="38.1996988412" lon="-6.3985343277">
        <ele>549.05</ele>
        <time>2021-05-30T07:59:02Z</time>
      </trkpt>
      <trkpt lat="38.2003791165" lon="-6.3973380625">
        <ele>550.97</ele>
        <time>2021-05-30T07:59:07Z</time>
      </trkpt>
      <trkpt lat="38.2007582299" lon="-6.3966773171">
        <ele>552.41</ele>
        <time>2021-05-30T07:59:10Z</time>
      </trkpt>
      <trkpt lat="38.2009777520" lon="-6.3963015564">
        <ele>551.93</ele>
        <time>2021-05-30T07:59:12Z</time>
      </trkpt>
      <trkpt lat="38.2010940090" lon="-6.3961458206">
        <ele>552.90</ele>
        <time>2021-05-30T07:59:13Z</time>
      </trkpt>
      <trkpt lat="38.2012317237" lon="-6.3960241992">
        <ele>554.34</ele>
        <time>2021-05-30T07:59:14Z</time>
      </trkpt>
      <trkpt lat="38.2013862859" lon="-6.3959420566">
        <ele>555.78</ele>
        <time>2021-05-30T07:59:15Z</time>
      </trkpt>
      <trkpt lat="38.2016765513" lon="-6.3958298229">
        <ele>556.26</ele>
        <time>2021-05-30T07:59:17Z</time>
      </trkpt>
      <trkpt lat="38.2017960772" lon="-6.3957537152">
        <ele>555.30</ele>
        <time>2021-05-30T07:59:18Z</time>
      </trkpt>
      <trkpt lat="38.2018971629" lon="-6.3956426550">
        <ele>554.82</ele>
        <time>2021-05-30T07:59:19Z</time>
      </trkpt>
      <trkpt lat="38.2019834127" lon="-6.3954893500">
        <ele>555.30</ele>
        <time>2021-05-30T07:59:20Z</time>
      </trkpt>
      <trkpt lat="38.2020632923" lon="-6.3953053672">
        <ele>557.70</ele>
        <time>2021-05-30T07:59:21Z</time>
      </trkpt>
      <trkpt lat="38.2021327782" lon="-6.3951104041">
        <ele>558.18</ele>
        <time>2021-05-30T07:59:22Z</time>
      </trkpt>
      <trkpt lat="38.2021843269" lon="-6.3949172851">
        <ele>557.22</ele>
        <time>2021-05-30T07:59:23Z</time>
      </trkpt>
      <trkpt lat="38.2022057846" lon="-6.3947217353">
        <ele>556.26</ele>
        <time>2021-05-30T07:59:24Z</time>
      </trkpt>
      <trkpt lat="38.2021936309" lon="-6.3945157081">
        <ele>555.78</ele>
        <time>2021-05-30T07:59:25Z</time>
      </trkpt>
      <trkpt lat="38.2021496259" lon="-6.3942973595">
        <ele>556.74</ele>
        <time>2021-05-30T07:59:26Z</time>
      </trkpt>
      <trkpt lat="38.2020840794" lon="-6.3940655161">
        <ele>558.18</ele>
        <time>2021-05-30T07:59:27Z</time>
      </trkpt>
      <trkpt lat="38.2020144258" lon="-6.3938322477">
        <ele>557.22</ele>
        <time>2021-05-30T07:59:28Z</time>
      </trkpt>
      <trkpt lat="38.2019212190" lon="-6.3933919463">
        <ele>554.34</ele>
        <time>2021-05-30T07:59:30Z</time>
      </trkpt>
      <trkpt lat="38.2019275893" lon="-6.3931720052">
        <ele>554.82</ele>
        <time>2021-05-30T07:59:31Z</time>
      </trkpt>
      <trkpt lat="38.2019736059" lon="-6.3929538243">
        <ele>556.26</ele>
        <time>2021-05-30T07:59:32Z</time>
      </trkpt>
      <trkpt lat="38.2020470314" lon="-6.3927362300">
        <ele>558.18</ele>
        <time>2021-05-30T07:59:33Z</time>
      </trkpt>
      <trkpt lat="38.2021160983" lon="-6.3925157860">
        <ele>559.14</ele>
        <time>2021-05-30T07:59:34Z</time>
      </trkpt>
      <trkpt lat="38.2021627016" lon="-6.3922857866">
        <ele>560.59</ele>
        <time>2021-05-30T07:59:35Z</time>
      </trkpt>
      <trkpt lat="38.2021829858" lon="-6.3920459803">
        <ele>562.99</ele>
        <time>2021-05-30T07:59:36Z</time>
      </trkpt>
      <trkpt lat="38.2021882664" lon="-6.3918126281">
        <ele>562.51</ele>
        <time>2021-05-30T07:59:37Z</time>
      </trkpt>
      <trkpt lat="38.2022085506" lon="-6.3915832154">
        <ele>564.91</ele>
        <time>2021-05-30T07:59:38Z</time>
      </trkpt>
      <trkpt lat="38.2022647094" lon="-6.3913527131">
        <ele>566.83</ele>
        <time>2021-05-30T07:59:39Z</time>
      </trkpt>
      <trkpt lat="38.2023476902" lon="-6.3911301736">
        <ele>568.76</ele>
        <time>2021-05-30T07:59:40Z</time>
      </trkpt>
      <trkpt lat="38.2024282403" lon="-6.3909063768">
        <ele>568.28</ele>
        <time>2021-05-30T07:59:41Z</time>
      </trkpt>
      <trkpt lat="38.2024825551" lon="-6.3906736951">
        <ele>570.68</ele>
        <time>2021-05-30T07:59:42Z</time>
      </trkpt>
      <trkpt lat="38.2025035936" lon="-6.3904423546">
        <ele>572.60</ele>
        <time>2021-05-30T07:59:43Z</time>
      </trkpt>
      <trkpt lat="38.2025024202" lon="-6.3902172167">
        <ele>573.56</ele>
        <time>2021-05-30T07:59:44Z</time>
      </trkpt>
      <trkpt lat="38.2025004085" lon="-6.3897863869">
        <ele>576.45</ele>
        <time>2021-05-30T07:59:46Z</time>
      </trkpt>
      <trkpt lat="38.2025191840" lon="-6.3895840477">
        <ele>576.45</ele>
        <time>2021-05-30T07:59:47Z</time>
      </trkpt>
      <trkpt lat="38.2025708165" lon="-6.3893862348">
        <ele>576.93</ele>
        <time>2021-05-30T07:59:48Z</time>
      </trkpt>
      <trkpt lat="38.2026548032" lon="-6.3891994022">
        <ele>574.04</ele>
        <time>2021-05-30T07:59:49Z</time>
      </trkpt>
      <trkpt lat="38.2027657796" lon="-6.3890374638">
        <ele>573.56</ele>
        <time>2021-05-30T07:59:50Z</time>
      </trkpt>
      <trkpt lat="38.2029050030" lon="-6.3889061194">
        <ele>574.04</ele>
        <time>2021-05-30T07:59:51Z</time>
      </trkpt>
      <trkpt lat="38.2030643430" lon="-6.3888006750">
        <ele>572.60</ele>
        <time>2021-05-30T07:59:52Z</time>
      </trkpt>
      <trkpt lat="38.2032419555" lon="-6.3887153473">
        <ele>573.56</ele>
        <time>2021-05-30T07:59:53Z</time>
      </trkpt>
      <trkpt lat="38.2034350745" lon="-6.3886295166">
        <ele>573.08</ele>
        <time>2021-05-30T07:59:54Z</time>
      </trkpt>
      <trkpt lat="38.2040150184" lon="-6.3883600384">
        <ele>570.20</ele>
        <time>2021-05-30T07:59:57Z</time>
      </trkpt>
      <trkpt lat="38.2042076346" lon="-6.3882769737">
        <ele>570.20</ele>
        <time>2021-05-30T07:59:58Z</time>
      </trkpt>
      <trkpt lat="38.2045758516" lon="-6.3880673423">
        <ele>569.72</ele>
        <time>2021-05-30T08:00:00Z</time>
      </trkpt>
      <trkpt lat="38.2047373708" lon="-6.3879295439">
        <ele>567.32</ele>
        <time>2021-05-30T08:00:01Z</time>
      </trkpt>
      <trkpt lat="38.2050116267" lon="-6.3876531087">
        <ele>562.51</ele>
        <time>2021-05-30T08:00:03Z</time>
      </trkpt>
      <trkpt lat="38.2051436417" lon="-6.3875710499">
        <ele>561.07</ele>
        <time>2021-05-30T08:00:04Z</time>
      </trkpt>
      <trkpt lat="38.2052850444" lon="-6.3875341695">
        <ele>559.14</ele>
        <time>2021-05-30T08:00:05Z</time>
      </trkpt>
      <trkpt lat="38.2054282073" lon="-6.3875419647">
        <ele>557.70</ele>
        <time>2021-05-30T08:00:06Z</time>
      </trkpt>
      <trkpt lat="38.2055691071" lon="-6.3875963632">
        <ele>556.26</ele>
        <time>2021-05-30T08:00:07Z</time>
      </trkpt>
      <trkpt lat="38.2057124376" lon="-6.3876859657">
        <ele>555.78</ele>
        <time>2021-05-30T08:00:08Z</time>
      </trkpt>
      <trkpt lat="38.2058618870" lon="-6.3877935894">
        <ele>556.26</ele>
        <time>2021-05-30T08:00:09Z</time>
      </trkpt>
      <trkpt lat="38.2064819802" lon="-6.3882362377">
        <ele>552.90</ele>
        <time>2021-05-30T08:00:13Z</time>
      </trkpt>
      <trkpt lat="38.2066313457" lon="-6.3883156981">
        <ele>551.93</ele>
        <time>2021-05-30T08:00:14Z</time>
      </trkpt>
      <trkpt lat="38.2067875005" lon="-6.3883599546">
        <ele>551.45</ele>
        <time>2021-05-30T08:00:15Z</time>
      </trkpt>
      <trkpt lat="38.2069456670" lon="-6.3883580267">
        <ele>550.01</ele>
        <time>2021-05-30T08:00:16Z</time>
      </trkpt>
      <trkpt lat="38.2071029954" lon="-6.3883069810">
        <ele>549.05</ele>
        <time>2021-05-30T08:00:17Z</time>
      </trkpt>
      <trkpt lat="38.2072520256" lon="-6.3882138580">
        <ele>548.57</ele>
        <time>2021-05-30T08:00:18Z</time>
      </trkpt>
      <trkpt lat="38.2073847950" lon="-6.3880831841">
        <ele>548.09</ele>
        <time>2021-05-30T08:00:19Z</time>
      </trkpt>
      <trkpt lat="38.2074924186" lon="-6.3879124448">
        <ele>548.57</ele>
        <time>2021-05-30T08:00:20Z</time>
      </trkpt>
      <trkpt lat="38.2075779978" lon="-6.3877090160">
        <ele>549.05</ele>
        <time>2021-05-30T08:00:21Z</time>
      </trkpt>
      <trkpt lat="38.2076500822" lon="-6.3874854706">
        <ele>550.01</ele>
        <time>2021-05-30T08:00:22Z</time>
      </trkpt>
      <trkpt lat="38.2079688460" lon="-6.3865813147">
        <ele>546.17</ele>
        <time>2021-05-30T08:00:26Z</time>
      </trkpt>
      <trkpt lat="38.2080530003" lon="-6.3863489684">
        <ele>545.69</ele>
        <time>2021-05-30T08:00:27Z</time>
      </trkpt>
      <trkpt lat="38.2084478717" lon="-6.3847244717">
        <ele>545.20</ele>
        <time>2021-05-30T08:00:33Z</time>
      </trkpt>
      <trkpt lat="38.2085631229" lon="-6.3841965795">
        <ele>541.36</ele>
        <time>2021-05-30T08:00:35Z</time>
      </trkpt>
      <trkpt lat="38.2086162642" lon="-6.3839399256">
        <ele>541.36</ele>
        <time>2021-05-30T08:00:36Z</time>
      </trkpt>
      <trkpt lat="38.2092557196" lon="-6.3818535861">
        <ele>538.48</ele>
        <time>2021-05-30T08:00:44Z</time>
      </trkpt>
      <trkpt lat="38.2095595635" lon="-6.3810905814">
        <ele>536.07</ele>
        <time>2021-05-30T08:00:47Z</time>
      </trkpt>
      <trkpt lat="38.2098080032" lon="-6.3802950550">
        <ele>534.63</ele>
        <time>2021-05-30T08:00:50Z</time>
      </trkpt>
      <trkpt lat="38.2098581269" lon="-6.3800145965">
        <ele>534.15</ele>
        <time>2021-05-30T08:00:51Z</time>
      </trkpt>
      <trkpt lat="38.2100970112" lon="-6.3781092223">
        <ele>533.67</ele>
        <time>2021-05-30T08:00:58Z</time>
      </trkpt>
      <trkpt lat="38.2102311216" lon="-6.3769764919">
        <ele>532.71</ele>
        <time>2021-05-30T08:01:03Z</time>
      </trkpt>
      <trkpt lat="38.2102921419" lon="-6.3768020645">
        <ele>532.71</ele>
        <time>2021-05-30T08:01:04Z</time>
      </trkpt>
      <trkpt lat="38.2103833370" lon="-6.3766426407">
        <ele>533.19</ele>
        <time>2021-05-30T08:01:05Z</time>
      </trkpt>
      <trkpt lat="38.2105006836" lon="-6.3764955383">
        <ele>533.67</ele>
        <time>2021-05-30T08:01:06Z</time>
      </trkpt>
      <trkpt lat="38.2106369734" lon="-6.3763496932">
        <ele>536.07</ele>
        <time>2021-05-30T08:01:07Z</time>
      </trkpt>
      <trkpt lat="38.2107796334" lon="-6.3762032613">
        <ele>535.11</ele>
        <time>2021-05-30T08:01:08Z</time>
      </trkpt>
      <trkpt lat="38.2114280574" lon="-6.3755016122">
        <ele>532.71</ele>
        <time>2021-05-30T08:01:13Z</time>
      </trkpt>
      <trkpt lat="38.2115262933" lon="-6.3753288612">
        <ele>532.71</ele>
        <time>2021-05-30T08:01:14Z</time>
      </trkpt>
      <trkpt lat="38.2116060052" lon="-6.3751227502">
        <ele>533.19</ele>
        <time>2021-05-30T08:01:15Z</time>
      </trkpt>
      <trkpt lat="38.2116643433" lon="-6.3749001268">
        <ele>532.23</ele>
        <time>2021-05-30T08:01:16Z</time>
      </trkpt>
      <trkpt lat="38.2117128745" lon="-6.3746684510">
        <ele>532.23</ele>
        <time>2021-05-30T08:01:17Z</time>
      </trkpt>
      <trkpt lat="38.2120530121" lon="-6.3730694354">
        <ele>529.82</ele>
        <time>2021-05-30T08:01:23Z</time>
      </trkpt>
      <trkpt lat="38.2121986058" lon="-6.3725233544">
        <ele>529.34</ele>
        <time>2021-05-30T08:01:25Z</time>
      </trkpt>
      <trkpt lat="38.2122978475" lon="-6.3722535409">
        <ele>528.38</ele>
        <time>2021-05-30T08:01:26Z</time>
      </trkpt>
      <trkpt lat="38.2128385641" lon="-6.3709382527">
        <ele>523.09</ele>
        <time>2021-05-30T08:01:31Z</time>
      </trkpt>
      <trkpt lat="38.2130431663" lon="-6.3704534434">
        <ele>520.21</ele>
        <time>2021-05-30T08:01:33Z</time>
      </trkpt>
      <trkpt lat="38.2131439168" lon="-6.3702183310">
        <ele>520.21</ele>
        <time>2021-05-30T08:01:34Z</time>
      </trkpt>
      <trkpt lat="38.2134973817" lon="-6.3695190288">
        <ele>518.77</ele>
        <time>2021-05-30T08:01:37Z</time>
      </trkpt>
      <trkpt lat="38.2136470824" lon="-6.3693039492">
        <ele>518.29</ele>
        <time>2021-05-30T08:01:38Z</time>
      </trkpt>
      <trkpt lat="38.2138035726" lon="-6.3691089861">
        <ele>516.37</ele>
        <time>2021-05-30T08:01:39Z</time>
      </trkpt>
      <trkpt lat="38.2139640022" lon="-6.3689384144">
        <ele>513.48</ele>
        <time>2021-05-30T08:01:40Z</time>
      </trkpt>
      <trkpt lat="38.2141326461" lon="-6.3687844388">
        <ele>512.04</ele>
        <time>2021-05-30T08:01:41Z</time>
      </trkpt>
      <trkpt lat="38.2152250595" lon="-6.3678401336">
        <ele>508.19</ele>
        <time>2021-05-30T08:01:47Z</time>
      </trkpt>
      <trkpt lat="38.2157563046" lon="-6.3674308453">
        <ele>504.83</ele>
        <time>2021-05-30T08:01:50Z</time>
      </trkpt>
      <trkpt lat="38.2165734563" lon="-6.3668167870">
        <ele>502.43</ele>
        <time>2021-05-30T08:01:55Z</time>
      </trkpt>
      <trkpt lat="38.2168553397" lon="-6.3665666711">
        <ele>501.46</ele>
        <time>2021-05-30T08:01:57Z</time>
      </trkpt>
      <trkpt lat="38.2169704232" lon="-6.3664230891">
        <ele>501.46</ele>
        <time>2021-05-30T08:01:58Z</time>
      </trkpt>
      <trkpt lat="38.2170689944" lon="-6.3662640005">
        <ele>501.95</ele>
        <time>2021-05-30T08:01:59Z</time>
      </trkpt>
      <trkpt lat="38.2171607763" lon="-6.3660889864">
        <ele>502.91</ele>
        <time>2021-05-30T08:02:00Z</time>
      </trkpt>
      <trkpt lat="38.2172516361" lon="-6.3659074344">
        <ele>502.91</ele>
        <time>2021-05-30T08:02:01Z</time>
      </trkpt>
      <trkpt lat="38.2173526380" lon="-6.3657376170">
        <ele>501.95</ele>
        <time>2021-05-30T08:02:02Z</time>
      </trkpt>
      <trkpt lat="38.2174712420" lon="-6.3655997347">
        <ele>501.95</ele>
        <time>2021-05-30T08:02:03Z</time>
      </trkpt>
      <trkpt lat="38.2176133152" lon="-6.3654984813">
        <ele>502.43</ele>
        <time>2021-05-30T08:02:04Z</time>
      </trkpt>
      <trkpt lat="38.2177713141" lon="-6.3654284924">
        <ele>503.39</ele>
        <time>2021-05-30T08:02:05Z</time>
      </trkpt>
      <trkpt lat="38.2179407123" lon="-6.3653744292">
        <ele>503.87</ele>
        <time>2021-05-30T08:02:06Z</time>
      </trkpt>
      <trkpt lat="38.2187044714" lon="-6.3651445974">
        <ele>507.71</ele>
        <time>2021-05-30T08:02:10Z</time>
      </trkpt>
      <trkpt lat="38.2198742498" lon="-6.3647686690">
        <ele>504.83</ele>
        <time>2021-05-30T08:02:16Z</time>
      </trkpt>
      <trkpt lat="38.2200369425" lon="-6.3646954950">
        <ele>501.95</ele>
        <time>2021-05-30T08:02:17Z</time>
      </trkpt>
      <trkpt lat="38.2201775070" lon="-6.3646027073">
        <ele>501.46</ele>
        <time>2021-05-30T08:02:18Z</time>
      </trkpt>
      <trkpt lat="38.2202972006" lon="-6.3644882943">
        <ele>500.98</ele>
        <time>2021-05-30T08:02:19Z</time>
      </trkpt>
      <trkpt lat="38.2204006333" lon="-6.3643536810">
        <ele>501.46</ele>
        <time>2021-05-30T08:02:20Z</time>
      </trkpt>
      <trkpt lat="38.2205010485" lon="-6.3642020524">
        <ele>501.46</ele>
        <time>2021-05-30T08:02:21Z</time>
      </trkpt>
      <trkpt lat="38.2212722674" lon="-6.3630126603">
        <ele>504.83</ele>
        <time>2021-05-30T08:02:28Z</time>
      </trkpt>
      <trkpt lat="38.2214652188" lon="-6.3626720197">
        <ele>502.91</ele>
        <time>2021-05-30T08:02:30Z</time>
      </trkpt>
      <trkpt lat="38.2215155941" lon="-6.3625095785">
        <ele>501.95</ele>
        <time>2021-05-30T08:02:31Z</time>
      </trkpt>
      <trkpt lat="38.2215330284" lon="-6.3623518310">
        <ele>500.98</ele>
        <time>2021-05-30T08:02:32Z</time>
      </trkpt>
      <trkpt lat="38.2215279993" lon="-6.3621939160">
        <ele>499.54</ele>
        <time>2021-05-30T08:02:33Z</time>
      </trkpt>
      <trkpt lat="38.2215091400" lon="-6.3620391861">
        <ele>500.02</ele>
        <time>2021-05-30T08:02:34Z</time>
      </trkpt>
      <trkpt lat="38.2214807253" lon="-6.3617236074">
        <ele>498.10</ele>
        <time>2021-05-30T08:02:36Z</time>
      </trkpt>
      <trkpt lat="38.2214877661" lon="-6.3615451567">
        <ele>498.58</ele>
        <time>2021-05-30T08:02:37Z</time>
      </trkpt>
      <trkpt lat="38.2215250656" lon="-6.3613567315">
        <ele>498.10</ele>
        <time>2021-05-30T08:02:38Z</time>
      </trkpt>
      <trkpt lat="38.2215926237" lon="-6.3611709047">
        <ele>498.10</ele>
        <time>2021-05-30T08:02:39Z</time>
      </trkpt>
      <trkpt lat="38.2216790412" lon="-6.3609834015">
        <ele>500.50</ele>
        <time>2021-05-30T08:02:40Z</time>
      </trkpt>
      <trkpt lat="38.2217767742" lon="-6.3607979938">
        <ele>500.50</ele>
        <time>2021-05-30T08:02:41Z</time>
      </trkpt>
      <trkpt lat="38.2218873315" lon="-6.3606234826">
        <ele>500.98</ele>
        <time>2021-05-30T08:02:42Z</time>
      </trkpt>
      <trkpt lat="38.2220147364" lon="-6.3604743686">
        <ele>500.50</ele>
        <time>2021-05-30T08:02:43Z</time>
      </trkpt>
      <trkpt lat="38.2221624255" lon="-6.3603584468">
        <ele>501.46</ele>
        <time>2021-05-30T08:02:44Z</time>
      </trkpt>
      <trkpt lat="38.2223269623" lon="-6.3602595404">
        <ele>502.43</ele>
        <time>2021-05-30T08:02:45Z</time>
      </trkpt>
      <trkpt lat="38.2225009706" lon="-6.3601615559">
        <ele>503.87</ele>
        <time>2021-05-30T08:02:46Z</time>
      </trkpt>
      <trkpt lat="38.2226790860" lon="-6.3600603864">
        <ele>503.87</ele>
        <time>2021-05-30T08:02:47Z</time>
      </trkpt>
      <trkpt lat="38.2230347302" lon="-6.3598592207">
        <ele>506.27</ele>
        <time>2021-05-30T08:02:49Z</time>
      </trkpt>
      <trkpt lat="38.2235355489" lon="-6.3595731463">
        <ele>508.19</ele>
        <time>2021-05-30T08:02:52Z</time>
      </trkpt>
      <trkpt lat="38.2243494317" lon="-6.3589505386">
        <ele>508.19</ele>
        <time>2021-05-30T08:02:58Z</time>
      </trkpt>
      <trkpt lat="38.2244224381" lon="-6.3588070404">
        <ele>508.19</ele>
        <time>2021-05-30T08:02:59Z</time>
      </trkpt>
      <trkpt lat="38.2244727295" lon="-6.3586381450">
        <ele>508.19</ele>
        <time>2021-05-30T08:03:00Z</time>
      </trkpt>
      <trkpt lat="38.2245058380" lon="-6.3584471215">
        <ele>508.67</ele>
        <time>2021-05-30T08:03:01Z</time>
      </trkpt>
      <trkpt lat="38.2245265413" lon="-6.3582387473">
        <ele>508.67</ele>
        <time>2021-05-30T08:03:02Z</time>
      </trkpt>
      <trkpt lat="38.2245416287" lon="-6.3580174651">
        <ele>508.67</ele>
        <time>2021-05-30T08:03:03Z</time>
      </trkpt>
      <trkpt lat="38.2245953567" lon="-6.3572892454">
        <ele>510.60</ele>
        <time>2021-05-30T08:03:06Z</time>
      </trkpt>
      <trkpt lat="38.2246456482" lon="-6.3567818888">
        <ele>512.04</ele>
        <time>2021-05-30T08:03:08Z</time>
      </trkpt>
      <trkpt lat="38.2246959396" lon="-6.3565295096">
        <ele>512.04</ele>
        <time>2021-05-30T08:03:09Z</time>
      </trkpt>
      <trkpt lat="38.2247702032" lon="-6.3562877756">
        <ele>512.52</ele>
        <time>2021-05-30T08:03:10Z</time>
      </trkpt>
      <trkpt lat="38.2248555310" lon="-6.3560663257">
        <ele>511.08</ele>
        <time>2021-05-30T08:03:11Z</time>
      </trkpt>
      <trkpt lat="38.2250193972" lon="-6.3556676824">
        <ele>509.64</ele>
        <time>2021-05-30T08:03:13Z</time>
      </trkpt>
      <trkpt lat="38.2251376659" lon="-6.3552619983">
        <ele>511.08</ele>
        <time>2021-05-30T08:03:15Z</time>
      </trkpt>
      <trkpt lat="38.2251670863" lon="-6.3550419733">
        <ele>512.52</ele>
        <time>2021-05-30T08:03:16Z</time>
      </trkpt>
      <trkpt lat="38.2251784857" lon="-6.3548123091">
        <ele>512.52</ele>
        <time>2021-05-30T08:03:17Z</time>
      </trkpt>
      <trkpt lat="38.2251358218" lon="-6.3538337220">
        <ele>516.85</ele>
        <time>2021-05-30T08:03:21Z</time>
      </trkpt>
      <trkpt lat="38.2250928227" lon="-6.3535792474">
        <ele>517.81</ele>
        <time>2021-05-30T08:03:22Z</time>
      </trkpt>
      <trkpt lat="38.2248164713" lon="-6.3522622827">
        <ele>515.40</ele>
        <time>2021-05-30T08:03:28Z</time>
      </trkpt>
      <trkpt lat="38.2248285413" lon="-6.3520632125">
        <ele>515.40</ele>
        <time>2021-05-30T08:03:29Z</time>
      </trkpt>
      <trkpt lat="38.2248788327" lon="-6.3518692553">
        <ele>516.37</ele>
        <time>2021-05-30T08:03:30Z</time>
      </trkpt>
      <trkpt lat="38.2249638252" lon="-6.3516811654">
        <ele>517.33</ele>
        <time>2021-05-30T08:03:31Z</time>
      </trkpt>
      <trkpt lat="38.2250649109" lon="-6.3514877949">
        <ele>519.25</ele>
        <time>2021-05-30T08:03:32Z</time>
      </trkpt>
      <trkpt lat="38.2252931502" lon="-6.3510733936">
        <ele>522.13</ele>
        <time>2021-05-30T08:03:34Z</time>
      </trkpt>
      <trkpt lat="38.2255684957" lon="-6.3506580703">
        <ele>525.50</ele>
        <time>2021-05-30T08:03:36Z</time>
      </trkpt>
      <trkpt lat="38.2266086899" lon="-6.3493434526">
        <ele>526.94</ele>
        <time>2021-05-30T08:03:43Z</time>
      </trkpt>
      <trkpt lat="38.2270432077" lon="-6.3487882353">
        <ele>528.38</ele>
        <time>2021-05-30T08:03:46Z</time>
      </trkpt>
      <trkpt lat="38.2271642424" lon="-6.3485889975">
        <ele>528.86</ele>
        <time>2021-05-30T08:03:47Z</time>
      </trkpt>
      <trkpt lat="38.2272662502" lon="-6.3483719900">
        <ele>529.34</ele>
        <time>2021-05-30T08:03:48Z</time>
      </trkpt>
      <trkpt lat="38.2273457106" lon="-6.3481364585">
        <ele>530.79</ele>
        <time>2021-05-30T08:03:49Z</time>
      </trkpt>
      <trkpt lat="38.2274121791" lon="-6.3478896115">
        <ele>532.23</ele>
        <time>2021-05-30T08:03:50Z</time>
      </trkpt>
      <trkpt lat="38.2274758816" lon="-6.3476366457">
        <ele>532.71</ele>
        <time>2021-05-30T08:03:51Z</time>
      </trkpt>
      <trkpt lat="38.2276740298" lon="-6.3468681928">
        <ele>535.59</ele>
        <time>2021-05-30T08:03:54Z</time>
      </trkpt>
      <trkpt lat="38.2278589346" lon="-6.3461217005">
        <ele>539.44</ele>
        <time>2021-05-30T08:03:57Z</time>
      </trkpt>
      <trkpt lat="38.2279812265" lon="-6.3456301857">
        <ele>542.80</ele>
        <time>2021-05-30T08:03:59Z</time>
      </trkpt>
      <trkpt lat="38.2280441746" lon="-6.3453809917">
        <ele>543.28</ele>
        <time>2021-05-30T08:04:00Z</time>
      </trkpt>
      <trkpt lat="38.2281745132" lon="-6.3448699471">
        <ele>546.65</ele>
        <time>2021-05-30T08:04:02Z</time>
      </trkpt>
      <trkpt lat="38.2283056900" lon="-6.3443518616">
        <ele>550.01</ele>
        <time>2021-05-30T08:04:04Z</time>
      </trkpt>
      <trkpt lat="38.2284968812" lon="-6.3435822353">
        <ele>554.34</ele>
        <time>2021-05-30T08:04:07Z</time>
      </trkpt>
      <trkpt lat="38.2287245337" lon="-6.3424966112">
        <ele>557.22</ele>
        <time>2021-05-30T08:04:11Z</time>
      </trkpt>
      <trkpt lat="38.2290087640" lon="-6.3410840929">
        <ele>561.55</ele>
        <time>2021-05-30T08:04:16Z</time>
      </trkpt>
      <trkpt lat="38.2292328961" lon="-6.3399428129">
        <ele>566.35</ele>
        <time>2021-05-30T08:04:20Z</time>
      </trkpt>
      <trkpt lat="38.2293474767" lon="-6.3393755257">
        <ele>567.80</ele>
        <time>2021-05-30T08:04:22Z</time>
      </trkpt>
      <trkpt lat="38.2296755444" lon="-6.3377235364">
        <ele>571.16</ele>
        <time>2021-05-30T08:04:28Z</time>
      </trkpt>
      <trkpt lat="38.2297741994" lon="-6.3372018468">
        <ele>574.53</ele>
        <time>2021-05-30T08:04:30Z</time>
      </trkpt>
      <trkpt lat="38.2299292646" lon="-6.3363902271">
        <ele>577.89</ele>
        <time>2021-05-30T08:04:33Z</time>
      </trkpt>
      <trkpt lat="38.2300408278" lon="-6.3358273823">
        <ele>579.81</ele>
        <time>2021-05-30T08:04:35Z</time>
      </trkpt>
      <trkpt lat="38.2301544864" lon="-6.3352554850">
        <ele>583.66</ele>
        <time>2021-05-30T08:04:37Z</time>
      </trkpt>
      <trkpt lat="38.2302058674" lon="-6.3349777926">
        <ele>583.66</ele>
        <time>2021-05-30T08:04:38Z</time>
      </trkpt>
      <trkpt lat="38.2303828932" lon="-6.3342146203">
        <ele>583.18</ele>
        <time>2021-05-30T08:04:41Z</time>
      </trkpt>
      <trkpt lat="38.2304733340" lon="-6.3339878060">
        <ele>585.10</ele>
        <time>2021-05-30T08:04:42Z</time>
      </trkpt>
      <trkpt lat="38.2305822987" lon="-6.3337645959">
        <ele>585.58</ele>
        <time>2021-05-30T08:04:43Z</time>
      </trkpt>
      <trkpt lat="38.2313718740" lon="-6.3323857728">
        <ele>583.66</ele>
        <time>2021-05-30T08:04:49Z</time>
      </trkpt>
      <trkpt lat="38.2315231673" lon="-6.3321935758">
        <ele>584.14</ele>
        <time>2021-05-30T08:04:50Z</time>
      </trkpt>
      <trkpt lat="38.2319770474" lon="-6.3317005523">
        <ele>578.85</ele>
        <time>2021-05-30T08:04:53Z</time>
      </trkpt>
      <trkpt lat="38.2321006805" lon="-6.3315267954">
        <ele>578.37</ele>
        <time>2021-05-30T08:04:54Z</time>
      </trkpt>
      <trkpt lat="38.2322027721" lon="-6.3313366100">
        <ele>577.89</ele>
        <time>2021-05-30T08:04:55Z</time>
      </trkpt>
      <trkpt lat="38.2322803885" lon="-6.3311358634">
        <ele>577.41</ele>
        <time>2021-05-30T08:04:56Z</time>
      </trkpt>
      <trkpt lat="38.2323342003" lon="-6.3309323508">
        <ele>575.97</ele>
        <time>2021-05-30T08:04:57Z</time>
      </trkpt>
      <trkpt lat="38.2323597651" lon="-6.3307258207">
        <ele>575.01</ele>
        <time>2021-05-30T08:04:58Z</time>
      </trkpt>
      <trkpt lat="38.2323564962" lon="-6.3305071369">
        <ele>575.01</ele>
        <time>2021-05-30T08:04:59Z</time>
      </trkpt>
      <trkpt lat="38.2323378045" lon="-6.3302735332">
        <ele>575.97</ele>
        <time>2021-05-30T08:05:00Z</time>
      </trkpt>
      <trkpt lat="38.2323084679" lon="-6.3300299551">
        <ele>574.53</ele>
        <time>2021-05-30T08:05:01Z</time>
      </trkpt>
      <trkpt lat="38.2321393210" lon="-6.3288082927">
        <ele>567.80</ele>
        <time>2021-05-30T08:05:06Z</time>
      </trkpt>
      <trkpt lat="38.2321192883" lon="-6.3286072109">
        <ele>564.91</ele>
        <time>2021-05-30T08:05:07Z</time>
      </trkpt>
      <trkpt lat="38.2321250718" lon="-6.3284200430">
        <ele>562.51</ele>
        <time>2021-05-30T08:05:08Z</time>
      </trkpt>
      <trkpt lat="38.2321653888" lon="-6.3282399159">
        <ele>561.07</ele>
        <time>2021-05-30T08:05:09Z</time>
      </trkpt>
      <trkpt lat="38.2322329469" lon="-6.3280580286">
        <ele>561.55</ele>
        <time>2021-05-30T08:05:10Z</time>
      </trkpt>
      <trkpt lat="38.2323181909" lon="-6.3278634008">
        <ele>561.07</ele>
        <time>2021-05-30T08:05:11Z</time>
      </trkpt>
      <trkpt lat="38.2324961387" lon="-6.3274199981">
        <ele>562.03</ele>
        <time>2021-05-30T08:05:13Z</time>
      </trkpt>
      <trkpt lat="38.2325662114" lon="-6.3271754142">
        <ele>560.11</ele>
        <time>2021-05-30T08:05:14Z</time>
      </trkpt>
      <trkpt lat="38.2326798700" lon="-6.3266975619">
        <ele>555.78</ele>
        <time>2021-05-30T08:05:16Z</time>
      </trkpt>
      <trkpt lat="38.2329115458" lon="-6.3260063902">
        <ele>551.45</ele>
        <time>2021-05-30T08:05:19Z</time>
      </trkpt>
      <trkpt lat="38.2330273837" lon="-6.3257859461">
        <ele>550.01</ele>
        <time>2021-05-30T08:05:20Z</time>
      </trkpt>
      <trkpt lat="38.2332749013" lon="-6.3253636658">
        <ele>546.17</ele>
        <time>2021-05-30T08:05:22Z</time>
      </trkpt>
      <trkpt lat="38.2335082535" lon="-6.3249937724">
        <ele>542.80</ele>
        <time>2021-05-30T08:05:24Z</time>
      </trkpt>
      <trkpt lat="38.2336306293" lon="-6.3248526212">
        <ele>541.84</ele>
        <time>2021-05-30T08:05:25Z</time>
      </trkpt>
      <trkpt lat="38.2337703556" lon="-6.3247483503">
        <ele>541.84</ele>
        <time>2021-05-30T08:05:26Z</time>
      </trkpt>
      <trkpt lat="38.2339283545" lon="-6.3246633578">
        <ele>543.28</ele>
        <time>2021-05-30T08:05:27Z</time>
      </trkpt>
      <trkpt lat="38.2341032010" lon="-6.3245791197">
        <ele>544.24</ele>
        <time>2021-05-30T08:05:28Z</time>
      </trkpt>
      <trkpt lat="38.2346962206" lon="-6.3242971525">
        <ele>546.65</ele>
        <time>2021-05-30T08:05:31Z</time>
      </trkpt>
      <trkpt lat="38.2353215106" lon="-6.3240038697">
        <ele>548.57</ele>
        <time>2021-05-30T08:05:34Z</time>
      </trkpt>
      <trkpt lat="38.2359260134" lon="-6.3237048872">
        <ele>550.01</ele>
        <time>2021-05-30T08:05:37Z</time>
      </trkpt>
      <trkpt lat="38.2365015987" lon="-6.3233271148">
        <ele>553.38</ele>
        <time>2021-05-30T08:05:40Z</time>
      </trkpt>
      <trkpt lat="38.2366860844" lon="-6.3231942616">
        <ele>552.90</ele>
        <time>2021-05-30T08:05:41Z</time>
      </trkpt>
      <trkpt lat="38.2374668587" lon="-6.3226391282">
        <ele>555.78</ele>
        <time>2021-05-30T08:05:45Z</time>
      </trkpt>
      <trkpt lat="38.2380875386" lon="-6.3221557438">
        <ele>557.70</ele>
        <time>2021-05-30T08:05:48Z</time>
      </trkpt>
      <trkpt lat="38.2394024916" lon="-6.3208568003">
        <ele>560.59</ele>
        <time>2021-05-30T08:05:55Z</time>
      </trkpt>
      <trkpt lat="38.2399822678" lon="-6.3203690574">
        <ele>563.95</ele>
        <time>2021-05-30T08:05:58Z</time>
      </trkpt>
      <trkpt lat="38.2405628823" lon="-6.3198648859">
        <ele>565.39</ele>
        <time>2021-05-30T08:06:01Z</time>
      </trkpt>
      <trkpt lat="38.2414739113" lon="-6.3187627494">
        <ele>563.47</ele>
        <time>2021-05-30T08:06:07Z</time>
      </trkpt>
      <trkpt lat="38.2415732369" lon="-6.3185775094">
        <ele>561.55</ele>
        <time>2021-05-30T08:06:08Z</time>
      </trkpt>
      <trkpt lat="38.2416548766" lon="-6.3183694705">
        <ele>561.55</ele>
        <time>2021-05-30T08:06:09Z</time>
      </trkpt>
      <trkpt lat="38.2418773323" lon="-6.3176701684">
        <ele>564.43</ele>
        <time>2021-05-30T08:06:12Z</time>
      </trkpt>
      <trkpt lat="38.2420207467" lon="-6.3168990333">
        <ele>567.80</ele>
        <time>2021-05-30T08:06:15Z</time>
      </trkpt>
      <trkpt lat="38.2420423720" lon="-6.3166380208">
        <ele>567.32</ele>
        <time>2021-05-30T08:06:16Z</time>
      </trkpt>
      <trkpt lat="38.2422404364" lon="-6.3151362352">
        <ele>567.32</ele>
        <time>2021-05-30T08:06:22Z</time>
      </trkpt>
      <trkpt lat="38.2423180528" lon="-6.3149176352">
        <ele>568.28</ele>
        <time>2021-05-30T08:06:23Z</time>
      </trkpt>
      <trkpt lat="38.2424111757" lon="-6.3147059921">
        <ele>568.76</ele>
        <time>2021-05-30T08:06:24Z</time>
      </trkpt>
      <trkpt lat="38.2426086534" lon="-6.3142987993">
        <ele>569.72</ele>
        <time>2021-05-30T08:06:26Z</time>
      </trkpt>
      <trkpt lat="38.2427499723" lon="-6.3139146566">
        <ele>571.16</ele>
        <time>2021-05-30T08:06:28Z</time>
      </trkpt>
      <trkpt lat="38.2427892834" lon="-6.3137106411">
        <ele>571.64</ele>
        <time>2021-05-30T08:06:29Z</time>
      </trkpt>
      <trkpt lat="38.2428069692" lon="-6.3134953938">
        <ele>574.04</ele>
        <time>2021-05-30T08:06:30Z</time>
      </trkpt>
      <trkpt lat="38.2428035326" lon="-6.3132701721">
        <ele>575.01</ele>
        <time>2021-05-30T08:06:31Z</time>
      </trkpt>
      <trkpt lat="38.2427775487" lon="-6.3130375743">
        <ele>576.45</ele>
        <time>2021-05-30T08:06:32Z</time>
      </trkpt>
      <trkpt lat="38.2427294366" lon="-6.3128063176">
        <ele>577.89</ele>
        <time>2021-05-30T08:06:33Z</time>
      </trkpt>
      <trkpt lat="38.2426704280" lon="-6.3125917409">
        <ele>578.37</ele>
        <time>2021-05-30T08:06:34Z</time>
      </trkpt>
      <trkpt lat="38.2426080666" lon="-6.3123985380">
        <ele>576.93</ele>
        <time>2021-05-30T08:06:35Z</time>
      </trkpt>
      <trkpt lat="38.2425410114" lon="-6.3122252841">
        <ele>576.93</ele>
        <time>2021-05-30T08:06:36Z</time>
      </trkpt>
      <trkpt lat="38.2424602099" lon="-6.3120656926">
        <ele>577.41</ele>
        <time>2021-05-30T08:06:37Z</time>
      </trkpt>
      <trkpt lat="38.2423577830" lon="-6.3119181711">
        <ele>578.37</ele>
        <time>2021-05-30T08:06:38Z</time>
      </trkpt>
      <trkpt lat="38.2422368322" lon="-6.3117783610">
        <ele>580.77</ele>
        <time>2021-05-30T08:06:39Z</time>
      </trkpt>
      <trkpt lat="38.2421069965" lon="-6.3116404787">
        <ele>581.25</ele>
        <time>2021-05-30T08:06:40Z</time>
      </trkpt>
      <trkpt lat="38.2416644320" lon="-6.3111447729">
        <ele>578.85</ele>
        <time>2021-05-30T08:06:44Z</time>
      </trkpt>
      <trkpt lat="38.2416027412" lon="-6.3109892886">
        <ele>579.81</ele>
        <time>2021-05-30T08:06:45Z</time>
      </trkpt>
      <trkpt lat="38.2415666990" lon="-6.3108092453">
        <ele>580.29</ele>
        <time>2021-05-30T08:06:46Z</time>
      </trkpt>
      <trkpt lat="38.2415504381" lon="-6.3106152043">
        <ele>581.25</ele>
        <time>2021-05-30T08:06:47Z</time>
      </trkpt>
      <trkpt lat="38.2415431459" lon="-6.3104176428">
        <ele>581.73</ele>
        <time>2021-05-30T08:06:48Z</time>
      </trkpt>
      <trkpt lat="38.2415227778" lon="-6.3097060192">
        <ele>585.10</ele>
        <time>2021-05-30T08:06:52Z</time>
      </trkpt>
      <trkpt lat="38.2415146474" lon="-6.3095491938">
        <ele>585.10</ele>
        <time>2021-05-30T08:06:53Z</time>
      </trkpt>
      <trkpt lat="38.2414934412" lon="-6.3089551684">
        <ele>587.50</ele>
        <time>2021-05-30T08:06:57Z</time>
      </trkpt>
      <trkpt lat="38.2414712291" lon="-6.3081741426">
        <ele>590.87</ele>
        <time>2021-05-30T08:07:02Z</time>
      </trkpt>
      <trkpt lat="38.2414712291" lon="-6.3078266289">
        <ele>592.31</ele>
        <time>2021-05-30T08:07:04Z</time>
      </trkpt>
      <trkpt lat="38.2414790243" lon="-6.3075028360">
        <ele>589.91</ele>
        <time>2021-05-30T08:07:06Z</time>
      </trkpt>
      <trkpt lat="38.2415092830" lon="-6.3064347301">
        <ele>586.54</ele>
        <time>2021-05-30T08:07:12Z</time>
      </trkpt>
      <trkpt lat="38.2415208500" lon="-6.3060724642">
        <ele>585.58</ele>
        <time>2021-05-30T08:07:14Z</time>
      </trkpt>
      <trkpt lat="38.2415282261" lon="-6.3055066019">
        <ele>583.18</ele>
        <time>2021-05-30T08:07:17Z</time>
      </trkpt>
      <trkpt lat="38.2415024098" lon="-6.3051180169">
        <ele>585.10</ele>
        <time>2021-05-30T08:07:19Z</time>
      </trkpt>
      <trkpt lat="38.2414614223" lon="-6.3049205393">
        <ele>586.06</ele>
        <time>2021-05-30T08:07:20Z</time>
      </trkpt>
      <trkpt lat="38.2414004020" lon="-6.3047297671">
        <ele>585.58</ele>
        <time>2021-05-30T08:07:21Z</time>
      </trkpt>
      <trkpt lat="38.2410945464" lon="-6.3039872982">
        <ele>589.91</ele>
        <time>2021-05-30T08:07:25Z</time>
      </trkpt>
      <trkpt lat="38.2407930493" lon="-6.3030206971">
        <ele>592.31</ele>
        <time>2021-05-30T08:07:31Z</time>
      </trkpt>
      <trkpt lat="38.2407841645" lon="-6.3028481137">
        <ele>593.75</ele>
        <time>2021-05-30T08:07:32Z</time>
      </trkpt>
      <trkpt lat="38.2407958992" lon="-6.3026654720">
        <ele>594.71</ele>
        <time>2021-05-30T08:07:33Z</time>
      </trkpt>
      <trkpt lat="38.2408255711" lon="-6.3024811540">
        <ele>595.19</ele>
        <time>2021-05-30T08:07:34Z</time>
      </trkpt>
      <trkpt lat="38.2408720069" lon="-6.3023110013">
        <ele>594.71</ele>
        <time>2021-05-30T08:07:35Z</time>
      </trkpt>
      <trkpt lat="38.2409352064" lon="-6.3021619711">
        <ele>593.75</ele>
        <time>2021-05-30T08:07:36Z</time>
      </trkpt>
      <trkpt lat="38.2410150860" lon="-6.3020259328">
        <ele>593.75</ele>
        <time>2021-05-30T08:07:37Z</time>
      </trkpt>
      <trkpt lat="38.2411153335" lon="-6.3018978573">
        <ele>593.75</ele>
        <time>2021-05-30T08:07:38Z</time>
      </trkpt>
      <trkpt lat="38.2412327640" lon="-6.3017826900">
        <ele>593.75</ele>
        <time>2021-05-30T08:07:39Z</time>
      </trkpt>
      <trkpt lat="38.2413620967" lon="-6.3016881421">
        <ele>593.75</ele>
        <time>2021-05-30T08:07:40Z</time>
      </trkpt>
      <trkpt lat="38.2414968777" lon="-6.3016171474">
        <ele>592.79</ele>
        <time>2021-05-30T08:07:41Z</time>
      </trkpt>
      <trkpt lat="38.2416295633" lon="-6.3015677780">
        <ele>592.31</ele>
        <time>2021-05-30T08:07:42Z</time>
      </trkpt>
      <trkpt lat="38.2417564653" lon="-6.3015311491">
        <ele>590.87</ele>
        <time>2021-05-30T08:07:43Z</time>
      </trkpt>
      <trkpt lat="38.2420622371" lon="-6.3014211785">
        <ele>587.98</ele>
        <time>2021-05-30T08:07:46Z</time>
      </trkpt>
      <trkpt lat="38.2421282865" lon="-6.3013537880">
        <ele>587.50</ele>
        <time>2021-05-30T08:07:47Z</time>
      </trkpt>
      <trkpt lat="38.2421679329" lon="-6.3012728188">
        <ele>586.54</ele>
        <time>2021-05-30T08:07:48Z</time>
      </trkpt>
      <trkpt lat="38.2421791647" lon="-6.3011969626">
        <ele>585.58</ele>
        <time>2021-05-30T08:07:49Z</time>
      </trkpt>
      <trkpt lat="38.2421739679" lon="-6.3011449948">
        <ele>585.10</ele>
        <time>2021-05-30T08:07:50Z</time>
      </trkpt>
      <trkpt lat="38.2421685196" lon="-6.3011176698">
        <ele>583.66</ele>
        <time>2021-05-30T08:07:51Z</time>
      </trkpt>
      <trkpt lat="38.2421665918" lon="-6.3011009898">
        <ele>584.14</ele>
        <time>2021-05-30T08:07:52Z</time>
      </trkpt>
      <trkpt lat="38.2421640772" lon="-6.3010261394">
        <ele>584.62</ele>
        <time>2021-05-30T08:07:58Z</time>
      </trkpt>
      <trkpt lat="38.2421811763" lon="-6.3009998202">
        <ele>584.62</ele>
        <time>2021-05-30T08:07:59Z</time>
      </trkpt>
      <trkpt lat="38.2422234211" lon="-6.3009786978">
        <ele>585.10</ele>
        <time>2021-05-30T08:08:00Z</time>
      </trkpt>
      <trkpt lat="38.2422950026" lon="-6.3009704836">
        <ele>585.58</ele>
        <time>2021-05-30T08:08:01Z</time>
      </trkpt>
      <trkpt lat="38.2423858624" lon="-6.3009745069">
        <ele>586.54</ele>
        <time>2021-05-30T08:08:02Z</time>
      </trkpt>
      <trkpt lat="38.2425998524" lon="-6.3009863254">
        <ele>587.98</ele>
        <time>2021-05-30T08:08:04Z</time>
      </trkpt>
      <trkpt lat="38.2432895992" lon="-6.3008981477">
        <ele>591.35</ele>
        <time>2021-05-30T08:08:09Z</time>
      </trkpt>
      <trkpt lat="38.2434308343" lon="-6.3008492813">
        <ele>591.83</ele>
        <time>2021-05-30T08:08:10Z</time>
      </trkpt>
      <trkpt lat="38.2443450484" lon="-6.3004482910">
        <ele>594.71</ele>
        <time>2021-05-30T08:08:17Z</time>
      </trkpt>
      <trkpt lat="38.2447466254" lon="-6.3002647273">
        <ele>596.64</ele>
        <time>2021-05-30T08:08:20Z</time>
      </trkpt>
      <trkpt lat="38.2452590950" lon="-6.3000362366">
        <ele>598.56</ele>
        <time>2021-05-30T08:08:24Z</time>
      </trkpt>
      <trkpt lat="38.2457597461" lon="-6.2998911459">
        <ele>600.00</ele>
        <time>2021-05-30T08:08:28Z</time>
      </trkpt>
      <trkpt lat="38.2461647596" lon="-6.2998798303">
        <ele>602.88</ele>
        <time>2021-05-30T08:08:31Z</time>
      </trkpt>
      <trkpt lat="38.2470363937" lon="-6.3001446985">
        <ele>605.77</ele>
        <time>2021-05-30T08:08:39Z</time>
      </trkpt>
      <trkpt lat="38.2476615161" lon="-6.3004170265">
        <ele>608.65</ele>
        <time>2021-05-30T08:08:44Z</time>
      </trkpt>
      <trkpt lat="38.2483594771" lon="-6.3007016759">
        <ele>611.06</ele>
        <time>2021-05-30T08:08:50Z</time>
      </trkpt>
      <trkpt lat="38.2494099811" lon="-6.3010025863">
        <ele>609.61</ele>
        <time>2021-05-30T08:08:58Z</time>
      </trkpt>
      <trkpt lat="38.2495896891" lon="-6.3010706473">
        <ele>607.21</ele>
        <time>2021-05-30T08:09:00Z</time>
      </trkpt>
      <trkpt lat="38.2497843169" lon="-6.3011276443">
        <ele>603.85</ele>
        <time>2021-05-30T08:09:04Z</time>
      </trkpt>
      <trkpt lat="38.2498802897" lon="-6.3011725713">
        <ele>603.85</ele>
        <time>2021-05-30T08:09:09Z</time>
      </trkpt>
      <trkpt lat="38.2499019150" lon="-6.3012206834">
        <ele>603.85</ele>
        <time>2021-05-30T08:09:10Z</time>
      </trkpt>
      <trkpt lat="38.2498437446" lon="-6.3014255371">
        <ele>602.88</ele>
        <time>2021-05-30T08:09:14Z</time>
      </trkpt>
      <trkpt lat="38.2497930340" lon="-6.3014488388">
        <ele>603.36</ele>
        <time>2021-05-30T08:09:15Z</time>
      </trkpt>
      <trkpt lat="38.2497321814" lon="-6.3014538679">
        <ele>603.36</ele>
        <time>2021-05-30T08:09:16Z</time>
      </trkpt>
      <trkpt lat="38.2496761903" lon="-6.3014412113">
        <ele>603.85</ele>
        <time>2021-05-30T08:09:17Z</time>
      </trkpt>
      <trkpt lat="38.2496272400" lon="-6.3014172390">
        <ele>604.33</ele>
        <time>2021-05-30T08:09:18Z</time>
      </trkpt>
      <trkpt lat="38.2495864201" lon="-6.3013692107">
        <ele>604.81</ele>
        <time>2021-05-30T08:09:19Z</time>
      </trkpt>
      <trkpt lat="38.2495438401" lon="-6.3013038319">
        <ele>606.25</ele>
        <time>2021-05-30T08:09:20Z</time>
      </trkpt>
      <trkpt lat="38.2494875975" lon="-6.3012436498">
        <ele>606.73</ele>
        <time>2021-05-30T08:09:21Z</time>
      </trkpt>
      <trkpt lat="38.2494176924" lon="-6.3012000639">
        <ele>607.21</ele>
        <time>2021-05-30T08:09:22Z</time>
      </trkpt>
      <trkpt lat="38.2493335381" lon="-6.3011704758">
        <ele>607.21</ele>
        <time>2021-05-30T08:09:23Z</time>
      </trkpt>
      <trkpt lat="38.2492369786" lon="-6.3011446595">
        <ele>609.13</ele>
        <time>2021-05-30T08:09:24Z</time>
      </trkpt>
      <trkpt lat="38.2486541010" lon="-6.3009643648">
        <ele>612.50</ele>
        <time>2021-05-30T08:09:30Z</time>
      </trkpt>
      <trkpt lat="38.2479926012" lon="-6.3007612713">
        <ele>609.13</ele>
        <time>2021-05-30T08:09:38Z</time>
      </trkpt>
      <trkpt lat="38.2477462571" lon="-6.3006933779">
        <ele>606.73</ele>
        <time>2021-05-30T08:09:42Z</time>
      </trkpt>
      <trkpt lat="38.2477022521" lon="-6.3006865885">
        <ele>605.77</ele>
        <time>2021-05-30T08:09:43Z</time>
      </trkpt>
      <trkpt lat="38.2476724964" lon="-6.3006902765">
        <ele>605.77</ele>
        <time>2021-05-30T08:09:44Z</time>
      </trkpt>
      <trkpt lat="38.2476479374" lon="-6.3007004187">
        <ele>604.81</ele>
        <time>2021-05-30T08:09:45Z</time>
      </trkpt>
      <trkpt lat="38.2476259768" lon="-6.3007130753">
        <ele>605.29</ele>
        <time>2021-05-30T08:09:46Z</time>
      </trkpt>
      <trkpt lat="38.2476114761" lon="-6.3007225469">
        <ele>604.81</ele>
        <time>2021-05-30T08:09:47Z</time>
      </trkpt>
      <trkpt lat="38.2476001605" lon="-6.3007201999">
        <ele>604.33</ele>
        <time>2021-05-30T08:09:48Z</time>
      </trkpt>
      <trkpt lat="38.2475939579" lon="-6.3007064536">
        <ele>603.85</ele>
        <time>2021-05-30T08:09:49Z</time>
      </trkpt>
      <trkpt lat="38.2475935388" lon="-6.3006900251">
        <ele>603.36</ele>
        <time>2021-05-30T08:09:50Z</time>
      </trkpt>
      <trkpt lat="38.2475973107" lon="-6.3006723393">
        <ele>603.85</ele>
        <time>2021-05-30T08:09:51Z</time>
      </trkpt>
      <trkpt lat="38.2475999929" lon="-6.3006538991">
        <ele>604.33</ele>
        <time>2021-05-30T08:10:03Z</time>
      </trkpt>
      <trkpt lat="38.2475651242" lon="-6.3006212097">
        <ele>603.85</ele>
        <time>2021-05-30T08:10:39Z</time>
      </trkpt>
      <trkpt lat="38.2475417387" lon="-6.3006359618">
        <ele>603.85</ele>
        <time>2021-05-30T08:11:07Z</time>
      </trkpt>
      <trkpt lat="38.2475555688" lon="-6.3006081339">
        <ele>604.81</ele>
        <time>2021-05-30T08:11:31Z</time>
      </trkpt>
      <trkpt lat="38.2476927806" lon="-6.3005825691">
        <ele>605.77</ele>
        <time>2021-05-30T08:48:45Z</time>
      </trkpt>
      <trkpt lat="38.2476485241" lon="-6.3006395660">
        <ele>607.69</ele>
        <time>2021-05-30T08:49:09Z</time>
      </trkpt>
      <trkpt lat="38.2476330176" lon="-6.3006443437">
        <ele>608.17</ele>
        <time>2021-05-30T08:49:28Z</time>
      </trkpt>
      <trkpt lat="38.2476190198" lon="-6.3006350398">
        <ele>609.13</ele>
        <time>2021-05-30T08:49:48Z</time>
      </trkpt>
      <trkpt lat="38.2477264758" lon="-6.3006126601">
        <ele>608.17</ele>
        <time>2021-05-30T08:49:52Z</time>
      </trkpt>
      <trkpt lat="38.2477948721" lon="-6.3006358780">
        <ele>609.61</ele>
        <time>2021-05-30T08:49:53Z</time>
      </trkpt>
      <trkpt lat="38.2478797808" lon="-6.3006658014">
        <ele>609.61</ele>
        <time>2021-05-30T08:49:54Z</time>
      </trkpt>
      <trkpt lat="38.2482013945" lon="-6.3007682282">
        <ele>612.98</ele>
        <time>2021-05-30T08:49:57Z</time>
      </trkpt>
      <trkpt lat="38.2493416686" lon="-6.3011185918">
        <ele>612.02</ele>
        <time>2021-05-30T08:50:07Z</time>
      </trkpt>
      <trkpt lat="38.2495028526" lon="-6.3011911791">
        <ele>609.61</ele>
        <time>2021-05-30T08:50:09Z</time>
      </trkpt>
      <trkpt lat="38.2495680638" lon="-6.3012583181">
        <ele>609.61</ele>
        <time>2021-05-30T08:50:10Z</time>
      </trkpt>
      <trkpt lat="38.2496697363" lon="-6.3013910037">
        <ele>608.17</ele>
        <time>2021-05-30T08:50:12Z</time>
      </trkpt>
      <trkpt lat="38.2497178484" lon="-6.3014182448">
        <ele>607.69</ele>
        <time>2021-05-30T08:50:13Z</time>
      </trkpt>
      <trkpt lat="38.2497628592" lon="-6.3014159817">
        <ele>607.21</ele>
        <time>2021-05-30T08:50:14Z</time>
      </trkpt>
      <trkpt lat="38.2498013321" lon="-6.3013881538">
        <ele>607.69</ele>
        <time>2021-05-30T08:50:15Z</time>
      </trkpt>
      <trkpt lat="38.2498521265" lon="-6.3012827095">
        <ele>607.69</ele>
        <time>2021-05-30T08:50:18Z</time>
      </trkpt>
      <trkpt lat="38.2498576585" lon="-6.3012621738">
        <ele>607.21</ele>
        <time>2021-05-30T08:50:19Z</time>
      </trkpt>
      <trkpt lat="38.2498692255" lon="-6.3012341782">
        <ele>608.17</ele>
        <time>2021-05-30T08:50:24Z</time>
      </trkpt>
      <trkpt lat="38.2498838939" lon="-6.3012076914">
        <ele>607.69</ele>
        <time>2021-05-30T08:50:25Z</time>
      </trkpt>
      <trkpt lat="38.2499235403" lon="-6.3011850603">
        <ele>608.65</ele>
        <time>2021-05-30T08:50:26Z</time>
      </trkpt>
      <trkpt lat="38.2499886677" lon="-6.3011873234">
        <ele>608.17</ele>
        <time>2021-05-30T08:50:27Z</time>
      </trkpt>
      <trkpt lat="38.2500666194" lon="-6.3012077753">
        <ele>607.69</ele>
        <time>2021-05-30T08:50:28Z</time>
      </trkpt>
      <trkpt lat="38.2506206632" lon="-6.3013383653">
        <ele>606.73</ele>
        <time>2021-05-30T08:50:33Z</time>
      </trkpt>
      <trkpt lat="38.2518688124" lon="-6.3017282914">
        <ele>607.21</ele>
        <time>2021-05-30T08:50:41Z</time>
      </trkpt>
      <trkpt lat="38.2530768961" lon="-6.3020820078">
        <ele>610.57</ele>
        <time>2021-05-30T08:50:48Z</time>
      </trkpt>
      <trkpt lat="38.2542067766" lon="-6.3024109975">
        <ele>613.94</ele>
        <time>2021-05-30T08:50:54Z</time>
      </trkpt>
      <trkpt lat="38.2565537095" lon="-6.3030875847">
        <ele>612.02</ele>
        <time>2021-05-30T08:51:07Z</time>
      </trkpt>
      <trkpt lat="38.2588701323" lon="-6.3036987092">
        <ele>611.06</ele>
        <time>2021-05-30T08:51:19Z</time>
      </trkpt>
      <trkpt lat="38.2595334761" lon="-6.3038597256">
        <ele>609.61</ele>
        <time>2021-05-30T08:51:22Z</time>
      </trkpt>
      <trkpt lat="38.2604937907" lon="-6.3041144516">
        <ele>611.54</ele>
        <time>2021-05-30T08:51:26Z</time>
      </trkpt>
      <trkpt lat="38.2634344138" lon="-6.3048811443">
        <ele>612.02</ele>
        <time>2021-05-30T08:51:37Z</time>
      </trkpt>
      <trkpt lat="38.2655009720" lon="-6.3053971343">
        <ele>607.69</ele>
        <time>2021-05-30T08:51:44Z</time>
      </trkpt>
      <trkpt lat="38.2658038940" lon="-6.3054719847">
        <ele>607.69</ele>
        <time>2021-05-30T08:51:45Z</time>
      </trkpt>
      <trkpt lat="38.2664142642" lon="-6.3056226913">
        <ele>606.25</ele>
        <time>2021-05-30T08:51:47Z</time>
      </trkpt>
      <trkpt lat="38.2700577937" lon="-6.3065278530">
        <ele>609.61</ele>
        <time>2021-05-30T08:51:59Z</time>
      </trkpt>
      <trkpt lat="38.2703551836" lon="-6.3066024520">
        <ele>609.61</ele>
        <time>2021-05-30T08:52:00Z</time>
      </trkpt>
      <trkpt lat="38.2721474860" lon="-6.3070486207">
        <ele>612.02</ele>
        <time>2021-05-30T08:52:06Z</time>
      </trkpt>
      <trkpt lat="38.2727536652" lon="-6.3071990758">
        <ele>615.38</ele>
        <time>2021-05-30T08:52:08Z</time>
      </trkpt>
      <trkpt lat="38.2730591856" lon="-6.3072757702">
        <ele>615.86</ele>
        <time>2021-05-30T08:52:09Z</time>
      </trkpt>
      <trkpt lat="38.2745874580" lon="-6.3076543808">
        <ele>612.50</ele>
        <time>2021-05-30T08:52:14Z</time>
      </trkpt>
      <trkpt lat="38.2760561351" lon="-6.3080256153">
        <ele>615.86</ele>
        <time>2021-05-30T08:52:19Z</time>
      </trkpt>
      <trkpt lat="38.2779582404" lon="-6.3088902924">
        <ele>615.38</ele>
        <time>2021-05-30T08:52:26Z</time>
      </trkpt>
      <trkpt lat="38.2793015242" lon="-6.3096080348">
        <ele>612.98</ele>
        <time>2021-05-30T08:52:31Z</time>
      </trkpt>
      <trkpt lat="38.2800740842" lon="-6.3100127131">
        <ele>607.69</ele>
        <time>2021-05-30T08:52:34Z</time>
      </trkpt>
      <trkpt lat="38.2808240131" lon="-6.3103006314">
        <ele>606.25</ele>
        <time>2021-05-30T08:52:37Z</time>
      </trkpt>
      <trkpt lat="38.2810835168" lon="-6.3103403617">
        <ele>606.73</ele>
        <time>2021-05-30T08:52:38Z</time>
      </trkpt>
      <trkpt lat="38.2819121517" lon="-6.3103717100">
        <ele>608.65</ele>
        <time>2021-05-30T08:52:41Z</time>
      </trkpt>
      <trkpt lat="38.2842603419" lon="-6.3104350772">
        <ele>605.29</ele>
        <time>2021-05-30T08:52:49Z</time>
      </trkpt>
      <trkpt lat="38.2851665933" lon="-6.3104647491">
        <ele>600.48</ele>
        <time>2021-05-30T08:52:52Z</time>
      </trkpt>
      <trkpt lat="38.2857834175" lon="-6.3104825187">
        <ele>599.52</ele>
        <time>2021-05-30T08:52:54Z</time>
      </trkpt>
      <trkpt lat="38.2870320696" lon="-6.3105208240">
        <ele>594.23</ele>
        <time>2021-05-30T08:52:58Z</time>
      </trkpt>
      <trkpt lat="38.2885913551" lon="-6.3105623145">
        <ele>590.87</ele>
        <time>2021-05-30T08:53:03Z</time>
      </trkpt>
      <trkpt lat="38.2888998929" lon="-6.3105706964">
        <ele>592.31</ele>
        <time>2021-05-30T08:53:04Z</time>
      </trkpt>
      <trkpt lat="38.2898206450" lon="-6.3106002007">
        <ele>589.91</ele>
        <time>2021-05-30T08:53:07Z</time>
      </trkpt>
      <trkpt lat="38.2931663655" lon="-6.3106899709">
        <ele>591.83</ele>
        <time>2021-05-30T08:53:18Z</time>
      </trkpt>
      <trkpt lat="38.2945973240" lon="-6.3107399270">
        <ele>587.50</ele>
        <time>2021-05-30T08:53:23Z</time>
      </trkpt>
      <trkpt lat="38.2950994838" lon="-6.3107553497">
        <ele>582.70</ele>
        <time>2021-05-30T08:53:25Z</time>
      </trkpt>
      <trkpt lat="38.2955928426" lon="-6.3107724488">
        <ele>579.33</ele>
        <time>2021-05-30T08:53:27Z</time>
      </trkpt>
      <trkpt lat="38.2960722037" lon="-6.3107897155">
        <ele>576.45</ele>
        <time>2021-05-30T08:53:29Z</time>
      </trkpt>
      <trkpt lat="38.2965301909" lon="-6.3108068146">
        <ele>572.60</ele>
        <time>2021-05-30T08:53:31Z</time>
      </trkpt>
      <trkpt lat="38.2974138111" lon="-6.3108282723">
        <ele>568.76</ele>
        <time>2021-05-30T08:53:35Z</time>
      </trkpt>
      <trkpt lat="38.2976248674" lon="-6.3108327985">
        <ele>568.28</ele>
        <time>2021-05-30T08:53:36Z</time>
      </trkpt>
      <trkpt lat="38.2999971975" lon="-6.3109127618">
        <ele>565.39</ele>
        <time>2021-05-30T08:53:47Z</time>
      </trkpt>
      <trkpt lat="38.3017175831" lon="-6.3112729322">
        <ele>567.80</ele>
        <time>2021-05-30T08:53:55Z</time>
      </trkpt>
      <trkpt lat="38.3030151017" lon="-6.3116294146">
        <ele>567.80</ele>
        <time>2021-05-30T08:54:03Z</time>
      </trkpt>
      <trkpt lat="38.3038137294" lon="-6.3120108750">
        <ele>568.28</ele>
        <time>2021-05-30T08:54:08Z</time>
      </trkpt>
      <trkpt lat="38.3052570932" lon="-6.3125061616">
        <ele>565.87</ele>
        <time>2021-05-30T08:54:15Z</time>
      </trkpt>
      <trkpt lat="38.3072576858" lon="-6.3127775677">
        <ele>562.51</ele>
        <time>2021-05-30T08:54:23Z</time>
      </trkpt>
      <trkpt lat="38.3075191174" lon="-6.3128142804">
        <ele>562.51</ele>
        <time>2021-05-30T08:54:24Z</time>
      </trkpt>
      <trkpt lat="38.3088895585" lon="-6.3130084891">
        <ele>559.14</ele>
        <time>2021-05-30T08:54:29Z</time>
      </trkpt>
      <trkpt lat="38.3100157510" lon="-6.3131513167">
        <ele>556.26</ele>
        <time>2021-05-30T08:54:33Z</time>
      </trkpt>
      <trkpt lat="38.3108788356" lon="-6.3131832518">
        <ele>554.34</ele>
        <time>2021-05-30T08:54:36Z</time>
      </trkpt>
      <trkpt lat="38.3129069209" lon="-6.3129467145">
        <ele>550.01</ele>
        <time>2021-05-30T08:54:43Z</time>
      </trkpt>
      <trkpt lat="38.3134714421" lon="-6.3128810003">
        <ele>549.05</ele>
        <time>2021-05-30T08:54:45Z</time>
      </trkpt>
      <trkpt lat="38.3161599375" lon="-6.3126681000">
        <ele>546.65</ele>
        <time>2021-05-30T08:54:55Z</time>
      </trkpt>
      <trkpt lat="38.3164021745" lon="-6.3127309643">
        <ele>547.13</ele>
        <time>2021-05-30T08:54:56Z</time>
      </trkpt>
      <trkpt lat="38.3166390471" lon="-6.3128297869">
        <ele>546.65</ele>
        <time>2021-05-30T08:54:57Z</time>
      </trkpt>
      <trkpt lat="38.3168734051" lon="-6.3129566889">
        <ele>547.61</ele>
        <time>2021-05-30T08:54:58Z</time>
      </trkpt>
      <trkpt lat="38.3171122894" lon="-6.3130998518">
        <ele>546.65</ele>
        <time>2021-05-30T08:54:59Z</time>
      </trkpt>
      <trkpt lat="38.3193859644" lon="-6.3146829419">
        <ele>548.09</ele>
        <time>2021-05-30T08:55:08Z</time>
      </trkpt>
      <trkpt lat="38.3205955569" lon="-6.3158296701">
        <ele>544.72</ele>
        <time>2021-05-30T08:55:13Z</time>
      </trkpt>
      <trkpt lat="38.3208336867" lon="-6.3160819653">
        <ele>545.20</ele>
        <time>2021-05-30T08:55:14Z</time>
      </trkpt>
      <trkpt lat="38.3217857033" lon="-6.3171144482">
        <ele>541.36</ele>
        <time>2021-05-30T08:55:18Z</time>
      </trkpt>
      <trkpt lat="38.3220224921" lon="-6.3173716050">
        <ele>541.84</ele>
        <time>2021-05-30T08:55:19Z</time>
      </trkpt>
      <trkpt lat="38.3229504526" lon="-6.3183814567">
        <ele>538.48</ele>
        <time>2021-05-30T08:55:23Z</time>
      </trkpt>
      <trkpt lat="38.3234048355" lon="-6.3188787550">
        <ele>536.55</ele>
        <time>2021-05-30T08:55:25Z</time>
      </trkpt>
      <trkpt lat="38.3240666706" lon="-6.3196070585">
        <ele>533.19</ele>
        <time>2021-05-30T08:55:28Z</time>
      </trkpt>
      <trkpt lat="38.3244964108" lon="-6.3200802170">
        <ele>530.79</ele>
        <time>2021-05-30T08:55:30Z</time>
      </trkpt>
      <trkpt lat="38.3251508698" lon="-6.3207179960">
        <ele>527.90</ele>
        <time>2021-05-30T08:55:33Z</time>
      </trkpt>
      <trkpt lat="38.3253917657" lon="-6.3208806887">
        <ele>527.42</ele>
        <time>2021-05-30T08:55:34Z</time>
      </trkpt>
      <trkpt lat="38.3256469108" lon="-6.3210059144">
        <ele>527.90</ele>
        <time>2021-05-30T08:55:35Z</time>
      </trkpt>
      <trkpt lat="38.3259120304" lon="-6.3210896496">
        <ele>527.42</ele>
        <time>2021-05-30T08:55:36Z</time>
      </trkpt>
      <trkpt lat="38.3261853643" lon="-6.3211313076">
        <ele>526.94</ele>
        <time>2021-05-30T08:55:37Z</time>
      </trkpt>
      <trkpt lat="38.3264648169" lon="-6.3211316429">
        <ele>526.94</ele>
        <time>2021-05-30T08:55:38Z</time>
      </trkpt>
      <trkpt lat="38.3267512266" lon="-6.3211054914">
        <ele>527.42</ele>
        <time>2021-05-30T08:55:39Z</time>
      </trkpt>
      <trkpt lat="38.3270402346" lon="-6.3210649230">
        <ele>527.90</ele>
        <time>2021-05-30T08:55:40Z</time>
      </trkpt>
      <trkpt lat="38.3282128628" lon="-6.3208770845">
        <ele>532.23</ele>
        <time>2021-05-30T08:55:44Z</time>
      </trkpt>
      <trkpt lat="38.3288047928" lon="-6.3207832910">
        <ele>535.59</ele>
        <time>2021-05-30T08:55:46Z</time>
      </trkpt>
      <trkpt lat="38.3296906762" lon="-6.3206385355">
        <ele>539.44</ele>
        <time>2021-05-30T08:55:49Z</time>
      </trkpt>
      <trkpt lat="38.3302836958" lon="-6.3205446582">
        <ele>539.92</ele>
        <time>2021-05-30T08:55:51Z</time>
      </trkpt>
      <trkpt lat="38.3305821754" lon="-6.3204974681">
        <ele>543.28</ele>
        <time>2021-05-30T08:55:52Z</time>
      </trkpt>
      <trkpt lat="38.3311825711" lon="-6.3204001542">
        <ele>547.13</ele>
        <time>2021-05-30T08:55:54Z</time>
      </trkpt>
      <trkpt lat="38.3329808246" lon="-6.3201427460">
        <ele>551.45</ele>
        <time>2021-05-30T08:56:00Z</time>
      </trkpt>
      <trkpt lat="38.3338859025" lon="-6.3200539816">
        <ele>552.90</ele>
        <time>2021-05-30T08:56:03Z</time>
      </trkpt>
      <trkpt lat="38.3365320694" lon="-6.3195270952">
        <ele>553.38</ele>
        <time>2021-05-30T08:56:12Z</time>
      </trkpt>
      <trkpt lat="38.3374162763" lon="-6.3192142826">
        <ele>551.45</ele>
        <time>2021-05-30T08:56:15Z</time>
      </trkpt>
      <trkpt lat="38.3388966043" lon="-6.3186630048">
        <ele>547.61</ele>
        <time>2021-05-30T08:56:20Z</time>
      </trkpt>
      <trkpt lat="38.3420192823" lon="-6.3176927995">
        <ele>544.24</ele>
        <time>2021-05-30T08:56:31Z</time>
      </trkpt>
      <trkpt lat="38.3423070330" lon="-6.3176881056">
        <ele>543.76</ele>
        <time>2021-05-30T08:56:32Z</time>
      </trkpt>
      <trkpt lat="38.3428871445" lon="-6.3177518919">
        <ele>542.80</ele>
        <time>2021-05-30T08:56:34Z</time>
      </trkpt>
      <trkpt lat="38.3442742657" lon="-6.3183579873">
        <ele>539.92</ele>
        <time>2021-05-30T08:56:39Z</time>
      </trkpt>
      <trkpt lat="38.3453106042" lon="-6.3191812579">
        <ele>538.48</ele>
        <time>2021-05-30T08:56:43Z</time>
      </trkpt>
      <trkpt lat="38.3458342217" lon="-6.3196200505">
        <ele>542.32</ele>
        <time>2021-05-30T08:56:45Z</time>
      </trkpt>
      <trkpt lat="38.3460974135" lon="-6.3198401593">
        <ele>542.32</ele>
        <time>2021-05-30T08:56:46Z</time>
      </trkpt>
      <trkpt lat="38.3468960412" lon="-6.3205042575">
        <ele>545.69</ele>
        <time>2021-05-30T08:56:49Z</time>
      </trkpt>
      <trkpt lat="38.3479692601" lon="-6.3213963434">
        <ele>547.61</ele>
        <time>2021-05-30T08:56:53Z</time>
      </trkpt>
      <trkpt lat="38.3500796556" lon="-6.3231663499">
        <ele>551.45</ele>
        <time>2021-05-30T08:57:01Z</time>
      </trkpt>
      <trkpt lat="38.3503416739" lon="-6.3233846147">
        <ele>550.97</ele>
        <time>2021-05-30T08:57:02Z</time>
      </trkpt>
      <trkpt lat="38.3534586523" lon="-6.3257949147">
        <ele>553.38</ele>
        <time>2021-05-30T08:57:14Z</time>
      </trkpt>
      <trkpt lat="38.3565214835" lon="-6.3274369296">
        <ele>554.82</ele>
        <time>2021-05-30T08:57:25Z</time>
      </trkpt>
      <trkpt lat="38.3591380622" lon="-6.3286378887">
        <ele>550.49</ele>
        <time>2021-05-30T08:57:34Z</time>
      </trkpt>
      <trkpt lat="38.3594304230" lon="-6.3287668023">
        <ele>550.97</ele>
        <time>2021-05-30T08:57:35Z</time>
      </trkpt>
      <trkpt lat="38.3614523895" lon="-6.3296431303">
        <ele>547.61</ele>
        <time>2021-05-30T08:57:42Z</time>
      </trkpt>
      <trkpt lat="38.3627377544" lon="-6.3302086573">
        <ele>548.09</ele>
        <time>2021-05-30T08:57:47Z</time>
      </trkpt>
      <trkpt lat="38.3640711475" lon="-6.3306358829">
        <ele>550.97</ele>
        <time>2021-05-30T08:57:52Z</time>
      </trkpt>
      <trkpt lat="38.3655046206" lon="-6.3309786189">
        <ele>547.61</ele>
        <time>2021-05-30T08:57:57Z</time>
      </trkpt>
      <trkpt lat="38.3657883480" lon="-6.3310481049">
        <ele>547.61</ele>
        <time>2021-05-30T08:57:58Z</time>
      </trkpt>
      <trkpt lat="38.3687471598" lon="-6.3317453116">
        <ele>546.65</ele>
        <time>2021-05-30T08:58:09Z</time>
      </trkpt>
      <trkpt lat="38.3696670737" lon="-6.3319000416">
        <ele>542.80</ele>
        <time>2021-05-30T08:58:13Z</time>
      </trkpt>
      <trkpt lat="38.3702721633" lon="-6.3320298772">
        <ele>538.96</ele>
        <time>2021-05-30T08:58:16Z</time>
      </trkpt>
      <trkpt lat="38.3704506978" lon="-6.3321194798">
        <ele>537.99</ele>
        <time>2021-05-30T08:58:17Z</time>
      </trkpt>
      <trkpt lat="38.3706173301" lon="-6.3322377484">
        <ele>537.03</ele>
        <time>2021-05-30T08:58:18Z</time>
      </trkpt>
      <trkpt lat="38.3707739040" lon="-6.3323865272">
        <ele>536.55</ele>
        <time>2021-05-30T08:58:19Z</time>
      </trkpt>
      <trkpt lat="38.3709233534" lon="-6.3325646427">
        <ele>536.55</ele>
        <time>2021-05-30T08:58:20Z</time>
      </trkpt>
      <trkpt lat="38.3710682765" lon="-6.3327653054">
        <ele>537.51</ele>
        <time>2021-05-30T08:58:21Z</time>
      </trkpt>
      <trkpt lat="38.3722543158" lon="-6.3343155384">
        <ele>540.88</ele>
        <time>2021-05-30T08:58:28Z</time>
      </trkpt>
      <trkpt lat="38.3724539727" lon="-6.3345320430">
        <ele>540.88</ele>
        <time>2021-05-30T08:58:29Z</time>
      </trkpt>
      <trkpt lat="38.3732686099" lon="-6.3354241289">
        <ele>545.69</ele>
        <time>2021-05-30T08:58:33Z</time>
      </trkpt>
      <trkpt lat="38.3736909740" lon="-6.3358682860">
        <ele>547.61</ele>
        <time>2021-05-30T08:58:35Z</time>
      </trkpt>
      <trkpt lat="38.3743861690" lon="-6.3364559412">
        <ele>551.93</ele>
        <time>2021-05-30T08:58:38Z</time>
      </trkpt>
      <trkpt lat="38.3746363688" lon="-6.3366252556">
        <ele>552.41</ele>
        <time>2021-05-30T08:58:39Z</time>
      </trkpt>
      <trkpt lat="38.3751521911" lon="-6.3369524851">
        <ele>556.26</ele>
        <time>2021-05-30T08:58:41Z</time>
      </trkpt>
      <trkpt lat="38.3756813407" lon="-6.3372875098">
        <ele>557.22</ele>
        <time>2021-05-30T08:58:43Z</time>
      </trkpt>
      <trkpt lat="38.3762258291" lon="-6.3376343530">
        <ele>560.59</ele>
        <time>2021-05-30T08:58:45Z</time>
      </trkpt>
      <trkpt lat="38.3764989953" lon="-6.3378082775">
        <ele>560.11</ele>
        <time>2021-05-30T08:58:46Z</time>
      </trkpt>
      <trkpt lat="38.3791508619" lon="-6.3393910322">
        <ele>559.62</ele>
        <time>2021-05-30T08:58:56Z</time>
      </trkpt>
      <trkpt lat="38.3802315407" lon="-6.3397501968">
        <ele>560.11</ele>
        <time>2021-05-30T08:59:00Z</time>
      </trkpt>
      <trkpt lat="38.3812364470" lon="-6.3402783405">
        <ele>563.47</ele>
        <time>2021-05-30T08:59:04Z</time>
      </trkpt>
      <trkpt lat="38.3814873174" lon="-6.3404518459">
        <ele>563.47</ele>
        <time>2021-05-30T08:59:05Z</time>
      </trkpt>
      <trkpt lat="38.3840448875" lon="-6.3420418091">
        <ele>564.43</ele>
        <time>2021-05-30T08:59:15Z</time>
      </trkpt>
      <trkpt lat="38.3850211278" lon="-6.3426154666">
        <ele>566.35</ele>
        <time>2021-05-30T08:59:19Z</time>
      </trkpt>
      <trkpt lat="38.3857099526" lon="-6.3430607971">
        <ele>562.99</ele>
        <time>2021-05-30T08:59:22Z</time>
      </trkpt>
      <trkpt lat="38.3863544371" lon="-6.3434882741">
        <ele>561.07</ele>
        <time>2021-05-30T08:59:25Z</time>
      </trkpt>
      <trkpt lat="38.3890516497" lon="-6.3449679315">
        <ele>561.07</ele>
        <time>2021-05-30T08:59:37Z</time>
      </trkpt>
      <trkpt lat="38.3904855419" lon="-6.3455708418">
        <ele>564.43</ele>
        <time>2021-05-30T08:59:43Z</time>
      </trkpt>
      <trkpt lat="38.3907198999" lon="-6.3456653059">
        <ele>563.95</ele>
        <time>2021-05-30T08:59:44Z</time>
      </trkpt>
      <trkpt lat="38.3914243989" lon="-6.3459208701">
        <ele>566.83</ele>
        <time>2021-05-30T08:59:47Z</time>
      </trkpt>
      <trkpt lat="38.3923733141" lon="-6.3461999036">
        <ele>565.87</ele>
        <time>2021-05-30T08:59:51Z</time>
      </trkpt>
      <trkpt lat="38.3933755383" lon="-6.3464428112">
        <ele>565.87</ele>
        <time>2021-05-30T08:59:55Z</time>
      </trkpt>
      <trkpt lat="38.3966142219" lon="-6.3472561911">
        <ele>567.32</ele>
        <time>2021-05-30T09:00:07Z</time>
      </trkpt>
      <trkpt lat="38.3991284575" lon="-6.3478968199">
        <ele>571.16</ele>
        <time>2021-05-30T09:00:17Z</time>
      </trkpt>
      <trkpt lat="38.3993822616" lon="-6.3479770347">
        <ele>570.68</ele>
        <time>2021-05-30T09:00:18Z</time>
      </trkpt>
      <trkpt lat="38.4007003158" lon="-6.3484704774">
        <ele>567.32</ele>
        <time>2021-05-30T09:00:23Z</time>
      </trkpt>
      <trkpt lat="38.4044585936" lon="-6.3499535713">
        <ele>570.68</ele>
        <time>2021-05-30T09:00:37Z</time>
      </trkpt>
      <trkpt lat="38.4068582486" lon="-6.3505296595">
        <ele>572.60</ele>
        <time>2021-05-30T09:00:46Z</time>
      </trkpt>
      <trkpt lat="38.4077163879" lon="-6.3504760154">
        <ele>575.97</ele>
        <time>2021-05-30T09:00:49Z</time>
      </trkpt>
      <trkpt lat="38.4080049768" lon="-6.3504587486">
        <ele>575.49</ele>
        <time>2021-05-30T09:00:50Z</time>
      </trkpt>
      <trkpt lat="38.4085860103" lon="-6.3504250534">
        <ele>574.04</ele>
        <time>2021-05-30T09:00:52Z</time>
      </trkpt>
      <trkpt lat="38.4136356041" lon="-6.3499852549">
        <ele>577.89</ele>
        <time>2021-05-30T09:01:09Z</time>
      </trkpt>
      <trkpt lat="38.4139320720" lon="-6.3499550801">
        <ele>577.41</ele>
        <time>2021-05-30T09:01:10Z</time>
      </trkpt>
      <trkpt lat="38.4162896499" lon="-6.3497425150">
        <ele>575.49</ele>
        <time>2021-05-30T09:01:18Z</time>
      </trkpt>
      <trkpt lat="38.4179560561" lon="-6.3501259033">
        <ele>574.04</ele>
        <time>2021-05-30T09:01:24Z</time>
      </trkpt>
      <trkpt lat="38.4200738277" lon="-6.3509679493">
        <ele>572.60</ele>
        <time>2021-05-30T09:01:32Z</time>
      </trkpt>
      <trkpt lat="38.4224394523" lon="-6.3519948162">
        <ele>576.45</ele>
        <time>2021-05-30T09:01:42Z</time>
      </trkpt>
      <trkpt lat="38.4228841122" lon="-6.3523203693">
        <ele>579.81</ele>
        <time>2021-05-30T09:01:44Z</time>
      </trkpt>
      <trkpt lat="38.4233205579" lon="-6.3527113013">
        <ele>580.29</ele>
        <time>2021-05-30T09:01:46Z</time>
      </trkpt>
      <trkpt lat="38.4248711262" lon="-6.3543555792">
        <ele>583.66</ele>
        <time>2021-05-30T09:01:53Z</time>
      </trkpt>
      <trkpt lat="38.4259798005" lon="-6.3555592205">
        <ele>579.81</ele>
        <time>2021-05-30T09:01:58Z</time>
      </trkpt>
      <trkpt lat="38.4266038332" lon="-6.3562143501">
        <ele>576.93</ele>
        <time>2021-05-30T09:02:01Z</time>
      </trkpt>
      <trkpt lat="38.4270531870" lon="-6.3565748557">
        <ele>575.01</ele>
        <time>2021-05-30T09:02:03Z</time>
      </trkpt>
      <trkpt lat="38.4283250570" lon="-6.3572168257">
        <ele>572.12</ele>
        <time>2021-05-30T09:02:08Z</time>
      </trkpt>
      <trkpt lat="38.4285694733" lon="-6.3573766686">
        <ele>572.60</ele>
        <time>2021-05-30T09:02:09Z</time>
      </trkpt>
      <trkpt lat="38.4288052563" lon="-6.3575610705">
        <ele>573.08</ele>
        <time>2021-05-30T09:02:10Z</time>
      </trkpt>
      <trkpt lat="38.4310723934" lon="-6.3595941849">
        <ele>568.76</ele>
        <time>2021-05-30T09:02:20Z</time>
      </trkpt>
      <trkpt lat="38.4319483023" lon="-6.3602730352">
        <ele>562.51</ele>
        <time>2021-05-30T09:02:24Z</time>
      </trkpt>
      <trkpt lat="38.4321652260" lon="-6.3604296930">
        <ele>563.95</ele>
        <time>2021-05-30T09:02:25Z</time>
      </trkpt>
      <trkpt lat="38.4326279908" lon="-6.3606901187">
        <ele>562.03</ele>
        <time>2021-05-30T09:02:27Z</time>
      </trkpt>
      <trkpt lat="38.4328753408" lon="-6.3607741892">
        <ele>562.51</ele>
        <time>2021-05-30T09:02:28Z</time>
      </trkpt>
      <trkpt lat="38.4331307374" lon="-6.3608273305">
        <ele>562.99</ele>
        <time>2021-05-30T09:02:29Z</time>
      </trkpt>
      <trkpt lat="38.4333930071" lon="-6.3608476985">
        <ele>562.51</ele>
        <time>2021-05-30T09:02:30Z</time>
      </trkpt>
      <trkpt lat="38.4336592164" lon="-6.3608336169">
        <ele>562.51</ele>
        <time>2021-05-30T09:02:31Z</time>
      </trkpt>
      <trkpt lat="38.4339244198" lon="-6.3607828226">
        <ele>562.03</ele>
        <time>2021-05-30T09:02:32Z</time>
      </trkpt>
      <trkpt lat="38.4341850132" lon="-6.3606956508">
        <ele>562.51</ele>
        <time>2021-05-30T09:02:33Z</time>
      </trkpt>
      <trkpt lat="38.4344400745" lon="-6.3605727721">
        <ele>560.59</ele>
        <time>2021-05-30T09:02:34Z</time>
      </trkpt>
      <trkpt lat="38.4346891847" lon="-6.3604238257">
        <ele>562.99</ele>
        <time>2021-05-30T09:02:35Z</time>
      </trkpt>
      <trkpt lat="38.4349370375" lon="-6.3602611329">
        <ele>563.47</ele>
        <time>2021-05-30T09:02:36Z</time>
      </trkpt>
      <trkpt lat="38.4361707699" lon="-6.3594511896">
        <ele>560.59</ele>
        <time>2021-05-30T09:02:41Z</time>
      </trkpt>
      <trkpt lat="38.4382401779" lon="-6.3581029605">
        <ele>560.59</ele>
        <time>2021-05-30T09:02:49Z</time>
      </trkpt>
      <trkpt lat="38.4398044087" lon="-6.3570901752">
        <ele>561.55</ele>
        <time>2021-05-30T09:02:55Z</time>
      </trkpt>
      <trkpt lat="38.4417279717" lon="-6.3558311295">
        <ele>557.22</ele>
        <time>2021-05-30T09:03:03Z</time>
      </trkpt>
      <trkpt lat="38.4428957384" lon="-6.3553295564">
        <ele>556.74</ele>
        <time>2021-05-30T09:03:08Z</time>
      </trkpt>
      <trkpt lat="38.4431459382" lon="-6.3553075958">
        <ele>557.22</ele>
        <time>2021-05-30T09:03:09Z</time>
      </trkpt>
      <trkpt lat="38.4433999099" lon="-6.3553153072">
        <ele>558.66</ele>
        <time>2021-05-30T09:03:10Z</time>
      </trkpt>
      <trkpt lat="38.4436586592" lon="-6.3553505950">
        <ele>559.62</ele>
        <time>2021-05-30T09:03:11Z</time>
      </trkpt>
      <trkpt lat="38.4439144749" lon="-6.3554087654">
        <ele>560.11</ele>
        <time>2021-05-30T09:03:12Z</time>
      </trkpt>
      <trkpt lat="38.4441666864" lon="-6.3554877229">
        <ele>561.07</ele>
        <time>2021-05-30T09:03:13Z</time>
      </trkpt>
      <trkpt lat="38.4444113541" lon="-6.3555914909">
        <ele>561.55</ele>
        <time>2021-05-30T09:03:14Z</time>
      </trkpt>
      <trkpt lat="38.4446379170" lon="-6.3557200693">
        <ele>560.11</ele>
        <time>2021-05-30T09:03:15Z</time>
      </trkpt>
      <trkpt lat="38.4448456205" lon="-6.3558714464">
        <ele>558.66</ele>
        <time>2021-05-30T09:03:16Z</time>
      </trkpt>
      <trkpt lat="38.4450413380" lon="-6.3560464606">
        <ele>558.66</ele>
        <time>2021-05-30T09:03:17Z</time>
      </trkpt>
      <trkpt lat="38.4452306014" lon="-6.3562374841">
        <ele>560.11</ele>
        <time>2021-05-30T09:03:18Z</time>
      </trkpt>
      <trkpt lat="38.4456136543" lon="-6.3566519693">
        <ele>560.59</ele>
        <time>2021-05-30T09:03:20Z</time>
      </trkpt>
      <trkpt lat="38.4461998846" lon="-6.3572797738">
        <ele>562.99</ele>
        <time>2021-05-30T09:03:23Z</time>
      </trkpt>
      <trkpt lat="38.4494693298" lon="-6.3607664779">
        <ele>558.66</ele>
        <time>2021-05-30T09:03:40Z</time>
      </trkpt>
      <trkpt lat="38.4514215589" lon="-6.3628496323">
        <ele>558.66</ele>
        <time>2021-05-30T09:03:51Z</time>
      </trkpt>
      <trkpt lat="38.4526051674" lon="-6.3639064226">
        <ele>562.51</ele>
        <time>2021-05-30T09:03:58Z</time>
      </trkpt>
      <trkpt lat="38.4528037347" lon="-6.3640220929">
        <ele>562.51</ele>
        <time>2021-05-30T09:03:59Z</time>
      </trkpt>
      <trkpt lat="38.4536524024" lon="-6.3642982766">
        <ele>564.43</ele>
        <time>2021-05-30T09:04:03Z</time>
      </trkpt>
      <trkpt lat="38.4549210034" lon="-6.3643802516">
        <ele>562.51</ele>
        <time>2021-05-30T09:04:09Z</time>
      </trkpt>
      <trkpt lat="38.4557090700" lon="-6.3644106779">
        <ele>558.18</ele>
        <time>2021-05-30T09:04:13Z</time>
      </trkpt>
      <trkpt lat="38.4562414885" lon="-6.3644151203">
        <ele>555.78</ele>
        <time>2021-05-30T09:04:16Z</time>
      </trkpt>
      <trkpt lat="38.4566883277" lon="-6.3644226640">
        <ele>552.41</ele>
        <time>2021-05-30T09:04:19Z</time>
      </trkpt>
      <trkpt lat="38.4570106119" lon="-6.3644082472">
        <ele>550.01</ele>
        <time>2021-05-30T09:04:22Z</time>
      </trkpt>
      <trkpt lat="38.4570831992" lon="-6.3643763959">
        <ele>549.05</ele>
        <time>2021-05-30T09:04:23Z</time>
      </trkpt>
      <trkpt lat="38.4571367595" lon="-6.3643254340">
        <ele>548.57</ele>
        <time>2021-05-30T09:04:24Z</time>
      </trkpt>
      <trkpt lat="38.4571718797" lon="-6.3642607257">
        <ele>548.09</ele>
        <time>2021-05-30T09:04:25Z</time>
      </trkpt>
      <trkpt lat="38.4571969416" lon="-6.3641796727">
        <ele>548.09</ele>
        <time>2021-05-30T09:04:26Z</time>
      </trkpt>
      <trkpt lat="38.4572240151" lon="-6.3640900701">
        <ele>548.57</ele>
        <time>2021-05-30T09:04:27Z</time>
      </trkpt>
      <trkpt lat="38.4574285336" lon="-6.3635918498">
        <ele>550.97</ele>
        <time>2021-05-30T09:04:32Z</time>
      </trkpt>
      <trkpt lat="38.4578472935" lon="-6.3625658210">
        <ele>554.82</ele>
        <time>2021-05-30T09:04:40Z</time>
      </trkpt>
      <trkpt lat="38.4581130836" lon="-6.3618091028">
        <ele>557.70</ele>
        <time>2021-05-30T09:04:44Z</time>
      </trkpt>
      <trkpt lat="38.4585543908" lon="-6.3602617197">
        <ele>558.18</ele>
        <time>2021-05-30T09:04:51Z</time>
      </trkpt>
      <trkpt lat="38.4586575720" lon="-6.3600649964">
        <ele>558.66</ele>
        <time>2021-05-30T09:04:52Z</time>
      </trkpt>
      <trkpt lat="38.4587781876" lon="-6.3598786667">
        <ele>558.66</ele>
        <time>2021-05-30T09:04:53Z</time>
      </trkpt>
      <trkpt lat="38.4596781526" lon="-6.3587620296">
        <ele>562.03</ele>
        <time>2021-05-30T09:04:59Z</time>
      </trkpt>
      <trkpt lat="38.4606155008" lon="-6.3576378487">
        <ele>565.87</ele>
        <time>2021-05-30T09:05:05Z</time>
      </trkpt>
      <trkpt lat="38.4613374341" lon="-6.3567139953">
        <ele>569.24</ele>
        <time>2021-05-30T09:05:10Z</time>
      </trkpt>
      <trkpt lat="38.4614614025" lon="-6.3565106504">
        <ele>569.24</ele>
        <time>2021-05-30T09:05:11Z</time>
      </trkpt>
      <trkpt lat="38.4618002828" lon="-6.3558378350">
        <ele>572.60</ele>
        <time>2021-05-30T09:05:14Z</time>
      </trkpt>
      <trkpt lat="38.4621420968" lon="-6.3551117945">
        <ele>574.53</ele>
        <time>2021-05-30T09:05:17Z</time>
      </trkpt>
      <trkpt lat="38.4626524709" lon="-6.3539032917">
        <ele>570.68</ele>
        <time>2021-05-30T09:05:22Z</time>
      </trkpt>
      <trkpt lat="38.4629170038" lon="-6.3531855494">
        <ele>566.83</ele>
        <time>2021-05-30T09:05:25Z</time>
      </trkpt>
      <trkpt lat="38.4630147368" lon="-6.3529515266">
        <ele>566.83</ele>
        <time>2021-05-30T09:05:26Z</time>
      </trkpt>
      <trkpt lat="38.4636003803" lon="-6.3518551737">
        <ele>562.51</ele>
        <time>2021-05-30T09:05:31Z</time>
      </trkpt>
      <trkpt lat="38.4642671607" lon="-6.3502489496">
        <ele>560.59</ele>
        <time>2021-05-30T09:05:38Z</time>
      </trkpt>
      <trkpt lat="38.4644261654" lon="-6.3498114981">
        <ele>559.14</ele>
        <time>2021-05-30T09:05:40Z</time>
      </trkpt>
      <trkpt lat="38.4645330347" lon="-6.3496168703">
        <ele>558.66</ele>
        <time>2021-05-30T09:05:41Z</time>
      </trkpt>
      <trkpt lat="38.4646606911" lon="-6.3494290318">
        <ele>558.66</ele>
        <time>2021-05-30T09:05:42Z</time>
      </trkpt>
      <trkpt lat="38.4655406233" lon="-6.3483392168">
        <ele>555.78</ele>
        <time>2021-05-30T09:05:48Z</time>
      </trkpt>
      <trkpt lat="38.4658841975" lon="-6.3478179462">
        <ele>554.34</ele>
        <time>2021-05-30T09:05:51Z</time>
      </trkpt>
      <trkpt lat="38.4659649990" lon="-6.3476298563">
        <ele>553.38</ele>
        <time>2021-05-30T09:05:52Z</time>
      </trkpt>
      <trkpt lat="38.4660246782" lon="-6.3474306185">
        <ele>551.93</ele>
        <time>2021-05-30T09:05:53Z</time>
      </trkpt>
      <trkpt lat="38.4660585411" lon="-6.3472300395">
        <ele>551.93</ele>
        <time>2021-05-30T09:05:54Z</time>
      </trkpt>
      <trkpt lat="38.4660679288" lon="-6.3470245991">
        <ele>550.49</ele>
        <time>2021-05-30T09:05:55Z</time>
      </trkpt>
      <trkpt lat="38.4660691023" lon="-6.3468034007">
        <ele>551.93</ele>
        <time>2021-05-30T09:05:56Z</time>
      </trkpt>
      <trkpt lat="38.4661326371" lon="-6.3449012116">
        <ele>551.45</ele>
        <time>2021-05-30T09:06:03Z</time>
      </trkpt>
      <trkpt lat="38.4662180487" lon="-6.3440723252">
        <ele>548.09</ele>
        <time>2021-05-30T09:06:06Z</time>
      </trkpt>
      <trkpt lat="38.4662453737" lon="-6.3413197082">
        <ele>549.05</ele>
        <time>2021-05-30T09:06:15Z</time>
      </trkpt>
      <trkpt lat="38.4663434420" lon="-6.3387182169">
        <ele>545.20</ele>
        <time>2021-05-30T09:06:23Z</time>
      </trkpt>
      <trkpt lat="38.4663840104" lon="-6.3379019871">
        <ele>540.40</ele>
        <time>2021-05-30T09:06:26Z</time>
      </trkpt>
      <trkpt lat="38.4664521553" lon="-6.3372231368">
        <ele>536.55</ele>
        <time>2021-05-30T09:06:29Z</time>
      </trkpt>
      <trkpt lat="38.4665135108" lon="-6.3370100688">
        <ele>537.99</ele>
        <time>2021-05-30T09:06:30Z</time>
      </trkpt>
      <trkpt lat="38.4666029457" lon="-6.3367939834">
        <ele>538.96</ele>
        <time>2021-05-30T09:06:31Z</time>
      </trkpt>
      <trkpt lat="38.4673350211" lon="-6.3352065347">
        <ele>535.11</ele>
        <time>2021-05-30T09:06:38Z</time>
      </trkpt>
      <trkpt lat="38.4674644377" lon="-6.3347388245">
        <ele>534.63</ele>
        <time>2021-05-30T09:06:40Z</time>
      </trkpt>
      <trkpt lat="38.4675951954" lon="-6.3342390954">
        <ele>535.11</ele>
        <time>2021-05-30T09:06:42Z</time>
      </trkpt>
      <trkpt lat="38.4683677554" lon="-6.3316029031">
        <ele>530.79</ele>
        <time>2021-05-30T09:06:52Z</time>
      </trkpt>
      <trkpt lat="38.4684341401" lon="-6.3313602470">
        <ele>529.82</ele>
        <time>2021-05-30T09:06:53Z</time>
      </trkpt>
      <trkpt lat="38.4684779774" lon="-6.3311228715">
        <ele>528.38</ele>
        <time>2021-05-30T09:06:54Z</time>
      </trkpt>
      <trkpt lat="38.4685741179" lon="-6.3306618668">
        <ele>526.46</ele>
        <time>2021-05-30T09:06:56Z</time>
      </trkpt>
      <trkpt lat="38.4686539974" lon="-6.3304344658">
        <ele>527.42</ele>
        <time>2021-05-30T09:06:57Z</time>
      </trkpt>
      <trkpt lat="38.4687525686" lon="-6.3302064780">
        <ele>526.94</ele>
        <time>2021-05-30T09:06:58Z</time>
      </trkpt>
      <trkpt lat="38.4689520579" lon="-6.3297343254">
        <ele>526.94</ele>
        <time>2021-05-30T09:07:00Z</time>
      </trkpt>
      <trkpt lat="38.4690262377" lon="-6.3294768333">
        <ele>527.42</ele>
        <time>2021-05-30T09:07:01Z</time>
      </trkpt>
      <trkpt lat="38.4692904353" lon="-6.3281044643">
        <ele>525.50</ele>
        <time>2021-05-30T09:07:06Z</time>
      </trkpt>
      <trkpt lat="38.4693843126" lon="-6.3267094642">
        <ele>520.69</ele>
        <time>2021-05-30T09:07:11Z</time>
      </trkpt>
      <trkpt lat="38.4693923593" lon="-6.3262235653">
        <ele>517.81</ele>
        <time>2021-05-30T09:07:13Z</time>
      </trkpt>
      <trkpt lat="38.4694325086" lon="-6.3257999439">
        <ele>516.85</ele>
        <time>2021-05-30T09:07:15Z</time>
      </trkpt>
      <trkpt lat="38.4694926068" lon="-6.3256077468">
        <ele>516.85</ele>
        <time>2021-05-30T09:07:16Z</time>
      </trkpt>
      <trkpt lat="38.4695801139" lon="-6.3254193217">
        <ele>518.29</ele>
        <time>2021-05-30T09:07:17Z</time>
      </trkpt>
      <trkpt lat="38.4696900845" lon="-6.3252273761">
        <ele>519.73</ele>
        <time>2021-05-30T09:07:18Z</time>
      </trkpt>
      <trkpt lat="38.4698081855" lon="-6.3250276353">
        <ele>521.17</ele>
        <time>2021-05-30T09:07:19Z</time>
      </trkpt>
      <trkpt lat="38.4702862892" lon="-6.3242114056">
        <ele>523.58</ele>
        <time>2021-05-30T09:07:23Z</time>
      </trkpt>
      <trkpt lat="38.4704224113" lon="-6.3240154367">
        <ele>524.54</ele>
        <time>2021-05-30T09:07:24Z</time>
      </trkpt>
      <trkpt lat="38.4705767222" lon="-6.3238344714">
        <ele>524.06</ele>
        <time>2021-05-30T09:07:25Z</time>
      </trkpt>
      <trkpt lat="38.4710378945" lon="-6.3232961018">
        <ele>525.02</ele>
        <time>2021-05-30T09:07:28Z</time>
      </trkpt>
      <trkpt lat="38.4711540677" lon="-6.3230936788">
        <ele>524.54</ele>
        <time>2021-05-30T09:07:29Z</time>
      </trkpt>
      <trkpt lat="38.4714671317" lon="-6.3224533852">
        <ele>525.98</ele>
        <time>2021-05-30T09:07:32Z</time>
      </trkpt>
      <trkpt lat="38.4720888175" lon="-6.3206908386">
        <ele>525.50</ele>
        <time>2021-05-30T09:07:39Z</time>
      </trkpt>
      <trkpt lat="38.4725236706" lon="-6.3192908093">
        <ele>525.98</ele>
        <time>2021-05-30T09:07:44Z</time>
      </trkpt>
      <trkpt lat="38.4728534985" lon="-6.3182643615">
        <ele>522.13</ele>
        <time>2021-05-30T09:07:48Z</time>
      </trkpt>
      <trkpt lat="38.4730365593" lon="-6.3176079746">
        <ele>519.25</ele>
        <time>2021-05-30T09:07:51Z</time>
      </trkpt>
      <trkpt lat="38.4730713442" lon="-6.3173882011">
        <ele>519.25</ele>
        <time>2021-05-30T09:07:52Z</time>
      </trkpt>
      <trkpt lat="38.4730897006" lon="-6.3171548489">
        <ele>519.25</ele>
        <time>2021-05-30T09:07:53Z</time>
      </trkpt>
      <trkpt lat="38.4732929617" lon="-6.3155828230">
        <ele>518.29</ele>
        <time>2021-05-30T09:07:59Z</time>
      </trkpt>
      <trkpt lat="38.4734885953" lon="-6.3149033021">
        <ele>517.81</ele>
        <time>2021-05-30T09:08:02Z</time>
      </trkpt>
      <trkpt lat="38.4735912737" lon="-6.3146988675">
        <ele>517.33</ele>
        <time>2021-05-30T09:08:03Z</time>
      </trkpt>
      <trkpt lat="38.4737185948" lon="-6.3145080954">
        <ele>517.33</ele>
        <time>2021-05-30T09:08:04Z</time>
      </trkpt>
      <trkpt lat="38.4738683794" lon="-6.3143235259">
        <ele>518.29</ele>
        <time>2021-05-30T09:08:05Z</time>
      </trkpt>
      <trkpt lat="38.4740340896" lon="-6.3141336758">
        <ele>520.21</ele>
        <time>2021-05-30T09:08:06Z</time>
      </trkpt>
      <trkpt lat="38.4746719524" lon="-6.3132908754">
        <ele>522.13</ele>
        <time>2021-05-30T09:08:10Z</time>
      </trkpt>
      <trkpt lat="38.4756835643" lon="-6.3114510477">
        <ele>520.21</ele>
        <time>2021-05-30T09:08:18Z</time>
      </trkpt>
      <trkpt lat="38.4760278929" lon="-6.3108107541">
        <ele>516.85</ele>
        <time>2021-05-30T09:08:21Z</time>
      </trkpt>
      <trkpt lat="38.4761458263" lon="-6.3105900586">
        <ele>516.85</ele>
        <time>2021-05-30T09:08:22Z</time>
      </trkpt>
      <trkpt lat="38.4768521693" lon="-6.3093373831">
        <ele>513.48</ele>
        <time>2021-05-30T09:08:28Z</time>
      </trkpt>
      <trkpt lat="38.4769808315" lon="-6.3091622014">
        <ele>513.48</ele>
        <time>2021-05-30T09:08:29Z</time>
      </trkpt>
      <trkpt lat="38.4773642197" lon="-6.3086900488">
        <ele>511.08</ele>
        <time>2021-05-30T09:08:32Z</time>
      </trkpt>
      <trkpt lat="38.4775984101" lon="-6.3083610591">
        <ele>509.64</ele>
        <time>2021-05-30T09:08:34Z</time>
      </trkpt>
      <trkpt lat="38.4780061059" lon="-6.3077379484">
        <ele>505.31</ele>
        <time>2021-05-30T09:08:38Z</time>
      </trkpt>
      <trkpt lat="38.4783177450" lon="-6.3072594255">
        <ele>501.46</ele>
        <time>2021-05-30T09:08:42Z</time>
      </trkpt>
      <trkpt lat="38.4783800226" lon="-6.3071531430">
        <ele>500.98</ele>
        <time>2021-05-30T09:08:43Z</time>
      </trkpt>
      <trkpt lat="38.4784313198" lon="-6.3070468605">
        <ele>500.98</ele>
        <time>2021-05-30T09:08:44Z</time>
      </trkpt>
      <trkpt lat="38.4785066731" lon="-6.3068539929">
        <ele>499.06</ele>
        <time>2021-05-30T09:08:46Z</time>
      </trkpt>
      <trkpt lat="38.4785565455" lon="-6.3067923021">
        <ele>498.58</ele>
        <time>2021-05-30T09:08:47Z</time>
      </trkpt>
      <trkpt lat="38.4786153026" lon="-6.3067679107">
        <ele>496.66</ele>
        <time>2021-05-30T09:08:48Z</time>
      </trkpt>
      <trkpt lat="38.4786807653" lon="-6.3067768794">
        <ele>497.14</ele>
        <time>2021-05-30T09:08:49Z</time>
      </trkpt>
      <trkpt lat="38.4787549451" lon="-6.3067959063">
        <ele>497.62</ele>
        <time>2021-05-30T09:08:50Z</time>
      </trkpt>
      <trkpt lat="38.4788382612" lon="-6.3067907933">
        <ele>498.58</ele>
        <time>2021-05-30T09:08:51Z</time>
      </trkpt>
      <trkpt lat="38.4789273608" lon="-6.3067427650">
        <ele>498.58</ele>
        <time>2021-05-30T09:08:52Z</time>
      </trkpt>
      <trkpt lat="38.4790333081" lon="-6.3066591974">
        <ele>500.98</ele>
        <time>2021-05-30T09:08:53Z</time>
      </trkpt>
      <trkpt lat="38.4794114996" lon="-6.3063485641">
        <ele>502.91</ele>
        <time>2021-05-30T09:08:56Z</time>
      </trkpt>
      <trkpt lat="38.4805295616" lon="-6.3054190949">
        <ele>505.31</ele>
        <time>2021-05-30T09:09:03Z</time>
      </trkpt>
      <trkpt lat="38.4811311308" lon="-6.3048646320">
        <ele>508.67</ele>
        <time>2021-05-30T09:09:07Z</time>
      </trkpt>
      <trkpt lat="38.4817076381" lon="-6.3041457161">
        <ele>508.67</ele>
        <time>2021-05-30T09:09:11Z</time>
      </trkpt>
      <trkpt lat="38.4818322770" lon="-6.3039295468">
        <ele>508.67</ele>
        <time>2021-05-30T09:09:12Z</time>
      </trkpt>
      <trkpt lat="38.4827065933" lon="-6.3023120910">
        <ele>504.83</ele>
        <time>2021-05-30T09:09:19Z</time>
      </trkpt>
      <trkpt lat="38.4829637501" lon="-6.3018760644">
        <ele>501.95</ele>
        <time>2021-05-30T09:09:21Z</time>
      </trkpt>
      <trkpt lat="38.4831159655" lon="-6.3016855437">
        <ele>502.43</ele>
        <time>2021-05-30T09:09:22Z</time>
      </trkpt>
      <trkpt lat="38.4832872916" lon="-6.3015117031">
        <ele>501.46</ele>
        <time>2021-05-30T09:09:23Z</time>
      </trkpt>
      <trkpt lat="38.4849200863" lon="-6.3001266774">
        <ele>500.50</ele>
        <time>2021-05-30T09:09:31Z</time>
      </trkpt>
      <trkpt lat="38.4857483860" lon="-6.2993764132">
        <ele>495.70</ele>
        <time>2021-05-30T09:09:35Z</time>
      </trkpt>
      <trkpt lat="38.4861076344" lon="-6.2989758421">
        <ele>495.22</ele>
        <time>2021-05-30T09:09:37Z</time>
      </trkpt>
      <trkpt lat="38.4862587601" lon="-6.2987916078">
        <ele>496.18</ele>
        <time>2021-05-30T09:09:38Z</time>
      </trkpt>
      <trkpt lat="38.4864240512" lon="-6.2986201141">
        <ele>496.18</ele>
        <time>2021-05-30T09:09:39Z</time>
      </trkpt>
      <trkpt lat="38.4880093206" lon="-6.2969431467">
        <ele>493.29</ele>
        <time>2021-05-30T09:09:48Z</time>
      </trkpt>
      <trkpt lat="38.4884887654" lon="-6.2963874266">
        <ele>491.37</ele>
        <time>2021-05-30T09:09:51Z</time>
      </trkpt>
      <trkpt lat="38.4895645827" lon="-6.2947713118">
        <ele>489.45</ele>
        <time>2021-05-30T09:09:58Z</time>
      </trkpt>
      <trkpt lat="38.4899773914" lon="-6.2940633763">
        <ele>487.53</ele>
        <time>2021-05-30T09:10:01Z</time>
      </trkpt>
      <trkpt lat="38.4904008452" lon="-6.2934517488">
        <ele>487.53</ele>
        <time>2021-05-30T09:10:04Z</time>
      </trkpt>
      <trkpt lat="38.4914598987" lon="-6.2921743467">
        <ele>484.64</ele>
        <time>2021-05-30T09:10:10Z</time>
      </trkpt>
      <trkpt lat="38.4924280923" lon="-6.2909762375">
        <ele>487.05</ele>
        <time>2021-05-30T09:10:16Z</time>
      </trkpt>
      <trkpt lat="38.4926024359" lon="-6.2907792628">
        <ele>486.56</ele>
        <time>2021-05-30T09:10:17Z</time>
      </trkpt>
      <trkpt lat="38.4937455598" lon="-6.2896564230">
        <ele>483.68</ele>
        <time>2021-05-30T09:10:23Z</time>
      </trkpt>
      <trkpt lat="38.4945653938" lon="-6.2889091764">
        <ele>479.84</ele>
        <time>2021-05-30T09:10:27Z</time>
      </trkpt>
      <trkpt lat="38.4951900132" lon="-6.2884008139">
        <ele>477.91</ele>
        <time>2021-05-30T09:10:30Z</time>
      </trkpt>
      <trkpt lat="38.4955934342" lon="-6.2881045137">
        <ele>475.51</ele>
        <time>2021-05-30T09:10:32Z</time>
      </trkpt>
      <trkpt lat="38.4959402774" lon="-6.2877851631">
        <ele>471.18</ele>
        <time>2021-05-30T09:10:34Z</time>
      </trkpt>
      <trkpt lat="38.4960707836" lon="-6.2876016833">
        <ele>469.26</ele>
        <time>2021-05-30T09:10:35Z</time>
      </trkpt>
      <trkpt lat="38.4961814247" lon="-6.2873989251">
        <ele>470.70</ele>
        <time>2021-05-30T09:10:36Z</time>
      </trkpt>
      <trkpt lat="38.4965150245" lon="-6.2867235113">
        <ele>473.11</ele>
        <time>2021-05-30T09:10:39Z</time>
      </trkpt>
      <trkpt lat="38.4967487957" lon="-6.2863055058">
        <ele>472.63</ele>
        <time>2021-05-30T09:10:41Z</time>
      </trkpt>
      <trkpt lat="38.4973810427" lon="-6.2854046188">
        <ele>475.99</ele>
        <time>2021-05-30T09:10:45Z</time>
      </trkpt>
      <trkpt lat="38.4984048083" lon="-6.2841919251">
        <ele>471.66</ele>
        <time>2021-05-30T09:10:51Z</time>
      </trkpt>
      <trkpt lat="38.4987565130" lon="-6.2838262226">
        <ele>468.30</ele>
        <time>2021-05-30T09:10:53Z</time>
      </trkpt>
      <trkpt lat="38.4989170264" lon="-6.2836840656">
        <ele>464.93</ele>
        <time>2021-05-30T09:10:54Z</time>
      </trkpt>
      <trkpt lat="38.4990885202" lon="-6.2835747655">
        <ele>464.93</ele>
        <time>2021-05-30T09:10:55Z</time>
      </trkpt>
      <trkpt lat="38.4992773645" lon="-6.2834972329">
        <ele>464.45</ele>
        <time>2021-05-30T09:10:56Z</time>
      </trkpt>
      <trkpt lat="38.5005884618" lon="-6.2829928938">
        <ele>463.97</ele>
        <time>2021-05-30T09:11:02Z</time>
      </trkpt>
      <trkpt lat="38.5017715674" lon="-6.2820474152">
        <ele>462.53</ele>
        <time>2021-05-30T09:11:08Z</time>
      </trkpt>
      <trkpt lat="38.5035684798" lon="-6.2801981159">
        <ele>462.53</ele>
        <time>2021-05-30T09:11:17Z</time>
      </trkpt>
      <trkpt lat="38.5053204652" lon="-6.2782929093">
        <ele>459.65</ele>
        <time>2021-05-30T09:11:26Z</time>
      </trkpt>
      <trkpt lat="38.5058714915" lon="-6.2777134683">
        <ele>456.28</ele>
        <time>2021-05-30T09:11:29Z</time>
      </trkpt>
      <trkpt lat="38.5060553905" lon="-6.2775471713">
        <ele>456.28</ele>
        <time>2021-05-30T09:11:30Z</time>
      </trkpt>
      <trkpt lat="38.5077441763" lon="-6.2761726230">
        <ele>455.80</ele>
        <time>2021-05-30T09:11:38Z</time>
      </trkpt>
      <trkpt lat="38.5083171632" lon="-6.2755240314">
        <ele>451.00</ele>
        <time>2021-05-30T09:11:41Z</time>
      </trkpt>
      <trkpt lat="38.5085076001" lon="-6.2753018271">
        <ele>451.96</ele>
        <time>2021-05-30T09:11:42Z</time>
      </trkpt>
      <trkpt lat="38.5088958498" lon="-6.2748487853">
        <ele>452.92</ele>
        <time>2021-05-30T09:11:44Z</time>
      </trkpt>
      <trkpt lat="38.5102113895" lon="-6.2733407132">
        <ele>449.55</ele>
        <time>2021-05-30T09:11:51Z</time>
      </trkpt>
      <trkpt lat="38.5105666984" lon="-6.2729389686">
        <ele>445.71</ele>
        <time>2021-05-30T09:11:53Z</time>
      </trkpt>
      <trkpt lat="38.5110161360" lon="-6.2724130042">
        <ele>440.90</ele>
        <time>2021-05-30T09:11:56Z</time>
      </trkpt>
      <trkpt lat="38.5111214966" lon="-6.2722505629">
        <ele>438.98</ele>
        <time>2021-05-30T09:11:57Z</time>
      </trkpt>
      <trkpt lat="38.5112086684" lon="-6.2720711064">
        <ele>439.94</ele>
        <time>2021-05-30T09:11:58Z</time>
      </trkpt>
      <trkpt lat="38.5112818424" lon="-6.2718648277">
        <ele>440.90</ele>
        <time>2021-05-30T09:11:59Z</time>
      </trkpt>
      <trkpt lat="38.5115393344" lon="-6.2708661240">
        <ele>443.31</ele>
        <time>2021-05-30T09:12:03Z</time>
      </trkpt>
      <trkpt lat="38.5117803980" lon="-6.2701617088">
        <ele>441.38</ele>
        <time>2021-05-30T09:12:06Z</time>
      </trkpt>
      <trkpt lat="38.5119027738" lon="-6.2699416839">
        <ele>442.82</ele>
        <time>2021-05-30T09:12:07Z</time>
      </trkpt>
      <trkpt lat="38.5120489541" lon="-6.2697299570">
        <ele>441.86</ele>
        <time>2021-05-30T09:12:08Z</time>
      </trkpt>
      <trkpt lat="38.5126389563" lon="-6.2689313293">
        <ele>441.86</ele>
        <time>2021-05-30T09:12:12Z</time>
      </trkpt>
      <trkpt lat="38.5127386171" lon="-6.2687077839">
        <ele>441.38</ele>
        <time>2021-05-30T09:12:13Z</time>
      </trkpt>
      <trkpt lat="38.5128161497" lon="-6.2684606854">
        <ele>440.42</ele>
        <time>2021-05-30T09:12:14Z</time>
      </trkpt>
      <trkpt lat="38.5129606538" lon="-6.2679124251">
        <ele>444.27</ele>
        <time>2021-05-30T09:12:16Z</time>
      </trkpt>
      <trkpt lat="38.5130402818" lon="-6.2676483113">
        <ele>442.34</ele>
        <time>2021-05-30T09:12:17Z</time>
      </trkpt>
      <trkpt lat="38.5131312255" lon="-6.2674097624">
        <ele>441.86</ele>
        <time>2021-05-30T09:12:18Z</time>
      </trkpt>
      <trkpt lat="38.5132417828" lon="-6.2671802659">
        <ele>442.34</ele>
        <time>2021-05-30T09:12:19Z</time>
      </trkpt>
      <trkpt lat="38.5136376601" lon="-6.2664538901">
        <ele>443.31</ele>
        <time>2021-05-30T09:12:22Z</time>
      </trkpt>
      <trkpt lat="38.5141518898" lon="-6.2654403504">
        <ele>440.42</ele>
        <time>2021-05-30T09:12:26Z</time>
      </trkpt>
      <trkpt lat="38.5142354574" lon="-6.2651679385">
        <ele>440.90</ele>
        <time>2021-05-30T09:12:27Z</time>
      </trkpt>
      <trkpt lat="38.5144218709" lon="-6.2642849050">
        <ele>443.79</ele>
        <time>2021-05-30T09:12:30Z</time>
      </trkpt>
      <trkpt lat="38.5148931015" lon="-6.2628168147">
        <ele>443.79</ele>
        <time>2021-05-30T09:12:36Z</time>
      </trkpt>
      <trkpt lat="38.5153089277" lon="-6.2619099766">
        <ele>438.50</ele>
        <time>2021-05-30T09:12:40Z</time>
      </trkpt>
      <trkpt lat="38.5154244304" lon="-6.2617198750">
        <ele>436.58</ele>
        <time>2021-05-30T09:12:41Z</time>
      </trkpt>
      <trkpt lat="38.5155660007" lon="-6.2615459505">
        <ele>436.10</ele>
        <time>2021-05-30T09:12:42Z</time>
      </trkpt>
      <trkpt lat="38.5157387517" lon="-6.2613827549">
        <ele>437.06</ele>
        <time>2021-05-30T09:12:43Z</time>
      </trkpt>
      <trkpt lat="38.5165590048" lon="-6.2606880628">
        <ele>440.90</ele>
        <time>2021-05-30T09:12:47Z</time>
      </trkpt>
      <trkpt lat="38.5167857353" lon="-6.2604968715">
        <ele>440.90</ele>
        <time>2021-05-30T09:12:48Z</time>
      </trkpt>
      <trkpt lat="38.5178884584" lon="-6.2595736049">
        <ele>437.54</ele>
        <time>2021-05-30T09:12:53Z</time>
      </trkpt>
      <trkpt lat="38.5181054659" lon="-6.2594103254">
        <ele>437.06</ele>
        <time>2021-05-30T09:12:54Z</time>
      </trkpt>
      <trkpt lat="38.5189208575" lon="-6.2588251010">
        <ele>434.65</ele>
        <time>2021-05-30T09:12:58Z</time>
      </trkpt>
      <trkpt lat="38.5201188829" lon="-6.2575476989">
        <ele>432.25</ele>
        <time>2021-05-30T09:13:05Z</time>
      </trkpt>
      <trkpt lat="38.5203788895" lon="-6.2571488041">
        <ele>428.40</ele>
        <time>2021-05-30T09:13:07Z</time>
      </trkpt>
      <trkpt lat="38.5205167718" lon="-6.2569572777">
        <ele>429.37</ele>
        <time>2021-05-30T09:13:08Z</time>
      </trkpt>
      <trkpt lat="38.5206725076" lon="-6.2567758933">
        <ele>429.85</ele>
        <time>2021-05-30T09:13:09Z</time>
      </trkpt>
      <trkpt lat="38.5222471319" lon="-6.2552590203">
        <ele>428.40</ele>
        <time>2021-05-30T09:13:18Z</time>
      </trkpt>
      <trkpt lat="38.5236155614" lon="-6.2541163992">
        <ele>428.89</ele>
        <time>2021-05-30T09:13:26Z</time>
      </trkpt>
      <trkpt lat="38.5239391867" lon="-6.2538637687">
        <ele>427.44</ele>
        <time>2021-05-30T09:13:28Z</time>
      </trkpt>
      <trkpt lat="38.5246493015" lon="-6.2532842439">
        <ele>423.60</ele>
        <time>2021-05-30T09:13:33Z</time>
      </trkpt>
      <trkpt lat="38.5247762036" lon="-6.2531563360">
        <ele>424.08</ele>
        <time>2021-05-30T09:13:34Z</time>
      </trkpt>
      <trkpt lat="38.5252490267" lon="-6.2525908090">
        <ele>422.64</ele>
        <time>2021-05-30T09:13:38Z</time>
      </trkpt>
      <trkpt lat="38.5267578531" lon="-6.2509313598">
        <ele>425.04</ele>
        <time>2021-05-30T09:13:50Z</time>
      </trkpt>
      <trkpt lat="38.5275793634" lon="-6.2497512717">
        <ele>426.96</ele>
        <time>2021-05-30T09:13:56Z</time>
      </trkpt>
      <trkpt lat="38.5281288810" lon="-6.2489027716">
        <ele>422.16</ele>
        <time>2021-05-30T09:14:00Z</time>
      </trkpt>
      <trkpt lat="38.5283851158" lon="-6.2485580239">
        <ele>419.75</ele>
        <time>2021-05-30T09:14:02Z</time>
      </trkpt>
      <trkpt lat="38.5285252612" lon="-6.2484265119">
        <ele>419.27</ele>
        <time>2021-05-30T09:14:03Z</time>
      </trkpt>
      <trkpt lat="38.5286785662" lon="-6.2483236659">
        <ele>419.75</ele>
        <time>2021-05-30T09:14:04Z</time>
      </trkpt>
      <trkpt lat="38.5288439412" lon="-6.2482369971">
        <ele>419.75</ele>
        <time>2021-05-30T09:14:05Z</time>
      </trkpt>
      <trkpt lat="38.5290190391" lon="-6.2481514178">
        <ele>420.23</ele>
        <time>2021-05-30T09:14:06Z</time>
      </trkpt>
      <trkpt lat="38.5295729153" lon="-6.2478718814">
        <ele>421.68</ele>
        <time>2021-05-30T09:14:09Z</time>
      </trkpt>
      <trkpt lat="38.5310695041" lon="-6.2471969705">
        <ele>419.27</ele>
        <time>2021-05-30T09:14:17Z</time>
      </trkpt>
      <trkpt lat="38.5320007335" lon="-6.2470113952">
        <ele>417.35</ele>
        <time>2021-05-30T09:14:22Z</time>
      </trkpt>
      <trkpt lat="38.5321633425" lon="-6.2469492014">
        <ele>416.87</ele>
        <time>2021-05-30T09:14:23Z</time>
      </trkpt>
      <trkpt lat="38.5323239397" lon="-6.2468553241">
        <ele>417.83</ele>
        <time>2021-05-30T09:14:24Z</time>
      </trkpt>
      <trkpt lat="38.5328281950" lon="-6.2465376500">
        <ele>418.31</ele>
        <time>2021-05-30T09:14:27Z</time>
      </trkpt>
      <trkpt lat="38.5330236610" lon="-6.2464622967">
        <ele>418.79</ele>
        <time>2021-05-30T09:14:28Z</time>
      </trkpt>
      <trkpt lat="38.5337670520" lon="-6.2463091593">
        <ele>416.39</ele>
        <time>2021-05-30T09:14:32Z</time>
      </trkpt>
      <trkpt lat="38.5348851979" lon="-6.2462620530">
        <ele>415.43</ele>
        <time>2021-05-30T09:14:38Z</time>
      </trkpt>
      <trkpt lat="38.5350647382" lon="-6.2462108396">
        <ele>414.95</ele>
        <time>2021-05-30T09:14:39Z</time>
      </trkpt>
      <trkpt lat="38.5352392495" lon="-6.2461411022">
        <ele>415.43</ele>
        <time>2021-05-30T09:14:40Z</time>
      </trkpt>
      <trkpt lat="38.5355860926" lon="-6.2460153736">
        <ele>415.43</ele>
        <time>2021-05-30T09:14:42Z</time>
      </trkpt>
      <trkpt lat="38.5357621126" lon="-6.2459893059">
        <ele>415.43</ele>
        <time>2021-05-30T09:14:43Z</time>
      </trkpt>
      <trkpt lat="38.5362383723" lon="-6.2459277827">
        <ele>412.54</ele>
        <time>2021-05-30T09:14:46Z</time>
      </trkpt>
      <trkpt lat="38.5363728181" lon="-6.2458528485">
        <ele>413.02</ele>
        <time>2021-05-30T09:14:47Z</time>
      </trkpt>
      <trkpt lat="38.5364987981" lon="-6.2457463983">
        <ele>413.98</ele>
        <time>2021-05-30T09:14:48Z</time>
      </trkpt>
      <trkpt lat="38.5366187431" lon="-6.2456267048">
        <ele>413.98</ele>
        <time>2021-05-30T09:14:49Z</time>
      </trkpt>
      <trkpt lat="38.5368504189" lon="-6.2454345077">
        <ele>413.98</ele>
        <time>2021-05-30T09:14:51Z</time>
      </trkpt>
      <trkpt lat="38.5369649995" lon="-6.2453800254">
        <ele>413.50</ele>
        <time>2021-05-30T09:14:52Z</time>
      </trkpt>
      <trkpt lat="38.5370760597" lon="-6.2453515269">
        <ele>413.50</ele>
        <time>2021-05-30T09:14:53Z</time>
      </trkpt>
      <trkpt lat="38.5375445243" lon="-6.2452346832">
        <ele>413.98</ele>
        <time>2021-05-30T09:14:57Z</time>
      </trkpt>
      <trkpt lat="38.5376823228" lon="-6.2451714836">
        <ele>414.95</ele>
        <time>2021-05-30T09:14:58Z</time>
      </trkpt>
      <trkpt lat="38.5378214624" lon="-6.2450863235">
        <ele>415.43</ele>
        <time>2021-05-30T09:14:59Z</time>
      </trkpt>
      <trkpt lat="38.5385184176" lon="-6.2446129136">
        <ele>414.47</ele>
        <time>2021-05-30T09:15:04Z</time>
      </trkpt>
      <trkpt lat="38.5386751592" lon="-6.2445542403">
        <ele>414.47</ele>
        <time>2021-05-30T09:15:05Z</time>
      </trkpt>
      <trkpt lat="38.5393571109" lon="-6.2443665694">
        <ele>413.50</ele>
        <time>2021-05-30T09:15:09Z</time>
      </trkpt>
      <trkpt lat="38.5402049404" lon="-6.2439298723">
        <ele>413.50</ele>
        <time>2021-05-30T09:15:14Z</time>
      </trkpt>
      <trkpt lat="38.5403772723" lon="-6.2438706122">
        <ele>412.54</ele>
        <time>2021-05-30T09:15:15Z</time>
      </trkpt>
      <trkpt lat="38.5415413510" lon="-6.2435486633">
        <ele>415.43</ele>
        <time>2021-05-30T09:15:21Z</time>
      </trkpt>
      <trkpt lat="38.5436625592" lon="-6.2427744269">
        <ele>415.43</ele>
        <time>2021-05-30T09:15:31Z</time>
      </trkpt>
      <trkpt lat="38.5443999991" lon="-6.2423896138">
        <ele>412.06</ele>
        <time>2021-05-30T09:15:35Z</time>
      </trkpt>
      <trkpt lat="38.5445872508" lon="-6.2423342932">
        <ele>412.54</ele>
        <time>2021-05-30T09:15:36Z</time>
      </trkpt>
      <trkpt lat="38.5458920617" lon="-6.2420962472">
        <ele>410.14</ele>
        <time>2021-05-30T09:15:43Z</time>
      </trkpt>
      <trkpt lat="38.5473334976" lon="-6.2416752242">
        <ele>410.62</ele>
        <time>2021-05-30T09:15:52Z</time>
      </trkpt>
      <trkpt lat="38.5474712960" lon="-6.2416321412">
        <ele>410.62</ele>
        <time>2021-05-30T09:15:53Z</time>
      </trkpt>
      <trkpt lat="38.5487554036" lon="-6.2413788401">
        <ele>407.74</ele>
        <time>2021-05-30T09:16:03Z</time>
      </trkpt>
      <trkpt lat="38.5490408074" lon="-6.2413692009">
        <ele>405.81</ele>
        <time>2021-05-30T09:16:06Z</time>
      </trkpt>
      <trkpt lat="38.5493676178" lon="-6.2413735595">
        <ele>403.89</ele>
        <time>2021-05-30T09:16:10Z</time>
      </trkpt>
      <trkpt lat="38.5494847968" lon="-6.2413722184">
        <ele>402.45</ele>
        <time>2021-05-30T09:16:12Z</time>
      </trkpt>
      <trkpt lat="38.5495246947" lon="-6.2413587235">
        <ele>402.45</ele>
        <time>2021-05-30T09:16:13Z</time>
      </trkpt>
      <trkpt lat="38.5495495051" lon="-6.2413373496">
        <ele>402.45</ele>
        <time>2021-05-30T09:16:14Z</time>
      </trkpt>
      <trkpt lat="38.5495635867" lon="-6.2413113657">
        <ele>401.97</ele>
        <time>2021-05-30T09:16:15Z</time>
      </trkpt>
      <trkpt lat="38.5495721363" lon="-6.2412796821">
        <ele>401.97</ele>
        <time>2021-05-30T09:16:16Z</time>
      </trkpt>
      <trkpt lat="38.5495733935" lon="-6.2412339170">
        <ele>402.45</ele>
        <time>2021-05-30T09:16:17Z</time>
      </trkpt>
      <trkpt lat="38.5495615751" lon="-6.2411672808">
        <ele>403.41</ele>
        <time>2021-05-30T09:16:18Z</time>
      </trkpt>
      <trkpt lat="38.5495376028" lon="-6.2410784326">
        <ele>403.41</ele>
        <time>2021-05-30T09:16:19Z</time>
      </trkpt>
      <trkpt lat="38.5495061707" lon="-6.2409755867">
        <ele>403.89</ele>
        <time>2021-05-30T09:16:20Z</time>
      </trkpt>
      <trkpt lat="38.5494783428" lon="-6.2408589106">
        <ele>404.37</ele>
        <time>2021-05-30T09:16:21Z</time>
      </trkpt>
      <trkpt lat="38.5492514446" lon="-6.2396919820">
        <ele>404.37</ele>
        <time>2021-05-30T09:16:29Z</time>
      </trkpt>
      <trkpt lat="38.5492568091" lon="-6.2395429518">
        <ele>403.41</ele>
        <time>2021-05-30T09:16:30Z</time>
      </trkpt>
      <trkpt lat="38.5492857266" lon="-6.2394044828">
        <ele>403.41</ele>
        <time>2021-05-30T09:16:31Z</time>
      </trkpt>
      <trkpt lat="38.5493363533" lon="-6.2392765749">
        <ele>403.41</ele>
        <time>2021-05-30T09:16:32Z</time>
      </trkpt>
      <trkpt lat="38.5494076833" lon="-6.2391626649">
        <ele>402.93</ele>
        <time>2021-05-30T09:16:33Z</time>
      </trkpt>
      <trkpt lat="38.5494964477" lon="-6.2390604056">
        <ele>403.41</ele>
        <time>2021-05-30T09:16:34Z</time>
      </trkpt>
      <trkpt lat="38.5495966114" lon="-6.2389627565">
        <ele>404.85</ele>
        <time>2021-05-30T09:16:35Z</time>
      </trkpt>
      <trkpt lat="38.5502753779" lon="-6.2382851634">
        <ele>401.49</ele>
        <time>2021-05-30T09:16:43Z</time>
      </trkpt>
      <trkpt lat="38.5504295211" lon="-6.2380621210">
        <ele>401.97</ele>
        <time>2021-05-30T09:16:46Z</time>
      </trkpt>
      <trkpt lat="38.5508699063" lon="-6.2371455599">
        <ele>404.85</ele>
        <time>2021-05-30T09:16:55Z</time>
      </trkpt>
      <trkpt lat="38.5511248000" lon="-6.2366102915">
        <ele>407.26</ele>
        <time>2021-05-30T09:17:00Z</time>
      </trkpt>
      <trkpt lat="38.5514558014" lon="-6.2360889371">
        <ele>408.70</ele>
        <time>2021-05-30T09:17:06Z</time>
      </trkpt>
      <trkpt lat="38.5516065080" lon="-6.2358965725">
        <ele>409.66</ele>
        <time>2021-05-30T09:17:08Z</time>
      </trkpt>
      <trkpt lat="38.5521688499" lon="-6.2352306303">
        <ele>412.06</ele>
        <time>2021-05-30T09:17:15Z</time>
      </trkpt>
      <trkpt lat="38.5526816547" lon="-6.2346529495">
        <ele>414.47</ele>
        <time>2021-05-30T09:17:21Z</time>
      </trkpt>
      <trkpt lat="38.5532242991" lon="-6.2340328563">
        <ele>418.31</ele>
        <time>2021-05-30T09:17:27Z</time>
      </trkpt>
      <trkpt lat="38.5533916019" lon="-6.2338010967">
        <ele>420.71</ele>
        <time>2021-05-30T09:17:29Z</time>
      </trkpt>
      <trkpt lat="38.5537086055" lon="-6.2332662474">
        <ele>425.52</ele>
        <time>2021-05-30T09:17:33Z</time>
      </trkpt>
      <trkpt lat="38.5540664289" lon="-6.2326548714">
        <ele>430.33</ele>
        <time>2021-05-30T09:17:37Z</time>
      </trkpt>
      <trkpt lat="38.5543831810" lon="-6.2321134843">
        <ele>433.69</ele>
        <time>2021-05-30T09:17:40Z</time>
      </trkpt>
      <trkpt lat="38.5547071416" lon="-6.2315010186">
        <ele>438.02</ele>
        <time>2021-05-30T09:17:43Z</time>
      </trkpt>
      <trkpt lat="38.5550043639" lon="-6.2308112718">
        <ele>442.34</ele>
        <time>2021-05-30T09:17:46Z</time>
      </trkpt>
      <trkpt lat="38.5554046836" lon="-6.2298145797">
        <ele>445.71</ele>
        <time>2021-05-30T09:17:50Z</time>
      </trkpt>
      <trkpt lat="38.5556508601" lon="-6.2293226458">
        <ele>449.07</ele>
        <time>2021-05-30T09:17:52Z</time>
      </trkpt>
      <trkpt lat="38.5559471603" lon="-6.2288256828">
        <ele>450.03</ele>
        <time>2021-05-30T09:17:54Z</time>
      </trkpt>
      <trkpt lat="38.5562784970" lon="-6.2283309828">
        <ele>451.48</ele>
        <time>2021-05-30T09:17:56Z</time>
      </trkpt>
      <trkpt lat="38.5569523182" lon="-6.2273447681">
        <ele>455.32</ele>
        <time>2021-05-30T09:18:00Z</time>
      </trkpt>
      <trkpt lat="38.5571197886" lon="-6.2270966638">
        <ele>453.40</ele>
        <time>2021-05-30T09:18:01Z</time>
      </trkpt>
      <trkpt lat="38.5584356636" lon="-6.2250529043">
        <ele>454.84</ele>
        <time>2021-05-30T09:18:09Z</time>
      </trkpt>
      <trkpt lat="38.5599233676" lon="-6.2220567930">
        <ele>452.92</ele>
        <time>2021-05-30T09:18:19Z</time>
      </trkpt>
      <trkpt lat="38.5602137167" lon="-6.2214496080">
        <ele>449.07</ele>
        <time>2021-05-30T09:18:21Z</time>
      </trkpt>
      <trkpt lat="38.5603561252" lon="-6.2211526372">
        <ele>448.59</ele>
        <time>2021-05-30T09:18:22Z</time>
      </trkpt>
      <trkpt lat="38.5606359970" lon="-6.2205681670">
        <ele>445.23</ele>
        <time>2021-05-30T09:18:24Z</time>
      </trkpt>
      <trkpt lat="38.5613046214" lon="-6.2191333529">
        <ele>441.86</ele>
        <time>2021-05-30T09:18:29Z</time>
      </trkpt>
      <trkpt lat="38.5614126641" lon="-6.2188311853">
        <ele>441.86</ele>
        <time>2021-05-30T09:18:30Z</time>
      </trkpt>
      <trkpt lat="38.5616843216" lon="-6.2171596661">
        <ele>443.31</ele>
        <time>2021-05-30T09:18:35Z</time>
      </trkpt>
      <trkpt lat="38.5616250616" lon="-6.2154184934">
        <ele>436.58</ele>
        <time>2021-05-30T09:18:40Z</time>
      </trkpt>
      <trkpt lat="38.5616633669" lon="-6.2147269025">
        <ele>433.21</ele>
        <time>2021-05-30T09:18:42Z</time>
      </trkpt>
      <trkpt lat="38.5618663765" lon="-6.2137006223">
        <ele>429.37</ele>
        <time>2021-05-30T09:18:45Z</time>
      </trkpt>
      <trkpt lat="38.5622435622" lon="-6.2127381284">
        <ele>425.52</ele>
        <time>2021-05-30T09:18:48Z</time>
      </trkpt>
      <trkpt lat="38.5625859629" lon="-6.2121794745">
        <ele>422.16</ele>
        <time>2021-05-30T09:18:50Z</time>
      </trkpt>
      <trkpt lat="38.5631957464" lon="-6.2114552781">
        <ele>418.31</ele>
        <time>2021-05-30T09:18:53Z</time>
      </trkpt>
      <trkpt lat="38.5636027716" lon="-6.2110101152">
        <ele>415.43</ele>
        <time>2021-05-30T09:18:55Z</time>
      </trkpt>
      <trkpt lat="38.5639844835" lon="-6.2105373759">
        <ele>412.06</ele>
        <time>2021-05-30T09:18:57Z</time>
      </trkpt>
      <trkpt lat="38.5648569558" lon="-6.2087502703">
        <ele>411.10</ele>
        <time>2021-05-30T09:19:03Z</time>
      </trkpt>
      <trkpt lat="38.5650395975" lon="-6.2080471125">
        <ele>408.70</ele>
        <time>2021-05-30T09:19:05Z</time>
      </trkpt>
      <trkpt lat="38.5654712655" lon="-6.2062358670">
        <ele>405.81</ele>
        <time>2021-05-30T09:19:10Z</time>
      </trkpt>
      <trkpt lat="38.5655590240" lon="-6.2058777921">
        <ele>405.81</ele>
        <time>2021-05-30T09:19:11Z</time>
      </trkpt>
      <trkpt lat="38.5660006665" lon="-6.2040978111">
        <ele>402.45</ele>
        <time>2021-05-30T09:19:16Z</time>
      </trkpt>
      <trkpt lat="38.5666792654" lon="-6.2013516482">
        <ele>401.97</ele>
        <time>2021-05-30T09:19:24Z</time>
      </trkpt>
      <trkpt lat="38.5668493342" lon="-6.2006665953">
        <ele>405.33</ele>
        <time>2021-05-30T09:19:26Z</time>
      </trkpt>
      <trkpt lat="38.5669346619" lon="-6.2003204226">
        <ele>403.89</ele>
        <time>2021-05-30T09:19:27Z</time>
      </trkpt>
      <trkpt lat="38.5675156955" lon="-6.1979931034">
        <ele>401.01</ele>
        <time>2021-05-30T09:19:34Z</time>
      </trkpt>
      <trkpt lat="38.5677746125" lon="-6.1969396658">
        <ele>397.16</ele>
        <time>2021-05-30T09:19:38Z</time>
      </trkpt>
      <trkpt lat="38.5679282527" lon="-6.1963120289">
        <ele>393.80</ele>
        <time>2021-05-30T09:19:41Z</time>
      </trkpt>
      <trkpt lat="38.5680720862" lon="-6.1958472524">
        <ele>390.91</ele>
        <time>2021-05-30T09:19:44Z</time>
      </trkpt>
      <trkpt lat="38.5681321844" lon="-6.1957288999">
        <ele>389.95</ele>
        <time>2021-05-30T09:19:45Z</time>
      </trkpt>
      <trkpt lat="38.5682025924" lon="-6.1956232041">
        <ele>388.99</ele>
        <time>2021-05-30T09:19:46Z</time>
      </trkpt>
      <trkpt lat="38.5682937875" lon="-6.1955242977">
        <ele>388.99</ele>
        <time>2021-05-30T09:19:47Z</time>
      </trkpt>
      <trkpt lat="38.5684007406" lon="-6.1954352818">
        <ele>388.51</ele>
        <time>2021-05-30T09:19:48Z</time>
      </trkpt>
      <trkpt lat="38.5685089510" lon="-6.1953596771">
        <ele>388.03</ele>
        <time>2021-05-30T09:19:49Z</time>
      </trkpt>
      <trkpt lat="38.5692533478" lon="-6.1948412564">
        <ele>387.07</ele>
        <time>2021-05-30T09:19:58Z</time>
      </trkpt>
      <trkpt lat="38.5699263308" lon="-6.1943723727">
        <ele>388.03</ele>
        <time>2021-05-30T09:20:08Z</time>
      </trkpt>
      <trkpt lat="38.5708010662" lon="-6.1938222684">
        <ele>390.91</ele>
        <time>2021-05-30T09:20:18Z</time>
      </trkpt>
      <trkpt lat="38.5717686731" lon="-6.1933136545">
        <ele>387.07</ele>
        <time>2021-05-30T09:20:25Z</time>
      </trkpt>
      <trkpt lat="38.5724532232" lon="-6.1926915497">
        <ele>384.18</ele>
        <time>2021-05-30T09:20:30Z</time>
      </trkpt>
      <trkpt lat="38.5725861602" lon="-6.1925215647">
        <ele>383.70</ele>
        <time>2021-05-30T09:20:31Z</time>
      </trkpt>
      <trkpt lat="38.5733148828" lon="-6.1911845673">
        <ele>382.26</ele>
        <time>2021-05-30T09:20:37Z</time>
      </trkpt>
      <trkpt lat="38.5739141051" lon="-6.1898493301">
        <ele>382.26</ele>
        <time>2021-05-30T09:20:42Z</time>
      </trkpt>
      <trkpt lat="38.5740587767" lon="-6.1896035727">
        <ele>383.70</ele>
        <time>2021-05-30T09:20:43Z</time>
      </trkpt>
      <trkpt lat="38.5742232297" lon="-6.1893772613">
        <ele>384.18</ele>
        <time>2021-05-30T09:20:44Z</time>
      </trkpt>
      <trkpt lat="38.5744069610" lon="-6.1891719885">
        <ele>382.26</ele>
        <time>2021-05-30T09:20:45Z</time>
      </trkpt>
      <trkpt lat="38.5746046901" lon="-6.1889895983">
        <ele>379.86</ele>
        <time>2021-05-30T09:20:46Z</time>
      </trkpt>
      <trkpt lat="38.5748076998" lon="-6.1888271570">
        <ele>377.94</ele>
        <time>2021-05-30T09:20:47Z</time>
      </trkpt>
      <trkpt lat="38.5752039962" lon="-6.1885192897">
        <ele>376.01</ele>
        <time>2021-05-30T09:20:49Z</time>
      </trkpt>
      <trkpt lat="38.5755608138" lon="-6.1881518271">
        <ele>374.09</ele>
        <time>2021-05-30T09:20:51Z</time>
      </trkpt>
      <trkpt lat="38.5757184774" lon="-6.1879333947">
        <ele>373.13</ele>
        <time>2021-05-30T09:20:52Z</time>
      </trkpt>
      <trkpt lat="38.5758597963" lon="-6.1876914091">
        <ele>372.65</ele>
        <time>2021-05-30T09:20:53Z</time>
      </trkpt>
      <trkpt lat="38.5759788193" lon="-6.1874303129">
        <ele>370.73</ele>
        <time>2021-05-30T09:20:54Z</time>
      </trkpt>
      <trkpt lat="38.5760702658" lon="-6.1871540453">
        <ele>368.80</ele>
        <time>2021-05-30T09:20:55Z</time>
      </trkpt>
      <trkpt lat="38.5761353094" lon="-6.1868669651">
        <ele>367.84</ele>
        <time>2021-05-30T09:20:56Z</time>
      </trkpt>
      <trkpt lat="38.5761721898" lon="-6.1865731794">
        <ele>367.36</ele>
        <time>2021-05-30T09:20:57Z</time>
      </trkpt>
      <trkpt lat="38.5761809070" lon="-6.1862788908">
        <ele>367.84</ele>
        <time>2021-05-30T09:20:58Z</time>
      </trkpt>
      <trkpt lat="38.5761617962" lon="-6.1859866139">
        <ele>367.84</ele>
        <time>2021-05-30T09:20:59Z</time>
      </trkpt>
      <trkpt lat="38.5761156958" lon="-6.1856979411">
        <ele>368.80</ele>
        <time>2021-05-30T09:21:00Z</time>
      </trkpt>
      <trkpt lat="38.5760452040" lon="-6.1854134593">
        <ele>370.24</ele>
        <time>2021-05-30T09:21:01Z</time>
      </trkpt>
      <trkpt lat="38.5759478062" lon="-6.1851329170">
        <ele>371.69</ele>
        <time>2021-05-30T09:21:02Z</time>
      </trkpt>
      <trkpt lat="38.5758235026" lon="-6.1848568171">
        <ele>372.17</ele>
        <time>2021-05-30T09:21:03Z</time>
      </trkpt>
      <trkpt lat="38.5756810103" lon="-6.1845821422">
        <ele>373.61</ele>
        <time>2021-05-30T09:21:04Z</time>
      </trkpt>
      <trkpt lat="38.5755268671" lon="-6.1843054555">
        <ele>375.05</ele>
        <time>2021-05-30T09:21:05Z</time>
      </trkpt>
      <trkpt lat="38.5752117075" lon="-6.1837385036">
        <ele>378.90</ele>
        <time>2021-05-30T09:21:07Z</time>
      </trkpt>
      <trkpt lat="38.5748970509" lon="-6.1831716355">
        <ele>379.86</ele>
        <time>2021-05-30T09:21:09Z</time>
      </trkpt>
      <trkpt lat="38.5744048655" lon="-6.1822917871">
        <ele>384.18</ele>
        <time>2021-05-30T09:21:12Z</time>
      </trkpt>
      <trkpt lat="38.5738997720" lon="-6.1813790817">
        <ele>387.07</ele>
        <time>2021-05-30T09:21:15Z</time>
      </trkpt>
      <trkpt lat="38.5733810160" lon="-6.1804394703">
        <ele>391.87</ele>
        <time>2021-05-30T09:21:18Z</time>
      </trkpt>
      <trkpt lat="38.5730314068" lon="-6.1798052117">
        <ele>397.16</ele>
        <time>2021-05-30T09:21:20Z</time>
      </trkpt>
      <trkpt lat="38.5726880003" lon="-6.1791795027">
        <ele>399.08</ele>
        <time>2021-05-30T09:21:22Z</time>
      </trkpt>
      <trkpt lat="38.5718533304" lon="-6.1777228117">
        <ele>402.93</ele>
        <time>2021-05-30T09:21:27Z</time>
      </trkpt>
      <trkpt lat="38.5715037212" lon="-6.1771481484">
        <ele>403.89</ele>
        <time>2021-05-30T09:21:29Z</time>
      </trkpt>
      <trkpt lat="38.5709507670" lon="-6.1762930267">
        <ele>402.45</ele>
        <time>2021-05-30T09:21:32Z</time>
      </trkpt>
      <trkpt lat="38.5702815559" lon="-6.1750880443">
        <ele>398.60</ele>
        <time>2021-05-30T09:21:36Z</time>
      </trkpt>
      <trkpt lat="38.5699099023" lon="-6.1740676314">
        <ele>395.72</ele>
        <time>2021-05-30T09:21:39Z</time>
      </trkpt>
      <trkpt lat="38.5695678368" lon="-6.1725981999">
        <ele>394.28</ele>
        <time>2021-05-30T09:21:43Z</time>
      </trkpt>
      <trkpt lat="38.5692517553" lon="-6.1711243261">
        <ele>390.91</ele>
        <time>2021-05-30T09:21:47Z</time>
      </trkpt>
      <trkpt lat="38.5691667628" lon="-6.1707665026">
        <ele>387.55</ele>
        <time>2021-05-30T09:21:48Z</time>
      </trkpt>
      <trkpt lat="38.5689550359" lon="-6.1700787675">
        <ele>383.70</ele>
        <time>2021-05-30T09:21:50Z</time>
      </trkpt>
      <trkpt lat="38.5686749965" lon="-6.1694148369">
        <ele>379.86</ele>
        <time>2021-05-30T09:21:52Z</time>
      </trkpt>
      <trkpt lat="38.5676430166" lon="-6.1675543059">
        <ele>376.01</ele>
        <time>2021-05-30T09:21:58Z</time>
      </trkpt>
      <trkpt lat="38.5674829222" lon="-6.1672383081">
        <ele>377.45</ele>
        <time>2021-05-30T09:21:59Z</time>
      </trkpt>
      <trkpt lat="38.5667133797" lon="-6.1651109811">
        <ele>377.45</ele>
        <time>2021-05-30T09:22:05Z</time>
      </trkpt>
      <trkpt lat="38.5666052531" lon="-6.1647319514">
        <ele>373.13</ele>
        <time>2021-05-30T09:22:06Z</time>
      </trkpt>
      <trkpt lat="38.5664940253" lon="-6.1643530894">
        <ele>368.80</ele>
        <time>2021-05-30T09:22:07Z</time>
      </trkpt>
      <trkpt lat="38.5663810372" lon="-6.1639771610">
        <ele>371.69</ele>
        <time>2021-05-30T09:22:08Z</time>
      </trkpt>
      <trkpt lat="38.5658678971" lon="-6.1625008564">
        <ele>367.84</ele>
        <time>2021-05-30T09:22:12Z</time>
      </trkpt>
      <trkpt lat="38.5657214653" lon="-6.1621392611">
        <ele>367.36</ele>
        <time>2021-05-30T09:22:13Z</time>
      </trkpt>
      <trkpt lat="38.5652626399" lon="-6.1610691436">
        <ele>364.00</ele>
        <time>2021-05-30T09:22:16Z</time>
      </trkpt>
      <trkpt lat="38.5642239545" lon="-6.1585604399">
        <ele>368.32</ele>
        <time>2021-05-30T09:22:23Z</time>
      </trkpt>
      <trkpt lat="38.5637046117" lon="-6.1570978817">
        <ele>365.44</ele>
        <time>2021-05-30T09:22:27Z</time>
      </trkpt>
      <trkpt lat="38.5634397436" lon="-6.1563769542">
        <ele>364.00</ele>
        <time>2021-05-30T09:22:29Z</time>
      </trkpt>
      <trkpt lat="38.5626667645" lon="-6.1546284892">
        <ele>360.15</ele>
        <time>2021-05-30T09:22:34Z</time>
      </trkpt>
      <trkpt lat="38.5619222000" lon="-6.1533011310">
        <ele>356.79</ele>
        <time>2021-05-30T09:22:38Z</time>
      </trkpt>
      <trkpt lat="38.5613191221" lon="-6.1523324344">
        <ele>353.42</ele>
        <time>2021-05-30T09:22:41Z</time>
      </trkpt>
      <trkpt lat="38.5609185509" lon="-6.1516784783">
        <ele>352.46</ele>
        <time>2021-05-30T09:22:43Z</time>
      </trkpt>
      <trkpt lat="38.5603153054" lon="-6.1506967060">
        <ele>356.31</ele>
        <time>2021-05-30T09:22:46Z</time>
      </trkpt>
      <trkpt lat="38.5595047753" lon="-6.1494485568">
        <ele>351.98</ele>
        <time>2021-05-30T09:22:50Z</time>
      </trkpt>
      <trkpt lat="38.5590547509" lon="-6.1488926690">
        <ele>351.02</ele>
        <time>2021-05-30T09:22:52Z</time>
      </trkpt>
      <trkpt lat="38.5578253772" lon="-6.1477882694">
        <ele>353.90</ele>
        <time>2021-05-30T09:22:57Z</time>
      </trkpt>
      <trkpt lat="38.5570906196" lon="-6.1472283583">
        <ele>351.98</ele>
        <time>2021-05-30T09:23:00Z</time>
      </trkpt>
      <trkpt lat="38.5566516593" lon="-6.1468458921">
        <ele>350.54</ele>
        <time>2021-05-30T09:23:02Z</time>
      </trkpt>
      <trkpt lat="38.5564577021" lon="-6.1466231849">
        <ele>349.58</ele>
        <time>2021-05-30T09:23:03Z</time>
      </trkpt>
      <trkpt lat="38.5562841129" lon="-6.1463720631">
        <ele>348.62</ele>
        <time>2021-05-30T09:23:04Z</time>
      </trkpt>
      <trkpt lat="38.5561309755" lon="-6.1460992321">
        <ele>347.65</ele>
        <time>2021-05-30T09:23:05Z</time>
      </trkpt>
      <trkpt lat="38.5560014751" lon="-6.1458074581">
        <ele>347.17</ele>
        <time>2021-05-30T09:23:06Z</time>
      </trkpt>
      <trkpt lat="38.5558964498" lon="-6.1455051228">
        <ele>347.65</ele>
        <time>2021-05-30T09:23:07Z</time>
      </trkpt>
      <trkpt lat="38.5558189172" lon="-6.1451934837">
        <ele>345.25</ele>
        <time>2021-05-30T09:23:08Z</time>
      </trkpt>
      <trkpt lat="38.5557705536" lon="-6.1448679306">
        <ele>344.77</ele>
        <time>2021-05-30T09:23:09Z</time>
      </trkpt>
      <trkpt lat="38.5557428095" lon="-6.1445301399">
        <ele>346.69</ele>
        <time>2021-05-30T09:23:10Z</time>
      </trkpt>
      <trkpt lat="38.5557434801" lon="-6.1441863142">
        <ele>345.25</ele>
        <time>2021-05-30T09:23:11Z</time>
      </trkpt>
      <trkpt lat="38.5557657760" lon="-6.1438390519">
        <ele>345.73</ele>
        <time>2021-05-30T09:23:12Z</time>
      </trkpt>
      <trkpt lat="38.5558047518" lon="-6.1434891913">
        <ele>344.77</ele>
        <time>2021-05-30T09:23:13Z</time>
      </trkpt>
      <trkpt lat="38.5560111981" lon="-6.1417834740">
        <ele>341.89</ele>
        <time>2021-05-30T09:23:18Z</time>
      </trkpt>
      <trkpt lat="38.5560054146" lon="-6.1414704937">
        <ele>340.92</ele>
        <time>2021-05-30T09:23:19Z</time>
      </trkpt>
      <trkpt lat="38.5559641756" lon="-6.1411670689">
        <ele>339.48</ele>
        <time>2021-05-30T09:23:20Z</time>
      </trkpt>
      <trkpt lat="38.5558899119" lon="-6.1408674996">
        <ele>340.44</ele>
        <time>2021-05-30T09:23:21Z</time>
      </trkpt>
      <trkpt lat="38.5557953641" lon="-6.1405692715">
        <ele>342.37</ele>
        <time>2021-05-30T09:23:22Z</time>
      </trkpt>
      <trkpt lat="38.5554864909" lon="-6.1396226194">
        <ele>346.21</ele>
        <time>2021-05-30T09:23:25Z</time>
      </trkpt>
      <trkpt lat="38.5552762728" lon="-6.1389555037">
        <ele>350.54</ele>
        <time>2021-05-30T09:23:27Z</time>
      </trkpt>
      <trkpt lat="38.5551695712" lon="-6.1386167910">
        <ele>353.90</ele>
        <time>2021-05-30T09:23:28Z</time>
      </trkpt>
      <trkpt lat="38.5546715185" lon="-6.1369513907">
        <ele>355.83</ele>
        <time>2021-05-30T09:23:33Z</time>
      </trkpt>
      <trkpt lat="38.5545977578" lon="-6.1366115883">
        <ele>354.86</ele>
        <time>2021-05-30T09:23:34Z</time>
      </trkpt>
      <trkpt lat="38.5544309579" lon="-6.1339953449">
        <ele>356.31</ele>
        <time>2021-05-30T09:23:41Z</time>
      </trkpt>
      <trkpt lat="38.5543323867" lon="-6.1313246191">
        <ele>359.19</ele>
        <time>2021-05-30T09:23:48Z</time>
      </trkpt>
      <trkpt lat="38.5542709474" lon="-6.1298241746">
        <ele>363.04</ele>
        <time>2021-05-30T09:23:52Z</time>
      </trkpt>
      <trkpt lat="38.5542249307" lon="-6.1286926176">
        <ele>367.84</ele>
        <time>2021-05-30T09:23:55Z</time>
      </trkpt>
      <trkpt lat="38.5541940015" lon="-6.1279402580">
        <ele>371.69</ele>
        <time>2021-05-30T09:23:57Z</time>
      </trkpt>
      <trkpt lat="38.5541624017" lon="-6.1271939334">
        <ele>375.53</ele>
        <time>2021-05-30T09:23:59Z</time>
      </trkpt>
      <trkpt lat="38.5541343223" lon="-6.1264761072">
        <ele>378.42</ele>
        <time>2021-05-30T09:24:01Z</time>
      </trkpt>
      <trkpt lat="38.5542865377" lon="-6.1236800719">
        <ele>377.45</ele>
        <time>2021-05-30T09:24:09Z</time>
      </trkpt>
      <trkpt lat="38.5545348097" lon="-6.1226219404">
        <ele>374.57</ele>
        <time>2021-05-30T09:24:12Z</time>
      </trkpt>
      <trkpt lat="38.5548855085" lon="-6.1211663391">
        <ele>377.94</ele>
        <time>2021-05-30T09:24:16Z</time>
      </trkpt>
      <trkpt lat="38.5553289112" lon="-6.1193157826">
        <ele>381.30</ele>
        <time>2021-05-30T09:24:21Z</time>
      </trkpt>
      <trkpt lat="38.5554186814" lon="-6.1189474817">
        <ele>381.30</ele>
        <time>2021-05-30T09:24:22Z</time>
      </trkpt>
      <trkpt lat="38.5557734035" lon="-6.1174989212">
        <ele>386.11</ele>
        <time>2021-05-30T09:24:26Z</time>
      </trkpt>
      <trkpt lat="38.5558617488" lon="-6.1171421036">
        <ele>386.59</ele>
        <time>2021-05-30T09:24:27Z</time>
      </trkpt>
      <trkpt lat="38.5562246013" lon="-6.1153824907">
        <ele>389.47</ele>
        <time>2021-05-30T09:24:32Z</time>
      </trkpt>
      <trkpt lat="38.5563211609" lon="-6.1143037397">
        <ele>393.32</ele>
        <time>2021-05-30T09:24:35Z</time>
      </trkpt>
      <trkpt lat="38.5562990326" lon="-6.1131894495">
        <ele>397.64</ele>
        <time>2021-05-30T09:24:38Z</time>
      </trkpt>
      <trkpt lat="38.5562391859" lon="-6.1124311388">
        <ele>398.60</ele>
        <time>2021-05-30T09:24:40Z</time>
      </trkpt>
      <trkpt lat="38.5561437998" lon="-6.1112768669">
        <ele>395.72</ele>
        <time>2021-05-30T09:24:43Z</time>
      </trkpt>
      <trkpt lat="38.5559630021" lon="-6.1090093944">
        <ele>394.28</ele>
        <time>2021-05-30T09:24:49Z</time>
      </trkpt>
      <trkpt lat="38.5558511037" lon="-6.1075779330">
        <ele>392.36</ele>
        <time>2021-05-30T09:24:53Z</time>
      </trkpt>
      <trkpt lat="38.5557705536" lon="-6.1065449473">
        <ele>393.80</ele>
        <time>2021-05-30T09:24:56Z</time>
      </trkpt>
      <trkpt lat="38.5555843078" lon="-6.1052006576">
        <ele>397.16</ele>
        <time>2021-05-30T09:25:00Z</time>
      </trkpt>
      <trkpt lat="38.5551877599" lon="-6.1031492706">
        <ele>392.84</ele>
        <time>2021-05-30T09:25:06Z</time>
      </trkpt>
      <trkpt lat="38.5551775340" lon="-6.1028041877">
        <ele>391.39</ele>
        <time>2021-05-30T09:25:07Z</time>
      </trkpt>
      <trkpt lat="38.5551892687" lon="-6.1024622060">
        <ele>391.39</ele>
        <time>2021-05-30T09:25:08Z</time>
      </trkpt>
      <trkpt lat="38.5552221257" lon="-6.1021278519">
        <ele>391.39</ele>
        <time>2021-05-30T09:25:09Z</time>
      </trkpt>
      <trkpt lat="38.5552730877" lon="-6.1017971858">
        <ele>391.39</ele>
        <time>2021-05-30T09:25:10Z</time>
      </trkpt>
      <trkpt lat="38.5553450044" lon="-6.1014703754">
        <ele>393.32</ele>
        <time>2021-05-30T09:25:11Z</time>
      </trkpt>
      <trkpt lat="38.5554313380" lon="-6.1011512764">
        <ele>394.28</ele>
        <time>2021-05-30T09:25:12Z</time>
      </trkpt>
      <trkpt lat="38.5555258859" lon="-6.1008360330">
        <ele>394.28</ele>
        <time>2021-05-30T09:25:13Z</time>
      </trkpt>
      <trkpt lat="38.5558002256" lon="-6.0998856928">
        <ele>398.60</ele>
        <time>2021-05-30T09:25:16Z</time>
      </trkpt>
      <trkpt lat="38.5560543649" lon="-6.0989180021">
        <ele>401.97</ele>
        <time>2021-05-30T09:25:19Z</time>
      </trkpt>
      <trkpt lat="38.5562173091" lon="-6.0982627049">
        <ele>405.33</ele>
        <time>2021-05-30T09:25:21Z</time>
      </trkpt>
      <trkpt lat="38.5563806724" lon="-6.0976083297">
        <ele>408.22</ele>
        <time>2021-05-30T09:25:23Z</time>
      </trkpt>
      <trkpt lat="38.5565437004" lon="-6.0969569720">
        <ele>412.54</ele>
        <time>2021-05-30T09:25:25Z</time>
      </trkpt>
      <trkpt lat="38.5567018669" lon="-6.0963064525">
        <ele>414.47</ele>
        <time>2021-05-30T09:25:27Z</time>
      </trkpt>
      <trkpt lat="38.5569986701" lon="-6.0950152203">
        <ele>418.79</ele>
        <time>2021-05-30T09:25:31Z</time>
      </trkpt>
      <trkpt lat="38.5570539907" lon="-6.0946860630">
        <ele>418.31</ele>
        <time>2021-05-30T09:25:32Z</time>
      </trkpt>
      <trkpt lat="38.5571856704" lon="-6.0926452372">
        <ele>422.64</ele>
        <time>2021-05-30T09:25:38Z</time>
      </trkpt>
      <trkpt lat="38.5571701638" lon="-6.0922962986">
        <ele>422.16</ele>
        <time>2021-05-30T09:25:39Z</time>
      </trkpt>
      <trkpt lat="38.5571053717" lon="-6.0916006844">
        <ele>423.60</ele>
        <time>2021-05-30T09:25:41Z</time>
      </trkpt>
      <trkpt lat="38.5568618774" lon="-6.0902351048">
        <ele>427.92</ele>
        <time>2021-05-30T09:25:45Z</time>
      </trkpt>
      <trkpt lat="38.5566778947" lon="-6.0895767901">
        <ele>428.40</ele>
        <time>2021-05-30T09:25:47Z</time>
      </trkpt>
      <trkpt lat="38.5560820252" lon="-6.0880158283">
        <ele>433.21</ele>
        <time>2021-05-30T09:25:52Z</time>
      </trkpt>
      <trkpt lat="38.5556972958" lon="-6.0870965850">
        <ele>437.06</ele>
        <time>2021-05-30T09:25:55Z</time>
      </trkpt>
      <trkpt lat="38.5551010072" lon="-6.0849622171">
        <ele>440.42</ele>
        <time>2021-05-30T09:26:02Z</time>
      </trkpt>
      <trkpt lat="38.5551831499" lon="-6.0833134130">
        <ele>442.82</ele>
        <time>2021-05-30T09:26:07Z</time>
      </trkpt>
      <trkpt lat="38.5558013991" lon="-6.0813958012">
        <ele>444.75</ele>
        <time>2021-05-30T09:26:13Z</time>
      </trkpt>
      <trkpt lat="38.5560080968" lon="-6.0807958245">
        <ele>447.15</ele>
        <time>2021-05-30T09:26:15Z</time>
      </trkpt>
      <trkpt lat="38.5560806841" lon="-6.0804946627">
        <ele>447.63</ele>
        <time>2021-05-30T09:26:16Z</time>
      </trkpt>
      <trkpt lat="38.5561272036" lon="-6.0801920760">
        <ele>449.55</ele>
        <time>2021-05-30T09:26:17Z</time>
      </trkpt>
      <trkpt lat="38.5561489128" lon="-6.0798893217">
        <ele>451.48</ele>
        <time>2021-05-30T09:26:18Z</time>
      </trkpt>
      <trkpt lat="38.5561446380" lon="-6.0796014871">
        <ele>451.00</ele>
        <time>2021-05-30T09:26:19Z</time>
      </trkpt>
      <trkpt lat="38.5561204981" lon="-6.0793360323">
        <ele>451.00</ele>
        <time>2021-05-30T09:26:20Z</time>
      </trkpt>
      <trkpt lat="38.5560831148" lon="-6.0790940467">
        <ele>452.44</ele>
        <time>2021-05-30T09:26:21Z</time>
      </trkpt>
      <trkpt lat="38.5560394451" lon="-6.0788778774">
        <ele>451.00</ele>
        <time>2021-05-30T09:26:22Z</time>
      </trkpt>
      <trkpt lat="38.5558551271" lon="-6.0781883821">
        <ele>452.44</ele>
        <time>2021-05-30T09:26:26Z</time>
      </trkpt>
      <trkpt lat="38.5553745925" lon="-6.0763580259">
        <ele>451.00</ele>
        <time>2021-05-30T09:26:38Z</time>
      </trkpt>
      <trkpt lat="38.5553774424" lon="-6.0760321375">
        <ele>451.48</ele>
        <time>2021-05-30T09:26:40Z</time>
      </trkpt>
      <trkpt lat="38.5553983971" lon="-6.0758680198">
        <ele>453.40</ele>
        <time>2021-05-30T09:26:41Z</time>
      </trkpt>
      <trkpt lat="38.5554252192" lon="-6.0757119488">
        <ele>453.40</ele>
        <time>2021-05-30T09:26:42Z</time>
      </trkpt>
      <trkpt lat="38.5556011554" lon="-6.0747704096">
        <ele>457.24</ele>
        <time>2021-05-30T09:26:49Z</time>
      </trkpt>
      <trkpt lat="38.5556184221" lon="-6.0746362992">
        <ele>458.21</ele>
        <time>2021-05-30T09:26:50Z</time>
      </trkpt>
      <trkpt lat="38.5556253791" lon="-6.0745083075">
        <ele>458.21</ele>
        <time>2021-05-30T09:26:51Z</time>
      </trkpt>
      <trkpt lat="38.5556209367" lon="-6.0743849259">
        <ele>458.69</ele>
        <time>2021-05-30T09:26:52Z</time>
      </trkpt>
      <trkpt lat="38.5555986408" lon="-6.0742710996">
        <ele>458.69</ele>
        <time>2021-05-30T09:26:53Z</time>
      </trkpt>
      <trkpt lat="38.5555657838" lon="-6.0741788149">
        <ele>458.21</ele>
        <time>2021-05-30T09:26:54Z</time>
      </trkpt>
      <trkpt lat="38.5555252992" lon="-6.0741022043">
        <ele>458.69</ele>
        <time>2021-05-30T09:26:55Z</time>
      </trkpt>
      <trkpt lat="38.5554830544" lon="-6.0740383342">
        <ele>458.69</ele>
        <time>2021-05-30T09:26:56Z</time>
      </trkpt>
      <trkpt lat="38.5554376245" lon="-6.0739831813">
        <ele>458.21</ele>
        <time>2021-05-30T09:26:57Z</time>
      </trkpt>
      <trkpt lat="38.5553831421" lon="-6.0739315487">
        <ele>458.69</ele>
        <time>2021-05-30T09:26:58Z</time>
      </trkpt>
      <trkpt lat="38.5553203616" lon="-6.0738771502">
        <ele>459.65</ele>
        <time>2021-05-30T09:26:59Z</time>
      </trkpt>
      <trkpt lat="38.5552497860" lon="-6.0738193989">
        <ele>460.13</ele>
        <time>2021-05-30T09:27:00Z</time>
      </trkpt>
      <trkpt lat="38.5546270106" lon="-6.0733080190">
        <ele>463.49</ele>
        <time>2021-05-30T09:27:07Z</time>
      </trkpt>
      <trkpt lat="38.5537550412" lon="-6.0725611914">
        <ele>464.93</ele>
        <time>2021-05-30T09:27:16Z</time>
      </trkpt>
      <trkpt lat="38.5530293360" lon="-6.0719468817">
        <ele>464.45</ele>
        <time>2021-05-30T09:27:27Z</time>
      </trkpt>
      <trkpt lat="38.5527931340" lon="-6.0716932453">
        <ele>463.01</ele>
        <time>2021-05-30T09:27:32Z</time>
      </trkpt>
      <trkpt lat="38.5527617857" lon="-6.0716354940">
        <ele>463.01</ele>
        <time>2021-05-30T09:27:33Z</time>
      </trkpt>
      <trkpt lat="38.5524047166" lon="-6.0708568990">
        <ele>460.61</ele>
        <time>2021-05-30T09:27:45Z</time>
      </trkpt>
      <trkpt lat="38.5520579573" lon="-6.0701543279">
        <ele>460.13</ele>
        <time>2021-05-30T09:27:53Z</time>
      </trkpt>
      <trkpt lat="38.5517816059" lon="-6.0695893876">
        <ele>463.01</ele>
        <time>2021-05-30T09:27:59Z</time>
      </trkpt>
      <trkpt lat="38.5514731519" lon="-6.0689306539">
        <ele>465.42</ele>
        <time>2021-05-30T09:28:06Z</time>
      </trkpt>
      <trkpt lat="38.5512687173" lon="-6.0685334355">
        <ele>468.78</ele>
        <time>2021-05-30T09:28:10Z</time>
      </trkpt>
      <trkpt lat="38.5512065236" lon="-6.0684425756">
        <ele>469.26</ele>
        <time>2021-05-30T09:28:11Z</time>
      </trkpt>
      <trkpt lat="38.5511367023" lon="-6.0683643725">
        <ele>469.26</ele>
        <time>2021-05-30T09:28:12Z</time>
      </trkpt>
      <trkpt lat="38.5510597564" lon="-6.0682977363">
        <ele>468.78</ele>
        <time>2021-05-30T09:28:13Z</time>
      </trkpt>
      <trkpt lat="38.5509846546" lon="-6.0682437569">
        <ele>469.74</ele>
        <time>2021-05-30T09:28:14Z</time>
      </trkpt>
      <trkpt lat="38.5509170964" lon="-6.0681997519">
        <ele>469.26</ele>
        <time>2021-05-30T09:28:15Z</time>
      </trkpt>
      <trkpt lat="38.5508490354" lon="-6.0681622010">
        <ele>469.74</ele>
        <time>2021-05-30T09:28:16Z</time>
      </trkpt>
      <trkpt lat="38.5505048744" lon="-6.0679846723">
        <ele>473.11</ele>
        <time>2021-05-30T09:28:20Z</time>
      </trkpt>
      <trkpt lat="38.5504147690" lon="-6.0679330397">
        <ele>473.11</ele>
        <time>2021-05-30T09:28:21Z</time>
      </trkpt>
      <trkpt lat="38.5500328895" lon="-6.0677187145">
        <ele>475.99</ele>
        <time>2021-05-30T09:28:25Z</time>
      </trkpt>
      <trkpt lat="38.5499233380" lon="-6.0676538385">
        <ele>476.47</ele>
        <time>2021-05-30T09:28:26Z</time>
      </trkpt>
      <trkpt lat="38.5490361974" lon="-6.0671087634">
        <ele>474.07</ele>
        <time>2021-05-30T09:28:34Z</time>
      </trkpt>
      <trkpt lat="38.5488309246" lon="-6.0669550393">
        <ele>475.51</ele>
        <time>2021-05-30T09:28:36Z</time>
      </trkpt>
      <trkpt lat="38.5487458482" lon="-6.0668657720">
        <ele>475.51</ele>
        <time>2021-05-30T09:28:37Z</time>
      </trkpt>
      <trkpt lat="38.5486782063" lon="-6.0667682905">
        <ele>474.55</ele>
        <time>2021-05-30T09:28:38Z</time>
      </trkpt>
      <trkpt lat="38.5486186948" lon="-6.0666629300">
        <ele>474.07</ele>
        <time>2021-05-30T09:28:39Z</time>
      </trkpt>
      <trkpt lat="38.5485643800" lon="-6.0665511992">
        <ele>474.55</ele>
        <time>2021-05-30T09:28:40Z</time>
      </trkpt>
      <trkpt lat="38.5482169501" lon="-6.0657410044">
        <ele>470.70</ele>
        <time>2021-05-30T09:28:47Z</time>
      </trkpt>
      <trkpt lat="38.5481666587" lon="-6.0656317044">
        <ele>470.70</ele>
        <time>2021-05-30T09:28:48Z</time>
      </trkpt>
      <trkpt lat="38.5478027165" lon="-6.0648171511">
        <ele>473.59</ele>
        <time>2021-05-30T09:28:55Z</time>
      </trkpt>
      <trkpt lat="38.5477228370" lon="-6.0647169873">
        <ele>474.07</ele>
        <time>2021-05-30T09:28:56Z</time>
      </trkpt>
      <trkpt lat="38.5476285405" lon="-6.0646340065">
        <ele>474.07</ele>
        <time>2021-05-30T09:28:57Z</time>
      </trkpt>
      <trkpt lat="38.5475198273" lon="-6.0645712260">
        <ele>475.03</ele>
        <time>2021-05-30T09:28:58Z</time>
      </trkpt>
      <trkpt lat="38.5473997146" lon="-6.0645394586">
        <ele>475.99</ele>
        <time>2021-05-30T09:28:59Z</time>
      </trkpt>
      <trkpt lat="38.5472697951" lon="-6.0645367764">
        <ele>477.43</ele>
        <time>2021-05-30T09:29:00Z</time>
      </trkpt>
      <trkpt lat="38.5471350979" lon="-6.0645504389">
        <ele>478.39</ele>
        <time>2021-05-30T09:29:01Z</time>
      </trkpt>
      <trkpt lat="38.5469973832" lon="-6.0645705555">
        <ele>478.39</ele>
        <time>2021-05-30T09:29:02Z</time>
      </trkpt>
      <trkpt lat="38.5465515498" lon="-6.0645996407">
        <ele>481.76</ele>
        <time>2021-05-30T09:29:05Z</time>
      </trkpt>
      <trkpt lat="38.5462280083" lon="-6.0645547975">
        <ele>482.72</ele>
        <time>2021-05-30T09:29:07Z</time>
      </trkpt>
      <trkpt lat="38.5458075721" lon="-6.0643942002">
        <ele>482.72</ele>
        <time>2021-05-30T09:29:10Z</time>
      </trkpt>
      <trkpt lat="38.5456777364" lon="-6.0643115547">
        <ele>481.76</ele>
        <time>2021-05-30T09:29:11Z</time>
      </trkpt>
      <trkpt lat="38.5455517564" lon="-6.0642119776">
        <ele>482.24</ele>
        <time>2021-05-30T09:29:12Z</time>
      </trkpt>
      <trkpt lat="38.5454296321" lon="-6.0640988220">
        <ele>481.76</ele>
        <time>2021-05-30T09:29:13Z</time>
      </trkpt>
      <trkpt lat="38.5453089327" lon="-6.0639719199">
        <ele>481.76</ele>
        <time>2021-05-30T09:29:14Z</time>
      </trkpt>
      <trkpt lat="38.5451858025" lon="-6.0638356302">
        <ele>481.76</ele>
        <time>2021-05-30T09:29:15Z</time>
      </trkpt>
      <trkpt lat="38.5442951415" lon="-6.0629458912">
        <ele>482.72</ele>
        <time>2021-05-30T09:29:22Z</time>
      </trkpt>
      <trkpt lat="38.5433623195" lon="-6.0622563120">
        <ele>486.56</ele>
        <time>2021-05-30T09:29:28Z</time>
      </trkpt>
      <trkpt lat="38.5428203456" lon="-6.0618209559">
        <ele>491.37</ele>
        <time>2021-05-30T09:29:31Z</time>
      </trkpt>
      <trkpt lat="38.5418457817" lon="-6.0607184842">
        <ele>492.33</ele>
        <time>2021-05-30T09:29:37Z</time>
      </trkpt>
      <trkpt lat="38.5405258834" lon="-6.0584951844">
        <ele>488.49</ele>
        <time>2021-05-30T09:29:47Z</time>
      </trkpt>
      <trkpt lat="38.5400635377" lon="-6.0579634365">
        <ele>491.37</ele>
        <time>2021-05-30T09:29:50Z</time>
      </trkpt>
      <trkpt lat="38.5393231642" lon="-6.0574289225">
        <ele>496.18</ele>
        <time>2021-05-30T09:29:54Z</time>
      </trkpt>
      <trkpt lat="38.5387321562" lon="-6.0570593644">
        <ele>500.02</ele>
        <time>2021-05-30T09:29:57Z</time>
      </trkpt>
      <trkpt lat="38.5385382827" lon="-6.0569334682">
        <ele>499.54</ele>
        <time>2021-05-30T09:29:58Z</time>
      </trkpt>
      <trkpt lat="38.5383482650" lon="-6.0567979328">
        <ele>502.43</ele>
        <time>2021-05-30T09:29:59Z</time>
      </trkpt>
      <trkpt lat="38.5381621029" lon="-6.0566483159">
        <ele>502.43</ele>
        <time>2021-05-30T09:30:00Z</time>
      </trkpt>
      <trkpt lat="38.5378096439" lon="-6.0563142132">
        <ele>505.79</ele>
        <time>2021-05-30T09:30:02Z</time>
      </trkpt>
      <trkpt lat="38.5361613426" lon="-6.0542397760">
        <ele>503.39</ele>
        <time>2021-05-30T09:30:12Z</time>
      </trkpt>
      <trkpt lat="38.5350090824" lon="-6.0527270101">
        <ele>506.27</ele>
        <time>2021-05-30T09:30:20Z</time>
      </trkpt>
      <trkpt lat="38.5347654205" lon="-6.0523048136">
        <ele>509.64</ele>
        <time>2021-05-30T09:30:22Z</time>
      </trkpt>
      <trkpt lat="38.5346505046" lon="-6.0520752333">
        <ele>509.64</ele>
        <time>2021-05-30T09:30:23Z</time>
      </trkpt>
      <trkpt lat="38.5343441460" lon="-6.0513269808">
        <ele>515.88</ele>
        <time>2021-05-30T09:30:26Z</time>
      </trkpt>
      <trkpt lat="38.5342452396" lon="-6.0510598496">
        <ele>515.40</ele>
        <time>2021-05-30T09:30:27Z</time>
      </trkpt>
      <trkpt lat="38.5340373684" lon="-6.0505256709">
        <ele>518.29</ele>
        <time>2021-05-30T09:30:29Z</time>
      </trkpt>
      <trkpt lat="38.5337276570" lon="-6.0497447290">
        <ele>517.33</ele>
        <time>2021-05-30T09:30:32Z</time>
      </trkpt>
      <trkpt lat="38.5330303665" lon="-6.0479670949">
        <ele>520.69</ele>
        <time>2021-05-30T09:30:39Z</time>
      </trkpt>
      <trkpt lat="38.5325242672" lon="-6.0466767848">
        <ele>520.69</ele>
        <time>2021-05-30T09:30:44Z</time>
      </trkpt>
      <trkpt lat="38.5315670539" lon="-6.0449898429">
        <ele>520.21</ele>
        <time>2021-05-30T09:30:51Z</time>
      </trkpt>
      <trkpt lat="38.5303458106" lon="-6.0437528417">
        <ele>523.09</ele>
        <time>2021-05-30T09:30:57Z</time>
      </trkpt>
      <trkpt lat="38.5297149047" lon="-6.0432075150">
        <ele>519.25</ele>
        <time>2021-05-30T09:31:00Z</time>
      </trkpt>
      <trkpt lat="38.5293209553" lon="-6.0428703949">
        <ele>518.77</ele>
        <time>2021-05-30T09:31:02Z</time>
      </trkpt>
      <trkpt lat="38.5277858097" lon="-6.0419158638">
        <ele>515.40</ele>
        <time>2021-05-30T09:31:09Z</time>
      </trkpt>
      <trkpt lat="38.5272997431" lon="-6.0416378360">
        <ele>511.56</ele>
        <time>2021-05-30T09:31:11Z</time>
      </trkpt>
      <trkpt lat="38.5270549078" lon="-6.0414984450">
        <ele>508.67</ele>
        <time>2021-05-30T09:31:12Z</time>
      </trkpt>
      <trkpt lat="38.5263424460" lon="-6.0410221014">
        <ele>505.31</ele>
        <time>2021-05-30T09:31:15Z</time>
      </trkpt>
      <trkpt lat="38.5258843750" lon="-6.0406317562">
        <ele>500.50</ele>
        <time>2021-05-30T09:31:17Z</time>
      </trkpt>
      <trkpt lat="38.5254268069" lon="-6.0402238090">
        <ele>494.74</ele>
        <time>2021-05-30T09:31:19Z</time>
      </trkpt>
      <trkpt lat="38.5251955502" lon="-6.0400235653">
        <ele>490.89</ele>
        <time>2021-05-30T09:31:20Z</time>
      </trkpt>
      <trkpt lat="38.5249611083" lon="-6.0398317873">
        <ele>490.89</ele>
        <time>2021-05-30T09:31:21Z</time>
      </trkpt>
      <trkpt lat="38.5237059183" lon="-6.0391818546">
        <ele>489.45</ele>
        <time>2021-05-30T09:31:26Z</time>
      </trkpt>
      <trkpt lat="38.5232091229" lon="-6.0390404519">
        <ele>486.08</ele>
        <time>2021-05-30T09:31:28Z</time>
      </trkpt>
      <trkpt lat="38.5215808544" lon="-6.0381731763">
        <ele>484.16</ele>
        <time>2021-05-30T09:31:35Z</time>
      </trkpt>
      <trkpt lat="38.5204411671" lon="-6.0367745720">
        <ele>482.72</ele>
        <time>2021-05-30T09:31:41Z</time>
      </trkpt>
      <trkpt lat="38.5199498199" lon="-6.0359412432">
        <ele>479.35</ele>
        <time>2021-05-30T09:31:44Z</time>
      </trkpt>
      <trkpt lat="38.5196271166" lon="-6.0353892110">
        <ele>478.39</ele>
        <time>2021-05-30T09:31:46Z</time>
      </trkpt>
      <trkpt lat="38.5191392060" lon="-6.0345563013">
        <ele>475.51</ele>
        <time>2021-05-30T09:31:49Z</time>
      </trkpt>
      <trkpt lat="38.5188128985" lon="-6.0339964740">
        <ele>473.59</ele>
        <time>2021-05-30T09:31:51Z</time>
      </trkpt>
      <trkpt lat="38.5184987448" lon="-6.0334575176">
        <ele>469.26</ele>
        <time>2021-05-30T09:31:53Z</time>
      </trkpt>
      <trkpt lat="38.5182138439" lon="-6.0329475626">
        <ele>465.90</ele>
        <time>2021-05-30T09:31:55Z</time>
      </trkpt>
      <trkpt lat="38.5176597163" lon="-6.0313518997">
        <ele>467.82</ele>
        <time>2021-05-30T09:32:00Z</time>
      </trkpt>
      <trkpt lat="38.5174023081" lon="-6.0302904155">
        <ele>463.97</ele>
        <time>2021-05-30T09:32:03Z</time>
      </trkpt>
      <trkpt lat="38.5173166450" lon="-6.0299539659">
        <ele>463.97</ele>
        <time>2021-05-30T09:32:04Z</time>
      </trkpt>
      <trkpt lat="38.5171468277" lon="-6.0292867664">
        <ele>460.61</ele>
        <time>2021-05-30T09:32:06Z</time>
      </trkpt>
      <trkpt lat="38.5170618352" lon="-6.0289542563">
        <ele>460.61</ele>
        <time>2021-05-30T09:32:07Z</time>
      </trkpt>
      <trkpt lat="38.5159628838" lon="-6.0246532504">
        <ele>460.13</ele>
        <time>2021-05-30T09:32:20Z</time>
      </trkpt>
      <trkpt lat="38.5157967545" lon="-6.0239946842">
        <ele>457.24</ele>
        <time>2021-05-30T09:32:22Z</time>
      </trkpt>
      <trkpt lat="38.5151672736" lon="-6.0207777098">
        <ele>458.21</ele>
        <time>2021-05-30T09:32:32Z</time>
      </trkpt>
      <trkpt lat="38.5151524376" lon="-6.0204473790">
        <ele>458.21</ele>
        <time>2021-05-30T09:32:33Z</time>
      </trkpt>
      <trkpt lat="38.5151480790" lon="-6.0194540396">
        <ele>463.49</ele>
        <time>2021-05-30T09:32:36Z</time>
      </trkpt>
      <trkpt lat="38.5151575506" lon="-6.0187814757">
        <ele>463.97</ele>
        <time>2021-05-30T09:32:38Z</time>
      </trkpt>
      <trkpt lat="38.5151705425" lon="-6.0177715402">
        <ele>466.38</ele>
        <time>2021-05-30T09:32:41Z</time>
      </trkpt>
      <trkpt lat="38.5151762422" lon="-6.0171064362">
        <ele>468.78</ele>
        <time>2021-05-30T09:32:43Z</time>
      </trkpt>
      <trkpt lat="38.5151869711" lon="-6.0161093250">
        <ele>472.14</ele>
        <time>2021-05-30T09:32:46Z</time>
      </trkpt>
      <trkpt lat="38.5151935928" lon="-6.0154444724">
        <ele>473.11</ele>
        <time>2021-05-30T09:32:48Z</time>
      </trkpt>
      <trkpt lat="38.5152222589" lon="-6.0125453398">
        <ele>476.95</ele>
        <time>2021-05-30T09:32:57Z</time>
      </trkpt>
      <trkpt lat="38.5152233485" lon="-6.0122339521">
        <ele>480.32</ele>
        <time>2021-05-30T09:32:58Z</time>
      </trkpt>
      <trkpt lat="38.5152228456" lon="-6.0116057284">
        <ele>483.68</ele>
        <time>2021-05-30T09:33:00Z</time>
      </trkpt>
      <trkpt lat="38.5152229294" lon="-6.0112956818">
        <ele>484.16</ele>
        <time>2021-05-30T09:33:01Z</time>
      </trkpt>
      <trkpt lat="38.5152300540" lon="-6.0106836352">
        <ele>487.05</ele>
        <time>2021-05-30T09:33:03Z</time>
      </trkpt>
      <trkpt lat="38.5152337421" lon="-6.0103750136">
        <ele>489.93</ele>
        <time>2021-05-30T09:33:04Z</time>
      </trkpt>
      <trkpt lat="38.5152438004" lon="-6.0097377375">
        <ele>491.37</ele>
        <time>2021-05-30T09:33:06Z</time>
      </trkpt>
      <trkpt lat="38.5152634140" lon="-6.0081103072">
        <ele>493.77</ele>
        <time>2021-05-30T09:33:11Z</time>
      </trkpt>
      <trkpt lat="38.5152646713" lon="-6.0071074963">
        <ele>497.14</ele>
        <time>2021-05-30T09:33:14Z</time>
      </trkpt>
      <trkpt lat="38.5152660124" lon="-6.0064297356">
        <ele>501.95</ele>
        <time>2021-05-30T09:33:16Z</time>
      </trkpt>
      <trkpt lat="38.5152135417" lon="-6.0057424195">
        <ele>504.35</ele>
        <time>2021-05-30T09:33:18Z</time>
      </trkpt>
      <trkpt lat="38.5149118770" lon="-6.0044023208">
        <ele>507.23</ele>
        <time>2021-05-30T09:33:22Z</time>
      </trkpt>
      <trkpt lat="38.5142749362" lon="-6.0028013773">
        <ele>511.08</ele>
        <time>2021-05-30T09:33:27Z</time>
      </trkpt>
      <trkpt lat="38.5134325549" lon="-6.0009291954">
        <ele>510.12</ele>
        <time>2021-05-30T09:33:34Z</time>
      </trkpt>
      <trkpt lat="38.5130571295" lon="-6.0003935918">
        <ele>509.16</ele>
        <time>2021-05-30T09:33:37Z</time>
      </trkpt>
      <trkpt lat="38.5118865967" lon="-5.9993506316">
        <ele>510.60</ele>
        <time>2021-05-30T09:33:44Z</time>
      </trkpt>
      <trkpt lat="38.5108409543" lon="-5.9985649120">
        <ele>507.23</ele>
        <time>2021-05-30T09:33:49Z</time>
      </trkpt>
      <trkpt lat="38.5102957953" lon="-5.9979765024">
        <ele>502.43</ele>
        <time>2021-05-30T09:33:52Z</time>
      </trkpt>
      <trkpt lat="38.5099920351" lon="-5.9974882565">
        <ele>501.95</ele>
        <time>2021-05-30T09:33:54Z</time>
      </trkpt>
      <trkpt lat="38.5095551703" lon="-5.9963290393">
        <ele>497.62</ele>
        <time>2021-05-30T09:33:58Z</time>
      </trkpt>
      <trkpt lat="38.5093128495" lon="-5.9954011627">
        <ele>493.29</ele>
        <time>2021-05-30T09:34:01Z</time>
      </trkpt>
      <trkpt lat="38.5092226602" lon="-5.9950919542">
        <ele>493.29</ele>
        <time>2021-05-30T09:34:02Z</time>
      </trkpt>
      <trkpt lat="38.5087668523" lon="-5.9939018078">
        <ele>489.45</ele>
        <time>2021-05-30T09:34:06Z</time>
      </trkpt>
      <trkpt lat="38.5079828929" lon="-5.9925911296">
        <ele>485.60</ele>
        <time>2021-05-30T09:34:11Z</time>
      </trkpt>
      <trkpt lat="38.5074586049" lon="-5.9919189010">
        <ele>482.72</ele>
        <time>2021-05-30T09:34:14Z</time>
      </trkpt>
      <trkpt lat="38.5069232527" lon="-5.9912813734">
        <ele>477.43</ele>
        <time>2021-05-30T09:34:17Z</time>
      </trkpt>
      <trkpt lat="38.5064741503" lon="-5.9906367213">
        <ele>473.59</ele>
        <time>2021-05-30T09:34:20Z</time>
      </trkpt>
      <trkpt lat="38.5063542053" lon="-5.9903903771">
        <ele>473.11</ele>
        <time>2021-05-30T09:34:21Z</time>
      </trkpt>
      <trkpt lat="38.5062459949" lon="-5.9901247546">
        <ele>474.07</ele>
        <time>2021-05-30T09:34:22Z</time>
      </trkpt>
      <trkpt lat="38.5061497707" lon="-5.9898448829">
        <ele>474.55</ele>
        <time>2021-05-30T09:34:23Z</time>
      </trkpt>
      <trkpt lat="38.5060690530" lon="-5.9895528574">
        <ele>475.51</ele>
        <time>2021-05-30T09:34:24Z</time>
      </trkpt>
      <trkpt lat="38.5060087033" lon="-5.9892497677">
        <ele>479.35</ele>
        <time>2021-05-30T09:34:25Z</time>
      </trkpt>
      <trkpt lat="38.5059674643" lon="-5.9889354464">
        <ele>480.32</ele>
        <time>2021-05-30T09:34:26Z</time>
      </trkpt>
      <trkpt lat="38.5059440788" lon="-5.9886103123">
        <ele>483.20</ele>
        <time>2021-05-30T09:34:27Z</time>
      </trkpt>
      <trkpt lat="38.5059377924" lon="-5.9882762097">
        <ele>483.68</ele>
        <time>2021-05-30T09:34:28Z</time>
      </trkpt>
      <trkpt lat="38.5059522092" lon="-5.9879372455">
        <ele>485.60</ele>
        <time>2021-05-30T09:34:29Z</time>
      </trkpt>
      <trkpt lat="38.5059910174" lon="-5.9875942580">
        <ele>485.60</ele>
        <time>2021-05-30T09:34:30Z</time>
      </trkpt>
      <trkpt lat="38.5060511995" lon="-5.9872531984">
        <ele>486.56</ele>
        <time>2021-05-30T09:34:31Z</time>
      </trkpt>
      <trkpt lat="38.5061262175" lon="-5.9869094566">
        <ele>488.01</ele>
        <time>2021-05-30T09:34:32Z</time>
      </trkpt>
      <trkpt lat="38.5062869824" lon="-5.9862232301">
        <ele>490.89</ele>
        <time>2021-05-30T09:34:34Z</time>
      </trkpt>
      <trkpt lat="38.5064352583" lon="-5.9855441283">
        <ele>494.26</ele>
        <time>2021-05-30T09:34:36Z</time>
      </trkpt>
      <trkpt lat="38.5065039899" lon="-5.9852090199">
        <ele>494.26</ele>
        <time>2021-05-30T09:34:37Z</time>
      </trkpt>
      <trkpt lat="38.5067937523" lon="-5.9835851099">
        <ele>498.10</ele>
        <time>2021-05-30T09:34:42Z</time>
      </trkpt>
      <trkpt lat="38.5068712011" lon="-5.9829256218">
        <ele>501.46</ele>
        <time>2021-05-30T09:34:44Z</time>
      </trkpt>
      <trkpt lat="38.5069302935" lon="-5.9822545666">
        <ele>504.35</ele>
        <time>2021-05-30T09:34:46Z</time>
      </trkpt>
      <trkpt lat="38.5069718678" lon="-5.9815688431">
        <ele>507.71</ele>
        <time>2021-05-30T09:34:48Z</time>
      </trkpt>
      <trkpt lat="38.5069928225" lon="-5.9805317502">
        <ele>513.48</ele>
        <time>2021-05-30T09:34:51Z</time>
      </trkpt>
      <trkpt lat="38.5069778189" lon="-5.9791501611">
        <ele>516.85</ele>
        <time>2021-05-30T09:34:55Z</time>
      </trkpt>
      <trkpt lat="38.5069666710" lon="-5.9784817044">
        <ele>518.77</ele>
        <time>2021-05-30T09:34:57Z</time>
      </trkpt>
      <trkpt lat="38.5069521703" lon="-5.9778312687">
        <ele>520.69</ele>
        <time>2021-05-30T09:34:59Z</time>
      </trkpt>
      <trkpt lat="38.5068664234" lon="-5.9762165789">
        <ele>523.58</ele>
        <time>2021-05-30T09:35:04Z</time>
      </trkpt>
      <trkpt lat="38.5068245139" lon="-5.9758961387">
        <ele>528.38</ele>
        <time>2021-05-30T09:35:05Z</time>
      </trkpt>
      <trkpt lat="38.5066207498" lon="-5.9749387577">
        <ele>532.23</ele>
        <time>2021-05-30T09:35:08Z</time>
      </trkpt>
      <trkpt lat="38.5064106155" lon="-5.9743174072">
        <ele>537.03</ele>
        <time>2021-05-30T09:35:10Z</time>
      </trkpt>
      <trkpt lat="38.5060201865" lon="-5.9734563343">
        <ele>540.40</ele>
        <time>2021-05-30T09:35:13Z</time>
      </trkpt>
      <trkpt lat="38.5058759339" lon="-5.9731824975">
        <ele>544.24</ele>
        <time>2021-05-30T09:35:14Z</time>
      </trkpt>
      <trkpt lat="38.5057287477" lon="-5.9729098342">
        <ele>544.24</ele>
        <time>2021-05-30T09:35:15Z</time>
      </trkpt>
      <trkpt lat="38.5051468760" lon="-5.9717880003">
        <ele>549.53</ele>
        <time>2021-05-30T09:35:19Z</time>
      </trkpt>
      <trkpt lat="38.5050025396" lon="-5.9714953881">
        <ele>555.30</ele>
        <time>2021-05-30T09:35:20Z</time>
      </trkpt>
      <trkpt lat="38.5048611369" lon="-5.9712001774">
        <ele>554.34</ele>
        <time>2021-05-30T09:35:21Z</time>
      </trkpt>
      <trkpt lat="38.5045962688" lon="-5.9706206527">
        <ele>557.22</ele>
        <time>2021-05-30T09:35:23Z</time>
      </trkpt>
      <trkpt lat="38.5043535288" lon="-5.9700602386">
        <ele>558.66</ele>
        <time>2021-05-30T09:35:25Z</time>
      </trkpt>
      <trkpt lat="38.5035511293" lon="-5.9679615777">
        <ele>559.62</ele>
        <time>2021-05-30T09:35:32Z</time>
      </trkpt>
      <trkpt lat="38.5033192020" lon="-5.9673212841">
        <ele>558.18</ele>
        <time>2021-05-30T09:35:34Z</time>
      </trkpt>
      <trkpt lat="38.5021764971" lon="-5.9641789924">
        <ele>553.38</ele>
        <time>2021-05-30T09:35:44Z</time>
      </trkpt>
      <trkpt lat="38.5020626709" lon="-5.9638748970">
        <ele>553.86</ele>
        <time>2021-05-30T09:35:45Z</time>
      </trkpt>
      <trkpt lat="38.5010479577" lon="-5.9610848967">
        <ele>551.93</ele>
        <time>2021-05-30T09:35:54Z</time>
      </trkpt>
      <trkpt lat="38.4994237963" lon="-5.9566692263">
        <ele>550.97</ele>
        <time>2021-05-30T09:36:08Z</time>
      </trkpt>
      <trkpt lat="38.4989354666" lon="-5.9553903993">
        <ele>549.05</ele>
        <time>2021-05-30T09:36:12Z</time>
      </trkpt>
      <trkpt lat="38.4975929372" lon="-5.9516894538">
        <ele>547.61</ele>
        <time>2021-05-30T09:36:24Z</time>
      </trkpt>
      <trkpt lat="38.4972456750" lon="-5.9507450648">
        <ele>543.76</ele>
        <time>2021-05-30T09:36:27Z</time>
      </trkpt>
      <trkpt lat="38.4966798965" lon="-5.9491877072">
        <ele>542.32</ele>
        <time>2021-05-30T09:36:32Z</time>
      </trkpt>
      <trkpt lat="38.4960049018" lon="-5.9473349713">
        <ele>545.69</ele>
        <time>2021-05-30T09:36:38Z</time>
      </trkpt>
      <trkpt lat="38.4949632827" lon="-5.9444950148">
        <ele>543.76</ele>
        <time>2021-05-30T09:36:47Z</time>
      </trkpt>
      <trkpt lat="38.4947290923" lon="-5.9438454174">
        <ele>538.96</ele>
        <time>2021-05-30T09:36:49Z</time>
      </trkpt>
      <trkpt lat="38.4946113266" lon="-5.9435221273">
        <ele>539.44</ele>
        <time>2021-05-30T09:36:50Z</time>
      </trkpt>
      <trkpt lat="38.4943747055" lon="-5.9428773914">
        <ele>536.55</ele>
        <time>2021-05-30T09:36:52Z</time>
      </trkpt>
      <trkpt lat="38.4940293711" lon="-5.9419433959">
        <ele>533.19</ele>
        <time>2021-05-30T09:36:55Z</time>
      </trkpt>
      <trkpt lat="38.4939164668" lon="-5.9416320920">
        <ele>532.71</ele>
        <time>2021-05-30T09:36:56Z</time>
      </trkpt>
      <trkpt lat="38.4933506884" lon="-5.9400768299">
        <ele>534.15</ele>
        <time>2021-05-30T09:37:01Z</time>
      </trkpt>
      <trkpt lat="38.4918757249" lon="-5.9360220004">
        <ele>536.07</ele>
        <time>2021-05-30T09:37:14Z</time>
      </trkpt>
      <trkpt lat="38.4914387763" lon="-5.9348226339">
        <ele>541.36</ele>
        <time>2021-05-30T09:37:18Z</time>
      </trkpt>
      <trkpt lat="38.4913279675" lon="-5.9345183708">
        <ele>541.36</ele>
        <time>2021-05-30T09:37:19Z</time>
      </trkpt>
      <trkpt lat="38.4911043383" lon="-5.9339019656">
        <ele>545.20</ele>
        <time>2021-05-30T09:37:21Z</time>
      </trkpt>
      <trkpt lat="38.4905225504" lon="-5.9323037881">
        <ele>549.53</ele>
        <time>2021-05-30T09:37:26Z</time>
      </trkpt>
      <trkpt lat="38.4904070478" lon="-5.9319877904">
        <ele>549.05</ele>
        <time>2021-05-30T09:37:27Z</time>
      </trkpt>
      <trkpt lat="38.4901855141" lon="-5.9313703794">
        <ele>551.93</ele>
        <time>2021-05-30T09:37:29Z</time>
      </trkpt>
      <trkpt lat="38.4899620526" lon="-5.9307628591">
        <ele>552.90</ele>
        <time>2021-05-30T09:37:31Z</time>
      </trkpt>
      <trkpt lat="38.4894487448" lon="-5.9292537812">
        <ele>549.53</ele>
        <time>2021-05-30T09:37:36Z</time>
      </trkpt>
      <trkpt lat="38.4892579727" lon="-5.9286360350">
        <ele>544.24</ele>
        <time>2021-05-30T09:37:38Z</time>
      </trkpt>
      <trkpt lat="38.4891635086" lon="-5.9283304308">
        <ele>545.69</ele>
        <time>2021-05-30T09:37:39Z</time>
      </trkpt>
      <trkpt lat="38.4890686255" lon="-5.9280271735">
        <ele>542.32</ele>
        <time>2021-05-30T09:37:40Z</time>
      </trkpt>
      <trkpt lat="38.4886776935" lon="-5.9267814551">
        <ele>537.03</ele>
        <time>2021-05-30T09:37:44Z</time>
      </trkpt>
      <trkpt lat="38.4884830657" lon="-5.9261380602">
        <ele>535.11</ele>
        <time>2021-05-30T09:37:46Z</time>
      </trkpt>
      <trkpt lat="38.4880548343" lon="-5.9245063551">
        <ele>535.59</ele>
        <time>2021-05-30T09:37:51Z</time>
      </trkpt>
      <trkpt lat="38.4879843425" lon="-5.9234925639">
        <ele>539.44</ele>
        <time>2021-05-30T09:37:54Z</time>
      </trkpt>
      <trkpt lat="38.4879644774" lon="-5.9215704259">
        <ele>545.20</ele>
        <time>2021-05-30T09:38:00Z</time>
      </trkpt>
      <trkpt lat="38.4878800716" lon="-5.9209111892">
        <ele>548.57</ele>
        <time>2021-05-30T09:38:02Z</time>
      </trkpt>
      <trkpt lat="38.4876090009" lon="-5.9196054563">
        <ele>551.93</ele>
        <time>2021-05-30T09:38:06Z</time>
      </trkpt>
      <trkpt lat="38.4874700289" lon="-5.9189536795">
        <ele>555.78</ele>
        <time>2021-05-30T09:38:08Z</time>
      </trkpt>
      <trkpt lat="38.4867944475" lon="-5.9157778602">
        <ele>560.11</ele>
        <time>2021-05-30T09:38:18Z</time>
      </trkpt>
      <trkpt lat="38.4863261506" lon="-5.9134993237">
        <ele>557.22</ele>
        <time>2021-05-30T09:38:26Z</time>
      </trkpt>
      <trkpt lat="38.4861223027" lon="-5.9124318045">
        <ele>561.55</ele>
        <time>2021-05-30T09:38:30Z</time>
      </trkpt>
      <trkpt lat="38.4860565048" lon="-5.9121315647">
        <ele>564.91</ele>
        <time>2021-05-30T09:38:31Z</time>
      </trkpt>
      <trkpt lat="38.4859852586" lon="-5.9118205123">
        <ele>564.91</ele>
        <time>2021-05-30T09:38:32Z</time>
      </trkpt>
      <trkpt lat="38.4856160358" lon="-5.9101800062">
        <ele>570.20</ele>
        <time>2021-05-30T09:38:37Z</time>
      </trkpt>
      <trkpt lat="38.4850237705" lon="-5.9073786065">
        <ele>574.04</ele>
        <time>2021-05-30T09:38:45Z</time>
      </trkpt>
      <trkpt lat="38.4848697111" lon="-5.9067097306">
        <ele>574.53</ele>
        <time>2021-05-30T09:38:47Z</time>
      </trkpt>
      <trkpt lat="38.4845895879" lon="-5.9057393577">
        <ele>575.97</ele>
        <time>2021-05-30T09:38:50Z</time>
      </trkpt>
      <trkpt lat="38.4836643096" lon="-5.9037183970">
        <ele>575.97</ele>
        <time>2021-05-30T09:38:57Z</time>
      </trkpt>
      <trkpt lat="38.4825553838" lon="-5.9016933292">
        <ele>572.12</ele>
        <time>2021-05-30T09:39:04Z</time>
      </trkpt>
      <trkpt lat="38.4822363686" lon="-5.9011052549">
        <ele>569.72</ele>
        <time>2021-05-30T09:39:06Z</time>
      </trkpt>
      <trkpt lat="38.4808478225" lon="-5.8985211141">
        <ele>573.08</ele>
        <time>2021-05-30T09:39:15Z</time>
      </trkpt>
      <trkpt lat="38.4804127179" lon="-5.8977138530">
        <ele>569.72</ele>
        <time>2021-05-30T09:39:18Z</time>
      </trkpt>
      <trkpt lat="38.4790661652" lon="-5.8952207398">
        <ele>570.68</ele>
        <time>2021-05-30T09:39:28Z</time>
      </trkpt>
      <trkpt lat="38.4783442318" lon="-5.8938740194">
        <ele>567.32</ele>
        <time>2021-05-30T09:39:34Z</time>
      </trkpt>
      <trkpt lat="38.4781337623" lon="-5.8934862725">
        <ele>563.47</ele>
        <time>2021-05-30T09:39:36Z</time>
      </trkpt>
      <trkpt lat="38.4777747653" lon="-5.8928127866">
        <ele>559.62</ele>
        <time>2021-05-30T09:39:40Z</time>
      </trkpt>
      <trkpt lat="38.4775554109" lon="-5.8923973795">
        <ele>556.74</ele>
        <time>2021-05-30T09:39:43Z</time>
      </trkpt>
      <trkpt lat="38.4774663113" lon="-5.8922248799">
        <ele>552.41</ele>
        <time>2021-05-30T09:39:45Z</time>
      </trkpt>
      <trkpt lat="38.4774102364" lon="-5.8919718303">
        <ele>550.49</ele>
        <time>2021-05-30T09:39:52Z</time>
      </trkpt>
      <trkpt lat="38.4774445184" lon="-5.8918978181">
        <ele>551.93</ele>
        <time>2021-05-30T09:39:53Z</time>
      </trkpt>
      <trkpt lat="38.4775010962" lon="-5.8918212913">
        <ele>553.38</ele>
        <time>2021-05-30T09:39:54Z</time>
      </trkpt>
      <trkpt lat="38.4776414931" lon="-5.8916519769">
        <ele>552.90</ele>
        <time>2021-05-30T09:39:56Z</time>
      </trkpt>
      <trkpt lat="38.4780377895" lon="-5.8911469672">
        <ele>555.78</ele>
        <time>2021-05-30T09:40:00Z</time>
      </trkpt>
      <trkpt lat="38.4784453176" lon="-5.8906322345">
        <ele>559.14</ele>
        <time>2021-05-30T09:40:03Z</time>
      </trkpt>
      <trkpt lat="38.4785910789" lon="-5.8904454857">
        <ele>558.18</ele>
        <time>2021-05-30T09:40:04Z</time>
      </trkpt>
      <trkpt lat="38.4795644693" lon="-5.8892092388">
        <ele>554.82</ele>
        <time>2021-05-30T09:40:10Z</time>
      </trkpt>
      <trkpt lat="38.4797356278" lon="-5.8889929019">
        <ele>555.30</ele>
        <time>2021-05-30T09:40:11Z</time>
      </trkpt>
      <trkpt lat="38.4819315188" lon="-5.8861871436">
        <ele>556.74</ele>
        <time>2021-05-30T09:40:24Z</time>
      </trkpt>
      <trkpt lat="38.4826386161" lon="-5.8852839936">
        <ele>553.38</ele>
        <time>2021-05-30T09:40:28Z</time>
      </trkpt>
      <trkpt lat="38.4843502007" lon="-5.8831042796">
        <ele>549.05</ele>
        <time>2021-05-30T09:40:37Z</time>
      </trkpt>
      <trkpt lat="38.4845399670" lon="-5.8828596119">
        <ele>549.05</ele>
        <time>2021-05-30T09:40:38Z</time>
      </trkpt>
      <trkpt lat="38.4852955118" lon="-5.8818920888">
        <ele>547.13</ele>
        <time>2021-05-30T09:40:42Z</time>
      </trkpt>
      <trkpt lat="38.4858697560" lon="-5.8811526373">
        <ele>544.24</ele>
        <time>2021-05-30T09:40:45Z</time>
      </trkpt>
      <trkpt lat="38.4866458364" lon="-5.8801577892">
        <ele>537.99</ele>
        <time>2021-05-30T09:40:49Z</time>
      </trkpt>
      <trkpt lat="38.4870402049" lon="-5.8796557970">
        <ele>537.03</ele>
        <time>2021-05-30T09:40:51Z</time>
      </trkpt>
      <trkpt lat="38.4874370880" lon="-5.8791437466">
        <ele>533.67</ele>
        <time>2021-05-30T09:40:53Z</time>
      </trkpt>
      <trkpt lat="38.4880273417" lon="-5.8783950750">
        <ele>528.38</ele>
        <time>2021-05-30T09:40:56Z</time>
      </trkpt>
      <trkpt lat="38.4883828182" lon="-5.8779440448">
        <ele>527.90</ele>
        <time>2021-05-30T09:40:58Z</time>
      </trkpt>
      <trkpt lat="38.4902856778" lon="-5.8755096886">
        <ele>530.30</ele>
        <time>2021-05-30T09:41:09Z</time>
      </trkpt>
      <trkpt lat="38.4908664599" lon="-5.8747665491">
        <ele>526.46</ele>
        <time>2021-05-30T09:41:12Z</time>
      </trkpt>
      <trkpt lat="38.4912407957" lon="-5.8742901217">
        <ele>522.61</ele>
        <time>2021-05-30T09:41:14Z</time>
      </trkpt>
      <trkpt lat="38.4921445325" lon="-5.8731381968">
        <ele>523.58</ele>
        <time>2021-05-30T09:41:19Z</time>
      </trkpt>
      <trkpt lat="38.4933547117" lon="-5.8715971839">
        <ele>520.69</ele>
        <time>2021-05-30T09:41:26Z</time>
      </trkpt>
      <trkpt lat="38.4935445618" lon="-5.8714115247">
        <ele>520.21</ele>
        <time>2021-05-30T09:41:27Z</time>
      </trkpt>
      <trkpt lat="38.4937497508" lon="-5.8712503407">
        <ele>518.77</ele>
        <time>2021-05-30T09:41:28Z</time>
      </trkpt>
      <trkpt lat="38.4939712845" lon="-5.8711199183">
        <ele>517.81</ele>
        <time>2021-05-30T09:41:29Z</time>
      </trkpt>
      <trkpt lat="38.4942035470" lon="-5.8710195869">
        <ele>517.81</ele>
        <time>2021-05-30T09:41:30Z</time>
      </trkpt>
      <trkpt lat="38.4944475442" lon="-5.8709441498">
        <ele>517.33</ele>
        <time>2021-05-30T09:41:31Z</time>
      </trkpt>
      <trkpt lat="38.4947008453" lon="-5.8708864823">
        <ele>517.81</ele>
        <time>2021-05-30T09:41:32Z</time>
      </trkpt>
      <trkpt lat="38.4954677895" lon="-5.8707283996">
        <ele>520.21</ele>
        <time>2021-05-30T09:41:35Z</time>
      </trkpt>
      <trkpt lat="38.4959512576" lon="-5.8705825545">
        <ele>520.69</ele>
        <time>2021-05-30T09:41:37Z</time>
      </trkpt>
      <trkpt lat="38.4961743839" lon="-5.8704727516">
        <ele>521.17</ele>
        <time>2021-05-30T09:41:38Z</time>
      </trkpt>
      <trkpt lat="38.4963776451" lon="-5.8703309298">
        <ele>524.06</ele>
        <time>2021-05-30T09:41:39Z</time>
      </trkpt>
      <trkpt lat="38.4965653159" lon="-5.8701565024">
        <ele>524.06</ele>
        <time>2021-05-30T09:41:40Z</time>
      </trkpt>
      <trkpt lat="38.4967367258" lon="-5.8699466195">
        <ele>525.98</ele>
        <time>2021-05-30T09:41:41Z</time>
      </trkpt>
      <trkpt lat="38.4968850855" lon="-5.8697074838">
        <ele>526.46</ele>
        <time>2021-05-30T09:41:42Z</time>
      </trkpt>
      <trkpt lat="38.4970054496" lon="-5.8694415260">
        <ele>527.42</ele>
        <time>2021-05-30T09:41:43Z</time>
      </trkpt>
      <trkpt lat="38.4970987402" lon="-5.8691554517">
        <ele>529.34</ele>
        <time>2021-05-30T09:41:44Z</time>
      </trkpt>
      <trkpt lat="38.4971621074" lon="-5.8688552119">
        <ele>528.38</ele>
        <time>2021-05-30T09:41:45Z</time>
      </trkpt>
      <trkpt lat="38.4971918631" lon="-5.8685515355">
        <ele>527.42</ele>
        <time>2021-05-30T09:41:46Z</time>
      </trkpt>
      <trkpt lat="38.4971873369" lon="-5.8682526369">
        <ele>526.46</ele>
        <time>2021-05-30T09:41:47Z</time>
      </trkpt>
      <trkpt lat="38.4971489478" lon="-5.8679534029">
        <ele>525.50</ele>
        <time>2021-05-30T09:41:48Z</time>
      </trkpt>
      <trkpt lat="38.4970787913" lon="-5.8676523250">
        <ele>526.46</ele>
        <time>2021-05-30T09:41:49Z</time>
      </trkpt>
      <trkpt lat="38.4969808906" lon="-5.8673503250">
        <ele>525.98</ele>
        <time>2021-05-30T09:41:50Z</time>
      </trkpt>
      <trkpt lat="38.4968667291" lon="-5.8670506719">
        <ele>526.94</ele>
        <time>2021-05-30T09:41:51Z</time>
      </trkpt>
      <trkpt lat="38.4965074807" lon="-5.8658891078">
        <ele>526.46</ele>
        <time>2021-05-30T09:41:55Z</time>
      </trkpt>
      <trkpt lat="38.4964700975" lon="-5.8655962441">
        <ele>525.02</ele>
        <time>2021-05-30T09:41:56Z</time>
      </trkpt>
      <trkpt lat="38.4964621346" lon="-5.8652985189">
        <ele>525.50</ele>
        <time>2021-05-30T09:41:57Z</time>
      </trkpt>
      <trkpt lat="38.4964861907" lon="-5.8649942558">
        <ele>526.94</ele>
        <time>2021-05-30T09:41:58Z</time>
      </trkpt>
      <trkpt lat="38.4965392482" lon="-5.8646908309">
        <ele>528.38</ele>
        <time>2021-05-30T09:41:59Z</time>
      </trkpt>
      <trkpt lat="38.4966203012" lon="-5.8643912617">
        <ele>526.94</ele>
        <time>2021-05-30T09:42:00Z</time>
      </trkpt>
      <trkpt lat="38.4967327025" lon="-5.8641030081">
        <ele>526.46</ele>
        <time>2021-05-30T09:42:01Z</time>
      </trkpt>
      <trkpt lat="38.4968737699" lon="-5.8638367150">
        <ele>525.50</ele>
        <time>2021-05-30T09:42:02Z</time>
      </trkpt>
      <trkpt lat="38.4970409051" lon="-5.8635940589">
        <ele>525.02</ele>
        <time>2021-05-30T09:42:03Z</time>
      </trkpt>
      <trkpt lat="38.4972323477" lon="-5.8633797336">
        <ele>525.50</ele>
        <time>2021-05-30T09:42:04Z</time>
      </trkpt>
      <trkpt lat="38.4974460024" lon="-5.8631945774">
        <ele>525.98</ele>
        <time>2021-05-30T09:42:05Z</time>
      </trkpt>
      <trkpt lat="38.4976806119" lon="-5.8630426135">
        <ele>527.42</ele>
        <time>2021-05-30T09:42:06Z</time>
      </trkpt>
      <trkpt lat="38.4979287162" lon="-5.8629284520">
        <ele>528.86</ele>
        <time>2021-05-30T09:42:07Z</time>
      </trkpt>
      <trkpt lat="38.4981846996" lon="-5.8628442138">
        <ele>530.30</ele>
        <time>2021-05-30T09:42:08Z</time>
      </trkpt>
      <trkpt lat="38.4989028610" lon="-5.8625860512">
        <ele>531.75</ele>
        <time>2021-05-30T09:42:11Z</time>
      </trkpt>
      <trkpt lat="38.4993315954" lon="-5.8623270504">
        <ele>534.15</ele>
        <time>2021-05-30T09:42:13Z</time>
      </trkpt>
      <trkpt lat="38.4995223675" lon="-5.8621485159">
        <ele>535.11</ele>
        <time>2021-05-30T09:42:14Z</time>
      </trkpt>
      <trkpt lat="38.4996949509" lon="-5.8619379625">
        <ele>536.55</ele>
        <time>2021-05-30T09:42:15Z</time>
      </trkpt>
      <trkpt lat="38.4998443164" lon="-5.8617043588">
        <ele>536.55</ele>
        <time>2021-05-30T09:42:16Z</time>
      </trkpt>
      <trkpt lat="38.4999684524" lon="-5.8614528179">
        <ele>536.55</ele>
        <time>2021-05-30T09:42:17Z</time>
      </trkpt>
      <trkpt lat="38.5000668559" lon="-5.8611819148">
        <ele>537.03</ele>
        <time>2021-05-30T09:42:18Z</time>
      </trkpt>
      <trkpt lat="38.5001484957" lon="-5.8608873747">
        <ele>537.03</ele>
        <time>2021-05-30T09:42:19Z</time>
      </trkpt>
      <trkpt lat="38.5002186522" lon="-5.8605771605">
        <ele>538.48</ele>
        <time>2021-05-30T09:42:20Z</time>
      </trkpt>
      <trkpt lat="38.5002835281" lon="-5.8602543734">
        <ele>538.48</ele>
        <time>2021-05-30T09:42:21Z</time>
      </trkpt>
      <trkpt lat="38.5007458739" lon="-5.8579279762">
        <ele>537.99</ele>
        <time>2021-05-30T09:42:28Z</time>
      </trkpt>
      <trkpt lat="38.5008126777" lon="-5.8575983997">
        <ele>534.63</ele>
        <time>2021-05-30T09:42:29Z</time>
      </trkpt>
      <trkpt lat="38.5009429324" lon="-5.8569357265">
        <ele>531.75</ele>
        <time>2021-05-30T09:42:31Z</time>
      </trkpt>
      <trkpt lat="38.5011392366" lon="-5.8559375256">
        <ele>528.38</ele>
        <time>2021-05-30T09:42:34Z</time>
      </trkpt>
      <trkpt lat="38.5011989158" lon="-5.8556143194">
        <ele>525.50</ele>
        <time>2021-05-30T09:42:35Z</time>
      </trkpt>
      <trkpt lat="38.5012454353" lon="-5.8552999981">
        <ele>525.98</ele>
        <time>2021-05-30T09:42:36Z</time>
      </trkpt>
      <trkpt lat="38.5012810584" lon="-5.8546738699">
        <ele>529.82</ele>
        <time>2021-05-30T09:42:38Z</time>
      </trkpt>
      <trkpt lat="38.5011809785" lon="-5.8527345490">
        <ele>527.42</ele>
        <time>2021-05-30T09:42:44Z</time>
      </trkpt>
      <trkpt lat="38.5010948125" lon="-5.8511326835">
        <ele>524.54</ele>
        <time>2021-05-30T09:42:49Z</time>
      </trkpt>
      <trkpt lat="38.5010901187" lon="-5.8508135006">
        <ele>524.06</ele>
        <time>2021-05-30T09:42:50Z</time>
      </trkpt>
      <trkpt lat="38.5012720060" lon="-5.8495314885">
        <ele>519.73</ele>
        <time>2021-05-30T09:42:54Z</time>
      </trkpt>
      <trkpt lat="38.5016114730" lon="-5.8486630395">
        <ele>515.40</ele>
        <time>2021-05-30T09:42:57Z</time>
      </trkpt>
      <trkpt lat="38.5019168258" lon="-5.8481714409">
        <ele>513.96</ele>
        <time>2021-05-30T09:42:59Z</time>
      </trkpt>
      <trkpt lat="38.5022904072" lon="-5.8477402758">
        <ele>514.44</ele>
        <time>2021-05-30T09:43:01Z</time>
      </trkpt>
      <trkpt lat="38.5025078338" lon="-5.8475442231">
        <ele>514.44</ele>
        <time>2021-05-30T09:43:02Z</time>
      </trkpt>
      <trkpt lat="38.5034504626" lon="-5.8468232956">
        <ele>509.64</ele>
        <time>2021-05-30T09:43:06Z</time>
      </trkpt>
      <trkpt lat="38.5038781911" lon="-5.8465094771">
        <ele>506.27</ele>
        <time>2021-05-30T09:43:08Z</time>
      </trkpt>
      <trkpt lat="38.5042520240" lon="-5.8462311979">
        <ele>502.43</ele>
        <time>2021-05-30T09:43:10Z</time>
      </trkpt>
      <trkpt lat="38.5045739729" lon="-5.8459943254">
        <ele>498.58</ele>
        <time>2021-05-30T09:43:12Z</time>
      </trkpt>
      <trkpt lat="38.5048796609" lon="-5.8457898069">
        <ele>495.70</ele>
        <time>2021-05-30T09:43:14Z</time>
      </trkpt>
      <trkpt lat="38.5057999101" lon="-5.8452124614">
        <ele>497.14</ele>
        <time>2021-05-30T09:43:19Z</time>
      </trkpt>
      <trkpt lat="38.5074369796" lon="-5.8443834912">
        <ele>496.66</ele>
        <time>2021-05-30T09:43:26Z</time>
      </trkpt>
      <trkpt lat="38.5081205238" lon="-5.8440515678">
        <ele>491.85</ele>
        <time>2021-05-30T09:43:29Z</time>
      </trkpt>
      <trkpt lat="38.5083411355" lon="-5.8439421002">
        <ele>491.37</ele>
        <time>2021-05-30T09:43:30Z</time>
      </trkpt>
      <trkpt lat="38.5094021168" lon="-5.8434261940">
        <ele>488.49</ele>
        <time>2021-05-30T09:43:35Z</time>
      </trkpt>
      <trkpt lat="38.5099271592" lon="-5.8431692049">
        <ele>485.12</ele>
        <time>2021-05-30T09:43:38Z</time>
      </trkpt>
      <trkpt lat="38.5102516226" lon="-5.8430084400">
        <ele>484.16</ele>
        <time>2021-05-30T09:43:40Z</time>
      </trkpt>
      <trkpt lat="38.5110047366" lon="-5.8426248003">
        <ele>481.28</ele>
        <time>2021-05-30T09:43:45Z</time>
      </trkpt>
      <trkpt lat="38.5113620572" lon="-5.8424228802">
        <ele>476.95</ele>
        <time>2021-05-30T09:43:48Z</time>
      </trkpt>
      <trkpt lat="38.5115206428" lon="-5.8423211239">
        <ele>475.03</ele>
        <time>2021-05-30T09:43:50Z</time>
      </trkpt>
      <trkpt lat="38.5115699284" lon="-5.8422709163">
        <ele>474.55</ele>
        <time>2021-05-30T09:43:51Z</time>
      </trkpt>
      <trkpt lat="38.5116118379" lon="-5.8422176912">
        <ele>474.07</ele>
        <time>2021-05-30T09:43:52Z</time>
      </trkpt>
      <trkpt lat="38.5116441920" lon="-5.8421587665">
        <ele>474.07</ele>
        <time>2021-05-30T09:43:53Z</time>
      </trkpt>
      <trkpt lat="38.5116691701" lon="-5.8420914598">
        <ele>474.07</ele>
        <time>2021-05-30T09:43:54Z</time>
      </trkpt>
      <trkpt lat="38.5116835032" lon="-5.8420091495">
        <ele>474.55</ele>
        <time>2021-05-30T09:43:55Z</time>
      </trkpt>
      <trkpt lat="38.5116750374" lon="-5.8419110812">
        <ele>473.59</ele>
        <time>2021-05-30T09:43:56Z</time>
      </trkpt>
      <trkpt lat="38.5116487183" lon="-5.8418032899">
        <ele>474.55</ele>
        <time>2021-05-30T09:43:57Z</time>
      </trkpt>
      <trkpt lat="38.5116085690" lon="-5.8416887093">
        <ele>474.07</ele>
        <time>2021-05-30T09:43:58Z</time>
      </trkpt>
      <trkpt lat="38.5115658212" lon="-5.8415628970">
        <ele>475.03</ele>
        <time>2021-05-30T09:43:59Z</time>
      </trkpt>
      <trkpt lat="38.5114195570" lon="-5.8411193267">
        <ele>478.39</ele>
        <time>2021-05-30T09:44:02Z</time>
      </trkpt>
      <trkpt lat="38.5113651585" lon="-5.8409614954">
        <ele>478.39</ele>
        <time>2021-05-30T09:44:03Z</time>
      </trkpt>
      <trkpt lat="38.5110571235" lon="-5.8402141649">
        <ele>481.28</ele>
        <time>2021-05-30T09:44:07Z</time>
      </trkpt>
      <trkpt lat="38.5105437320" lon="-5.8391692769">
        <ele>484.64</ele>
        <time>2021-05-30T09:44:12Z</time>
      </trkpt>
      <trkpt lat="38.5104387067" lon="-5.8389600646">
        <ele>479.84</ele>
        <time>2021-05-30T09:44:13Z</time>
      </trkpt>
      <trkpt lat="38.5103371181" lon="-5.8387550432">
        <ele>479.84</ele>
        <time>2021-05-30T09:44:14Z</time>
      </trkpt>
      <trkpt lat="38.5090711992" lon="-5.8365391195">
        <ele>478.39</ele>
        <time>2021-05-30T09:44:26Z</time>
      </trkpt>
      <trkpt lat="38.5089675989" lon="-5.8364258800">
        <ele>478.39</ele>
        <time>2021-05-30T09:44:27Z</time>
      </trkpt>
      <trkpt lat="38.5086852964" lon="-5.8361747582">
        <ele>476.95</ele>
        <time>2021-05-30T09:44:30Z</time>
      </trkpt>
      <trkpt lat="38.5085966997" lon="-5.8361279033">
        <ele>476.47</ele>
        <time>2021-05-30T09:44:31Z</time>
      </trkpt>
      <trkpt lat="38.5085151438" lon="-5.8360859100">
        <ele>475.99</ele>
        <time>2021-05-30T09:44:32Z</time>
      </trkpt>
      <trkpt lat="38.5084580630" lon="-5.8360284939">
        <ele>475.51</ele>
        <time>2021-05-30T09:44:33Z</time>
      </trkpt>
      <trkpt lat="38.5084314086" lon="-5.8359518833">
        <ele>475.51</ele>
        <time>2021-05-30T09:44:34Z</time>
      </trkpt>
      <trkpt lat="38.5084409639" lon="-5.8358652145">
        <ele>475.51</ele>
        <time>2021-05-30T09:44:35Z</time>
      </trkpt>
      <trkpt lat="38.5084844660" lon="-5.8357836585">
        <ele>475.03</ele>
        <time>2021-05-30T09:44:36Z</time>
      </trkpt>
      <trkpt lat="38.5085562989" lon="-5.8357099816">
        <ele>475.99</ele>
        <time>2021-05-30T09:44:37Z</time>
      </trkpt>
      <trkpt lat="38.5086484160" lon="-5.8356263302">
        <ele>475.99</ele>
        <time>2021-05-30T09:44:38Z</time>
      </trkpt>
      <trkpt lat="38.5087385215" lon="-5.8355107438">
        <ele>476.47</ele>
        <time>2021-05-30T09:44:39Z</time>
      </trkpt>
      <trkpt lat="38.5088205803" lon="-5.8353698440">
        <ele>476.95</ele>
        <time>2021-05-30T09:44:40Z</time>
      </trkpt>
      <trkpt lat="38.5089019686" lon="-5.8352027088">
        <ele>478.39</ele>
        <time>2021-05-30T09:44:41Z</time>
      </trkpt>
      <trkpt lat="38.5089814290" lon="-5.8350165468">
        <ele>479.35</ele>
        <time>2021-05-30T09:44:42Z</time>
      </trkpt>
      <trkpt lat="38.5090540163" lon="-5.8348241821">
        <ele>478.87</ele>
        <time>2021-05-30T09:44:43Z</time>
      </trkpt>
      <trkpt lat="38.5093833413" lon="-5.8332756255">
        <ele>478.39</ele>
        <time>2021-05-30T09:44:50Z</time>
      </trkpt>
      <trkpt lat="38.5093902983" lon="-5.8327940851">
        <ele>477.91</ele>
        <time>2021-05-30T09:44:52Z</time>
      </trkpt>
      <trkpt lat="38.5090945009" lon="-5.8311006892">
        <ele>475.03</ele>
        <time>2021-05-30T09:44:59Z</time>
      </trkpt>
      <trkpt lat="38.5090193991" lon="-5.8308584522">
        <ele>475.99</ele>
        <time>2021-05-30T09:45:00Z</time>
      </trkpt>
      <trkpt lat="38.5083288979" lon="-5.8287466317">
        <ele>474.55</ele>
        <time>2021-05-30T09:45:08Z</time>
      </trkpt>
      <trkpt lat="38.5075922124" lon="-5.8263274468">
        <ele>477.91</ele>
        <time>2021-05-30T09:45:17Z</time>
      </trkpt>
      <trkpt lat="38.5074342135" lon="-5.8258141391">
        <ele>480.80</ele>
        <time>2021-05-30T09:45:19Z</time>
      </trkpt>
      <trkpt lat="38.5072655696" lon="-5.8252861630">
        <ele>484.64</ele>
        <time>2021-05-30T09:45:21Z</time>
      </trkpt>
      <trkpt lat="38.5070839338" lon="-5.8247429319">
        <ele>485.60</ele>
        <time>2021-05-30T09:45:23Z</time>
      </trkpt>
      <trkpt lat="38.5067458078" lon="-5.8239595592">
        <ele>490.41</ele>
        <time>2021-05-30T09:45:26Z</time>
      </trkpt>
      <trkpt lat="38.5066101886" lon="-5.8237130474">
        <ele>490.41</ele>
        <time>2021-05-30T09:45:27Z</time>
      </trkpt>
      <trkpt lat="38.5054184496" lon="-5.8222587872">
        <ele>493.29</ele>
        <time>2021-05-30T09:45:34Z</time>
      </trkpt>
      <trkpt lat="38.5052143503" lon="-5.8220929932">
        <ele>493.29</ele>
        <time>2021-05-30T09:45:35Z</time>
      </trkpt>
      <trkpt lat="38.5043692030" lon="-5.8214817010">
        <ele>496.18</ele>
        <time>2021-05-30T09:45:39Z</time>
      </trkpt>
      <trkpt lat="38.5025499109" lon="-5.8201744594">
        <ele>491.85</ele>
        <time>2021-05-30T09:45:48Z</time>
      </trkpt>
      <trkpt lat="38.5017249640" lon="-5.8195816912">
        <ele>491.37</ele>
        <time>2021-05-30T09:45:52Z</time>
      </trkpt>
      <trkpt lat="38.5006833449" lon="-5.8188155014">
        <ele>488.01</ele>
        <time>2021-05-30T09:45:57Z</time>
      </trkpt>
      <trkpt lat="38.5002881382" lon="-5.8184821531">
        <ele>487.05</ele>
        <time>2021-05-30T09:45:59Z</time>
      </trkpt>
      <trkpt lat="38.4997464996" lon="-5.8179270197">
        <ele>485.60</ele>
        <time>2021-05-30T09:46:02Z</time>
      </trkpt>
      <trkpt lat="38.4992484469" lon="-5.8172182459">
        <ele>489.93</ele>
        <time>2021-05-30T09:46:05Z</time>
      </trkpt>
      <trkpt lat="38.4989276715" lon="-5.8166730031">
        <ele>492.81</ele>
        <time>2021-05-30T09:46:07Z</time>
      </trkpt>
      <trkpt lat="38.4984621406" lon="-5.8158241678">
        <ele>497.14</ele>
        <time>2021-05-30T09:46:10Z</time>
      </trkpt>
      <trkpt lat="38.4983048122" lon="-5.8155359142">
        <ele>496.66</ele>
        <time>2021-05-30T09:46:11Z</time>
      </trkpt>
      <trkpt lat="38.4975408856" lon="-5.8141726814">
        <ele>500.02</ele>
        <time>2021-05-30T09:46:16Z</time>
      </trkpt>
      <trkpt lat="38.4970912803" lon="-5.8133804239">
        <ele>502.91</ele>
        <time>2021-05-30T09:46:19Z</time>
      </trkpt>
      <trkpt lat="38.4964878671" lon="-5.8123206161">
        <ele>506.27</ele>
        <time>2021-05-30T09:46:23Z</time>
      </trkpt>
      <trkpt lat="38.4954062663" lon="-5.8104071114">
        <ele>508.67</ele>
        <time>2021-05-30T09:46:30Z</time>
      </trkpt>
      <trkpt lat="38.4949964751" lon="-5.8095681667">
        <ele>510.12</ele>
        <time>2021-05-30T09:46:33Z</time>
      </trkpt>
      <trkpt lat="38.4946842492" lon="-5.8086775895">
        <ele>506.27</ele>
        <time>2021-05-30T09:46:36Z</time>
      </trkpt>
      <trkpt lat="38.4946059622" lon="-5.8083675429">
        <ele>508.19</ele>
        <time>2021-05-30T09:46:37Z</time>
      </trkpt>
      <trkpt lat="38.4943975881" lon="-5.8071012888">
        <ele>503.87</ele>
        <time>2021-05-30T09:46:41Z</time>
      </trkpt>
      <trkpt lat="38.4943750408" lon="-5.8058246411">
        <ele>501.95</ele>
        <time>2021-05-30T09:46:45Z</time>
      </trkpt>
      <trkpt lat="38.4944795631" lon="-5.8041657787">
        <ele>498.58</ele>
        <time>2021-05-30T09:46:50Z</time>
      </trkpt>
      <trkpt lat="38.4945652261" lon="-5.8028076589">
        <ele>494.26</ele>
        <time>2021-05-30T09:46:54Z</time>
      </trkpt>
      <trkpt lat="38.4946307726" lon="-5.8018116374">
        <ele>490.89</ele>
        <time>2021-05-30T09:46:57Z</time>
      </trkpt>
      <trkpt lat="38.4946501348" lon="-5.8014730923">
        <ele>491.37</ele>
        <time>2021-05-30T09:46:58Z</time>
      </trkpt>
      <trkpt lat="38.4945563413" lon="-5.7994197775">
        <ele>488.01</ele>
        <time>2021-05-30T09:47:04Z</time>
      </trkpt>
      <trkpt lat="38.4944531601" lon="-5.7987516560">
        <ele>484.64</ele>
        <time>2021-05-30T09:47:06Z</time>
      </trkpt>
      <trkpt lat="38.4943985101" lon="-5.7984195650">
        <ele>485.12</ele>
        <time>2021-05-30T09:47:07Z</time>
      </trkpt>
      <trkpt lat="38.4940244257" lon="-5.7961201575">
        <ele>482.24</ele>
        <time>2021-05-30T09:47:14Z</time>
      </trkpt>
      <trkpt lat="38.4934481699" lon="-5.7925175317">
        <ele>487.53</ele>
        <time>2021-05-30T09:47:25Z</time>
      </trkpt>
      <trkpt lat="38.4933408815" lon="-5.7918209955">
        <ele>488.49</ele>
        <time>2021-05-30T09:47:27Z</time>
      </trkpt>
      <trkpt lat="38.4931700584" lon="-5.7904411666">
        <ele>490.89</ele>
        <time>2021-05-30T09:47:31Z</time>
      </trkpt>
      <trkpt lat="38.4928716626" lon="-5.7862073835">
        <ele>492.33</ele>
        <time>2021-05-30T09:47:43Z</time>
      </trkpt>
      <trkpt lat="38.4928499535" lon="-5.7858552597">
        <ele>491.85</ele>
        <time>2021-05-30T09:47:44Z</time>
      </trkpt>
      <trkpt lat="38.4927602671" lon="-5.7844310068">
        <ele>495.70</ele>
        <time>2021-05-30T09:47:48Z</time>
      </trkpt>
      <trkpt lat="38.4925593529" lon="-5.7813250087">
        <ele>497.14</ele>
        <time>2021-05-30T09:47:57Z</time>
      </trkpt>
      <trkpt lat="38.4925152641" lon="-5.7806366030">
        <ele>498.58</ele>
        <time>2021-05-30T09:47:59Z</time>
      </trkpt>
      <trkpt lat="38.4924731869" lon="-5.7799430005">
        <ele>501.46</ele>
        <time>2021-05-30T09:48:01Z</time>
      </trkpt>
      <trkpt lat="38.4924518969" lon="-5.7795976661">
        <ele>501.46</ele>
        <time>2021-05-30T09:48:02Z</time>
      </trkpt>
      <trkpt lat="38.4923355561" lon="-5.7778463513">
        <ele>505.31</ele>
        <time>2021-05-30T09:48:07Z</time>
      </trkpt>
      <trkpt lat="38.4923133440" lon="-5.7775047887">
        <ele>505.31</ele>
        <time>2021-05-30T09:48:08Z</time>
      </trkpt>
      <trkpt lat="38.4922063909" lon="-5.7758329343">
        <ele>506.27</ele>
        <time>2021-05-30T09:48:13Z</time>
      </trkpt>
      <trkpt lat="38.4921442810" lon="-5.7748541795">
        <ele>507.71</ele>
        <time>2021-05-30T09:48:16Z</time>
      </trkpt>
      <trkpt lat="38.4921348095" lon="-5.7735136617">
        <ele>511.08</ele>
        <time>2021-05-30T09:48:20Z</time>
      </trkpt>
      <trkpt lat="38.4921806585" lon="-5.7728097495">
        <ele>513.96</ele>
        <time>2021-05-30T09:48:22Z</time>
      </trkpt>
      <trkpt lat="38.4922604542" lon="-5.7720760815">
        <ele>517.33</ele>
        <time>2021-05-30T09:48:24Z</time>
      </trkpt>
      <trkpt lat="38.4924212191" lon="-5.7709943131">
        <ele>513.96</ele>
        <time>2021-05-30T09:48:27Z</time>
      </trkpt>
      <trkpt lat="38.4924719296" lon="-5.7706548460">
        <ele>514.92</ele>
        <time>2021-05-30T09:48:28Z</time>
      </trkpt>
      <trkpt lat="38.4926685691" lon="-5.7692881767">
        <ele>516.85</ele>
        <time>2021-05-30T09:48:32Z</time>
      </trkpt>
      <trkpt lat="38.4934076015" lon="-5.7641382515">
        <ele>518.29</ele>
        <time>2021-05-30T09:48:47Z</time>
      </trkpt>
      <trkpt lat="38.4941092506" lon="-5.7612014841">
        <ele>521.65</ele>
        <time>2021-05-30T09:48:56Z</time>
      </trkpt>
      <trkpt lat="38.4944153577" lon="-5.7606077101">
        <ele>523.58</ele>
        <time>2021-05-30T09:48:58Z</time>
      </trkpt>
      <trkpt lat="38.4958696179" lon="-5.7581741922">
        <ele>526.46</ele>
        <time>2021-05-30T09:49:07Z</time>
      </trkpt>
      <trkpt lat="38.4965073131" lon="-5.7570881490">
        <ele>527.42</ele>
        <time>2021-05-30T09:49:11Z</time>
      </trkpt>
      <trkpt lat="38.4974113014" lon="-5.7549374364">
        <ele>529.34</ele>
        <time>2021-05-30T09:49:18Z</time>
      </trkpt>
      <trkpt lat="38.4975754190" lon="-5.7529502548">
        <ele>529.34</ele>
        <time>2021-05-30T09:49:24Z</time>
      </trkpt>
      <trkpt lat="38.4974946175" lon="-5.7519477792">
        <ele>533.19</ele>
        <time>2021-05-30T09:49:27Z</time>
      </trkpt>
      <trkpt lat="38.4974644426" lon="-5.7516068872">
        <ele>532.71</ele>
        <time>2021-05-30T09:49:28Z</time>
      </trkpt>
      <trkpt lat="38.4973691404" lon="-5.7505749911">
        <ele>537.03</ele>
        <time>2021-05-30T09:49:31Z</time>
      </trkpt>
      <trkpt lat="38.4971857443" lon="-5.7485287171">
        <ele>540.40</ele>
        <time>2021-05-30T09:49:37Z</time>
      </trkpt>
      <trkpt lat="38.4970880114" lon="-5.7474652212">
        <ele>543.28</ele>
        <time>2021-05-30T09:49:40Z</time>
      </trkpt>
      <trkpt lat="38.4968674835" lon="-5.7450098265">
        <ele>547.13</ele>
        <time>2021-05-30T09:49:47Z</time>
      </trkpt>
      <trkpt lat="38.4966116678" lon="-5.7421775814">
        <ele>550.97</ele>
        <time>2021-05-30T09:49:55Z</time>
      </trkpt>
      <trkpt lat="38.4965848457" lon="-5.7418247871">
        <ele>551.45</ele>
        <time>2021-05-30T09:49:56Z</time>
      </trkpt>
      <trkpt lat="38.4965280164" lon="-5.7407462038">
        <ele>554.34</ele>
        <time>2021-05-30T09:49:59Z</time>
      </trkpt>
      <trkpt lat="38.4964919742" lon="-5.7393233757">
        <ele>555.78</ele>
        <time>2021-05-30T09:50:03Z</time>
      </trkpt>
      <trkpt lat="38.4964815807" lon="-5.7386083994">
        <ele>561.07</ele>
        <time>2021-05-30T09:50:05Z</time>
      </trkpt>
      <trkpt lat="38.4964753781" lon="-5.7382542640">
        <ele>560.11</ele>
        <time>2021-05-30T09:50:06Z</time>
      </trkpt>
      <trkpt lat="38.4964105859" lon="-5.7347599324">
        <ele>563.47</ele>
        <time>2021-05-30T09:50:16Z</time>
      </trkpt>
      <trkpt lat="38.4963954147" lon="-5.7340610493">
        <ele>563.95</ele>
        <time>2021-05-30T09:50:18Z</time>
      </trkpt>
      <trkpt lat="38.4963706881" lon="-5.7326479442">
        <ele>567.32</ele>
        <time>2021-05-30T09:50:22Z</time>
      </trkpt>
      <trkpt lat="38.4963393398" lon="-5.7309050113">
        <ele>570.20</ele>
        <time>2021-05-30T09:50:27Z</time>
      </trkpt>
      <trkpt lat="38.4963255096" lon="-5.7302107383">
        <ele>574.53</ele>
        <time>2021-05-30T09:50:29Z</time>
      </trkpt>
      <trkpt lat="38.4962985199" lon="-5.7288560551">
        <ele>577.41</ele>
        <time>2021-05-30T09:50:33Z</time>
      </trkpt>
      <trkpt lat="38.4962779004" lon="-5.7278608717">
        <ele>581.25</ele>
        <time>2021-05-30T09:50:36Z</time>
      </trkpt>
      <trkpt lat="38.4962548502" lon="-5.7268614974">
        <ele>582.70</ele>
        <time>2021-05-30T09:50:39Z</time>
      </trkpt>
      <trkpt lat="38.4962425288" lon="-5.7261797134">
        <ele>585.10</ele>
        <time>2021-05-30T09:50:41Z</time>
      </trkpt>
      <trkpt lat="38.4962172154" lon="-5.7247633394">
        <ele>588.95</ele>
        <time>2021-05-30T09:50:45Z</time>
      </trkpt>
      <trkpt lat="38.4961899742" lon="-5.7230178919">
        <ele>592.31</ele>
        <time>2021-05-30T09:50:50Z</time>
      </trkpt>
      <trkpt lat="38.4961649962" lon="-5.7219865825">
        <ele>595.67</ele>
        <time>2021-05-30T09:50:53Z</time>
      </trkpt>
      <trkpt lat="38.4961525910" lon="-5.7213140186">
        <ele>598.08</ele>
        <time>2021-05-30T09:50:55Z</time>
      </trkpt>
      <trkpt lat="38.4961266909" lon="-5.7203114592">
        <ele>600.96</ele>
        <time>2021-05-30T09:50:58Z</time>
      </trkpt>
      <trkpt lat="38.4960551932" lon="-5.7192901243">
        <ele>605.29</ele>
        <time>2021-05-30T09:51:01Z</time>
      </trkpt>
      <trkpt lat="38.4960072488" lon="-5.7189488970">
        <ele>604.81</ele>
        <time>2021-05-30T09:51:02Z</time>
      </trkpt>
      <trkpt lat="38.4957105294" lon="-5.7175890170">
        <ele>609.13</ele>
        <time>2021-05-30T09:51:06Z</time>
      </trkpt>
      <trkpt lat="38.4955226909" lon="-5.7169247512">
        <ele>610.09</ele>
        <time>2021-05-30T09:51:08Z</time>
      </trkpt>
      <trkpt lat="38.4949422441" lon="-5.7149346359">
        <ele>614.90</ele>
        <time>2021-05-30T09:51:14Z</time>
      </trkpt>
      <trkpt lat="38.4945567604" lon="-5.7136085350">
        <ele>617.30</ele>
        <time>2021-05-30T09:51:18Z</time>
      </trkpt>
      <trkpt lat="38.4942679200" lon="-5.7125941571">
        <ele>620.19</ele>
        <time>2021-05-30T09:51:21Z</time>
      </trkpt>
      <trkpt lat="38.4941695165" lon="-5.7122549415">
        <ele>620.19</ele>
        <time>2021-05-30T09:51:22Z</time>
      </trkpt>
      <trkpt lat="38.4935982898" lon="-5.7102549355">
        <ele>621.15</ele>
        <time>2021-05-30T09:51:28Z</time>
      </trkpt>
      <trkpt lat="38.4930897597" lon="-5.7082941569">
        <ele>618.26</ele>
        <time>2021-05-30T09:51:34Z</time>
      </trkpt>
      <trkpt lat="38.4930100478" lon="-5.7079780754">
        <ele>618.75</ele>
        <time>2021-05-30T09:51:35Z</time>
      </trkpt>
      <trkpt lat="38.4928435832" lon="-5.7073247060">
        <ele>620.19</ele>
        <time>2021-05-30T09:51:37Z</time>
      </trkpt>
      <trkpt lat="38.4925977420" lon="-5.7063127588">
        <ele>622.11</ele>
        <time>2021-05-30T09:51:40Z</time>
      </trkpt>
      <trkpt lat="38.4923242405" lon="-5.7049543038">
        <ele>625.47</ele>
        <time>2021-05-30T09:51:44Z</time>
      </trkpt>
      <trkpt lat="38.4922678303" lon="-5.7046103943">
        <ele>624.51</ele>
        <time>2021-05-30T09:51:45Z</time>
      </trkpt>
      <trkpt lat="38.4918349888" lon="-5.7018954959">
        <ele>627.88</ele>
        <time>2021-05-30T09:51:53Z</time>
      </trkpt>
      <trkpt lat="38.4917698614" lon="-5.7015634049">
        <ele>628.36</ele>
        <time>2021-05-30T09:51:54Z</time>
      </trkpt>
      <trkpt lat="38.4908766858" lon="-5.6983791199">
        <ele>630.76</ele>
        <time>2021-05-30T09:52:04Z</time>
      </trkpt>
      <trkpt lat="38.4906868357" lon="-5.6977364793">
        <ele>627.40</ele>
        <time>2021-05-30T09:52:06Z</time>
      </trkpt>
      <trkpt lat="38.4905901924" lon="-5.6974119321">
        <ele>627.40</ele>
        <time>2021-05-30T09:52:07Z</time>
      </trkpt>
      <trkpt lat="38.4903958999" lon="-5.6967632566">
        <ele>630.28</ele>
        <time>2021-05-30T09:52:09Z</time>
      </trkpt>
      <trkpt lat="38.4902013559" lon="-5.6961102225">
        <ele>627.88</ele>
        <time>2021-05-30T09:52:11Z</time>
      </trkpt>
      <trkpt lat="38.4899072349" lon="-5.6951218285">
        <ele>625.47</ele>
        <time>2021-05-30T09:52:14Z</time>
      </trkpt>
      <trkpt lat="38.4894156363" lon="-5.6934356410">
        <ele>620.67</ele>
        <time>2021-05-30T09:52:19Z</time>
      </trkpt>
      <trkpt lat="38.4893173166" lon="-5.6930929050">
        <ele>621.63</ele>
        <time>2021-05-30T09:52:20Z</time>
      </trkpt>
      <trkpt lat="38.4891179949" lon="-5.6924046669">
        <ele>619.23</ele>
        <time>2021-05-30T09:52:22Z</time>
      </trkpt>
      <trkpt lat="38.4888107982" lon="-5.6913725194">
        <ele>616.34</ele>
        <time>2021-05-30T09:52:25Z</time>
      </trkpt>
      <trkpt lat="38.4878447000" lon="-5.6881044153">
        <ele>613.46</ele>
        <time>2021-05-30T09:52:35Z</time>
      </trkpt>
      <trkpt lat="38.4872771613" lon="-5.6861806847">
        <ele>609.13</ele>
        <time>2021-05-30T09:52:41Z</time>
      </trkpt>
      <trkpt lat="38.4871832840" lon="-5.6858604122">
        <ele>609.61</ele>
        <time>2021-05-30T09:52:42Z</time>
      </trkpt>
      <trkpt lat="38.4867977165" lon="-5.6845484767">
        <ele>606.25</ele>
        <time>2021-05-30T09:52:46Z</time>
      </trkpt>
      <trkpt lat="38.4866061900" lon="-5.6838993821">
        <ele>605.77</ele>
        <time>2021-05-30T09:52:48Z</time>
      </trkpt>
      <trkpt lat="38.4860967379" lon="-5.6812249683">
        <ele>602.88</ele>
        <time>2021-05-30T09:52:56Z</time>
      </trkpt>
      <trkpt lat="38.4859368950" lon="-5.6798904017">
        <ele>599.52</ele>
        <time>2021-05-30T09:53:00Z</time>
      </trkpt>
      <trkpt lat="38.4854506608" lon="-5.6758940779">
        <ele>599.04</ele>
        <time>2021-05-30T09:53:12Z</time>
      </trkpt>
      <trkpt lat="38.4853673447" lon="-5.6752296444">
        <ele>596.15</ele>
        <time>2021-05-30T09:53:14Z</time>
      </trkpt>
      <trkpt lat="38.4851668496" lon="-5.6736129429">
        <ele>592.31</ele>
        <time>2021-05-30T09:53:19Z</time>
      </trkpt>
      <trkpt lat="38.4851288795" lon="-5.6733042374">
        <ele>593.27</ele>
        <time>2021-05-30T09:53:20Z</time>
      </trkpt>
      <trkpt lat="38.4850552026" lon="-5.6727196835">
        <ele>590.39</ele>
        <time>2021-05-30T09:53:22Z</time>
      </trkpt>
      <trkpt lat="38.4849881474" lon="-5.6721793860">
        <ele>586.54</ele>
        <time>2021-05-30T09:53:24Z</time>
      </trkpt>
      <trkpt lat="38.4849564638" lon="-5.6719234027">
        <ele>587.50</ele>
        <time>2021-05-30T09:53:25Z</time>
      </trkpt>
      <trkpt lat="38.4848379437" lon="-5.6709635071">
        <ele>582.70</ele>
        <time>2021-05-30T09:53:29Z</time>
      </trkpt>
      <trkpt lat="38.4847172443" lon="-5.6700424198">
        <ele>578.85</ele>
        <time>2021-05-30T09:53:34Z</time>
      </trkpt>
      <trkpt lat="38.4846547153" lon="-5.6697138492">
        <ele>578.85</ele>
        <time>2021-05-30T09:53:36Z</time>
      </trkpt>
      <trkpt lat="38.4846081119" lon="-5.6695668306">
        <ele>577.89</ele>
        <time>2021-05-30T09:53:37Z</time>
      </trkpt>
      <trkpt lat="38.4845318366" lon="-5.6692967657">
        <ele>578.37</ele>
        <time>2021-05-30T09:53:39Z</time>
      </trkpt>
      <trkpt lat="38.4845292382" lon="-5.6691450533">
        <ele>578.85</ele>
        <time>2021-05-30T09:53:40Z</time>
      </trkpt>
      <trkpt lat="38.4845463373" lon="-5.6687753275">
        <ele>580.29</ele>
        <time>2021-05-30T09:53:42Z</time>
      </trkpt>
      <trkpt lat="38.4845376201" lon="-5.6685506925">
        <ele>582.22</ele>
        <time>2021-05-30T09:53:43Z</time>
      </trkpt>
      <trkpt lat="38.4844874125" lon="-5.6680787075">
        <ele>583.18</ele>
        <time>2021-05-30T09:53:45Z</time>
      </trkpt>
      <trkpt lat="38.4843823034" lon="-5.6672903895">
        <ele>587.02</ele>
        <time>2021-05-30T09:53:48Z</time>
      </trkpt>
      <trkpt lat="38.4842759371" lon="-5.6664239522">
        <ele>590.39</ele>
        <time>2021-05-30T09:53:51Z</time>
      </trkpt>
      <trkpt lat="38.4840892721" lon="-5.6649221666">
        <ele>591.35</ele>
        <time>2021-05-30T09:53:56Z</time>
      </trkpt>
      <trkpt lat="38.4837634675" lon="-5.6623446476">
        <ele>596.15</ele>
        <time>2021-05-30T09:54:04Z</time>
      </trkpt>
      <trkpt lat="38.4832805861" lon="-5.6584809255">
        <ele>598.56</ele>
        <time>2021-05-30T09:54:16Z</time>
      </trkpt>
      <trkpt lat="38.4829317313" lon="-5.6556832138">
        <ele>595.19</ele>
        <time>2021-05-30T09:54:24Z</time>
      </trkpt>
      <trkpt lat="38.4827930946" lon="-5.6545876991">
        <ele>592.31</ele>
        <time>2021-05-30T09:54:27Z</time>
      </trkpt>
      <trkpt lat="38.4826570563" lon="-5.6535110436">
        <ele>588.95</ele>
        <time>2021-05-30T09:54:30Z</time>
      </trkpt>
      <trkpt lat="38.4825252090" lon="-5.6524559297">
        <ele>585.10</ele>
        <time>2021-05-30T09:54:33Z</time>
      </trkpt>
      <trkpt lat="38.4824396297" lon="-5.6517718825">
        <ele>583.66</ele>
        <time>2021-05-30T09:54:35Z</time>
      </trkpt>
      <trkpt lat="38.4823501948" lon="-5.6510916073">
        <ele>580.29</ele>
        <time>2021-05-30T09:54:37Z</time>
      </trkpt>
      <trkpt lat="38.4822242148" lon="-5.6500994414">
        <ele>578.85</ele>
        <time>2021-05-30T09:54:40Z</time>
      </trkpt>
      <trkpt lat="38.4821405634" lon="-5.6494616624">
        <ele>576.45</ele>
        <time>2021-05-30T09:54:42Z</time>
      </trkpt>
      <trkpt lat="38.4817709215" lon="-5.6465560757">
        <ele>580.29</ele>
        <time>2021-05-30T09:54:51Z</time>
      </trkpt>
      <trkpt lat="38.4816025291" lon="-5.6451843772">
        <ele>583.66</ele>
        <time>2021-05-30T09:54:55Z</time>
      </trkpt>
      <trkpt lat="38.4815152735" lon="-5.6444851588">
        <ele>584.62</ele>
        <time>2021-05-30T09:54:57Z</time>
      </trkpt>
      <trkpt lat="38.4813825879" lon="-5.6434168015">
        <ele>587.50</ele>
        <time>2021-05-30T09:55:00Z</time>
      </trkpt>
      <trkpt lat="38.4811486490" lon="-5.6415908877">
        <ele>583.18</ele>
        <time>2021-05-30T09:55:05Z</time>
      </trkpt>
      <trkpt lat="38.4809167217" lon="-5.6397959869">
        <ele>588.46</ele>
        <time>2021-05-30T09:55:10Z</time>
      </trkpt>
      <trkpt lat="38.4808321483" lon="-5.6391105987">
        <ele>588.95</ele>
        <time>2021-05-30T09:55:12Z</time>
      </trkpt>
      <trkpt lat="38.4805286396" lon="-5.6366614066">
        <ele>592.79</ele>
        <time>2021-05-30T09:55:19Z</time>
      </trkpt>
      <trkpt lat="38.4802035056" lon="-5.6340941973">
        <ele>589.91</ele>
        <time>2021-05-30T09:55:26Z</time>
      </trkpt>
      <trkpt lat="38.4801134001" lon="-5.6333720963">
        <ele>585.58</ele>
        <time>2021-05-30T09:55:28Z</time>
      </trkpt>
      <trkpt lat="38.4798464365" lon="-5.6312366389">
        <ele>586.54</ele>
        <time>2021-05-30T09:55:34Z</time>
      </trkpt>
      <trkpt lat="38.4796730150" lon="-5.6298304070">
        <ele>585.10</ele>
        <time>2021-05-30T09:55:38Z</time>
      </trkpt>
      <trkpt lat="38.4795361385" lon="-5.6287934817">
        <ele>582.70</ele>
        <time>2021-05-30T09:55:41Z</time>
      </trkpt>
      <trkpt lat="38.4794072248" lon="-5.6277647708">
        <ele>584.14</ele>
        <time>2021-05-30T09:55:44Z</time>
      </trkpt>
      <trkpt lat="38.4793224838" lon="-5.6270983256">
        <ele>585.58</ele>
        <time>2021-05-30T09:55:46Z</time>
      </trkpt>
      <trkpt lat="38.4791550133" lon="-5.6257819477">
        <ele>588.46</ele>
        <time>2021-05-30T09:55:50Z</time>
      </trkpt>
      <trkpt lat="38.4789328091" lon="-5.6240708660">
        <ele>593.75</ele>
        <time>2021-05-30T09:55:55Z</time>
      </trkpt>
      <trkpt lat="38.4788479004" lon="-5.6233846396">
        <ele>597.12</ele>
        <time>2021-05-30T09:55:57Z</time>
      </trkpt>
      <trkpt lat="38.4788066614" lon="-5.6230413169">
        <ele>596.15</ele>
        <time>2021-05-30T09:55:58Z</time>
      </trkpt>
      <trkpt lat="38.4784585610" lon="-5.6202544179">
        <ele>599.52</ele>
        <time>2021-05-30T09:56:06Z</time>
      </trkpt>
      <trkpt lat="38.4783682879" lon="-5.6195396092">
        <ele>594.71</ele>
        <time>2021-05-30T09:56:08Z</time>
      </trkpt>
      <trkpt lat="38.4783226904" lon="-5.6191815343">
        <ele>595.67</ele>
        <time>2021-05-30T09:56:09Z</time>
      </trkpt>
      <trkpt lat="38.4781864844" lon="-5.6181150209">
        <ele>590.87</ele>
        <time>2021-05-30T09:56:12Z</time>
      </trkpt>
      <trkpt lat="38.4781010728" lon="-5.6174163893">
        <ele>588.46</ele>
        <time>2021-05-30T09:56:14Z</time>
      </trkpt>
      <trkpt lat="38.4778368752" lon="-5.6153214164">
        <ele>584.14</ele>
        <time>2021-05-30T09:56:20Z</time>
      </trkpt>
      <trkpt lat="38.4777942952" lon="-5.6149745733">
        <ele>583.66</ele>
        <time>2021-05-30T09:56:21Z</time>
      </trkpt>
      <trkpt lat="38.4775359649" lon="-5.6129065063">
        <ele>580.29</ele>
        <time>2021-05-30T09:56:27Z</time>
      </trkpt>
      <trkpt lat="38.4774499666" lon="-5.6122107245">
        <ele>579.33</ele>
        <time>2021-05-30T09:56:29Z</time>
      </trkpt>
      <trkpt lat="38.4773171972" lon="-5.6111593824">
        <ele>581.25</ele>
        <time>2021-05-30T09:56:32Z</time>
      </trkpt>
      <trkpt lat="38.4770170413" lon="-5.6087759044">
        <ele>577.41</ele>
        <time>2021-05-30T09:56:39Z</time>
      </trkpt>
      <trkpt lat="38.4769749641" lon="-5.6084337551">
        <ele>576.93</ele>
        <time>2021-05-30T09:56:40Z</time>
      </trkpt>
      <trkpt lat="38.4762344230" lon="-5.6025613099">
        <ele>581.73</ele>
        <time>2021-05-30T09:56:57Z</time>
      </trkpt>
      <trkpt lat="38.4756641183" lon="-5.5980805121">
        <ele>580.29</ele>
        <time>2021-05-30T09:57:10Z</time>
      </trkpt>
      <trkpt lat="38.4754435904" lon="-5.5963675864">
        <ele>585.58</ele>
        <time>2021-05-30T09:57:15Z</time>
      </trkpt>
      <trkpt lat="38.4754000045" lon="-5.5960227549">
        <ele>584.14</ele>
        <time>2021-05-30T09:57:16Z</time>
      </trkpt>
      <trkpt lat="38.4751821589" lon="-5.5943101645">
        <ele>587.50</ele>
        <time>2021-05-30T09:57:21Z</time>
      </trkpt>
      <trkpt lat="38.4750519879" lon="-5.5933178309">
        <ele>590.39</ele>
        <time>2021-05-30T09:57:24Z</time>
      </trkpt>
      <trkpt lat="38.4749319591" lon="-5.5923678260">
        <ele>593.75</ele>
        <time>2021-05-30T09:57:27Z</time>
      </trkpt>
      <trkpt lat="38.4748546779" lon="-5.5917524267">
        <ele>596.64</ele>
        <time>2021-05-30T09:57:29Z</time>
      </trkpt>
      <trkpt lat="38.4746959247" lon="-5.5905310158">
        <ele>600.00</ele>
        <time>2021-05-30T09:57:33Z</time>
      </trkpt>
      <trkpt lat="38.4746287856" lon="-5.5899566039">
        <ele>600.96</ele>
        <time>2021-05-30T09:57:35Z</time>
      </trkpt>
      <trkpt lat="38.4746452142" lon="-5.5887510348">
        <ele>605.29</ele>
        <time>2021-05-30T09:57:39Z</time>
      </trkpt>
      <trkpt lat="38.4746996127" lon="-5.5884332769">
        <ele>605.29</ele>
        <time>2021-05-30T09:57:40Z</time>
      </trkpt>
      <trkpt lat="38.4747768939" lon="-5.5881158542">
        <ele>603.36</ele>
        <time>2021-05-30T09:57:41Z</time>
      </trkpt>
      <trkpt lat="38.4748758003" lon="-5.5878037121">
        <ele>603.36</ele>
        <time>2021-05-30T09:57:42Z</time>
      </trkpt>
      <trkpt lat="38.4749914706" lon="-5.5875070766">
        <ele>602.40</ele>
        <time>2021-05-30T09:57:43Z</time>
      </trkpt>
      <trkpt lat="38.4759883303" lon="-5.5855167098">
        <ele>597.12</ele>
        <time>2021-05-30T09:57:50Z</time>
      </trkpt>
      <trkpt lat="38.4764761571" lon="-5.5840566661">
        <ele>592.79</ele>
        <time>2021-05-30T09:57:55Z</time>
      </trkpt>
      <trkpt lat="38.4766018856" lon="-5.5830795038">
        <ele>589.43</ele>
        <time>2021-05-30T09:57:58Z</time>
      </trkpt>
      <trkpt lat="38.4766242653" lon="-5.5824202672">
        <ele>586.06</ele>
        <time>2021-05-30T09:58:00Z</time>
      </trkpt>
      <trkpt lat="38.4766293783" lon="-5.5817632936">
        <ele>582.70</ele>
        <time>2021-05-30T09:58:02Z</time>
      </trkpt>
      <trkpt lat="38.4766410291" lon="-5.5811178870">
        <ele>579.33</ele>
        <time>2021-05-30T09:58:04Z</time>
      </trkpt>
      <trkpt lat="38.4766480699" lon="-5.5808037333">
        <ele>575.01</ele>
        <time>2021-05-30T09:58:05Z</time>
      </trkpt>
      <trkpt lat="38.4766564518" lon="-5.5801948719">
        <ele>571.16</ele>
        <time>2021-05-30T09:58:07Z</time>
      </trkpt>
      <trkpt lat="38.4766617324" lon="-5.5795770418">
        <ele>567.80</ele>
        <time>2021-05-30T09:58:09Z</time>
      </trkpt>
      <trkpt lat="38.4766630735" lon="-5.5789721198">
        <ele>565.87</ele>
        <time>2021-05-30T09:58:11Z</time>
      </trkpt>
      <trkpt lat="38.4765520133" lon="-5.5777829792">
        <ele>562.51</ele>
        <time>2021-05-30T09:58:15Z</time>
      </trkpt>
      <trkpt lat="38.4764949325" lon="-5.5774824880">
        <ele>562.51</ele>
        <time>2021-05-30T09:58:16Z</time>
      </trkpt>
      <trkpt lat="38.4760936908" lon="-5.5756382179">
        <ele>560.59</ele>
        <time>2021-05-30T09:58:22Z</time>
      </trkpt>
      <trkpt lat="38.4757614322" lon="-5.5740775913">
        <ele>557.70</ele>
        <time>2021-05-30T09:58:27Z</time>
      </trkpt>
      <trkpt lat="38.4755635355" lon="-5.5731531512">
        <ele>554.34</ele>
        <time>2021-05-30T09:58:30Z</time>
      </trkpt>
      <trkpt lat="38.4753374755" lon="-5.5719794333">
        <ele>550.49</ele>
        <time>2021-05-30T09:58:34Z</time>
      </trkpt>
      <trkpt lat="38.4752796404" lon="-5.5714365374">
        <ele>547.13</ele>
        <time>2021-05-30T09:58:36Z</time>
      </trkpt>
      <trkpt lat="38.4752563387" lon="-5.5711834040">
        <ele>547.13</ele>
        <time>2021-05-30T09:58:37Z</time>
      </trkpt>
      <trkpt lat="38.4751796443" lon="-5.5704734568">
        <ele>545.20</ele>
        <time>2021-05-30T09:58:40Z</time>
      </trkpt>
      <trkpt lat="38.4749075677" lon="-5.5689176917">
        <ele>541.84</ele>
        <time>2021-05-30T09:58:47Z</time>
      </trkpt>
      <trkpt lat="38.4748094995" lon="-5.5684076529">
        <ele>538.96</ele>
        <time>2021-05-30T09:58:50Z</time>
      </trkpt>
      <trkpt lat="38.4747494012" lon="-5.5681186449">
        <ele>537.99</ele>
        <time>2021-05-30T09:58:52Z</time>
      </trkpt>
      <trkpt lat="38.4746006224" lon="-5.5673146527">
        <ele>535.59</ele>
        <time>2021-05-30T09:59:00Z</time>
      </trkpt>
      <trkpt lat="38.4745575394" lon="-5.5671838950">
        <ele>534.63</ele>
        <time>2021-05-30T09:59:02Z</time>
      </trkpt>
      <trkpt lat="38.4745292924" lon="-5.5671291612">
        <ele>535.11</ele>
        <time>2021-05-30T09:59:03Z</time>
      </trkpt>
      <trkpt lat="38.4744904842" lon="-5.5670814682">
        <ele>535.11</ele>
        <time>2021-05-30T09:59:04Z</time>
      </trkpt>
      <trkpt lat="38.4744354989" lon="-5.5670390557">
        <ele>535.59</ele>
        <time>2021-05-30T09:59:05Z</time>
      </trkpt>
      <trkpt lat="38.4743634146" lon="-5.5669947993">
        <ele>537.51</ele>
        <time>2021-05-30T09:59:06Z</time>
      </trkpt>
      <trkpt lat="38.4742779192" lon="-5.5669435021">
        <ele>537.51</ele>
        <time>2021-05-30T09:59:07Z</time>
      </trkpt>
      <trkpt lat="38.4735856578" lon="-5.5665256642">
        <ele>540.88</ele>
        <time>2021-05-30T09:59:14Z</time>
      </trkpt>
      <trkpt lat="38.4728923906" lon="-5.5660483148">
        <ele>540.40</ele>
        <time>2021-05-30T09:59:23Z</time>
      </trkpt>
      <trkpt lat="38.4722756501" lon="-5.5652773473">
        <ele>539.44</ele>
        <time>2021-05-30T09:59:33Z</time>
      </trkpt>
      <trkpt lat="38.4721609019" lon="-5.5651081167">
        <ele>538.96</ele>
        <time>2021-05-30T09:59:36Z</time>
      </trkpt>
      <trkpt lat="38.4721425455" lon="-5.5650474317">
        <ele>538.48</ele>
        <time>2021-05-30T09:59:37Z</time>
      </trkpt>
      <trkpt lat="38.4721407853" lon="-5.5649764370">
        <ele>537.99</ele>
        <time>2021-05-30T09:59:38Z</time>
      </trkpt>
      <trkpt lat="38.4721570462" lon="-5.5648978148">
        <ele>538.48</ele>
        <time>2021-05-30T09:59:39Z</time>
      </trkpt>
      <trkpt lat="38.4721860476" lon="-5.5648185220">
        <ele>537.99</ele>
        <time>2021-05-30T09:59:40Z</time>
      </trkpt>
      <trkpt lat="38.4722186532" lon="-5.5647334456">
        <ele>537.99</ele>
        <time>2021-05-30T09:59:41Z</time>
      </trkpt>
      <trkpt lat="38.4722422063" lon="-5.5646318570">
        <ele>537.51</ele>
        <time>2021-05-30T09:59:42Z</time>
      </trkpt>
      <trkpt lat="38.4722634126" lon="-5.5645173602">
        <ele>536.55</ele>
        <time>2021-05-30T09:59:43Z</time>
      </trkpt>
      <trkpt lat="38.4725137800" lon="-5.5633945204">
        <ele>535.11</ele>
        <time>2021-05-30T09:59:53Z</time>
      </trkpt>
      <trkpt lat="38.4729370661" lon="-5.5624935497">
        <ele>533.67</ele>
        <time>2021-05-30T10:00:03Z</time>
      </trkpt>
      <trkpt lat="38.4730424266" lon="-5.5622433499">
        <ele>533.67</ele>
        <time>2021-05-30T10:00:07Z</time>
      </trkpt>
      <trkpt lat="38.4732101485" lon="-5.5612531956">
        <ele>533.67</ele>
        <time>2021-05-30T10:00:16Z</time>
      </trkpt>
      <trkpt lat="38.4732884355" lon="-5.5609742459">
        <ele>533.67</ele>
        <time>2021-05-30T10:00:18Z</time>
      </trkpt>
      <trkpt lat="38.4733466897" lon="-5.5608355254">
        <ele>533.19</ele>
        <time>2021-05-30T10:00:19Z</time>
      </trkpt>
      <trkpt lat="38.4734156728" lon="-5.5606907699">
        <ele>533.19</ele>
        <time>2021-05-30T10:00:20Z</time>
      </trkpt>
      <trkpt lat="38.4742284659" lon="-5.5591505952">
        <ele>529.82</ele>
        <time>2021-05-30T10:00:29Z</time>
      </trkpt>
      <trkpt lat="38.4746205714" lon="-5.5583986547">
        <ele>526.94</ele>
        <time>2021-05-30T10:00:33Z</time>
      </trkpt>
      <trkpt lat="38.4749946557" lon="-5.5576648191">
        <ele>523.09</ele>
        <time>2021-05-30T10:00:37Z</time>
      </trkpt>
      <trkpt lat="38.4754880145" lon="-5.5566844717">
        <ele>520.21</ele>
        <time>2021-05-30T10:00:42Z</time>
      </trkpt>
      <trkpt lat="38.4762460738" lon="-5.5544325896">
        <ele>520.21</ele>
        <time>2021-05-30T10:00:52Z</time>
      </trkpt>
      <trkpt lat="38.4767040610" lon="-5.5535667390">
        <ele>517.81</ele>
        <time>2021-05-30T10:00:58Z</time>
      </trkpt>
      <trkpt lat="38.4768542647" lon="-5.5533592030">
        <ele>516.85</ele>
        <time>2021-05-30T10:01:01Z</time>
      </trkpt>
      <trkpt lat="38.4768722020" lon="-5.5533120129">
        <ele>516.85</ele>
        <time>2021-05-30T10:01:02Z</time>
      </trkpt>
      <trkpt lat="38.4768737946" lon="-5.5532697681">
        <ele>517.33</ele>
        <time>2021-05-30T10:01:03Z</time>
      </trkpt>
      <trkpt lat="38.4768665023" lon="-5.5532404315">
        <ele>517.33</ele>
        <time>2021-05-30T10:01:04Z</time>
      </trkpt>
      <trkpt lat="38.4768594615" lon="-5.5532185547">
        <ele>516.85</ele>
        <time>2021-05-30T10:01:05Z</time>
      </trkpt>
      <trkpt lat="38.4768568631" lon="-5.5531989411">
        <ele>516.85</ele>
        <time>2021-05-30T10:01:06Z</time>
      </trkpt>
      <trkpt lat="38.4768762253" lon="-5.5531824287">
        <ele>516.85</ele>
        <time>2021-05-30T10:01:16Z</time>
      </trkpt>
      <trkpt lat="38.4768915642" lon="-5.5531281140">
        <ele>517.33</ele>
        <time>2021-05-30T10:01:30Z</time>
      </trkpt>
      <trkpt lat="38.4768832661" lon="-5.5531096738">
        <ele>517.33</ele>
        <time>2021-05-30T10:02:01Z</time>
      </trkpt>
      <trkpt lat="38.4768701065" lon="-5.5531154573">
        <ele>517.33</ele>
        <time>2021-05-30T10:02:37Z</time>
      </trkpt>
      <trkpt lat="38.4768768121" lon="-5.5531157926">
        <ele>517.33</ele>
        <time>2021-05-30T10:03:09Z</time>
      </trkpt>
      <trkpt lat="38.4768809192" lon="-5.5531246774">
        <ele>518.77</ele>
        <time>2021-05-30T10:03:58Z</time>
      </trkpt>
      <trkpt lat="38.4768821765" lon="-5.5531138647">
        <ele>518.77</ele>
        <time>2021-05-30T10:04:45Z</time>
      </trkpt>
      <trkpt lat="38.4768867865" lon="-5.5531091709">
        <ele>518.77</ele>
        <time>2021-05-30T10:05:37Z</time>
      </trkpt>
      <trkpt lat="38.4768623114" lon="-5.5531235877">
        <ele>519.25</ele>
        <time>2021-05-30T10:06:14Z</time>
      </trkpt>
      <trkpt lat="38.4768768959" lon="-5.5531084165">
        <ele>518.77</ele>
        <time>2021-05-30T10:06:35Z</time>
      </trkpt>
      <trkpt lat="38.4769069031" lon="-5.5530969333">
        <ele>519.73</ele>
        <time>2021-05-30T10:07:12Z</time>
      </trkpt>
      <trkpt lat="38.4769124351" lon="-5.5530871265">
        <ele>519.73</ele>
        <time>2021-05-30T10:07:58Z</time>
      </trkpt>
      <trkpt lat="38.4769102558" lon="-5.5530973524">
        <ele>520.21</ele>
        <time>2021-05-30T10:08:30Z</time>
      </trkpt>
      <trkpt lat="38.4768943302" lon="-5.5531028006">
        <ele>520.21</ele>
        <time>2021-05-30T10:09:02Z</time>
      </trkpt>
      <trkpt lat="38.4768988565" lon="-5.5531015433">
        <ele>520.21</ele>
        <time>2021-05-30T10:09:32Z</time>
      </trkpt>
      <trkpt lat="38.4768524207" lon="-5.5531224143">
        <ele>519.73</ele>
        <time>2021-05-30T10:10:07Z</time>
      </trkpt>
      <trkpt lat="38.4768581204" lon="-5.5531193968">
        <ele>519.73</ele>
        <time>2021-05-30T10:10:43Z</time>
      </trkpt>
      <trkpt lat="38.4768908937" lon="-5.5530981068">
        <ele>520.21</ele>
        <time>2021-05-30T10:11:15Z</time>
      </trkpt>
      <trkpt lat="38.4769099206" lon="-5.5531180557">
        <ele>520.69</ele>
        <time>2021-05-30T10:12:02Z</time>
      </trkpt>
      <trkpt lat="38.4768810030" lon="-5.5531137809">
        <ele>521.17</ele>
        <time>2021-05-30T10:12:40Z</time>
      </trkpt>
      <trkpt lat="38.4768950008" lon="-5.5531046446">
        <ele>521.65</ele>
        <time>2021-05-30T10:13:16Z</time>
      </trkpt>
      <trkpt lat="38.4769030474" lon="-5.5530851986">
        <ele>521.65</ele>
        <time>2021-05-30T10:13:22Z</time>
      </trkpt>
      <trkpt lat="38.4769192245" lon="-5.5530662555">
        <ele>521.65</ele>
        <time>2021-05-30T10:13:23Z</time>
      </trkpt>
      <trkpt lat="38.4769421071" lon="-5.5530545209">
        <ele>522.13</ele>
        <time>2021-05-30T10:13:24Z</time>
      </trkpt>
      <trkpt lat="38.4769659117" lon="-5.5530437920">
        <ele>522.61</ele>
        <time>2021-05-30T10:13:25Z</time>
      </trkpt>
      <trkpt lat="38.4769799095" lon="-5.5530267768">
        <ele>522.61</ele>
        <time>2021-05-30T10:13:26Z</time>
      </trkpt>
      <trkpt lat="38.4770858567" lon="-5.5528968573">
        <ele>521.65</ele>
        <time>2021-05-30T10:13:36Z</time>
      </trkpt>
      <trkpt lat="38.4771110024" lon="-5.5529044848">
        <ele>521.65</ele>
        <time>2021-05-30T10:13:37Z</time>
      </trkpt>
      <trkpt lat="38.4771441109" lon="-5.5529189855">
        <ele>522.61</ele>
        <time>2021-05-30T10:13:38Z</time>
      </trkpt>
      <trkpt lat="38.4771788958" lon="-5.5529331509">
        <ele>522.13</ele>
        <time>2021-05-30T10:13:39Z</time>
      </trkpt>
      <trkpt lat="38.4772175364" lon="-5.5529353302">
        <ele>522.61</ele>
        <time>2021-05-30T10:13:40Z</time>
      </trkpt>
      <trkpt lat="38.4772601165" lon="-5.5529285409">
        <ele>522.61</ele>
        <time>2021-05-30T10:13:41Z</time>
      </trkpt>
      <trkpt lat="38.4773223102" lon="-5.5529044848">
        <ele>523.58</ele>
        <time>2021-05-30T10:13:42Z</time>
      </trkpt>
      <trkpt lat="38.4774031118" lon="-5.5528519303">
        <ele>524.54</ele>
        <time>2021-05-30T10:13:43Z</time>
      </trkpt>
      <trkpt lat="38.4774919599" lon="-5.5527828634">
        <ele>525.02</ele>
        <time>2021-05-30T10:13:44Z</time>
      </trkpt>
      <trkpt lat="38.4776853304" lon="-5.5526457354">
        <ele>525.98</ele>
        <time>2021-05-30T10:13:46Z</time>
      </trkpt>
      <trkpt lat="38.4786433820" lon="-5.5521213636">
        <ele>529.34</ele>
        <time>2021-05-30T10:13:55Z</time>
      </trkpt>
      <trkpt lat="38.4789119381" lon="-5.5519862473">
        <ele>533.19</ele>
        <time>2021-05-30T10:13:57Z</time>
      </trkpt>
      <trkpt lat="38.4793528263" lon="-5.5517585110">
        <ele>536.07</ele>
        <time>2021-05-30T10:14:00Z</time>
      </trkpt>
      <trkpt lat="38.4798607696" lon="-5.5514472071">
        <ele>541.36</ele>
        <time>2021-05-30T10:14:03Z</time>
      </trkpt>
      <trkpt lat="38.4803716466" lon="-5.5510065705">
        <ele>544.72</ele>
        <time>2021-05-30T10:14:06Z</time>
      </trkpt>
      <trkpt lat="38.4810313024" lon="-5.5501534604">
        <ele>548.57</ele>
        <time>2021-05-30T10:14:10Z</time>
      </trkpt>
      <trkpt lat="38.4813594539" lon="-5.5496628676">
        <ele>551.93</ele>
        <time>2021-05-30T10:14:12Z</time>
      </trkpt>
      <trkpt lat="38.4825642686" lon="-5.5478397198">
        <ele>548.57</ele>
        <time>2021-05-30T10:14:19Z</time>
      </trkpt>
      <trkpt lat="38.4829297196" lon="-5.5472837482">
        <ele>547.61</ele>
        <time>2021-05-30T10:14:21Z</time>
      </trkpt>
      <trkpt lat="38.4840357117" lon="-5.5456005782">
        <ele>551.45</ele>
        <time>2021-05-30T10:14:27Z</time>
      </trkpt>
      <trkpt lat="38.4864217043" lon="-5.5419885647">
        <ele>554.82</ele>
        <time>2021-05-30T10:14:40Z</time>
      </trkpt>
      <trkpt lat="38.4867603332" lon="-5.5414828844">
        <ele>551.93</ele>
        <time>2021-05-30T10:14:42Z</time>
      </trkpt>
      <trkpt lat="38.4880683292" lon="-5.5395015702">
        <ele>548.57</ele>
        <time>2021-05-30T10:14:50Z</time>
      </trkpt>
      <trkpt lat="38.4889247920" lon="-5.5382058956">
        <ele>549.05</ele>
        <time>2021-05-30T10:14:55Z</time>
      </trkpt>
      <trkpt lat="38.4896188974" lon="-5.5371464230">
        <ele>545.69</ele>
        <time>2021-05-30T10:14:59Z</time>
      </trkpt>
      <trkpt lat="38.4901316185" lon="-5.5363653973">
        <ele>547.13</ele>
        <time>2021-05-30T10:15:02Z</time>
      </trkpt>
      <trkpt lat="38.4908056911" lon="-5.5353454035">
        <ele>548.57</ele>
        <time>2021-05-30T10:15:06Z</time>
      </trkpt>
      <trkpt lat="38.4914766625" lon="-5.5343194585">
        <ele>552.41</ele>
        <time>2021-05-30T10:15:10Z</time>
      </trkpt>
      <trkpt lat="38.4916521795" lon="-5.5340564344">
        <ele>555.30</ele>
        <time>2021-05-30T10:15:11Z</time>
      </trkpt>
      <trkpt lat="38.4931247961" lon="-5.5318373255">
        <ele>551.45</ele>
        <time>2021-05-30T10:15:19Z</time>
      </trkpt>
      <trkpt lat="38.4944279306" lon="-5.5298462044">
        <ele>549.05</ele>
        <time>2021-05-30T10:15:26Z</time>
      </trkpt>
      <trkpt lat="38.4960294608" lon="-5.5274095852">
        <ele>550.97</ele>
        <time>2021-05-30T10:15:35Z</time>
      </trkpt>
      <trkpt lat="38.4992058668" lon="-5.5226019770">
        <ele>547.61</ele>
        <time>2021-05-30T10:15:53Z</time>
      </trkpt>
      <trkpt lat="38.5013124906" lon="-5.5193903670">
        <ele>550.97</ele>
        <time>2021-05-30T10:16:05Z</time>
      </trkpt>
      <trkpt lat="38.5020187497" lon="-5.5182960257">
        <ele>555.30</ele>
        <time>2021-05-30T10:16:09Z</time>
      </trkpt>
      <trkpt lat="38.5021951050" lon="-5.5180230271">
        <ele>554.82</ele>
        <time>2021-05-30T10:16:10Z</time>
      </trkpt>
      <trkpt lat="38.5027212370" lon="-5.5172023550">
        <ele>557.22</ele>
        <time>2021-05-30T10:16:13Z</time>
      </trkpt>
      <trkpt lat="38.5030730255" lon="-5.5166532565">
        <ele>561.55</ele>
        <time>2021-05-30T10:16:15Z</time>
      </trkpt>
      <trkpt lat="38.5035368800" lon="-5.5157703906">
        <ele>565.87</ele>
        <time>2021-05-30T10:16:18Z</time>
      </trkpt>
      <trkpt lat="38.5036595073" lon="-5.5154460110">
        <ele>569.24</ele>
        <time>2021-05-30T10:16:19Z</time>
      </trkpt>
      <trkpt lat="38.5039022472" lon="-5.5144000333">
        <ele>574.04</ele>
        <time>2021-05-30T10:16:22Z</time>
      </trkpt>
      <trkpt lat="38.5039393790" lon="-5.5140367616">
        <ele>577.89</ele>
        <time>2021-05-30T10:16:23Z</time>
      </trkpt>
      <trkpt lat="38.5039570648" lon="-5.5133018363">
        <ele>583.18</ele>
        <time>2021-05-30T10:16:25Z</time>
      </trkpt>
      <trkpt lat="38.5039409716" lon="-5.5121954251">
        <ele>586.06</ele>
        <time>2021-05-30T10:16:28Z</time>
      </trkpt>
      <trkpt lat="38.5039377026" lon="-5.5118245259">
        <ele>589.43</ele>
        <time>2021-05-30T10:16:29Z</time>
      </trkpt>
      <trkpt lat="38.5039304942" lon="-5.5107124988">
        <ele>594.23</ele>
        <time>2021-05-30T10:16:32Z</time>
      </trkpt>
      <trkpt lat="38.5039393790" lon="-5.5096771661">
        <ele>597.60</ele>
        <time>2021-05-30T10:16:35Z</time>
      </trkpt>
      <trkpt lat="38.5039657820" lon="-5.5093564745">
        <ele>597.60</ele>
        <time>2021-05-30T10:16:36Z</time>
      </trkpt>
      <trkpt lat="38.5040181689" lon="-5.5090460088">
        <ele>597.60</ele>
        <time>2021-05-30T10:16:37Z</time>
      </trkpt>
      <trkpt lat="38.5040982161" lon="-5.5087419134">
        <ele>596.64</ele>
        <time>2021-05-30T10:16:38Z</time>
      </trkpt>
      <trkpt lat="38.5042046662" lon="-5.5084460322">
        <ele>597.12</ele>
        <time>2021-05-30T10:16:39Z</time>
      </trkpt>
      <trkpt lat="38.5043377709" lon="-5.5081667472">
        <ele>597.60</ele>
        <time>2021-05-30T10:16:40Z</time>
      </trkpt>
      <trkpt lat="38.5044963565" lon="-5.5079040583">
        <ele>598.08</ele>
        <time>2021-05-30T10:16:41Z</time>
      </trkpt>
      <trkpt lat="38.5046813451" lon="-5.5076654255">
        <ele>598.56</ele>
        <time>2021-05-30T10:16:42Z</time>
      </trkpt>
      <trkpt lat="38.5048908927" lon="-5.5074548721">
        <ele>598.08</ele>
        <time>2021-05-30T10:16:43Z</time>
      </trkpt>
      <trkpt lat="38.5051228199" lon="-5.5072736554">
        <ele>596.15</ele>
        <time>2021-05-30T10:16:44Z</time>
      </trkpt>
      <trkpt lat="38.5053739417" lon="-5.5071191769">
        <ele>595.67</ele>
        <time>2021-05-30T10:16:45Z</time>
      </trkpt>
      <trkpt lat="38.5056378040" lon="-5.5069848150">
        <ele>597.12</ele>
        <time>2021-05-30T10:16:46Z</time>
      </trkpt>
      <trkpt lat="38.5070338100" lon="-5.5063281767">
        <ele>595.67</ele>
        <time>2021-05-30T10:16:51Z</time>
      </trkpt>
      <trkpt lat="38.5076050367" lon="-5.5060482211">
        <ele>594.71</ele>
        <time>2021-05-30T10:16:53Z</time>
      </trkpt>
      <trkpt lat="38.5084599908" lon="-5.5056501646">
        <ele>590.39</ele>
        <time>2021-05-30T10:16:56Z</time>
      </trkpt>
      <trkpt lat="38.5090372525" lon="-5.5054730549">
        <ele>588.46</ele>
        <time>2021-05-30T10:16:58Z</time>
      </trkpt>
      <trkpt lat="38.5093292780" lon="-5.5054291338">
        <ele>587.02</ele>
        <time>2021-05-30T10:16:59Z</time>
      </trkpt>
      <trkpt lat="38.5096223932" lon="-5.5054179858">
        <ele>585.10</ele>
        <time>2021-05-30T10:17:00Z</time>
      </trkpt>
      <trkpt lat="38.5099161789" lon="-5.5054369289">
        <ele>584.62</ele>
        <time>2021-05-30T10:17:01Z</time>
      </trkpt>
      <trkpt lat="38.5102073662" lon="-5.5054839514">
        <ele>584.62</ele>
        <time>2021-05-30T10:17:02Z</time>
      </trkpt>
      <trkpt lat="38.5104921833" lon="-5.5055607297">
        <ele>583.18</ele>
        <time>2021-05-30T10:17:03Z</time>
      </trkpt>
      <trkpt lat="38.5107696243" lon="-5.5056670960">
        <ele>581.73</ele>
        <time>2021-05-30T10:17:04Z</time>
      </trkpt>
      <trkpt lat="38.5110394377" lon="-5.5058013741">
        <ele>579.81</ele>
        <time>2021-05-30T10:17:05Z</time>
      </trkpt>
      <trkpt lat="38.5112991929" lon="-5.5059622228">
        <ele>580.29</ele>
        <time>2021-05-30T10:17:06Z</time>
      </trkpt>
      <trkpt lat="38.5115507338" lon="-5.5061513186">
        <ele>577.89</ele>
        <time>2021-05-30T10:17:07Z</time>
      </trkpt>
      <trkpt lat="38.5117948148" lon="-5.5063689128">
        <ele>576.45</ele>
        <time>2021-05-30T10:17:08Z</time>
      </trkpt>
      <trkpt lat="38.5120325256" lon="-5.5066126585">
        <ele>576.93</ele>
        <time>2021-05-30T10:17:09Z</time>
      </trkpt>
      <trkpt lat="38.5129208397" lon="-5.5076386034">
        <ele>573.56</ele>
        <time>2021-05-30T10:17:13Z</time>
      </trkpt>
      <trkpt lat="38.5133648291" lon="-5.5081026256">
        <ele>573.08</ele>
        <time>2021-05-30T10:17:15Z</time>
      </trkpt>
      <trkpt lat="38.5136027914" lon="-5.5083006900">
        <ele>571.64</ele>
        <time>2021-05-30T10:17:16Z</time>
      </trkpt>
      <trkpt lat="38.5138555896" lon="-5.5084687471">
        <ele>572.12</ele>
        <time>2021-05-30T10:17:17Z</time>
      </trkpt>
      <trkpt lat="38.5156740434" lon="-5.5093709752">
        <ele>566.35</ele>
        <time>2021-05-30T10:17:24Z</time>
      </trkpt>
      <trkpt lat="38.5164882615" lon="-5.5094921775">
        <ele>563.47</ele>
        <time>2021-05-30T10:17:27Z</time>
      </trkpt>
      <trkpt lat="38.5167756770" lon="-5.5094813649">
        <ele>563.47</ele>
        <time>2021-05-30T10:17:28Z</time>
      </trkpt>
      <trkpt lat="38.5179125983" lon="-5.5093088653">
        <ele>560.11</ele>
        <time>2021-05-30T10:17:32Z</time>
      </trkpt>
      <trkpt lat="38.5181729402" lon="-5.5092372838">
        <ele>559.62</ele>
        <time>2021-05-30T10:17:33Z</time>
      </trkpt>
      <trkpt lat="38.5184244812" lon="-5.5091309175">
        <ele>557.22</ele>
        <time>2021-05-30T10:17:34Z</time>
      </trkpt>
      <trkpt lat="38.5186691489" lon="-5.5089854915">
        <ele>555.30</ele>
        <time>2021-05-30T10:17:35Z</time>
      </trkpt>
      <trkpt lat="38.5188957956" lon="-5.5088036042">
        <ele>555.78</ele>
        <time>2021-05-30T10:17:36Z</time>
      </trkpt>
      <trkpt lat="38.5190995596" lon="-5.5085877702">
        <ele>558.66</ele>
        <time>2021-05-30T10:17:37Z</time>
      </trkpt>
      <trkpt lat="38.5192814469" lon="-5.5083412584">
        <ele>559.14</ele>
        <time>2021-05-30T10:17:38Z</time>
      </trkpt>
      <trkpt lat="38.5194416251" lon="-5.5080674216">
        <ele>558.18</ele>
        <time>2021-05-30T10:17:39Z</time>
      </trkpt>
      <trkpt lat="38.5195759032" lon="-5.5077732168">
        <ele>559.14</ele>
        <time>2021-05-30T10:17:40Z</time>
      </trkpt>
      <trkpt lat="38.5196831916" lon="-5.5074588116">
        <ele>560.11</ele>
        <time>2021-05-30T10:17:41Z</time>
      </trkpt>
      <trkpt lat="38.5197611433" lon="-5.5071267206">
        <ele>562.03</ele>
        <time>2021-05-30T10:17:42Z</time>
      </trkpt>
      <trkpt lat="38.5198091716" lon="-5.5067775305">
        <ele>563.47</ele>
        <time>2021-05-30T10:17:43Z</time>
      </trkpt>
      <trkpt lat="38.5198233370" lon="-5.5064204615">
        <ele>565.87</ele>
        <time>2021-05-30T10:17:44Z</time>
      </trkpt>
      <trkpt lat="38.5198059864" lon="-5.5060612969">
        <ele>567.80</ele>
        <time>2021-05-30T10:17:45Z</time>
      </trkpt>
      <trkpt lat="38.5197675973" lon="-5.5056989472">
        <ele>569.24</ele>
        <time>2021-05-30T10:17:46Z</time>
      </trkpt>
      <trkpt lat="38.5197162163" lon="-5.5053327419">
        <ele>570.68</ele>
        <time>2021-05-30T10:17:47Z</time>
      </trkpt>
      <trkpt lat="38.5196007136" lon="-5.5045911949">
        <ele>574.04</ele>
        <time>2021-05-30T10:17:49Z</time>
      </trkpt>
      <trkpt lat="38.5194886476" lon="-5.5038405117">
        <ele>578.85</ele>
        <time>2021-05-30T10:17:51Z</time>
      </trkpt>
      <trkpt lat="38.5193771683" lon="-5.5030961987">
        <ele>582.22</ele>
        <time>2021-05-30T10:17:53Z</time>
      </trkpt>
      <trkpt lat="38.5193219315" lon="-5.5027322564">
        <ele>582.22</ele>
        <time>2021-05-30T10:17:54Z</time>
      </trkpt>
      <trkpt lat="38.5191963706" lon="-5.5016943254">
        <ele>582.70</ele>
        <time>2021-05-30T10:17:57Z</time>
      </trkpt>
      <trkpt lat="38.5191962868" lon="-5.5013603065">
        <ele>583.18</ele>
        <time>2021-05-30T10:17:58Z</time>
      </trkpt>
      <trkpt lat="38.5192275513" lon="-5.5010282155">
        <ele>583.18</ele>
        <time>2021-05-30T10:17:59Z</time>
      </trkpt>
      <trkpt lat="38.5192896612" lon="-5.5007008184">
        <ele>584.14</ele>
        <time>2021-05-30T10:18:00Z</time>
      </trkpt>
      <trkpt lat="38.5193829518" lon="-5.5003797077">
        <ele>582.22</ele>
        <time>2021-05-30T10:18:01Z</time>
      </trkpt>
      <trkpt lat="38.5195055790" lon="-5.5000720918">
        <ele>583.18</ele>
        <time>2021-05-30T10:18:02Z</time>
      </trkpt>
      <trkpt lat="38.5196566209" lon="-5.4997866880">
        <ele>583.66</ele>
        <time>2021-05-30T10:18:03Z</time>
      </trkpt>
      <trkpt lat="38.5198338982" lon="-5.4995272681">
        <ele>584.14</ele>
        <time>2021-05-30T10:18:04Z</time>
      </trkpt>
      <trkpt lat="38.5200386681" lon="-5.4993000347">
        <ele>583.66</ele>
        <time>2021-05-30T10:18:05Z</time>
      </trkpt>
      <trkpt lat="38.5202616267" lon="-5.4991014674">
        <ele>584.62</ele>
        <time>2021-05-30T10:18:06Z</time>
      </trkpt>
      <trkpt lat="38.5204995889" lon="-5.4989396129">
        <ele>584.62</ele>
        <time>2021-05-30T10:18:07Z</time>
      </trkpt>
      <trkpt lat="38.5207531415" lon="-5.4988189135">
        <ele>584.14</ele>
        <time>2021-05-30T10:18:08Z</time>
      </trkpt>
      <trkpt lat="38.5210216139" lon="-5.4987304006">
        <ele>584.62</ele>
        <time>2021-05-30T10:18:09Z</time>
      </trkpt>
      <trkpt lat="38.5213065147" lon="-5.4986754991">
        <ele>586.06</ele>
        <time>2021-05-30T10:18:10Z</time>
      </trkpt>
      <trkpt lat="38.5216022283" lon="-5.4986397922">
        <ele>587.02</ele>
        <time>2021-05-30T10:18:11Z</time>
      </trkpt>
      <trkpt lat="38.5222128499" lon="-5.4985831305">
        <ele>587.98</ele>
        <time>2021-05-30T10:18:13Z</time>
      </trkpt>
      <trkpt lat="38.5228348710" lon="-5.4985224456">
        <ele>585.58</ele>
        <time>2021-05-30T10:18:15Z</time>
      </trkpt>
      <trkpt lat="38.5240877979" lon="-5.4983876646">
        <ele>582.22</ele>
        <time>2021-05-30T10:18:19Z</time>
      </trkpt>
      <trkpt lat="38.5249817278" lon="-5.4982910212">
        <ele>575.97</ele>
        <time>2021-05-30T10:18:22Z</time>
      </trkpt>
      <trkpt lat="38.5258604027" lon="-5.4983139876">
        <ele>572.12</ele>
        <time>2021-05-30T10:18:25Z</time>
      </trkpt>
      <trkpt lat="38.5261615645" lon="-5.4983768519">
        <ele>572.12</ele>
        <time>2021-05-30T10:18:26Z</time>
      </trkpt>
      <trkpt lat="38.5273631103" lon="-5.4988002218">
        <ele>568.28</ele>
        <time>2021-05-30T10:18:30Z</time>
      </trkpt>
      <trkpt lat="38.5279403720" lon="-5.4990173131">
        <ele>563.95</ele>
        <time>2021-05-30T10:18:32Z</time>
      </trkpt>
      <trkpt lat="38.5284723714" lon="-5.4992090911">
        <ele>558.18</ele>
        <time>2021-05-30T10:18:34Z</time>
      </trkpt>
      <trkpt lat="38.5287268460" lon="-5.4992789961">
        <ele>554.34</ele>
        <time>2021-05-30T10:18:35Z</time>
      </trkpt>
      <trkpt lat="38.5289832484" lon="-5.4993151221">
        <ele>551.93</ele>
        <time>2021-05-30T10:18:36Z</time>
      </trkpt>
      <trkpt lat="38.5292437579" lon="-5.4993134458">
        <ele>549.53</ele>
        <time>2021-05-30T10:18:37Z</time>
      </trkpt>
      <trkpt lat="38.5295052733" lon="-5.4992709495">
        <ele>548.57</ele>
        <time>2021-05-30T10:18:38Z</time>
      </trkpt>
      <trkpt lat="38.5297622625" lon="-5.4991871305">
        <ele>545.69</ele>
        <time>2021-05-30T10:18:39Z</time>
      </trkpt>
      <trkpt lat="38.5300096124" lon="-5.4990633298">
        <ele>545.69</ele>
        <time>2021-05-30T10:18:40Z</time>
      </trkpt>
      <trkpt lat="38.5302466527" lon="-5.4988991283">
        <ele>541.36</ele>
        <time>2021-05-30T10:18:41Z</time>
      </trkpt>
      <trkpt lat="38.5304694436" lon="-5.4987021536">
        <ele>539.92</ele>
        <time>2021-05-30T10:18:42Z</time>
      </trkpt>
      <trkpt lat="38.5306711961" lon="-5.4984725732">
        <ele>538.48</ele>
        <time>2021-05-30T10:18:43Z</time>
      </trkpt>
      <trkpt lat="38.5308462102" lon="-5.4982106388">
        <ele>537.51</ele>
        <time>2021-05-30T10:18:44Z</time>
      </trkpt>
      <trkpt lat="38.5309942346" lon="-5.4979219660">
        <ele>536.07</ele>
        <time>2021-05-30T10:18:45Z</time>
      </trkpt>
      <trkpt lat="38.5311146826" lon="-5.4976133443">
        <ele>533.67</ele>
        <time>2021-05-30T10:18:46Z</time>
      </trkpt>
      <trkpt lat="38.5312066320" lon="-5.4972913954">
        <ele>532.23</ele>
        <time>2021-05-30T10:18:47Z</time>
      </trkpt>
      <trkpt lat="38.5312681552" lon="-5.4969541077">
        <ele>532.71</ele>
        <time>2021-05-30T10:18:48Z</time>
      </trkpt>
      <trkpt lat="38.5313035268" lon="-5.4965998884">
        <ele>531.75</ele>
        <time>2021-05-30T10:18:49Z</time>
      </trkpt>
      <trkpt lat="38.5313236434" lon="-5.4962315038">
        <ele>532.23</ele>
        <time>2021-05-30T10:18:50Z</time>
      </trkpt>
      <trkpt lat="38.5313653015" lon="-5.4951199796">
        <ele>530.30</ele>
        <time>2021-05-30T10:18:53Z</time>
      </trkpt>
      <trkpt lat="38.5314244777" lon="-5.4935655557">
        <ele>526.94</ele>
        <time>2021-05-30T10:18:57Z</time>
      </trkpt>
      <trkpt lat="38.5314406548" lon="-5.4931706004">
        <ele>526.94</ele>
        <time>2021-05-30T10:18:58Z</time>
      </trkpt>
      <trkpt lat="38.5317781102" lon="-5.4908900522">
        <ele>528.86</ele>
        <time>2021-05-30T10:19:04Z</time>
      </trkpt>
      <trkpt lat="38.5319086164" lon="-5.4905402754">
        <ele>533.19</ele>
        <time>2021-05-30T10:19:05Z</time>
      </trkpt>
      <trkpt lat="38.5325853713" lon="-5.4892346263">
        <ele>537.03</ele>
        <time>2021-05-30T10:19:09Z</time>
      </trkpt>
      <trkpt lat="38.5331708472" lon="-5.4882925842">
        <ele>541.36</ele>
        <time>2021-05-30T10:19:12Z</time>
      </trkpt>
      <trkpt lat="38.5333608650" lon="-5.4879867285">
        <ele>540.40</ele>
        <time>2021-05-30T10:19:13Z</time>
      </trkpt>
      <trkpt lat="38.5349741299" lon="-5.4858056735">
        <ele>540.88</ele>
        <time>2021-05-30T10:19:21Z</time>
      </trkpt>
      <trkpt lat="38.5360662080" lon="-5.4849471990">
        <ele>537.99</ele>
        <time>2021-05-30T10:19:25Z</time>
      </trkpt>
      <trkpt lat="38.5368971061" lon="-5.4843262676">
        <ele>532.23</ele>
        <time>2021-05-30T10:19:28Z</time>
      </trkpt>
      <trkpt lat="38.5374410916" lon="-5.4839216731">
        <ele>525.98</ele>
        <time>2021-05-30T10:19:30Z</time>
      </trkpt>
      <trkpt lat="38.5379837360" lon="-5.4835098702">
        <ele>522.61</ele>
        <time>2021-05-30T10:19:32Z</time>
      </trkpt>
      <trkpt lat="38.5382573213" lon="-5.4833018314">
        <ele>523.09</ele>
        <time>2021-05-30T10:19:33Z</time>
      </trkpt>
      <trkpt lat="38.5388071742" lon="-5.4828829039">
        <ele>516.85</ele>
        <time>2021-05-30T10:19:35Z</time>
      </trkpt>
      <trkpt lat="38.5390844475" lon="-5.4826736078">
        <ele>518.29</ele>
        <time>2021-05-30T10:19:36Z</time>
      </trkpt>
      <trkpt lat="38.5399072152" lon="-5.4820555262">
        <ele>513.48</ele>
        <time>2021-05-30T10:19:39Z</time>
      </trkpt>
      <trkpt lat="38.5404436570" lon="-5.4816541169">
        <ele>511.08</ele>
        <time>2021-05-30T10:19:41Z</time>
      </trkpt>
      <trkpt lat="38.5409495048" lon="-5.4812609218">
        <ele>507.23</ele>
        <time>2021-05-30T10:19:43Z</time>
      </trkpt>
      <trkpt lat="38.5416296124" lon="-5.4805757012">
        <ele>511.56</ele>
        <time>2021-05-30T10:19:46Z</time>
      </trkpt>
      <trkpt lat="38.5418171994" lon="-5.4803014454">
        <ele>510.12</ele>
        <time>2021-05-30T10:19:47Z</time>
      </trkpt>
      <trkpt lat="38.5419846699" lon="-5.4800058994">
        <ele>511.56</ele>
        <time>2021-05-30T10:19:48Z</time>
      </trkpt>
      <trkpt lat="38.5421357956" lon="-5.4796905722">
        <ele>515.40</ele>
        <time>2021-05-30T10:19:49Z</time>
      </trkpt>
      <trkpt lat="38.5422746837" lon="-5.4793610796">
        <ele>518.29</ele>
        <time>2021-05-30T10:19:50Z</time>
      </trkpt>
      <trkpt lat="38.5424051899" lon="-5.4790235404">
        <ele>517.81</ele>
        <time>2021-05-30T10:19:51Z</time>
      </trkpt>
      <trkpt lat="38.5427850578" lon="-5.4779949132">
        <ele>521.65</ele>
        <time>2021-05-30T10:19:54Z</time>
      </trkpt>
      <trkpt lat="38.5430701263" lon="-5.4773240257">
        <ele>525.02</ele>
        <time>2021-05-30T10:19:56Z</time>
      </trkpt>
      <trkpt lat="38.5434198193" lon="-5.4767027590">
        <ele>527.42</ele>
        <time>2021-05-30T10:19:58Z</time>
      </trkpt>
      <trkpt lat="38.5443403199" lon="-5.4756904766">
        <ele>533.19</ele>
        <time>2021-05-30T10:20:02Z</time>
      </trkpt>
      <trkpt lat="38.5448928550" lon="-5.4753210861">
        <ele>533.67</ele>
        <time>2021-05-30T10:20:04Z</time>
      </trkpt>
      <trkpt lat="38.5457981844" lon="-5.4749410506">
        <ele>540.40</ele>
        <time>2021-05-30T10:20:07Z</time>
      </trkpt>
      <trkpt lat="38.5470100399" lon="-5.4745149147">
        <ele>543.76</ele>
        <time>2021-05-30T10:20:11Z</time>
      </trkpt>
      <trkpt lat="38.5479090828" lon="-5.4741971567">
        <ele>547.13</ele>
        <time>2021-05-30T10:20:14Z</time>
      </trkpt>
      <trkpt lat="38.5485062096" lon="-5.4739468731">
        <ele>550.01</ele>
        <time>2021-05-30T10:20:16Z</time>
      </trkpt>
      <trkpt lat="38.5490858182" lon="-5.4736018740">
        <ele>554.34</ele>
        <time>2021-05-30T10:20:18Z</time>
      </trkpt>
      <trkpt lat="38.5493682045" lon="-5.4733991157">
        <ele>558.18</ele>
        <time>2021-05-30T10:20:19Z</time>
      </trkpt>
      <trkpt lat="38.5499279480" lon="-5.4729764163">
        <ele>562.03</ele>
        <time>2021-05-30T10:20:21Z</time>
      </trkpt>
      <trkpt lat="38.5502068978" lon="-5.4727700539">
        <ele>562.51</ele>
        <time>2021-05-30T10:20:22Z</time>
      </trkpt>
      <trkpt lat="38.5507540684" lon="-5.4723878391">
        <ele>565.39</ele>
        <time>2021-05-30T10:20:24Z</time>
      </trkpt>
      <trkpt lat="38.5513021611" lon="-5.4721039440">
        <ele>565.39</ele>
        <time>2021-05-30T10:20:26Z</time>
      </trkpt>
      <trkpt lat="38.5515857209" lon="-5.4720104020">
        <ele>566.83</ele>
        <time>2021-05-30T10:20:27Z</time>
      </trkpt>
      <trkpt lat="38.5518740583" lon="-5.4719527345">
        <ele>568.76</ele>
        <time>2021-05-30T10:20:28Z</time>
      </trkpt>
      <trkpt lat="38.5521645751" lon="-5.4719313607">
        <ele>569.24</ele>
        <time>2021-05-30T10:20:29Z</time>
      </trkpt>
      <trkpt lat="38.5524534993" lon="-5.4719436821">
        <ele>569.24</ele>
        <time>2021-05-30T10:20:30Z</time>
      </trkpt>
      <trkpt lat="38.5527393222" lon="-5.4719879385">
        <ele>571.64</ele>
        <time>2021-05-30T10:20:31Z</time>
      </trkpt>
      <trkpt lat="38.5530201998" lon="-5.4720640462">
        <ele>572.60</ele>
        <time>2021-05-30T10:20:32Z</time>
      </trkpt>
      <trkpt lat="38.5532979760" lon="-5.4721713345">
        <ele>573.56</ele>
        <time>2021-05-30T10:20:33Z</time>
      </trkpt>
      <trkpt lat="38.5535730701" lon="-5.4723038524">
        <ele>575.01</ele>
        <time>2021-05-30T10:20:34Z</time>
      </trkpt>
      <trkpt lat="38.5541297123" lon="-5.4725976381">
        <ele>578.37</ele>
        <time>2021-05-30T10:20:36Z</time>
      </trkpt>
      <trkpt lat="38.5546788946" lon="-5.4728464130">
        <ele>579.81</ele>
        <time>2021-05-30T10:20:38Z</time>
      </trkpt>
      <trkpt lat="38.5549536534" lon="-5.4729284719">
        <ele>579.81</ele>
        <time>2021-05-30T10:20:39Z</time>
      </trkpt>
      <trkpt lat="38.5552346986" lon="-5.4729767516">
        <ele>579.33</ele>
        <time>2021-05-30T10:20:40Z</time>
      </trkpt>
      <trkpt lat="38.5555162467" lon="-5.4729881510">
        <ele>579.33</ele>
        <time>2021-05-30T10:20:41Z</time>
      </trkpt>
      <trkpt lat="38.5557959508" lon="-5.4729599040">
        <ele>580.29</ele>
        <time>2021-05-30T10:20:42Z</time>
      </trkpt>
      <trkpt lat="38.5560750682" lon="-5.4728880711">
        <ele>579.81</ele>
        <time>2021-05-30T10:20:43Z</time>
      </trkpt>
      <trkpt lat="38.5563562810" lon="-5.4727796931">
        <ele>582.70</ele>
        <time>2021-05-30T10:20:44Z</time>
      </trkpt>
      <trkpt lat="38.5566373263" lon="-5.4726426490">
        <ele>584.62</ele>
        <time>2021-05-30T10:20:45Z</time>
      </trkpt>
      <trkpt lat="38.5569201317" lon="-5.4724854883">
        <ele>587.02</ele>
        <time>2021-05-30T10:20:46Z</time>
      </trkpt>
      <trkpt lat="38.5574869160" lon="-5.4721677303">
        <ele>594.23</ele>
        <time>2021-05-30T10:20:48Z</time>
      </trkpt>
      <trkpt lat="38.5577649437" lon="-5.4720147606">
        <ele>594.23</ele>
        <time>2021-05-30T10:20:49Z</time>
      </trkpt>
      <trkpt lat="38.5588245001" lon="-5.4712925758">
        <ele>600.00</ele>
        <time>2021-05-30T10:20:53Z</time>
      </trkpt>
      <trkpt lat="38.5590610374" lon="-5.4710479919">
        <ele>599.52</ele>
        <time>2021-05-30T10:20:54Z</time>
      </trkpt>
      <trkpt lat="38.5595142469" lon="-5.4705299903">
        <ele>603.85</ele>
        <time>2021-05-30T10:20:56Z</time>
      </trkpt>
      <trkpt lat="38.5607505776" lon="-5.4694283567">
        <ele>603.85</ele>
        <time>2021-05-30T10:21:01Z</time>
      </trkpt>
      <trkpt lat="38.5610274319" lon="-5.4692849424">
        <ele>605.29</ele>
        <time>2021-05-30T10:21:02Z</time>
      </trkpt>
      <trkpt lat="38.5613142606" lon="-5.4691729601">
        <ele>605.77</ele>
        <time>2021-05-30T10:21:03Z</time>
      </trkpt>
      <trkpt lat="38.5616086330" lon="-5.4690913204">
        <ele>607.21</ele>
        <time>2021-05-30T10:21:04Z</time>
      </trkpt>
      <trkpt lat="38.5619094595" lon="-5.4690385982">
        <ele>608.65</ele>
        <time>2021-05-30T10:21:05Z</time>
      </trkpt>
      <trkpt lat="38.5622148961" lon="-5.4690175597">
        <ele>609.61</ele>
        <time>2021-05-30T10:21:06Z</time>
      </trkpt>
      <trkpt lat="38.5625239369" lon="-5.4690228403">
        <ele>611.54</ele>
        <time>2021-05-30T10:21:07Z</time>
      </trkpt>
      <trkpt lat="38.5631599557" lon="-5.4690671805">
        <ele>614.90</ele>
        <time>2021-05-30T10:21:09Z</time>
      </trkpt>
      <trkpt lat="38.5638045240" lon="-5.4691193160">
        <ele>619.71</ele>
        <time>2021-05-30T10:21:11Z</time>
      </trkpt>
      <trkpt lat="38.5641232040" lon="-5.4691422824">
        <ele>619.71</ele>
        <time>2021-05-30T10:21:12Z</time>
      </trkpt>
      <trkpt lat="38.5656002630" lon="-5.4694555141">
        <ele>624.51</ele>
        <time>2021-05-30T10:21:17Z</time>
      </trkpt>
      <trkpt lat="38.5664362740" lon="-5.4699041136">
        <ele>628.84</ele>
        <time>2021-05-30T10:21:20Z</time>
      </trkpt>
      <trkpt lat="38.5672436189" lon="-5.4703928623">
        <ele>632.20</ele>
        <time>2021-05-30T10:21:23Z</time>
      </trkpt>
      <trkpt lat="38.5674925614" lon="-5.4705921002">
        <ele>632.68</ele>
        <time>2021-05-30T10:21:24Z</time>
      </trkpt>
      <trkpt lat="38.5677285120" lon="-5.4708257876">
        <ele>635.57</ele>
        <time>2021-05-30T10:21:25Z</time>
      </trkpt>
      <trkpt lat="38.5679531470" lon="-5.4710878059">
        <ele>637.49</ele>
        <time>2021-05-30T10:21:26Z</time>
      </trkpt>
      <trkpt lat="38.5681674723" lon="-5.4713724554">
        <ele>639.41</ele>
        <time>2021-05-30T10:21:27Z</time>
      </trkpt>
      <trkpt lat="38.5683733318" lon="-5.4716718569">
        <ele>640.86</ele>
        <time>2021-05-30T10:21:28Z</time>
      </trkpt>
      <trkpt lat="38.5685765091" lon="-5.4719745275">
        <ele>644.22</ele>
        <time>2021-05-30T10:21:29Z</time>
      </trkpt>
      <trkpt lat="38.5689773317" lon="-5.4725730792">
        <ele>645.66</ele>
        <time>2021-05-30T10:21:31Z</time>
      </trkpt>
      <trkpt lat="38.5695545934" lon="-5.4734310508">
        <ele>650.47</ele>
        <time>2021-05-30T10:21:34Z</time>
      </trkpt>
      <trkpt lat="38.5698774643" lon="-5.4740190413">
        <ele>648.55</ele>
        <time>2021-05-30T10:21:36Z</time>
      </trkpt>
      <trkpt lat="38.5699942242" lon="-5.4743383918">
        <ele>649.99</ele>
        <time>2021-05-30T10:21:37Z</time>
      </trkpt>
      <trkpt lat="38.5700786300" lon="-5.4746693932">
        <ele>650.95</ele>
        <time>2021-05-30T10:21:38Z</time>
      </trkpt>
      <trkpt lat="38.5701295082" lon="-5.4750036635">
        <ele>651.43</ele>
        <time>2021-05-30T10:21:39Z</time>
      </trkpt>
      <trkpt lat="38.5701491218" lon="-5.4753381014">
        <ele>654.31</ele>
        <time>2021-05-30T10:21:40Z</time>
      </trkpt>
      <trkpt lat="38.5701450147" lon="-5.4756734613">
        <ele>656.24</ele>
        <time>2021-05-30T10:21:41Z</time>
      </trkpt>
      <trkpt lat="38.5701293405" lon="-5.4760123417">
        <ele>657.68</ele>
        <time>2021-05-30T10:21:42Z</time>
      </trkpt>
      <trkpt lat="38.5701223835" lon="-5.4770337604">
        <ele>661.04</ele>
        <time>2021-05-30T10:21:45Z</time>
      </trkpt>
      <trkpt lat="38.5701691546" lon="-5.4773686174">
        <ele>660.56</ele>
        <time>2021-05-30T10:21:46Z</time>
      </trkpt>
      <trkpt lat="38.5702486150" lon="-5.4776942544">
        <ele>662.49</ele>
        <time>2021-05-30T10:21:47Z</time>
      </trkpt>
      <trkpt lat="38.5703611840" lon="-5.4780034628">
        <ele>663.45</ele>
        <time>2021-05-30T10:21:48Z</time>
      </trkpt>
      <trkpt lat="38.5705024190" lon="-5.4782954883">
        <ele>662.49</ele>
        <time>2021-05-30T10:21:49Z</time>
      </trkpt>
      <trkpt lat="38.5706691351" lon="-5.4785659723">
        <ele>662.97</ele>
        <time>2021-05-30T10:21:50Z</time>
      </trkpt>
      <trkpt lat="38.5708583985" lon="-5.4788098019">
        <ele>663.93</ele>
        <time>2021-05-30T10:21:51Z</time>
      </trkpt>
      <trkpt lat="38.5710647609" lon="-5.4790219478">
        <ele>662.97</ele>
        <time>2021-05-30T10:21:52Z</time>
      </trkpt>
      <trkpt lat="38.5712885577" lon="-5.4792055953">
        <ele>662.01</ele>
        <time>2021-05-30T10:21:53Z</time>
      </trkpt>
      <trkpt lat="38.5715315491" lon="-5.4793605767">
        <ele>660.56</ele>
        <time>2021-05-30T10:21:54Z</time>
      </trkpt>
      <trkpt lat="38.5717893764" lon="-5.4794805218">
        <ele>659.12</ele>
        <time>2021-05-30T10:21:55Z</time>
      </trkpt>
      <trkpt lat="38.5720487125" lon="-5.4795819428">
        <ele>657.20</ele>
        <time>2021-05-30T10:21:56Z</time>
      </trkpt>
      <trkpt lat="38.5723050311" lon="-5.4796719644">
        <ele>656.72</ele>
        <time>2021-05-30T10:21:57Z</time>
      </trkpt>
      <trkpt lat="38.5725630261" lon="-5.4797389358">
        <ele>655.76</ele>
        <time>2021-05-30T10:21:58Z</time>
      </trkpt>
      <trkpt lat="38.5728288162" lon="-5.4797669314">
        <ele>654.80</ele>
        <time>2021-05-30T10:21:59Z</time>
      </trkpt>
      <trkpt lat="38.5730994679" lon="-5.4797492456">
        <ele>654.31</ele>
        <time>2021-05-30T10:22:00Z</time>
      </trkpt>
      <trkpt lat="38.5733698681" lon="-5.4796912428">
        <ele>655.28</ele>
        <time>2021-05-30T10:22:01Z</time>
      </trkpt>
      <trkpt lat="38.5736338980" lon="-5.4795957729">
        <ele>653.83</ele>
        <time>2021-05-30T10:22:02Z</time>
      </trkpt>
      <trkpt lat="38.5738897137" lon="-5.4794665240">
        <ele>652.87</ele>
        <time>2021-05-30T10:22:03Z</time>
      </trkpt>
      <trkpt lat="38.5741319507" lon="-5.4792981315">
        <ele>652.39</ele>
        <time>2021-05-30T10:22:04Z</time>
      </trkpt>
      <trkpt lat="38.5743538197" lon="-5.4790915176">
        <ele>650.95</ele>
        <time>2021-05-30T10:22:05Z</time>
      </trkpt>
      <trkpt lat="38.5745539796" lon="-5.4788511246">
        <ele>651.43</ele>
        <time>2021-05-30T10:22:06Z</time>
      </trkpt>
      <trkpt lat="38.5747279879" lon="-5.4785761982">
        <ele>650.95</ele>
        <time>2021-05-30T10:22:07Z</time>
      </trkpt>
      <trkpt lat="38.5748753417" lon="-5.4782773834">
        <ele>650.95</ele>
        <time>2021-05-30T10:22:08Z</time>
      </trkpt>
      <trkpt lat="38.5749943648" lon="-5.4779613018">
        <ele>649.03</ele>
        <time>2021-05-30T10:22:09Z</time>
      </trkpt>
      <trkpt lat="38.5750811175" lon="-5.4776328150">
        <ele>647.59</ele>
        <time>2021-05-30T10:22:10Z</time>
      </trkpt>
      <trkpt lat="38.5751345102" lon="-5.4772946890">
        <ele>648.55</ele>
        <time>2021-05-30T10:22:11Z</time>
      </trkpt>
      <trkpt lat="38.5751567222" lon="-5.4769492708">
        <ele>649.03</ele>
        <time>2021-05-30T10:22:12Z</time>
      </trkpt>
      <trkpt lat="38.5751490109" lon="-5.4766012542">
        <ele>649.03</ele>
        <time>2021-05-30T10:22:13Z</time>
      </trkpt>
      <trkpt lat="38.5751086101" lon="-5.4762541596">
        <ele>647.59</ele>
        <time>2021-05-30T10:22:14Z</time>
      </trkpt>
      <trkpt lat="38.5750382021" lon="-5.4759107530">
        <ele>649.03</ele>
        <time>2021-05-30T10:22:15Z</time>
      </trkpt>
      <trkpt lat="38.5749461688" lon="-5.4755687714">
        <ele>650.47</ele>
        <time>2021-05-30T10:22:16Z</time>
      </trkpt>
      <trkpt lat="38.5748462565" lon="-5.4752271250">
        <ele>651.43</ele>
        <time>2021-05-30T10:22:17Z</time>
      </trkpt>
      <trkpt lat="38.5737146996" lon="-5.4712251015">
        <ele>647.10</ele>
        <time>2021-05-30T10:22:28Z</time>
      </trkpt>
      <trkpt lat="38.5735042300" lon="-5.4704822134">
        <ele>641.82</ele>
        <time>2021-05-30T10:22:30Z</time>
      </trkpt>
      <trkpt lat="38.5734000430" lon="-5.4701133259">
        <ele>638.93</ele>
        <time>2021-05-30T10:22:31Z</time>
      </trkpt>
      <trkpt lat="38.5732940119" lon="-5.4697455280">
        <ele>638.93</ele>
        <time>2021-05-30T10:22:32Z</time>
      </trkpt>
      <trkpt lat="38.5731003061" lon="-5.4690287914">
        <ele>632.68</ele>
        <time>2021-05-30T10:22:34Z</time>
      </trkpt>
      <trkpt lat="38.5730310716" lon="-5.4686823674">
        <ele>627.40</ele>
        <time>2021-05-30T10:22:35Z</time>
      </trkpt>
      <trkpt lat="38.5729881562" lon="-5.4683290701">
        <ele>627.40</ele>
        <time>2021-05-30T10:22:36Z</time>
      </trkpt>
      <trkpt lat="38.5729746614" lon="-5.4679712467">
        <ele>627.40</ele>
        <time>2021-05-30T10:22:37Z</time>
      </trkpt>
      <trkpt lat="38.5729961190" lon="-5.4676167760">
        <ele>626.44</ele>
        <time>2021-05-30T10:22:38Z</time>
      </trkpt>
      <trkpt lat="38.5730509367" lon="-5.4672672506">
        <ele>625.96</ele>
        <time>2021-05-30T10:22:39Z</time>
      </trkpt>
      <trkpt lat="38.5731376894" lon="-5.4669227544">
        <ele>626.44</ele>
        <time>2021-05-30T10:22:40Z</time>
      </trkpt>
      <trkpt lat="38.5732552037" lon="-5.4665878974">
        <ele>623.55</ele>
        <time>2021-05-30T10:22:41Z</time>
      </trkpt>
      <trkpt lat="38.5734027252" lon="-5.4662671220">
        <ele>623.07</ele>
        <time>2021-05-30T10:22:42Z</time>
      </trkpt>
      <trkpt lat="38.5735728778" lon="-5.4659604281">
        <ele>622.11</ele>
        <time>2021-05-30T10:22:43Z</time>
      </trkpt>
      <trkpt lat="38.5737606324" lon="-5.4656681512">
        <ele>621.63</ele>
        <time>2021-05-30T10:22:44Z</time>
      </trkpt>
      <trkpt lat="38.5741428472" lon="-5.4650965892">
        <ele>623.55</ele>
        <time>2021-05-30T10:22:46Z</time>
      </trkpt>
      <trkpt lat="38.5745460168" lon="-5.4645941779">
        <ele>617.78</ele>
        <time>2021-05-30T10:22:48Z</time>
      </trkpt>
      <trkpt lat="38.5747718252" lon="-5.4643708840">
        <ele>618.26</ele>
        <time>2021-05-30T10:22:49Z</time>
      </trkpt>
      <trkpt lat="38.5750138946" lon="-5.4641717300">
        <ele>618.75</ele>
        <time>2021-05-30T10:22:50Z</time>
      </trkpt>
      <trkpt lat="38.5752723087" lon="-5.4639996495">
        <ele>618.26</ele>
        <time>2021-05-30T10:22:51Z</time>
      </trkpt>
      <trkpt lat="38.5755460616" lon="-5.4638574924">
        <ele>618.75</ele>
        <time>2021-05-30T10:22:52Z</time>
      </trkpt>
      <trkpt lat="38.5758222453" lon="-5.4637476895">
        <ele>615.86</ele>
        <time>2021-05-30T10:22:53Z</time>
      </trkpt>
      <trkpt lat="38.5761000216" lon="-5.4636710789">
        <ele>613.94</ele>
        <time>2021-05-30T10:22:54Z</time>
      </trkpt>
      <trkpt lat="38.5763850063" lon="-5.4636285827">
        <ele>612.98</ele>
        <time>2021-05-30T10:22:55Z</time>
      </trkpt>
      <trkpt lat="38.5766798817" lon="-5.4636207875">
        <ele>611.06</ele>
        <time>2021-05-30T10:22:56Z</time>
      </trkpt>
      <trkpt lat="38.5769812949" lon="-5.4636401497">
        <ele>612.50</ele>
        <time>2021-05-30T10:22:57Z</time>
      </trkpt>
      <trkpt lat="38.5772779305" lon="-5.4636782035">
        <ele>610.57</ele>
        <time>2021-05-30T10:22:58Z</time>
      </trkpt>
      <trkpt lat="38.5778449662" lon="-5.4637571611">
        <ele>607.21</ele>
        <time>2021-05-30T10:23:00Z</time>
      </trkpt>
      <trkpt lat="38.5783577710" lon="-5.4637699854">
        <ele>602.88</ele>
        <time>2021-05-30T10:23:02Z</time>
      </trkpt>
      <trkpt lat="38.5785912070" lon="-5.4637240525">
        <ele>600.00</ele>
        <time>2021-05-30T10:23:03Z</time>
      </trkpt>
      <trkpt lat="38.5788180213" lon="-5.4636352882">
        <ele>599.52</ele>
        <time>2021-05-30T10:23:04Z</time>
      </trkpt>
      <trkpt lat="38.5790424887" lon="-5.4635055363">
        <ele>600.48</ele>
        <time>2021-05-30T10:23:05Z</time>
      </trkpt>
      <trkpt lat="38.5792617593" lon="-5.4633368924">
        <ele>601.44</ele>
        <time>2021-05-30T10:23:06Z</time>
      </trkpt>
      <trkpt lat="38.5794791859" lon="-5.4631425161">
        <ele>600.96</ele>
        <time>2021-05-30T10:23:07Z</time>
      </trkpt>
      <trkpt lat="38.5801692680" lon="-5.4624961037">
        <ele>599.52</ele>
        <time>2021-05-30T10:23:10Z</time>
      </trkpt>
      <trkpt lat="38.5808795504" lon="-5.4618576542">
        <ele>596.64</ele>
        <time>2021-05-30T10:23:13Z</time>
      </trkpt>
      <trkpt lat="38.5811175965" lon="-5.4616447538">
        <ele>596.64</ele>
        <time>2021-05-30T10:23:14Z</time>
      </trkpt>
      <trkpt lat="38.5815972090" lon="-5.4611991718">
        <ele>595.19</ele>
        <time>2021-05-30T10:23:16Z</time>
      </trkpt>
      <trkpt lat="38.5820646677" lon="-5.4607644863">
        <ele>591.35</ele>
        <time>2021-05-30T10:23:18Z</time>
      </trkpt>
      <trkpt lat="38.5822862852" lon="-5.4605463892">
        <ele>591.35</ele>
        <time>2021-05-30T10:23:19Z</time>
      </trkpt>
      <trkpt lat="38.5824915580" lon="-5.4603132047">
        <ele>590.39</ele>
        <time>2021-05-30T10:23:20Z</time>
      </trkpt>
      <trkpt lat="38.5826690029" lon="-5.4600649327">
        <ele>589.43</ele>
        <time>2021-05-30T10:23:21Z</time>
      </trkpt>
      <trkpt lat="38.5828226432" lon="-5.4598063510">
        <ele>590.39</ele>
        <time>2021-05-30T10:23:22Z</time>
      </trkpt>
      <trkpt lat="38.5833062790" lon="-5.4588594474">
        <ele>586.06</ele>
        <time>2021-05-30T10:23:26Z</time>
      </trkpt>
      <trkpt lat="38.5835650284" lon="-5.4582893942">
        <ele>582.70</ele>
        <time>2021-05-30T10:23:29Z</time>
      </trkpt>
      <trkpt lat="38.5836821236" lon="-5.4579946026">
        <ele>578.37</ele>
        <time>2021-05-30T10:23:31Z</time>
      </trkpt>
      <trkpt lat="38.5838485043" lon="-5.4575457517">
        <ele>578.85</ele>
        <time>2021-05-30T10:23:34Z</time>
      </trkpt>
      <trkpt lat="38.5838895757" lon="-5.4573688935">
        <ele>578.37</ele>
        <time>2021-05-30T10:23:35Z</time>
      </trkpt>
      <trkpt lat="38.5842438787" lon="-5.4559137113">
        <ele>575.01</ele>
        <time>2021-05-30T10:23:43Z</time>
      </trkpt>
      <trkpt lat="38.5843617283" lon="-5.4554511141">
        <ele>572.12</ele>
        <time>2021-05-30T10:23:46Z</time>
      </trkpt>
      <trkpt lat="38.5847296938" lon="-5.4541751370">
        <ele>568.76</ele>
        <time>2021-05-30T10:23:54Z</time>
      </trkpt>
      <trkpt lat="38.5848695040" lon="-5.4537073430">
        <ele>564.91</ele>
        <time>2021-05-30T10:23:57Z</time>
      </trkpt>
      <trkpt lat="38.5849824082" lon="-5.4533261340">
        <ele>562.03</ele>
        <time>2021-05-30T10:24:00Z</time>
      </trkpt>
      <trkpt lat="38.5852336977" lon="-5.4524584394">
        <ele>558.18</ele>
        <time>2021-05-30T10:24:07Z</time>
      </trkpt>
      <trkpt lat="38.5852894373" lon="-5.4523224011">
        <ele>557.70</ele>
        <time>2021-05-30T10:24:08Z</time>
      </trkpt>
      <trkpt lat="38.5860039946" lon="-5.4510025866">
        <ele>554.34</ele>
        <time>2021-05-30T10:24:19Z</time>
      </trkpt>
      <trkpt lat="38.5861119535" lon="-5.4508098029">
        <ele>552.90</ele>
        <time>2021-05-30T10:24:21Z</time>
      </trkpt>
      <trkpt lat="38.5867040511" lon="-5.4497720394">
        <ele>550.97</ele>
        <time>2021-05-30T10:24:31Z</time>
      </trkpt>
      <trkpt lat="38.5867426079" lon="-5.4496698640">
        <ele>550.49</ele>
        <time>2021-05-30T10:24:32Z</time>
      </trkpt>
      <trkpt lat="38.5867728665" lon="-5.4495717119">
        <ele>550.01</ele>
        <time>2021-05-30T10:24:33Z</time>
      </trkpt>
      <trkpt lat="38.5867957491" lon="-5.4494778346">
        <ele>550.01</ele>
        <time>2021-05-30T10:24:34Z</time>
      </trkpt>
      <trkpt lat="38.5868116748" lon="-5.4493879806">
        <ele>548.09</ele>
        <time>2021-05-30T10:24:35Z</time>
      </trkpt>
      <trkpt lat="38.5868250020" lon="-5.4493029881">
        <ele>547.61</ele>
        <time>2021-05-30T10:24:36Z</time>
      </trkpt>
      <trkpt lat="38.5868415982" lon="-5.4492255393">
        <ele>547.13</ele>
        <time>2021-05-30T10:24:37Z</time>
      </trkpt>
      <trkpt lat="38.5868762992" lon="-5.4491034150">
        <ele>547.13</ele>
        <time>2021-05-30T10:24:39Z</time>
      </trkpt>
      <trkpt lat="38.5868970864" lon="-5.4490554705">
        <ele>546.65</ele>
        <time>2021-05-30T10:24:40Z</time>
      </trkpt>
      <trkpt lat="38.5869225673" lon="-5.4490111303">
        <ele>546.65</ele>
        <time>2021-05-30T10:24:41Z</time>
      </trkpt>
      <trkpt lat="38.5869859345" lon="-5.4489020817">
        <ele>547.13</ele>
        <time>2021-05-30T10:24:43Z</time>
      </trkpt>
      <trkpt lat="38.5871903691" lon="-5.4484601039">
        <ele>550.97</ele>
        <time>2021-05-30T10:24:48Z</time>
      </trkpt>
      <trkpt lat="38.5872387327" lon="-5.4483576771">
        <ele>550.97</ele>
        <time>2021-05-30T10:24:49Z</time>
      </trkpt>
      <trkpt lat="38.5872929636" lon="-5.4482565075">
        <ele>551.45</ele>
        <time>2021-05-30T10:24:50Z</time>
      </trkpt>
      <trkpt lat="38.5875424091" lon="-5.4477993585">
        <ele>552.41</ele>
        <time>2021-05-30T10:24:55Z</time>
      </trkpt>
      <trkpt lat="38.5877401382" lon="-5.4472790100">
        <ele>552.41</ele>
        <time>2021-05-30T10:25:00Z</time>
      </trkpt>
      <trkpt lat="38.5879744962" lon="-5.4468466714">
        <ele>551.93</ele>
        <time>2021-05-30T10:25:05Z</time>
      </trkpt>
      <trkpt lat="38.5880083591" lon="-5.4467844777">
        <ele>551.93</ele>
        <time>2021-05-30T10:25:06Z</time>
      </trkpt>
      <trkpt lat="38.5880180821" lon="-5.4467084538">
        <ele>551.93</ele>
        <time>2021-05-30T10:25:07Z</time>
      </trkpt>
      <trkpt lat="38.5880209319" lon="-5.4466263112">
        <ele>551.45</ele>
        <time>2021-05-30T10:25:08Z</time>
      </trkpt>
      <trkpt lat="38.5880120471" lon="-5.4465381335">
        <ele>551.45</ele>
        <time>2021-05-30T10:25:09Z</time>
      </trkpt>
      <trkpt lat="38.5879980493" lon="-5.4464456812">
        <ele>550.97</ele>
        <time>2021-05-30T10:25:10Z</time>
      </trkpt>
      <trkpt lat="38.5879895836" lon="-5.4463518877">
        <ele>550.97</ele>
        <time>2021-05-30T10:25:11Z</time>
      </trkpt>
      <trkpt lat="38.5879540443" lon="-5.4460703395">
        <ele>551.93</ele>
        <time>2021-05-30T10:25:14Z</time>
      </trkpt>
      <trkpt lat="38.5879301559" lon="-5.4459809046">
        <ele>552.41</ele>
        <time>2021-05-30T10:25:15Z</time>
      </trkpt>
      <trkpt lat="38.5878981370" lon="-5.4458944872">
        <ele>552.41</ele>
        <time>2021-05-30T10:25:16Z</time>
      </trkpt>
      <trkpt lat="38.5878588259" lon="-5.4458150268">
        <ele>552.41</ele>
        <time>2021-05-30T10:25:17Z</time>
      </trkpt>
      <trkpt lat="38.5878081992" lon="-5.4457400087">
        <ele>552.41</ele>
        <time>2021-05-30T10:25:18Z</time>
      </trkpt>
      <trkpt lat="38.5877638590" lon="-5.4456681758">
        <ele>551.45</ele>
        <time>2021-05-30T10:25:19Z</time>
      </trkpt>
      <trkpt lat="38.5877415631" lon="-5.4455894697">
        <ele>551.45</ele>
        <time>2021-05-30T10:25:20Z</time>
      </trkpt>
      <trkpt lat="38.5877408925" lon="-5.4455062374">
        <ele>551.45</ele>
        <time>2021-05-30T10:25:21Z</time>
      </trkpt>
      <trkpt lat="38.5877584107" lon="-5.4454218317">
        <ele>551.93</ele>
        <time>2021-05-30T10:25:22Z</time>
      </trkpt>
      <trkpt lat="38.5877913516" lon="-5.4453367554">
        <ele>551.93</ele>
        <time>2021-05-30T10:25:23Z</time>
      </trkpt>
      <trkpt lat="38.5878266394" lon="-5.4452541936">
        <ele>551.93</ele>
        <time>2021-05-30T10:25:24Z</time>
      </trkpt>
      <trkpt lat="38.5881776735" lon="-5.4442619439">
        <ele>550.97</ele>
        <time>2021-05-30T10:25:33Z</time>
      </trkpt>
      <trkpt lat="38.5882591456" lon="-5.4440057091">
        <ele>550.01</ele>
        <time>2021-05-30T10:25:35Z</time>
      </trkpt>
      <trkpt lat="38.5882835370" lon="-5.4438685812">
        <ele>550.01</ele>
        <time>2021-05-30T10:25:36Z</time>
      </trkpt>
      <trkpt lat="38.5883962736" lon="-5.4427101184">
        <ele>547.13</ele>
        <time>2021-05-30T10:25:45Z</time>
      </trkpt>
      <trkpt lat="38.5883805156" lon="-5.4425540473">
        <ele>546.17</ele>
        <time>2021-05-30T10:25:49Z</time>
      </trkpt>
      <trkpt lat="38.5883181542" lon="-5.4425012413">
        <ele>546.65</ele>
        <time>2021-05-30T10:25:52Z</time>
      </trkpt>
      <trkpt lat="38.5882801004" lon="-5.4424753413">
        <ele>547.13</ele>
        <time>2021-05-30T10:25:53Z</time>
      </trkpt>
      <trkpt lat="38.5882552061" lon="-5.4424335994">
        <ele>546.17</ele>
        <time>2021-05-30T10:25:54Z</time>
      </trkpt>
      <trkpt lat="38.5882525239" lon="-5.4423798714">
        <ele>546.17</ele>
        <time>2021-05-30T10:25:55Z</time>
      </trkpt>
      <trkpt lat="38.5882692877" lon="-5.4423093796">
        <ele>547.13</ele>
        <time>2021-05-30T10:25:56Z</time>
      </trkpt>
      <trkpt lat="38.5882951878" lon="-5.4422171786">
        <ele>547.61</ele>
        <time>2021-05-30T10:25:57Z</time>
      </trkpt>
      <trkpt lat="38.5885908175" lon="-5.4412043933">
        <ele>546.65</ele>
        <time>2021-05-30T10:26:05Z</time>
      </trkpt>
      <trkpt lat="38.5888648219" lon="-5.4402998183">
        <ele>544.72</ele>
        <time>2021-05-30T10:26:14Z</time>
      </trkpt>
      <trkpt lat="38.5889425222" lon="-5.4400200304">
        <ele>543.76</ele>
        <time>2021-05-30T10:26:17Z</time>
      </trkpt>
      <trkpt lat="38.5891939793" lon="-5.4391264357">
        <ele>541.84</ele>
        <time>2021-05-30T10:26:27Z</time>
      </trkpt>
      <trkpt lat="38.5894773714" lon="-5.4380722437">
        <ele>539.44</ele>
        <time>2021-05-30T10:26:42Z</time>
      </trkpt>
      <trkpt lat="38.5897363722" lon="-5.4372730292">
        <ele>539.92</ele>
        <time>2021-05-30T10:26:52Z</time>
      </trkpt>
      <trkpt lat="38.5900812037" lon="-5.4364166502">
        <ele>538.96</ele>
        <time>2021-05-30T10:26:58Z</time>
      </trkpt>
      <trkpt lat="38.5902765859" lon="-5.4358710721">
        <ele>535.11</ele>
        <time>2021-05-30T10:27:02Z</time>
      </trkpt>
      <trkpt lat="38.5904026497" lon="-5.4351810738">
        <ele>534.15</ele>
        <time>2021-05-30T10:27:08Z</time>
      </trkpt>
      <trkpt lat="38.5904918332" lon="-5.4346593842">
        <ele>536.07</ele>
        <time>2021-05-30T10:27:11Z</time>
      </trkpt>
      <trkpt lat="38.5905966908" lon="-5.4338611756">
        <ele>533.67</ele>
        <time>2021-05-30T10:27:15Z</time>
      </trkpt>
      <trkpt lat="38.5905875545" lon="-5.4336789530">
        <ele>532.71</ele>
        <time>2021-05-30T10:27:16Z</time>
      </trkpt>
      <trkpt lat="38.5905542783" lon="-5.4335000832">
        <ele>533.67</ele>
        <time>2021-05-30T10:27:17Z</time>
      </trkpt>
      <trkpt lat="38.5905002151" lon="-5.4333218839">
        <ele>533.67</ele>
        <time>2021-05-30T10:27:18Z</time>
      </trkpt>
      <trkpt lat="38.5904300585" lon="-5.4331374820">
        <ele>534.63</ele>
        <time>2021-05-30T10:27:19Z</time>
      </trkpt>
      <trkpt lat="38.5902714729" lon="-5.4327412695">
        <ele>535.11</ele>
        <time>2021-05-30T10:27:21Z</time>
      </trkpt>
      <trkpt lat="38.5896586720" lon="-5.4311466962">
        <ele>531.75</ele>
        <time>2021-05-30T10:27:28Z</time>
      </trkpt>
      <trkpt lat="38.5886705294" lon="-5.4285708535">
        <ele>536.07</ele>
        <time>2021-05-30T10:27:38Z</time>
      </trkpt>
      <trkpt lat="38.5885655880" lon="-5.4282942507">
        <ele>534.63</ele>
        <time>2021-05-30T10:27:39Z</time>
      </trkpt>
      <trkpt lat="38.5880472511" lon="-5.4261626489">
        <ele>534.15</ele>
        <time>2021-05-30T10:27:46Z</time>
      </trkpt>
      <trkpt lat="38.5873764474" lon="-5.4232789390">
        <ele>534.63</ele>
        <time>2021-05-30T10:27:55Z</time>
      </trkpt>
      <trkpt lat="38.5863247700" lon="-5.4202071391">
        <ele>530.30</ele>
        <time>2021-05-30T10:28:05Z</time>
      </trkpt>
      <trkpt lat="38.5862662643" lon="-5.4199430253">
        <ele>528.38</ele>
        <time>2021-05-30T10:28:06Z</time>
      </trkpt>
      <trkpt lat="38.5862306412" lon="-5.4196742177">
        <ele>526.94</ele>
        <time>2021-05-30T10:28:07Z</time>
      </trkpt>
      <trkpt lat="38.5862134583" lon="-5.4193898197">
        <ele>528.86</ele>
        <time>2021-05-30T10:28:08Z</time>
      </trkpt>
      <trkpt lat="38.5861792602" lon="-5.4184873402">
        <ele>525.50</ele>
        <time>2021-05-30T10:28:11Z</time>
      </trkpt>
      <trkpt lat="38.5861327406" lon="-5.4178557638">
        <ele>525.02</ele>
        <time>2021-05-30T10:28:13Z</time>
      </trkpt>
      <trkpt lat="38.5859686229" lon="-5.4169093631">
        <ele>521.65</ele>
        <time>2021-05-30T10:28:16Z</time>
      </trkpt>
      <trkpt lat="38.5857211892" lon="-5.4156021215">
        <ele>518.29</ele>
        <time>2021-05-30T10:28:20Z</time>
      </trkpt>
      <trkpt lat="38.5854642000" lon="-5.4142878391">
        <ele>514.44</ele>
        <time>2021-05-30T10:28:24Z</time>
      </trkpt>
      <trkpt lat="38.5852782056" lon="-5.4134343099">
        <ele>510.60</ele>
        <time>2021-05-30T10:28:27Z</time>
      </trkpt>
      <trkpt lat="38.5851958115" lon="-5.4131805897">
        <ele>511.56</ele>
        <time>2021-05-30T10:28:28Z</time>
      </trkpt>
      <trkpt lat="38.5849997588" lon="-5.4126996361">
        <ele>513.48</ele>
        <time>2021-05-30T10:28:30Z</time>
      </trkpt>
      <trkpt lat="38.5849115811" lon="-5.4124543816">
        <ele>513.48</ele>
        <time>2021-05-30T10:28:31Z</time>
      </trkpt>
      <trkpt lat="38.5848376527" lon="-5.4121897649">
        <ele>514.44</ele>
        <time>2021-05-30T10:28:32Z</time>
      </trkpt>
      <trkpt lat="38.5847068951" lon="-5.4116126709">
        <ele>515.88</ele>
        <time>2021-05-30T10:28:34Z</time>
      </trkpt>
      <trkpt lat="38.5844984371" lon="-5.4106754065">
        <ele>513.00</ele>
        <time>2021-05-30T10:28:37Z</time>
      </trkpt>
      <trkpt lat="38.5842779931" lon="-5.4097077996">
        <ele>510.60</ele>
        <time>2021-05-30T10:28:40Z</time>
      </trkpt>
      <trkpt lat="38.5842072498" lon="-5.4094005190">
        <ele>506.75</ele>
        <time>2021-05-30T10:28:41Z</time>
      </trkpt>
      <trkpt lat="38.5840777494" lon="-5.4088335671">
        <ele>501.46</ele>
        <time>2021-05-30T10:28:43Z</time>
      </trkpt>
      <trkpt lat="38.5839993786" lon="-5.4083508532">
        <ele>495.70</ele>
        <time>2021-05-30T10:28:45Z</time>
      </trkpt>
      <trkpt lat="38.5840022285" lon="-5.4081217758">
        <ele>495.70</ele>
        <time>2021-05-30T10:28:46Z</time>
      </trkpt>
      <trkpt lat="38.5840391926" lon="-5.4078875016">
        <ele>495.22</ele>
        <time>2021-05-30T10:28:47Z</time>
      </trkpt>
      <trkpt lat="38.5841038171" lon="-5.4076502938">
        <ele>495.22</ele>
        <time>2021-05-30T10:28:48Z</time>
      </trkpt>
      <trkpt lat="38.5841847863" lon="-5.4074098170">
        <ele>495.22</ele>
        <time>2021-05-30T10:28:49Z</time>
      </trkpt>
      <trkpt lat="38.5848572664" lon="-5.4054257367">
        <ele>494.74</ele>
        <time>2021-05-30T10:28:56Z</time>
      </trkpt>
      <trkpt lat="38.5855000746" lon="-5.4035106394">
        <ele>490.41</ele>
        <time>2021-05-30T10:29:02Z</time>
      </trkpt>
      <trkpt lat="38.5856702272" lon="-5.4029261693">
        <ele>487.05</ele>
        <time>2021-05-30T10:29:04Z</time>
      </trkpt>
      <trkpt lat="38.5857138969" lon="-5.4026580323">
        <ele>485.12</ele>
        <time>2021-05-30T10:29:05Z</time>
      </trkpt>
      <trkpt lat="38.5857302416" lon="-5.4023903981">
        <ele>483.20</ele>
        <time>2021-05-30T10:29:06Z</time>
      </trkpt>
      <trkpt lat="38.5857268050" lon="-5.4021122027">
        <ele>483.20</ele>
        <time>2021-05-30T10:29:07Z</time>
      </trkpt>
      <trkpt lat="38.5857100412" lon="-5.4018188361">
        <ele>486.08</ele>
        <time>2021-05-30T10:29:08Z</time>
      </trkpt>
      <trkpt lat="38.5855377093" lon="-5.3997976240">
        <ele>489.45</ele>
        <time>2021-05-30T10:29:14Z</time>
      </trkpt>
      <trkpt lat="38.5853540618" lon="-5.3975941893">
        <ele>486.08</ele>
        <time>2021-05-30T10:29:20Z</time>
      </trkpt>
      <trkpt lat="38.5852818098" lon="-5.3969320189">
        <ele>484.64</ele>
        <time>2021-05-30T10:29:22Z</time>
      </trkpt>
      <trkpt lat="38.5850130022" lon="-5.3951928578">
        <ele>481.28</ele>
        <time>2021-05-30T10:29:27Z</time>
      </trkpt>
      <trkpt lat="38.5849549156" lon="-5.3948307596">
        <ele>481.28</ele>
        <time>2021-05-30T10:29:28Z</time>
      </trkpt>
      <trkpt lat="38.5843660031" lon="-5.3911657725">
        <ele>481.28</ele>
        <time>2021-05-30T10:29:38Z</time>
      </trkpt>
      <trkpt lat="38.5840846226" lon="-5.3893721290">
        <ele>479.35</ele>
        <time>2021-05-30T10:29:43Z</time>
      </trkpt>
      <trkpt lat="38.5833009146" lon="-5.3844335116">
        <ele>479.35</ele>
        <time>2021-05-30T10:29:57Z</time>
      </trkpt>
      <trkpt lat="38.5830581747" lon="-5.3832115140">
        <ele>481.28</ele>
        <time>2021-05-30T10:30:01Z</time>
      </trkpt>
      <trkpt lat="38.5829590168" lon="-5.3829282895">
        <ele>480.80</ele>
        <time>2021-05-30T10:30:02Z</time>
      </trkpt>
      <trkpt lat="38.5828427598" lon="-5.3826471604">
        <ele>481.76</ele>
        <time>2021-05-30T10:30:03Z</time>
      </trkpt>
      <trkpt lat="38.5825791489" lon="-5.3820807114">
        <ele>482.72</ele>
        <time>2021-05-30T10:30:05Z</time>
      </trkpt>
      <trkpt lat="38.5818826128" lon="-5.3806054126">
        <ele>483.68</ele>
        <time>2021-05-30T10:30:10Z</time>
      </trkpt>
      <trkpt lat="38.5811807122" lon="-5.3790768888">
        <ele>480.32</ele>
        <time>2021-05-30T10:30:15Z</time>
      </trkpt>
      <trkpt lat="38.5795276333" lon="-5.3754814714">
        <ele>480.32</ele>
        <time>2021-05-30T10:30:27Z</time>
      </trkpt>
      <trkpt lat="38.5780719481" lon="-5.3723347373">
        <ele>481.28</ele>
        <time>2021-05-30T10:30:37Z</time>
      </trkpt>
      <trkpt lat="38.5772086121" lon="-5.3704436123">
        <ele>480.80</ele>
        <time>2021-05-30T10:30:43Z</time>
      </trkpt>
      <trkpt lat="38.5769203585" lon="-5.3698225971">
        <ele>484.64</ele>
        <time>2021-05-30T10:30:45Z</time>
      </trkpt>
      <trkpt lat="38.5761916358" lon="-5.3682452906">
        <ele>481.76</ele>
        <time>2021-05-30T10:30:50Z</time>
      </trkpt>
      <trkpt lat="38.5760497302" lon="-5.3679419495">
        <ele>482.24</ele>
        <time>2021-05-30T10:30:51Z</time>
      </trkpt>
      <trkpt lat="38.5749672074" lon="-5.3655678593">
        <ele>477.43</ele>
        <time>2021-05-30T10:30:59Z</time>
      </trkpt>
      <trkpt lat="38.5748384614" lon="-5.3652900830">
        <ele>476.95</ele>
        <time>2021-05-30T10:31:00Z</time>
      </trkpt>
      <trkpt lat="38.5745940451" lon="-5.3647734225">
        <ele>473.11</ele>
        <time>2021-05-30T10:31:02Z</time>
      </trkpt>
      <trkpt lat="38.5744068772" lon="-5.3642968275">
        <ele>467.82</ele>
        <time>2021-05-30T10:31:04Z</time>
      </trkpt>
      <trkpt lat="38.5743523948" lon="-5.3640532494">
        <ele>466.38</ele>
        <time>2021-05-30T10:31:05Z</time>
      </trkpt>
      <trkpt lat="38.5743257403" lon="-5.3637908120">
        <ele>465.90</ele>
        <time>2021-05-30T10:31:06Z</time>
      </trkpt>
      <trkpt lat="38.5743221361" lon="-5.3635071684">
        <ele>465.42</ele>
        <time>2021-05-30T10:31:07Z</time>
      </trkpt>
      <trkpt lat="38.5743289255" lon="-5.3632056713">
        <ele>464.93</ele>
        <time>2021-05-30T10:31:08Z</time>
      </trkpt>
      <trkpt lat="38.5743688233" lon="-5.3615999501">
        <ele>460.61</ele>
        <time>2021-05-30T10:31:13Z</time>
      </trkpt>
      <trkpt lat="38.5742169432" lon="-5.3597965837">
        <ele>456.76</ele>
        <time>2021-05-30T10:31:19Z</time>
      </trkpt>
      <trkpt lat="38.5741843376" lon="-5.3594882973">
        <ele>455.80</ele>
        <time>2021-05-30T10:31:20Z</time>
      </trkpt>
      <trkpt lat="38.5741742793" lon="-5.3591692820">
        <ele>455.32</ele>
        <time>2021-05-30T10:31:21Z</time>
      </trkpt>
      <trkpt lat="38.5742884409" lon="-5.3571984451">
        <ele>454.36</ele>
        <time>2021-05-30T10:31:27Z</time>
      </trkpt>
      <trkpt lat="38.5743078869" lon="-5.3568921704">
        <ele>451.00</ele>
        <time>2021-05-30T10:31:28Z</time>
      </trkpt>
      <trkpt lat="38.5743290093" lon="-5.3563004918">
        <ele>447.63</ele>
        <time>2021-05-30T10:31:30Z</time>
      </trkpt>
      <trkpt lat="38.5743085574" lon="-5.3560184408">
        <ele>447.15</ele>
        <time>2021-05-30T10:31:31Z</time>
      </trkpt>
      <trkpt lat="38.5742570087" lon="-5.3557529859">
        <ele>447.15</ele>
        <time>2021-05-30T10:31:32Z</time>
      </trkpt>
      <trkpt lat="38.5741722677" lon="-5.3554963320">
        <ele>447.15</ele>
        <time>2021-05-30T10:31:33Z</time>
      </trkpt>
      <trkpt lat="38.5740565136" lon="-5.3552473057">
        <ele>449.07</ele>
        <time>2021-05-30T10:31:34Z</time>
      </trkpt>
      <trkpt lat="38.5739123449" lon="-5.3550099302">
        <ele>450.52</ele>
        <time>2021-05-30T10:31:35Z</time>
      </trkpt>
      <trkpt lat="38.5737435333" lon="-5.3547754046">
        <ele>451.96</ele>
        <time>2021-05-30T10:31:36Z</time>
      </trkpt>
      <trkpt lat="38.5733828600" lon="-5.3542949539">
        <ele>455.80</ele>
        <time>2021-05-30T10:31:38Z</time>
      </trkpt>
      <trkpt lat="38.5732049961" lon="-5.3540547285">
        <ele>455.80</ele>
        <time>2021-05-30T10:31:39Z</time>
      </trkpt>
      <trkpt lat="38.5726677999" lon="-5.3533218987">
        <ele>459.17</ele>
        <time>2021-05-30T10:31:42Z</time>
      </trkpt>
      <trkpt lat="38.5724871699" lon="-5.3530737106">
        <ele>463.01</ele>
        <time>2021-05-30T10:31:43Z</time>
      </trkpt>
      <trkpt lat="38.5713935830" lon="-5.3512491379">
        <ele>463.97</ele>
        <time>2021-05-30T10:31:50Z</time>
      </trkpt>
      <trkpt lat="38.5711044911" lon="-5.3503548726">
        <ele>460.61</ele>
        <time>2021-05-30T10:31:53Z</time>
      </trkpt>
      <trkpt lat="38.5709324107" lon="-5.3498475160">
        <ele>455.32</ele>
        <time>2021-05-30T10:31:55Z</time>
      </trkpt>
      <trkpt lat="38.5708330013" lon="-5.3496400639">
        <ele>453.40</ele>
        <time>2021-05-30T10:31:56Z</time>
      </trkpt>
      <trkpt lat="38.5707127210" lon="-5.3494751919">
        <ele>452.44</ele>
        <time>2021-05-30T10:31:57Z</time>
      </trkpt>
      <trkpt lat="38.5705734976" lon="-5.3493446019">
        <ele>451.48</ele>
        <time>2021-05-30T10:31:58Z</time>
      </trkpt>
      <trkpt lat="38.5704261437" lon="-5.3492480423">
        <ele>450.03</ele>
        <time>2021-05-30T10:31:59Z</time>
      </trkpt>
      <trkpt lat="38.5702728387" lon="-5.3491883632">
        <ele>450.52</ele>
        <time>2021-05-30T10:32:00Z</time>
      </trkpt>
      <trkpt lat="38.5700914543" lon="-5.3491669055">
        <ele>451.00</ele>
        <time>2021-05-30T10:32:01Z</time>
      </trkpt>
      <trkpt lat="38.5698798113" lon="-5.3491757903">
        <ele>451.96</ele>
        <time>2021-05-30T10:32:02Z</time>
      </trkpt>
      <trkpt lat="38.5696503147" lon="-5.3491880279">
        <ele>452.44</ele>
        <time>2021-05-30T10:32:03Z</time>
      </trkpt>
      <trkpt lat="38.5681597609" lon="-5.3492905386">
        <ele>449.07</ele>
        <time>2021-05-30T10:32:09Z</time>
      </trkpt>
      <trkpt lat="38.5672965087" lon="-5.3492827434">
        <ele>446.19</ele>
        <time>2021-05-30T10:32:13Z</time>
      </trkpt>
      <trkpt lat="38.5671096761" lon="-5.3492149338">
        <ele>446.19</ele>
        <time>2021-05-30T10:32:14Z</time>
      </trkpt>
      <trkpt lat="38.5669316445" lon="-5.3491001856">
        <ele>447.15</ele>
        <time>2021-05-30T10:32:15Z</time>
      </trkpt>
      <trkpt lat="38.5667537805" lon="-5.3489486407">
        <ele>447.63</ele>
        <time>2021-05-30T10:32:16Z</time>
      </trkpt>
      <trkpt lat="38.5665697139" lon="-5.3487739619">
        <ele>449.07</ele>
        <time>2021-05-30T10:32:17Z</time>
      </trkpt>
      <trkpt lat="38.5661717411" lon="-5.3483979497">
        <ele>452.44</ele>
        <time>2021-05-30T10:32:19Z</time>
      </trkpt>
      <trkpt lat="38.5653362330" lon="-5.3476296645">
        <ele>457.72</ele>
        <time>2021-05-30T10:32:23Z</time>
      </trkpt>
      <trkpt lat="38.5648929980" lon="-5.3472221363">
        <ele>461.09</ele>
        <time>2021-05-30T10:32:25Z</time>
      </trkpt>
      <trkpt lat="38.5644346755" lon="-5.3467976768">
        <ele>464.93</ele>
        <time>2021-05-30T10:32:27Z</time>
      </trkpt>
      <trkpt lat="38.5627944209" lon="-5.3452836536">
        <ele>464.45</ele>
        <time>2021-05-30T10:32:35Z</time>
      </trkpt>
      <trkpt lat="38.5626410320" lon="-5.3451003414">
        <ele>465.42</ele>
        <time>2021-05-30T10:32:36Z</time>
      </trkpt>
      <trkpt lat="38.5621725675" lon="-5.3444333933">
        <ele>467.82</ele>
        <time>2021-05-30T10:32:39Z</time>
      </trkpt>
      <trkpt lat="38.5613278393" lon="-5.3432414867">
        <ele>463.49</ele>
        <time>2021-05-30T10:32:44Z</time>
      </trkpt>
      <trkpt lat="38.5611641407" lon="-5.3429897781">
        <ele>463.49</ele>
        <time>2021-05-30T10:32:45Z</time>
      </trkpt>
      <trkpt lat="38.5608618055" lon="-5.3424833436">
        <ele>457.72</ele>
        <time>2021-05-30T10:32:47Z</time>
      </trkpt>
      <trkpt lat="38.5604343284" lon="-5.3417677805">
        <ele>453.40</ele>
        <time>2021-05-30T10:32:50Z</time>
      </trkpt>
      <trkpt lat="38.5602191649" lon="-5.3412839770">
        <ele>448.59</ele>
        <time>2021-05-30T10:32:52Z</time>
      </trkpt>
      <trkpt lat="38.5600692127" lon="-5.3408683185">
        <ele>444.27</ele>
        <time>2021-05-30T10:32:54Z</time>
      </trkpt>
      <trkpt lat="38.5600283928" lon="-5.3406814858">
        <ele>441.38</ele>
        <time>2021-05-30T10:32:55Z</time>
      </trkpt>
      <trkpt lat="38.5600322485" lon="-5.3404907137">
        <ele>440.42</ele>
        <time>2021-05-30T10:32:56Z</time>
      </trkpt>
      <trkpt lat="38.5600788519" lon="-5.3402817529">
        <ele>439.94</ele>
        <time>2021-05-30T10:32:57Z</time>
      </trkpt>
      <trkpt lat="38.5604826082" lon="-5.3390631080">
        <ele>438.02</ele>
        <time>2021-05-30T10:33:02Z</time>
      </trkpt>
      <trkpt lat="38.5606136173" lon="-5.3386039473">
        <ele>436.58</ele>
        <time>2021-05-30T10:33:04Z</time>
      </trkpt>
      <trkpt lat="38.5606536828" lon="-5.3383649793">
        <ele>438.02</ele>
        <time>2021-05-30T10:33:05Z</time>
      </trkpt>
      <trkpt lat="38.5607170500" lon="-5.3378187306">
        <ele>439.46</ele>
        <time>2021-05-30T10:33:07Z</time>
      </trkpt>
      <trkpt lat="38.5609533358" lon="-5.3355494980">
        <ele>442.82</ele>
        <time>2021-05-30T10:33:14Z</time>
      </trkpt>
      <trkpt lat="38.5611150227" lon="-5.3340984229">
        <ele>445.71</ele>
        <time>2021-05-30T10:33:18Z</time>
      </trkpt>
      <trkpt lat="38.5612754524" lon="-5.3326834738">
        <ele>446.19</ele>
        <time>2021-05-30T10:33:22Z</time>
      </trkpt>
      <trkpt lat="38.5613895301" lon="-5.3316360712">
        <ele>448.11</ele>
        <time>2021-05-30T10:33:25Z</time>
      </trkpt>
      <trkpt lat="38.5615203716" lon="-5.3302233852">
        <ele>446.67</ele>
        <time>2021-05-30T10:33:30Z</time>
      </trkpt>
      <trkpt lat="38.5614992492" lon="-5.3299572598">
        <ele>449.07</ele>
        <time>2021-05-30T10:33:31Z</time>
      </trkpt>
      <trkpt lat="38.5614538193" lon="-5.3296805732">
        <ele>449.55</ele>
        <time>2021-05-30T10:33:32Z</time>
      </trkpt>
      <trkpt lat="38.5611737799" lon="-5.3284568153">
        <ele>453.40</ele>
        <time>2021-05-30T10:33:36Z</time>
      </trkpt>
      <trkpt lat="38.5610957444" lon="-5.3281240538">
        <ele>453.40</ele>
        <time>2021-05-30T10:33:37Z</time>
      </trkpt>
      <trkpt lat="38.5606245138" lon="-5.3260996565">
        <ele>456.76</ele>
        <time>2021-05-30T10:33:43Z</time>
      </trkpt>
      <trkpt lat="38.5601292271" lon="-5.3239844833">
        <ele>456.76</ele>
        <time>2021-05-30T10:33:50Z</time>
      </trkpt>
      <trkpt lat="38.5600553825" lon="-5.3235204611">
        <ele>455.32</ele>
        <time>2021-05-30T10:33:52Z</time>
      </trkpt>
      <trkpt lat="38.5600484256" lon="-5.3232979216">
        <ele>455.32</ele>
        <time>2021-05-30T10:33:53Z</time>
      </trkpt>
      <trkpt lat="38.5600702185" lon="-5.3230760526">
        <ele>455.80</ele>
        <time>2021-05-30T10:33:54Z</time>
      </trkpt>
      <trkpt lat="38.5601237789" lon="-5.3228488192">
        <ele>456.28</ele>
        <time>2021-05-30T10:33:55Z</time>
      </trkpt>
      <trkpt lat="38.5602048319" lon="-5.3226090968">
        <ele>455.80</ele>
        <time>2021-05-30T10:33:56Z</time>
      </trkpt>
      <trkpt lat="38.5603013914" lon="-5.3223530296">
        <ele>455.32</ele>
        <time>2021-05-30T10:33:57Z</time>
      </trkpt>
      <trkpt lat="38.5606402718" lon="-5.3208141122">
        <ele>455.80</ele>
        <time>2021-05-30T10:34:02Z</time>
      </trkpt>
      <trkpt lat="38.5606251843" lon="-5.3189197183">
        <ele>458.21</ele>
        <time>2021-05-30T10:34:08Z</time>
      </trkpt>
      <trkpt lat="38.5606561136" lon="-5.3186601307">
        <ele>457.72</ele>
        <time>2021-05-30T10:34:09Z</time>
      </trkpt>
      <trkpt lat="38.5607108474" lon="-5.3184304666">
        <ele>456.76</ele>
        <time>2021-05-30T10:34:10Z</time>
      </trkpt>
      <trkpt lat="38.5607906431" lon="-5.3182484955">
        <ele>455.32</ele>
        <time>2021-05-30T10:34:11Z</time>
      </trkpt>
      <trkpt lat="38.5608901363" lon="-5.3181332443">
        <ele>453.88</ele>
        <time>2021-05-30T10:34:12Z</time>
      </trkpt>
      <trkpt lat="38.5610045493" lon="-5.3180843778">
        <ele>454.84</ele>
        <time>2021-05-30T10:34:13Z</time>
      </trkpt>
      <trkpt lat="38.5611355584" lon="-5.3180815279">
        <ele>456.28</ele>
        <time>2021-05-30T10:34:14Z</time>
      </trkpt>
      <trkpt lat="38.5612705071" lon="-5.3180886526">
        <ele>457.24</ele>
        <time>2021-05-30T10:34:15Z</time>
      </trkpt>
      <trkpt lat="38.5613951460" lon="-5.3180702124">
        <ele>457.24</ele>
        <time>2021-05-30T10:34:16Z</time>
      </trkpt>
      <trkpt lat="38.5614967346" lon="-5.3180109523">
        <ele>456.76</ele>
        <time>2021-05-30T10:34:17Z</time>
      </trkpt>
      <trkpt lat="38.5615717527" lon="-5.3179072682">
        <ele>457.72</ele>
        <time>2021-05-30T10:34:18Z</time>
      </trkpt>
      <trkpt lat="38.5616283305" lon="-5.3177599143">
        <ele>458.69</ele>
        <time>2021-05-30T10:34:19Z</time>
      </trkpt>
      <trkpt lat="38.5616728384" lon="-5.3175727464">
        <ele>461.09</ele>
        <time>2021-05-30T10:34:20Z</time>
      </trkpt>
      <trkpt lat="38.5617201123" lon="-5.3173699882">
        <ele>463.97</ele>
        <time>2021-05-30T10:34:21Z</time>
      </trkpt>
      <trkpt lat="38.5618959647" lon="-5.3167420160">
        <ele>466.86</ele>
        <time>2021-05-30T10:34:24Z</time>
      </trkpt>
      <trkpt lat="38.5619879141" lon="-5.3165771440">
        <ele>466.86</ele>
        <time>2021-05-30T10:34:25Z</time>
      </trkpt>
      <trkpt lat="38.5621132236" lon="-5.3164526727">
        <ele>466.38</ele>
        <time>2021-05-30T10:34:26Z</time>
      </trkpt>
      <trkpt lat="38.5622685403" lon="-5.3163541015">
        <ele>468.30</ele>
        <time>2021-05-30T10:34:27Z</time>
      </trkpt>
      <trkpt lat="38.5624369327" lon="-5.3162608948">
        <ele>471.18</ele>
        <time>2021-05-30T10:34:28Z</time>
      </trkpt>
      <trkpt lat="38.5627449676" lon="-5.3160852939">
        <ele>471.66</ele>
        <time>2021-05-30T10:34:30Z</time>
      </trkpt>
      <trkpt lat="38.5628553573" lon="-5.3159948532">
        <ele>469.26</ele>
        <time>2021-05-30T10:34:31Z</time>
      </trkpt>
      <trkpt lat="38.5629195627" lon="-5.3158900794">
        <ele>468.78</ele>
        <time>2021-05-30T10:34:32Z</time>
      </trkpt>
      <trkpt lat="38.5629385058" lon="-5.3157709725">
        <ele>469.74</ele>
        <time>2021-05-30T10:34:33Z</time>
      </trkpt>
      <trkpt lat="38.5629148688" lon="-5.3156387899">
        <ele>470.22</ele>
        <time>2021-05-30T10:34:34Z</time>
      </trkpt>
      <trkpt lat="38.5628541000" lon="-5.3154990636">
        <ele>471.66</ele>
        <time>2021-05-30T10:34:35Z</time>
      </trkpt>
      <trkpt lat="38.5627673473" lon="-5.3153473511">
        <ele>474.07</ele>
        <time>2021-05-30T10:34:36Z</time>
      </trkpt>
      <trkpt lat="38.5626699496" lon="-5.3151854128">
        <ele>475.51</ele>
        <time>2021-05-30T10:34:37Z</time>
      </trkpt>
      <trkpt lat="38.5623516887" lon="-5.3146280162">
        <ele>479.35</ele>
        <time>2021-05-30T10:34:40Z</time>
      </trkpt>
      <trkpt lat="38.5622414667" lon="-5.3144312091">
        <ele>479.84</ele>
        <time>2021-05-30T10:34:41Z</time>
      </trkpt>
      <trkpt lat="38.5621454101" lon="-5.3142440412">
        <ele>478.87</ele>
        <time>2021-05-30T10:34:42Z</time>
      </trkpt>
      <trkpt lat="38.5620825458" lon="-5.3140661772">
        <ele>478.87</ele>
        <time>2021-05-30T10:34:43Z</time>
      </trkpt>
      <trkpt lat="38.5620656144" lon="-5.3139009699">
        <ele>478.87</ele>
        <time>2021-05-30T10:34:44Z</time>
      </trkpt>
      <trkpt lat="38.5620849766" lon="-5.3137501795">
        <ele>476.95</ele>
        <time>2021-05-30T10:34:45Z</time>
      </trkpt>
      <trkpt lat="38.5621097032" lon="-5.3136154823">
        <ele>475.99</ele>
        <time>2021-05-30T10:34:46Z</time>
      </trkpt>
      <trkpt lat="38.5621125530" lon="-5.3134954534">
        <ele>475.51</ele>
        <time>2021-05-30T10:34:47Z</time>
      </trkpt>
      <trkpt lat="38.5620888323" lon="-5.3133776877">
        <ele>475.51</ele>
        <time>2021-05-30T10:34:48Z</time>
      </trkpt>
      <trkpt lat="38.5620392114" lon="-5.3132583294">
        <ele>477.43</ele>
        <time>2021-05-30T10:34:49Z</time>
      </trkpt>
      <trkpt lat="38.5619687196" lon="-5.3131331038">
        <ele>478.39</ele>
        <time>2021-05-30T10:34:50Z</time>
      </trkpt>
      <trkpt lat="38.5618850682" lon="-5.3129943833">
        <ele>479.84</ele>
        <time>2021-05-30T10:34:51Z</time>
      </trkpt>
      <trkpt lat="38.5616945475" lon="-5.3126734402">
        <ele>485.12</ele>
        <time>2021-05-30T10:34:53Z</time>
      </trkpt>
      <trkpt lat="38.5613834951" lon="-5.3121580370">
        <ele>489.45</ele>
        <time>2021-05-30T10:34:56Z</time>
      </trkpt>
      <trkpt lat="38.5604726337" lon="-5.3108566627">
        <ele>493.29</ele>
        <time>2021-05-30T10:35:03Z</time>
      </trkpt>
      <trkpt lat="38.5595328547" lon="-5.3096085135">
        <ele>495.70</ele>
        <time>2021-05-30T10:35:09Z</time>
      </trkpt>
      <trkpt lat="38.5584625695" lon="-5.3082407545">
        <ele>498.58</ele>
        <time>2021-05-30T10:35:15Z</time>
      </trkpt>
      <trkpt lat="38.5579104535" lon="-5.3075235989">
        <ele>500.50</ele>
        <time>2021-05-30T10:35:18Z</time>
      </trkpt>
      <trkpt lat="38.5575434938" lon="-5.3070475068">
        <ele>501.95</ele>
        <time>2021-05-30T10:35:20Z</time>
      </trkpt>
      <trkpt lat="38.5564334784" lon="-5.3056141175">
        <ele>502.91</ele>
        <time>2021-05-30T10:35:26Z</time>
      </trkpt>
      <trkpt lat="38.5552900191" lon="-5.3041420877">
        <ele>506.75</ele>
        <time>2021-05-30T10:35:32Z</time>
      </trkpt>
      <trkpt lat="38.5549033619" lon="-5.3036337253">
        <ele>510.60</ele>
        <time>2021-05-30T10:35:34Z</time>
      </trkpt>
      <trkpt lat="38.5545119271" lon="-5.3031083476">
        <ele>513.96</ele>
        <time>2021-05-30T10:35:36Z</time>
      </trkpt>
      <trkpt lat="38.5543183889" lon="-5.3028390370">
        <ele>517.81</ele>
        <time>2021-05-30T10:35:37Z</time>
      </trkpt>
      <trkpt lat="38.5541283712" lon="-5.3025646135">
        <ele>517.33</ele>
        <time>2021-05-30T10:35:38Z</time>
      </trkpt>
      <trkpt lat="38.5524736159" lon="-5.3001011722">
        <ele>518.77</ele>
        <time>2021-05-30T10:35:47Z</time>
      </trkpt>
      <trkpt lat="38.5505316965" lon="-5.2974852640">
        <ele>515.40</ele>
        <time>2021-05-30T10:35:57Z</time>
      </trkpt>
      <trkpt lat="38.5496531054" lon="-5.2965051681">
        <ele>518.77</ele>
        <time>2021-05-30T10:36:02Z</time>
      </trkpt>
      <trkpt lat="38.5488928668" lon="-5.2957108989">
        <ele>522.13</ele>
        <time>2021-05-30T10:36:06Z</time>
      </trkpt>
      <trkpt lat="38.5481677484" lon="-5.2949354891">
        <ele>517.33</ele>
        <time>2021-05-30T10:36:10Z</time>
      </trkpt>
      <trkpt lat="38.5480207298" lon="-5.2947310545">
        <ele>516.37</ele>
        <time>2021-05-30T10:36:11Z</time>
      </trkpt>
      <trkpt lat="38.5478861164" lon="-5.2944975346">
        <ele>516.85</ele>
        <time>2021-05-30T10:36:12Z</time>
      </trkpt>
      <trkpt lat="38.5473632533" lon="-5.2933765389">
        <ele>521.65</ele>
        <time>2021-05-30T10:36:16Z</time>
      </trkpt>
      <trkpt lat="38.5456178058" lon="-5.2897928562">
        <ele>518.77</ele>
        <time>2021-05-30T10:36:28Z</time>
      </trkpt>
      <trkpt lat="38.5453223437" lon="-5.2893155068">
        <ele>514.92</ele>
        <time>2021-05-30T10:36:30Z</time>
      </trkpt>
      <trkpt lat="38.5451598186" lon="-5.2891258243">
        <ele>512.04</ele>
        <time>2021-05-30T10:36:31Z</time>
      </trkpt>
      <trkpt lat="38.5449736565" lon="-5.2889648080">
        <ele>511.56</ele>
        <time>2021-05-30T10:36:32Z</time>
      </trkpt>
      <trkpt lat="38.5447631031" lon="-5.2888244111">
        <ele>510.60</ele>
        <time>2021-05-30T10:36:33Z</time>
      </trkpt>
      <trkpt lat="38.5445347801" lon="-5.2886860259">
        <ele>511.56</ele>
        <time>2021-05-30T10:36:34Z</time>
      </trkpt>
      <trkpt lat="38.5424562357" lon="-5.2873960510">
        <ele>511.56</ele>
        <time>2021-05-30T10:36:42Z</time>
      </trkpt>
      <trkpt lat="38.5394971725" lon="-5.2855339274">
        <ele>515.40</ele>
        <time>2021-05-30T10:36:53Z</time>
      </trkpt>
      <trkpt lat="38.5392214078" lon="-5.2853565663">
        <ele>515.40</ele>
        <time>2021-05-30T10:36:54Z</time>
      </trkpt>
      <trkpt lat="38.5354476236" lon="-5.2829616889">
        <ele>513.48</ele>
        <time>2021-05-30T10:37:08Z</time>
      </trkpt>
      <trkpt lat="38.5334279202" lon="-5.2820135280">
        <ele>514.92</ele>
        <time>2021-05-30T10:37:16Z</time>
      </trkpt>
      <trkpt lat="38.5312222224" lon="-5.2812861465">
        <ele>518.77</ele>
        <time>2021-05-30T10:37:24Z</time>
      </trkpt>
      <trkpt lat="38.5294732545" lon="-5.2809382137">
        <ele>521.17</ele>
        <time>2021-05-30T10:37:30Z</time>
      </trkpt>
      <trkpt lat="38.5283022188" lon="-5.2807020117">
        <ele>523.58</ele>
        <time>2021-05-30T10:37:34Z</time>
      </trkpt>
      <trkpt lat="38.5274757631" lon="-5.2805419173">
        <ele>520.21</ele>
        <time>2021-05-30T10:37:37Z</time>
      </trkpt>
      <trkpt lat="38.5267355572" lon="-5.2803686634">
        <ele>518.77</ele>
        <time>2021-05-30T10:37:40Z</time>
      </trkpt>
      <trkpt lat="38.5264967568" lon="-5.2802771330">
        <ele>519.73</ele>
        <time>2021-05-30T10:37:41Z</time>
      </trkpt>
      <trkpt lat="38.5262650810" lon="-5.2801582776">
        <ele>521.65</ele>
        <time>2021-05-30T10:37:42Z</time>
      </trkpt>
      <trkpt lat="38.5260397755" lon="-5.2800159529">
        <ele>520.21</ele>
        <time>2021-05-30T10:37:43Z</time>
      </trkpt>
      <trkpt lat="38.5255771782" lon="-5.2797100134">
        <ele>525.02</ele>
        <time>2021-05-30T10:37:45Z</time>
      </trkpt>
      <trkpt lat="38.5253423173" lon="-5.2795562893">
        <ele>525.02</ele>
        <time>2021-05-30T10:37:46Z</time>
      </trkpt>
      <trkpt lat="38.5248694941" lon="-5.2792426385">
        <ele>528.38</ele>
        <time>2021-05-30T10:37:48Z</time>
      </trkpt>
      <trkpt lat="38.5241347365" lon="-5.2787491120">
        <ele>532.23</ele>
        <time>2021-05-30T10:37:51Z</time>
      </trkpt>
      <trkpt lat="38.5236420482" lon="-5.2784301806">
        <ele>533.19</ele>
        <time>2021-05-30T10:37:53Z</time>
      </trkpt>
      <trkpt lat="38.5229846556" lon="-5.2780063916">
        <ele>531.27</ele>
        <time>2021-05-30T10:37:56Z</time>
      </trkpt>
      <trkpt lat="38.5224671569" lon="-5.2776169684">
        <ele>530.79</ele>
        <time>2021-05-30T10:37:59Z</time>
      </trkpt>
      <trkpt lat="38.5223370697" lon="-5.2774437144">
        <ele>532.23</ele>
        <time>2021-05-30T10:38:00Z</time>
      </trkpt>
      <trkpt lat="38.5222192202" lon="-5.2772354241">
        <ele>535.11</ele>
        <time>2021-05-30T10:38:01Z</time>
      </trkpt>
      <trkpt lat="38.5218633246" lon="-5.2764814720">
        <ele>539.92</ele>
        <time>2021-05-30T10:38:04Z</time>
      </trkpt>
      <trkpt lat="38.5205877665" lon="-5.2738109976">
        <ele>540.88</ele>
        <time>2021-05-30T10:38:13Z</time>
      </trkpt>
      <trkpt lat="38.5191825405" lon="-5.2709157206">
        <ele>537.51</ele>
        <time>2021-05-30T10:38:23Z</time>
      </trkpt>
      <trkpt lat="38.5190514475" lon="-5.2706569713">
        <ele>537.99</ele>
        <time>2021-05-30T10:38:24Z</time>
      </trkpt>
      <trkpt lat="38.5187940393" lon="-5.2702192683">
        <ele>534.63</ele>
        <time>2021-05-30T10:38:26Z</time>
      </trkpt>
      <trkpt lat="38.5186383035" lon="-5.2700227965">
        <ele>535.59</ele>
        <time>2021-05-30T10:38:27Z</time>
      </trkpt>
      <trkpt lat="38.5182729363" lon="-5.2696194593">
        <ele>537.51</ele>
        <time>2021-05-30T10:38:29Z</time>
      </trkpt>
      <trkpt lat="38.5166838113" lon="-5.2679704875">
        <ele>541.84</ele>
        <time>2021-05-30T10:38:37Z</time>
      </trkpt>
      <trkpt lat="38.5161347967" lon="-5.2673255000">
        <ele>545.20</ele>
        <time>2021-05-30T10:38:40Z</time>
      </trkpt>
      <trkpt lat="38.5144543089" lon="-5.2650011145">
        <ele>549.05</ele>
        <time>2021-05-30T10:38:49Z</time>
      </trkpt>
      <trkpt lat="38.5142568313" lon="-5.2647273615">
        <ele>548.57</ele>
        <time>2021-05-30T10:38:50Z</time>
      </trkpt>
      <trkpt lat="38.5132561997" lon="-5.2633492090">
        <ele>550.97</ele>
        <time>2021-05-30T10:38:55Z</time>
      </trkpt>
      <trkpt lat="38.5128886532" lon="-5.2628451213">
        <ele>549.53</ele>
        <time>2021-05-30T10:38:57Z</time>
      </trkpt>
      <trkpt lat="38.5123496968" lon="-5.2621295583">
        <ele>552.90</ele>
        <time>2021-05-30T10:39:00Z</time>
      </trkpt>
      <trkpt lat="38.5114939883" lon="-5.2611173596">
        <ele>549.05</ele>
        <time>2021-05-30T10:39:05Z</time>
      </trkpt>
      <trkpt lat="38.5113428626" lon="-5.2609375678">
        <ele>549.05</ele>
        <time>2021-05-30T10:39:06Z</time>
      </trkpt>
      <trkpt lat="38.5104750004" lon="-5.2599033248">
        <ele>550.97</ele>
        <time>2021-05-30T10:39:12Z</time>
      </trkpt>
      <trkpt lat="38.5100128222" lon="-5.2594320104">
        <ele>553.86</ele>
        <time>2021-05-30T10:39:15Z</time>
      </trkpt>
      <trkpt lat="38.5098333657" lon="-5.2592991572">
        <ele>553.38</ele>
        <time>2021-05-30T10:39:16Z</time>
      </trkpt>
      <trkpt lat="38.5096415039" lon="-5.2591763623">
        <ele>554.34</ele>
        <time>2021-05-30T10:39:17Z</time>
      </trkpt>
      <trkpt lat="38.5085587297" lon="-5.2585603762">
        <ele>547.13</ele>
        <time>2021-05-30T10:39:22Z</time>
      </trkpt>
      <trkpt lat="38.5076678172" lon="-5.2580893133">
        <ele>542.32</ele>
        <time>2021-05-30T10:39:26Z</time>
      </trkpt>
      <trkpt lat="38.5058244690" lon="-5.2570883464">
        <ele>545.69</ele>
        <time>2021-05-30T10:39:35Z</time>
      </trkpt>
      <trkpt lat="38.5053489637" lon="-5.2568345424">
        <ele>547.13</ele>
        <time>2021-05-30T10:39:37Z</time>
      </trkpt>
      <trkpt lat="38.5048785713" lon="-5.2565881982">
        <ele>550.49</ele>
        <time>2021-05-30T10:39:39Z</time>
      </trkpt>
      <trkpt lat="38.5044201650" lon="-5.2563425247">
        <ele>553.38</ele>
        <time>2021-05-30T10:39:41Z</time>
      </trkpt>
      <trkpt lat="38.5039486829" lon="-5.2560769860">
        <ele>557.22</ele>
        <time>2021-05-30T10:39:43Z</time>
      </trkpt>
      <trkpt lat="38.5029832553" lon="-5.2555378620">
        <ele>553.38</ele>
        <time>2021-05-30T10:39:47Z</time>
      </trkpt>
      <trkpt lat="38.5025309678" lon="-5.2553031687">
        <ele>551.45</ele>
        <time>2021-05-30T10:39:49Z</time>
      </trkpt>
      <trkpt lat="38.5019130539" lon="-5.2549849078">
        <ele>547.13</ele>
        <time>2021-05-30T10:39:52Z</time>
      </trkpt>
      <trkpt lat="38.5013673920" lon="-5.2547222190">
        <ele>543.28</ele>
        <time>2021-05-30T10:39:55Z</time>
      </trkpt>
      <trkpt lat="38.5008837562" lon="-5.2544969972">
        <ele>539.92</ele>
        <time>2021-05-30T10:39:58Z</time>
      </trkpt>
      <trkpt lat="38.5007343907" lon="-5.2544296905">
        <ele>539.92</ele>
        <time>2021-05-30T10:39:59Z</time>
      </trkpt>
      <trkpt lat="38.5000717174" lon="-5.2541258465">
        <ele>535.59</ele>
        <time>2021-05-30T10:40:04Z</time>
      </trkpt>
      <trkpt lat="38.4997904208" lon="-5.2540132776">
        <ele>532.71</ele>
        <time>2021-05-30T10:40:08Z</time>
      </trkpt>
      <trkpt lat="38.4996555559" lon="-5.2539447974">
        <ele>532.71</ele>
        <time>2021-05-30T10:40:12Z</time>
      </trkpt>
      <trkpt lat="38.4996219445" lon="-5.2538954280">
        <ele>533.19</ele>
        <time>2021-05-30T10:40:13Z</time>
      </trkpt>
      <trkpt lat="38.4995955415" lon="-5.2538069151">
        <ele>534.15</ele>
        <time>2021-05-30T10:40:14Z</time>
      </trkpt>
      <trkpt lat="38.4995763469" lon="-5.2536881436">
        <ele>534.63</ele>
        <time>2021-05-30T10:40:15Z</time>
      </trkpt>
      <trkpt lat="38.4995589126" lon="-5.2535460703">
        <ele>535.11</ele>
        <time>2021-05-30T10:40:16Z</time>
      </trkpt>
      <trkpt lat="38.4994319268" lon="-5.2525836602">
        <ele>538.48</ele>
        <time>2021-05-30T10:40:21Z</time>
      </trkpt>
      <trkpt lat="38.4993066173" lon="-5.2519385889">
        <ele>538.96</ele>
        <time>2021-05-30T10:40:24Z</time>
      </trkpt>
      <trkpt lat="38.4992287494" lon="-5.2517337352">
        <ele>539.92</ele>
        <time>2021-05-30T10:40:25Z</time>
      </trkpt>
      <trkpt lat="38.4991330281" lon="-5.2515285462">
        <ele>539.92</ele>
        <time>2021-05-30T10:40:26Z</time>
      </trkpt>
      <trkpt lat="38.4989107400" lon="-5.2510965429">
        <ele>543.28</ele>
        <time>2021-05-30T10:40:28Z</time>
      </trkpt>
      <trkpt lat="38.4987912141" lon="-5.2508695610">
        <ele>542.80</ele>
        <time>2021-05-30T10:40:29Z</time>
      </trkpt>
      <trkpt lat="38.4980450571" lon="-5.2494404465">
        <ele>546.17</ele>
        <time>2021-05-30T10:40:35Z</time>
      </trkpt>
      <trkpt lat="38.4979184065" lon="-5.2491964493">
        <ele>546.17</ele>
        <time>2021-05-30T10:40:36Z</time>
      </trkpt>
      <trkpt lat="38.4976780135" lon="-5.2487346902">
        <ele>544.24</ele>
        <time>2021-05-30T10:40:38Z</time>
      </trkpt>
      <trkpt lat="38.4974802006" lon="-5.2482891083">
        <ele>544.24</ele>
        <time>2021-05-30T10:40:40Z</time>
      </trkpt>
      <trkpt lat="38.4974156599" lon="-5.2480420098">
        <ele>543.28</ele>
        <time>2021-05-30T10:40:41Z</time>
      </trkpt>
      <trkpt lat="38.4973703977" lon="-5.2477752976">
        <ele>544.72</ele>
        <time>2021-05-30T10:40:42Z</time>
      </trkpt>
      <trkpt lat="38.4972325154" lon="-5.2469053399">
        <ele>547.61</ele>
        <time>2021-05-30T10:40:45Z</time>
      </trkpt>
      <trkpt lat="38.4970254824" lon="-5.2458696719">
        <ele>542.32</ele>
        <time>2021-05-30T10:40:49Z</time>
      </trkpt>
      <trkpt lat="38.4969688207" lon="-5.2454753872">
        <ele>538.96</ele>
        <time>2021-05-30T10:40:51Z</time>
      </trkpt>
      <trkpt lat="38.4969957266" lon="-5.2452922426">
        <ele>538.96</ele>
        <time>2021-05-30T10:40:52Z</time>
      </trkpt>
      <trkpt lat="38.4970674757" lon="-5.2451099362">
        <ele>538.96</ele>
        <time>2021-05-30T10:40:53Z</time>
      </trkpt>
      <trkpt lat="38.4971688129" lon="-5.2449241094">
        <ele>540.40</ele>
        <time>2021-05-30T10:40:54Z</time>
      </trkpt>
      <trkpt lat="38.4972823039" lon="-5.2447311580">
        <ele>541.36</ele>
        <time>2021-05-30T10:40:55Z</time>
      </trkpt>
      <trkpt lat="38.4973814618" lon="-5.2445278130">
        <ele>542.32</ele>
        <time>2021-05-30T10:40:56Z</time>
      </trkpt>
      <trkpt lat="38.4974584915" lon="-5.2443057764">
        <ele>543.28</ele>
        <time>2021-05-30T10:40:57Z</time>
      </trkpt>
      <trkpt lat="38.4975164104" lon="-5.2440644614">
        <ele>543.76</ele>
        <time>2021-05-30T10:40:58Z</time>
      </trkpt>
      <trkpt lat="38.4976354335" lon="-5.2432895545">
        <ele>546.65</ele>
        <time>2021-05-30T10:41:01Z</time>
      </trkpt>
      <trkpt lat="38.4976397082" lon="-5.2429976128">
        <ele>548.09</ele>
        <time>2021-05-30T10:41:02Z</time>
      </trkpt>
      <trkpt lat="38.4974927735" lon="-5.2404180821">
        <ele>549.05</ele>
        <time>2021-05-30T10:41:10Z</time>
      </trkpt>
      <trkpt lat="38.4973004926" lon="-5.2391201444">
        <ele>546.17</ele>
        <time>2021-05-30T10:41:14Z</time>
      </trkpt>
      <trkpt lat="38.4971844032" lon="-5.2385676093">
        <ele>540.40</ele>
        <time>2021-05-30T10:41:16Z</time>
      </trkpt>
      <trkpt lat="38.4971179347" lon="-5.2380745020">
        <ele>537.51</ele>
        <time>2021-05-30T10:41:18Z</time>
      </trkpt>
      <trkpt lat="38.4971208684" lon="-5.2378148306">
        <ele>538.96</ele>
        <time>2021-05-30T10:41:19Z</time>
      </trkpt>
      <trkpt lat="38.4971657116" lon="-5.2372502256">
        <ele>539.92</ele>
        <time>2021-05-30T10:41:21Z</time>
      </trkpt>
      <trkpt lat="38.4972095490" lon="-5.2367124427">
        <ele>536.55</ele>
        <time>2021-05-30T10:41:23Z</time>
      </trkpt>
      <trkpt lat="38.4972639475" lon="-5.2362607419">
        <ele>532.71</ele>
        <time>2021-05-30T10:41:25Z</time>
      </trkpt>
      <trkpt lat="38.4973208606" lon="-5.2360553015">
        <ele>532.23</ele>
        <time>2021-05-30T10:41:26Z</time>
      </trkpt>
      <trkpt lat="38.4974133968" lon="-5.2358516213">
        <ele>532.71</ele>
        <time>2021-05-30T10:41:27Z</time>
      </trkpt>
      <trkpt lat="38.4975348506" lon="-5.2356428280">
        <ele>533.67</ele>
        <time>2021-05-30T10:41:28Z</time>
      </trkpt>
      <trkpt lat="38.4976687934" lon="-5.2354300115">
        <ele>533.19</ele>
        <time>2021-05-30T10:41:29Z</time>
      </trkpt>
      <trkpt lat="38.4986360651" lon="-5.2336429898">
        <ele>533.67</ele>
        <time>2021-05-30T10:41:36Z</time>
      </trkpt>
      <trkpt lat="38.4993404802" lon="-5.2320549544">
        <ele>535.11</ele>
        <time>2021-05-30T10:41:41Z</time>
      </trkpt>
      <trkpt lat="38.5004774854" lon="-5.2293346915">
        <ele>529.82</ele>
        <time>2021-05-30T10:41:49Z</time>
      </trkpt>
      <trkpt lat="38.5009684972" lon="-5.2279027272">
        <ele>525.98</ele>
        <time>2021-05-30T10:41:53Z</time>
      </trkpt>
      <trkpt lat="38.5014949646" lon="-5.2261960879">
        <ele>521.65</ele>
        <time>2021-05-30T10:41:58Z</time>
      </trkpt>
      <trkpt lat="38.5017667897" lon="-5.2253258787">
        <ele>519.73</ele>
        <time>2021-05-30T10:42:01Z</time>
      </trkpt>
      <trkpt lat="38.5019117966" lon="-5.2247964777">
        <ele>518.29</ele>
        <time>2021-05-30T10:42:03Z</time>
      </trkpt>
      <trkpt lat="38.5019477550" lon="-5.2245515585">
        <ele>517.33</ele>
        <time>2021-05-30T10:42:04Z</time>
      </trkpt>
      <trkpt lat="38.5019519459" lon="-5.2243029512">
        <ele>516.37</ele>
        <time>2021-05-30T10:42:05Z</time>
      </trkpt>
      <trkpt lat="38.5019298177" lon="-5.2240380831">
        <ele>517.81</ele>
        <time>2021-05-30T10:42:06Z</time>
      </trkpt>
      <trkpt lat="38.5018936917" lon="-5.2237554453">
        <ele>517.81</ele>
        <time>2021-05-30T10:42:07Z</time>
      </trkpt>
      <trkpt lat="38.5018521175" lon="-5.2234557085">
        <ele>521.65</ele>
        <time>2021-05-30T10:42:08Z</time>
      </trkpt>
      <trkpt lat="38.5017719027" lon="-5.2228349447">
        <ele>525.02</ele>
        <time>2021-05-30T10:42:10Z</time>
      </trkpt>
      <trkpt lat="38.5016936995" lon="-5.2221878618">
        <ele>528.86</ele>
        <time>2021-05-30T10:42:12Z</time>
      </trkpt>
      <trkpt lat="38.5014180187" lon="-5.2197468840">
        <ele>530.79</ele>
        <time>2021-05-30T10:42:20Z</time>
      </trkpt>
      <trkpt lat="38.5014240537" lon="-5.2194494940">
        <ele>531.75</ele>
        <time>2021-05-30T10:42:21Z</time>
      </trkpt>
      <trkpt lat="38.5014761891" lon="-5.2188071888">
        <ele>537.51</ele>
        <time>2021-05-30T10:42:23Z</time>
      </trkpt>
      <trkpt lat="38.5016044322" lon="-5.2174518351">
        <ele>540.40</ele>
        <time>2021-05-30T10:42:27Z</time>
      </trkpt>
      <trkpt lat="38.5016728286" lon="-5.2167476714">
        <ele>544.24</ele>
        <time>2021-05-30T10:42:29Z</time>
      </trkpt>
      <trkpt lat="38.5016918555" lon="-5.2150517609">
        <ele>544.72</ele>
        <time>2021-05-30T10:42:34Z</time>
      </trkpt>
      <trkpt lat="38.5015823040" lon="-5.2143687196">
        <ele>548.09</ele>
        <time>2021-05-30T10:42:36Z</time>
      </trkpt>
      <trkpt lat="38.5015253909" lon="-5.2140186913">
        <ele>551.93</ele>
        <time>2021-05-30T10:42:37Z</time>
      </trkpt>
      <trkpt lat="38.5014730878" lon="-5.2136693336">
        <ele>550.97</ele>
        <time>2021-05-30T10:42:38Z</time>
      </trkpt>
      <trkpt lat="38.5013806354" lon="-5.2129971050">
        <ele>550.49</ele>
        <time>2021-05-30T10:42:40Z</time>
      </trkpt>
      <trkpt lat="38.5012316052" lon="-5.2119781170">
        <ele>554.34</ele>
        <time>2021-05-30T10:42:43Z</time>
      </trkpt>
      <trkpt lat="38.5011843313" lon="-5.2116549108">
        <ele>553.86</ele>
        <time>2021-05-30T10:42:44Z</time>
      </trkpt>
      <trkpt lat="38.5010918789" lon="-5.2103815321">
        <ele>557.22</ele>
        <time>2021-05-30T10:42:48Z</time>
      </trkpt>
      <trkpt lat="38.5011102352" lon="-5.2093339618">
        <ele>560.11</ele>
        <time>2021-05-30T10:42:51Z</time>
      </trkpt>
      <trkpt lat="38.5011140909" lon="-5.2082787640">
        <ele>564.43</ele>
        <time>2021-05-30T10:42:54Z</time>
      </trkpt>
      <trkpt lat="38.5011045355" lon="-5.2079435717">
        <ele>564.43</ele>
        <time>2021-05-30T10:42:55Z</time>
      </trkpt>
      <trkpt lat="38.5010426771" lon="-5.2069882024">
        <ele>567.80</ele>
        <time>2021-05-30T10:42:58Z</time>
      </trkpt>
      <trkpt lat="38.5010008514" lon="-5.2063339949">
        <ele>568.76</ele>
        <time>2021-05-30T10:43:00Z</time>
      </trkpt>
      <trkpt lat="38.5009731073" lon="-5.2056508698">
        <ele>565.39</ele>
        <time>2021-05-30T10:43:02Z</time>
      </trkpt>
      <trkpt lat="38.5009627976" lon="-5.2053031046">
        <ele>565.39</ele>
        <time>2021-05-30T10:43:03Z</time>
      </trkpt>
      <trkpt lat="38.5009364784" lon="-5.2042049076">
        <ele>562.03</ele>
        <time>2021-05-30T10:43:06Z</time>
      </trkpt>
      <trkpt lat="38.5009000171" lon="-5.2016050927">
        <ele>558.66</ele>
        <time>2021-05-30T10:43:13Z</time>
      </trkpt>
      <trkpt lat="38.5008745361" lon="-5.2008674014">
        <ele>555.30</ele>
        <time>2021-05-30T10:43:15Z</time>
      </trkpt>
      <trkpt lat="38.5008313693" lon="-5.1997756585">
        <ele>550.49</ele>
        <time>2021-05-30T10:43:18Z</time>
      </trkpt>
      <trkpt lat="38.5008470435" lon="-5.1990595087">
        <ele>548.57</ele>
        <time>2021-05-30T10:43:20Z</time>
      </trkpt>
      <trkpt lat="38.5009089857" lon="-5.1983235776">
        <ele>550.49</ele>
        <time>2021-05-30T10:43:22Z</time>
      </trkpt>
      <trkpt lat="38.5009690840" lon="-5.1975944359">
        <ele>548.09</ele>
        <time>2021-05-30T10:43:24Z</time>
      </trkpt>
      <trkpt lat="38.5010107420" lon="-5.1961439475">
        <ele>543.28</ele>
        <time>2021-05-30T10:43:28Z</time>
      </trkpt>
      <trkpt lat="38.5010811500" lon="-5.1951672044">
        <ele>539.44</ele>
        <time>2021-05-30T10:43:31Z</time>
      </trkpt>
      <trkpt lat="38.5011453554" lon="-5.1948606782">
        <ele>539.92</ele>
        <time>2021-05-30T10:43:32Z</time>
      </trkpt>
      <trkpt lat="38.5014538094" lon="-5.1929246262">
        <ele>540.88</ele>
        <time>2021-05-30T10:43:38Z</time>
      </trkpt>
      <trkpt lat="38.5016771872" lon="-5.1906954590">
        <ele>543.76</ele>
        <time>2021-05-30T10:43:44Z</time>
      </trkpt>
      <trkpt lat="38.5017296579" lon="-5.1895224955">
        <ele>538.96</ele>
        <time>2021-05-30T10:43:47Z</time>
      </trkpt>
      <trkpt lat="38.5018785205" lon="-5.1846984588">
        <ele>537.51</ele>
        <time>2021-05-30T10:44:00Z</time>
      </trkpt>
      <trkpt lat="38.5019266326" lon="-5.1837874297">
        <ele>535.11</ele>
        <time>2021-05-30T10:44:03Z</time>
      </trkpt>
      <trkpt lat="38.5019708890" lon="-5.1834938955">
        <ele>536.55</ele>
        <time>2021-05-30T10:44:04Z</time>
      </trkpt>
      <trkpt lat="38.5020400397" lon="-5.1831940748">
        <ele>538.96</ele>
        <time>2021-05-30T10:44:05Z</time>
      </trkpt>
      <trkpt lat="38.5021314025" lon="-5.1828913204">
        <ele>538.96</ele>
        <time>2021-05-30T10:44:06Z</time>
      </trkpt>
      <trkpt lat="38.5024578776" lon="-5.1817162614">
        <ele>535.11</ele>
        <time>2021-05-30T10:44:10Z</time>
      </trkpt>
      <trkpt lat="38.5026607197" lon="-5.1801893301">
        <ele>536.07</ele>
        <time>2021-05-30T10:44:16Z</time>
      </trkpt>
      <trkpt lat="38.5027418565" lon="-5.1793234795">
        <ele>540.88</ele>
        <time>2021-05-30T10:44:19Z</time>
      </trkpt>
      <trkpt lat="38.5028106719" lon="-5.1787053142">
        <ele>544.24</ele>
        <time>2021-05-30T10:44:21Z</time>
      </trkpt>
      <trkpt lat="38.5029508173" lon="-5.1773712505">
        <ele>548.09</ele>
        <time>2021-05-30T10:44:25Z</time>
      </trkpt>
      <trkpt lat="38.5030995123" lon="-5.1755639445">
        <ele>549.53</ele>
        <time>2021-05-30T10:44:30Z</time>
      </trkpt>
      <trkpt lat="38.5031599458" lon="-5.1748217270">
        <ele>553.38</ele>
        <time>2021-05-30T10:44:32Z</time>
      </trkpt>
      <trkpt lat="38.5032229777" lon="-5.1740605664">
        <ele>556.26</ele>
        <time>2021-05-30T10:44:34Z</time>
      </trkpt>
      <trkpt lat="38.5032865126" lon="-5.1732871681">
        <ele>557.22</ele>
        <time>2021-05-30T10:44:36Z</time>
      </trkpt>
      <trkpt lat="38.5033789650" lon="-5.1721062418">
        <ele>559.62</ele>
        <time>2021-05-30T10:44:39Z</time>
      </trkpt>
      <trkpt lat="38.5037175938" lon="-5.1679754723">
        <ele>557.22</ele>
        <time>2021-05-30T10:44:50Z</time>
      </trkpt>
      <trkpt lat="38.5039438214" lon="-5.1665116567">
        <ele>560.11</ele>
        <time>2021-05-30T10:44:55Z</time>
      </trkpt>
      <trkpt lat="38.5042469949" lon="-5.1655723806">
        <ele>564.91</ele>
        <time>2021-05-30T10:44:58Z</time>
      </trkpt>
      <trkpt lat="38.5046639945" lon="-5.1641499717">
        <ele>560.11</ele>
        <time>2021-05-30T10:45:03Z</time>
      </trkpt>
      <trkpt lat="38.5046904813" lon="-5.1638767216">
        <ele>559.62</ele>
        <time>2021-05-30T10:45:04Z</time>
      </trkpt>
      <trkpt lat="38.5046951752" lon="-5.1635856181">
        <ele>560.59</ele>
        <time>2021-05-30T10:45:05Z</time>
      </trkpt>
      <trkpt lat="38.5046982765" lon="-5.1629628427">
        <ele>562.03</ele>
        <time>2021-05-30T10:45:07Z</time>
      </trkpt>
      <trkpt lat="38.5047097597" lon="-5.1616885420">
        <ele>558.66</ele>
        <time>2021-05-30T10:45:11Z</time>
      </trkpt>
      <trkpt lat="38.5047274455" lon="-5.1600960642">
        <ele>555.30</ele>
        <time>2021-05-30T10:45:16Z</time>
      </trkpt>
      <trkpt lat="38.5047376715" lon="-5.1592300460">
        <ele>553.86</ele>
        <time>2021-05-30T10:45:19Z</time>
      </trkpt>
      <trkpt lat="38.5047463048" lon="-5.1584042609">
        <ele>552.41</ele>
        <time>2021-05-30T10:45:22Z</time>
      </trkpt>
      <trkpt lat="38.5047709476" lon="-5.1570339873">
        <ele>548.57</ele>
        <time>2021-05-30T10:45:27Z</time>
      </trkpt>
      <trkpt lat="38.5047792457" lon="-5.1564730704">
        <ele>547.61</ele>
        <time>2021-05-30T10:45:29Z</time>
      </trkpt>
      <trkpt lat="38.5048168804" lon="-5.1539862435">
        <ele>543.76</ele>
        <time>2021-05-30T10:45:38Z</time>
      </trkpt>
      <trkpt lat="38.5048218258" lon="-5.1537364628">
        <ele>544.24</ele>
        <time>2021-05-30T10:45:39Z</time>
      </trkpt>
      <trkpt lat="38.5048439540" lon="-5.1526396070">
        <ele>541.36</ele>
        <time>2021-05-30T10:45:44Z</time>
      </trkpt>
      <trkpt lat="38.5048608016" lon="-5.1518747583">
        <ele>537.99</ele>
        <time>2021-05-30T10:45:48Z</time>
      </trkpt>
      <trkpt lat="38.5048661660" lon="-5.1516889315">
        <ele>537.99</ele>
        <time>2021-05-30T10:45:49Z</time>
      </trkpt>
      <trkpt lat="38.5048813373" lon="-5.1503620762">
        <ele>536.55</ele>
        <time>2021-05-30T10:45:56Z</time>
      </trkpt>
      <trkpt lat="38.5048965085" lon="-5.1496677194">
        <ele>534.15</ele>
        <time>2021-05-30T10:46:00Z</time>
      </trkpt>
      <trkpt lat="38.5049220733" lon="-5.1476740837">
        <ele>532.71</ele>
        <time>2021-05-30T10:46:12Z</time>
      </trkpt>
      <trkpt lat="38.5049348976" lon="-5.1470146794">
        <ele>530.30</ele>
        <time>2021-05-30T10:46:18Z</time>
      </trkpt>
      <trkpt lat="38.5049237497" lon="-5.1469524018">
        <ele>530.30</ele>
        <time>2021-05-30T10:46:19Z</time>
      </trkpt>
      <trkpt lat="38.5049058124" lon="-5.1469063014">
        <ele>530.30</ele>
        <time>2021-05-30T10:46:20Z</time>
      </trkpt>
      <trkpt lat="38.5048770625" lon="-5.1468668226">
        <ele>530.30</ele>
        <time>2021-05-30T10:46:21Z</time>
      </trkpt>
      <trkpt lat="38.5048288666" lon="-5.1468300261">
        <ele>530.79</ele>
        <time>2021-05-30T10:46:22Z</time>
      </trkpt>
      <trkpt lat="38.5047598835" lon="-5.1468001027">
        <ele>531.27</ele>
        <time>2021-05-30T10:46:23Z</time>
      </trkpt>
      <trkpt lat="38.5046739690" lon="-5.1467760466">
        <ele>531.75</ele>
        <time>2021-05-30T10:46:24Z</time>
      </trkpt>
      <trkpt lat="38.5045763198" lon="-5.1467526611">
        <ele>532.71</ele>
        <time>2021-05-30T10:46:25Z</time>
      </trkpt>
      <trkpt lat="38.5044694506" lon="-5.1467127632">
        <ele>532.23</ele>
        <time>2021-05-30T10:46:26Z</time>
      </trkpt>
      <trkpt lat="38.5043631680" lon="-5.1466565207">
        <ele>533.19</ele>
        <time>2021-05-30T10:46:27Z</time>
      </trkpt>
      <trkpt lat="38.5042603221" lon="-5.1465869509">
        <ele>533.19</ele>
        <time>2021-05-30T10:46:28Z</time>
      </trkpt>
      <trkpt lat="38.5041564703" lon="-5.1464963425">
        <ele>534.15</ele>
        <time>2021-05-30T10:46:29Z</time>
      </trkpt>
      <trkpt lat="38.5040511936" lon="-5.1463892218">
        <ele>535.11</ele>
        <time>2021-05-30T10:46:30Z</time>
      </trkpt>
      <trkpt lat="38.5033577587" lon="-5.1456372812">
        <ele>537.51</ele>
        <time>2021-05-30T10:46:36Z</time>
      </trkpt>
      <trkpt lat="38.5011914559" lon="-5.1432506181">
        <ele>539.44</ele>
        <time>2021-05-30T10:46:54Z</time>
      </trkpt>
      <trkpt lat="38.5008291900" lon="-5.1428503823">
        <ele>542.80</ele>
        <time>2021-05-30T10:46:57Z</time>
      </trkpt>
      <trkpt lat="38.4992354549" lon="-5.1410714071">
        <ele>546.17</ele>
        <time>2021-05-30T10:47:10Z</time>
      </trkpt>
      <trkpt lat="38.4985356499" lon="-5.1402837597">
        <ele>543.76</ele>
        <time>2021-05-30T10:47:17Z</time>
      </trkpt>
      <trkpt lat="38.4978315700" lon="-5.1394744869">
        <ele>542.32</ele>
        <time>2021-05-30T10:47:26Z</time>
      </trkpt>
      <trkpt lat="38.4976152331" lon="-5.1392301545">
        <ele>540.88</ele>
        <time>2021-05-30T10:47:29Z</time>
      </trkpt>
      <trkpt lat="38.4967860114" lon="-5.1383162756">
        <ele>540.40</ele>
        <time>2021-05-30T10:47:39Z</time>
      </trkpt>
      <trkpt lat="38.4959338233" lon="-5.1373613253">
        <ele>538.48</ele>
        <time>2021-05-30T10:47:50Z</time>
      </trkpt>
      <trkpt lat="38.4955770057" lon="-5.1369756740">
        <ele>541.84</ele>
        <time>2021-05-30T10:47:54Z</time>
      </trkpt>
      <trkpt lat="38.4949911106" lon="-5.1363033615">
        <ele>541.36</ele>
        <time>2021-05-30T10:48:02Z</time>
      </trkpt>
      <trkpt lat="38.4949595109" lon="-5.1362187881">
        <ele>540.88</ele>
        <time>2021-05-30T10:48:03Z</time>
      </trkpt>
      <trkpt lat="38.4949528053" lon="-5.1361175347">
        <ele>540.88</ele>
        <time>2021-05-30T10:48:04Z</time>
      </trkpt>
      <trkpt lat="38.4949657135" lon="-5.1360086538">
        <ele>541.84</ele>
        <time>2021-05-30T10:48:05Z</time>
      </trkpt>
      <trkpt lat="38.4949814714" lon="-5.1358929835">
        <ele>541.84</ele>
        <time>2021-05-30T10:48:06Z</time>
      </trkpt>
      <trkpt lat="38.4949894343" lon="-5.1357808337">
        <ele>542.32</ele>
        <time>2021-05-30T10:48:07Z</time>
      </trkpt>
      <trkpt lat="38.4950175975" lon="-5.1350142248">
        <ele>542.32</ele>
        <time>2021-05-30T10:48:16Z</time>
      </trkpt>
      <trkpt lat="38.4950423241" lon="-5.1344067045">
        <ele>546.65</ele>
        <time>2021-05-30T10:48:21Z</time>
      </trkpt>
      <trkpt lat="38.4950914420" lon="-5.1338205580">
        <ele>550.97</ele>
        <time>2021-05-30T10:48:24Z</time>
      </trkpt>
      <trkpt lat="38.4951373748" lon="-5.1330624148">
        <ele>552.90</ele>
        <time>2021-05-30T10:48:27Z</time>
      </trkpt>
      <trkpt lat="38.4953486826" lon="-5.1319189556">
        <ele>556.26</ele>
        <time>2021-05-30T10:48:31Z</time>
      </trkpt>
      <trkpt lat="38.4962479770" lon="-5.1284692995">
        <ele>554.34</ele>
        <time>2021-05-30T10:48:42Z</time>
      </trkpt>
      <trkpt lat="38.4964041319" lon="-5.1278274134">
        <ele>552.41</ele>
        <time>2021-05-30T10:48:44Z</time>
      </trkpt>
      <trkpt lat="38.4969245642" lon="-5.1248546038">
        <ele>551.45</ele>
        <time>2021-05-30T10:48:53Z</time>
      </trkpt>
      <trkpt lat="38.4970764443" lon="-5.1242809463">
        <ele>552.90</ele>
        <time>2021-05-30T10:48:55Z</time>
      </trkpt>
      <trkpt lat="38.4971792903" lon="-5.1239996497">
        <ele>552.90</ele>
        <time>2021-05-30T10:48:56Z</time>
      </trkpt>
      <trkpt lat="38.4975225292" lon="-5.1231431030">
        <ele>555.30</ele>
        <time>2021-05-30T10:48:59Z</time>
      </trkpt>
      <trkpt lat="38.4979780018" lon="-5.1219666190">
        <ele>557.22</ele>
        <time>2021-05-30T10:49:03Z</time>
      </trkpt>
      <trkpt lat="38.4982964303" lon="-5.1207268517">
        <ele>558.66</ele>
        <time>2021-05-30T10:49:07Z</time>
      </trkpt>
      <trkpt lat="38.4983772319" lon="-5.1197160780">
        <ele>560.59</ele>
        <time>2021-05-30T10:49:10Z</time>
      </trkpt>
      <trkpt lat="38.4983408544" lon="-5.1156654395">
        <ele>559.14</ele>
        <time>2021-05-30T10:49:21Z</time>
      </trkpt>
      <trkpt lat="38.4983163793" lon="-5.1122201420">
        <ele>558.66</ele>
        <time>2021-05-30T10:49:30Z</time>
      </trkpt>
      <trkpt lat="38.4980836976" lon="-5.1075148769">
        <ele>553.38</ele>
        <time>2021-05-30T10:49:42Z</time>
      </trkpt>
      <trkpt lat="38.4980424587" lon="-5.1067890041">
        <ele>549.53</ele>
        <time>2021-05-30T10:49:44Z</time>
      </trkpt>
      <trkpt lat="38.4980057459" lon="-5.1060856786">
        <ele>546.17</ele>
        <time>2021-05-30T10:49:46Z</time>
      </trkpt>
      <trkpt lat="38.4979938436" lon="-5.1054452173">
        <ele>542.80</ele>
        <time>2021-05-30T10:49:48Z</time>
      </trkpt>
      <trkpt lat="38.4980137926" lon="-5.1051533595">
        <ele>542.32</ele>
        <time>2021-05-30T10:49:49Z</time>
      </trkpt>
      <trkpt lat="38.4980568755" lon="-5.1048722304">
        <ele>539.92</ele>
        <time>2021-05-30T10:49:50Z</time>
      </trkpt>
      <trkpt lat="38.4981292114" lon="-5.1045981422">
        <ele>539.44</ele>
        <time>2021-05-30T10:49:51Z</time>
      </trkpt>
      <trkpt lat="38.4982345719" lon="-5.1043284126">
        <ele>540.88</ele>
        <time>2021-05-30T10:49:52Z</time>
      </trkpt>
      <trkpt lat="38.4983705264" lon="-5.1040647179">
        <ele>541.36</ele>
        <time>2021-05-30T10:49:53Z</time>
      </trkpt>
      <trkpt lat="38.4985328000" lon="-5.1038043760">
        <ele>544.24</ele>
        <time>2021-05-30T10:49:54Z</time>
      </trkpt>
      <trkpt lat="38.4987123404" lon="-5.1035398431">
        <ele>544.24</ele>
        <time>2021-05-30T10:49:55Z</time>
      </trkpt>
      <trkpt lat="38.4996853955" lon="-5.1018917933">
        <ele>542.32</ele>
        <time>2021-05-30T10:50:01Z</time>
      </trkpt>
      <trkpt lat="38.4997800272" lon="-5.1015806571">
        <ele>541.36</ele>
        <time>2021-05-30T10:50:02Z</time>
      </trkpt>
      <trkpt lat="38.4998476692" lon="-5.1012534276">
        <ele>542.32</ele>
        <time>2021-05-30T10:50:03Z</time>
      </trkpt>
      <trkpt lat="38.4998901654" lon="-5.1009082608">
        <ele>543.76</ele>
        <time>2021-05-30T10:50:04Z</time>
      </trkpt>
      <trkpt lat="38.4999111202" lon="-5.1005511079">
        <ele>543.76</ele>
        <time>2021-05-30T10:50:05Z</time>
      </trkpt>
      <trkpt lat="38.4999200888" lon="-5.1001860760">
        <ele>544.72</ele>
        <time>2021-05-30T10:50:06Z</time>
      </trkpt>
      <trkpt lat="38.4999244474" lon="-5.0998172723">
        <ele>545.20</ele>
        <time>2021-05-30T10:50:07Z</time>
      </trkpt>
      <trkpt lat="38.4998101182" lon="-5.0983884092">
        <ele>542.80</ele>
        <time>2021-05-30T10:50:11Z</time>
      </trkpt>
      <trkpt lat="38.4996226989" lon="-5.0973187946">
        <ele>546.17</ele>
        <time>2021-05-30T10:50:14Z</time>
      </trkpt>
      <trkpt lat="38.4994116426" lon="-5.0962542929">
        <ele>541.84</ele>
        <time>2021-05-30T10:50:17Z</time>
      </trkpt>
      <trkpt lat="38.4993073717" lon="-5.0959162507">
        <ele>542.32</ele>
        <time>2021-05-30T10:50:18Z</time>
      </trkpt>
      <trkpt lat="38.4990435932" lon="-5.0952633843">
        <ele>544.24</ele>
        <time>2021-05-30T10:50:20Z</time>
      </trkpt>
      <trkpt lat="38.4983301256" lon="-5.0929051358">
        <ele>546.17</ele>
        <time>2021-05-30T10:50:27Z</time>
      </trkpt>
      <trkpt lat="38.4982892219" lon="-5.0925282016">
        <ele>545.69</ele>
        <time>2021-05-30T10:50:28Z</time>
      </trkpt>
      <trkpt lat="38.4982565325" lon="-5.0921454001">
        <ele>550.01</ele>
        <time>2021-05-30T10:50:29Z</time>
      </trkpt>
      <trkpt lat="38.4982276149" lon="-5.0917569827">
        <ele>548.57</ele>
        <time>2021-05-30T10:50:30Z</time>
      </trkpt>
      <trkpt lat="38.4981680196" lon="-5.0909722690">
        <ele>547.61</ele>
        <time>2021-05-30T10:50:32Z</time>
      </trkpt>
      <trkpt lat="38.4981287085" lon="-5.0875139795">
        <ele>545.69</ele>
        <time>2021-05-30T10:50:41Z</time>
      </trkpt>
      <trkpt lat="38.4983896371" lon="-5.0860427879">
        <ele>542.32</ele>
        <time>2021-05-30T10:50:45Z</time>
      </trkpt>
      <trkpt lat="38.4984197281" lon="-5.0856952742">
        <ele>540.88</ele>
        <time>2021-05-30T10:50:46Z</time>
      </trkpt>
      <trkpt lat="38.4984242544" lon="-5.0853529572">
        <ele>539.92</ele>
        <time>2021-05-30T10:50:47Z</time>
      </trkpt>
      <trkpt lat="38.4984011203" lon="-5.0850060303">
        <ele>541.36</ele>
        <time>2021-05-30T10:50:48Z</time>
      </trkpt>
      <trkpt lat="38.4983544331" lon="-5.0846554991">
        <ele>542.80</ele>
        <time>2021-05-30T10:50:49Z</time>
      </trkpt>
      <trkpt lat="38.4982903115" lon="-5.0843048003">
        <ele>544.72</ele>
        <time>2021-05-30T10:50:50Z</time>
      </trkpt>
      <trkpt lat="38.4980753157" lon="-5.0832481775">
        <ele>547.13</ele>
        <time>2021-05-30T10:50:53Z</time>
      </trkpt>
      <trkpt lat="38.4979523532" lon="-5.0825230591">
        <ele>549.53</ele>
        <time>2021-05-30T10:50:55Z</time>
      </trkpt>
      <trkpt lat="38.4977872297" lon="-5.0810097903">
        <ele>552.41</ele>
        <time>2021-05-30T10:50:59Z</time>
      </trkpt>
      <trkpt lat="38.4976775106" lon="-5.0798548479">
        <ele>550.49</ele>
        <time>2021-05-30T10:51:02Z</time>
      </trkpt>
      <trkpt lat="38.4975604992" lon="-5.0786989834">
        <ele>547.13</ele>
        <time>2021-05-30T10:51:05Z</time>
      </trkpt>
      <trkpt lat="38.4972381312" lon="-5.0771971140">
        <ele>542.80</ele>
        <time>2021-05-30T10:51:09Z</time>
      </trkpt>
      <trkpt lat="38.4967684094" lon="-5.0757642277">
        <ele>542.32</ele>
        <time>2021-05-30T10:51:13Z</time>
      </trkpt>
      <trkpt lat="38.4965171199" lon="-5.0747421384">
        <ele>544.72</ele>
        <time>2021-05-30T10:51:16Z</time>
      </trkpt>
      <trkpt lat="38.4964773059" lon="-5.0743889250">
        <ele>544.24</ele>
        <time>2021-05-30T10:51:17Z</time>
      </trkpt>
      <trkpt lat="38.4964568540" lon="-5.0740249828">
        <ele>546.17</ele>
        <time>2021-05-30T10:51:18Z</time>
      </trkpt>
      <trkpt lat="38.4964283556" lon="-5.0728791766">
        <ele>548.57</ele>
        <time>2021-05-30T10:51:21Z</time>
      </trkpt>
      <trkpt lat="38.4964344744" lon="-5.0697412435">
        <ele>545.69</ele>
        <time>2021-05-30T10:51:29Z</time>
      </trkpt>
      <trkpt lat="38.4964875318" lon="-5.0693531614">
        <ele>545.20</ele>
        <time>2021-05-30T10:51:30Z</time>
      </trkpt>
      <trkpt lat="38.4968128335" lon="-5.0675678998">
        <ele>541.84</ele>
        <time>2021-05-30T10:51:35Z</time>
      </trkpt>
      <trkpt lat="38.4968603589" lon="-5.0669195596">
        <ele>538.96</ele>
        <time>2021-05-30T10:51:37Z</time>
      </trkpt>
      <trkpt lat="38.4968418349" lon="-5.0665954314">
        <ele>538.96</ele>
        <time>2021-05-30T10:51:38Z</time>
      </trkpt>
      <trkpt lat="38.4967940580" lon="-5.0662676152">
        <ele>539.44</ele>
        <time>2021-05-30T10:51:39Z</time>
      </trkpt>
      <trkpt lat="38.4967201296" lon="-5.0659355242">
        <ele>539.92</ele>
        <time>2021-05-30T10:51:40Z</time>
      </trkpt>
      <trkpt lat="38.4966280125" lon="-5.0655958895">
        <ele>543.28</ele>
        <time>2021-05-30T10:51:41Z</time>
      </trkpt>
      <trkpt lat="38.4955937695" lon="-5.0618602429">
        <ele>543.76</ele>
        <time>2021-05-30T10:51:51Z</time>
      </trkpt>
      <trkpt lat="38.4955060109" lon="-5.0614731666">
        <ele>543.76</ele>
        <time>2021-05-30T10:51:52Z</time>
      </trkpt>
      <trkpt lat="38.4951053560" lon="-5.0595465861">
        <ele>548.09</ele>
        <time>2021-05-30T10:51:57Z</time>
      </trkpt>
      <trkpt lat="38.4948670585" lon="-5.0584001094">
        <ele>552.41</ele>
        <time>2021-05-30T10:52:00Z</time>
      </trkpt>
      <trkpt lat="38.4947872628" lon="-5.0580255222">
        <ele>552.41</ele>
        <time>2021-05-30T10:52:01Z</time>
      </trkpt>
      <trkpt lat="38.4944694210" lon="-5.0565029494">
        <ele>556.26</ele>
        <time>2021-05-30T10:52:05Z</time>
      </trkpt>
      <trkpt lat="38.4943892062" lon="-5.0561165437">
        <ele>556.26</ele>
        <time>2021-05-30T10:52:06Z</time>
      </trkpt>
      <trkpt lat="38.4938113578" lon="-5.0534333289">
        <ele>552.41</ele>
        <time>2021-05-30T10:52:13Z</time>
      </trkpt>
      <trkpt lat="38.4935505129" lon="-5.0523943081">
        <ele>547.61</ele>
        <time>2021-05-30T10:52:16Z</time>
      </trkpt>
      <trkpt lat="38.4934190847" lon="-5.0517726224">
        <ele>545.69</ele>
        <time>2021-05-30T10:52:18Z</time>
      </trkpt>
      <trkpt lat="38.4933843836" lon="-5.0514605641">
        <ele>546.65</ele>
        <time>2021-05-30T10:52:19Z</time>
      </trkpt>
      <trkpt lat="38.4933771752" lon="-5.0511439797">
        <ele>547.13</ele>
        <time>2021-05-30T10:52:20Z</time>
      </trkpt>
      <trkpt lat="38.4933958668" lon="-5.0508324243">
        <ele>545.69</ele>
        <time>2021-05-30T10:52:21Z</time>
      </trkpt>
      <trkpt lat="38.4934324957" lon="-5.0505270716">
        <ele>544.24</ele>
        <time>2021-05-30T10:52:22Z</time>
      </trkpt>
      <trkpt lat="38.4934727289" lon="-5.0502275862">
        <ele>542.32</ele>
        <time>2021-05-30T10:52:23Z</time>
      </trkpt>
      <trkpt lat="38.4934996348" lon="-5.0499232393">
        <ele>542.80</ele>
        <time>2021-05-30T10:52:24Z</time>
      </trkpt>
      <trkpt lat="38.4935048316" lon="-5.0496115163">
        <ele>544.24</ele>
        <time>2021-05-30T10:52:25Z</time>
      </trkpt>
      <trkpt lat="38.4934856370" lon="-5.0492961891">
        <ele>545.69</ele>
        <time>2021-05-30T10:52:26Z</time>
      </trkpt>
      <trkpt lat="38.4934434760" lon="-5.0489783473">
        <ele>545.69</ele>
        <time>2021-05-30T10:52:27Z</time>
      </trkpt>
      <trkpt lat="38.4933831263" lon="-5.0486596674">
        <ele>545.69</ele>
        <time>2021-05-30T10:52:28Z</time>
      </trkpt>
      <trkpt lat="38.4933096170" lon="-5.0483401492">
        <ele>546.65</ele>
        <time>2021-05-30T10:52:29Z</time>
      </trkpt>
      <trkpt lat="38.4930865746" lon="-5.0473667588">
        <ele>549.05</ele>
        <time>2021-05-30T10:52:32Z</time>
      </trkpt>
      <trkpt lat="38.4930060245" lon="-5.0456516538">
        <ele>553.38</ele>
        <time>2021-05-30T10:52:37Z</time>
      </trkpt>
      <trkpt lat="38.4932354372" lon="-5.0441932864">
        <ele>558.66</ele>
        <time>2021-05-30T10:52:41Z</time>
      </trkpt>
      <trkpt lat="38.4934278019" lon="-5.0431434531">
        <ele>554.82</ele>
        <time>2021-05-30T10:52:44Z</time>
      </trkpt>
      <trkpt lat="38.4934839606" lon="-5.0428226776">
        <ele>555.78</ele>
        <time>2021-05-30T10:52:45Z</time>
      </trkpt>
      <trkpt lat="38.4935530275" lon="-5.0421943702">
        <ele>556.74</ele>
        <time>2021-05-30T10:52:47Z</time>
      </trkpt>
      <trkpt lat="38.4935527761" lon="-5.0418770313">
        <ele>557.70</ele>
        <time>2021-05-30T10:52:48Z</time>
      </trkpt>
      <trkpt lat="38.4935242776" lon="-5.0415622070">
        <ele>557.70</ele>
        <time>2021-05-30T10:52:49Z</time>
      </trkpt>
      <trkpt lat="38.4934687056" lon="-5.0412461255">
        <ele>558.18</ele>
        <time>2021-05-30T10:52:50Z</time>
      </trkpt>
      <trkpt lat="38.4933895804" lon="-5.0409297086">
        <ele>559.62</ele>
        <time>2021-05-30T10:52:51Z</time>
      </trkpt>
      <trkpt lat="38.4933014866" lon="-5.0406132918">
        <ele>559.14</ele>
        <time>2021-05-30T10:52:52Z</time>
      </trkpt>
      <trkpt lat="38.4931713156" lon="-5.0399602577">
        <ele>556.26</ele>
        <time>2021-05-30T10:52:54Z</time>
      </trkpt>
      <trkpt lat="38.4931486845" lon="-5.0396290887">
        <ele>556.74</ele>
        <time>2021-05-30T10:52:55Z</time>
      </trkpt>
      <trkpt lat="38.4931594972" lon="-5.0392953213">
        <ele>555.30</ele>
        <time>2021-05-30T10:52:56Z</time>
      </trkpt>
      <trkpt lat="38.4932025801" lon="-5.0389582850">
        <ele>551.45</ele>
        <time>2021-05-30T10:52:57Z</time>
      </trkpt>
      <trkpt lat="38.4932710603" lon="-5.0386182312">
        <ele>550.01</ele>
        <time>2021-05-30T10:52:58Z</time>
      </trkpt>
      <trkpt lat="38.4933562204" lon="-5.0382786803">
        <ele>552.41</ele>
        <time>2021-05-30T10:52:59Z</time>
      </trkpt>
      <trkpt lat="38.4935363475" lon="-5.0375965610">
        <ele>547.61</ele>
        <time>2021-05-30T10:53:01Z</time>
      </trkpt>
      <trkpt lat="38.4936252795" lon="-5.0372676551">
        <ele>548.09</ele>
        <time>2021-05-30T10:53:02Z</time>
      </trkpt>
      <trkpt lat="38.4937805124" lon="-5.0366323907">
        <ele>543.76</ele>
        <time>2021-05-30T10:53:04Z</time>
      </trkpt>
      <trkpt lat="38.4938271996" lon="-5.0363009702">
        <ele>543.28</ele>
        <time>2021-05-30T10:53:05Z</time>
      </trkpt>
      <trkpt lat="38.4938432090" lon="-5.0359537918">
        <ele>542.32</ele>
        <time>2021-05-30T10:53:06Z</time>
      </trkpt>
      <trkpt lat="38.4938362520" lon="-5.0355935376">
        <ele>542.32</ele>
        <time>2021-05-30T10:53:07Z</time>
      </trkpt>
      <trkpt lat="38.4937964380" lon="-5.0340974517">
        <ele>545.69</ele>
        <time>2021-05-30T10:53:11Z</time>
      </trkpt>
      <trkpt lat="38.4938116930" lon="-5.0337200984">
        <ele>544.72</ele>
        <time>2021-05-30T10:53:12Z</time>
      </trkpt>
      <trkpt lat="38.4938434605" lon="-5.0329806469">
        <ele>540.40</ele>
        <time>2021-05-30T10:53:14Z</time>
      </trkpt>
      <trkpt lat="38.4938391857" lon="-5.0326123461">
        <ele>540.40</ele>
        <time>2021-05-30T10:53:15Z</time>
      </trkpt>
      <trkpt lat="38.4935948532" lon="-5.0296631735">
        <ele>535.59</ele>
        <time>2021-05-30T10:53:23Z</time>
      </trkpt>
      <trkpt lat="38.4935036581" lon="-5.0289726723">
        <ele>532.71</ele>
        <time>2021-05-30T10:53:25Z</time>
      </trkpt>
      <trkpt lat="38.4929513745" lon="-5.0273090322">
        <ele>529.34</ele>
        <time>2021-05-30T10:53:30Z</time>
      </trkpt>
      <trkpt lat="38.4926258214" lon="-5.0263553392">
        <ele>525.02</ele>
        <time>2021-05-30T10:53:33Z</time>
      </trkpt>
      <trkpt lat="38.4925561678" lon="-5.0260070711">
        <ele>525.98</ele>
        <time>2021-05-30T10:53:34Z</time>
      </trkpt>
      <trkpt lat="38.4925066307" lon="-5.0256458111">
        <ele>525.50</ele>
        <time>2021-05-30T10:53:35Z</time>
      </trkpt>
      <trkpt lat="38.4924777970" lon="-5.0252787676">
        <ele>521.65</ele>
        <time>2021-05-30T10:53:36Z</time>
      </trkpt>
      <trkpt lat="38.4924720135" lon="-5.0249120593">
        <ele>521.65</ele>
        <time>2021-05-30T10:53:37Z</time>
      </trkpt>
      <trkpt lat="38.4924866818" lon="-5.0245556608">
        <ele>518.29</ele>
        <time>2021-05-30T10:53:38Z</time>
      </trkpt>
      <trkpt lat="38.4924893640" lon="-5.0235002115">
        <ele>515.40</ele>
        <time>2021-05-30T10:53:41Z</time>
      </trkpt>
      <trkpt lat="38.4922389966" lon="-5.0217298698">
        <ele>513.00</ele>
        <time>2021-05-30T10:53:46Z</time>
      </trkpt>
      <trkpt lat="38.4921771381" lon="-5.0206286553">
        <ele>510.60</ele>
        <time>2021-05-30T10:53:49Z</time>
      </trkpt>
      <trkpt lat="38.4921528306" lon="-5.0198859349">
        <ele>508.19</ele>
        <time>2021-05-30T10:53:51Z</time>
      </trkpt>
      <trkpt lat="38.4921284392" lon="-5.0191262830">
        <ele>504.83</ele>
        <time>2021-05-30T10:53:53Z</time>
      </trkpt>
      <trkpt lat="38.4921143577" lon="-5.0187452417">
        <ele>500.98</ele>
        <time>2021-05-30T10:53:54Z</time>
      </trkpt>
      <trkpt lat="38.4920831770" lon="-5.0179808121">
        <ele>497.14</ele>
        <time>2021-05-30T10:53:56Z</time>
      </trkpt>
      <trkpt lat="38.4920550976" lon="-5.0172125269">
        <ele>496.18</ele>
        <time>2021-05-30T10:53:58Z</time>
      </trkpt>
      <trkpt lat="38.4920187201" lon="-5.0164449122">
        <ele>497.14</ele>
        <time>2021-05-30T10:54:00Z</time>
      </trkpt>
      <trkpt lat="38.4918791614" lon="-5.0145917572">
        <ele>493.29</ele>
        <time>2021-05-30T10:54:05Z</time>
      </trkpt>
      <trkpt lat="38.4918028023" lon="-5.0136002619">
        <ele>489.93</ele>
        <time>2021-05-30T10:54:08Z</time>
      </trkpt>
      <trkpt lat="38.4917095117" lon="-5.0129499938">
        <ele>490.41</ele>
        <time>2021-05-30T10:54:10Z</time>
      </trkpt>
      <trkpt lat="38.4916251060" lon="-5.0126266200">
        <ele>490.41</ele>
        <time>2021-05-30T10:54:11Z</time>
      </trkpt>
      <trkpt lat="38.4915153030" lon="-5.0123081915">
        <ele>490.41</ele>
        <time>2021-05-30T10:54:12Z</time>
      </trkpt>
      <trkpt lat="38.4911289811" lon="-5.0113553368">
        <ele>493.29</ele>
        <time>2021-05-30T10:54:15Z</time>
      </trkpt>
      <trkpt lat="38.4908156656" lon="-5.0103669427">
        <ele>496.66</ele>
        <time>2021-05-30T10:54:18Z</time>
      </trkpt>
      <trkpt lat="38.4906033520" lon="-5.0092903711">
        <ele>501.46</ele>
        <time>2021-05-30T10:54:21Z</time>
      </trkpt>
      <trkpt lat="38.4904663917" lon="-5.0085650850">
        <ele>504.83</ele>
        <time>2021-05-30T10:54:23Z</time>
      </trkpt>
      <trkpt lat="38.4902098216" lon="-5.0065112673">
        <ele>506.75</ele>
        <time>2021-05-30T10:54:29Z</time>
      </trkpt>
      <trkpt lat="38.4901874419" lon="-5.0058532041">
        <ele>504.83</ele>
        <time>2021-05-30T10:54:31Z</time>
      </trkpt>
      <trkpt lat="38.4901441075" lon="-5.0055338535">
        <ele>505.79</ele>
        <time>2021-05-30T10:54:32Z</time>
      </trkpt>
      <trkpt lat="38.4900737833" lon="-5.0052251481">
        <ele>508.19</ele>
        <time>2021-05-30T10:54:33Z</time>
      </trkpt>
      <trkpt lat="38.4899758827" lon="-5.0049358886">
        <ele>510.12</ele>
        <time>2021-05-30T10:54:34Z</time>
      </trkpt>
      <trkpt lat="38.4898507409" lon="-5.0046675000">
        <ele>508.67</ele>
        <time>2021-05-30T10:54:35Z</time>
      </trkpt>
      <trkpt lat="38.4896984417" lon="-5.0044126064">
        <ele>510.60</ele>
        <time>2021-05-30T10:54:36Z</time>
      </trkpt>
      <trkpt lat="38.4895209130" lon="-5.0041757338">
        <ele>511.56</ele>
        <time>2021-05-30T10:54:37Z</time>
      </trkpt>
      <trkpt lat="38.4893174004" lon="-5.0039583910">
        <ele>513.00</ele>
        <time>2021-05-30T10:54:38Z</time>
      </trkpt>
      <trkpt lat="38.4890894964" lon="-5.0037566386">
        <ele>515.40</ele>
        <time>2021-05-30T10:54:39Z</time>
      </trkpt>
      <trkpt lat="38.4888454154" lon="-5.0035667885">
        <ele>517.81</ele>
        <time>2021-05-30T10:54:40Z</time>
      </trkpt>
      <trkpt lat="38.4885942936" lon="-5.0033817161">
        <ele>517.33</ele>
        <time>2021-05-30T10:54:41Z</time>
      </trkpt>
      <trkpt lat="38.4876602981" lon="-5.0026211422">
        <ele>516.85</ele>
        <time>2021-05-30T10:54:45Z</time>
      </trkpt>
      <trkpt lat="38.4874541033" lon="-5.0023839343">
        <ele>518.29</ele>
        <time>2021-05-30T10:54:46Z</time>
      </trkpt>
      <trkpt lat="38.4872574639" lon="-5.0021214969">
        <ele>518.29</ele>
        <time>2021-05-30T10:54:47Z</time>
      </trkpt>
      <trkpt lat="38.4861538187" lon="-5.0000910647">
        <ele>520.21</ele>
        <time>2021-05-30T10:54:54Z</time>
      </trkpt>
      <trkpt lat="38.4860587679" lon="-4.9997474905">
        <ele>522.13</ele>
        <time>2021-05-30T10:54:55Z</time>
      </trkpt>
      <trkpt lat="38.4859008528" lon="-4.9990180135">
        <ele>526.46</ele>
        <time>2021-05-30T10:54:57Z</time>
      </trkpt>
      <trkpt lat="38.4855488967" lon="-4.9972863123">
        <ele>522.13</ele>
        <time>2021-05-30T10:55:02Z</time>
      </trkpt>
      <trkpt lat="38.4854368307" lon="-4.9969666265">
        <ele>523.58</ele>
        <time>2021-05-30T10:55:03Z</time>
      </trkpt>
      <trkpt lat="38.4853042290" lon="-4.9966559932">
        <ele>524.54</ele>
        <time>2021-05-30T10:55:04Z</time>
      </trkpt>
      <trkpt lat="38.4848284721" lon="-4.9955614004">
        <ele>524.06</ele>
        <time>2021-05-30T10:55:08Z</time>
      </trkpt>
      <trkpt lat="38.4847629257" lon="-4.9952785112">
        <ele>525.02</ele>
        <time>2021-05-30T10:55:09Z</time>
      </trkpt>
      <trkpt lat="38.4847240336" lon="-4.9949848093">
        <ele>525.50</ele>
        <time>2021-05-30T10:55:10Z</time>
      </trkpt>
      <trkpt lat="38.4847125504" lon="-4.9946815521">
        <ele>526.46</ele>
        <time>2021-05-30T10:55:11Z</time>
      </trkpt>
      <trkpt lat="38.4847319126" lon="-4.9943665601">
        <ele>528.38</ele>
        <time>2021-05-30T10:55:12Z</time>
      </trkpt>
      <trkpt lat="38.4847727325" lon="-4.9940400850">
        <ele>530.30</ele>
        <time>2021-05-30T10:55:13Z</time>
      </trkpt>
      <trkpt lat="38.4848247003" lon="-4.9937108438">
        <ele>530.30</ele>
        <time>2021-05-30T10:55:14Z</time>
      </trkpt>
      <trkpt lat="38.4849479143" lon="-4.9923075456">
        <ele>534.15</ele>
        <time>2021-05-30T10:55:18Z</time>
      </trkpt>
      <trkpt lat="38.4849794302" lon="-4.9915634841">
        <ele>539.44</ele>
        <time>2021-05-30T10:55:20Z</time>
      </trkpt>
      <trkpt lat="38.4849950206" lon="-4.9911976978">
        <ele>539.44</ele>
        <time>2021-05-30T10:55:21Z</time>
      </trkpt>
      <trkpt lat="38.4850883950" lon="-4.9896872789">
        <ele>542.32</ele>
        <time>2021-05-30T10:55:25Z</time>
      </trkpt>
      <trkpt lat="38.4851423744" lon="-4.9889166467">
        <ele>545.20</ele>
        <time>2021-05-30T10:55:27Z</time>
      </trkpt>
      <trkpt lat="38.4851642512" lon="-4.9885402154">
        <ele>545.20</ele>
        <time>2021-05-30T10:55:28Z</time>
      </trkpt>
      <trkpt lat="38.4851424582" lon="-4.9874408450">
        <ele>547.13</ele>
        <time>2021-05-30T10:55:31Z</time>
      </trkpt>
      <trkpt lat="38.4850872215" lon="-4.9870779924">
        <ele>547.61</ele>
        <time>2021-05-30T10:55:32Z</time>
      </trkpt>
      <trkpt lat="38.4850131255" lon="-4.9867195822">
        <ele>548.57</ele>
        <time>2021-05-30T10:55:33Z</time>
      </trkpt>
      <trkpt lat="38.4847247042" lon="-4.9853057228">
        <ele>552.90</ele>
        <time>2021-05-30T10:55:37Z</time>
      </trkpt>
      <trkpt lat="38.4846845549" lon="-4.9849362485">
        <ele>552.41</ele>
        <time>2021-05-30T10:55:38Z</time>
      </trkpt>
      <trkpt lat="38.4844960459" lon="-4.9830446206">
        <ele>555.30</ele>
        <time>2021-05-30T10:55:43Z</time>
      </trkpt>
      <trkpt lat="38.4843294136" lon="-4.9814869277">
        <ele>551.93</ele>
        <time>2021-05-30T10:55:47Z</time>
      </trkpt>
      <trkpt lat="38.4837470390" lon="-4.9781004712">
        <ele>546.65</ele>
        <time>2021-05-30T10:55:56Z</time>
      </trkpt>
      <trkpt lat="38.4837143496" lon="-4.9777688831">
        <ele>545.20</ele>
        <time>2021-05-30T10:55:57Z</time>
      </trkpt>
      <trkpt lat="38.4837099072" lon="-4.9774408992">
        <ele>545.69</ele>
        <time>2021-05-30T10:55:58Z</time>
      </trkpt>
      <trkpt lat="38.4837365616" lon="-4.9771124963">
        <ele>547.61</ele>
        <time>2021-05-30T10:55:59Z</time>
      </trkpt>
      <trkpt lat="38.4838353842" lon="-4.9764359090">
        <ele>551.93</ele>
        <time>2021-05-30T10:56:01Z</time>
      </trkpt>
      <trkpt lat="38.4838807303" lon="-4.9760921672">
        <ele>551.93</ele>
        <time>2021-05-30T10:56:02Z</time>
      </trkpt>
      <trkpt lat="38.4838928003" lon="-4.9737126287">
        <ele>552.41</ele>
        <time>2021-05-30T10:56:09Z</time>
      </trkpt>
      <trkpt lat="38.4838661458" lon="-4.9728114065">
        <ele>549.53</ele>
        <time>2021-05-30T10:56:12Z</time>
      </trkpt>
      <trkpt lat="38.4839052055" lon="-4.9724930618">
        <ele>549.53</ele>
        <time>2021-05-30T10:56:13Z</time>
      </trkpt>
      <trkpt lat="38.4846375324" lon="-4.9680628907">
        <ele>548.09</ele>
        <time>2021-05-30T10:56:27Z</time>
      </trkpt>
      <trkpt lat="38.4848756623" lon="-4.9668226205">
        <ele>544.72</ele>
        <time>2021-05-30T10:56:32Z</time>
      </trkpt>
      <trkpt lat="38.4849542845" lon="-4.9661495537">
        <ele>545.20</ele>
        <time>2021-05-30T10:56:35Z</time>
      </trkpt>
      <trkpt lat="38.4849493392" lon="-4.9659302831">
        <ele>544.24</ele>
        <time>2021-05-30T10:56:36Z</time>
      </trkpt>
      <trkpt lat="38.4849271271" lon="-4.9657255970">
        <ele>544.24</ele>
        <time>2021-05-30T10:56:37Z</time>
      </trkpt>
      <trkpt lat="38.4848924261" lon="-4.9655443802">
        <ele>544.24</ele>
        <time>2021-05-30T10:56:38Z</time>
      </trkpt>
      <trkpt lat="38.4848537855" lon="-4.9653788377">
        <ele>544.24</ele>
        <time>2021-05-30T10:56:39Z</time>
      </trkpt>
      <trkpt lat="38.4846276417" lon="-4.9645118974">
        <ele>546.65</ele>
        <time>2021-05-30T10:56:46Z</time>
      </trkpt>
      <trkpt lat="38.4845339321" lon="-4.9641034473">
        <ele>549.53</ele>
        <time>2021-05-30T10:56:49Z</time>
      </trkpt>
      <trkpt lat="38.4842693992" lon="-4.9629804399">
        <ele>550.97</ele>
        <time>2021-05-30T10:56:59Z</time>
      </trkpt>
      <trkpt lat="38.4841022640" lon="-4.9623419065">
        <ele>553.86</ele>
        <time>2021-05-30T10:57:05Z</time>
      </trkpt>
      <trkpt lat="38.4840051178" lon="-4.9619803950">
        <ele>555.30</ele>
        <time>2021-05-30T10:57:09Z</time>
      </trkpt>
      <trkpt lat="38.4839797206" lon="-4.9619350489">
        <ele>554.82</ele>
        <time>2021-05-30T10:57:10Z</time>
      </trkpt>
      <trkpt lat="38.4839468636" lon="-4.9619079754">
        <ele>555.30</ele>
        <time>2021-05-30T10:57:11Z</time>
      </trkpt>
      <trkpt lat="38.4839064628" lon="-4.9618815724">
        <ele>555.78</ele>
        <time>2021-05-30T10:57:12Z</time>
      </trkpt>
      <trkpt lat="38.4838664811" lon="-4.9618301075">
        <ele>556.26</ele>
        <time>2021-05-30T10:57:13Z</time>
      </trkpt>
      <trkpt lat="38.4838329535" lon="-4.9617495574">
        <ele>557.22</ele>
        <time>2021-05-30T10:57:14Z</time>
      </trkpt>
      <trkpt lat="38.4838042874" lon="-4.9616512377">
        <ele>556.74</ele>
        <time>2021-05-30T10:57:15Z</time>
      </trkpt>
      <trkpt lat="38.4837766271" lon="-4.9615434464">
        <ele>557.70</ele>
        <time>2021-05-30T10:57:16Z</time>
      </trkpt>
      <trkpt lat="38.4836838394" lon="-4.9604295753">
        <ele>557.70</ele>
        <time>2021-05-30T10:57:25Z</time>
      </trkpt>
      <trkpt lat="38.4836607054" lon="-4.9601941276">
        <ele>557.22</ele>
        <time>2021-05-30T10:57:27Z</time>
      </trkpt>
      <trkpt lat="38.4836329613" lon="-4.9600765295">
        <ele>557.70</ele>
        <time>2021-05-30T10:57:28Z</time>
      </trkpt>
      <trkpt lat="38.4835956618" lon="-4.9599570874">
        <ele>557.70</ele>
        <time>2021-05-30T10:57:29Z</time>
      </trkpt>
      <trkpt lat="38.4834783152" lon="-4.9596322887">
        <ele>557.70</ele>
        <time>2021-05-30T10:57:32Z</time>
      </trkpt>
      <trkpt lat="38.4834375791" lon="-4.9595575221">
        <ele>557.22</ele>
        <time>2021-05-30T10:57:33Z</time>
      </trkpt>
      <trkpt lat="38.4833999444" lon="-4.9594961666">
        <ele>556.74</ele>
        <time>2021-05-30T10:57:34Z</time>
      </trkpt>
      <trkpt lat="38.4833624773" lon="-4.9594444502">
        <ele>556.74</ele>
        <time>2021-05-30T10:57:35Z</time>
      </trkpt>
      <trkpt lat="38.4833209869" lon="-4.9594041333">
        <ele>556.74</ele>
        <time>2021-05-30T10:57:36Z</time>
      </trkpt>
      <trkpt lat="38.4832682647" lon="-4.9593816698">
        <ele>556.74</ele>
        <time>2021-05-30T10:57:37Z</time>
      </trkpt>
      <trkpt lat="38.4832035564" lon="-4.9593771435">
        <ele>556.26</ele>
        <time>2021-05-30T10:57:38Z</time>
      </trkpt>
      <trkpt lat="38.4831292089" lon="-4.9593779817">
        <ele>557.22</ele>
        <time>2021-05-30T10:57:39Z</time>
      </trkpt>
      <trkpt lat="38.4823558945" lon="-4.9593412690">
        <ele>558.18</ele>
        <time>2021-05-30T10:57:48Z</time>
      </trkpt>
      <trkpt lat="38.4816496354" lon="-4.9594190530">
        <ele>560.11</ele>
        <time>2021-05-30T10:57:55Z</time>
      </trkpt>
      <trkpt lat="38.4815536626" lon="-4.9594522454">
        <ele>559.14</ele>
        <time>2021-05-30T10:57:56Z</time>
      </trkpt>
      <trkpt lat="38.4814606234" lon="-4.9595060572">
        <ele>559.62</ele>
        <time>2021-05-30T10:57:57Z</time>
      </trkpt>
      <trkpt lat="38.4813662432" lon="-4.9595743697">
        <ele>559.62</ele>
        <time>2021-05-30T10:57:58Z</time>
      </trkpt>
      <trkpt lat="38.4812680073" lon="-4.9596505612">
        <ele>559.62</ele>
        <time>2021-05-30T10:57:59Z</time>
      </trkpt>
      <trkpt lat="38.4809433762" lon="-4.9598978274">
        <ele>562.03</ele>
        <time>2021-05-30T10:58:02Z</time>
      </trkpt>
      <trkpt lat="38.4803884104" lon="-4.9602839816">
        <ele>560.11</ele>
        <time>2021-05-30T10:58:08Z</time>
      </trkpt>
      <trkpt lat="38.4803159069" lon="-4.9602983985">
        <ele>559.62</ele>
        <time>2021-05-30T10:58:09Z</time>
      </trkpt>
      <trkpt lat="38.4802438226" lon="-4.9602868315">
        <ele>559.14</ele>
        <time>2021-05-30T10:58:10Z</time>
      </trkpt>
      <trkpt lat="38.4801769350" lon="-4.9602508731">
        <ele>558.66</ele>
        <time>2021-05-30T10:58:11Z</time>
      </trkpt>
      <trkpt lat="38.4801262245" lon="-4.9601881765">
        <ele>558.66</ele>
        <time>2021-05-30T10:58:12Z</time>
      </trkpt>
      <trkpt lat="38.4800934512" lon="-4.9601047765">
        <ele>558.66</ele>
        <time>2021-05-30T10:58:13Z</time>
      </trkpt>
      <trkpt lat="38.4800771065" lon="-4.9600067921">
        <ele>558.66</ele>
        <time>2021-05-30T10:58:14Z</time>
      </trkpt>
      <trkpt lat="38.4800712392" lon="-4.9598976597">
        <ele>558.18</ele>
        <time>2021-05-30T10:58:15Z</time>
      </trkpt>
      <trkpt lat="38.4800663777" lon="-4.9597795587">
        <ele>558.18</ele>
        <time>2021-05-30T10:58:16Z</time>
      </trkpt>
      <trkpt lat="38.4799984004" lon="-4.9585544597">
        <ele>558.66</ele>
        <time>2021-05-30T10:58:26Z</time>
      </trkpt>
      <trkpt lat="38.4797976539" lon="-4.9577467795">
        <ele>558.18</ele>
        <time>2021-05-30T10:58:34Z</time>
      </trkpt>
      <trkpt lat="38.4797213785" lon="-4.9575590249">
        <ele>557.22</ele>
        <time>2021-05-30T10:58:43Z</time>
      </trkpt>
      <trkpt lat="38.4797325265" lon="-4.9573840108">
        <ele>558.66</ele>
        <time>2021-05-30T10:58:54Z</time>
      </trkpt>
      <trkpt lat="38.4797484521" lon="-4.9573199730">
        <ele>557.70</ele>
        <time>2021-05-30T10:59:08Z</time>
      </trkpt>
      <trkpt lat="38.4797478653" lon="-4.9573574401">
        <ele>557.22</ele>
        <time>2021-05-30T10:59:17Z</time>
      </trkpt>
      <trkpt lat="38.4797807224" lon="-4.9574960768">
        <ele>557.22</ele>
        <time>2021-05-30T10:59:35Z</time>
      </trkpt>
      <trkpt lat="38.4797722567" lon="-4.9574881140">
        <ele>558.18</ele>
        <time>2021-05-30T11:00:14Z</time>
      </trkpt>
      <trkpt lat="38.4797678981" lon="-4.9574555922">
        <ele>558.66</ele>
        <time>2021-05-30T11:00:15Z</time>
      </trkpt>
      <trkpt lat="38.4797416627" lon="-4.9571981002">
        <ele>559.62</ele>
        <time>2021-05-30T11:00:18Z</time>
      </trkpt>
      <trkpt lat="38.4797264077" lon="-4.9568019714">
        <ele>563.47</ele>
        <time>2021-05-30T11:00:21Z</time>
      </trkpt>
      <trkpt lat="38.4796748590" lon="-4.9561847281">
        <ele>566.35</ele>
        <time>2021-05-30T11:00:25Z</time>
      </trkpt>
      <trkpt lat="38.4796447679" lon="-4.9560598377">
        <ele>565.87</ele>
        <time>2021-05-30T11:00:26Z</time>
      </trkpt>
      <trkpt lat="38.4795973264" lon="-4.9559414852">
        <ele>565.87</ele>
        <time>2021-05-30T11:00:27Z</time>
      </trkpt>
      <trkpt lat="38.4795374796" lon="-4.9558259826">
        <ele>566.35</ele>
        <time>2021-05-30T11:00:28Z</time>
      </trkpt>
      <trkpt lat="38.4794700891" lon="-4.9557094742">
        <ele>566.83</ele>
        <time>2021-05-30T11:00:29Z</time>
      </trkpt>
      <trkpt lat="38.4788741358" lon="-4.9545603152">
        <ele>567.80</ele>
        <time>2021-05-30T11:00:38Z</time>
      </trkpt>
      <trkpt lat="38.4786894824" lon="-4.9540702254">
        <ele>566.35</ele>
        <time>2021-05-30T11:00:43Z</time>
      </trkpt>
      <trkpt lat="38.4786618222" lon="-4.9540285673">
        <ele>565.87</ele>
        <time>2021-05-30T11:00:44Z</time>
      </trkpt>
      <trkpt lat="38.4786258638" lon="-4.9539914355">
        <ele>566.83</ele>
        <time>2021-05-30T11:00:45Z</time>
      </trkpt>
      <trkpt lat="38.4785712976" lon="-4.9539596681">
        <ele>566.83</ele>
        <time>2021-05-30T11:00:46Z</time>
      </trkpt>
      <trkpt lat="38.4784945194" lon="-4.9539280683">
        <ele>567.32</ele>
        <time>2021-05-30T11:00:47Z</time>
      </trkpt>
      <trkpt lat="38.4784001391" lon="-4.9538921937">
        <ele>568.76</ele>
        <time>2021-05-30T11:00:48Z</time>
      </trkpt>
      <trkpt lat="38.4782971255" lon="-4.9538512062">
        <ele>568.28</ele>
        <time>2021-05-30T11:00:49Z</time>
      </trkpt>
      <trkpt lat="38.4779226221" lon="-4.9536923692">
        <ele>570.68</ele>
        <time>2021-05-30T11:00:52Z</time>
      </trkpt>
      <trkpt lat="38.4776394814" lon="-4.9535499606">
        <ele>569.72</ele>
        <time>2021-05-30T11:00:55Z</time>
      </trkpt>
      <trkpt lat="38.4775971528" lon="-4.9534790497">
        <ele>567.80</ele>
        <time>2021-05-30T11:00:56Z</time>
      </trkpt>
      <trkpt lat="38.4775849991" lon="-4.9533918779">
        <ele>567.32</ele>
        <time>2021-05-30T11:00:57Z</time>
      </trkpt>
      <trkpt lat="38.4775978234" lon="-4.9532948155">
        <ele>567.32</ele>
        <time>2021-05-30T11:00:58Z</time>
      </trkpt>
      <trkpt lat="38.4776326921" lon="-4.9531866051">
        <ele>566.83</ele>
        <time>2021-05-30T11:00:59Z</time>
      </trkpt>
      <trkpt lat="38.4776849113" lon="-4.9530614633">
        <ele>568.28</ele>
        <time>2021-05-30T11:01:00Z</time>
      </trkpt>
      <trkpt lat="38.4780208580" lon="-4.9522397015">
        <ele>571.64</ele>
        <time>2021-05-30T11:01:05Z</time>
      </trkpt>
      <trkpt lat="38.4788668435" lon="-4.9499416351">
        <ele>568.28</ele>
        <time>2021-05-30T11:01:17Z</time>
      </trkpt>
      <trkpt lat="38.4789454658" lon="-4.9498274736">
        <ele>567.80</ele>
        <time>2021-05-30T11:01:18Z</time>
      </trkpt>
      <trkpt lat="38.4790419415" lon="-4.9497423973">
        <ele>567.32</ele>
        <time>2021-05-30T11:01:19Z</time>
      </trkpt>
      <trkpt lat="38.4791526664" lon="-4.9496736657">
        <ele>567.32</ele>
        <time>2021-05-30T11:01:20Z</time>
      </trkpt>
      <trkpt lat="38.4792688396" lon="-4.9496146571">
        <ele>566.35</ele>
        <time>2021-05-30T11:01:21Z</time>
      </trkpt>
      <trkpt lat="38.4796650521" lon="-4.9494373798">
        <ele>562.99</ele>
        <time>2021-05-30T11:01:25Z</time>
      </trkpt>
      <trkpt lat="38.4798482805" lon="-4.9492393155">
        <ele>561.55</ele>
        <time>2021-05-30T11:01:31Z</time>
      </trkpt>
      <trkpt lat="38.4798191953" lon="-4.9491431750">
        <ele>562.03</ele>
        <time>2021-05-30T11:01:33Z</time>
      </trkpt>
      <trkpt lat="38.4797772020" lon="-4.9490846694">
        <ele>562.99</ele>
        <time>2021-05-30T11:01:34Z</time>
      </trkpt>
      <trkpt lat="38.4793365654" lon="-4.9485890474">
        <ele>564.91</ele>
        <time>2021-05-30T11:01:41Z</time>
      </trkpt>
      <trkpt lat="38.4792300314" lon="-4.9484949186">
        <ele>563.47</ele>
        <time>2021-05-30T11:01:44Z</time>
      </trkpt>
      <trkpt lat="38.4792195540" lon="-4.9484787416">
        <ele>563.47</ele>
        <time>2021-05-30T11:01:53Z</time>
      </trkpt>
      <trkpt lat="38.4792146925" lon="-4.9484489020">
        <ele>563.95</ele>
        <time>2021-05-30T11:02:34Z</time>
      </trkpt>
      <trkpt lat="38.4792108368" lon="-4.9484471418">
        <ele>563.47</ele>
        <time>2021-05-30T11:03:02Z</time>
      </trkpt>
      <trkpt lat="38.4792254213" lon="-4.9485468026">
        <ele>564.91</ele>
        <time>2021-05-30T11:17:14Z</time>
      </trkpt>
      <trkpt lat="38.4792094119" lon="-4.9484828487">
        <ele>568.28</ele>
        <time>2021-05-30T11:17:34Z</time>
      </trkpt>
      <trkpt lat="38.4792231582" lon="-4.9484831840">
        <ele>571.64</ele>
        <time>2021-05-30T11:17:44Z</time>
      </trkpt>
      <trkpt lat="38.4792174585" lon="-4.9484903086">
        <ele>575.01</ele>
        <time>2021-05-30T11:18:06Z</time>
      </trkpt>
      <trkpt lat="38.4792015329" lon="-4.9485164601">
        <ele>575.49</ele>
        <time>2021-05-30T11:18:29Z</time>
      </trkpt>
      <trkpt lat="38.4791943245" lon="-4.9485133588">
        <ele>574.53</ele>
        <time>2021-05-30T11:18:57Z</time>
      </trkpt>
      <trkpt lat="38.4791907202" lon="-4.9484891351">
        <ele>575.01</ele>
        <time>2021-05-30T11:19:33Z</time>
      </trkpt>
      <trkpt lat="38.4791906364" lon="-4.9484775681">
        <ele>575.49</ele>
        <time>2021-05-30T11:20:16Z</time>
      </trkpt>
      <trkpt lat="38.4792208951" lon="-4.9484841898">
        <ele>575.49</ele>
        <time>2021-05-30T11:20:54Z</time>
      </trkpt>
      <trkpt lat="38.4792058077" lon="-4.9484353233">
        <ele>575.97</ele>
        <time>2021-05-30T11:21:36Z</time>
      </trkpt>
      <trkpt lat="38.4792123456" lon="-4.9484415259">
        <ele>575.97</ele>
        <time>2021-05-30T11:22:16Z</time>
      </trkpt>
      <trkpt lat="38.4791882895" lon="-4.9484615587">
        <ele>576.45</ele>
        <time>2021-05-30T11:22:58Z</time>
      </trkpt>
      <trkpt lat="38.4792139381" lon="-4.9484810885">
        <ele>576.45</ele>
        <time>2021-05-30T11:23:38Z</time>
      </trkpt>
      <trkpt lat="38.4792258404" lon="-4.9484756403">
        <ele>575.97</ele>
        <time>2021-05-30T11:23:47Z</time>
      </trkpt>
      <trkpt lat="38.4791836794" lon="-4.9484018795">
        <ele>576.93</ele>
        <time>2021-05-30T11:23:50Z</time>
      </trkpt>
      <trkpt lat="38.4791419376" lon="-4.9483267777">
        <ele>578.37</ele>
        <time>2021-05-30T11:23:51Z</time>
      </trkpt>
      <trkpt lat="38.4790843539" lon="-4.9482425395">
        <ele>578.85</ele>
        <time>2021-05-30T11:23:52Z</time>
      </trkpt>
      <trkpt lat="38.4790146165" lon="-4.9481511768">
        <ele>579.33</ele>
        <time>2021-05-30T11:23:53Z</time>
      </trkpt>
      <trkpt lat="38.4783915896" lon="-4.9473703187">
        <ele>580.77</ele>
        <time>2021-05-30T11:23:59Z</time>
      </trkpt>
      <trkpt lat="38.4770715237" lon="-4.9457476661">
        <ele>580.77</ele>
        <time>2021-05-30T11:24:08Z</time>
      </trkpt>
      <trkpt lat="38.4760962892" lon="-4.9445366487">
        <ele>583.66</ele>
        <time>2021-05-30T11:24:14Z</time>
      </trkpt>
      <trkpt lat="38.4739847202" lon="-4.9419145379">
        <ele>587.02</ele>
        <time>2021-05-30T11:24:26Z</time>
      </trkpt>
      <trkpt lat="38.4734151699" lon="-4.9412146490">
        <ele>589.91</ele>
        <time>2021-05-30T11:24:29Z</time>
      </trkpt>
      <trkpt lat="38.4715466760" lon="-4.9388992321">
        <ele>586.54</ele>
        <time>2021-05-30T11:24:39Z</time>
      </trkpt>
      <trkpt lat="38.4709711745" lon="-4.9381905422">
        <ele>583.66</ele>
        <time>2021-05-30T11:24:42Z</time>
      </trkpt>
      <trkpt lat="38.4703928232" lon="-4.9374836124">
        <ele>580.77</ele>
        <time>2021-05-30T11:24:45Z</time>
      </trkpt>
      <trkpt lat="38.4698215965" lon="-4.9367879983">
        <ele>576.45</ele>
        <time>2021-05-30T11:24:48Z</time>
      </trkpt>
      <trkpt lat="38.4696289804" lon="-4.9365536403">
        <ele>576.93</ele>
        <time>2021-05-30T11:24:49Z</time>
      </trkpt>
      <trkpt lat="38.4689165186" lon="-4.9355788250">
        <ele>573.56</ele>
        <time>2021-05-30T11:24:53Z</time>
      </trkpt>
      <trkpt lat="38.4687699191" lon="-4.9353068322">
        <ele>573.56</ele>
        <time>2021-05-30T11:24:54Z</time>
      </trkpt>
      <trkpt lat="38.4678203333" lon="-4.9332926609">
        <ele>574.04</ele>
        <time>2021-05-30T11:25:01Z</time>
      </trkpt>
      <trkpt lat="38.4677257854" lon="-4.9329900742">
        <ele>574.04</ele>
        <time>2021-05-30T11:25:02Z</time>
      </trkpt>
      <trkpt lat="38.4675765876" lon="-4.9323529657">
        <ele>577.41</ele>
        <time>2021-05-30T11:25:04Z</time>
      </trkpt>
      <trkpt lat="38.4675013181" lon="-4.9320222996">
        <ele>580.77</ele>
        <time>2021-05-30T11:25:05Z</time>
      </trkpt>
      <trkpt lat="38.4673460014" lon="-4.9313548487">
        <ele>583.66</ele>
        <time>2021-05-30T11:25:07Z</time>
      </trkpt>
      <trkpt lat="38.4670413192" lon="-4.9300639518">
        <ele>587.50</ele>
        <time>2021-05-30T11:25:11Z</time>
      </trkpt>
      <trkpt lat="38.4668974020" lon="-4.9294840917">
        <ele>588.46</ele>
        <time>2021-05-30T11:25:13Z</time>
      </trkpt>
      <trkpt lat="38.4667057917" lon="-4.9289366696">
        <ele>588.95</ele>
        <time>2021-05-30T11:25:15Z</time>
      </trkpt>
      <trkpt lat="38.4665783029" lon="-4.9286840390">
        <ele>587.02</ele>
        <time>2021-05-30T11:25:16Z</time>
      </trkpt>
      <trkpt lat="38.4661222436" lon="-4.9279356189">
        <ele>591.35</ele>
        <time>2021-05-30T11:25:19Z</time>
      </trkpt>
      <trkpt lat="38.4646965656" lon="-4.9260682985">
        <ele>594.71</ele>
        <time>2021-05-30T11:25:27Z</time>
      </trkpt>
      <trkpt lat="38.4644844197" lon="-4.9258799572">
        <ele>594.23</ele>
        <time>2021-05-30T11:25:28Z</time>
      </trkpt>
      <trkpt lat="38.4636466485" lon="-4.9251340516">
        <ele>593.27</ele>
        <time>2021-05-30T11:25:32Z</time>
      </trkpt>
      <trkpt lat="38.4632605780" lon="-4.9247147888">
        <ele>596.64</ele>
        <time>2021-05-30T11:25:34Z</time>
      </trkpt>
      <trkpt lat="38.4622810688" lon="-4.9235391431">
        <ele>600.48</ele>
        <time>2021-05-30T11:25:39Z</time>
      </trkpt>
      <trkpt lat="38.4616877139" lon="-4.9228147790">
        <ele>599.04</ele>
        <time>2021-05-30T11:25:42Z</time>
      </trkpt>
      <trkpt lat="38.4612847958" lon="-4.9223299697">
        <ele>595.67</ele>
        <time>2021-05-30T11:25:44Z</time>
      </trkpt>
      <trkpt lat="38.4608809557" lon="-4.9218406342">
        <ele>599.04</ele>
        <time>2021-05-30T11:25:46Z</time>
      </trkpt>
      <trkpt lat="38.4602949768" lon="-4.9211298488">
        <ele>595.19</ele>
        <time>2021-05-30T11:25:49Z</time>
      </trkpt>
      <trkpt lat="38.4601031989" lon="-4.9208995141">
        <ele>595.19</ele>
        <time>2021-05-30T11:25:50Z</time>
      </trkpt>
      <trkpt lat="38.4593558684" lon="-4.9200045783">
        <ele>598.56</ele>
        <time>2021-05-30T11:25:54Z</time>
      </trkpt>
      <trkpt lat="38.4587976336" lon="-4.9193378817">
        <ele>600.96</ele>
        <time>2021-05-30T11:25:57Z</time>
      </trkpt>
      <trkpt lat="38.4584182687" lon="-4.9188821577">
        <ele>604.33</ele>
        <time>2021-05-30T11:25:59Z</time>
      </trkpt>
      <trkpt lat="38.4578328766" lon="-4.9181773234">
        <ele>606.25</ele>
        <time>2021-05-30T11:26:02Z</time>
      </trkpt>
      <trkpt lat="38.4570251964" lon="-4.9172010832">
        <ele>610.57</ele>
        <time>2021-05-30T11:26:06Z</time>
      </trkpt>
      <trkpt lat="38.4562307596" lon="-4.9162411038">
        <ele>613.46</ele>
        <time>2021-05-30T11:26:10Z</time>
      </trkpt>
      <trkpt lat="38.4560397360" lon="-4.9160109367">
        <ele>610.57</ele>
        <time>2021-05-30T11:26:11Z</time>
      </trkpt>
      <trkpt lat="38.4558486287" lon="-4.9157841224">
        <ele>613.46</ele>
        <time>2021-05-30T11:26:12Z</time>
      </trkpt>
      <trkpt lat="38.4550811816" lon="-4.9148656335">
        <ele>616.82</ele>
        <time>2021-05-30T11:26:16Z</time>
      </trkpt>
      <trkpt lat="38.4548842069" lon="-4.9146313593">
        <ele>616.34</ele>
        <time>2021-05-30T11:26:17Z</time>
      </trkpt>
      <trkpt lat="38.4534540027" lon="-4.9129206967">
        <ele>613.46</ele>
        <time>2021-05-30T11:26:24Z</time>
      </trkpt>
      <trkpt lat="38.4526462387" lon="-4.9119645730">
        <ele>609.13</ele>
        <time>2021-05-30T11:26:28Z</time>
      </trkpt>
      <trkpt lat="38.4524464980" lon="-4.9117280357">
        <ele>608.65</ele>
        <time>2021-05-30T11:26:29Z</time>
      </trkpt>
      <trkpt lat="38.4500221163" lon="-4.9088395480">
        <ele>610.57</ele>
        <time>2021-05-30T11:26:42Z</time>
      </trkpt>
      <trkpt lat="38.4490833431" lon="-4.9077307060">
        <ele>612.50</ele>
        <time>2021-05-30T11:26:47Z</time>
      </trkpt>
      <trkpt lat="38.4476389736" lon="-4.9061047006">
        <ele>616.34</ele>
        <time>2021-05-30T11:26:55Z</time>
      </trkpt>
      <trkpt lat="38.4474362992" lon="-4.9059455283">
        <ele>616.82</ele>
        <time>2021-05-30T11:26:56Z</time>
      </trkpt>
      <trkpt lat="38.4456623532" lon="-4.9047847185">
        <ele>612.50</ele>
        <time>2021-05-30T11:27:04Z</time>
      </trkpt>
      <trkpt lat="38.4454413224" lon="-4.9046408013">
        <ele>613.46</ele>
        <time>2021-05-30T11:27:05Z</time>
      </trkpt>
      <trkpt lat="38.4450160246" lon="-4.9043576606">
        <ele>608.65</ele>
        <time>2021-05-30T11:27:07Z</time>
      </trkpt>
      <trkpt lat="38.4445967618" lon="-4.9040820636">
        <ele>606.73</ele>
        <time>2021-05-30T11:27:09Z</time>
      </trkpt>
      <trkpt lat="38.4430637117" lon="-4.9030742235">
        <ele>603.36</ele>
        <time>2021-05-30T11:27:16Z</time>
      </trkpt>
      <trkpt lat="38.4422205761" lon="-4.9025163241">
        <ele>601.44</ele>
        <time>2021-05-30T11:27:20Z</time>
      </trkpt>
      <trkpt lat="38.4407496359" lon="-4.9015404191">
        <ele>601.44</ele>
        <time>2021-05-30T11:27:27Z</time>
      </trkpt>
      <trkpt lat="38.4400835261" lon="-4.9011031352">
        <ele>603.36</ele>
        <time>2021-05-30T11:27:30Z</time>
      </trkpt>
      <trkpt lat="38.4374212660" lon="-4.8991459608">
        <ele>600.48</ele>
        <time>2021-05-30T11:27:42Z</time>
      </trkpt>
      <trkpt lat="38.4364312794" lon="-4.8982548807">
        <ele>603.85</ele>
        <time>2021-05-30T11:27:47Z</time>
      </trkpt>
      <trkpt lat="38.4357940033" lon="-4.8978167586">
        <ele>602.40</ele>
        <time>2021-05-30T11:27:50Z</time>
      </trkpt>
      <trkpt lat="38.4355653450" lon="-4.8977173492">
        <ele>603.36</ele>
        <time>2021-05-30T11:27:51Z</time>
      </trkpt>
      <trkpt lat="38.4350852296" lon="-4.8975620326">
        <ele>606.25</ele>
        <time>2021-05-30T11:27:53Z</time>
      </trkpt>
      <trkpt lat="38.4348418191" lon="-4.8974936362">
        <ele>606.25</ele>
        <time>2021-05-30T11:27:54Z</time>
      </trkpt>
      <trkpt lat="38.4341161977" lon="-4.8972989246">
        <ele>607.69</ele>
        <time>2021-05-30T11:27:57Z</time>
      </trkpt>
      <trkpt lat="38.4329588246" lon="-4.8969867826">
        <ele>602.88</ele>
        <time>2021-05-30T11:28:02Z</time>
      </trkpt>
      <trkpt lat="38.4327387996" lon="-4.8969273549">
        <ele>602.40</ele>
        <time>2021-05-30T11:28:03Z</time>
      </trkpt>
      <trkpt lat="38.4305487759" lon="-4.8963408731">
        <ele>605.77</ele>
        <time>2021-05-30T11:28:13Z</time>
      </trkpt>
      <trkpt lat="38.4300866816" lon="-4.8962069303">
        <ele>607.21</ele>
        <time>2021-05-30T11:28:15Z</time>
      </trkpt>
      <trkpt lat="38.4293722082" lon="-4.8959944490">
        <ele>608.65</ele>
        <time>2021-05-30T11:28:18Z</time>
      </trkpt>
      <trkpt lat="38.4284253884" lon="-4.8957890086">
        <ele>607.69</ele>
        <time>2021-05-30T11:28:22Z</time>
      </trkpt>
      <trkpt lat="38.4282031003" lon="-4.8957916908">
        <ele>609.13</ele>
        <time>2021-05-30T11:28:23Z</time>
      </trkpt>
      <trkpt lat="38.4267962817" lon="-4.8959531263">
        <ele>612.50</ele>
        <time>2021-05-30T11:28:29Z</time>
      </trkpt>
      <trkpt lat="38.4265465010" lon="-4.8959801998">
        <ele>612.50</ele>
        <time>2021-05-30T11:28:30Z</time>
      </trkpt>
      <trkpt lat="38.4260536451" lon="-4.8960357718">
        <ele>613.94</ele>
        <time>2021-05-30T11:28:32Z</time>
      </trkpt>
      <trkpt lat="38.4244245384" lon="-4.8965990357">
        <ele>615.38</ele>
        <time>2021-05-30T11:28:39Z</time>
      </trkpt>
      <trkpt lat="38.4226464015" lon="-4.8973099049">
        <ele>619.71</ele>
        <time>2021-05-30T11:28:47Z</time>
      </trkpt>
      <trkpt lat="38.4217552375" lon="-4.8975057062">
        <ele>620.19</ele>
        <time>2021-05-30T11:28:51Z</time>
      </trkpt>
      <trkpt lat="38.4190752916" lon="-4.8979692254">
        <ele>620.19</ele>
        <time>2021-05-30T11:29:02Z</time>
      </trkpt>
      <trkpt lat="38.4183962736" lon="-4.8980926070">
        <ele>617.30</ele>
        <time>2021-05-30T11:29:05Z</time>
      </trkpt>
      <trkpt lat="38.4178014938" lon="-4.8981682956">
        <ele>615.38</ele>
        <time>2021-05-30T11:29:08Z</time>
      </trkpt>
      <trkpt lat="38.4176211152" lon="-4.8981602490">
        <ele>614.42</ele>
        <time>2021-05-30T11:29:09Z</time>
      </trkpt>
      <trkpt lat="38.4174436703" lon="-4.8981233686">
        <ele>616.34</ele>
        <time>2021-05-30T11:29:10Z</time>
      </trkpt>
      <trkpt lat="38.4172620345" lon="-4.8980633542">
        <ele>618.75</ele>
        <time>2021-05-30T11:29:11Z</time>
      </trkpt>
      <trkpt lat="38.4170754533" lon="-4.8979862407">
        <ele>620.67</ele>
        <time>2021-05-30T11:29:12Z</time>
      </trkpt>
      <trkpt lat="38.4168840107" lon="-4.8978956323">
        <ele>619.71</ele>
        <time>2021-05-30T11:29:13Z</time>
      </trkpt>
      <trkpt lat="38.4164807573" lon="-4.8976952210">
        <ele>623.07</ele>
        <time>2021-05-30T11:29:15Z</time>
      </trkpt>
      <trkpt lat="38.4162712097" lon="-4.8975922074">
        <ele>623.07</ele>
        <time>2021-05-30T11:29:16Z</time>
      </trkpt>
      <trkpt lat="38.4150296822" lon="-4.8968284484">
        <ele>622.11</ele>
        <time>2021-05-30T11:29:23Z</time>
      </trkpt>
      <trkpt lat="38.4135760088" lon="-4.8957966361">
        <ele>621.63</ele>
        <time>2021-05-30T11:29:33Z</time>
      </trkpt>
      <trkpt lat="38.4129285067" lon="-4.8953514732">
        <ele>623.55</ele>
        <time>2021-05-30T11:29:38Z</time>
      </trkpt>
      <trkpt lat="38.4125295281" lon="-4.8950421810">
        <ele>622.59</ele>
        <time>2021-05-30T11:29:41Z</time>
      </trkpt>
      <trkpt lat="38.4124231618" lon="-4.8949109204">
        <ele>621.63</ele>
        <time>2021-05-30T11:29:42Z</time>
      </trkpt>
      <trkpt lat="38.4123274405" lon="-4.8947561067">
        <ele>622.11</ele>
        <time>2021-05-30T11:29:43Z</time>
      </trkpt>
      <trkpt lat="38.4115043376" lon="-4.8932112381">
        <ele>622.11</ele>
        <time>2021-05-30T11:29:53Z</time>
      </trkpt>
      <trkpt lat="38.4109272435" lon="-4.8921637516">
        <ele>624.99</ele>
        <time>2021-05-30T11:29:59Z</time>
      </trkpt>
      <trkpt lat="38.4107315261" lon="-4.8917988036">
        <ele>626.92</ele>
        <time>2021-05-30T11:30:01Z</time>
      </trkpt>
      <trkpt lat="38.4104166180" lon="-4.8912287503">
        <ele>630.76</ele>
        <time>2021-05-30T11:30:04Z</time>
      </trkpt>
      <trkpt lat="38.4100674279" lon="-4.8906291090">
        <ele>634.13</ele>
        <time>2021-05-30T11:30:07Z</time>
      </trkpt>
      <trkpt lat="38.4098439664" lon="-4.8901910707">
        <ele>637.97</ele>
        <time>2021-05-30T11:30:09Z</time>
      </trkpt>
      <trkpt lat="38.4094705526" lon="-4.8894978035">
        <ele>641.82</ele>
        <time>2021-05-30T11:30:12Z</time>
      </trkpt>
      <trkpt lat="38.4087039437" lon="-4.8880867939">
        <ele>646.14</ele>
        <time>2021-05-30T11:30:18Z</time>
      </trkpt>
      <trkpt lat="38.4082899615" lon="-4.8873229511">
        <ele>648.55</ele>
        <time>2021-05-30T11:30:21Z</time>
      </trkpt>
      <trkpt lat="38.4080052283" lon="-4.8868034407">
        <ele>649.99</ele>
        <time>2021-05-30T11:30:23Z</time>
      </trkpt>
      <trkpt lat="38.4065756109" lon="-4.8846891057">
        <ele>647.59</ele>
        <time>2021-05-30T11:30:32Z</time>
      </trkpt>
      <trkpt lat="38.4060306195" lon="-4.8840565234">
        <ele>646.14</ele>
        <time>2021-05-30T11:30:35Z</time>
      </trkpt>
      <trkpt lat="38.4052890725" lon="-4.8831965402">
        <ele>648.55</ele>
        <time>2021-05-30T11:30:39Z</time>
      </trkpt>
      <trkpt lat="38.4030125476" lon="-4.8805254791">
        <ele>647.10</ele>
        <time>2021-05-30T11:30:52Z</time>
      </trkpt>
      <trkpt lat="38.4025030956" lon="-4.8798965011">
        <ele>645.66</ele>
        <time>2021-05-30T11:30:55Z</time>
      </trkpt>
      <trkpt lat="38.4016331378" lon="-4.8787475098">
        <ele>649.03</ele>
        <time>2021-05-30T11:31:00Z</time>
      </trkpt>
      <trkpt lat="38.4010655154" lon="-4.8780007660">
        <ele>652.39</ele>
        <time>2021-05-30T11:31:03Z</time>
      </trkpt>
      <trkpt lat="38.3979056217" lon="-4.8738380615">
        <ele>651.91</ele>
        <time>2021-05-30T11:31:20Z</time>
      </trkpt>
      <trkpt lat="38.3977192920" lon="-4.8735937290">
        <ele>652.39</ele>
        <time>2021-05-30T11:31:21Z</time>
      </trkpt>
      <trkpt lat="38.3973471355" lon="-4.8730996996">
        <ele>648.55</ele>
        <time>2021-05-30T11:31:23Z</time>
      </trkpt>
      <trkpt lat="38.3971582912" lon="-4.8728496674">
        <ele>648.55</ele>
        <time>2021-05-30T11:31:24Z</time>
      </trkpt>
      <trkpt lat="38.3964161575" lon="-4.8718721699">
        <ele>644.70</ele>
        <time>2021-05-30T11:31:28Z</time>
      </trkpt>
      <trkpt lat="38.3962304983" lon="-4.8716286756">
        <ele>645.18</ele>
        <time>2021-05-30T11:31:29Z</time>
      </trkpt>
      <trkpt lat="38.3937668055" lon="-4.8683671094">
        <ele>640.86</ele>
        <time>2021-05-30T11:31:42Z</time>
      </trkpt>
      <trkpt lat="38.3935720939" lon="-4.8681146465">
        <ele>641.82</ele>
        <time>2021-05-30T11:31:43Z</time>
      </trkpt>
      <trkpt lat="38.3931944892" lon="-4.8676219583">
        <ele>642.30</ele>
        <time>2021-05-30T11:31:45Z</time>
      </trkpt>
      <trkpt lat="38.3917004988" lon="-4.8656409793">
        <ele>646.62</ele>
        <time>2021-05-30T11:31:53Z</time>
      </trkpt>
      <trkpt lat="38.3915114868" lon="-4.8653895222">
        <ele>647.10</ele>
        <time>2021-05-30T11:31:54Z</time>
      </trkpt>
      <trkpt lat="38.3911342174" lon="-4.8648921400">
        <ele>649.03</ele>
        <time>2021-05-30T11:31:56Z</time>
      </trkpt>
      <trkpt lat="38.3901959471" lon="-4.8636558931">
        <ele>651.91</ele>
        <time>2021-05-30T11:32:01Z</time>
      </trkpt>
      <trkpt lat="38.3892575931" lon="-4.8624132760">
        <ele>655.28</ele>
        <time>2021-05-30T11:32:06Z</time>
      </trkpt>
      <trkpt lat="38.3885166328" lon="-4.8614285700">
        <ele>659.12</ele>
        <time>2021-05-30T11:32:10Z</time>
      </trkpt>
      <trkpt lat="38.3881615754" lon="-4.8609617818">
        <ele>660.08</ele>
        <time>2021-05-30T11:32:12Z</time>
      </trkpt>
      <trkpt lat="38.3875670470" lon="-4.8601919040">
        <ele>657.68</ele>
        <time>2021-05-30T11:32:16Z</time>
      </trkpt>
      <trkpt lat="38.3873435017" lon="-4.8598894011">
        <ele>653.35</ele>
        <time>2021-05-30T11:32:18Z</time>
      </trkpt>
      <trkpt lat="38.3868788928" lon="-4.8592692241">
        <ele>649.51</ele>
        <time>2021-05-30T11:32:24Z</time>
      </trkpt>
      <trkpt lat="38.3867831714" lon="-4.8591331858">
        <ele>648.07</ele>
        <time>2021-05-30T11:32:30Z</time>
      </trkpt>
      <trkpt lat="38.3867734484" lon="-4.8590886779">
        <ele>648.07</ele>
        <time>2021-05-30T11:32:31Z</time>
      </trkpt>
      <trkpt lat="38.3867775556" lon="-4.8590130731">
        <ele>648.55</ele>
        <time>2021-05-30T11:32:32Z</time>
      </trkpt>
      <trkpt lat="38.3868001867" lon="-4.8589194473">
        <ele>649.99</ele>
        <time>2021-05-30T11:32:33Z</time>
      </trkpt>
      <trkpt lat="38.3868825808" lon="-4.8583664093">
        <ele>652.87</ele>
        <time>2021-05-30T11:32:37Z</time>
      </trkpt>
      <trkpt lat="38.3868958242" lon="-4.8581991903">
        <ele>652.87</ele>
        <time>2021-05-30T11:32:38Z</time>
      </trkpt>
      <trkpt lat="38.3869160246" lon="-4.8569134064">
        <ele>654.31</ele>
        <time>2021-05-30T11:32:45Z</time>
      </trkpt>
      <trkpt lat="38.3868423477" lon="-4.8565257434">
        <ele>651.91</ele>
        <time>2021-05-30T11:32:48Z</time>
      </trkpt>
      <trkpt lat="38.3866781462" lon="-4.8558650818">
        <ele>654.80</ele>
        <time>2021-05-30T11:32:53Z</time>
      </trkpt>
      <trkpt lat="38.3862669300" lon="-4.8544490431">
        <ele>655.76</ele>
        <time>2021-05-30T11:33:03Z</time>
      </trkpt>
      <trkpt lat="38.3859316539" lon="-4.8538544308">
        <ele>656.72</ele>
        <time>2021-05-30T11:33:08Z</time>
      </trkpt>
      <trkpt lat="38.3854662068" lon="-4.8530760873">
        <ele>656.24</ele>
        <time>2021-05-30T11:33:15Z</time>
      </trkpt>
      <trkpt lat="38.3851524722" lon="-4.8525802139">
        <ele>658.16</ele>
        <time>2021-05-30T11:33:20Z</time>
      </trkpt>
      <trkpt lat="38.3845006116" lon="-4.8516066559">
        <ele>658.16</ele>
        <time>2021-05-30T11:33:29Z</time>
      </trkpt>
      <trkpt lat="38.3841674309" lon="-4.8511790112">
        <ele>656.72</ele>
        <time>2021-05-30T11:33:34Z</time>
      </trkpt>
      <trkpt lat="38.3840962686" lon="-4.8511275463">
        <ele>656.72</ele>
        <time>2021-05-30T11:33:35Z</time>
      </trkpt>
      <trkpt lat="38.3840224240" lon="-4.8511026520">
        <ele>656.24</ele>
        <time>2021-05-30T11:33:36Z</time>
      </trkpt>
      <trkpt lat="38.3839488309" lon="-4.8511073459">
        <ele>656.24</ele>
        <time>2021-05-30T11:33:37Z</time>
      </trkpt>
      <trkpt lat="38.3838774171" lon="-4.8511381075">
        <ele>656.24</ele>
        <time>2021-05-30T11:33:38Z</time>
      </trkpt>
      <trkpt lat="38.3838115353" lon="-4.8512004688">
        <ele>656.72</ele>
        <time>2021-05-30T11:33:39Z</time>
      </trkpt>
      <trkpt lat="38.3837510180" lon="-4.8512730561">
        <ele>656.24</ele>
        <time>2021-05-30T11:33:40Z</time>
      </trkpt>
      <trkpt lat="38.3836855553" lon="-4.8513282929">
        <ele>655.28</ele>
        <time>2021-05-30T11:33:41Z</time>
      </trkpt>
      <trkpt lat="38.3836071007" lon="-4.8513513431">
        <ele>655.28</ele>
        <time>2021-05-30T11:33:42Z</time>
      </trkpt>
      <trkpt lat="38.3834634349" lon="-4.8513011355">
        <ele>654.80</ele>
        <time>2021-05-30T11:33:44Z</time>
      </trkpt>
      <trkpt lat="38.3834176697" lon="-4.8512450606">
        <ele>654.31</ele>
        <time>2021-05-30T11:33:45Z</time>
      </trkpt>
      <trkpt lat="38.3833957929" lon="-4.8511719704">
        <ele>654.31</ele>
        <time>2021-05-30T11:33:46Z</time>
      </trkpt>
      <trkpt lat="38.3833931945" lon="-4.8510831222">
        <ele>655.28</ele>
        <time>2021-05-30T11:33:47Z</time>
      </trkpt>
      <trkpt lat="38.3833980560" lon="-4.8510012310">
        <ele>655.28</ele>
        <time>2021-05-30T11:33:48Z</time>
      </trkpt>
      <trkpt lat="38.3834039234" lon="-4.8509307392">
        <ele>654.80</ele>
        <time>2021-05-30T11:33:49Z</time>
      </trkpt>
      <trkpt lat="38.3833975531" lon="-4.8508685455">
        <ele>654.80</ele>
        <time>2021-05-30T11:33:50Z</time>
      </trkpt>
      <trkpt lat="38.3833685517" lon="-4.8508227803">
        <ele>655.28</ele>
        <time>2021-05-30T11:33:51Z</time>
      </trkpt>
      <trkpt lat="38.3833221998" lon="-4.8507859837">
        <ele>655.28</ele>
        <time>2021-05-30T11:33:52Z</time>
      </trkpt>
      <trkpt lat="38.3832564019" lon="-4.8507552221">
        <ele>655.76</ele>
        <time>2021-05-30T11:33:53Z</time>
      </trkpt>
      <trkpt lat="38.3831748459" lon="-4.8507257178">
        <ele>655.76</ele>
        <time>2021-05-30T11:33:54Z</time>
      </trkpt>
      <trkpt lat="38.3822889626" lon="-4.8503269907">
        <ele>655.76</ele>
        <time>2021-05-30T11:34:04Z</time>
      </trkpt>
      <trkpt lat="38.3817262854" lon="-4.8500955664">
        <ele>653.83</ele>
        <time>2021-05-30T11:34:10Z</time>
      </trkpt>
      <trkpt lat="38.3811109699" lon="-4.8498146050">
        <ele>650.95</ele>
        <time>2021-05-30T11:34:19Z</time>
      </trkpt>
      <trkpt lat="38.3810371254" lon="-4.8497879505">
        <ele>650.95</ele>
        <time>2021-05-30T11:34:29Z</time>
      </trkpt>
      <trkpt lat="38.3809719980" lon="-4.8497699294">
        <ele>650.95</ele>
        <time>2021-05-30T11:34:41Z</time>
      </trkpt>
      <trkpt lat="38.3809505403" lon="-4.8497941531">
        <ele>650.95</ele>
        <time>2021-05-30T11:34:42Z</time>
      </trkpt>
      <trkpt lat="38.3809276577" lon="-4.8498088215">
        <ele>650.95</ele>
        <time>2021-05-30T11:34:43Z</time>
      </trkpt>
      <trkpt lat="38.3809120674" lon="-4.8497952428">
        <ele>650.47</ele>
        <time>2021-05-30T11:34:44Z</time>
      </trkpt>
      <trkpt lat="38.3809090499" lon="-4.8497622181">
        <ele>650.47</ele>
        <time>2021-05-30T11:34:45Z</time>
      </trkpt>
      <trkpt lat="38.3809039369" lon="-4.8497211467">
        <ele>650.95</ele>
        <time>2021-05-30T11:34:46Z</time>
      </trkpt>
      <trkpt lat="38.3808865864" lon="-4.8496842664">
        <ele>651.43</ele>
        <time>2021-05-30T11:34:47Z</time>
      </trkpt>
      <trkpt lat="38.3808409050" lon="-4.8496615514">
        <ele>651.43</ele>
        <time>2021-05-30T11:34:48Z</time>
      </trkpt>
      <trkpt lat="38.3807668090" lon="-4.8496457096">
        <ele>651.43</ele>
        <time>2021-05-30T11:34:49Z</time>
      </trkpt>
      <trkpt lat="38.3804555051" lon="-4.8495616391">
        <ele>653.35</ele>
        <time>2021-05-30T11:34:52Z</time>
      </trkpt>
      <trkpt lat="38.3796242718" lon="-4.8493184801">
        <ele>649.99</ele>
        <time>2021-05-30T11:34:58Z</time>
      </trkpt>
      <trkpt lat="38.3792351838" lon="-4.8491816036">
        <ele>648.55</ele>
        <time>2021-05-30T11:35:01Z</time>
      </trkpt>
      <trkpt lat="38.3787610196" lon="-4.8489811923">
        <ele>645.66</ele>
        <time>2021-05-30T11:35:05Z</time>
      </trkpt>
      <trkpt lat="38.3786551561" lon="-4.8488983791">
        <ele>645.18</ele>
        <time>2021-05-30T11:35:06Z</time>
      </trkpt>
      <trkpt lat="38.3785546571" lon="-4.8488164879">
        <ele>645.18</ele>
        <time>2021-05-30T11:35:07Z</time>
      </trkpt>
      <trkpt lat="38.3778206538" lon="-4.8482239712">
        <ele>641.82</ele>
        <time>2021-05-30T11:35:17Z</time>
      </trkpt>
      <trkpt lat="38.3776428737" lon="-4.8480745219">
        <ele>640.38</ele>
        <time>2021-05-30T11:35:22Z</time>
      </trkpt>
      <trkpt lat="38.3776220866" lon="-4.8480885196">
        <ele>640.86</ele>
        <time>2021-05-30T11:35:23Z</time>
      </trkpt>
      <trkpt lat="38.3776071668" lon="-4.8481228855">
        <ele>641.34</ele>
        <time>2021-05-30T11:35:24Z</time>
      </trkpt>
      <trkpt lat="38.3775843680" lon="-4.8481740151">
        <ele>640.38</ele>
        <time>2021-05-30T11:35:25Z</time>
      </trkpt>
      <trkpt lat="38.3775536064" lon="-4.8482177686">
        <ele>639.89</ele>
        <time>2021-05-30T11:35:26Z</time>
      </trkpt>
      <trkpt lat="38.3775202464" lon="-4.8482381366">
        <ele>640.38</ele>
        <time>2021-05-30T11:35:27Z</time>
      </trkpt>
      <trkpt lat="38.3774848748" lon="-4.8482385557">
        <ele>639.41</ele>
        <time>2021-05-30T11:35:28Z</time>
      </trkpt>
      <trkpt lat="38.3774510119" lon="-4.8482286651">
        <ele>639.89</ele>
        <time>2021-05-30T11:35:29Z</time>
      </trkpt>
      <trkpt lat="38.3774178196" lon="-4.8482183553">
        <ele>639.41</ele>
        <time>2021-05-30T11:35:30Z</time>
      </trkpt>
      <trkpt lat="38.3773744013" lon="-4.8482038546">
        <ele>639.41</ele>
        <time>2021-05-30T11:35:32Z</time>
      </trkpt>
      <trkpt lat="38.3773599844" lon="-4.8481910303">
        <ele>639.41</ele>
        <time>2021-05-30T11:35:33Z</time>
      </trkpt>
      <trkpt lat="38.3773437236" lon="-4.8481715005">
        <ele>639.89</ele>
        <time>2021-05-30T11:35:34Z</time>
      </trkpt>
      <trkpt lat="38.3773241099" lon="-4.8481466062">
        <ele>639.89</ele>
        <time>2021-05-30T11:35:35Z</time>
      </trkpt>
      <trkpt lat="38.3773059212" lon="-4.8481162637">
        <ele>639.41</ele>
        <time>2021-05-30T11:35:36Z</time>
      </trkpt>
      <trkpt lat="38.3772920072" lon="-4.8480875138">
        <ele>639.89</ele>
        <time>2021-05-30T11:35:37Z</time>
      </trkpt>
      <trkpt lat="38.3772832900" lon="-4.8480575904">
        <ele>639.89</ele>
        <time>2021-05-30T11:35:38Z</time>
      </trkpt>
      <trkpt lat="38.3772780932" lon="-4.8480269965">
        <ele>639.89</ele>
        <time>2021-05-30T11:35:39Z</time>
      </trkpt>
      <trkpt lat="38.3772746567" lon="-4.8479896132">
        <ele>640.38</ele>
        <time>2021-05-30T11:35:40Z</time>
      </trkpt>
      <trkpt lat="38.3772683702" lon="-4.8479396570">
        <ele>640.38</ele>
        <time>2021-05-30T11:35:41Z</time>
      </trkpt>
      <trkpt lat="38.3772588149" lon="-4.8478910420">
        <ele>640.38</ele>
        <time>2021-05-30T11:35:42Z</time>
      </trkpt>
      <trkpt lat="38.3772560488" lon="-4.8478459474">
        <ele>640.38</ele>
        <time>2021-05-30T11:35:43Z</time>
      </trkpt>
      <trkpt lat="38.3772649337" lon="-4.8476416804">
        <ele>640.38</ele>
        <time>2021-05-30T11:35:48Z</time>
      </trkpt>
      <trkpt lat="38.3772421349" lon="-4.8476018663">
        <ele>641.82</ele>
        <time>2021-05-30T11:35:49Z</time>
      </trkpt>
      <trkpt lat="38.3772051707" lon="-4.8475664947">
        <ele>641.82</ele>
        <time>2021-05-30T11:35:50Z</time>
      </trkpt>
      <trkpt lat="38.3769922704" lon="-4.8474302888">
        <ele>643.26</ele>
        <time>2021-05-30T11:35:54Z</time>
      </trkpt>
      <trkpt lat="38.3765509631" lon="-4.8473909777">
        <ele>645.18</ele>
        <time>2021-05-30T11:35:59Z</time>
      </trkpt>
      <trkpt lat="38.3764041960" lon="-4.8473163787">
        <ele>646.14</ele>
        <time>2021-05-30T11:36:01Z</time>
      </trkpt>
      <trkpt lat="38.3758964203" lon="-4.8469376005">
        <ele>649.03</ele>
        <time>2021-05-30T11:36:08Z</time>
      </trkpt>
      <trkpt lat="38.3758222405" lon="-4.8468890693">
        <ele>649.51</ele>
        <time>2021-05-30T11:36:09Z</time>
      </trkpt>
      <trkpt lat="38.3756140340" lon="-4.8467890732">
        <ele>649.99</ele>
        <time>2021-05-30T11:36:12Z</time>
      </trkpt>
      <trkpt lat="38.3753251098" lon="-4.8467309866">
        <ele>652.39</ele>
        <time>2021-05-30T11:36:17Z</time>
      </trkpt>
      <trkpt lat="38.3752547018" lon="-4.8467134684">
        <ele>652.39</ele>
        <time>2021-05-30T11:36:18Z</time>
      </trkpt>
      <trkpt lat="38.3750358503" lon="-4.8466555495">
        <ele>653.83</ele>
        <time>2021-05-30T11:36:21Z</time>
      </trkpt>
      <trkpt lat="38.3746750094" lon="-4.8466163222">
        <ele>656.24</ele>
        <time>2021-05-30T11:36:25Z</time>
      </trkpt>
      <trkpt lat="38.3741285931" lon="-4.8465571459">
        <ele>658.64</ele>
        <time>2021-05-30T11:36:33Z</time>
      </trkpt>
      <trkpt lat="38.3734736312" lon="-4.8462942056">
        <ele>658.64</ele>
        <time>2021-05-30T11:36:40Z</time>
      </trkpt>
      <trkpt lat="38.3732667658" lon="-4.8462170921">
        <ele>657.68</ele>
        <time>2021-05-30T11:36:42Z</time>
      </trkpt>
      <trkpt lat="38.3729485050" lon="-4.8460738454">
        <ele>655.28</ele>
        <time>2021-05-30T11:36:46Z</time>
      </trkpt>
      <trkpt lat="38.3728850540" lon="-4.8460178543">
        <ele>654.80</ele>
        <time>2021-05-30T11:36:47Z</time>
      </trkpt>
      <trkpt lat="38.3727520332" lon="-4.8458912876">
        <ele>654.31</ele>
        <time>2021-05-30T11:36:49Z</time>
      </trkpt>
      <trkpt lat="38.3726700582" lon="-4.8458372243">
        <ele>654.31</ele>
        <time>2021-05-30T11:36:50Z</time>
      </trkpt>
      <trkpt lat="38.3719077241" lon="-4.8453927319">
        <ele>653.35</ele>
        <time>2021-05-30T11:36:57Z</time>
      </trkpt>
      <trkpt lat="38.3716096636" lon="-4.8452269379">
        <ele>649.51</ele>
        <time>2021-05-30T11:37:00Z</time>
      </trkpt>
      <trkpt lat="38.3714539278" lon="-4.8451630678">
        <ele>648.07</ele>
        <time>2021-05-30T11:37:02Z</time>
      </trkpt>
      <trkpt lat="38.3714155387" lon="-4.8451551888">
        <ele>647.10</ele>
        <time>2021-05-30T11:37:03Z</time>
      </trkpt>
      <trkpt lat="38.3713981044" lon="-4.8451551888">
        <ele>647.59</ele>
        <time>2021-05-30T11:37:04Z</time>
      </trkpt>
      <trkpt lat="38.3713439573" lon="-4.8451481480">
        <ele>647.59</ele>
        <time>2021-05-30T11:37:15Z</time>
      </trkpt>
      <trkpt lat="38.3712918218" lon="-4.8451274447">
        <ele>647.59</ele>
        <time>2021-05-30T11:37:16Z</time>
      </trkpt>
      <trkpt lat="38.3712371718" lon="-4.8450844456">
        <ele>647.59</ele>
        <time>2021-05-30T11:37:17Z</time>
      </trkpt>
      <trkpt lat="38.3711871319" lon="-4.8450226709">
        <ele>647.59</ele>
        <time>2021-05-30T11:37:18Z</time>
      </trkpt>
      <trkpt lat="38.3711327333" lon="-4.8449572083">
        <ele>647.10</ele>
        <time>2021-05-30T11:37:19Z</time>
      </trkpt>
      <trkpt lat="38.3710614871" lon="-4.8448985349">
        <ele>647.59</ele>
        <time>2021-05-30T11:37:20Z</time>
      </trkpt>
      <trkpt lat="38.3709757403" lon="-4.8448448908">
        <ele>648.07</ele>
        <time>2021-05-30T11:37:21Z</time>
      </trkpt>
      <trkpt lat="38.3708793484" lon="-4.8447924200">
        <ele>648.55</ele>
        <time>2021-05-30T11:37:22Z</time>
      </trkpt>
      <trkpt lat="38.3702850714" lon="-4.8444753326">
        <ele>646.62</ele>
        <time>2021-05-30T11:37:28Z</time>
      </trkpt>
      <trkpt lat="38.3702270687" lon="-4.8444794398">
        <ele>646.62</ele>
        <time>2021-05-30T11:37:29Z</time>
      </trkpt>
      <trkpt lat="38.3701880090" lon="-4.8445092794">
        <ele>646.14</ele>
        <time>2021-05-30T11:37:30Z</time>
      </trkpt>
      <trkpt lat="38.3701671381" lon="-4.8445494287">
        <ele>645.18</ele>
        <time>2021-05-30T11:37:31Z</time>
      </trkpt>
      <trkpt lat="38.3701577503" lon="-4.8445901647">
        <ele>645.18</ele>
        <time>2021-05-30T11:37:32Z</time>
      </trkpt>
      <trkpt lat="38.3701558225" lon="-4.8446299788">
        <ele>645.18</ele>
        <time>2021-05-30T11:37:33Z</time>
      </trkpt>
      <trkpt lat="38.3701626956" lon="-4.8446642607">
        <ele>645.18</ele>
        <time>2021-05-30T11:37:34Z</time>
      </trkpt>
      <trkpt lat="38.3701970614" lon="-4.8447014764">
        <ele>645.18</ele>
        <time>2021-05-30T11:37:43Z</time>
      </trkpt>
      <trkpt lat="38.3702245541" lon="-4.8446904961">
        <ele>645.66</ele>
        <time>2021-05-30T11:38:20Z</time>
      </trkpt>
      <trkpt lat="38.3831611834" lon="-4.8525671382">
        <ele>667.77</ele>
        <time>2021-05-30T15:48:30Z</time>
      </trkpt>
    </trkseg>
  </trk>
</gpx>
